<?xml version='1.0' encoding='UTF-8'?><gpx version="1.1" creator="JPX - https://github.com/jenetics/jpx" xmlns="http://www.topografix.com/GPX/1/1"><trk><trkseg><trkpt lat="43.9848276" lon="12.6907849"><ele>1.0</ele><time>2026-05-02T04:13:44.818Z</time></trkpt><trkpt lat="43.9847737" lon="12.6907263"><ele>0.9999999999999999</ele><time>2026-05-02T04:13:45.797Z</time></trkpt><trkpt lat="43.9847253" lon="12.6906618"><ele>1.0</ele><time>2026-05-02T04:13:46.79Z</time></trkpt><trkpt lat="43.984652" lon="12.6905903"><ele>1.0</ele><time>2026-05-02T04:13:48.795Z</time></trkpt><trkpt lat="43.9845942" lon="12.6906298"><ele>0.9999999999999999</ele><time>2026-05-02T04:13:50.815Z</time></trkpt><trkpt lat="43.9845575" lon="12.6907041"><ele>1.0</ele><time>2026-05-02T04:13:51.795Z</time></trkpt><trkpt lat="43.9845191" lon="12.6907898"><ele>1.0</ele><time>2026-05-02T04:13:52.792Z</time></trkpt><trkpt lat="43.9844603" lon="12.6908965"><ele>1.0</ele><time>2026-05-02T04:13:53.789Z</time></trkpt><trkpt lat="43.9844033" lon="12.6909975"><ele>1.0</ele><time>2026-05-02T04:13:54.792Z</time></trkpt><trkpt lat="43.9843386" lon="12.6910983"><ele>1.0</ele><time>2026-05-02T04:13:55.795Z</time></trkpt><trkpt lat="43.9842707" lon="12.6911942"><ele>1.0</ele><time>2026-05-02T04:13:56.8Z</time></trkpt><trkpt lat="43.9842103" lon="12.6912729"><ele>1.0</ele><time>2026-05-02T04:13:57.803Z</time></trkpt><trkpt lat="43.9841529" lon="12.6913546"><ele>0.8333333333333333</ele><time>2026-05-02T04:13:58.796Z</time></trkpt><trkpt lat="43.9840989" lon="12.6914387"><ele>0.6666666666666666</ele><time>2026-05-02T04:13:59.801Z</time></trkpt><trkpt lat="43.9840477" lon="12.6915218"><ele>0.5</ele><time>2026-05-02T04:14:00.795Z</time></trkpt><trkpt lat="43.984007" lon="12.6915904"><ele>0.3333333333333333</ele><time>2026-05-02T04:14:01.798Z</time></trkpt><trkpt lat="43.9839273" lon="12.6916702"><ele>0.16666666666666666</ele><time>2026-05-02T04:14:03.798Z</time></trkpt><trkpt lat="43.9838373" lon="12.6916593"><ele>0.0</ele><time>2026-05-02T04:14:05.799Z</time></trkpt><trkpt lat="43.9837267" lon="12.6915346"><ele>0.0</ele><time>2026-05-02T04:14:07.809Z</time></trkpt><trkpt lat="43.9836681" lon="12.691453"><ele>0.0</ele><time>2026-05-02T04:14:08.805Z</time></trkpt><trkpt lat="43.9836086" lon="12.6913779"><ele>0.0</ele><time>2026-05-02T04:14:09.792Z</time></trkpt><trkpt lat="43.9835569" lon="12.6913199"><ele>0.0</ele><time>2026-05-02T04:14:10.794Z</time></trkpt><trkpt lat="43.9835014" lon="12.6912009"><ele>0.0</ele><time>2026-05-02T04:14:12.818Z</time></trkpt><trkpt lat="43.9834317" lon="12.6910894"><ele>0.0</ele><time>2026-05-02T04:14:14.818Z</time></trkpt><trkpt lat="43.9833582" lon="12.6910417"><ele>0.2</ele><time>2026-05-02T04:14:15.817Z</time></trkpt><trkpt lat="43.9832898" lon="12.6910107"><ele>0.4</ele><time>2026-05-02T04:14:16.801Z</time></trkpt><trkpt lat="43.9832021" lon="12.6909025"><ele>0.6000000000000001</ele><time>2026-05-02T04:14:18.818Z</time></trkpt><trkpt lat="43.9831378" lon="12.690835"><ele>0.8</ele><time>2026-05-02T04:14:19.818Z</time></trkpt><trkpt lat="43.9830474" lon="12.6907213"><ele>1.0</ele><time>2026-05-02T04:14:21.829Z</time></trkpt><trkpt lat="43.9829967" lon="12.6906611"><ele>0.9999999999999999</ele><time>2026-05-02T04:14:22.827Z</time></trkpt><trkpt lat="43.9829504" lon="12.6905786"><ele>1.0</ele><time>2026-05-02T04:14:23.823Z</time></trkpt><trkpt lat="43.9828971" lon="12.690469"><ele>1.0</ele><time>2026-05-02T04:14:24.834Z</time></trkpt><trkpt lat="43.9828611" lon="12.6903815"><ele>1.0</ele><time>2026-05-02T04:14:25.818Z</time></trkpt><trkpt lat="43.9828369" lon="12.6902773"><ele>0.9999999999999999</ele><time>2026-05-02T04:14:26.825Z</time></trkpt><trkpt lat="43.9828107" lon="12.6901925"><ele>1.0</ele><time>2026-05-02T04:14:27.834Z</time></trkpt><trkpt lat="43.9827652" lon="12.6900404"><ele>1.3333333333333333</ele><time>2026-05-02T04:14:29.821Z</time></trkpt><trkpt lat="43.9827047" lon="12.6899845"><ele>1.6666666666666665</ele><time>2026-05-02T04:14:30.816Z</time></trkpt><trkpt lat="43.9826235" lon="12.6899672"><ele>2.0</ele><time>2026-05-02T04:14:31.818Z</time></trkpt><trkpt lat="43.9825346" lon="12.6899557"><ele>2.3333333333333335</ele><time>2026-05-02T04:14:32.818Z</time></trkpt><trkpt lat="43.9824757" lon="12.6899973"><ele>2.6666666666666665</ele><time>2026-05-02T04:14:33.798Z</time></trkpt><trkpt lat="43.9824245" lon="12.6900733"><ele>3.0</ele><time>2026-05-02T04:14:34.795Z</time></trkpt><trkpt lat="43.9823851" lon="12.6901848"><ele>2.1999999999999997</ele><time>2026-05-02T04:14:35.814Z</time></trkpt><trkpt lat="43.982358" lon="12.6903185"><ele>1.4</ele><time>2026-05-02T04:14:36.8Z</time></trkpt><trkpt lat="43.9823311" lon="12.6904769"><ele>0.5999999999999999</ele><time>2026-05-02T04:14:37.799Z</time></trkpt><trkpt lat="43.9822984" lon="12.6906099"><ele>-0.20000000000000007</ele><time>2026-05-02T04:14:38.825Z</time></trkpt><trkpt lat="43.9822409" lon="12.6907502"><ele>-1.0</ele><time>2026-05-02T04:14:39.802Z</time></trkpt><trkpt lat="43.9821628" lon="12.690874"><ele>-1.0</ele><time>2026-05-02T04:14:40.799Z</time></trkpt><trkpt lat="43.9820804" lon="12.6910024"><ele>-1.0</ele><time>2026-05-02T04:14:41.808Z</time></trkpt><trkpt lat="43.9819993" lon="12.691144"><ele>-1.0</ele><time>2026-05-02T04:14:42.812Z</time></trkpt><trkpt lat="43.9819138" lon="12.6912864"><ele>-1.0</ele><time>2026-05-02T04:14:43.819Z</time></trkpt><trkpt lat="43.9818299" lon="12.6914442"><ele>-1.0</ele><time>2026-05-02T04:14:44.806Z</time></trkpt><trkpt lat="43.981744" lon="12.6916034"><ele>-1.0</ele><time>2026-05-02T04:14:45.807Z</time></trkpt><trkpt lat="43.9816615" lon="12.6917798"><ele>-1.0</ele><time>2026-05-02T04:14:46.802Z</time></trkpt><trkpt lat="43.9815794" lon="12.6919348"><ele>-1.0</ele><time>2026-05-02T04:14:47.824Z</time></trkpt><trkpt lat="43.9814877" lon="12.692091"><ele>-0.6666666666666666</ele><time>2026-05-02T04:14:48.811Z</time></trkpt><trkpt lat="43.9813879" lon="12.6922425"><ele>-0.3333333333333333</ele><time>2026-05-02T04:14:49.813Z</time></trkpt><trkpt lat="43.9812916" lon="12.6924119"><ele>0.0</ele><time>2026-05-02T04:14:50.818Z</time></trkpt><trkpt lat="43.9811963" lon="12.692568"><ele>0.0</ele><time>2026-05-02T04:14:51.825Z</time></trkpt><trkpt lat="43.981098" lon="12.6927206"><ele>0.0</ele><time>2026-05-02T04:14:52.816Z</time></trkpt><trkpt lat="43.9810137" lon="12.6928739"><ele>0.0</ele><time>2026-05-02T04:14:53.816Z</time></trkpt><trkpt lat="43.9809275" lon="12.6930182"><ele>0.0</ele><time>2026-05-02T04:14:54.826Z</time></trkpt><trkpt lat="43.9808482" lon="12.6931683"><ele>0.0</ele><time>2026-05-02T04:14:55.824Z</time></trkpt><trkpt lat="43.9807628" lon="12.6933142"><ele>0.0</ele><time>2026-05-02T04:14:56.821Z</time></trkpt><trkpt lat="43.9806739" lon="12.6934641"><ele>0.0</ele><time>2026-05-02T04:14:57.827Z</time></trkpt><trkpt lat="43.9805999" lon="12.6936057"><ele>0.0</ele><time>2026-05-02T04:14:58.822Z</time></trkpt><trkpt lat="43.9805155" lon="12.6937508"><ele>0.0</ele><time>2026-05-02T04:14:59.821Z</time></trkpt><trkpt lat="43.9804533" lon="12.6938754"><ele>0.0</ele><time>2026-05-02T04:15:00.813Z</time></trkpt><trkpt lat="43.9803996" lon="12.6939816"><ele>0.0</ele><time>2026-05-02T04:15:01.836Z</time></trkpt><trkpt lat="43.9803536" lon="12.6940805"><ele>0.0</ele><time>2026-05-02T04:15:02.821Z</time></trkpt><trkpt lat="43.9803028" lon="12.6941714"><ele>0.0</ele><time>2026-05-02T04:15:03.824Z</time></trkpt><trkpt lat="43.9802517" lon="12.6942482"><ele>0.0</ele><time>2026-05-02T04:15:04.824Z</time></trkpt><trkpt lat="43.9801973" lon="12.6943128"><ele>0.0</ele><time>2026-05-02T04:15:05.809Z</time></trkpt><trkpt lat="43.9801272" lon="12.6943452"><ele>0.0</ele><time>2026-05-02T04:15:06.818Z</time></trkpt><trkpt lat="43.9800588" lon="12.694352"><ele>0.0</ele><time>2026-05-02T04:15:07.814Z</time></trkpt><trkpt lat="43.9799284" lon="12.6942515"><ele>0.0</ele><time>2026-05-02T04:15:09.818Z</time></trkpt><trkpt lat="43.9798495" lon="12.6941625"><ele>0.0</ele><time>2026-05-02T04:15:10.804Z</time></trkpt><trkpt lat="43.9797526" lon="12.6940646"><ele>0.6</ele><time>2026-05-02T04:15:11.806Z</time></trkpt><trkpt lat="43.9796502" lon="12.6939684"><ele>1.2</ele><time>2026-05-02T04:15:12.807Z</time></trkpt><trkpt lat="43.9795506" lon="12.6938858"><ele>1.7999999999999998</ele><time>2026-05-02T04:15:13.822Z</time></trkpt><trkpt lat="43.9794531" lon="12.6938373"><ele>2.4</ele><time>2026-05-02T04:15:14.813Z</time></trkpt><trkpt lat="43.9793733" lon="12.6938285"><ele>3.0</ele><time>2026-05-02T04:15:15.813Z</time></trkpt><trkpt lat="43.9792999" lon="12.6938605"><ele>3.0</ele><time>2026-05-02T04:15:16.817Z</time></trkpt><trkpt lat="43.9792388" lon="12.6939137"><ele>3.0</ele><time>2026-05-02T04:15:17.821Z</time></trkpt><trkpt lat="43.9791756" lon="12.6940025"><ele>3.0</ele><time>2026-05-02T04:15:18.821Z</time></trkpt><trkpt lat="43.9791184" lon="12.6941097"><ele>3.0</ele><time>2026-05-02T04:15:19.817Z</time></trkpt><trkpt lat="43.9790713" lon="12.6942219"><ele>3.0</ele><time>2026-05-02T04:15:20.817Z</time></trkpt><trkpt lat="43.9790132" lon="12.6943437"><ele>2.75</ele><time>2026-05-02T04:15:21.826Z</time></trkpt><trkpt lat="43.9789572" lon="12.6944657"><ele>2.5</ele><time>2026-05-02T04:15:22.816Z</time></trkpt><trkpt lat="43.9788968" lon="12.6945948"><ele>2.25</ele><time>2026-05-02T04:15:23.823Z</time></trkpt><trkpt lat="43.9788278" lon="12.6947327"><ele>2.0</ele><time>2026-05-02T04:15:24.811Z</time></trkpt><trkpt lat="43.9787572" lon="12.6948784"><ele>2.0</ele><time>2026-05-02T04:15:25.819Z</time></trkpt><trkpt lat="43.9786868" lon="12.6950278"><ele>2.0</ele><time>2026-05-02T04:15:26.821Z</time></trkpt><trkpt lat="43.9786191" lon="12.69518"><ele>2.0</ele><time>2026-05-02T04:15:27.826Z</time></trkpt><trkpt lat="43.9785524" lon="12.6953309"><ele>2.0</ele><time>2026-05-02T04:15:28.827Z</time></trkpt><trkpt lat="43.9784749" lon="12.6954741"><ele>2.0</ele><time>2026-05-02T04:15:29.825Z</time></trkpt><trkpt lat="43.9784025" lon="12.6956206"><ele>2.0</ele><time>2026-05-02T04:15:30.823Z</time></trkpt><trkpt lat="43.9783294" lon="12.6957688"><ele>2.0</ele><time>2026-05-02T04:15:31.815Z</time></trkpt><trkpt lat="43.978273" lon="12.6959069"><ele>2.0</ele><time>2026-05-02T04:15:32.818Z</time></trkpt><trkpt lat="43.9782246" lon="12.6960215"><ele>2.0</ele><time>2026-05-02T04:15:33.815Z</time></trkpt><trkpt lat="43.9781726" lon="12.6961215"><ele>2.0</ele><time>2026-05-02T04:15:34.8Z</time></trkpt><trkpt lat="43.9781284" lon="12.696225"><ele>2.0</ele><time>2026-05-02T04:15:35.806Z</time></trkpt><trkpt lat="43.978079" lon="12.696325"><ele>2.0</ele><time>2026-05-02T04:15:36.805Z</time></trkpt><trkpt lat="43.9780298" lon="12.6964499"><ele>2.0</ele><time>2026-05-02T04:15:37.81Z</time></trkpt><trkpt lat="43.9779748" lon="12.6965659"><ele>2.0</ele><time>2026-05-02T04:15:38.802Z</time></trkpt><trkpt lat="43.9779193" lon="12.6966799"><ele>2.0</ele><time>2026-05-02T04:15:39.814Z</time></trkpt><trkpt lat="43.9778494" lon="12.6968062"><ele>2.0</ele><time>2026-05-02T04:15:40.814Z</time></trkpt><trkpt lat="43.9777767" lon="12.6969641"><ele>2.0</ele><time>2026-05-02T04:15:41.826Z</time></trkpt><trkpt lat="43.977699" lon="12.6971133"><ele>2.0</ele><time>2026-05-02T04:15:42.82Z</time></trkpt><trkpt lat="43.9776208" lon="12.697274"><ele>2.0</ele><time>2026-05-02T04:15:43.808Z</time></trkpt><trkpt lat="43.9775493" lon="12.6974358"><ele>2.0</ele><time>2026-05-02T04:15:44.824Z</time></trkpt><trkpt lat="43.9774827" lon="12.6975888"><ele>2.0</ele><time>2026-05-02T04:15:45.817Z</time></trkpt><trkpt lat="43.9774177" lon="12.6977463"><ele>2.25</ele><time>2026-05-02T04:15:46.827Z</time></trkpt><trkpt lat="43.9773566" lon="12.6978986"><ele>2.5</ele><time>2026-05-02T04:15:47.824Z</time></trkpt><trkpt lat="43.9772982" lon="12.698042"><ele>2.75</ele><time>2026-05-02T04:15:48.822Z</time></trkpt><trkpt lat="43.9772382" lon="12.6981822"><ele>3.0</ele><time>2026-05-02T04:15:49.826Z</time></trkpt><trkpt lat="43.9771766" lon="12.6983286"><ele>3.0</ele><time>2026-05-02T04:15:50.81Z</time></trkpt><trkpt lat="43.9771137" lon="12.698478"><ele>3.0</ele><time>2026-05-02T04:15:51.815Z</time></trkpt><trkpt lat="43.9770484" lon="12.6986325"><ele>3.0</ele><time>2026-05-02T04:15:52.811Z</time></trkpt><trkpt lat="43.9769812" lon="12.6987915"><ele>3.0</ele><time>2026-05-02T04:15:53.808Z</time></trkpt><trkpt lat="43.9769334" lon="12.6989706"><ele>3.0</ele><time>2026-05-02T04:15:54.806Z</time></trkpt><trkpt lat="43.9768964" lon="12.6991604"><ele>3.0</ele><time>2026-05-02T04:15:55.805Z</time></trkpt><trkpt lat="43.9768541" lon="12.6993445"><ele>3.0</ele><time>2026-05-02T04:15:56.81Z</time></trkpt><trkpt lat="43.9768112" lon="12.6995133"><ele>3.0</ele><time>2026-05-02T04:15:57.81Z</time></trkpt><trkpt lat="43.9767518" lon="12.6996742"><ele>3.0</ele><time>2026-05-02T04:15:58.816Z</time></trkpt><trkpt lat="43.976687" lon="12.699827"><ele>3.0</ele><time>2026-05-02T04:15:59.824Z</time></trkpt><trkpt lat="43.9766184" lon="12.6999662"><ele>3.0</ele><time>2026-05-02T04:16:00.825Z</time></trkpt><trkpt lat="43.9765625" lon="12.7000822"><ele>3.0</ele><time>2026-05-02T04:16:01.815Z</time></trkpt><trkpt lat="43.9765172" lon="12.7001879"><ele>3.0</ele><time>2026-05-02T04:16:02.824Z</time></trkpt><trkpt lat="43.9764796" lon="12.7002862"><ele>3.0</ele><time>2026-05-02T04:16:03.812Z</time></trkpt><trkpt lat="43.9764445" lon="12.7003646"><ele>3.0</ele><time>2026-05-02T04:16:04.819Z</time></trkpt><trkpt lat="43.9763732" lon="12.7005039"><ele>3.0</ele><time>2026-05-02T04:16:06.822Z</time></trkpt><trkpt lat="43.9762902" lon="12.7006126"><ele>3.0</ele><time>2026-05-02T04:16:08.814Z</time></trkpt><trkpt lat="43.9762123" lon="12.7007417"><ele>3.0</ele><time>2026-05-02T04:16:10.819Z</time></trkpt><trkpt lat="43.9762126" lon="12.7008765"><ele>3.0</ele><time>2026-05-02T04:16:12.816Z</time></trkpt><trkpt lat="43.9762908" lon="12.7009587"><ele>3.0</ele><time>2026-05-02T04:16:14.812Z</time></trkpt><trkpt lat="43.9763732" lon="12.7009027"><ele>3.0</ele><time>2026-05-02T04:16:16.818Z</time></trkpt><trkpt lat="43.976424" lon="12.7007358"><ele>3.0</ele><time>2026-05-02T04:16:18.817Z</time></trkpt><trkpt lat="43.9764527" lon="12.7006282"><ele>3.0</ele><time>2026-05-02T04:16:19.823Z</time></trkpt><trkpt lat="43.9764816" lon="12.7005099"><ele>3.0</ele><time>2026-05-02T04:16:20.816Z</time></trkpt><trkpt lat="43.9765193" lon="12.7003826"><ele>3.0</ele><time>2026-05-02T04:16:21.815Z</time></trkpt><trkpt lat="43.9765636" lon="12.7002558"><ele>3.0</ele><time>2026-05-02T04:16:22.828Z</time></trkpt><trkpt lat="43.9766178" lon="12.7001237"><ele>3.0</ele><time>2026-05-02T04:16:23.832Z</time></trkpt><trkpt lat="43.976677" lon="12.699983"><ele>3.0</ele><time>2026-05-02T04:16:24.827Z</time></trkpt><trkpt lat="43.976736" lon="12.6998343"><ele>3.0</ele><time>2026-05-02T04:16:25.824Z</time></trkpt><trkpt lat="43.9767966" lon="12.6996776"><ele>3.0</ele><time>2026-05-02T04:16:26.826Z</time></trkpt><trkpt lat="43.9768545" lon="12.6995241"><ele>3.0</ele><time>2026-05-02T04:16:27.82Z</time></trkpt><trkpt lat="43.9768953" lon="12.699355"><ele>3.0</ele><time>2026-05-02T04:16:28.816Z</time></trkpt><trkpt lat="43.9769312" lon="12.6991757"><ele>3.0</ele><time>2026-05-02T04:16:29.825Z</time></trkpt><trkpt lat="43.9769664" lon="12.6989963"><ele>3.0</ele><time>2026-05-02T04:16:30.807Z</time></trkpt><trkpt lat="43.9770091" lon="12.6988231"><ele>3.0</ele><time>2026-05-02T04:16:31.813Z</time></trkpt><trkpt lat="43.9770649" lon="12.6986582"><ele>3.0</ele><time>2026-05-02T04:16:32.822Z</time></trkpt><trkpt lat="43.9771289" lon="12.6984993"><ele>3.0</ele><time>2026-05-02T04:16:33.83Z</time></trkpt><trkpt lat="43.9771934" lon="12.698351"><ele>3.0</ele><time>2026-05-02T04:16:34.824Z</time></trkpt><trkpt lat="43.9772613" lon="12.6981992"><ele>3.0</ele><time>2026-05-02T04:16:35.838Z</time></trkpt><trkpt lat="43.9773241" lon="12.6980531"><ele>3.0</ele><time>2026-05-02T04:16:36.82Z</time></trkpt><trkpt lat="43.9773882" lon="12.6979231"><ele>3.0</ele><time>2026-05-02T04:16:37.828Z</time></trkpt><trkpt lat="43.9774436" lon="12.6978074"><ele>3.0</ele><time>2026-05-02T04:16:38.823Z</time></trkpt><trkpt lat="43.9774894" lon="12.6977123"><ele>3.0</ele><time>2026-05-02T04:16:39.818Z</time></trkpt><trkpt lat="43.9775254" lon="12.6976345"><ele>3.0</ele><time>2026-05-02T04:16:40.82Z</time></trkpt><trkpt lat="43.9775849" lon="12.6975318"><ele>3.0</ele><time>2026-05-02T04:16:42.813Z</time></trkpt><trkpt lat="43.9776311" lon="12.6974699"><ele>3.0</ele><time>2026-05-02T04:16:47.816Z</time></trkpt><trkpt lat="43.9776954" lon="12.6974369"><ele>3.0</ele><time>2026-05-02T04:25:55.814Z</time></trkpt><trkpt lat="43.9776581" lon="12.6973655"><ele>3.0</ele><time>2026-05-02T04:28:58.81Z</time></trkpt><trkpt lat="43.9775542" lon="12.6974542"><ele>3.0</ele><time>2026-05-02T04:29:02.812Z</time></trkpt><trkpt lat="43.9775107" lon="12.6975496"><ele>3.0</ele><time>2026-05-02T04:29:03.808Z</time></trkpt><trkpt lat="43.97746" lon="12.6976582"><ele>3.0</ele><time>2026-05-02T04:29:04.823Z</time></trkpt><trkpt lat="43.9774077" lon="12.6977883"><ele>3.0</ele><time>2026-05-02T04:29:05.812Z</time></trkpt><trkpt lat="43.9773548" lon="12.6979107"><ele>3.0</ele><time>2026-05-02T04:29:06.815Z</time></trkpt><trkpt lat="43.9773009" lon="12.6980321"><ele>3.0</ele><time>2026-05-02T04:29:07.819Z</time></trkpt><trkpt lat="43.9772457" lon="12.6981531"><ele>3.0</ele><time>2026-05-02T04:29:08.804Z</time></trkpt><trkpt lat="43.9771837" lon="12.6982833"><ele>3.0</ele><time>2026-05-02T04:29:09.817Z</time></trkpt><trkpt lat="43.9771212" lon="12.6984243"><ele>3.0</ele><time>2026-05-02T04:29:10.805Z</time></trkpt><trkpt lat="43.9770572" lon="12.6985718"><ele>3.0</ele><time>2026-05-02T04:29:11.808Z</time></trkpt><trkpt lat="43.977001" lon="12.6987326"><ele>3.0</ele><time>2026-05-02T04:29:12.813Z</time></trkpt><trkpt lat="43.976953" lon="12.6989068"><ele>3.0</ele><time>2026-05-02T04:29:13.823Z</time></trkpt><trkpt lat="43.9769134" lon="12.6990785"><ele>3.0</ele><time>2026-05-02T04:29:14.813Z</time></trkpt><trkpt lat="43.9768801" lon="12.6992494"><ele>3.0</ele><time>2026-05-02T04:29:15.809Z</time></trkpt><trkpt lat="43.9768345" lon="12.6994132"><ele>3.0</ele><time>2026-05-02T04:29:16.808Z</time></trkpt><trkpt lat="43.9767862" lon="12.6995695"><ele>3.0</ele><time>2026-05-02T04:29:17.816Z</time></trkpt><trkpt lat="43.9767269" lon="12.6997244"><ele>3.0</ele><time>2026-05-02T04:29:18.82Z</time></trkpt><trkpt lat="43.9766599" lon="12.6998719"><ele>3.0</ele><time>2026-05-02T04:29:19.824Z</time></trkpt><trkpt lat="43.9765964" lon="12.7000176"><ele>3.0</ele><time>2026-05-02T04:29:20.816Z</time></trkpt><trkpt lat="43.9765288" lon="12.7001594"><ele>3.0</ele><time>2026-05-02T04:29:21.816Z</time></trkpt><trkpt lat="43.9764695" lon="12.7002919"><ele>3.0</ele><time>2026-05-02T04:29:22.812Z</time></trkpt><trkpt lat="43.9764139" lon="12.7004051"><ele>3.0</ele><time>2026-05-02T04:29:23.815Z</time></trkpt><trkpt lat="43.9763548" lon="12.7005143"><ele>3.0</ele><time>2026-05-02T04:29:24.811Z</time></trkpt><trkpt lat="43.9762879" lon="12.7006262"><ele>3.0</ele><time>2026-05-02T04:29:25.828Z</time></trkpt><trkpt lat="43.9762288" lon="12.7007453"><ele>3.0</ele><time>2026-05-02T04:29:26.818Z</time></trkpt><trkpt lat="43.9761655" lon="12.7008872"><ele>3.0</ele><time>2026-05-02T04:29:27.817Z</time></trkpt><trkpt lat="43.9761002" lon="12.7010315"><ele>3.0</ele><time>2026-05-02T04:29:28.808Z</time></trkpt><trkpt lat="43.9760236" lon="12.7011689"><ele>3.0</ele><time>2026-05-02T04:29:29.805Z</time></trkpt><trkpt lat="43.9759425" lon="12.7013072"><ele>3.0</ele><time>2026-05-02T04:29:30.808Z</time></trkpt><trkpt lat="43.9758558" lon="12.7014446"><ele>2.5</ele><time>2026-05-02T04:29:31.813Z</time></trkpt><trkpt lat="43.9757616" lon="12.7015815"><ele>2.0</ele><time>2026-05-02T04:29:32.815Z</time></trkpt><trkpt lat="43.9756664" lon="12.7017125"><ele>1.5</ele><time>2026-05-02T04:29:33.814Z</time></trkpt><trkpt lat="43.9755659" lon="12.7018404"><ele>1.0</ele><time>2026-05-02T04:29:34.812Z</time></trkpt><trkpt lat="43.975461" lon="12.7019564"><ele>1.0</ele><time>2026-05-02T04:29:35.814Z</time></trkpt><trkpt lat="43.975349" lon="12.7020853"><ele>1.0</ele><time>2026-05-02T04:29:36.814Z</time></trkpt><trkpt lat="43.9752374" lon="12.7022169"><ele>1.0</ele><time>2026-05-02T04:29:37.826Z</time></trkpt><trkpt lat="43.9751252" lon="12.7023536"><ele>1.0</ele><time>2026-05-02T04:29:38.826Z</time></trkpt><trkpt lat="43.9750174" lon="12.7025004"><ele>1.0</ele><time>2026-05-02T04:29:39.823Z</time></trkpt><trkpt lat="43.9749103" lon="12.7026581"><ele>1.0</ele><time>2026-05-02T04:29:40.82Z</time></trkpt><trkpt lat="43.9748113" lon="12.7028251"><ele>1.0</ele><time>2026-05-02T04:29:41.822Z</time></trkpt><trkpt lat="43.9747195" lon="12.7029976"><ele>1.0</ele><time>2026-05-02T04:29:42.817Z</time></trkpt><trkpt lat="43.9746299" lon="12.7031712"><ele>1.0</ele><time>2026-05-02T04:29:43.814Z</time></trkpt><trkpt lat="43.9745391" lon="12.7033486"><ele>1.0</ele><time>2026-05-02T04:29:44.823Z</time></trkpt><trkpt lat="43.9744495" lon="12.7035308"><ele>1.0</ele><time>2026-05-02T04:29:45.822Z</time></trkpt><trkpt lat="43.974356" lon="12.7037147"><ele>1.0</ele><time>2026-05-02T04:29:46.826Z</time></trkpt><trkpt lat="43.9742633" lon="12.7039056"><ele>1.0</ele><time>2026-05-02T04:29:47.819Z</time></trkpt><trkpt lat="43.9741678" lon="12.704113"><ele>1.0</ele><time>2026-05-02T04:29:48.818Z</time></trkpt><trkpt lat="43.9740635" lon="12.7043321"><ele>1.0</ele><time>2026-05-02T04:29:49.824Z</time></trkpt><trkpt lat="43.9739495" lon="12.7045585"><ele>1.0</ele><time>2026-05-02T04:29:50.813Z</time></trkpt><trkpt lat="43.9738332" lon="12.7047899"><ele>1.0</ele><time>2026-05-02T04:29:51.822Z</time></trkpt><trkpt lat="43.9737241" lon="12.705012"><ele>1.0</ele><time>2026-05-02T04:29:52.821Z</time></trkpt><trkpt lat="43.9736199" lon="12.7052199"><ele>1.0</ele><time>2026-05-02T04:29:53.816Z</time></trkpt><trkpt lat="43.973518" lon="12.7054208"><ele>1.0</ele><time>2026-05-02T04:29:54.841Z</time></trkpt><trkpt lat="43.9734125" lon="12.705625"><ele>1.0</ele><time>2026-05-02T04:29:55.815Z</time></trkpt><trkpt lat="43.9733008" lon="12.7058361"><ele>1.0</ele><time>2026-05-02T04:29:56.816Z</time></trkpt><trkpt lat="43.9731892" lon="12.7060548"><ele>0.3333333333333333</ele><time>2026-05-02T04:29:57.819Z</time></trkpt><trkpt lat="43.9730841" lon="12.7062678"><ele>-0.3333333333333333</ele><time>2026-05-02T04:29:58.824Z</time></trkpt><trkpt lat="43.9729892" lon="12.7064659"><ele>-1.0</ele><time>2026-05-02T04:29:59.821Z</time></trkpt><trkpt lat="43.9729002" lon="12.7066568"><ele>-1.0</ele><time>2026-05-02T04:30:00.816Z</time></trkpt><trkpt lat="43.9727994" lon="12.7068498"><ele>-1.0</ele><time>2026-05-02T04:30:01.819Z</time></trkpt><trkpt lat="43.9726947" lon="12.7070439"><ele>-1.0</ele><time>2026-05-02T04:30:02.826Z</time></trkpt><trkpt lat="43.9725844" lon="12.7072387"><ele>-0.6666666666666666</ele><time>2026-05-02T04:30:03.82Z</time></trkpt><trkpt lat="43.9724758" lon="12.7074347"><ele>-0.3333333333333333</ele><time>2026-05-02T04:30:04.811Z</time></trkpt><trkpt lat="43.9723765" lon="12.7076249"><ele>0.0</ele><time>2026-05-02T04:30:05.817Z</time></trkpt><trkpt lat="43.9722804" lon="12.7078075"><ele>0.0</ele><time>2026-05-02T04:30:06.814Z</time></trkpt><trkpt lat="43.9721878" lon="12.7079957"><ele>0.0</ele><time>2026-05-02T04:30:07.825Z</time></trkpt><trkpt lat="43.9720861" lon="12.7081844"><ele>0.0</ele><time>2026-05-02T04:30:08.821Z</time></trkpt><trkpt lat="43.9719809" lon="12.7083787"><ele>0.0</ele><time>2026-05-02T04:30:09.818Z</time></trkpt><trkpt lat="43.9718793" lon="12.7085817"><ele>0.0</ele><time>2026-05-02T04:30:10.809Z</time></trkpt><trkpt lat="43.971781" lon="12.7087785"><ele>0.0</ele><time>2026-05-02T04:30:11.82Z</time></trkpt><trkpt lat="43.9716881" lon="12.7089577"><ele>0.0</ele><time>2026-05-02T04:30:12.822Z</time></trkpt><trkpt lat="43.9716022" lon="12.7091201"><ele>0.0</ele><time>2026-05-02T04:30:13.816Z</time></trkpt><trkpt lat="43.9715189" lon="12.7092821"><ele>0.0</ele><time>2026-05-02T04:30:14.83Z</time></trkpt><trkpt lat="43.9714218" lon="12.7094622"><ele>0.0</ele><time>2026-05-02T04:30:15.82Z</time></trkpt><trkpt lat="43.9713168" lon="12.7096574"><ele>0.0</ele><time>2026-05-02T04:30:16.819Z</time></trkpt><trkpt lat="43.9712107" lon="12.7098653"><ele>0.0</ele><time>2026-05-02T04:30:17.822Z</time></trkpt><trkpt lat="43.9711069" lon="12.7100672"><ele>-0.3333333333333333</ele><time>2026-05-02T04:30:18.799Z</time></trkpt><trkpt lat="43.9710105" lon="12.7102559"><ele>-0.6666666666666666</ele><time>2026-05-02T04:30:19.807Z</time></trkpt><trkpt lat="43.9709314" lon="12.7104523"><ele>-1.0</ele><time>2026-05-02T04:30:20.824Z</time></trkpt><trkpt lat="43.9708617" lon="12.7106557"><ele>-0.5</ele><time>2026-05-02T04:30:21.825Z</time></trkpt><trkpt lat="43.9708066" lon="12.7108615"><ele>0.0</ele><time>2026-05-02T04:30:22.828Z</time></trkpt><trkpt lat="43.9707647" lon="12.7110428"><ele>0.5</ele><time>2026-05-02T04:30:23.832Z</time></trkpt><trkpt lat="43.9707401" lon="12.7111935"><ele>1.0</ele><time>2026-05-02T04:30:24.832Z</time></trkpt><trkpt lat="43.9707189" lon="12.7113348"><ele>1.0</ele><time>2026-05-02T04:30:25.824Z</time></trkpt><trkpt lat="43.9707041" lon="12.711466"><ele>1.0</ele><time>2026-05-02T04:30:26.818Z</time></trkpt><trkpt lat="43.970687" lon="12.7115789"><ele>1.0</ele><time>2026-05-02T04:30:27.817Z</time></trkpt><trkpt lat="43.9706678" lon="12.7116981"><ele>1.0</ele><time>2026-05-02T04:30:28.82Z</time></trkpt><trkpt lat="43.9706416" lon="12.7117949"><ele>1.0</ele><time>2026-05-02T04:30:29.818Z</time></trkpt><trkpt lat="43.9705743" lon="12.7119164"><ele>1.0</ele><time>2026-05-02T04:30:31.816Z</time></trkpt><trkpt lat="43.9704734" lon="12.7120222"><ele>1.0</ele><time>2026-05-02T04:30:33.819Z</time></trkpt><trkpt lat="43.9704208" lon="12.7121195"><ele>1.0</ele><time>2026-05-02T04:30:34.813Z</time></trkpt><trkpt lat="43.9703712" lon="12.7122414"><ele>1.0</ele><time>2026-05-02T04:30:35.819Z</time></trkpt><trkpt lat="43.9702977" lon="12.7123514"><ele>1.0</ele><time>2026-05-02T04:30:36.819Z</time></trkpt><trkpt lat="43.9702075" lon="12.7124253"><ele>1.0</ele><time>2026-05-02T04:30:37.821Z</time></trkpt><trkpt lat="43.9701108" lon="12.7125071"><ele>1.0</ele><time>2026-05-02T04:30:38.823Z</time></trkpt><trkpt lat="43.9699968" lon="12.7125907"><ele>1.0</ele><time>2026-05-02T04:30:39.826Z</time></trkpt><trkpt lat="43.9698943" lon="12.7126981"><ele>1.0</ele><time>2026-05-02T04:30:40.822Z</time></trkpt><trkpt lat="43.9697945" lon="12.712818"><ele>1.5</ele><time>2026-05-02T04:30:41.816Z</time></trkpt><trkpt lat="43.969705" lon="12.7129491"><ele>2.0</ele><time>2026-05-02T04:30:42.818Z</time></trkpt><trkpt lat="43.9696232" lon="12.7130937"><ele>2.5</ele><time>2026-05-02T04:30:43.817Z</time></trkpt><trkpt lat="43.969548" lon="12.7132529"><ele>3.0</ele><time>2026-05-02T04:30:44.824Z</time></trkpt><trkpt lat="43.9694765" lon="12.7134289"><ele>3.333333333333333</ele><time>2026-05-02T04:30:45.822Z</time></trkpt><trkpt lat="43.9694082" lon="12.7136163"><ele>3.6666666666666665</ele><time>2026-05-02T04:30:46.814Z</time></trkpt><trkpt lat="43.9693373" lon="12.7138126"><ele>4.0</ele><time>2026-05-02T04:30:47.831Z</time></trkpt><trkpt lat="43.9692609" lon="12.7140115"><ele>4.0</ele><time>2026-05-02T04:30:48.817Z</time></trkpt><trkpt lat="43.9691867" lon="12.7142125"><ele>4.0</ele><time>2026-05-02T04:30:49.825Z</time></trkpt><trkpt lat="43.9691196" lon="12.7144105"><ele>4.0</ele><time>2026-05-02T04:30:50.814Z</time></trkpt><trkpt lat="43.9690555" lon="12.7146045"><ele>3.75</ele><time>2026-05-02T04:30:51.817Z</time></trkpt><trkpt lat="43.9690125" lon="12.714803"><ele>3.5</ele><time>2026-05-02T04:30:52.818Z</time></trkpt><trkpt lat="43.9689889" lon="12.7149864"><ele>3.25</ele><time>2026-05-02T04:30:53.816Z</time></trkpt><trkpt lat="43.9689764" lon="12.7151476"><ele>3.0</ele><time>2026-05-02T04:30:54.819Z</time></trkpt><trkpt lat="43.9689739" lon="12.7153071"><ele>2.5</ele><time>2026-05-02T04:30:55.818Z</time></trkpt><trkpt lat="43.9689782" lon="12.7154671"><ele>2.0</ele><time>2026-05-02T04:30:56.816Z</time></trkpt><trkpt lat="43.9689909" lon="12.7156413"><ele>1.5</ele><time>2026-05-02T04:30:57.826Z</time></trkpt><trkpt lat="43.9690217" lon="12.7158294"><ele>1.0</ele><time>2026-05-02T04:30:58.818Z</time></trkpt><trkpt lat="43.9690677" lon="12.7160137"><ele>1.2000000000000002</ele><time>2026-05-02T04:30:59.829Z</time></trkpt><trkpt lat="43.9691136" lon="12.7161701"><ele>1.4000000000000001</ele><time>2026-05-02T04:31:00.813Z</time></trkpt><trkpt lat="43.9691537" lon="12.7162614"><ele>1.6</ele><time>2026-05-02T04:31:01.83Z</time></trkpt><trkpt lat="43.969192" lon="12.716364"><ele>1.8</ele><time>2026-05-02T04:31:05.824Z</time></trkpt><trkpt lat="43.9692257" lon="12.7164617"><ele>2.0</ele><time>2026-05-02T04:31:07.806Z</time></trkpt><trkpt lat="43.9692794" lon="12.7165872"><ele>2.0</ele><time>2026-05-02T04:31:09.819Z</time></trkpt><trkpt lat="43.9693245" lon="12.7167147"><ele>2.0</ele><time>2026-05-02T04:31:11.819Z</time></trkpt><trkpt lat="43.9693717" lon="12.7168901"><ele>2.0</ele><time>2026-05-02T04:31:13.812Z</time></trkpt><trkpt lat="43.9694069" lon="12.7169994"><ele>2.0</ele><time>2026-05-02T04:31:14.811Z</time></trkpt><trkpt lat="43.9694315" lon="12.7171209"><ele>2.0</ele><time>2026-05-02T04:31:15.824Z</time></trkpt><trkpt lat="43.9694497" lon="12.7172545"><ele>2.0</ele><time>2026-05-02T04:31:16.805Z</time></trkpt><trkpt lat="43.9694624" lon="12.7173875"><ele>2.0</ele><time>2026-05-02T04:31:17.813Z</time></trkpt><trkpt lat="43.9694741" lon="12.7175257"><ele>2.0</ele><time>2026-05-02T04:31:18.816Z</time></trkpt><trkpt lat="43.9694725" lon="12.7176679"><ele>2.0</ele><time>2026-05-02T04:31:19.824Z</time></trkpt><trkpt lat="43.9694593" lon="12.7178093"><ele>2.0</ele><time>2026-05-02T04:31:20.818Z</time></trkpt><trkpt lat="43.9694501" lon="12.7179624"><ele>2.0</ele><time>2026-05-02T04:31:21.811Z</time></trkpt><trkpt lat="43.9694204" lon="12.7181172"><ele>2.0</ele><time>2026-05-02T04:31:22.83Z</time></trkpt><trkpt lat="43.9693879" lon="12.7182642"><ele>2.0</ele><time>2026-05-02T04:31:23.82Z</time></trkpt><trkpt lat="43.9693536" lon="12.718409"><ele>2.0</ele><time>2026-05-02T04:31:24.813Z</time></trkpt><trkpt lat="43.9693215" lon="12.7185618"><ele>2.0</ele><time>2026-05-02T04:31:25.814Z</time></trkpt><trkpt lat="43.9692854" lon="12.718716"><ele>2.0</ele><time>2026-05-02T04:31:26.815Z</time></trkpt><trkpt lat="43.9692535" lon="12.7188864"><ele>2.0</ele><time>2026-05-02T04:31:27.806Z</time></trkpt><trkpt lat="43.9692104" lon="12.7190568"><ele>2.0</ele><time>2026-05-02T04:31:28.82Z</time></trkpt><trkpt lat="43.9691715" lon="12.7192237"><ele>2.0</ele><time>2026-05-02T04:31:29.829Z</time></trkpt><trkpt lat="43.9691327" lon="12.7193962"><ele>2.0</ele><time>2026-05-02T04:31:30.815Z</time></trkpt><trkpt lat="43.9690938" lon="12.7195679"><ele>2.0</ele><time>2026-05-02T04:31:31.822Z</time></trkpt><trkpt lat="43.9690533" lon="12.7197384"><ele>2.0</ele><time>2026-05-02T04:31:32.819Z</time></trkpt><trkpt lat="43.969011" lon="12.7199076"><ele>2.25</ele><time>2026-05-02T04:31:33.819Z</time></trkpt><trkpt lat="43.9689687" lon="12.7200816"><ele>2.5</ele><time>2026-05-02T04:31:34.822Z</time></trkpt><trkpt lat="43.968925" lon="12.7202625"><ele>2.75</ele><time>2026-05-02T04:31:35.819Z</time></trkpt><trkpt lat="43.9688795" lon="12.7204543"><ele>3.0</ele><time>2026-05-02T04:31:36.814Z</time></trkpt><trkpt lat="43.9688317" lon="12.7206474"><ele>3.0</ele><time>2026-05-02T04:31:37.826Z</time></trkpt><trkpt lat="43.9687862" lon="12.7208378"><ele>3.0</ele><time>2026-05-02T04:31:38.811Z</time></trkpt><trkpt lat="43.9687405" lon="12.7210151"><ele>3.0</ele><time>2026-05-02T04:31:39.819Z</time></trkpt><trkpt lat="43.9686909" lon="12.7211861"><ele>3.0</ele><time>2026-05-02T04:31:40.827Z</time></trkpt><trkpt lat="43.9686415" lon="12.7213612"><ele>3.0</ele><time>2026-05-02T04:31:41.82Z</time></trkpt><trkpt lat="43.9685824" lon="12.7215385"><ele>3.0</ele><time>2026-05-02T04:31:42.811Z</time></trkpt><trkpt lat="43.968517" lon="12.7217106"><ele>3.0</ele><time>2026-05-02T04:31:43.808Z</time></trkpt><trkpt lat="43.9684515" lon="12.7218844"><ele>3.0</ele><time>2026-05-02T04:31:44.806Z</time></trkpt><trkpt lat="43.9683892" lon="12.7220614"><ele>3.0</ele><time>2026-05-02T04:31:45.844Z</time></trkpt><trkpt lat="43.9683309" lon="12.7222254"><ele>3.0</ele><time>2026-05-02T04:31:46.822Z</time></trkpt><trkpt lat="43.9682771" lon="12.7223704"><ele>3.0</ele><time>2026-05-02T04:31:47.819Z</time></trkpt><trkpt lat="43.9682302" lon="12.7224908"><ele>3.0</ele><time>2026-05-02T04:31:48.812Z</time></trkpt><trkpt lat="43.9681935" lon="12.7226"><ele>3.0</ele><time>2026-05-02T04:31:49.825Z</time></trkpt><trkpt lat="43.9681493" lon="12.7226863"><ele>2.8</ele><time>2026-05-02T04:31:50.822Z</time></trkpt><trkpt lat="43.9681108" lon="12.7227772"><ele>2.5999999999999996</ele><time>2026-05-02T04:31:51.817Z</time></trkpt><trkpt lat="43.9680819" lon="12.7228824"><ele>2.4000000000000004</ele><time>2026-05-02T04:31:52.829Z</time></trkpt><trkpt lat="43.9680692" lon="12.7230182"><ele>2.2</ele><time>2026-05-02T04:31:53.808Z</time></trkpt><trkpt lat="43.9680388" lon="12.7231538"><ele>2.0</ele><time>2026-05-02T04:31:54.82Z</time></trkpt><trkpt lat="43.9680003" lon="12.7232913"><ele>2.0</ele><time>2026-05-02T04:31:55.818Z</time></trkpt><trkpt lat="43.9679538" lon="12.7234289"><ele>2.0</ele><time>2026-05-02T04:31:56.807Z</time></trkpt><trkpt lat="43.9679143" lon="12.7235704"><ele>2.0</ele><time>2026-05-02T04:31:57.813Z</time></trkpt><trkpt lat="43.9678695" lon="12.723712"><ele>2.0</ele><time>2026-05-02T04:31:58.816Z</time></trkpt><trkpt lat="43.9678259" lon="12.7238582"><ele>2.0</ele><time>2026-05-02T04:31:59.814Z</time></trkpt><trkpt lat="43.9677743" lon="12.7240101"><ele>2.5</ele><time>2026-05-02T04:32:00.816Z</time></trkpt><trkpt lat="43.9677231" lon="12.7241609"><ele>3.0</ele><time>2026-05-02T04:32:01.82Z</time></trkpt><trkpt lat="43.9676722" lon="12.7243177"><ele>3.5</ele><time>2026-05-02T04:32:02.82Z</time></trkpt><trkpt lat="43.9676246" lon="12.7244771"><ele>4.0</ele><time>2026-05-02T04:32:03.821Z</time></trkpt><trkpt lat="43.9675806" lon="12.7246319"><ele>4.0</ele><time>2026-05-02T04:32:04.822Z</time></trkpt><trkpt lat="43.9675388" lon="12.7247753"><ele>4.0</ele><time>2026-05-02T04:32:05.81Z</time></trkpt><trkpt lat="43.9674944" lon="12.7249098"><ele>4.0</ele><time>2026-05-02T04:32:06.824Z</time></trkpt><trkpt lat="43.9674438" lon="12.7250328"><ele>4.0</ele><time>2026-05-02T04:32:07.818Z</time></trkpt><trkpt lat="43.9673794" lon="12.7251361"><ele>4.0</ele><time>2026-05-02T04:32:08.822Z</time></trkpt><trkpt lat="43.9673191" lon="12.7252343"><ele>4.0</ele><time>2026-05-02T04:32:09.821Z</time></trkpt><trkpt lat="43.9672738" lon="12.7253415"><ele>4.0</ele><time>2026-05-02T04:32:10.82Z</time></trkpt><trkpt lat="43.9672489" lon="12.7254628"><ele>4.0</ele><time>2026-05-02T04:32:11.814Z</time></trkpt><trkpt lat="43.9672468" lon="12.7256076"><ele>4.0</ele><time>2026-05-02T04:32:12.818Z</time></trkpt><trkpt lat="43.9672495" lon="12.7257561"><ele>4.0</ele><time>2026-05-02T04:32:13.82Z</time></trkpt><trkpt lat="43.9672152" lon="12.7259179"><ele>4.25</ele><time>2026-05-02T04:32:14.813Z</time></trkpt><trkpt lat="43.9671646" lon="12.726073"><ele>4.5</ele><time>2026-05-02T04:32:15.811Z</time></trkpt><trkpt lat="43.9671069" lon="12.7262395"><ele>4.75</ele><time>2026-05-02T04:32:16.814Z</time></trkpt><trkpt lat="43.9670467" lon="12.7264064"><ele>5.0</ele><time>2026-05-02T04:32:17.815Z</time></trkpt><trkpt lat="43.9669851" lon="12.7265693"><ele>5.0</ele><time>2026-05-02T04:32:18.817Z</time></trkpt><trkpt lat="43.9669304" lon="12.7267379"><ele>5.0</ele><time>2026-05-02T04:32:19.818Z</time></trkpt><trkpt lat="43.9668735" lon="12.7269101"><ele>5.0</ele><time>2026-05-02T04:32:20.818Z</time></trkpt><trkpt lat="43.9668212" lon="12.7270864"><ele>5.0</ele><time>2026-05-02T04:32:21.821Z</time></trkpt><trkpt lat="43.9667698" lon="12.7272639"><ele>5.0</ele><time>2026-05-02T04:32:22.819Z</time></trkpt><trkpt lat="43.9667211" lon="12.7274508"><ele>5.0</ele><time>2026-05-02T04:32:23.828Z</time></trkpt><trkpt lat="43.9666698" lon="12.727636"><ele>5.0</ele><time>2026-05-02T04:32:24.821Z</time></trkpt><trkpt lat="43.9666195" lon="12.7278247"><ele>5.0</ele><time>2026-05-02T04:32:25.838Z</time></trkpt><trkpt lat="43.9665767" lon="12.7280154"><ele>5.0</ele><time>2026-05-02T04:32:26.814Z</time></trkpt><trkpt lat="43.9665339" lon="12.7281948"><ele>5.0</ele><time>2026-05-02T04:32:27.832Z</time></trkpt><trkpt lat="43.9664973" lon="12.7283626"><ele>5.0</ele><time>2026-05-02T04:32:28.819Z</time></trkpt><trkpt lat="43.9664581" lon="12.728515"><ele>5.0</ele><time>2026-05-02T04:32:29.823Z</time></trkpt><trkpt lat="43.9664244" lon="12.728663"><ele>5.0</ele><time>2026-05-02T04:32:30.814Z</time></trkpt><trkpt lat="43.9663969" lon="12.7288111"><ele>5.0</ele><time>2026-05-02T04:32:31.827Z</time></trkpt><trkpt lat="43.9663719" lon="12.7289655"><ele>5.0</ele><time>2026-05-02T04:32:32.809Z</time></trkpt><trkpt lat="43.9663415" lon="12.7291172"><ele>5.0</ele><time>2026-05-02T04:32:33.824Z</time></trkpt><trkpt lat="43.9663163" lon="12.7292684"><ele>5.0</ele><time>2026-05-02T04:32:34.83Z</time></trkpt><trkpt lat="43.9662921" lon="12.7294192"><ele>5.0</ele><time>2026-05-02T04:32:35.82Z</time></trkpt><trkpt lat="43.966274" lon="12.7295748"><ele>5.0</ele><time>2026-05-02T04:32:36.817Z</time></trkpt><trkpt lat="43.9662558" lon="12.7297248"><ele>5.0</ele><time>2026-05-02T04:32:37.823Z</time></trkpt><trkpt lat="43.9662427" lon="12.7298626"><ele>5.0</ele><time>2026-05-02T04:32:38.81Z</time></trkpt><trkpt lat="43.9662271" lon="12.7299825"><ele>5.0</ele><time>2026-05-02T04:32:39.821Z</time></trkpt><trkpt lat="43.966209" lon="12.7300945"><ele>5.0</ele><time>2026-05-02T04:32:40.803Z</time></trkpt><trkpt lat="43.9661915" lon="12.7302035"><ele>5.0</ele><time>2026-05-02T04:32:41.814Z</time></trkpt><trkpt lat="43.9661729" lon="12.7303148"><ele>5.0</ele><time>2026-05-02T04:32:42.824Z</time></trkpt><trkpt lat="43.9661548" lon="12.7304352"><ele>5.0</ele><time>2026-05-02T04:32:43.812Z</time></trkpt><trkpt lat="43.9661365" lon="12.7305645"><ele>5.0</ele><time>2026-05-02T04:32:44.807Z</time></trkpt><trkpt lat="43.9661178" lon="12.7306977"><ele>5.0</ele><time>2026-05-02T04:32:45.809Z</time></trkpt><trkpt lat="43.9660908" lon="12.7308346"><ele>5.2</ele><time>2026-05-02T04:32:46.826Z</time></trkpt><trkpt lat="43.9660526" lon="12.7309704"><ele>5.4</ele><time>2026-05-02T04:32:47.826Z</time></trkpt><trkpt lat="43.966027" lon="12.7311132"><ele>5.6</ele><time>2026-05-02T04:32:48.803Z</time></trkpt><trkpt lat="43.9660047" lon="12.7312632"><ele>5.8</ele><time>2026-05-02T04:32:49.813Z</time></trkpt><trkpt lat="43.9659787" lon="12.7314244"><ele>6.0</ele><time>2026-05-02T04:32:50.813Z</time></trkpt><trkpt lat="43.9659558" lon="12.7315776"><ele>6.0</ele><time>2026-05-02T04:32:51.808Z</time></trkpt><trkpt lat="43.9659307" lon="12.7317269"><ele>6.0</ele><time>2026-05-02T04:32:52.894Z</time></trkpt><trkpt lat="43.9659034" lon="12.7318657"><ele>6.0</ele><time>2026-05-02T04:32:53.804Z</time></trkpt><trkpt lat="43.9658806" lon="12.7319913"><ele>6.0</ele><time>2026-05-02T04:32:54.825Z</time></trkpt><trkpt lat="43.9658629" lon="12.7321158"><ele>6.0</ele><time>2026-05-02T04:32:55.811Z</time></trkpt><trkpt lat="43.9658349" lon="12.7322351"><ele>5.8</ele><time>2026-05-02T04:32:56.81Z</time></trkpt><trkpt lat="43.9657989" lon="12.7323627"><ele>5.6</ele><time>2026-05-02T04:32:57.811Z</time></trkpt><trkpt lat="43.9657808" lon="12.7324909"><ele>5.4</ele><time>2026-05-02T04:32:58.805Z</time></trkpt><trkpt lat="43.9657627" lon="12.7326166"><ele>5.2</ele><time>2026-05-02T04:32:59.818Z</time></trkpt><trkpt lat="43.9657398" lon="12.7327398"><ele>5.0</ele><time>2026-05-02T04:33:00.802Z</time></trkpt><trkpt lat="43.9657159" lon="12.7328675"><ele>5.0</ele><time>2026-05-02T04:33:01.812Z</time></trkpt><trkpt lat="43.9656943" lon="12.7330021"><ele>5.0</ele><time>2026-05-02T04:33:02.811Z</time></trkpt><trkpt lat="43.9656715" lon="12.7331399"><ele>5.0</ele><time>2026-05-02T04:33:03.808Z</time></trkpt><trkpt lat="43.9656435" lon="12.7332809"><ele>5.0</ele><time>2026-05-02T04:33:04.817Z</time></trkpt><trkpt lat="43.9656251" lon="12.7334229"><ele>5.0</ele><time>2026-05-02T04:33:05.819Z</time></trkpt><trkpt lat="43.9656043" lon="12.7335541"><ele>4.833333333333334</ele><time>2026-05-02T04:33:06.805Z</time></trkpt><trkpt lat="43.9655854" lon="12.7336685"><ele>4.666666666666667</ele><time>2026-05-02T04:33:07.805Z</time></trkpt><trkpt lat="43.9655695" lon="12.7337824"><ele>4.5</ele><time>2026-05-02T04:33:08.811Z</time></trkpt><trkpt lat="43.9655535" lon="12.7339041"><ele>4.333333333333333</ele><time>2026-05-02T04:33:09.805Z</time></trkpt><trkpt lat="43.9655353" lon="12.7340212"><ele>4.166666666666666</ele><time>2026-05-02T04:33:10.804Z</time></trkpt><trkpt lat="43.9655147" lon="12.7341314"><ele>4.0</ele><time>2026-05-02T04:33:11.807Z</time></trkpt><trkpt lat="43.965501" lon="12.7342258"><ele>3.9999999999999996</ele><time>2026-05-02T04:33:12.807Z</time></trkpt><trkpt lat="43.9654868" lon="12.7343196"><ele>4.0</ele><time>2026-05-02T04:33:13.817Z</time></trkpt><trkpt lat="43.9654595" lon="12.7344682"><ele>4.0</ele><time>2026-05-02T04:33:15.813Z</time></trkpt><trkpt lat="43.9654138" lon="12.7345744"><ele>4.0</ele><time>2026-05-02T04:33:17.808Z</time></trkpt><trkpt lat="43.9653133" lon="12.7345984"><ele>3.9999999999999996</ele><time>2026-05-02T04:33:19.836Z</time></trkpt><trkpt lat="43.9652426" lon="12.7345815"><ele>4.0</ele><time>2026-05-02T04:33:20.805Z</time></trkpt><trkpt lat="43.9651641" lon="12.7345714"><ele>4.2</ele><time>2026-05-02T04:33:21.802Z</time></trkpt><trkpt lat="43.9650635" lon="12.7345516"><ele>4.4</ele><time>2026-05-02T04:33:22.805Z</time></trkpt><trkpt lat="43.9649679" lon="12.7345263"><ele>4.6</ele><time>2026-05-02T04:33:23.816Z</time></trkpt><trkpt lat="43.9648692" lon="12.7345102"><ele>4.8</ele><time>2026-05-02T04:33:24.803Z</time></trkpt><trkpt lat="43.9647646" lon="12.7344832"><ele>5.0</ele><time>2026-05-02T04:33:25.816Z</time></trkpt><trkpt lat="43.9646222" lon="12.7344673"><ele>5.0</ele><time>2026-05-02T04:33:26.81Z</time></trkpt><trkpt lat="43.964509" lon="12.7344451"><ele>5.0</ele><time>2026-05-02T04:33:27.805Z</time></trkpt><trkpt lat="43.9643859" lon="12.7344271"><ele>5.0</ele><time>2026-05-02T04:33:28.817Z</time></trkpt><trkpt lat="43.9642655" lon="12.734418"><ele>5.0</ele><time>2026-05-02T04:33:29.811Z</time></trkpt><trkpt lat="43.9641447" lon="12.7344039"><ele>4.75</ele><time>2026-05-02T04:33:30.808Z</time></trkpt><trkpt lat="43.9640243" lon="12.7343805"><ele>4.5</ele><time>2026-05-02T04:33:31.805Z</time></trkpt><trkpt lat="43.9639054" lon="12.734356"><ele>4.25</ele><time>2026-05-02T04:33:32.816Z</time></trkpt><trkpt lat="43.9637866" lon="12.7343258"><ele>4.0</ele><time>2026-05-02T04:33:33.809Z</time></trkpt><trkpt lat="43.9636731" lon="12.7343126"><ele>4.0</ele><time>2026-05-02T04:33:34.81Z</time></trkpt><trkpt lat="43.9635705" lon="12.7342967"><ele>4.0</ele><time>2026-05-02T04:33:35.809Z</time></trkpt><trkpt lat="43.9634879" lon="12.7342776"><ele>4.0</ele><time>2026-05-02T04:33:36.807Z</time></trkpt><trkpt lat="43.9634192" lon="12.7342592"><ele>4.0</ele><time>2026-05-02T04:33:37.815Z</time></trkpt><trkpt lat="43.9633283" lon="12.734201"><ele>4.0</ele><time>2026-05-02T04:33:39.82Z</time></trkpt><trkpt lat="43.9632627" lon="12.7340701"><ele>4.2</ele><time>2026-05-02T04:33:41.806Z</time></trkpt><trkpt lat="43.9631998" lon="12.7340395"><ele>4.4</ele><time>2026-05-02T04:33:42.798Z</time></trkpt><trkpt lat="43.9631109" lon="12.7340497"><ele>4.6</ele><time>2026-05-02T04:33:43.806Z</time></trkpt><trkpt lat="43.9630214" lon="12.7340693"><ele>4.8</ele><time>2026-05-02T04:33:44.815Z</time></trkpt><trkpt lat="43.9629173" lon="12.7340644"><ele>5.0</ele><time>2026-05-02T04:33:45.811Z</time></trkpt><trkpt lat="43.962811" lon="12.7340566"><ele>5.0</ele><time>2026-05-02T04:33:46.805Z</time></trkpt><trkpt lat="43.9626952" lon="12.7340427"><ele>5.0</ele><time>2026-05-02T04:33:47.814Z</time></trkpt><trkpt lat="43.9625761" lon="12.7340307"><ele>5.0</ele><time>2026-05-02T04:33:48.808Z</time></trkpt><trkpt lat="43.962459" lon="12.7340235"><ele>5.0</ele><time>2026-05-02T04:33:49.809Z</time></trkpt><trkpt lat="43.9623431" lon="12.7340165"><ele>5.75</ele><time>2026-05-02T04:33:50.799Z</time></trkpt><trkpt lat="43.962224" lon="12.7340106"><ele>6.5</ele><time>2026-05-02T04:33:51.809Z</time></trkpt><trkpt lat="43.9621002" lon="12.7339997"><ele>7.25</ele><time>2026-05-02T04:33:52.809Z</time></trkpt><trkpt lat="43.9619683" lon="12.7339841"><ele>8.0</ele><time>2026-05-02T04:33:53.809Z</time></trkpt><trkpt lat="43.9618443" lon="12.7339685"><ele>8.0</ele><time>2026-05-02T04:33:54.807Z</time></trkpt><trkpt lat="43.9617137" lon="12.7339522"><ele>8.0</ele><time>2026-05-02T04:33:55.804Z</time></trkpt><trkpt lat="43.9615812" lon="12.7339434"><ele>8.0</ele><time>2026-05-02T04:33:56.817Z</time></trkpt><trkpt lat="43.9614525" lon="12.7339316"><ele>8.0</ele><time>2026-05-02T04:33:57.812Z</time></trkpt><trkpt lat="43.9613249" lon="12.7339193"><ele>8.5</ele><time>2026-05-02T04:33:58.807Z</time></trkpt><trkpt lat="43.9611984" lon="12.7339129"><ele>9.0</ele><time>2026-05-02T04:33:59.809Z</time></trkpt><trkpt lat="43.9610745" lon="12.7338941"><ele>9.5</ele><time>2026-05-02T04:34:00.809Z</time></trkpt><trkpt lat="43.9609464" lon="12.7338759"><ele>10.0</ele><time>2026-05-02T04:34:01.8Z</time></trkpt><trkpt lat="43.9608223" lon="12.7338488"><ele>10.5</ele><time>2026-05-02T04:34:02.807Z</time></trkpt><trkpt lat="43.9607014" lon="12.733833"><ele>11.0</ele><time>2026-05-02T04:34:03.812Z</time></trkpt><trkpt lat="43.9605877" lon="12.7338078"><ele>11.5</ele><time>2026-05-02T04:34:04.804Z</time></trkpt><trkpt lat="43.9604733" lon="12.7337856"><ele>12.0</ele><time>2026-05-02T04:34:05.809Z</time></trkpt><trkpt lat="43.960376" lon="12.733765"><ele>12.0</ele><time>2026-05-02T04:34:06.801Z</time></trkpt><trkpt lat="43.9602948" lon="12.7337577"><ele>12.0</ele><time>2026-05-02T04:34:07.81Z</time></trkpt><trkpt lat="43.9602245" lon="12.7337606"><ele>12.0</ele><time>2026-05-02T04:34:08.798Z</time></trkpt><trkpt lat="43.9601198" lon="12.7338572"><ele>12.0</ele><time>2026-05-02T04:34:10.811Z</time></trkpt><trkpt lat="43.9600567" lon="12.7339294"><ele>12.0</ele><time>2026-05-02T04:34:11.802Z</time></trkpt><trkpt lat="43.9599815" lon="12.7340017"><ele>12.0</ele><time>2026-05-02T04:34:12.81Z</time></trkpt><trkpt lat="43.9599061" lon="12.7340817"><ele>12.0</ele><time>2026-05-02T04:34:13.818Z</time></trkpt><trkpt lat="43.9598221" lon="12.7341832"><ele>12.0</ele><time>2026-05-02T04:34:14.815Z</time></trkpt><trkpt lat="43.9597455" lon="12.7342881"><ele>12.0</ele><time>2026-05-02T04:34:15.813Z</time></trkpt><trkpt lat="43.9596584" lon="12.7343765"><ele>12.0</ele><time>2026-05-02T04:34:16.814Z</time></trkpt><trkpt lat="43.9595702" lon="12.7344559"><ele>11.75</ele><time>2026-05-02T04:34:17.817Z</time></trkpt><trkpt lat="43.9594583" lon="12.7345436"><ele>11.5</ele><time>2026-05-02T04:34:18.809Z</time></trkpt><trkpt lat="43.959351" lon="12.7346357"><ele>11.25</ele><time>2026-05-02T04:34:19.812Z</time></trkpt><trkpt lat="43.9592528" lon="12.7347352"><ele>11.0</ele><time>2026-05-02T04:34:20.806Z</time></trkpt><trkpt lat="43.9591403" lon="12.7348303"><ele>11.0</ele><time>2026-05-02T04:34:21.822Z</time></trkpt><trkpt lat="43.9590318" lon="12.7349225"><ele>11.0</ele><time>2026-05-02T04:34:22.813Z</time></trkpt><trkpt lat="43.9589219" lon="12.7350129"><ele>11.0</ele><time>2026-05-02T04:34:23.821Z</time></trkpt><trkpt lat="43.9588148" lon="12.7351078"><ele>11.0</ele><time>2026-05-02T04:34:24.807Z</time></trkpt><trkpt lat="43.9587097" lon="12.7352061"><ele>11.0</ele><time>2026-05-02T04:34:25.811Z</time></trkpt><trkpt lat="43.9586088" lon="12.7353038"><ele>11.0</ele><time>2026-05-02T04:34:26.812Z</time></trkpt><trkpt lat="43.9585168" lon="12.73542"><ele>11.0</ele><time>2026-05-02T04:34:27.822Z</time></trkpt><trkpt lat="43.9584342" lon="12.7355427"><ele>11.0</ele><time>2026-05-02T04:34:28.819Z</time></trkpt><trkpt lat="43.9583577" lon="12.7356775"><ele>11.0</ele><time>2026-05-02T04:34:29.814Z</time></trkpt><trkpt lat="43.9582869" lon="12.7358249"><ele>11.0</ele><time>2026-05-02T04:34:30.803Z</time></trkpt><trkpt lat="43.9582184" lon="12.7359797"><ele>11.0</ele><time>2026-05-02T04:34:31.813Z</time></trkpt><trkpt lat="43.9581568" lon="12.7361299"><ele>11.0</ele><time>2026-05-02T04:34:32.794Z</time></trkpt><trkpt lat="43.9581017" lon="12.7362638"><ele>11.0</ele><time>2026-05-02T04:34:33.817Z</time></trkpt><trkpt lat="43.9580423" lon="12.736387"><ele>11.0</ele><time>2026-05-02T04:34:34.815Z</time></trkpt><trkpt lat="43.9579866" lon="12.736505"><ele>11.0</ele><time>2026-05-02T04:34:35.808Z</time></trkpt><trkpt lat="43.9579304" lon="12.7366185"><ele>11.0</ele><time>2026-05-02T04:34:36.817Z</time></trkpt><trkpt lat="43.9578699" lon="12.7367055"><ele>11.0</ele><time>2026-05-02T04:34:37.813Z</time></trkpt><trkpt lat="43.9578102" lon="12.7367702"><ele>11.0</ele><time>2026-05-02T04:34:38.824Z</time></trkpt><trkpt lat="43.9577616" lon="12.7368334"><ele>11.0</ele><time>2026-05-02T04:34:39.83Z</time></trkpt><trkpt lat="43.9577342" lon="12.737007"><ele>11.0</ele><time>2026-05-02T04:34:41.821Z</time></trkpt><trkpt lat="43.9576955" lon="12.7371792"><ele>11.0</ele><time>2026-05-02T04:34:43.826Z</time></trkpt><trkpt lat="43.9576538" lon="12.7372673"><ele>11.0</ele><time>2026-05-02T04:34:44.823Z</time></trkpt><trkpt lat="43.9575997" lon="12.7373746"><ele>10.5</ele><time>2026-05-02T04:34:45.82Z</time></trkpt><trkpt lat="43.9575345" lon="12.7374934"><ele>10.0</ele><time>2026-05-02T04:34:46.828Z</time></trkpt><trkpt lat="43.9574493" lon="12.7376084"><ele>9.5</ele><time>2026-05-02T04:34:47.819Z</time></trkpt><trkpt lat="43.9573561" lon="12.7377264"><ele>9.0</ele><time>2026-05-02T04:34:48.818Z</time></trkpt><trkpt lat="43.9572601" lon="12.7378209"><ele>9.0</ele><time>2026-05-02T04:34:49.827Z</time></trkpt><trkpt lat="43.9571605" lon="12.7378932"><ele>9.0</ele><time>2026-05-02T04:34:50.814Z</time></trkpt><trkpt lat="43.9570758" lon="12.7379332"><ele>9.0</ele><time>2026-05-02T04:34:51.826Z</time></trkpt><trkpt lat="43.9569932" lon="12.7379545"><ele>9.0</ele><time>2026-05-02T04:34:52.818Z</time></trkpt><trkpt lat="43.9569094" lon="12.7379835"><ele>9.0</ele><time>2026-05-02T04:34:53.812Z</time></trkpt><trkpt lat="43.9568115" lon="12.7380319"><ele>9.25</ele><time>2026-05-02T04:34:54.824Z</time></trkpt><trkpt lat="43.956692" lon="12.7380596"><ele>9.5</ele><time>2026-05-02T04:34:55.815Z</time></trkpt><trkpt lat="43.9565657" lon="12.7380714"><ele>9.75</ele><time>2026-05-02T04:34:56.817Z</time></trkpt><trkpt lat="43.9564353" lon="12.7380882"><ele>10.0</ele><time>2026-05-02T04:34:57.819Z</time></trkpt><trkpt lat="43.9563063" lon="12.7381025"><ele>10.0</ele><time>2026-05-02T04:34:58.822Z</time></trkpt><trkpt lat="43.9561969" lon="12.7381128"><ele>10.0</ele><time>2026-05-02T04:34:59.811Z</time></trkpt><trkpt lat="43.9561104" lon="12.73811"><ele>10.0</ele><time>2026-05-02T04:35:00.817Z</time></trkpt><trkpt lat="43.9560255" lon="12.7380765"><ele>10.0</ele><time>2026-05-02T04:35:01.822Z</time></trkpt><trkpt lat="43.9559557" lon="12.738042"><ele>10.0</ele><time>2026-05-02T04:35:02.812Z</time></trkpt><trkpt lat="43.9558879" lon="12.7380682"><ele>10.0</ele><time>2026-05-02T04:35:03.815Z</time></trkpt><trkpt lat="43.9558408" lon="12.738129"><ele>10.4</ele><time>2026-05-02T04:35:04.798Z</time></trkpt><trkpt lat="43.9558238" lon="12.7382213"><ele>10.8</ele><time>2026-05-02T04:35:05.806Z</time></trkpt><trkpt lat="43.9558231" lon="12.7383362"><ele>11.2</ele><time>2026-05-02T04:35:06.805Z</time></trkpt><trkpt lat="43.9558063" lon="12.7384673"><ele>11.6</ele><time>2026-05-02T04:35:07.807Z</time></trkpt><trkpt lat="43.9557773" lon="12.738602"><ele>12.0</ele><time>2026-05-02T04:35:08.825Z</time></trkpt><trkpt lat="43.9557459" lon="12.7387383"><ele>12.399999999999999</ele><time>2026-05-02T04:35:09.81Z</time></trkpt><trkpt lat="43.9557172" lon="12.7388742"><ele>12.799999999999999</ele><time>2026-05-02T04:35:10.81Z</time></trkpt><trkpt lat="43.9556879" lon="12.7390224"><ele>13.2</ele><time>2026-05-02T04:35:11.813Z</time></trkpt><trkpt lat="43.9556591" lon="12.7391681"><ele>13.6</ele><time>2026-05-02T04:35:12.806Z</time></trkpt><trkpt lat="43.9556295" lon="12.739316"><ele>14.0</ele><time>2026-05-02T04:35:13.813Z</time></trkpt><trkpt lat="43.9556025" lon="12.7394654"><ele>14.25</ele><time>2026-05-02T04:35:14.822Z</time></trkpt><trkpt lat="43.9555738" lon="12.7396159"><ele>14.5</ele><time>2026-05-02T04:35:15.805Z</time></trkpt><trkpt lat="43.9555484" lon="12.7397713"><ele>14.75</ele><time>2026-05-02T04:35:16.809Z</time></trkpt><trkpt lat="43.9555174" lon="12.7399293"><ele>15.0</ele><time>2026-05-02T04:35:17.813Z</time></trkpt><trkpt lat="43.9554824" lon="12.740093"><ele>15.25</ele><time>2026-05-02T04:35:18.811Z</time></trkpt><trkpt lat="43.9554513" lon="12.74026"><ele>15.5</ele><time>2026-05-02T04:35:19.815Z</time></trkpt><trkpt lat="43.9554195" lon="12.7404252"><ele>15.75</ele><time>2026-05-02T04:35:20.81Z</time></trkpt><trkpt lat="43.9553943" lon="12.7405934"><ele>16.0</ele><time>2026-05-02T04:35:21.815Z</time></trkpt><trkpt lat="43.9553682" lon="12.7407484"><ele>15.999999999999998</ele><time>2026-05-02T04:35:22.813Z</time></trkpt><trkpt lat="43.9553412" lon="12.740871"><ele>16.0</ele><time>2026-05-02T04:35:23.814Z</time></trkpt><trkpt lat="43.9552987" lon="12.7409751"><ele>16.0</ele><time>2026-05-02T04:35:24.807Z</time></trkpt><trkpt lat="43.9552469" lon="12.7410587"><ele>16.0</ele><time>2026-05-02T04:35:25.812Z</time></trkpt><trkpt lat="43.9551936" lon="12.7411586"><ele>15.999999999999998</ele><time>2026-05-02T04:35:26.81Z</time></trkpt><trkpt lat="43.9551407" lon="12.741272"><ele>16.0</ele><time>2026-05-02T04:35:27.822Z</time></trkpt><trkpt lat="43.9550893" lon="12.74138"><ele>15.600000000000001</ele><time>2026-05-02T04:35:28.812Z</time></trkpt><trkpt lat="43.9550312" lon="12.7414969"><ele>15.200000000000001</ele><time>2026-05-02T04:35:29.804Z</time></trkpt><trkpt lat="43.9549704" lon="12.7416162"><ele>14.799999999999999</ele><time>2026-05-02T04:35:30.801Z</time></trkpt><trkpt lat="43.9549117" lon="12.7417447"><ele>14.399999999999999</ele><time>2026-05-02T04:35:31.808Z</time></trkpt><trkpt lat="43.9548473" lon="12.7418734"><ele>14.0</ele><time>2026-05-02T04:35:32.815Z</time></trkpt><trkpt lat="43.9547815" lon="12.7419969"><ele>14.0</ele><time>2026-05-02T04:35:33.812Z</time></trkpt><trkpt lat="43.9547177" lon="12.7421182"><ele>13.999999999999998</ele><time>2026-05-02T04:35:34.812Z</time></trkpt><trkpt lat="43.954648" lon="12.7422418"><ele>13.999999999999998</ele><time>2026-05-02T04:35:35.809Z</time></trkpt><trkpt lat="43.9545779" lon="12.7423628"><ele>14.0</ele><time>2026-05-02T04:35:36.805Z</time></trkpt><trkpt lat="43.9545083" lon="12.7424693"><ele>14.0</ele><time>2026-05-02T04:35:37.815Z</time></trkpt><trkpt lat="43.9544369" lon="12.7425548"><ele>14.000000000000002</ele><time>2026-05-02T04:35:38.798Z</time></trkpt><trkpt lat="43.9543791" lon="12.7426354"><ele>14.0</ele><time>2026-05-02T04:35:39.815Z</time></trkpt><trkpt lat="43.9542611" lon="12.7426196"><ele>14.0</ele><time>2026-05-02T04:35:41.82Z</time></trkpt><trkpt lat="43.9542018" lon="12.7425545"><ele>14.0</ele><time>2026-05-02T04:35:42.818Z</time></trkpt><trkpt lat="43.9541439" lon="12.7424777"><ele>14.000000000000002</ele><time>2026-05-02T04:35:43.824Z</time></trkpt><trkpt lat="43.9540832" lon="12.7423811"><ele>14.0</ele><time>2026-05-02T04:35:44.815Z</time></trkpt><trkpt lat="43.9539973" lon="12.7422725"><ele>13.75</ele><time>2026-05-02T04:35:45.827Z</time></trkpt><trkpt lat="43.9539179" lon="12.7421491"><ele>13.5</ele><time>2026-05-02T04:35:46.821Z</time></trkpt><trkpt lat="43.9538398" lon="12.7420373"><ele>13.25</ele><time>2026-05-02T04:35:47.826Z</time></trkpt><trkpt lat="43.9537553" lon="12.7419265"><ele>13.0</ele><time>2026-05-02T04:35:48.818Z</time></trkpt><trkpt lat="43.9536582" lon="12.7418076"><ele>13.0</ele><time>2026-05-02T04:35:49.843Z</time></trkpt><trkpt lat="43.9535656" lon="12.7416785"><ele>13.0</ele><time>2026-05-02T04:35:50.808Z</time></trkpt><trkpt lat="43.9534735" lon="12.7415545"><ele>13.0</ele><time>2026-05-02T04:35:51.817Z</time></trkpt><trkpt lat="43.9533801" lon="12.7414293"><ele>13.0</ele><time>2026-05-02T04:35:52.813Z</time></trkpt><trkpt lat="43.9532869" lon="12.7413111"><ele>13.0</ele><time>2026-05-02T04:35:53.82Z</time></trkpt><trkpt lat="43.9531905" lon="12.7411879"><ele>13.0</ele><time>2026-05-02T04:35:54.814Z</time></trkpt><trkpt lat="43.9530899" lon="12.7410594"><ele>13.0</ele><time>2026-05-02T04:35:55.823Z</time></trkpt><trkpt lat="43.9529807" lon="12.7409305"><ele>13.0</ele><time>2026-05-02T04:35:56.808Z</time></trkpt><trkpt lat="43.9528648" lon="12.7407912"><ele>13.0</ele><time>2026-05-02T04:35:57.818Z</time></trkpt><trkpt lat="43.9527503" lon="12.7406507"><ele>13.0</ele><time>2026-05-02T04:35:58.82Z</time></trkpt><trkpt lat="43.9526384" lon="12.7405096"><ele>13.0</ele><time>2026-05-02T04:35:59.82Z</time></trkpt><trkpt lat="43.9525366" lon="12.7403778"><ele>13.0</ele><time>2026-05-02T04:36:00.817Z</time></trkpt><trkpt lat="43.9524491" lon="12.7402622"><ele>13.2</ele><time>2026-05-02T04:36:01.818Z</time></trkpt><trkpt lat="43.9523749" lon="12.7401593"><ele>13.4</ele><time>2026-05-02T04:36:02.826Z</time></trkpt><trkpt lat="43.9523125" lon="12.7400657"><ele>13.599999999999998</ele><time>2026-05-02T04:36:03.81Z</time></trkpt><trkpt lat="43.9522645" lon="12.7399848"><ele>13.799999999999999</ele><time>2026-05-02T04:36:04.816Z</time></trkpt><trkpt lat="43.9521989" lon="12.7398747"><ele>14.0</ele><time>2026-05-02T04:36:06.805Z</time></trkpt><trkpt lat="43.952111" lon="12.7398835"><ele>14.0</ele><time>2026-05-02T04:36:09.811Z</time></trkpt><trkpt lat="43.9520897" lon="12.740061"><ele>13.999999999999998</ele><time>2026-05-02T04:36:11.811Z</time></trkpt><trkpt lat="43.9521333" lon="12.7401772"><ele>13.999999999999998</ele><time>2026-05-02T04:36:12.815Z</time></trkpt><trkpt lat="43.9521282" lon="12.7403123"><ele>14.0</ele><time>2026-05-02T04:36:13.824Z</time></trkpt><trkpt lat="43.9520756" lon="12.7404636"><ele>14.0</ele><time>2026-05-02T04:36:14.821Z</time></trkpt><trkpt lat="43.9520051" lon="12.7406046"><ele>14.0</ele><time>2026-05-02T04:36:15.812Z</time></trkpt><trkpt lat="43.9519121" lon="12.7407206"><ele>14.0</ele><time>2026-05-02T04:36:16.819Z</time></trkpt><trkpt lat="43.9518029" lon="12.7408118"><ele>14.0</ele><time>2026-05-02T04:36:17.819Z</time></trkpt><trkpt lat="43.9516854" lon="12.7408843"><ele>14.0</ele><time>2026-05-02T04:36:18.825Z</time></trkpt><trkpt lat="43.9515709" lon="12.7409579"><ele>14.0</ele><time>2026-05-02T04:36:19.821Z</time></trkpt><trkpt lat="43.9514455" lon="12.7410212"><ele>14.0</ele><time>2026-05-02T04:36:20.83Z</time></trkpt><trkpt lat="43.9513267" lon="12.7410985"><ele>14.0</ele><time>2026-05-02T04:36:21.815Z</time></trkpt><trkpt lat="43.9511986" lon="12.7411735"><ele>14.0</ele><time>2026-05-02T04:36:22.82Z</time></trkpt><trkpt lat="43.9510738" lon="12.7412523"><ele>14.0</ele><time>2026-05-02T04:36:23.814Z</time></trkpt><trkpt lat="43.9509536" lon="12.7413318"><ele>14.0</ele><time>2026-05-02T04:36:24.805Z</time></trkpt><trkpt lat="43.9508244" lon="12.7414137"><ele>14.0</ele><time>2026-05-02T04:36:25.816Z</time></trkpt><trkpt lat="43.9506849" lon="12.7414969"><ele>14.0</ele><time>2026-05-02T04:36:26.813Z</time></trkpt><trkpt lat="43.9505431" lon="12.74158"><ele>14.0</ele><time>2026-05-02T04:36:27.824Z</time></trkpt><trkpt lat="43.9504012" lon="12.7416675"><ele>14.0</ele><time>2026-05-02T04:36:28.816Z</time></trkpt><trkpt lat="43.9502546" lon="12.7417611"><ele>14.0</ele><time>2026-05-02T04:36:29.823Z</time></trkpt><trkpt lat="43.950109" lon="12.7418493"><ele>14.25</ele><time>2026-05-02T04:36:30.823Z</time></trkpt><trkpt lat="43.9499723" lon="12.7419348"><ele>14.5</ele><time>2026-05-02T04:36:31.816Z</time></trkpt><trkpt lat="43.9498563" lon="12.7420046"><ele>14.75</ele><time>2026-05-02T04:36:32.814Z</time></trkpt><trkpt lat="43.9497597" lon="12.7420722"><ele>15.0</ele><time>2026-05-02T04:36:33.821Z</time></trkpt><trkpt lat="43.9496648" lon="12.7421302"><ele>15.0</ele><time>2026-05-02T04:36:34.809Z</time></trkpt><trkpt lat="43.9495781" lon="12.7421764"><ele>15.0</ele><time>2026-05-02T04:36:35.803Z</time></trkpt><trkpt lat="43.9495046" lon="12.7422097"><ele>15.0</ele><time>2026-05-02T04:36:36.812Z</time></trkpt><trkpt lat="43.9493923" lon="12.7421814"><ele>15.0</ele><time>2026-05-02T04:36:38.82Z</time></trkpt><trkpt lat="43.9493503" lon="12.7421003"><ele>15.0</ele><time>2026-05-02T04:36:39.813Z</time></trkpt><trkpt lat="43.9493104" lon="12.7420001"><ele>15.0</ele><time>2026-05-02T04:36:40.813Z</time></trkpt><trkpt lat="43.9492573" lon="12.7418861"><ele>15.75</ele><time>2026-05-02T04:36:41.82Z</time></trkpt><trkpt lat="43.9492033" lon="12.7417624"><ele>16.5</ele><time>2026-05-02T04:36:42.807Z</time></trkpt><trkpt lat="43.9491464" lon="12.7416237"><ele>17.25</ele><time>2026-05-02T04:36:43.833Z</time></trkpt><trkpt lat="43.9490871" lon="12.7414686"><ele>18.0</ele><time>2026-05-02T04:36:44.817Z</time></trkpt><trkpt lat="43.9490284" lon="12.7413066"><ele>18.0</ele><time>2026-05-02T04:36:45.825Z</time></trkpt><trkpt lat="43.9489787" lon="12.7411356"><ele>18.0</ele><time>2026-05-02T04:36:46.827Z</time></trkpt><trkpt lat="43.9489235" lon="12.7409595"><ele>18.0</ele><time>2026-05-02T04:36:47.82Z</time></trkpt><trkpt lat="43.9488672" lon="12.7407841"><ele>18.0</ele><time>2026-05-02T04:36:48.819Z</time></trkpt><trkpt lat="43.9488002" lon="12.740604"><ele>18.0</ele><time>2026-05-02T04:36:49.815Z</time></trkpt><trkpt lat="43.9487279" lon="12.7404192"><ele>18.0</ele><time>2026-05-02T04:36:50.813Z</time></trkpt><trkpt lat="43.9486573" lon="12.7402314"><ele>18.0</ele><time>2026-05-02T04:36:51.817Z</time></trkpt><trkpt lat="43.9485884" lon="12.7400382"><ele>17.666666666666668</ele><time>2026-05-02T04:36:52.82Z</time></trkpt><trkpt lat="43.9485178" lon="12.7398361"><ele>17.333333333333336</ele><time>2026-05-02T04:36:53.806Z</time></trkpt><trkpt lat="43.9484467" lon="12.7396302"><ele>17.0</ele><time>2026-05-02T04:36:54.815Z</time></trkpt><trkpt lat="43.9483729" lon="12.7394214"><ele>16.333333333333336</ele><time>2026-05-02T04:36:55.827Z</time></trkpt><trkpt lat="43.9483011" lon="12.7392184"><ele>15.666666666666668</ele><time>2026-05-02T04:36:56.819Z</time></trkpt><trkpt lat="43.9482284" lon="12.7390156"><ele>15.0</ele><time>2026-05-02T04:36:57.824Z</time></trkpt><trkpt lat="43.9481587" lon="12.7388116"><ele>15.0</ele><time>2026-05-02T04:36:58.817Z</time></trkpt><trkpt lat="43.948083" lon="12.7386033"><ele>15.0</ele><time>2026-05-02T04:36:59.829Z</time></trkpt><trkpt lat="43.94801" lon="12.7383968"><ele>15.0</ele><time>2026-05-02T04:37:00.829Z</time></trkpt><trkpt lat="43.9479408" lon="12.7381938"><ele>14.333333333333332</ele><time>2026-05-02T04:37:01.822Z</time></trkpt><trkpt lat="43.9478731" lon="12.7379916"><ele>13.666666666666666</ele><time>2026-05-02T04:37:02.818Z</time></trkpt><trkpt lat="43.9478039" lon="12.7377931"><ele>13.0</ele><time>2026-05-02T04:37:03.817Z</time></trkpt><trkpt lat="43.9477386" lon="12.7376044"><ele>13.0</ele><time>2026-05-02T04:37:04.814Z</time></trkpt><trkpt lat="43.9476714" lon="12.7374135"><ele>13.0</ele><time>2026-05-02T04:37:05.826Z</time></trkpt><trkpt lat="43.947605" lon="12.7372178"><ele>13.0</ele><time>2026-05-02T04:37:06.824Z</time></trkpt><trkpt lat="43.947531" lon="12.7370246"><ele>13.666666666666666</ele><time>2026-05-02T04:37:07.825Z</time></trkpt><trkpt lat="43.9474573" lon="12.7368261"><ele>14.333333333333332</ele><time>2026-05-02T04:37:08.818Z</time></trkpt><trkpt lat="43.947384" lon="12.7366304"><ele>15.0</ele><time>2026-05-02T04:37:09.818Z</time></trkpt><trkpt lat="43.9473094" lon="12.7364349"><ele>15.0</ele><time>2026-05-02T04:37:10.815Z</time></trkpt><trkpt lat="43.947248" lon="12.7362564"><ele>15.0</ele><time>2026-05-02T04:37:11.814Z</time></trkpt><trkpt lat="43.9471897" lon="12.7360901"><ele>15.0</ele><time>2026-05-02T04:37:12.816Z</time></trkpt><trkpt lat="43.947137" lon="12.7359439"><ele>15.0</ele><time>2026-05-02T04:37:13.821Z</time></trkpt><trkpt lat="43.9470951" lon="12.7358213"><ele>15.0</ele><time>2026-05-02T04:37:14.813Z</time></trkpt><trkpt lat="43.9470631" lon="12.7357164"><ele>15.0</ele><time>2026-05-02T04:37:15.822Z</time></trkpt><trkpt lat="43.9470136" lon="12.7355841"><ele>15.0</ele><time>2026-05-02T04:37:17.818Z</time></trkpt><trkpt lat="43.9469403" lon="12.7355198"><ele>15.0</ele><time>2026-05-02T04:37:19.812Z</time></trkpt><trkpt lat="43.9468686" lon="12.7355213"><ele>15.0</ele><time>2026-05-02T04:37:20.813Z</time></trkpt><trkpt lat="43.946781" lon="12.7355552"><ele>15.0</ele><time>2026-05-02T04:37:21.816Z</time></trkpt><trkpt lat="43.9467045" lon="12.7356384"><ele>15.0</ele><time>2026-05-02T04:37:22.811Z</time></trkpt><trkpt lat="43.946613" lon="12.7356854"><ele>15.0</ele><time>2026-05-02T04:37:23.812Z</time></trkpt><trkpt lat="43.9464829" lon="12.7357068"><ele>15.0</ele><time>2026-05-02T04:37:24.811Z</time></trkpt><trkpt lat="43.9463547" lon="12.7357403"><ele>15.0</ele><time>2026-05-02T04:37:25.825Z</time></trkpt><trkpt lat="43.9462266" lon="12.7357739"><ele>15.0</ele><time>2026-05-02T04:37:26.811Z</time></trkpt><trkpt lat="43.9460934" lon="12.7357912"><ele>15.0</ele><time>2026-05-02T04:37:27.828Z</time></trkpt><trkpt lat="43.9459518" lon="12.735786"><ele>15.0</ele><time>2026-05-02T04:37:28.808Z</time></trkpt><trkpt lat="43.9458148" lon="12.7357427"><ele>15.0</ele><time>2026-05-02T04:37:29.811Z</time></trkpt><trkpt lat="43.9456918" lon="12.735673"><ele>15.25</ele><time>2026-05-02T04:37:30.815Z</time></trkpt><trkpt lat="43.9455851" lon="12.7356009"><ele>15.5</ele><time>2026-05-02T04:37:31.817Z</time></trkpt><trkpt lat="43.9454798" lon="12.7355556"><ele>15.75</ele><time>2026-05-02T04:37:32.812Z</time></trkpt><trkpt lat="43.9453567" lon="12.7355502"><ele>16.0</ele><time>2026-05-02T04:37:33.831Z</time></trkpt><trkpt lat="43.9452244" lon="12.7355769"><ele>16.0</ele><time>2026-05-02T04:37:34.811Z</time></trkpt><trkpt lat="43.9450841" lon="12.7356254"><ele>16.0</ele><time>2026-05-02T04:37:35.826Z</time></trkpt><trkpt lat="43.9449577" lon="12.735689"><ele>16.0</ele><time>2026-05-02T04:37:36.816Z</time></trkpt><trkpt lat="43.9448315" lon="12.7357548"><ele>16.0</ele><time>2026-05-02T04:37:37.812Z</time></trkpt><trkpt lat="43.94472" lon="12.7358301"><ele>16.0</ele><time>2026-05-02T04:37:38.817Z</time></trkpt><trkpt lat="43.9446163" lon="12.7359318"><ele>16.0</ele><time>2026-05-02T04:37:39.82Z</time></trkpt><trkpt lat="43.9445123" lon="12.7360465"><ele>16.0</ele><time>2026-05-02T04:37:40.813Z</time></trkpt><trkpt lat="43.9444032" lon="12.7361664"><ele>16.0</ele><time>2026-05-02T04:37:41.809Z</time></trkpt><trkpt lat="43.9443016" lon="12.736301"><ele>15.5</ele><time>2026-05-02T04:37:42.811Z</time></trkpt><trkpt lat="43.9441994" lon="12.7364329"><ele>15.0</ele><time>2026-05-02T04:37:43.809Z</time></trkpt><trkpt lat="43.9440888" lon="12.7365541"><ele>14.5</ele><time>2026-05-02T04:37:44.814Z</time></trkpt><trkpt lat="43.9439707" lon="12.7366635"><ele>14.0</ele><time>2026-05-02T04:37:45.815Z</time></trkpt><trkpt lat="43.9438452" lon="12.7367568"><ele>14.0</ele><time>2026-05-02T04:37:46.818Z</time></trkpt><trkpt lat="43.943722" lon="12.7368454"><ele>14.0</ele><time>2026-05-02T04:37:47.813Z</time></trkpt><trkpt lat="43.9436071" lon="12.7369243"><ele>14.0</ele><time>2026-05-02T04:37:48.81Z</time></trkpt><trkpt lat="43.9434975" lon="12.7369895"><ele>14.0</ele><time>2026-05-02T04:37:49.809Z</time></trkpt><trkpt lat="43.9434067" lon="12.7370459"><ele>14.000000000000002</ele><time>2026-05-02T04:37:50.804Z</time></trkpt><trkpt lat="43.9433401" lon="12.737079"><ele>14.0</ele><time>2026-05-02T04:37:51.821Z</time></trkpt><trkpt lat="43.9432568" lon="12.7371051"><ele>14.0</ele><time>2026-05-02T04:37:53.816Z</time></trkpt><trkpt lat="43.9431882" lon="12.7371098"><ele>14.0</ele><time>2026-05-02T04:37:55.808Z</time></trkpt><trkpt lat="43.9431299" lon="12.7370762"><ele>14.000000000000002</ele><time>2026-05-02T04:37:57.817Z</time></trkpt><trkpt lat="43.9430438" lon="12.7369351"><ele>14.0</ele><time>2026-05-02T04:37:59.82Z</time></trkpt><trkpt lat="43.9429828" lon="12.7368359"><ele>14.2</ele><time>2026-05-02T04:38:00.818Z</time></trkpt><trkpt lat="43.9429182" lon="12.7367308"><ele>14.399999999999999</ele><time>2026-05-02T04:38:01.824Z</time></trkpt><trkpt lat="43.9428552" lon="12.7366294"><ele>14.6</ele><time>2026-05-02T04:38:02.816Z</time></trkpt><trkpt lat="43.9427837" lon="12.7365242"><ele>14.8</ele><time>2026-05-02T04:38:03.833Z</time></trkpt><trkpt lat="43.9427154" lon="12.7364211"><ele>15.0</ele><time>2026-05-02T04:38:04.817Z</time></trkpt><trkpt lat="43.942639" lon="12.7363117"><ele>15.0</ele><time>2026-05-02T04:38:05.825Z</time></trkpt><trkpt lat="43.9425581" lon="12.7361904"><ele>15.0</ele><time>2026-05-02T04:38:06.812Z</time></trkpt><trkpt lat="43.9424767" lon="12.7360647"><ele>15.0</ele><time>2026-05-02T04:38:07.837Z</time></trkpt><trkpt lat="43.942392" lon="12.7359399"><ele>15.0</ele><time>2026-05-02T04:38:08.813Z</time></trkpt><trkpt lat="43.9423103" lon="12.7358186"><ele>15.2</ele><time>2026-05-02T04:38:09.824Z</time></trkpt><trkpt lat="43.9422324" lon="12.7357011"><ele>15.4</ele><time>2026-05-02T04:38:10.815Z</time></trkpt><trkpt lat="43.9421532" lon="12.73559"><ele>15.600000000000001</ele><time>2026-05-02T04:38:11.817Z</time></trkpt><trkpt lat="43.9420814" lon="12.7354885"><ele>15.8</ele><time>2026-05-02T04:38:12.815Z</time></trkpt><trkpt lat="43.9420104" lon="12.7353935"><ele>16.0</ele><time>2026-05-02T04:38:13.835Z</time></trkpt><trkpt lat="43.9419488" lon="12.7353042"><ele>15.999999999999998</ele><time>2026-05-02T04:38:14.814Z</time></trkpt><trkpt lat="43.9418849" lon="12.7352166"><ele>16.0</ele><time>2026-05-02T04:38:15.831Z</time></trkpt><trkpt lat="43.9418221" lon="12.7351322"><ele>16.0</ele><time>2026-05-02T04:38:16.805Z</time></trkpt><trkpt lat="43.9417572" lon="12.735043"><ele>16.0</ele><time>2026-05-02T04:38:17.832Z</time></trkpt><trkpt lat="43.9417015" lon="12.7349492"><ele>15.999999999999998</ele><time>2026-05-02T04:38:18.813Z</time></trkpt><trkpt lat="43.9416488" lon="12.734871"><ele>16.0</ele><time>2026-05-02T04:38:19.812Z</time></trkpt><trkpt lat="43.9415991" lon="12.7347947"><ele>15.999999999999998</ele><time>2026-05-02T04:38:20.822Z</time></trkpt><trkpt lat="43.9415512" lon="12.7347308"><ele>16.0</ele><time>2026-05-02T04:38:21.82Z</time></trkpt><trkpt lat="43.941475" lon="12.7346211"><ele>16.0</ele><time>2026-05-02T04:38:23.822Z</time></trkpt><trkpt lat="43.9413966" lon="12.7345064"><ele>16.0</ele><time>2026-05-02T04:38:25.827Z</time></trkpt><trkpt lat="43.9413541" lon="12.7344405"><ele>15.999999999999998</ele><time>2026-05-02T04:38:26.821Z</time></trkpt><trkpt lat="43.9413044" lon="12.7343599"><ele>16.0</ele><time>2026-05-02T04:38:27.823Z</time></trkpt><trkpt lat="43.9412479" lon="12.7342752"><ele>16.0</ele><time>2026-05-02T04:38:28.831Z</time></trkpt><trkpt lat="43.941186" lon="12.7341846"><ele>16.0</ele><time>2026-05-02T04:38:29.824Z</time></trkpt><trkpt lat="43.9411065" lon="12.7340859"><ele>16.0</ele><time>2026-05-02T04:38:30.809Z</time></trkpt><trkpt lat="43.9410226" lon="12.733977"><ele>16.0</ele><time>2026-05-02T04:38:31.831Z</time></trkpt><trkpt lat="43.9409073" lon="12.7338411"><ele>17.0</ele><time>2026-05-02T04:38:32.82Z</time></trkpt><trkpt lat="43.9407797" lon="12.733683"><ele>18.0</ele><time>2026-05-02T04:38:33.833Z</time></trkpt><trkpt lat="43.9406443" lon="12.7334976"><ele>19.0</ele><time>2026-05-02T04:38:34.814Z</time></trkpt><trkpt lat="43.9405055" lon="12.7333031"><ele>19.0</ele><time>2026-05-02T04:38:35.826Z</time></trkpt><trkpt lat="43.9403671" lon="12.7331112"><ele>19.0</ele><time>2026-05-02T04:38:36.808Z</time></trkpt><trkpt lat="43.9402381" lon="12.732939"><ele>19.0</ele><time>2026-05-02T04:38:37.823Z</time></trkpt><trkpt lat="43.9401163" lon="12.7327737"><ele>18.333333333333332</ele><time>2026-05-02T04:38:38.811Z</time></trkpt><trkpt lat="43.9399932" lon="12.7326149"><ele>17.666666666666668</ele><time>2026-05-02T04:38:39.822Z</time></trkpt><trkpt lat="43.9398645" lon="12.7324671"><ele>17.0</ele><time>2026-05-02T04:38:40.826Z</time></trkpt><trkpt lat="43.9397237" lon="12.7323379"><ele>17.0</ele><time>2026-05-02T04:38:41.812Z</time></trkpt><trkpt lat="43.9395768" lon="12.7322211"><ele>17.0</ele><time>2026-05-02T04:38:42.807Z</time></trkpt><trkpt lat="43.9394222" lon="12.7321124"><ele>17.0</ele><time>2026-05-02T04:38:43.826Z</time></trkpt><trkpt lat="43.9392761" lon="12.7320113"><ele>17.25</ele><time>2026-05-02T04:38:44.811Z</time></trkpt><trkpt lat="43.9391433" lon="12.7319087"><ele>17.5</ele><time>2026-05-02T04:38:45.822Z</time></trkpt><trkpt lat="43.939018" lon="12.7318031"><ele>17.75</ele><time>2026-05-02T04:38:46.82Z</time></trkpt><trkpt lat="43.9388988" lon="12.7316956"><ele>18.0</ele><time>2026-05-02T04:38:47.819Z</time></trkpt><trkpt lat="43.9388065" lon="12.7316099"><ele>18.0</ele><time>2026-05-02T04:38:48.817Z</time></trkpt><trkpt lat="43.9387476" lon="12.7315367"><ele>18.0</ele><time>2026-05-02T04:38:49.815Z</time></trkpt><trkpt lat="43.9387282" lon="12.7314089"><ele>18.0</ele><time>2026-05-02T04:38:51.817Z</time></trkpt><trkpt lat="43.9387527" lon="12.7313193"><ele>18.0</ele><time>2026-05-02T04:38:52.804Z</time></trkpt><trkpt lat="43.9387931" lon="12.7312095"><ele>18.0</ele><time>2026-05-02T04:38:53.819Z</time></trkpt><trkpt lat="43.9388166" lon="12.7310872"><ele>18.0</ele><time>2026-05-02T04:38:54.818Z</time></trkpt><trkpt lat="43.938806" lon="12.7309409"><ele>18.0</ele><time>2026-05-02T04:38:55.833Z</time></trkpt><trkpt lat="43.9387639" lon="12.7307854"><ele>18.0</ele><time>2026-05-02T04:38:56.809Z</time></trkpt><trkpt lat="43.9387036" lon="12.7306279"><ele>18.0</ele><time>2026-05-02T04:38:57.825Z</time></trkpt><trkpt lat="43.93863" lon="12.7304759"><ele>18.0</ele><time>2026-05-02T04:38:58.813Z</time></trkpt><trkpt lat="43.9385561" lon="12.7303242"><ele>18.5</ele><time>2026-05-02T04:38:59.827Z</time></trkpt><trkpt lat="43.9384802" lon="12.7301601"><ele>19.0</ele><time>2026-05-02T04:39:00.815Z</time></trkpt><trkpt lat="43.938404" lon="12.729977"><ele>19.5</ele><time>2026-05-02T04:39:01.819Z</time></trkpt><trkpt lat="43.9383378" lon="12.7297916"><ele>20.0</ele><time>2026-05-02T04:39:02.82Z</time></trkpt><trkpt lat="43.9382708" lon="12.7296016"><ele>20.333333333333336</ele><time>2026-05-02T04:39:03.818Z</time></trkpt><trkpt lat="43.9382094" lon="12.7294075"><ele>20.666666666666668</ele><time>2026-05-02T04:39:04.816Z</time></trkpt><trkpt lat="43.9381471" lon="12.729212"><ele>21.0</ele><time>2026-05-02T04:39:05.816Z</time></trkpt><trkpt lat="43.9380832" lon="12.7290149"><ele>21.0</ele><time>2026-05-02T04:39:06.817Z</time></trkpt><trkpt lat="43.9380178" lon="12.7288218"><ele>21.0</ele><time>2026-05-02T04:39:07.816Z</time></trkpt><trkpt lat="43.9379511" lon="12.7286279"><ele>21.0</ele><time>2026-05-02T04:39:08.816Z</time></trkpt><trkpt lat="43.9378857" lon="12.7284292"><ele>21.0</ele><time>2026-05-02T04:39:09.819Z</time></trkpt><trkpt lat="43.9378188" lon="12.7282328"><ele>21.0</ele><time>2026-05-02T04:39:10.824Z</time></trkpt><trkpt lat="43.9377417" lon="12.7280358"><ele>21.0</ele><time>2026-05-02T04:39:11.829Z</time></trkpt><trkpt lat="43.9376571" lon="12.7278424"><ele>21.0</ele><time>2026-05-02T04:39:12.823Z</time></trkpt><trkpt lat="43.9375677" lon="12.7276538"><ele>21.0</ele><time>2026-05-02T04:39:13.825Z</time></trkpt><trkpt lat="43.9374734" lon="12.7274671"><ele>21.0</ele><time>2026-05-02T04:39:14.822Z</time></trkpt><trkpt lat="43.9373779" lon="12.727276"><ele>21.333333333333332</ele><time>2026-05-02T04:39:15.823Z</time></trkpt><trkpt lat="43.9372881" lon="12.7270931"><ele>21.666666666666664</ele><time>2026-05-02T04:39:16.81Z</time></trkpt><trkpt lat="43.9372049" lon="12.7269066"><ele>22.0</ele><time>2026-05-02T04:39:17.826Z</time></trkpt><trkpt lat="43.9371205" lon="12.726714"><ele>22.0</ele><time>2026-05-02T04:39:18.821Z</time></trkpt><trkpt lat="43.9370342" lon="12.7265131"><ele>22.0</ele><time>2026-05-02T04:39:19.814Z</time></trkpt><trkpt lat="43.9369531" lon="12.7263061"><ele>22.0</ele><time>2026-05-02T04:39:20.819Z</time></trkpt><trkpt lat="43.9368711" lon="12.7260918"><ele>21.666666666666664</ele><time>2026-05-02T04:39:21.819Z</time></trkpt><trkpt lat="43.9367846" lon="12.7258745"><ele>21.333333333333332</ele><time>2026-05-02T04:39:22.817Z</time></trkpt><trkpt lat="43.9366976" lon="12.7256697"><ele>21.0</ele><time>2026-05-02T04:39:23.826Z</time></trkpt><trkpt lat="43.9366185" lon="12.7254896"><ele>21.0</ele><time>2026-05-02T04:39:24.828Z</time></trkpt><trkpt lat="43.9365473" lon="12.7253149"><ele>21.0</ele><time>2026-05-02T04:39:25.818Z</time></trkpt><trkpt lat="43.936488" lon="12.7251347"><ele>21.0</ele><time>2026-05-02T04:39:26.819Z</time></trkpt><trkpt lat="43.9364408" lon="12.7249384"><ele>21.0</ele><time>2026-05-02T04:39:27.826Z</time></trkpt><trkpt lat="43.9364022" lon="12.7247328"><ele>21.666666666666668</ele><time>2026-05-02T04:39:28.819Z</time></trkpt><trkpt lat="43.9363626" lon="12.7245257"><ele>22.333333333333336</ele><time>2026-05-02T04:39:29.812Z</time></trkpt><trkpt lat="43.9363095" lon="12.7243196"><ele>23.0</ele><time>2026-05-02T04:39:30.816Z</time></trkpt><trkpt lat="43.9362425" lon="12.7241217"><ele>23.666666666666668</ele><time>2026-05-02T04:39:31.835Z</time></trkpt><trkpt lat="43.936159" lon="12.7239372"><ele>24.333333333333336</ele><time>2026-05-02T04:39:32.823Z</time></trkpt><trkpt lat="43.9360521" lon="12.7237772"><ele>25.0</ele><time>2026-05-02T04:39:33.824Z</time></trkpt><trkpt lat="43.9359296" lon="12.7236397"><ele>24.666666666666668</ele><time>2026-05-02T04:39:34.812Z</time></trkpt><trkpt lat="43.9358024" lon="12.7235071"><ele>24.333333333333336</ele><time>2026-05-02T04:39:35.815Z</time></trkpt><trkpt lat="43.9356828" lon="12.7233721"><ele>24.0</ele><time>2026-05-02T04:39:36.815Z</time></trkpt><trkpt lat="43.9355783" lon="12.7232305"><ele>24.0</ele><time>2026-05-02T04:39:37.82Z</time></trkpt><trkpt lat="43.9354844" lon="12.7230787"><ele>24.0</ele><time>2026-05-02T04:39:38.81Z</time></trkpt><trkpt lat="43.9353941" lon="12.7229176"><ele>24.0</ele><time>2026-05-02T04:39:39.839Z</time></trkpt><trkpt lat="43.9353134" lon="12.7227601"><ele>24.0</ele><time>2026-05-02T04:39:40.817Z</time></trkpt><trkpt lat="43.9352326" lon="12.722611"><ele>24.0</ele><time>2026-05-02T04:39:41.833Z</time></trkpt><trkpt lat="43.9351522" lon="12.7224639"><ele>24.0</ele><time>2026-05-02T04:39:42.811Z</time></trkpt><trkpt lat="43.9350596" lon="12.7223032"><ele>24.0</ele><time>2026-05-02T04:39:43.82Z</time></trkpt><trkpt lat="43.9349671" lon="12.7221359"><ele>24.0</ele><time>2026-05-02T04:39:44.818Z</time></trkpt><trkpt lat="43.9348766" lon="12.7219682"><ele>24.0</ele><time>2026-05-02T04:39:45.827Z</time></trkpt><trkpt lat="43.9347866" lon="12.7217991"><ele>24.0</ele><time>2026-05-02T04:39:46.815Z</time></trkpt><trkpt lat="43.9346979" lon="12.721626"><ele>24.0</ele><time>2026-05-02T04:39:47.823Z</time></trkpt><trkpt lat="43.9346104" lon="12.7214631"><ele>24.0</ele><time>2026-05-02T04:39:48.813Z</time></trkpt><trkpt lat="43.9345196" lon="12.7212953"><ele>24.0</ele><time>2026-05-02T04:39:49.822Z</time></trkpt><trkpt lat="43.9344263" lon="12.7211222"><ele>24.0</ele><time>2026-05-02T04:39:50.828Z</time></trkpt><trkpt lat="43.9343266" lon="12.7209478"><ele>24.333333333333336</ele><time>2026-05-02T04:39:51.822Z</time></trkpt><trkpt lat="43.934223" lon="12.7207773"><ele>24.666666666666668</ele><time>2026-05-02T04:39:52.814Z</time></trkpt><trkpt lat="43.9341168" lon="12.7206146"><ele>25.0</ele><time>2026-05-02T04:39:53.811Z</time></trkpt><trkpt lat="43.9340085" lon="12.720456"><ele>25.0</ele><time>2026-05-02T04:39:54.819Z</time></trkpt><trkpt lat="43.9339044" lon="12.7203003"><ele>25.0</ele><time>2026-05-02T04:39:55.815Z</time></trkpt><trkpt lat="43.9337966" lon="12.7201458"><ele>25.0</ele><time>2026-05-02T04:39:56.815Z</time></trkpt><trkpt lat="43.933699" lon="12.7199946"><ele>25.4</ele><time>2026-05-02T04:39:57.808Z</time></trkpt><trkpt lat="43.9336133" lon="12.7198555"><ele>25.8</ele><time>2026-05-02T04:39:58.801Z</time></trkpt><trkpt lat="43.9335422" lon="12.7197313"><ele>26.200000000000003</ele><time>2026-05-02T04:39:59.819Z</time></trkpt><trkpt lat="43.9334918" lon="12.7196191"><ele>26.6</ele><time>2026-05-02T04:40:00.814Z</time></trkpt><trkpt lat="43.9334535" lon="12.7195469"><ele>27.0</ele><time>2026-05-02T04:40:01.827Z</time></trkpt><trkpt lat="43.933385" lon="12.7194788"><ele>27.200000000000003</ele><time>2026-05-02T04:40:03.826Z</time></trkpt><trkpt lat="43.9332713" lon="12.7195552"><ele>27.400000000000002</ele><time>2026-05-02T04:40:05.814Z</time></trkpt><trkpt lat="43.9332019" lon="12.7196392"><ele>27.599999999999998</ele><time>2026-05-02T04:40:06.814Z</time></trkpt><trkpt lat="43.9331288" lon="12.719733"><ele>27.799999999999997</ele><time>2026-05-02T04:40:07.829Z</time></trkpt><trkpt lat="43.9330451" lon="12.71982"><ele>28.0</ele><time>2026-05-02T04:40:08.824Z</time></trkpt><trkpt lat="43.932953" lon="12.7199013"><ele>28.0</ele><time>2026-05-02T04:40:09.822Z</time></trkpt><trkpt lat="43.9328611" lon="12.7199813"><ele>28.0</ele><time>2026-05-02T04:40:10.817Z</time></trkpt><trkpt lat="43.9327515" lon="12.7200467"><ele>28.0</ele><time>2026-05-02T04:40:11.827Z</time></trkpt><trkpt lat="43.9326412" lon="12.7201166"><ele>28.0</ele><time>2026-05-02T04:40:12.819Z</time></trkpt><trkpt lat="43.9325221" lon="12.7201845"><ele>27.5</ele><time>2026-05-02T04:40:13.816Z</time></trkpt><trkpt lat="43.9323943" lon="12.7202429"><ele>27.0</ele><time>2026-05-02T04:40:14.813Z</time></trkpt><trkpt lat="43.9322611" lon="12.7202943"><ele>26.5</ele><time>2026-05-02T04:40:15.818Z</time></trkpt><trkpt lat="43.9321253" lon="12.7203357"><ele>26.0</ele><time>2026-05-02T04:40:16.806Z</time></trkpt><trkpt lat="43.9319861" lon="12.7203734"><ele>26.0</ele><time>2026-05-02T04:40:17.825Z</time></trkpt><trkpt lat="43.9318395" lon="12.7204095"><ele>26.0</ele><time>2026-05-02T04:40:18.82Z</time></trkpt><trkpt lat="43.9316865" lon="12.7204429"><ele>26.0</ele><time>2026-05-02T04:40:19.823Z</time></trkpt><trkpt lat="43.9315292" lon="12.7204775"><ele>25.666666666666664</ele><time>2026-05-02T04:40:20.81Z</time></trkpt><trkpt lat="43.9313722" lon="12.7205165"><ele>25.333333333333336</ele><time>2026-05-02T04:40:21.816Z</time></trkpt><trkpt lat="43.9312188" lon="12.7205595"><ele>25.0</ele><time>2026-05-02T04:40:22.813Z</time></trkpt><trkpt lat="43.9310706" lon="12.7206053"><ele>25.0</ele><time>2026-05-02T04:40:23.809Z</time></trkpt><trkpt lat="43.9309199" lon="12.7206541"><ele>25.0</ele><time>2026-05-02T04:40:24.809Z</time></trkpt><trkpt lat="43.9307672" lon="12.7207014"><ele>25.0</ele><time>2026-05-02T04:40:25.819Z</time></trkpt><trkpt lat="43.9306095" lon="12.720743"><ele>26.0</ele><time>2026-05-02T04:40:26.814Z</time></trkpt><trkpt lat="43.9304497" lon="12.7207886"><ele>27.0</ele><time>2026-05-02T04:40:27.813Z</time></trkpt><trkpt lat="43.9302905" lon="12.7208269"><ele>28.0</ele><time>2026-05-02T04:40:28.812Z</time></trkpt><trkpt lat="43.9301314" lon="12.7208591"><ele>28.333333333333336</ele><time>2026-05-02T04:40:29.813Z</time></trkpt><trkpt lat="43.929974" lon="12.7208913"><ele>28.666666666666664</ele><time>2026-05-02T04:40:30.812Z</time></trkpt><trkpt lat="43.9298141" lon="12.7209209"><ele>29.0</ele><time>2026-05-02T04:40:31.821Z</time></trkpt><trkpt lat="43.9296543" lon="12.7209524"><ele>29.0</ele><time>2026-05-02T04:40:32.813Z</time></trkpt><trkpt lat="43.9294981" lon="12.7209798"><ele>29.0</ele><time>2026-05-02T04:40:33.817Z</time></trkpt><trkpt lat="43.9293369" lon="12.721005"><ele>29.0</ele><time>2026-05-02T04:40:34.825Z</time></trkpt><trkpt lat="43.9291796" lon="12.7210404"><ele>29.666666666666664</ele><time>2026-05-02T04:40:35.827Z</time></trkpt><trkpt lat="43.9290193" lon="12.7210774"><ele>30.333333333333336</ele><time>2026-05-02T04:40:36.831Z</time></trkpt><trkpt lat="43.9288566" lon="12.7211203"><ele>31.0</ele><time>2026-05-02T04:40:37.81Z</time></trkpt><trkpt lat="43.9286919" lon="12.7211667"><ele>31.0</ele><time>2026-05-02T04:40:38.812Z</time></trkpt><trkpt lat="43.9285312" lon="12.7212108"><ele>31.0</ele><time>2026-05-02T04:40:39.818Z</time></trkpt><trkpt lat="43.928372" lon="12.7212559"><ele>31.0</ele><time>2026-05-02T04:40:40.812Z</time></trkpt><trkpt lat="43.9282314" lon="12.7213152"><ele>30.75</ele><time>2026-05-02T04:40:41.809Z</time></trkpt><trkpt lat="43.9281058" lon="12.721372"><ele>30.5</ele><time>2026-05-02T04:40:42.81Z</time></trkpt><trkpt lat="43.9279918" lon="12.7214242"><ele>30.25</ele><time>2026-05-02T04:40:43.817Z</time></trkpt><trkpt lat="43.9278965" lon="12.721483"><ele>30.0</ele><time>2026-05-02T04:40:44.82Z</time></trkpt><trkpt lat="43.927797" lon="12.7215361"><ele>30.0</ele><time>2026-05-02T04:40:45.807Z</time></trkpt><trkpt lat="43.9277043" lon="12.7215894"><ele>30.0</ele><time>2026-05-02T04:40:46.816Z</time></trkpt><trkpt lat="43.9276186" lon="12.7216302"><ele>30.0</ele><time>2026-05-02T04:40:47.829Z</time></trkpt><trkpt lat="43.9275358" lon="12.7216635"><ele>30.0</ele><time>2026-05-02T04:40:48.819Z</time></trkpt><trkpt lat="43.9274585" lon="12.721703"><ele>30.0</ele><time>2026-05-02T04:40:49.823Z</time></trkpt><trkpt lat="43.9273852" lon="12.721745"><ele>30.0</ele><time>2026-05-02T04:40:50.814Z</time></trkpt><trkpt lat="43.9273109" lon="12.7217859"><ele>29.833333333333332</ele><time>2026-05-02T04:40:51.826Z</time></trkpt><trkpt lat="43.9271969" lon="12.7217473"><ele>29.666666666666664</ele><time>2026-05-02T04:40:53.819Z</time></trkpt><trkpt lat="43.9271585" lon="12.7216775"><ele>29.5</ele><time>2026-05-02T04:40:54.811Z</time></trkpt><trkpt lat="43.9271224" lon="12.7215869"><ele>29.333333333333332</ele><time>2026-05-02T04:40:55.81Z</time></trkpt><trkpt lat="43.9270817" lon="12.7214825"><ele>29.166666666666664</ele><time>2026-05-02T04:40:56.82Z</time></trkpt><trkpt lat="43.9270319" lon="12.7213756"><ele>29.0</ele><time>2026-05-02T04:40:57.833Z</time></trkpt><trkpt lat="43.9269796" lon="12.7212688"><ele>29.0</ele><time>2026-05-02T04:40:58.818Z</time></trkpt><trkpt lat="43.9269028" lon="12.7211647"><ele>29.0</ele><time>2026-05-02T04:40:59.813Z</time></trkpt><trkpt lat="43.9268301" lon="12.7210531"><ele>29.0</ele><time>2026-05-02T04:41:00.811Z</time></trkpt><trkpt lat="43.9267477" lon="12.7209353"><ele>29.0</ele><time>2026-05-02T04:41:01.82Z</time></trkpt><trkpt lat="43.9266589" lon="12.7208135"><ele>29.25</ele><time>2026-05-02T04:41:02.809Z</time></trkpt><trkpt lat="43.9265631" lon="12.7207015"><ele>29.5</ele><time>2026-05-02T04:41:03.822Z</time></trkpt><trkpt lat="43.9264565" lon="12.7205936"><ele>29.75</ele><time>2026-05-02T04:41:04.812Z</time></trkpt><trkpt lat="43.9263405" lon="12.7205018"><ele>30.0</ele><time>2026-05-02T04:41:05.825Z</time></trkpt><trkpt lat="43.926221" lon="12.7204169"><ele>30.0</ele><time>2026-05-02T04:41:06.815Z</time></trkpt><trkpt lat="43.926101" lon="12.7203269"><ele>30.0</ele><time>2026-05-02T04:41:07.828Z</time></trkpt><trkpt lat="43.9259819" lon="12.7202241"><ele>30.0</ele><time>2026-05-02T04:41:08.816Z</time></trkpt><trkpt lat="43.9258721" lon="12.7201139"><ele>30.0</ele><time>2026-05-02T04:41:09.816Z</time></trkpt><trkpt lat="43.9257667" lon="12.7200013"><ele>30.2</ele><time>2026-05-02T04:41:10.82Z</time></trkpt><trkpt lat="43.9256709" lon="12.7198932"><ele>30.4</ele><time>2026-05-02T04:41:11.804Z</time></trkpt><trkpt lat="43.9255915" lon="12.719778"><ele>30.6</ele><time>2026-05-02T04:41:12.791Z</time></trkpt><trkpt lat="43.9255175" lon="12.7196786"><ele>30.8</ele><time>2026-05-02T04:41:13.817Z</time></trkpt><trkpt lat="43.9254465" lon="12.7195864"><ele>31.0</ele><time>2026-05-02T04:41:14.817Z</time></trkpt><trkpt lat="43.9253727" lon="12.7194907"><ele>31.75</ele><time>2026-05-02T04:41:15.812Z</time></trkpt><trkpt lat="43.9252955" lon="12.7193765"><ele>32.5</ele><time>2026-05-02T04:41:16.793Z</time></trkpt><trkpt lat="43.9252124" lon="12.7192444"><ele>33.25</ele><time>2026-05-02T04:41:17.806Z</time></trkpt><trkpt lat="43.9251332" lon="12.7191126"><ele>34.0</ele><time>2026-05-02T04:41:18.804Z</time></trkpt><trkpt lat="43.9250691" lon="12.7189745"><ele>34.4</ele><time>2026-05-02T04:41:19.815Z</time></trkpt><trkpt lat="43.9250269" lon="12.7188439"><ele>34.8</ele><time>2026-05-02T04:41:20.821Z</time></trkpt><trkpt lat="43.9250253" lon="12.7187194"><ele>35.2</ele><time>2026-05-02T04:41:21.82Z</time></trkpt><trkpt lat="43.9250569" lon="12.7185944"><ele>35.6</ele><time>2026-05-02T04:41:22.812Z</time></trkpt><trkpt lat="43.9251134" lon="12.7184685"><ele>36.0</ele><time>2026-05-02T04:41:23.815Z</time></trkpt><trkpt lat="43.925194" lon="12.7183445"><ele>38.0</ele><time>2026-05-02T04:41:24.804Z</time></trkpt><trkpt lat="43.9252818" lon="12.7182187"><ele>40.0</ele><time>2026-05-02T04:41:25.805Z</time></trkpt><trkpt lat="43.9253664" lon="12.7180903"><ele>42.0</ele><time>2026-05-02T04:41:26.803Z</time></trkpt><trkpt lat="43.9254523" lon="12.7179594"><ele>44.0</ele><time>2026-05-02T04:41:27.815Z</time></trkpt><trkpt lat="43.9255321" lon="12.717837"><ele>45.6</ele><time>2026-05-02T04:41:28.809Z</time></trkpt><trkpt lat="43.9256034" lon="12.7177323"><ele>47.2</ele><time>2026-05-02T04:41:29.803Z</time></trkpt><trkpt lat="43.925671" lon="12.7176641"><ele>48.800000000000004</ele><time>2026-05-02T04:41:30.806Z</time></trkpt><trkpt lat="43.9257667" lon="12.7175997"><ele>50.400000000000006</ele><time>2026-05-02T04:41:32.803Z</time></trkpt><trkpt lat="43.9258648" lon="12.7175676"><ele>52.0</ele><time>2026-05-02T04:41:34.814Z</time></trkpt><trkpt lat="43.9259754" lon="12.7174876"><ele>52.0</ele><time>2026-05-02T04:41:36.806Z</time></trkpt><trkpt lat="43.9260348" lon="12.7174276"><ele>52.0</ele><time>2026-05-02T04:41:37.814Z</time></trkpt><trkpt lat="43.9260925" lon="12.7173366"><ele>52.0</ele><time>2026-05-02T04:41:38.802Z</time></trkpt><trkpt lat="43.9261325" lon="12.7172195"><ele>52.0</ele><time>2026-05-02T04:41:39.822Z</time></trkpt><trkpt lat="43.9261631" lon="12.7170895"><ele>52.0</ele><time>2026-05-02T04:41:40.803Z</time></trkpt><trkpt lat="43.9261868" lon="12.7169529"><ele>53.2</ele><time>2026-05-02T04:41:41.824Z</time></trkpt><trkpt lat="43.9262117" lon="12.7168198"><ele>54.400000000000006</ele><time>2026-05-02T04:41:42.818Z</time></trkpt><trkpt lat="43.9262445" lon="12.7166826"><ele>55.599999999999994</ele><time>2026-05-02T04:41:43.815Z</time></trkpt><trkpt lat="43.9262754" lon="12.7165445"><ele>56.8</ele><time>2026-05-02T04:41:44.808Z</time></trkpt><trkpt lat="43.9263119" lon="12.7164079"><ele>58.0</ele><time>2026-05-02T04:41:45.826Z</time></trkpt><trkpt lat="43.9263445" lon="12.7162928"><ele>58.0</ele><time>2026-05-02T04:41:46.813Z</time></trkpt><trkpt lat="43.9263751" lon="12.7161931"><ele>58.0</ele><time>2026-05-02T04:41:47.818Z</time></trkpt><trkpt lat="43.9264197" lon="12.7160995"><ele>58.0</ele><time>2026-05-02T04:41:48.806Z</time></trkpt><trkpt lat="43.9264763" lon="12.7159861"><ele>58.0</ele><time>2026-05-02T04:41:49.828Z</time></trkpt><trkpt lat="43.9265409" lon="12.7158615"><ele>58.0</ele><time>2026-05-02T04:41:50.812Z</time></trkpt><trkpt lat="43.9266113" lon="12.7157341"><ele>58.5</ele><time>2026-05-02T04:41:51.825Z</time></trkpt><trkpt lat="43.9266758" lon="12.7156098"><ele>59.0</ele><time>2026-05-02T04:41:52.816Z</time></trkpt><trkpt lat="43.9267452" lon="12.7154872"><ele>59.5</ele><time>2026-05-02T04:41:53.813Z</time></trkpt><trkpt lat="43.9268132" lon="12.7153627"><ele>60.0</ele><time>2026-05-02T04:41:54.811Z</time></trkpt><trkpt lat="43.9268869" lon="12.7152407"><ele>59.6</ele><time>2026-05-02T04:41:55.842Z</time></trkpt><trkpt lat="43.9269668" lon="12.7151188"><ele>59.2</ele><time>2026-05-02T04:41:56.809Z</time></trkpt><trkpt lat="43.9270316" lon="12.7150081"><ele>58.8</ele><time>2026-05-02T04:41:57.825Z</time></trkpt><trkpt lat="43.9270701" lon="12.7148977"><ele>58.4</ele><time>2026-05-02T04:41:58.815Z</time></trkpt><trkpt lat="43.9270869" lon="12.7147679"><ele>58.0</ele><time>2026-05-02T04:41:59.832Z</time></trkpt><trkpt lat="43.9270987" lon="12.714628"><ele>58.0</ele><time>2026-05-02T04:42:00.806Z</time></trkpt><trkpt lat="43.9271292" lon="12.7144803"><ele>58.0</ele><time>2026-05-02T04:42:01.83Z</time></trkpt><trkpt lat="43.9271703" lon="12.7143313"><ele>58.0</ele><time>2026-05-02T04:42:02.805Z</time></trkpt><trkpt lat="43.9272194" lon="12.7141921"><ele>58.0</ele><time>2026-05-02T04:42:03.84Z</time></trkpt><trkpt lat="43.9272778" lon="12.7140739"><ele>58.0</ele><time>2026-05-02T04:42:04.81Z</time></trkpt><trkpt lat="43.9273542" lon="12.7139667"><ele>58.75</ele><time>2026-05-02T04:42:05.823Z</time></trkpt><trkpt lat="43.9274383" lon="12.7138622"><ele>59.5</ele><time>2026-05-02T04:42:06.808Z</time></trkpt><trkpt lat="43.927537" lon="12.7137623"><ele>60.25</ele><time>2026-05-02T04:42:07.803Z</time></trkpt><trkpt lat="43.9276415" lon="12.7136682"><ele>61.0</ele><time>2026-05-02T04:42:08.816Z</time></trkpt><trkpt lat="43.9277473" lon="12.7135819"><ele>63.5</ele><time>2026-05-02T04:42:09.816Z</time></trkpt><trkpt lat="43.9278579" lon="12.713493"><ele>66.0</ele><time>2026-05-02T04:42:10.812Z</time></trkpt><trkpt lat="43.9279718" lon="12.7134033"><ele>68.5</ele><time>2026-05-02T04:42:11.809Z</time></trkpt><trkpt lat="43.928097" lon="12.7133137"><ele>71.0</ele><time>2026-05-02T04:42:12.801Z</time></trkpt><trkpt lat="43.9282189" lon="12.7132123"><ele>71.0</ele><time>2026-05-02T04:42:13.817Z</time></trkpt><trkpt lat="43.9283303" lon="12.713101"><ele>71.0</ele><time>2026-05-02T04:42:14.828Z</time></trkpt><trkpt lat="43.9284377" lon="12.7129858"><ele>71.0</ele><time>2026-05-02T04:42:15.815Z</time></trkpt><trkpt lat="43.9285369" lon="12.7128792"><ele>71.0</ele><time>2026-05-02T04:42:16.817Z</time></trkpt><trkpt lat="43.9286173" lon="12.7127799"><ele>72.0</ele><time>2026-05-02T04:42:17.817Z</time></trkpt><trkpt lat="43.9286926" lon="12.712685"><ele>73.0</ele><time>2026-05-02T04:42:18.803Z</time></trkpt><trkpt lat="43.9287667" lon="12.7125979"><ele>74.0</ele><time>2026-05-02T04:42:19.831Z</time></trkpt><trkpt lat="43.9288454" lon="12.7125053"><ele>75.0</ele><time>2026-05-02T04:42:20.818Z</time></trkpt><trkpt lat="43.928924" lon="12.7124036"><ele>76.0</ele><time>2026-05-02T04:42:21.812Z</time></trkpt><trkpt lat="43.9290073" lon="12.7123015"><ele>76.0</ele><time>2026-05-02T04:42:22.815Z</time></trkpt><trkpt lat="43.9290928" lon="12.7121884"><ele>76.0</ele><time>2026-05-02T04:42:23.817Z</time></trkpt><trkpt lat="43.929184" lon="12.7120828"><ele>76.0</ele><time>2026-05-02T04:42:24.807Z</time></trkpt><trkpt lat="43.9292698" lon="12.71197"><ele>76.0</ele><time>2026-05-02T04:42:25.815Z</time></trkpt><trkpt lat="43.9293692" lon="12.7118622"><ele>76.75</ele><time>2026-05-02T04:42:26.812Z</time></trkpt><trkpt lat="43.9294692" lon="12.7117488"><ele>77.5</ele><time>2026-05-02T04:42:27.808Z</time></trkpt><trkpt lat="43.9295699" lon="12.7116364"><ele>78.25</ele><time>2026-05-02T04:42:28.804Z</time></trkpt><trkpt lat="43.9296652" lon="12.711517"><ele>79.0</ele><time>2026-05-02T04:42:29.817Z</time></trkpt><trkpt lat="43.9297559" lon="12.7113994"><ele>79.0</ele><time>2026-05-02T04:42:30.798Z</time></trkpt><trkpt lat="43.9298505" lon="12.7112829"><ele>79.0</ele><time>2026-05-02T04:42:31.814Z</time></trkpt><trkpt lat="43.9299476" lon="12.711164"><ele>79.0</ele><time>2026-05-02T04:42:32.803Z</time></trkpt><trkpt lat="43.9300486" lon="12.7110415"><ele>79.0</ele><time>2026-05-02T04:42:33.816Z</time></trkpt><trkpt lat="43.9301521" lon="12.710915"><ele>79.5</ele><time>2026-05-02T04:42:34.815Z</time></trkpt><trkpt lat="43.9302542" lon="12.7107817"><ele>80.0</ele><time>2026-05-02T04:42:35.823Z</time></trkpt><trkpt lat="43.9303502" lon="12.7106471"><ele>80.5</ele><time>2026-05-02T04:42:36.808Z</time></trkpt><trkpt lat="43.9304459" lon="12.7105137"><ele>81.0</ele><time>2026-05-02T04:42:37.808Z</time></trkpt><trkpt lat="43.93054" lon="12.7103793"><ele>81.0</ele><time>2026-05-02T04:42:38.808Z</time></trkpt><trkpt lat="43.9306317" lon="12.7102463"><ele>81.0</ele><time>2026-05-02T04:42:39.816Z</time></trkpt><trkpt lat="43.9307288" lon="12.7101181"><ele>81.0</ele><time>2026-05-02T04:42:40.8Z</time></trkpt><trkpt lat="43.9308248" lon="12.709987"><ele>81.0</ele><time>2026-05-02T04:42:41.822Z</time></trkpt><trkpt lat="43.9309246" lon="12.7098567"><ele>81.0</ele><time>2026-05-02T04:42:42.801Z</time></trkpt><trkpt lat="43.9310236" lon="12.7097312"><ele>81.0</ele><time>2026-05-02T04:42:43.808Z</time></trkpt><trkpt lat="43.931128" lon="12.7096194"><ele>81.0</ele><time>2026-05-02T04:42:44.818Z</time></trkpt><trkpt lat="43.9312229" lon="12.7095131"><ele>81.0</ele><time>2026-05-02T04:42:45.816Z</time></trkpt><trkpt lat="43.9313185" lon="12.7094042"><ele>82.5</ele><time>2026-05-02T04:42:46.814Z</time></trkpt><trkpt lat="43.9314155" lon="12.709296"><ele>84.0</ele><time>2026-05-02T04:42:47.812Z</time></trkpt><trkpt lat="43.9315116" lon="12.7091986"><ele>85.5</ele><time>2026-05-02T04:42:48.808Z</time></trkpt><trkpt lat="43.9316033" lon="12.7091063"><ele>87.0</ele><time>2026-05-02T04:42:49.806Z</time></trkpt><trkpt lat="43.931696" lon="12.7090229"><ele>85.0</ele><time>2026-05-02T04:42:50.808Z</time></trkpt><trkpt lat="43.9317948" lon="12.7089329"><ele>83.0</ele><time>2026-05-02T04:42:51.821Z</time></trkpt><trkpt lat="43.9318957" lon="12.7088436"><ele>81.0</ele><time>2026-05-02T04:42:52.814Z</time></trkpt><trkpt lat="43.9319833" lon="12.7087564"><ele>79.0</ele><time>2026-05-02T04:42:53.798Z</time></trkpt><trkpt lat="43.9320588" lon="12.7086811"><ele>77.0</ele><time>2026-05-02T04:42:54.806Z</time></trkpt><trkpt lat="43.9321087" lon="12.7086257"><ele>77.33333333333334</ele><time>2026-05-02T04:42:55.809Z</time></trkpt><trkpt lat="43.9321715" lon="12.7085472"><ele>77.66666666666667</ele><time>2026-05-02T04:42:57.817Z</time></trkpt><trkpt lat="43.932191" lon="12.7084637"><ele>78.0</ele><time>2026-05-02T04:43:00.809Z</time></trkpt><trkpt lat="43.9321089" lon="12.7083555"><ele>78.33333333333333</ele><time>2026-05-02T04:43:02.807Z</time></trkpt><trkpt lat="43.9320316" lon="12.7082845"><ele>78.66666666666666</ele><time>2026-05-02T04:43:03.817Z</time></trkpt><trkpt lat="43.9319616" lon="12.7081989"><ele>79.0</ele><time>2026-05-02T04:43:04.809Z</time></trkpt><trkpt lat="43.9318925" lon="12.70811"><ele>79.0</ele><time>2026-05-02T04:43:05.821Z</time></trkpt><trkpt lat="43.931827" lon="12.7080245"><ele>79.0</ele><time>2026-05-02T04:43:06.816Z</time></trkpt><trkpt lat="43.9317612" lon="12.7079426"><ele>79.0</ele><time>2026-05-02T04:43:07.837Z</time></trkpt><trkpt lat="43.9316809" lon="12.7078647"><ele>79.0</ele><time>2026-05-02T04:43:08.807Z</time></trkpt><trkpt lat="43.9315922" lon="12.707799"><ele>79.0</ele><time>2026-05-02T04:43:09.821Z</time></trkpt><trkpt lat="43.9314993" lon="12.7077357"><ele>80.0</ele><time>2026-05-02T04:43:10.805Z</time></trkpt><trkpt lat="43.9313973" lon="12.7076737"><ele>81.0</ele><time>2026-05-02T04:43:11.814Z</time></trkpt><trkpt lat="43.9312931" lon="12.7076094"><ele>82.0</ele><time>2026-05-02T04:43:12.8Z</time></trkpt><trkpt lat="43.9311936" lon="12.7075427"><ele>83.0</ele><time>2026-05-02T04:43:13.813Z</time></trkpt><trkpt lat="43.9310976" lon="12.7074592"><ele>84.0</ele><time>2026-05-02T04:43:14.818Z</time></trkpt><trkpt lat="43.9310101" lon="12.7073447"><ele>84.0</ele><time>2026-05-02T04:43:15.809Z</time></trkpt><trkpt lat="43.9309241" lon="12.7072112"><ele>84.0</ele><time>2026-05-02T04:43:16.81Z</time></trkpt><trkpt lat="43.930841" lon="12.7070866"><ele>84.0</ele><time>2026-05-02T04:43:17.842Z</time></trkpt><trkpt lat="43.9307558" lon="12.7069885"><ele>84.0</ele><time>2026-05-02T04:43:18.815Z</time></trkpt><trkpt lat="43.9306554" lon="12.7069189"><ele>85.5</ele><time>2026-05-02T04:43:19.807Z</time></trkpt><trkpt lat="43.9305568" lon="12.7068613"><ele>87.0</ele><time>2026-05-02T04:43:20.813Z</time></trkpt><trkpt lat="43.9304474" lon="12.706806"><ele>88.5</ele><time>2026-05-02T04:43:21.82Z</time></trkpt><trkpt lat="43.9303405" lon="12.7067402"><ele>90.0</ele><time>2026-05-02T04:43:22.809Z</time></trkpt><trkpt lat="43.9302352" lon="12.7066537"><ele>90.0</ele><time>2026-05-02T04:43:23.821Z</time></trkpt><trkpt lat="43.9301393" lon="12.706544"><ele>90.0</ele><time>2026-05-02T04:43:24.815Z</time></trkpt><trkpt lat="43.9300491" lon="12.7064196"><ele>90.0</ele><time>2026-05-02T04:43:25.818Z</time></trkpt><trkpt lat="43.9299588" lon="12.7062934"><ele>90.0</ele><time>2026-05-02T04:43:26.807Z</time></trkpt><trkpt lat="43.9298727" lon="12.7061577"><ele>92.25</ele><time>2026-05-02T04:43:27.829Z</time></trkpt><trkpt lat="43.9297846" lon="12.7060357"><ele>94.5</ele><time>2026-05-02T04:43:28.813Z</time></trkpt><trkpt lat="43.9296985" lon="12.7059077"><ele>96.75</ele><time>2026-05-02T04:43:29.821Z</time></trkpt><trkpt lat="43.9296168" lon="12.7057889"><ele>99.0</ele><time>2026-05-02T04:43:30.808Z</time></trkpt><trkpt lat="43.9295443" lon="12.7056643"><ele>99.0</ele><time>2026-05-02T04:43:31.828Z</time></trkpt><trkpt lat="43.9294737" lon="12.7055378"><ele>99.0</ele><time>2026-05-02T04:43:32.822Z</time></trkpt><trkpt lat="43.9294077" lon="12.7053941"><ele>99.0</ele><time>2026-05-02T04:43:33.822Z</time></trkpt><trkpt lat="43.9293422" lon="12.7052443"><ele>99.0</ele><time>2026-05-02T04:43:34.824Z</time></trkpt><trkpt lat="43.9292853" lon="12.7050864"><ele>98.75</ele><time>2026-05-02T04:43:35.828Z</time></trkpt><trkpt lat="43.9292377" lon="12.7049275"><ele>98.5</ele><time>2026-05-02T04:43:36.81Z</time></trkpt><trkpt lat="43.9291824" lon="12.7047814"><ele>98.25</ele><time>2026-05-02T04:43:37.817Z</time></trkpt><trkpt lat="43.9291178" lon="12.7046498"><ele>98.0</ele><time>2026-05-02T04:43:38.814Z</time></trkpt><trkpt lat="43.9290384" lon="12.7045319"><ele>98.0</ele><time>2026-05-02T04:43:39.837Z</time></trkpt><trkpt lat="43.9289421" lon="12.7044346"><ele>98.0</ele><time>2026-05-02T04:43:40.813Z</time></trkpt><trkpt lat="43.9288423" lon="12.7043311"><ele>98.0</ele><time>2026-05-02T04:43:41.822Z</time></trkpt><trkpt lat="43.9287367" lon="12.7042334"><ele>98.0</ele><time>2026-05-02T04:43:42.829Z</time></trkpt><trkpt lat="43.9286227" lon="12.7041398"><ele>97.75</ele><time>2026-05-02T04:43:43.843Z</time></trkpt><trkpt lat="43.9285076" lon="12.7040467"><ele>97.5</ele><time>2026-05-02T04:43:44.81Z</time></trkpt><trkpt lat="43.9283951" lon="12.7039462"><ele>97.25</ele><time>2026-05-02T04:43:45.847Z</time></trkpt><trkpt lat="43.9282977" lon="12.7038567"><ele>97.0</ele><time>2026-05-02T04:43:46.828Z</time></trkpt><trkpt lat="43.9282071" lon="12.7037615"><ele>97.0</ele><time>2026-05-02T04:43:47.838Z</time></trkpt><trkpt lat="43.9281118" lon="12.7036518"><ele>97.0</ele><time>2026-05-02T04:43:48.82Z</time></trkpt><trkpt lat="43.9280176" lon="12.7035354"><ele>97.0</ele><time>2026-05-02T04:43:49.843Z</time></trkpt><trkpt lat="43.9279258" lon="12.703413"><ele>97.0</ele><time>2026-05-02T04:43:50.811Z</time></trkpt><trkpt lat="43.9278355" lon="12.7032849"><ele>96.75</ele><time>2026-05-02T04:43:51.831Z</time></trkpt><trkpt lat="43.9277446" lon="12.7031553"><ele>96.5</ele><time>2026-05-02T04:43:52.816Z</time></trkpt><trkpt lat="43.9276556" lon="12.703031"><ele>96.25</ele><time>2026-05-02T04:43:53.832Z</time></trkpt><trkpt lat="43.927566" lon="12.7029142"><ele>96.0</ele><time>2026-05-02T04:43:54.817Z</time></trkpt><trkpt lat="43.9274768" lon="12.7028049"><ele>97.5</ele><time>2026-05-02T04:43:55.836Z</time></trkpt><trkpt lat="43.9273889" lon="12.7027039"><ele>99.0</ele><time>2026-05-02T04:43:56.821Z</time></trkpt><trkpt lat="43.9272953" lon="12.7026091"><ele>100.5</ele><time>2026-05-02T04:43:57.838Z</time></trkpt><trkpt lat="43.9272002" lon="12.7025217"><ele>102.0</ele><time>2026-05-02T04:43:58.805Z</time></trkpt><trkpt lat="43.9271047" lon="12.7024339"><ele>102.0</ele><time>2026-05-02T04:43:59.83Z</time></trkpt><trkpt lat="43.9270022" lon="12.7023418"><ele>102.0</ele><time>2026-05-02T04:44:00.812Z</time></trkpt><trkpt lat="43.9268862" lon="12.7022328"><ele>102.0</ele><time>2026-05-02T04:44:01.829Z</time></trkpt><trkpt lat="43.9267619" lon="12.7020996"><ele>102.0</ele><time>2026-05-02T04:44:02.807Z</time></trkpt><trkpt lat="43.926627" lon="12.70195"><ele>104.0</ele><time>2026-05-02T04:44:03.811Z</time></trkpt><trkpt lat="43.9264894" lon="12.7017927"><ele>106.0</ele><time>2026-05-02T04:44:04.809Z</time></trkpt><trkpt lat="43.9263592" lon="12.7016393"><ele>108.0</ele><time>2026-05-02T04:44:05.812Z</time></trkpt><trkpt lat="43.9262464" lon="12.7015032"><ele>108.0</ele><time>2026-05-02T04:44:06.815Z</time></trkpt><trkpt lat="43.926157" lon="12.7013487"><ele>108.0</ele><time>2026-05-02T04:44:07.829Z</time></trkpt><trkpt lat="43.9260863" lon="12.7011701"><ele>108.0</ele><time>2026-05-02T04:44:08.822Z</time></trkpt><trkpt lat="43.9260239" lon="12.7009705"><ele>108.0</ele><time>2026-05-02T04:44:09.827Z</time></trkpt><trkpt lat="43.9259648" lon="12.7007771"><ele>108.0</ele><time>2026-05-02T04:44:10.81Z</time></trkpt><trkpt lat="43.925897" lon="12.7005768"><ele>108.0</ele><time>2026-05-02T04:44:11.822Z</time></trkpt><trkpt lat="43.9258314" lon="12.7003849"><ele>108.0</ele><time>2026-05-02T04:44:12.821Z</time></trkpt><trkpt lat="43.9257695" lon="12.700207"><ele>108.0</ele><time>2026-05-02T04:44:13.836Z</time></trkpt><trkpt lat="43.9257002" lon="12.7000395"><ele>108.0</ele><time>2026-05-02T04:44:14.827Z</time></trkpt><trkpt lat="43.9256216" lon="12.6998664"><ele>108.0</ele><time>2026-05-02T04:44:15.819Z</time></trkpt><trkpt lat="43.9255351" lon="12.6996938"><ele>108.0</ele><time>2026-05-02T04:44:16.813Z</time></trkpt><trkpt lat="43.925444" lon="12.6995208"><ele>106.5</ele><time>2026-05-02T04:44:17.828Z</time></trkpt><trkpt lat="43.9253612" lon="12.6993519"><ele>105.0</ele><time>2026-05-02T04:44:18.82Z</time></trkpt><trkpt lat="43.9252817" lon="12.6991722"><ele>103.5</ele><time>2026-05-02T04:44:19.824Z</time></trkpt><trkpt lat="43.9252116" lon="12.6989902"><ele>102.0</ele><time>2026-05-02T04:44:20.812Z</time></trkpt><trkpt lat="43.9251495" lon="12.6987949"><ele>102.0</ele><time>2026-05-02T04:44:21.821Z</time></trkpt><trkpt lat="43.9250952" lon="12.6986033"><ele>102.0</ele><time>2026-05-02T04:44:22.824Z</time></trkpt><trkpt lat="43.9250456" lon="12.6984133"><ele>102.0</ele><time>2026-05-02T04:44:23.827Z</time></trkpt><trkpt lat="43.9249949" lon="12.6982242"><ele>102.0</ele><time>2026-05-02T04:44:24.808Z</time></trkpt><trkpt lat="43.9249407" lon="12.6980371"><ele>103.75</ele><time>2026-05-02T04:44:25.817Z</time></trkpt><trkpt lat="43.9248891" lon="12.6978527"><ele>105.5</ele><time>2026-05-02T04:44:26.816Z</time></trkpt><trkpt lat="43.9248306" lon="12.6976716"><ele>107.25</ele><time>2026-05-02T04:44:27.819Z</time></trkpt><trkpt lat="43.9247669" lon="12.697494"><ele>109.0</ele><time>2026-05-02T04:44:28.82Z</time></trkpt><trkpt lat="43.9246976" lon="12.6973169"><ele>109.0</ele><time>2026-05-02T04:44:29.824Z</time></trkpt><trkpt lat="43.9246093" lon="12.6971377"><ele>109.0</ele><time>2026-05-02T04:44:30.818Z</time></trkpt><trkpt lat="43.9245008" lon="12.6969669"><ele>109.0</ele><time>2026-05-02T04:44:31.804Z</time></trkpt><trkpt lat="43.9243756" lon="12.696811"><ele>109.0</ele><time>2026-05-02T04:44:32.811Z</time></trkpt><trkpt lat="43.9242435" lon="12.6966738"><ele>109.0</ele><time>2026-05-02T04:44:33.817Z</time></trkpt><trkpt lat="43.9240955" lon="12.6965516"><ele>109.0</ele><time>2026-05-02T04:44:34.816Z</time></trkpt><trkpt lat="43.923949" lon="12.6964499"><ele>109.0</ele><time>2026-05-02T04:44:35.832Z</time></trkpt><trkpt lat="43.9238111" lon="12.6963628"><ele>109.0</ele><time>2026-05-02T04:44:36.811Z</time></trkpt><trkpt lat="43.92369" lon="12.6962809"><ele>109.0</ele><time>2026-05-02T04:44:37.815Z</time></trkpt><trkpt lat="43.9235772" lon="12.6962013"><ele>109.0</ele><time>2026-05-02T04:44:38.81Z</time></trkpt><trkpt lat="43.9234539" lon="12.6961159"><ele>109.0</ele><time>2026-05-02T04:44:39.805Z</time></trkpt><trkpt lat="43.923327" lon="12.6960327"><ele>109.0</ele><time>2026-05-02T04:44:40.811Z</time></trkpt><trkpt lat="43.9232006" lon="12.6959479"><ele>109.0</ele><time>2026-05-02T04:44:41.819Z</time></trkpt><trkpt lat="43.9230794" lon="12.695866"><ele>109.0</ele><time>2026-05-02T04:44:42.817Z</time></trkpt><trkpt lat="43.9229757" lon="12.6957876"><ele>109.0</ele><time>2026-05-02T04:44:43.815Z</time></trkpt><trkpt lat="43.9228813" lon="12.6957085"><ele>109.0</ele><time>2026-05-02T04:44:44.82Z</time></trkpt><trkpt lat="43.9227935" lon="12.6956246"><ele>109.0</ele><time>2026-05-02T04:44:45.836Z</time></trkpt><trkpt lat="43.9227012" lon="12.6955249"><ele>109.0</ele><time>2026-05-02T04:44:46.817Z</time></trkpt><trkpt lat="43.9226076" lon="12.6954061"><ele>109.5</ele><time>2026-05-02T04:44:47.841Z</time></trkpt><trkpt lat="43.9225169" lon="12.6952668"><ele>110.0</ele><time>2026-05-02T04:44:48.821Z</time></trkpt><trkpt lat="43.922417" lon="12.6951244"><ele>110.5</ele><time>2026-05-02T04:44:49.82Z</time></trkpt><trkpt lat="43.9223005" lon="12.694999"><ele>111.0</ele><time>2026-05-02T04:44:50.811Z</time></trkpt><trkpt lat="43.9221714" lon="12.6948939"><ele>111.0</ele><time>2026-05-02T04:44:51.819Z</time></trkpt><trkpt lat="43.9220428" lon="12.694814"><ele>111.0</ele><time>2026-05-02T04:44:52.814Z</time></trkpt><trkpt lat="43.9250952" lon="12.6986033"><ele>110.75</ele><time>2026-05-02T04:44:22.824Z</time></trkpt><trkpt lat="43.9250456" lon="12.6984133"><ele>110.5</ele><time>2026-05-02T04:44:23.827Z</time></trkpt><trkpt lat="43.9249949" lon="12.6982242"><ele>110.25</ele><time>2026-05-02T04:44:24.808Z</time></trkpt><trkpt lat="43.9249407" lon="12.6980371"><ele>110.0</ele><time>2026-05-02T04:44:25.817Z</time></trkpt><trkpt lat="43.9248891" lon="12.6978527"><ele>109.75</ele><time>2026-05-02T04:44:26.816Z</time></trkpt><trkpt lat="43.9248306" lon="12.6976716"><ele>109.5</ele><time>2026-05-02T04:44:27.819Z</time></trkpt><trkpt lat="43.9247669" lon="12.697494"><ele>109.25</ele><time>2026-05-02T04:44:28.82Z</time></trkpt><trkpt lat="43.9246976" lon="12.6973169"><ele>109.0</ele><time>2026-05-02T04:44:29.824Z</time></trkpt><trkpt lat="43.9246093" lon="12.6971377"><ele>109.0</ele><time>2026-05-02T04:44:30.818Z</time></trkpt><trkpt lat="43.9245008" lon="12.6969669"><ele>109.0</ele><time>2026-05-02T04:44:31.804Z</time></trkpt><trkpt lat="43.9243756" lon="12.696811"><ele>109.0</ele><time>2026-05-02T04:44:32.811Z</time></trkpt><trkpt lat="43.9242435" lon="12.6966738"><ele>109.0</ele><time>2026-05-02T04:44:33.817Z</time></trkpt><trkpt lat="43.9240955" lon="12.6965516"><ele>109.0</ele><time>2026-05-02T04:44:34.816Z</time></trkpt><trkpt lat="43.923949" lon="12.6964499"><ele>109.0</ele><time>2026-05-02T04:44:35.832Z</time></trkpt><trkpt lat="43.9238111" lon="12.6963628"><ele>109.0</ele><time>2026-05-02T04:44:36.811Z</time></trkpt><trkpt lat="43.92369" lon="12.6962809"><ele>109.0</ele><time>2026-05-02T04:44:37.815Z</time></trkpt><trkpt lat="43.9235772" lon="12.6962013"><ele>109.0</ele><time>2026-05-02T04:44:38.81Z</time></trkpt><trkpt lat="43.9234539" lon="12.6961159"><ele>109.0</ele><time>2026-05-02T04:44:39.805Z</time></trkpt><trkpt lat="43.923327" lon="12.6960327"><ele>109.0</ele><time>2026-05-02T04:44:40.811Z</time></trkpt><trkpt lat="43.9232006" lon="12.6959479"><ele>109.0</ele><time>2026-05-02T04:44:41.819Z</time></trkpt><trkpt lat="43.9230794" lon="12.695866"><ele>109.0</ele><time>2026-05-02T04:44:42.817Z</time></trkpt><trkpt lat="43.9229757" lon="12.6957876"><ele>109.0</ele><time>2026-05-02T04:44:43.815Z</time></trkpt><trkpt lat="43.9228813" lon="12.6957085"><ele>109.0</ele><time>2026-05-02T04:44:44.82Z</time></trkpt><trkpt lat="43.9227935" lon="12.6956246"><ele>109.0</ele><time>2026-05-02T04:44:45.836Z</time></trkpt><trkpt lat="43.9227012" lon="12.6955249"><ele>109.0</ele><time>2026-05-02T04:44:46.817Z</time></trkpt><trkpt lat="43.9226076" lon="12.6954061"><ele>109.0</ele><time>2026-05-02T04:44:47.841Z</time></trkpt><trkpt lat="43.9225169" lon="12.6952668"><ele>109.5</ele><time>2026-05-02T04:44:48.821Z</time></trkpt><trkpt lat="43.922417" lon="12.6951244"><ele>110.0</ele><time>2026-05-02T04:44:49.82Z</time></trkpt><trkpt lat="43.9223005" lon="12.694999"><ele>110.5</ele><time>2026-05-02T04:44:50.811Z</time></trkpt><trkpt lat="43.9221714" lon="12.6948939"><ele>111.0</ele><time>2026-05-02T04:44:51.819Z</time></trkpt><trkpt lat="43.9220428" lon="12.694814"><ele>111.0</ele><time>2026-05-02T04:44:52.814Z</time></trkpt><trkpt lat="43.921911" lon="12.6947415"><ele>111.0</ele><time>2026-05-02T04:44:53.813Z</time></trkpt><trkpt lat="43.9217795" lon="12.6946724"><ele>111.0</ele><time>2026-05-02T04:44:54.818Z</time></trkpt><trkpt lat="43.9216502" lon="12.6946032"><ele>111.0</ele><time>2026-05-02T04:44:55.82Z</time></trkpt><trkpt lat="43.9215279" lon="12.6945338"><ele>110.0</ele><time>2026-05-02T04:44:56.812Z</time></trkpt><trkpt lat="43.9214075" lon="12.6944662"><ele>109.0</ele><time>2026-05-02T04:44:57.819Z</time></trkpt><trkpt lat="43.9212953" lon="12.6944022"><ele>108.0</ele><time>2026-05-02T04:44:58.819Z</time></trkpt><trkpt lat="43.9211827" lon="12.6943416"><ele>107.0</ele><time>2026-05-02T04:44:59.814Z</time></trkpt><trkpt lat="43.9210681" lon="12.6942827"><ele>109.25</ele><time>2026-05-02T04:45:00.81Z</time></trkpt><trkpt lat="43.9209492" lon="12.6942277"><ele>111.5</ele><time>2026-05-02T04:45:01.82Z</time></trkpt><trkpt lat="43.9208258" lon="12.6941762"><ele>113.75</ele><time>2026-05-02T04:45:02.807Z</time></trkpt><trkpt lat="43.9207044" lon="12.6941288"><ele>116.0</ele><time>2026-05-02T04:45:03.813Z</time></trkpt><trkpt lat="43.9205923" lon="12.6940897"><ele>116.33333333333333</ele><time>2026-05-02T04:45:04.809Z</time></trkpt><trkpt lat="43.9204922" lon="12.6940578"><ele>116.66666666666666</ele><time>2026-05-02T04:45:05.815Z</time></trkpt><trkpt lat="43.920421" lon="12.6940087"><ele>117.0</ele><time>2026-05-02T04:45:06.806Z</time></trkpt><trkpt lat="43.920381" lon="12.6939335"><ele>117.33333333333334</ele><time>2026-05-02T04:45:07.818Z</time></trkpt><trkpt lat="43.9203628" lon="12.6938314"><ele>117.66666666666667</ele><time>2026-05-02T04:45:08.814Z</time></trkpt><trkpt lat="43.9203474" lon="12.6936883"><ele>118.0</ele><time>2026-05-02T04:45:09.824Z</time></trkpt><trkpt lat="43.9203201" lon="12.693558"><ele>119.16666666666667</ele><time>2026-05-02T04:45:10.815Z</time></trkpt><trkpt lat="43.9203042" lon="12.693438"><ele>120.33333333333334</ele><time>2026-05-02T04:45:11.812Z</time></trkpt><trkpt lat="43.9202727" lon="12.6933134"><ele>121.5</ele><time>2026-05-02T04:45:12.798Z</time></trkpt><trkpt lat="43.9202528" lon="12.6932054"><ele>122.66666666666666</ele><time>2026-05-02T04:45:13.817Z</time></trkpt><trkpt lat="43.9202326" lon="12.6930974"><ele>123.83333333333333</ele><time>2026-05-02T04:45:14.827Z</time></trkpt><trkpt lat="43.9202138" lon="12.6929808"><ele>125.0</ele><time>2026-05-02T04:45:15.82Z</time></trkpt><trkpt lat="43.9201873" lon="12.6928534"><ele>123.8</ele><time>2026-05-02T04:45:16.81Z</time></trkpt><trkpt lat="43.9201645" lon="12.6927231"><ele>122.6</ele><time>2026-05-02T04:45:17.833Z</time></trkpt><trkpt lat="43.9201437" lon="12.6925914"><ele>121.4</ele><time>2026-05-02T04:45:18.797Z</time></trkpt><trkpt lat="43.9201149" lon="12.692455"><ele>120.2</ele><time>2026-05-02T04:45:19.812Z</time></trkpt><trkpt lat="43.9200945" lon="12.6923203"><ele>119.0</ele><time>2026-05-02T04:45:20.806Z</time></trkpt><trkpt lat="43.9200644" lon="12.6921679"><ele>118.0</ele><time>2026-05-02T04:45:21.828Z</time></trkpt><trkpt lat="43.9200347" lon="12.6920129"><ele>117.0</ele><time>2026-05-02T04:45:22.818Z</time></trkpt><trkpt lat="43.919998" lon="12.6918483"><ele>116.0</ele><time>2026-05-02T04:45:23.816Z</time></trkpt><trkpt lat="43.9199619" lon="12.6916783"><ele>115.0</ele><time>2026-05-02T04:45:24.816Z</time></trkpt><trkpt lat="43.9199287" lon="12.6914957"><ele>112.75</ele><time>2026-05-02T04:45:25.819Z</time></trkpt><trkpt lat="43.9198979" lon="12.6913028"><ele>110.5</ele><time>2026-05-02T04:45:26.817Z</time></trkpt><trkpt lat="43.9198686" lon="12.6911078"><ele>108.25</ele><time>2026-05-02T04:45:27.826Z</time></trkpt><trkpt lat="43.9198388" lon="12.6909123"><ele>106.0</ele><time>2026-05-02T04:45:28.803Z</time></trkpt><trkpt lat="43.9198072" lon="12.6907212"><ele>103.66666666666667</ele><time>2026-05-02T04:45:29.828Z</time></trkpt><trkpt lat="43.9197785" lon="12.6905252"><ele>101.33333333333334</ele><time>2026-05-02T04:45:30.812Z</time></trkpt><trkpt lat="43.9197497" lon="12.6903182"><ele>99.0</ele><time>2026-05-02T04:45:31.817Z</time></trkpt><trkpt lat="43.9197224" lon="12.6901012"><ele>96.33333333333333</ele><time>2026-05-02T04:45:32.814Z</time></trkpt><trkpt lat="43.9196946" lon="12.6898849"><ele>93.66666666666666</ele><time>2026-05-02T04:45:33.825Z</time></trkpt><trkpt lat="43.919666" lon="12.6896723"><ele>91.0</ele><time>2026-05-02T04:45:34.814Z</time></trkpt><trkpt lat="43.9196357" lon="12.6894593"><ele>88.33333333333333</ele><time>2026-05-02T04:45:35.816Z</time></trkpt><trkpt lat="43.919606" lon="12.6892491"><ele>85.66666666666667</ele><time>2026-05-02T04:45:36.807Z</time></trkpt><trkpt lat="43.9195755" lon="12.689042"><ele>83.0</ele><time>2026-05-02T04:45:37.826Z</time></trkpt><trkpt lat="43.91954" lon="12.6888382"><ele>83.0</ele><time>2026-05-02T04:45:38.8Z</time></trkpt><trkpt lat="43.9195065" lon="12.6886397"><ele>83.0</ele><time>2026-05-02T04:45:39.823Z</time></trkpt><trkpt lat="43.9194856" lon="12.6884451"><ele>83.0</ele><time>2026-05-02T04:45:40.824Z</time></trkpt><trkpt lat="43.9194736" lon="12.6882477"><ele>83.0</ele><time>2026-05-02T04:45:41.811Z</time></trkpt><trkpt lat="43.9194587" lon="12.688046"><ele>79.66666666666667</ele><time>2026-05-02T04:45:42.8Z</time></trkpt><trkpt lat="43.9194408" lon="12.6878367"><ele>76.33333333333333</ele><time>2026-05-02T04:45:43.806Z</time></trkpt><trkpt lat="43.9194032" lon="12.6876231"><ele>73.0</ele><time>2026-05-02T04:45:44.817Z</time></trkpt><trkpt lat="43.9193561" lon="12.6874117"><ele>70.33333333333333</ele><time>2026-05-02T04:45:45.819Z</time></trkpt><trkpt lat="43.91931" lon="12.687206"><ele>67.66666666666667</ele><time>2026-05-02T04:45:46.809Z</time></trkpt><trkpt lat="43.9192694" lon="12.6869951"><ele>65.0</ele><time>2026-05-02T04:45:47.831Z</time></trkpt><trkpt lat="43.919249" lon="12.6867898"><ele>62.66666666666667</ele><time>2026-05-02T04:45:48.819Z</time></trkpt><trkpt lat="43.919253" lon="12.6865863"><ele>60.33333333333333</ele><time>2026-05-02T04:45:49.82Z</time></trkpt><trkpt lat="43.9192876" lon="12.6863882"><ele>58.0</ele><time>2026-05-02T04:45:50.821Z</time></trkpt><trkpt lat="43.9193379" lon="12.6861704"><ele>56.33333333333333</ele><time>2026-05-02T04:45:51.821Z</time></trkpt><trkpt lat="43.9193932" lon="12.6859286"><ele>54.66666666666667</ele><time>2026-05-02T04:45:52.811Z</time></trkpt><trkpt lat="43.9194459" lon="12.6856949"><ele>53.0</ele><time>2026-05-02T04:45:53.833Z</time></trkpt><trkpt lat="43.9194879" lon="12.6854833"><ele>53.0</ele><time>2026-05-02T04:45:54.806Z</time></trkpt><trkpt lat="43.9195287" lon="12.6853023"><ele>53.0</ele><time>2026-05-02T04:45:55.814Z</time></trkpt><trkpt lat="43.9195573" lon="12.6851693"><ele>53.0</ele><time>2026-05-02T04:45:56.803Z</time></trkpt><trkpt lat="43.9195793" lon="12.6850569"><ele>53.0</ele><time>2026-05-02T04:45:57.812Z</time></trkpt><trkpt lat="43.9196042" lon="12.684957"><ele>53.0</ele><time>2026-05-02T04:45:58.809Z</time></trkpt><trkpt lat="43.9196358" lon="12.684836"><ele>53.0</ele><time>2026-05-02T04:45:59.821Z</time></trkpt><trkpt lat="43.9196793" lon="12.6846942"><ele>53.0</ele><time>2026-05-02T04:46:00.804Z</time></trkpt><trkpt lat="43.919733" lon="12.6845376"><ele>53.0</ele><time>2026-05-02T04:46:01.824Z</time></trkpt><trkpt lat="43.9197811" lon="12.6843585"><ele>53.0</ele><time>2026-05-02T04:46:02.807Z</time></trkpt><trkpt lat="43.9198305" lon="12.6841647"><ele>52.0</ele><time>2026-05-02T04:46:03.808Z</time></trkpt><trkpt lat="43.9198869" lon="12.6839777"><ele>51.0</ele><time>2026-05-02T04:46:04.822Z</time></trkpt><trkpt lat="43.919963" lon="12.6838105"><ele>50.0</ele><time>2026-05-02T04:46:05.822Z</time></trkpt><trkpt lat="43.9200535" lon="12.683679"><ele>49.0</ele><time>2026-05-02T04:46:06.809Z</time></trkpt><trkpt lat="43.9201574" lon="12.6835939"><ele>48.6</ele><time>2026-05-02T04:46:07.81Z</time></trkpt><trkpt lat="43.9202639" lon="12.6835319"><ele>48.2</ele><time>2026-05-02T04:46:08.809Z</time></trkpt><trkpt lat="43.9203594" lon="12.6834901"><ele>47.800000000000004</ele><time>2026-05-02T04:46:09.808Z</time></trkpt><trkpt lat="43.9204269" lon="12.6834567"><ele>47.400000000000006</ele><time>2026-05-02T04:46:10.816Z</time></trkpt><trkpt lat="43.9205136" lon="12.6833707"><ele>47.0</ele><time>2026-05-02T04:46:12.803Z</time></trkpt><trkpt lat="43.9205242" lon="12.6832028"><ele>47.0</ele><time>2026-05-02T04:46:14.811Z</time></trkpt><trkpt lat="43.920523" lon="12.6830895"><ele>47.0</ele><time>2026-05-02T04:46:15.809Z</time></trkpt><trkpt lat="43.9205304" lon="12.68297"><ele>47.0</ele><time>2026-05-02T04:46:16.814Z</time></trkpt><trkpt lat="43.9205322" lon="12.6828619"><ele>47.0</ele><time>2026-05-02T04:46:17.807Z</time></trkpt><trkpt lat="43.9205348" lon="12.682773"><ele>47.0</ele><time>2026-05-02T04:46:18.817Z</time></trkpt><trkpt lat="43.92053" lon="12.6826622"><ele>47.0</ele><time>2026-05-02T04:46:20.802Z</time></trkpt><trkpt lat="43.9205812" lon="12.6825716"><ele>47.8</ele><time>2026-05-02T04:46:22.815Z</time></trkpt><trkpt lat="43.9206513" lon="12.682524"><ele>48.6</ele><time>2026-05-02T04:46:23.8Z</time></trkpt><trkpt lat="43.9207349" lon="12.6824769"><ele>49.4</ele><time>2026-05-02T04:46:24.8Z</time></trkpt><trkpt lat="43.9208277" lon="12.6824313"><ele>50.199999999999996</ele><time>2026-05-02T04:46:25.797Z</time></trkpt><trkpt lat="43.9209224" lon="12.6823735"><ele>51.0</ele><time>2026-05-02T04:46:26.815Z</time></trkpt><trkpt lat="43.9210213" lon="12.6823127"><ele>51.0</ele><time>2026-05-02T04:46:27.805Z</time></trkpt><trkpt lat="43.9211238" lon="12.6822509"><ele>51.0</ele><time>2026-05-02T04:46:28.803Z</time></trkpt><trkpt lat="43.9212322" lon="12.6821939"><ele>51.0</ele><time>2026-05-02T04:46:29.802Z</time></trkpt><trkpt lat="43.9213358" lon="12.6821344"><ele>51.0</ele><time>2026-05-02T04:46:30.799Z</time></trkpt><trkpt lat="43.9214315" lon="12.6820747"><ele>51.0</ele><time>2026-05-02T04:46:31.802Z</time></trkpt><trkpt lat="43.9215234" lon="12.6820216"><ele>51.0</ele><time>2026-05-02T04:46:32.809Z</time></trkpt><trkpt lat="43.9216155" lon="12.68196"><ele>51.0</ele><time>2026-05-02T04:46:33.795Z</time></trkpt><trkpt lat="43.9217118" lon="12.6818999"><ele>51.0</ele><time>2026-05-02T04:46:34.811Z</time></trkpt><trkpt lat="43.9218113" lon="12.6818407"><ele>51.0</ele><time>2026-05-02T04:46:35.803Z</time></trkpt><trkpt lat="43.9219137" lon="12.6817863"><ele>51.0</ele><time>2026-05-02T04:46:36.799Z</time></trkpt><trkpt lat="43.9220194" lon="12.6817316"><ele>51.25</ele><time>2026-05-02T04:46:37.8Z</time></trkpt><trkpt lat="43.9221234" lon="12.6816643"><ele>51.5</ele><time>2026-05-02T04:46:38.798Z</time></trkpt><trkpt lat="43.9222292" lon="12.6815988"><ele>51.75</ele><time>2026-05-02T04:46:39.801Z</time></trkpt><trkpt lat="43.9223393" lon="12.6815325"><ele>52.0</ele><time>2026-05-02T04:46:40.807Z</time></trkpt><trkpt lat="43.9224491" lon="12.6814755"><ele>52.0</ele><time>2026-05-02T04:46:41.817Z</time></trkpt><trkpt lat="43.9225559" lon="12.6814178"><ele>52.0</ele><time>2026-05-02T04:46:42.808Z</time></trkpt><trkpt lat="43.9226669" lon="12.6813564"><ele>52.0</ele><time>2026-05-02T04:46:43.809Z</time></trkpt><trkpt lat="43.9227831" lon="12.6812895"><ele>52.0</ele><time>2026-05-02T04:46:44.798Z</time></trkpt><trkpt lat="43.9229065" lon="12.6812217"><ele>52.2</ele><time>2026-05-02T04:46:45.804Z</time></trkpt><trkpt lat="43.9230257" lon="12.6811551"><ele>52.400000000000006</ele><time>2026-05-02T04:46:46.816Z</time></trkpt><trkpt lat="43.9231409" lon="12.6810923"><ele>52.599999999999994</ele><time>2026-05-02T04:46:47.8Z</time></trkpt><trkpt lat="43.9232335" lon="12.6810363"><ele>52.8</ele><time>2026-05-02T04:46:48.802Z</time></trkpt><trkpt lat="43.9233099" lon="12.6810075"><ele>53.0</ele><time>2026-05-02T04:46:49.803Z</time></trkpt><trkpt lat="43.9233885" lon="12.6809659"><ele>53.00000000000001</ele><time>2026-05-02T04:46:51.803Z</time></trkpt><trkpt lat="43.9234275" lon="12.6808738"><ele>53.0</ele><time>2026-05-02T04:46:54.806Z</time></trkpt><trkpt lat="43.9234175" lon="12.6807762"><ele>53.0</ele><time>2026-05-02T04:46:55.805Z</time></trkpt><trkpt lat="43.9233982" lon="12.6806722"><ele>53.0</ele><time>2026-05-02T04:46:56.806Z</time></trkpt><trkpt lat="43.9233658" lon="12.6805536"><ele>53.00000000000001</ele><time>2026-05-02T04:46:57.806Z</time></trkpt><trkpt lat="43.9233256" lon="12.6804106"><ele>53.0</ele><time>2026-05-02T04:46:58.818Z</time></trkpt><trkpt lat="43.9232834" lon="12.6802515"><ele>53.75</ele><time>2026-05-02T04:46:59.81Z</time></trkpt><trkpt lat="43.9232484" lon="12.6800888"><ele>54.5</ele><time>2026-05-02T04:47:00.803Z</time></trkpt><trkpt lat="43.9232155" lon="12.6799177"><ele>55.25</ele><time>2026-05-02T04:47:01.816Z</time></trkpt><trkpt lat="43.9231803" lon="12.6797444"><ele>56.0</ele><time>2026-05-02T04:47:02.819Z</time></trkpt><trkpt lat="43.9231367" lon="12.6795645"><ele>56.0</ele><time>2026-05-02T04:47:03.831Z</time></trkpt><trkpt lat="43.9230921" lon="12.6793876"><ele>56.0</ele><time>2026-05-02T04:47:04.825Z</time></trkpt><trkpt lat="43.9230467" lon="12.679208"><ele>56.0</ele><time>2026-05-02T04:47:05.821Z</time></trkpt><trkpt lat="43.9230026" lon="12.6790255"><ele>56.0</ele><time>2026-05-02T04:47:06.813Z</time></trkpt><trkpt lat="43.9229541" lon="12.6788313"><ele>56.0</ele><time>2026-05-02T04:47:07.807Z</time></trkpt><trkpt lat="43.9229048" lon="12.678632"><ele>56.0</ele><time>2026-05-02T04:47:08.811Z</time></trkpt><trkpt lat="43.9228563" lon="12.6784291"><ele>56.0</ele><time>2026-05-02T04:47:09.823Z</time></trkpt><trkpt lat="43.9228088" lon="12.6782271"><ele>56.0</ele><time>2026-05-02T04:47:10.812Z</time></trkpt><trkpt lat="43.9227564" lon="12.6780251"><ele>56.0</ele><time>2026-05-02T04:47:11.818Z</time></trkpt><trkpt lat="43.9227037" lon="12.6778269"><ele>56.0</ele><time>2026-05-02T04:47:12.819Z</time></trkpt><trkpt lat="43.9226544" lon="12.6776347"><ele>56.0</ele><time>2026-05-02T04:47:13.807Z</time></trkpt><trkpt lat="43.9226086" lon="12.6774443"><ele>56.0</ele><time>2026-05-02T04:47:14.813Z</time></trkpt><trkpt lat="43.9225611" lon="12.6772611"><ele>56.0</ele><time>2026-05-02T04:47:15.829Z</time></trkpt><trkpt lat="43.9225207" lon="12.6770934"><ele>56.0</ele><time>2026-05-02T04:47:16.809Z</time></trkpt><trkpt lat="43.9224864" lon="12.6769444"><ele>56.0</ele><time>2026-05-02T04:47:17.806Z</time></trkpt><trkpt lat="43.9224533" lon="12.676811"><ele>55.99999999999999</ele><time>2026-05-02T04:47:18.808Z</time></trkpt><trkpt lat="43.9224207" lon="12.6766877"><ele>55.99999999999999</ele><time>2026-05-02T04:47:19.817Z</time></trkpt><trkpt lat="43.9223906" lon="12.6765594"><ele>56.0</ele><time>2026-05-02T04:47:20.808Z</time></trkpt><trkpt lat="43.922358" lon="12.6764106"><ele>56.0</ele><time>2026-05-02T04:47:21.823Z</time></trkpt><trkpt lat="43.9223237" lon="12.6762506"><ele>55.75</ele><time>2026-05-02T04:47:22.8Z</time></trkpt><trkpt lat="43.9222861" lon="12.6760863"><ele>55.5</ele><time>2026-05-02T04:47:23.803Z</time></trkpt><trkpt lat="43.9222543" lon="12.6759186"><ele>55.25</ele><time>2026-05-02T04:47:24.813Z</time></trkpt><trkpt lat="43.9222258" lon="12.6757421"><ele>55.0</ele><time>2026-05-02T04:47:25.82Z</time></trkpt><trkpt lat="43.9221963" lon="12.6755665"><ele>55.0</ele><time>2026-05-02T04:47:26.805Z</time></trkpt><trkpt lat="43.9221691" lon="12.6753781"><ele>55.0</ele><time>2026-05-02T04:47:27.828Z</time></trkpt><trkpt lat="43.922144" lon="12.6751902"><ele>55.0</ele><time>2026-05-02T04:47:28.825Z</time></trkpt><trkpt lat="43.9221219" lon="12.6750018"><ele>55.0</ele><time>2026-05-02T04:47:29.811Z</time></trkpt><trkpt lat="43.922094" lon="12.6748111"><ele>55.0</ele><time>2026-05-02T04:47:30.81Z</time></trkpt><trkpt lat="43.9220639" lon="12.6746179"><ele>55.0</ele><time>2026-05-02T04:47:31.845Z</time></trkpt><trkpt lat="43.9220314" lon="12.6744228"><ele>55.0</ele><time>2026-05-02T04:47:32.83Z</time></trkpt><trkpt lat="43.9220064" lon="12.6742307"><ele>55.0</ele><time>2026-05-02T04:47:33.833Z</time></trkpt><trkpt lat="43.9219812" lon="12.6740442"><ele>55.25</ele><time>2026-05-02T04:47:34.821Z</time></trkpt><trkpt lat="43.9219549" lon="12.6738522"><ele>55.5</ele><time>2026-05-02T04:47:35.832Z</time></trkpt><trkpt lat="43.92193" lon="12.6736608"><ele>55.75</ele><time>2026-05-02T04:47:36.812Z</time></trkpt><trkpt lat="43.9219023" lon="12.6734658"><ele>56.0</ele><time>2026-05-02T04:47:37.822Z</time></trkpt><trkpt lat="43.9218756" lon="12.673268"><ele>56.0</ele><time>2026-05-02T04:47:38.816Z</time></trkpt><trkpt lat="43.9218522" lon="12.6730679"><ele>56.0</ele><time>2026-05-02T04:47:39.82Z</time></trkpt><trkpt lat="43.9218263" lon="12.6728716"><ele>56.0</ele><time>2026-05-02T04:47:40.815Z</time></trkpt><trkpt lat="43.9218014" lon="12.6726808"><ele>56.0</ele><time>2026-05-02T04:47:41.816Z</time></trkpt><trkpt lat="43.9217777" lon="12.6725079"><ele>56.16666666666667</ele><time>2026-05-02T04:47:42.821Z</time></trkpt><trkpt lat="43.9217604" lon="12.6723449"><ele>56.333333333333336</ele><time>2026-05-02T04:47:43.808Z</time></trkpt><trkpt lat="43.9217515" lon="12.6722087"><ele>56.5</ele><time>2026-05-02T04:47:44.811Z</time></trkpt><trkpt lat="43.9217529" lon="12.6720918"><ele>56.66666666666667</ele><time>2026-05-02T04:47:45.82Z</time></trkpt><trkpt lat="43.9217666" lon="12.671996"><ele>56.833333333333336</ele><time>2026-05-02T04:47:46.815Z</time></trkpt><trkpt lat="43.9217831" lon="12.671905"><ele>57.0</ele><time>2026-05-02T04:47:47.807Z</time></trkpt><trkpt lat="43.9217843" lon="12.6718058"><ele>57.0</ele><time>2026-05-02T04:47:48.807Z</time></trkpt><trkpt lat="43.9217518" lon="12.6717048"><ele>57.0</ele><time>2026-05-02T04:47:49.825Z</time></trkpt><trkpt lat="43.9217027" lon="12.6715867"><ele>57.0</ele><time>2026-05-02T04:47:50.817Z</time></trkpt><trkpt lat="43.9216553" lon="12.6714477"><ele>57.0</ele><time>2026-05-02T04:47:51.817Z</time></trkpt><trkpt lat="43.9216252" lon="12.6712896"><ele>57.0</ele><time>2026-05-02T04:47:52.814Z</time></trkpt><trkpt lat="43.9216041" lon="12.6711184"><ele>57.6</ele><time>2026-05-02T04:47:53.828Z</time></trkpt><trkpt lat="43.9215862" lon="12.6709531"><ele>58.2</ele><time>2026-05-02T04:47:54.814Z</time></trkpt><trkpt lat="43.9215685" lon="12.6708059"><ele>58.8</ele><time>2026-05-02T04:47:55.829Z</time></trkpt><trkpt lat="43.921553" lon="12.670664"><ele>59.4</ele><time>2026-05-02T04:47:56.831Z</time></trkpt><trkpt lat="43.9215356" lon="12.6705111"><ele>60.0</ele><time>2026-05-02T04:47:57.831Z</time></trkpt><trkpt lat="43.9215181" lon="12.67035"><ele>60.25</ele><time>2026-05-02T04:47:58.823Z</time></trkpt><trkpt lat="43.9214983" lon="12.6701839"><ele>60.5</ele><time>2026-05-02T04:47:59.821Z</time></trkpt><trkpt lat="43.9214768" lon="12.6700231"><ele>60.75</ele><time>2026-05-02T04:48:00.816Z</time></trkpt><trkpt lat="43.9214552" lon="12.669868"><ele>61.0</ele><time>2026-05-02T04:48:01.832Z</time></trkpt><trkpt lat="43.9214276" lon="12.6697134"><ele>61.0</ele><time>2026-05-02T04:48:02.811Z</time></trkpt><trkpt lat="43.9214006" lon="12.6695516"><ele>61.0</ele><time>2026-05-02T04:48:03.822Z</time></trkpt><trkpt lat="43.9213783" lon="12.6693885"><ele>61.0</ele><time>2026-05-02T04:48:04.811Z</time></trkpt><trkpt lat="43.9213566" lon="12.6692175"><ele>61.0</ele><time>2026-05-02T04:48:05.83Z</time></trkpt><trkpt lat="43.921333" lon="12.6690446"><ele>60.0</ele><time>2026-05-02T04:48:06.821Z</time></trkpt><trkpt lat="43.9213074" lon="12.668866"><ele>59.0</ele><time>2026-05-02T04:48:07.818Z</time></trkpt><trkpt lat="43.9212816" lon="12.6686867"><ele>58.0</ele><time>2026-05-02T04:48:08.816Z</time></trkpt><trkpt lat="43.9212577" lon="12.6685092"><ele>57.0</ele><time>2026-05-02T04:48:09.827Z</time></trkpt><trkpt lat="43.9212351" lon="12.6683369"><ele>57.0</ele><time>2026-05-02T04:48:10.821Z</time></trkpt><trkpt lat="43.9212136" lon="12.6681606"><ele>57.0</ele><time>2026-05-02T04:48:11.837Z</time></trkpt><trkpt lat="43.9211897" lon="12.6679863"><ele>57.0</ele><time>2026-05-02T04:48:12.818Z</time></trkpt><trkpt lat="43.9211654" lon="12.6678056"><ele>57.0</ele><time>2026-05-02T04:48:13.829Z</time></trkpt><trkpt lat="43.9211378" lon="12.6676209"><ele>57.0</ele><time>2026-05-02T04:48:14.819Z</time></trkpt><trkpt lat="43.9211134" lon="12.6674397"><ele>57.0</ele><time>2026-05-02T04:48:15.825Z</time></trkpt><trkpt lat="43.9210853" lon="12.6672543"><ele>57.0</ele><time>2026-05-02T04:48:16.817Z</time></trkpt><trkpt lat="43.9210535" lon="12.6670689"><ele>57.0</ele><time>2026-05-02T04:48:17.826Z</time></trkpt><trkpt lat="43.9210115" lon="12.6668881"><ele>57.0</ele><time>2026-05-02T04:48:18.813Z</time></trkpt><trkpt lat="43.9209567" lon="12.6667092"><ele>57.0</ele><time>2026-05-02T04:48:19.828Z</time></trkpt><trkpt lat="43.9208951" lon="12.66653"><ele>57.0</ele><time>2026-05-02T04:48:20.813Z</time></trkpt><trkpt lat="43.9208317" lon="12.6663585"><ele>57.0</ele><time>2026-05-02T04:48:21.831Z</time></trkpt><trkpt lat="43.9207596" lon="12.6661933"><ele>58.5</ele><time>2026-05-02T04:48:22.815Z</time></trkpt><trkpt lat="43.9207016" lon="12.6660404"><ele>60.0</ele><time>2026-05-02T04:48:23.822Z</time></trkpt><trkpt lat="43.9206398" lon="12.6658958"><ele>61.5</ele><time>2026-05-02T04:48:24.828Z</time></trkpt><trkpt lat="43.9205711" lon="12.6657364"><ele>63.0</ele><time>2026-05-02T04:48:25.956Z</time></trkpt><trkpt lat="43.9204327" lon="12.6654137"><ele>63.25</ele><time>2026-05-02T04:48:27.822Z</time></trkpt><trkpt lat="43.920361" lon="12.6652546"><ele>63.5</ele><time>2026-05-02T04:48:28.813Z</time></trkpt><trkpt lat="43.9202903" lon="12.6650979"><ele>63.75</ele><time>2026-05-02T04:48:29.81Z</time></trkpt><trkpt lat="43.9202183" lon="12.6649352"><ele>64.0</ele><time>2026-05-02T04:48:30.81Z</time></trkpt><trkpt lat="43.920154" lon="12.664767"><ele>64.0</ele><time>2026-05-02T04:48:31.814Z</time></trkpt><trkpt lat="43.920096" lon="12.6646016"><ele>64.0</ele><time>2026-05-02T04:48:32.807Z</time></trkpt><trkpt lat="43.9200396" lon="12.6644306"><ele>64.0</ele><time>2026-05-02T04:48:33.81Z</time></trkpt><trkpt lat="43.919986" lon="12.6642468"><ele>64.0</ele><time>2026-05-02T04:48:34.802Z</time></trkpt><trkpt lat="43.919942" lon="12.6640626"><ele>64.25</ele><time>2026-05-02T04:48:35.825Z</time></trkpt><trkpt lat="43.9199002" lon="12.6638699"><ele>64.5</ele><time>2026-05-02T04:48:36.811Z</time></trkpt><trkpt lat="43.9198575" lon="12.6636766"><ele>64.75</ele><time>2026-05-02T04:48:37.823Z</time></trkpt><trkpt lat="43.9198144" lon="12.6634894"><ele>65.0</ele><time>2026-05-02T04:48:38.82Z</time></trkpt><trkpt lat="43.9197701" lon="12.6633039"><ele>65.0</ele><time>2026-05-02T04:48:39.807Z</time></trkpt><trkpt lat="43.9197264" lon="12.6631237"><ele>65.0</ele><time>2026-05-02T04:48:40.813Z</time></trkpt><trkpt lat="43.9196815" lon="12.6629428"><ele>65.0</ele><time>2026-05-02T04:48:41.813Z</time></trkpt><trkpt lat="43.9196376" lon="12.6627564"><ele>65.0</ele><time>2026-05-02T04:48:42.818Z</time></trkpt><trkpt lat="43.9195826" lon="12.6625627"><ele>65.33333333333334</ele><time>2026-05-02T04:48:43.81Z</time></trkpt><trkpt lat="43.9195162" lon="12.6623731"><ele>65.66666666666667</ele><time>2026-05-02T04:48:44.82Z</time></trkpt><trkpt lat="43.919441" lon="12.6621948"><ele>66.0</ele><time>2026-05-02T04:48:45.824Z</time></trkpt><trkpt lat="43.9193524" lon="12.6620181"><ele>66.0</ele><time>2026-05-02T04:48:46.808Z</time></trkpt><trkpt lat="43.9192571" lon="12.6618452"><ele>66.0</ele><time>2026-05-02T04:48:47.818Z</time></trkpt><trkpt lat="43.9191623" lon="12.6616609"><ele>66.0</ele><time>2026-05-02T04:48:48.808Z</time></trkpt><trkpt lat="43.919061" lon="12.6614869"><ele>66.66666666666667</ele><time>2026-05-02T04:48:49.815Z</time></trkpt><trkpt lat="43.9189637" lon="12.6613133"><ele>67.33333333333334</ele><time>2026-05-02T04:48:50.8Z</time></trkpt><trkpt lat="43.9188648" lon="12.6611377"><ele>68.0</ele><time>2026-05-02T04:48:51.816Z</time></trkpt><trkpt lat="43.9187673" lon="12.6609693"><ele>68.66666666666667</ele><time>2026-05-02T04:48:52.805Z</time></trkpt><trkpt lat="43.918669" lon="12.6607942"><ele>69.33333333333333</ele><time>2026-05-02T04:48:53.803Z</time></trkpt><trkpt lat="43.918571" lon="12.6606148"><ele>70.0</ele><time>2026-05-02T04:48:54.805Z</time></trkpt><trkpt lat="43.9184758" lon="12.6604436"><ele>70.0</ele><time>2026-05-02T04:48:55.812Z</time></trkpt><trkpt lat="43.9183863" lon="12.6602839"><ele>70.0</ele><time>2026-05-02T04:48:56.81Z</time></trkpt><trkpt lat="43.9182988" lon="12.6601355"><ele>70.0</ele><time>2026-05-02T04:48:57.81Z</time></trkpt><trkpt lat="43.9182205" lon="12.6599922"><ele>70.0</ele><time>2026-05-02T04:48:58.807Z</time></trkpt><trkpt lat="43.9181379" lon="12.6598477"><ele>70.0</ele><time>2026-05-02T04:48:59.813Z</time></trkpt><trkpt lat="43.9180537" lon="12.659701"><ele>70.0</ele><time>2026-05-02T04:49:00.808Z</time></trkpt><trkpt lat="43.9179745" lon="12.6595583"><ele>70.0</ele><time>2026-05-02T04:49:01.805Z</time></trkpt><trkpt lat="43.917902" lon="12.6594265"><ele>70.0</ele><time>2026-05-02T04:49:02.816Z</time></trkpt><trkpt lat="43.9178312" lon="12.6593133"><ele>70.0</ele><time>2026-05-02T04:49:03.805Z</time></trkpt><trkpt lat="43.9177653" lon="12.6592182"><ele>70.0</ele><time>2026-05-02T04:49:04.803Z</time></trkpt><trkpt lat="43.917701" lon="12.6591213"><ele>70.0</ele><time>2026-05-02T04:49:05.811Z</time></trkpt><trkpt lat="43.9176439" lon="12.6590116"><ele>70.0</ele><time>2026-05-02T04:49:06.813Z</time></trkpt><trkpt lat="43.9175805" lon="12.6588885"><ele>70.0</ele><time>2026-05-02T04:49:07.839Z</time></trkpt><trkpt lat="43.9175115" lon="12.6587517"><ele>70.5</ele><time>2026-05-02T04:49:08.814Z</time></trkpt><trkpt lat="43.9174425" lon="12.6586031"><ele>71.0</ele><time>2026-05-02T04:49:09.829Z</time></trkpt><trkpt lat="43.9173731" lon="12.6584607"><ele>71.5</ele><time>2026-05-02T04:49:10.821Z</time></trkpt><trkpt lat="43.9172999" lon="12.6583231"><ele>72.0</ele><time>2026-05-02T04:49:11.822Z</time></trkpt><trkpt lat="43.9172233" lon="12.658185"><ele>72.0</ele><time>2026-05-02T04:49:12.81Z</time></trkpt><trkpt lat="43.9171454" lon="12.6580474"><ele>72.0</ele><time>2026-05-02T04:49:13.828Z</time></trkpt><trkpt lat="43.9170699" lon="12.6579095"><ele>72.0</ele><time>2026-05-02T04:49:14.82Z</time></trkpt><trkpt lat="43.9169912" lon="12.6577696"><ele>72.0</ele><time>2026-05-02T04:49:15.837Z</time></trkpt><trkpt lat="43.9169115" lon="12.6576225"><ele>72.5</ele><time>2026-05-02T04:49:16.807Z</time></trkpt><trkpt lat="43.9168303" lon="12.6574784"><ele>73.0</ele><time>2026-05-02T04:49:17.834Z</time></trkpt><trkpt lat="43.9167536" lon="12.6573481"><ele>73.5</ele><time>2026-05-02T04:49:18.808Z</time></trkpt><trkpt lat="43.9166806" lon="12.6572292"><ele>74.0</ele><time>2026-05-02T04:49:19.814Z</time></trkpt><trkpt lat="43.9166123" lon="12.6571071"><ele>74.0</ele><time>2026-05-02T04:49:20.805Z</time></trkpt><trkpt lat="43.916549" lon="12.6569791"><ele>74.0</ele><time>2026-05-02T04:49:21.819Z</time></trkpt><trkpt lat="43.9164891" lon="12.6568543"><ele>74.0</ele><time>2026-05-02T04:49:22.815Z</time></trkpt><trkpt lat="43.9164185" lon="12.6567377"><ele>74.0</ele><time>2026-05-02T04:49:23.821Z</time></trkpt><trkpt lat="43.9163441" lon="12.6566142"><ele>74.0</ele><time>2026-05-02T04:49:24.815Z</time></trkpt><trkpt lat="43.9162647" lon="12.6564787"><ele>74.0</ele><time>2026-05-02T04:49:25.815Z</time></trkpt><trkpt lat="43.9161889" lon="12.6563431"><ele>74.0</ele><time>2026-05-02T04:49:26.817Z</time></trkpt><trkpt lat="43.9161195" lon="12.6561983"><ele>74.0</ele><time>2026-05-02T04:49:27.825Z</time></trkpt><trkpt lat="43.9160546" lon="12.6560562"><ele>74.0</ele><time>2026-05-02T04:49:28.817Z</time></trkpt><trkpt lat="43.9159859" lon="12.6559087"><ele>74.25</ele><time>2026-05-02T04:49:29.829Z</time></trkpt><trkpt lat="43.9159286" lon="12.6557608"><ele>74.5</ele><time>2026-05-02T04:49:30.822Z</time></trkpt><trkpt lat="43.9158859" lon="12.6556109"><ele>74.75</ele><time>2026-05-02T04:49:31.815Z</time></trkpt><trkpt lat="43.9158544" lon="12.655442"><ele>75.0</ele><time>2026-05-02T04:49:32.807Z</time></trkpt><trkpt lat="43.9158241" lon="12.6552659"><ele>75.25</ele><time>2026-05-02T04:49:33.81Z</time></trkpt><trkpt lat="43.915791" lon="12.6550897"><ele>75.5</ele><time>2026-05-02T04:49:34.808Z</time></trkpt><trkpt lat="43.9157577" lon="12.6549116"><ele>75.75</ele><time>2026-05-02T04:49:35.817Z</time></trkpt><trkpt lat="43.915727" lon="12.6547315"><ele>76.0</ele><time>2026-05-02T04:49:36.807Z</time></trkpt><trkpt lat="43.9156922" lon="12.6545456"><ele>76.25</ele><time>2026-05-02T04:49:37.831Z</time></trkpt><trkpt lat="43.9156572" lon="12.6543699"><ele>76.5</ele><time>2026-05-02T04:49:38.821Z</time></trkpt><trkpt lat="43.9156209" lon="12.6541937"><ele>76.75</ele><time>2026-05-02T04:49:39.82Z</time></trkpt><trkpt lat="43.9155889" lon="12.6540172"><ele>77.0</ele><time>2026-05-02T04:49:40.807Z</time></trkpt><trkpt lat="43.9155541" lon="12.653841"><ele>77.0</ele><time>2026-05-02T04:49:41.808Z</time></trkpt><trkpt lat="43.9155164" lon="12.6536666"><ele>77.0</ele><time>2026-05-02T04:49:42.812Z</time></trkpt><trkpt lat="43.915483" lon="12.6534877"><ele>77.0</ele><time>2026-05-02T04:49:43.816Z</time></trkpt><trkpt lat="43.9154456" lon="12.653301"><ele>77.0</ele><time>2026-05-02T04:49:44.812Z</time></trkpt><trkpt lat="43.915408" lon="12.6531111"><ele>77.0</ele><time>2026-05-02T04:49:45.825Z</time></trkpt><trkpt lat="43.9153724" lon="12.6529211"><ele>77.0</ele><time>2026-05-02T04:49:46.807Z</time></trkpt><trkpt lat="43.9153363" lon="12.6527474"><ele>77.0</ele><time>2026-05-02T04:49:47.81Z</time></trkpt><trkpt lat="43.915304" lon="12.6525878"><ele>77.0</ele><time>2026-05-02T04:49:48.814Z</time></trkpt><trkpt lat="43.9152824" lon="12.6524406"><ele>77.2</ele><time>2026-05-02T04:49:49.82Z</time></trkpt><trkpt lat="43.9152639" lon="12.6522968"><ele>77.4</ele><time>2026-05-02T04:49:50.813Z</time></trkpt><trkpt lat="43.9152464" lon="12.652169"><ele>77.6</ele><time>2026-05-02T04:49:51.803Z</time></trkpt><trkpt lat="43.9152073" lon="12.652044"><ele>77.8</ele><time>2026-05-02T04:49:52.81Z</time></trkpt><trkpt lat="43.9151606" lon="12.6518981"><ele>78.0</ele><time>2026-05-02T04:49:53.819Z</time></trkpt><trkpt lat="43.9151259" lon="12.651741"><ele>78.0</ele><time>2026-05-02T04:49:54.817Z</time></trkpt><trkpt lat="43.9150938" lon="12.651582"><ele>78.0</ele><time>2026-05-02T04:49:55.809Z</time></trkpt><trkpt lat="43.9150649" lon="12.6514236"><ele>78.0</ele><time>2026-05-02T04:49:56.806Z</time></trkpt><trkpt lat="43.9150283" lon="12.6512708"><ele>78.0</ele><time>2026-05-02T04:49:57.811Z</time></trkpt><trkpt lat="43.9149969" lon="12.6511152"><ele>77.5</ele><time>2026-05-02T04:49:58.801Z</time></trkpt><trkpt lat="43.9149635" lon="12.6509531"><ele>77.0</ele><time>2026-05-02T04:49:59.817Z</time></trkpt><trkpt lat="43.9149286" lon="12.6507888"><ele>76.5</ele><time>2026-05-02T04:50:00.801Z</time></trkpt><trkpt lat="43.9148974" lon="12.6506271"><ele>76.0</ele><time>2026-05-02T04:50:01.811Z</time></trkpt><trkpt lat="43.9148657" lon="12.6504809"><ele>76.0</ele><time>2026-05-02T04:50:02.81Z</time></trkpt><trkpt lat="43.9148466" lon="12.6503563"><ele>76.0</ele><time>2026-05-02T04:50:03.811Z</time></trkpt><trkpt lat="43.914829" lon="12.65024"><ele>76.0</ele><time>2026-05-02T04:50:04.804Z</time></trkpt><trkpt lat="43.9148024" lon="12.6501206"><ele>76.0</ele><time>2026-05-02T04:50:05.819Z</time></trkpt><trkpt lat="43.9147656" lon="12.6499955"><ele>76.0</ele><time>2026-05-02T04:50:06.812Z</time></trkpt><trkpt lat="43.9147306" lon="12.6498579"><ele>76.2</ele><time>2026-05-02T04:50:07.808Z</time></trkpt><trkpt lat="43.914705" lon="12.6497092"><ele>76.39999999999999</ele><time>2026-05-02T04:50:08.803Z</time></trkpt><trkpt lat="43.9146777" lon="12.6495661"><ele>76.6</ele><time>2026-05-02T04:50:09.812Z</time></trkpt><trkpt lat="43.9146463" lon="12.6494271"><ele>76.8</ele><time>2026-05-02T04:50:10.804Z</time></trkpt><trkpt lat="43.9146116" lon="12.6492855"><ele>77.0</ele><time>2026-05-02T04:50:11.81Z</time></trkpt><trkpt lat="43.9145824" lon="12.6491468"><ele>77.0</ele><time>2026-05-02T04:50:12.809Z</time></trkpt><trkpt lat="43.9145575" lon="12.6490139"><ele>77.0</ele><time>2026-05-02T04:50:13.814Z</time></trkpt><trkpt lat="43.914543" lon="12.6489049"><ele>77.0</ele><time>2026-05-02T04:50:14.809Z</time></trkpt><trkpt lat="43.9145382" lon="12.6488043"><ele>77.0</ele><time>2026-05-02T04:50:15.818Z</time></trkpt><trkpt lat="43.9145448" lon="12.6487091"><ele>77.0</ele><time>2026-05-02T04:50:16.815Z</time></trkpt><trkpt lat="43.9145435" lon="12.648613"><ele>77.0</ele><time>2026-05-02T04:50:17.802Z</time></trkpt><trkpt lat="43.9145293" lon="12.6485278"><ele>77.0</ele><time>2026-05-02T04:50:18.808Z</time></trkpt><trkpt lat="43.9144911" lon="12.6484511"><ele>77.0</ele><time>2026-05-02T04:50:19.806Z</time></trkpt><trkpt lat="43.9144561" lon="12.6483627"><ele>77.0</ele><time>2026-05-02T04:50:20.807Z</time></trkpt><trkpt lat="43.9144207" lon="12.6482511"><ele>77.0</ele><time>2026-05-02T04:50:21.818Z</time></trkpt><trkpt lat="43.9143923" lon="12.6481171"><ele>77.0</ele><time>2026-05-02T04:50:22.818Z</time></trkpt><trkpt lat="43.9143632" lon="12.647967"><ele>77.0</ele><time>2026-05-02T04:50:23.805Z</time></trkpt><trkpt lat="43.9143324" lon="12.6478202"><ele>76.4</ele><time>2026-05-02T04:50:24.809Z</time></trkpt><trkpt lat="43.9143153" lon="12.6476735"><ele>75.80000000000001</ele><time>2026-05-02T04:50:25.81Z</time></trkpt><trkpt lat="43.9142975" lon="12.6475276"><ele>75.2</ele><time>2026-05-02T04:50:26.798Z</time></trkpt><trkpt lat="43.9142868" lon="12.6473751"><ele>74.60000000000001</ele><time>2026-05-02T04:50:27.804Z</time></trkpt><trkpt lat="43.9142856" lon="12.6472217"><ele>74.0</ele><time>2026-05-02T04:50:28.808Z</time></trkpt><trkpt lat="43.9142853" lon="12.6470723"><ele>73.5</ele><time>2026-05-02T04:50:29.801Z</time></trkpt><trkpt lat="43.9142858" lon="12.6469203"><ele>73.0</ele><time>2026-05-02T04:50:30.803Z</time></trkpt><trkpt lat="43.9142848" lon="12.6467593"><ele>72.5</ele><time>2026-05-02T04:50:31.805Z</time></trkpt><trkpt lat="43.9142854" lon="12.6465893"><ele>72.0</ele><time>2026-05-02T04:50:32.813Z</time></trkpt><trkpt lat="43.9142866" lon="12.6464209"><ele>72.0</ele><time>2026-05-02T04:50:33.815Z</time></trkpt><trkpt lat="43.9142836" lon="12.6462599"><ele>72.0</ele><time>2026-05-02T04:50:34.805Z</time></trkpt><trkpt lat="43.9142811" lon="12.6461214"><ele>72.0</ele><time>2026-05-02T04:50:35.806Z</time></trkpt><trkpt lat="43.9142813" lon="12.6459948"><ele>72.0</ele><time>2026-05-02T04:50:36.804Z</time></trkpt><trkpt lat="43.9142767" lon="12.6458745"><ele>72.0</ele><time>2026-05-02T04:50:37.81Z</time></trkpt><trkpt lat="43.9142646" lon="12.6457531"><ele>71.6</ele><time>2026-05-02T04:50:38.817Z</time></trkpt><trkpt lat="43.9142724" lon="12.6456584"><ele>71.2</ele><time>2026-05-02T04:50:39.805Z</time></trkpt><trkpt lat="43.9143517" lon="12.6455499"><ele>70.8</ele><time>2026-05-02T04:50:41.81Z</time></trkpt><trkpt lat="43.914485" lon="12.6455243"><ele>70.4</ele><time>2026-05-02T04:50:43.8Z</time></trkpt><trkpt lat="43.9145377" lon="12.645443"><ele>70.0</ele><time>2026-05-02T04:50:44.817Z</time></trkpt><trkpt lat="43.9145427" lon="12.645314"><ele>70.2</ele><time>2026-05-02T04:50:45.813Z</time></trkpt><trkpt lat="43.914536" lon="12.6451866"><ele>70.4</ele><time>2026-05-02T04:50:46.809Z</time></trkpt><trkpt lat="43.9145389" lon="12.645054"><ele>70.6</ele><time>2026-05-02T04:50:47.809Z</time></trkpt><trkpt lat="43.9145386" lon="12.6449053"><ele>70.8</ele><time>2026-05-02T04:50:48.812Z</time></trkpt><trkpt lat="43.9145376" lon="12.6447496"><ele>71.0</ele><time>2026-05-02T04:50:49.828Z</time></trkpt><trkpt lat="43.9145265" lon="12.6445895"><ele>71.0</ele><time>2026-05-02T04:50:50.812Z</time></trkpt><trkpt lat="43.9145188" lon="12.6444194"><ele>71.0</ele><time>2026-05-02T04:50:51.819Z</time></trkpt><trkpt lat="43.9145009" lon="12.6442347"><ele>71.0</ele><time>2026-05-02T04:50:52.803Z</time></trkpt><trkpt lat="43.9144754" lon="12.6440523"><ele>71.0</ele><time>2026-05-02T04:50:53.817Z</time></trkpt><trkpt lat="43.9144365" lon="12.6438729"><ele>71.0</ele><time>2026-05-02T04:50:54.806Z</time></trkpt><trkpt lat="43.9144002" lon="12.6436953"><ele>71.0</ele><time>2026-05-02T04:50:55.828Z</time></trkpt><trkpt lat="43.9143702" lon="12.6435285"><ele>71.0</ele><time>2026-05-02T04:50:56.802Z</time></trkpt><trkpt lat="43.9143438" lon="12.6433771"><ele>71.0</ele><time>2026-05-02T04:50:57.815Z</time></trkpt><trkpt lat="43.9143184" lon="12.6432332"><ele>70.75</ele><time>2026-05-02T04:50:58.811Z</time></trkpt><trkpt lat="43.9142931" lon="12.6430788"><ele>70.5</ele><time>2026-05-02T04:50:59.812Z</time></trkpt><trkpt lat="43.9142798" lon="12.6429103"><ele>70.25</ele><time>2026-05-02T04:51:00.807Z</time></trkpt><trkpt lat="43.9142802" lon="12.6427286"><ele>70.0</ele><time>2026-05-02T04:51:01.813Z</time></trkpt><trkpt lat="43.914303" lon="12.6425484"><ele>69.0</ele><time>2026-05-02T04:51:02.811Z</time></trkpt><trkpt lat="43.9143303" lon="12.6423611"><ele>68.0</ele><time>2026-05-02T04:51:03.813Z</time></trkpt><trkpt lat="43.914366" lon="12.6421639"><ele>67.0</ele><time>2026-05-02T04:51:04.814Z</time></trkpt><trkpt lat="43.9144021" lon="12.6419649"><ele>66.0</ele><time>2026-05-02T04:51:05.815Z</time></trkpt><trkpt lat="43.9144352" lon="12.6417701"><ele>66.0</ele><time>2026-05-02T04:51:06.81Z</time></trkpt><trkpt lat="43.9144668" lon="12.6415784"><ele>66.0</ele><time>2026-05-02T04:51:07.819Z</time></trkpt><trkpt lat="43.9145006" lon="12.6413913"><ele>66.0</ele><time>2026-05-02T04:51:08.821Z</time></trkpt><trkpt lat="43.9145341" lon="12.6412044"><ele>66.0</ele><time>2026-05-02T04:51:09.814Z</time></trkpt><trkpt lat="43.9145664" lon="12.6410208"><ele>66.0</ele><time>2026-05-02T04:51:10.812Z</time></trkpt><trkpt lat="43.9145982" lon="12.6408395"><ele>66.0</ele><time>2026-05-02T04:51:11.825Z</time></trkpt><trkpt lat="43.9146313" lon="12.6406538"><ele>66.0</ele><time>2026-05-02T04:51:12.81Z</time></trkpt><trkpt lat="43.9146639" lon="12.6404702"><ele>66.0</ele><time>2026-05-02T04:51:13.826Z</time></trkpt><trkpt lat="43.9146972" lon="12.640287"><ele>67.5</ele><time>2026-05-02T04:51:14.813Z</time></trkpt><trkpt lat="43.9147195" lon="12.6401072"><ele>69.0</ele><time>2026-05-02T04:51:15.813Z</time></trkpt><trkpt lat="43.9147412" lon="12.6399415"><ele>70.5</ele><time>2026-05-02T04:51:16.811Z</time></trkpt><trkpt lat="43.9147795" lon="12.6398038"><ele>72.0</ele><time>2026-05-02T04:51:17.82Z</time></trkpt><trkpt lat="43.9148171" lon="12.6396841"><ele>72.0</ele><time>2026-05-02T04:51:18.811Z</time></trkpt><trkpt lat="43.9148541" lon="12.6395777"><ele>72.0</ele><time>2026-05-02T04:51:19.826Z</time></trkpt><trkpt lat="43.9148682" lon="12.6394727"><ele>72.0</ele><time>2026-05-02T04:51:20.807Z</time></trkpt><trkpt lat="43.9148367" lon="12.6393864"><ele>72.0</ele><time>2026-05-02T04:51:21.814Z</time></trkpt><trkpt lat="43.9147859" lon="12.6393192"><ele>72.0</ele><time>2026-05-02T04:51:22.804Z</time></trkpt><trkpt lat="43.9147157" lon="12.6392506"><ele>72.0</ele><time>2026-05-02T04:51:23.813Z</time></trkpt><trkpt lat="43.9146477" lon="12.639167"><ele>72.25</ele><time>2026-05-02T04:51:24.807Z</time></trkpt><trkpt lat="43.9145812" lon="12.6390642"><ele>72.5</ele><time>2026-05-02T04:51:25.808Z</time></trkpt><trkpt lat="43.9145147" lon="12.6389353"><ele>72.75</ele><time>2026-05-02T04:51:26.815Z</time></trkpt><trkpt lat="43.9144445" lon="12.6387992"><ele>73.0</ele><time>2026-05-02T04:51:27.821Z</time></trkpt><trkpt lat="43.9143701" lon="12.6386521"><ele>73.0</ele><time>2026-05-02T04:51:28.825Z</time></trkpt><trkpt lat="43.9142929" lon="12.6385026"><ele>73.0</ele><time>2026-05-02T04:51:29.845Z</time></trkpt><trkpt lat="43.9142124" lon="12.638349"><ele>73.0</ele><time>2026-05-02T04:51:30.813Z</time></trkpt><trkpt lat="43.914129" lon="12.6381839"><ele>73.0</ele><time>2026-05-02T04:51:31.817Z</time></trkpt><trkpt lat="43.9140489" lon="12.6380162"><ele>73.0</ele><time>2026-05-02T04:51:32.813Z</time></trkpt><trkpt lat="43.9139692" lon="12.6378495"><ele>73.0</ele><time>2026-05-02T04:51:33.842Z</time></trkpt><trkpt lat="43.9138891" lon="12.6376869"><ele>73.0</ele><time>2026-05-02T04:51:34.813Z</time></trkpt><trkpt lat="43.9138134" lon="12.6375348"><ele>73.0</ele><time>2026-05-02T04:51:35.828Z</time></trkpt><trkpt lat="43.9137413" lon="12.6373911"><ele>73.0</ele><time>2026-05-02T04:51:36.811Z</time></trkpt><trkpt lat="43.9136691" lon="12.6372465"><ele>73.0</ele><time>2026-05-02T04:51:37.838Z</time></trkpt><trkpt lat="43.9136003" lon="12.6371062"><ele>73.0</ele><time>2026-05-02T04:51:38.809Z</time></trkpt><trkpt lat="43.9135329" lon="12.6369643"><ele>73.0</ele><time>2026-05-02T04:51:39.82Z</time></trkpt><trkpt lat="43.9134685" lon="12.6368157"><ele>73.0</ele><time>2026-05-02T04:51:40.816Z</time></trkpt><trkpt lat="43.9134029" lon="12.6366534"><ele>73.0</ele><time>2026-05-02T04:51:41.827Z</time></trkpt><trkpt lat="43.9133446" lon="12.6364838"><ele>73.0</ele><time>2026-05-02T04:51:42.812Z</time></trkpt><trkpt lat="43.9132965" lon="12.6363039"><ele>73.0</ele><time>2026-05-02T04:51:43.828Z</time></trkpt><trkpt lat="43.9132581" lon="12.6361173"><ele>73.0</ele><time>2026-05-02T04:51:44.828Z</time></trkpt><trkpt lat="43.9132381" lon="12.6359196"><ele>73.0</ele><time>2026-05-02T04:51:45.823Z</time></trkpt><trkpt lat="43.913234" lon="12.6357213"><ele>73.0</ele><time>2026-05-02T04:51:46.818Z</time></trkpt><trkpt lat="43.9132332" lon="12.6355215"><ele>73.0</ele><time>2026-05-02T04:51:47.825Z</time></trkpt><trkpt lat="43.9132368" lon="12.6353206"><ele>73.25</ele><time>2026-05-02T04:51:48.823Z</time></trkpt><trkpt lat="43.9132338" lon="12.635117"><ele>73.5</ele><time>2026-05-02T04:51:49.831Z</time></trkpt><trkpt lat="43.9132327" lon="12.6349156"><ele>73.75</ele><time>2026-05-02T04:51:50.82Z</time></trkpt><trkpt lat="43.913235" lon="12.6347172"><ele>74.0</ele><time>2026-05-02T04:51:51.826Z</time></trkpt><trkpt lat="43.9132397" lon="12.6345182"><ele>74.5</ele><time>2026-05-02T04:51:52.816Z</time></trkpt><trkpt lat="43.9132428" lon="12.6343232"><ele>75.0</ele><time>2026-05-02T04:51:53.832Z</time></trkpt><trkpt lat="43.9132549" lon="12.6341336"><ele>75.5</ele><time>2026-05-02T04:51:54.82Z</time></trkpt><trkpt lat="43.9132613" lon="12.6339344"><ele>76.0</ele><time>2026-05-02T04:51:55.828Z</time></trkpt><trkpt lat="43.9132671" lon="12.6337279"><ele>77.0</ele><time>2026-05-02T04:51:56.829Z</time></trkpt><trkpt lat="43.9132723" lon="12.633517"><ele>78.0</ele><time>2026-05-02T04:51:57.82Z</time></trkpt><trkpt lat="43.913273" lon="12.6333106"><ele>79.0</ele><time>2026-05-02T04:51:58.829Z</time></trkpt><trkpt lat="43.9132748" lon="12.6331071"><ele>80.0</ele><time>2026-05-02T04:51:59.829Z</time></trkpt><trkpt lat="43.9132772" lon="12.632907"><ele>80.5</ele><time>2026-05-02T04:52:00.82Z</time></trkpt><trkpt lat="43.9132828" lon="12.6327108"><ele>81.0</ele><time>2026-05-02T04:52:01.828Z</time></trkpt><trkpt lat="43.9132912" lon="12.6325166"><ele>81.5</ele><time>2026-05-02T04:52:02.82Z</time></trkpt><trkpt lat="43.9132964" lon="12.6323169"><ele>82.0</ele><time>2026-05-02T04:52:03.829Z</time></trkpt><trkpt lat="43.9133004" lon="12.6321117"><ele>82.33333333333333</ele><time>2026-05-02T04:52:04.813Z</time></trkpt><trkpt lat="43.9133061" lon="12.6319035"><ele>82.66666666666667</ele><time>2026-05-02T04:52:05.834Z</time></trkpt><trkpt lat="43.9133114" lon="12.631694"><ele>83.0</ele><time>2026-05-02T04:52:06.816Z</time></trkpt><trkpt lat="43.9133156" lon="12.6314826"><ele>83.0</ele><time>2026-05-02T04:52:07.829Z</time></trkpt><trkpt lat="43.913322" lon="12.6312716"><ele>83.0</ele><time>2026-05-02T04:52:08.827Z</time></trkpt><trkpt lat="43.9133306" lon="12.6310583"><ele>83.0</ele><time>2026-05-02T04:52:09.805Z</time></trkpt><trkpt lat="43.9133379" lon="12.630843"><ele>83.0</ele><time>2026-05-02T04:52:10.819Z</time></trkpt><trkpt lat="43.9133415" lon="12.6306293"><ele>83.0</ele><time>2026-05-02T04:52:11.817Z</time></trkpt><trkpt lat="43.9133426" lon="12.630414"><ele>83.0</ele><time>2026-05-02T04:52:12.819Z</time></trkpt><trkpt lat="43.9133485" lon="12.6302062"><ele>83.0</ele><time>2026-05-02T04:52:13.828Z</time></trkpt><trkpt lat="43.9133519" lon="12.6299985"><ele>83.0</ele><time>2026-05-02T04:52:14.812Z</time></trkpt><trkpt lat="43.9133563" lon="12.6297972"><ele>83.0</ele><time>2026-05-02T04:52:15.827Z</time></trkpt><trkpt lat="43.9133588" lon="12.6295954"><ele>83.0</ele><time>2026-05-02T04:52:16.817Z</time></trkpt><trkpt lat="43.9133598" lon="12.6293914"><ele>83.33333333333334</ele><time>2026-05-02T04:52:17.822Z</time></trkpt><trkpt lat="43.9133601" lon="12.6291822"><ele>83.66666666666667</ele><time>2026-05-02T04:52:18.825Z</time></trkpt><trkpt lat="43.9133669" lon="12.6289724"><ele>84.0</ele><time>2026-05-02T04:52:19.809Z</time></trkpt><trkpt lat="43.9133706" lon="12.6287556"><ele>84.33333333333333</ele><time>2026-05-02T04:52:20.809Z</time></trkpt><trkpt lat="43.9133738" lon="12.6285377"><ele>84.66666666666666</ele><time>2026-05-02T04:52:21.825Z</time></trkpt><trkpt lat="43.9133775" lon="12.6283166"><ele>85.0</ele><time>2026-05-02T04:52:22.813Z</time></trkpt><trkpt lat="43.9133831" lon="12.6281001"><ele>85.0</ele><time>2026-05-02T04:52:23.809Z</time></trkpt><trkpt lat="43.9133875" lon="12.627887"><ele>85.0</ele><time>2026-05-02T04:52:24.816Z</time></trkpt><trkpt lat="43.9133923" lon="12.6276829"><ele>85.0</ele><time>2026-05-02T04:52:25.818Z</time></trkpt><trkpt lat="43.9133941" lon="12.6274999"><ele>85.0</ele><time>2026-05-02T04:52:26.819Z</time></trkpt><trkpt lat="43.9134004" lon="12.6273357"><ele>85.2</ele><time>2026-05-02T04:52:27.822Z</time></trkpt><trkpt lat="43.9134039" lon="12.6271798"><ele>85.4</ele><time>2026-05-02T04:52:28.816Z</time></trkpt><trkpt lat="43.9134054" lon="12.6270231"><ele>85.6</ele><time>2026-05-02T04:52:29.822Z</time></trkpt><trkpt lat="43.9134032" lon="12.6268713"><ele>85.8</ele><time>2026-05-02T04:52:30.804Z</time></trkpt><trkpt lat="43.9133926" lon="12.6267245"><ele>86.0</ele><time>2026-05-02T04:52:31.823Z</time></trkpt><trkpt lat="43.9133872" lon="12.6265792"><ele>86.25</ele><time>2026-05-02T04:52:32.817Z</time></trkpt><trkpt lat="43.9133889" lon="12.6264248"><ele>86.5</ele><time>2026-05-02T04:52:33.818Z</time></trkpt><trkpt lat="43.9133939" lon="12.626257"><ele>86.75</ele><time>2026-05-02T04:52:34.813Z</time></trkpt><trkpt lat="43.9134093" lon="12.6260845"><ele>87.0</ele><time>2026-05-02T04:52:35.815Z</time></trkpt><trkpt lat="43.9134225" lon="12.6259092"><ele>87.75</ele><time>2026-05-02T04:52:36.804Z</time></trkpt><trkpt lat="43.9134308" lon="12.6257342"><ele>88.5</ele><time>2026-05-02T04:52:37.831Z</time></trkpt><trkpt lat="43.9134365" lon="12.625548"><ele>89.25</ele><time>2026-05-02T04:52:38.825Z</time></trkpt><trkpt lat="43.9134469" lon="12.6253559"><ele>90.0</ele><time>2026-05-02T04:52:39.824Z</time></trkpt><trkpt lat="43.9134514" lon="12.6251551"><ele>90.0</ele><time>2026-05-02T04:52:40.821Z</time></trkpt><trkpt lat="43.9134591" lon="12.624957"><ele>90.0</ele><time>2026-05-02T04:52:41.817Z</time></trkpt><trkpt lat="43.9134679" lon="12.6247594"><ele>90.0</ele><time>2026-05-02T04:52:42.812Z</time></trkpt><trkpt lat="43.9134708" lon="12.6245534"><ele>90.0</ele><time>2026-05-02T04:52:43.827Z</time></trkpt><trkpt lat="43.9134782" lon="12.6243516"><ele>89.75</ele><time>2026-05-02T04:52:44.82Z</time></trkpt><trkpt lat="43.9134829" lon="12.6241485"><ele>89.5</ele><time>2026-05-02T04:52:45.843Z</time></trkpt><trkpt lat="43.9134826" lon="12.6239396"><ele>89.25</ele><time>2026-05-02T04:52:46.823Z</time></trkpt><trkpt lat="43.9134864" lon="12.6237367"><ele>89.0</ele><time>2026-05-02T04:52:47.835Z</time></trkpt><trkpt lat="43.9134931" lon="12.6235347"><ele>90.0</ele><time>2026-05-02T04:52:48.815Z</time></trkpt><trkpt lat="43.9134986" lon="12.6233341"><ele>91.0</ele><time>2026-05-02T04:52:49.84Z</time></trkpt><trkpt lat="43.9135022" lon="12.6231344"><ele>92.0</ele><time>2026-05-02T04:52:50.825Z</time></trkpt><trkpt lat="43.9135077" lon="12.6229361"><ele>93.0</ele><time>2026-05-02T04:52:51.83Z</time></trkpt><trkpt lat="43.9135149" lon="12.6227373"><ele>93.0</ele><time>2026-05-02T04:52:52.808Z</time></trkpt><trkpt lat="43.9135199" lon="12.622534"><ele>93.0</ele><time>2026-05-02T04:52:53.814Z</time></trkpt><trkpt lat="43.9135251" lon="12.6223289"><ele>93.0</ele><time>2026-05-02T04:52:54.818Z</time></trkpt><trkpt lat="43.91353" lon="12.6221207"><ele>93.0</ele><time>2026-05-02T04:52:55.823Z</time></trkpt><trkpt lat="43.9135349" lon="12.6219173"><ele>94.25</ele><time>2026-05-02T04:52:56.82Z</time></trkpt><trkpt lat="43.9135397" lon="12.6217197"><ele>95.5</ele><time>2026-05-02T04:52:57.833Z</time></trkpt><trkpt lat="43.9135466" lon="12.6215295"><ele>96.75</ele><time>2026-05-02T04:52:58.817Z</time></trkpt><trkpt lat="43.9135519" lon="12.6213454"><ele>98.0</ele><time>2026-05-02T04:52:59.838Z</time></trkpt><trkpt lat="43.9135572" lon="12.6211608"><ele>99.0</ele><time>2026-05-02T04:53:00.811Z</time></trkpt><trkpt lat="43.9135606" lon="12.6209702"><ele>100.0</ele><time>2026-05-02T04:53:01.843Z</time></trkpt><trkpt lat="43.9135625" lon="12.6207705"><ele>101.0</ele><time>2026-05-02T04:53:02.812Z</time></trkpt><trkpt lat="43.9135683" lon="12.6205664"><ele>102.0</ele><time>2026-05-02T04:53:03.849Z</time></trkpt><trkpt lat="43.9135687" lon="12.6203537"><ele>102.33333333333334</ele><time>2026-05-02T04:53:04.815Z</time></trkpt><trkpt lat="43.9135754" lon="12.6201382"><ele>102.66666666666667</ele><time>2026-05-02T04:53:05.818Z</time></trkpt><trkpt lat="43.9135852" lon="12.6199248"><ele>103.0</ele><time>2026-05-02T04:53:06.814Z</time></trkpt><trkpt lat="43.9135927" lon="12.6197067"><ele>103.0</ele><time>2026-05-02T04:53:07.85Z</time></trkpt><trkpt lat="43.913597" lon="12.619485"><ele>103.0</ele><time>2026-05-02T04:53:08.814Z</time></trkpt><trkpt lat="43.9136026" lon="12.6192669"><ele>103.0</ele><time>2026-05-02T04:53:09.818Z</time></trkpt><trkpt lat="43.9136061" lon="12.6190499"><ele>103.66666666666667</ele><time>2026-05-02T04:53:10.813Z</time></trkpt><trkpt lat="43.91361" lon="12.6188346"><ele>104.33333333333334</ele><time>2026-05-02T04:53:11.824Z</time></trkpt><trkpt lat="43.9136116" lon="12.6186214"><ele>105.0</ele><time>2026-05-02T04:53:12.815Z</time></trkpt><trkpt lat="43.9136178" lon="12.6184077"><ele>105.66666666666666</ele><time>2026-05-02T04:53:13.821Z</time></trkpt><trkpt lat="43.9136267" lon="12.6181958"><ele>106.33333333333333</ele><time>2026-05-02T04:53:14.815Z</time></trkpt><trkpt lat="43.9136327" lon="12.6179754"><ele>107.0</ele><time>2026-05-02T04:53:15.828Z</time></trkpt><trkpt lat="43.9136433" lon="12.6177593"><ele>107.0</ele><time>2026-05-02T04:53:16.801Z</time></trkpt><trkpt lat="43.9136494" lon="12.6175409"><ele>107.0</ele><time>2026-05-02T04:53:17.819Z</time></trkpt><trkpt lat="43.913652" lon="12.617321"><ele>107.0</ele><time>2026-05-02T04:53:18.812Z</time></trkpt><trkpt lat="43.9136584" lon="12.6171011"><ele>106.33333333333333</ele><time>2026-05-02T04:53:19.823Z</time></trkpt><trkpt lat="43.9136661" lon="12.6168815"><ele>105.66666666666666</ele><time>2026-05-02T04:53:20.816Z</time></trkpt><trkpt lat="43.9136707" lon="12.6166615"><ele>105.0</ele><time>2026-05-02T04:53:21.827Z</time></trkpt><trkpt lat="43.9136783" lon="12.6164473"><ele>105.0</ele><time>2026-05-02T04:53:22.826Z</time></trkpt><trkpt lat="43.913687" lon="12.6162288"><ele>105.0</ele><time>2026-05-02T04:53:23.824Z</time></trkpt><trkpt lat="43.9136946" lon="12.61601"><ele>105.0</ele><time>2026-05-02T04:53:24.811Z</time></trkpt><trkpt lat="43.9137" lon="12.6157854"><ele>105.66666666666666</ele><time>2026-05-02T04:53:25.837Z</time></trkpt><trkpt lat="43.9137063" lon="12.615555"><ele>106.33333333333333</ele><time>2026-05-02T04:53:26.818Z</time></trkpt><trkpt lat="43.9137149" lon="12.6153202"><ele>107.0</ele><time>2026-05-02T04:53:27.831Z</time></trkpt><trkpt lat="43.9137237" lon="12.6150886"><ele>107.33333333333333</ele><time>2026-05-02T04:53:28.817Z</time></trkpt><trkpt lat="43.9137295" lon="12.6148546"><ele>107.66666666666666</ele><time>2026-05-02T04:53:29.825Z</time></trkpt><trkpt lat="43.9137445" lon="12.6146292"><ele>108.0</ele><time>2026-05-02T04:53:30.821Z</time></trkpt><trkpt lat="43.9137587" lon="12.6144059"><ele>107.33333333333334</ele><time>2026-05-02T04:53:31.833Z</time></trkpt><trkpt lat="43.9137758" lon="12.6141826"><ele>106.66666666666667</ele><time>2026-05-02T04:53:32.815Z</time></trkpt><trkpt lat="43.913799" lon="12.6139641"><ele>106.0</ele><time>2026-05-02T04:53:33.835Z</time></trkpt><trkpt lat="43.9138208" lon="12.6137445"><ele>105.66666666666667</ele><time>2026-05-02T04:53:34.823Z</time></trkpt><trkpt lat="43.9138457" lon="12.6135253"><ele>105.33333333333334</ele><time>2026-05-02T04:53:35.817Z</time></trkpt><trkpt lat="43.9138843" lon="12.6133137"><ele>105.0</ele><time>2026-05-02T04:53:36.817Z</time></trkpt><trkpt lat="43.9139251" lon="12.6131023"><ele>105.0</ele><time>2026-05-02T04:53:37.82Z</time></trkpt><trkpt lat="43.9139657" lon="12.6128891"><ele>105.0</ele><time>2026-05-02T04:53:38.814Z</time></trkpt><trkpt lat="43.9140187" lon="12.6126784"><ele>105.0</ele><time>2026-05-02T04:53:39.829Z</time></trkpt><trkpt lat="43.9140744" lon="12.6124647"><ele>105.0</ele><time>2026-05-02T04:53:40.817Z</time></trkpt><trkpt lat="43.9141328" lon="12.6122521"><ele>105.0</ele><time>2026-05-02T04:53:41.834Z</time></trkpt><trkpt lat="43.9141978" lon="12.6120479"><ele>105.0</ele><time>2026-05-02T04:53:42.809Z</time></trkpt><trkpt lat="43.9142649" lon="12.6118537"><ele>106.66666666666666</ele><time>2026-05-02T04:53:43.826Z</time></trkpt><trkpt lat="43.9143301" lon="12.611661"><ele>108.33333333333333</ele><time>2026-05-02T04:53:44.822Z</time></trkpt><trkpt lat="43.9143899" lon="12.6114637"><ele>110.0</ele><time>2026-05-02T04:53:45.831Z</time></trkpt><trkpt lat="43.9144505" lon="12.6112729"><ele>109.66666666666666</ele><time>2026-05-02T04:53:46.817Z</time></trkpt><trkpt lat="43.9145127" lon="12.6110765"><ele>109.33333333333334</ele><time>2026-05-02T04:53:47.825Z</time></trkpt><trkpt lat="43.9145757" lon="12.6108778"><ele>109.0</ele><time>2026-05-02T04:53:48.812Z</time></trkpt><trkpt lat="43.9146391" lon="12.6106737"><ele>109.0</ele><time>2026-05-02T04:53:49.811Z</time></trkpt><trkpt lat="43.9146949" lon="12.6104556"><ele>109.0</ele><time>2026-05-02T04:53:50.811Z</time></trkpt><trkpt lat="43.9147401" lon="12.6102277"><ele>109.0</ele><time>2026-05-02T04:53:51.824Z</time></trkpt><trkpt lat="43.9147784" lon="12.6099951"><ele>109.0</ele><time>2026-05-02T04:53:52.805Z</time></trkpt><trkpt lat="43.9148096" lon="12.6097516"><ele>109.0</ele><time>2026-05-02T04:53:53.82Z</time></trkpt><trkpt lat="43.9148429" lon="12.6095088"><ele>109.0</ele><time>2026-05-02T04:53:54.813Z</time></trkpt><trkpt lat="43.9148737" lon="12.6092688"><ele>109.0</ele><time>2026-05-02T04:53:55.821Z</time></trkpt><trkpt lat="43.914903" lon="12.609031"><ele>109.0</ele><time>2026-05-02T04:53:56.819Z</time></trkpt><trkpt lat="43.9149291" lon="12.6087913"><ele>109.0</ele><time>2026-05-02T04:53:57.815Z</time></trkpt><trkpt lat="43.9149525" lon="12.6085505"><ele>109.66666666666667</ele><time>2026-05-02T04:53:58.809Z</time></trkpt><trkpt lat="43.9149817" lon="12.6083096"><ele>110.33333333333334</ele><time>2026-05-02T04:53:59.812Z</time></trkpt><trkpt lat="43.9150092" lon="12.6080662"><ele>111.0</ele><time>2026-05-02T04:54:00.806Z</time></trkpt><trkpt lat="43.9150393" lon="12.6078241"><ele>111.0</ele><time>2026-05-02T04:54:01.81Z</time></trkpt><trkpt lat="43.9150706" lon="12.6075814"><ele>111.0</ele><time>2026-05-02T04:54:02.807Z</time></trkpt><trkpt lat="43.9151" lon="12.6073382"><ele>111.0</ele><time>2026-05-02T04:54:03.802Z</time></trkpt><trkpt lat="43.9151326" lon="12.6070977"><ele>112.0</ele><time>2026-05-02T04:54:04.803Z</time></trkpt><trkpt lat="43.9151633" lon="12.6068566"><ele>113.0</ele><time>2026-05-02T04:54:05.818Z</time></trkpt><trkpt lat="43.9151929" lon="12.6066161"><ele>114.0</ele><time>2026-05-02T04:54:06.811Z</time></trkpt><trkpt lat="43.9152215" lon="12.606375"><ele>113.66666666666666</ele><time>2026-05-02T04:54:07.844Z</time></trkpt><trkpt lat="43.9152476" lon="12.6061345"><ele>113.33333333333333</ele><time>2026-05-02T04:54:08.821Z</time></trkpt><trkpt lat="43.9152777" lon="12.6058981"><ele>113.0</ele><time>2026-05-02T04:54:09.835Z</time></trkpt><trkpt lat="43.9153086" lon="12.60566"><ele>113.0</ele><time>2026-05-02T04:54:10.823Z</time></trkpt><trkpt lat="43.9153397" lon="12.6054221"><ele>113.0</ele><time>2026-05-02T04:54:11.819Z</time></trkpt><trkpt lat="43.915371" lon="12.6051816"><ele>113.0</ele><time>2026-05-02T04:54:12.803Z</time></trkpt><trkpt lat="43.9154002" lon="12.604941"><ele>113.33333333333333</ele><time>2026-05-02T04:54:13.824Z</time></trkpt><trkpt lat="43.9154283" lon="12.6047027"><ele>113.66666666666666</ele><time>2026-05-02T04:54:14.82Z</time></trkpt><trkpt lat="43.9154573" lon="12.604467"><ele>114.0</ele><time>2026-05-02T04:54:15.82Z</time></trkpt><trkpt lat="43.9154874" lon="12.6042392"><ele>114.33333333333334</ele><time>2026-05-02T04:54:16.808Z</time></trkpt><trkpt lat="43.915514" lon="12.6040153"><ele>114.66666666666667</ele><time>2026-05-02T04:54:17.836Z</time></trkpt><trkpt lat="43.9155381" lon="12.6037995"><ele>115.0</ele><time>2026-05-02T04:54:18.82Z</time></trkpt><trkpt lat="43.9155653" lon="12.6035853"><ele>116.0</ele><time>2026-05-02T04:54:19.82Z</time></trkpt><trkpt lat="43.9155931" lon="12.6033771"><ele>117.0</ele><time>2026-05-02T04:54:20.807Z</time></trkpt><trkpt lat="43.9156194" lon="12.6031707"><ele>118.0</ele><time>2026-05-02T04:54:21.82Z</time></trkpt><trkpt lat="43.915653" lon="12.6029633"><ele>118.66666666666667</ele><time>2026-05-02T04:54:22.807Z</time></trkpt><trkpt lat="43.915695" lon="12.6027595"><ele>119.33333333333334</ele><time>2026-05-02T04:54:23.816Z</time></trkpt><trkpt lat="43.915743" lon="12.6025538"><ele>120.0</ele><time>2026-05-02T04:54:24.815Z</time></trkpt><trkpt lat="43.9157983" lon="12.6023525"><ele>120.0</ele><time>2026-05-02T04:54:25.818Z</time></trkpt><trkpt lat="43.9158551" lon="12.6021554"><ele>120.0</ele><time>2026-05-02T04:54:26.805Z</time></trkpt><trkpt lat="43.9159126" lon="12.601966"><ele>120.0</ele><time>2026-05-02T04:54:27.817Z</time></trkpt><trkpt lat="43.9159688" lon="12.6017839"><ele>120.0</ele><time>2026-05-02T04:54:28.82Z</time></trkpt><trkpt lat="43.9160214" lon="12.6016139"><ele>120.2</ele><time>2026-05-02T04:54:29.813Z</time></trkpt><trkpt lat="43.916069" lon="12.6014567"><ele>120.4</ele><time>2026-05-02T04:54:30.812Z</time></trkpt><trkpt lat="43.9161094" lon="12.6013127"><ele>120.6</ele><time>2026-05-02T04:54:31.813Z</time></trkpt><trkpt lat="43.9161514" lon="12.6011791"><ele>120.8</ele><time>2026-05-02T04:54:32.816Z</time></trkpt><trkpt lat="43.9161931" lon="12.6010538"><ele>121.0</ele><time>2026-05-02T04:54:33.811Z</time></trkpt><trkpt lat="43.9162277" lon="12.6009394"><ele>121.16666666666667</ele><time>2026-05-02T04:54:34.811Z</time></trkpt><trkpt lat="43.9162445" lon="12.6008376"><ele>121.33333333333334</ele><time>2026-05-02T04:54:35.813Z</time></trkpt><trkpt lat="43.9162402" lon="12.600744"><ele>121.5</ele><time>2026-05-02T04:54:36.799Z</time></trkpt><trkpt lat="43.9161985" lon="12.6006623"><ele>121.66666666666666</ele><time>2026-05-02T04:54:37.813Z</time></trkpt><trkpt lat="43.9161281" lon="12.6005981"><ele>121.83333333333333</ele><time>2026-05-02T04:54:38.814Z</time></trkpt><trkpt lat="43.9160401" lon="12.6005424"><ele>122.0</ele><time>2026-05-02T04:54:39.812Z</time></trkpt><trkpt lat="43.9159439" lon="12.6004844"><ele>121.25</ele><time>2026-05-02T04:54:40.812Z</time></trkpt><trkpt lat="43.9158416" lon="12.6004199"><ele>120.5</ele><time>2026-05-02T04:54:41.834Z</time></trkpt><trkpt lat="43.9157351" lon="12.6003497"><ele>119.75</ele><time>2026-05-02T04:54:42.815Z</time></trkpt><trkpt lat="43.9156232" lon="12.6002756"><ele>119.0</ele><time>2026-05-02T04:54:43.836Z</time></trkpt><trkpt lat="43.9155094" lon="12.6001978"><ele>118.5</ele><time>2026-05-02T04:54:44.805Z</time></trkpt><trkpt lat="43.9153977" lon="12.6001184"><ele>118.0</ele><time>2026-05-02T04:54:45.834Z</time></trkpt><trkpt lat="43.9152825" lon="12.6000402"><ele>117.5</ele><time>2026-05-02T04:54:46.828Z</time></trkpt><trkpt lat="43.9151587" lon="12.5999639"><ele>117.0</ele><time>2026-05-02T04:54:47.825Z</time></trkpt><trkpt lat="43.9150317" lon="12.5998776"><ele>115.66666666666666</ele><time>2026-05-02T04:54:48.816Z</time></trkpt><trkpt lat="43.9148936" lon="12.5997859"><ele>114.33333333333333</ele><time>2026-05-02T04:54:49.832Z</time></trkpt><trkpt lat="43.9147523" lon="12.5996919"><ele>113.0</ele><time>2026-05-02T04:54:50.813Z</time></trkpt><trkpt lat="43.9146086" lon="12.5995988"><ele>113.0</ele><time>2026-05-02T04:54:51.801Z</time></trkpt><trkpt lat="43.9144642" lon="12.5995009"><ele>113.0</ele><time>2026-05-02T04:54:52.813Z</time></trkpt><trkpt lat="43.9143223" lon="12.5994012"><ele>113.0</ele><time>2026-05-02T04:54:53.819Z</time></trkpt><trkpt lat="43.9141823" lon="12.5993042"><ele>112.0</ele><time>2026-05-02T04:54:54.816Z</time></trkpt><trkpt lat="43.9140513" lon="12.5992137"><ele>111.0</ele><time>2026-05-02T04:54:55.81Z</time></trkpt><trkpt lat="43.9139312" lon="12.5991324"><ele>110.0</ele><time>2026-05-02T04:54:56.811Z</time></trkpt><trkpt lat="43.913818" lon="12.5990517"><ele>109.0</ele><time>2026-05-02T04:54:57.813Z</time></trkpt><trkpt lat="43.9136958" lon="12.5989722"><ele>109.0</ele><time>2026-05-02T04:54:58.817Z</time></trkpt><trkpt lat="43.9135786" lon="12.5988949"><ele>109.0</ele><time>2026-05-02T04:54:59.813Z</time></trkpt><trkpt lat="43.9134724" lon="12.5988207"><ele>109.0</ele><time>2026-05-02T04:55:00.801Z</time></trkpt><trkpt lat="43.9133703" lon="12.5987543"><ele>109.0</ele><time>2026-05-02T04:55:01.815Z</time></trkpt><trkpt lat="43.9132674" lon="12.5986809"><ele>108.75</ele><time>2026-05-02T04:55:02.804Z</time></trkpt><trkpt lat="43.9131612" lon="12.5986103"><ele>108.5</ele><time>2026-05-02T04:55:03.814Z</time></trkpt><trkpt lat="43.9130529" lon="12.5985393"><ele>108.25</ele><time>2026-05-02T04:55:04.8Z</time></trkpt><trkpt lat="43.9129463" lon="12.5984869"><ele>108.0</ele><time>2026-05-02T04:55:05.816Z</time></trkpt><trkpt lat="43.9128493" lon="12.598446"><ele>108.0</ele><time>2026-05-02T04:55:06.809Z</time></trkpt><trkpt lat="43.9127615" lon="12.5984106"><ele>108.0</ele><time>2026-05-02T04:55:07.817Z</time></trkpt><trkpt lat="43.9126863" lon="12.5983834"><ele>108.0</ele><time>2026-05-02T04:55:08.807Z</time></trkpt><trkpt lat="43.9126281" lon="12.5983494"><ele>108.0</ele><time>2026-05-02T04:55:09.82Z</time></trkpt><trkpt lat="43.9125674" lon="12.5982159"><ele>108.0</ele><time>2026-05-02T04:55:11.814Z</time></trkpt><trkpt lat="43.9125893" lon="12.5981269"><ele>108.0</ele><time>2026-05-02T04:55:12.816Z</time></trkpt><trkpt lat="43.9126273" lon="12.5980363"><ele>108.0</ele><time>2026-05-02T04:55:13.808Z</time></trkpt><trkpt lat="43.9126654" lon="12.5979243"><ele>108.00000000000001</ele><time>2026-05-02T04:55:14.818Z</time></trkpt><trkpt lat="43.9127179" lon="12.5978093"><ele>108.00000000000001</ele><time>2026-05-02T04:55:15.805Z</time></trkpt><trkpt lat="43.9127703" lon="12.5976768"><ele>108.0</ele><time>2026-05-02T04:55:16.809Z</time></trkpt><trkpt lat="43.9128245" lon="12.5975318"><ele>108.0</ele><time>2026-05-02T04:55:17.812Z</time></trkpt><trkpt lat="43.9128842" lon="12.597384"><ele>108.0</ele><time>2026-05-02T04:55:18.812Z</time></trkpt><trkpt lat="43.9129473" lon="12.5972311"><ele>108.0</ele><time>2026-05-02T04:55:19.817Z</time></trkpt><trkpt lat="43.9130152" lon="12.597079"><ele>108.0</ele><time>2026-05-02T04:55:20.816Z</time></trkpt><trkpt lat="43.9130817" lon="12.5969195"><ele>108.0</ele><time>2026-05-02T04:55:21.814Z</time></trkpt><trkpt lat="43.9131439" lon="12.5967583"><ele>108.0</ele><time>2026-05-02T04:55:22.798Z</time></trkpt><trkpt lat="43.9132067" lon="12.5965991"><ele>108.0</ele><time>2026-05-02T04:55:23.812Z</time></trkpt><trkpt lat="43.9132703" lon="12.5964427"><ele>108.0</ele><time>2026-05-02T04:55:24.806Z</time></trkpt><trkpt lat="43.9133281" lon="12.5962848"><ele>108.0</ele><time>2026-05-02T04:55:25.808Z</time></trkpt><trkpt lat="43.9133867" lon="12.5961295"><ele>108.25</ele><time>2026-05-02T04:55:26.81Z</time></trkpt><trkpt lat="43.9134483" lon="12.5959741"><ele>108.5</ele><time>2026-05-02T04:55:27.818Z</time></trkpt><trkpt lat="43.9135094" lon="12.5958211"><ele>108.75</ele><time>2026-05-02T04:55:28.808Z</time></trkpt><trkpt lat="43.9135685" lon="12.5956726"><ele>109.0</ele><time>2026-05-02T04:55:29.811Z</time></trkpt><trkpt lat="43.913629" lon="12.5955242"><ele>109.0</ele><time>2026-05-02T04:55:30.806Z</time></trkpt><trkpt lat="43.9136909" lon="12.5953768"><ele>109.0</ele><time>2026-05-02T04:55:31.797Z</time></trkpt><trkpt lat="43.9137546" lon="12.5952331"><ele>109.0</ele><time>2026-05-02T04:55:32.813Z</time></trkpt><trkpt lat="43.9138216" lon="12.5950895"><ele>109.0</ele><time>2026-05-02T04:55:33.811Z</time></trkpt><trkpt lat="43.9138954" lon="12.5949531"><ele>109.25</ele><time>2026-05-02T04:55:34.808Z</time></trkpt><trkpt lat="43.9139719" lon="12.5948257"><ele>109.5</ele><time>2026-05-02T04:55:35.808Z</time></trkpt><trkpt lat="43.9140531" lon="12.5947049"><ele>109.75</ele><time>2026-05-02T04:55:36.809Z</time></trkpt><trkpt lat="43.9141346" lon="12.5945791"><ele>110.0</ele><time>2026-05-02T04:55:37.808Z</time></trkpt><trkpt lat="43.9142122" lon="12.5944488"><ele>110.75</ele><time>2026-05-02T04:55:38.804Z</time></trkpt><trkpt lat="43.9142811" lon="12.5943052"><ele>111.5</ele><time>2026-05-02T04:55:39.816Z</time></trkpt><trkpt lat="43.914341" lon="12.5941403"><ele>112.25</ele><time>2026-05-02T04:55:40.806Z</time></trkpt><trkpt lat="43.9143979" lon="12.5939651"><ele>113.0</ele><time>2026-05-02T04:55:41.816Z</time></trkpt><trkpt lat="43.9144415" lon="12.5937731"><ele>113.66666666666666</ele><time>2026-05-02T04:55:42.812Z</time></trkpt><trkpt lat="43.9144813" lon="12.5935746"><ele>114.33333333333334</ele><time>2026-05-02T04:55:43.803Z</time></trkpt><trkpt lat="43.914527" lon="12.5933696"><ele>115.0</ele><time>2026-05-02T04:55:44.806Z</time></trkpt><trkpt lat="43.9145765" lon="12.5931596"><ele>115.0</ele><time>2026-05-02T04:55:45.813Z</time></trkpt><trkpt lat="43.9146353" lon="12.592949"><ele>115.0</ele><time>2026-05-02T04:55:46.805Z</time></trkpt><trkpt lat="43.9146972" lon="12.592738"><ele>115.0</ele><time>2026-05-02T04:55:47.817Z</time></trkpt><trkpt lat="43.9147645" lon="12.5925326"><ele>114.33333333333334</ele><time>2026-05-02T04:55:48.806Z</time></trkpt><trkpt lat="43.9148301" lon="12.5923164"><ele>113.66666666666666</ele><time>2026-05-02T04:55:49.804Z</time></trkpt><trkpt lat="43.914895" lon="12.5920967"><ele>113.0</ele><time>2026-05-02T04:55:50.801Z</time></trkpt><trkpt lat="43.914959" lon="12.5918691"><ele>113.0</ele><time>2026-05-02T04:55:51.817Z</time></trkpt><trkpt lat="43.9150249" lon="12.5916426"><ele>113.0</ele><time>2026-05-02T04:55:52.816Z</time></trkpt><trkpt lat="43.9150973" lon="12.5914209"><ele>113.0</ele><time>2026-05-02T04:55:53.802Z</time></trkpt><trkpt lat="43.9151672" lon="12.591198"><ele>113.33333333333333</ele><time>2026-05-02T04:55:54.811Z</time></trkpt><trkpt lat="43.9152332" lon="12.5909784"><ele>113.66666666666666</ele><time>2026-05-02T04:55:55.816Z</time></trkpt><trkpt lat="43.9153007" lon="12.5907571"><ele>114.0</ele><time>2026-05-02T04:55:56.803Z</time></trkpt><trkpt lat="43.9153697" lon="12.5905372"><ele>114.33333333333334</ele><time>2026-05-02T04:55:57.814Z</time></trkpt><trkpt lat="43.9154302" lon="12.5903143"><ele>114.66666666666667</ele><time>2026-05-02T04:55:58.809Z</time></trkpt><trkpt lat="43.9154859" lon="12.5900957"><ele>115.0</ele><time>2026-05-02T04:55:59.817Z</time></trkpt><trkpt lat="43.9155511" lon="12.589894"><ele>115.0</ele><time>2026-05-02T04:56:00.809Z</time></trkpt><trkpt lat="43.9156152" lon="12.5896964"><ele>115.0</ele><time>2026-05-02T04:56:01.815Z</time></trkpt><trkpt lat="43.9156722" lon="12.5895036"><ele>115.0</ele><time>2026-05-02T04:56:02.812Z</time></trkpt><trkpt lat="43.9157298" lon="12.5893017"><ele>115.0</ele><time>2026-05-02T04:56:03.806Z</time></trkpt><trkpt lat="43.9157921" lon="12.5890956"><ele>115.0</ele><time>2026-05-02T04:56:04.808Z</time></trkpt><trkpt lat="43.9158516" lon="12.5888908"><ele>115.0</ele><time>2026-05-02T04:56:05.803Z</time></trkpt><trkpt lat="43.9159137" lon="12.5886976"><ele>115.0</ele><time>2026-05-02T04:56:06.809Z</time></trkpt><trkpt lat="43.9159719" lon="12.5885172"><ele>115.0</ele><time>2026-05-02T04:56:07.804Z</time></trkpt><trkpt lat="43.916021" lon="12.5883522"><ele>115.0</ele><time>2026-05-02T04:56:08.807Z</time></trkpt><trkpt lat="43.9160684" lon="12.5882003"><ele>115.0</ele><time>2026-05-02T04:56:09.809Z</time></trkpt><trkpt lat="43.9161095" lon="12.5880556"><ele>115.0</ele><time>2026-05-02T04:56:10.805Z</time></trkpt><trkpt lat="43.9161506" lon="12.5879165"><ele>115.0</ele><time>2026-05-02T04:56:11.81Z</time></trkpt><trkpt lat="43.9161946" lon="12.5877787"><ele>115.0</ele><time>2026-05-02T04:56:12.812Z</time></trkpt><trkpt lat="43.91625" lon="12.5876529"><ele>115.0</ele><time>2026-05-02T04:56:13.824Z</time></trkpt><trkpt lat="43.9163199" lon="12.5875207"><ele>115.0</ele><time>2026-05-02T04:56:14.813Z</time></trkpt><trkpt lat="43.9163968" lon="12.5873816"><ele>115.5</ele><time>2026-05-02T04:56:15.835Z</time></trkpt><trkpt lat="43.9164822" lon="12.5872439"><ele>116.0</ele><time>2026-05-02T04:56:16.804Z</time></trkpt><trkpt lat="43.9165717" lon="12.5870967"><ele>116.5</ele><time>2026-05-02T04:56:17.821Z</time></trkpt><trkpt lat="43.9166577" lon="12.5869473"><ele>117.0</ele><time>2026-05-02T04:56:18.817Z</time></trkpt><trkpt lat="43.9167461" lon="12.5868011"><ele>117.25</ele><time>2026-05-02T04:56:19.824Z</time></trkpt><trkpt lat="43.9168282" lon="12.5866605"><ele>117.5</ele><time>2026-05-02T04:56:20.808Z</time></trkpt><trkpt lat="43.9169154" lon="12.5865104"><ele>117.75</ele><time>2026-05-02T04:56:21.809Z</time></trkpt><trkpt lat="43.9170039" lon="12.5863574"><ele>118.0</ele><time>2026-05-02T04:56:22.823Z</time></trkpt><trkpt lat="43.9170964" lon="12.5862006"><ele>118.75</ele><time>2026-05-02T04:56:23.821Z</time></trkpt><trkpt lat="43.9171802" lon="12.5860443"><ele>119.5</ele><time>2026-05-02T04:56:24.816Z</time></trkpt><trkpt lat="43.917267" lon="12.5859004"><ele>120.25</ele><time>2026-05-02T04:56:25.812Z</time></trkpt><trkpt lat="43.9173462" lon="12.5857571"><ele>121.0</ele><time>2026-05-02T04:56:26.81Z</time></trkpt><trkpt lat="43.9174252" lon="12.5856117"><ele>121.0</ele><time>2026-05-02T04:56:27.83Z</time></trkpt><trkpt lat="43.9175057" lon="12.5854638"><ele>121.0</ele><time>2026-05-02T04:56:28.811Z</time></trkpt><trkpt lat="43.9175887" lon="12.5853194"><ele>121.0</ele><time>2026-05-02T04:56:29.814Z</time></trkpt><trkpt lat="43.9176659" lon="12.5851806"><ele>121.0</ele><time>2026-05-02T04:56:30.813Z</time></trkpt><trkpt lat="43.9177372" lon="12.5850533"><ele>121.25</ele><time>2026-05-02T04:56:31.819Z</time></trkpt><trkpt lat="43.9178155" lon="12.5849389"><ele>121.5</ele><time>2026-05-02T04:56:32.809Z</time></trkpt><trkpt lat="43.9179076" lon="12.584835"><ele>121.75</ele><time>2026-05-02T04:56:33.811Z</time></trkpt><trkpt lat="43.918002" lon="12.5847229"><ele>122.0</ele><time>2026-05-02T04:56:34.818Z</time></trkpt><trkpt lat="43.9180779" lon="12.5845774"><ele>122.0</ele><time>2026-05-02T04:56:35.821Z</time></trkpt><trkpt lat="43.9181301" lon="12.5844049"><ele>122.0</ele><time>2026-05-02T04:56:36.808Z</time></trkpt><trkpt lat="43.9181486" lon="12.5842137"><ele>122.0</ele><time>2026-05-02T04:56:37.814Z</time></trkpt><trkpt lat="43.9181552" lon="12.5840126"><ele>122.0</ele><time>2026-05-02T04:56:38.812Z</time></trkpt><trkpt lat="43.9181621" lon="12.5838143"><ele>121.75</ele><time>2026-05-02T04:56:39.816Z</time></trkpt><trkpt lat="43.9181776" lon="12.5836226"><ele>121.5</ele><time>2026-05-02T04:56:40.818Z</time></trkpt><trkpt lat="43.918197" lon="12.5834247"><ele>121.25</ele><time>2026-05-02T04:56:41.827Z</time></trkpt><trkpt lat="43.9182176" lon="12.5832217"><ele>121.0</ele><time>2026-05-02T04:56:42.805Z</time></trkpt><trkpt lat="43.9182421" lon="12.5830075"><ele>121.33333333333334</ele><time>2026-05-02T04:56:43.812Z</time></trkpt><trkpt lat="43.9182649" lon="12.5827922"><ele>121.66666666666666</ele><time>2026-05-02T04:56:44.803Z</time></trkpt><trkpt lat="43.9182907" lon="12.5825737"><ele>122.0</ele><time>2026-05-02T04:56:45.807Z</time></trkpt><trkpt lat="43.9183161" lon="12.5823634"><ele>122.0</ele><time>2026-05-02T04:56:46.811Z</time></trkpt><trkpt lat="43.9183406" lon="12.5821712"><ele>122.0</ele><time>2026-05-02T04:56:47.804Z</time></trkpt><trkpt lat="43.9183557" lon="12.5819909"><ele>122.0</ele><time>2026-05-02T04:56:48.809Z</time></trkpt><trkpt lat="43.9183436" lon="12.5818137"><ele>122.0</ele><time>2026-05-02T04:56:49.827Z</time></trkpt><trkpt lat="43.9182985" lon="12.5816497"><ele>122.19999999999999</ele><time>2026-05-02T04:56:50.816Z</time></trkpt><trkpt lat="43.9182297" lon="12.5815221"><ele>122.39999999999999</ele><time>2026-05-02T04:56:51.833Z</time></trkpt><trkpt lat="43.9181502" lon="12.5814247"><ele>122.60000000000001</ele><time>2026-05-02T04:56:52.807Z</time></trkpt><trkpt lat="43.9180743" lon="12.581339"><ele>122.80000000000001</ele><time>2026-05-02T04:56:53.809Z</time></trkpt><trkpt lat="43.9180146" lon="12.5812526"><ele>123.0</ele><time>2026-05-02T04:56:54.791Z</time></trkpt><trkpt lat="43.917963" lon="12.58116"><ele>123.16666666666667</ele><time>2026-05-02T04:56:55.819Z</time></trkpt><trkpt lat="43.9179181" lon="12.5810653"><ele>123.33333333333334</ele><time>2026-05-02T04:56:56.815Z</time></trkpt><trkpt lat="43.9178836" lon="12.5809733"><ele>123.5</ele><time>2026-05-02T04:56:57.814Z</time></trkpt><trkpt lat="43.9178507" lon="12.5808838"><ele>123.66666666666667</ele><time>2026-05-02T04:56:58.815Z</time></trkpt><trkpt lat="43.9178238" lon="12.5808012"><ele>123.83333333333334</ele><time>2026-05-02T04:56:59.826Z</time></trkpt><trkpt lat="43.9177826" lon="12.5806978"><ele>124.0</ele><time>2026-05-02T04:57:01.81Z</time></trkpt><trkpt lat="43.9176915" lon="12.5806263"><ele>124.00000000000001</ele><time>2026-05-02T05:01:16.811Z</time></trkpt><trkpt lat="43.9176399" lon="12.5805566"><ele>124.0</ele><time>2026-05-02T05:01:17.809Z</time></trkpt><trkpt lat="43.9175741" lon="12.5804938"><ele>124.0</ele><time>2026-05-02T05:01:18.818Z</time></trkpt><trkpt lat="43.9174869" lon="12.5804367"><ele>124.0</ele><time>2026-05-02T05:01:19.806Z</time></trkpt><trkpt lat="43.9173843" lon="12.5804007"><ele>124.00000000000001</ele><time>2026-05-02T05:01:20.796Z</time></trkpt><trkpt lat="43.9172941" lon="12.5803804"><ele>124.0</ele><time>2026-05-02T05:01:21.801Z</time></trkpt><trkpt lat="43.9172104" lon="12.5803505"><ele>124.2</ele><time>2026-05-02T05:01:22.801Z</time></trkpt><trkpt lat="43.9171362" lon="12.5803198"><ele>124.4</ele><time>2026-05-02T05:01:23.805Z</time></trkpt><trkpt lat="43.9170532" lon="12.5802836"><ele>124.6</ele><time>2026-05-02T05:01:24.808Z</time></trkpt><trkpt lat="43.9169641" lon="12.5802474"><ele>124.8</ele><time>2026-05-02T05:01:25.8Z</time></trkpt><trkpt lat="43.9168642" lon="12.5802109"><ele>125.0</ele><time>2026-05-02T05:01:26.807Z</time></trkpt><trkpt lat="43.9167665" lon="12.580171"><ele>125.8</ele><time>2026-05-02T05:01:27.81Z</time></trkpt><trkpt lat="43.9166689" lon="12.5801263"><ele>126.6</ele><time>2026-05-02T05:01:28.817Z</time></trkpt><trkpt lat="43.9165702" lon="12.5800867"><ele>127.4</ele><time>2026-05-02T05:01:29.812Z</time></trkpt><trkpt lat="43.9164728" lon="12.5800514"><ele>128.2</ele><time>2026-05-02T05:01:30.817Z</time></trkpt><trkpt lat="43.9163745" lon="12.5800079"><ele>129.0</ele><time>2026-05-02T05:01:31.803Z</time></trkpt><trkpt lat="43.9162812" lon="12.5799717"><ele>129.0</ele><time>2026-05-02T05:01:32.818Z</time></trkpt><trkpt lat="43.9161872" lon="12.5799401"><ele>129.0</ele><time>2026-05-02T05:01:33.816Z</time></trkpt><trkpt lat="43.9160879" lon="12.5799072"><ele>129.0</ele><time>2026-05-02T05:01:34.82Z</time></trkpt><trkpt lat="43.9159973" lon="12.5798749"><ele>129.0</ele><time>2026-05-02T05:01:35.832Z</time></trkpt><trkpt lat="43.9159127" lon="12.5798453"><ele>129.0</ele><time>2026-05-02T05:01:36.799Z</time></trkpt><trkpt lat="43.9158338" lon="12.5798111"><ele>130.6</ele><time>2026-05-02T05:01:37.813Z</time></trkpt><trkpt lat="43.9157517" lon="12.5797735"><ele>132.2</ele><time>2026-05-02T05:01:38.796Z</time></trkpt><trkpt lat="43.9156618" lon="12.5797298"><ele>133.79999999999998</ele><time>2026-05-02T05:01:39.818Z</time></trkpt><trkpt lat="43.9155681" lon="12.5796783"><ele>135.4</ele><time>2026-05-02T05:01:40.812Z</time></trkpt><trkpt lat="43.9154621" lon="12.5796363"><ele>137.0</ele><time>2026-05-02T05:01:41.816Z</time></trkpt><trkpt lat="43.9153482" lon="12.5796043"><ele>137.0</ele><time>2026-05-02T05:01:42.824Z</time></trkpt><trkpt lat="43.915234" lon="12.5795704"><ele>137.0</ele><time>2026-05-02T05:01:43.817Z</time></trkpt><trkpt lat="43.9151181" lon="12.5795283"><ele>137.0</ele><time>2026-05-02T05:01:44.808Z</time></trkpt><trkpt lat="43.9150037" lon="12.579476"><ele>137.0</ele><time>2026-05-02T05:01:45.812Z</time></trkpt><trkpt lat="43.9148861" lon="12.5794074"><ele>138.75</ele><time>2026-05-02T05:01:46.808Z</time></trkpt><trkpt lat="43.9147676" lon="12.579325"><ele>140.5</ele><time>2026-05-02T05:01:47.821Z</time></trkpt><trkpt lat="43.9146544" lon="12.5792307"><ele>142.25</ele><time>2026-05-02T05:01:48.824Z</time></trkpt><trkpt lat="43.9145457" lon="12.5791271"><ele>144.0</ele><time>2026-05-02T05:01:49.831Z</time></trkpt><trkpt lat="43.9144427" lon="12.5790154"><ele>144.0</ele><time>2026-05-02T05:01:50.815Z</time></trkpt><trkpt lat="43.9143473" lon="12.5788993"><ele>144.0</ele><time>2026-05-02T05:01:51.819Z</time></trkpt><trkpt lat="43.9142434" lon="12.5787951"><ele>144.0</ele><time>2026-05-02T05:01:52.804Z</time></trkpt><trkpt lat="43.9141118" lon="12.5787122"><ele>144.0</ele><time>2026-05-02T05:01:53.821Z</time></trkpt><trkpt lat="43.9139587" lon="12.5786627"><ele>145.5</ele><time>2026-05-02T05:01:54.818Z</time></trkpt><trkpt lat="43.913811" lon="12.5786586"><ele>147.0</ele><time>2026-05-02T05:01:55.825Z</time></trkpt><trkpt lat="43.9137004" lon="12.5786614"><ele>148.5</ele><time>2026-05-02T05:01:56.82Z</time></trkpt><trkpt lat="43.9136046" lon="12.5786725"><ele>150.0</ele><time>2026-05-02T05:01:57.814Z</time></trkpt><trkpt lat="43.9135067" lon="12.5786834"><ele>154.75</ele><time>2026-05-02T05:01:58.814Z</time></trkpt><trkpt lat="43.9133985" lon="12.5786853"><ele>159.5</ele><time>2026-05-02T05:01:59.809Z</time></trkpt><trkpt lat="43.9132864" lon="12.5786643"><ele>164.25</ele><time>2026-05-02T05:02:00.822Z</time></trkpt><trkpt lat="43.913179" lon="12.578615"><ele>169.0</ele><time>2026-05-02T05:02:01.824Z</time></trkpt><trkpt lat="43.9130781" lon="12.5785367"><ele>169.39999999999998</ele><time>2026-05-02T05:02:02.81Z</time></trkpt><trkpt lat="43.912987" lon="12.5784327"><ele>169.8</ele><time>2026-05-02T05:02:03.82Z</time></trkpt><trkpt lat="43.9129145" lon="12.5783281"><ele>170.2</ele><time>2026-05-02T05:02:04.804Z</time></trkpt><trkpt lat="43.912854" lon="12.5782353"><ele>170.60000000000002</ele><time>2026-05-02T05:02:05.829Z</time></trkpt><trkpt lat="43.9128004" lon="12.5781768"><ele>171.0</ele><time>2026-05-02T05:02:06.808Z</time></trkpt><trkpt lat="43.9127116" lon="12.5781413"><ele>171.0</ele><time>2026-05-02T05:02:07.815Z</time></trkpt><trkpt lat="43.9126086" lon="12.5781069"><ele>171.0</ele><time>2026-05-02T05:02:08.809Z</time></trkpt><trkpt lat="43.9125045" lon="12.5780732"><ele>171.0</ele><time>2026-05-02T05:02:09.815Z</time></trkpt><trkpt lat="43.9124134" lon="12.578037"><ele>171.0</ele><time>2026-05-02T05:02:10.821Z</time></trkpt><trkpt lat="43.9123313" lon="12.5780046"><ele>171.0</ele><time>2026-05-02T05:02:11.825Z</time></trkpt><trkpt lat="43.9122361" lon="12.5779622"><ele>173.8</ele><time>2026-05-02T05:02:12.815Z</time></trkpt><trkpt lat="43.9121322" lon="12.5779126"><ele>176.60000000000002</ele><time>2026-05-02T05:02:13.809Z</time></trkpt><trkpt lat="43.912056" lon="12.5778629"><ele>179.4</ele><time>2026-05-02T05:02:14.816Z</time></trkpt><trkpt lat="43.9120148" lon="12.577756"><ele>182.2</ele><time>2026-05-02T05:02:16.809Z</time></trkpt><trkpt lat="43.9120719" lon="12.5775919"><ele>185.0</ele><time>2026-05-02T05:02:18.815Z</time></trkpt><trkpt lat="43.9121184" lon="12.5774905"><ele>185.16666666666666</ele><time>2026-05-02T05:02:19.819Z</time></trkpt><trkpt lat="43.9121709" lon="12.5773885"><ele>185.33333333333331</ele><time>2026-05-02T05:02:20.808Z</time></trkpt><trkpt lat="43.9122226" lon="12.5772816"><ele>185.5</ele><time>2026-05-02T05:02:21.819Z</time></trkpt><trkpt lat="43.9122694" lon="12.5771808"><ele>185.66666666666666</ele><time>2026-05-02T05:02:22.811Z</time></trkpt><trkpt lat="43.9123176" lon="12.577089"><ele>185.83333333333334</ele><time>2026-05-02T05:02:23.815Z</time></trkpt><trkpt lat="43.9123574" lon="12.5769998"><ele>186.0</ele><time>2026-05-02T05:02:24.814Z</time></trkpt><trkpt lat="43.912395" lon="12.5769131"><ele>186.66666666666666</ele><time>2026-05-02T05:02:25.835Z</time></trkpt><trkpt lat="43.9124317" lon="12.5768332"><ele>187.33333333333334</ele><time>2026-05-02T05:02:26.804Z</time></trkpt><trkpt lat="43.912472" lon="12.5767577"><ele>188.0</ele><time>2026-05-02T05:02:27.826Z</time></trkpt><trkpt lat="43.9125242" lon="12.5766881"><ele>188.66666666666669</ele><time>2026-05-02T05:02:28.818Z</time></trkpt><trkpt lat="43.9125763" lon="12.5766365"><ele>189.33333333333334</ele><time>2026-05-02T05:02:29.814Z</time></trkpt><trkpt lat="43.9126508" lon="12.5765178"><ele>190.0</ele><time>2026-05-02T05:02:31.807Z</time></trkpt><trkpt lat="43.9126665" lon="12.5764316"><ele>185.4</ele><time>2026-05-02T05:02:32.799Z</time></trkpt><trkpt lat="43.9126529" lon="12.5763228"><ele>180.8</ele><time>2026-05-02T05:02:33.815Z</time></trkpt><trkpt lat="43.9126196" lon="12.5761971"><ele>176.2</ele><time>2026-05-02T05:02:34.807Z</time></trkpt><trkpt lat="43.91261" lon="12.5760326"><ele>171.6</ele><time>2026-05-02T05:02:35.809Z</time></trkpt><trkpt lat="43.9126168" lon="12.5758573"><ele>167.0</ele><time>2026-05-02T05:02:36.808Z</time></trkpt><trkpt lat="43.9126456" lon="12.5756663"><ele>166.75</ele><time>2026-05-02T05:02:37.817Z</time></trkpt><trkpt lat="43.9126901" lon="12.5754623"><ele>166.5</ele><time>2026-05-02T05:02:38.803Z</time></trkpt><trkpt lat="43.9127339" lon="12.5752806"><ele>166.25</ele><time>2026-05-02T05:02:39.806Z</time></trkpt><trkpt lat="43.9127838" lon="12.5751201"><ele>166.0</ele><time>2026-05-02T05:02:40.806Z</time></trkpt><trkpt lat="43.9128397" lon="12.5749794"><ele>166.0</ele><time>2026-05-02T05:02:41.818Z</time></trkpt><trkpt lat="43.9128985" lon="12.5748447"><ele>166.0</ele><time>2026-05-02T05:02:42.81Z</time></trkpt><trkpt lat="43.9129492" lon="12.5747123"><ele>166.0</ele><time>2026-05-02T05:02:43.816Z</time></trkpt><trkpt lat="43.9129837" lon="12.5745748"><ele>166.0</ele><time>2026-05-02T05:02:44.805Z</time></trkpt><trkpt lat="43.9130052" lon="12.5744321"><ele>166.0</ele><time>2026-05-02T05:02:45.815Z</time></trkpt><trkpt lat="43.913012" lon="12.5742814"><ele>165.20000000000002</ele><time>2026-05-02T05:02:46.807Z</time></trkpt><trkpt lat="43.9129933" lon="12.5741382"><ele>164.4</ele><time>2026-05-02T05:02:47.801Z</time></trkpt><trkpt lat="43.9129604" lon="12.5740195"><ele>163.6</ele><time>2026-05-02T05:02:48.806Z</time></trkpt><trkpt lat="43.9128951" lon="12.5739143"><ele>162.8</ele><time>2026-05-02T05:02:49.81Z</time></trkpt><trkpt lat="43.9128239" lon="12.5738306"><ele>162.0</ele><time>2026-05-02T05:02:50.805Z</time></trkpt><trkpt lat="43.9127424" lon="12.5737671"><ele>162.0</ele><time>2026-05-02T05:02:51.801Z</time></trkpt><trkpt lat="43.9126633" lon="12.573715"><ele>162.0</ele><time>2026-05-02T05:02:52.805Z</time></trkpt><trkpt lat="43.9125953" lon="12.5736153"><ele>162.0</ele><time>2026-05-02T05:02:54.806Z</time></trkpt><trkpt lat="43.9126106" lon="12.5735286"><ele>162.0</ele><time>2026-05-02T05:02:56.811Z</time></trkpt><trkpt lat="43.9126761" lon="12.5734951"><ele>162.0</ele><time>2026-05-02T05:02:58.808Z</time></trkpt><trkpt lat="43.9128084" lon="12.5735087"><ele>162.75</ele><time>2026-05-02T05:02:59.799Z</time></trkpt><trkpt lat="43.912944" lon="12.5735015"><ele>163.5</ele><time>2026-05-02T05:03:00.795Z</time></trkpt><trkpt lat="43.9130725" lon="12.5734801"><ele>164.25</ele><time>2026-05-02T05:03:01.82Z</time></trkpt><trkpt lat="43.9132041" lon="12.5734481"><ele>165.0</ele><time>2026-05-02T05:03:02.796Z</time></trkpt><trkpt lat="43.9132748" lon="12.5733742"><ele>165.0</ele><time>2026-05-02T05:03:03.813Z</time></trkpt><trkpt lat="43.9132701" lon="12.5732473"><ele>165.0</ele><time>2026-05-02T05:03:04.811Z</time></trkpt><trkpt lat="43.913248" lon="12.5731188"><ele>165.0</ele><time>2026-05-02T05:03:05.814Z</time></trkpt><trkpt lat="43.9132279" lon="12.5729833"><ele>165.0</ele><time>2026-05-02T05:03:06.805Z</time></trkpt><trkpt lat="43.9132076" lon="12.5728489"><ele>165.0</ele><time>2026-05-02T05:03:07.806Z</time></trkpt><trkpt lat="43.9132042" lon="12.5727206"><ele>166.4</ele><time>2026-05-02T05:03:08.806Z</time></trkpt><trkpt lat="43.9132066" lon="12.5725958"><ele>167.8</ele><time>2026-05-02T05:03:09.815Z</time></trkpt><trkpt lat="43.913215" lon="12.5724726"><ele>169.2</ele><time>2026-05-02T05:03:10.802Z</time></trkpt><trkpt lat="43.9132335" lon="12.5723479"><ele>170.6</ele><time>2026-05-02T05:03:11.812Z</time></trkpt><trkpt lat="43.9132593" lon="12.5722075"><ele>172.0</ele><time>2026-05-02T05:03:12.815Z</time></trkpt><trkpt lat="43.9132984" lon="12.572058"><ele>172.25</ele><time>2026-05-02T05:03:13.826Z</time></trkpt><trkpt lat="43.913337" lon="12.5718971"><ele>172.5</ele><time>2026-05-02T05:03:14.826Z</time></trkpt><trkpt lat="43.9133825" lon="12.5717421"><ele>172.75</ele><time>2026-05-02T05:03:15.826Z</time></trkpt><trkpt lat="43.9134306" lon="12.5715834"><ele>173.0</ele><time>2026-05-02T05:03:16.816Z</time></trkpt><trkpt lat="43.9134796" lon="12.5714232"><ele>170.5</ele><time>2026-05-02T05:03:17.823Z</time></trkpt><trkpt lat="43.9135311" lon="12.5712687"><ele>168.0</ele><time>2026-05-02T05:03:18.814Z</time></trkpt><trkpt lat="43.913581" lon="12.5711214"><ele>165.5</ele><time>2026-05-02T05:03:19.821Z</time></trkpt><trkpt lat="43.9136287" lon="12.5709844"><ele>163.0</ele><time>2026-05-02T05:03:20.816Z</time></trkpt><trkpt lat="43.9136746" lon="12.5708559"><ele>163.0</ele><time>2026-05-02T05:03:21.812Z</time></trkpt><trkpt lat="43.9137154" lon="12.5707398"><ele>163.0</ele><time>2026-05-02T05:03:22.831Z</time></trkpt><trkpt lat="43.9137527" lon="12.5706337"><ele>163.0</ele><time>2026-05-02T05:03:23.795Z</time></trkpt><trkpt lat="43.9137818" lon="12.5705188"><ele>163.0</ele><time>2026-05-02T05:03:24.799Z</time></trkpt><trkpt lat="43.9137992" lon="12.5703981"><ele>163.0</ele><time>2026-05-02T05:03:25.834Z</time></trkpt><trkpt lat="43.9138027" lon="12.5702572"><ele>162.4</ele><time>2026-05-02T05:03:26.816Z</time></trkpt><trkpt lat="43.9138076" lon="12.5701063"><ele>161.8</ele><time>2026-05-02T05:03:27.817Z</time></trkpt><trkpt lat="43.9138154" lon="12.5699653"><ele>161.2</ele><time>2026-05-02T05:03:28.807Z</time></trkpt><trkpt lat="43.9138394" lon="12.5698335"><ele>160.6</ele><time>2026-05-02T05:03:29.81Z</time></trkpt><trkpt lat="43.9138815" lon="12.5697102"><ele>160.0</ele><time>2026-05-02T05:03:30.812Z</time></trkpt><trkpt lat="43.9139257" lon="12.5695815"><ele>160.2</ele><time>2026-05-02T05:03:31.824Z</time></trkpt><trkpt lat="43.9139738" lon="12.5694549"><ele>160.4</ele><time>2026-05-02T05:03:32.816Z</time></trkpt><trkpt lat="43.9140218" lon="12.5693246"><ele>160.60000000000002</ele><time>2026-05-02T05:03:33.828Z</time></trkpt><trkpt lat="43.9140709" lon="12.5691888"><ele>160.8</ele><time>2026-05-02T05:03:34.816Z</time></trkpt><trkpt lat="43.9141145" lon="12.569037"><ele>161.0</ele><time>2026-05-02T05:03:35.816Z</time></trkpt><trkpt lat="43.9141617" lon="12.5688917"><ele>161.0</ele><time>2026-05-02T05:03:36.82Z</time></trkpt><trkpt lat="43.9142051" lon="12.5687621"><ele>161.0</ele><time>2026-05-02T05:03:37.825Z</time></trkpt><trkpt lat="43.914241" lon="12.5686537"><ele>161.0</ele><time>2026-05-02T05:03:38.812Z</time></trkpt><trkpt lat="43.9142727" lon="12.5685582"><ele>161.0</ele><time>2026-05-02T05:03:39.817Z</time></trkpt><trkpt lat="43.9142891" lon="12.568464"><ele>161.0</ele><time>2026-05-02T05:03:40.815Z</time></trkpt><trkpt lat="43.9142842" lon="12.5683674"><ele>161.0</ele><time>2026-05-02T05:03:41.809Z</time></trkpt><trkpt lat="43.9142712" lon="12.5682653"><ele>160.4</ele><time>2026-05-02T05:03:42.813Z</time></trkpt><trkpt lat="43.9142507" lon="12.5681452"><ele>159.8</ele><time>2026-05-02T05:03:43.821Z</time></trkpt><trkpt lat="43.9142394" lon="12.5679876"><ele>159.20000000000002</ele><time>2026-05-02T05:03:44.821Z</time></trkpt><trkpt lat="43.9142351" lon="12.5678234"><ele>158.60000000000002</ele><time>2026-05-02T05:03:45.815Z</time></trkpt><trkpt lat="43.9142373" lon="12.5676617"><ele>158.0</ele><time>2026-05-02T05:03:46.808Z</time></trkpt><trkpt lat="43.914242" lon="12.5675121"><ele>156.0</ele><time>2026-05-02T05:03:47.804Z</time></trkpt><trkpt lat="43.9142495" lon="12.5673898"><ele>154.0</ele><time>2026-05-02T05:03:48.819Z</time></trkpt><trkpt lat="43.9142685" lon="12.5672762"><ele>152.0</ele><time>2026-05-02T05:03:49.831Z</time></trkpt><trkpt lat="43.914313" lon="12.5671617"><ele>150.0</ele><time>2026-05-02T05:03:50.813Z</time></trkpt><trkpt lat="43.9143832" lon="12.5670528"><ele>148.0</ele><time>2026-05-02T05:03:51.815Z</time></trkpt><trkpt lat="43.9144549" lon="12.5669402"><ele>147.5</ele><time>2026-05-02T05:03:52.822Z</time></trkpt><trkpt lat="43.9145152" lon="12.5668294"><ele>147.0</ele><time>2026-05-02T05:03:53.819Z</time></trkpt><trkpt lat="43.9145577" lon="12.5667228"><ele>146.5</ele><time>2026-05-02T05:03:54.797Z</time></trkpt><trkpt lat="43.9145676" lon="12.5666297"><ele>146.0</ele><time>2026-05-02T05:03:55.812Z</time></trkpt><trkpt lat="43.9145496" lon="12.5665438"><ele>145.5</ele><time>2026-05-02T05:03:56.803Z</time></trkpt><trkpt lat="43.9145088" lon="12.5664451"><ele>145.0</ele><time>2026-05-02T05:03:57.831Z</time></trkpt><trkpt lat="43.9144569" lon="12.5663101"><ele>145.0</ele><time>2026-05-02T05:03:58.804Z</time></trkpt><trkpt lat="43.9143937" lon="12.5661711"><ele>145.0</ele><time>2026-05-02T05:03:59.822Z</time></trkpt><trkpt lat="43.9143122" lon="12.5660328"><ele>145.0</ele><time>2026-05-02T05:04:00.813Z</time></trkpt><trkpt lat="43.914226" lon="12.5659195"><ele>145.0</ele><time>2026-05-02T05:04:01.815Z</time></trkpt><trkpt lat="43.9141442" lon="12.5658135"><ele>145.0</ele><time>2026-05-02T05:04:02.806Z</time></trkpt><trkpt lat="43.9140686" lon="12.5657168"><ele>145.0</ele><time>2026-05-02T05:04:03.818Z</time></trkpt><trkpt lat="43.9139799" lon="12.5656496"><ele>145.0</ele><time>2026-05-02T05:04:04.818Z</time></trkpt><trkpt lat="43.9138861" lon="12.5656036"><ele>145.0</ele><time>2026-05-02T05:04:05.813Z</time></trkpt><trkpt lat="43.9137807" lon="12.5655706"><ele>145.0</ele><time>2026-05-02T05:04:06.808Z</time></trkpt><trkpt lat="43.9136804" lon="12.5655342"><ele>145.0</ele><time>2026-05-02T05:04:07.81Z</time></trkpt><trkpt lat="43.9135839" lon="12.5655027"><ele>145.0</ele><time>2026-05-02T05:04:08.804Z</time></trkpt><trkpt lat="43.9134976" lon="12.565464"><ele>145.0</ele><time>2026-05-02T05:04:09.81Z</time></trkpt><trkpt lat="43.9134253" lon="12.5654146"><ele>145.0</ele><time>2026-05-02T05:04:10.806Z</time></trkpt><trkpt lat="43.9133634" lon="12.5653396"><ele>145.0</ele><time>2026-05-02T05:04:11.819Z</time></trkpt><trkpt lat="43.9132933" lon="12.5652595"><ele>145.0</ele><time>2026-05-02T05:04:12.801Z</time></trkpt><trkpt lat="43.9132122" lon="12.5651765"><ele>145.25</ele><time>2026-05-02T05:04:13.816Z</time></trkpt><trkpt lat="43.9131062" lon="12.5650938"><ele>145.5</ele><time>2026-05-02T05:04:14.819Z</time></trkpt><trkpt lat="43.9129962" lon="12.5650201"><ele>145.75</ele><time>2026-05-02T05:04:15.828Z</time></trkpt><trkpt lat="43.91288" lon="12.5649665"><ele>146.0</ele><time>2026-05-02T05:04:16.82Z</time></trkpt><trkpt lat="43.9127646" lon="12.5648981"><ele>146.0</ele><time>2026-05-02T05:04:17.822Z</time></trkpt><trkpt lat="43.9126514" lon="12.5648224"><ele>146.0</ele><time>2026-05-02T05:04:18.81Z</time></trkpt><trkpt lat="43.9125429" lon="12.5647384"><ele>146.0</ele><time>2026-05-02T05:04:19.826Z</time></trkpt><trkpt lat="43.912446" lon="12.5646459"><ele>146.0</ele><time>2026-05-02T05:04:20.81Z</time></trkpt><trkpt lat="43.9123647" lon="12.5645542"><ele>146.2</ele><time>2026-05-02T05:04:21.82Z</time></trkpt><trkpt lat="43.9122944" lon="12.5644651"><ele>146.39999999999998</ele><time>2026-05-02T05:04:22.809Z</time></trkpt><trkpt lat="43.9122273" lon="12.5643722"><ele>146.6</ele><time>2026-05-02T05:04:23.822Z</time></trkpt><trkpt lat="43.9121605" lon="12.5642641"><ele>146.79999999999998</ele><time>2026-05-02T05:04:24.807Z</time></trkpt><trkpt lat="43.9120904" lon="12.5641597"><ele>147.0</ele><time>2026-05-02T05:04:25.819Z</time></trkpt><trkpt lat="43.9120125" lon="12.5640406"><ele>147.0</ele><time>2026-05-02T05:04:26.807Z</time></trkpt><trkpt lat="43.9119318" lon="12.5639047"><ele>147.0</ele><time>2026-05-02T05:04:27.795Z</time></trkpt><trkpt lat="43.9118553" lon="12.5637696"><ele>147.0</ele><time>2026-05-02T05:04:28.805Z</time></trkpt><trkpt lat="43.9117774" lon="12.5636275"><ele>147.0</ele><time>2026-05-02T05:04:29.801Z</time></trkpt><trkpt lat="43.9117153" lon="12.5634835"><ele>147.75</ele><time>2026-05-02T05:04:30.801Z</time></trkpt><trkpt lat="43.9116465" lon="12.5633364"><ele>148.5</ele><time>2026-05-02T05:04:31.817Z</time></trkpt><trkpt lat="43.9115819" lon="12.5631929"><ele>149.25</ele><time>2026-05-02T05:04:32.802Z</time></trkpt><trkpt lat="43.9115071" lon="12.5630535"><ele>150.0</ele><time>2026-05-02T05:04:33.806Z</time></trkpt><trkpt lat="43.9114215" lon="12.5629257"><ele>149.5</ele><time>2026-05-02T05:04:34.799Z</time></trkpt><trkpt lat="43.9113342" lon="12.5628067"><ele>149.0</ele><time>2026-05-02T05:04:35.808Z</time></trkpt><trkpt lat="43.9112503" lon="12.5626896"><ele>148.5</ele><time>2026-05-02T05:04:36.8Z</time></trkpt><trkpt lat="43.91117" lon="12.5625624"><ele>148.0</ele><time>2026-05-02T05:04:37.823Z</time></trkpt><trkpt lat="43.911092" lon="12.5624429"><ele>148.0</ele><time>2026-05-02T05:04:38.801Z</time></trkpt><trkpt lat="43.911007" lon="12.5623321"><ele>148.0</ele><time>2026-05-02T05:04:39.804Z</time></trkpt><trkpt lat="43.9109109" lon="12.5622123"><ele>148.0</ele><time>2026-05-02T05:04:40.792Z</time></trkpt><trkpt lat="43.9108084" lon="12.5621014"><ele>148.0</ele><time>2026-05-02T05:04:41.81Z</time></trkpt><trkpt lat="43.9107096" lon="12.5619831"><ele>148.0</ele><time>2026-05-02T05:04:42.809Z</time></trkpt><trkpt lat="43.9106256" lon="12.5618543"><ele>148.0</ele><time>2026-05-02T05:04:43.801Z</time></trkpt><trkpt lat="43.9105474" lon="12.5617507"><ele>148.0</ele><time>2026-05-02T05:04:44.802Z</time></trkpt><trkpt lat="43.9104783" lon="12.5616638"><ele>148.0</ele><time>2026-05-02T05:04:45.83Z</time></trkpt><trkpt lat="43.9104041" lon="12.5615796"><ele>148.0</ele><time>2026-05-02T05:04:46.819Z</time></trkpt><trkpt lat="43.9103373" lon="12.5614918"><ele>148.0</ele><time>2026-05-02T05:04:47.831Z</time></trkpt><trkpt lat="43.9102549" lon="12.5614008"><ele>148.0</ele><time>2026-05-02T05:04:48.811Z</time></trkpt><trkpt lat="43.9101672" lon="12.561292"><ele>148.0</ele><time>2026-05-02T05:04:49.813Z</time></trkpt><trkpt lat="43.9100745" lon="12.5611764"><ele>148.0</ele><time>2026-05-02T05:04:50.809Z</time></trkpt><trkpt lat="43.9099772" lon="12.5610559"><ele>149.0</ele><time>2026-05-02T05:04:51.822Z</time></trkpt><trkpt lat="43.909878" lon="12.5609408"><ele>150.0</ele><time>2026-05-02T05:04:52.792Z</time></trkpt><trkpt lat="43.909787" lon="12.5608129"><ele>151.0</ele><time>2026-05-02T05:04:53.819Z</time></trkpt><trkpt lat="43.9096999" lon="12.5606855"><ele>152.0</ele><time>2026-05-02T05:04:54.8Z</time></trkpt><trkpt lat="43.9096052" lon="12.5605662"><ele>152.0</ele><time>2026-05-02T05:04:55.829Z</time></trkpt><trkpt lat="43.9095088" lon="12.5604463"><ele>152.0</ele><time>2026-05-02T05:04:56.8Z</time></trkpt><trkpt lat="43.9094114" lon="12.5603189"><ele>152.0</ele><time>2026-05-02T05:04:57.811Z</time></trkpt><trkpt lat="43.9093127" lon="12.5602025"><ele>152.0</ele><time>2026-05-02T05:04:58.804Z</time></trkpt><trkpt lat="43.9092122" lon="12.5600747"><ele>152.0</ele><time>2026-05-02T05:04:59.833Z</time></trkpt><trkpt lat="43.9091275" lon="12.5599404"><ele>152.0</ele><time>2026-05-02T05:05:00.806Z</time></trkpt><trkpt lat="43.9090366" lon="12.5598069"><ele>152.0</ele><time>2026-05-02T05:05:01.826Z</time></trkpt><trkpt lat="43.9089637" lon="12.5596506"><ele>152.0</ele><time>2026-05-02T05:05:02.808Z</time></trkpt><trkpt lat="43.9088971" lon="12.5594865"><ele>152.0</ele><time>2026-05-02T05:05:03.836Z</time></trkpt><trkpt lat="43.9088415" lon="12.5593052"><ele>152.0</ele><time>2026-05-02T05:05:04.808Z</time></trkpt><trkpt lat="43.9088011" lon="12.5591214"><ele>152.0</ele><time>2026-05-02T05:05:05.811Z</time></trkpt><trkpt lat="43.9087647" lon="12.5589516"><ele>152.0</ele><time>2026-05-02T05:05:06.804Z</time></trkpt><trkpt lat="43.9087291" lon="12.5587818"><ele>152.5</ele><time>2026-05-02T05:05:07.817Z</time></trkpt><trkpt lat="43.9086866" lon="12.5586002"><ele>153.0</ele><time>2026-05-02T05:05:08.8Z</time></trkpt><trkpt lat="43.9086387" lon="12.5584159"><ele>153.5</ele><time>2026-05-02T05:05:09.823Z</time></trkpt><trkpt lat="43.9085942" lon="12.5582354"><ele>154.0</ele><time>2026-05-02T05:05:10.807Z</time></trkpt><trkpt lat="43.9085462" lon="12.5580546"><ele>154.0</ele><time>2026-05-02T05:05:11.808Z</time></trkpt><trkpt lat="43.9085013" lon="12.5578752"><ele>154.0</ele><time>2026-05-02T05:05:12.803Z</time></trkpt><trkpt lat="43.9084598" lon="12.5576968"><ele>154.0</ele><time>2026-05-02T05:05:13.836Z</time></trkpt><trkpt lat="43.9084266" lon="12.557519"><ele>154.0</ele><time>2026-05-02T05:05:14.814Z</time></trkpt><trkpt lat="43.9083987" lon="12.5573387"><ele>154.0</ele><time>2026-05-02T05:05:15.813Z</time></trkpt><trkpt lat="43.9083693" lon="12.5571612"><ele>154.0</ele><time>2026-05-02T05:05:16.81Z</time></trkpt><trkpt lat="43.9083397" lon="12.5569876"><ele>154.0</ele><time>2026-05-02T05:05:17.812Z</time></trkpt><trkpt lat="43.9083038" lon="12.5568172"><ele>154.0</ele><time>2026-05-02T05:05:18.805Z</time></trkpt><trkpt lat="43.9082702" lon="12.5566426"><ele>154.0</ele><time>2026-05-02T05:05:19.811Z</time></trkpt><trkpt lat="43.908244" lon="12.5564826"><ele>154.0</ele><time>2026-05-02T05:05:20.809Z</time></trkpt><trkpt lat="43.9082143" lon="12.5563265"><ele>154.0</ele><time>2026-05-02T05:05:21.818Z</time></trkpt><trkpt lat="43.908171" lon="12.5561651"><ele>154.0</ele><time>2026-05-02T05:05:22.804Z</time></trkpt><trkpt lat="43.9081247" lon="12.5559926"><ele>154.25</ele><time>2026-05-02T05:05:23.826Z</time></trkpt><trkpt lat="43.9080817" lon="12.5558129"><ele>154.5</ele><time>2026-05-02T05:05:24.816Z</time></trkpt><trkpt lat="43.9080388" lon="12.5556321"><ele>154.75</ele><time>2026-05-02T05:05:25.828Z</time></trkpt><trkpt lat="43.90799" lon="12.5554557"><ele>155.0</ele><time>2026-05-02T05:05:26.81Z</time></trkpt><trkpt lat="43.9079457" lon="12.5552803"><ele>155.25</ele><time>2026-05-02T05:05:27.816Z</time></trkpt><trkpt lat="43.9079068" lon="12.5550977"><ele>155.5</ele><time>2026-05-02T05:05:28.815Z</time></trkpt><trkpt lat="43.9078658" lon="12.5549138"><ele>155.75</ele><time>2026-05-02T05:05:29.831Z</time></trkpt><trkpt lat="43.907821" lon="12.5547295"><ele>156.0</ele><time>2026-05-02T05:05:30.81Z</time></trkpt><trkpt lat="43.9077765" lon="12.5545477"><ele>156.25</ele><time>2026-05-02T05:05:31.836Z</time></trkpt><trkpt lat="43.907736" lon="12.5543701"><ele>156.5</ele><time>2026-05-02T05:05:32.805Z</time></trkpt><trkpt lat="43.9076957" lon="12.5541896"><ele>156.75</ele><time>2026-05-02T05:05:33.824Z</time></trkpt><trkpt lat="43.9076554" lon="12.5540162"><ele>157.0</ele><time>2026-05-02T05:05:34.808Z</time></trkpt><trkpt lat="43.9076165" lon="12.5538391"><ele>157.75</ele><time>2026-05-02T05:05:35.82Z</time></trkpt><trkpt lat="43.9075759" lon="12.5536596"><ele>158.5</ele><time>2026-05-02T05:05:36.811Z</time></trkpt><trkpt lat="43.9075382" lon="12.5534821"><ele>159.25</ele><time>2026-05-02T05:05:37.842Z</time></trkpt><trkpt lat="43.9075019" lon="12.5533076"><ele>160.0</ele><time>2026-05-02T05:05:38.81Z</time></trkpt><trkpt lat="43.9074701" lon="12.5531562"><ele>160.0</ele><time>2026-05-02T05:05:39.832Z</time></trkpt><trkpt lat="43.9074377" lon="12.5530062"><ele>160.0</ele><time>2026-05-02T05:05:40.817Z</time></trkpt><trkpt lat="43.9074051" lon="12.5528643"><ele>160.0</ele><time>2026-05-02T05:05:41.825Z</time></trkpt><trkpt lat="43.9073723" lon="12.552726"><ele>160.0</ele><time>2026-05-02T05:05:42.81Z</time></trkpt><trkpt lat="43.907345" lon="12.5526094"><ele>160.0</ele><time>2026-05-02T05:05:43.833Z</time></trkpt><trkpt lat="43.9073197" lon="12.5524615"><ele>160.0</ele><time>2026-05-02T05:05:45.806Z</time></trkpt><trkpt lat="43.9072897" lon="12.5523706"><ele>160.0</ele><time>2026-05-02T05:05:47.818Z</time></trkpt><trkpt lat="43.907195" lon="12.5522909"><ele>160.0</ele><time>2026-05-02T05:05:49.808Z</time></trkpt><trkpt lat="43.9071209" lon="12.5522525"><ele>160.0</ele><time>2026-05-02T05:05:50.807Z</time></trkpt><trkpt lat="43.9070356" lon="12.5522184"><ele>160.0</ele><time>2026-05-02T05:05:51.812Z</time></trkpt><trkpt lat="43.9069456" lon="12.552188"><ele>160.0</ele><time>2026-05-02T05:05:52.803Z</time></trkpt><trkpt lat="43.9068509" lon="12.5521658"><ele>160.5</ele><time>2026-05-02T05:05:53.83Z</time></trkpt><trkpt lat="43.9067406" lon="12.5521495"><ele>161.0</ele><time>2026-05-02T05:05:54.802Z</time></trkpt><trkpt lat="43.9066213" lon="12.5521449"><ele>161.5</ele><time>2026-05-02T05:05:55.807Z</time></trkpt><trkpt lat="43.9065001" lon="12.5521579"><ele>162.0</ele><time>2026-05-02T05:05:56.813Z</time></trkpt><trkpt lat="43.9063798" lon="12.5521779"><ele>162.0</ele><time>2026-05-02T05:05:57.81Z</time></trkpt><trkpt lat="43.9062586" lon="12.5522096"><ele>162.0</ele><time>2026-05-02T05:05:58.806Z</time></trkpt><trkpt lat="43.9061371" lon="12.5522493"><ele>162.0</ele><time>2026-05-02T05:05:59.815Z</time></trkpt><trkpt lat="43.9060111" lon="12.5522903"><ele>162.0</ele><time>2026-05-02T05:06:00.799Z</time></trkpt><trkpt lat="43.9058851" lon="12.5523244"><ele>163.25</ele><time>2026-05-02T05:06:01.809Z</time></trkpt><trkpt lat="43.9057585" lon="12.5523407"><ele>164.5</ele><time>2026-05-02T05:06:02.815Z</time></trkpt><trkpt lat="43.9056316" lon="12.5523335"><ele>165.75</ele><time>2026-05-02T05:06:03.81Z</time></trkpt><trkpt lat="43.9055008" lon="12.5522999"><ele>167.0</ele><time>2026-05-02T05:06:04.802Z</time></trkpt><trkpt lat="43.9053689" lon="12.552259"><ele>167.0</ele><time>2026-05-02T05:06:05.811Z</time></trkpt><trkpt lat="43.9052392" lon="12.5522193"><ele>167.0</ele><time>2026-05-02T05:06:06.805Z</time></trkpt><trkpt lat="43.9051087" lon="12.5521815"><ele>167.0</ele><time>2026-05-02T05:06:07.813Z</time></trkpt><trkpt lat="43.9049758" lon="12.5521593"><ele>167.0</ele><time>2026-05-02T05:06:08.808Z</time></trkpt><trkpt lat="43.9048434" lon="12.552152"><ele>167.83333333333331</ele><time>2026-05-02T05:06:09.821Z</time></trkpt><trkpt lat="43.9047316" lon="12.5521518"><ele>168.66666666666666</ele><time>2026-05-02T05:06:10.805Z</time></trkpt><trkpt lat="43.9046455" lon="12.5521581"><ele>169.5</ele><time>2026-05-02T05:06:11.811Z</time></trkpt><trkpt lat="43.9045775" lon="12.5521636"><ele>170.33333333333334</ele><time>2026-05-02T05:06:12.809Z</time></trkpt><trkpt lat="43.9044989" lon="12.5521786"><ele>171.16666666666669</ele><time>2026-05-02T05:06:14.807Z</time></trkpt><trkpt lat="43.9044113" lon="12.5522498"><ele>172.0</ele><time>2026-05-02T05:06:17.829Z</time></trkpt><trkpt lat="43.9042941" lon="12.5522934"><ele>173.5</ele><time>2026-05-02T05:06:19.846Z</time></trkpt><trkpt lat="43.904234" lon="12.5522549"><ele>175.0</ele><time>2026-05-02T05:06:20.806Z</time></trkpt><trkpt lat="43.9041858" lon="12.5521938"><ele>176.5</ele><time>2026-05-02T05:06:21.822Z</time></trkpt><trkpt lat="43.9041474" lon="12.5521067"><ele>178.0</ele><time>2026-05-02T05:06:22.805Z</time></trkpt><trkpt lat="43.904128" lon="12.5519944"><ele>179.5</ele><time>2026-05-02T05:06:23.819Z</time></trkpt><trkpt lat="43.9041203" lon="12.5518727"><ele>181.0</ele><time>2026-05-02T05:06:24.8Z</time></trkpt><trkpt lat="43.9041353" lon="12.551739"><ele>181.20000000000002</ele><time>2026-05-02T05:06:25.807Z</time></trkpt><trkpt lat="43.9041834" lon="12.5516079"><ele>181.4</ele><time>2026-05-02T05:06:26.806Z</time></trkpt><trkpt lat="43.9042461" lon="12.5514832"><ele>181.6</ele><time>2026-05-02T05:06:27.807Z</time></trkpt><trkpt lat="43.9043222" lon="12.5513601"><ele>181.8</ele><time>2026-05-02T05:06:28.797Z</time></trkpt><trkpt lat="43.9043928" lon="12.5512454"><ele>182.0</ele><time>2026-05-02T05:06:29.816Z</time></trkpt><trkpt lat="43.9044511" lon="12.5511492"><ele>182.0</ele><time>2026-05-02T05:06:30.809Z</time></trkpt><trkpt lat="43.9044951" lon="12.5510284"><ele>182.0</ele><time>2026-05-02T05:06:32.81Z</time></trkpt><trkpt lat="43.9044886" lon="12.5509067"><ele>182.0</ele><time>2026-05-02T05:06:34.787Z</time></trkpt><trkpt lat="43.9044616" lon="12.5508264"><ele>182.0</ele><time>2026-05-02T05:06:35.816Z</time></trkpt><trkpt lat="43.9044296" lon="12.5507409"><ele>182.0</ele><time>2026-05-02T05:06:36.802Z</time></trkpt><trkpt lat="43.9044041" lon="12.5506435"><ele>182.0</ele><time>2026-05-02T05:06:37.818Z</time></trkpt><trkpt lat="43.9043763" lon="12.5505277"><ele>182.0</ele><time>2026-05-02T05:06:38.812Z</time></trkpt><trkpt lat="43.9043436" lon="12.5503954"><ele>182.0</ele><time>2026-05-02T05:06:39.821Z</time></trkpt><trkpt lat="43.9043087" lon="12.5502463"><ele>182.0</ele><time>2026-05-02T05:06:40.81Z</time></trkpt><trkpt lat="43.9042807" lon="12.5500977"><ele>182.0</ele><time>2026-05-02T05:06:41.815Z</time></trkpt><trkpt lat="43.9042616" lon="12.5499551"><ele>182.0</ele><time>2026-05-02T05:06:42.799Z</time></trkpt><trkpt lat="43.9042509" lon="12.5498256"><ele>180.83333333333331</ele><time>2026-05-02T05:06:43.807Z</time></trkpt><trkpt lat="43.904238" lon="12.5497127"><ele>179.66666666666666</ele><time>2026-05-02T05:06:44.795Z</time></trkpt><trkpt lat="43.9042338" lon="12.549602"><ele>178.5</ele><time>2026-05-02T05:06:45.802Z</time></trkpt><trkpt lat="43.9042581" lon="12.5495017"><ele>177.33333333333334</ele><time>2026-05-02T05:06:46.808Z</time></trkpt><trkpt lat="43.9042994" lon="12.549407"><ele>176.16666666666669</ele><time>2026-05-02T05:06:47.821Z</time></trkpt><trkpt lat="43.9043315" lon="12.5493137"><ele>175.0</ele><time>2026-05-02T05:06:48.814Z</time></trkpt><trkpt lat="43.9043579" lon="12.5492205"><ele>175.0</ele><time>2026-05-02T05:06:49.813Z</time></trkpt><trkpt lat="43.9043646" lon="12.5491202"><ele>175.0</ele><time>2026-05-02T05:06:50.813Z</time></trkpt><trkpt lat="43.9043509" lon="12.5490146"><ele>175.0</ele><time>2026-05-02T05:06:51.82Z</time></trkpt><trkpt lat="43.9043229" lon="12.5489071"><ele>175.0</ele><time>2026-05-02T05:06:52.81Z</time></trkpt><trkpt lat="43.9042798" lon="12.5488129"><ele>175.0</ele><time>2026-05-02T05:06:53.821Z</time></trkpt><trkpt lat="43.9042368" lon="12.5487218"><ele>175.0</ele><time>2026-05-02T05:06:54.821Z</time></trkpt><trkpt lat="43.9041843" lon="12.5486243"><ele>175.0</ele><time>2026-05-02T05:06:55.813Z</time></trkpt><trkpt lat="43.9041341" lon="12.548514"><ele>175.0</ele><time>2026-05-02T05:06:56.806Z</time></trkpt><trkpt lat="43.9040939" lon="12.5483894"><ele>175.0</ele><time>2026-05-02T05:06:57.824Z</time></trkpt><trkpt lat="43.9040355" lon="12.5482766"><ele>175.0</ele><time>2026-05-02T05:06:58.809Z</time></trkpt><trkpt lat="43.9039664" lon="12.5482008"><ele>175.0</ele><time>2026-05-02T05:06:59.826Z</time></trkpt><trkpt lat="43.9038937" lon="12.5481587"><ele>175.0</ele><time>2026-05-02T05:07:00.797Z</time></trkpt><trkpt lat="43.9038203" lon="12.548132"><ele>175.0</ele><time>2026-05-02T05:07:01.829Z</time></trkpt><trkpt lat="43.9037377" lon="12.5480958"><ele>175.0</ele><time>2026-05-02T05:07:02.806Z</time></trkpt><trkpt lat="43.9036493" lon="12.5480328"><ele>175.0</ele><time>2026-05-02T05:07:03.831Z</time></trkpt><trkpt lat="43.9035708" lon="12.5479445"><ele>175.0</ele><time>2026-05-02T05:07:04.807Z</time></trkpt><trkpt lat="43.9034952" lon="12.5478438"><ele>173.5</ele><time>2026-05-02T05:07:05.81Z</time></trkpt><trkpt lat="43.9034189" lon="12.5477329"><ele>172.0</ele><time>2026-05-02T05:07:06.817Z</time></trkpt><trkpt lat="43.9033484" lon="12.5476087"><ele>170.5</ele><time>2026-05-02T05:07:07.833Z</time></trkpt><trkpt lat="43.9032757" lon="12.5474748"><ele>169.0</ele><time>2026-05-02T05:07:08.812Z</time></trkpt><trkpt lat="43.9031879" lon="12.5473405"><ele>170.79999999999998</ele><time>2026-05-02T05:07:09.808Z</time></trkpt><trkpt lat="43.9030956" lon="12.5472228"><ele>172.6</ele><time>2026-05-02T05:07:10.802Z</time></trkpt><trkpt lat="43.9030213" lon="12.5471349"><ele>174.4</ele><time>2026-05-02T05:07:11.811Z</time></trkpt><trkpt lat="43.9029644" lon="12.5470683"><ele>176.2</ele><time>2026-05-02T05:07:12.803Z</time></trkpt><trkpt lat="43.9029205" lon="12.5469801"><ele>178.0</ele><time>2026-05-02T05:07:13.819Z</time></trkpt><trkpt lat="43.9028762" lon="12.5468722"><ele>178.0</ele><time>2026-05-02T05:07:14.804Z</time></trkpt><trkpt lat="43.9028198" lon="12.5467457"><ele>178.0</ele><time>2026-05-02T05:07:15.806Z</time></trkpt><trkpt lat="43.9027667" lon="12.5466011"><ele>178.0</ele><time>2026-05-02T05:07:16.801Z</time></trkpt><trkpt lat="43.9027088" lon="12.5464489"><ele>178.0</ele><time>2026-05-02T05:07:17.818Z</time></trkpt><trkpt lat="43.9026519" lon="12.546297"><ele>178.25</ele><time>2026-05-02T05:07:18.806Z</time></trkpt><trkpt lat="43.9025957" lon="12.5461391"><ele>178.5</ele><time>2026-05-02T05:07:19.809Z</time></trkpt><trkpt lat="43.9025541" lon="12.5459751"><ele>178.75</ele><time>2026-05-02T05:07:20.818Z</time></trkpt><trkpt lat="43.9025163" lon="12.5457933"><ele>179.0</ele><time>2026-05-02T05:07:21.813Z</time></trkpt><trkpt lat="43.9024922" lon="12.5456009"><ele>179.0</ele><time>2026-05-02T05:07:22.803Z</time></trkpt><trkpt lat="43.9024736" lon="12.5454112"><ele>179.0</ele><time>2026-05-02T05:07:23.819Z</time></trkpt><trkpt lat="43.9024601" lon="12.5452246"><ele>179.0</ele><time>2026-05-02T05:07:24.805Z</time></trkpt><trkpt lat="43.9024486" lon="12.5450427"><ele>179.0</ele><time>2026-05-02T05:07:25.823Z</time></trkpt><trkpt lat="43.9024308" lon="12.5448631"><ele>177.75</ele><time>2026-05-02T05:07:26.807Z</time></trkpt><trkpt lat="43.9024031" lon="12.5446925"><ele>176.5</ele><time>2026-05-02T05:07:27.816Z</time></trkpt><trkpt lat="43.9023557" lon="12.5445233"><ele>175.25</ele><time>2026-05-02T05:07:28.814Z</time></trkpt><trkpt lat="43.9022843" lon="12.5443596"><ele>174.0</ele><time>2026-05-02T05:07:29.844Z</time></trkpt><trkpt lat="43.902203" lon="12.5441961"><ele>173.75</ele><time>2026-05-02T05:07:30.812Z</time></trkpt><trkpt lat="43.9021261" lon="12.5440406"><ele>173.5</ele><time>2026-05-02T05:07:31.832Z</time></trkpt><trkpt lat="43.9020478" lon="12.5439072"><ele>173.25</ele><time>2026-05-02T05:07:32.809Z</time></trkpt><trkpt lat="43.9019658" lon="12.5437877"><ele>173.0</ele><time>2026-05-02T05:07:33.813Z</time></trkpt><trkpt lat="43.9018754" lon="12.543684"><ele>173.0</ele><time>2026-05-02T05:07:34.811Z</time></trkpt><trkpt lat="43.9017707" lon="12.5436002"><ele>173.0</ele><time>2026-05-02T05:07:35.816Z</time></trkpt><trkpt lat="43.9016507" lon="12.5435372"><ele>173.0</ele><time>2026-05-02T05:07:36.818Z</time></trkpt><trkpt lat="43.9015254" lon="12.543479"><ele>173.0</ele><time>2026-05-02T05:07:37.839Z</time></trkpt><trkpt lat="43.9014063" lon="12.5433883"><ele>173.25</ele><time>2026-05-02T05:07:38.813Z</time></trkpt><trkpt lat="43.9012998" lon="12.5432723"><ele>173.5</ele><time>2026-05-02T05:07:39.832Z</time></trkpt><trkpt lat="43.9012025" lon="12.5431384"><ele>173.75</ele><time>2026-05-02T05:07:40.804Z</time></trkpt><trkpt lat="43.9011113" lon="12.5430006"><ele>174.0</ele><time>2026-05-02T05:07:41.82Z</time></trkpt><trkpt lat="43.9010303" lon="12.5428617"><ele>174.0</ele><time>2026-05-02T05:07:42.8Z</time></trkpt><trkpt lat="43.9009557" lon="12.5427351"><ele>174.0</ele><time>2026-05-02T05:07:43.806Z</time></trkpt><trkpt lat="43.9008886" lon="12.5426211"><ele>174.0</ele><time>2026-05-02T05:07:44.817Z</time></trkpt><trkpt lat="43.9008166" lon="12.5425201"><ele>174.0</ele><time>2026-05-02T05:07:45.82Z</time></trkpt><trkpt lat="43.9007303" lon="12.5424243"><ele>174.0</ele><time>2026-05-02T05:07:46.804Z</time></trkpt><trkpt lat="43.9006341" lon="12.5423456"><ele>175.0</ele><time>2026-05-02T05:07:47.828Z</time></trkpt><trkpt lat="43.9005304" lon="12.5422688"><ele>176.0</ele><time>2026-05-02T05:07:48.81Z</time></trkpt><trkpt lat="43.9004226" lon="12.5421808"><ele>177.0</ele><time>2026-05-02T05:07:49.832Z</time></trkpt><trkpt lat="43.9003242" lon="12.5420819"><ele>178.0</ele><time>2026-05-02T05:07:50.806Z</time></trkpt><trkpt lat="43.9002291" lon="12.5419775"><ele>178.0</ele><time>2026-05-02T05:07:51.815Z</time></trkpt><trkpt lat="43.9001323" lon="12.541883"><ele>178.0</ele><time>2026-05-02T05:07:52.816Z</time></trkpt><trkpt lat="43.9000396" lon="12.5418005"><ele>178.0</ele><time>2026-05-02T05:07:53.809Z</time></trkpt><trkpt lat="43.8999471" lon="12.5417193"><ele>178.0</ele><time>2026-05-02T05:07:54.804Z</time></trkpt><trkpt lat="43.899854" lon="12.5416187"><ele>178.8</ele><time>2026-05-02T05:07:55.809Z</time></trkpt><trkpt lat="43.8997677" lon="12.5415156"><ele>179.60000000000002</ele><time>2026-05-02T05:07:56.808Z</time></trkpt><trkpt lat="43.8996837" lon="12.5414311"><ele>180.39999999999998</ele><time>2026-05-02T05:07:57.828Z</time></trkpt><trkpt lat="43.8995946" lon="12.5413676"><ele>181.2</ele><time>2026-05-02T05:07:58.801Z</time></trkpt><trkpt lat="43.8994928" lon="12.5413128"><ele>182.0</ele><time>2026-05-02T05:07:59.827Z</time></trkpt><trkpt lat="43.8993844" lon="12.5412386"><ele>181.75</ele><time>2026-05-02T05:08:00.802Z</time></trkpt><trkpt lat="43.899279" lon="12.5411578"><ele>181.5</ele><time>2026-05-02T05:08:01.792Z</time></trkpt><trkpt lat="43.8991731" lon="12.5410615"><ele>181.25</ele><time>2026-05-02T05:08:02.795Z</time></trkpt><trkpt lat="43.8990648" lon="12.5409593"><ele>181.0</ele><time>2026-05-02T05:08:03.818Z</time></trkpt><trkpt lat="43.8989551" lon="12.5408649"><ele>181.0</ele><time>2026-05-02T05:08:04.812Z</time></trkpt><trkpt lat="43.8988469" lon="12.5407793"><ele>181.0</ele><time>2026-05-02T05:08:05.806Z</time></trkpt><trkpt lat="43.89874" lon="12.5406882"><ele>181.0</ele><time>2026-05-02T05:08:06.807Z</time></trkpt><trkpt lat="43.8986307" lon="12.5405885"><ele>181.0</ele><time>2026-05-02T05:08:07.797Z</time></trkpt><trkpt lat="43.8985214" lon="12.5404875"><ele>181.5</ele><time>2026-05-02T05:08:08.82Z</time></trkpt><trkpt lat="43.8984034" lon="12.5403954"><ele>182.0</ele><time>2026-05-02T05:08:09.832Z</time></trkpt><trkpt lat="43.8982846" lon="12.5403088"><ele>182.5</ele><time>2026-05-02T05:08:10.811Z</time></trkpt><trkpt lat="43.8981739" lon="12.5402236"><ele>183.0</ele><time>2026-05-02T05:08:11.839Z</time></trkpt><trkpt lat="43.8980697" lon="12.5401445"><ele>183.0</ele><time>2026-05-02T05:08:12.807Z</time></trkpt><trkpt lat="43.897973" lon="12.5400678"><ele>183.0</ele><time>2026-05-02T05:08:13.806Z</time></trkpt><trkpt lat="43.8978741" lon="12.5399939"><ele>183.0</ele><time>2026-05-02T05:08:14.817Z</time></trkpt><trkpt lat="43.897771" lon="12.5399088"><ele>183.0</ele><time>2026-05-02T05:08:15.813Z</time></trkpt><trkpt lat="43.8976731" lon="12.5398264"><ele>183.8</ele><time>2026-05-02T05:08:16.804Z</time></trkpt><trkpt lat="43.8975811" lon="12.5397594"><ele>184.60000000000002</ele><time>2026-05-02T05:08:17.802Z</time></trkpt><trkpt lat="43.8974945" lon="12.5396918"><ele>185.39999999999998</ele><time>2026-05-02T05:08:18.804Z</time></trkpt><trkpt lat="43.8974178" lon="12.5396328"><ele>186.2</ele><time>2026-05-02T05:08:19.808Z</time></trkpt><trkpt lat="43.8973459" lon="12.5395688"><ele>187.0</ele><time>2026-05-02T05:08:20.81Z</time></trkpt><trkpt lat="43.8972679" lon="12.5395025"><ele>187.0</ele><time>2026-05-02T05:08:21.825Z</time></trkpt><trkpt lat="43.897173" lon="12.5394289"><ele>187.0</ele><time>2026-05-02T05:08:22.802Z</time></trkpt><trkpt lat="43.8970702" lon="12.5393676"><ele>187.0</ele><time>2026-05-02T05:08:23.824Z</time></trkpt><trkpt lat="43.896959" lon="12.5393181"><ele>187.0</ele><time>2026-05-02T05:08:24.817Z</time></trkpt><trkpt lat="43.8968491" lon="12.5392728"><ele>187.6</ele><time>2026-05-02T05:08:25.819Z</time></trkpt><trkpt lat="43.8967505" lon="12.5392318"><ele>188.2</ele><time>2026-05-02T05:08:26.809Z</time></trkpt><trkpt lat="43.8966599" lon="12.539193"><ele>188.8</ele><time>2026-05-02T05:08:27.821Z</time></trkpt><trkpt lat="43.8965733" lon="12.5391503"><ele>189.4</ele><time>2026-05-02T05:08:28.81Z</time></trkpt><trkpt lat="43.8964882" lon="12.5391028"><ele>190.0</ele><time>2026-05-02T05:08:29.824Z</time></trkpt><trkpt lat="43.8964049" lon="12.5390562"><ele>190.0</ele><time>2026-05-02T05:08:30.815Z</time></trkpt><trkpt lat="43.896339" lon="12.5390052"><ele>190.0</ele><time>2026-05-02T05:08:31.831Z</time></trkpt><trkpt lat="43.8962877" lon="12.5389541"><ele>190.0</ele><time>2026-05-02T05:08:32.804Z</time></trkpt><trkpt lat="43.8962388" lon="12.5388968"><ele>190.0</ele><time>2026-05-02T05:08:33.805Z</time></trkpt><trkpt lat="43.8961877" lon="12.5388409"><ele>190.0</ele><time>2026-05-02T05:08:34.814Z</time></trkpt><trkpt lat="43.8960688" lon="12.5387617"><ele>190.0</ele><time>2026-05-02T05:08:36.809Z</time></trkpt><trkpt lat="43.8960019" lon="12.5387234"><ele>189.83333333333334</ele><time>2026-05-02T05:08:37.81Z</time></trkpt><trkpt lat="43.8959369" lon="12.5386857"><ele>189.66666666666669</ele><time>2026-05-02T05:08:38.811Z</time></trkpt><trkpt lat="43.8958313" lon="12.5386656"><ele>189.5</ele><time>2026-05-02T05:08:40.795Z</time></trkpt><trkpt lat="43.8957461" lon="12.5387509"><ele>189.33333333333334</ele><time>2026-05-02T05:08:42.81Z</time></trkpt><trkpt lat="43.8957018" lon="12.5388257"><ele>189.16666666666666</ele><time>2026-05-02T05:08:43.804Z</time></trkpt><trkpt lat="43.8956458" lon="12.5388903"><ele>189.0</ele><time>2026-05-02T05:08:44.8Z</time></trkpt><trkpt lat="43.8955837" lon="12.5389465"><ele>189.0</ele><time>2026-05-02T05:08:45.813Z</time></trkpt><trkpt lat="43.8955165" lon="12.5389868"><ele>189.0</ele><time>2026-05-02T05:08:46.802Z</time></trkpt><trkpt lat="43.8954035" lon="12.5389935"><ele>189.0</ele><time>2026-05-02T05:08:48.801Z</time></trkpt><trkpt lat="43.8953395" lon="12.5389156"><ele>189.0</ele><time>2026-05-02T05:08:49.812Z</time></trkpt><trkpt lat="43.8952532" lon="12.5388212"><ele>189.0</ele><time>2026-05-02T05:08:50.806Z</time></trkpt><trkpt lat="43.8951602" lon="12.5387163"><ele>189.25</ele><time>2026-05-02T05:08:51.813Z</time></trkpt><trkpt lat="43.8950626" lon="12.538595"><ele>189.5</ele><time>2026-05-02T05:08:52.799Z</time></trkpt><trkpt lat="43.89497" lon="12.5384758"><ele>189.75</ele><time>2026-05-02T05:08:53.811Z</time></trkpt><trkpt lat="43.8948794" lon="12.5383633"><ele>190.0</ele><time>2026-05-02T05:08:54.806Z</time></trkpt><trkpt lat="43.8947982" lon="12.5382538"><ele>190.0</ele><time>2026-05-02T05:08:55.813Z</time></trkpt><trkpt lat="43.8947226" lon="12.5381538"><ele>190.0</ele><time>2026-05-02T05:08:56.805Z</time></trkpt><trkpt lat="43.8946439" lon="12.5380609"><ele>190.0</ele><time>2026-05-02T05:08:57.814Z</time></trkpt><trkpt lat="43.8945749" lon="12.5379905"><ele>190.0</ele><time>2026-05-02T05:08:58.808Z</time></trkpt><trkpt lat="43.8945092" lon="12.5379518"><ele>190.0</ele><time>2026-05-02T05:08:59.815Z</time></trkpt><trkpt lat="43.8944431" lon="12.5379439"><ele>190.0</ele><time>2026-05-02T05:09:00.802Z</time></trkpt><trkpt lat="43.8943341" lon="12.5379599"><ele>190.6</ele><time>2026-05-02T05:09:02.811Z</time></trkpt><trkpt lat="43.8942322" lon="12.5379423"><ele>191.2</ele><time>2026-05-02T05:09:04.808Z</time></trkpt><trkpt lat="43.8941215" lon="12.5379207"><ele>191.8</ele><time>2026-05-02T05:09:06.808Z</time></trkpt><trkpt lat="43.8940293" lon="12.537885"><ele>192.4</ele><time>2026-05-02T05:09:08.808Z</time></trkpt><trkpt lat="43.8939226" lon="12.5378618"><ele>193.0</ele><time>2026-05-02T05:09:10.812Z</time></trkpt><trkpt lat="43.8938179" lon="12.5378113"><ele>192.99999999999997</ele><time>2026-05-02T05:09:12.796Z</time></trkpt><trkpt lat="43.8937181" lon="12.5377618"><ele>193.0</ele><time>2026-05-02T05:09:14.805Z</time></trkpt><trkpt lat="43.8936024" lon="12.5377405"><ele>193.0</ele><time>2026-05-02T05:09:16.804Z</time></trkpt><trkpt lat="43.8935297" lon="12.5377341"><ele>193.0</ele><time>2026-05-02T05:09:17.81Z</time></trkpt><trkpt lat="43.8934586" lon="12.5377239"><ele>192.99999999999997</ele><time>2026-05-02T05:09:18.8Z</time></trkpt><trkpt lat="43.8933919" lon="12.5377083"><ele>193.0</ele><time>2026-05-02T05:09:19.814Z</time></trkpt><trkpt lat="43.8932677" lon="12.5376566"><ele>193.00000000000003</ele><time>2026-05-02T05:09:21.826Z</time></trkpt><trkpt lat="43.8932017" lon="12.5376193"><ele>193.0</ele><time>2026-05-02T05:09:22.816Z</time></trkpt><trkpt lat="43.8931344" lon="12.5375798"><ele>193.0</ele><time>2026-05-02T05:09:23.825Z</time></trkpt><trkpt lat="43.8930725" lon="12.5375393"><ele>193.0</ele><time>2026-05-02T05:09:24.814Z</time></trkpt><trkpt lat="43.8930022" lon="12.5374892"><ele>193.0</ele><time>2026-05-02T05:09:25.835Z</time></trkpt><trkpt lat="43.8929329" lon="12.5374379"><ele>193.00000000000003</ele><time>2026-05-02T05:09:26.798Z</time></trkpt><trkpt lat="43.8928682" lon="12.5374058"><ele>193.0</ele><time>2026-05-02T05:09:27.814Z</time></trkpt><trkpt lat="43.8928042" lon="12.5374037"><ele>193.0</ele><time>2026-05-02T05:09:28.813Z</time></trkpt><trkpt lat="43.8927124" lon="12.5374561"><ele>193.0</ele><time>2026-05-02T05:09:30.808Z</time></trkpt><trkpt lat="43.8926385" lon="12.5375536"><ele>193.0</ele><time>2026-05-02T05:09:32.814Z</time></trkpt><trkpt lat="43.8925334" lon="12.537627"><ele>193.0</ele><time>2026-05-02T05:09:34.809Z</time></trkpt><trkpt lat="43.8924729" lon="12.5376567"><ele>193.0</ele><time>2026-05-02T05:09:35.826Z</time></trkpt><trkpt lat="43.8923834" lon="12.5376802"><ele>192.99999999999997</ele><time>2026-05-02T05:09:37.834Z</time></trkpt><trkpt lat="43.8923098" lon="12.5376721"><ele>193.0</ele><time>2026-05-02T05:09:39.825Z</time></trkpt><trkpt lat="43.8922398" lon="12.5376873"><ele>193.0</ele><time>2026-05-02T05:09:42.804Z</time></trkpt><trkpt lat="43.8921762" lon="12.5376831"><ele>193.0</ele><time>2026-05-02T05:09:46.802Z</time></trkpt><trkpt lat="43.8920954" lon="12.5376368"><ele>192.99999999999997</ele><time>2026-05-02T05:09:48.807Z</time></trkpt><trkpt lat="43.8920038" lon="12.5376187"><ele>193.0</ele><time>2026-05-02T05:09:50.804Z</time></trkpt><trkpt lat="43.8919161" lon="12.5376772"><ele>193.0</ele><time>2026-05-02T05:09:52.813Z</time></trkpt><trkpt lat="43.8918422" lon="12.5377894"><ele>193.0</ele><time>2026-05-02T05:09:54.816Z</time></trkpt><trkpt lat="43.8917544" lon="12.5378481"><ele>193.0</ele><time>2026-05-02T05:09:56.813Z</time></trkpt><trkpt lat="43.8916902" lon="12.5379129"><ele>193.0</ele><time>2026-05-02T05:09:58.81Z</time></trkpt><trkpt lat="43.8916034" lon="12.5378967"><ele>193.0</ele><time>2026-05-02T05:10:01.834Z</time></trkpt><trkpt lat="43.8915083" lon="12.5378197"><ele>192.83333333333331</ele><time>2026-05-02T05:10:03.808Z</time></trkpt><trkpt lat="43.8913998" lon="12.5377926"><ele>192.66666666666666</ele><time>2026-05-02T05:10:05.834Z</time></trkpt><trkpt lat="43.8913309" lon="12.5377945"><ele>192.5</ele><time>2026-05-02T05:10:06.817Z</time></trkpt><trkpt lat="43.8912664" lon="12.5377855"><ele>192.33333333333331</ele><time>2026-05-02T05:10:07.821Z</time></trkpt><trkpt lat="43.8911666" lon="12.5377437"><ele>192.16666666666666</ele><time>2026-05-02T05:10:09.824Z</time></trkpt><trkpt lat="43.8910852" lon="12.5377104"><ele>192.0</ele><time>2026-05-02T05:10:11.817Z</time></trkpt><trkpt lat="43.8909946" lon="12.5376993"><ele>191.99999999999997</ele><time>2026-05-02T05:10:13.802Z</time></trkpt><trkpt lat="43.8909426" lon="12.5377833"><ele>192.0</ele><time>2026-05-02T05:10:16.805Z</time></trkpt><trkpt lat="43.8909108" lon="12.5378834"><ele>192.0</ele><time>2026-05-02T05:10:24.816Z</time></trkpt><trkpt lat="43.8908383" lon="12.5379223"><ele>192.0</ele><time>2026-05-02T05:10:27.817Z</time></trkpt><trkpt lat="43.8907622" lon="12.5379427"><ele>192.0</ele><time>2026-05-02T05:10:30.821Z</time></trkpt><trkpt lat="43.8906982" lon="12.5379528"><ele>191.99999999999997</ele><time>2026-05-02T05:13:18.806Z</time></trkpt><trkpt lat="43.8906361" lon="12.5379836"><ele>192.0</ele><time>2026-05-02T05:13:20.804Z</time></trkpt><trkpt lat="43.8905374" lon="12.5379744"><ele>192.16666666666666</ele><time>2026-05-02T05:13:22.813Z</time></trkpt><trkpt lat="43.8904258" lon="12.5379077"><ele>192.33333333333331</ele><time>2026-05-02T05:13:24.804Z</time></trkpt><trkpt lat="43.8903618" lon="12.5378788"><ele>192.5</ele><time>2026-05-02T05:13:25.797Z</time></trkpt><trkpt lat="43.8902906" lon="12.5378587"><ele>192.66666666666666</ele><time>2026-05-02T05:13:26.787Z</time></trkpt><trkpt lat="43.8902166" lon="12.5378313"><ele>192.83333333333331</ele><time>2026-05-02T05:13:27.805Z</time></trkpt><trkpt lat="43.8901479" lon="12.5378046"><ele>193.0</ele><time>2026-05-02T05:13:28.818Z</time></trkpt><trkpt lat="43.8900873" lon="12.537776"><ele>193.71428571428572</ele><time>2026-05-02T05:13:29.823Z</time></trkpt><trkpt lat="43.8900299" lon="12.537731"><ele>194.42857142857144</ele><time>2026-05-02T05:13:30.814Z</time></trkpt><trkpt lat="43.8899732" lon="12.5376677"><ele>195.14285714285717</ele><time>2026-05-02T05:13:31.797Z</time></trkpt><trkpt lat="43.8899168" lon="12.5375951"><ele>195.85714285714286</ele><time>2026-05-02T05:13:32.821Z</time></trkpt><trkpt lat="43.8898634" lon="12.537527"><ele>196.57142857142856</ele><time>2026-05-02T05:13:33.815Z</time></trkpt><trkpt lat="43.8898114" lon="12.537455"><ele>197.2857142857143</ele><time>2026-05-02T05:13:34.801Z</time></trkpt><trkpt lat="43.8897607" lon="12.5373818"><ele>198.0</ele><time>2026-05-02T05:13:35.815Z</time></trkpt><trkpt lat="43.8897078" lon="12.5373068"><ele>198.0</ele><time>2026-05-02T05:13:36.792Z</time></trkpt><trkpt lat="43.8896583" lon="12.53723"><ele>198.0</ele><time>2026-05-02T05:13:37.834Z</time></trkpt><trkpt lat="43.8896127" lon="12.5371528"><ele>198.0</ele><time>2026-05-02T05:13:38.82Z</time></trkpt><trkpt lat="43.8895649" lon="12.5370753"><ele>198.0</ele><time>2026-05-02T05:13:39.792Z</time></trkpt><trkpt lat="43.8895189" lon="12.5369951"><ele>198.0</ele><time>2026-05-02T05:13:40.809Z</time></trkpt><trkpt lat="43.8894766" lon="12.5369234"><ele>198.0</ele><time>2026-05-02T05:13:41.798Z</time></trkpt><trkpt lat="43.8894392" lon="12.5368479"><ele>198.0</ele><time>2026-05-02T05:13:42.802Z</time></trkpt><trkpt lat="43.8894065" lon="12.5367679"><ele>197.85714285714286</ele><time>2026-05-02T05:13:43.818Z</time></trkpt><trkpt lat="43.8893655" lon="12.5366843"><ele>197.7142857142857</ele><time>2026-05-02T05:13:44.792Z</time></trkpt><trkpt lat="43.8893259" lon="12.5366065"><ele>197.57142857142856</ele><time>2026-05-02T05:13:45.828Z</time></trkpt><trkpt lat="43.8892883" lon="12.5365273"><ele>197.42857142857144</ele><time>2026-05-02T05:13:46.807Z</time></trkpt><trkpt lat="43.889244" lon="12.5364533"><ele>197.28571428571428</ele><time>2026-05-02T05:13:47.822Z</time></trkpt><trkpt lat="43.8891986" lon="12.5363807"><ele>197.14285714285714</ele><time>2026-05-02T05:13:48.819Z</time></trkpt><trkpt lat="43.8891512" lon="12.5363003"><ele>197.0</ele><time>2026-05-02T05:13:49.834Z</time></trkpt><trkpt lat="43.8891041" lon="12.5362335"><ele>197.0</ele><time>2026-05-02T05:13:50.815Z</time></trkpt><trkpt lat="43.8890186" lon="12.5361091"><ele>197.0</ele><time>2026-05-02T05:13:52.807Z</time></trkpt><trkpt lat="43.8889749" lon="12.5360411"><ele>197.0</ele><time>2026-05-02T05:13:53.817Z</time></trkpt><trkpt lat="43.888934" lon="12.5359736"><ele>197.0</ele><time>2026-05-02T05:13:54.81Z</time></trkpt><trkpt lat="43.88886" lon="12.535851"><ele>197.0</ele><time>2026-05-02T05:13:56.815Z</time></trkpt><trkpt lat="43.8887884" lon="12.5357383"><ele>197.0</ele><time>2026-05-02T05:13:58.823Z</time></trkpt><trkpt lat="43.8887344" lon="12.5356405"><ele>197.0</ele><time>2026-05-02T05:14:00.806Z</time></trkpt><trkpt lat="43.8886815" lon="12.5355321"><ele>197.0</ele><time>2026-05-02T05:14:02.815Z</time></trkpt><trkpt lat="43.8886402" lon="12.5354163"><ele>197.0</ele><time>2026-05-02T05:14:04.82Z</time></trkpt><trkpt lat="43.8886093" lon="12.5352902"><ele>197.0</ele><time>2026-05-02T05:14:06.814Z</time></trkpt><trkpt lat="43.8885729" lon="12.5351549"><ele>197.16666666666669</ele><time>2026-05-02T05:14:08.813Z</time></trkpt><trkpt lat="43.8885363" lon="12.5350528"><ele>197.33333333333334</ele><time>2026-05-02T05:14:10.817Z</time></trkpt><trkpt lat="43.8885024" lon="12.5349713"><ele>197.5</ele><time>2026-05-02T05:14:24.811Z</time></trkpt><trkpt lat="43.8884342" lon="12.5349266"><ele>197.66666666666669</ele><time>2026-05-02T05:14:31.832Z</time></trkpt><trkpt lat="43.8883504" lon="12.5348995"><ele>197.83333333333334</ele><time>2026-05-02T05:14:34.816Z</time></trkpt><trkpt lat="43.8882866" lon="12.534867"><ele>198.0</ele><time>2026-05-02T05:14:36.808Z</time></trkpt><trkpt lat="43.8882095" lon="12.5348158"><ele>198.16666666666666</ele><time>2026-05-02T05:14:38.818Z</time></trkpt><trkpt lat="43.8881482" lon="12.5347659"><ele>198.33333333333331</ele><time>2026-05-02T05:14:40.806Z</time></trkpt><trkpt lat="43.8880974" lon="12.5346981"><ele>198.5</ele><time>2026-05-02T05:14:43.839Z</time></trkpt><trkpt lat="43.8880651" lon="12.5346065"><ele>198.66666666666666</ele><time>2026-05-02T05:14:51.835Z</time></trkpt><trkpt lat="43.8880305" lon="12.5344749"><ele>198.83333333333331</ele><time>2026-05-02T05:14:53.816Z</time></trkpt><trkpt lat="43.887955" lon="12.5343381"><ele>199.0</ele><time>2026-05-02T05:14:55.816Z</time></trkpt><trkpt lat="43.8879112" lon="12.5342743"><ele>199.33333333333331</ele><time>2026-05-02T05:14:56.814Z</time></trkpt><trkpt lat="43.8878648" lon="12.5341965"><ele>199.66666666666666</ele><time>2026-05-02T05:14:57.819Z</time></trkpt><trkpt lat="43.8878182" lon="12.5341144"><ele>200.0</ele><time>2026-05-02T05:14:58.804Z</time></trkpt><trkpt lat="43.8877683" lon="12.5340362"><ele>200.33333333333331</ele><time>2026-05-02T05:14:59.824Z</time></trkpt><trkpt lat="43.8877197" lon="12.5339548"><ele>200.66666666666666</ele><time>2026-05-02T05:15:00.819Z</time></trkpt><trkpt lat="43.8876757" lon="12.5338699"><ele>201.0</ele><time>2026-05-02T05:15:01.82Z</time></trkpt><trkpt lat="43.8876384" lon="12.5337736"><ele>201.0</ele><time>2026-05-02T05:15:02.808Z</time></trkpt><trkpt lat="43.8876042" lon="12.5336878"><ele>201.0</ele><time>2026-05-02T05:15:03.812Z</time></trkpt><trkpt lat="43.887572" lon="12.5336102"><ele>201.0</ele><time>2026-05-02T05:15:04.82Z</time></trkpt><trkpt lat="43.8874813" lon="12.5334893"><ele>201.0</ele><time>2026-05-02T05:15:06.81Z</time></trkpt><trkpt lat="43.8874263" lon="12.5334334"><ele>201.0</ele><time>2026-05-02T05:15:07.809Z</time></trkpt><trkpt lat="43.8873674" lon="12.5333768"><ele>201.0</ele><time>2026-05-02T05:15:08.817Z</time></trkpt><trkpt lat="43.8872604" lon="12.5332845"><ele>201.0</ele><time>2026-05-02T05:15:10.806Z</time></trkpt><trkpt lat="43.8871752" lon="12.5331867"><ele>201.0</ele><time>2026-05-02T05:15:12.817Z</time></trkpt><trkpt lat="43.8871263" lon="12.5330644"><ele>201.0</ele><time>2026-05-02T05:15:14.822Z</time></trkpt><trkpt lat="43.887054" lon="12.5329334"><ele>201.0</ele><time>2026-05-02T05:15:16.817Z</time></trkpt><trkpt lat="43.8870033" lon="12.5328701"><ele>201.0</ele><time>2026-05-02T05:15:17.811Z</time></trkpt><trkpt lat="43.8869446" lon="12.5328116"><ele>200.66666666666666</ele><time>2026-05-02T05:15:18.82Z</time></trkpt><trkpt lat="43.8868753" lon="12.5327458"><ele>200.33333333333331</ele><time>2026-05-02T05:15:19.811Z</time></trkpt><trkpt lat="43.8868011" lon="12.5326813"><ele>200.0</ele><time>2026-05-02T05:15:20.806Z</time></trkpt><trkpt lat="43.8867317" lon="12.5326055"><ele>199.66666666666666</ele><time>2026-05-02T05:15:21.825Z</time></trkpt><trkpt lat="43.8866619" lon="12.5325336"><ele>199.33333333333331</ele><time>2026-05-02T05:15:22.811Z</time></trkpt><trkpt lat="43.8865856" lon="12.5324645"><ele>199.0</ele><time>2026-05-02T05:15:23.811Z</time></trkpt><trkpt lat="43.8865101" lon="12.5323956"><ele>199.49999999999997</ele><time>2026-05-02T05:15:24.802Z</time></trkpt><trkpt lat="43.8864323" lon="12.5323278"><ele>200.0</ele><time>2026-05-02T05:15:25.809Z</time></trkpt><trkpt lat="43.8863652" lon="12.5322559"><ele>200.5</ele><time>2026-05-02T05:15:26.805Z</time></trkpt><trkpt lat="43.8863068" lon="12.532182"><ele>201.0</ele><time>2026-05-02T05:15:27.817Z</time></trkpt><trkpt lat="43.886257" lon="12.5321055"><ele>201.49999999999997</ele><time>2026-05-02T05:15:28.815Z</time></trkpt><trkpt lat="43.8862149" lon="12.5320298"><ele>202.0</ele><time>2026-05-02T05:15:29.813Z</time></trkpt><trkpt lat="43.8861767" lon="12.5319574"><ele>201.99999999999997</ele><time>2026-05-02T05:15:30.819Z</time></trkpt><trkpt lat="43.8860943" lon="12.5318299"><ele>202.0</ele><time>2026-05-02T05:15:32.811Z</time></trkpt><trkpt lat="43.8860515" lon="12.5317635"><ele>202.0</ele><time>2026-05-02T05:15:33.811Z</time></trkpt><trkpt lat="43.8860134" lon="12.5316926"><ele>202.0</ele><time>2026-05-02T05:15:34.813Z</time></trkpt><trkpt lat="43.8859658" lon="12.5316137"><ele>201.99999999999997</ele><time>2026-05-02T05:15:35.814Z</time></trkpt><trkpt lat="43.8859122" lon="12.531531"><ele>202.0</ele><time>2026-05-02T05:15:36.813Z</time></trkpt><trkpt lat="43.8858531" lon="12.5314623"><ele>202.83333333333331</ele><time>2026-05-02T05:15:37.82Z</time></trkpt><trkpt lat="43.8857908" lon="12.5314108"><ele>203.66666666666666</ele><time>2026-05-02T05:15:38.818Z</time></trkpt><trkpt lat="43.8857199" lon="12.5313683"><ele>204.5</ele><time>2026-05-02T05:15:39.824Z</time></trkpt><trkpt lat="43.8856508" lon="12.5313186"><ele>205.33333333333331</ele><time>2026-05-02T05:15:40.809Z</time></trkpt><trkpt lat="43.8855793" lon="12.5312762"><ele>206.16666666666666</ele><time>2026-05-02T05:15:41.793Z</time></trkpt><trkpt lat="43.8855054" lon="12.5312358"><ele>207.0</ele><time>2026-05-02T05:15:42.817Z</time></trkpt><trkpt lat="43.8854343" lon="12.5311876"><ele>207.0</ele><time>2026-05-02T05:15:43.813Z</time></trkpt><trkpt lat="43.8853636" lon="12.5311454"><ele>207.0</ele><time>2026-05-02T05:15:44.806Z</time></trkpt><trkpt lat="43.8852899" lon="12.5311019"><ele>207.0</ele><time>2026-05-02T05:15:45.822Z</time></trkpt><trkpt lat="43.8852165" lon="12.5310604"><ele>207.0</ele><time>2026-05-02T05:15:46.807Z</time></trkpt><trkpt lat="43.8851424" lon="12.5310273"><ele>207.0</ele><time>2026-05-02T05:15:47.812Z</time></trkpt><trkpt lat="43.8850672" lon="12.5310006"><ele>207.0</ele><time>2026-05-02T05:15:48.816Z</time></trkpt><trkpt lat="43.8849921" lon="12.5309735"><ele>207.16666666666666</ele><time>2026-05-02T05:15:49.812Z</time></trkpt><trkpt lat="43.8849185" lon="12.5309328"><ele>207.33333333333331</ele><time>2026-05-02T05:15:50.811Z</time></trkpt><trkpt lat="43.8848514" lon="12.5308795"><ele>207.5</ele><time>2026-05-02T05:15:51.811Z</time></trkpt><trkpt lat="43.8847845" lon="12.5308219"><ele>207.66666666666666</ele><time>2026-05-02T05:15:52.814Z</time></trkpt><trkpt lat="43.8847164" lon="12.5307664"><ele>207.83333333333331</ele><time>2026-05-02T05:15:53.817Z</time></trkpt><trkpt lat="43.8846499" lon="12.5307048"><ele>208.0</ele><time>2026-05-02T05:15:54.813Z</time></trkpt><trkpt lat="43.8845779" lon="12.5306427"><ele>207.99999999999997</ele><time>2026-05-02T05:15:55.814Z</time></trkpt><trkpt lat="43.884493" lon="12.5305733"><ele>208.0</ele><time>2026-05-02T05:15:56.811Z</time></trkpt><trkpt lat="43.8844066" lon="12.5304894"><ele>208.0</ele><time>2026-05-02T05:15:57.811Z</time></trkpt><trkpt lat="43.8843293" lon="12.5304152"><ele>208.0</ele><time>2026-05-02T05:15:58.823Z</time></trkpt><trkpt lat="43.8842686" lon="12.530349"><ele>207.99999999999997</ele><time>2026-05-02T05:15:59.815Z</time></trkpt><trkpt lat="43.8842173" lon="12.5302894"><ele>208.0</ele><time>2026-05-02T05:16:00.796Z</time></trkpt><trkpt lat="43.8841315" lon="12.5302016"><ele>208.2</ele><time>2026-05-02T05:16:02.805Z</time></trkpt><trkpt lat="43.8840886" lon="12.5301081"><ele>208.4</ele><time>2026-05-02T05:16:04.812Z</time></trkpt><trkpt lat="43.8840713" lon="12.530006"><ele>208.6</ele><time>2026-05-02T05:16:06.81Z</time></trkpt><trkpt lat="43.8839705" lon="12.529886"><ele>208.79999999999998</ele><time>2026-05-02T05:16:08.814Z</time></trkpt><trkpt lat="43.8838969" lon="12.5298139"><ele>209.0</ele><time>2026-05-02T05:16:09.824Z</time></trkpt><trkpt lat="43.883815" lon="12.5297372"><ele>209.0</ele><time>2026-05-02T05:16:10.821Z</time></trkpt><trkpt lat="43.8837308" lon="12.5296631"><ele>209.0</ele><time>2026-05-02T05:16:11.84Z</time></trkpt><trkpt lat="43.8836577" lon="12.5296005"><ele>209.0</ele><time>2026-05-02T05:16:12.816Z</time></trkpt><trkpt lat="43.8836046" lon="12.5295434"><ele>209.0</ele><time>2026-05-02T05:16:13.828Z</time></trkpt><trkpt lat="43.8835756" lon="12.5293541"><ele>209.0</ele><time>2026-05-02T05:16:15.815Z</time></trkpt><trkpt lat="43.8835871" lon="12.5292378"><ele>208.83333333333334</ele><time>2026-05-02T05:16:16.816Z</time></trkpt><trkpt lat="43.8836107" lon="12.5291258"><ele>208.66666666666669</ele><time>2026-05-02T05:16:17.823Z</time></trkpt><trkpt lat="43.8836516" lon="12.5290391"><ele>208.5</ele><time>2026-05-02T05:16:18.798Z</time></trkpt><trkpt lat="43.8837016" lon="12.5289635"><ele>208.33333333333331</ele><time>2026-05-02T05:16:19.827Z</time></trkpt><trkpt lat="43.8837571" lon="12.528884"><ele>208.16666666666666</ele><time>2026-05-02T05:16:20.805Z</time></trkpt><trkpt lat="43.8838213" lon="12.5287999"><ele>208.0</ele><time>2026-05-02T05:16:21.828Z</time></trkpt><trkpt lat="43.8838882" lon="12.5286935"><ele>208.4</ele><time>2026-05-02T05:16:22.81Z</time></trkpt><trkpt lat="43.8839561" lon="12.5285796"><ele>208.8</ele><time>2026-05-02T05:16:23.82Z</time></trkpt><trkpt lat="43.8840195" lon="12.5284611"><ele>209.2</ele><time>2026-05-02T05:16:24.815Z</time></trkpt><trkpt lat="43.8840894" lon="12.52834"><ele>209.6</ele><time>2026-05-02T05:16:25.818Z</time></trkpt><trkpt lat="43.8841615" lon="12.5282278"><ele>210.0</ele><time>2026-05-02T05:16:26.809Z</time></trkpt><trkpt lat="43.8842293" lon="12.5281145"><ele>210.0</ele><time>2026-05-02T05:16:27.811Z</time></trkpt><trkpt lat="43.8842984" lon="12.5279977"><ele>210.0</ele><time>2026-05-02T05:16:28.81Z</time></trkpt><trkpt lat="43.8843671" lon="12.5278717"><ele>210.0</ele><time>2026-05-02T05:16:29.813Z</time></trkpt><trkpt lat="43.8844324" lon="12.5277341"><ele>210.0</ele><time>2026-05-02T05:16:30.824Z</time></trkpt><trkpt lat="43.884494" lon="12.5275835"><ele>210.0</ele><time>2026-05-02T05:16:31.808Z</time></trkpt><trkpt lat="43.8845589" lon="12.5274395"><ele>210.0</ele><time>2026-05-02T05:16:32.81Z</time></trkpt><trkpt lat="43.8846235" lon="12.5273062"><ele>210.0</ele><time>2026-05-02T05:16:33.812Z</time></trkpt><trkpt lat="43.8846823" lon="12.5271831"><ele>210.0</ele><time>2026-05-02T05:16:34.814Z</time></trkpt><trkpt lat="43.8847412" lon="12.5270844"><ele>210.0</ele><time>2026-05-02T05:16:35.818Z</time></trkpt><trkpt lat="43.8848055" lon="12.5270104"><ele>210.28571428571428</ele><time>2026-05-02T05:16:36.806Z</time></trkpt><trkpt lat="43.884879" lon="12.526955"><ele>210.57142857142856</ele><time>2026-05-02T05:16:37.816Z</time></trkpt><trkpt lat="43.884943" lon="12.5268888"><ele>210.85714285714286</ele><time>2026-05-02T05:16:38.81Z</time></trkpt><trkpt lat="43.8849747" lon="12.5267978"><ele>211.14285714285714</ele><time>2026-05-02T05:16:39.809Z</time></trkpt><trkpt lat="43.8849722" lon="12.5267052"><ele>211.42857142857142</ele><time>2026-05-02T05:16:40.821Z</time></trkpt><trkpt lat="43.8849386" lon="12.5266303"><ele>211.71428571428572</ele><time>2026-05-02T05:16:41.814Z</time></trkpt><trkpt lat="43.8848716" lon="12.5265787"><ele>212.0</ele><time>2026-05-02T05:16:42.804Z</time></trkpt><trkpt lat="43.884778" lon="12.5265502"><ele>212.0</ele><time>2026-05-02T05:16:43.813Z</time></trkpt><trkpt lat="43.8846765" lon="12.5265136"><ele>212.0</ele><time>2026-05-02T05:16:44.807Z</time></trkpt><trkpt lat="43.8845721" lon="12.5264439"><ele>212.0</ele><time>2026-05-02T05:16:45.825Z</time></trkpt><trkpt lat="43.8844712" lon="12.5263587"><ele>212.0</ele><time>2026-05-02T05:16:46.809Z</time></trkpt><trkpt lat="43.8843615" lon="12.5262605"><ele>212.25</ele><time>2026-05-02T05:16:47.812Z</time></trkpt><trkpt lat="43.8842531" lon="12.526155"><ele>212.5</ele><time>2026-05-02T05:16:48.807Z</time></trkpt><trkpt lat="43.8841433" lon="12.5260521"><ele>212.75</ele><time>2026-05-02T05:16:49.816Z</time></trkpt><trkpt lat="43.8840334" lon="12.5259459"><ele>213.0</ele><time>2026-05-02T05:16:50.816Z</time></trkpt><trkpt lat="43.8839304" lon="12.5258408"><ele>213.0</ele><time>2026-05-02T05:16:51.816Z</time></trkpt><trkpt lat="43.8838279" lon="12.5257349"><ele>213.0</ele><time>2026-05-02T05:16:52.812Z</time></trkpt><trkpt lat="43.8837227" lon="12.5256298"><ele>213.0</ele><time>2026-05-02T05:16:53.82Z</time></trkpt><trkpt lat="43.8836188" lon="12.5255239"><ele>213.0</ele><time>2026-05-02T05:16:54.819Z</time></trkpt><trkpt lat="43.8835165" lon="12.5254151"><ele>213.75</ele><time>2026-05-02T05:16:55.828Z</time></trkpt><trkpt lat="43.8834173" lon="12.5253014"><ele>214.5</ele><time>2026-05-02T05:16:56.814Z</time></trkpt><trkpt lat="43.8833226" lon="12.5251727"><ele>215.25</ele><time>2026-05-02T05:16:57.81Z</time></trkpt><trkpt lat="43.883232" lon="12.525038"><ele>216.0</ele><time>2026-05-02T05:16:58.823Z</time></trkpt><trkpt lat="43.8831468" lon="12.5248933"><ele>216.0</ele><time>2026-05-02T05:16:59.828Z</time></trkpt><trkpt lat="43.8830635" lon="12.5247438"><ele>216.0</ele><time>2026-05-02T05:17:00.822Z</time></trkpt><trkpt lat="43.8829853" lon="12.5245905"><ele>216.0</ele><time>2026-05-02T05:17:01.826Z</time></trkpt><trkpt lat="43.8829135" lon="12.5244292"><ele>216.0</ele><time>2026-05-02T05:17:02.803Z</time></trkpt><trkpt lat="43.8828483" lon="12.5242624"><ele>217.0</ele><time>2026-05-02T05:17:03.827Z</time></trkpt><trkpt lat="43.8827873" lon="12.5240964"><ele>218.0</ele><time>2026-05-02T05:17:04.812Z</time></trkpt><trkpt lat="43.8827339" lon="12.523924"><ele>219.0</ele><time>2026-05-02T05:17:05.818Z</time></trkpt><trkpt lat="43.8826884" lon="12.523733"><ele>220.0</ele><time>2026-05-02T05:17:06.805Z</time></trkpt><trkpt lat="43.8826525" lon="12.5235299"><ele>222.66666666666666</ele><time>2026-05-02T05:17:07.804Z</time></trkpt><trkpt lat="43.8826214" lon="12.5233135"><ele>225.33333333333331</ele><time>2026-05-02T05:17:08.812Z</time></trkpt><trkpt lat="43.8825984" lon="12.5230917"><ele>228.0</ele><time>2026-05-02T05:17:09.817Z</time></trkpt><trkpt lat="43.882578" lon="12.5228632"><ele>228.0</ele><time>2026-05-02T05:17:10.806Z</time></trkpt><trkpt lat="43.8825618" lon="12.5226356"><ele>228.0</ele><time>2026-05-02T05:17:11.821Z</time></trkpt><trkpt lat="43.8825483" lon="12.5224027"><ele>228.0</ele><time>2026-05-02T05:17:12.805Z</time></trkpt><trkpt lat="43.8825347" lon="12.5221666"><ele>228.66666666666669</ele><time>2026-05-02T05:17:13.828Z</time></trkpt><trkpt lat="43.8825243" lon="12.5219279"><ele>229.33333333333334</ele><time>2026-05-02T05:17:14.812Z</time></trkpt><trkpt lat="43.8825112" lon="12.521689"><ele>230.0</ele><time>2026-05-02T05:17:15.804Z</time></trkpt><trkpt lat="43.8824961" lon="12.5214484"><ele>228.66666666666669</ele><time>2026-05-02T05:17:16.804Z</time></trkpt><trkpt lat="43.8824783" lon="12.5212056"><ele>227.33333333333331</ele><time>2026-05-02T05:17:17.804Z</time></trkpt><trkpt lat="43.882464" lon="12.5209642"><ele>226.0</ele><time>2026-05-02T05:17:18.809Z</time></trkpt><trkpt lat="43.8824474" lon="12.5207211"><ele>226.0</ele><time>2026-05-02T05:17:19.802Z</time></trkpt><trkpt lat="43.8824317" lon="12.5204786"><ele>226.0</ele><time>2026-05-02T05:17:20.806Z</time></trkpt><trkpt lat="43.8824129" lon="12.5202349"><ele>226.0</ele><time>2026-05-02T05:17:21.804Z</time></trkpt><trkpt lat="43.8823929" lon="12.5199907"><ele>225.66666666666666</ele><time>2026-05-02T05:17:22.803Z</time></trkpt><trkpt lat="43.8823749" lon="12.5197469"><ele>225.33333333333331</ele><time>2026-05-02T05:17:23.809Z</time></trkpt><trkpt lat="43.8823578" lon="12.5195025"><ele>225.0</ele><time>2026-05-02T05:17:24.807Z</time></trkpt><trkpt lat="43.8823383" lon="12.5192547"><ele>226.0</ele><time>2026-05-02T05:17:25.816Z</time></trkpt><trkpt lat="43.8823137" lon="12.5190045"><ele>227.0</ele><time>2026-05-02T05:17:26.812Z</time></trkpt><trkpt lat="43.8822807" lon="12.5187585"><ele>228.0</ele><time>2026-05-02T05:17:27.809Z</time></trkpt><trkpt lat="43.882244" lon="12.5185144"><ele>229.66666666666669</ele><time>2026-05-02T05:17:28.794Z</time></trkpt><trkpt lat="43.8822073" lon="12.5182701"><ele>231.33333333333334</ele><time>2026-05-02T05:17:29.816Z</time></trkpt><trkpt lat="43.8821705" lon="12.5180282"><ele>233.0</ele><time>2026-05-02T05:17:30.809Z</time></trkpt><trkpt lat="43.8821353" lon="12.5177862"><ele>235.0</ele><time>2026-05-02T05:17:31.82Z</time></trkpt><trkpt lat="43.8821036" lon="12.5175493"><ele>237.0</ele><time>2026-05-02T05:17:32.814Z</time></trkpt><trkpt lat="43.8820704" lon="12.5173138"><ele>239.0</ele><time>2026-05-02T05:17:33.824Z</time></trkpt><trkpt lat="43.8820382" lon="12.5170796"><ele>240.0</ele><time>2026-05-02T05:17:34.817Z</time></trkpt><trkpt lat="43.8820039" lon="12.5168463"><ele>241.0</ele><time>2026-05-02T05:17:35.841Z</time></trkpt><trkpt lat="43.8819704" lon="12.5166151"><ele>242.0</ele><time>2026-05-02T05:17:36.832Z</time></trkpt><trkpt lat="43.8819351" lon="12.51638"><ele>242.66666666666669</ele><time>2026-05-02T05:17:37.814Z</time></trkpt><trkpt lat="43.8819044" lon="12.5161472"><ele>243.33333333333331</ele><time>2026-05-02T05:17:38.82Z</time></trkpt><trkpt lat="43.8818723" lon="12.5159169"><ele>244.0</ele><time>2026-05-02T05:17:39.816Z</time></trkpt><trkpt lat="43.8818399" lon="12.5156869"><ele>244.0</ele><time>2026-05-02T05:17:40.821Z</time></trkpt><trkpt lat="43.8818105" lon="12.5154605"><ele>244.0</ele><time>2026-05-02T05:17:41.832Z</time></trkpt><trkpt lat="43.8817865" lon="12.5152282"><ele>244.0</ele><time>2026-05-02T05:17:42.818Z</time></trkpt><trkpt lat="43.8817709" lon="12.5149948"><ele>241.66666666666666</ele><time>2026-05-02T05:17:43.823Z</time></trkpt><trkpt lat="43.8817637" lon="12.5147579"><ele>239.33333333333331</ele><time>2026-05-02T05:17:44.825Z</time></trkpt><trkpt lat="43.8817582" lon="12.5145235"><ele>237.0</ele><time>2026-05-02T05:17:45.828Z</time></trkpt><trkpt lat="43.8817485" lon="12.5142876"><ele>237.0</ele><time>2026-05-02T05:17:46.811Z</time></trkpt><trkpt lat="43.8817376" lon="12.514053"><ele>237.0</ele><time>2026-05-02T05:17:47.824Z</time></trkpt><trkpt lat="43.8817265" lon="12.5138249"><ele>237.0</ele><time>2026-05-02T05:17:48.813Z</time></trkpt><trkpt lat="43.88171" lon="12.5135942"><ele>238.0</ele><time>2026-05-02T05:17:49.82Z</time></trkpt><trkpt lat="43.8816922" lon="12.5133645"><ele>239.0</ele><time>2026-05-02T05:17:50.816Z</time></trkpt><trkpt lat="43.8816707" lon="12.5131331"><ele>240.0</ele><time>2026-05-02T05:17:51.816Z</time></trkpt><trkpt lat="43.8816429" lon="12.5129022"><ele>240.33333333333331</ele><time>2026-05-02T05:17:52.821Z</time></trkpt><trkpt lat="43.8816089" lon="12.5126715"><ele>240.66666666666666</ele><time>2026-05-02T05:17:53.816Z</time></trkpt><trkpt lat="43.8815662" lon="12.5124434"><ele>241.0</ele><time>2026-05-02T05:17:54.824Z</time></trkpt><trkpt lat="43.8815192" lon="12.512216"><ele>241.33333333333331</ele><time>2026-05-02T05:17:55.827Z</time></trkpt><trkpt lat="43.8814678" lon="12.5119879"><ele>241.66666666666669</ele><time>2026-05-02T05:17:56.812Z</time></trkpt><trkpt lat="43.8814133" lon="12.5117647"><ele>242.0</ele><time>2026-05-02T05:17:57.817Z</time></trkpt><trkpt lat="43.8813541" lon="12.511545"><ele>242.0</ele><time>2026-05-02T05:17:58.81Z</time></trkpt><trkpt lat="43.8812914" lon="12.5113256"><ele>242.0</ele><time>2026-05-02T05:17:59.82Z</time></trkpt><trkpt lat="43.8812307" lon="12.511116"><ele>242.0</ele><time>2026-05-02T05:18:00.813Z</time></trkpt><trkpt lat="43.8811671" lon="12.510907"><ele>244.0</ele><time>2026-05-02T05:18:01.811Z</time></trkpt><trkpt lat="43.8811004" lon="12.5106941"><ele>246.0</ele><time>2026-05-02T05:18:02.815Z</time></trkpt><trkpt lat="43.8810367" lon="12.5104854"><ele>248.0</ele><time>2026-05-02T05:18:03.829Z</time></trkpt><trkpt lat="43.8809761" lon="12.5102751"><ele>247.33333333333334</ele><time>2026-05-02T05:18:04.811Z</time></trkpt><trkpt lat="43.8809168" lon="12.5100678"><ele>246.66666666666669</ele><time>2026-05-02T05:18:05.832Z</time></trkpt><trkpt lat="43.8808507" lon="12.5098622"><ele>246.0</ele><time>2026-05-02T05:18:06.814Z</time></trkpt><trkpt lat="43.8807767" lon="12.5096592"><ele>248.66666666666669</ele><time>2026-05-02T05:18:07.837Z</time></trkpt><trkpt lat="43.8806954" lon="12.5094621"><ele>251.33333333333334</ele><time>2026-05-02T05:18:08.815Z</time></trkpt><trkpt lat="43.8806108" lon="12.5092674"><ele>254.0</ele><time>2026-05-02T05:18:09.814Z</time></trkpt><trkpt lat="43.8805269" lon="12.5090672"><ele>254.0</ele><time>2026-05-02T05:18:10.805Z</time></trkpt><trkpt lat="43.8804443" lon="12.5088667"><ele>254.0</ele><time>2026-05-02T05:18:11.815Z</time></trkpt><trkpt lat="43.8803643" lon="12.5086694"><ele>254.0</ele><time>2026-05-02T05:18:12.811Z</time></trkpt><trkpt lat="43.880285" lon="12.5084724"><ele>254.33333333333334</ele><time>2026-05-02T05:18:13.841Z</time></trkpt><trkpt lat="43.8802043" lon="12.5082772"><ele>254.66666666666669</ele><time>2026-05-02T05:18:14.805Z</time></trkpt><trkpt lat="43.8801183" lon="12.5080766"><ele>255.0</ele><time>2026-05-02T05:18:15.827Z</time></trkpt><trkpt lat="43.8800326" lon="12.5078698"><ele>253.33333333333331</ele><time>2026-05-02T05:18:16.827Z</time></trkpt><trkpt lat="43.879944" lon="12.5076626"><ele>251.66666666666666</ele><time>2026-05-02T05:18:17.82Z</time></trkpt><trkpt lat="43.8798542" lon="12.5074584"><ele>250.0</ele><time>2026-05-02T05:18:18.815Z</time></trkpt><trkpt lat="43.8797674" lon="12.5072506"><ele>252.33333333333331</ele><time>2026-05-02T05:18:19.832Z</time></trkpt><trkpt lat="43.8796944" lon="12.5070462"><ele>254.66666666666669</ele><time>2026-05-02T05:18:20.816Z</time></trkpt><trkpt lat="43.8796297" lon="12.5068292"><ele>257.0</ele><time>2026-05-02T05:18:21.822Z</time></trkpt><trkpt lat="43.8795776" lon="12.5066051"><ele>257.0</ele><time>2026-05-02T05:18:22.809Z</time></trkpt><trkpt lat="43.879529" lon="12.50638"><ele>257.0</ele><time>2026-05-02T05:18:23.816Z</time></trkpt><trkpt lat="43.8794755" lon="12.506156"><ele>257.0</ele><time>2026-05-02T05:18:24.8Z</time></trkpt><trkpt lat="43.8794146" lon="12.5059342"><ele>258.0</ele><time>2026-05-02T05:18:25.816Z</time></trkpt><trkpt lat="43.8793379" lon="12.5057183"><ele>259.0</ele><time>2026-05-02T05:18:26.81Z</time></trkpt><trkpt lat="43.8792448" lon="12.5055176"><ele>260.0</ele><time>2026-05-02T05:18:27.823Z</time></trkpt><trkpt lat="43.8791442" lon="12.5053239"><ele>260.0</ele><time>2026-05-02T05:18:28.808Z</time></trkpt><trkpt lat="43.8790379" lon="12.505126"><ele>260.0</ele><time>2026-05-02T05:18:29.825Z</time></trkpt><trkpt lat="43.878931" lon="12.5049319"><ele>260.0</ele><time>2026-05-02T05:18:30.819Z</time></trkpt><trkpt lat="43.8788288" lon="12.504745"><ele>262.0</ele><time>2026-05-02T05:18:31.826Z</time></trkpt><trkpt lat="43.8787302" lon="12.504556"><ele>264.0</ele><time>2026-05-02T05:18:32.824Z</time></trkpt><trkpt lat="43.8786291" lon="12.5043656"><ele>266.0</ele><time>2026-05-02T05:18:33.838Z</time></trkpt><trkpt lat="43.8785307" lon="12.5041813"><ele>265.33333333333337</ele><time>2026-05-02T05:18:34.817Z</time></trkpt><trkpt lat="43.8784318" lon="12.5039956"><ele>264.6666666666667</ele><time>2026-05-02T05:18:35.83Z</time></trkpt><trkpt lat="43.8783344" lon="12.5038046"><ele>264.0</ele><time>2026-05-02T05:18:36.817Z</time></trkpt><trkpt lat="43.8782396" lon="12.503607"><ele>264.0</ele><time>2026-05-02T05:18:37.819Z</time></trkpt><trkpt lat="43.8781478" lon="12.503412"><ele>264.0</ele><time>2026-05-02T05:18:38.812Z</time></trkpt><trkpt lat="43.87806" lon="12.5032093"><ele>264.0</ele><time>2026-05-02T05:18:39.826Z</time></trkpt><trkpt lat="43.8779775" lon="12.5029984"><ele>266.0</ele><time>2026-05-02T05:18:40.812Z</time></trkpt><trkpt lat="43.8778937" lon="12.5027852"><ele>268.0</ele><time>2026-05-02T05:18:41.834Z</time></trkpt><trkpt lat="43.8778071" lon="12.5025739"><ele>270.0</ele><time>2026-05-02T05:18:42.792Z</time></trkpt><trkpt lat="43.8777169" lon="12.5023604"><ele>270.0</ele><time>2026-05-02T05:18:43.83Z</time></trkpt><trkpt lat="43.8776249" lon="12.5021476"><ele>270.0</ele><time>2026-05-02T05:18:44.83Z</time></trkpt><trkpt lat="43.8775326" lon="12.5019297"><ele>270.0</ele><time>2026-05-02T05:18:45.833Z</time></trkpt><trkpt lat="43.8774412" lon="12.5017042"><ele>269.0</ele><time>2026-05-02T05:18:46.825Z</time></trkpt><trkpt lat="43.8773494" lon="12.5014831"><ele>268.0</ele><time>2026-05-02T05:18:47.818Z</time></trkpt><trkpt lat="43.87726" lon="12.5012615"><ele>267.0</ele><time>2026-05-02T05:18:48.817Z</time></trkpt><trkpt lat="43.877171" lon="12.5010405"><ele>267.0</ele><time>2026-05-02T05:18:49.834Z</time></trkpt><trkpt lat="43.8770773" lon="12.5008188"><ele>267.0</ele><time>2026-05-02T05:18:50.811Z</time></trkpt><trkpt lat="43.8769851" lon="12.500601"><ele>267.0</ele><time>2026-05-02T05:18:51.832Z</time></trkpt><trkpt lat="43.8768912" lon="12.5003731"><ele>266.0</ele><time>2026-05-02T05:18:52.812Z</time></trkpt><trkpt lat="43.8768013" lon="12.5001505"><ele>265.0</ele><time>2026-05-02T05:18:53.827Z</time></trkpt><trkpt lat="43.8767077" lon="12.4999273"><ele>264.0</ele><time>2026-05-02T05:18:54.812Z</time></trkpt><trkpt lat="43.8766186" lon="12.4997182"><ele>265.0</ele><time>2026-05-02T05:18:55.828Z</time></trkpt><trkpt lat="43.8765424" lon="12.4995294"><ele>266.0</ele><time>2026-05-02T05:18:56.829Z</time></trkpt><trkpt lat="43.8764689" lon="12.4993384"><ele>267.0</ele><time>2026-05-02T05:18:57.822Z</time></trkpt><trkpt lat="43.8764011" lon="12.4991465"><ele>267.0</ele><time>2026-05-02T05:18:58.811Z</time></trkpt><trkpt lat="43.8763408" lon="12.4989467"><ele>267.0</ele><time>2026-05-02T05:18:59.836Z</time></trkpt><trkpt lat="43.876286" lon="12.4987379"><ele>267.0</ele><time>2026-05-02T05:19:00.8Z</time></trkpt><trkpt lat="43.8762364" lon="12.4985276"><ele>268.6666666666667</ele><time>2026-05-02T05:19:01.815Z</time></trkpt><trkpt lat="43.8761867" lon="12.4983116"><ele>270.33333333333337</ele><time>2026-05-02T05:19:02.803Z</time></trkpt><trkpt lat="43.8761429" lon="12.4980961"><ele>272.0</ele><time>2026-05-02T05:19:03.809Z</time></trkpt><trkpt lat="43.8760947" lon="12.497876"><ele>275.33333333333337</ele><time>2026-05-02T05:19:04.8Z</time></trkpt><trkpt lat="43.8760514" lon="12.4976536"><ele>278.6666666666667</ele><time>2026-05-02T05:19:05.801Z</time></trkpt><trkpt lat="43.8760141" lon="12.4974428"><ele>282.0</ele><time>2026-05-02T05:19:06.8Z</time></trkpt><trkpt lat="43.8759746" lon="12.4972499"><ele>283.5</ele><time>2026-05-02T05:19:07.822Z</time></trkpt><trkpt lat="43.8759368" lon="12.4970782"><ele>285.0</ele><time>2026-05-02T05:19:08.807Z</time></trkpt><trkpt lat="43.8758928" lon="12.4969213"><ele>286.5</ele><time>2026-05-02T05:19:09.808Z</time></trkpt><trkpt lat="43.8758349" lon="12.4967866"><ele>288.0</ele><time>2026-05-02T05:19:10.8Z</time></trkpt><trkpt lat="43.8757746" lon="12.4966765"><ele>284.8</ele><time>2026-05-02T05:19:11.806Z</time></trkpt><trkpt lat="43.8757137" lon="12.4965877"><ele>281.6</ele><time>2026-05-02T05:19:12.803Z</time></trkpt><trkpt lat="43.8756516" lon="12.4965038"><ele>278.4</ele><time>2026-05-02T05:19:13.811Z</time></trkpt><trkpt lat="43.8756034" lon="12.4964435"><ele>275.2</ele><time>2026-05-02T05:19:14.805Z</time></trkpt><trkpt lat="43.8755007" lon="12.4963954"><ele>272.0</ele><time>2026-05-02T05:19:16.819Z</time></trkpt><trkpt lat="43.8754056" lon="12.496497"><ele>272.0</ele><time>2026-05-02T05:19:18.802Z</time></trkpt><trkpt lat="43.8753565" lon="12.4965812"><ele>272.0</ele><time>2026-05-02T05:19:19.811Z</time></trkpt><trkpt lat="43.8752926" lon="12.4966834"><ele>272.0</ele><time>2026-05-02T05:19:20.808Z</time></trkpt><trkpt lat="43.8752089" lon="12.4967886"><ele>272.0</ele><time>2026-05-02T05:19:21.83Z</time></trkpt><trkpt lat="43.8751076" lon="12.4969011"><ele>272.0</ele><time>2026-05-02T05:19:22.814Z</time></trkpt><trkpt lat="43.8749943" lon="12.4970088"><ele>269.25</ele><time>2026-05-02T05:19:23.811Z</time></trkpt><trkpt lat="43.8748699" lon="12.4971066"><ele>266.5</ele><time>2026-05-02T05:19:24.809Z</time></trkpt><trkpt lat="43.8747472" lon="12.497183"><ele>263.75</ele><time>2026-05-02T05:19:25.819Z</time></trkpt><trkpt lat="43.8746249" lon="12.497234"><ele>261.0</ele><time>2026-05-02T05:19:26.822Z</time></trkpt><trkpt lat="43.8745102" lon="12.4972646"><ele>261.0</ele><time>2026-05-02T05:19:27.823Z</time></trkpt><trkpt lat="43.8743996" lon="12.4972848"><ele>261.0</ele><time>2026-05-02T05:19:28.804Z</time></trkpt><trkpt lat="43.8742866" lon="12.4972907"><ele>261.0</ele><time>2026-05-02T05:19:29.828Z</time></trkpt><trkpt lat="43.8741678" lon="12.4972854"><ele>261.0</ele><time>2026-05-02T05:19:30.818Z</time></trkpt><trkpt lat="43.8740421" lon="12.4972779"><ele>261.0</ele><time>2026-05-02T05:19:31.829Z</time></trkpt><trkpt lat="43.8739137" lon="12.4972541"><ele>261.0</ele><time>2026-05-02T05:19:32.804Z</time></trkpt><trkpt lat="43.8737813" lon="12.497201"><ele>261.0</ele><time>2026-05-02T05:19:33.815Z</time></trkpt><trkpt lat="43.8736486" lon="12.4971315"><ele>261.0</ele><time>2026-05-02T05:19:34.806Z</time></trkpt><trkpt lat="43.8735171" lon="12.4970525"><ele>262.0</ele><time>2026-05-02T05:19:35.812Z</time></trkpt><trkpt lat="43.8733911" lon="12.4969452"><ele>263.0</ele><time>2026-05-02T05:19:36.806Z</time></trkpt><trkpt lat="43.8732646" lon="12.4968247"><ele>264.0</ele><time>2026-05-02T05:19:37.813Z</time></trkpt><trkpt lat="43.8731422" lon="12.4967031"><ele>264.0</ele><time>2026-05-02T05:19:38.805Z</time></trkpt><trkpt lat="43.8730146" lon="12.4965888"><ele>264.0</ele><time>2026-05-02T05:19:39.811Z</time></trkpt><trkpt lat="43.8728866" lon="12.4964817"><ele>264.0</ele><time>2026-05-02T05:19:40.811Z</time></trkpt><trkpt lat="43.8727579" lon="12.4963667"><ele>264.0</ele><time>2026-05-02T05:19:41.822Z</time></trkpt><trkpt lat="43.8726258" lon="12.4962585"><ele>264.0</ele><time>2026-05-02T05:19:42.82Z</time></trkpt><trkpt lat="43.8724989" lon="12.4961513"><ele>264.0</ele><time>2026-05-02T05:19:43.819Z</time></trkpt><trkpt lat="43.8723748" lon="12.4960453"><ele>264.0</ele><time>2026-05-02T05:19:44.818Z</time></trkpt><trkpt lat="43.8722517" lon="12.4959395"><ele>264.25</ele><time>2026-05-02T05:19:45.83Z</time></trkpt><trkpt lat="43.8721311" lon="12.4958328"><ele>264.5</ele><time>2026-05-02T05:19:46.81Z</time></trkpt><trkpt lat="43.8720098" lon="12.4957298"><ele>264.75</ele><time>2026-05-02T05:19:47.825Z</time></trkpt><trkpt lat="43.8718903" lon="12.4956188"><ele>265.0</ele><time>2026-05-02T05:19:48.802Z</time></trkpt><trkpt lat="43.8717729" lon="12.4955157"><ele>266.0</ele><time>2026-05-02T05:19:49.812Z</time></trkpt><trkpt lat="43.8716637" lon="12.4954173"><ele>267.0</ele><time>2026-05-02T05:19:50.802Z</time></trkpt><trkpt lat="43.8715738" lon="12.4953121"><ele>268.0</ele><time>2026-05-02T05:19:51.808Z</time></trkpt><trkpt lat="43.8714945" lon="12.4952107"><ele>269.0</ele><time>2026-05-02T05:19:52.801Z</time></trkpt><trkpt lat="43.8714168" lon="12.4951141"><ele>269.0</ele><time>2026-05-02T05:19:53.814Z</time></trkpt><trkpt lat="43.8713391" lon="12.4950155"><ele>269.0</ele><time>2026-05-02T05:19:54.805Z</time></trkpt><trkpt lat="43.8712556" lon="12.4949166"><ele>269.0</ele><time>2026-05-02T05:19:55.808Z</time></trkpt><trkpt lat="43.8711671" lon="12.4948085"><ele>269.0</ele><time>2026-05-02T05:19:56.808Z</time></trkpt><trkpt lat="43.8710721" lon="12.4947002"><ele>269.0</ele><time>2026-05-02T05:19:57.809Z</time></trkpt><trkpt lat="43.870975" lon="12.4945891"><ele>269.0</ele><time>2026-05-02T05:19:58.813Z</time></trkpt><trkpt lat="43.8708764" lon="12.4944785"><ele>269.0</ele><time>2026-05-02T05:19:59.814Z</time></trkpt><trkpt lat="43.8707804" lon="12.4943602"><ele>269.0</ele><time>2026-05-02T05:20:00.81Z</time></trkpt><trkpt lat="43.8706813" lon="12.494248"><ele>269.4</ele><time>2026-05-02T05:20:01.808Z</time></trkpt><trkpt lat="43.8705931" lon="12.494146"><ele>269.79999999999995</ele><time>2026-05-02T05:20:02.797Z</time></trkpt><trkpt lat="43.8705196" lon="12.4940541"><ele>270.20000000000005</ele><time>2026-05-02T05:20:03.813Z</time></trkpt><trkpt lat="43.8704578" lon="12.4939801"><ele>270.6</ele><time>2026-05-02T05:20:04.799Z</time></trkpt><trkpt lat="43.8704107" lon="12.4938596"><ele>271.0</ele><time>2026-05-02T05:20:06.812Z</time></trkpt><trkpt lat="43.8704674" lon="12.4937439"><ele>272.0</ele><time>2026-05-02T05:20:08.818Z</time></trkpt><trkpt lat="43.8705198" lon="12.4936836"><ele>273.0</ele><time>2026-05-02T05:20:09.801Z</time></trkpt><trkpt lat="43.8705652" lon="12.4935338"><ele>274.0</ele><time>2026-05-02T05:20:11.809Z</time></trkpt><trkpt lat="43.8705308" lon="12.4933753"><ele>275.0</ele><time>2026-05-02T05:20:13.8Z</time></trkpt><trkpt lat="43.8704751" lon="12.4933165"><ele>276.0</ele><time>2026-05-02T05:20:14.811Z</time></trkpt><trkpt lat="43.870413" lon="12.4932512"><ele>276.0</ele><time>2026-05-02T05:20:15.817Z</time></trkpt><trkpt lat="43.8703519" lon="12.4931807"><ele>276.0</ele><time>2026-05-02T05:20:16.822Z</time></trkpt><trkpt lat="43.8703042" lon="12.4930937"><ele>276.0</ele><time>2026-05-02T05:20:17.819Z</time></trkpt><trkpt lat="43.8702563" lon="12.4929885"><ele>276.0</ele><time>2026-05-02T05:20:18.8Z</time></trkpt><trkpt lat="43.8702013" lon="12.4928875"><ele>276.0</ele><time>2026-05-02T05:20:19.821Z</time></trkpt><trkpt lat="43.8701415" lon="12.4927849"><ele>276.0</ele><time>2026-05-02T05:20:20.808Z</time></trkpt><trkpt lat="43.8700794" lon="12.492674"><ele>275.75</ele><time>2026-05-02T05:20:21.813Z</time></trkpt><trkpt lat="43.8700112" lon="12.4925528"><ele>275.5</ele><time>2026-05-02T05:20:22.809Z</time></trkpt><trkpt lat="43.8699408" lon="12.4924275"><ele>275.25</ele><time>2026-05-02T05:20:23.803Z</time></trkpt><trkpt lat="43.8698669" lon="12.4923033"><ele>275.0</ele><time>2026-05-02T05:20:24.804Z</time></trkpt><trkpt lat="43.8697948" lon="12.4921754"><ele>275.75</ele><time>2026-05-02T05:20:25.798Z</time></trkpt><trkpt lat="43.8697242" lon="12.4920457"><ele>276.5</ele><time>2026-05-02T05:20:26.796Z</time></trkpt><trkpt lat="43.8696495" lon="12.4919149"><ele>277.25</ele><time>2026-05-02T05:20:27.801Z</time></trkpt><trkpt lat="43.8695732" lon="12.4917814"><ele>278.0</ele><time>2026-05-02T05:20:28.793Z</time></trkpt><trkpt lat="43.8695023" lon="12.4916521"><ele>278.0</ele><time>2026-05-02T05:20:29.809Z</time></trkpt><trkpt lat="43.8694347" lon="12.4915185"><ele>278.0</ele><time>2026-05-02T05:20:30.807Z</time></trkpt><trkpt lat="43.8693753" lon="12.4913816"><ele>278.0</ele><time>2026-05-02T05:20:31.799Z</time></trkpt><trkpt lat="43.8693245" lon="12.4912398"><ele>278.0</ele><time>2026-05-02T05:20:32.803Z</time></trkpt><trkpt lat="43.8692851" lon="12.4910933"><ele>278.5</ele><time>2026-05-02T05:20:33.806Z</time></trkpt><trkpt lat="43.8692646" lon="12.4909415"><ele>279.0</ele><time>2026-05-02T05:20:34.804Z</time></trkpt><trkpt lat="43.8692572" lon="12.4907884"><ele>279.5</ele><time>2026-05-02T05:20:35.814Z</time></trkpt><trkpt lat="43.8692623" lon="12.490624"><ele>280.0</ele><time>2026-05-02T05:20:36.808Z</time></trkpt><trkpt lat="43.8692715" lon="12.4904661"><ele>282.0</ele><time>2026-05-02T05:20:37.81Z</time></trkpt><trkpt lat="43.869281" lon="12.4903157"><ele>284.0</ele><time>2026-05-02T05:20:38.805Z</time></trkpt><trkpt lat="43.8692935" lon="12.4901882"><ele>286.0</ele><time>2026-05-02T05:20:39.802Z</time></trkpt><trkpt lat="43.8693028" lon="12.4900835"><ele>288.0</ele><time>2026-05-02T05:20:40.816Z</time></trkpt><trkpt lat="43.8693098" lon="12.4899824"><ele>290.0</ele><time>2026-05-02T05:20:41.806Z</time></trkpt><trkpt lat="43.8693115" lon="12.4898764"><ele>292.0</ele><time>2026-05-02T05:20:42.794Z</time></trkpt><trkpt lat="43.8693006" lon="12.4897707"><ele>292.0</ele><time>2026-05-02T05:20:43.806Z</time></trkpt><trkpt lat="43.869272" lon="12.4896859"><ele>292.0</ele><time>2026-05-02T05:20:44.799Z</time></trkpt><trkpt lat="43.8692224" lon="12.4895737"><ele>292.0</ele><time>2026-05-02T05:20:46.811Z</time></trkpt><trkpt lat="43.8692569" lon="12.4894816"><ele>292.0</ele><time>2026-05-02T05:20:48.808Z</time></trkpt><trkpt lat="43.8693078" lon="12.489584"><ele>292.0</ele><time>2026-05-02T05:20:50.801Z</time></trkpt><trkpt lat="43.869285" lon="12.4897272"><ele>292.0</ele><time>2026-05-02T05:20:52.808Z</time></trkpt><trkpt lat="43.8692836" lon="12.4898161"><ele>292.0</ele><time>2026-05-02T05:20:53.806Z</time></trkpt><trkpt lat="43.8692899" lon="12.4899131"><ele>292.0</ele><time>2026-05-02T05:20:54.795Z</time></trkpt><trkpt lat="43.8693013" lon="12.4900162"><ele>292.0</ele><time>2026-05-02T05:20:55.81Z</time></trkpt><trkpt lat="43.8693215" lon="12.4901059"><ele>292.0</ele><time>2026-05-02T05:20:56.806Z</time></trkpt><trkpt lat="43.8693671" lon="12.4901759"><ele>292.0</ele><time>2026-05-02T05:20:57.81Z</time></trkpt><trkpt lat="43.8694272" lon="12.4902127"><ele>292.0</ele><time>2026-05-02T05:20:58.799Z</time></trkpt><trkpt lat="43.8695229" lon="12.4902001"><ele>292.0</ele><time>2026-05-02T05:21:00.802Z</time></trkpt><trkpt lat="43.8695646" lon="12.4901189"><ele>292.0</ele><time>2026-05-02T05:21:02.797Z</time></trkpt><trkpt lat="43.8695919" lon="12.489938"><ele>292.0</ele><time>2026-05-02T05:21:04.809Z</time></trkpt><trkpt lat="43.8695919" lon="12.4898207"><ele>292.0</ele><time>2026-05-02T05:21:05.819Z</time></trkpt><trkpt lat="43.869604" lon="12.4897002"><ele>292.0</ele><time>2026-05-02T05:21:06.812Z</time></trkpt><trkpt lat="43.869616" lon="12.4895748"><ele>292.0</ele><time>2026-05-02T05:21:07.805Z</time></trkpt><trkpt lat="43.8696287" lon="12.4894447"><ele>292.2</ele><time>2026-05-02T05:21:08.806Z</time></trkpt><trkpt lat="43.8696354" lon="12.4893221"><ele>292.4</ele><time>2026-05-02T05:21:09.816Z</time></trkpt><trkpt lat="43.8696164" lon="12.4891837"><ele>292.6</ele><time>2026-05-02T05:21:11.821Z</time></trkpt><trkpt lat="43.8695602" lon="12.4890247"><ele>292.8</ele><time>2026-05-02T05:21:13.809Z</time></trkpt><trkpt lat="43.8695226" lon="12.4889191"><ele>293.0</ele><time>2026-05-02T05:21:14.825Z</time></trkpt><trkpt lat="43.8694827" lon="12.4888055"><ele>292.0</ele><time>2026-05-02T05:21:15.824Z</time></trkpt><trkpt lat="43.8694367" lon="12.4886767"><ele>291.0</ele><time>2026-05-02T05:21:16.814Z</time></trkpt><trkpt lat="43.8693861" lon="12.4885381"><ele>290.0</ele><time>2026-05-02T05:21:17.806Z</time></trkpt><trkpt lat="43.8693338" lon="12.4883947"><ele>289.0</ele><time>2026-05-02T05:21:18.8Z</time></trkpt><trkpt lat="43.8692783" lon="12.4882465"><ele>288.25</ele><time>2026-05-02T05:21:19.813Z</time></trkpt><trkpt lat="43.8692231" lon="12.4880975"><ele>287.5</ele><time>2026-05-02T05:21:20.814Z</time></trkpt><trkpt lat="43.8691542" lon="12.4879562"><ele>286.75</ele><time>2026-05-02T05:21:21.815Z</time></trkpt><trkpt lat="43.8690706" lon="12.4878331"><ele>286.0</ele><time>2026-05-02T05:21:22.807Z</time></trkpt><trkpt lat="43.868977" lon="12.4877478"><ele>287.40000000000003</ele><time>2026-05-02T05:21:23.817Z</time></trkpt><trkpt lat="43.8688765" lon="12.4876819"><ele>288.8</ele><time>2026-05-02T05:21:24.806Z</time></trkpt><trkpt lat="43.8687713" lon="12.4876294"><ele>290.20000000000005</ele><time>2026-05-02T05:21:25.808Z</time></trkpt><trkpt lat="43.8686703" lon="12.4875705"><ele>291.6</ele><time>2026-05-02T05:21:26.816Z</time></trkpt><trkpt lat="43.8685767" lon="12.4874953"><ele>293.0</ele><time>2026-05-02T05:21:27.822Z</time></trkpt><trkpt lat="43.8684982" lon="12.4873984"><ele>293.0</ele><time>2026-05-02T05:21:28.793Z</time></trkpt><trkpt lat="43.8684373" lon="12.4872835"><ele>293.0</ele><time>2026-05-02T05:21:29.813Z</time></trkpt><trkpt lat="43.868379" lon="12.4871559"><ele>293.0</ele><time>2026-05-02T05:21:30.823Z</time></trkpt><trkpt lat="43.8683234" lon="12.4870261"><ele>293.0</ele><time>2026-05-02T05:21:31.828Z</time></trkpt><trkpt lat="43.8682624" lon="12.4868987"><ele>293.0</ele><time>2026-05-02T05:21:32.805Z</time></trkpt><trkpt lat="43.8681841" lon="12.4867709"><ele>295.75</ele><time>2026-05-02T05:21:33.818Z</time></trkpt><trkpt lat="43.8680822" lon="12.48666"><ele>298.5</ele><time>2026-05-02T05:21:34.808Z</time></trkpt><trkpt lat="43.8679586" lon="12.4865807"><ele>301.25</ele><time>2026-05-02T05:21:35.814Z</time></trkpt><trkpt lat="43.8678236" lon="12.4865317"><ele>304.0</ele><time>2026-05-02T05:21:36.808Z</time></trkpt><trkpt lat="43.867691" lon="12.4864994"><ele>305.5</ele><time>2026-05-02T05:21:37.814Z</time></trkpt><trkpt lat="43.867564" lon="12.4864633"><ele>307.0</ele><time>2026-05-02T05:21:38.797Z</time></trkpt><trkpt lat="43.8674496" lon="12.4864013"><ele>308.5</ele><time>2026-05-02T05:21:39.829Z</time></trkpt><trkpt lat="43.8673395" lon="12.4863038"><ele>310.0</ele><time>2026-05-02T05:21:40.804Z</time></trkpt><trkpt lat="43.8672357" lon="12.4861721"><ele>310.0</ele><time>2026-05-02T05:21:41.807Z</time></trkpt><trkpt lat="43.8671305" lon="12.4860257"><ele>310.0</ele><time>2026-05-02T05:21:42.817Z</time></trkpt><trkpt lat="43.8670158" lon="12.4858675"><ele>310.0</ele><time>2026-05-02T05:21:43.817Z</time></trkpt><trkpt lat="43.8668933" lon="12.4857048"><ele>311.0</ele><time>2026-05-02T05:21:44.813Z</time></trkpt><trkpt lat="43.8667515" lon="12.485556"><ele>312.0</ele><time>2026-05-02T05:21:45.831Z</time></trkpt><trkpt lat="43.8665886" lon="12.485437"><ele>313.0</ele><time>2026-05-02T05:21:46.814Z</time></trkpt><trkpt lat="43.8664264" lon="12.4853439"><ele>313.0</ele><time>2026-05-02T05:21:47.833Z</time></trkpt><trkpt lat="43.8662953" lon="12.4852731"><ele>313.0</ele><time>2026-05-02T05:21:48.816Z</time></trkpt><trkpt lat="43.866191" lon="12.4851769"><ele>313.0</ele><time>2026-05-02T05:21:49.82Z</time></trkpt><trkpt lat="43.8661194" lon="12.4850521"><ele>313.0</ele><time>2026-05-02T05:21:50.82Z</time></trkpt><trkpt lat="43.8660724" lon="12.4848891"><ele>313.0</ele><time>2026-05-02T05:21:51.816Z</time></trkpt><trkpt lat="43.8660423" lon="12.484681"><ele>313.0</ele><time>2026-05-02T05:21:52.796Z</time></trkpt><trkpt lat="43.866022" lon="12.4844424"><ele>313.0</ele><time>2026-05-02T05:21:53.823Z</time></trkpt><trkpt lat="43.866005" lon="12.4841993"><ele>316.66666666666663</ele><time>2026-05-02T05:21:54.817Z</time></trkpt><trkpt lat="43.8659845" lon="12.4839735"><ele>320.3333333333333</ele><time>2026-05-02T05:21:55.813Z</time></trkpt><trkpt lat="43.8659702" lon="12.4837491"><ele>324.0</ele><time>2026-05-02T05:21:56.806Z</time></trkpt><trkpt lat="43.8659684" lon="12.483528"><ele>325.3333333333333</ele><time>2026-05-02T05:21:57.816Z</time></trkpt><trkpt lat="43.8659837" lon="12.4832966"><ele>326.66666666666663</ele><time>2026-05-02T05:21:58.803Z</time></trkpt><trkpt lat="43.8660054" lon="12.4830631"><ele>328.0</ele><time>2026-05-02T05:21:59.818Z</time></trkpt><trkpt lat="43.866024" lon="12.4828277"><ele>329.0</ele><time>2026-05-02T05:22:00.804Z</time></trkpt><trkpt lat="43.8660406" lon="12.4825966"><ele>330.0</ele><time>2026-05-02T05:22:01.818Z</time></trkpt><trkpt lat="43.8660428" lon="12.4823735"><ele>331.0</ele><time>2026-05-02T05:22:02.821Z</time></trkpt><trkpt lat="43.8660236" lon="12.4821641"><ele>330.3333333333333</ele><time>2026-05-02T05:22:03.819Z</time></trkpt><trkpt lat="43.8659927" lon="12.4819471"><ele>329.6666666666667</ele><time>2026-05-02T05:22:04.802Z</time></trkpt><trkpt lat="43.8659582" lon="12.4817259"><ele>329.0</ele><time>2026-05-02T05:22:05.803Z</time></trkpt><trkpt lat="43.8659303" lon="12.4815258"><ele>329.0</ele><time>2026-05-02T05:22:06.801Z</time></trkpt><trkpt lat="43.8659151" lon="12.4813386"><ele>329.0</ele><time>2026-05-02T05:22:07.806Z</time></trkpt><trkpt lat="43.8658763" lon="12.4811613"><ele>329.0</ele><time>2026-05-02T05:22:08.802Z</time></trkpt><trkpt lat="43.8658112" lon="12.4810004"><ele>329.0</ele><time>2026-05-02T05:22:09.816Z</time></trkpt><trkpt lat="43.86572" lon="12.4808624"><ele>330.5</ele><time>2026-05-02T05:22:10.805Z</time></trkpt><trkpt lat="43.8656193" lon="12.4807408"><ele>332.0</ele><time>2026-05-02T05:22:11.807Z</time></trkpt><trkpt lat="43.865525" lon="12.480648"><ele>333.5</ele><time>2026-05-02T05:22:12.801Z</time></trkpt><trkpt lat="43.8654393" lon="12.4805644"><ele>335.0</ele><time>2026-05-02T05:22:13.808Z</time></trkpt><trkpt lat="43.8653517" lon="12.480476"><ele>335.25</ele><time>2026-05-02T05:22:14.816Z</time></trkpt><trkpt lat="43.8652563" lon="12.4803538"><ele>335.5</ele><time>2026-05-02T05:22:15.812Z</time></trkpt><trkpt lat="43.8651701" lon="12.4802122"><ele>335.75</ele><time>2026-05-02T05:22:16.812Z</time></trkpt><trkpt lat="43.8650904" lon="12.4800291"><ele>336.0</ele><time>2026-05-02T05:22:17.815Z</time></trkpt><trkpt lat="43.8650145" lon="12.4798256"><ele>336.0</ele><time>2026-05-02T05:22:18.809Z</time></trkpt><trkpt lat="43.864941" lon="12.4796057"><ele>336.0</ele><time>2026-05-02T05:22:19.805Z</time></trkpt><trkpt lat="43.8648698" lon="12.4793863"><ele>336.0</ele><time>2026-05-02T05:22:20.816Z</time></trkpt><trkpt lat="43.8648049" lon="12.4791772"><ele>340.0</ele><time>2026-05-02T05:22:21.824Z</time></trkpt><trkpt lat="43.8647428" lon="12.478976"><ele>344.0</ele><time>2026-05-02T05:22:22.803Z</time></trkpt><trkpt lat="43.8646732" lon="12.4787875"><ele>348.0</ele><time>2026-05-02T05:22:23.807Z</time></trkpt><trkpt lat="43.8645997" lon="12.4786084"><ele>354.0</ele><time>2026-05-02T05:22:24.802Z</time></trkpt><trkpt lat="43.8645096" lon="12.4784325"><ele>360.0</ele><time>2026-05-02T05:22:25.832Z</time></trkpt><trkpt lat="43.8644113" lon="12.4782623"><ele>366.0</ele><time>2026-05-02T05:22:26.794Z</time></trkpt><trkpt lat="43.8643051" lon="12.478097"><ele>364.3333333333333</ele><time>2026-05-02T05:22:27.809Z</time></trkpt><trkpt lat="43.8641826" lon="12.4779493"><ele>362.66666666666663</ele><time>2026-05-02T05:22:28.811Z</time></trkpt><trkpt lat="43.8640468" lon="12.4778272"><ele>361.0</ele><time>2026-05-02T05:22:29.806Z</time></trkpt><trkpt lat="43.8638997" lon="12.4777301"><ele>361.0</ele><time>2026-05-02T05:22:30.819Z</time></trkpt><trkpt lat="43.8637431" lon="12.477657"><ele>361.0</ele><time>2026-05-02T05:22:31.823Z</time></trkpt><trkpt lat="43.8635846" lon="12.4775971"><ele>361.0</ele><time>2026-05-02T05:22:32.821Z</time></trkpt><trkpt lat="43.8634291" lon="12.4775443"><ele>358.3333333333333</ele><time>2026-05-02T05:22:33.816Z</time></trkpt><trkpt lat="43.8632807" lon="12.4774795"><ele>355.6666666666667</ele><time>2026-05-02T05:22:34.806Z</time></trkpt><trkpt lat="43.8631362" lon="12.4773954"><ele>353.0</ele><time>2026-05-02T05:22:35.809Z</time></trkpt><trkpt lat="43.8629905" lon="12.4772821"><ele>353.0</ele><time>2026-05-02T05:22:36.799Z</time></trkpt><trkpt lat="43.8628362" lon="12.477153"><ele>353.0</ele><time>2026-05-02T05:22:37.813Z</time></trkpt><trkpt lat="43.8626788" lon="12.4770331"><ele>353.0</ele><time>2026-05-02T05:22:38.809Z</time></trkpt><trkpt lat="43.8625246" lon="12.4769033"><ele>354.0</ele><time>2026-05-02T05:22:39.813Z</time></trkpt><trkpt lat="43.8623768" lon="12.4767866"><ele>355.0</ele><time>2026-05-02T05:22:40.809Z</time></trkpt><trkpt lat="43.8622263" lon="12.4766759"><ele>356.0</ele><time>2026-05-02T05:22:41.835Z</time></trkpt><trkpt lat="43.8620775" lon="12.4765593"><ele>356.0</ele><time>2026-05-02T05:22:42.816Z</time></trkpt><trkpt lat="43.8619317" lon="12.4764419"><ele>356.0</ele><time>2026-05-02T05:22:43.835Z</time></trkpt><trkpt lat="43.861787" lon="12.4763265"><ele>356.0</ele><time>2026-05-02T05:22:44.807Z</time></trkpt><trkpt lat="43.861645" lon="12.4762113"><ele>358.0</ele><time>2026-05-02T05:22:45.835Z</time></trkpt><trkpt lat="43.861501" lon="12.476089"><ele>360.0</ele><time>2026-05-02T05:22:46.817Z</time></trkpt><trkpt lat="43.8613628" lon="12.4759672"><ele>362.0</ele><time>2026-05-02T05:22:47.816Z</time></trkpt><trkpt lat="43.8612275" lon="12.4758341"><ele>362.0</ele><time>2026-05-02T05:22:48.807Z</time></trkpt><trkpt lat="43.8610968" lon="12.475705"><ele>362.0</ele><time>2026-05-02T05:22:49.829Z</time></trkpt><trkpt lat="43.8609742" lon="12.475578"><ele>362.0</ele><time>2026-05-02T05:22:50.812Z</time></trkpt><trkpt lat="43.8608601" lon="12.4754517"><ele>361.75</ele><time>2026-05-02T05:22:51.829Z</time></trkpt><trkpt lat="43.8607476" lon="12.475327"><ele>361.5</ele><time>2026-05-02T05:22:52.812Z</time></trkpt><trkpt lat="43.8606355" lon="12.4752005"><ele>361.25</ele><time>2026-05-02T05:22:53.825Z</time></trkpt><trkpt lat="43.8605186" lon="12.4750755"><ele>361.0</ele><time>2026-05-02T05:22:54.806Z</time></trkpt><trkpt lat="43.8604005" lon="12.4749569"><ele>361.0</ele><time>2026-05-02T05:22:55.818Z</time></trkpt><trkpt lat="43.8602812" lon="12.4748561"><ele>361.0</ele><time>2026-05-02T05:22:56.805Z</time></trkpt><trkpt lat="43.8601646" lon="12.4747867"><ele>361.0</ele><time>2026-05-02T05:22:57.817Z</time></trkpt><trkpt lat="43.8600385" lon="12.4747326"><ele>361.0</ele><time>2026-05-02T05:22:58.81Z</time></trkpt><trkpt lat="43.8599105" lon="12.4746998"><ele>357.0</ele><time>2026-05-02T05:22:59.804Z</time></trkpt><trkpt lat="43.8597865" lon="12.4746864"><ele>353.0</ele><time>2026-05-02T05:23:00.812Z</time></trkpt><trkpt lat="43.8596708" lon="12.4746923"><ele>349.0</ele><time>2026-05-02T05:23:01.819Z</time></trkpt><trkpt lat="43.8595597" lon="12.4747196"><ele>345.0</ele><time>2026-05-02T05:23:02.8Z</time></trkpt><trkpt lat="43.8594473" lon="12.4747652"><ele>345.0</ele><time>2026-05-02T05:23:03.817Z</time></trkpt><trkpt lat="43.859333" lon="12.4748217"><ele>345.0</ele><time>2026-05-02T05:23:04.806Z</time></trkpt><trkpt lat="43.8592227" lon="12.4748726"><ele>345.0</ele><time>2026-05-02T05:23:05.821Z</time></trkpt><trkpt lat="43.8591187" lon="12.4748904"><ele>345.0</ele><time>2026-05-02T05:23:06.804Z</time></trkpt><trkpt lat="43.8590302" lon="12.4748696"><ele>345.0</ele><time>2026-05-02T05:23:07.82Z</time></trkpt><trkpt lat="43.8589677" lon="12.4748116"><ele>346.8</ele><time>2026-05-02T05:23:08.805Z</time></trkpt><trkpt lat="43.8589154" lon="12.4747316"><ele>348.6</ele><time>2026-05-02T05:23:09.807Z</time></trkpt><trkpt lat="43.8588819" lon="12.4746334"><ele>350.4</ele><time>2026-05-02T05:23:10.799Z</time></trkpt><trkpt lat="43.858854" lon="12.474521"><ele>352.2</ele><time>2026-05-02T05:23:11.823Z</time></trkpt><trkpt lat="43.8588274" lon="12.474377"><ele>354.0</ele><time>2026-05-02T05:23:12.817Z</time></trkpt><trkpt lat="43.8587973" lon="12.4742199"><ele>357.25</ele><time>2026-05-02T05:23:13.815Z</time></trkpt><trkpt lat="43.858761" lon="12.4740539"><ele>360.5</ele><time>2026-05-02T05:23:14.804Z</time></trkpt><trkpt lat="43.8587186" lon="12.4738797"><ele>363.75</ele><time>2026-05-02T05:23:15.809Z</time></trkpt><trkpt lat="43.8586693" lon="12.4737129"><ele>367.0</ele><time>2026-05-02T05:23:16.805Z</time></trkpt><trkpt lat="43.8586153" lon="12.4735435"><ele>367.5</ele><time>2026-05-02T05:23:17.812Z</time></trkpt><trkpt lat="43.8585512" lon="12.4733632"><ele>368.0</ele><time>2026-05-02T05:23:18.799Z</time></trkpt><trkpt lat="43.8584774" lon="12.4731942"><ele>368.5</ele><time>2026-05-02T05:23:19.823Z</time></trkpt><trkpt lat="43.8583979" lon="12.4730214"><ele>369.0</ele><time>2026-05-02T05:23:20.811Z</time></trkpt><trkpt lat="43.85832" lon="12.4728472"><ele>367.5</ele><time>2026-05-02T05:23:21.826Z</time></trkpt><trkpt lat="43.8582455" lon="12.472672"><ele>366.0</ele><time>2026-05-02T05:23:22.808Z</time></trkpt><trkpt lat="43.8581701" lon="12.4724977"><ele>364.5</ele><time>2026-05-02T05:23:23.809Z</time></trkpt><trkpt lat="43.8581009" lon="12.4723144"><ele>363.0</ele><time>2026-05-02T05:23:24.799Z</time></trkpt><trkpt lat="43.8580426" lon="12.4721182"><ele>367.0</ele><time>2026-05-02T05:23:25.813Z</time></trkpt><trkpt lat="43.8580031" lon="12.4719204"><ele>371.0</ele><time>2026-05-02T05:23:26.81Z</time></trkpt><trkpt lat="43.857976" lon="12.4717121"><ele>375.0</ele><time>2026-05-02T05:23:27.811Z</time></trkpt><trkpt lat="43.8579548" lon="12.4714996"><ele>375.0</ele><time>2026-05-02T05:23:28.81Z</time></trkpt><trkpt lat="43.8579212" lon="12.4712938"><ele>375.0</ele><time>2026-05-02T05:23:29.814Z</time></trkpt><trkpt lat="43.8578677" lon="12.4710933"><ele>375.0</ele><time>2026-05-02T05:23:30.805Z</time></trkpt><trkpt lat="43.8577889" lon="12.4708956"><ele>377.0</ele><time>2026-05-02T05:23:31.818Z</time></trkpt><trkpt lat="43.8576813" lon="12.4707203"><ele>379.0</ele><time>2026-05-02T05:23:32.824Z</time></trkpt><trkpt lat="43.8575448" lon="12.4705686"><ele>381.0</ele><time>2026-05-02T05:23:33.813Z</time></trkpt><trkpt lat="43.8574014" lon="12.4704411"><ele>382.66666666666663</ele><time>2026-05-02T05:23:34.81Z</time></trkpt><trkpt lat="43.8572531" lon="12.4703232"><ele>384.3333333333333</ele><time>2026-05-02T05:23:35.807Z</time></trkpt><trkpt lat="43.8571165" lon="12.4701924"><ele>386.0</ele><time>2026-05-02T05:23:36.801Z</time></trkpt><trkpt lat="43.8569924" lon="12.4700428"><ele>386.0</ele><time>2026-05-02T05:23:37.816Z</time></trkpt><trkpt lat="43.8568757" lon="12.4698687"><ele>386.0</ele><time>2026-05-02T05:23:38.813Z</time></trkpt><trkpt lat="43.8567654" lon="12.4696768"><ele>386.0</ele><time>2026-05-02T05:23:39.818Z</time></trkpt><trkpt lat="43.8566513" lon="12.4694849"><ele>385.66666666666663</ele><time>2026-05-02T05:23:40.811Z</time></trkpt><trkpt lat="43.8565361" lon="12.4692997"><ele>385.33333333333337</ele><time>2026-05-02T05:23:41.82Z</time></trkpt><trkpt lat="43.8564225" lon="12.469122"><ele>385.0</ele><time>2026-05-02T05:23:42.809Z</time></trkpt><trkpt lat="43.8563039" lon="12.4689456"><ele>385.0</ele><time>2026-05-02T05:23:43.802Z</time></trkpt><trkpt lat="43.8561837" lon="12.4687784"><ele>385.0</ele><time>2026-05-02T05:23:44.805Z</time></trkpt><trkpt lat="43.8560558" lon="12.4686251"><ele>385.0</ele><time>2026-05-02T05:23:45.804Z</time></trkpt><trkpt lat="43.8559151" lon="12.4684855"><ele>383.6666666666667</ele><time>2026-05-02T05:23:46.802Z</time></trkpt><trkpt lat="43.8557653" lon="12.4683731"><ele>382.33333333333337</ele><time>2026-05-02T05:23:47.822Z</time></trkpt><trkpt lat="43.8556018" lon="12.4682844"><ele>381.0</ele><time>2026-05-02T05:23:48.806Z</time></trkpt><trkpt lat="43.8554305" lon="12.4682095"><ele>381.0</ele><time>2026-05-02T05:23:49.816Z</time></trkpt><trkpt lat="43.8552603" lon="12.4681251"><ele>381.0</ele><time>2026-05-02T05:23:50.798Z</time></trkpt><trkpt lat="43.8550998" lon="12.4680369"><ele>381.0</ele><time>2026-05-02T05:23:51.802Z</time></trkpt><trkpt lat="43.8549375" lon="12.4679402"><ele>385.66666666666663</ele><time>2026-05-02T05:23:52.802Z</time></trkpt><trkpt lat="43.8547875" lon="12.4678229"><ele>390.3333333333333</ele><time>2026-05-02T05:23:53.81Z</time></trkpt><trkpt lat="43.8546406" lon="12.4676957"><ele>395.0</ele><time>2026-05-02T05:23:54.806Z</time></trkpt><trkpt lat="43.8544961" lon="12.4675625"><ele>395.0</ele><time>2026-05-02T05:23:55.825Z</time></trkpt><trkpt lat="43.8543482" lon="12.467439"><ele>395.0</ele><time>2026-05-02T05:23:56.811Z</time></trkpt><trkpt lat="43.854186" lon="12.4673426"><ele>395.0</ele><time>2026-05-02T05:23:57.826Z</time></trkpt><trkpt lat="43.8540182" lon="12.4672598"><ele>387.66666666666663</ele><time>2026-05-02T05:23:58.807Z</time></trkpt><trkpt lat="43.8538432" lon="12.4671941"><ele>380.3333333333333</ele><time>2026-05-02T05:23:59.819Z</time></trkpt><trkpt lat="43.8536628" lon="12.4671631"><ele>373.0</ele><time>2026-05-02T05:24:00.796Z</time></trkpt><trkpt lat="43.8534924" lon="12.4671594"><ele>367.66666666666663</ele><time>2026-05-02T05:24:01.793Z</time></trkpt><trkpt lat="43.8533388" lon="12.4671554"><ele>362.3333333333333</ele><time>2026-05-02T05:24:02.8Z</time></trkpt><trkpt lat="43.8531849" lon="12.4671263"><ele>357.0</ele><time>2026-05-02T05:24:03.812Z</time></trkpt><trkpt lat="43.8530339" lon="12.4670719"><ele>359.75</ele><time>2026-05-02T05:24:04.795Z</time></trkpt><trkpt lat="43.8528985" lon="12.466992"><ele>362.5</ele><time>2026-05-02T05:24:05.794Z</time></trkpt><trkpt lat="43.852785" lon="12.4668791"><ele>365.25</ele><time>2026-05-02T05:24:06.802Z</time></trkpt><trkpt lat="43.8526923" lon="12.4667434"><ele>368.0</ele><time>2026-05-02T05:24:07.817Z</time></trkpt><trkpt lat="43.8526202" lon="12.4665832"><ele>368.0</ele><time>2026-05-02T05:24:08.802Z</time></trkpt><trkpt lat="43.8525517" lon="12.4664081"><ele>368.0</ele><time>2026-05-02T05:24:09.8Z</time></trkpt><trkpt lat="43.8524675" lon="12.4662471"><ele>368.0</ele><time>2026-05-02T05:24:10.808Z</time></trkpt><trkpt lat="43.852354" lon="12.466115"><ele>368.0</ele><time>2026-05-02T05:24:11.798Z</time></trkpt><trkpt lat="43.8522258" lon="12.4660365"><ele>366.5</ele><time>2026-05-02T05:24:12.804Z</time></trkpt><trkpt lat="43.8521065" lon="12.4659704"><ele>365.0</ele><time>2026-05-02T05:24:13.824Z</time></trkpt><trkpt lat="43.8519839" lon="12.4659096"><ele>363.5</ele><time>2026-05-02T05:24:14.806Z</time></trkpt><trkpt lat="43.8518578" lon="12.4658143"><ele>362.0</ele><time>2026-05-02T05:24:15.823Z</time></trkpt><trkpt lat="43.8517369" lon="12.4656952"><ele>362.0</ele><time>2026-05-02T05:24:16.8Z</time></trkpt><trkpt lat="43.8516146" lon="12.4655509"><ele>362.0</ele><time>2026-05-02T05:24:17.81Z</time></trkpt><trkpt lat="43.8515008" lon="12.4653916"><ele>362.0</ele><time>2026-05-02T05:24:18.806Z</time></trkpt><trkpt lat="43.8513908" lon="12.4652277"><ele>362.0</ele><time>2026-05-02T05:24:19.801Z</time></trkpt><trkpt lat="43.85128" lon="12.4650849"><ele>362.0</ele><time>2026-05-02T05:24:20.8Z</time></trkpt><trkpt lat="43.8511643" lon="12.4649667"><ele>362.0</ele><time>2026-05-02T05:24:21.795Z</time></trkpt><trkpt lat="43.8510381" lon="12.4648653"><ele>362.0</ele><time>2026-05-02T05:24:22.804Z</time></trkpt><trkpt lat="43.8509097" lon="12.4647769"><ele>362.0</ele><time>2026-05-02T05:24:23.799Z</time></trkpt><trkpt lat="43.8507732" lon="12.4647018"><ele>362.0</ele><time>2026-05-02T05:24:24.804Z</time></trkpt><trkpt lat="43.8506356" lon="12.4646211"><ele>362.0</ele><time>2026-05-02T05:24:25.821Z</time></trkpt><trkpt lat="43.8505029" lon="12.4645421"><ele>362.0</ele><time>2026-05-02T05:24:26.792Z</time></trkpt><trkpt lat="43.8503755" lon="12.4644653"><ele>362.8</ele><time>2026-05-02T05:24:27.806Z</time></trkpt><trkpt lat="43.8502576" lon="12.4644005"><ele>363.6</ele><time>2026-05-02T05:24:28.806Z</time></trkpt><trkpt lat="43.850148" lon="12.4643443"><ele>364.40000000000003</ele><time>2026-05-02T05:24:29.801Z</time></trkpt><trkpt lat="43.8500491" lon="12.4643058"><ele>365.20000000000005</ele><time>2026-05-02T05:24:30.802Z</time></trkpt><trkpt lat="43.8499601" lon="12.4642783"><ele>366.0</ele><time>2026-05-02T05:24:31.814Z</time></trkpt><trkpt lat="43.8498684" lon="12.4642437"><ele>366.0</ele><time>2026-05-02T05:24:32.798Z</time></trkpt><trkpt lat="43.8497747" lon="12.4641796"><ele>366.0</ele><time>2026-05-02T05:24:33.805Z</time></trkpt><trkpt lat="43.8496768" lon="12.4640867"><ele>366.0</ele><time>2026-05-02T05:24:34.797Z</time></trkpt><trkpt lat="43.8495699" lon="12.4639826"><ele>366.0</ele><time>2026-05-02T05:24:35.799Z</time></trkpt><trkpt lat="43.8494579" lon="12.4638764"><ele>366.0</ele><time>2026-05-02T05:24:36.806Z</time></trkpt><trkpt lat="43.849349" lon="12.4637743"><ele>366.0</ele><time>2026-05-02T05:24:37.805Z</time></trkpt><trkpt lat="43.8492377" lon="12.4636786"><ele>366.0</ele><time>2026-05-02T05:24:38.82Z</time></trkpt><trkpt lat="43.8491275" lon="12.4635917"><ele>366.0</ele><time>2026-05-02T05:24:39.791Z</time></trkpt><trkpt lat="43.8490177" lon="12.4635337"><ele>366.0</ele><time>2026-05-02T05:24:40.802Z</time></trkpt><trkpt lat="43.8489142" lon="12.4635044"><ele>366.0</ele><time>2026-05-02T05:24:41.813Z</time></trkpt><trkpt lat="43.8488209" lon="12.4635079"><ele>366.0</ele><time>2026-05-02T05:24:42.798Z</time></trkpt><trkpt lat="43.8487408" lon="12.4635273"><ele>366.0</ele><time>2026-05-02T05:24:43.829Z</time></trkpt><trkpt lat="43.8486724" lon="12.4635619"><ele>366.0</ele><time>2026-05-02T05:24:44.802Z</time></trkpt><trkpt lat="43.8486051" lon="12.4636118"><ele>366.0</ele><time>2026-05-02T05:24:45.816Z</time></trkpt><trkpt lat="43.8485302" lon="12.4636661"><ele>363.8571428571429</ele><time>2026-05-02T05:24:46.795Z</time></trkpt><trkpt lat="43.8484563" lon="12.4637269"><ele>361.7142857142857</ele><time>2026-05-02T05:24:47.805Z</time></trkpt><trkpt lat="43.848388" lon="12.4637891"><ele>359.57142857142856</ele><time>2026-05-02T05:24:48.802Z</time></trkpt><trkpt lat="43.8483299" lon="12.463848"><ele>357.42857142857144</ele><time>2026-05-02T05:24:49.81Z</time></trkpt><trkpt lat="43.8482807" lon="12.4639029"><ele>355.2857142857143</ele><time>2026-05-02T05:24:50.809Z</time></trkpt><trkpt lat="43.8482321" lon="12.4639641"><ele>353.14285714285717</ele><time>2026-05-02T05:24:51.815Z</time></trkpt><trkpt lat="43.8481823" lon="12.4640295"><ele>351.0</ele><time>2026-05-02T05:24:52.804Z</time></trkpt><trkpt lat="43.8481356" lon="12.464099"><ele>350.6</ele><time>2026-05-02T05:24:53.806Z</time></trkpt><trkpt lat="43.8480875" lon="12.4641591"><ele>350.20000000000005</ele><time>2026-05-02T05:24:54.806Z</time></trkpt><trkpt lat="43.848" lon="12.4642737"><ele>349.79999999999995</ele><time>2026-05-02T05:24:56.804Z</time></trkpt><trkpt lat="43.8479115" lon="12.4643789"><ele>349.4</ele><time>2026-05-02T05:24:58.805Z</time></trkpt><trkpt lat="43.8478621" lon="12.4644473"><ele>349.0</ele><time>2026-05-02T05:24:59.799Z</time></trkpt><trkpt lat="43.847806" lon="12.4645301"><ele>348.75</ele><time>2026-05-02T05:25:00.804Z</time></trkpt><trkpt lat="43.8477417" lon="12.4646306"><ele>348.5</ele><time>2026-05-02T05:25:01.796Z</time></trkpt><trkpt lat="43.8476623" lon="12.4647411"><ele>348.25</ele><time>2026-05-02T05:25:02.8Z</time></trkpt><trkpt lat="43.8475734" lon="12.4648587"><ele>348.0</ele><time>2026-05-02T05:25:03.816Z</time></trkpt><trkpt lat="43.8474775" lon="12.4649857"><ele>348.0</ele><time>2026-05-02T05:25:04.801Z</time></trkpt><trkpt lat="43.8473779" lon="12.4651226"><ele>348.0</ele><time>2026-05-02T05:25:05.815Z</time></trkpt><trkpt lat="43.8472734" lon="12.4652649"><ele>348.0</ele><time>2026-05-02T05:25:06.817Z</time></trkpt><trkpt lat="43.8471678" lon="12.4654071"><ele>348.0</ele><time>2026-05-02T05:25:07.813Z</time></trkpt><trkpt lat="43.8470696" lon="12.4655284"><ele>348.0</ele><time>2026-05-02T05:25:08.809Z</time></trkpt><trkpt lat="43.8469709" lon="12.4655962"><ele>348.0</ele><time>2026-05-02T05:25:09.806Z</time></trkpt><trkpt lat="43.8468693" lon="12.4656091"><ele>348.0</ele><time>2026-05-02T05:25:10.793Z</time></trkpt><trkpt lat="43.8467505" lon="12.4655733"><ele>348.0</ele><time>2026-05-02T05:25:11.809Z</time></trkpt><trkpt lat="43.8466384" lon="12.4654864"><ele>350.0</ele><time>2026-05-02T05:25:12.813Z</time></trkpt><trkpt lat="43.8465233" lon="12.465347"><ele>352.0</ele><time>2026-05-02T05:25:13.817Z</time></trkpt><trkpt lat="43.8464096" lon="12.4651725"><ele>354.0</ele><time>2026-05-02T05:25:14.797Z</time></trkpt><trkpt lat="43.8462977" lon="12.4649858"><ele>354.0</ele><time>2026-05-02T05:25:15.808Z</time></trkpt><trkpt lat="43.8461854" lon="12.4648096"><ele>354.0</ele><time>2026-05-02T05:25:16.808Z</time></trkpt><trkpt lat="43.8460724" lon="12.4646468"><ele>354.0</ele><time>2026-05-02T05:25:17.809Z</time></trkpt><trkpt lat="43.8459544" lon="12.4644788"><ele>357.3333333333333</ele><time>2026-05-02T05:25:18.808Z</time></trkpt><trkpt lat="43.8458254" lon="12.4643177"><ele>360.66666666666663</ele><time>2026-05-02T05:25:19.806Z</time></trkpt><trkpt lat="43.845694" lon="12.4641561"><ele>364.0</ele><time>2026-05-02T05:25:20.805Z</time></trkpt><trkpt lat="43.8455634" lon="12.4639911"><ele>364.0</ele><time>2026-05-02T05:25:21.798Z</time></trkpt><trkpt lat="43.8454308" lon="12.4638152"><ele>364.0</ele><time>2026-05-02T05:25:22.805Z</time></trkpt><trkpt lat="43.8452956" lon="12.4636348"><ele>364.0</ele><time>2026-05-02T05:25:23.811Z</time></trkpt><trkpt lat="43.8451617" lon="12.4634613"><ele>367.66666666666663</ele><time>2026-05-02T05:25:24.813Z</time></trkpt><trkpt lat="43.8450308" lon="12.463303"><ele>371.3333333333333</ele><time>2026-05-02T05:25:25.805Z</time></trkpt><trkpt lat="43.8449105" lon="12.4631615"><ele>375.0</ele><time>2026-05-02T05:25:26.805Z</time></trkpt><trkpt lat="43.844787" lon="12.463046"><ele>375.0</ele><time>2026-05-02T05:25:27.814Z</time></trkpt><trkpt lat="43.84466" lon="12.4629822"><ele>375.0</ele><time>2026-05-02T05:25:28.808Z</time></trkpt><trkpt lat="43.8445348" lon="12.4629874"><ele>375.0</ele><time>2026-05-02T05:25:29.812Z</time></trkpt><trkpt lat="43.844423" lon="12.4630429"><ele>375.0</ele><time>2026-05-02T05:25:30.808Z</time></trkpt><trkpt lat="43.8443194" lon="12.4631373"><ele>377.25</ele><time>2026-05-02T05:25:31.811Z</time></trkpt><trkpt lat="43.8442013" lon="12.4632317"><ele>379.5</ele><time>2026-05-02T05:25:32.805Z</time></trkpt><trkpt lat="43.8440734" lon="12.4633174"><ele>381.75</ele><time>2026-05-02T05:25:33.812Z</time></trkpt><trkpt lat="43.8439528" lon="12.4634046"><ele>384.0</ele><time>2026-05-02T05:25:34.818Z</time></trkpt><trkpt lat="43.8438437" lon="12.4634842"><ele>384.0</ele><time>2026-05-02T05:25:35.814Z</time></trkpt><trkpt lat="43.8437473" lon="12.463548"><ele>384.0</ele><time>2026-05-02T05:25:36.8Z</time></trkpt><trkpt lat="43.8436645" lon="12.4636168"><ele>384.0</ele><time>2026-05-02T05:25:37.812Z</time></trkpt><trkpt lat="43.8436002" lon="12.4637024"><ele>384.0</ele><time>2026-05-02T05:25:38.809Z</time></trkpt><trkpt lat="43.843558" lon="12.4637954"><ele>384.0</ele><time>2026-05-02T05:25:39.804Z</time></trkpt><trkpt lat="43.8436131" lon="12.4639363"><ele>387.0</ele><time>2026-05-02T05:25:41.808Z</time></trkpt><trkpt lat="43.8436862" lon="12.4639688"><ele>390.0</ele><time>2026-05-02T05:25:42.806Z</time></trkpt><trkpt lat="43.8437765" lon="12.4639518"><ele>393.0</ele><time>2026-05-02T05:25:43.808Z</time></trkpt><trkpt lat="43.8438739" lon="12.4639089"><ele>396.0</ele><time>2026-05-02T05:25:44.804Z</time></trkpt><trkpt lat="43.8439748" lon="12.4638484"><ele>399.0</ele><time>2026-05-02T05:25:45.804Z</time></trkpt><trkpt lat="43.8440752" lon="12.4637958"><ele>397.2</ele><time>2026-05-02T05:25:46.802Z</time></trkpt><trkpt lat="43.8441762" lon="12.4637584"><ele>395.4</ele><time>2026-05-02T05:25:47.805Z</time></trkpt><trkpt lat="43.844281" lon="12.4637648"><ele>393.6</ele><time>2026-05-02T05:25:48.805Z</time></trkpt><trkpt lat="43.8443825" lon="12.4638264"><ele>391.8</ele><time>2026-05-02T05:25:49.804Z</time></trkpt><trkpt lat="43.8444762" lon="12.4639303"><ele>390.0</ele><time>2026-05-02T05:25:50.798Z</time></trkpt><trkpt lat="43.8445768" lon="12.4640596"><ele>390.0</ele><time>2026-05-02T05:25:51.813Z</time></trkpt><trkpt lat="43.8446691" lon="12.4642013"><ele>390.0</ele><time>2026-05-02T05:25:52.799Z</time></trkpt><trkpt lat="43.8447552" lon="12.4643607"><ele>390.0</ele><time>2026-05-02T05:25:53.816Z</time></trkpt><trkpt lat="43.844831" lon="12.4645363"><ele>390.0</ele><time>2026-05-02T05:25:54.803Z</time></trkpt><trkpt lat="43.8449053" lon="12.4647159"><ele>387.25</ele><time>2026-05-02T05:25:55.818Z</time></trkpt><trkpt lat="43.844972" lon="12.4648943"><ele>384.5</ele><time>2026-05-02T05:25:56.818Z</time></trkpt><trkpt lat="43.8450367" lon="12.4650756"><ele>381.75</ele><time>2026-05-02T05:25:57.817Z</time></trkpt><trkpt lat="43.8451012" lon="12.4652503"><ele>379.0</ele><time>2026-05-02T05:25:58.82Z</time></trkpt><trkpt lat="43.8451637" lon="12.465425"><ele>384.0</ele><time>2026-05-02T05:25:59.812Z</time></trkpt><trkpt lat="43.845227" lon="12.4655996"><ele>389.0</ele><time>2026-05-02T05:26:00.809Z</time></trkpt><trkpt lat="43.8452889" lon="12.4657688"><ele>394.0</ele><time>2026-05-02T05:26:01.82Z</time></trkpt><trkpt lat="43.8453436" lon="12.4659158"><ele>399.0</ele><time>2026-05-02T05:26:02.82Z</time></trkpt><trkpt lat="43.8453871" lon="12.4660391"><ele>399.0</ele><time>2026-05-02T05:26:03.813Z</time></trkpt><trkpt lat="43.8454174" lon="12.4661494"><ele>399.0</ele><time>2026-05-02T05:26:04.821Z</time></trkpt><trkpt lat="43.8454265" lon="12.466244"><ele>399.0</ele><time>2026-05-02T05:26:05.82Z</time></trkpt><trkpt lat="43.8454171" lon="12.4663313"><ele>399.0</ele><time>2026-05-02T05:26:06.81Z</time></trkpt><trkpt lat="43.8453806" lon="12.4664049"><ele>399.0</ele><time>2026-05-02T05:26:07.807Z</time></trkpt><trkpt lat="43.845321" lon="12.4664698"><ele>399.0</ele><time>2026-05-02T05:26:08.805Z</time></trkpt><trkpt lat="43.8452413" lon="12.4665292"><ele>399.0</ele><time>2026-05-02T05:26:09.817Z</time></trkpt><trkpt lat="43.8451367" lon="12.4665888"><ele>403.25</ele><time>2026-05-02T05:26:10.799Z</time></trkpt><trkpt lat="43.8450194" lon="12.4666474"><ele>407.5</ele><time>2026-05-02T05:26:11.808Z</time></trkpt><trkpt lat="43.8448911" lon="12.4666977"><ele>411.75</ele><time>2026-05-02T05:26:12.801Z</time></trkpt><trkpt lat="43.8447559" lon="12.4667514"><ele>416.0</ele><time>2026-05-02T05:26:13.821Z</time></trkpt><trkpt lat="43.8446344" lon="12.4668313"><ele>416.0</ele><time>2026-05-02T05:26:14.817Z</time></trkpt><trkpt lat="43.8445201" lon="12.4669334"><ele>416.0</ele><time>2026-05-02T05:26:15.818Z</time></trkpt><trkpt lat="43.8444248" lon="12.4670566"><ele>416.0</ele><time>2026-05-02T05:26:16.812Z</time></trkpt><trkpt lat="43.8443425" lon="12.4671988"><ele>416.0</ele><time>2026-05-02T05:26:17.808Z</time></trkpt><trkpt lat="43.8442942" lon="12.4673558"><ele>418.16666666666663</ele><time>2026-05-02T05:26:18.81Z</time></trkpt><trkpt lat="43.8442684" lon="12.4675115"><ele>420.3333333333333</ele><time>2026-05-02T05:26:19.805Z</time></trkpt><trkpt lat="43.8442428" lon="12.4676448"><ele>422.5</ele><time>2026-05-02T05:26:20.816Z</time></trkpt><trkpt lat="43.8441945" lon="12.4677335"><ele>424.66666666666663</ele><time>2026-05-02T05:26:21.817Z</time></trkpt><trkpt lat="43.8441302" lon="12.4677569"><ele>426.8333333333333</ele><time>2026-05-02T05:26:22.814Z</time></trkpt><trkpt lat="43.8440649" lon="12.4677246"><ele>429.0</ele><time>2026-05-02T05:26:23.811Z</time></trkpt><trkpt lat="43.8440126" lon="12.4676456"><ele>429.0</ele><time>2026-05-02T05:26:24.802Z</time></trkpt><trkpt lat="43.8439729" lon="12.467527"><ele>429.0</ele><time>2026-05-02T05:26:25.812Z</time></trkpt><trkpt lat="43.8439321" lon="12.4674154"><ele>429.0</ele><time>2026-05-02T05:26:26.812Z</time></trkpt><trkpt lat="43.8438667" lon="12.4673119"><ele>429.0</ele><time>2026-05-02T05:26:27.815Z</time></trkpt><trkpt lat="43.8437896" lon="12.4672333"><ele>429.0</ele><time>2026-05-02T05:26:28.812Z</time></trkpt><trkpt lat="43.8437027" lon="12.467181"><ele>429.0</ele><time>2026-05-02T05:26:29.812Z</time></trkpt><trkpt lat="43.8436121" lon="12.4671656"><ele>429.0</ele><time>2026-05-02T05:26:30.808Z</time></trkpt><trkpt lat="43.8435308" lon="12.4671822"><ele>429.0</ele><time>2026-05-02T05:26:31.803Z</time></trkpt><trkpt lat="43.8434673" lon="12.4672327"><ele>429.0</ele><time>2026-05-02T05:26:32.807Z</time></trkpt><trkpt lat="43.8434173" lon="12.4673077"><ele>429.0</ele><time>2026-05-02T05:26:33.815Z</time></trkpt><trkpt lat="43.8433931" lon="12.4673999"><ele>429.0</ele><time>2026-05-02T05:26:34.808Z</time></trkpt><trkpt lat="43.8433946" lon="12.4675144"><ele>429.0</ele><time>2026-05-02T05:26:35.812Z</time></trkpt><trkpt lat="43.8434256" lon="12.4676275"><ele>429.0</ele><time>2026-05-02T05:26:36.804Z</time></trkpt><trkpt lat="43.8434864" lon="12.4677352"><ele>429.0</ele><time>2026-05-02T05:26:37.817Z</time></trkpt><trkpt lat="43.8435619" lon="12.4678438"><ele>429.0</ele><time>2026-05-02T05:26:38.804Z</time></trkpt><trkpt lat="43.8436383" lon="12.4679476"><ele>429.0</ele><time>2026-05-02T05:26:39.815Z</time></trkpt><trkpt lat="43.8436917" lon="12.4680666"><ele>429.6</ele><time>2026-05-02T05:26:40.809Z</time></trkpt><trkpt lat="43.8437204" lon="12.4681847"><ele>430.2</ele><time>2026-05-02T05:26:41.815Z</time></trkpt><trkpt lat="43.8437134" lon="12.4683147"><ele>430.80000000000007</ele><time>2026-05-02T05:26:42.802Z</time></trkpt><trkpt lat="43.8436668" lon="12.4684478"><ele>431.40000000000003</ele><time>2026-05-02T05:26:43.805Z</time></trkpt><trkpt lat="43.8435884" lon="12.4685648"><ele>432.0</ele><time>2026-05-02T05:26:44.817Z</time></trkpt><trkpt lat="43.8435009" lon="12.4686853"><ele>433.5</ele><time>2026-05-02T05:26:45.809Z</time></trkpt><trkpt lat="43.8434203" lon="12.4688223"><ele>435.0</ele><time>2026-05-02T05:26:46.823Z</time></trkpt><trkpt lat="43.8433482" lon="12.4689719"><ele>436.5</ele><time>2026-05-02T05:26:47.825Z</time></trkpt><trkpt lat="43.8432873" lon="12.4691445"><ele>438.0</ele><time>2026-05-02T05:26:48.813Z</time></trkpt><trkpt lat="43.8432469" lon="12.4693183"><ele>438.0</ele><time>2026-05-02T05:26:49.817Z</time></trkpt><trkpt lat="43.8432378" lon="12.4694985"><ele>437.99999999999994</ele><time>2026-05-02T05:26:50.811Z</time></trkpt><trkpt lat="43.8432481" lon="12.46966"><ele>437.99999999999994</ele><time>2026-05-02T05:26:51.82Z</time></trkpt><trkpt lat="43.8432682" lon="12.4698024"><ele>438.0</ele><time>2026-05-02T05:26:52.811Z</time></trkpt><trkpt lat="43.8432929" lon="12.4699314"><ele>438.0</ele><time>2026-05-02T05:26:53.814Z</time></trkpt><trkpt lat="43.8433218" lon="12.4700694"><ele>438.5</ele><time>2026-05-02T05:26:54.815Z</time></trkpt><trkpt lat="43.8433547" lon="12.4702244"><ele>439.0</ele><time>2026-05-02T05:26:55.807Z</time></trkpt><trkpt lat="43.8433986" lon="12.470386"><ele>439.5</ele><time>2026-05-02T05:26:56.814Z</time></trkpt><trkpt lat="43.8434407" lon="12.4705481"><ele>440.0</ele><time>2026-05-02T05:26:57.818Z</time></trkpt><trkpt lat="43.843492" lon="12.4706991"><ele>444.0</ele><time>2026-05-02T05:26:58.823Z</time></trkpt><trkpt lat="43.8435525" lon="12.4708398"><ele>448.0</ele><time>2026-05-02T05:26:59.836Z</time></trkpt><trkpt lat="43.8436381" lon="12.4709672"><ele>452.0</ele><time>2026-05-02T05:27:00.815Z</time></trkpt><trkpt lat="43.8437437" lon="12.4710802"><ele>456.0</ele><time>2026-05-02T05:27:01.823Z</time></trkpt><trkpt lat="43.8438512" lon="12.4711705"><ele>456.0</ele><time>2026-05-02T05:27:02.816Z</time></trkpt><trkpt lat="43.8439499" lon="12.4712269"><ele>456.0</ele><time>2026-05-02T05:27:03.818Z</time></trkpt><trkpt lat="43.844054" lon="12.4712372"><ele>456.0</ele><time>2026-05-02T05:27:04.804Z</time></trkpt><trkpt lat="43.8441588" lon="12.4712129"><ele>456.0</ele><time>2026-05-02T05:27:05.842Z</time></trkpt><trkpt lat="43.8442716" lon="12.4711476"><ele>456.0</ele><time>2026-05-02T05:27:06.807Z</time></trkpt><trkpt lat="43.8443845" lon="12.4710514"><ele>456.6</ele><time>2026-05-02T05:27:07.85Z</time></trkpt><trkpt lat="43.844493" lon="12.4709607"><ele>457.20000000000005</ele><time>2026-05-02T05:27:08.826Z</time></trkpt><trkpt lat="43.8445944" lon="12.4708887"><ele>457.79999999999995</ele><time>2026-05-02T05:27:09.813Z</time></trkpt><trkpt lat="43.8446946" lon="12.4708638"><ele>458.4</ele><time>2026-05-02T05:27:10.808Z</time></trkpt><trkpt lat="43.8447751" lon="12.4709224"><ele>459.0</ele><time>2026-05-02T05:27:11.83Z</time></trkpt><trkpt lat="43.8448339" lon="12.4710197"><ele>459.0</ele><time>2026-05-02T05:27:12.816Z</time></trkpt><trkpt lat="43.844878" lon="12.4711554"><ele>459.0</ele><time>2026-05-02T05:27:13.83Z</time></trkpt><trkpt lat="43.8449144" lon="12.471299"><ele>459.0</ele><time>2026-05-02T05:27:14.824Z</time></trkpt><trkpt lat="43.844971" lon="12.4714387"><ele>459.0</ele><time>2026-05-02T05:27:15.822Z</time></trkpt><trkpt lat="43.8450561" lon="12.4715626"><ele>462.0</ele><time>2026-05-02T05:27:16.816Z</time></trkpt><trkpt lat="43.8451591" lon="12.4716636"><ele>465.0</ele><time>2026-05-02T05:27:17.827Z</time></trkpt><trkpt lat="43.8452694" lon="12.4717575"><ele>468.0</ele><time>2026-05-02T05:27:18.805Z</time></trkpt><trkpt lat="43.845392" lon="12.4718583"><ele>471.0</ele><time>2026-05-02T05:27:19.813Z</time></trkpt><trkpt lat="43.8455152" lon="12.4719677"><ele>471.0</ele><time>2026-05-02T05:27:20.811Z</time></trkpt><trkpt lat="43.8456395" lon="12.4720651"><ele>471.0</ele><time>2026-05-02T05:27:21.827Z</time></trkpt><trkpt lat="43.8457647" lon="12.472133"><ele>471.0</ele><time>2026-05-02T05:27:22.807Z</time></trkpt><trkpt lat="43.8458965" lon="12.472177"><ele>471.0</ele><time>2026-05-02T05:27:23.817Z</time></trkpt><trkpt lat="43.8460103" lon="12.4722129"><ele>470.6</ele><time>2026-05-02T05:27:24.804Z</time></trkpt><trkpt lat="43.8461035" lon="12.4722691"><ele>470.20000000000005</ele><time>2026-05-02T05:27:25.803Z</time></trkpt><trkpt lat="43.8461719" lon="12.4723606"><ele>469.79999999999995</ele><time>2026-05-02T05:27:26.806Z</time></trkpt><trkpt lat="43.846204" lon="12.4725066"><ele>469.4</ele><time>2026-05-02T05:27:27.812Z</time></trkpt><trkpt lat="43.84622" lon="12.4726626"><ele>469.0</ele><time>2026-05-02T05:27:28.823Z</time></trkpt><trkpt lat="43.8462262" lon="12.4728209"><ele>472.75</ele><time>2026-05-02T05:27:29.817Z</time></trkpt><trkpt lat="43.846247" lon="12.4729954"><ele>476.5</ele><time>2026-05-02T05:27:30.816Z</time></trkpt><trkpt lat="43.8462868" lon="12.4731521"><ele>480.25</ele><time>2026-05-02T05:27:31.812Z</time></trkpt><trkpt lat="43.8463545" lon="12.4732984"><ele>484.0</ele><time>2026-05-02T05:27:32.807Z</time></trkpt><trkpt lat="43.8464331" lon="12.4734382"><ele>484.0</ele><time>2026-05-02T05:27:33.805Z</time></trkpt><trkpt lat="43.8465104" lon="12.4735911"><ele>484.0</ele><time>2026-05-02T05:27:34.804Z</time></trkpt><trkpt lat="43.8465809" lon="12.4737538"><ele>484.0</ele><time>2026-05-02T05:27:35.815Z</time></trkpt><trkpt lat="43.8466435" lon="12.4739346"><ele>484.0</ele><time>2026-05-02T05:27:36.822Z</time></trkpt><trkpt lat="43.8466837" lon="12.4741247"><ele>485.75</ele><time>2026-05-02T05:27:37.826Z</time></trkpt><trkpt lat="43.8466989" lon="12.47431"><ele>487.5</ele><time>2026-05-02T05:27:38.815Z</time></trkpt><trkpt lat="43.8466879" lon="12.4744727"><ele>489.25</ele><time>2026-05-02T05:27:39.819Z</time></trkpt><trkpt lat="43.846653" lon="12.4746246"><ele>491.0</ele><time>2026-05-02T05:27:40.814Z</time></trkpt><trkpt lat="43.8465804" lon="12.4747608"><ele>491.0</ele><time>2026-05-02T05:27:41.813Z</time></trkpt><trkpt lat="43.8464757" lon="12.4748552"><ele>491.0</ele><time>2026-05-02T05:27:42.807Z</time></trkpt><trkpt lat="43.8463534" lon="12.4749283"><ele>491.0</ele><time>2026-05-02T05:27:43.819Z</time></trkpt><trkpt lat="43.846228" lon="12.4749859"><ele>491.0</ele><time>2026-05-02T05:27:44.81Z</time></trkpt><trkpt lat="43.8460994" lon="12.4750393"><ele>491.0</ele><time>2026-05-02T05:27:45.812Z</time></trkpt><trkpt lat="43.8459766" lon="12.4750851"><ele>491.0</ele><time>2026-05-02T05:27:46.809Z</time></trkpt><trkpt lat="43.8458705" lon="12.4751284"><ele>491.0</ele><time>2026-05-02T05:27:47.84Z</time></trkpt><trkpt lat="43.8457843" lon="12.4751654"><ele>491.0</ele><time>2026-05-02T05:27:48.816Z</time></trkpt><trkpt lat="43.8457027" lon="12.4752018"><ele>491.0</ele><time>2026-05-02T05:27:49.823Z</time></trkpt><trkpt lat="43.8456333" lon="12.4752337"><ele>492.3333333333333</ele><time>2026-05-02T05:27:50.812Z</time></trkpt><trkpt lat="43.8455738" lon="12.4752635"><ele>493.66666666666663</ele><time>2026-05-02T05:27:51.829Z</time></trkpt><trkpt lat="43.8454826" lon="12.4753089"><ele>495.0</ele><time>2026-05-02T05:27:53.826Z</time></trkpt><trkpt lat="43.8453894" lon="12.4753531"><ele>496.33333333333337</ele><time>2026-05-02T05:27:55.818Z</time></trkpt><trkpt lat="43.8453008" lon="12.4753898"><ele>497.6666666666667</ele><time>2026-05-02T05:27:57.816Z</time></trkpt><trkpt lat="43.8452268" lon="12.4754459"><ele>499.0</ele><time>2026-05-02T05:27:59.811Z</time></trkpt><trkpt lat="43.845175" lon="12.4755"><ele>498.83333333333337</ele><time>2026-05-02T05:28:01.817Z</time></trkpt><trkpt lat="43.8451238" lon="12.4755853"><ele>498.6666666666667</ele><time>2026-05-02T05:28:04.818Z</time></trkpt><trkpt lat="43.8450864" lon="12.4756559"><ele>498.5</ele><time>2026-05-02T05:28:09.822Z</time></trkpt><trkpt lat="43.84505" lon="12.4758144"><ele>498.33333333333337</ele><time>2026-05-02T05:33:06.809Z</time></trkpt><trkpt lat="43.845024" lon="12.4759122"><ele>498.1666666666667</ele><time>2026-05-02T05:33:07.84Z</time></trkpt><trkpt lat="43.8449809" lon="12.4760216"><ele>498.0</ele><time>2026-05-02T05:33:08.815Z</time></trkpt><trkpt lat="43.8449221" lon="12.4761431"><ele>498.0</ele><time>2026-05-02T05:33:09.812Z</time></trkpt><trkpt lat="43.8448418" lon="12.4762594"><ele>498.0</ele><time>2026-05-02T05:33:10.813Z</time></trkpt><trkpt lat="43.8447488" lon="12.4763687"><ele>498.0</ele><time>2026-05-02T05:33:11.817Z</time></trkpt><trkpt lat="43.8446672" lon="12.476482"><ele>498.0</ele><time>2026-05-02T05:33:12.809Z</time></trkpt><trkpt lat="43.8445978" lon="12.4766021"><ele>497.79999999999995</ele><time>2026-05-02T05:33:13.815Z</time></trkpt><trkpt lat="43.8445368" lon="12.476723"><ele>497.59999999999997</ele><time>2026-05-02T05:33:14.802Z</time></trkpt><trkpt lat="43.8444803" lon="12.4768398"><ele>497.40000000000003</ele><time>2026-05-02T05:33:15.809Z</time></trkpt><trkpt lat="43.844433" lon="12.4769495"><ele>497.20000000000005</ele><time>2026-05-02T05:33:16.816Z</time></trkpt><trkpt lat="43.8443861" lon="12.4770581"><ele>497.0</ele><time>2026-05-02T05:33:17.815Z</time></trkpt><trkpt lat="43.8443403" lon="12.4771613"><ele>493.40000000000003</ele><time>2026-05-02T05:33:18.809Z</time></trkpt><trkpt lat="43.8442943" lon="12.4772574"><ele>489.80000000000007</ele><time>2026-05-02T05:33:19.825Z</time></trkpt><trkpt lat="43.84423" lon="12.4773367"><ele>486.2</ele><time>2026-05-02T05:33:20.806Z</time></trkpt><trkpt lat="43.8441485" lon="12.477394"><ele>482.6</ele><time>2026-05-02T05:33:21.813Z</time></trkpt><trkpt lat="43.8440589" lon="12.4774293"><ele>479.0</ele><time>2026-05-02T05:33:22.822Z</time></trkpt><trkpt lat="43.8439607" lon="12.4774543"><ele>479.0</ele><time>2026-05-02T05:33:23.82Z</time></trkpt><trkpt lat="43.8438616" lon="12.4774917"><ele>479.0</ele><time>2026-05-02T05:33:24.807Z</time></trkpt><trkpt lat="43.8437807" lon="12.4775408"><ele>479.0</ele><time>2026-05-02T05:33:25.814Z</time></trkpt><trkpt lat="43.8436962" lon="12.4775999"><ele>479.0</ele><time>2026-05-02T05:33:26.814Z</time></trkpt><trkpt lat="43.8436109" lon="12.4776609"><ele>479.0</ele><time>2026-05-02T05:33:27.819Z</time></trkpt><trkpt lat="43.8435192" lon="12.4777015"><ele>477.79999999999995</ele><time>2026-05-02T05:33:28.801Z</time></trkpt><trkpt lat="43.8434302" lon="12.4777274"><ele>476.59999999999997</ele><time>2026-05-02T05:33:29.82Z</time></trkpt><trkpt lat="43.8433398" lon="12.4777444"><ele>475.4</ele><time>2026-05-02T05:33:30.819Z</time></trkpt><trkpt lat="43.8432421" lon="12.4777514"><ele>474.2</ele><time>2026-05-02T05:33:31.825Z</time></trkpt><trkpt lat="43.8431317" lon="12.4777494"><ele>473.0</ele><time>2026-05-02T05:33:32.798Z</time></trkpt><trkpt lat="43.8430162" lon="12.4777471"><ele>473.0</ele><time>2026-05-02T05:33:33.812Z</time></trkpt><trkpt lat="43.8429083" lon="12.4777337"><ele>472.99999999999994</ele><time>2026-05-02T05:33:34.809Z</time></trkpt><trkpt lat="43.8428078" lon="12.4777205"><ele>472.99999999999994</ele><time>2026-05-02T05:33:35.805Z</time></trkpt><trkpt lat="43.8427046" lon="12.477707"><ele>473.0</ele><time>2026-05-02T05:33:36.8Z</time></trkpt><trkpt lat="43.8425967" lon="12.4776941"><ele>473.0</ele><time>2026-05-02T05:33:37.819Z</time></trkpt><trkpt lat="43.842481" lon="12.477687"><ele>471.59999999999997</ele><time>2026-05-02T05:33:38.813Z</time></trkpt><trkpt lat="43.8423652" lon="12.4776796"><ele>470.19999999999993</ele><time>2026-05-02T05:33:39.809Z</time></trkpt><trkpt lat="43.8422498" lon="12.4776812"><ele>468.8</ele><time>2026-05-02T05:33:40.82Z</time></trkpt><trkpt lat="43.8421458" lon="12.4776871"><ele>467.4</ele><time>2026-05-02T05:33:41.806Z</time></trkpt><trkpt lat="43.842049" lon="12.4776972"><ele>466.0</ele><time>2026-05-02T05:33:42.81Z</time></trkpt><trkpt lat="43.8419535" lon="12.4777135"><ele>466.0</ele><time>2026-05-02T05:33:43.81Z</time></trkpt><trkpt lat="43.8418541" lon="12.4777334"><ele>466.0</ele><time>2026-05-02T05:33:44.801Z</time></trkpt><trkpt lat="43.8417542" lon="12.4777568"><ele>466.0</ele><time>2026-05-02T05:33:45.808Z</time></trkpt><trkpt lat="43.8416575" lon="12.4777935"><ele>466.0</ele><time>2026-05-02T05:33:46.805Z</time></trkpt><trkpt lat="43.8415688" lon="12.4778474"><ele>466.0</ele><time>2026-05-02T05:33:47.813Z</time></trkpt><trkpt lat="43.8414828" lon="12.4779001"><ele>465.8</ele><time>2026-05-02T05:33:48.809Z</time></trkpt><trkpt lat="43.8414001" lon="12.4779354"><ele>465.6</ele><time>2026-05-02T05:33:49.81Z</time></trkpt><trkpt lat="43.8413012" lon="12.4779486"><ele>465.4</ele><time>2026-05-02T05:33:50.816Z</time></trkpt><trkpt lat="43.8411893" lon="12.477944"><ele>465.2</ele><time>2026-05-02T05:33:51.825Z</time></trkpt><trkpt lat="43.841075" lon="12.4779324"><ele>465.0</ele><time>2026-05-02T05:33:52.805Z</time></trkpt><trkpt lat="43.8409554" lon="12.4779222"><ele>465.0</ele><time>2026-05-02T05:33:53.813Z</time></trkpt><trkpt lat="43.8408331" lon="12.4779073"><ele>465.0</ele><time>2026-05-02T05:33:54.812Z</time></trkpt><trkpt lat="43.8407134" lon="12.4778917"><ele>465.0</ele><time>2026-05-02T05:33:55.813Z</time></trkpt><trkpt lat="43.8405959" lon="12.477873"><ele>465.0</ele><time>2026-05-02T05:33:56.809Z</time></trkpt><trkpt lat="43.840485" lon="12.4778668"><ele>465.0</ele><time>2026-05-02T05:33:57.808Z</time></trkpt><trkpt lat="43.8403837" lon="12.4778689"><ele>465.0</ele><time>2026-05-02T05:33:58.811Z</time></trkpt><trkpt lat="43.8402921" lon="12.477883"><ele>465.0</ele><time>2026-05-02T05:33:59.818Z</time></trkpt><trkpt lat="43.8401924" lon="12.4779237"><ele>465.0</ele><time>2026-05-02T05:34:00.806Z</time></trkpt><trkpt lat="43.8400893" lon="12.4779748"><ele>465.0</ele><time>2026-05-02T05:34:01.812Z</time></trkpt><trkpt lat="43.8399925" lon="12.478017"><ele>464.6</ele><time>2026-05-02T05:34:02.811Z</time></trkpt><trkpt lat="43.8398994" lon="12.4780437"><ele>464.2</ele><time>2026-05-02T05:34:03.816Z</time></trkpt><trkpt lat="43.839801" lon="12.4780512"><ele>463.79999999999995</ele><time>2026-05-02T05:34:04.799Z</time></trkpt><trkpt lat="43.8396978" lon="12.4780284"><ele>463.4</ele><time>2026-05-02T05:34:05.82Z</time></trkpt><trkpt lat="43.8396088" lon="12.4779741"><ele>463.0</ele><time>2026-05-02T05:34:06.807Z</time></trkpt><trkpt lat="43.8395364" lon="12.4779081"><ele>463.00000000000006</ele><time>2026-05-02T05:34:07.809Z</time></trkpt><trkpt lat="43.839482" lon="12.4778294"><ele>463.0</ele><time>2026-05-02T05:34:08.81Z</time></trkpt><trkpt lat="43.8394552" lon="12.4777285"><ele>463.0</ele><time>2026-05-02T05:34:09.815Z</time></trkpt><trkpt lat="43.8394572" lon="12.4775991"><ele>463.0</ele><time>2026-05-02T05:34:10.813Z</time></trkpt><trkpt lat="43.839468" lon="12.4774573"><ele>463.00000000000006</ele><time>2026-05-02T05:34:11.823Z</time></trkpt><trkpt lat="43.8394652" lon="12.4773237"><ele>463.0</ele><time>2026-05-02T05:34:12.813Z</time></trkpt><trkpt lat="43.8394393" lon="12.4772111"><ele>463.00000000000006</ele><time>2026-05-02T05:34:13.814Z</time></trkpt><trkpt lat="43.8393916" lon="12.4771317"><ele>463.0</ele><time>2026-05-02T05:34:14.804Z</time></trkpt><trkpt lat="43.839316" lon="12.4770942"><ele>463.0</ele><time>2026-05-02T05:34:15.821Z</time></trkpt><trkpt lat="43.8392254" lon="12.4771017"><ele>463.0</ele><time>2026-05-02T05:34:16.808Z</time></trkpt><trkpt lat="43.8391355" lon="12.4771403"><ele>463.00000000000006</ele><time>2026-05-02T05:34:17.813Z</time></trkpt><trkpt lat="43.8390573" lon="12.4772114"><ele>463.0</ele><time>2026-05-02T05:34:18.807Z</time></trkpt><trkpt lat="43.838997" lon="12.4773112"><ele>461.0</ele><time>2026-05-02T05:34:19.805Z</time></trkpt><trkpt lat="43.8389652" lon="12.4774412"><ele>458.99999999999994</ele><time>2026-05-02T05:34:20.812Z</time></trkpt><trkpt lat="43.8389408" lon="12.477585"><ele>456.99999999999994</ele><time>2026-05-02T05:34:21.812Z</time></trkpt><trkpt lat="43.8389148" lon="12.4777506"><ele>455.0</ele><time>2026-05-02T05:34:22.82Z</time></trkpt><trkpt lat="43.8388842" lon="12.4779087"><ele>453.0</ele><time>2026-05-02T05:34:23.823Z</time></trkpt><trkpt lat="43.8388539" lon="12.478074"><ele>451.5</ele><time>2026-05-02T05:34:24.805Z</time></trkpt><trkpt lat="43.8388205" lon="12.4782463"><ele>450.0</ele><time>2026-05-02T05:34:25.821Z</time></trkpt><trkpt lat="43.838783" lon="12.4784217"><ele>448.5</ele><time>2026-05-02T05:34:26.811Z</time></trkpt><trkpt lat="43.8387441" lon="12.4785871"><ele>447.0</ele><time>2026-05-02T05:34:27.82Z</time></trkpt><trkpt lat="43.8386974" lon="12.47875"><ele>444.6</ele><time>2026-05-02T05:34:28.808Z</time></trkpt><trkpt lat="43.8386465" lon="12.4789023"><ele>442.20000000000005</ele><time>2026-05-02T05:34:29.812Z</time></trkpt><trkpt lat="43.8385902" lon="12.4790414"><ele>439.8</ele><time>2026-05-02T05:34:30.811Z</time></trkpt><trkpt lat="43.8385305" lon="12.4791535"><ele>437.4</ele><time>2026-05-02T05:34:31.808Z</time></trkpt><trkpt lat="43.8384571" lon="12.4792441"><ele>435.0</ele><time>2026-05-02T05:34:32.8Z</time></trkpt><trkpt lat="43.838359" lon="12.4793107"><ele>434.0</ele><time>2026-05-02T05:34:33.803Z</time></trkpt><trkpt lat="43.8382483" lon="12.4793618"><ele>433.0</ele><time>2026-05-02T05:34:34.795Z</time></trkpt><trkpt lat="43.8381339" lon="12.4794084"><ele>432.0</ele><time>2026-05-02T05:34:35.808Z</time></trkpt><trkpt lat="43.8380096" lon="12.4794498"><ele>431.0</ele><time>2026-05-02T05:34:36.812Z</time></trkpt><trkpt lat="43.8378858" lon="12.4794913"><ele>431.0</ele><time>2026-05-02T05:34:37.798Z</time></trkpt><trkpt lat="43.837757" lon="12.4795294"><ele>431.0</ele><time>2026-05-02T05:34:38.804Z</time></trkpt><trkpt lat="43.8376252" lon="12.4795652"><ele>431.0</ele><time>2026-05-02T05:34:39.808Z</time></trkpt><trkpt lat="43.8374998" lon="12.4795964"><ele>431.0</ele><time>2026-05-02T05:34:40.804Z</time></trkpt><trkpt lat="43.8373815" lon="12.4796166"><ele>429.8</ele><time>2026-05-02T05:34:41.802Z</time></trkpt><trkpt lat="43.8372682" lon="12.479626"><ele>428.6</ele><time>2026-05-02T05:34:42.792Z</time></trkpt><trkpt lat="43.8371565" lon="12.4796337"><ele>427.4</ele><time>2026-05-02T05:34:43.804Z</time></trkpt><trkpt lat="43.8370484" lon="12.479652"><ele>426.2</ele><time>2026-05-02T05:34:44.8Z</time></trkpt><trkpt lat="43.8369513" lon="12.4796898"><ele>425.0</ele><time>2026-05-02T05:34:45.811Z</time></trkpt><trkpt lat="43.8368731" lon="12.4797343"><ele>424.99999999999994</ele><time>2026-05-02T05:34:46.801Z</time></trkpt><trkpt lat="43.836816" lon="12.479777"><ele>425.0</ele><time>2026-05-02T05:34:47.811Z</time></trkpt><trkpt lat="43.8367492" lon="12.4798047"><ele>425.0</ele><time>2026-05-02T05:34:48.805Z</time></trkpt><trkpt lat="43.836676" lon="12.479844"><ele>425.0</ele><time>2026-05-02T05:34:49.829Z</time></trkpt><trkpt lat="43.8365997" lon="12.4798789"><ele>424.99999999999994</ele><time>2026-05-02T05:34:50.804Z</time></trkpt><trkpt lat="43.8365159" lon="12.4799001"><ele>425.0</ele><time>2026-05-02T05:34:51.815Z</time></trkpt><trkpt lat="43.8364258" lon="12.4798946"><ele>423.4</ele><time>2026-05-02T05:34:52.806Z</time></trkpt><trkpt lat="43.8363263" lon="12.4798506"><ele>421.8</ele><time>2026-05-02T05:34:53.819Z</time></trkpt><trkpt lat="43.8362296" lon="12.4797817"><ele>420.20000000000005</ele><time>2026-05-02T05:34:54.815Z</time></trkpt><trkpt lat="43.8361403" lon="12.4797092"><ele>418.6</ele><time>2026-05-02T05:34:55.823Z</time></trkpt><trkpt lat="43.83606" lon="12.4796361"><ele>417.0</ele><time>2026-05-02T05:34:56.807Z</time></trkpt><trkpt lat="43.8359867" lon="12.4795664"><ele>414.0</ele><time>2026-05-02T05:34:57.811Z</time></trkpt><trkpt lat="43.8359142" lon="12.4795039"><ele>411.0</ele><time>2026-05-02T05:34:58.795Z</time></trkpt><trkpt lat="43.8358373" lon="12.4794619"><ele>408.0</ele><time>2026-05-02T05:34:59.837Z</time></trkpt><trkpt lat="43.8357558" lon="12.4794486"><ele>405.0</ele><time>2026-05-02T05:35:00.804Z</time></trkpt><trkpt lat="43.8356726" lon="12.479456"><ele>402.0</ele><time>2026-05-02T05:35:01.817Z</time></trkpt><trkpt lat="43.8355988" lon="12.4794964"><ele>399.0</ele><time>2026-05-02T05:35:02.809Z</time></trkpt><trkpt lat="43.8355164" lon="12.4795515"><ele>399.6</ele><time>2026-05-02T05:35:03.802Z</time></trkpt><trkpt lat="43.8354332" lon="12.4796154"><ele>400.2</ele><time>2026-05-02T05:35:04.802Z</time></trkpt><trkpt lat="43.8353478" lon="12.4796777"><ele>400.8</ele><time>2026-05-02T05:35:05.817Z</time></trkpt><trkpt lat="43.8352655" lon="12.4797417"><ele>401.40000000000003</ele><time>2026-05-02T05:35:06.815Z</time></trkpt><trkpt lat="43.8351845" lon="12.4797938"><ele>402.0</ele><time>2026-05-02T05:35:07.813Z</time></trkpt><trkpt lat="43.8350995" lon="12.4798264"><ele>400.8333333333333</ele><time>2026-05-02T05:35:08.809Z</time></trkpt><trkpt lat="43.8350113" lon="12.479829"><ele>399.66666666666663</ele><time>2026-05-02T05:35:09.824Z</time></trkpt><trkpt lat="43.8349269" lon="12.4798026"><ele>398.5</ele><time>2026-05-02T05:35:10.811Z</time></trkpt><trkpt lat="43.8348528" lon="12.4797456"><ele>397.3333333333333</ele><time>2026-05-02T05:35:11.818Z</time></trkpt><trkpt lat="43.8347854" lon="12.4796722"><ele>396.16666666666663</ele><time>2026-05-02T05:35:12.803Z</time></trkpt><trkpt lat="43.8347243" lon="12.479605"><ele>395.0</ele><time>2026-05-02T05:35:13.81Z</time></trkpt><trkpt lat="43.8346588" lon="12.4795489"><ele>394.99999999999994</ele><time>2026-05-02T05:35:14.813Z</time></trkpt><trkpt lat="43.8345834" lon="12.4795405"><ele>395.0</ele><time>2026-05-02T05:35:15.83Z</time></trkpt><trkpt lat="43.8345072" lon="12.4795695"><ele>395.0</ele><time>2026-05-02T05:35:16.822Z</time></trkpt><trkpt lat="43.8344444" lon="12.4796268"><ele>395.0</ele><time>2026-05-02T05:35:17.816Z</time></trkpt><trkpt lat="43.834383" lon="12.4797064"><ele>394.99999999999994</ele><time>2026-05-02T05:35:18.813Z</time></trkpt><trkpt lat="43.8343146" lon="12.4798054"><ele>395.0</ele><time>2026-05-02T05:35:19.811Z</time></trkpt><trkpt lat="43.8342488" lon="12.4799115"><ele>391.8</ele><time>2026-05-02T05:35:20.824Z</time></trkpt><trkpt lat="43.8341753" lon="12.4800097"><ele>388.6</ele><time>2026-05-02T05:35:21.816Z</time></trkpt><trkpt lat="43.8340986" lon="12.4801031"><ele>385.4</ele><time>2026-05-02T05:35:22.809Z</time></trkpt><trkpt lat="43.8340262" lon="12.4802009"><ele>382.2</ele><time>2026-05-02T05:35:23.814Z</time></trkpt><trkpt lat="43.8339516" lon="12.4802925"><ele>379.0</ele><time>2026-05-02T05:35:24.81Z</time></trkpt><trkpt lat="43.833872" lon="12.4803791"><ele>377.6</ele><time>2026-05-02T05:35:25.808Z</time></trkpt><trkpt lat="43.833786" lon="12.4804546"><ele>376.2</ele><time>2026-05-02T05:35:26.824Z</time></trkpt><trkpt lat="43.8337014" lon="12.4805144"><ele>374.8</ele><time>2026-05-02T05:35:27.811Z</time></trkpt><trkpt lat="43.8336137" lon="12.4805527"><ele>373.40000000000003</ele><time>2026-05-02T05:35:28.817Z</time></trkpt><trkpt lat="43.8335267" lon="12.4805758"><ele>372.0</ele><time>2026-05-02T05:35:29.816Z</time></trkpt><trkpt lat="43.833436" lon="12.4805819"><ele>372.0</ele><time>2026-05-02T05:35:30.811Z</time></trkpt><trkpt lat="43.8333449" lon="12.4805646"><ele>372.0</ele><time>2026-05-02T05:35:31.812Z</time></trkpt><trkpt lat="43.8332537" lon="12.4805271"><ele>372.0</ele><time>2026-05-02T05:35:32.806Z</time></trkpt><trkpt lat="43.8331637" lon="12.4804723"><ele>372.0</ele><time>2026-05-02T05:35:33.809Z</time></trkpt><trkpt lat="43.8330692" lon="12.4804008"><ele>372.0</ele><time>2026-05-02T05:35:34.814Z</time></trkpt><trkpt lat="43.8329771" lon="12.4803283"><ele>372.0</ele><time>2026-05-02T05:35:35.823Z</time></trkpt><trkpt lat="43.8328893" lon="12.480255"><ele>372.0</ele><time>2026-05-02T05:35:36.811Z</time></trkpt><trkpt lat="43.8328001" lon="12.4801818"><ele>372.0</ele><time>2026-05-02T05:35:37.825Z</time></trkpt><trkpt lat="43.8327031" lon="12.4801182"><ele>372.0</ele><time>2026-05-02T05:35:38.804Z</time></trkpt><trkpt lat="43.8326017" lon="12.4800787"><ele>372.0</ele><time>2026-05-02T05:35:39.82Z</time></trkpt><trkpt lat="43.8324972" lon="12.4800554"><ele>372.0</ele><time>2026-05-02T05:35:40.81Z</time></trkpt><trkpt lat="43.8323881" lon="12.4800401"><ele>372.0</ele><time>2026-05-02T05:35:41.818Z</time></trkpt><trkpt lat="43.832277" lon="12.4800351"><ele>372.0</ele><time>2026-05-02T05:35:42.811Z</time></trkpt><trkpt lat="43.8321691" lon="12.4800325"><ele>372.0</ele><time>2026-05-02T05:35:43.81Z</time></trkpt><trkpt lat="43.83206" lon="12.4800164"><ele>372.0</ele><time>2026-05-02T05:35:44.796Z</time></trkpt><trkpt lat="43.8319553" lon="12.4799802"><ele>372.0</ele><time>2026-05-02T05:35:45.809Z</time></trkpt><trkpt lat="43.8318484" lon="12.479932"><ele>372.0</ele><time>2026-05-02T05:35:46.811Z</time></trkpt><trkpt lat="43.8317397" lon="12.4798774"><ele>372.0</ele><time>2026-05-02T05:35:47.816Z</time></trkpt><trkpt lat="43.8316301" lon="12.479834"><ele>372.0</ele><time>2026-05-02T05:35:48.806Z</time></trkpt><trkpt lat="43.8315171" lon="12.4798057"><ele>372.0</ele><time>2026-05-02T05:35:49.816Z</time></trkpt><trkpt lat="43.8314002" lon="12.4797802"><ele>372.0</ele><time>2026-05-02T05:35:50.81Z</time></trkpt><trkpt lat="43.8312822" lon="12.4797518"><ele>372.0</ele><time>2026-05-02T05:35:51.808Z</time></trkpt><trkpt lat="43.8311703" lon="12.4797192"><ele>372.0</ele><time>2026-05-02T05:35:52.798Z</time></trkpt><trkpt lat="43.8310704" lon="12.4796777"><ele>372.0</ele><time>2026-05-02T05:35:53.828Z</time></trkpt><trkpt lat="43.8309807" lon="12.4796309"><ele>372.0</ele><time>2026-05-02T05:35:54.803Z</time></trkpt><trkpt lat="43.830901" lon="12.4795965"><ele>372.0</ele><time>2026-05-02T05:35:55.826Z</time></trkpt><trkpt lat="43.8308359" lon="12.479598"><ele>372.0</ele><time>2026-05-02T05:35:56.812Z</time></trkpt><trkpt lat="43.8307527" lon="12.4797279"><ele>372.0</ele><time>2026-05-02T05:35:58.814Z</time></trkpt><trkpt lat="43.8307263" lon="12.4798228"><ele>372.0</ele><time>2026-05-02T05:35:59.81Z</time></trkpt><trkpt lat="43.8307055" lon="12.4799321"><ele>371.0</ele><time>2026-05-02T05:36:00.815Z</time></trkpt><trkpt lat="43.8306776" lon="12.4800413"><ele>370.0</ele><time>2026-05-02T05:36:01.823Z</time></trkpt><trkpt lat="43.8306312" lon="12.4801322"><ele>369.0</ele><time>2026-05-02T05:36:02.817Z</time></trkpt><trkpt lat="43.8305735" lon="12.4801972"><ele>368.0</ele><time>2026-05-02T05:36:03.809Z</time></trkpt><trkpt lat="43.8305032" lon="12.4802425"><ele>367.0</ele><time>2026-05-02T05:36:04.812Z</time></trkpt><trkpt lat="43.8304208" lon="12.4802728"><ele>366.0</ele><time>2026-05-02T05:36:05.811Z</time></trkpt><trkpt lat="43.8303334" lon="12.4803139"><ele>366.0</ele><time>2026-05-02T05:36:06.805Z</time></trkpt><trkpt lat="43.8302585" lon="12.4803835"><ele>366.0</ele><time>2026-05-02T05:36:07.805Z</time></trkpt><trkpt lat="43.8301996" lon="12.4804716"><ele>366.0</ele><time>2026-05-02T05:36:08.812Z</time></trkpt><trkpt lat="43.8301549" lon="12.4805731"><ele>366.0</ele><time>2026-05-02T05:36:09.819Z</time></trkpt><trkpt lat="43.8301015" lon="12.4806609"><ele>366.0</ele><time>2026-05-02T05:36:10.806Z</time></trkpt><trkpt lat="43.8300402" lon="12.4807335"><ele>366.0</ele><time>2026-05-02T05:36:11.82Z</time></trkpt><trkpt lat="43.829961" lon="12.4807878"><ele>363.8</ele><time>2026-05-02T05:36:12.822Z</time></trkpt><trkpt lat="43.8298636" lon="12.4808185"><ele>361.6</ele><time>2026-05-02T05:36:13.822Z</time></trkpt><trkpt lat="43.8297541" lon="12.4808347"><ele>359.4</ele><time>2026-05-02T05:36:14.817Z</time></trkpt><trkpt lat="43.8296422" lon="12.4808355"><ele>357.2</ele><time>2026-05-02T05:36:15.8Z</time></trkpt><trkpt lat="43.8295332" lon="12.480851"><ele>355.0</ele><time>2026-05-02T05:36:16.801Z</time></trkpt><trkpt lat="43.8294277" lon="12.4808836"><ele>355.0</ele><time>2026-05-02T05:36:17.821Z</time></trkpt><trkpt lat="43.8293282" lon="12.4809473"><ele>355.0</ele><time>2026-05-02T05:36:18.813Z</time></trkpt><trkpt lat="43.8292389" lon="12.4810475"><ele>355.0</ele><time>2026-05-02T05:36:19.815Z</time></trkpt><trkpt lat="43.8291651" lon="12.4811666"><ele>355.0</ele><time>2026-05-02T05:36:20.806Z</time></trkpt><trkpt lat="43.8290916" lon="12.4812838"><ele>353.0</ele><time>2026-05-02T05:36:21.807Z</time></trkpt><trkpt lat="43.8290096" lon="12.4813972"><ele>351.0</ele><time>2026-05-02T05:36:22.805Z</time></trkpt><trkpt lat="43.8289211" lon="12.4814969"><ele>349.0</ele><time>2026-05-02T05:36:23.823Z</time></trkpt><trkpt lat="43.8288261" lon="12.4815892"><ele>347.0</ele><time>2026-05-02T05:36:24.817Z</time></trkpt><trkpt lat="43.8287316" lon="12.4816815"><ele>347.0</ele><time>2026-05-02T05:36:25.819Z</time></trkpt><trkpt lat="43.8286411" lon="12.4817766"><ele>347.0</ele><time>2026-05-02T05:36:26.802Z</time></trkpt><trkpt lat="43.8285507" lon="12.481879"><ele>347.0</ele><time>2026-05-02T05:36:27.823Z</time></trkpt><trkpt lat="43.8284675" lon="12.4819942"><ele>347.0</ele><time>2026-05-02T05:36:28.815Z</time></trkpt><trkpt lat="43.8283965" lon="12.4821192"><ele>346.40000000000003</ele><time>2026-05-02T05:36:29.837Z</time></trkpt><trkpt lat="43.8283296" lon="12.4822481"><ele>345.8</ele><time>2026-05-02T05:36:30.815Z</time></trkpt><trkpt lat="43.828272" lon="12.4823796"><ele>345.2</ele><time>2026-05-02T05:36:31.835Z</time></trkpt><trkpt lat="43.8282174" lon="12.4825111"><ele>344.6</ele><time>2026-05-02T05:36:32.818Z</time></trkpt><trkpt lat="43.8281608" lon="12.4826442"><ele>344.0</ele><time>2026-05-02T05:36:33.837Z</time></trkpt><trkpt lat="43.8280959" lon="12.4827693"><ele>344.0</ele><time>2026-05-02T05:36:34.822Z</time></trkpt><trkpt lat="43.8280228" lon="12.4828862"><ele>344.0</ele><time>2026-05-02T05:36:35.841Z</time></trkpt><trkpt lat="43.8279435" lon="12.4829825"><ele>344.0</ele><time>2026-05-02T05:36:36.812Z</time></trkpt><trkpt lat="43.8278563" lon="12.4830754"><ele>344.0</ele><time>2026-05-02T05:36:37.818Z</time></trkpt><trkpt lat="43.8277659" lon="12.4831589"><ele>344.0</ele><time>2026-05-02T05:36:38.81Z</time></trkpt><trkpt lat="43.8276748" lon="12.4832401"><ele>346.6</ele><time>2026-05-02T05:36:39.804Z</time></trkpt><trkpt lat="43.827583" lon="12.4833191"><ele>349.2</ele><time>2026-05-02T05:36:40.807Z</time></trkpt><trkpt lat="43.8274925" lon="12.4833976"><ele>351.8</ele><time>2026-05-02T05:36:41.814Z</time></trkpt><trkpt lat="43.8273984" lon="12.4834748"><ele>354.40000000000003</ele><time>2026-05-02T05:36:42.799Z</time></trkpt><trkpt lat="43.8272983" lon="12.4835411"><ele>357.0</ele><time>2026-05-02T05:36:43.818Z</time></trkpt><trkpt lat="43.8271859" lon="12.4835961"><ele>357.0</ele><time>2026-05-02T05:36:44.81Z</time></trkpt><trkpt lat="43.8270666" lon="12.4836348"><ele>357.0</ele><time>2026-05-02T05:36:45.816Z</time></trkpt><trkpt lat="43.8269411" lon="12.4836652"><ele>357.0</ele><time>2026-05-02T05:36:46.804Z</time></trkpt><trkpt lat="43.8268146" lon="12.4836977"><ele>357.0</ele><time>2026-05-02T05:36:47.823Z</time></trkpt><trkpt lat="43.826693" lon="12.4837255"><ele>357.0</ele><time>2026-05-02T05:36:48.807Z</time></trkpt><trkpt lat="43.8265727" lon="12.4837609"><ele>357.0</ele><time>2026-05-02T05:36:49.808Z</time></trkpt><trkpt lat="43.8264573" lon="12.4838036"><ele>357.0</ele><time>2026-05-02T05:36:50.81Z</time></trkpt><trkpt lat="43.8263497" lon="12.4838581"><ele>357.0</ele><time>2026-05-02T05:36:51.82Z</time></trkpt><trkpt lat="43.8262505" lon="12.4839291"><ele>357.0</ele><time>2026-05-02T05:36:52.791Z</time></trkpt><trkpt lat="43.8261667" lon="12.4840193"><ele>357.0</ele><time>2026-05-02T05:36:53.811Z</time></trkpt><trkpt lat="43.8260972" lon="12.4841218"><ele>357.0</ele><time>2026-05-02T05:36:54.801Z</time></trkpt><trkpt lat="43.826036" lon="12.4842397"><ele>357.0</ele><time>2026-05-02T05:36:55.805Z</time></trkpt><trkpt lat="43.8259815" lon="12.4843621"><ele>357.0</ele><time>2026-05-02T05:36:56.817Z</time></trkpt><trkpt lat="43.8259299" lon="12.4844858"><ele>356.20000000000005</ele><time>2026-05-02T05:36:57.825Z</time></trkpt><trkpt lat="43.8258708" lon="12.4846043"><ele>355.4</ele><time>2026-05-02T05:36:58.809Z</time></trkpt><trkpt lat="43.8258058" lon="12.4847135"><ele>354.6</ele><time>2026-05-02T05:36:59.812Z</time></trkpt><trkpt lat="43.8257363" lon="12.4848208"><ele>353.79999999999995</ele><time>2026-05-02T05:37:00.815Z</time></trkpt><trkpt lat="43.8256604" lon="12.4849197"><ele>353.0</ele><time>2026-05-02T05:37:01.804Z</time></trkpt><trkpt lat="43.8255683" lon="12.4850046"><ele>353.0</ele><time>2026-05-02T05:37:02.801Z</time></trkpt><trkpt lat="43.8254744" lon="12.4850756"><ele>353.0</ele><time>2026-05-02T05:37:03.808Z</time></trkpt><trkpt lat="43.8253816" lon="12.4851477"><ele>353.0</ele><time>2026-05-02T05:37:04.807Z</time></trkpt><trkpt lat="43.8252971" lon="12.4852294"><ele>353.0</ele><time>2026-05-02T05:37:05.815Z</time></trkpt><trkpt lat="43.8252284" lon="12.4853159"><ele>353.0</ele><time>2026-05-02T05:37:06.794Z</time></trkpt><trkpt lat="43.8251724" lon="12.4854136"><ele>352.0</ele><time>2026-05-02T05:37:07.822Z</time></trkpt><trkpt lat="43.8251163" lon="12.485521"><ele>351.0</ele><time>2026-05-02T05:37:08.804Z</time></trkpt><trkpt lat="43.8250486" lon="12.4856249"><ele>350.0</ele><time>2026-05-02T05:37:09.798Z</time></trkpt><trkpt lat="43.8249713" lon="12.4857145"><ele>349.0</ele><time>2026-05-02T05:37:10.807Z</time></trkpt><trkpt lat="43.8248845" lon="12.4857852"><ele>348.0</ele><time>2026-05-02T05:37:11.822Z</time></trkpt><trkpt lat="43.8247869" lon="12.4858638"><ele>348.0</ele><time>2026-05-02T05:37:12.81Z</time></trkpt><trkpt lat="43.8246827" lon="12.4859377"><ele>348.0</ele><time>2026-05-02T05:37:13.827Z</time></trkpt><trkpt lat="43.8245764" lon="12.4860056"><ele>348.0</ele><time>2026-05-02T05:37:14.813Z</time></trkpt><trkpt lat="43.8244746" lon="12.4860644"><ele>348.0</ele><time>2026-05-02T05:37:15.818Z</time></trkpt><trkpt lat="43.8243812" lon="12.4861228"><ele>348.0</ele><time>2026-05-02T05:37:16.795Z</time></trkpt><trkpt lat="43.8242934" lon="12.486182"><ele>347.4</ele><time>2026-05-02T05:37:17.813Z</time></trkpt><trkpt lat="43.8242183" lon="12.486237"><ele>346.79999999999995</ele><time>2026-05-02T05:37:18.803Z</time></trkpt><trkpt lat="43.8241514" lon="12.4862739"><ele>346.2</ele><time>2026-05-02T05:37:19.816Z</time></trkpt><trkpt lat="43.8240316" lon="12.4862436"><ele>345.6</ele><time>2026-05-02T05:37:21.823Z</time></trkpt><trkpt lat="43.8239651" lon="12.4860912"><ele>345.0</ele><time>2026-05-02T05:37:23.799Z</time></trkpt><trkpt lat="43.8239491" lon="12.4859838"><ele>345.0</ele><time>2026-05-02T05:37:24.806Z</time></trkpt><trkpt lat="43.8239422" lon="12.4858576"><ele>345.0</ele><time>2026-05-02T05:37:25.813Z</time></trkpt><trkpt lat="43.8239393" lon="12.4857303"><ele>345.0</ele><time>2026-05-02T05:37:26.808Z</time></trkpt><trkpt lat="43.8239458" lon="12.4856074"><ele>345.0</ele><time>2026-05-02T05:37:27.816Z</time></trkpt><trkpt lat="43.8239722" lon="12.4854964"><ele>345.0</ele><time>2026-05-02T05:37:28.816Z</time></trkpt><trkpt lat="43.8240176" lon="12.4853852"><ele>345.0</ele><time>2026-05-02T05:37:29.805Z</time></trkpt><trkpt lat="43.8240802" lon="12.4852763"><ele>344.1666666666667</ele><time>2026-05-02T05:37:30.806Z</time></trkpt><trkpt lat="43.8241402" lon="12.4851739"><ele>343.3333333333333</ele><time>2026-05-02T05:37:31.815Z</time></trkpt><trkpt lat="43.8241913" lon="12.4850742"><ele>342.5</ele><time>2026-05-02T05:37:32.809Z</time></trkpt><trkpt lat="43.8242189" lon="12.48496"><ele>341.66666666666663</ele><time>2026-05-02T05:37:33.814Z</time></trkpt><trkpt lat="43.8242225" lon="12.4848563"><ele>340.8333333333333</ele><time>2026-05-02T05:37:34.792Z</time></trkpt><trkpt lat="43.8242038" lon="12.48476"><ele>340.0</ele><time>2026-05-02T05:37:35.803Z</time></trkpt><trkpt lat="43.8241678" lon="12.4846739"><ele>341.0</ele><time>2026-05-02T05:37:36.799Z</time></trkpt><trkpt lat="43.8241163" lon="12.4845735"><ele>342.0</ele><time>2026-05-02T05:37:37.814Z</time></trkpt><trkpt lat="43.8240509" lon="12.4844657"><ele>343.0</ele><time>2026-05-02T05:37:38.815Z</time></trkpt><trkpt lat="43.8239816" lon="12.4843593"><ele>344.0</ele><time>2026-05-02T05:37:39.816Z</time></trkpt><trkpt lat="43.8239186" lon="12.4842415"><ele>345.0</ele><time>2026-05-02T05:37:40.806Z</time></trkpt><trkpt lat="43.8238665" lon="12.4841192"><ele>345.0</ele><time>2026-05-02T05:37:41.803Z</time></trkpt><trkpt lat="43.8238266" lon="12.4839842"><ele>345.0</ele><time>2026-05-02T05:37:42.814Z</time></trkpt><trkpt lat="43.8237884" lon="12.4838458"><ele>345.0</ele><time>2026-05-02T05:37:43.829Z</time></trkpt><trkpt lat="43.8237525" lon="12.4837037"><ele>345.0</ele><time>2026-05-02T05:37:44.791Z</time></trkpt><trkpt lat="43.8237201" lon="12.4835711"><ele>345.0</ele><time>2026-05-02T05:37:45.815Z</time></trkpt><trkpt lat="43.8236846" lon="12.483439"><ele>346.2</ele><time>2026-05-02T05:37:46.806Z</time></trkpt><trkpt lat="43.823643" lon="12.4833133"><ele>347.4</ele><time>2026-05-02T05:37:47.799Z</time></trkpt><trkpt lat="43.8235863" lon="12.483193"><ele>348.6</ele><time>2026-05-02T05:37:48.798Z</time></trkpt><trkpt lat="43.8235151" lon="12.4830723"><ele>349.8</ele><time>2026-05-02T05:37:49.819Z</time></trkpt><trkpt lat="43.8234285" lon="12.4829617"><ele>351.0</ele><time>2026-05-02T05:37:50.817Z</time></trkpt><trkpt lat="43.8233475" lon="12.4828576"><ele>348.20000000000005</ele><time>2026-05-02T05:37:51.798Z</time></trkpt><trkpt lat="43.8232716" lon="12.4827655"><ele>345.40000000000003</ele><time>2026-05-02T05:37:52.813Z</time></trkpt><trkpt lat="43.8231945" lon="12.4826987"><ele>342.6</ele><time>2026-05-02T05:37:53.803Z</time></trkpt><trkpt lat="43.8231086" lon="12.4826641"><ele>339.8</ele><time>2026-05-02T05:37:54.821Z</time></trkpt><trkpt lat="43.8230184" lon="12.4826625"><ele>337.0</ele><time>2026-05-02T05:37:55.83Z</time></trkpt><trkpt lat="43.8229228" lon="12.482671"><ele>337.0</ele><time>2026-05-02T05:37:56.811Z</time></trkpt><trkpt lat="43.8228209" lon="12.4826602"><ele>337.0</ele><time>2026-05-02T05:37:57.801Z</time></trkpt><trkpt lat="43.822714" lon="12.4826272"><ele>337.0</ele><time>2026-05-02T05:37:58.805Z</time></trkpt><trkpt lat="43.8226047" lon="12.4825755"><ele>337.0</ele><time>2026-05-02T05:37:59.81Z</time></trkpt><trkpt lat="43.8224934" lon="12.4825258"><ele>337.0</ele><time>2026-05-02T05:38:00.806Z</time></trkpt><trkpt lat="43.8223802" lon="12.4824866"><ele>333.6</ele><time>2026-05-02T05:38:01.8Z</time></trkpt><trkpt lat="43.8222656" lon="12.4824532"><ele>330.20000000000005</ele><time>2026-05-02T05:38:02.804Z</time></trkpt><trkpt lat="43.8221549" lon="12.4824325"><ele>326.8</ele><time>2026-05-02T05:38:03.814Z</time></trkpt><trkpt lat="43.8220564" lon="12.4824275"><ele>323.4</ele><time>2026-05-02T05:38:04.817Z</time></trkpt><trkpt lat="43.8219645" lon="12.4824191"><ele>320.0</ele><time>2026-05-02T05:38:05.818Z</time></trkpt><trkpt lat="43.821885" lon="12.4823957"><ele>320.0</ele><time>2026-05-02T05:38:06.813Z</time></trkpt><trkpt lat="43.8218209" lon="12.4823443"><ele>320.0</ele><time>2026-05-02T05:38:07.84Z</time></trkpt><trkpt lat="43.8217744" lon="12.4822692"><ele>320.0</ele><time>2026-05-02T05:38:08.806Z</time></trkpt><trkpt lat="43.8217425" lon="12.4821717"><ele>320.0</ele><time>2026-05-02T05:38:09.813Z</time></trkpt><trkpt lat="43.8217276" lon="12.4820568"><ele>320.0</ele><time>2026-05-02T05:38:10.807Z</time></trkpt><trkpt lat="43.8217285" lon="12.4819358"><ele>320.0</ele><time>2026-05-02T05:38:11.814Z</time></trkpt><trkpt lat="43.8217241" lon="12.4818207"><ele>318.83333333333337</ele><time>2026-05-02T05:38:12.799Z</time></trkpt><trkpt lat="43.8217187" lon="12.481712"><ele>317.6666666666667</ele><time>2026-05-02T05:38:13.811Z</time></trkpt><trkpt lat="43.8217024" lon="12.4816191"><ele>316.5</ele><time>2026-05-02T05:38:14.813Z</time></trkpt><trkpt lat="43.8216176" lon="12.4815043"><ele>315.3333333333333</ele><time>2026-05-02T05:38:16.803Z</time></trkpt><trkpt lat="43.8215489" lon="12.4814802"><ele>314.16666666666663</ele><time>2026-05-02T05:38:17.805Z</time></trkpt><trkpt lat="43.8214688" lon="12.4814932"><ele>313.0</ele><time>2026-05-02T05:38:18.804Z</time></trkpt><trkpt lat="43.8213892" lon="12.4815519"><ele>313.0</ele><time>2026-05-02T05:38:19.808Z</time></trkpt><trkpt lat="43.821304" lon="12.4816338"><ele>313.0</ele><time>2026-05-02T05:38:20.797Z</time></trkpt><trkpt lat="43.8212175" lon="12.4817152"><ele>313.0</ele><time>2026-05-02T05:38:21.803Z</time></trkpt><trkpt lat="43.8211346" lon="12.481812"><ele>313.0</ele><time>2026-05-02T05:38:22.805Z</time></trkpt><trkpt lat="43.8210582" lon="12.4819031"><ele>313.0</ele><time>2026-05-02T05:38:23.803Z</time></trkpt><trkpt lat="43.8209732" lon="12.4819755"><ele>310.8333333333333</ele><time>2026-05-02T05:38:24.802Z</time></trkpt><trkpt lat="43.8208871" lon="12.4820387"><ele>308.66666666666663</ele><time>2026-05-02T05:38:25.81Z</time></trkpt><trkpt lat="43.8208025" lon="12.4820985"><ele>306.5</ele><time>2026-05-02T05:38:26.794Z</time></trkpt><trkpt lat="43.8207222" lon="12.4821388"><ele>304.3333333333333</ele><time>2026-05-02T05:38:27.808Z</time></trkpt><trkpt lat="43.8206561" lon="12.4821523"><ele>302.1666666666667</ele><time>2026-05-02T05:38:28.818Z</time></trkpt><trkpt lat="43.8205736" lon="12.4820902"><ele>300.0</ele><time>2026-05-02T05:38:30.785Z</time></trkpt><trkpt lat="43.8205956" lon="12.481934"><ele>298.8333333333333</ele><time>2026-05-02T05:38:32.785Z</time></trkpt><trkpt lat="43.8206169" lon="12.4818514"><ele>297.6666666666667</ele><time>2026-05-02T05:38:33.796Z</time></trkpt><trkpt lat="43.8206401" lon="12.4817573"><ele>296.5</ele><time>2026-05-02T05:38:34.793Z</time></trkpt><trkpt lat="43.820649" lon="12.4816486"><ele>295.33333333333337</ele><time>2026-05-02T05:38:35.802Z</time></trkpt><trkpt lat="43.8206309" lon="12.4815331"><ele>294.1666666666667</ele><time>2026-05-02T05:38:36.808Z</time></trkpt><trkpt lat="43.8206037" lon="12.4814151"><ele>293.0</ele><time>2026-05-02T05:38:37.818Z</time></trkpt><trkpt lat="43.8205723" lon="12.4813014"><ele>292.0</ele><time>2026-05-02T05:38:38.812Z</time></trkpt><trkpt lat="43.8205369" lon="12.4811903"><ele>291.0</ele><time>2026-05-02T05:38:39.804Z</time></trkpt><trkpt lat="43.8205104" lon="12.4810782"><ele>290.0</ele><time>2026-05-02T05:38:40.812Z</time></trkpt><trkpt lat="43.8204939" lon="12.480979"><ele>289.0</ele><time>2026-05-02T05:38:41.798Z</time></trkpt><trkpt lat="43.8204866" lon="12.4808817"><ele>288.0</ele><time>2026-05-02T05:38:42.805Z</time></trkpt><trkpt lat="43.8204532" lon="12.4807339"><ele>287.0</ele><time>2026-05-02T05:38:44.795Z</time></trkpt><trkpt lat="43.8203437" lon="12.4806997"><ele>287.0</ele><time>2026-05-02T05:38:46.803Z</time></trkpt><trkpt lat="43.820291" lon="12.4807591"><ele>287.0</ele><time>2026-05-02T05:38:47.807Z</time></trkpt><trkpt lat="43.8202559" lon="12.4808443"><ele>287.0</ele><time>2026-05-02T05:38:48.803Z</time></trkpt><trkpt lat="43.8202241" lon="12.4809495"><ele>287.0</ele><time>2026-05-02T05:38:49.802Z</time></trkpt><trkpt lat="43.8201814" lon="12.4810648"><ele>287.0</ele><time>2026-05-02T05:38:50.873Z</time></trkpt><trkpt lat="43.8201351" lon="12.4811792"><ele>287.0</ele><time>2026-05-02T05:38:51.814Z</time></trkpt><trkpt lat="43.8200834" lon="12.4812801"><ele>283.2</ele><time>2026-05-02T05:38:52.801Z</time></trkpt><trkpt lat="43.8200188" lon="12.4813597"><ele>279.4</ele><time>2026-05-02T05:38:53.798Z</time></trkpt><trkpt lat="43.8199347" lon="12.4814138"><ele>275.6</ele><time>2026-05-02T05:38:54.795Z</time></trkpt><trkpt lat="43.8198434" lon="12.4814468"><ele>271.8</ele><time>2026-05-02T05:38:55.796Z</time></trkpt><trkpt lat="43.8197544" lon="12.481473"><ele>268.0</ele><time>2026-05-02T05:38:56.803Z</time></trkpt><trkpt lat="43.8196661" lon="12.4815017"><ele>268.0</ele><time>2026-05-02T05:38:57.819Z</time></trkpt><trkpt lat="43.8195821" lon="12.4815413"><ele>268.0</ele><time>2026-05-02T05:38:58.805Z</time></trkpt><trkpt lat="43.8195089" lon="12.4816032"><ele>268.0</ele><time>2026-05-02T05:38:59.808Z</time></trkpt><trkpt lat="43.8194524" lon="12.481687"><ele>268.0</ele><time>2026-05-02T05:39:00.81Z</time></trkpt><trkpt lat="43.8193973" lon="12.4817715"><ele>268.0</ele><time>2026-05-02T05:39:01.798Z</time></trkpt><trkpt lat="43.8193514" lon="12.4818577"><ele>268.0</ele><time>2026-05-02T05:39:02.809Z</time></trkpt><trkpt lat="43.8193107" lon="12.481933"><ele>263.0</ele><time>2026-05-02T05:39:03.809Z</time></trkpt><trkpt lat="43.8192064" lon="12.4819989"><ele>258.0</ele><time>2026-05-02T05:39:05.804Z</time></trkpt><trkpt lat="43.8191074" lon="12.4819049"><ele>253.0</ele><time>2026-05-02T05:39:07.793Z</time></trkpt><trkpt lat="43.8190972" lon="12.4818137"><ele>248.0</ele><time>2026-05-02T05:39:08.806Z</time></trkpt><trkpt lat="43.8190967" lon="12.481698"><ele>243.0</ele><time>2026-05-02T05:39:09.813Z</time></trkpt><trkpt lat="43.819103" lon="12.4815814"><ele>243.0</ele><time>2026-05-02T05:39:10.802Z</time></trkpt><trkpt lat="43.8191103" lon="12.4814571"><ele>243.0</ele><time>2026-05-02T05:39:11.812Z</time></trkpt><trkpt lat="43.8191176" lon="12.4813245"><ele>243.0</ele><time>2026-05-02T05:39:12.801Z</time></trkpt><trkpt lat="43.8191286" lon="12.4811952"><ele>243.0</ele><time>2026-05-02T05:39:13.801Z</time></trkpt><trkpt lat="43.8191362" lon="12.4810667"><ele>243.0</ele><time>2026-05-02T05:39:14.802Z</time></trkpt><trkpt lat="43.8191462" lon="12.4809404"><ele>242.5</ele><time>2026-05-02T05:39:15.814Z</time></trkpt><trkpt lat="43.8191616" lon="12.4808221"><ele>242.0</ele><time>2026-05-02T05:39:16.817Z</time></trkpt><trkpt lat="43.8191629" lon="12.4807159"><ele>241.5</ele><time>2026-05-02T05:39:17.804Z</time></trkpt><trkpt lat="43.8191553" lon="12.4806211"><ele>241.0</ele><time>2026-05-02T05:39:18.808Z</time></trkpt><trkpt lat="43.8190907" lon="12.4804868"><ele>240.5</ele><time>2026-05-02T05:39:20.809Z</time></trkpt><trkpt lat="43.8190274" lon="12.4804553"><ele>240.0</ele><time>2026-05-02T05:39:21.808Z</time></trkpt><trkpt lat="43.818952" lon="12.4804353"><ele>240.0</ele><time>2026-05-02T05:39:22.804Z</time></trkpt><trkpt lat="43.8188702" lon="12.4804246"><ele>240.0</ele><time>2026-05-02T05:39:23.796Z</time></trkpt><trkpt lat="43.8188073" lon="12.4803698"><ele>240.0</ele><time>2026-05-02T05:39:24.808Z</time></trkpt><trkpt lat="43.8187519" lon="12.4803257"><ele>240.0</ele><time>2026-05-02T05:39:25.804Z</time></trkpt><trkpt lat="43.8186353" lon="12.4803574"><ele>240.0</ele><time>2026-05-02T05:39:27.811Z</time></trkpt><trkpt lat="43.8185627" lon="12.4805169"><ele>240.0</ele><time>2026-05-02T05:39:29.802Z</time></trkpt><trkpt lat="43.8185325" lon="12.4806364"><ele>240.0</ele><time>2026-05-02T05:39:30.79Z</time></trkpt><trkpt lat="43.8184969" lon="12.4807559"><ele>240.0</ele><time>2026-05-02T05:39:31.799Z</time></trkpt><trkpt lat="43.8184627" lon="12.4808652"><ele>240.0</ele><time>2026-05-02T05:39:32.797Z</time></trkpt><trkpt lat="43.8184256" lon="12.4809671"><ele>240.0</ele><time>2026-05-02T05:39:33.795Z</time></trkpt><trkpt lat="43.8183969" lon="12.4810611"><ele>240.0</ele><time>2026-05-02T05:39:34.793Z</time></trkpt><trkpt lat="43.8183502" lon="12.4811546"><ele>237.71428571428572</ele><time>2026-05-02T05:39:36.79Z</time></trkpt><trkpt lat="43.8182935" lon="12.4811062"><ele>235.42857142857142</ele><time>2026-05-02T05:39:39.811Z</time></trkpt><trkpt lat="43.8182991" lon="12.4809815"><ele>233.14285714285714</ele><time>2026-05-02T05:39:41.798Z</time></trkpt><trkpt lat="43.8183098" lon="12.4808951"><ele>230.85714285714286</ele><time>2026-05-02T05:39:42.797Z</time></trkpt><trkpt lat="43.818327" lon="12.4808051"><ele>228.57142857142856</ele><time>2026-05-02T05:39:43.805Z</time></trkpt><trkpt lat="43.8183477" lon="12.480713"><ele>226.28571428571428</ele><time>2026-05-02T05:39:44.807Z</time></trkpt><trkpt lat="43.8183749" lon="12.480615"><ele>224.0</ele><time>2026-05-02T05:39:45.805Z</time></trkpt><trkpt lat="43.8183972" lon="12.480506"><ele>224.83333333333334</ele><time>2026-05-02T05:39:46.798Z</time></trkpt><trkpt lat="43.8184232" lon="12.4803802"><ele>225.66666666666669</ele><time>2026-05-02T05:39:47.809Z</time></trkpt><trkpt lat="43.818447" lon="12.4802506"><ele>226.5</ele><time>2026-05-02T05:39:48.801Z</time></trkpt><trkpt lat="43.8184706" lon="12.4801244"><ele>227.33333333333331</ele><time>2026-05-02T05:39:49.801Z</time></trkpt><trkpt lat="43.8185004" lon="12.4800191"><ele>228.16666666666666</ele><time>2026-05-02T05:39:50.799Z</time></trkpt><trkpt lat="43.818535" lon="12.4799336"><ele>229.0</ele><time>2026-05-02T05:39:51.802Z</time></trkpt><trkpt lat="43.818589" lon="12.4798681"><ele>229.33333333333331</ele><time>2026-05-02T05:39:52.794Z</time></trkpt><trkpt lat="43.8186558" lon="12.4798205"><ele>229.66666666666666</ele><time>2026-05-02T05:39:53.808Z</time></trkpt><trkpt lat="43.8187277" lon="12.479767"><ele>230.0</ele><time>2026-05-02T05:39:54.805Z</time></trkpt><trkpt lat="43.818798" lon="12.4797177"><ele>230.33333333333331</ele><time>2026-05-02T05:39:55.803Z</time></trkpt><trkpt lat="43.8188687" lon="12.479657"><ele>230.66666666666666</ele><time>2026-05-02T05:39:56.806Z</time></trkpt><trkpt lat="43.8189436" lon="12.479584"><ele>231.0</ele><time>2026-05-02T05:39:57.808Z</time></trkpt><trkpt lat="43.819007" lon="12.4795071"><ele>231.33333333333334</ele><time>2026-05-02T05:39:58.798Z</time></trkpt><trkpt lat="43.8190614" lon="12.4794173"><ele>231.66666666666669</ele><time>2026-05-02T05:39:59.799Z</time></trkpt><trkpt lat="43.8191032" lon="12.4793124"><ele>232.0</ele><time>2026-05-02T05:40:00.806Z</time></trkpt><trkpt lat="43.8191351" lon="12.4791969"><ele>232.33333333333334</ele><time>2026-05-02T05:40:01.804Z</time></trkpt><trkpt lat="43.8191581" lon="12.4790829"><ele>232.66666666666669</ele><time>2026-05-02T05:40:02.808Z</time></trkpt><trkpt lat="43.8191879" lon="12.4789764"><ele>233.0</ele><time>2026-05-02T05:40:03.802Z</time></trkpt><trkpt lat="43.8192256" lon="12.4788714"><ele>233.00000000000003</ele><time>2026-05-02T05:40:04.795Z</time></trkpt><trkpt lat="43.8192707" lon="12.4787733"><ele>233.0</ele><time>2026-05-02T05:40:05.814Z</time></trkpt><trkpt lat="43.819327" lon="12.4786933"><ele>233.0</ele><time>2026-05-02T05:40:06.804Z</time></trkpt><trkpt lat="43.8193916" lon="12.4786266"><ele>233.0</ele><time>2026-05-02T05:40:07.818Z</time></trkpt><trkpt lat="43.8194599" lon="12.47857"><ele>233.00000000000003</ele><time>2026-05-02T05:40:08.791Z</time></trkpt><trkpt lat="43.8195298" lon="12.4785159"><ele>233.0</ele><time>2026-05-02T05:40:09.821Z</time></trkpt><trkpt lat="43.8195948" lon="12.4784559"><ele>233.50000000000003</ele><time>2026-05-02T05:40:10.795Z</time></trkpt><trkpt lat="43.8196498" lon="12.4783951"><ele>234.0</ele><time>2026-05-02T05:40:11.815Z</time></trkpt><trkpt lat="43.819706" lon="12.4783242"><ele>234.5</ele><time>2026-05-02T05:40:12.798Z</time></trkpt><trkpt lat="43.8197624" lon="12.4782369"><ele>235.0</ele><time>2026-05-02T05:40:13.802Z</time></trkpt><trkpt lat="43.819822" lon="12.4781379"><ele>235.50000000000003</ele><time>2026-05-02T05:40:14.791Z</time></trkpt><trkpt lat="43.8198876" lon="12.4780222"><ele>236.0</ele><time>2026-05-02T05:40:15.806Z</time></trkpt><trkpt lat="43.8199507" lon="12.4778942"><ele>235.75</ele><time>2026-05-02T05:40:16.794Z</time></trkpt><trkpt lat="43.8200181" lon="12.4777676"><ele>235.5</ele><time>2026-05-02T05:40:17.813Z</time></trkpt><trkpt lat="43.8200914" lon="12.4776466"><ele>235.25</ele><time>2026-05-02T05:40:18.795Z</time></trkpt><trkpt lat="43.8201518" lon="12.4775208"><ele>235.0</ele><time>2026-05-02T05:40:19.818Z</time></trkpt><trkpt lat="43.8202084" lon="12.4773769"><ele>235.0</ele><time>2026-05-02T05:40:20.799Z</time></trkpt><trkpt lat="43.8202597" lon="12.4772271"><ele>235.0</ele><time>2026-05-02T05:40:21.809Z</time></trkpt><trkpt lat="43.820308" lon="12.477088"><ele>235.0</ele><time>2026-05-02T05:40:22.798Z</time></trkpt><trkpt lat="43.8203455" lon="12.4769665"><ele>235.0</ele><time>2026-05-02T05:40:23.809Z</time></trkpt><trkpt lat="43.8203826" lon="12.476846"><ele>235.0</ele><time>2026-05-02T05:40:24.805Z</time></trkpt><trkpt lat="43.8204168" lon="12.4767327"><ele>237.2</ele><time>2026-05-02T05:40:25.809Z</time></trkpt><trkpt lat="43.8204593" lon="12.476611"><ele>239.4</ele><time>2026-05-02T05:40:26.799Z</time></trkpt><trkpt lat="43.8204951" lon="12.4764861"><ele>241.60000000000002</ele><time>2026-05-02T05:40:27.825Z</time></trkpt><trkpt lat="43.8205261" lon="12.4763719"><ele>243.8</ele><time>2026-05-02T05:40:28.813Z</time></trkpt><trkpt lat="43.8205641" lon="12.476244"><ele>246.0</ele><time>2026-05-02T05:40:29.799Z</time></trkpt><trkpt lat="43.8206116" lon="12.4761116"><ele>247.8</ele><time>2026-05-02T05:40:30.805Z</time></trkpt><trkpt lat="43.820661" lon="12.4759828"><ele>249.60000000000002</ele><time>2026-05-02T05:40:31.803Z</time></trkpt><trkpt lat="43.8207144" lon="12.4758493"><ele>251.4</ele><time>2026-05-02T05:40:32.795Z</time></trkpt><trkpt lat="43.8207692" lon="12.4757208"><ele>253.2</ele><time>2026-05-02T05:40:33.806Z</time></trkpt><trkpt lat="43.8208136" lon="12.4755971"><ele>255.0</ele><time>2026-05-02T05:40:34.796Z</time></trkpt><trkpt lat="43.8208588" lon="12.4754731"><ele>257.25</ele><time>2026-05-02T05:40:35.829Z</time></trkpt><trkpt lat="43.8209191" lon="12.475345"><ele>259.5</ele><time>2026-05-02T05:40:36.799Z</time></trkpt><trkpt lat="43.8209872" lon="12.475215"><ele>261.75</ele><time>2026-05-02T05:40:37.808Z</time></trkpt><trkpt lat="43.8210648" lon="12.4750901"><ele>264.0</ele><time>2026-05-02T05:40:38.796Z</time></trkpt><trkpt lat="43.8211486" lon="12.4749581"><ele>261.75</ele><time>2026-05-02T05:40:39.804Z</time></trkpt><trkpt lat="43.8212268" lon="12.4748171"><ele>259.5</ele><time>2026-05-02T05:40:40.807Z</time></trkpt><trkpt lat="43.8212958" lon="12.4746762"><ele>257.25</ele><time>2026-05-02T05:40:41.8Z</time></trkpt><trkpt lat="43.8213601" lon="12.4745189"><ele>255.0</ele><time>2026-05-02T05:40:42.811Z</time></trkpt><trkpt lat="43.8214239" lon="12.474367"><ele>255.0</ele><time>2026-05-02T05:40:43.8Z</time></trkpt><trkpt lat="43.8214819" lon="12.4742233"><ele>255.0</ele><time>2026-05-02T05:40:44.803Z</time></trkpt><trkpt lat="43.821533" lon="12.4740984"><ele>255.0</ele><time>2026-05-02T05:40:45.797Z</time></trkpt><trkpt lat="43.821581" lon="12.4739853"><ele>255.0</ele><time>2026-05-02T05:40:46.81Z</time></trkpt><trkpt lat="43.8216084" lon="12.4738841"><ele>255.0</ele><time>2026-05-02T05:40:47.8Z</time></trkpt><trkpt lat="43.8215924" lon="12.473781"><ele>255.0</ele><time>2026-05-02T05:40:49.802Z</time></trkpt><trkpt lat="43.8215189" lon="12.4738"><ele>255.0</ele><time>2026-05-02T05:40:51.803Z</time></trkpt><trkpt lat="43.8214664" lon="12.473874"><ele>255.0</ele><time>2026-05-02T05:40:52.805Z</time></trkpt><trkpt lat="43.8214019" lon="12.4739591"><ele>255.0</ele><time>2026-05-02T05:40:53.803Z</time></trkpt><trkpt lat="43.8213322" lon="12.474055"><ele>255.0</ele><time>2026-05-02T05:40:54.81Z</time></trkpt><trkpt lat="43.8212562" lon="12.4741657"><ele>255.0</ele><time>2026-05-02T05:40:55.81Z</time></trkpt><trkpt lat="43.8211739" lon="12.4742731"><ele>255.0</ele><time>2026-05-02T05:40:56.794Z</time></trkpt><trkpt lat="43.821084" lon="12.4743643"><ele>255.0</ele><time>2026-05-02T05:40:57.807Z</time></trkpt><trkpt lat="43.8209877" lon="12.4744508"><ele>255.0</ele><time>2026-05-02T05:40:58.793Z</time></trkpt><trkpt lat="43.8208867" lon="12.474523"><ele>255.0</ele><time>2026-05-02T05:40:59.807Z</time></trkpt><trkpt lat="43.8207781" lon="12.474574"><ele>257.25</ele><time>2026-05-02T05:41:00.801Z</time></trkpt><trkpt lat="43.8206709" lon="12.4746093"><ele>259.5</ele><time>2026-05-02T05:41:01.8Z</time></trkpt><trkpt lat="43.8205547" lon="12.4746411"><ele>261.75</ele><time>2026-05-02T05:41:02.81Z</time></trkpt><trkpt lat="43.8204368" lon="12.474679"><ele>264.0</ele><time>2026-05-02T05:41:03.804Z</time></trkpt><trkpt lat="43.8203143" lon="12.4747211"><ele>264.0</ele><time>2026-05-02T05:41:04.809Z</time></trkpt><trkpt lat="43.8201937" lon="12.4747639"><ele>264.0</ele><time>2026-05-02T05:41:05.819Z</time></trkpt><trkpt lat="43.8200757" lon="12.474808"><ele>264.0</ele><time>2026-05-02T05:41:06.791Z</time></trkpt><trkpt lat="43.8199644" lon="12.4748527"><ele>264.0</ele><time>2026-05-02T05:41:07.814Z</time></trkpt><trkpt lat="43.8198555" lon="12.4748942"><ele>267.6666666666667</ele><time>2026-05-02T05:41:08.809Z</time></trkpt><trkpt lat="43.8197575" lon="12.4749431"><ele>271.3333333333333</ele><time>2026-05-02T05:41:09.807Z</time></trkpt><trkpt lat="43.8196716" lon="12.4749991"><ele>275.0</ele><time>2026-05-02T05:41:10.802Z</time></trkpt><trkpt lat="43.8196117" lon="12.4750435"><ele>278.66666666666663</ele><time>2026-05-02T05:41:11.809Z</time></trkpt><trkpt lat="43.8195533" lon="12.4749988"><ele>282.3333333333333</ele><time>2026-05-02T05:41:15.804Z</time></trkpt><trkpt lat="43.8195862" lon="12.4749005"><ele>286.0</ele><time>2026-05-02T05:41:30.801Z</time></trkpt><trkpt lat="43.8196241" lon="12.4748057"><ele>286.0</ele><time>2026-05-02T05:41:32.804Z</time></trkpt><trkpt lat="43.81966" lon="12.4747162"><ele>286.0</ele><time>2026-05-02T05:41:34.794Z</time></trkpt><trkpt lat="43.8196634" lon="12.4748385"><ele>286.0</ele><time>2026-05-02T05:41:45.796Z</time></trkpt><trkpt lat="43.8196335" lon="12.4749199"><ele>286.0</ele><time>2026-05-02T05:41:46.794Z</time></trkpt><trkpt lat="43.8195896" lon="12.474997"><ele>286.0</ele><time>2026-05-02T05:41:47.797Z</time></trkpt><trkpt lat="43.8195213" lon="12.4750776"><ele>286.0</ele><time>2026-05-02T05:41:48.789Z</time></trkpt><trkpt lat="43.819442" lon="12.4751692"><ele>286.0</ele><time>2026-05-02T05:41:49.796Z</time></trkpt><trkpt lat="43.8193523" lon="12.4752719"><ele>286.0</ele><time>2026-05-02T05:41:50.801Z</time></trkpt><trkpt lat="43.8192673" lon="12.4753695"><ele>286.0</ele><time>2026-05-02T05:41:51.798Z</time></trkpt><trkpt lat="43.8192053" lon="12.4754336"><ele>286.0</ele><time>2026-05-02T05:41:52.794Z</time></trkpt><trkpt lat="43.8191463" lon="12.4754009"><ele>286.0</ele><time>2026-05-02T05:41:55.801Z</time></trkpt><trkpt lat="43.8191822" lon="12.4752855"><ele>288.8</ele><time>2026-05-02T05:41:57.808Z</time></trkpt><trkpt lat="43.8192133" lon="12.4752063"><ele>291.6</ele><time>2026-05-02T05:41:58.795Z</time></trkpt><trkpt lat="43.8192335" lon="12.4750828"><ele>294.4</ele><time>2026-05-02T05:41:59.82Z</time></trkpt><trkpt lat="43.8192615" lon="12.4749159"><ele>297.2</ele><time>2026-05-02T05:42:00.801Z</time></trkpt><trkpt lat="43.8193011" lon="12.4747394"><ele>300.0</ele><time>2026-05-02T05:42:01.807Z</time></trkpt><trkpt lat="43.8193532" lon="12.4745679"><ele>300.0</ele><time>2026-05-02T05:42:02.795Z</time></trkpt><trkpt lat="43.8194204" lon="12.474413"><ele>300.0</ele><time>2026-05-02T05:42:03.804Z</time></trkpt><trkpt lat="43.8195082" lon="12.4742859"><ele>300.0</ele><time>2026-05-02T05:42:04.802Z</time></trkpt><trkpt lat="43.8195999" lon="12.4741575"><ele>300.0</ele><time>2026-05-02T05:42:05.806Z</time></trkpt><trkpt lat="43.8196855" lon="12.474041"><ele>300.0</ele><time>2026-05-02T05:42:06.793Z</time></trkpt><trkpt lat="43.8197671" lon="12.4739261"><ele>300.0</ele><time>2026-05-02T05:42:07.812Z</time></trkpt><trkpt lat="43.8198161" lon="12.4737944"><ele>300.0</ele><time>2026-05-02T05:42:08.796Z</time></trkpt><trkpt lat="43.8198754" lon="12.4736442"><ele>300.0</ele><time>2026-05-02T05:42:09.806Z</time></trkpt><trkpt lat="43.8199186" lon="12.4734978"><ele>304.25</ele><time>2026-05-02T05:42:10.795Z</time></trkpt><trkpt lat="43.8199599" lon="12.4733503"><ele>308.5</ele><time>2026-05-02T05:42:11.793Z</time></trkpt><trkpt lat="43.8199952" lon="12.4732062"><ele>312.75</ele><time>2026-05-02T05:42:12.803Z</time></trkpt><trkpt lat="43.8200389" lon="12.4730624"><ele>317.0</ele><time>2026-05-02T05:42:13.8Z</time></trkpt><trkpt lat="43.8200866" lon="12.4729157"><ele>319.2</ele><time>2026-05-02T05:42:14.797Z</time></trkpt><trkpt lat="43.8201463" lon="12.4727822"><ele>321.4</ele><time>2026-05-02T05:42:15.803Z</time></trkpt><trkpt lat="43.8201881" lon="12.4726381"><ele>323.59999999999997</ele><time>2026-05-02T05:42:16.794Z</time></trkpt><trkpt lat="43.820219" lon="12.4724984"><ele>325.79999999999995</ele><time>2026-05-02T05:42:17.802Z</time></trkpt><trkpt lat="43.8202385" lon="12.4723521"><ele>328.0</ele><time>2026-05-02T05:42:18.793Z</time></trkpt><trkpt lat="43.8202513" lon="12.4722107"><ele>325.59999999999997</ele><time>2026-05-02T05:42:19.796Z</time></trkpt><trkpt lat="43.820252" lon="12.472062"><ele>323.2</ele><time>2026-05-02T05:42:20.808Z</time></trkpt><trkpt lat="43.8202537" lon="12.471913"><ele>320.8</ele><time>2026-05-02T05:42:21.802Z</time></trkpt><trkpt lat="43.8202664" lon="12.4717661"><ele>318.4</ele><time>2026-05-02T05:42:22.793Z</time></trkpt><trkpt lat="43.8202948" lon="12.4716127"><ele>316.0</ele><time>2026-05-02T05:42:23.798Z</time></trkpt><trkpt lat="43.820349" lon="12.4714722"><ele>316.0</ele><time>2026-05-02T05:42:24.804Z</time></trkpt><trkpt lat="43.8204351" lon="12.4713246"><ele>316.0</ele><time>2026-05-02T05:42:25.803Z</time></trkpt><trkpt lat="43.8205148" lon="12.4711653"><ele>316.0</ele><time>2026-05-02T05:42:26.801Z</time></trkpt><trkpt lat="43.8205923" lon="12.4710019"><ele>316.0</ele><time>2026-05-02T05:42:27.792Z</time></trkpt><trkpt lat="43.8206702" lon="12.4708419"><ele>319.75</ele><time>2026-05-02T05:42:28.783Z</time></trkpt><trkpt lat="43.8207474" lon="12.4706855"><ele>323.5</ele><time>2026-05-02T05:42:29.818Z</time></trkpt><trkpt lat="43.820824" lon="12.4705271"><ele>327.25</ele><time>2026-05-02T05:42:30.8Z</time></trkpt><trkpt lat="43.8209013" lon="12.4703551"><ele>331.0</ele><time>2026-05-02T05:42:31.812Z</time></trkpt><trkpt lat="43.8209673" lon="12.4701884"><ele>330.75</ele><time>2026-05-02T05:42:32.811Z</time></trkpt><trkpt lat="43.8210227" lon="12.4700172"><ele>330.5</ele><time>2026-05-02T05:42:33.803Z</time></trkpt><trkpt lat="43.8210723" lon="12.4698433"><ele>330.25</ele><time>2026-05-02T05:42:34.813Z</time></trkpt><trkpt lat="43.8211215" lon="12.4696789"><ele>330.0</ele><time>2026-05-02T05:42:35.814Z</time></trkpt><trkpt lat="43.8211587" lon="12.4695347"><ele>330.0</ele><time>2026-05-02T05:42:36.805Z</time></trkpt><trkpt lat="43.8211773" lon="12.4693992"><ele>330.0</ele><time>2026-05-02T05:42:37.816Z</time></trkpt><trkpt lat="43.8211759" lon="12.4692631"><ele>330.0</ele><time>2026-05-02T05:42:38.802Z</time></trkpt><trkpt lat="43.8211367" lon="12.4691504"><ele>330.0</ele><time>2026-05-02T05:42:39.811Z</time></trkpt><trkpt lat="43.8210728" lon="12.4690614"><ele>330.0</ele><time>2026-05-02T05:42:40.795Z</time></trkpt><trkpt lat="43.8209968" lon="12.4689964"><ele>332.2</ele><time>2026-05-02T05:42:41.8Z</time></trkpt><trkpt lat="43.8209109" lon="12.4689569"><ele>334.4</ele><time>2026-05-02T05:42:42.799Z</time></trkpt><trkpt lat="43.8208119" lon="12.4689125"><ele>336.6</ele><time>2026-05-02T05:42:43.819Z</time></trkpt><trkpt lat="43.8206993" lon="12.4688588"><ele>338.8</ele><time>2026-05-02T05:42:44.794Z</time></trkpt><trkpt lat="43.820588" lon="12.468814"><ele>341.0</ele><time>2026-05-02T05:42:45.818Z</time></trkpt><trkpt lat="43.8204948" lon="12.468769"><ele>341.0</ele><time>2026-05-02T05:42:46.8Z</time></trkpt><trkpt lat="43.8204109" lon="12.4687609"><ele>341.0</ele><time>2026-05-02T05:42:47.809Z</time></trkpt><trkpt lat="43.8203343" lon="12.468798"><ele>341.0</ele><time>2026-05-02T05:42:48.797Z</time></trkpt><trkpt lat="43.8202918" lon="12.46887"><ele>341.0</ele><time>2026-05-02T05:42:49.804Z</time></trkpt><trkpt lat="43.8202773" lon="12.4689728"><ele>341.0</ele><time>2026-05-02T05:42:50.81Z</time></trkpt><trkpt lat="43.8202967" lon="12.4690824"><ele>341.0</ele><time>2026-05-02T05:42:51.806Z</time></trkpt><trkpt lat="43.8203357" lon="12.4691969"><ele>341.6</ele><time>2026-05-02T05:42:52.803Z</time></trkpt><trkpt lat="43.820372" lon="12.4693222"><ele>342.20000000000005</ele><time>2026-05-02T05:42:53.812Z</time></trkpt><trkpt lat="43.8204152" lon="12.4694615"><ele>342.79999999999995</ele><time>2026-05-02T05:42:54.809Z</time></trkpt><trkpt lat="43.8204596" lon="12.4696027"><ele>343.4</ele><time>2026-05-02T05:42:55.802Z</time></trkpt><trkpt lat="43.820489" lon="12.4697412"><ele>344.0</ele><time>2026-05-02T05:42:56.803Z</time></trkpt><trkpt lat="43.820491" lon="12.4698599"><ele>344.0</ele><time>2026-05-02T05:42:57.806Z</time></trkpt><trkpt lat="43.8204646" lon="12.4699604"><ele>344.0</ele><time>2026-05-02T05:42:58.814Z</time></trkpt><trkpt lat="43.8203996" lon="12.4700184"><ele>344.0</ele><time>2026-05-02T05:42:59.807Z</time></trkpt><trkpt lat="43.8203201" lon="12.4700373"><ele>344.0</ele><time>2026-05-02T05:43:00.804Z</time></trkpt><trkpt lat="43.8202408" lon="12.4699858"><ele>344.0</ele><time>2026-05-02T05:43:01.8Z</time></trkpt><trkpt lat="43.8201697" lon="12.4699288"><ele>344.0</ele><time>2026-05-02T05:43:02.801Z</time></trkpt><trkpt lat="43.820087" lon="12.4698442"><ele>347.5</ele><time>2026-05-02T05:43:03.805Z</time></trkpt><trkpt lat="43.8200017" lon="12.4697496"><ele>351.0</ele><time>2026-05-02T05:43:04.807Z</time></trkpt><trkpt lat="43.8199111" lon="12.4696554"><ele>354.5</ele><time>2026-05-02T05:43:05.806Z</time></trkpt><trkpt lat="43.8198125" lon="12.4695559"><ele>358.0</ele><time>2026-05-02T05:43:06.799Z</time></trkpt><trkpt lat="43.8197137" lon="12.4694464"><ele>358.0</ele><time>2026-05-02T05:43:07.807Z</time></trkpt><trkpt lat="43.8196197" lon="12.4693155"><ele>358.0</ele><time>2026-05-02T05:43:08.804Z</time></trkpt><trkpt lat="43.8195381" lon="12.4691674"><ele>358.0</ele><time>2026-05-02T05:43:09.814Z</time></trkpt><trkpt lat="43.8194664" lon="12.4690062"><ele>358.0</ele><time>2026-05-02T05:43:10.799Z</time></trkpt><trkpt lat="43.8193938" lon="12.4688406"><ele>357.0</ele><time>2026-05-02T05:43:11.806Z</time></trkpt><trkpt lat="43.8193213" lon="12.4686767"><ele>356.0</ele><time>2026-05-02T05:43:12.816Z</time></trkpt><trkpt lat="43.8192592" lon="12.468511"><ele>355.0</ele><time>2026-05-02T05:43:13.822Z</time></trkpt><trkpt lat="43.8192093" lon="12.4683391"><ele>354.0</ele><time>2026-05-02T05:43:14.796Z</time></trkpt><trkpt lat="43.8191746" lon="12.4681588"><ele>359.75</ele><time>2026-05-02T05:43:15.807Z</time></trkpt><trkpt lat="43.8191482" lon="12.4679754"><ele>365.5</ele><time>2026-05-02T05:43:16.801Z</time></trkpt><trkpt lat="43.8191202" lon="12.4677947"><ele>371.25</ele><time>2026-05-02T05:43:17.811Z</time></trkpt><trkpt lat="43.8190899" lon="12.4676084"><ele>377.0</ele><time>2026-05-02T05:43:18.798Z</time></trkpt><trkpt lat="43.8190515" lon="12.4674316"><ele>377.0</ele><time>2026-05-02T05:43:19.811Z</time></trkpt><trkpt lat="43.8190022" lon="12.4672581"><ele>377.0</ele><time>2026-05-02T05:43:20.808Z</time></trkpt><trkpt lat="43.8189511" lon="12.4671012"><ele>377.0</ele><time>2026-05-02T05:43:21.812Z</time></trkpt><trkpt lat="43.8189" lon="12.4669632"><ele>377.0</ele><time>2026-05-02T05:43:22.799Z</time></trkpt><trkpt lat="43.8188589" lon="12.4668328"><ele>377.5</ele><time>2026-05-02T05:43:23.802Z</time></trkpt><trkpt lat="43.8188419" lon="12.4666898"><ele>378.0</ele><time>2026-05-02T05:43:24.813Z</time></trkpt><trkpt lat="43.818844" lon="12.466531"><ele>378.5</ele><time>2026-05-02T05:43:25.815Z</time></trkpt><trkpt lat="43.8188664" lon="12.4663749"><ele>379.0</ele><time>2026-05-02T05:43:26.802Z</time></trkpt><trkpt lat="43.8188976" lon="12.4662086"><ele>381.0</ele><time>2026-05-02T05:43:27.803Z</time></trkpt><trkpt lat="43.8189499" lon="12.4660444"><ele>383.0</ele><time>2026-05-02T05:43:28.805Z</time></trkpt><trkpt lat="43.8190106" lon="12.4658986"><ele>385.0</ele><time>2026-05-02T05:43:29.803Z</time></trkpt><trkpt lat="43.8190568" lon="12.4657594"><ele>387.0</ele><time>2026-05-02T05:43:30.806Z</time></trkpt><trkpt lat="43.8190678" lon="12.4656162"><ele>387.0</ele><time>2026-05-02T05:43:31.799Z</time></trkpt><trkpt lat="43.8190534" lon="12.46546"><ele>387.0</ele><time>2026-05-02T05:43:32.813Z</time></trkpt><trkpt lat="43.8190342" lon="12.4652889"><ele>387.0</ele><time>2026-05-02T05:43:33.817Z</time></trkpt><trkpt lat="43.8190178" lon="12.4651254"><ele>387.0</ele><time>2026-05-02T05:43:34.812Z</time></trkpt><trkpt lat="43.8189922" lon="12.4649714"><ele>388.25</ele><time>2026-05-02T05:43:35.82Z</time></trkpt><trkpt lat="43.8189535" lon="12.46483"><ele>389.5</ele><time>2026-05-02T05:43:36.802Z</time></trkpt><trkpt lat="43.8188935" lon="12.4646948"><ele>390.75</ele><time>2026-05-02T05:43:37.811Z</time></trkpt><trkpt lat="43.8188198" lon="12.4645656"><ele>392.0</ele><time>2026-05-02T05:43:38.806Z</time></trkpt><trkpt lat="43.8187475" lon="12.4644289"><ele>392.25</ele><time>2026-05-02T05:43:39.807Z</time></trkpt><trkpt lat="43.8186741" lon="12.4642837"><ele>392.5</ele><time>2026-05-02T05:43:40.798Z</time></trkpt><trkpt lat="43.8186099" lon="12.4641214"><ele>392.75</ele><time>2026-05-02T05:43:41.804Z</time></trkpt><trkpt lat="43.8185558" lon="12.4639475"><ele>393.0</ele><time>2026-05-02T05:43:42.8Z</time></trkpt><trkpt lat="43.8185104" lon="12.4637695"><ele>395.75</ele><time>2026-05-02T05:43:43.811Z</time></trkpt><trkpt lat="43.818473" lon="12.4635863"><ele>398.5</ele><time>2026-05-02T05:43:44.806Z</time></trkpt><trkpt lat="43.8184393" lon="12.463405"><ele>401.25</ele><time>2026-05-02T05:43:45.817Z</time></trkpt><trkpt lat="43.8184079" lon="12.4632214"><ele>404.0</ele><time>2026-05-02T05:43:46.81Z</time></trkpt><trkpt lat="43.8183704" lon="12.4630389"><ele>404.25</ele><time>2026-05-02T05:43:47.816Z</time></trkpt><trkpt lat="43.8183425" lon="12.4628657"><ele>404.5</ele><time>2026-05-02T05:43:48.8Z</time></trkpt><trkpt lat="43.8183287" lon="12.4626948"><ele>404.75</ele><time>2026-05-02T05:43:49.817Z</time></trkpt><trkpt lat="43.8183483" lon="12.4625181"><ele>405.0</ele><time>2026-05-02T05:43:50.809Z</time></trkpt><trkpt lat="43.8184037" lon="12.4623379"><ele>405.0</ele><time>2026-05-02T05:43:51.803Z</time></trkpt><trkpt lat="43.8184788" lon="12.4621676"><ele>405.0</ele><time>2026-05-02T05:43:52.798Z</time></trkpt><trkpt lat="43.81857" lon="12.4620115"><ele>405.0</ele><time>2026-05-02T05:43:53.827Z</time></trkpt><trkpt lat="43.8186749" lon="12.4618753"><ele>405.0</ele><time>2026-05-02T05:43:54.812Z</time></trkpt><trkpt lat="43.8187968" lon="12.4617601"><ele>408.25</ele><time>2026-05-02T05:43:55.81Z</time></trkpt><trkpt lat="43.8189297" lon="12.461673"><ele>411.5</ele><time>2026-05-02T05:43:56.802Z</time></trkpt><trkpt lat="43.8190673" lon="12.4616268"><ele>414.75</ele><time>2026-05-02T05:43:57.818Z</time></trkpt><trkpt lat="43.8192053" lon="12.4616189"><ele>418.0</ele><time>2026-05-02T05:43:58.809Z</time></trkpt><trkpt lat="43.8193338" lon="12.4616514"><ele>421.25</ele><time>2026-05-02T05:43:59.828Z</time></trkpt><trkpt lat="43.8194537" lon="12.461695"><ele>424.5</ele><time>2026-05-02T05:44:00.808Z</time></trkpt><trkpt lat="43.8195746" lon="12.4617466"><ele>427.75</ele><time>2026-05-02T05:44:01.803Z</time></trkpt><trkpt lat="43.8196946" lon="12.4617965"><ele>431.0</ele><time>2026-05-02T05:44:02.814Z</time></trkpt><trkpt lat="43.8198181" lon="12.4618368"><ele>431.0</ele><time>2026-05-02T05:44:03.818Z</time></trkpt><trkpt lat="43.8199438" lon="12.4618691"><ele>431.0</ele><time>2026-05-02T05:44:04.811Z</time></trkpt><trkpt lat="43.8200641" lon="12.461896"><ele>431.0</ele><time>2026-05-02T05:44:05.815Z</time></trkpt><trkpt lat="43.8201831" lon="12.4619167"><ele>431.0</ele><time>2026-05-02T05:44:06.794Z</time></trkpt><trkpt lat="43.8203016" lon="12.4619292"><ele>429.4</ele><time>2026-05-02T05:44:07.812Z</time></trkpt><trkpt lat="43.8204156" lon="12.4619177"><ele>427.8</ele><time>2026-05-02T05:44:08.811Z</time></trkpt><trkpt lat="43.8205205" lon="12.4618811"><ele>426.2</ele><time>2026-05-02T05:44:09.82Z</time></trkpt><trkpt lat="43.8206207" lon="12.4618264"><ele>424.59999999999997</ele><time>2026-05-02T05:44:10.816Z</time></trkpt><trkpt lat="43.820706" lon="12.4617516"><ele>423.0</ele><time>2026-05-02T05:44:11.815Z</time></trkpt><trkpt lat="43.8207598" lon="12.4616648"><ele>423.0</ele><time>2026-05-02T05:44:12.807Z</time></trkpt><trkpt lat="43.820777" lon="12.4615686"><ele>423.0</ele><time>2026-05-02T05:44:13.805Z</time></trkpt><trkpt lat="43.8207716" lon="12.4614766"><ele>423.0</ele><time>2026-05-02T05:44:14.81Z</time></trkpt><trkpt lat="43.8207167" lon="12.4614266"><ele>423.0</ele><time>2026-05-02T05:44:15.81Z</time></trkpt><trkpt lat="43.820625" lon="12.461401"><ele>423.0</ele><time>2026-05-02T05:44:16.808Z</time></trkpt><trkpt lat="43.8205392" lon="12.4613797"><ele>423.0</ele><time>2026-05-02T05:44:17.818Z</time></trkpt><trkpt lat="43.8204413" lon="12.4613547"><ele>423.0</ele><time>2026-05-02T05:44:18.811Z</time></trkpt><trkpt lat="43.820354" lon="12.4613008"><ele>423.0</ele><time>2026-05-02T05:44:19.804Z</time></trkpt><trkpt lat="43.8202854" lon="12.4612133"><ele>423.0</ele><time>2026-05-02T05:44:20.802Z</time></trkpt><trkpt lat="43.820236" lon="12.4611107"><ele>423.0</ele><time>2026-05-02T05:44:21.798Z</time></trkpt><trkpt lat="43.8201974" lon="12.4610083"><ele>423.0</ele><time>2026-05-02T05:44:22.813Z</time></trkpt><trkpt lat="43.82016" lon="12.460883"><ele>426.5</ele><time>2026-05-02T05:44:23.816Z</time></trkpt><trkpt lat="43.8201196" lon="12.4607408"><ele>430.0</ele><time>2026-05-02T05:44:24.811Z</time></trkpt><trkpt lat="43.8200691" lon="12.4605861"><ele>433.5</ele><time>2026-05-02T05:44:25.817Z</time></trkpt><trkpt lat="43.8200081" lon="12.4604225"><ele>437.0</ele><time>2026-05-02T05:44:26.807Z</time></trkpt><trkpt lat="43.8199492" lon="12.4602493"><ele>437.0</ele><time>2026-05-02T05:44:27.819Z</time></trkpt><trkpt lat="43.8198912" lon="12.4600808"><ele>437.0</ele><time>2026-05-02T05:44:28.81Z</time></trkpt><trkpt lat="43.8198492" lon="12.4599042"><ele>437.0</ele><time>2026-05-02T05:44:29.818Z</time></trkpt><trkpt lat="43.8198385" lon="12.459715"><ele>437.0</ele><time>2026-05-02T05:44:30.801Z</time></trkpt><trkpt lat="43.8198515" lon="12.4595177"><ele>439.25</ele><time>2026-05-02T05:44:31.814Z</time></trkpt><trkpt lat="43.8198674" lon="12.459311"><ele>441.5</ele><time>2026-05-02T05:44:32.825Z</time></trkpt><trkpt lat="43.8198968" lon="12.459112"><ele>443.75</ele><time>2026-05-02T05:44:33.827Z</time></trkpt><trkpt lat="43.8199427" lon="12.4589211"><ele>446.0</ele><time>2026-05-02T05:44:34.811Z</time></trkpt><trkpt lat="43.8199927" lon="12.4587382"><ele>448.6</ele><time>2026-05-02T05:44:35.812Z</time></trkpt><trkpt lat="43.8200334" lon="12.4585733"><ele>451.20000000000005</ele><time>2026-05-02T05:44:36.8Z</time></trkpt><trkpt lat="43.8200573" lon="12.4584247"><ele>453.79999999999995</ele><time>2026-05-02T05:44:37.815Z</time></trkpt><trkpt lat="43.8200489" lon="12.4582917"><ele>456.4</ele><time>2026-05-02T05:44:38.813Z</time></trkpt><trkpt lat="43.8200068" lon="12.4581657"><ele>459.0</ele><time>2026-05-02T05:44:39.802Z</time></trkpt><trkpt lat="43.8199217" lon="12.4580736"><ele>459.0</ele><time>2026-05-02T05:44:40.798Z</time></trkpt><trkpt lat="43.8198206" lon="12.4580323"><ele>459.0</ele><time>2026-05-02T05:44:41.805Z</time></trkpt><trkpt lat="43.8197081" lon="12.4580248"><ele>459.0</ele><time>2026-05-02T05:44:42.803Z</time></trkpt><trkpt lat="43.8195949" lon="12.4580375"><ele>459.0</ele><time>2026-05-02T05:44:43.8Z</time></trkpt><trkpt lat="43.8194877" lon="12.4580419"><ele>459.0</ele><time>2026-05-02T05:44:44.791Z</time></trkpt><trkpt lat="43.819381" lon="12.4580439"><ele>460.6</ele><time>2026-05-02T05:44:45.802Z</time></trkpt><trkpt lat="43.8192897" lon="12.4580304"><ele>462.2</ele><time>2026-05-02T05:44:46.8Z</time></trkpt><trkpt lat="43.819205" lon="12.4579942"><ele>463.80000000000007</ele><time>2026-05-02T05:44:47.812Z</time></trkpt><trkpt lat="43.8191129" lon="12.4579494"><ele>465.40000000000003</ele><time>2026-05-02T05:44:48.801Z</time></trkpt><trkpt lat="43.8190166" lon="12.4578997"><ele>467.0</ele><time>2026-05-02T05:44:49.807Z</time></trkpt><trkpt lat="43.8189121" lon="12.4578512"><ele>469.6</ele><time>2026-05-02T05:44:50.805Z</time></trkpt><trkpt lat="43.8188108" lon="12.4578094"><ele>472.20000000000005</ele><time>2026-05-02T05:44:51.805Z</time></trkpt><trkpt lat="43.8187048" lon="12.4577782"><ele>474.8</ele><time>2026-05-02T05:44:52.786Z</time></trkpt><trkpt lat="43.8185934" lon="12.4577565"><ele>477.4</ele><time>2026-05-02T05:44:53.812Z</time></trkpt><trkpt lat="43.8184895" lon="12.4577338"><ele>480.0</ele><time>2026-05-02T05:44:54.804Z</time></trkpt><trkpt lat="43.8183979" lon="12.4577084"><ele>480.0</ele><time>2026-05-02T05:44:55.808Z</time></trkpt><trkpt lat="43.8183331" lon="12.4576669"><ele>480.0</ele><time>2026-05-02T05:44:56.802Z</time></trkpt><trkpt lat="43.8183309" lon="12.4575789"><ele>480.0</ele><time>2026-05-02T05:44:57.803Z</time></trkpt><trkpt lat="43.8183498" lon="12.4574827"><ele>480.0</ele><time>2026-05-02T05:44:58.805Z</time></trkpt><trkpt lat="43.8183871" lon="12.4573709"><ele>480.0</ele><time>2026-05-02T05:44:59.799Z</time></trkpt><trkpt lat="43.8184397" lon="12.4572148"><ele>480.0</ele><time>2026-05-02T05:45:00.81Z</time></trkpt><trkpt lat="43.8184722" lon="12.4570391"><ele>482.4</ele><time>2026-05-02T05:45:01.798Z</time></trkpt><trkpt lat="43.818458" lon="12.4568978"><ele>484.8</ele><time>2026-05-02T05:45:02.813Z</time></trkpt><trkpt lat="43.8183978" lon="12.4567688"><ele>487.20000000000005</ele><time>2026-05-02T05:45:03.83Z</time></trkpt><trkpt lat="43.8183112" lon="12.4566806"><ele>489.6</ele><time>2026-05-02T05:45:04.799Z</time></trkpt><trkpt lat="43.8181959" lon="12.4566475"><ele>492.0</ele><time>2026-05-02T05:45:05.816Z</time></trkpt><trkpt lat="43.8180608" lon="12.4566403"><ele>492.0</ele><time>2026-05-02T05:45:06.815Z</time></trkpt><trkpt lat="43.8179343" lon="12.4566237"><ele>492.0</ele><time>2026-05-02T05:45:07.813Z</time></trkpt><trkpt lat="43.8178082" lon="12.456621"><ele>492.0</ele><time>2026-05-02T05:45:08.8Z</time></trkpt><trkpt lat="43.8176892" lon="12.4566004"><ele>492.0</ele><time>2026-05-02T05:45:09.811Z</time></trkpt><trkpt lat="43.8175728" lon="12.4565564"><ele>489.75</ele><time>2026-05-02T05:45:10.795Z</time></trkpt><trkpt lat="43.817452" lon="12.4564988"><ele>487.5</ele><time>2026-05-02T05:45:11.801Z</time></trkpt><trkpt lat="43.8173362" lon="12.4564511"><ele>485.25</ele><time>2026-05-02T05:45:12.792Z</time></trkpt><trkpt lat="43.8172133" lon="12.4564098"><ele>483.0</ele><time>2026-05-02T05:45:13.795Z</time></trkpt><trkpt lat="43.8170783" lon="12.4563608"><ele>483.0</ele><time>2026-05-02T05:45:14.794Z</time></trkpt><trkpt lat="43.8169339" lon="12.4563135"><ele>483.0</ele><time>2026-05-02T05:45:15.791Z</time></trkpt><trkpt lat="43.8167882" lon="12.4562535"><ele>483.0</ele><time>2026-05-02T05:45:16.794Z</time></trkpt><trkpt lat="43.8166322" lon="12.4561904"><ele>487.33333333333337</ele><time>2026-05-02T05:45:17.796Z</time></trkpt><trkpt lat="43.8164808" lon="12.4561301"><ele>491.6666666666667</ele><time>2026-05-02T05:45:18.802Z</time></trkpt><trkpt lat="43.8163379" lon="12.4560632"><ele>496.0</ele><time>2026-05-02T05:45:19.801Z</time></trkpt><trkpt lat="43.8162011" lon="12.4559983"><ele>496.0</ele><time>2026-05-02T05:45:20.796Z</time></trkpt><trkpt lat="43.8160767" lon="12.4559304"><ele>496.0</ele><time>2026-05-02T05:45:21.795Z</time></trkpt><trkpt lat="43.8159632" lon="12.4558686"><ele>496.0</ele><time>2026-05-02T05:45:22.797Z</time></trkpt><trkpt lat="43.8158603" lon="12.455811"><ele>496.0</ele><time>2026-05-02T05:45:23.792Z</time></trkpt><trkpt lat="43.8157611" lon="12.455768"><ele>494.0</ele><time>2026-05-02T05:45:24.8Z</time></trkpt><trkpt lat="43.8156486" lon="12.4557702"><ele>492.0</ele><time>2026-05-02T05:45:25.802Z</time></trkpt><trkpt lat="43.8155357" lon="12.4558275"><ele>490.0</ele><time>2026-05-02T05:45:26.791Z</time></trkpt><trkpt lat="43.8154357" lon="12.4559023"><ele>488.0</ele><time>2026-05-02T05:45:27.804Z</time></trkpt><trkpt lat="43.8153581" lon="12.4559695"><ele>486.0</ele><time>2026-05-02T05:45:28.788Z</time></trkpt><trkpt lat="43.8152916" lon="12.4559835"><ele>486.0</ele><time>2026-05-02T05:45:29.797Z</time></trkpt><trkpt lat="43.8151877" lon="12.4559119"><ele>486.0</ele><time>2026-05-02T05:45:31.795Z</time></trkpt><trkpt lat="43.8151484" lon="12.4558183"><ele>486.0</ele><time>2026-05-02T05:45:32.794Z</time></trkpt><trkpt lat="43.8151215" lon="12.4556925"><ele>486.0</ele><time>2026-05-02T05:45:33.802Z</time></trkpt><trkpt lat="43.8151058" lon="12.4555361"><ele>486.0</ele><time>2026-05-02T05:45:34.806Z</time></trkpt><trkpt lat="43.815092" lon="12.4553635"><ele>481.75</ele><time>2026-05-02T05:45:35.802Z</time></trkpt><trkpt lat="43.8150776" lon="12.4552047"><ele>477.5</ele><time>2026-05-02T05:45:36.792Z</time></trkpt><trkpt lat="43.8150725" lon="12.4550402"><ele>473.25</ele><time>2026-05-02T05:45:37.816Z</time></trkpt><trkpt lat="43.8150681" lon="12.4548784"><ele>469.0</ele><time>2026-05-02T05:45:38.791Z</time></trkpt><trkpt lat="43.8150558" lon="12.4547193"><ele>467.75</ele><time>2026-05-02T05:45:39.799Z</time></trkpt><trkpt lat="43.8150454" lon="12.4545439"><ele>466.5</ele><time>2026-05-02T05:45:40.781Z</time></trkpt><trkpt lat="43.8150273" lon="12.4543462"><ele>465.25</ele><time>2026-05-02T05:45:41.8Z</time></trkpt><trkpt lat="43.8149933" lon="12.4541316"><ele>464.0</ele><time>2026-05-02T05:45:42.799Z</time></trkpt><trkpt lat="43.814932" lon="12.453944"><ele>464.0</ele><time>2026-05-02T05:45:43.807Z</time></trkpt><trkpt lat="43.8148773" lon="12.4537919"><ele>464.0</ele><time>2026-05-02T05:45:44.789Z</time></trkpt><trkpt lat="43.814802" lon="12.4536618"><ele>464.0</ele><time>2026-05-02T05:45:45.794Z</time></trkpt><trkpt lat="43.8147238" lon="12.4535292"><ele>464.0</ele><time>2026-05-02T05:45:46.775Z</time></trkpt><trkpt lat="43.8146352" lon="12.4533842"><ele>462.5</ele><time>2026-05-02T05:45:47.786Z</time></trkpt><trkpt lat="43.8145271" lon="12.4532555"><ele>461.0</ele><time>2026-05-02T05:45:48.775Z</time></trkpt><trkpt lat="43.8144" lon="12.4531306"><ele>459.5</ele><time>2026-05-02T05:45:49.791Z</time></trkpt><trkpt lat="43.8142711" lon="12.453036"><ele>458.0</ele><time>2026-05-02T05:45:50.788Z</time></trkpt><trkpt lat="43.8141316" lon="12.4529566"><ele>459.25</ele><time>2026-05-02T05:45:51.788Z</time></trkpt><trkpt lat="43.8139897" lon="12.4528821"><ele>460.5</ele><time>2026-05-02T05:45:52.797Z</time></trkpt><trkpt lat="43.8138527" lon="12.4528111"><ele>461.75</ele><time>2026-05-02T05:45:53.792Z</time></trkpt><trkpt lat="43.8137073" lon="12.4527581"><ele>463.0</ele><time>2026-05-02T05:45:54.798Z</time></trkpt><trkpt lat="43.8135647" lon="12.4527214"><ele>460.75</ele><time>2026-05-02T05:45:55.806Z</time></trkpt><trkpt lat="43.8134367" lon="12.4526929"><ele>458.5</ele><time>2026-05-02T05:45:56.803Z</time></trkpt><trkpt lat="43.8133139" lon="12.4526799"><ele>456.25</ele><time>2026-05-02T05:45:57.79Z</time></trkpt><trkpt lat="43.8131816" lon="12.4526651"><ele>454.0</ele><time>2026-05-02T05:45:58.787Z</time></trkpt><trkpt lat="43.813057" lon="12.4526501"><ele>454.0</ele><time>2026-05-02T05:45:59.809Z</time></trkpt><trkpt lat="43.8129357" lon="12.4526102"><ele>454.0</ele><time>2026-05-02T05:46:00.796Z</time></trkpt><trkpt lat="43.8128146" lon="12.4525482"><ele>454.0</ele><time>2026-05-02T05:46:01.804Z</time></trkpt><trkpt lat="43.812689" lon="12.4524713"><ele>454.0</ele><time>2026-05-02T05:46:02.798Z</time></trkpt><trkpt lat="43.8125561" lon="12.4523802"><ele>452.0</ele><time>2026-05-02T05:46:03.819Z</time></trkpt><trkpt lat="43.8124312" lon="12.4522683"><ele>450.0</ele><time>2026-05-02T05:46:04.8Z</time></trkpt><trkpt lat="43.8123065" lon="12.4521437"><ele>448.0</ele><time>2026-05-02T05:46:05.803Z</time></trkpt><trkpt lat="43.8121895" lon="12.4520059"><ele>447.75</ele><time>2026-05-02T05:46:06.804Z</time></trkpt><trkpt lat="43.8120815" lon="12.4518704"><ele>447.5</ele><time>2026-05-02T05:46:07.803Z</time></trkpt><trkpt lat="43.8119811" lon="12.4517418"><ele>447.25</ele><time>2026-05-02T05:46:08.798Z</time></trkpt><trkpt lat="43.8118777" lon="12.4516403"><ele>447.0</ele><time>2026-05-02T05:46:09.811Z</time></trkpt><trkpt lat="43.8117657" lon="12.4515752"><ele>447.0</ele><time>2026-05-02T05:46:10.799Z</time></trkpt><trkpt lat="43.8116388" lon="12.4515564"><ele>447.0</ele><time>2026-05-02T05:46:11.807Z</time></trkpt><trkpt lat="43.8115151" lon="12.4515545"><ele>447.0</ele><time>2026-05-02T05:46:12.8Z</time></trkpt><trkpt lat="43.8114071" lon="12.451532"><ele>447.0</ele><time>2026-05-02T05:46:13.814Z</time></trkpt><trkpt lat="43.8113068" lon="12.4514877"><ele>447.0</ele><time>2026-05-02T05:46:14.804Z</time></trkpt><trkpt lat="43.811217" lon="12.4514067"><ele>447.0</ele><time>2026-05-02T05:46:15.817Z</time></trkpt><trkpt lat="43.8111272" lon="12.4512756"><ele>447.0</ele><time>2026-05-02T05:46:16.805Z</time></trkpt><trkpt lat="43.8110207" lon="12.4511508"><ele>447.0</ele><time>2026-05-02T05:46:17.829Z</time></trkpt><trkpt lat="43.8109203" lon="12.4510561"><ele>444.0</ele><time>2026-05-02T05:46:18.811Z</time></trkpt><trkpt lat="43.8108102" lon="12.4510178"><ele>441.0</ele><time>2026-05-02T05:46:19.812Z</time></trkpt><trkpt lat="43.8106998" lon="12.4510329"><ele>438.0</ele><time>2026-05-02T05:46:20.809Z</time></trkpt><trkpt lat="43.8105774" lon="12.4510862"><ele>435.0</ele><time>2026-05-02T05:46:21.819Z</time></trkpt><trkpt lat="43.8104445" lon="12.4511622"><ele>435.0</ele><time>2026-05-02T05:46:22.807Z</time></trkpt><trkpt lat="43.8103124" lon="12.4512381"><ele>435.0</ele><time>2026-05-02T05:46:23.822Z</time></trkpt><trkpt lat="43.8101943" lon="12.4513046"><ele>435.0</ele><time>2026-05-02T05:46:24.821Z</time></trkpt><trkpt lat="43.8101046" lon="12.4513741"><ele>435.0</ele><time>2026-05-02T05:46:25.818Z</time></trkpt><trkpt lat="43.8100172" lon="12.451453"><ele>435.75</ele><time>2026-05-02T05:46:26.798Z</time></trkpt><trkpt lat="43.8099417" lon="12.4515657"><ele>436.5</ele><time>2026-05-02T05:46:27.814Z</time></trkpt><trkpt lat="43.8098848" lon="12.4517057"><ele>437.25</ele><time>2026-05-02T05:46:28.797Z</time></trkpt><trkpt lat="43.8098395" lon="12.4518715"><ele>438.0</ele><time>2026-05-02T05:46:29.809Z</time></trkpt><trkpt lat="43.8098044" lon="12.4520524"><ele>438.5</ele><time>2026-05-02T05:46:30.806Z</time></trkpt><trkpt lat="43.8097623" lon="12.4522163"><ele>439.0</ele><time>2026-05-02T05:46:31.809Z</time></trkpt><trkpt lat="43.8097345" lon="12.4523919"><ele>439.5</ele><time>2026-05-02T05:46:32.805Z</time></trkpt><trkpt lat="43.8097364" lon="12.452576"><ele>440.0</ele><time>2026-05-02T05:46:33.81Z</time></trkpt><trkpt lat="43.8097682" lon="12.4527819"><ele>437.66666666666663</ele><time>2026-05-02T05:46:34.812Z</time></trkpt><trkpt lat="43.8098052" lon="12.4529877"><ele>435.33333333333337</ele><time>2026-05-02T05:46:35.822Z</time></trkpt><trkpt lat="43.8098299" lon="12.4531906"><ele>433.0</ele><time>2026-05-02T05:46:36.803Z</time></trkpt><trkpt lat="43.8098524" lon="12.4533953"><ele>433.0</ele><time>2026-05-02T05:46:37.804Z</time></trkpt><trkpt lat="43.8098709" lon="12.4535866"><ele>433.0</ele><time>2026-05-02T05:46:38.8Z</time></trkpt><trkpt lat="43.8098888" lon="12.453758"><ele>433.0</ele><time>2026-05-02T05:46:39.804Z</time></trkpt><trkpt lat="43.8098977" lon="12.4539192"><ele>433.0</ele><time>2026-05-02T05:46:40.791Z</time></trkpt><trkpt lat="43.8098898" lon="12.4540648"><ele>429.75</ele><time>2026-05-02T05:46:41.805Z</time></trkpt><trkpt lat="43.809843" lon="12.4541943"><ele>426.5</ele><time>2026-05-02T05:46:42.793Z</time></trkpt><trkpt lat="43.8097698" lon="12.4543154"><ele>423.25</ele><time>2026-05-02T05:46:43.809Z</time></trkpt><trkpt lat="43.809657" lon="12.4544134"><ele>420.0</ele><time>2026-05-02T05:46:44.803Z</time></trkpt><trkpt lat="43.8095252" lon="12.4544975"><ele>420.0</ele><time>2026-05-02T05:46:45.806Z</time></trkpt><trkpt lat="43.8094014" lon="12.4545612"><ele>420.0</ele><time>2026-05-02T05:46:46.819Z</time></trkpt><trkpt lat="43.8092687" lon="12.4545802"><ele>420.0</ele><time>2026-05-02T05:46:47.812Z</time></trkpt><trkpt lat="43.8091497" lon="12.4545909"><ele>420.0</ele><time>2026-05-02T05:46:48.822Z</time></trkpt><trkpt lat="43.8090361" lon="12.454584"><ele>418.25</ele><time>2026-05-02T05:46:49.812Z</time></trkpt><trkpt lat="43.8089173" lon="12.454569"><ele>416.5</ele><time>2026-05-02T05:46:50.796Z</time></trkpt><trkpt lat="43.8087923" lon="12.4545455"><ele>414.75</ele><time>2026-05-02T05:46:51.813Z</time></trkpt><trkpt lat="43.8086606" lon="12.4545103"><ele>413.0</ele><time>2026-05-02T05:46:52.811Z</time></trkpt><trkpt lat="43.8085241" lon="12.4544703"><ele>411.25</ele><time>2026-05-02T05:46:53.819Z</time></trkpt><trkpt lat="43.8083955" lon="12.4544277"><ele>409.5</ele><time>2026-05-02T05:46:54.809Z</time></trkpt><trkpt lat="43.8082725" lon="12.4543736"><ele>407.75</ele><time>2026-05-02T05:46:55.802Z</time></trkpt><trkpt lat="43.8081512" lon="12.4543064"><ele>406.0</ele><time>2026-05-02T05:46:56.802Z</time></trkpt><trkpt lat="43.8080283" lon="12.4542315"><ele>406.0</ele><time>2026-05-02T05:46:57.807Z</time></trkpt><trkpt lat="43.8079007" lon="12.4541463"><ele>406.0</ele><time>2026-05-02T05:46:58.823Z</time></trkpt><trkpt lat="43.8077675" lon="12.4540522"><ele>406.0</ele><time>2026-05-02T05:46:59.808Z</time></trkpt><trkpt lat="43.8076286" lon="12.4539581"><ele>406.0</ele><time>2026-05-02T05:47:00.816Z</time></trkpt><trkpt lat="43.8074918" lon="12.4538635"><ele>402.75</ele><time>2026-05-02T05:47:01.806Z</time></trkpt><trkpt lat="43.8073646" lon="12.4537561"><ele>399.5</ele><time>2026-05-02T05:47:02.809Z</time></trkpt><trkpt lat="43.8072484" lon="12.4536527"><ele>396.25</ele><time>2026-05-02T05:47:03.809Z</time></trkpt><trkpt lat="43.8071411" lon="12.4535505"><ele>393.0</ele><time>2026-05-02T05:47:04.799Z</time></trkpt><trkpt lat="43.8070382" lon="12.4534551"><ele>393.0</ele><time>2026-05-02T05:47:05.812Z</time></trkpt><trkpt lat="43.8069462" lon="12.4533722"><ele>393.0</ele><time>2026-05-02T05:47:06.8Z</time></trkpt><trkpt lat="43.8068641" lon="12.4533116"><ele>393.0</ele><time>2026-05-02T05:47:07.806Z</time></trkpt><trkpt lat="43.8067915" lon="12.4532627"><ele>393.0</ele><time>2026-05-02T05:47:08.796Z</time></trkpt><trkpt lat="43.8067222" lon="12.4532225"><ele>393.0</ele><time>2026-05-02T05:47:09.807Z</time></trkpt><trkpt lat="43.806664" lon="12.4531849"><ele>393.0</ele><time>2026-05-02T05:47:10.801Z</time></trkpt><trkpt lat="43.8066081" lon="12.4531434"><ele>393.59999999999997</ele><time>2026-05-02T05:47:11.795Z</time></trkpt><trkpt lat="43.8065024" lon="12.4530638"><ele>394.2</ele><time>2026-05-02T05:47:13.817Z</time></trkpt><trkpt lat="43.8064278" lon="12.4530247"><ele>394.8</ele><time>2026-05-02T05:47:14.799Z</time></trkpt><trkpt lat="43.8063352" lon="12.4529778"><ele>395.4</ele><time>2026-05-02T05:47:15.812Z</time></trkpt><trkpt lat="43.8062112" lon="12.452919"><ele>396.0</ele><time>2026-05-02T05:47:16.816Z</time></trkpt><trkpt lat="43.8060858" lon="12.4528749"><ele>396.5</ele><time>2026-05-02T05:47:17.802Z</time></trkpt><trkpt lat="43.8059523" lon="12.4528077"><ele>397.0</ele><time>2026-05-02T05:47:18.811Z</time></trkpt><trkpt lat="43.8058249" lon="12.4527393"><ele>397.5</ele><time>2026-05-02T05:47:19.817Z</time></trkpt><trkpt lat="43.805703" lon="12.4526486"><ele>398.0</ele><time>2026-05-02T05:47:20.8Z</time></trkpt><trkpt lat="43.8055989" lon="12.4525361"><ele>398.0</ele><time>2026-05-02T05:47:21.823Z</time></trkpt><trkpt lat="43.8055099" lon="12.4524056"><ele>398.0</ele><time>2026-05-02T05:47:22.788Z</time></trkpt><trkpt lat="43.8054299" lon="12.4523111"><ele>398.0</ele><time>2026-05-02T05:47:23.808Z</time></trkpt><trkpt lat="43.8053556" lon="12.4522501"><ele>398.0</ele><time>2026-05-02T05:47:24.803Z</time></trkpt><trkpt lat="43.8052948" lon="12.4522121"><ele>398.0</ele><time>2026-05-02T05:47:25.812Z</time></trkpt><trkpt lat="43.8052299" lon="12.4522066"><ele>400.66666666666663</ele><time>2026-05-02T05:47:26.818Z</time></trkpt><trkpt lat="43.8051602" lon="12.4522367"><ele>403.3333333333333</ele><time>2026-05-02T05:47:27.81Z</time></trkpt><trkpt lat="43.8050958" lon="12.4522843"><ele>406.0</ele><time>2026-05-02T05:47:28.803Z</time></trkpt><trkpt lat="43.8050517" lon="12.4523612"><ele>408.66666666666663</ele><time>2026-05-02T05:47:29.822Z</time></trkpt><trkpt lat="43.8050119" lon="12.4524435"><ele>411.3333333333333</ele><time>2026-05-02T05:47:30.812Z</time></trkpt><trkpt lat="43.8049675" lon="12.452532"><ele>414.0</ele><time>2026-05-02T05:47:31.804Z</time></trkpt><trkpt lat="43.8049148" lon="12.4526229"><ele>414.0</ele><time>2026-05-02T05:47:32.811Z</time></trkpt><trkpt lat="43.8048626" lon="12.4527158"><ele>414.0</ele><time>2026-05-02T05:47:33.81Z</time></trkpt><trkpt lat="43.8048189" lon="12.4528018"><ele>414.0</ele><time>2026-05-02T05:47:34.805Z</time></trkpt><trkpt lat="43.8047744" lon="12.4528805"><ele>414.0</ele><time>2026-05-02T05:47:35.808Z</time></trkpt><trkpt lat="43.8047394" lon="12.4529538"><ele>414.0</ele><time>2026-05-02T05:47:36.804Z</time></trkpt><trkpt lat="43.8046719" lon="12.4531087"><ele>414.0</ele><time>2026-05-02T05:47:38.805Z</time></trkpt><trkpt lat="43.8046388" lon="12.453192"><ele>415.2</ele><time>2026-05-02T05:47:39.803Z</time></trkpt><trkpt lat="43.8045922" lon="12.4533051"><ele>416.4</ele><time>2026-05-02T05:47:41.804Z</time></trkpt><trkpt lat="43.8045564" lon="12.4534019"><ele>417.6</ele><time>2026-05-02T05:47:43.822Z</time></trkpt><trkpt lat="43.8045309" lon="12.4534968"><ele>418.8</ele><time>2026-05-02T05:48:18.819Z</time></trkpt><trkpt lat="43.8045889" lon="12.4533476"><ele>420.0</ele><time>2026-05-02T05:48:28.805Z</time></trkpt><trkpt lat="43.8046202" lon="12.453223"><ele>420.0</ele><time>2026-05-02T05:48:29.814Z</time></trkpt><trkpt lat="43.804673" lon="12.4530882"><ele>420.0</ele><time>2026-05-02T05:48:30.811Z</time></trkpt><trkpt lat="43.8047458" lon="12.4529389"><ele>420.0</ele><time>2026-05-02T05:48:31.818Z</time></trkpt><trkpt lat="43.8048382" lon="12.4527847"><ele>420.0</ele><time>2026-05-02T05:48:32.807Z</time></trkpt><trkpt lat="43.8049281" lon="12.4526404"><ele>418.8</ele><time>2026-05-02T05:48:33.815Z</time></trkpt><trkpt lat="43.8050095" lon="12.4525127"><ele>417.6</ele><time>2026-05-02T05:48:34.806Z</time></trkpt><trkpt lat="43.805075" lon="12.452405"><ele>416.4</ele><time>2026-05-02T05:48:35.8Z</time></trkpt><trkpt lat="43.8051441" lon="12.4523254"><ele>415.2</ele><time>2026-05-02T05:48:36.813Z</time></trkpt><trkpt lat="43.8052227" lon="12.4522959"><ele>414.0</ele><time>2026-05-02T05:48:37.809Z</time></trkpt><trkpt lat="43.8053133" lon="12.4523165"><ele>410.0</ele><time>2026-05-02T05:48:38.811Z</time></trkpt><trkpt lat="43.8054026" lon="12.4523931"><ele>406.0</ele><time>2026-05-02T05:48:39.812Z</time></trkpt><trkpt lat="43.8054971" lon="12.4525088"><ele>402.0</ele><time>2026-05-02T05:48:40.818Z</time></trkpt><trkpt lat="43.805597" lon="12.4526465"><ele>398.0</ele><time>2026-05-02T05:48:41.808Z</time></trkpt><trkpt lat="43.8057091" lon="12.4527676"><ele>398.0</ele><time>2026-05-02T05:48:42.806Z</time></trkpt><trkpt lat="43.805843" lon="12.452864"><ele>398.0</ele><time>2026-05-02T05:48:43.814Z</time></trkpt><trkpt lat="43.8060043" lon="12.452943"><ele>398.0</ele><time>2026-05-02T05:48:44.809Z</time></trkpt><trkpt lat="43.8061668" lon="12.4530189"><ele>397.5</ele><time>2026-05-02T05:48:45.808Z</time></trkpt><trkpt lat="43.8063218" lon="12.4530918"><ele>397.0</ele><time>2026-05-02T05:48:46.805Z</time></trkpt><trkpt lat="43.8064554" lon="12.4531471"><ele>396.5</ele><time>2026-05-02T05:48:47.802Z</time></trkpt><trkpt lat="43.8065737" lon="12.4531748"><ele>396.0</ele><time>2026-05-02T05:48:48.803Z</time></trkpt><trkpt lat="43.8066771" lon="12.4531723"><ele>396.0</ele><time>2026-05-02T05:48:49.806Z</time></trkpt><trkpt lat="43.8067806" lon="12.4531375"><ele>396.0</ele><time>2026-05-02T05:48:50.803Z</time></trkpt><trkpt lat="43.8068686" lon="12.4530524"><ele>396.0</ele><time>2026-05-02T05:48:51.799Z</time></trkpt><trkpt lat="43.8069325" lon="12.4529364"><ele>396.0</ele><time>2026-05-02T05:48:52.8Z</time></trkpt><trkpt lat="43.8069992" lon="12.452803"><ele>396.0</ele><time>2026-05-02T05:48:53.823Z</time></trkpt><trkpt lat="43.8070662" lon="12.4526701"><ele>394.0</ele><time>2026-05-02T05:48:54.813Z</time></trkpt><trkpt lat="43.8071285" lon="12.4525264"><ele>392.0</ele><time>2026-05-02T05:48:55.829Z</time></trkpt><trkpt lat="43.8071971" lon="12.4523879"><ele>390.0</ele><time>2026-05-02T05:48:56.812Z</time></trkpt><trkpt lat="43.8072685" lon="12.4522426"><ele>388.0</ele><time>2026-05-02T05:48:57.81Z</time></trkpt><trkpt lat="43.8073336" lon="12.45208"><ele>385.75</ele><time>2026-05-02T05:48:58.809Z</time></trkpt><trkpt lat="43.8073949" lon="12.4519106"><ele>383.5</ele><time>2026-05-02T05:48:59.804Z</time></trkpt><trkpt lat="43.8074397" lon="12.451748"><ele>381.25</ele><time>2026-05-02T05:49:00.791Z</time></trkpt><trkpt lat="43.807466" lon="12.4515826"><ele>379.0</ele><time>2026-05-02T05:49:01.822Z</time></trkpt><trkpt lat="43.8074752" lon="12.4514084"><ele>375.75</ele><time>2026-05-02T05:49:02.807Z</time></trkpt><trkpt lat="43.8074823" lon="12.4512284"><ele>372.5</ele><time>2026-05-02T05:49:03.821Z</time></trkpt><trkpt lat="43.8074987" lon="12.4510474"><ele>369.25</ele><time>2026-05-02T05:49:04.803Z</time></trkpt><trkpt lat="43.8075267" lon="12.4508899"><ele>366.0</ele><time>2026-05-02T05:49:05.82Z</time></trkpt><trkpt lat="43.8075646" lon="12.4507401"><ele>366.0</ele><time>2026-05-02T05:49:06.807Z</time></trkpt><trkpt lat="43.8075997" lon="12.4505905"><ele>366.0</ele><time>2026-05-02T05:49:07.812Z</time></trkpt><trkpt lat="43.8076465" lon="12.4504513"><ele>366.0</ele><time>2026-05-02T05:49:08.811Z</time></trkpt><trkpt lat="43.807699" lon="12.4503144"><ele>366.0</ele><time>2026-05-02T05:49:09.812Z</time></trkpt><trkpt lat="43.8077237" lon="12.4501708"><ele>366.0</ele><time>2026-05-02T05:49:10.808Z</time></trkpt><trkpt lat="43.8077269" lon="12.4500195"><ele>366.0</ele><time>2026-05-02T05:49:11.817Z</time></trkpt><trkpt lat="43.8077126" lon="12.4498463"><ele>366.0</ele><time>2026-05-02T05:49:12.801Z</time></trkpt><trkpt lat="43.807673" lon="12.4496514"><ele>366.0</ele><time>2026-05-02T05:49:13.821Z</time></trkpt><trkpt lat="43.8076171" lon="12.4494549"><ele>366.0</ele><time>2026-05-02T05:49:14.794Z</time></trkpt><trkpt lat="43.8075509" lon="12.4492742"><ele>366.0</ele><time>2026-05-02T05:49:15.811Z</time></trkpt><trkpt lat="43.8074753" lon="12.4491105"><ele>366.0</ele><time>2026-05-02T05:49:16.804Z</time></trkpt><trkpt lat="43.807382" lon="12.4489882"><ele>366.0</ele><time>2026-05-02T05:49:17.81Z</time></trkpt><trkpt lat="43.8072606" lon="12.4488873"><ele>366.0</ele><time>2026-05-02T05:49:18.808Z</time></trkpt><trkpt lat="43.8071347" lon="12.4487997"><ele>366.25</ele><time>2026-05-02T05:49:19.806Z</time></trkpt><trkpt lat="43.8070267" lon="12.4486913"><ele>366.5</ele><time>2026-05-02T05:49:20.81Z</time></trkpt><trkpt lat="43.8069263" lon="12.4485434"><ele>366.75</ele><time>2026-05-02T05:49:21.81Z</time></trkpt><trkpt lat="43.8068308" lon="12.4483787"><ele>367.0</ele><time>2026-05-02T05:49:22.801Z</time></trkpt><trkpt lat="43.8067353" lon="12.4482193"><ele>367.0</ele><time>2026-05-02T05:49:23.809Z</time></trkpt><trkpt lat="43.8066471" lon="12.4480622"><ele>367.0</ele><time>2026-05-02T05:49:24.802Z</time></trkpt><trkpt lat="43.8065666" lon="12.4479188"><ele>367.0</ele><time>2026-05-02T05:49:25.803Z</time></trkpt><trkpt lat="43.8064891" lon="12.4477841"><ele>367.0</ele><time>2026-05-02T05:49:26.805Z</time></trkpt><trkpt lat="43.8064202" lon="12.4476348"><ele>370.25</ele><time>2026-05-02T05:49:27.809Z</time></trkpt><trkpt lat="43.8063589" lon="12.4474674"><ele>373.5</ele><time>2026-05-02T05:49:28.795Z</time></trkpt><trkpt lat="43.8062923" lon="12.4472938"><ele>376.75</ele><time>2026-05-02T05:49:29.808Z</time></trkpt><trkpt lat="43.8062227" lon="12.4471177"><ele>380.0</ele><time>2026-05-02T05:49:30.803Z</time></trkpt><trkpt lat="43.8061484" lon="12.4469487"><ele>381.0</ele><time>2026-05-02T05:49:31.8Z</time></trkpt><trkpt lat="43.8060771" lon="12.4467801"><ele>382.0</ele><time>2026-05-02T05:49:32.805Z</time></trkpt><trkpt lat="43.8060069" lon="12.4466133"><ele>383.0</ele><time>2026-05-02T05:49:33.799Z</time></trkpt><trkpt lat="43.8059343" lon="12.4464623"><ele>384.0</ele><time>2026-05-02T05:49:34.806Z</time></trkpt><trkpt lat="43.8058621" lon="12.4463303"><ele>379.4</ele><time>2026-05-02T05:49:35.802Z</time></trkpt><trkpt lat="43.8057971" lon="12.4462055"><ele>374.79999999999995</ele><time>2026-05-02T05:49:36.794Z</time></trkpt><trkpt lat="43.8057461" lon="12.4460928"><ele>370.20000000000005</ele><time>2026-05-02T05:49:37.796Z</time></trkpt><trkpt lat="43.8057025" lon="12.4459833"><ele>365.6</ele><time>2026-05-02T05:49:38.798Z</time></trkpt><trkpt lat="43.8056685" lon="12.4458671"><ele>361.0</ele><time>2026-05-02T05:49:39.808Z</time></trkpt><trkpt lat="43.8056464" lon="12.445751"><ele>361.0</ele><time>2026-05-02T05:49:40.8Z</time></trkpt><trkpt lat="43.805633" lon="12.4456516"><ele>361.0</ele><time>2026-05-02T05:49:41.807Z</time></trkpt><trkpt lat="43.8056159" lon="12.4455123"><ele>361.0</ele><time>2026-05-02T05:49:43.796Z</time></trkpt><trkpt lat="43.8055716" lon="12.4454187"><ele>361.0</ele><time>2026-05-02T05:49:46.799Z</time></trkpt><trkpt lat="43.8054881" lon="12.445439"><ele>361.0</ele><time>2026-05-02T05:49:48.805Z</time></trkpt><trkpt lat="43.8054014" lon="12.4454842"><ele>361.0</ele><time>2026-05-02T05:49:50.797Z</time></trkpt><trkpt lat="43.8053145" lon="12.4454992"><ele>359.8333333333333</ele><time>2026-05-02T05:49:52.79Z</time></trkpt><trkpt lat="43.8052496" lon="12.4454542"><ele>358.66666666666663</ele><time>2026-05-02T05:49:54.795Z</time></trkpt><trkpt lat="43.8051811" lon="12.4453781"><ele>357.5</ele><time>2026-05-02T05:49:57.809Z</time></trkpt><trkpt lat="43.8051183" lon="12.4453244"><ele>356.3333333333333</ele><time>2026-05-02T05:49:59.806Z</time></trkpt><trkpt lat="43.8050221" lon="12.4452907"><ele>355.1666666666667</ele><time>2026-05-02T05:50:01.786Z</time></trkpt><trkpt lat="43.8049221" lon="12.4452963"><ele>354.0</ele><time>2026-05-02T05:50:03.801Z</time></trkpt><trkpt lat="43.8048678" lon="12.4452453"><ele>353.1666666666667</ele><time>2026-05-02T05:50:04.806Z</time></trkpt><trkpt lat="43.8047996" lon="12.4451841"><ele>352.3333333333333</ele><time>2026-05-02T05:50:05.797Z</time></trkpt><trkpt lat="43.804739" lon="12.4451037"><ele>351.5</ele><time>2026-05-02T05:50:06.793Z</time></trkpt><trkpt lat="43.8046842" lon="12.4450362"><ele>350.66666666666663</ele><time>2026-05-02T05:50:07.786Z</time></trkpt><trkpt lat="43.8046069" lon="12.4449776"><ele>349.8333333333333</ele><time>2026-05-02T05:50:09.806Z</time></trkpt><trkpt lat="43.8045711" lon="12.4448666"><ele>349.0</ele><time>2026-05-02T05:50:11.792Z</time></trkpt><trkpt lat="43.8045531" lon="12.4447361"><ele>349.0</ele><time>2026-05-02T05:50:15.806Z</time></trkpt><trkpt lat="43.8045331" lon="12.4446488"><ele>349.0</ele><time>2026-05-02T05:50:18.797Z</time></trkpt><trkpt lat="43.8045525" lon="12.4445506"><ele>349.0</ele><time>2026-05-02T05:50:22.806Z</time></trkpt><trkpt lat="43.8044919" lon="12.4445209"><ele>349.0</ele><time>2026-05-02T05:50:53.8Z</time></trkpt><trkpt lat="43.8044813" lon="12.4446359"><ele>349.0</ele><time>2026-05-02T05:50:57.807Z</time></trkpt><trkpt lat="43.8044678" lon="12.444738"><ele>349.0</ele><time>2026-05-02T05:51:00.817Z</time></trkpt><trkpt lat="43.8044897" lon="12.4448577"><ele>349.0</ele><time>2026-05-02T05:51:03.813Z</time></trkpt><trkpt lat="43.8045088" lon="12.4449436"><ele>349.0</ele><time>2026-05-02T05:51:05.811Z</time></trkpt><trkpt lat="43.804528" lon="12.4450565"><ele>349.0</ele><time>2026-05-02T05:51:07.81Z</time></trkpt><trkpt lat="43.8045727" lon="12.4451631"><ele>349.0</ele><time>2026-05-02T05:51:09.812Z</time></trkpt><trkpt lat="43.8046311" lon="12.4452551"><ele>349.0</ele><time>2026-05-02T05:51:12.802Z</time></trkpt><trkpt lat="43.8047108" lon="12.4453026"><ele>349.0</ele><time>2026-05-02T05:51:15.805Z</time></trkpt><trkpt lat="43.8047901" lon="12.4453093"><ele>349.0</ele><time>2026-05-02T05:51:17.801Z</time></trkpt><trkpt lat="43.8048597" lon="12.4453082"><ele>349.0</ele><time>2026-05-02T05:51:19.807Z</time></trkpt><trkpt lat="43.8049489" lon="12.4452922"><ele>349.0</ele><time>2026-05-02T05:51:21.805Z</time></trkpt><trkpt lat="43.8050432" lon="12.4452968"><ele>349.0</ele><time>2026-05-02T05:51:23.798Z</time></trkpt><trkpt lat="43.8051243" lon="12.4453487"><ele>349.0</ele><time>2026-05-02T05:51:25.807Z</time></trkpt><trkpt lat="43.8052056" lon="12.4454493"><ele>350.0</ele><time>2026-05-02T05:51:27.812Z</time></trkpt><trkpt lat="43.8052847" lon="12.4454944"><ele>351.0</ele><time>2026-05-02T05:51:29.803Z</time></trkpt><trkpt lat="43.8053727" lon="12.4455021"><ele>352.0</ele><time>2026-05-02T05:51:39.81Z</time></trkpt><trkpt lat="43.8054826" lon="12.4454773"><ele>353.0</ele><time>2026-05-02T05:51:41.801Z</time></trkpt><trkpt lat="43.8055625" lon="12.4454741"><ele>354.0</ele><time>2026-05-02T05:51:43.803Z</time></trkpt><trkpt lat="43.8055784" lon="12.4453113"><ele>354.0</ele><time>2026-05-02T05:51:46.807Z</time></trkpt><trkpt lat="43.8055837" lon="12.4452061"><ele>354.0</ele><time>2026-05-02T05:51:47.811Z</time></trkpt><trkpt lat="43.805594" lon="12.4450819"><ele>354.0</ele><time>2026-05-02T05:51:48.796Z</time></trkpt><trkpt lat="43.8056164" lon="12.4449504"><ele>354.0</ele><time>2026-05-02T05:51:49.798Z</time></trkpt><trkpt lat="43.8056627" lon="12.4448148"><ele>354.0</ele><time>2026-05-02T05:51:50.797Z</time></trkpt><trkpt lat="43.8057264" lon="12.4446778"><ele>352.75</ele><time>2026-05-02T05:51:51.797Z</time></trkpt><trkpt lat="43.8058108" lon="12.4445553"><ele>351.5</ele><time>2026-05-02T05:51:52.807Z</time></trkpt><trkpt lat="43.8059137" lon="12.4444422"><ele>350.25</ele><time>2026-05-02T05:51:53.807Z</time></trkpt><trkpt lat="43.8060237" lon="12.44433"><ele>349.0</ele><time>2026-05-02T05:51:54.803Z</time></trkpt><trkpt lat="43.8061305" lon="12.4442157"><ele>349.0</ele><time>2026-05-02T05:51:55.807Z</time></trkpt><trkpt lat="43.8062467" lon="12.4441087"><ele>349.0</ele><time>2026-05-02T05:51:56.808Z</time></trkpt><trkpt lat="43.8063633" lon="12.4439927"><ele>349.0</ele><time>2026-05-02T05:51:57.819Z</time></trkpt><trkpt lat="43.8064806" lon="12.443876"><ele>349.0</ele><time>2026-05-02T05:51:58.812Z</time></trkpt><trkpt lat="43.8065948" lon="12.4437569"><ele>346.0</ele><time>2026-05-02T05:51:59.8Z</time></trkpt><trkpt lat="43.8067096" lon="12.4436544"><ele>343.0</ele><time>2026-05-02T05:52:00.804Z</time></trkpt><trkpt lat="43.8068214" lon="12.4435834"><ele>340.0</ele><time>2026-05-02T05:52:01.811Z</time></trkpt><trkpt lat="43.8069369" lon="12.4435369"><ele>337.0</ele><time>2026-05-02T05:52:02.793Z</time></trkpt><trkpt lat="43.8070618" lon="12.4435048"><ele>337.0</ele><time>2026-05-02T05:52:03.815Z</time></trkpt><trkpt lat="43.8071956" lon="12.4434798"><ele>337.0</ele><time>2026-05-02T05:52:04.806Z</time></trkpt><trkpt lat="43.807337" lon="12.443478"><ele>337.0</ele><time>2026-05-02T05:52:05.811Z</time></trkpt><trkpt lat="43.8074825" lon="12.443477"><ele>337.0</ele><time>2026-05-02T05:52:06.805Z</time></trkpt><trkpt lat="43.8076299" lon="12.4434738"><ele>336.0</ele><time>2026-05-02T05:52:07.808Z</time></trkpt><trkpt lat="43.8077815" lon="12.4434705"><ele>335.0</ele><time>2026-05-02T05:52:08.806Z</time></trkpt><trkpt lat="43.8079345" lon="12.4434616"><ele>334.0</ele><time>2026-05-02T05:52:09.818Z</time></trkpt><trkpt lat="43.8080868" lon="12.4434463"><ele>334.0</ele><time>2026-05-02T05:52:10.819Z</time></trkpt><trkpt lat="43.8082401" lon="12.4434366"><ele>334.0</ele><time>2026-05-02T05:52:11.809Z</time></trkpt><trkpt lat="43.8083934" lon="12.4434328"><ele>334.0</ele><time>2026-05-02T05:52:12.805Z</time></trkpt><trkpt lat="43.8085483" lon="12.4434328"><ele>334.0</ele><time>2026-05-02T05:52:13.832Z</time></trkpt><trkpt lat="43.8087036" lon="12.4434322"><ele>334.0</ele><time>2026-05-02T05:52:14.814Z</time></trkpt><trkpt lat="43.8088536" lon="12.4434296"><ele>334.0</ele><time>2026-05-02T05:52:15.814Z</time></trkpt><trkpt lat="43.8089883" lon="12.4434357"><ele>334.0</ele><time>2026-05-02T05:52:16.796Z</time></trkpt><trkpt lat="43.8091015" lon="12.4434385"><ele>334.0</ele><time>2026-05-02T05:52:17.803Z</time></trkpt><trkpt lat="43.8091914" lon="12.4434232"><ele>334.0</ele><time>2026-05-02T05:52:18.809Z</time></trkpt><trkpt lat="43.809271" lon="12.4433887"><ele>334.0</ele><time>2026-05-02T05:52:19.815Z</time></trkpt><trkpt lat="43.8093501" lon="12.4432917"><ele>334.0</ele><time>2026-05-02T05:52:21.796Z</time></trkpt><trkpt lat="43.8093962" lon="12.4432212"><ele>334.0</ele><time>2026-05-02T05:52:25.802Z</time></trkpt><trkpt lat="43.8094313" lon="12.4431471"><ele>334.0</ele><time>2026-05-02T05:52:27.809Z</time></trkpt><trkpt lat="43.8095151" lon="12.443024"><ele>333.6</ele><time>2026-05-02T05:52:29.814Z</time></trkpt><trkpt lat="43.8095885" lon="12.4429611"><ele>333.2</ele><time>2026-05-02T05:52:30.803Z</time></trkpt><trkpt lat="43.809662" lon="12.4428941"><ele>332.8</ele><time>2026-05-02T05:52:31.813Z</time></trkpt><trkpt lat="43.8097285" lon="12.4428097"><ele>332.40000000000003</ele><time>2026-05-02T05:52:32.811Z</time></trkpt><trkpt lat="43.8098" lon="12.4427326"><ele>332.0</ele><time>2026-05-02T05:52:33.811Z</time></trkpt><trkpt lat="43.8098754" lon="12.4426431"><ele>332.0</ele><time>2026-05-02T05:52:34.801Z</time></trkpt><trkpt lat="43.8099476" lon="12.4425575"><ele>332.0</ele><time>2026-05-02T05:52:35.819Z</time></trkpt><trkpt lat="43.8100142" lon="12.4424712"><ele>332.0</ele><time>2026-05-02T05:52:36.793Z</time></trkpt><trkpt lat="43.8100705" lon="12.4423766"><ele>332.0</ele><time>2026-05-02T05:52:37.805Z</time></trkpt><trkpt lat="43.810115" lon="12.4422686"><ele>332.0</ele><time>2026-05-02T05:52:38.797Z</time></trkpt><trkpt lat="43.8101344" lon="12.442136"><ele>335.20000000000005</ele><time>2026-05-02T05:52:39.801Z</time></trkpt><trkpt lat="43.8101318" lon="12.4419935"><ele>338.4</ele><time>2026-05-02T05:52:40.802Z</time></trkpt><trkpt lat="43.8101264" lon="12.4418449"><ele>341.6</ele><time>2026-05-02T05:52:41.817Z</time></trkpt><trkpt lat="43.8101218" lon="12.4416885"><ele>344.79999999999995</ele><time>2026-05-02T05:52:42.791Z</time></trkpt><trkpt lat="43.8101268" lon="12.4415248"><ele>348.0</ele><time>2026-05-02T05:52:43.809Z</time></trkpt><trkpt lat="43.8101324" lon="12.4413609"><ele>349.75</ele><time>2026-05-02T05:52:44.794Z</time></trkpt><trkpt lat="43.8101367" lon="12.441202"><ele>351.5</ele><time>2026-05-02T05:52:45.799Z</time></trkpt><trkpt lat="43.810134" lon="12.4410496"><ele>353.25</ele><time>2026-05-02T05:52:46.801Z</time></trkpt><trkpt lat="43.8101312" lon="12.4408936"><ele>355.0</ele><time>2026-05-02T05:52:47.79Z</time></trkpt><trkpt lat="43.8101339" lon="12.4407381"><ele>355.0</ele><time>2026-05-02T05:52:48.799Z</time></trkpt><trkpt lat="43.8101313" lon="12.4405813"><ele>355.0</ele><time>2026-05-02T05:52:49.806Z</time></trkpt><trkpt lat="43.8101359" lon="12.4404105"><ele>355.0</ele><time>2026-05-02T05:52:50.809Z</time></trkpt><trkpt lat="43.8101317" lon="12.4402412"><ele>355.0</ele><time>2026-05-02T05:52:51.806Z</time></trkpt><trkpt lat="43.8101309" lon="12.4400707"><ele>354.6</ele><time>2026-05-02T05:52:52.804Z</time></trkpt><trkpt lat="43.8101337" lon="12.4399103"><ele>354.2</ele><time>2026-05-02T05:52:53.804Z</time></trkpt><trkpt lat="43.8101504" lon="12.4397639"><ele>353.79999999999995</ele><time>2026-05-02T05:52:54.803Z</time></trkpt><trkpt lat="43.8101678" lon="12.4396579"><ele>353.4</ele><time>2026-05-02T05:52:55.821Z</time></trkpt><trkpt lat="43.8102351" lon="12.4395785"><ele>353.0</ele><time>2026-05-02T05:52:56.783Z</time></trkpt><trkpt lat="43.8103218" lon="12.4395041"><ele>357.0</ele><time>2026-05-02T05:52:57.81Z</time></trkpt><trkpt lat="43.8104071" lon="12.4394225"><ele>361.0</ele><time>2026-05-02T05:52:58.797Z</time></trkpt><trkpt lat="43.8104928" lon="12.4393102"><ele>365.0</ele><time>2026-05-02T05:52:59.825Z</time></trkpt><trkpt lat="43.8105771" lon="12.4391933"><ele>369.0</ele><time>2026-05-02T05:53:00.799Z</time></trkpt><trkpt lat="43.8106574" lon="12.4390614"><ele>369.0</ele><time>2026-05-02T05:53:01.815Z</time></trkpt><trkpt lat="43.8107086" lon="12.4389192"><ele>369.0</ele><time>2026-05-02T05:53:02.813Z</time></trkpt><trkpt lat="43.8107643" lon="12.4387512"><ele>369.0</ele><time>2026-05-02T05:53:03.806Z</time></trkpt><trkpt lat="43.8108263" lon="12.4386083"><ele>369.0</ele><time>2026-05-02T05:53:04.798Z</time></trkpt><trkpt lat="43.8109054" lon="12.4384758"><ele>372.0</ele><time>2026-05-02T05:53:05.81Z</time></trkpt><trkpt lat="43.8110081" lon="12.4383527"><ele>375.0</ele><time>2026-05-02T05:53:06.807Z</time></trkpt><trkpt lat="43.8111063" lon="12.4382291"><ele>378.0</ele><time>2026-05-02T05:53:07.79Z</time></trkpt><trkpt lat="43.8111988" lon="12.4380901"><ele>381.0</ele><time>2026-05-02T05:53:08.807Z</time></trkpt><trkpt lat="43.8112956" lon="12.437947"><ele>381.0</ele><time>2026-05-02T05:53:09.802Z</time></trkpt><trkpt lat="43.8113885" lon="12.437815"><ele>381.0</ele><time>2026-05-02T05:53:10.802Z</time></trkpt><trkpt lat="43.8114867" lon="12.4376883"><ele>381.0</ele><time>2026-05-02T05:53:11.822Z</time></trkpt><trkpt lat="43.8115804" lon="12.4375721"><ele>381.0</ele><time>2026-05-02T05:53:12.801Z</time></trkpt><trkpt lat="43.8116672" lon="12.4374429"><ele>381.0</ele><time>2026-05-02T05:53:13.812Z</time></trkpt><trkpt lat="43.8117314" lon="12.4373117"><ele>381.0</ele><time>2026-05-02T05:53:14.798Z</time></trkpt><trkpt lat="43.8117918" lon="12.4371517"><ele>381.0</ele><time>2026-05-02T05:53:15.805Z</time></trkpt><trkpt lat="43.8118467" lon="12.4369642"><ele>381.0</ele><time>2026-05-02T05:53:16.808Z</time></trkpt><trkpt lat="43.8118925" lon="12.436774"><ele>383.20000000000005</ele><time>2026-05-02T05:53:17.827Z</time></trkpt><trkpt lat="43.8119439" lon="12.4366009"><ele>385.40000000000003</ele><time>2026-05-02T05:53:18.815Z</time></trkpt><trkpt lat="43.8120019" lon="12.4364683"><ele>387.6</ele><time>2026-05-02T05:53:19.811Z</time></trkpt><trkpt lat="43.8120735" lon="12.4363788"><ele>389.8</ele><time>2026-05-02T05:53:20.81Z</time></trkpt><trkpt lat="43.8121619" lon="12.4363556"><ele>392.0</ele><time>2026-05-02T05:53:21.819Z</time></trkpt><trkpt lat="43.8122666" lon="12.4363595"><ele>392.0</ele><time>2026-05-02T05:53:22.806Z</time></trkpt><trkpt lat="43.8123876" lon="12.4363761"><ele>392.0</ele><time>2026-05-02T05:53:23.805Z</time></trkpt><trkpt lat="43.8125106" lon="12.4364168"><ele>392.0</ele><time>2026-05-02T05:53:24.816Z</time></trkpt><trkpt lat="43.8126326" lon="12.4364927"><ele>392.0</ele><time>2026-05-02T05:53:25.793Z</time></trkpt><trkpt lat="43.8127533" lon="12.4366"><ele>399.66666666666663</ele><time>2026-05-02T05:53:26.803Z</time></trkpt><trkpt lat="43.8128887" lon="12.4367223"><ele>407.33333333333337</ele><time>2026-05-02T05:53:27.812Z</time></trkpt><trkpt lat="43.8130319" lon="12.4368473"><ele>415.0</ele><time>2026-05-02T05:53:28.797Z</time></trkpt><trkpt lat="43.8131807" lon="12.4369769"><ele>415.0</ele><time>2026-05-02T05:53:29.802Z</time></trkpt><trkpt lat="43.8133119" lon="12.4371067"><ele>415.0</ele><time>2026-05-02T05:53:30.796Z</time></trkpt><trkpt lat="43.8134244" lon="12.437208"><ele>415.0</ele><time>2026-05-02T05:53:31.802Z</time></trkpt><trkpt lat="43.8135207" lon="12.4372717"><ele>415.0</ele><time>2026-05-02T05:53:32.806Z</time></trkpt><trkpt lat="43.8135991" lon="12.4372801"><ele>416.0</ele><time>2026-05-02T05:53:33.798Z</time></trkpt><trkpt lat="43.8136797" lon="12.4372482"><ele>417.0</ele><time>2026-05-02T05:53:34.814Z</time></trkpt><trkpt lat="43.8137659" lon="12.4371662"><ele>418.0</ele><time>2026-05-02T05:53:35.804Z</time></trkpt><trkpt lat="43.8138553" lon="12.4370823"><ele>419.0</ele><time>2026-05-02T05:53:36.799Z</time></trkpt><trkpt lat="43.8139387" lon="12.4369705"><ele>420.0</ele><time>2026-05-02T05:53:37.803Z</time></trkpt><trkpt lat="43.8140216" lon="12.436829"><ele>420.0</ele><time>2026-05-02T05:53:38.807Z</time></trkpt><trkpt lat="43.8141079" lon="12.4366823"><ele>420.0</ele><time>2026-05-02T05:53:39.809Z</time></trkpt><trkpt lat="43.8141886" lon="12.4365215"><ele>420.0</ele><time>2026-05-02T05:53:40.802Z</time></trkpt><trkpt lat="43.814277" lon="12.4363873"><ele>420.0</ele><time>2026-05-02T05:53:41.801Z</time></trkpt><trkpt lat="43.8143634" lon="12.4362648"><ele>421.4</ele><time>2026-05-02T05:53:42.797Z</time></trkpt><trkpt lat="43.8144419" lon="12.4361525"><ele>422.8</ele><time>2026-05-02T05:53:43.794Z</time></trkpt><trkpt lat="43.8145003" lon="12.4360613"><ele>424.20000000000005</ele><time>2026-05-02T05:53:44.798Z</time></trkpt><trkpt lat="43.8145422" lon="12.4359569"><ele>425.6</ele><time>2026-05-02T05:53:45.803Z</time></trkpt><trkpt lat="43.8145836" lon="12.4358515"><ele>427.0</ele><time>2026-05-02T05:53:46.801Z</time></trkpt><trkpt lat="43.8146157" lon="12.4357514"><ele>427.0</ele><time>2026-05-02T05:53:47.81Z</time></trkpt><trkpt lat="43.8146456" lon="12.4356473"><ele>427.00000000000006</ele><time>2026-05-02T05:53:48.813Z</time></trkpt><trkpt lat="43.8146564" lon="12.4355277"><ele>427.00000000000006</ele><time>2026-05-02T05:53:49.811Z</time></trkpt><trkpt lat="43.8146475" lon="12.4353992"><ele>427.0</ele><time>2026-05-02T05:53:50.803Z</time></trkpt><trkpt lat="43.8146229" lon="12.4352632"><ele>427.0</ele><time>2026-05-02T05:53:51.817Z</time></trkpt><trkpt lat="43.8145943" lon="12.4351294"><ele>428.75</ele><time>2026-05-02T05:53:52.802Z</time></trkpt><trkpt lat="43.8145518" lon="12.4349849"><ele>430.5</ele><time>2026-05-02T05:53:53.814Z</time></trkpt><trkpt lat="43.8145043" lon="12.4348378"><ele>432.25</ele><time>2026-05-02T05:53:54.799Z</time></trkpt><trkpt lat="43.8144509" lon="12.4346906"><ele>434.0</ele><time>2026-05-02T05:53:55.805Z</time></trkpt><trkpt lat="43.8143984" lon="12.4345487"><ele>435.4</ele><time>2026-05-02T05:53:56.805Z</time></trkpt><trkpt lat="43.8143461" lon="12.4344089"><ele>436.79999999999995</ele><time>2026-05-02T05:53:57.822Z</time></trkpt><trkpt lat="43.8142949" lon="12.4342732"><ele>438.20000000000005</ele><time>2026-05-02T05:53:58.808Z</time></trkpt><trkpt lat="43.8142484" lon="12.4341359"><ele>439.6</ele><time>2026-05-02T05:53:59.814Z</time></trkpt><trkpt lat="43.8142183" lon="12.434003"><ele>441.0</ele><time>2026-05-02T05:54:00.807Z</time></trkpt><trkpt lat="43.8142084" lon="12.4338712"><ele>443.8</ele><time>2026-05-02T05:54:01.813Z</time></trkpt><trkpt lat="43.8142244" lon="12.4337463"><ele>446.6</ele><time>2026-05-02T05:54:02.807Z</time></trkpt><trkpt lat="43.814266" lon="12.433622"><ele>449.4</ele><time>2026-05-02T05:54:03.81Z</time></trkpt><trkpt lat="43.8143195" lon="12.4334982"><ele>452.2</ele><time>2026-05-02T05:54:04.795Z</time></trkpt><trkpt lat="43.8143865" lon="12.4333663"><ele>455.0</ele><time>2026-05-02T05:54:05.822Z</time></trkpt><trkpt lat="43.8144578" lon="12.4332341"><ele>455.0</ele><time>2026-05-02T05:54:06.807Z</time></trkpt><trkpt lat="43.8145352" lon="12.4331001"><ele>455.0</ele><time>2026-05-02T05:54:07.828Z</time></trkpt><trkpt lat="43.8146097" lon="12.4329656"><ele>455.0</ele><time>2026-05-02T05:54:08.811Z</time></trkpt><trkpt lat="43.8146797" lon="12.4328445"><ele>455.0</ele><time>2026-05-02T05:54:09.817Z</time></trkpt><trkpt lat="43.8147243" lon="12.4327411"><ele>455.0</ele><time>2026-05-02T05:54:10.805Z</time></trkpt><trkpt lat="43.8147358" lon="12.4326369"><ele>458.0</ele><time>2026-05-02T05:54:11.811Z</time></trkpt><trkpt lat="43.8147128" lon="12.4325441"><ele>461.0</ele><time>2026-05-02T05:54:12.798Z</time></trkpt><trkpt lat="43.8146642" lon="12.4324793"><ele>464.0</ele><time>2026-05-02T05:54:13.824Z</time></trkpt><trkpt lat="43.8146011" lon="12.432433"><ele>467.0</ele><time>2026-05-02T05:54:14.805Z</time></trkpt><trkpt lat="43.8145331" lon="12.4323782"><ele>470.0</ele><time>2026-05-02T05:54:15.81Z</time></trkpt><trkpt lat="43.8144777" lon="12.4323011"><ele>473.0</ele><time>2026-05-02T05:54:16.805Z</time></trkpt><trkpt lat="43.8144565" lon="12.4322113"><ele>476.0</ele><time>2026-05-02T05:54:17.821Z</time></trkpt><trkpt lat="43.8145129" lon="12.4320479"><ele>479.16666666666663</ele><time>2026-05-02T05:54:19.808Z</time></trkpt><trkpt lat="43.8145612" lon="12.4319544"><ele>482.3333333333333</ele><time>2026-05-02T05:54:20.804Z</time></trkpt><trkpt lat="43.8145959" lon="12.4318308"><ele>485.5</ele><time>2026-05-02T05:54:21.808Z</time></trkpt><trkpt lat="43.8146147" lon="12.4317041"><ele>488.66666666666663</ele><time>2026-05-02T05:54:22.8Z</time></trkpt><trkpt lat="43.8146053" lon="12.4315797"><ele>491.8333333333333</ele><time>2026-05-02T05:54:23.817Z</time></trkpt><trkpt lat="43.8145818" lon="12.4314714"><ele>495.0</ele><time>2026-05-02T05:54:24.804Z</time></trkpt><trkpt lat="43.8145348" lon="12.4313841"><ele>495.0</ele><time>2026-05-02T05:54:25.805Z</time></trkpt><trkpt lat="43.8144764" lon="12.4313137"><ele>495.0</ele><time>2026-05-02T05:54:26.798Z</time></trkpt><trkpt lat="43.814415" lon="12.4312491"><ele>495.0</ele><time>2026-05-02T05:54:27.806Z</time></trkpt><trkpt lat="43.8143494" lon="12.4311879"><ele>495.0</ele><time>2026-05-02T05:54:28.806Z</time></trkpt><trkpt lat="43.8142948" lon="12.4311254"><ele>495.0</ele><time>2026-05-02T05:54:29.805Z</time></trkpt><trkpt lat="43.8142542" lon="12.4310454"><ele>495.0</ele><time>2026-05-02T05:54:30.8Z</time></trkpt><trkpt lat="43.8142495" lon="12.430899"><ele>497.6</ele><time>2026-05-02T05:54:32.802Z</time></trkpt><trkpt lat="43.8143735" lon="12.4308677"><ele>500.2</ele><time>2026-05-02T05:54:34.799Z</time></trkpt><trkpt lat="43.8144427" lon="12.4308869"><ele>502.79999999999995</ele><time>2026-05-02T05:54:35.82Z</time></trkpt><trkpt lat="43.8145228" lon="12.4309141"><ele>505.4</ele><time>2026-05-02T05:54:36.814Z</time></trkpt><trkpt lat="43.8146107" lon="12.4309362"><ele>508.0</ele><time>2026-05-02T05:54:37.82Z</time></trkpt><trkpt lat="43.8146946" lon="12.4309341"><ele>508.0</ele><time>2026-05-02T05:54:38.817Z</time></trkpt><trkpt lat="43.81478" lon="12.4309042"><ele>507.99999999999994</ele><time>2026-05-02T05:54:39.808Z</time></trkpt><trkpt lat="43.8148649" lon="12.4308387"><ele>507.99999999999994</ele><time>2026-05-02T05:54:40.81Z</time></trkpt><trkpt lat="43.8149487" lon="12.4307626"><ele>508.0</ele><time>2026-05-02T05:54:41.819Z</time></trkpt><trkpt lat="43.8150333" lon="12.4306924"><ele>508.0</ele><time>2026-05-02T05:54:42.814Z</time></trkpt><trkpt lat="43.8151223" lon="12.4306329"><ele>509.79999999999995</ele><time>2026-05-02T05:54:43.817Z</time></trkpt><trkpt lat="43.8152213" lon="12.4306093"><ele>511.59999999999997</ele><time>2026-05-02T05:54:44.813Z</time></trkpt><trkpt lat="43.8153251" lon="12.4306204"><ele>513.4000000000001</ele><time>2026-05-02T05:54:45.809Z</time></trkpt><trkpt lat="43.8154268" lon="12.4306519"><ele>515.2</ele><time>2026-05-02T05:54:46.81Z</time></trkpt><trkpt lat="43.8155216" lon="12.4306828"><ele>517.0</ele><time>2026-05-02T05:54:47.826Z</time></trkpt><trkpt lat="43.8156158" lon="12.4306895"><ele>517.0</ele><time>2026-05-02T05:54:48.809Z</time></trkpt><trkpt lat="43.8157144" lon="12.4306643"><ele>517.0</ele><time>2026-05-02T05:54:49.814Z</time></trkpt><trkpt lat="43.8158025" lon="12.4306046"><ele>517.0</ele><time>2026-05-02T05:54:50.807Z</time></trkpt><trkpt lat="43.8158665" lon="12.4305175"><ele>517.0</ele><time>2026-05-02T05:54:51.819Z</time></trkpt><trkpt lat="43.8159262" lon="12.4304082"><ele>517.0</ele><time>2026-05-02T05:54:52.806Z</time></trkpt><trkpt lat="43.815983" lon="12.4302872"><ele>519.0</ele><time>2026-05-02T05:54:53.836Z</time></trkpt><trkpt lat="43.8160416" lon="12.4301646"><ele>521.0</ele><time>2026-05-02T05:54:54.816Z</time></trkpt><trkpt lat="43.8161094" lon="12.430043"><ele>523.0</ele><time>2026-05-02T05:54:55.819Z</time></trkpt><trkpt lat="43.8161858" lon="12.4299344"><ele>525.0</ele><time>2026-05-02T05:54:56.806Z</time></trkpt><trkpt lat="43.8162762" lon="12.4298428"><ele>527.0</ele><time>2026-05-02T05:54:57.807Z</time></trkpt><trkpt lat="43.8163763" lon="12.4297562"><ele>527.0</ele><time>2026-05-02T05:54:58.809Z</time></trkpt><trkpt lat="43.816488" lon="12.4296639"><ele>527.0</ele><time>2026-05-02T05:54:59.81Z</time></trkpt><trkpt lat="43.8165983" lon="12.4295835"><ele>527.0</ele><time>2026-05-02T05:55:00.804Z</time></trkpt><trkpt lat="43.8167055" lon="12.4294967"><ele>527.0</ele><time>2026-05-02T05:55:01.813Z</time></trkpt><trkpt lat="43.8167981" lon="12.4293893"><ele>529.75</ele><time>2026-05-02T05:55:02.815Z</time></trkpt><trkpt lat="43.8168882" lon="12.4292636"><ele>532.5</ele><time>2026-05-02T05:55:03.823Z</time></trkpt><trkpt lat="43.8169784" lon="12.4291414"><ele>535.25</ele><time>2026-05-02T05:55:04.798Z</time></trkpt><trkpt lat="43.8170717" lon="12.4290251"><ele>538.0</ele><time>2026-05-02T05:55:05.827Z</time></trkpt><trkpt lat="43.8171633" lon="12.4289169"><ele>538.0</ele><time>2026-05-02T05:55:06.81Z</time></trkpt><trkpt lat="43.8172323" lon="12.4287904"><ele>538.0</ele><time>2026-05-02T05:55:07.821Z</time></trkpt><trkpt lat="43.8172762" lon="12.4286463"><ele>538.0</ele><time>2026-05-02T05:55:08.799Z</time></trkpt><trkpt lat="43.8172921" lon="12.4284828"><ele>538.0</ele><time>2026-05-02T05:55:09.829Z</time></trkpt><trkpt lat="43.8172889" lon="12.4283145"><ele>538.0</ele><time>2026-05-02T05:55:10.82Z</time></trkpt><trkpt lat="43.8172561" lon="12.4281449"><ele>538.0</ele><time>2026-05-02T05:55:11.813Z</time></trkpt><trkpt lat="43.8172127" lon="12.4279721"><ele>538.0</ele><time>2026-05-02T05:55:12.806Z</time></trkpt><trkpt lat="43.8171566" lon="12.4278038"><ele>538.0</ele><time>2026-05-02T05:55:13.818Z</time></trkpt><trkpt lat="43.8170968" lon="12.4276359"><ele>540.0</ele><time>2026-05-02T05:55:14.814Z</time></trkpt><trkpt lat="43.8170429" lon="12.4274646"><ele>542.0</ele><time>2026-05-02T05:55:15.817Z</time></trkpt><trkpt lat="43.8169973" lon="12.4273022"><ele>544.0</ele><time>2026-05-02T05:55:16.805Z</time></trkpt><trkpt lat="43.8169649" lon="12.4271482"><ele>546.0</ele><time>2026-05-02T05:55:17.815Z</time></trkpt><trkpt lat="43.8169604" lon="12.427002"><ele>547.0</ele><time>2026-05-02T05:55:18.799Z</time></trkpt><trkpt lat="43.8169824" lon="12.4268598"><ele>548.0</ele><time>2026-05-02T05:55:19.814Z</time></trkpt><trkpt lat="43.8170313" lon="12.426747"><ele>549.0</ele><time>2026-05-02T05:55:20.8Z</time></trkpt><trkpt lat="43.8170996" lon="12.4266776"><ele>550.0</ele><time>2026-05-02T05:55:21.81Z</time></trkpt><trkpt lat="43.8171837" lon="12.4266467"><ele>551.0</ele><time>2026-05-02T05:55:22.813Z</time></trkpt><trkpt lat="43.8172711" lon="12.4266372"><ele>551.0</ele><time>2026-05-02T05:55:23.822Z</time></trkpt><trkpt lat="43.817362" lon="12.4266643"><ele>551.0</ele><time>2026-05-02T05:55:24.798Z</time></trkpt><trkpt lat="43.817461" lon="12.42671"><ele>551.0</ele><time>2026-05-02T05:55:25.813Z</time></trkpt><trkpt lat="43.8175575" lon="12.4267743"><ele>551.0</ele><time>2026-05-02T05:55:26.806Z</time></trkpt><trkpt lat="43.8176559" lon="12.4268347"><ele>551.0</ele><time>2026-05-02T05:55:27.816Z</time></trkpt><trkpt lat="43.8177591" lon="12.4268728"><ele>552.25</ele><time>2026-05-02T05:55:28.811Z</time></trkpt><trkpt lat="43.8178711" lon="12.4268894"><ele>553.5</ele><time>2026-05-02T05:55:29.805Z</time></trkpt><trkpt lat="43.8179881" lon="12.426872"><ele>554.75</ele><time>2026-05-02T05:55:30.809Z</time></trkpt><trkpt lat="43.818104" lon="12.4268389"><ele>556.0</ele><time>2026-05-02T05:55:31.829Z</time></trkpt><trkpt lat="43.8182213" lon="12.4268031"><ele>556.0</ele><time>2026-05-02T05:55:32.8Z</time></trkpt><trkpt lat="43.8183418" lon="12.4267616"><ele>556.0</ele><time>2026-05-02T05:55:33.818Z</time></trkpt><trkpt lat="43.8184676" lon="12.4267229"><ele>556.0</ele><time>2026-05-02T05:55:34.8Z</time></trkpt><trkpt lat="43.8185947" lon="12.4266833"><ele>556.0</ele><time>2026-05-02T05:55:35.805Z</time></trkpt><trkpt lat="43.8187257" lon="12.4266488"><ele>557.5</ele><time>2026-05-02T05:55:36.817Z</time></trkpt><trkpt lat="43.8188533" lon="12.4266135"><ele>559.0</ele><time>2026-05-02T05:55:37.817Z</time></trkpt><trkpt lat="43.8189805" lon="12.4265809"><ele>560.5</ele><time>2026-05-02T05:55:38.824Z</time></trkpt><trkpt lat="43.8191065" lon="12.4265509"><ele>562.0</ele><time>2026-05-02T05:55:39.824Z</time></trkpt><trkpt lat="43.8192294" lon="12.4265216"><ele>561.5</ele><time>2026-05-02T05:55:40.811Z</time></trkpt><trkpt lat="43.8193506" lon="12.4264859"><ele>561.0</ele><time>2026-05-02T05:55:41.828Z</time></trkpt><trkpt lat="43.8194683" lon="12.4264424"><ele>560.5</ele><time>2026-05-02T05:55:42.805Z</time></trkpt><trkpt lat="43.819584" lon="12.4263794"><ele>560.0</ele><time>2026-05-02T05:55:43.822Z</time></trkpt><trkpt lat="43.8196972" lon="12.4263053"><ele>562.75</ele><time>2026-05-02T05:55:44.818Z</time></trkpt><trkpt lat="43.8198148" lon="12.4262269"><ele>565.5</ele><time>2026-05-02T05:55:45.802Z</time></trkpt><trkpt lat="43.8199362" lon="12.4261435"><ele>568.25</ele><time>2026-05-02T05:55:46.813Z</time></trkpt><trkpt lat="43.8200463" lon="12.4260379"><ele>571.0</ele><time>2026-05-02T05:55:47.814Z</time></trkpt><trkpt lat="43.8201421" lon="12.4259071"><ele>572.25</ele><time>2026-05-02T05:55:48.816Z</time></trkpt><trkpt lat="43.8202201" lon="12.4257577"><ele>573.5</ele><time>2026-05-02T05:55:49.816Z</time></trkpt><trkpt lat="43.8202789" lon="12.4255861"><ele>574.75</ele><time>2026-05-02T05:55:50.809Z</time></trkpt><trkpt lat="43.8203371" lon="12.4254101"><ele>576.0</ele><time>2026-05-02T05:55:51.808Z</time></trkpt><trkpt lat="43.820378" lon="12.4252241"><ele>579.5</ele><time>2026-05-02T05:55:52.809Z</time></trkpt><trkpt lat="43.8203969" lon="12.4250488"><ele>583.0</ele><time>2026-05-02T05:55:53.805Z</time></trkpt><trkpt lat="43.8203888" lon="12.4248624"><ele>586.5</ele><time>2026-05-02T05:55:54.812Z</time></trkpt><trkpt lat="43.8203639" lon="12.4246673"><ele>590.0</ele><time>2026-05-02T05:55:55.809Z</time></trkpt><trkpt lat="43.8203316" lon="12.4244791"><ele>592.0</ele><time>2026-05-02T05:55:56.799Z</time></trkpt><trkpt lat="43.820303" lon="12.4243237"><ele>594.0</ele><time>2026-05-02T05:55:57.827Z</time></trkpt><trkpt lat="43.8202766" lon="12.4241945"><ele>596.0</ele><time>2026-05-02T05:55:58.808Z</time></trkpt><trkpt lat="43.8202574" lon="12.4240785"><ele>598.0</ele><time>2026-05-02T05:55:59.817Z</time></trkpt><trkpt lat="43.8202501" lon="12.4239625"><ele>600.0</ele><time>2026-05-02T05:56:00.806Z</time></trkpt><trkpt lat="43.8202547" lon="12.4238451"><ele>601.4</ele><time>2026-05-02T05:56:01.815Z</time></trkpt><trkpt lat="43.8202707" lon="12.4237189"><ele>602.8</ele><time>2026-05-02T05:56:02.799Z</time></trkpt><trkpt lat="43.8202902" lon="12.4235875"><ele>604.2</ele><time>2026-05-02T05:56:03.804Z</time></trkpt><trkpt lat="43.820315" lon="12.4234565"><ele>605.6</ele><time>2026-05-02T05:56:04.805Z</time></trkpt><trkpt lat="43.8203424" lon="12.4233186"><ele>607.0</ele><time>2026-05-02T05:56:05.82Z</time></trkpt><trkpt lat="43.8203669" lon="12.4231706"><ele>607.0</ele><time>2026-05-02T05:56:06.801Z</time></trkpt><trkpt lat="43.8203829" lon="12.4230292"><ele>607.0</ele><time>2026-05-02T05:56:07.803Z</time></trkpt><trkpt lat="43.8203799" lon="12.4228981"><ele>607.0</ele><time>2026-05-02T05:56:08.805Z</time></trkpt><trkpt lat="43.8203579" lon="12.4227734"><ele>607.0</ele><time>2026-05-02T05:56:09.818Z</time></trkpt><trkpt lat="43.8203302" lon="12.4226525"><ele>607.0</ele><time>2026-05-02T05:56:10.8Z</time></trkpt><trkpt lat="43.8203118" lon="12.4225324"><ele>607.0</ele><time>2026-05-02T05:56:11.803Z</time></trkpt><trkpt lat="43.8203299" lon="12.422432"><ele>607.0</ele><time>2026-05-02T05:56:12.805Z</time></trkpt><trkpt lat="43.820376" lon="12.4223713"><ele>607.0</ele><time>2026-05-02T05:56:13.807Z</time></trkpt><trkpt lat="43.8204413" lon="12.4223295"><ele>607.0</ele><time>2026-05-02T05:56:14.805Z</time></trkpt><trkpt lat="43.8205138" lon="12.4223338"><ele>607.0</ele><time>2026-05-02T05:56:15.806Z</time></trkpt><trkpt lat="43.8205858" lon="12.4223951"><ele>607.0</ele><time>2026-05-02T05:56:16.8Z</time></trkpt><trkpt lat="43.8206659" lon="12.4224959"><ele>607.0</ele><time>2026-05-02T05:56:17.821Z</time></trkpt><trkpt lat="43.8207323" lon="12.4226073"><ele>607.0</ele><time>2026-05-02T05:56:18.8Z</time></trkpt><trkpt lat="43.8207984" lon="12.4227351"><ele>607.0</ele><time>2026-05-02T05:56:19.812Z</time></trkpt><trkpt lat="43.8208677" lon="12.4228733"><ele>607.0</ele><time>2026-05-02T05:56:20.8Z</time></trkpt><trkpt lat="43.8209414" lon="12.4230126"><ele>611.5</ele><time>2026-05-02T05:56:21.817Z</time></trkpt><trkpt lat="43.8210094" lon="12.4231513"><ele>616.0</ele><time>2026-05-02T05:56:22.809Z</time></trkpt><trkpt lat="43.8210842" lon="12.4232867"><ele>620.5</ele><time>2026-05-02T05:56:23.811Z</time></trkpt><trkpt lat="43.8211565" lon="12.4234163"><ele>625.0</ele><time>2026-05-02T05:56:24.803Z</time></trkpt><trkpt lat="43.8212343" lon="12.4235397"><ele>625.0</ele><time>2026-05-02T05:56:25.803Z</time></trkpt><trkpt lat="43.8213175" lon="12.4236429"><ele>625.0</ele><time>2026-05-02T05:56:26.808Z</time></trkpt><trkpt lat="43.8214152" lon="12.4237166"><ele>625.0</ele><time>2026-05-02T05:56:27.798Z</time></trkpt><trkpt lat="43.8215154" lon="12.4237557"><ele>625.0</ele><time>2026-05-02T05:56:28.8Z</time></trkpt><trkpt lat="43.8216071" lon="12.4237617"><ele>625.0</ele><time>2026-05-02T05:56:29.809Z</time></trkpt><trkpt lat="43.8216725" lon="12.4237332"><ele>625.0</ele><time>2026-05-02T05:56:30.831Z</time></trkpt><trkpt lat="43.8217225" lon="12.4236735"><ele>625.0</ele><time>2026-05-02T05:56:31.803Z</time></trkpt><trkpt lat="43.8217727" lon="12.4235971"><ele>625.0</ele><time>2026-05-02T05:56:32.822Z</time></trkpt><trkpt lat="43.8218258" lon="12.4235115"><ele>625.0</ele><time>2026-05-02T05:56:33.811Z</time></trkpt><trkpt lat="43.821886" lon="12.4234309"><ele>625.0</ele><time>2026-05-02T05:56:34.81Z</time></trkpt><trkpt lat="43.8219637" lon="12.4233731"><ele>625.0</ele><time>2026-05-02T05:56:35.809Z</time></trkpt><trkpt lat="43.822059" lon="12.4233343"><ele>627.8</ele><time>2026-05-02T05:56:36.811Z</time></trkpt><trkpt lat="43.8221635" lon="12.4233209"><ele>630.6</ele><time>2026-05-02T05:56:37.82Z</time></trkpt><trkpt lat="43.8222714" lon="12.423309"><ele>633.4</ele><time>2026-05-02T05:56:38.8Z</time></trkpt><trkpt lat="43.8223902" lon="12.4232933"><ele>636.2</ele><time>2026-05-02T05:56:39.806Z</time></trkpt><trkpt lat="43.8225058" lon="12.4232722"><ele>639.0</ele><time>2026-05-02T05:56:40.804Z</time></trkpt><trkpt lat="43.8226299" lon="12.4232534"><ele>639.8</ele><time>2026-05-02T05:56:41.836Z</time></trkpt><trkpt lat="43.8227551" lon="12.4232379"><ele>640.5999999999999</ele><time>2026-05-02T05:56:42.807Z</time></trkpt><trkpt lat="43.8228718" lon="12.4232214"><ele>641.4</ele><time>2026-05-02T05:56:43.815Z</time></trkpt><trkpt lat="43.8229742" lon="12.4232001"><ele>642.1999999999999</ele><time>2026-05-02T05:56:44.799Z</time></trkpt><trkpt lat="43.8230714" lon="12.4231595"><ele>643.0</ele><time>2026-05-02T05:56:45.816Z</time></trkpt><trkpt lat="43.8231603" lon="12.423081"><ele>643.0</ele><time>2026-05-02T05:56:46.815Z</time></trkpt><trkpt lat="43.8232502" lon="12.422996"><ele>643.0</ele><time>2026-05-02T05:56:47.813Z</time></trkpt><trkpt lat="43.8233401" lon="12.4228896"><ele>643.0</ele><time>2026-05-02T05:56:48.798Z</time></trkpt><trkpt lat="43.8234262" lon="12.4227802"><ele>643.0</ele><time>2026-05-02T05:56:49.818Z</time></trkpt><trkpt lat="43.8235001" lon="12.4226889"><ele>643.0</ele><time>2026-05-02T05:56:50.816Z</time></trkpt><trkpt lat="43.823553" lon="12.4226079"><ele>645.6666666666667</ele><time>2026-05-02T05:56:51.826Z</time></trkpt><trkpt lat="43.8235858" lon="12.4225148"><ele>648.3333333333334</ele><time>2026-05-02T05:56:52.811Z</time></trkpt><trkpt lat="43.8236047" lon="12.4224008"><ele>651.0</ele><time>2026-05-02T05:56:53.821Z</time></trkpt><trkpt lat="43.8236027" lon="12.4222805"><ele>653.6666666666666</ele><time>2026-05-02T05:56:54.811Z</time></trkpt><trkpt lat="43.8235931" lon="12.4221506"><ele>656.3333333333333</ele><time>2026-05-02T05:56:55.811Z</time></trkpt><trkpt lat="43.8235917" lon="12.4220196"><ele>659.0</ele><time>2026-05-02T05:56:56.804Z</time></trkpt><trkpt lat="43.8235903" lon="12.421887"><ele>660.8333333333333</ele><time>2026-05-02T05:56:57.807Z</time></trkpt><trkpt lat="43.8235925" lon="12.4217651"><ele>662.6666666666666</ele><time>2026-05-02T05:56:58.793Z</time></trkpt><trkpt lat="43.8236068" lon="12.421657"><ele>664.5</ele><time>2026-05-02T05:56:59.805Z</time></trkpt><trkpt lat="43.8236375" lon="12.4215539"><ele>666.3333333333334</ele><time>2026-05-02T05:57:00.803Z</time></trkpt><trkpt lat="43.8236829" lon="12.4214528"><ele>668.1666666666667</ele><time>2026-05-02T05:57:01.805Z</time></trkpt><trkpt lat="43.8237356" lon="12.4213414"><ele>670.0</ele><time>2026-05-02T05:57:02.797Z</time></trkpt><trkpt lat="43.8237929" lon="12.4212287"><ele>671.8</ele><time>2026-05-02T05:57:03.809Z</time></trkpt><trkpt lat="43.8238583" lon="12.4211278"><ele>673.6</ele><time>2026-05-02T05:57:04.811Z</time></trkpt><trkpt lat="43.8239286" lon="12.4210227"><ele>675.4000000000001</ele><time>2026-05-02T05:57:05.819Z</time></trkpt><trkpt lat="43.8239986" lon="12.4209077"><ele>677.2</ele><time>2026-05-02T05:57:06.805Z</time></trkpt><trkpt lat="43.8240564" lon="12.420789"><ele>679.0</ele><time>2026-05-02T05:57:07.819Z</time></trkpt><trkpt lat="43.8241036" lon="12.4206584"><ele>679.0</ele><time>2026-05-02T05:57:08.803Z</time></trkpt><trkpt lat="43.8241494" lon="12.4205148"><ele>679.0</ele><time>2026-05-02T05:57:09.793Z</time></trkpt><trkpt lat="43.8241894" lon="12.4203746"><ele>679.0</ele><time>2026-05-02T05:57:10.797Z</time></trkpt><trkpt lat="43.8242211" lon="12.4202384"><ele>679.0</ele><time>2026-05-02T05:57:11.818Z</time></trkpt><trkpt lat="43.8242577" lon="12.4200925"><ele>679.0</ele><time>2026-05-02T05:57:12.806Z</time></trkpt><trkpt lat="43.8242944" lon="12.4199467"><ele>682.5</ele><time>2026-05-02T05:57:13.818Z</time></trkpt><trkpt lat="43.8243307" lon="12.4197948"><ele>686.0</ele><time>2026-05-02T05:57:14.81Z</time></trkpt><trkpt lat="43.8243671" lon="12.4196501"><ele>689.5</ele><time>2026-05-02T05:57:15.818Z</time></trkpt><trkpt lat="43.8244085" lon="12.4194982"><ele>693.0</ele><time>2026-05-02T05:57:16.807Z</time></trkpt><trkpt lat="43.8244567" lon="12.4193454"><ele>693.0</ele><time>2026-05-02T05:57:17.813Z</time></trkpt><trkpt lat="43.8245028" lon="12.419199"><ele>693.0</ele><time>2026-05-02T05:57:18.805Z</time></trkpt><trkpt lat="43.8245378" lon="12.4190578"><ele>693.0</ele><time>2026-05-02T05:57:19.817Z</time></trkpt><trkpt lat="43.8245629" lon="12.4189235"><ele>693.0</ele><time>2026-05-02T05:57:20.799Z</time></trkpt><trkpt lat="43.8245812" lon="12.418815"><ele>693.0</ele><time>2026-05-02T05:57:21.815Z</time></trkpt><trkpt lat="43.8245927" lon="12.4187173"><ele>692.4</ele><time>2026-05-02T05:57:22.801Z</time></trkpt><trkpt lat="43.8246032" lon="12.4186152"><ele>691.8</ele><time>2026-05-02T05:57:23.834Z</time></trkpt><trkpt lat="43.8246157" lon="12.4185017"><ele>691.2</ele><time>2026-05-02T05:57:24.808Z</time></trkpt><trkpt lat="43.8245936" lon="12.4183739"><ele>690.6</ele><time>2026-05-02T05:57:25.809Z</time></trkpt><trkpt lat="43.8245473" lon="12.4182452"><ele>690.0</ele><time>2026-05-02T05:57:26.81Z</time></trkpt><trkpt lat="43.8245018" lon="12.4181172"><ele>690.0</ele><time>2026-05-02T05:57:27.803Z</time></trkpt><trkpt lat="43.8244544" lon="12.4179873"><ele>690.0</ele><time>2026-05-02T05:57:28.807Z</time></trkpt><trkpt lat="43.8244321" lon="12.4178807"><ele>690.0</ele><time>2026-05-02T05:57:29.81Z</time></trkpt><trkpt lat="43.8244183" lon="12.4177706"><ele>690.0</ele><time>2026-05-02T05:57:30.802Z</time></trkpt><trkpt lat="43.8244212" lon="12.4176397"><ele>690.0</ele><time>2026-05-02T05:57:31.814Z</time></trkpt><trkpt lat="43.8244274" lon="12.417496"><ele>690.0</ele><time>2026-05-02T05:57:32.808Z</time></trkpt><trkpt lat="43.8244323" lon="12.4173355"><ele>690.0</ele><time>2026-05-02T05:57:33.811Z</time></trkpt><trkpt lat="43.8244349" lon="12.4171756"><ele>690.0</ele><time>2026-05-02T05:57:34.817Z</time></trkpt><trkpt lat="43.8244403" lon="12.4170151"><ele>690.0</ele><time>2026-05-02T05:57:35.805Z</time></trkpt><trkpt lat="43.8244424" lon="12.4168591"><ele>690.4</ele><time>2026-05-02T05:57:36.798Z</time></trkpt><trkpt lat="43.8244516" lon="12.4167072"><ele>690.8</ele><time>2026-05-02T05:57:37.811Z</time></trkpt><trkpt lat="43.8244641" lon="12.4165579"><ele>691.2</ele><time>2026-05-02T05:57:38.791Z</time></trkpt><trkpt lat="43.8244756" lon="12.4164085"><ele>691.6</ele><time>2026-05-02T05:57:39.783Z</time></trkpt><trkpt lat="43.8244891" lon="12.4162623"><ele>692.0</ele><time>2026-05-02T05:57:40.805Z</time></trkpt><trkpt lat="43.8244975" lon="12.4161153"><ele>692.8</ele><time>2026-05-02T05:57:41.812Z</time></trkpt><trkpt lat="43.824512" lon="12.4159535"><ele>693.6</ele><time>2026-05-02T05:57:42.807Z</time></trkpt><trkpt lat="43.82452" lon="12.415791"><ele>694.4</ele><time>2026-05-02T05:57:43.8Z</time></trkpt><trkpt lat="43.8245196" lon="12.4156414"><ele>695.1999999999999</ele><time>2026-05-02T05:57:44.809Z</time></trkpt><trkpt lat="43.8245019" lon="12.4155282"><ele>696.0</ele><time>2026-05-02T05:57:45.806Z</time></trkpt><trkpt lat="43.8244771" lon="12.4154314"><ele>697.6666666666666</ele><time>2026-05-02T05:57:46.802Z</time></trkpt><trkpt lat="43.8244318" lon="12.4153462"><ele>699.3333333333334</ele><time>2026-05-02T05:57:47.804Z</time></trkpt><trkpt lat="43.8243676" lon="12.4152926"><ele>701.0</ele><time>2026-05-02T05:57:48.787Z</time></trkpt><trkpt lat="43.8242971" lon="12.4152491"><ele>702.6666666666667</ele><time>2026-05-02T05:57:49.816Z</time></trkpt><trkpt lat="43.824225" lon="12.4152295"><ele>704.3333333333334</ele><time>2026-05-02T05:57:50.787Z</time></trkpt><trkpt lat="43.8241423" lon="12.4152473"><ele>706.0</ele><time>2026-05-02T05:57:51.801Z</time></trkpt><trkpt lat="43.8240511" lon="12.4152741"><ele>701.5999999999999</ele><time>2026-05-02T05:57:52.808Z</time></trkpt><trkpt lat="43.8239554" lon="12.4152674"><ele>697.2</ele><time>2026-05-02T05:57:53.805Z</time></trkpt><trkpt lat="43.8238544" lon="12.4152358"><ele>692.8</ele><time>2026-05-02T05:57:54.803Z</time></trkpt><trkpt lat="43.8237525" lon="12.415201"><ele>688.4000000000001</ele><time>2026-05-02T05:57:55.811Z</time></trkpt><trkpt lat="43.8236522" lon="12.4151554"><ele>684.0</ele><time>2026-05-02T05:57:56.804Z</time></trkpt><trkpt lat="43.8235527" lon="12.4151026"><ele>681.5</ele><time>2026-05-02T05:57:57.812Z</time></trkpt><trkpt lat="43.8234699" lon="12.415056"><ele>679.0</ele><time>2026-05-02T05:57:58.811Z</time></trkpt><trkpt lat="43.823405" lon="12.4150058"><ele>676.5</ele><time>2026-05-02T05:57:59.797Z</time></trkpt><trkpt lat="43.8233154" lon="12.4149301"><ele>674.0</ele><time>2026-05-02T05:58:01.819Z</time></trkpt><trkpt lat="43.8232597" lon="12.4148517"><ele>671.5</ele><time>2026-05-02T05:58:04.8Z</time></trkpt><trkpt lat="43.8232444" lon="12.414724"><ele>669.0</ele><time>2026-05-02T05:58:06.795Z</time></trkpt><trkpt lat="43.8232949" lon="12.4145412"><ele>667.8000000000001</ele><time>2026-05-02T05:58:08.796Z</time></trkpt><trkpt lat="43.8233397" lon="12.414436"><ele>666.6</ele><time>2026-05-02T05:58:09.806Z</time></trkpt><trkpt lat="43.8233742" lon="12.4143468"><ele>665.4</ele><time>2026-05-02T05:58:10.803Z</time></trkpt><trkpt lat="43.8234236" lon="12.414204"><ele>664.2</ele><time>2026-05-02T05:58:12.808Z</time></trkpt><trkpt lat="43.8234783" lon="12.4140623"><ele>663.0</ele><time>2026-05-02T05:58:14.812Z</time></trkpt><trkpt lat="43.8235367" lon="12.4139088"><ele>665.5</ele><time>2026-05-02T05:58:16.795Z</time></trkpt><trkpt lat="43.8235759" lon="12.4138222"><ele>668.0</ele><time>2026-05-02T05:58:17.812Z</time></trkpt><trkpt lat="43.823618" lon="12.4137329"><ele>670.5</ele><time>2026-05-02T05:58:18.815Z</time></trkpt><trkpt lat="43.8236598" lon="12.4136369"><ele>673.0</ele><time>2026-05-02T05:58:19.817Z</time></trkpt><trkpt lat="43.8237008" lon="12.4135349"><ele>675.5</ele><time>2026-05-02T05:58:20.798Z</time></trkpt><trkpt lat="43.8237488" lon="12.4134334"><ele>678.0</ele><time>2026-05-02T05:58:21.809Z</time></trkpt><trkpt lat="43.8237975" lon="12.4133296"><ele>678.0</ele><time>2026-05-02T05:58:22.804Z</time></trkpt><trkpt lat="43.8238425" lon="12.4132217"><ele>678.0</ele><time>2026-05-02T05:58:23.807Z</time></trkpt><trkpt lat="43.8238847" lon="12.4131133"><ele>678.0</ele><time>2026-05-02T05:58:24.798Z</time></trkpt><trkpt lat="43.8239234" lon="12.4129995"><ele>678.0</ele><time>2026-05-02T05:58:25.82Z</time></trkpt><trkpt lat="43.8239617" lon="12.412887"><ele>678.0</ele><time>2026-05-02T05:58:26.802Z</time></trkpt><trkpt lat="43.8240038" lon="12.4127686"><ele>676.8</ele><time>2026-05-02T05:58:27.821Z</time></trkpt><trkpt lat="43.824047" lon="12.4126441"><ele>675.5999999999999</ele><time>2026-05-02T05:58:28.82Z</time></trkpt><trkpt lat="43.8240949" lon="12.4125204"><ele>674.4000000000001</ele><time>2026-05-02T05:58:29.81Z</time></trkpt><trkpt lat="43.8241475" lon="12.4123919"><ele>673.2</ele><time>2026-05-02T05:58:30.805Z</time></trkpt><trkpt lat="43.8242052" lon="12.4122666"><ele>672.0</ele><time>2026-05-02T05:58:31.813Z</time></trkpt><trkpt lat="43.82426" lon="12.4121433"><ele>670.6</ele><time>2026-05-02T05:58:32.803Z</time></trkpt><trkpt lat="43.8243147" lon="12.4120236"><ele>669.2</ele><time>2026-05-02T05:58:33.825Z</time></trkpt><trkpt lat="43.8243595" lon="12.4119193"><ele>667.8</ele><time>2026-05-02T05:58:34.795Z</time></trkpt><trkpt lat="43.8243895" lon="12.4118201"><ele>666.4</ele><time>2026-05-02T05:58:35.813Z</time></trkpt><trkpt lat="43.8244121" lon="12.411729"><ele>665.0</ele><time>2026-05-02T05:58:36.802Z</time></trkpt><trkpt lat="43.8244092" lon="12.4115507"><ele>665.0</ele><time>2026-05-02T05:58:38.802Z</time></trkpt><trkpt lat="43.8243848" lon="12.4114476"><ele>665.0</ele><time>2026-05-02T05:58:39.804Z</time></trkpt><trkpt lat="43.8243598" lon="12.4113372"><ele>665.0</ele><time>2026-05-02T05:58:40.798Z</time></trkpt><trkpt lat="43.8243348" lon="12.4112177"><ele>665.0</ele><time>2026-05-02T05:58:41.816Z</time></trkpt><trkpt lat="43.8243015" lon="12.4110891"><ele>665.0</ele><time>2026-05-02T05:58:42.802Z</time></trkpt><trkpt lat="43.8242666" lon="12.4109518"><ele>664.8</ele><time>2026-05-02T05:58:43.813Z</time></trkpt><trkpt lat="43.824236" lon="12.4108174"><ele>664.6</ele><time>2026-05-02T05:58:44.815Z</time></trkpt><trkpt lat="43.8242107" lon="12.4106897"><ele>664.4000000000001</ele><time>2026-05-02T05:58:45.8Z</time></trkpt><trkpt lat="43.8241852" lon="12.4105686"><ele>664.2</ele><time>2026-05-02T05:58:46.801Z</time></trkpt><trkpt lat="43.8241549" lon="12.4104469"><ele>664.0</ele><time>2026-05-02T05:58:47.805Z</time></trkpt><trkpt lat="43.8241201" lon="12.4103042"><ele>664.0</ele><time>2026-05-02T05:58:48.827Z</time></trkpt><trkpt lat="43.8240724" lon="12.4101598"><ele>664.0</ele><time>2026-05-02T05:58:49.805Z</time></trkpt><trkpt lat="43.8240238" lon="12.4100147"><ele>664.0</ele><time>2026-05-02T05:58:50.819Z</time></trkpt><trkpt lat="43.8239756" lon="12.4098679"><ele>664.0</ele><time>2026-05-02T05:58:51.809Z</time></trkpt><trkpt lat="43.8239319" lon="12.4097275"><ele>663.2</ele><time>2026-05-02T05:58:52.814Z</time></trkpt><trkpt lat="43.8238993" lon="12.4095973"><ele>662.4000000000001</ele><time>2026-05-02T05:58:53.814Z</time></trkpt><trkpt lat="43.8238697" lon="12.4094674"><ele>661.6</ele><time>2026-05-02T05:58:54.811Z</time></trkpt><trkpt lat="43.8238387" lon="12.409337"><ele>660.8</ele><time>2026-05-02T05:58:55.822Z</time></trkpt><trkpt lat="43.8238073" lon="12.409202"><ele>660.0</ele><time>2026-05-02T05:58:56.815Z</time></trkpt><trkpt lat="43.8237793" lon="12.4090652"><ele>660.0</ele><time>2026-05-02T05:58:57.815Z</time></trkpt><trkpt lat="43.8237608" lon="12.4089339"><ele>660.0</ele><time>2026-05-02T05:58:58.805Z</time></trkpt><trkpt lat="43.8237496" lon="12.4088049"><ele>660.0</ele><time>2026-05-02T05:58:59.81Z</time></trkpt><trkpt lat="43.8237436" lon="12.4086725"><ele>660.0</ele><time>2026-05-02T05:59:00.817Z</time></trkpt><trkpt lat="43.8237589" lon="12.4085476"><ele>660.0</ele><time>2026-05-02T05:59:01.809Z</time></trkpt><trkpt lat="43.8237882" lon="12.4084283"><ele>660.4</ele><time>2026-05-02T05:59:02.804Z</time></trkpt><trkpt lat="43.8238343" lon="12.4083082"><ele>660.8</ele><time>2026-05-02T05:59:03.83Z</time></trkpt><trkpt lat="43.8239005" lon="12.4082094"><ele>661.2</ele><time>2026-05-02T05:59:04.803Z</time></trkpt><trkpt lat="43.8239757" lon="12.4081235"><ele>661.6</ele><time>2026-05-02T05:59:05.812Z</time></trkpt><trkpt lat="43.8240461" lon="12.4080463"><ele>662.0</ele><time>2026-05-02T05:59:06.787Z</time></trkpt><trkpt lat="43.8241067" lon="12.4079644"><ele>662.0</ele><time>2026-05-02T05:59:07.823Z</time></trkpt><trkpt lat="43.8241559" lon="12.4078664"><ele>662.0</ele><time>2026-05-02T05:59:08.796Z</time></trkpt><trkpt lat="43.8241836" lon="12.407754"><ele>662.0</ele><time>2026-05-02T05:59:09.785Z</time></trkpt><trkpt lat="43.824196" lon="12.407639"><ele>662.0</ele><time>2026-05-02T05:59:10.816Z</time></trkpt><trkpt lat="43.8242064" lon="12.4075507"><ele>662.0</ele><time>2026-05-02T05:59:11.812Z</time></trkpt><trkpt lat="43.82424" lon="12.4074411"><ele>662.0</ele><time>2026-05-02T05:59:13.802Z</time></trkpt><trkpt lat="43.824322" lon="12.4074746"><ele>658.6666666666666</ele><time>2026-05-02T05:59:15.809Z</time></trkpt><trkpt lat="43.8243675" lon="12.4075467"><ele>655.3333333333333</ele><time>2026-05-02T05:59:16.799Z</time></trkpt><trkpt lat="43.8244405" lon="12.4076305"><ele>652.0</ele><time>2026-05-02T05:59:17.791Z</time></trkpt><trkpt lat="43.8245239" lon="12.407711"><ele>648.6666666666666</ele><time>2026-05-02T05:59:18.799Z</time></trkpt><trkpt lat="43.8246074" lon="12.4077557"><ele>645.3333333333334</ele><time>2026-05-02T05:59:19.798Z</time></trkpt><trkpt lat="43.824682" lon="12.4077823"><ele>642.0</ele><time>2026-05-02T05:59:20.801Z</time></trkpt><trkpt lat="43.8247488" lon="12.4077806"><ele>642.0</ele><time>2026-05-02T05:59:21.805Z</time></trkpt><trkpt lat="43.8247978" lon="12.4077102"><ele>642.0</ele><time>2026-05-02T05:59:22.805Z</time></trkpt><trkpt lat="43.8248166" lon="12.407606"><ele>642.0</ele><time>2026-05-02T05:59:23.806Z</time></trkpt><trkpt lat="43.8248254" lon="12.4075065"><ele>642.0</ele><time>2026-05-02T05:59:24.795Z</time></trkpt><trkpt lat="43.8248153" lon="12.4073962"><ele>642.0</ele><time>2026-05-02T05:59:25.8Z</time></trkpt><trkpt lat="43.8247685" lon="12.4072682"><ele>642.0</ele><time>2026-05-02T05:59:26.792Z</time></trkpt><trkpt lat="43.8246853" lon="12.4071339"><ele>639.75</ele><time>2026-05-02T05:59:27.795Z</time></trkpt><trkpt lat="43.8245947" lon="12.407012"><ele>637.5</ele><time>2026-05-02T05:59:28.788Z</time></trkpt><trkpt lat="43.8245072" lon="12.4068983"><ele>635.25</ele><time>2026-05-02T05:59:29.801Z</time></trkpt><trkpt lat="43.8244293" lon="12.4067931"><ele>633.0</ele><time>2026-05-02T05:59:30.796Z</time></trkpt><trkpt lat="43.8243569" lon="12.4066955"><ele>632.5</ele><time>2026-05-02T05:59:31.804Z</time></trkpt><trkpt lat="43.8242817" lon="12.4065988"><ele>632.0</ele><time>2026-05-02T05:59:32.796Z</time></trkpt><trkpt lat="43.8242136" lon="12.4065145"><ele>631.5</ele><time>2026-05-02T05:59:33.804Z</time></trkpt><trkpt lat="43.8241519" lon="12.406441"><ele>631.0</ele><time>2026-05-02T05:59:34.796Z</time></trkpt><trkpt lat="43.8240948" lon="12.4063714"><ele>630.5</ele><time>2026-05-02T05:59:35.797Z</time></trkpt><trkpt lat="43.8240282" lon="12.4062956"><ele>630.0</ele><time>2026-05-02T05:59:36.8Z</time></trkpt><trkpt lat="43.8239687" lon="12.406226"><ele>630.0</ele><time>2026-05-02T05:59:37.811Z</time></trkpt><trkpt lat="43.8239192" lon="12.4061597"><ele>630.0</ele><time>2026-05-02T05:59:38.806Z</time></trkpt><trkpt lat="43.8238683" lon="12.4060778"><ele>630.0</ele><time>2026-05-02T05:59:39.802Z</time></trkpt><trkpt lat="43.8238251" lon="12.405994"><ele>630.0</ele><time>2026-05-02T05:59:40.8Z</time></trkpt><trkpt lat="43.8237773" lon="12.4058963"><ele>630.0</ele><time>2026-05-02T05:59:41.79Z</time></trkpt><trkpt lat="43.8237309" lon="12.4057931"><ele>630.0</ele><time>2026-05-02T05:59:42.802Z</time></trkpt><trkpt lat="43.8236859" lon="12.4056823"><ele>630.0</ele><time>2026-05-02T05:59:43.81Z</time></trkpt><trkpt lat="43.8236487" lon="12.4055606"><ele>630.0</ele><time>2026-05-02T05:59:44.799Z</time></trkpt><trkpt lat="43.8236157" lon="12.4054189"><ele>630.0</ele><time>2026-05-02T05:59:45.824Z</time></trkpt><trkpt lat="43.8235937" lon="12.405272"><ele>630.0</ele><time>2026-05-02T05:59:46.808Z</time></trkpt><trkpt lat="43.823562" lon="12.4051127"><ele>630.0</ele><time>2026-05-02T05:59:47.819Z</time></trkpt><trkpt lat="43.8235309" lon="12.404944"><ele>630.0</ele><time>2026-05-02T05:59:48.8Z</time></trkpt><trkpt lat="43.8235036" lon="12.404769"><ele>630.0</ele><time>2026-05-02T05:59:49.819Z</time></trkpt><trkpt lat="43.8234711" lon="12.404609"><ele>630.0</ele><time>2026-05-02T05:59:50.813Z</time></trkpt><trkpt lat="43.8234309" lon="12.4044538"><ele>630.0</ele><time>2026-05-02T05:59:51.806Z</time></trkpt><trkpt lat="43.8233774" lon="12.4043087"><ele>630.0</ele><time>2026-05-02T05:59:52.811Z</time></trkpt><trkpt lat="43.8232954" lon="12.4041772"><ele>630.0</ele><time>2026-05-02T05:59:53.806Z</time></trkpt><trkpt lat="43.8231998" lon="12.404053"><ele>630.0</ele><time>2026-05-02T05:59:54.808Z</time></trkpt><trkpt lat="43.8231033" lon="12.4039157"><ele>630.0</ele><time>2026-05-02T05:59:55.814Z</time></trkpt><trkpt lat="43.8230114" lon="12.4037658"><ele>628.5</ele><time>2026-05-02T05:59:56.806Z</time></trkpt><trkpt lat="43.8229269" lon="12.4035999"><ele>627.0</ele><time>2026-05-02T05:59:57.816Z</time></trkpt><trkpt lat="43.8228432" lon="12.4034344"><ele>625.5</ele><time>2026-05-02T05:59:58.809Z</time></trkpt><trkpt lat="43.8227709" lon="12.4032536"><ele>624.0</ele><time>2026-05-02T05:59:59.823Z</time></trkpt><trkpt lat="43.822706" lon="12.4030692"><ele>626.6666666666666</ele><time>2026-05-02T06:00:00.805Z</time></trkpt><trkpt lat="43.8226401" lon="12.4028755"><ele>629.3333333333333</ele><time>2026-05-02T06:00:01.809Z</time></trkpt><trkpt lat="43.8225757" lon="12.402681"><ele>632.0</ele><time>2026-05-02T06:00:02.812Z</time></trkpt><trkpt lat="43.8225181" lon="12.4024818"><ele>632.0</ele><time>2026-05-02T06:00:03.82Z</time></trkpt><trkpt lat="43.8224686" lon="12.4022873"><ele>632.0</ele><time>2026-05-02T06:00:04.8Z</time></trkpt><trkpt lat="43.8224154" lon="12.4020956"><ele>632.0</ele><time>2026-05-02T06:00:05.815Z</time></trkpt><trkpt lat="43.8223644" lon="12.4019028"><ele>632.0</ele><time>2026-05-02T06:00:06.812Z</time></trkpt><trkpt lat="43.8223101" lon="12.4017156"><ele>632.0</ele><time>2026-05-02T06:00:07.821Z</time></trkpt><trkpt lat="43.822256" lon="12.4015287"><ele>632.0</ele><time>2026-05-02T06:00:08.816Z</time></trkpt><trkpt lat="43.8222036" lon="12.4013411"><ele>632.0</ele><time>2026-05-02T06:00:09.816Z</time></trkpt><trkpt lat="43.8221542" lon="12.4011484"><ele>632.0</ele><time>2026-05-02T06:00:10.799Z</time></trkpt><trkpt lat="43.822109" lon="12.4009476"><ele>630.3333333333333</ele><time>2026-05-02T06:00:11.811Z</time></trkpt><trkpt lat="43.8220689" lon="12.4007356"><ele>628.6666666666666</ele><time>2026-05-02T06:00:12.8Z</time></trkpt><trkpt lat="43.8220333" lon="12.4005177"><ele>627.0</ele><time>2026-05-02T06:00:13.811Z</time></trkpt><trkpt lat="43.8220064" lon="12.4002988"><ele>626.6666666666666</ele><time>2026-05-02T06:00:14.802Z</time></trkpt><trkpt lat="43.8219877" lon="12.4000803"><ele>626.3333333333333</ele><time>2026-05-02T06:00:15.813Z</time></trkpt><trkpt lat="43.8219749" lon="12.3998695"><ele>626.0</ele><time>2026-05-02T06:00:16.803Z</time></trkpt><trkpt lat="43.8219716" lon="12.3996563"><ele>627.0</ele><time>2026-05-02T06:00:17.818Z</time></trkpt><trkpt lat="43.8219692" lon="12.3994502"><ele>628.0</ele><time>2026-05-02T06:00:18.807Z</time></trkpt><trkpt lat="43.8219653" lon="12.3992523"><ele>629.0</ele><time>2026-05-02T06:00:19.804Z</time></trkpt><trkpt lat="43.8219735" lon="12.399057"><ele>630.0</ele><time>2026-05-02T06:00:20.813Z</time></trkpt><trkpt lat="43.8219901" lon="12.3988667"><ele>632.0</ele><time>2026-05-02T06:00:21.809Z</time></trkpt><trkpt lat="43.8220226" lon="12.3986734"><ele>634.0</ele><time>2026-05-02T06:00:22.797Z</time></trkpt><trkpt lat="43.8220729" lon="12.3984775"><ele>636.0</ele><time>2026-05-02T06:00:23.812Z</time></trkpt><trkpt lat="43.8221369" lon="12.3982754"><ele>636.0</ele><time>2026-05-02T06:00:24.806Z</time></trkpt><trkpt lat="43.8222065" lon="12.3980694"><ele>636.0</ele><time>2026-05-02T06:00:25.835Z</time></trkpt><trkpt lat="43.8222777" lon="12.397863"><ele>636.0</ele><time>2026-05-02T06:00:26.812Z</time></trkpt><trkpt lat="43.8223467" lon="12.3976622"><ele>636.0</ele><time>2026-05-02T06:00:27.826Z</time></trkpt><trkpt lat="43.8224157" lon="12.39746"><ele>636.0</ele><time>2026-05-02T06:00:28.799Z</time></trkpt><trkpt lat="43.8224807" lon="12.3972587"><ele>636.0</ele><time>2026-05-02T06:00:29.815Z</time></trkpt><trkpt lat="43.822539" lon="12.3970613"><ele>637.5</ele><time>2026-05-02T06:00:30.812Z</time></trkpt><trkpt lat="43.8225847" lon="12.3968759"><ele>639.0</ele><time>2026-05-02T06:00:31.816Z</time></trkpt><trkpt lat="43.8226108" lon="12.3967024"><ele>640.5</ele><time>2026-05-02T06:00:32.804Z</time></trkpt><trkpt lat="43.8226093" lon="12.3965261"><ele>642.0</ele><time>2026-05-02T06:00:33.805Z</time></trkpt><trkpt lat="43.8225696" lon="12.3963404"><ele>644.0</ele><time>2026-05-02T06:00:34.816Z</time></trkpt><trkpt lat="43.8224878" lon="12.3961679"><ele>646.0</ele><time>2026-05-02T06:00:35.812Z</time></trkpt><trkpt lat="43.8223708" lon="12.3960106"><ele>648.0</ele><time>2026-05-02T06:00:36.803Z</time></trkpt><trkpt lat="43.8222527" lon="12.3958834"><ele>648.0</ele><time>2026-05-02T06:00:37.819Z</time></trkpt><trkpt lat="43.822139" lon="12.3957632"><ele>648.0</ele><time>2026-05-02T06:00:38.808Z</time></trkpt><trkpt lat="43.8220292" lon="12.3956415"><ele>648.0</ele><time>2026-05-02T06:00:39.812Z</time></trkpt><trkpt lat="43.8219274" lon="12.395511"><ele>648.0</ele><time>2026-05-02T06:00:40.806Z</time></trkpt><trkpt lat="43.821828" lon="12.3953769"><ele>650.25</ele><time>2026-05-02T06:00:41.823Z</time></trkpt><trkpt lat="43.8217345" lon="12.3952343"><ele>652.5</ele><time>2026-05-02T06:00:42.812Z</time></trkpt><trkpt lat="43.8216467" lon="12.3950818"><ele>654.75</ele><time>2026-05-02T06:00:43.826Z</time></trkpt><trkpt lat="43.8215648" lon="12.3949177"><ele>657.0</ele><time>2026-05-02T06:00:44.811Z</time></trkpt><trkpt lat="43.8214872" lon="12.3947568"><ele>658.0</ele><time>2026-05-02T06:00:45.817Z</time></trkpt><trkpt lat="43.8214203" lon="12.3945891"><ele>659.0</ele><time>2026-05-02T06:00:46.809Z</time></trkpt><trkpt lat="43.8213713" lon="12.394418"><ele>660.0</ele><time>2026-05-02T06:00:47.812Z</time></trkpt><trkpt lat="43.8213472" lon="12.3942455"><ele>661.0</ele><time>2026-05-02T06:00:48.808Z</time></trkpt><trkpt lat="43.8213391" lon="12.3940674"><ele>661.0</ele><time>2026-05-02T06:00:49.789Z</time></trkpt><trkpt lat="43.821335" lon="12.3938866"><ele>661.0</ele><time>2026-05-02T06:00:50.797Z</time></trkpt><trkpt lat="43.8213011" lon="12.3937158"><ele>661.0</ele><time>2026-05-02T06:00:51.811Z</time></trkpt><trkpt lat="43.8212448" lon="12.3935333"><ele>661.0</ele><time>2026-05-02T06:00:52.805Z</time></trkpt><trkpt lat="43.8211646" lon="12.3933574"><ele>659.6666666666667</ele><time>2026-05-02T06:00:53.811Z</time></trkpt><trkpt lat="43.8210605" lon="12.3931927"><ele>658.3333333333334</ele><time>2026-05-02T06:00:54.795Z</time></trkpt><trkpt lat="43.8209581" lon="12.3930203"><ele>657.0</ele><time>2026-05-02T06:00:55.807Z</time></trkpt><trkpt lat="43.8208459" lon="12.3928591"><ele>656.0</ele><time>2026-05-02T06:00:56.803Z</time></trkpt><trkpt lat="43.8207282" lon="12.3926928"><ele>655.0</ele><time>2026-05-02T06:00:57.81Z</time></trkpt><trkpt lat="43.8206111" lon="12.3925319"><ele>654.0</ele><time>2026-05-02T06:00:58.815Z</time></trkpt><trkpt lat="43.8205025" lon="12.3923666"><ele>654.0</ele><time>2026-05-02T06:00:59.811Z</time></trkpt><trkpt lat="43.8203968" lon="12.3921984"><ele>654.0</ele><time>2026-05-02T06:01:00.802Z</time></trkpt><trkpt lat="43.8203007" lon="12.392037"><ele>654.0</ele><time>2026-05-02T06:01:01.805Z</time></trkpt><trkpt lat="43.8202282" lon="12.3919262"><ele>654.0</ele><time>2026-05-02T06:01:02.813Z</time></trkpt><trkpt lat="43.8201848" lon="12.3917904"><ele>654.6</ele><time>2026-05-02T06:01:03.804Z</time></trkpt><trkpt lat="43.8201427" lon="12.3916767"><ele>655.2</ele><time>2026-05-02T06:01:04.808Z</time></trkpt><trkpt lat="43.8201049" lon="12.3915741"><ele>655.8000000000001</ele><time>2026-05-02T06:01:05.818Z</time></trkpt><trkpt lat="43.8200702" lon="12.3914821"><ele>656.4000000000001</ele><time>2026-05-02T06:01:06.808Z</time></trkpt><trkpt lat="43.820019" lon="12.3913392"><ele>657.0</ele><time>2026-05-02T06:01:08.802Z</time></trkpt><trkpt lat="43.8200003" lon="12.3912006"><ele>657.0</ele><time>2026-05-02T06:01:10.814Z</time></trkpt><trkpt lat="43.8199661" lon="12.3910996"><ele>657.0</ele><time>2026-05-02T06:01:12.811Z</time></trkpt><trkpt lat="43.8199235" lon="12.3911922"><ele>657.0</ele><time>2026-05-02T06:01:15.811Z</time></trkpt><trkpt lat="43.8199482" lon="12.3912743"><ele>657.0</ele><time>2026-05-02T06:01:16.815Z</time></trkpt><trkpt lat="43.8199961" lon="12.3913862"><ele>657.0</ele><time>2026-05-02T06:01:17.824Z</time></trkpt><trkpt lat="43.8200477" lon="12.3915161"><ele>657.0</ele><time>2026-05-02T06:01:18.808Z</time></trkpt><trkpt lat="43.8201073" lon="12.391653"><ele>657.0</ele><time>2026-05-02T06:01:19.811Z</time></trkpt><trkpt lat="43.8201615" lon="12.3917803"><ele>657.0</ele><time>2026-05-02T06:01:20.816Z</time></trkpt><trkpt lat="43.8202106" lon="12.3918831"><ele>657.0</ele><time>2026-05-02T06:01:21.808Z</time></trkpt><trkpt lat="43.8202518" lon="12.3919699"><ele>657.0</ele><time>2026-05-02T06:01:22.809Z</time></trkpt><trkpt lat="43.8202916" lon="12.3920861"><ele>657.0</ele><time>2026-05-02T06:01:24.806Z</time></trkpt><trkpt lat="43.8202189" lon="12.392132"><ele>657.0</ele><time>2026-05-02T06:01:27.818Z</time></trkpt><trkpt lat="43.8201243" lon="12.3920556"><ele>657.0</ele><time>2026-05-02T06:01:29.822Z</time></trkpt><trkpt lat="43.8200554" lon="12.3920123"><ele>657.0</ele><time>2026-05-02T06:01:30.809Z</time></trkpt><trkpt lat="43.819975" lon="12.3919617"><ele>657.0</ele><time>2026-05-02T06:01:31.808Z</time></trkpt><trkpt lat="43.8198951" lon="12.3919146"><ele>657.0</ele><time>2026-05-02T06:01:32.807Z</time></trkpt><trkpt lat="43.8198142" lon="12.3918762"><ele>657.0</ele><time>2026-05-02T06:01:33.802Z</time></trkpt><trkpt lat="43.8197352" lon="12.3918299"><ele>657.0</ele><time>2026-05-02T06:01:34.816Z</time></trkpt><trkpt lat="43.8196513" lon="12.3917837"><ele>657.0</ele><time>2026-05-02T06:01:35.809Z</time></trkpt><trkpt lat="43.8195549" lon="12.3917458"><ele>657.0</ele><time>2026-05-02T06:01:36.791Z</time></trkpt><trkpt lat="43.8194595" lon="12.3917121"><ele>657.0</ele><time>2026-05-02T06:01:37.809Z</time></trkpt><trkpt lat="43.819366" lon="12.3916806"><ele>657.0</ele><time>2026-05-02T06:01:38.807Z</time></trkpt><trkpt lat="43.8192726" lon="12.3916466"><ele>657.0</ele><time>2026-05-02T06:01:39.806Z</time></trkpt><trkpt lat="43.8191727" lon="12.3915996"><ele>654.75</ele><time>2026-05-02T06:01:40.816Z</time></trkpt><trkpt lat="43.8190623" lon="12.391547"><ele>652.5</ele><time>2026-05-02T06:01:41.81Z</time></trkpt><trkpt lat="43.8189406" lon="12.3914876"><ele>650.25</ele><time>2026-05-02T06:01:42.804Z</time></trkpt><trkpt lat="43.8188136" lon="12.3914215"><ele>648.0</ele><time>2026-05-02T06:01:43.808Z</time></trkpt><trkpt lat="43.8186895" lon="12.3913467"><ele>648.5</ele><time>2026-05-02T06:01:44.802Z</time></trkpt><trkpt lat="43.8185648" lon="12.3912697"><ele>649.0</ele><time>2026-05-02T06:01:45.818Z</time></trkpt><trkpt lat="43.8184372" lon="12.3911969"><ele>649.5</ele><time>2026-05-02T06:01:46.811Z</time></trkpt><trkpt lat="43.8183074" lon="12.3911272"><ele>650.0</ele><time>2026-05-02T06:01:47.824Z</time></trkpt><trkpt lat="43.8181817" lon="12.3910608"><ele>650.0</ele><time>2026-05-02T06:01:48.813Z</time></trkpt><trkpt lat="43.8180623" lon="12.3910038"><ele>650.0</ele><time>2026-05-02T06:01:49.818Z</time></trkpt><trkpt lat="43.8179513" lon="12.3909483"><ele>650.0</ele><time>2026-05-02T06:01:50.807Z</time></trkpt><trkpt lat="43.8178473" lon="12.3909058"><ele>650.0</ele><time>2026-05-02T06:01:51.816Z</time></trkpt><trkpt lat="43.8177489" lon="12.3908692"><ele>647.75</ele><time>2026-05-02T06:01:52.805Z</time></trkpt><trkpt lat="43.8176483" lon="12.3908207"><ele>645.5</ele><time>2026-05-02T06:01:53.813Z</time></trkpt><trkpt lat="43.8175427" lon="12.3907672"><ele>643.25</ele><time>2026-05-02T06:01:54.797Z</time></trkpt><trkpt lat="43.8174313" lon="12.3907077"><ele>641.0</ele><time>2026-05-02T06:01:55.797Z</time></trkpt><trkpt lat="43.8173134" lon="12.3906452"><ele>641.0</ele><time>2026-05-02T06:01:56.81Z</time></trkpt><trkpt lat="43.817191" lon="12.3905786"><ele>641.0</ele><time>2026-05-02T06:01:57.81Z</time></trkpt><trkpt lat="43.8170615" lon="12.3905128"><ele>641.0</ele><time>2026-05-02T06:01:58.812Z</time></trkpt><trkpt lat="43.8169337" lon="12.3904453"><ele>641.0</ele><time>2026-05-02T06:01:59.836Z</time></trkpt><trkpt lat="43.8168143" lon="12.390381"><ele>641.0</ele><time>2026-05-02T06:02:00.812Z</time></trkpt><trkpt lat="43.8167033" lon="12.3903154"><ele>641.0</ele><time>2026-05-02T06:02:01.812Z</time></trkpt><trkpt lat="43.8165952" lon="12.3902418"><ele>641.0</ele><time>2026-05-02T06:02:02.814Z</time></trkpt><trkpt lat="43.8164887" lon="12.3901641"><ele>641.0</ele><time>2026-05-02T06:02:03.811Z</time></trkpt><trkpt lat="43.8163786" lon="12.3900852"><ele>641.0</ele><time>2026-05-02T06:02:04.802Z</time></trkpt><trkpt lat="43.8162659" lon="12.3900154"><ele>641.0</ele><time>2026-05-02T06:02:05.805Z</time></trkpt><trkpt lat="43.8161488" lon="12.3899658"><ele>641.0</ele><time>2026-05-02T06:02:06.804Z</time></trkpt><trkpt lat="43.816022" lon="12.3899279"><ele>641.0</ele><time>2026-05-02T06:02:07.818Z</time></trkpt><trkpt lat="43.815893" lon="12.3898906"><ele>638.75</ele><time>2026-05-02T06:02:08.812Z</time></trkpt><trkpt lat="43.8157651" lon="12.3898458"><ele>636.5</ele><time>2026-05-02T06:02:09.809Z</time></trkpt><trkpt lat="43.8156369" lon="12.3897998"><ele>634.25</ele><time>2026-05-02T06:02:10.816Z</time></trkpt><trkpt lat="43.8155116" lon="12.3897567"><ele>632.0</ele><time>2026-05-02T06:02:11.82Z</time></trkpt><trkpt lat="43.8153914" lon="12.3897011"><ele>633.0</ele><time>2026-05-02T06:02:12.792Z</time></trkpt><trkpt lat="43.8152751" lon="12.3896439"><ele>634.0</ele><time>2026-05-02T06:02:13.817Z</time></trkpt><trkpt lat="43.8151697" lon="12.3895831"><ele>635.0</ele><time>2026-05-02T06:02:14.796Z</time></trkpt><trkpt lat="43.8150779" lon="12.389529"><ele>636.0</ele><time>2026-05-02T06:02:15.807Z</time></trkpt><trkpt lat="43.8149936" lon="12.3894868"><ele>637.0</ele><time>2026-05-02T06:02:16.796Z</time></trkpt><trkpt lat="43.8149012" lon="12.389438"><ele>637.0</ele><time>2026-05-02T06:02:17.807Z</time></trkpt><trkpt lat="43.8148019" lon="12.3893735"><ele>637.0</ele><time>2026-05-02T06:02:18.801Z</time></trkpt><trkpt lat="43.814706" lon="12.3892933"><ele>637.0</ele><time>2026-05-02T06:02:19.829Z</time></trkpt><trkpt lat="43.8146228" lon="12.3892163"><ele>637.0</ele><time>2026-05-02T06:02:20.812Z</time></trkpt><trkpt lat="43.8145506" lon="12.3891261"><ele>637.0</ele><time>2026-05-02T06:02:21.814Z</time></trkpt><trkpt lat="43.814491" lon="12.389036"><ele>637.0</ele><time>2026-05-02T06:02:22.817Z</time></trkpt><trkpt lat="43.8144416" lon="12.3889431"><ele>637.0</ele><time>2026-05-02T06:02:23.815Z</time></trkpt><trkpt lat="43.8144026" lon="12.3888255"><ele>637.0</ele><time>2026-05-02T06:02:24.802Z</time></trkpt><trkpt lat="43.8143575" lon="12.388697"><ele>637.0</ele><time>2026-05-02T06:02:25.817Z</time></trkpt><trkpt lat="43.8143022" lon="12.3885638"><ele>637.0</ele><time>2026-05-02T06:02:26.801Z</time></trkpt><trkpt lat="43.8142452" lon="12.3884327"><ele>636.4</ele><time>2026-05-02T06:02:27.814Z</time></trkpt><trkpt lat="43.8141892" lon="12.3883063"><ele>635.8000000000001</ele><time>2026-05-02T06:02:28.803Z</time></trkpt><trkpt lat="43.8141413" lon="12.3881879"><ele>635.2</ele><time>2026-05-02T06:02:29.81Z</time></trkpt><trkpt lat="43.8140894" lon="12.3880734"><ele>634.6</ele><time>2026-05-02T06:02:30.805Z</time></trkpt><trkpt lat="43.8140333" lon="12.3879631"><ele>634.0</ele><time>2026-05-02T06:02:31.818Z</time></trkpt><trkpt lat="43.8139734" lon="12.3878391"><ele>634.0</ele><time>2026-05-02T06:02:32.795Z</time></trkpt><trkpt lat="43.8139043" lon="12.3877114"><ele>634.0</ele><time>2026-05-02T06:02:33.808Z</time></trkpt><trkpt lat="43.8138322" lon="12.3875834"><ele>634.0</ele><time>2026-05-02T06:02:34.793Z</time></trkpt><trkpt lat="43.8137493" lon="12.3874688"><ele>634.0</ele><time>2026-05-02T06:02:35.816Z</time></trkpt><trkpt lat="43.8136579" lon="12.3873647"><ele>634.0</ele><time>2026-05-02T06:02:36.803Z</time></trkpt><trkpt lat="43.813555" lon="12.3872715"><ele>634.0</ele><time>2026-05-02T06:02:37.825Z</time></trkpt><trkpt lat="43.813461" lon="12.3871793"><ele>634.0</ele><time>2026-05-02T06:02:38.792Z</time></trkpt><trkpt lat="43.813379" lon="12.3871012"><ele>634.0</ele><time>2026-05-02T06:02:39.819Z</time></trkpt><trkpt lat="43.8133087" lon="12.3870244"><ele>634.0</ele><time>2026-05-02T06:02:40.816Z</time></trkpt><trkpt lat="43.8132455" lon="12.3869452"><ele>632.4</ele><time>2026-05-02T06:02:41.816Z</time></trkpt><trkpt lat="43.8131878" lon="12.3868675"><ele>630.8</ele><time>2026-05-02T06:02:42.803Z</time></trkpt><trkpt lat="43.8131296" lon="12.386769"><ele>629.2</ele><time>2026-05-02T06:02:43.807Z</time></trkpt><trkpt lat="43.813069" lon="12.3866523"><ele>627.6</ele><time>2026-05-02T06:02:44.792Z</time></trkpt><trkpt lat="43.813007" lon="12.3865237"><ele>626.0</ele><time>2026-05-02T06:02:45.817Z</time></trkpt><trkpt lat="43.8129402" lon="12.386394"><ele>625.25</ele><time>2026-05-02T06:02:46.802Z</time></trkpt><trkpt lat="43.8128634" lon="12.3862604"><ele>624.5</ele><time>2026-05-02T06:02:47.805Z</time></trkpt><trkpt lat="43.812787" lon="12.3861172"><ele>623.75</ele><time>2026-05-02T06:02:48.813Z</time></trkpt><trkpt lat="43.8127089" lon="12.3859727"><ele>623.0</ele><time>2026-05-02T06:02:49.837Z</time></trkpt><trkpt lat="43.8126325" lon="12.3858327"><ele>623.0</ele><time>2026-05-02T06:02:50.801Z</time></trkpt><trkpt lat="43.8125547" lon="12.3856934"><ele>623.0</ele><time>2026-05-02T06:02:51.813Z</time></trkpt><trkpt lat="43.812477" lon="12.3855509"><ele>623.0</ele><time>2026-05-02T06:02:52.811Z</time></trkpt><trkpt lat="43.8123999" lon="12.3854146"><ele>623.0</ele><time>2026-05-02T06:02:53.809Z</time></trkpt><trkpt lat="43.8123252" lon="12.385288"><ele>624.1999999999999</ele><time>2026-05-02T06:02:54.801Z</time></trkpt><trkpt lat="43.8122531" lon="12.3851703"><ele>625.4</ele><time>2026-05-02T06:02:55.811Z</time></trkpt><trkpt lat="43.8121877" lon="12.3850624"><ele>626.5999999999999</ele><time>2026-05-02T06:02:56.815Z</time></trkpt><trkpt lat="43.8121257" lon="12.3849593"><ele>627.8</ele><time>2026-05-02T06:02:57.805Z</time></trkpt><trkpt lat="43.8120623" lon="12.3848623"><ele>629.0</ele><time>2026-05-02T06:02:58.805Z</time></trkpt><trkpt lat="43.8119798" lon="12.3847777"><ele>629.0</ele><time>2026-05-02T06:02:59.82Z</time></trkpt><trkpt lat="43.8118743" lon="12.3847192"><ele>629.0</ele><time>2026-05-02T06:03:00.812Z</time></trkpt><trkpt lat="43.8117564" lon="12.3846799"><ele>629.0</ele><time>2026-05-02T06:03:01.815Z</time></trkpt><trkpt lat="43.8116371" lon="12.3846454"><ele>629.0</ele><time>2026-05-02T06:03:02.806Z</time></trkpt><trkpt lat="43.8115219" lon="12.3845965"><ele>626.6</ele><time>2026-05-02T06:03:03.819Z</time></trkpt><trkpt lat="43.8114128" lon="12.3845512"><ele>624.2</ele><time>2026-05-02T06:03:04.802Z</time></trkpt><trkpt lat="43.8113163" lon="12.3845148"><ele>621.8000000000001</ele><time>2026-05-02T06:03:05.819Z</time></trkpt><trkpt lat="43.8112235" lon="12.3844805"><ele>619.4</ele><time>2026-05-02T06:03:06.811Z</time></trkpt><trkpt lat="43.8111398" lon="12.3844394"><ele>617.0</ele><time>2026-05-02T06:03:07.803Z</time></trkpt><trkpt lat="43.8110776" lon="12.3843815"><ele>617.0</ele><time>2026-05-02T06:03:08.811Z</time></trkpt><trkpt lat="43.8110297" lon="12.3843131"><ele>617.0</ele><time>2026-05-02T06:03:09.803Z</time></trkpt><trkpt lat="43.8109953" lon="12.3842267"><ele>617.0</ele><time>2026-05-02T06:03:10.787Z</time></trkpt><trkpt lat="43.8109817" lon="12.3841064"><ele>617.0</ele><time>2026-05-02T06:03:11.799Z</time></trkpt><trkpt lat="43.8109746" lon="12.383967"><ele>617.0</ele><time>2026-05-02T06:03:12.803Z</time></trkpt><trkpt lat="43.8109793" lon="12.3838215"><ele>617.0</ele><time>2026-05-02T06:03:13.802Z</time></trkpt><trkpt lat="43.8109878" lon="12.3836808"><ele>618.3333333333333</ele><time>2026-05-02T06:03:14.794Z</time></trkpt><trkpt lat="43.8109964" lon="12.383564"><ele>619.6666666666666</ele><time>2026-05-02T06:03:15.825Z</time></trkpt><trkpt lat="43.8109889" lon="12.3834611"><ele>621.0</ele><time>2026-05-02T06:03:16.801Z</time></trkpt><trkpt lat="43.8108924" lon="12.3833764"><ele>622.3333333333334</ele><time>2026-05-02T06:03:18.803Z</time></trkpt><trkpt lat="43.8108205" lon="12.3833974"><ele>623.6666666666667</ele><time>2026-05-02T06:03:19.811Z</time></trkpt><trkpt lat="43.8107587" lon="12.3834738"><ele>625.0</ele><time>2026-05-02T06:03:20.805Z</time></trkpt><trkpt lat="43.8107064" lon="12.3835998"><ele>620.0</ele><time>2026-05-02T06:03:21.794Z</time></trkpt><trkpt lat="43.8106589" lon="12.3837438"><ele>615.0</ele><time>2026-05-02T06:03:22.793Z</time></trkpt><trkpt lat="43.8106107" lon="12.3838965"><ele>610.0</ele><time>2026-05-02T06:03:23.811Z</time></trkpt><trkpt lat="43.8105559" lon="12.3840528"><ele>605.0</ele><time>2026-05-02T06:03:24.795Z</time></trkpt><trkpt lat="43.8104964" lon="12.3841987"><ele>604.25</ele><time>2026-05-02T06:03:25.803Z</time></trkpt><trkpt lat="43.8104312" lon="12.3843243"><ele>603.5</ele><time>2026-05-02T06:03:26.804Z</time></trkpt><trkpt lat="43.810347" lon="12.384411"><ele>602.75</ele><time>2026-05-02T06:03:27.801Z</time></trkpt><trkpt lat="43.8102414" lon="12.3844851"><ele>602.0</ele><time>2026-05-02T06:03:28.806Z</time></trkpt><trkpt lat="43.8101171" lon="12.3845372"><ele>598.5</ele><time>2026-05-02T06:03:29.795Z</time></trkpt><trkpt lat="43.8099925" lon="12.3845801"><ele>595.0</ele><time>2026-05-02T06:03:30.8Z</time></trkpt><trkpt lat="43.8098817" lon="12.3846155"><ele>591.5</ele><time>2026-05-02T06:03:31.798Z</time></trkpt><trkpt lat="43.809778" lon="12.3846457"><ele>588.0</ele><time>2026-05-02T06:03:32.814Z</time></trkpt><trkpt lat="43.8096768" lon="12.3846671"><ele>587.8333333333334</ele><time>2026-05-02T06:03:33.805Z</time></trkpt><trkpt lat="43.8095873" lon="12.3846921"><ele>587.6666666666666</ele><time>2026-05-02T06:03:34.799Z</time></trkpt><trkpt lat="43.8095064" lon="12.3847221"><ele>587.5</ele><time>2026-05-02T06:03:35.8Z</time></trkpt><trkpt lat="43.8094295" lon="12.3847526"><ele>587.3333333333333</ele><time>2026-05-02T06:03:36.796Z</time></trkpt><trkpt lat="43.8093523" lon="12.3847755"><ele>587.1666666666666</ele><time>2026-05-02T06:03:37.8Z</time></trkpt><trkpt lat="43.8092846" lon="12.3847938"><ele>587.0</ele><time>2026-05-02T06:03:38.795Z</time></trkpt><trkpt lat="43.8091697" lon="12.3848102"><ele>585.2</ele><time>2026-05-02T06:03:40.794Z</time></trkpt><trkpt lat="43.8091073" lon="12.3847421"><ele>583.4000000000001</ele><time>2026-05-02T06:03:42.794Z</time></trkpt><trkpt lat="43.8091079" lon="12.3845495"><ele>581.5999999999999</ele><time>2026-05-02T06:03:44.798Z</time></trkpt><trkpt lat="43.8091122" lon="12.3844385"><ele>579.8</ele><time>2026-05-02T06:03:45.796Z</time></trkpt><trkpt lat="43.8091297" lon="12.3843235"><ele>578.0</ele><time>2026-05-02T06:03:46.793Z</time></trkpt><trkpt lat="43.8091515" lon="12.3841999"><ele>577.25</ele><time>2026-05-02T06:03:47.813Z</time></trkpt><trkpt lat="43.8091782" lon="12.3840629"><ele>576.5</ele><time>2026-05-02T06:03:48.8Z</time></trkpt><trkpt lat="43.8092119" lon="12.3839129"><ele>575.75</ele><time>2026-05-02T06:03:49.809Z</time></trkpt><trkpt lat="43.8092459" lon="12.3837484"><ele>575.0</ele><time>2026-05-02T06:03:50.813Z</time></trkpt><trkpt lat="43.8092812" lon="12.3835863"><ele>574.2</ele><time>2026-05-02T06:03:51.813Z</time></trkpt><trkpt lat="43.8093119" lon="12.3834365"><ele>573.4</ele><time>2026-05-02T06:03:52.805Z</time></trkpt><trkpt lat="43.809328" lon="12.3832962"><ele>572.6</ele><time>2026-05-02T06:03:53.82Z</time></trkpt><trkpt lat="43.8093274" lon="12.3831615"><ele>571.8</ele><time>2026-05-02T06:03:54.804Z</time></trkpt><trkpt lat="43.8093087" lon="12.383027"><ele>571.0</ele><time>2026-05-02T06:03:55.812Z</time></trkpt><trkpt lat="43.8092635" lon="12.3828999"><ele>571.0</ele><time>2026-05-02T06:03:56.809Z</time></trkpt><trkpt lat="43.8091909" lon="12.3827863"><ele>571.0</ele><time>2026-05-02T06:03:57.819Z</time></trkpt><trkpt lat="43.8091058" lon="12.3826871"><ele>571.0</ele><time>2026-05-02T06:03:58.804Z</time></trkpt><trkpt lat="43.8090139" lon="12.3825882"><ele>571.0</ele><time>2026-05-02T06:03:59.809Z</time></trkpt><trkpt lat="43.8089399" lon="12.3824931"><ele>571.0</ele><time>2026-05-02T06:04:00.803Z</time></trkpt><trkpt lat="43.8088943" lon="12.3823692"><ele>571.0</ele><time>2026-05-02T06:04:01.805Z</time></trkpt><trkpt lat="43.8088776" lon="12.3822251"><ele>571.0</ele><time>2026-05-02T06:04:02.798Z</time></trkpt><trkpt lat="43.8088747" lon="12.3820592"><ele>571.0</ele><time>2026-05-02T06:04:03.813Z</time></trkpt><trkpt lat="43.8088778" lon="12.3818967"><ele>571.0</ele><time>2026-05-02T06:04:04.801Z</time></trkpt><trkpt lat="43.8088844" lon="12.3817303"><ele>570.75</ele><time>2026-05-02T06:04:05.811Z</time></trkpt><trkpt lat="43.80889" lon="12.3815538"><ele>570.5</ele><time>2026-05-02T06:04:06.793Z</time></trkpt><trkpt lat="43.8088915" lon="12.3813866"><ele>570.25</ele><time>2026-05-02T06:04:07.809Z</time></trkpt><trkpt lat="43.808892" lon="12.3812369"><ele>570.0</ele><time>2026-05-02T06:04:08.793Z</time></trkpt><trkpt lat="43.8088971" lon="12.38109"><ele>569.5</ele><time>2026-05-02T06:04:09.801Z</time></trkpt><trkpt lat="43.8089128" lon="12.3809355"><ele>569.0</ele><time>2026-05-02T06:04:10.801Z</time></trkpt><trkpt lat="43.8089427" lon="12.3807777"><ele>568.5</ele><time>2026-05-02T06:04:11.81Z</time></trkpt><trkpt lat="43.808971" lon="12.380613"><ele>568.0</ele><time>2026-05-02T06:04:12.796Z</time></trkpt><trkpt lat="43.808981" lon="12.3804581"><ele>568.0</ele><time>2026-05-02T06:04:13.794Z</time></trkpt><trkpt lat="43.8089665" lon="12.3803195"><ele>568.0</ele><time>2026-05-02T06:04:14.796Z</time></trkpt><trkpt lat="43.8089463" lon="12.3802086"><ele>568.0</ele><time>2026-05-02T06:04:15.8Z</time></trkpt><trkpt lat="43.8089061" lon="12.380125"><ele>568.0</ele><time>2026-05-02T06:04:16.795Z</time></trkpt><trkpt lat="43.8088348" lon="12.3800829"><ele>568.0</ele><time>2026-05-02T06:04:17.806Z</time></trkpt><trkpt lat="43.808747" lon="12.3800924"><ele>568.0</ele><time>2026-05-02T06:04:18.794Z</time></trkpt><trkpt lat="43.8086558" lon="12.3801491"><ele>568.0</ele><time>2026-05-02T06:04:19.806Z</time></trkpt><trkpt lat="43.8085711" lon="12.3802095"><ele>568.0</ele><time>2026-05-02T06:04:20.795Z</time></trkpt><trkpt lat="43.8084817" lon="12.3802537"><ele>568.0</ele><time>2026-05-02T06:04:21.803Z</time></trkpt><trkpt lat="43.8083823" lon="12.3802656"><ele>568.0</ele><time>2026-05-02T06:04:22.801Z</time></trkpt><trkpt lat="43.8082783" lon="12.3801955"><ele>568.0</ele><time>2026-05-02T06:04:23.814Z</time></trkpt><trkpt lat="43.8081779" lon="12.3800704"><ele>566.8</ele><time>2026-05-02T06:04:24.787Z</time></trkpt><trkpt lat="43.8080893" lon="12.3799518"><ele>565.5999999999999</ele><time>2026-05-02T06:04:25.821Z</time></trkpt><trkpt lat="43.8080106" lon="12.3798532"><ele>564.4000000000001</ele><time>2026-05-02T06:04:26.785Z</time></trkpt><trkpt lat="43.8079474" lon="12.3797422"><ele>563.2</ele><time>2026-05-02T06:04:27.802Z</time></trkpt><trkpt lat="43.8078945" lon="12.379605"><ele>562.0</ele><time>2026-05-02T06:04:28.794Z</time></trkpt><trkpt lat="43.8078538" lon="12.3794421"><ele>562.0</ele><time>2026-05-02T06:04:29.803Z</time></trkpt><trkpt lat="43.8078122" lon="12.3792836"><ele>562.0</ele><time>2026-05-02T06:04:30.803Z</time></trkpt><trkpt lat="43.8077702" lon="12.3791377"><ele>562.0</ele><time>2026-05-02T06:04:31.81Z</time></trkpt><trkpt lat="43.8077417" lon="12.378988"><ele>562.0</ele><time>2026-05-02T06:04:32.802Z</time></trkpt><trkpt lat="43.8077189" lon="12.3788376"><ele>561.0</ele><time>2026-05-02T06:04:33.815Z</time></trkpt><trkpt lat="43.8077013" lon="12.3786834"><ele>560.0</ele><time>2026-05-02T06:04:34.794Z</time></trkpt><trkpt lat="43.8076771" lon="12.378547"><ele>559.0</ele><time>2026-05-02T06:04:35.801Z</time></trkpt><trkpt lat="43.8076247" lon="12.3784166"><ele>558.0</ele><time>2026-05-02T06:04:36.791Z</time></trkpt><trkpt lat="43.8075481" lon="12.3782814"><ele>557.0</ele><time>2026-05-02T06:04:37.802Z</time></trkpt><trkpt lat="43.8074617" lon="12.378149"><ele>557.0</ele><time>2026-05-02T06:04:38.81Z</time></trkpt><trkpt lat="43.8073797" lon="12.3780226"><ele>557.0</ele><time>2026-05-02T06:04:39.802Z</time></trkpt><trkpt lat="43.8073089" lon="12.3778958"><ele>557.0</ele><time>2026-05-02T06:04:40.801Z</time></trkpt><trkpt lat="43.8072619" lon="12.377759"><ele>557.0</ele><time>2026-05-02T06:04:41.798Z</time></trkpt><trkpt lat="43.8072369" lon="12.3776106"><ele>559.1666666666666</ele><time>2026-05-02T06:04:42.803Z</time></trkpt><trkpt lat="43.8072083" lon="12.3774833"><ele>561.3333333333333</ele><time>2026-05-02T06:04:43.796Z</time></trkpt><trkpt lat="43.8071801" lon="12.3773827"><ele>563.5</ele><time>2026-05-02T06:04:44.796Z</time></trkpt><trkpt lat="43.8071424" lon="12.3773112"><ele>565.6666666666666</ele><time>2026-05-02T06:04:45.797Z</time></trkpt><trkpt lat="43.8070264" lon="12.3772873"><ele>567.8333333333334</ele><time>2026-05-02T06:04:47.793Z</time></trkpt><trkpt lat="43.8069577" lon="12.3773719"><ele>570.0</ele><time>2026-05-02T06:04:48.8Z</time></trkpt><trkpt lat="43.8069038" lon="12.3774877"><ele>570.0</ele><time>2026-05-02T06:04:49.798Z</time></trkpt><trkpt lat="43.8068633" lon="12.3776168"><ele>570.0</ele><time>2026-05-02T06:04:50.791Z</time></trkpt><trkpt lat="43.8068329" lon="12.3777686"><ele>570.0</ele><time>2026-05-02T06:04:51.799Z</time></trkpt><trkpt lat="43.8068253" lon="12.3779515"><ele>570.0</ele><time>2026-05-02T06:04:52.8Z</time></trkpt><trkpt lat="43.8068219" lon="12.3781287"><ele>567.2</ele><time>2026-05-02T06:04:53.803Z</time></trkpt><trkpt lat="43.8068018" lon="12.3783"><ele>564.4</ele><time>2026-05-02T06:04:54.792Z</time></trkpt><trkpt lat="43.8067652" lon="12.3784446"><ele>561.6</ele><time>2026-05-02T06:04:55.791Z</time></trkpt><trkpt lat="43.8067137" lon="12.3785694"><ele>558.8</ele><time>2026-05-02T06:04:56.793Z</time></trkpt><trkpt lat="43.8066604" lon="12.3787"><ele>556.0</ele><time>2026-05-02T06:04:57.787Z</time></trkpt><trkpt lat="43.8066029" lon="12.378839"><ele>554.5</ele><time>2026-05-02T06:04:58.802Z</time></trkpt><trkpt lat="43.8065337" lon="12.3789854"><ele>553.0</ele><time>2026-05-02T06:04:59.791Z</time></trkpt><trkpt lat="43.8064677" lon="12.3791366"><ele>551.5</ele><time>2026-05-02T06:05:00.809Z</time></trkpt><trkpt lat="43.8064065" lon="12.3792956"><ele>550.0</ele><time>2026-05-02T06:05:01.793Z</time></trkpt><trkpt lat="43.8063357" lon="12.3794521"><ele>550.0</ele><time>2026-05-02T06:05:02.803Z</time></trkpt><trkpt lat="43.8062633" lon="12.3796047"><ele>550.0</ele><time>2026-05-02T06:05:03.799Z</time></trkpt><trkpt lat="43.8061834" lon="12.3797223"><ele>550.0</ele><time>2026-05-02T06:05:04.801Z</time></trkpt><trkpt lat="43.8060889" lon="12.3797745"><ele>550.0</ele><time>2026-05-02T06:05:05.807Z</time></trkpt><trkpt lat="43.8059832" lon="12.3797678"><ele>550.25</ele><time>2026-05-02T06:05:06.799Z</time></trkpt><trkpt lat="43.8058708" lon="12.3797306"><ele>550.5</ele><time>2026-05-02T06:05:07.801Z</time></trkpt><trkpt lat="43.8057517" lon="12.3796716"><ele>550.75</ele><time>2026-05-02T06:05:08.793Z</time></trkpt><trkpt lat="43.805634" lon="12.3795988"><ele>551.0</ele><time>2026-05-02T06:05:09.814Z</time></trkpt><trkpt lat="43.8055168" lon="12.3795302"><ele>553.2</ele><time>2026-05-02T06:05:10.807Z</time></trkpt><trkpt lat="43.8054177" lon="12.3794706"><ele>555.4000000000001</ele><time>2026-05-02T06:05:11.802Z</time></trkpt><trkpt lat="43.8053352" lon="12.3794231"><ele>557.6</ele><time>2026-05-02T06:05:12.799Z</time></trkpt><trkpt lat="43.8052693" lon="12.3793649"><ele>559.8000000000001</ele><time>2026-05-02T06:05:14.808Z</time></trkpt><trkpt lat="43.8051867" lon="12.3793607"><ele>562.0</ele><time>2026-05-02T06:05:18.803Z</time></trkpt><trkpt lat="43.8051289" lon="12.3795226"><ele>561.8333333333334</ele><time>2026-05-02T06:05:20.788Z</time></trkpt><trkpt lat="43.8050983" lon="12.3796091"><ele>561.6666666666667</ele><time>2026-05-02T06:05:21.804Z</time></trkpt><trkpt lat="43.8050288" lon="12.3796999"><ele>561.5</ele><time>2026-05-02T06:05:23.808Z</time></trkpt><trkpt lat="43.8049659" lon="12.3796417"><ele>561.3333333333334</ele><time>2026-05-02T06:05:26.792Z</time></trkpt><trkpt lat="43.8049562" lon="12.379505"><ele>561.1666666666666</ele><time>2026-05-02T06:05:28.8Z</time></trkpt><trkpt lat="43.8049644" lon="12.3793713"><ele>561.0</ele><time>2026-05-02T06:05:30.819Z</time></trkpt><trkpt lat="43.8049858" lon="12.3792464"><ele>561.2</ele><time>2026-05-02T06:05:32.806Z</time></trkpt><trkpt lat="43.805026" lon="12.3791232"><ele>561.4000000000001</ele><time>2026-05-02T06:05:34.8Z</time></trkpt><trkpt lat="43.8051026" lon="12.3790456"><ele>561.6</ele><time>2026-05-02T06:05:36.79Z</time></trkpt><trkpt lat="43.8051962" lon="12.3789778"><ele>561.8000000000001</ele><time>2026-05-02T06:05:38.808Z</time></trkpt><trkpt lat="43.8053009" lon="12.3789229"><ele>562.0</ele><time>2026-05-02T06:05:40.795Z</time></trkpt><trkpt lat="43.8053736" lon="12.378897"><ele>562.0</ele><time>2026-05-02T06:05:42.801Z</time></trkpt><trkpt lat="43.8054513" lon="12.3788875"><ele>562.0</ele><time>2026-05-02T06:05:45.792Z</time></trkpt><trkpt lat="43.805516" lon="12.3787425"><ele>562.0</ele><time>2026-05-02T06:05:47.797Z</time></trkpt><trkpt lat="43.8055425" lon="12.3786313"><ele>562.0</ele><time>2026-05-02T06:05:48.801Z</time></trkpt><trkpt lat="43.8055619" lon="12.3785145"><ele>562.0</ele><time>2026-05-02T06:05:49.806Z</time></trkpt><trkpt lat="43.8055682" lon="12.3783957"><ele>563.5</ele><time>2026-05-02T06:05:50.805Z</time></trkpt><trkpt lat="43.8055544" lon="12.3782926"><ele>565.0</ele><time>2026-05-02T06:05:51.801Z</time></trkpt><trkpt lat="43.8055212" lon="12.3782037"><ele>566.5</ele><time>2026-05-02T06:05:52.803Z</time></trkpt><trkpt lat="43.8054594" lon="12.3781372"><ele>568.0</ele><time>2026-05-02T06:05:53.798Z</time></trkpt><trkpt lat="43.8053883" lon="12.3780696"><ele>569.5</ele><time>2026-05-02T06:05:54.784Z</time></trkpt><trkpt lat="43.8053081" lon="12.377995"><ele>571.0</ele><time>2026-05-02T06:05:55.804Z</time></trkpt><trkpt lat="43.8052256" lon="12.3779199"><ele>572.6</ele><time>2026-05-02T06:05:56.799Z</time></trkpt><trkpt lat="43.8051432" lon="12.3778406"><ele>574.2</ele><time>2026-05-02T06:05:57.793Z</time></trkpt><trkpt lat="43.8050576" lon="12.3777581"><ele>575.8</ele><time>2026-05-02T06:05:58.79Z</time></trkpt><trkpt lat="43.8049823" lon="12.3776842"><ele>577.4</ele><time>2026-05-02T06:05:59.798Z</time></trkpt><trkpt lat="43.8049154" lon="12.3776138"><ele>579.0</ele><time>2026-05-02T06:06:00.791Z</time></trkpt><trkpt lat="43.8048494" lon="12.3775549"><ele>579.0</ele><time>2026-05-02T06:06:01.805Z</time></trkpt><trkpt lat="43.8047828" lon="12.3774935"><ele>579.0</ele><time>2026-05-02T06:06:02.802Z</time></trkpt><trkpt lat="43.8047148" lon="12.3774392"><ele>579.0</ele><time>2026-05-02T06:06:03.799Z</time></trkpt><trkpt lat="43.8046431" lon="12.377386"><ele>579.0</ele><time>2026-05-02T06:06:04.792Z</time></trkpt><trkpt lat="43.8045661" lon="12.3773325"><ele>579.0</ele><time>2026-05-02T06:06:05.793Z</time></trkpt><trkpt lat="43.8044978" lon="12.3772612"><ele>579.0</ele><time>2026-05-02T06:06:06.802Z</time></trkpt><trkpt lat="43.804426" lon="12.3771781"><ele>580.1666666666666</ele><time>2026-05-02T06:06:07.798Z</time></trkpt><trkpt lat="43.8043628" lon="12.3770727"><ele>581.3333333333334</ele><time>2026-05-02T06:06:08.82Z</time></trkpt><trkpt lat="43.8043161" lon="12.376952"><ele>582.5</ele><time>2026-05-02T06:06:09.81Z</time></trkpt><trkpt lat="43.804284" lon="12.3768403"><ele>583.6666666666667</ele><time>2026-05-02T06:06:10.808Z</time></trkpt><trkpt lat="43.8042664" lon="12.3767321"><ele>584.8333333333334</ele><time>2026-05-02T06:06:11.822Z</time></trkpt><trkpt lat="43.8042625" lon="12.3766199"><ele>586.0</ele><time>2026-05-02T06:06:12.8Z</time></trkpt><trkpt lat="43.804267" lon="12.376496"><ele>586.4</ele><time>2026-05-02T06:06:13.81Z</time></trkpt><trkpt lat="43.8042884" lon="12.3763596"><ele>586.8</ele><time>2026-05-02T06:06:14.805Z</time></trkpt><trkpt lat="43.8043312" lon="12.3762303"><ele>587.1999999999999</ele><time>2026-05-02T06:06:15.807Z</time></trkpt><trkpt lat="43.8043938" lon="12.376109"><ele>587.6</ele><time>2026-05-02T06:06:16.797Z</time></trkpt><trkpt lat="43.8044674" lon="12.3759939"><ele>588.0</ele><time>2026-05-02T06:06:17.815Z</time></trkpt><trkpt lat="43.8045558" lon="12.3758833"><ele>589.5</ele><time>2026-05-02T06:06:18.799Z</time></trkpt><trkpt lat="43.8046508" lon="12.37578"><ele>591.0</ele><time>2026-05-02T06:06:19.803Z</time></trkpt><trkpt lat="43.8047523" lon="12.3756761"><ele>592.5</ele><time>2026-05-02T06:06:20.801Z</time></trkpt><trkpt lat="43.8048513" lon="12.375575"><ele>594.0</ele><time>2026-05-02T06:06:21.802Z</time></trkpt><trkpt lat="43.804953" lon="12.3754666"><ele>595.0</ele><time>2026-05-02T06:06:22.808Z</time></trkpt><trkpt lat="43.8050473" lon="12.3753485"><ele>596.0</ele><time>2026-05-02T06:06:23.806Z</time></trkpt><trkpt lat="43.8051296" lon="12.3752122"><ele>597.0</ele><time>2026-05-02T06:06:24.802Z</time></trkpt><trkpt lat="43.8052015" lon="12.3750504"><ele>598.0</ele><time>2026-05-02T06:06:25.812Z</time></trkpt><trkpt lat="43.8052623" lon="12.3748796"><ele>597.5</ele><time>2026-05-02T06:06:26.805Z</time></trkpt><trkpt lat="43.8053283" lon="12.3747029"><ele>597.0</ele><time>2026-05-02T06:06:27.797Z</time></trkpt><trkpt lat="43.8053988" lon="12.3745252"><ele>596.5</ele><time>2026-05-02T06:06:28.804Z</time></trkpt><trkpt lat="43.8054676" lon="12.3743436"><ele>596.0</ele><time>2026-05-02T06:06:29.825Z</time></trkpt><trkpt lat="43.8055336" lon="12.374163"><ele>596.0</ele><time>2026-05-02T06:06:30.804Z</time></trkpt><trkpt lat="43.8056011" lon="12.3739792"><ele>596.0</ele><time>2026-05-02T06:06:31.816Z</time></trkpt><trkpt lat="43.8056692" lon="12.3737926"><ele>596.0</ele><time>2026-05-02T06:06:32.805Z</time></trkpt><trkpt lat="43.805741" lon="12.3736015"><ele>600.3333333333333</ele><time>2026-05-02T06:06:33.815Z</time></trkpt><trkpt lat="43.8058106" lon="12.3734058"><ele>604.6666666666666</ele><time>2026-05-02T06:06:34.82Z</time></trkpt><trkpt lat="43.80588" lon="12.3732108"><ele>609.0</ele><time>2026-05-02T06:06:35.806Z</time></trkpt><trkpt lat="43.8059426" lon="12.3730118"><ele>609.6666666666666</ele><time>2026-05-02T06:06:36.793Z</time></trkpt><trkpt lat="43.8059935" lon="12.3728159"><ele>610.3333333333333</ele><time>2026-05-02T06:06:37.812Z</time></trkpt><trkpt lat="43.8060357" lon="12.3726135"><ele>611.0</ele><time>2026-05-02T06:06:38.809Z</time></trkpt><trkpt lat="43.8060721" lon="12.3724119"><ele>611.0</ele><time>2026-05-02T06:06:39.822Z</time></trkpt><trkpt lat="43.8061056" lon="12.3722072"><ele>611.0</ele><time>2026-05-02T06:06:40.801Z</time></trkpt><trkpt lat="43.8061463" lon="12.3720084"><ele>611.0</ele><time>2026-05-02T06:06:41.821Z</time></trkpt><trkpt lat="43.8061887" lon="12.3718085"><ele>613.3333333333333</ele><time>2026-05-02T06:06:42.807Z</time></trkpt><trkpt lat="43.8062297" lon="12.3716042"><ele>615.6666666666666</ele><time>2026-05-02T06:06:43.801Z</time></trkpt><trkpt lat="43.8062666" lon="12.371402"><ele>618.0</ele><time>2026-05-02T06:06:44.796Z</time></trkpt><trkpt lat="43.8063052" lon="12.3712028"><ele>620.25</ele><time>2026-05-02T06:06:45.827Z</time></trkpt><trkpt lat="43.8063441" lon="12.3710046"><ele>622.5</ele><time>2026-05-02T06:06:46.8Z</time></trkpt><trkpt lat="43.8063802" lon="12.3708086"><ele>624.75</ele><time>2026-05-02T06:06:47.831Z</time></trkpt><trkpt lat="43.8064096" lon="12.3706108"><ele>627.0</ele><time>2026-05-02T06:06:48.8Z</time></trkpt><trkpt lat="43.8064084" lon="12.3704062"><ele>629.0</ele><time>2026-05-02T06:06:49.796Z</time></trkpt><trkpt lat="43.8063701" lon="12.3701935"><ele>631.0</ele><time>2026-05-02T06:06:50.812Z</time></trkpt><trkpt lat="43.8063131" lon="12.3699952"><ele>633.0</ele><time>2026-05-02T06:06:51.82Z</time></trkpt><trkpt lat="43.8062321" lon="12.3698307"><ele>634.3333333333334</ele><time>2026-05-02T06:06:52.794Z</time></trkpt><trkpt lat="43.8061269" lon="12.3696833"><ele>635.6666666666667</ele><time>2026-05-02T06:06:53.812Z</time></trkpt><trkpt lat="43.8060161" lon="12.3695437"><ele>637.0</ele><time>2026-05-02T06:06:54.811Z</time></trkpt><trkpt lat="43.8058927" lon="12.3694049"><ele>637.0</ele><time>2026-05-02T06:06:55.819Z</time></trkpt><trkpt lat="43.8057755" lon="12.3692544"><ele>637.0</ele><time>2026-05-02T06:06:56.817Z</time></trkpt><trkpt lat="43.8056546" lon="12.3691044"><ele>637.0</ele><time>2026-05-02T06:06:57.797Z</time></trkpt><trkpt lat="43.8055344" lon="12.3689593"><ele>637.3333333333334</ele><time>2026-05-02T06:06:58.796Z</time></trkpt><trkpt lat="43.8054152" lon="12.3688153"><ele>637.6666666666666</ele><time>2026-05-02T06:06:59.808Z</time></trkpt><trkpt lat="43.8052972" lon="12.3686674"><ele>638.0</ele><time>2026-05-02T06:07:00.801Z</time></trkpt><trkpt lat="43.8051775" lon="12.3685234"><ele>640.0</ele><time>2026-05-02T06:07:01.808Z</time></trkpt><trkpt lat="43.805058" lon="12.3683757"><ele>642.0</ele><time>2026-05-02T06:07:02.8Z</time></trkpt><trkpt lat="43.8049372" lon="12.3682266"><ele>644.0</ele><time>2026-05-02T06:07:03.809Z</time></trkpt><trkpt lat="43.8048129" lon="12.3680715"><ele>645.6666666666666</ele><time>2026-05-02T06:07:04.796Z</time></trkpt><trkpt lat="43.8046945" lon="12.3679159"><ele>647.3333333333334</ele><time>2026-05-02T06:07:05.798Z</time></trkpt><trkpt lat="43.804572" lon="12.3677652"><ele>649.0</ele><time>2026-05-02T06:07:06.804Z</time></trkpt><trkpt lat="43.8044482" lon="12.3676165"><ele>649.3333333333334</ele><time>2026-05-02T06:07:07.802Z</time></trkpt><trkpt lat="43.8043227" lon="12.3674713"><ele>649.6666666666666</ele><time>2026-05-02T06:07:08.802Z</time></trkpt><trkpt lat="43.8041976" lon="12.367322"><ele>650.0</ele><time>2026-05-02T06:07:09.801Z</time></trkpt><trkpt lat="43.8040703" lon="12.3671701"><ele>652.3333333333333</ele><time>2026-05-02T06:07:10.809Z</time></trkpt><trkpt lat="43.8039433" lon="12.3670095"><ele>654.6666666666666</ele><time>2026-05-02T06:07:11.804Z</time></trkpt><trkpt lat="43.8038157" lon="12.3668419"><ele>657.0</ele><time>2026-05-02T06:07:12.799Z</time></trkpt><trkpt lat="43.8036877" lon="12.3666718"><ele>657.0</ele><time>2026-05-02T06:07:13.795Z</time></trkpt><trkpt lat="43.8035681" lon="12.3664888"><ele>657.0</ele><time>2026-05-02T06:07:14.802Z</time></trkpt><trkpt lat="43.8034534" lon="12.3662949"><ele>657.0</ele><time>2026-05-02T06:07:15.812Z</time></trkpt><trkpt lat="43.8033403" lon="12.3660994"><ele>660.0</ele><time>2026-05-02T06:07:16.796Z</time></trkpt><trkpt lat="43.8032277" lon="12.3659146"><ele>663.0</ele><time>2026-05-02T06:07:17.797Z</time></trkpt><trkpt lat="43.8031198" lon="12.3657296"><ele>666.0</ele><time>2026-05-02T06:07:18.805Z</time></trkpt><trkpt lat="43.8030138" lon="12.3655409"><ele>668.0</ele><time>2026-05-02T06:07:19.802Z</time></trkpt><trkpt lat="43.8029032" lon="12.3653529"><ele>670.0</ele><time>2026-05-02T06:07:20.801Z</time></trkpt><trkpt lat="43.802777" lon="12.365179"><ele>672.0</ele><time>2026-05-02T06:07:21.82Z</time></trkpt><trkpt lat="43.8026446" lon="12.3650056"><ele>672.0</ele><time>2026-05-02T06:07:22.802Z</time></trkpt><trkpt lat="43.8025095" lon="12.364838"><ele>672.0</ele><time>2026-05-02T06:07:23.808Z</time></trkpt><trkpt lat="43.8023762" lon="12.3646798"><ele>672.0</ele><time>2026-05-02T06:07:24.806Z</time></trkpt><trkpt lat="43.8022469" lon="12.3645197"><ele>674.6666666666666</ele><time>2026-05-02T06:07:25.811Z</time></trkpt><trkpt lat="43.8021305" lon="12.3643481"><ele>677.3333333333333</ele><time>2026-05-02T06:07:26.801Z</time></trkpt><trkpt lat="43.8020337" lon="12.3641589"><ele>680.0</ele><time>2026-05-02T06:07:27.808Z</time></trkpt><trkpt lat="43.8019514" lon="12.3639673"><ele>681.5</ele><time>2026-05-02T06:07:28.795Z</time></trkpt><trkpt lat="43.8018765" lon="12.3637796"><ele>683.0</ele><time>2026-05-02T06:07:29.809Z</time></trkpt><trkpt lat="43.8018097" lon="12.3636088"><ele>684.5</ele><time>2026-05-02T06:07:30.806Z</time></trkpt><trkpt lat="43.8017385" lon="12.3634636"><ele>686.0</ele><time>2026-05-02T06:07:31.808Z</time></trkpt><trkpt lat="43.8016541" lon="12.3633407"><ele>686.0</ele><time>2026-05-02T06:07:32.808Z</time></trkpt><trkpt lat="43.8015384" lon="12.3632385"><ele>686.0</ele><time>2026-05-02T06:07:33.817Z</time></trkpt><trkpt lat="43.8013869" lon="12.3631458"><ele>686.0</ele><time>2026-05-02T06:07:34.798Z</time></trkpt><trkpt lat="43.8012274" lon="12.3630612"><ele>687.6666666666666</ele><time>2026-05-02T06:07:35.799Z</time></trkpt><trkpt lat="43.8010633" lon="12.3629701"><ele>689.3333333333334</ele><time>2026-05-02T06:07:36.796Z</time></trkpt><trkpt lat="43.8009034" lon="12.3628702"><ele>691.0</ele><time>2026-05-02T06:07:37.814Z</time></trkpt><trkpt lat="43.8007427" lon="12.3627755"><ele>691.0</ele><time>2026-05-02T06:07:38.801Z</time></trkpt><trkpt lat="43.8005798" lon="12.3626799"><ele>691.0</ele><time>2026-05-02T06:07:39.805Z</time></trkpt><trkpt lat="43.8004165" lon="12.3625971"><ele>691.0</ele><time>2026-05-02T06:07:40.814Z</time></trkpt><trkpt lat="43.8002595" lon="12.3625075"><ele>692.0</ele><time>2026-05-02T06:07:41.803Z</time></trkpt><trkpt lat="43.8001067" lon="12.3624155"><ele>693.0</ele><time>2026-05-02T06:07:42.808Z</time></trkpt><trkpt lat="43.7999636" lon="12.362323"><ele>694.0</ele><time>2026-05-02T06:07:43.815Z</time></trkpt><trkpt lat="43.799832" lon="12.3622419"><ele>694.0</ele><time>2026-05-02T06:07:44.8Z</time></trkpt><trkpt lat="43.7997085" lon="12.3621729"><ele>694.0</ele><time>2026-05-02T06:07:45.808Z</time></trkpt><trkpt lat="43.799595" lon="12.362131"><ele>694.0</ele><time>2026-05-02T06:07:46.804Z</time></trkpt><trkpt lat="43.7994729" lon="12.3621506"><ele>694.0</ele><time>2026-05-02T06:07:47.822Z</time></trkpt><trkpt lat="43.7993614" lon="12.362222"><ele>696.25</ele><time>2026-05-02T06:07:48.807Z</time></trkpt><trkpt lat="43.7992685" lon="12.362349"><ele>698.5</ele><time>2026-05-02T06:07:49.803Z</time></trkpt><trkpt lat="43.7991886" lon="12.3625004"><ele>700.75</ele><time>2026-05-02T06:07:50.799Z</time></trkpt><trkpt lat="43.7991034" lon="12.362659"><ele>703.0</ele><time>2026-05-02T06:07:51.808Z</time></trkpt><trkpt lat="43.7989997" lon="12.3628083"><ele>703.0</ele><time>2026-05-02T06:07:52.799Z</time></trkpt><trkpt lat="43.7988783" lon="12.3629383"><ele>703.0</ele><time>2026-05-02T06:07:53.795Z</time></trkpt><trkpt lat="43.7987377" lon="12.3630525"><ele>703.0</ele><time>2026-05-02T06:07:54.802Z</time></trkpt><trkpt lat="43.7985952" lon="12.363143"><ele>706.0</ele><time>2026-05-02T06:07:55.806Z</time></trkpt><trkpt lat="43.7984452" lon="12.3631949"><ele>709.0</ele><time>2026-05-02T06:07:56.798Z</time></trkpt><trkpt lat="43.7982897" lon="12.3632197"><ele>712.0</ele><time>2026-05-02T06:07:57.805Z</time></trkpt><trkpt lat="43.7981304" lon="12.3632422"><ele>712.0</ele><time>2026-05-02T06:07:58.808Z</time></trkpt><trkpt lat="43.7979729" lon="12.3632865"><ele>712.0</ele><time>2026-05-02T06:07:59.818Z</time></trkpt><trkpt lat="43.7978235" lon="12.3633556"><ele>712.0</ele><time>2026-05-02T06:08:00.8Z</time></trkpt><trkpt lat="43.7976755" lon="12.3634342"><ele>714.0</ele><time>2026-05-02T06:08:01.818Z</time></trkpt><trkpt lat="43.7975349" lon="12.363504"><ele>716.0</ele><time>2026-05-02T06:08:02.808Z</time></trkpt><trkpt lat="43.7974124" lon="12.3635824"><ele>718.0</ele><time>2026-05-02T06:08:03.814Z</time></trkpt><trkpt lat="43.7973116" lon="12.3636966"><ele>720.0</ele><time>2026-05-02T06:08:04.809Z</time></trkpt><trkpt lat="43.7972322" lon="12.3638378"><ele>718.5</ele><time>2026-05-02T06:08:05.805Z</time></trkpt><trkpt lat="43.7971745" lon="12.3640135"><ele>717.0</ele><time>2026-05-02T06:08:06.79Z</time></trkpt><trkpt lat="43.7971386" lon="12.364196"><ele>715.5</ele><time>2026-05-02T06:08:07.804Z</time></trkpt><trkpt lat="43.797136" lon="12.3643903"><ele>714.0</ele><time>2026-05-02T06:08:08.791Z</time></trkpt><trkpt lat="43.7971628" lon="12.364584"><ele>714.25</ele><time>2026-05-02T06:08:09.808Z</time></trkpt><trkpt lat="43.7971856" lon="12.3647624"><ele>714.5</ele><time>2026-05-02T06:08:10.797Z</time></trkpt><trkpt lat="43.7971881" lon="12.3649313"><ele>714.75</ele><time>2026-05-02T06:08:11.793Z</time></trkpt><trkpt lat="43.7971513" lon="12.3650996"><ele>715.0</ele><time>2026-05-02T06:08:12.799Z</time></trkpt><trkpt lat="43.7970975" lon="12.3652721"><ele>715.0</ele><time>2026-05-02T06:08:13.794Z</time></trkpt><trkpt lat="43.7970411" lon="12.3654541"><ele>715.0</ele><time>2026-05-02T06:08:14.799Z</time></trkpt><trkpt lat="43.7969851" lon="12.365647"><ele>715.0</ele><time>2026-05-02T06:08:15.798Z</time></trkpt><trkpt lat="43.7969283" lon="12.3658357"><ele>715.0</ele><time>2026-05-02T06:08:16.803Z</time></trkpt><trkpt lat="43.796876" lon="12.3660103"><ele>716.4</ele><time>2026-05-02T06:08:17.81Z</time></trkpt><trkpt lat="43.7968191" lon="12.3661619"><ele>717.8</ele><time>2026-05-02T06:08:18.8Z</time></trkpt><trkpt lat="43.7967584" lon="12.3662826"><ele>719.2</ele><time>2026-05-02T06:08:19.799Z</time></trkpt><trkpt lat="43.7966894" lon="12.3663638"><ele>720.6</ele><time>2026-05-02T06:08:20.8Z</time></trkpt><trkpt lat="43.7966109" lon="12.366392"><ele>722.0</ele><time>2026-05-02T06:08:21.809Z</time></trkpt><trkpt lat="43.796522" lon="12.3663594"><ele>723.25</ele><time>2026-05-02T06:08:22.795Z</time></trkpt><trkpt lat="43.7964294" lon="12.3662927"><ele>724.5</ele><time>2026-05-02T06:08:23.811Z</time></trkpt><trkpt lat="43.7963548" lon="12.3661805"><ele>725.75</ele><time>2026-05-02T06:08:24.801Z</time></trkpt><trkpt lat="43.7962766" lon="12.3660542"><ele>727.0</ele><time>2026-05-02T06:08:25.796Z</time></trkpt><trkpt lat="43.7961967" lon="12.3659279"><ele>727.0</ele><time>2026-05-02T06:08:26.811Z</time></trkpt><trkpt lat="43.7961073" lon="12.3658019"><ele>727.0</ele><time>2026-05-02T06:08:27.802Z</time></trkpt><trkpt lat="43.7960143" lon="12.3656751"><ele>727.0</ele><time>2026-05-02T06:08:28.799Z</time></trkpt><trkpt lat="43.795913" lon="12.3655555"><ele>727.0</ele><time>2026-05-02T06:08:29.832Z</time></trkpt><trkpt lat="43.7957998" lon="12.3654508"><ele>729.25</ele><time>2026-05-02T06:08:30.796Z</time></trkpt><trkpt lat="43.7956709" lon="12.365368"><ele>731.5</ele><time>2026-05-02T06:08:31.825Z</time></trkpt><trkpt lat="43.7955269" lon="12.3653002"><ele>733.75</ele><time>2026-05-02T06:08:32.798Z</time></trkpt><trkpt lat="43.7953862" lon="12.365228"><ele>736.0</ele><time>2026-05-02T06:08:33.803Z</time></trkpt><trkpt lat="43.7952441" lon="12.3651498"><ele>734.3333333333334</ele><time>2026-05-02T06:08:34.806Z</time></trkpt><trkpt lat="43.7950977" lon="12.3650701"><ele>732.6666666666666</ele><time>2026-05-02T06:08:35.806Z</time></trkpt><trkpt lat="43.794954" lon="12.3649923"><ele>731.0</ele><time>2026-05-02T06:08:36.803Z</time></trkpt><trkpt lat="43.7948094" lon="12.3649181"><ele>731.0</ele><time>2026-05-02T06:08:37.808Z</time></trkpt><trkpt lat="43.7946645" lon="12.3648523"><ele>731.0</ele><time>2026-05-02T06:08:38.805Z</time></trkpt><trkpt lat="43.7945137" lon="12.3648198"><ele>731.0</ele><time>2026-05-02T06:08:39.81Z</time></trkpt><trkpt lat="43.7943612" lon="12.3648006"><ele>730.3333333333333</ele><time>2026-05-02T06:08:40.804Z</time></trkpt><trkpt lat="43.7942017" lon="12.3647981"><ele>729.6666666666666</ele><time>2026-05-02T06:08:41.802Z</time></trkpt><trkpt lat="43.7940415" lon="12.3648186"><ele>729.0</ele><time>2026-05-02T06:08:42.8Z</time></trkpt><trkpt lat="43.7938806" lon="12.3648709"><ele>729.0</ele><time>2026-05-02T06:08:43.803Z</time></trkpt><trkpt lat="43.793722" lon="12.3649484"><ele>729.0</ele><time>2026-05-02T06:08:44.797Z</time></trkpt><trkpt lat="43.7935656" lon="12.3650308"><ele>729.0</ele><time>2026-05-02T06:08:45.796Z</time></trkpt><trkpt lat="43.7934058" lon="12.365101"><ele>731.6666666666666</ele><time>2026-05-02T06:08:46.796Z</time></trkpt><trkpt lat="43.7932518" lon="12.3651639"><ele>734.3333333333333</ele><time>2026-05-02T06:08:47.801Z</time></trkpt><trkpt lat="43.7931068" lon="12.3652442"><ele>737.0</ele><time>2026-05-02T06:08:48.799Z</time></trkpt><trkpt lat="43.7929738" lon="12.36534"><ele>737.0</ele><time>2026-05-02T06:08:49.798Z</time></trkpt><trkpt lat="43.7928552" lon="12.3654783"><ele>737.0</ele><time>2026-05-02T06:08:50.79Z</time></trkpt><trkpt lat="43.792756" lon="12.3656356"><ele>737.0</ele><time>2026-05-02T06:08:51.805Z</time></trkpt><trkpt lat="43.7926635" lon="12.365799"><ele>739.25</ele><time>2026-05-02T06:08:52.796Z</time></trkpt><trkpt lat="43.7925731" lon="12.3659578"><ele>741.5</ele><time>2026-05-02T06:08:53.799Z</time></trkpt><trkpt lat="43.7924828" lon="12.3660953"><ele>743.75</ele><time>2026-05-02T06:08:54.793Z</time></trkpt><trkpt lat="43.792394" lon="12.3662206"><ele>746.0</ele><time>2026-05-02T06:08:55.792Z</time></trkpt><trkpt lat="43.7923149" lon="12.3663294"><ele>744.6666666666666</ele><time>2026-05-02T06:08:56.806Z</time></trkpt><trkpt lat="43.7922434" lon="12.3664108"><ele>743.3333333333333</ele><time>2026-05-02T06:08:57.795Z</time></trkpt><trkpt lat="43.7921688" lon="12.3664765"><ele>742.0</ele><time>2026-05-02T06:08:58.796Z</time></trkpt><trkpt lat="43.7920923" lon="12.3665041"><ele>740.6666666666666</ele><time>2026-05-02T06:08:59.786Z</time></trkpt><trkpt lat="43.7919882" lon="12.3664687"><ele>739.3333333333334</ele><time>2026-05-02T06:09:01.793Z</time></trkpt><trkpt lat="43.7919231" lon="12.3664718"><ele>738.0</ele><time>2026-05-02T06:09:03.813Z</time></trkpt><trkpt lat="43.7919083" lon="12.3665786"><ele>738.0</ele><time>2026-05-02T06:09:06.79Z</time></trkpt><trkpt lat="43.7919004" lon="12.3666947"><ele>738.0</ele><time>2026-05-02T06:09:08.807Z</time></trkpt><trkpt lat="43.7918729" lon="12.3668622"><ele>738.0</ele><time>2026-05-02T06:09:10.809Z</time></trkpt><trkpt lat="43.7918522" lon="12.3669588"><ele>738.0</ele><time>2026-05-02T06:09:11.812Z</time></trkpt><trkpt lat="43.7918306" lon="12.3670546"><ele>738.0</ele><time>2026-05-02T06:09:12.802Z</time></trkpt><trkpt lat="43.7918078" lon="12.3671636"><ele>738.0</ele><time>2026-05-02T06:09:13.818Z</time></trkpt><trkpt lat="43.7917878" lon="12.3672696"><ele>737.6666666666666</ele><time>2026-05-02T06:09:14.803Z</time></trkpt><trkpt lat="43.7917649" lon="12.3673625"><ele>737.3333333333334</ele><time>2026-05-02T06:09:15.812Z</time></trkpt><trkpt lat="43.7917399" lon="12.3674882"><ele>737.0</ele><time>2026-05-02T06:09:17.808Z</time></trkpt><trkpt lat="43.7917269" lon="12.3675823"><ele>736.6666666666667</ele><time>2026-05-02T06:13:10.804Z</time></trkpt><trkpt lat="43.7917175" lon="12.3676747"><ele>736.3333333333334</ele><time>2026-05-02T06:13:12.809Z</time></trkpt><trkpt lat="43.7917033" lon="12.3678073"><ele>736.0</ele><time>2026-05-02T06:13:14.824Z</time></trkpt><trkpt lat="43.7916842" lon="12.3678959"><ele>736.0</ele><time>2026-05-02T06:13:15.826Z</time></trkpt><trkpt lat="43.7916515" lon="12.368005"><ele>736.0</ele><time>2026-05-02T06:13:16.815Z</time></trkpt><trkpt lat="43.7916023" lon="12.3681246"><ele>736.0</ele><time>2026-05-02T06:13:17.823Z</time></trkpt><trkpt lat="43.7915514" lon="12.3682453"><ele>736.0</ele><time>2026-05-02T06:13:18.822Z</time></trkpt><trkpt lat="43.7914938" lon="12.3683723"><ele>736.0</ele><time>2026-05-02T06:13:19.828Z</time></trkpt><trkpt lat="43.7914323" lon="12.3685046"><ele>735.5999999999999</ele><time>2026-05-02T06:13:20.812Z</time></trkpt><trkpt lat="43.7913743" lon="12.3686429"><ele>735.2</ele><time>2026-05-02T06:13:21.815Z</time></trkpt><trkpt lat="43.7913227" lon="12.3687758"><ele>734.8</ele><time>2026-05-02T06:13:22.814Z</time></trkpt><trkpt lat="43.7912773" lon="12.3688938"><ele>734.4000000000001</ele><time>2026-05-02T06:13:23.813Z</time></trkpt><trkpt lat="43.7912329" lon="12.369008"><ele>734.0</ele><time>2026-05-02T06:13:24.808Z</time></trkpt><trkpt lat="43.7911825" lon="12.3691253"><ele>732.0</ele><time>2026-05-02T06:13:25.795Z</time></trkpt><trkpt lat="43.7911222" lon="12.3692529"><ele>730.0</ele><time>2026-05-02T06:13:26.808Z</time></trkpt><trkpt lat="43.791052" lon="12.3693945"><ele>728.0</ele><time>2026-05-02T06:13:27.802Z</time></trkpt><trkpt lat="43.7909776" lon="12.3695461"><ele>726.0</ele><time>2026-05-02T06:13:28.804Z</time></trkpt><trkpt lat="43.7908941" lon="12.3697013"><ele>725.25</ele><time>2026-05-02T06:13:29.801Z</time></trkpt><trkpt lat="43.7908106" lon="12.3698555"><ele>724.5</ele><time>2026-05-02T06:13:30.809Z</time></trkpt><trkpt lat="43.7907271" lon="12.37"><ele>723.75</ele><time>2026-05-02T06:13:31.796Z</time></trkpt><trkpt lat="43.7906461" lon="12.3701271"><ele>723.0</ele><time>2026-05-02T06:13:32.793Z</time></trkpt><trkpt lat="43.7905767" lon="12.37025"><ele>723.0</ele><time>2026-05-02T06:13:33.809Z</time></trkpt><trkpt lat="43.7905264" lon="12.3703777"><ele>723.0</ele><time>2026-05-02T06:13:34.794Z</time></trkpt><trkpt lat="43.790497" lon="12.3705188"><ele>723.0</ele><time>2026-05-02T06:13:35.802Z</time></trkpt><trkpt lat="43.7904916" lon="12.3706683"><ele>723.0</ele><time>2026-05-02T06:13:36.79Z</time></trkpt><trkpt lat="43.7904998" lon="12.3708242"><ele>723.0</ele><time>2026-05-02T06:13:37.815Z</time></trkpt><trkpt lat="43.790521" lon="12.3709847"><ele>723.0</ele><time>2026-05-02T06:13:38.796Z</time></trkpt><trkpt lat="43.7905456" lon="12.3711481"><ele>723.0</ele><time>2026-05-02T06:13:39.817Z</time></trkpt><trkpt lat="43.7905686" lon="12.3713173"><ele>723.0</ele><time>2026-05-02T06:13:40.789Z</time></trkpt><trkpt lat="43.7905789" lon="12.3714877"><ele>723.0</ele><time>2026-05-02T06:13:41.807Z</time></trkpt><trkpt lat="43.7905757" lon="12.371638"><ele>723.0</ele><time>2026-05-02T06:13:42.796Z</time></trkpt><trkpt lat="43.7905651" lon="12.3717807"><ele>723.0</ele><time>2026-05-02T06:13:43.798Z</time></trkpt><trkpt lat="43.7905422" lon="12.3719182"><ele>723.0</ele><time>2026-05-02T06:13:44.792Z</time></trkpt><trkpt lat="43.7905014" lon="12.3720479"><ele>723.0</ele><time>2026-05-02T06:13:45.829Z</time></trkpt><trkpt lat="43.7904377" lon="12.3721623"><ele>723.0</ele><time>2026-05-02T06:13:46.794Z</time></trkpt><trkpt lat="43.7903526" lon="12.3722659"><ele>723.4</ele><time>2026-05-02T06:13:47.802Z</time></trkpt><trkpt lat="43.7902618" lon="12.3723647"><ele>723.8</ele><time>2026-05-02T06:13:48.805Z</time></trkpt><trkpt lat="43.79018" lon="12.3724419"><ele>724.2</ele><time>2026-05-02T06:13:49.819Z</time></trkpt><trkpt lat="43.7900957" lon="12.3725149"><ele>724.6</ele><time>2026-05-02T06:13:50.808Z</time></trkpt><trkpt lat="43.7900062" lon="12.3725751"><ele>725.0</ele><time>2026-05-02T06:13:51.79Z</time></trkpt><trkpt lat="43.7899164" lon="12.3726056"><ele>728.4</ele><time>2026-05-02T06:13:52.798Z</time></trkpt><trkpt lat="43.7898233" lon="12.3726132"><ele>731.8</ele><time>2026-05-02T06:13:53.809Z</time></trkpt><trkpt lat="43.7897258" lon="12.3726288"><ele>735.2</ele><time>2026-05-02T06:13:54.796Z</time></trkpt><trkpt lat="43.7896347" lon="12.3726718"><ele>738.6</ele><time>2026-05-02T06:13:55.824Z</time></trkpt><trkpt lat="43.7895531" lon="12.3727494"><ele>742.0</ele><time>2026-05-02T06:13:56.804Z</time></trkpt><trkpt lat="43.7894724" lon="12.3728304"><ele>742.0</ele><time>2026-05-02T06:13:57.827Z</time></trkpt><trkpt lat="43.7893838" lon="12.3729034"><ele>742.0</ele><time>2026-05-02T06:13:58.801Z</time></trkpt><trkpt lat="43.7892869" lon="12.372962"><ele>742.0</ele><time>2026-05-02T06:13:59.826Z</time></trkpt><trkpt lat="43.7891917" lon="12.373015"><ele>742.0</ele><time>2026-05-02T06:14:00.796Z</time></trkpt><trkpt lat="43.7891024" lon="12.3730806"><ele>742.0</ele><time>2026-05-02T06:14:01.813Z</time></trkpt><trkpt lat="43.7890284" lon="12.3731652"><ele>745.2</ele><time>2026-05-02T06:14:02.8Z</time></trkpt><trkpt lat="43.7889598" lon="12.3732573"><ele>748.4000000000001</ele><time>2026-05-02T06:14:03.808Z</time></trkpt><trkpt lat="43.7888808" lon="12.3733443"><ele>751.5999999999999</ele><time>2026-05-02T06:14:04.804Z</time></trkpt><trkpt lat="43.7887957" lon="12.3734173"><ele>754.8</ele><time>2026-05-02T06:14:05.821Z</time></trkpt><trkpt lat="43.7887124" lon="12.3734998"><ele>758.0</ele><time>2026-05-02T06:14:06.8Z</time></trkpt><trkpt lat="43.7886388" lon="12.3735986"><ele>758.0</ele><time>2026-05-02T06:14:07.791Z</time></trkpt><trkpt lat="43.7885942" lon="12.3736993"><ele>758.0</ele><time>2026-05-02T06:14:08.783Z</time></trkpt><trkpt lat="43.7885577" lon="12.3737965"><ele>758.0</ele><time>2026-05-02T06:14:09.783Z</time></trkpt><trkpt lat="43.7885456" lon="12.3739171"><ele>758.0</ele><time>2026-05-02T06:14:10.777Z</time></trkpt><trkpt lat="43.7884926" lon="12.3740234"><ele>758.0</ele><time>2026-05-02T06:14:11.777Z</time></trkpt><trkpt lat="43.7884655" lon="12.3741348"><ele>758.0</ele><time>2026-05-02T06:14:12.77Z</time></trkpt><trkpt lat="43.7884273" lon="12.3742461"><ele>757.4</ele><time>2026-05-02T06:14:13.776Z</time></trkpt><trkpt lat="43.7884005" lon="12.3743729"><ele>756.8</ele><time>2026-05-02T06:14:14.776Z</time></trkpt><trkpt lat="43.7883919" lon="12.3744819"><ele>756.2</ele><time>2026-05-02T06:14:15.79Z</time></trkpt><trkpt lat="43.7884003" lon="12.3746139"><ele>755.6</ele><time>2026-05-02T06:14:16.778Z</time></trkpt><trkpt lat="43.7884004" lon="12.3747633"><ele>755.0</ele><time>2026-05-02T06:14:17.811Z</time></trkpt><trkpt lat="43.7884578" lon="12.3748757"><ele>760.0</ele><time>2026-05-02T06:14:18.785Z</time></trkpt><trkpt lat="43.7885209" lon="12.375003"><ele>765.0</ele><time>2026-05-02T06:14:19.782Z</time></trkpt><trkpt lat="43.7885613" lon="12.375144"><ele>770.0</ele><time>2026-05-02T06:14:20.793Z</time></trkpt><trkpt lat="43.7885928" lon="12.375295"><ele>775.0</ele><time>2026-05-02T06:14:21.788Z</time></trkpt><trkpt lat="43.7886187" lon="12.3754603"><ele>773.5</ele><time>2026-05-02T06:14:22.8Z</time></trkpt><trkpt lat="43.7886539" lon="12.3756365"><ele>772.0</ele><time>2026-05-02T06:14:23.796Z</time></trkpt><trkpt lat="43.7886885" lon="12.3757993"><ele>770.5</ele><time>2026-05-02T06:14:24.8Z</time></trkpt><trkpt lat="43.7887136" lon="12.3759533"><ele>769.0</ele><time>2026-05-02T06:14:25.8Z</time></trkpt><trkpt lat="43.7887172" lon="12.3761254"><ele>769.0</ele><time>2026-05-02T06:14:26.802Z</time></trkpt><trkpt lat="43.7887191" lon="12.3763035"><ele>769.0</ele><time>2026-05-02T06:14:27.803Z</time></trkpt><trkpt lat="43.7887145" lon="12.3764721"><ele>769.0</ele><time>2026-05-02T06:14:28.808Z</time></trkpt><trkpt lat="43.7887161" lon="12.3766402"><ele>769.0</ele><time>2026-05-02T06:14:29.84Z</time></trkpt><trkpt lat="43.7887226" lon="12.376801"><ele>767.75</ele><time>2026-05-02T06:14:30.816Z</time></trkpt><trkpt lat="43.788727" lon="12.3769697"><ele>766.5</ele><time>2026-05-02T06:14:31.812Z</time></trkpt><trkpt lat="43.7887414" lon="12.3771464"><ele>765.25</ele><time>2026-05-02T06:14:32.807Z</time></trkpt><trkpt lat="43.7887705" lon="12.3773151"><ele>764.0</ele><time>2026-05-02T06:14:33.813Z</time></trkpt><trkpt lat="43.7888133" lon="12.377454"><ele>763.8000000000001</ele><time>2026-05-02T06:14:34.796Z</time></trkpt><trkpt lat="43.7888584" lon="12.3775788"><ele>763.6</ele><time>2026-05-02T06:14:35.814Z</time></trkpt><trkpt lat="43.7888874" lon="12.3776992"><ele>763.4</ele><time>2026-05-02T06:14:36.802Z</time></trkpt><trkpt lat="43.7888968" lon="12.377826"><ele>763.2</ele><time>2026-05-02T06:14:37.815Z</time></trkpt><trkpt lat="43.78888" lon="12.3779582"><ele>763.0</ele><time>2026-05-02T06:14:38.809Z</time></trkpt><trkpt lat="43.788847" lon="12.3780812"><ele>762.0</ele><time>2026-05-02T06:14:39.807Z</time></trkpt><trkpt lat="43.7887967" lon="12.3781957"><ele>761.0</ele><time>2026-05-02T06:14:40.815Z</time></trkpt><trkpt lat="43.7887276" lon="12.3782911"><ele>760.0</ele><time>2026-05-02T06:14:41.822Z</time></trkpt><trkpt lat="43.7886577" lon="12.3783603"><ele>759.0</ele><time>2026-05-02T06:14:42.805Z</time></trkpt><trkpt lat="43.7885966" lon="12.3784354"><ele>758.0</ele><time>2026-05-02T06:14:43.827Z</time></trkpt><trkpt lat="43.7885381" lon="12.3785401"><ele>757.25</ele><time>2026-05-02T06:14:44.824Z</time></trkpt><trkpt lat="43.7884816" lon="12.3786784"><ele>756.5</ele><time>2026-05-02T06:14:45.819Z</time></trkpt><trkpt lat="43.7884243" lon="12.3788345"><ele>755.75</ele><time>2026-05-02T06:14:46.797Z</time></trkpt><trkpt lat="43.7883585" lon="12.3789913"><ele>755.0</ele><time>2026-05-02T06:14:47.818Z</time></trkpt><trkpt lat="43.7882913" lon="12.3791592"><ele>756.5</ele><time>2026-05-02T06:14:48.806Z</time></trkpt><trkpt lat="43.7882234" lon="12.3793293"><ele>758.0</ele><time>2026-05-02T06:14:49.8Z</time></trkpt><trkpt lat="43.7881527" lon="12.3795067"><ele>759.5</ele><time>2026-05-02T06:14:50.811Z</time></trkpt><trkpt lat="43.7880804" lon="12.3796876"><ele>761.0</ele><time>2026-05-02T06:14:51.815Z</time></trkpt><trkpt lat="43.7880091" lon="12.3798676"><ele>761.75</ele><time>2026-05-02T06:14:52.808Z</time></trkpt><trkpt lat="43.7879371" lon="12.3800528"><ele>762.5</ele><time>2026-05-02T06:14:53.817Z</time></trkpt><trkpt lat="43.7878603" lon="12.3802344"><ele>763.25</ele><time>2026-05-02T06:14:54.804Z</time></trkpt><trkpt lat="43.7877895" lon="12.3804107"><ele>764.0</ele><time>2026-05-02T06:14:55.809Z</time></trkpt><trkpt lat="43.7877256" lon="12.3805897"><ele>761.0</ele><time>2026-05-02T06:14:56.797Z</time></trkpt><trkpt lat="43.7876655" lon="12.3807656"><ele>758.0</ele><time>2026-05-02T06:14:57.809Z</time></trkpt><trkpt lat="43.7875916" lon="12.3809267"><ele>755.0</ele><time>2026-05-02T06:14:58.803Z</time></trkpt><trkpt lat="43.7875119" lon="12.3810824"><ele>752.0</ele><time>2026-05-02T06:14:59.8Z</time></trkpt><trkpt lat="43.7874454" lon="12.3812175"><ele>752.0</ele><time>2026-05-02T06:15:00.803Z</time></trkpt><trkpt lat="43.7873983" lon="12.3813143"><ele>752.0</ele><time>2026-05-02T06:15:01.807Z</time></trkpt><trkpt lat="43.787374" lon="12.3813964"><ele>752.0</ele><time>2026-05-02T06:15:02.798Z</time></trkpt><trkpt lat="43.7873693" lon="12.3815575"><ele>752.0</ele><time>2026-05-02T06:15:04.799Z</time></trkpt><trkpt lat="43.7873795" lon="12.3817202"><ele>752.0</ele><time>2026-05-02T06:15:06.801Z</time></trkpt><trkpt lat="43.787394" lon="12.3818148"><ele>752.0</ele><time>2026-05-02T06:15:07.815Z</time></trkpt><trkpt lat="43.7874002" lon="12.3819171"><ele>752.0</ele><time>2026-05-02T06:15:08.792Z</time></trkpt><trkpt lat="43.7873882" lon="12.3820284"><ele>752.0</ele><time>2026-05-02T06:15:09.817Z</time></trkpt><trkpt lat="43.7873537" lon="12.3821458"><ele>752.0</ele><time>2026-05-02T06:15:10.797Z</time></trkpt><trkpt lat="43.7873029" lon="12.3822749"><ele>752.0</ele><time>2026-05-02T06:15:11.804Z</time></trkpt><trkpt lat="43.7872534" lon="12.3824083"><ele>752.0</ele><time>2026-05-02T06:15:12.794Z</time></trkpt><trkpt lat="43.787203" lon="12.3825268"><ele>752.0</ele><time>2026-05-02T06:15:13.818Z</time></trkpt><trkpt lat="43.7871477" lon="12.3826187"><ele>752.0</ele><time>2026-05-02T06:15:14.795Z</time></trkpt><trkpt lat="43.7870868" lon="12.382684"><ele>752.0</ele><time>2026-05-02T06:15:15.809Z</time></trkpt><trkpt lat="43.7870184" lon="12.3827367"><ele>752.0</ele><time>2026-05-02T06:15:16.809Z</time></trkpt><trkpt lat="43.7869429" lon="12.3827733"><ele>752.0</ele><time>2026-05-02T06:15:17.793Z</time></trkpt><trkpt lat="43.7868646" lon="12.3827981"><ele>749.1666666666666</ele><time>2026-05-02T06:15:18.813Z</time></trkpt><trkpt lat="43.7867848" lon="12.3828262"><ele>746.3333333333333</ele><time>2026-05-02T06:15:19.804Z</time></trkpt><trkpt lat="43.786717" lon="12.3828738"><ele>743.5</ele><time>2026-05-02T06:15:20.795Z</time></trkpt><trkpt lat="43.7866746" lon="12.3829488"><ele>740.6666666666666</ele><time>2026-05-02T06:15:21.795Z</time></trkpt><trkpt lat="43.7866631" lon="12.3830482"><ele>737.8333333333334</ele><time>2026-05-02T06:15:22.8Z</time></trkpt><trkpt lat="43.7866768" lon="12.3831607"><ele>735.0</ele><time>2026-05-02T06:15:23.807Z</time></trkpt><trkpt lat="43.7867025" lon="12.3832802"><ele>735.0</ele><time>2026-05-02T06:15:24.789Z</time></trkpt><trkpt lat="43.7867409" lon="12.3834004"><ele>735.0</ele><time>2026-05-02T06:15:25.8Z</time></trkpt><trkpt lat="43.7867996" lon="12.3835026"><ele>735.0</ele><time>2026-05-02T06:15:26.803Z</time></trkpt><trkpt lat="43.786868" lon="12.3835907"><ele>735.0</ele><time>2026-05-02T06:15:27.798Z</time></trkpt><trkpt lat="43.7869445" lon="12.3836688"><ele>735.0</ele><time>2026-05-02T06:15:28.802Z</time></trkpt><trkpt lat="43.7870161" lon="12.3837399"><ele>735.6</ele><time>2026-05-02T06:15:29.806Z</time></trkpt><trkpt lat="43.7870847" lon="12.3838066"><ele>736.2</ele><time>2026-05-02T06:15:30.796Z</time></trkpt><trkpt lat="43.7871585" lon="12.3838785"><ele>736.8</ele><time>2026-05-02T06:15:31.81Z</time></trkpt><trkpt lat="43.7872245" lon="12.3839827"><ele>737.4</ele><time>2026-05-02T06:15:32.787Z</time></trkpt><trkpt lat="43.7872794" lon="12.3840966"><ele>738.0</ele><time>2026-05-02T06:15:33.8Z</time></trkpt><trkpt lat="43.7873381" lon="12.3842074"><ele>738.0</ele><time>2026-05-02T06:15:34.799Z</time></trkpt><trkpt lat="43.7873852" lon="12.3843177"><ele>738.0</ele><time>2026-05-02T06:15:35.794Z</time></trkpt><trkpt lat="43.7874136" lon="12.384423"><ele>738.0</ele><time>2026-05-02T06:15:36.798Z</time></trkpt><trkpt lat="43.7874052" lon="12.3845558"><ele>738.0</ele><time>2026-05-02T06:15:37.804Z</time></trkpt><trkpt lat="43.7873671" lon="12.3847156"><ele>738.0</ele><time>2026-05-02T06:15:38.794Z</time></trkpt><trkpt lat="43.7873377" lon="12.384882"><ele>735.0</ele><time>2026-05-02T06:15:39.792Z</time></trkpt><trkpt lat="43.7872991" lon="12.3850218"><ele>732.0</ele><time>2026-05-02T06:15:40.796Z</time></trkpt><trkpt lat="43.7872394" lon="12.3851347"><ele>729.0</ele><time>2026-05-02T06:15:41.798Z</time></trkpt><trkpt lat="43.7871783" lon="12.3852078"><ele>726.0</ele><time>2026-05-02T06:15:42.804Z</time></trkpt><trkpt lat="43.7871099" lon="12.3852547"><ele>723.0</ele><time>2026-05-02T06:15:43.823Z</time></trkpt><trkpt lat="43.7870244" lon="12.3853013"><ele>723.0</ele><time>2026-05-02T06:15:44.802Z</time></trkpt><trkpt lat="43.7869402" lon="12.3853567"><ele>723.0</ele><time>2026-05-02T06:15:45.805Z</time></trkpt><trkpt lat="43.7868521" lon="12.3854228"><ele>723.0</ele><time>2026-05-02T06:15:46.792Z</time></trkpt><trkpt lat="43.7867773" lon="12.3855112"><ele>723.0</ele><time>2026-05-02T06:15:47.815Z</time></trkpt><trkpt lat="43.7867278" lon="12.3856228"><ele>723.0</ele><time>2026-05-02T06:15:48.791Z</time></trkpt><trkpt lat="43.786671" lon="12.3857413"><ele>719.4</ele><time>2026-05-02T06:15:49.812Z</time></trkpt><trkpt lat="43.7866055" lon="12.3858629"><ele>715.8</ele><time>2026-05-02T06:15:50.797Z</time></trkpt><trkpt lat="43.7865264" lon="12.3859448"><ele>712.2</ele><time>2026-05-02T06:15:51.807Z</time></trkpt><trkpt lat="43.7864347" lon="12.3860029"><ele>708.6</ele><time>2026-05-02T06:15:52.792Z</time></trkpt><trkpt lat="43.7863257" lon="12.3860308"><ele>705.0</ele><time>2026-05-02T06:15:53.812Z</time></trkpt><trkpt lat="43.7862174" lon="12.3860392"><ele>705.0</ele><time>2026-05-02T06:15:54.807Z</time></trkpt><trkpt lat="43.7861188" lon="12.3860583"><ele>705.0</ele><time>2026-05-02T06:15:55.812Z</time></trkpt><trkpt lat="43.7860244" lon="12.3860853"><ele>705.0</ele><time>2026-05-02T06:15:56.8Z</time></trkpt><trkpt lat="43.7859368" lon="12.3861256"><ele>705.0</ele><time>2026-05-02T06:15:57.803Z</time></trkpt><trkpt lat="43.78585" lon="12.3861863"><ele>705.0</ele><time>2026-05-02T06:15:58.792Z</time></trkpt><trkpt lat="43.7857673" lon="12.3862632"><ele>702.6</ele><time>2026-05-02T06:15:59.807Z</time></trkpt><trkpt lat="43.7856903" lon="12.3863532"><ele>700.2</ele><time>2026-05-02T06:16:00.806Z</time></trkpt><trkpt lat="43.7856232" lon="12.3864681"><ele>697.8</ele><time>2026-05-02T06:16:01.812Z</time></trkpt><trkpt lat="43.7855627" lon="12.3865991"><ele>695.4</ele><time>2026-05-02T06:16:02.806Z</time></trkpt><trkpt lat="43.7855072" lon="12.3867418"><ele>693.0</ele><time>2026-05-02T06:16:03.804Z</time></trkpt><trkpt lat="43.7854625" lon="12.3868872"><ele>693.0</ele><time>2026-05-02T06:16:04.799Z</time></trkpt><trkpt lat="43.7854344" lon="12.3870604"><ele>693.0</ele><time>2026-05-02T06:16:05.817Z</time></trkpt><trkpt lat="43.7854071" lon="12.3872577"><ele>693.0</ele><time>2026-05-02T06:16:06.808Z</time></trkpt><trkpt lat="43.785375" lon="12.3874596"><ele>693.0</ele><time>2026-05-02T06:16:07.813Z</time></trkpt><trkpt lat="43.7853463" lon="12.3876566"><ele>693.0</ele><time>2026-05-02T06:16:08.8Z</time></trkpt><trkpt lat="43.785328" lon="12.3878351"><ele>693.0</ele><time>2026-05-02T06:16:09.807Z</time></trkpt><trkpt lat="43.7853202" lon="12.3879978"><ele>693.0</ele><time>2026-05-02T06:16:10.807Z</time></trkpt><trkpt lat="43.7853254" lon="12.3881386"><ele>693.0</ele><time>2026-05-02T06:16:11.805Z</time></trkpt><trkpt lat="43.7853451" lon="12.3882614"><ele>693.0</ele><time>2026-05-02T06:16:12.811Z</time></trkpt><trkpt lat="43.7853946" lon="12.3883715"><ele>690.4</ele><time>2026-05-02T06:16:13.806Z</time></trkpt><trkpt lat="43.7854664" lon="12.3884469"><ele>687.8</ele><time>2026-05-02T06:16:14.799Z</time></trkpt><trkpt lat="43.78556" lon="12.3884939"><ele>685.2</ele><time>2026-05-02T06:16:15.817Z</time></trkpt><trkpt lat="43.785659" lon="12.3885429"><ele>682.6</ele><time>2026-05-02T06:16:16.805Z</time></trkpt><trkpt lat="43.7857426" lon="12.388624"><ele>680.0</ele><time>2026-05-02T06:16:17.79Z</time></trkpt><trkpt lat="43.785803" lon="12.3887375"><ele>678.6</ele><time>2026-05-02T06:16:18.801Z</time></trkpt><trkpt lat="43.7858444" lon="12.3888655"><ele>677.2</ele><time>2026-05-02T06:16:19.815Z</time></trkpt><trkpt lat="43.7858762" lon="12.3889874"><ele>675.8</ele><time>2026-05-02T06:16:20.806Z</time></trkpt><trkpt lat="43.7858815" lon="12.3891293"><ele>674.4</ele><time>2026-05-02T06:16:21.809Z</time></trkpt><trkpt lat="43.7858701" lon="12.3892671"><ele>673.0</ele><time>2026-05-02T06:16:22.788Z</time></trkpt><trkpt lat="43.7858494" lon="12.3893985"><ele>673.0</ele><time>2026-05-02T06:16:23.812Z</time></trkpt><trkpt lat="43.7858202" lon="12.3895315"><ele>673.0</ele><time>2026-05-02T06:16:24.8Z</time></trkpt><trkpt lat="43.7857809" lon="12.3896704"><ele>673.0</ele><time>2026-05-02T06:16:25.81Z</time></trkpt><trkpt lat="43.7857293" lon="12.3898096"><ele>673.0</ele><time>2026-05-02T06:16:26.794Z</time></trkpt><trkpt lat="43.7856747" lon="12.3899396"><ele>673.0</ele><time>2026-05-02T06:16:27.803Z</time></trkpt><trkpt lat="43.7856081" lon="12.3900481"><ele>672.2</ele><time>2026-05-02T06:16:28.799Z</time></trkpt><trkpt lat="43.785545" lon="12.3901598"><ele>671.4</ele><time>2026-05-02T06:16:29.808Z</time></trkpt><trkpt lat="43.785479" lon="12.3902694"><ele>670.6</ele><time>2026-05-02T06:16:30.808Z</time></trkpt><trkpt lat="43.7854043" lon="12.3903812"><ele>669.8000000000001</ele><time>2026-05-02T06:16:31.809Z</time></trkpt><trkpt lat="43.7853268" lon="12.3904903"><ele>669.0</ele><time>2026-05-02T06:16:32.797Z</time></trkpt><trkpt lat="43.7852547" lon="12.3905967"><ele>667.8000000000001</ele><time>2026-05-02T06:16:33.804Z</time></trkpt><trkpt lat="43.7851895" lon="12.3907033"><ele>666.6</ele><time>2026-05-02T06:16:34.803Z</time></trkpt><trkpt lat="43.7851217" lon="12.3908018"><ele>665.4</ele><time>2026-05-02T06:16:35.807Z</time></trkpt><trkpt lat="43.7850382" lon="12.3908913"><ele>664.2</ele><time>2026-05-02T06:16:36.803Z</time></trkpt><trkpt lat="43.7849358" lon="12.3909716"><ele>663.0</ele><time>2026-05-02T06:16:37.812Z</time></trkpt><trkpt lat="43.7848249" lon="12.391043"><ele>663.0</ele><time>2026-05-02T06:16:38.807Z</time></trkpt><trkpt lat="43.7847142" lon="12.3910927"><ele>663.0</ele><time>2026-05-02T06:16:39.797Z</time></trkpt><trkpt lat="43.7846001" lon="12.3911478"><ele>663.0</ele><time>2026-05-02T06:16:40.798Z</time></trkpt><trkpt lat="43.7844733" lon="12.3912063"><ele>663.0</ele><time>2026-05-02T06:16:41.8Z</time></trkpt><trkpt lat="43.7843422" lon="12.3912656"><ele>660.5</ele><time>2026-05-02T06:16:42.799Z</time></trkpt><trkpt lat="43.7842172" lon="12.3913291"><ele>658.0</ele><time>2026-05-02T06:16:43.805Z</time></trkpt><trkpt lat="43.7840942" lon="12.3913941"><ele>655.5</ele><time>2026-05-02T06:16:44.81Z</time></trkpt><trkpt lat="43.7839721" lon="12.391465"><ele>653.0</ele><time>2026-05-02T06:16:45.81Z</time></trkpt><trkpt lat="43.7838437" lon="12.3915304"><ele>651.25</ele><time>2026-05-02T06:16:46.793Z</time></trkpt><trkpt lat="43.7837143" lon="12.3915976"><ele>649.5</ele><time>2026-05-02T06:16:47.811Z</time></trkpt><trkpt lat="43.7835833" lon="12.3916743"><ele>647.75</ele><time>2026-05-02T06:16:48.802Z</time></trkpt><trkpt lat="43.7834562" lon="12.391768"><ele>646.0</ele><time>2026-05-02T06:16:49.806Z</time></trkpt><trkpt lat="43.7833334" lon="12.3918657"><ele>645.5</ele><time>2026-05-02T06:16:50.803Z</time></trkpt><trkpt lat="43.7832119" lon="12.3919639"><ele>645.0</ele><time>2026-05-02T06:16:51.812Z</time></trkpt><trkpt lat="43.7830965" lon="12.392053"><ele>644.5</ele><time>2026-05-02T06:16:52.801Z</time></trkpt><trkpt lat="43.783006" lon="12.3921303"><ele>644.0</ele><time>2026-05-02T06:16:53.813Z</time></trkpt><trkpt lat="43.7829281" lon="12.3921936"><ele>644.0</ele><time>2026-05-02T06:16:54.807Z</time></trkpt><trkpt lat="43.7828466" lon="12.3922598"><ele>644.0</ele><time>2026-05-02T06:16:55.802Z</time></trkpt><trkpt lat="43.7827501" lon="12.3923342"><ele>644.0</ele><time>2026-05-02T06:16:56.806Z</time></trkpt><trkpt lat="43.7826419" lon="12.3924207"><ele>644.0</ele><time>2026-05-02T06:16:57.819Z</time></trkpt><trkpt lat="43.7825295" lon="12.3925158"><ele>646.5</ele><time>2026-05-02T06:16:58.795Z</time></trkpt><trkpt lat="43.7824178" lon="12.392621"><ele>649.0</ele><time>2026-05-02T06:16:59.8Z</time></trkpt><trkpt lat="43.7823096" lon="12.3927284"><ele>651.5</ele><time>2026-05-02T06:17:00.798Z</time></trkpt><trkpt lat="43.7822009" lon="12.3928396"><ele>654.0</ele><time>2026-05-02T06:17:01.808Z</time></trkpt><trkpt lat="43.7820891" lon="12.3929496"><ele>655.75</ele><time>2026-05-02T06:17:02.794Z</time></trkpt><trkpt lat="43.7819783" lon="12.3930561"><ele>657.5</ele><time>2026-05-02T06:17:03.806Z</time></trkpt><trkpt lat="43.7818722" lon="12.3931623"><ele>659.25</ele><time>2026-05-02T06:17:04.802Z</time></trkpt><trkpt lat="43.7817628" lon="12.3932569"><ele>661.0</ele><time>2026-05-02T06:17:05.828Z</time></trkpt><trkpt lat="43.7816527" lon="12.3933481"><ele>662.75</ele><time>2026-05-02T06:17:06.801Z</time></trkpt><trkpt lat="43.7815415" lon="12.3934463"><ele>664.5</ele><time>2026-05-02T06:17:07.809Z</time></trkpt><trkpt lat="43.7814349" lon="12.393544"><ele>666.25</ele><time>2026-05-02T06:17:08.809Z</time></trkpt><trkpt lat="43.7813481" lon="12.3936345"><ele>668.0</ele><time>2026-05-02T06:17:09.802Z</time></trkpt><trkpt lat="43.7812908" lon="12.3937219"><ele>668.0</ele><time>2026-05-02T06:17:10.799Z</time></trkpt><trkpt lat="43.7812497" lon="12.3938295"><ele>668.0</ele><time>2026-05-02T06:17:11.806Z</time></trkpt><trkpt lat="43.7812197" lon="12.3939504"><ele>668.0</ele><time>2026-05-02T06:17:12.806Z</time></trkpt><trkpt lat="43.7811913" lon="12.3940823"><ele>668.0</ele><time>2026-05-02T06:17:13.797Z</time></trkpt><trkpt lat="43.7811608" lon="12.3942184"><ele>668.0</ele><time>2026-05-02T06:17:14.793Z</time></trkpt><trkpt lat="43.7811242" lon="12.3943465"><ele>670.4</ele><time>2026-05-02T06:17:15.788Z</time></trkpt><trkpt lat="43.7810841" lon="12.3944732"><ele>672.8</ele><time>2026-05-02T06:17:16.791Z</time></trkpt><trkpt lat="43.7810372" lon="12.394607"><ele>675.2</ele><time>2026-05-02T06:17:17.799Z</time></trkpt><trkpt lat="43.7809767" lon="12.394724"><ele>677.6</ele><time>2026-05-02T06:17:18.796Z</time></trkpt><trkpt lat="43.7809148" lon="12.3948168"><ele>680.0</ele><time>2026-05-02T06:17:19.803Z</time></trkpt><trkpt lat="43.780859" lon="12.3949071"><ele>681.0</ele><time>2026-05-02T06:17:20.801Z</time></trkpt><trkpt lat="43.7808206" lon="12.3949983"><ele>682.0</ele><time>2026-05-02T06:17:21.808Z</time></trkpt><trkpt lat="43.7808003" lon="12.3950966"><ele>683.0</ele><time>2026-05-02T06:17:22.8Z</time></trkpt><trkpt lat="43.7808081" lon="12.3952096"><ele>684.0</ele><time>2026-05-02T06:17:23.798Z</time></trkpt><trkpt lat="43.7808219" lon="12.3953246"><ele>685.0</ele><time>2026-05-02T06:17:24.8Z</time></trkpt><trkpt lat="43.7808281" lon="12.3954438"><ele>686.0</ele><time>2026-05-02T06:17:25.798Z</time></trkpt><trkpt lat="43.7808084" lon="12.3955716"><ele>688.1999999999999</ele><time>2026-05-02T06:17:26.802Z</time></trkpt><trkpt lat="43.7807747" lon="12.3956974"><ele>690.4</ele><time>2026-05-02T06:17:27.79Z</time></trkpt><trkpt lat="43.7807226" lon="12.395813"><ele>692.6</ele><time>2026-05-02T06:17:28.777Z</time></trkpt><trkpt lat="43.7806491" lon="12.3959175"><ele>694.8</ele><time>2026-05-02T06:17:29.796Z</time></trkpt><trkpt lat="43.7805605" lon="12.3960129"><ele>697.0</ele><time>2026-05-02T06:17:30.811Z</time></trkpt><trkpt lat="43.7804778" lon="12.3961073"><ele>697.0</ele><time>2026-05-02T06:17:31.793Z</time></trkpt><trkpt lat="43.7803965" lon="12.3962059"><ele>697.0</ele><time>2026-05-02T06:17:32.801Z</time></trkpt><trkpt lat="43.7803232" lon="12.3962973"><ele>697.0</ele><time>2026-05-02T06:17:33.798Z</time></trkpt><trkpt lat="43.7802564" lon="12.3963818"><ele>697.0</ele><time>2026-05-02T06:17:34.809Z</time></trkpt><trkpt lat="43.7801874" lon="12.3964605"><ele>697.0</ele><time>2026-05-02T06:17:35.811Z</time></trkpt><trkpt lat="43.7801252" lon="12.3965399"><ele>696.8571428571429</ele><time>2026-05-02T06:17:36.795Z</time></trkpt><trkpt lat="43.7800706" lon="12.3966212"><ele>696.7142857142857</ele><time>2026-05-02T06:17:37.802Z</time></trkpt><trkpt lat="43.7800212" lon="12.3967027"><ele>696.5714285714286</ele><time>2026-05-02T06:17:38.796Z</time></trkpt><trkpt lat="43.7799905" lon="12.3967967"><ele>696.4285714285714</ele><time>2026-05-02T06:17:39.795Z</time></trkpt><trkpt lat="43.7799825" lon="12.3968949"><ele>696.2857142857143</ele><time>2026-05-02T06:17:40.802Z</time></trkpt><trkpt lat="43.7799883" lon="12.3969903"><ele>696.1428571428571</ele><time>2026-05-02T06:17:41.79Z</time></trkpt><trkpt lat="43.7799958" lon="12.3970935"><ele>696.0</ele><time>2026-05-02T06:17:42.805Z</time></trkpt><trkpt lat="43.779998" lon="12.3972028"><ele>695.8</ele><time>2026-05-02T06:17:43.814Z</time></trkpt><trkpt lat="43.7799826" lon="12.3973262"><ele>695.5999999999999</ele><time>2026-05-02T06:17:44.801Z</time></trkpt><trkpt lat="43.779936" lon="12.3974425"><ele>695.4</ele><time>2026-05-02T06:17:45.81Z</time></trkpt><trkpt lat="43.7798858" lon="12.3975543"><ele>695.2</ele><time>2026-05-02T06:17:46.801Z</time></trkpt><trkpt lat="43.7798235" lon="12.3976452"><ele>695.0</ele><time>2026-05-02T06:17:47.81Z</time></trkpt><trkpt lat="43.7797387" lon="12.3977285"><ele>695.0</ele><time>2026-05-02T06:17:48.801Z</time></trkpt><trkpt lat="43.7796507" lon="12.3978031"><ele>695.0</ele><time>2026-05-02T06:17:49.814Z</time></trkpt><trkpt lat="43.7795659" lon="12.3978829"><ele>695.0</ele><time>2026-05-02T06:17:50.805Z</time></trkpt><trkpt lat="43.7794896" lon="12.3979753"><ele>695.0</ele><time>2026-05-02T06:17:51.815Z</time></trkpt><trkpt lat="43.7794229" lon="12.3980925"><ele>695.0</ele><time>2026-05-02T06:17:52.799Z</time></trkpt><trkpt lat="43.779372" lon="12.3982191"><ele>695.4</ele><time>2026-05-02T06:17:53.807Z</time></trkpt><trkpt lat="43.779316" lon="12.3983439"><ele>695.8</ele><time>2026-05-02T06:17:54.8Z</time></trkpt><trkpt lat="43.7792595" lon="12.3984729"><ele>696.2</ele><time>2026-05-02T06:17:55.796Z</time></trkpt><trkpt lat="43.7792034" lon="12.3986046"><ele>696.6</ele><time>2026-05-02T06:17:56.796Z</time></trkpt><trkpt lat="43.7791432" lon="12.3987337"><ele>697.0</ele><time>2026-05-02T06:17:57.816Z</time></trkpt><trkpt lat="43.7790744" lon="12.3988537"><ele>697.0</ele><time>2026-05-02T06:17:58.8Z</time></trkpt><trkpt lat="43.7789984" lon="12.3989632"><ele>697.0</ele><time>2026-05-02T06:17:59.8Z</time></trkpt><trkpt lat="43.7789213" lon="12.3990623"><ele>697.0</ele><time>2026-05-02T06:18:00.795Z</time></trkpt><trkpt lat="43.7788517" lon="12.3991699"><ele>697.0</ele><time>2026-05-02T06:18:01.819Z</time></trkpt><trkpt lat="43.7787987" lon="12.3992853"><ele>697.0</ele><time>2026-05-02T06:18:02.807Z</time></trkpt><trkpt lat="43.7787596" lon="12.3994014"><ele>697.0</ele><time>2026-05-02T06:18:03.81Z</time></trkpt><trkpt lat="43.7787195" lon="12.3995068"><ele>697.0</ele><time>2026-05-02T06:18:04.79Z</time></trkpt><trkpt lat="43.778665" lon="12.3996093"><ele>697.0</ele><time>2026-05-02T06:18:05.804Z</time></trkpt><trkpt lat="43.7785975" lon="12.3997169"><ele>697.0</ele><time>2026-05-02T06:18:06.808Z</time></trkpt><trkpt lat="43.7785285" lon="12.3998167"><ele>697.0</ele><time>2026-05-02T06:18:07.802Z</time></trkpt><trkpt lat="43.7784587" lon="12.3999266"><ele>701.25</ele><time>2026-05-02T06:18:08.79Z</time></trkpt><trkpt lat="43.7783895" lon="12.4000407"><ele>705.5</ele><time>2026-05-02T06:18:09.801Z</time></trkpt><trkpt lat="43.7783076" lon="12.400153"><ele>709.75</ele><time>2026-05-02T06:18:10.803Z</time></trkpt><trkpt lat="43.7782292" lon="12.4002715"><ele>714.0</ele><time>2026-05-02T06:18:11.813Z</time></trkpt><trkpt lat="43.7781528" lon="12.4003995"><ele>716.0</ele><time>2026-05-02T06:18:12.789Z</time></trkpt><trkpt lat="43.7780769" lon="12.4005362"><ele>718.0</ele><time>2026-05-02T06:18:13.798Z</time></trkpt><trkpt lat="43.7780046" lon="12.4006696"><ele>720.0</ele><time>2026-05-02T06:18:14.809Z</time></trkpt><trkpt lat="43.7779372" lon="12.4008014"><ele>722.0</ele><time>2026-05-02T06:18:15.791Z</time></trkpt><trkpt lat="43.7778732" lon="12.4009342"><ele>722.0</ele><time>2026-05-02T06:18:16.792Z</time></trkpt><trkpt lat="43.7778096" lon="12.4010692"><ele>722.0</ele><time>2026-05-02T06:18:17.802Z</time></trkpt><trkpt lat="43.7777529" lon="12.4012045"><ele>722.0</ele><time>2026-05-02T06:18:18.808Z</time></trkpt><trkpt lat="43.7777014" lon="12.4013384"><ele>722.0</ele><time>2026-05-02T06:18:19.813Z</time></trkpt><trkpt lat="43.7776413" lon="12.4014629"><ele>722.0</ele><time>2026-05-02T06:18:20.794Z</time></trkpt><trkpt lat="43.7775822" lon="12.401577"><ele>724.0</ele><time>2026-05-02T06:18:21.804Z</time></trkpt><trkpt lat="43.7775142" lon="12.4016763"><ele>726.0</ele><time>2026-05-02T06:18:22.806Z</time></trkpt><trkpt lat="43.7774395" lon="12.4017587"><ele>728.0</ele><time>2026-05-02T06:18:23.803Z</time></trkpt><trkpt lat="43.7773598" lon="12.4018182"><ele>730.0</ele><time>2026-05-02T06:18:24.799Z</time></trkpt><trkpt lat="43.7772762" lon="12.4018564"><ele>732.0</ele><time>2026-05-02T06:18:25.802Z</time></trkpt><trkpt lat="43.7771966" lon="12.4018605"><ele>732.0</ele><time>2026-05-02T06:18:26.792Z</time></trkpt><trkpt lat="43.7771242" lon="12.4018551"><ele>732.0</ele><time>2026-05-02T06:18:27.799Z</time></trkpt><trkpt lat="43.7770045" lon="12.4018345"><ele>732.0</ele><time>2026-05-02T06:18:29.802Z</time></trkpt><trkpt lat="43.7768795" lon="12.4018721"><ele>732.0</ele><time>2026-05-02T06:18:31.798Z</time></trkpt><trkpt lat="43.7768147" lon="12.4019267"><ele>732.0</ele><time>2026-05-02T06:18:32.798Z</time></trkpt><trkpt lat="43.7767546" lon="12.4019907"><ele>731.3333333333334</ele><time>2026-05-02T06:18:33.805Z</time></trkpt><trkpt lat="43.7766991" lon="12.4020632"><ele>730.6666666666666</ele><time>2026-05-02T06:18:34.801Z</time></trkpt><trkpt lat="43.7766429" lon="12.4021399"><ele>730.0</ele><time>2026-05-02T06:18:35.796Z</time></trkpt><trkpt lat="43.7765954" lon="12.4022274"><ele>729.3333333333333</ele><time>2026-05-02T06:18:36.792Z</time></trkpt><trkpt lat="43.7765546" lon="12.4023249"><ele>728.6666666666666</ele><time>2026-05-02T06:18:37.807Z</time></trkpt><trkpt lat="43.7765189" lon="12.4024377"><ele>728.0</ele><time>2026-05-02T06:18:38.787Z</time></trkpt><trkpt lat="43.77647" lon="12.402557"><ele>728.0</ele><time>2026-05-02T06:18:39.805Z</time></trkpt><trkpt lat="43.7764155" lon="12.4026792"><ele>728.0</ele><time>2026-05-02T06:18:40.791Z</time></trkpt><trkpt lat="43.7763592" lon="12.4027952"><ele>728.0</ele><time>2026-05-02T06:18:41.79Z</time></trkpt><trkpt lat="43.776302" lon="12.402904"><ele>728.0</ele><time>2026-05-02T06:18:42.792Z</time></trkpt><trkpt lat="43.7762469" lon="12.4030074"><ele>728.0</ele><time>2026-05-02T06:18:43.808Z</time></trkpt><trkpt lat="43.7761943" lon="12.4031154"><ele>726.8333333333333</ele><time>2026-05-02T06:18:44.806Z</time></trkpt><trkpt lat="43.7761467" lon="12.4032164"><ele>725.6666666666666</ele><time>2026-05-02T06:18:45.8Z</time></trkpt><trkpt lat="43.7760989" lon="12.4033175"><ele>724.5</ele><time>2026-05-02T06:18:46.799Z</time></trkpt><trkpt lat="43.7760594" lon="12.403419"><ele>723.3333333333334</ele><time>2026-05-02T06:18:47.796Z</time></trkpt><trkpt lat="43.7760306" lon="12.403513"><ele>722.1666666666667</ele><time>2026-05-02T06:18:48.794Z</time></trkpt><trkpt lat="43.776005" lon="12.4035936"><ele>721.0</ele><time>2026-05-02T06:18:49.803Z</time></trkpt><trkpt lat="43.7759623" lon="12.4037035"><ele>717.6666666666667</ele><time>2026-05-02T06:18:51.798Z</time></trkpt><trkpt lat="43.7759732" lon="12.4038249"><ele>714.3333333333334</ele><time>2026-05-02T06:19:11.82Z</time></trkpt><trkpt lat="43.7760277" lon="12.4039565"><ele>711.0</ele><time>2026-05-02T06:19:13.806Z</time></trkpt><trkpt lat="43.7760865" lon="12.4040307"><ele>707.6666666666666</ele><time>2026-05-02T06:19:14.796Z</time></trkpt><trkpt lat="43.7761527" lon="12.4040974"><ele>704.3333333333333</ele><time>2026-05-02T06:19:15.8Z</time></trkpt><trkpt lat="43.7762162" lon="12.4041588"><ele>701.0</ele><time>2026-05-02T06:19:16.798Z</time></trkpt><trkpt lat="43.7762744" lon="12.4042166"><ele>700.5</ele><time>2026-05-02T06:19:17.811Z</time></trkpt><trkpt lat="43.7763236" lon="12.40428"><ele>700.0</ele><time>2026-05-02T06:19:18.807Z</time></trkpt><trkpt lat="43.7763716" lon="12.4044284"><ele>699.5</ele><time>2026-05-02T06:19:20.797Z</time></trkpt><trkpt lat="43.7763675" lon="12.4045197"><ele>699.0</ele><time>2026-05-02T06:19:21.812Z</time></trkpt><trkpt lat="43.7763462" lon="12.4046174"><ele>698.5</ele><time>2026-05-02T06:19:22.797Z</time></trkpt><trkpt lat="43.7763029" lon="12.4047239"><ele>698.0</ele><time>2026-05-02T06:19:23.806Z</time></trkpt><trkpt lat="43.7762564" lon="12.4048463"><ele>696.4</ele><time>2026-05-02T06:19:24.806Z</time></trkpt><trkpt lat="43.7762009" lon="12.4049773"><ele>694.8</ele><time>2026-05-02T06:19:25.804Z</time></trkpt><trkpt lat="43.7761449" lon="12.405095"><ele>693.2</ele><time>2026-05-02T06:19:26.808Z</time></trkpt><trkpt lat="43.7760941" lon="12.4052035"><ele>691.6</ele><time>2026-05-02T06:19:27.809Z</time></trkpt><trkpt lat="43.7760352" lon="12.4053089"><ele>690.0</ele><time>2026-05-02T06:19:28.81Z</time></trkpt><trkpt lat="43.7759773" lon="12.4054123"><ele>687.0</ele><time>2026-05-02T06:19:29.802Z</time></trkpt><trkpt lat="43.7759127" lon="12.4055238"><ele>684.0</ele><time>2026-05-02T06:19:30.788Z</time></trkpt><trkpt lat="43.7758401" lon="12.4056383"><ele>681.0</ele><time>2026-05-02T06:19:31.791Z</time></trkpt><trkpt lat="43.7757574" lon="12.4057532"><ele>678.0</ele><time>2026-05-02T06:19:32.803Z</time></trkpt><trkpt lat="43.7756715" lon="12.4058564"><ele>675.0</ele><time>2026-05-02T06:19:33.788Z</time></trkpt><trkpt lat="43.7755855" lon="12.4059644"><ele>675.0</ele><time>2026-05-02T06:19:34.797Z</time></trkpt><trkpt lat="43.7755007" lon="12.4060683"><ele>675.0</ele><time>2026-05-02T06:19:35.789Z</time></trkpt><trkpt lat="43.7754134" lon="12.4061642"><ele>675.0</ele><time>2026-05-02T06:19:36.8Z</time></trkpt><trkpt lat="43.7753314" lon="12.4062565"><ele>675.0</ele><time>2026-05-02T06:19:37.796Z</time></trkpt><trkpt lat="43.7752509" lon="12.4063532"><ele>675.0</ele><time>2026-05-02T06:19:38.805Z</time></trkpt><trkpt lat="43.7751703" lon="12.4064486"><ele>676.2</ele><time>2026-05-02T06:19:39.81Z</time></trkpt><trkpt lat="43.7750932" lon="12.4065488"><ele>677.4</ele><time>2026-05-02T06:19:40.791Z</time></trkpt><trkpt lat="43.7750169" lon="12.4066532"><ele>678.5999999999999</ele><time>2026-05-02T06:19:41.81Z</time></trkpt><trkpt lat="43.7749408" lon="12.4067598"><ele>679.8</ele><time>2026-05-02T06:19:42.806Z</time></trkpt><trkpt lat="43.7748697" lon="12.4068575"><ele>681.0</ele><time>2026-05-02T06:19:43.794Z</time></trkpt><trkpt lat="43.7748046" lon="12.4069385"><ele>681.0</ele><time>2026-05-02T06:19:44.798Z</time></trkpt><trkpt lat="43.7747345" lon="12.4069956"><ele>681.0</ele><time>2026-05-02T06:19:45.803Z</time></trkpt><trkpt lat="43.7746663" lon="12.4070277"><ele>681.0</ele><time>2026-05-02T06:19:46.801Z</time></trkpt><trkpt lat="43.7745901" lon="12.4070292"><ele>681.0</ele><time>2026-05-02T06:19:47.805Z</time></trkpt><trkpt lat="43.7745072" lon="12.4070075"><ele>681.0</ele><time>2026-05-02T06:19:48.793Z</time></trkpt><trkpt lat="43.7744108" lon="12.4069737"><ele>681.0</ele><time>2026-05-02T06:19:49.804Z</time></trkpt><trkpt lat="43.7743046" lon="12.4069296"><ele>683.5</ele><time>2026-05-02T06:19:50.805Z</time></trkpt><trkpt lat="43.7741817" lon="12.4068976"><ele>686.0</ele><time>2026-05-02T06:19:51.786Z</time></trkpt><trkpt lat="43.7740532" lon="12.4068819"><ele>688.5</ele><time>2026-05-02T06:19:52.802Z</time></trkpt><trkpt lat="43.7739267" lon="12.40689"><ele>691.0</ele><time>2026-05-02T06:19:53.79Z</time></trkpt><trkpt lat="43.7738152" lon="12.4068952"><ele>691.0</ele><time>2026-05-02T06:19:54.812Z</time></trkpt><trkpt lat="43.7737153" lon="12.4068861"><ele>691.0</ele><time>2026-05-02T06:19:55.804Z</time></trkpt><trkpt lat="43.7736153" lon="12.4068624"><ele>691.0</ele><time>2026-05-02T06:19:56.806Z</time></trkpt><trkpt lat="43.7735173" lon="12.4068018"><ele>691.0</ele><time>2026-05-02T06:19:57.794Z</time></trkpt><trkpt lat="43.7734296" lon="12.4067184"><ele>691.0</ele><time>2026-05-02T06:19:58.788Z</time></trkpt><trkpt lat="43.7733441" lon="12.4066404"><ele>690.8</ele><time>2026-05-02T06:19:59.804Z</time></trkpt><trkpt lat="43.7732529" lon="12.4065674"><ele>690.5999999999999</ele><time>2026-05-02T06:20:00.787Z</time></trkpt><trkpt lat="43.7731552" lon="12.4064917"><ele>690.4</ele><time>2026-05-02T06:20:01.795Z</time></trkpt><trkpt lat="43.7730667" lon="12.406422"><ele>690.2</ele><time>2026-05-02T06:20:02.791Z</time></trkpt><trkpt lat="43.7729843" lon="12.4063473"><ele>690.0</ele><time>2026-05-02T06:20:03.795Z</time></trkpt><trkpt lat="43.7729074" lon="12.4062664"><ele>688.5</ele><time>2026-05-02T06:20:04.79Z</time></trkpt><trkpt lat="43.7728404" lon="12.4061844"><ele>687.0</ele><time>2026-05-02T06:20:05.789Z</time></trkpt><trkpt lat="43.7727802" lon="12.4061138"><ele>685.5</ele><time>2026-05-02T06:20:06.792Z</time></trkpt><trkpt lat="43.7727152" lon="12.4060696"><ele>684.0</ele><time>2026-05-02T06:20:07.795Z</time></trkpt><trkpt lat="43.7726489" lon="12.4060614"><ele>682.5</ele><time>2026-05-02T06:20:08.785Z</time></trkpt><trkpt lat="43.7725828" lon="12.4060829"><ele>681.0</ele><time>2026-05-02T06:20:09.788Z</time></trkpt><trkpt lat="43.7725167" lon="12.4061576"><ele>681.0</ele><time>2026-05-02T06:20:10.8Z</time></trkpt><trkpt lat="43.7724654" lon="12.4062623"><ele>681.0</ele><time>2026-05-02T06:20:11.803Z</time></trkpt><trkpt lat="43.7724116" lon="12.4063849"><ele>681.0</ele><time>2026-05-02T06:20:12.791Z</time></trkpt><trkpt lat="43.7723714" lon="12.4065187"><ele>681.0</ele><time>2026-05-02T06:20:13.811Z</time></trkpt><trkpt lat="43.7723217" lon="12.4066592"><ele>681.0</ele><time>2026-05-02T06:20:14.806Z</time></trkpt><trkpt lat="43.7722659" lon="12.4068047"><ele>681.0</ele><time>2026-05-02T06:20:15.808Z</time></trkpt><trkpt lat="43.7722064" lon="12.4069572"><ele>681.0</ele><time>2026-05-02T06:20:16.806Z</time></trkpt><trkpt lat="43.7721537" lon="12.4071029"><ele>681.0</ele><time>2026-05-02T06:20:17.796Z</time></trkpt><trkpt lat="43.7720914" lon="12.4072416"><ele>681.0</ele><time>2026-05-02T06:20:18.804Z</time></trkpt><trkpt lat="43.7720167" lon="12.4073847"><ele>682.0</ele><time>2026-05-02T06:20:19.792Z</time></trkpt><trkpt lat="43.7719434" lon="12.4075208"><ele>683.0</ele><time>2026-05-02T06:20:20.795Z</time></trkpt><trkpt lat="43.7718699" lon="12.4076562"><ele>684.0</ele><time>2026-05-02T06:20:21.802Z</time></trkpt><trkpt lat="43.7717951" lon="12.4077878"><ele>685.0</ele><time>2026-05-02T06:20:22.799Z</time></trkpt><trkpt lat="43.7717157" lon="12.4079178"><ele>684.5</ele><time>2026-05-02T06:20:23.796Z</time></trkpt><trkpt lat="43.7716458" lon="12.4080442"><ele>684.0</ele><time>2026-05-02T06:20:24.798Z</time></trkpt><trkpt lat="43.7715785" lon="12.4081717"><ele>683.5</ele><time>2026-05-02T06:20:25.791Z</time></trkpt><trkpt lat="43.7715095" lon="12.4082907"><ele>683.0</ele><time>2026-05-02T06:20:26.796Z</time></trkpt><trkpt lat="43.7714428" lon="12.4084143"><ele>683.0</ele><time>2026-05-02T06:20:27.8Z</time></trkpt><trkpt lat="43.7713827" lon="12.4085506"><ele>683.0</ele><time>2026-05-02T06:20:28.786Z</time></trkpt><trkpt lat="43.7713312" lon="12.4086858"><ele>683.0</ele><time>2026-05-02T06:20:29.804Z</time></trkpt><trkpt lat="43.7712873" lon="12.4088175"><ele>683.0</ele><time>2026-05-02T06:20:30.797Z</time></trkpt><trkpt lat="43.7712509" lon="12.4089606"><ele>683.0</ele><time>2026-05-02T06:20:31.792Z</time></trkpt><trkpt lat="43.7712059" lon="12.4091158"><ele>681.75</ele><time>2026-05-02T06:20:32.786Z</time></trkpt><trkpt lat="43.7711519" lon="12.4092714"><ele>680.5</ele><time>2026-05-02T06:20:33.794Z</time></trkpt><trkpt lat="43.7710866" lon="12.409423"><ele>679.25</ele><time>2026-05-02T06:20:34.799Z</time></trkpt><trkpt lat="43.7710055" lon="12.4095739"><ele>678.0</ele><time>2026-05-02T06:20:35.803Z</time></trkpt><trkpt lat="43.7709191" lon="12.4097068"><ele>681.5</ele><time>2026-05-02T06:20:36.799Z</time></trkpt><trkpt lat="43.7708289" lon="12.409821"><ele>685.0</ele><time>2026-05-02T06:20:37.785Z</time></trkpt><trkpt lat="43.7707319" lon="12.4099159"><ele>688.5</ele><time>2026-05-02T06:20:38.808Z</time></trkpt><trkpt lat="43.7706309" lon="12.4099997"><ele>692.0</ele><time>2026-05-02T06:20:39.818Z</time></trkpt><trkpt lat="43.7705213" lon="12.410086"><ele>692.0</ele><time>2026-05-02T06:20:40.793Z</time></trkpt><trkpt lat="43.7704161" lon="12.4101783"><ele>692.0</ele><time>2026-05-02T06:20:41.808Z</time></trkpt><trkpt lat="43.7703052" lon="12.410267"><ele>692.0</ele><time>2026-05-02T06:20:42.799Z</time></trkpt><trkpt lat="43.7701942" lon="12.4103706"><ele>692.0</ele><time>2026-05-02T06:20:43.801Z</time></trkpt><trkpt lat="43.7700834" lon="12.4104787"><ele>696.25</ele><time>2026-05-02T06:20:44.799Z</time></trkpt><trkpt lat="43.7699738" lon="12.4105843"><ele>700.5</ele><time>2026-05-02T06:20:45.798Z</time></trkpt><trkpt lat="43.7698659" lon="12.4106832"><ele>704.75</ele><time>2026-05-02T06:20:46.789Z</time></trkpt><trkpt lat="43.7697597" lon="12.410783"><ele>709.0</ele><time>2026-05-02T06:20:47.796Z</time></trkpt><trkpt lat="43.7696519" lon="12.4108866"><ele>709.0</ele><time>2026-05-02T06:20:48.793Z</time></trkpt><trkpt lat="43.7695473" lon="12.4109922"><ele>709.0</ele><time>2026-05-02T06:20:49.809Z</time></trkpt><trkpt lat="43.7694523" lon="12.4110956"><ele>709.0</ele><time>2026-05-02T06:20:50.789Z</time></trkpt><trkpt lat="43.7693673" lon="12.4111846"><ele>709.0</ele><time>2026-05-02T06:20:51.821Z</time></trkpt><trkpt lat="43.7692953" lon="12.4112653"><ele>709.0</ele><time>2026-05-02T06:20:52.782Z</time></trkpt><trkpt lat="43.7692435" lon="12.4113635"><ele>709.0</ele><time>2026-05-02T06:20:53.804Z</time></trkpt><trkpt lat="43.7692023" lon="12.4114649"><ele>709.0</ele><time>2026-05-02T06:20:54.788Z</time></trkpt><trkpt lat="43.7691662" lon="12.411587"><ele>709.0</ele><time>2026-05-02T06:20:55.81Z</time></trkpt><trkpt lat="43.7691348" lon="12.4117236"><ele>709.0</ele><time>2026-05-02T06:20:56.8Z</time></trkpt><trkpt lat="43.7691006" lon="12.4118661"><ele>709.0</ele><time>2026-05-02T06:20:57.796Z</time></trkpt><trkpt lat="43.7690642" lon="12.4120086"><ele>709.0</ele><time>2026-05-02T06:20:58.802Z</time></trkpt><trkpt lat="43.7690182" lon="12.4121497"><ele>709.0</ele><time>2026-05-02T06:20:59.808Z</time></trkpt><trkpt lat="43.7689696" lon="12.4122851"><ele>709.0</ele><time>2026-05-02T06:21:00.78Z</time></trkpt><trkpt lat="43.768919" lon="12.4124147"><ele>709.0</ele><time>2026-05-02T06:21:01.828Z</time></trkpt><trkpt lat="43.7688571" lon="12.4125281"><ele>709.0</ele><time>2026-05-02T06:21:02.797Z</time></trkpt><trkpt lat="43.7687902" lon="12.4126474"><ele>710.75</ele><time>2026-05-02T06:21:03.816Z</time></trkpt><trkpt lat="43.7687097" lon="12.4127666"><ele>712.5</ele><time>2026-05-02T06:21:04.802Z</time></trkpt><trkpt lat="43.76862" lon="12.4128861"><ele>714.25</ele><time>2026-05-02T06:21:05.799Z</time></trkpt><trkpt lat="43.7685307" lon="12.4130144"><ele>716.0</ele><time>2026-05-02T06:21:06.796Z</time></trkpt><trkpt lat="43.768441" lon="12.4131427"><ele>712.0</ele><time>2026-05-02T06:21:07.798Z</time></trkpt><trkpt lat="43.7683621" lon="12.4132683"><ele>708.0</ele><time>2026-05-02T06:21:08.792Z</time></trkpt><trkpt lat="43.7682909" lon="12.413395"><ele>704.0</ele><time>2026-05-02T06:21:09.809Z</time></trkpt><trkpt lat="43.7682349" lon="12.4135282"><ele>700.0</ele><time>2026-05-02T06:21:10.792Z</time></trkpt><trkpt lat="43.7681762" lon="12.4136512"><ele>700.0</ele><time>2026-05-02T06:21:11.805Z</time></trkpt><trkpt lat="43.7681116" lon="12.413763"><ele>700.0</ele><time>2026-05-02T06:21:12.794Z</time></trkpt><trkpt lat="43.7680323" lon="12.4138599"><ele>700.0</ele><time>2026-05-02T06:21:13.798Z</time></trkpt><trkpt lat="43.7679443" lon="12.4139368"><ele>700.0</ele><time>2026-05-02T06:21:14.791Z</time></trkpt><trkpt lat="43.7678538" lon="12.4139941"><ele>700.0</ele><time>2026-05-02T06:21:15.796Z</time></trkpt><trkpt lat="43.7677723" lon="12.4140455"><ele>702.1666666666667</ele><time>2026-05-02T06:21:16.797Z</time></trkpt><trkpt lat="43.7677115" lon="12.4141103"><ele>704.3333333333334</ele><time>2026-05-02T06:21:17.798Z</time></trkpt><trkpt lat="43.7676514" lon="12.4141844"><ele>706.5</ele><time>2026-05-02T06:21:18.799Z</time></trkpt><trkpt lat="43.7676105" lon="12.4142694"><ele>708.6666666666666</ele><time>2026-05-02T06:21:19.805Z</time></trkpt><trkpt lat="43.7675812" lon="12.4143626"><ele>710.8333333333333</ele><time>2026-05-02T06:21:20.805Z</time></trkpt><trkpt lat="43.7675568" lon="12.4144715"><ele>713.0</ele><time>2026-05-02T06:21:21.786Z</time></trkpt><trkpt lat="43.7675377" lon="12.4145973"><ele>709.0</ele><time>2026-05-02T06:21:22.796Z</time></trkpt><trkpt lat="43.767511" lon="12.4147328"><ele>705.0</ele><time>2026-05-02T06:21:23.792Z</time></trkpt><trkpt lat="43.7674613" lon="12.4148602"><ele>701.0</ele><time>2026-05-02T06:21:24.795Z</time></trkpt><trkpt lat="43.7673993" lon="12.4149871"><ele>697.0</ele><time>2026-05-02T06:21:25.785Z</time></trkpt><trkpt lat="43.7673167" lon="12.4150943"><ele>693.0</ele><time>2026-05-02T06:21:26.792Z</time></trkpt><trkpt lat="43.7672369" lon="12.4151895"><ele>693.0</ele><time>2026-05-02T06:21:27.791Z</time></trkpt><trkpt lat="43.767165" lon="12.4152744"><ele>693.0</ele><time>2026-05-02T06:21:28.785Z</time></trkpt><trkpt lat="43.7671017" lon="12.4153621"><ele>693.0</ele><time>2026-05-02T06:21:29.785Z</time></trkpt><trkpt lat="43.7670472" lon="12.4154608"><ele>693.0</ele><time>2026-05-02T06:21:30.793Z</time></trkpt><trkpt lat="43.767002" lon="12.4155688"><ele>693.0</ele><time>2026-05-02T06:21:31.79Z</time></trkpt><trkpt lat="43.7669525" lon="12.415673"><ele>693.0</ele><time>2026-05-02T06:21:32.801Z</time></trkpt><trkpt lat="43.7668926" lon="12.415769"><ele>693.0</ele><time>2026-05-02T06:21:33.793Z</time></trkpt><trkpt lat="43.7668265" lon="12.4158567"><ele>693.0</ele><time>2026-05-02T06:21:34.804Z</time></trkpt><trkpt lat="43.7667599" lon="12.4159356"><ele>693.0</ele><time>2026-05-02T06:21:35.788Z</time></trkpt><trkpt lat="43.766701" lon="12.416003"><ele>693.0</ele><time>2026-05-02T06:21:36.79Z</time></trkpt><trkpt lat="43.7666209" lon="12.4160537"><ele>693.0</ele><time>2026-05-02T06:21:38.796Z</time></trkpt><trkpt lat="43.7665745" lon="12.4159916"><ele>690.0</ele><time>2026-05-02T06:21:40.801Z</time></trkpt><trkpt lat="43.7665095" lon="12.4159361"><ele>687.0</ele><time>2026-05-02T06:21:42.803Z</time></trkpt><trkpt lat="43.7664392" lon="12.416"><ele>684.0</ele><time>2026-05-02T06:21:44.793Z</time></trkpt><trkpt lat="43.7664046" lon="12.4161108"><ele>681.0</ele><time>2026-05-02T06:21:45.793Z</time></trkpt><trkpt lat="43.7663795" lon="12.416242"><ele>678.0</ele><time>2026-05-02T06:21:46.795Z</time></trkpt><trkpt lat="43.7663504" lon="12.4163489"><ele>675.0</ele><time>2026-05-02T06:21:47.789Z</time></trkpt><trkpt lat="43.7663208" lon="12.4164323"><ele>675.0</ele><time>2026-05-02T06:21:48.797Z</time></trkpt><trkpt lat="43.766278" lon="12.4164977"><ele>675.0</ele><time>2026-05-02T06:21:49.8Z</time></trkpt><trkpt lat="43.7662171" lon="12.4165665"><ele>675.0</ele><time>2026-05-02T06:21:50.805Z</time></trkpt><trkpt lat="43.7661328" lon="12.416637"><ele>675.0</ele><time>2026-05-02T06:21:51.793Z</time></trkpt><trkpt lat="43.7660514" lon="12.4167147"><ele>675.0</ele><time>2026-05-02T06:21:52.791Z</time></trkpt><trkpt lat="43.7659799" lon="12.4167732"><ele>675.0</ele><time>2026-05-02T06:21:53.793Z</time></trkpt><trkpt lat="43.7658659" lon="12.4168158"><ele>671.0</ele><time>2026-05-02T06:21:55.793Z</time></trkpt><trkpt lat="43.7657409" lon="12.4167894"><ele>667.0</ele><time>2026-05-02T06:21:57.79Z</time></trkpt><trkpt lat="43.7656646" lon="12.4167859"><ele>663.0</ele><time>2026-05-02T06:21:58.793Z</time></trkpt><trkpt lat="43.7655785" lon="12.4167901"><ele>659.0</ele><time>2026-05-02T06:21:59.788Z</time></trkpt><trkpt lat="43.7655" lon="12.4167975"><ele>655.0</ele><time>2026-05-02T06:22:00.785Z</time></trkpt><trkpt lat="43.7654309" lon="12.4168165"><ele>651.0</ele><time>2026-05-02T06:22:01.794Z</time></trkpt><trkpt lat="43.7653654" lon="12.416852"><ele>651.0</ele><time>2026-05-02T06:22:02.789Z</time></trkpt><trkpt lat="43.7653051" lon="12.4169026"><ele>651.0</ele><time>2026-05-02T06:22:03.791Z</time></trkpt><trkpt lat="43.7652466" lon="12.4169703"><ele>651.0</ele><time>2026-05-02T06:22:04.788Z</time></trkpt><trkpt lat="43.7651813" lon="12.4170396"><ele>651.0</ele><time>2026-05-02T06:22:05.797Z</time></trkpt><trkpt lat="43.7651105" lon="12.4171019"><ele>651.0</ele><time>2026-05-02T06:22:06.787Z</time></trkpt><trkpt lat="43.7650479" lon="12.4171766"><ele>651.0</ele><time>2026-05-02T06:22:07.8Z</time></trkpt><trkpt lat="43.7649929" lon="12.4172631"><ele>651.3333333333334</ele><time>2026-05-02T06:22:08.787Z</time></trkpt><trkpt lat="43.7649495" lon="12.4173555"><ele>651.6666666666666</ele><time>2026-05-02T06:22:09.793Z</time></trkpt><trkpt lat="43.7649073" lon="12.4174516"><ele>652.0</ele><time>2026-05-02T06:22:10.793Z</time></trkpt><trkpt lat="43.7648567" lon="12.4175463"><ele>652.3333333333333</ele><time>2026-05-02T06:22:11.799Z</time></trkpt><trkpt lat="43.7647974" lon="12.4176235"><ele>652.6666666666666</ele><time>2026-05-02T06:22:12.795Z</time></trkpt><trkpt lat="43.7646844" lon="12.4176343"><ele>653.0</ele><time>2026-05-02T06:22:14.802Z</time></trkpt><trkpt lat="43.7645637" lon="12.4176508"><ele>653.0</ele><time>2026-05-02T06:22:16.806Z</time></trkpt><trkpt lat="43.7644917" lon="12.4176978"><ele>653.0</ele><time>2026-05-02T06:22:17.812Z</time></trkpt><trkpt lat="43.7644241" lon="12.4177455"><ele>653.0</ele><time>2026-05-02T06:22:18.802Z</time></trkpt><trkpt lat="43.7643522" lon="12.4177907"><ele>653.0</ele><time>2026-05-02T06:22:19.803Z</time></trkpt><trkpt lat="43.7642734" lon="12.4178274"><ele>653.0</ele><time>2026-05-02T06:22:20.805Z</time></trkpt><trkpt lat="43.7641938" lon="12.4178579"><ele>653.0</ele><time>2026-05-02T06:22:21.807Z</time></trkpt><trkpt lat="43.7641136" lon="12.4178833"><ele>649.5</ele><time>2026-05-02T06:22:22.789Z</time></trkpt><trkpt lat="43.7640275" lon="12.4178939"><ele>646.0</ele><time>2026-05-02T06:22:23.797Z</time></trkpt><trkpt lat="43.7639356" lon="12.4178885"><ele>642.5</ele><time>2026-05-02T06:22:24.787Z</time></trkpt><trkpt lat="43.76385" lon="12.4178683"><ele>639.0</ele><time>2026-05-02T06:22:25.804Z</time></trkpt><trkpt lat="43.7637757" lon="12.4178287"><ele>635.5</ele><time>2026-05-02T06:22:26.797Z</time></trkpt><trkpt lat="43.7637074" lon="12.4177759"><ele>632.0</ele><time>2026-05-02T06:22:27.802Z</time></trkpt><trkpt lat="43.7636407" lon="12.4177377"><ele>632.0</ele><time>2026-05-02T06:22:28.788Z</time></trkpt><trkpt lat="43.7635743" lon="12.4177199"><ele>632.0</ele><time>2026-05-02T06:22:29.807Z</time></trkpt><trkpt lat="43.7635029" lon="12.4177097"><ele>632.0</ele><time>2026-05-02T06:22:30.792Z</time></trkpt><trkpt lat="43.7634094" lon="12.417678"><ele>632.0</ele><time>2026-05-02T06:22:32.787Z</time></trkpt><trkpt lat="43.7633907" lon="12.4175891"><ele>632.0</ele><time>2026-05-02T06:22:34.803Z</time></trkpt><trkpt lat="43.7634659" lon="12.417509"><ele>632.0</ele><time>2026-05-02T06:22:36.797Z</time></trkpt><trkpt lat="43.7635394" lon="12.4174695"><ele>630.1666666666666</ele><time>2026-05-02T06:22:38.786Z</time></trkpt><trkpt lat="43.7635002" lon="12.4173996"><ele>628.3333333333333</ele><time>2026-05-02T06:22:40.781Z</time></trkpt><trkpt lat="43.763376" lon="12.4173955"><ele>626.5</ele><time>2026-05-02T06:22:42.798Z</time></trkpt><trkpt lat="43.7632944" lon="12.4174128"><ele>624.6666666666666</ele><time>2026-05-02T06:22:43.805Z</time></trkpt><trkpt lat="43.7632146" lon="12.4174464"><ele>622.8333333333334</ele><time>2026-05-02T06:22:44.812Z</time></trkpt><trkpt lat="43.7631352" lon="12.4174661"><ele>621.0</ele><time>2026-05-02T06:22:45.816Z</time></trkpt><trkpt lat="43.7630641" lon="12.417473"><ele>621.0</ele><time>2026-05-02T06:22:46.804Z</time></trkpt><trkpt lat="43.7629955" lon="12.4174588"><ele>621.0</ele><time>2026-05-02T06:22:47.798Z</time></trkpt><trkpt lat="43.762923" lon="12.4174111"><ele>621.0</ele><time>2026-05-02T06:22:48.797Z</time></trkpt><trkpt lat="43.7628494" lon="12.4173329"><ele>621.0</ele><time>2026-05-02T06:22:49.805Z</time></trkpt><trkpt lat="43.7627749" lon="12.4172452"><ele>621.0</ele><time>2026-05-02T06:22:50.798Z</time></trkpt><trkpt lat="43.7627044" lon="12.4171663"><ele>621.0</ele><time>2026-05-02T06:22:51.811Z</time></trkpt><trkpt lat="43.7626386" lon="12.4170879"><ele>617.8333333333334</ele><time>2026-05-02T06:22:52.804Z</time></trkpt><trkpt lat="43.76257" lon="12.4170045"><ele>614.6666666666666</ele><time>2026-05-02T06:22:53.809Z</time></trkpt><trkpt lat="43.7624942" lon="12.4169117"><ele>611.5</ele><time>2026-05-02T06:22:54.799Z</time></trkpt><trkpt lat="43.7624262" lon="12.4168229"><ele>608.3333333333333</ele><time>2026-05-02T06:22:55.805Z</time></trkpt><trkpt lat="43.7623524" lon="12.4167819"><ele>605.1666666666666</ele><time>2026-05-02T06:22:56.803Z</time></trkpt><trkpt lat="43.7622689" lon="12.4167842"><ele>602.0</ele><time>2026-05-02T06:22:57.789Z</time></trkpt><trkpt lat="43.7621792" lon="12.4168027"><ele>602.0</ele><time>2026-05-02T06:22:58.802Z</time></trkpt><trkpt lat="43.7620748" lon="12.416825"><ele>602.0</ele><time>2026-05-02T06:22:59.81Z</time></trkpt><trkpt lat="43.7619822" lon="12.4168619"><ele>602.0</ele><time>2026-05-02T06:23:00.808Z</time></trkpt><trkpt lat="43.7618947" lon="12.4169214"><ele>602.0</ele><time>2026-05-02T06:23:01.792Z</time></trkpt><trkpt lat="43.7618061" lon="12.4169864"><ele>602.0</ele><time>2026-05-02T06:23:02.801Z</time></trkpt><trkpt lat="43.7617238" lon="12.4170465"><ele>604.0</ele><time>2026-05-02T06:23:03.802Z</time></trkpt><trkpt lat="43.7616431" lon="12.417127"><ele>606.0</ele><time>2026-05-02T06:23:04.804Z</time></trkpt><trkpt lat="43.7615731" lon="12.4172268"><ele>608.0</ele><time>2026-05-02T06:23:05.802Z</time></trkpt><trkpt lat="43.7615014" lon="12.4173303"><ele>610.0</ele><time>2026-05-02T06:23:06.797Z</time></trkpt><trkpt lat="43.7614241" lon="12.4174313"><ele>612.0</ele><time>2026-05-02T06:23:07.805Z</time></trkpt><trkpt lat="43.7613384" lon="12.4175373"><ele>612.0</ele><time>2026-05-02T06:23:08.803Z</time></trkpt><trkpt lat="43.7612563" lon="12.4176441"><ele>612.0</ele><time>2026-05-02T06:23:09.807Z</time></trkpt><trkpt lat="43.7611765" lon="12.4177528"><ele>612.0</ele><time>2026-05-02T06:23:10.807Z</time></trkpt><trkpt lat="43.7610872" lon="12.4178411"><ele>612.0</ele><time>2026-05-02T06:23:11.805Z</time></trkpt><trkpt lat="43.7609913" lon="12.4178932"><ele>612.0</ele><time>2026-05-02T06:23:12.8Z</time></trkpt><trkpt lat="43.7608944" lon="12.4179211"><ele>613.4</ele><time>2026-05-02T06:23:13.797Z</time></trkpt><trkpt lat="43.7607984" lon="12.4179219"><ele>614.8000000000001</ele><time>2026-05-02T06:23:14.804Z</time></trkpt><trkpt lat="43.7607036" lon="12.4178992"><ele>616.2</ele><time>2026-05-02T06:23:15.806Z</time></trkpt><trkpt lat="43.760612" lon="12.41788"><ele>617.6</ele><time>2026-05-02T06:23:16.795Z</time></trkpt><trkpt lat="43.7605226" lon="12.4178838"><ele>619.0</ele><time>2026-05-02T06:23:17.809Z</time></trkpt><trkpt lat="43.7604361" lon="12.4179173"><ele>619.0</ele><time>2026-05-02T06:23:18.795Z</time></trkpt><trkpt lat="43.76035" lon="12.4179736"><ele>619.0</ele><time>2026-05-02T06:23:19.804Z</time></trkpt><trkpt lat="43.7602631" lon="12.4180542"><ele>619.0</ele><time>2026-05-02T06:23:20.786Z</time></trkpt><trkpt lat="43.7601711" lon="12.4181423"><ele>619.0</ele><time>2026-05-02T06:23:21.806Z</time></trkpt><trkpt lat="43.7600736" lon="12.4182366"><ele>619.0</ele><time>2026-05-02T06:23:22.798Z</time></trkpt><trkpt lat="43.7599738" lon="12.4183345"><ele>618.2</ele><time>2026-05-02T06:23:23.798Z</time></trkpt><trkpt lat="43.7598797" lon="12.4184307"><ele>617.4</ele><time>2026-05-02T06:23:24.789Z</time></trkpt><trkpt lat="43.7597956" lon="12.4185077"><ele>616.6</ele><time>2026-05-02T06:23:25.783Z</time></trkpt><trkpt lat="43.7597243" lon="12.4185629"><ele>615.8</ele><time>2026-05-02T06:23:26.8Z</time></trkpt><trkpt lat="43.7596572" lon="12.4186225"><ele>615.0</ele><time>2026-05-02T06:23:27.797Z</time></trkpt><trkpt lat="43.759586" lon="12.4187031"><ele>615.0</ele><time>2026-05-02T06:23:28.803Z</time></trkpt><trkpt lat="43.759516" lon="12.4188013"><ele>615.0</ele><time>2026-05-02T06:23:29.806Z</time></trkpt><trkpt lat="43.7594444" lon="12.4189067"><ele>615.0</ele><time>2026-05-02T06:23:30.792Z</time></trkpt><trkpt lat="43.7593746" lon="12.4190105"><ele>615.0</ele><time>2026-05-02T06:23:31.814Z</time></trkpt><trkpt lat="43.7592976" lon="12.4191102"><ele>615.0</ele><time>2026-05-02T06:23:32.8Z</time></trkpt><trkpt lat="43.75922" lon="12.4192125"><ele>613.2</ele><time>2026-05-02T06:23:33.819Z</time></trkpt><trkpt lat="43.759146" lon="12.4193104"><ele>611.4</ele><time>2026-05-02T06:23:34.799Z</time></trkpt><trkpt lat="43.7590786" lon="12.419418"><ele>609.6</ele><time>2026-05-02T06:23:35.809Z</time></trkpt><trkpt lat="43.7590182" lon="12.419534"><ele>607.8</ele><time>2026-05-02T06:23:36.8Z</time></trkpt><trkpt lat="43.7589652" lon="12.419648"><ele>606.0</ele><time>2026-05-02T06:23:37.798Z</time></trkpt><trkpt lat="43.7589069" lon="12.4197533"><ele>603.0</ele><time>2026-05-02T06:23:38.811Z</time></trkpt><trkpt lat="43.7588413" lon="12.4198508"><ele>600.0</ele><time>2026-05-02T06:23:39.803Z</time></trkpt><trkpt lat="43.7587748" lon="12.4199414"><ele>597.0</ele><time>2026-05-02T06:23:40.799Z</time></trkpt><trkpt lat="43.7587068" lon="12.4200379"><ele>594.0</ele><time>2026-05-02T06:23:41.832Z</time></trkpt><trkpt lat="43.7586369" lon="12.4201449"><ele>591.0</ele><time>2026-05-02T06:23:42.791Z</time></trkpt><trkpt lat="43.7585735" lon="12.4202679"><ele>589.6</ele><time>2026-05-02T06:23:43.817Z</time></trkpt><trkpt lat="43.7585141" lon="12.4203932"><ele>588.2</ele><time>2026-05-02T06:23:44.803Z</time></trkpt><trkpt lat="43.7584554" lon="12.42052"><ele>586.8</ele><time>2026-05-02T06:23:45.805Z</time></trkpt><trkpt lat="43.7583973" lon="12.4206375"><ele>585.4</ele><time>2026-05-02T06:23:46.797Z</time></trkpt><trkpt lat="43.7583281" lon="12.4207472"><ele>584.0</ele><time>2026-05-02T06:23:47.826Z</time></trkpt><trkpt lat="43.7582547" lon="12.4208606"><ele>584.0</ele><time>2026-05-02T06:23:48.803Z</time></trkpt><trkpt lat="43.7581743" lon="12.4209741"><ele>584.0</ele><time>2026-05-02T06:23:49.817Z</time></trkpt><trkpt lat="43.758091" lon="12.421092"><ele>584.0</ele><time>2026-05-02T06:23:50.794Z</time></trkpt><trkpt lat="43.7580049" lon="12.4212034"><ele>584.0</ele><time>2026-05-02T06:23:51.804Z</time></trkpt><trkpt lat="43.7579255" lon="12.4213105"><ele>581.8</ele><time>2026-05-02T06:23:52.789Z</time></trkpt><trkpt lat="43.7578413" lon="12.4214134"><ele>579.5999999999999</ele><time>2026-05-02T06:23:53.812Z</time></trkpt><trkpt lat="43.7577597" lon="12.4215196"><ele>577.4</ele><time>2026-05-02T06:23:54.8Z</time></trkpt><trkpt lat="43.7576812" lon="12.4216199"><ele>575.1999999999999</ele><time>2026-05-02T06:23:55.809Z</time></trkpt><trkpt lat="43.7576011" lon="12.4217178"><ele>573.0</ele><time>2026-05-02T06:23:56.786Z</time></trkpt><trkpt lat="43.7575081" lon="12.4218248"><ele>573.0</ele><time>2026-05-02T06:23:57.8Z</time></trkpt><trkpt lat="43.7574135" lon="12.4219291"><ele>573.0</ele><time>2026-05-02T06:23:58.815Z</time></trkpt><trkpt lat="43.7573245" lon="12.422027"><ele>573.0</ele><time>2026-05-02T06:23:59.811Z</time></trkpt><trkpt lat="43.7572417" lon="12.4221111"><ele>573.0</ele><time>2026-05-02T06:24:00.79Z</time></trkpt><trkpt lat="43.7571649" lon="12.4221718"><ele>573.0</ele><time>2026-05-02T06:24:01.826Z</time></trkpt><trkpt lat="43.7570948" lon="12.422201"><ele>573.0</ele><time>2026-05-02T06:24:02.8Z</time></trkpt><trkpt lat="43.7569714" lon="12.4221588"><ele>573.0</ele><time>2026-05-02T06:24:04.812Z</time></trkpt><trkpt lat="43.756913" lon="12.4221025"><ele>573.0</ele><time>2026-05-02T06:24:05.807Z</time></trkpt><trkpt lat="43.7568701" lon="12.4220237"><ele>573.0</ele><time>2026-05-02T06:24:06.792Z</time></trkpt><trkpt lat="43.7568357" lon="12.4219302"><ele>573.0</ele><time>2026-05-02T06:24:07.823Z</time></trkpt><trkpt lat="43.7567705" lon="12.421801"><ele>573.1666666666666</ele><time>2026-05-02T06:24:09.808Z</time></trkpt><trkpt lat="43.7566768" lon="12.4217101"><ele>573.3333333333334</ele><time>2026-05-02T06:24:11.819Z</time></trkpt><trkpt lat="43.7566103" lon="12.4216856"><ele>573.5</ele><time>2026-05-02T06:24:12.797Z</time></trkpt><trkpt lat="43.7565349" lon="12.4216818"><ele>573.6666666666667</ele><time>2026-05-02T06:24:13.81Z</time></trkpt><trkpt lat="43.7564562" lon="12.4216883"><ele>573.8333333333334</ele><time>2026-05-02T06:24:14.793Z</time></trkpt><trkpt lat="43.7563738" lon="12.4217073"><ele>574.0</ele><time>2026-05-02T06:24:15.812Z</time></trkpt><trkpt lat="43.756283" lon="12.4217176"><ele>574.0</ele><time>2026-05-02T06:24:16.798Z</time></trkpt><trkpt lat="43.7561931" lon="12.4217223"><ele>574.0</ele><time>2026-05-02T06:24:17.815Z</time></trkpt><trkpt lat="43.7561122" lon="12.4217084"><ele>574.0</ele><time>2026-05-02T06:24:18.814Z</time></trkpt><trkpt lat="43.7560367" lon="12.4217128"><ele>574.0</ele><time>2026-05-02T06:24:19.803Z</time></trkpt><trkpt lat="43.7559633" lon="12.4217258"><ele>574.0</ele><time>2026-05-02T06:24:20.808Z</time></trkpt><trkpt lat="43.7558917" lon="12.4217427"><ele>574.0</ele><time>2026-05-02T06:24:21.793Z</time></trkpt><trkpt lat="43.7558234" lon="12.4217575"><ele>572.0</ele><time>2026-05-02T06:24:22.8Z</time></trkpt><trkpt lat="43.7557547" lon="12.4217686"><ele>570.0</ele><time>2026-05-02T06:24:23.796Z</time></trkpt><trkpt lat="43.7556887" lon="12.4217844"><ele>568.0</ele><time>2026-05-02T06:24:24.793Z</time></trkpt><trkpt lat="43.7556226" lon="12.4217963"><ele>566.0</ele><time>2026-05-02T06:24:25.799Z</time></trkpt><trkpt lat="43.7555556" lon="12.4217794"><ele>564.0</ele><time>2026-05-02T06:24:26.794Z</time></trkpt><trkpt lat="43.7554898" lon="12.4217365"><ele>562.0</ele><time>2026-05-02T06:24:27.794Z</time></trkpt><trkpt lat="43.7554214" lon="12.4216751"><ele>560.0</ele><time>2026-05-02T06:24:28.797Z</time></trkpt><trkpt lat="43.7553558" lon="12.4216201"><ele>560.0</ele><time>2026-05-02T06:24:29.798Z</time></trkpt><trkpt lat="43.7552878" lon="12.4215802"><ele>560.0</ele><time>2026-05-02T06:24:30.787Z</time></trkpt><trkpt lat="43.7552145" lon="12.4215671"><ele>560.0</ele><time>2026-05-02T06:24:31.809Z</time></trkpt><trkpt lat="43.7551425" lon="12.4215895"><ele>560.0</ele><time>2026-05-02T06:24:32.795Z</time></trkpt><trkpt lat="43.7550729" lon="12.4216453"><ele>560.0</ele><time>2026-05-02T06:24:33.797Z</time></trkpt><trkpt lat="43.7550023" lon="12.4217201"><ele>560.0</ele><time>2026-05-02T06:24:34.797Z</time></trkpt><trkpt lat="43.7549314" lon="12.4217936"><ele>555.8</ele><time>2026-05-02T06:24:35.791Z</time></trkpt><trkpt lat="43.7548557" lon="12.4218551"><ele>551.6</ele><time>2026-05-02T06:24:36.79Z</time></trkpt><trkpt lat="43.7547803" lon="12.4219269"><ele>547.4</ele><time>2026-05-02T06:24:37.803Z</time></trkpt><trkpt lat="43.7547" lon="12.4219884"><ele>543.2</ele><time>2026-05-02T06:24:38.788Z</time></trkpt><trkpt lat="43.754618" lon="12.4220595"><ele>539.0</ele><time>2026-05-02T06:24:39.805Z</time></trkpt><trkpt lat="43.754545" lon="12.4221329"><ele>537.2857142857143</ele><time>2026-05-02T06:24:40.776Z</time></trkpt><trkpt lat="43.7544829" lon="12.4222138"><ele>535.5714285714286</ele><time>2026-05-02T06:24:41.797Z</time></trkpt><trkpt lat="43.754432" lon="12.4222957"><ele>533.8571428571429</ele><time>2026-05-02T06:24:42.795Z</time></trkpt><trkpt lat="43.7543851" lon="12.4223761"><ele>532.1428571428571</ele><time>2026-05-02T06:24:43.802Z</time></trkpt><trkpt lat="43.754351" lon="12.4224572"><ele>530.4285714285714</ele><time>2026-05-02T06:24:44.803Z</time></trkpt><trkpt lat="43.7543194" lon="12.4225422"><ele>528.7142857142858</ele><time>2026-05-02T06:24:45.804Z</time></trkpt><trkpt lat="43.7542966" lon="12.4226267"><ele>527.0</ele><time>2026-05-02T06:24:46.792Z</time></trkpt><trkpt lat="43.7542761" lon="12.4227723"><ele>527.0</ele><time>2026-05-02T06:24:48.805Z</time></trkpt><trkpt lat="43.7542386" lon="12.4228455"><ele>527.0</ele><time>2026-05-02T06:24:50.788Z</time></trkpt><trkpt lat="43.7541934" lon="12.4227516"><ele>527.0</ele><time>2026-05-02T06:24:53.807Z</time></trkpt><trkpt lat="43.7542378" lon="12.422599"><ele>527.0</ele><time>2026-05-02T06:24:55.802Z</time></trkpt><trkpt lat="43.754269" lon="12.4225019"><ele>527.0</ele><time>2026-05-02T06:24:56.796Z</time></trkpt><trkpt lat="43.754297" lon="12.4224036"><ele>527.0</ele><time>2026-05-02T06:24:57.802Z</time></trkpt><trkpt lat="43.754326" lon="12.4223072"><ele>527.0</ele><time>2026-05-02T06:24:58.795Z</time></trkpt><trkpt lat="43.7543407" lon="12.4222124"><ele>527.0</ele><time>2026-05-02T06:24:59.793Z</time></trkpt><trkpt lat="43.754333" lon="12.4221173"><ele>527.0</ele><time>2026-05-02T06:25:00.8Z</time></trkpt><trkpt lat="43.7543122" lon="12.4220335"><ele>527.0</ele><time>2026-05-02T06:25:01.806Z</time></trkpt><trkpt lat="43.7542277" lon="12.421905"><ele>527.0</ele><time>2026-05-02T06:25:03.798Z</time></trkpt><trkpt lat="43.7541627" lon="12.4218942"><ele>527.0</ele><time>2026-05-02T06:25:04.796Z</time></trkpt><trkpt lat="43.7541044" lon="12.421931"><ele>527.0</ele><time>2026-05-02T06:25:05.784Z</time></trkpt><trkpt lat="43.7540534" lon="12.4220073"><ele>527.0</ele><time>2026-05-02T06:25:06.786Z</time></trkpt><trkpt lat="43.7539902" lon="12.4221118"><ele>527.0</ele><time>2026-05-02T06:25:07.798Z</time></trkpt><trkpt lat="43.7539296" lon="12.4222429"><ele>527.0</ele><time>2026-05-02T06:25:08.798Z</time></trkpt><trkpt lat="43.7538629" lon="12.4223735"><ele>527.0</ele><time>2026-05-02T06:25:09.794Z</time></trkpt><trkpt lat="43.7537997" lon="12.4225002"><ele>527.0</ele><time>2026-05-02T06:25:10.789Z</time></trkpt><trkpt lat="43.7537386" lon="12.4226263"><ele>527.0</ele><time>2026-05-02T06:25:11.8Z</time></trkpt><trkpt lat="43.7536719" lon="12.4227397"><ele>527.0</ele><time>2026-05-02T06:25:12.803Z</time></trkpt><trkpt lat="43.7535992" lon="12.4228407"><ele>527.0</ele><time>2026-05-02T06:25:13.792Z</time></trkpt><trkpt lat="43.7535216" lon="12.4229328"><ele>527.0</ele><time>2026-05-02T06:25:14.801Z</time></trkpt><trkpt lat="43.7534333" lon="12.4230171"><ele>523.8000000000001</ele><time>2026-05-02T06:25:15.809Z</time></trkpt><trkpt lat="43.7533448" lon="12.4230956"><ele>520.6</ele><time>2026-05-02T06:25:16.794Z</time></trkpt><trkpt lat="43.7532519" lon="12.4231707"><ele>517.4000000000001</ele><time>2026-05-02T06:25:17.799Z</time></trkpt><trkpt lat="43.7531514" lon="12.4232419"><ele>514.2</ele><time>2026-05-02T06:25:18.789Z</time></trkpt><trkpt lat="43.7530451" lon="12.4233102"><ele>511.0</ele><time>2026-05-02T06:25:19.788Z</time></trkpt><trkpt lat="43.7529383" lon="12.4233798"><ele>511.0</ele><time>2026-05-02T06:25:20.78Z</time></trkpt><trkpt lat="43.7528345" lon="12.4234441"><ele>511.0</ele><time>2026-05-02T06:25:21.791Z</time></trkpt><trkpt lat="43.7527326" lon="12.4235027"><ele>511.0</ele><time>2026-05-02T06:25:22.794Z</time></trkpt><trkpt lat="43.7526284" lon="12.4235534"><ele>511.0</ele><time>2026-05-02T06:25:23.813Z</time></trkpt><trkpt lat="43.7525205" lon="12.4235997"><ele>511.0</ele><time>2026-05-02T06:25:24.797Z</time></trkpt><trkpt lat="43.7524085" lon="12.4236453"><ele>509.4</ele><time>2026-05-02T06:25:25.809Z</time></trkpt><trkpt lat="43.7522949" lon="12.4236884"><ele>507.8</ele><time>2026-05-02T06:25:26.801Z</time></trkpt><trkpt lat="43.7521923" lon="12.4237255"><ele>506.19999999999993</ele><time>2026-05-02T06:25:27.795Z</time></trkpt><trkpt lat="43.7520953" lon="12.4237614"><ele>504.59999999999997</ele><time>2026-05-02T06:25:28.793Z</time></trkpt><trkpt lat="43.7519985" lon="12.4237924"><ele>503.0</ele><time>2026-05-02T06:25:29.8Z</time></trkpt><trkpt lat="43.751909" lon="12.4238233"><ele>499.79999999999995</ele><time>2026-05-02T06:25:30.808Z</time></trkpt><trkpt lat="43.7518183" lon="12.423849"><ele>496.59999999999997</ele><time>2026-05-02T06:25:31.797Z</time></trkpt><trkpt lat="43.7517282" lon="12.4238676"><ele>493.40000000000003</ele><time>2026-05-02T06:25:32.809Z</time></trkpt><trkpt lat="43.7516307" lon="12.423864"><ele>490.20000000000005</ele><time>2026-05-02T06:25:33.788Z</time></trkpt><trkpt lat="43.7515234" lon="12.4238412"><ele>487.0</ele><time>2026-05-02T06:25:34.802Z</time></trkpt><trkpt lat="43.7514166" lon="12.4237915"><ele>485.5</ele><time>2026-05-02T06:25:35.799Z</time></trkpt><trkpt lat="43.7513164" lon="12.4237206"><ele>484.0</ele><time>2026-05-02T06:25:36.805Z</time></trkpt><trkpt lat="43.7512208" lon="12.4236332"><ele>482.5</ele><time>2026-05-02T06:25:37.81Z</time></trkpt><trkpt lat="43.7511264" lon="12.423542"><ele>481.0</ele><time>2026-05-02T06:25:38.811Z</time></trkpt><trkpt lat="43.7510353" lon="12.4234402"><ele>480.0</ele><time>2026-05-02T06:25:39.817Z</time></trkpt><trkpt lat="43.7509449" lon="12.4233328"><ele>479.0</ele><time>2026-05-02T06:25:40.807Z</time></trkpt><trkpt lat="43.7508575" lon="12.4232204"><ele>478.0</ele><time>2026-05-02T06:25:41.817Z</time></trkpt><trkpt lat="43.7507765" lon="12.4230909"><ele>477.0</ele><time>2026-05-02T06:25:42.807Z</time></trkpt><trkpt lat="43.7507076" lon="12.4229567"><ele>475.8</ele><time>2026-05-02T06:25:43.823Z</time></trkpt><trkpt lat="43.7506517" lon="12.4228309"><ele>474.6</ele><time>2026-05-02T06:25:44.814Z</time></trkpt><trkpt lat="43.7506003" lon="12.4226981"><ele>473.40000000000003</ele><time>2026-05-02T06:25:45.806Z</time></trkpt><trkpt lat="43.7505469" lon="12.4225593"><ele>472.20000000000005</ele><time>2026-05-02T06:25:46.798Z</time></trkpt><trkpt lat="43.7504965" lon="12.4224192"><ele>471.0</ele><time>2026-05-02T06:25:47.803Z</time></trkpt><trkpt lat="43.7504522" lon="12.4222759"><ele>468.6</ele><time>2026-05-02T06:25:48.795Z</time></trkpt><trkpt lat="43.7504094" lon="12.4221329"><ele>466.20000000000005</ele><time>2026-05-02T06:25:49.809Z</time></trkpt><trkpt lat="43.7503739" lon="12.4219959"><ele>463.79999999999995</ele><time>2026-05-02T06:25:50.798Z</time></trkpt><trkpt lat="43.7503443" lon="12.421878"><ele>461.4</ele><time>2026-05-02T06:25:51.802Z</time></trkpt><trkpt lat="43.7503123" lon="12.4217787"><ele>459.0</ele><time>2026-05-02T06:25:52.787Z</time></trkpt><trkpt lat="43.7502694" lon="12.4217113"><ele>461.6666666666667</ele><time>2026-05-02T06:25:53.819Z</time></trkpt><trkpt lat="43.7502058" lon="12.4216673"><ele>464.33333333333337</ele><time>2026-05-02T06:25:54.804Z</time></trkpt><trkpt lat="43.7501296" lon="12.4216402"><ele>467.0</ele><time>2026-05-02T06:25:55.805Z</time></trkpt><trkpt lat="43.75004" lon="12.4216303"><ele>469.6666666666667</ele><time>2026-05-02T06:25:56.802Z</time></trkpt><trkpt lat="43.7499432" lon="12.4216187"><ele>472.33333333333337</ele><time>2026-05-02T06:25:57.794Z</time></trkpt><trkpt lat="43.7498447" lon="12.421597"><ele>475.0</ele><time>2026-05-02T06:25:58.796Z</time></trkpt><trkpt lat="43.7497471" lon="12.4215575"><ele>475.0</ele><time>2026-05-02T06:25:59.807Z</time></trkpt><trkpt lat="43.7496579" lon="12.4214866"><ele>475.0</ele><time>2026-05-02T06:26:00.803Z</time></trkpt><trkpt lat="43.7495868" lon="12.4213862"><ele>475.0</ele><time>2026-05-02T06:26:01.804Z</time></trkpt><trkpt lat="43.7495167" lon="12.4212761"><ele>475.0</ele><time>2026-05-02T06:26:02.796Z</time></trkpt><trkpt lat="43.7494524" lon="12.4211599"><ele>475.0</ele><time>2026-05-02T06:26:03.815Z</time></trkpt><trkpt lat="43.74939" lon="12.4210643"><ele>473.1666666666667</ele><time>2026-05-02T06:26:04.804Z</time></trkpt><trkpt lat="43.7493267" lon="12.4209872"><ele>471.33333333333337</ele><time>2026-05-02T06:26:05.808Z</time></trkpt><trkpt lat="43.7492697" lon="12.4209105"><ele>469.5</ele><time>2026-05-02T06:26:06.803Z</time></trkpt><trkpt lat="43.7491819" lon="12.4208105"><ele>467.66666666666663</ele><time>2026-05-02T06:26:08.798Z</time></trkpt><trkpt lat="43.7491323" lon="12.4207461"><ele>465.8333333333333</ele><time>2026-05-02T06:26:10.798Z</time></trkpt><trkpt lat="43.7490951" lon="12.4206685"><ele>464.0</ele><time>2026-05-02T06:26:14.811Z</time></trkpt><trkpt lat="43.7490548" lon="12.4205863"><ele>463.99999999999994</ele><time>2026-05-02T06:26:19.807Z</time></trkpt><trkpt lat="43.7489798" lon="12.4205865"><ele>464.0</ele><time>2026-05-02T06:28:12.804Z</time></trkpt><trkpt lat="43.7490213" lon="12.4206658"><ele>464.0</ele><time>2026-05-02T06:28:18.807Z</time></trkpt><trkpt lat="43.749102" lon="12.4206713"><ele>464.0</ele><time>2026-05-02T06:28:22.795Z</time></trkpt><trkpt lat="43.7490353" lon="12.420674"><ele>463.99999999999994</ele><time>2026-05-02T06:34:59.807Z</time></trkpt><trkpt lat="43.7489484" lon="12.4205759"><ele>464.0</ele><time>2026-05-02T06:35:01.808Z</time></trkpt><trkpt lat="43.7488983" lon="12.4205164"><ele>462.3333333333333</ele><time>2026-05-02T06:35:02.821Z</time></trkpt><trkpt lat="43.7488372" lon="12.4204457"><ele>460.66666666666663</ele><time>2026-05-02T06:35:03.821Z</time></trkpt><trkpt lat="43.7487711" lon="12.4203649"><ele>459.0</ele><time>2026-05-02T06:35:04.793Z</time></trkpt><trkpt lat="43.7487122" lon="12.4202773"><ele>457.33333333333337</ele><time>2026-05-02T06:35:05.811Z</time></trkpt><trkpt lat="43.7486609" lon="12.4201833"><ele>455.6666666666667</ele><time>2026-05-02T06:35:06.806Z</time></trkpt><trkpt lat="43.7486216" lon="12.4200912"><ele>454.0</ele><time>2026-05-02T06:35:07.829Z</time></trkpt><trkpt lat="43.7485906" lon="12.4199955"><ele>454.00000000000006</ele><time>2026-05-02T06:35:08.794Z</time></trkpt><trkpt lat="43.7485649" lon="12.4198994"><ele>454.0</ele><time>2026-05-02T06:35:09.814Z</time></trkpt><trkpt lat="43.7485424" lon="12.4198028"><ele>454.0</ele><time>2026-05-02T06:35:10.783Z</time></trkpt><trkpt lat="43.7485206" lon="12.4197157"><ele>454.0</ele><time>2026-05-02T06:35:11.801Z</time></trkpt><trkpt lat="43.7484934" lon="12.4196337"><ele>454.00000000000006</ele><time>2026-05-02T06:35:12.8Z</time></trkpt><trkpt lat="43.7484275" lon="12.4194876"><ele>454.0</ele><time>2026-05-02T06:35:14.811Z</time></trkpt><trkpt lat="43.7483752" lon="12.4194378"><ele>453.6666666666667</ele><time>2026-05-02T06:35:15.819Z</time></trkpt><trkpt lat="43.7482607" lon="12.41942"><ele>453.33333333333337</ele><time>2026-05-02T06:35:17.8Z</time></trkpt><trkpt lat="43.7482133" lon="12.4194778"><ele>453.0</ele><time>2026-05-02T06:35:18.805Z</time></trkpt><trkpt lat="43.7481747" lon="12.419558"><ele>452.66666666666663</ele><time>2026-05-02T06:35:19.793Z</time></trkpt><trkpt lat="43.7481503" lon="12.4196537"><ele>452.3333333333333</ele><time>2026-05-02T06:35:20.798Z</time></trkpt><trkpt lat="43.7481439" lon="12.4197684"><ele>452.0</ele><time>2026-05-02T06:35:21.806Z</time></trkpt><trkpt lat="43.7481508" lon="12.4199035"><ele>452.0</ele><time>2026-05-02T06:35:22.801Z</time></trkpt><trkpt lat="43.7481659" lon="12.4200494"><ele>452.00000000000006</ele><time>2026-05-02T06:35:23.808Z</time></trkpt><trkpt lat="43.7481787" lon="12.4201983"><ele>452.00000000000006</ele><time>2026-05-02T06:35:24.791Z</time></trkpt><trkpt lat="43.7481848" lon="12.4203437"><ele>452.0</ele><time>2026-05-02T06:35:25.796Z</time></trkpt><trkpt lat="43.748182" lon="12.4204923"><ele>452.0</ele><time>2026-05-02T06:35:26.807Z</time></trkpt><trkpt lat="43.7481776" lon="12.4206327"><ele>452.16666666666663</ele><time>2026-05-02T06:35:27.799Z</time></trkpt><trkpt lat="43.748179" lon="12.4207603"><ele>452.3333333333333</ele><time>2026-05-02T06:35:28.795Z</time></trkpt><trkpt lat="43.7481903" lon="12.4208824"><ele>452.5</ele><time>2026-05-02T06:35:29.797Z</time></trkpt><trkpt lat="43.7482047" lon="12.4210006"><ele>452.66666666666663</ele><time>2026-05-02T06:35:30.811Z</time></trkpt><trkpt lat="43.7482077" lon="12.421106"><ele>452.8333333333333</ele><time>2026-05-02T06:35:31.809Z</time></trkpt><trkpt lat="43.7481983" lon="12.4212039"><ele>453.0</ele><time>2026-05-02T06:35:32.802Z</time></trkpt><trkpt lat="43.7481145" lon="12.4213206"><ele>453.0</ele><time>2026-05-02T06:35:34.804Z</time></trkpt><trkpt lat="43.7480442" lon="12.4213223"><ele>453.0</ele><time>2026-05-02T06:35:35.816Z</time></trkpt><trkpt lat="43.7479809" lon="12.4212654"><ele>453.0</ele><time>2026-05-02T06:35:36.782Z</time></trkpt><trkpt lat="43.7479235" lon="12.4211802"><ele>453.0</ele><time>2026-05-02T06:35:37.804Z</time></trkpt><trkpt lat="43.7478851" lon="12.4210546"><ele>453.0</ele><time>2026-05-02T06:35:38.796Z</time></trkpt><trkpt lat="43.7478548" lon="12.4209273"><ele>453.0</ele><time>2026-05-02T06:35:39.814Z</time></trkpt><trkpt lat="43.7478259" lon="12.4208194"><ele>453.0</ele><time>2026-05-02T06:35:40.796Z</time></trkpt><trkpt lat="43.7477908" lon="12.4207304"><ele>453.0</ele><time>2026-05-02T06:35:41.822Z</time></trkpt><trkpt lat="43.7477482" lon="12.4206617"><ele>453.0</ele><time>2026-05-02T06:35:42.805Z</time></trkpt><trkpt lat="43.7476185" lon="12.4206324"><ele>453.0</ele><time>2026-05-02T06:35:44.804Z</time></trkpt><trkpt lat="43.7475498" lon="12.4206774"><ele>453.0</ele><time>2026-05-02T06:35:45.815Z</time></trkpt><trkpt lat="43.7474915" lon="12.4207421"><ele>453.0</ele><time>2026-05-02T06:35:46.796Z</time></trkpt><trkpt lat="43.7474377" lon="12.4208173"><ele>449.3333333333333</ele><time>2026-05-02T06:35:47.788Z</time></trkpt><trkpt lat="43.7473884" lon="12.4209092"><ele>445.66666666666663</ele><time>2026-05-02T06:35:48.806Z</time></trkpt><trkpt lat="43.7473308" lon="12.4210014"><ele>442.0</ele><time>2026-05-02T06:35:49.795Z</time></trkpt><trkpt lat="43.7472607" lon="12.4210691"><ele>438.3333333333333</ele><time>2026-05-02T06:35:50.797Z</time></trkpt><trkpt lat="43.747178" lon="12.4210842"><ele>434.66666666666663</ele><time>2026-05-02T06:35:51.805Z</time></trkpt><trkpt lat="43.7470852" lon="12.4210701"><ele>431.0</ele><time>2026-05-02T06:35:52.789Z</time></trkpt><trkpt lat="43.746987" lon="12.4210342"><ele>428.20000000000005</ele><time>2026-05-02T06:35:53.816Z</time></trkpt><trkpt lat="43.746877" lon="12.4209985"><ele>425.40000000000003</ele><time>2026-05-02T06:35:54.797Z</time></trkpt><trkpt lat="43.7467647" lon="12.420966"><ele>422.6</ele><time>2026-05-02T06:35:55.789Z</time></trkpt><trkpt lat="43.7466614" lon="12.4209411"><ele>419.8</ele><time>2026-05-02T06:35:56.799Z</time></trkpt><trkpt lat="43.7465623" lon="12.4209131"><ele>417.0</ele><time>2026-05-02T06:35:57.81Z</time></trkpt><trkpt lat="43.7464705" lon="12.420885"><ele>417.0</ele><time>2026-05-02T06:35:58.798Z</time></trkpt><trkpt lat="43.7463853" lon="12.420859"><ele>417.0</ele><time>2026-05-02T06:35:59.799Z</time></trkpt><trkpt lat="43.7463002" lon="12.4208424"><ele>417.0</ele><time>2026-05-02T06:36:00.793Z</time></trkpt><trkpt lat="43.7462127" lon="12.4208325"><ele>417.0</ele><time>2026-05-02T06:36:01.816Z</time></trkpt><trkpt lat="43.7461159" lon="12.4208269"><ele>417.0</ele><time>2026-05-02T06:36:02.803Z</time></trkpt><trkpt lat="43.7460114" lon="12.4208248"><ele>415.40000000000003</ele><time>2026-05-02T06:36:03.806Z</time></trkpt><trkpt lat="43.7459016" lon="12.4208329"><ele>413.8</ele><time>2026-05-02T06:36:04.793Z</time></trkpt><trkpt lat="43.7457959" lon="12.4208445"><ele>412.2</ele><time>2026-05-02T06:36:05.804Z</time></trkpt><trkpt lat="43.7457025" lon="12.4208589"><ele>410.6</ele><time>2026-05-02T06:36:06.797Z</time></trkpt><trkpt lat="43.7456138" lon="12.4208559"><ele>409.0</ele><time>2026-05-02T06:36:07.79Z</time></trkpt><trkpt lat="43.7455302" lon="12.4208351"><ele>409.00000000000006</ele><time>2026-05-02T06:36:08.79Z</time></trkpt><trkpt lat="43.7454533" lon="12.4208002"><ele>409.0</ele><time>2026-05-02T06:36:09.803Z</time></trkpt><trkpt lat="43.7453809" lon="12.4207583"><ele>409.0</ele><time>2026-05-02T06:36:10.794Z</time></trkpt><trkpt lat="43.7453185" lon="12.4207062"><ele>409.0</ele><time>2026-05-02T06:36:11.797Z</time></trkpt><trkpt lat="43.7452727" lon="12.42064"><ele>409.00000000000006</ele><time>2026-05-02T06:36:12.801Z</time></trkpt><trkpt lat="43.7452339" lon="12.4204763"><ele>409.0</ele><time>2026-05-02T06:36:14.798Z</time></trkpt><trkpt lat="43.7452298" lon="12.4203768"><ele>407.83333333333337</ele><time>2026-05-02T06:36:15.792Z</time></trkpt><trkpt lat="43.7452217" lon="12.420267"><ele>406.6666666666667</ele><time>2026-05-02T06:36:16.796Z</time></trkpt><trkpt lat="43.7452158" lon="12.420152"><ele>405.5</ele><time>2026-05-02T06:36:17.785Z</time></trkpt><trkpt lat="43.7452164" lon="12.4200391"><ele>404.33333333333337</ele><time>2026-05-02T06:36:18.787Z</time></trkpt><trkpt lat="43.7452335" lon="12.4199385"><ele>403.1666666666667</ele><time>2026-05-02T06:36:19.795Z</time></trkpt><trkpt lat="43.7452766" lon="12.4198634"><ele>402.0</ele><time>2026-05-02T06:36:20.793Z</time></trkpt><trkpt lat="43.7453542" lon="12.4198155"><ele>402.0</ele><time>2026-05-02T06:36:21.8Z</time></trkpt><trkpt lat="43.7454505" lon="12.4197885"><ele>402.0</ele><time>2026-05-02T06:36:22.782Z</time></trkpt><trkpt lat="43.7455689" lon="12.4197583"><ele>402.0</ele><time>2026-05-02T06:36:23.787Z</time></trkpt><trkpt lat="43.7457035" lon="12.4197179"><ele>402.0</ele><time>2026-05-02T06:36:24.784Z</time></trkpt><trkpt lat="43.7458383" lon="12.4196648"><ele>402.40000000000003</ele><time>2026-05-02T06:36:25.791Z</time></trkpt><trkpt lat="43.7459505" lon="12.4196202"><ele>402.8</ele><time>2026-05-02T06:36:26.788Z</time></trkpt><trkpt lat="43.7460411" lon="12.4195682"><ele>403.2</ele><time>2026-05-02T06:36:27.782Z</time></trkpt><trkpt lat="43.7460996" lon="12.4194783"><ele>403.6</ele><time>2026-05-02T06:36:28.787Z</time></trkpt><trkpt lat="43.7461171" lon="12.4193672"><ele>404.0</ele><time>2026-05-02T06:36:29.786Z</time></trkpt><trkpt lat="43.7460936" lon="12.4192564"><ele>401.2</ele><time>2026-05-02T06:36:30.793Z</time></trkpt><trkpt lat="43.7460301" lon="12.4191975"><ele>398.4</ele><time>2026-05-02T06:36:31.799Z</time></trkpt><trkpt lat="43.7459385" lon="12.419201"><ele>395.6</ele><time>2026-05-02T06:36:32.792Z</time></trkpt><trkpt lat="43.7458316" lon="12.4192666"><ele>392.8</ele><time>2026-05-02T06:36:33.803Z</time></trkpt><trkpt lat="43.7457243" lon="12.4193578"><ele>390.0</ele><time>2026-05-02T06:36:34.793Z</time></trkpt><trkpt lat="43.7456008" lon="12.4194347"><ele>390.0</ele><time>2026-05-02T06:36:35.809Z</time></trkpt><trkpt lat="43.7454822" lon="12.4194549"><ele>390.0</ele><time>2026-05-02T06:36:36.795Z</time></trkpt><trkpt lat="43.7453776" lon="12.4194157"><ele>390.0</ele><time>2026-05-02T06:36:37.825Z</time></trkpt><trkpt lat="43.7452733" lon="12.419326"><ele>390.0</ele><time>2026-05-02T06:36:38.796Z</time></trkpt><trkpt lat="43.7451577" lon="12.4192172"><ele>386.75</ele><time>2026-05-02T06:36:39.792Z</time></trkpt><trkpt lat="43.7450441" lon="12.4191086"><ele>383.5</ele><time>2026-05-02T06:36:40.798Z</time></trkpt><trkpt lat="43.744935" lon="12.4190151"><ele>380.25</ele><time>2026-05-02T06:36:41.789Z</time></trkpt><trkpt lat="43.7448312" lon="12.4189285"><ele>377.0</ele><time>2026-05-02T06:36:42.786Z</time></trkpt><trkpt lat="43.7447329" lon="12.4188865"><ele>377.0</ele><time>2026-05-02T06:36:43.783Z</time></trkpt><trkpt lat="43.7446364" lon="12.4189007"><ele>377.0</ele><time>2026-05-02T06:36:44.796Z</time></trkpt><trkpt lat="43.7445533" lon="12.418974"><ele>377.0</ele><time>2026-05-02T06:36:45.789Z</time></trkpt><trkpt lat="43.7444688" lon="12.4190975"><ele>377.0</ele><time>2026-05-02T06:36:46.796Z</time></trkpt><trkpt lat="43.7443697" lon="12.4192384"><ele>374.6666666666667</ele><time>2026-05-02T06:36:47.781Z</time></trkpt><trkpt lat="43.7442685" lon="12.4194058"><ele>372.3333333333333</ele><time>2026-05-02T06:36:48.788Z</time></trkpt><trkpt lat="43.744163" lon="12.4195616"><ele>370.0</ele><time>2026-05-02T06:36:49.789Z</time></trkpt><trkpt lat="43.7440583" lon="12.4197133"><ele>370.0</ele><time>2026-05-02T06:36:50.789Z</time></trkpt><trkpt lat="43.7439566" lon="12.4198615"><ele>370.0</ele><time>2026-05-02T06:36:51.793Z</time></trkpt><trkpt lat="43.7438537" lon="12.4200137"><ele>370.0</ele><time>2026-05-02T06:36:52.8Z</time></trkpt><trkpt lat="43.7437627" lon="12.4201473"><ele>370.0</ele><time>2026-05-02T06:36:53.783Z</time></trkpt><trkpt lat="43.7436811" lon="12.4202667"><ele>370.0</ele><time>2026-05-02T06:36:54.784Z</time></trkpt><trkpt lat="43.7436017" lon="12.4203717"><ele>370.0</ele><time>2026-05-02T06:36:55.794Z</time></trkpt><trkpt lat="43.7435153" lon="12.4204349"><ele>370.0</ele><time>2026-05-02T06:36:56.795Z</time></trkpt><trkpt lat="43.7434351" lon="12.4204534"><ele>370.0</ele><time>2026-05-02T06:36:57.801Z</time></trkpt><trkpt lat="43.7433562" lon="12.4204385"><ele>370.0</ele><time>2026-05-02T06:36:58.791Z</time></trkpt><trkpt lat="43.7432872" lon="12.4203573"><ele>370.0</ele><time>2026-05-02T06:37:00.781Z</time></trkpt><trkpt lat="43.7433431" lon="12.420219"><ele>370.0</ele><time>2026-05-02T06:37:02.801Z</time></trkpt><trkpt lat="43.7434077" lon="12.4201292"><ele>370.0</ele><time>2026-05-02T06:37:03.794Z</time></trkpt><trkpt lat="43.7434894" lon="12.4200164"><ele>370.0</ele><time>2026-05-02T06:37:04.78Z</time></trkpt><trkpt lat="43.7435794" lon="12.4198732"><ele>370.0</ele><time>2026-05-02T06:37:05.81Z</time></trkpt><trkpt lat="43.7436661" lon="12.4197064"><ele>370.0</ele><time>2026-05-02T06:37:06.816Z</time></trkpt><trkpt lat="43.7437452" lon="12.4195389"><ele>370.0</ele><time>2026-05-02T06:37:07.794Z</time></trkpt><trkpt lat="43.7438172" lon="12.4193778"><ele>370.0</ele><time>2026-05-02T06:37:08.797Z</time></trkpt><trkpt lat="43.7438823" lon="12.4192237"><ele>366.75</ele><time>2026-05-02T06:37:09.794Z</time></trkpt><trkpt lat="43.7439512" lon="12.4190742"><ele>363.5</ele><time>2026-05-02T06:37:10.798Z</time></trkpt><trkpt lat="43.7440264" lon="12.4189241"><ele>360.25</ele><time>2026-05-02T06:37:11.787Z</time></trkpt><trkpt lat="43.7441021" lon="12.4187608"><ele>357.0</ele><time>2026-05-02T06:37:12.784Z</time></trkpt><trkpt lat="43.7441831" lon="12.418589"><ele>360.6666666666667</ele><time>2026-05-02T06:37:13.788Z</time></trkpt><trkpt lat="43.7442625" lon="12.4184078"><ele>364.33333333333337</ele><time>2026-05-02T06:37:14.78Z</time></trkpt><trkpt lat="43.7443442" lon="12.4182235"><ele>368.0</ele><time>2026-05-02T06:37:15.787Z</time></trkpt><trkpt lat="43.7444271" lon="12.4180353"><ele>365.6666666666667</ele><time>2026-05-02T06:37:16.78Z</time></trkpt><trkpt lat="43.7445121" lon="12.4178495"><ele>363.3333333333333</ele><time>2026-05-02T06:37:17.785Z</time></trkpt><trkpt lat="43.7445898" lon="12.4176602"><ele>361.0</ele><time>2026-05-02T06:37:18.79Z</time></trkpt><trkpt lat="43.7446561" lon="12.4174645"><ele>361.0</ele><time>2026-05-02T06:37:19.791Z</time></trkpt><trkpt lat="43.7447042" lon="12.4172604"><ele>361.0</ele><time>2026-05-02T06:37:20.794Z</time></trkpt><trkpt lat="43.7447457" lon="12.4170619"><ele>361.0</ele><time>2026-05-02T06:37:21.787Z</time></trkpt><trkpt lat="43.7447873" lon="12.4168706"><ele>361.0</ele><time>2026-05-02T06:37:22.797Z</time></trkpt><trkpt lat="43.7448341" lon="12.4166926"><ele>357.5</ele><time>2026-05-02T06:37:23.79Z</time></trkpt><trkpt lat="43.7448738" lon="12.4165142"><ele>354.0</ele><time>2026-05-02T06:37:24.784Z</time></trkpt><trkpt lat="43.744913" lon="12.4163373"><ele>350.5</ele><time>2026-05-02T06:37:25.793Z</time></trkpt><trkpt lat="43.7449559" lon="12.416159"><ele>347.0</ele><time>2026-05-02T06:37:26.794Z</time></trkpt><trkpt lat="43.7449987" lon="12.41597"><ele>344.0</ele><time>2026-05-02T06:37:27.791Z</time></trkpt><trkpt lat="43.7450451" lon="12.4157781"><ele>341.0</ele><time>2026-05-02T06:37:28.784Z</time></trkpt><trkpt lat="43.7450877" lon="12.4155728"><ele>338.0</ele><time>2026-05-02T06:37:29.8Z</time></trkpt><trkpt lat="43.7451411" lon="12.4153632"><ele>337.0</ele><time>2026-05-02T06:37:30.784Z</time></trkpt><trkpt lat="43.7451941" lon="12.4151421"><ele>336.0</ele><time>2026-05-02T06:37:31.8Z</time></trkpt><trkpt lat="43.7452476" lon="12.4149172"><ele>335.0</ele><time>2026-05-02T06:37:32.785Z</time></trkpt><trkpt lat="43.7453031" lon="12.4146914"><ele>337.6666666666667</ele><time>2026-05-02T06:37:33.792Z</time></trkpt><trkpt lat="43.7453553" lon="12.4144663"><ele>340.3333333333333</ele><time>2026-05-02T06:37:34.785Z</time></trkpt><trkpt lat="43.7454052" lon="12.4142497"><ele>343.0</ele><time>2026-05-02T06:37:35.795Z</time></trkpt><trkpt lat="43.7454589" lon="12.4140422"><ele>343.0</ele><time>2026-05-02T06:37:36.798Z</time></trkpt><trkpt lat="43.7455127" lon="12.4138376"><ele>343.0</ele><time>2026-05-02T06:37:37.799Z</time></trkpt><trkpt lat="43.7455769" lon="12.4136432"><ele>343.0</ele><time>2026-05-02T06:37:38.797Z</time></trkpt><trkpt lat="43.7456524" lon="12.4134634"><ele>343.0</ele><time>2026-05-02T06:37:39.8Z</time></trkpt><trkpt lat="43.7457429" lon="12.4132929"><ele>343.0</ele><time>2026-05-02T06:37:40.804Z</time></trkpt><trkpt lat="43.7458453" lon="12.4131328"><ele>343.0</ele><time>2026-05-02T06:37:41.797Z</time></trkpt><trkpt lat="43.7459564" lon="12.4129723"><ele>350.3333333333333</ele><time>2026-05-02T06:37:42.79Z</time></trkpt><trkpt lat="43.746069" lon="12.4128052"><ele>357.6666666666667</ele><time>2026-05-02T06:37:43.798Z</time></trkpt><trkpt lat="43.7461789" lon="12.4126338"><ele>365.0</ele><time>2026-05-02T06:37:44.794Z</time></trkpt><trkpt lat="43.7462893" lon="12.4124639"><ele>365.0</ele><time>2026-05-02T06:37:45.808Z</time></trkpt><trkpt lat="43.7463969" lon="12.412293"><ele>365.0</ele><time>2026-05-02T06:37:46.783Z</time></trkpt><trkpt lat="43.7465016" lon="12.4121342"><ele>365.0</ele><time>2026-05-02T06:37:47.814Z</time></trkpt><trkpt lat="43.7466045" lon="12.4119707"><ele>368.0</ele><time>2026-05-02T06:37:48.786Z</time></trkpt><trkpt lat="43.7467084" lon="12.4118085"><ele>371.0</ele><time>2026-05-02T06:37:49.789Z</time></trkpt><trkpt lat="43.746814" lon="12.4116516"><ele>374.0</ele><time>2026-05-02T06:37:50.796Z</time></trkpt><trkpt lat="43.7469171" lon="12.4114953"><ele>374.0</ele><time>2026-05-02T06:37:51.791Z</time></trkpt><trkpt lat="43.7470225" lon="12.4113403"><ele>374.0</ele><time>2026-05-02T06:37:52.786Z</time></trkpt><trkpt lat="43.7471316" lon="12.4111901"><ele>374.0</ele><time>2026-05-02T06:37:53.802Z</time></trkpt><trkpt lat="43.7472465" lon="12.4110454"><ele>369.25</ele><time>2026-05-02T06:37:54.786Z</time></trkpt><trkpt lat="43.7473655" lon="12.4109077"><ele>364.5</ele><time>2026-05-02T06:37:55.798Z</time></trkpt><trkpt lat="43.7474827" lon="12.4107786"><ele>359.75</ele><time>2026-05-02T06:37:56.787Z</time></trkpt><trkpt lat="43.7475899" lon="12.4106548"><ele>355.0</ele><time>2026-05-02T06:37:57.789Z</time></trkpt><trkpt lat="43.7476958" lon="12.4105282"><ele>356.75</ele><time>2026-05-02T06:37:58.786Z</time></trkpt><trkpt lat="43.7477965" lon="12.4103922"><ele>358.5</ele><time>2026-05-02T06:37:59.794Z</time></trkpt><trkpt lat="43.7478787" lon="12.410248"><ele>360.25</ele><time>2026-05-02T06:38:00.793Z</time></trkpt><trkpt lat="43.747947" lon="12.4100973"><ele>362.0</ele><time>2026-05-02T06:38:01.802Z</time></trkpt><trkpt lat="43.7480069" lon="12.4099305"><ele>362.0</ele><time>2026-05-02T06:38:02.786Z</time></trkpt><trkpt lat="43.7480726" lon="12.4097582"><ele>362.0</ele><time>2026-05-02T06:38:03.806Z</time></trkpt><trkpt lat="43.7481367" lon="12.409575"><ele>362.0</ele><time>2026-05-02T06:38:04.811Z</time></trkpt><trkpt lat="43.7482006" lon="12.4093906"><ele>362.0</ele><time>2026-05-02T06:38:05.803Z</time></trkpt><trkpt lat="43.7482814" lon="12.4092138"><ele>359.6666666666667</ele><time>2026-05-02T06:38:06.795Z</time></trkpt><trkpt lat="43.7483724" lon="12.4090461"><ele>357.3333333333333</ele><time>2026-05-02T06:38:07.796Z</time></trkpt><trkpt lat="43.7484756" lon="12.4088912"><ele>355.0</ele><time>2026-05-02T06:38:08.809Z</time></trkpt><trkpt lat="43.748593" lon="12.4087466"><ele>355.0</ele><time>2026-05-02T06:38:09.813Z</time></trkpt><trkpt lat="43.7487186" lon="12.4085992"><ele>355.0</ele><time>2026-05-02T06:38:10.807Z</time></trkpt><trkpt lat="43.7488441" lon="12.4084599"><ele>355.0</ele><time>2026-05-02T06:38:11.798Z</time></trkpt><trkpt lat="43.7489719" lon="12.4083284"><ele>355.0</ele><time>2026-05-02T06:38:12.802Z</time></trkpt><trkpt lat="43.7491004" lon="12.40821"><ele>355.0</ele><time>2026-05-02T06:38:13.808Z</time></trkpt><trkpt lat="43.7492306" lon="12.4081003"><ele>355.0</ele><time>2026-05-02T06:38:14.797Z</time></trkpt><trkpt lat="43.749362" lon="12.4080008"><ele>356.0</ele><time>2026-05-02T06:38:15.803Z</time></trkpt><trkpt lat="43.749495" lon="12.4078997"><ele>357.0</ele><time>2026-05-02T06:38:16.782Z</time></trkpt><trkpt lat="43.7496337" lon="12.407798"><ele>358.0</ele><time>2026-05-02T06:38:17.788Z</time></trkpt><trkpt lat="43.7497714" lon="12.4077026"><ele>358.0</ele><time>2026-05-02T06:38:18.786Z</time></trkpt><trkpt lat="43.7499134" lon="12.4076114"><ele>358.0</ele><time>2026-05-02T06:38:19.794Z</time></trkpt><trkpt lat="43.7500541" lon="12.4075251"><ele>358.0</ele><time>2026-05-02T06:38:20.792Z</time></trkpt><trkpt lat="43.7501927" lon="12.407443"><ele>356.0</ele><time>2026-05-02T06:38:21.798Z</time></trkpt><trkpt lat="43.7503246" lon="12.4073714"><ele>354.0</ele><time>2026-05-02T06:38:22.781Z</time></trkpt><trkpt lat="43.7504546" lon="12.4073076"><ele>352.0</ele><time>2026-05-02T06:38:23.779Z</time></trkpt><trkpt lat="43.7505856" lon="12.4072294"><ele>350.0</ele><time>2026-05-02T06:38:24.78Z</time></trkpt><trkpt lat="43.750705" lon="12.4071433"><ele>350.0</ele><time>2026-05-02T06:38:25.783Z</time></trkpt><trkpt lat="43.7508179" lon="12.4070522"><ele>350.0</ele><time>2026-05-02T06:38:26.785Z</time></trkpt><trkpt lat="43.7509185" lon="12.4069534"><ele>350.0</ele><time>2026-05-02T06:38:27.785Z</time></trkpt><trkpt lat="43.7510086" lon="12.4068518"><ele>350.0</ele><time>2026-05-02T06:38:28.782Z</time></trkpt><trkpt lat="43.7510894" lon="12.4067498"><ele>351.0</ele><time>2026-05-02T06:38:29.798Z</time></trkpt><trkpt lat="43.7511748" lon="12.4066485"><ele>352.0</ele><time>2026-05-02T06:38:30.795Z</time></trkpt><trkpt lat="43.7512549" lon="12.4065527"><ele>353.0</ele><time>2026-05-02T06:38:31.793Z</time></trkpt><trkpt lat="43.7513296" lon="12.4064606"><ele>354.0</ele><time>2026-05-02T06:38:32.797Z</time></trkpt><trkpt lat="43.7514014" lon="12.4063648"><ele>355.0</ele><time>2026-05-02T06:38:33.791Z</time></trkpt><trkpt lat="43.7514633" lon="12.4062747"><ele>355.0</ele><time>2026-05-02T06:38:34.782Z</time></trkpt><trkpt lat="43.7515273" lon="12.4061958"><ele>355.0</ele><time>2026-05-02T06:38:35.783Z</time></trkpt><trkpt lat="43.7515926" lon="12.4061154"><ele>355.0</ele><time>2026-05-02T06:38:36.791Z</time></trkpt><trkpt lat="43.7516648" lon="12.4060387"><ele>355.0</ele><time>2026-05-02T06:38:37.787Z</time></trkpt><trkpt lat="43.7517282" lon="12.4059525"><ele>355.0</ele><time>2026-05-02T06:38:38.787Z</time></trkpt><trkpt lat="43.7517902" lon="12.4058759"><ele>355.0</ele><time>2026-05-02T06:38:39.795Z</time></trkpt><trkpt lat="43.7518508" lon="12.4057989"><ele>356.0</ele><time>2026-05-02T06:38:40.781Z</time></trkpt><trkpt lat="43.7519142" lon="12.405721"><ele>357.0</ele><time>2026-05-02T06:38:41.789Z</time></trkpt><trkpt lat="43.7519842" lon="12.4056369"><ele>358.0</ele><time>2026-05-02T06:38:42.787Z</time></trkpt><trkpt lat="43.752056" lon="12.4055529"><ele>359.0</ele><time>2026-05-02T06:38:43.789Z</time></trkpt><trkpt lat="43.7521334" lon="12.4054708"><ele>360.0</ele><time>2026-05-02T06:38:44.779Z</time></trkpt><trkpt lat="43.7522139" lon="12.405392"><ele>360.0</ele><time>2026-05-02T06:38:45.782Z</time></trkpt><trkpt lat="43.7522935" lon="12.4053083"><ele>360.0</ele><time>2026-05-02T06:38:46.795Z</time></trkpt><trkpt lat="43.7523789" lon="12.4052203"><ele>360.0</ele><time>2026-05-02T06:38:47.796Z</time></trkpt><trkpt lat="43.752464" lon="12.4051247"><ele>360.0</ele><time>2026-05-02T06:38:48.78Z</time></trkpt><trkpt lat="43.7525408" lon="12.4050399"><ele>360.0</ele><time>2026-05-02T06:38:49.789Z</time></trkpt><trkpt lat="43.752605" lon="12.4049598"><ele>360.0</ele><time>2026-05-02T06:38:50.792Z</time></trkpt><trkpt lat="43.7526561" lon="12.4048443"><ele>360.0</ele><time>2026-05-02T06:38:52.782Z</time></trkpt><trkpt lat="43.7525955" lon="12.4047582"><ele>360.0</ele><time>2026-05-02T06:38:54.785Z</time></trkpt><trkpt lat="43.7524709" lon="12.404712"><ele>360.0</ele><time>2026-05-02T06:38:56.779Z</time></trkpt><trkpt lat="43.7523972" lon="12.4046836"><ele>360.0</ele><time>2026-05-02T06:38:57.791Z</time></trkpt><trkpt lat="43.7523197" lon="12.4046378"><ele>358.4285714285714</ele><time>2026-05-02T06:38:58.782Z</time></trkpt><trkpt lat="43.7522432" lon="12.4045954"><ele>356.8571428571429</ele><time>2026-05-02T06:38:59.781Z</time></trkpt><trkpt lat="43.7521745" lon="12.4045424"><ele>355.2857142857143</ele><time>2026-05-02T06:39:00.785Z</time></trkpt><trkpt lat="43.7521121" lon="12.4044953"><ele>353.71428571428567</ele><time>2026-05-02T06:39:01.799Z</time></trkpt><trkpt lat="43.7520532" lon="12.4044444"><ele>352.1428571428571</ele><time>2026-05-02T06:39:02.786Z</time></trkpt><trkpt lat="43.7519929" lon="12.4044043"><ele>350.57142857142856</ele><time>2026-05-02T06:39:03.797Z</time></trkpt><trkpt lat="43.7519308" lon="12.4043845"><ele>349.0</ele><time>2026-05-02T06:39:04.797Z</time></trkpt><trkpt lat="43.7518073" lon="12.404395"><ele>348.0</ele><time>2026-05-02T06:39:06.788Z</time></trkpt><trkpt lat="43.7517331" lon="12.4044138"><ele>347.0</ele><time>2026-05-02T06:39:07.793Z</time></trkpt><trkpt lat="43.751669" lon="12.4044389"><ele>346.0</ele><time>2026-05-02T06:39:08.801Z</time></trkpt><trkpt lat="43.7516068" lon="12.4044614"><ele>345.0</ele><time>2026-05-02T06:39:09.803Z</time></trkpt><trkpt lat="43.7514919" lon="12.4045003"><ele>344.0</ele><time>2026-05-02T06:39:11.788Z</time></trkpt><trkpt lat="43.7514005" lon="12.4044627"><ele>343.0</ele><time>2026-05-02T06:39:13.798Z</time></trkpt><trkpt lat="43.751365" lon="12.4043425"><ele>343.0</ele><time>2026-05-02T06:39:15.79Z</time></trkpt><trkpt lat="43.7513393" lon="12.4041875"><ele>343.0</ele><time>2026-05-02T06:39:17.79Z</time></trkpt><trkpt lat="43.7512981" lon="12.4040255"><ele>343.0</ele><time>2026-05-02T06:39:19.811Z</time></trkpt><trkpt lat="43.7512562" lon="12.403862"><ele>343.0</ele><time>2026-05-02T06:39:21.811Z</time></trkpt><trkpt lat="43.7512332" lon="12.4037662"><ele>343.0</ele><time>2026-05-02T06:39:22.791Z</time></trkpt><trkpt lat="43.7512022" lon="12.4036647"><ele>342.4</ele><time>2026-05-02T06:39:23.825Z</time></trkpt><trkpt lat="43.7511695" lon="12.403553"><ele>341.79999999999995</ele><time>2026-05-02T06:39:24.798Z</time></trkpt><trkpt lat="43.7511381" lon="12.4034304"><ele>341.2</ele><time>2026-05-02T06:39:25.799Z</time></trkpt><trkpt lat="43.7510999" lon="12.4033014"><ele>340.6</ele><time>2026-05-02T06:39:26.791Z</time></trkpt><trkpt lat="43.7510624" lon="12.4031729"><ele>340.0</ele><time>2026-05-02T06:39:27.806Z</time></trkpt><trkpt lat="43.7510261" lon="12.4030542"><ele>343.5</ele><time>2026-05-02T06:39:28.809Z</time></trkpt><trkpt lat="43.7509834" lon="12.4029433"><ele>347.0</ele><time>2026-05-02T06:39:29.812Z</time></trkpt><trkpt lat="43.7509279" lon="12.4028445"><ele>350.5</ele><time>2026-05-02T06:39:30.793Z</time></trkpt><trkpt lat="43.7508617" lon="12.4027766"><ele>354.0</ele><time>2026-05-02T06:39:31.786Z</time></trkpt><trkpt lat="43.750787" lon="12.4027216"><ele>357.5</ele><time>2026-05-02T06:39:32.798Z</time></trkpt><trkpt lat="43.7507045" lon="12.4026681"><ele>361.0</ele><time>2026-05-02T06:39:33.816Z</time></trkpt><trkpt lat="43.7506265" lon="12.4026123"><ele>361.0</ele><time>2026-05-02T06:39:34.796Z</time></trkpt><trkpt lat="43.7505562" lon="12.4025538"><ele>361.0</ele><time>2026-05-02T06:39:35.824Z</time></trkpt><trkpt lat="43.7504973" lon="12.4024904"><ele>361.0</ele><time>2026-05-02T06:39:36.797Z</time></trkpt><trkpt lat="43.7504483" lon="12.4024184"><ele>361.0</ele><time>2026-05-02T06:39:37.803Z</time></trkpt><trkpt lat="43.7504035" lon="12.4023427"><ele>361.0</ele><time>2026-05-02T06:39:38.801Z</time></trkpt><trkpt lat="43.7503654" lon="12.402258"><ele>361.0</ele><time>2026-05-02T06:39:39.811Z</time></trkpt><trkpt lat="43.750333" lon="12.4021616"><ele>361.0</ele><time>2026-05-02T06:39:40.802Z</time></trkpt><trkpt lat="43.7503015" lon="12.4020568"><ele>361.8333333333333</ele><time>2026-05-02T06:39:41.801Z</time></trkpt><trkpt lat="43.7502703" lon="12.4019461"><ele>362.66666666666663</ele><time>2026-05-02T06:39:42.802Z</time></trkpt><trkpt lat="43.7502289" lon="12.4018377"><ele>363.5</ele><time>2026-05-02T06:39:43.784Z</time></trkpt><trkpt lat="43.7501856" lon="12.4017271"><ele>364.3333333333333</ele><time>2026-05-02T06:39:44.793Z</time></trkpt><trkpt lat="43.7501528" lon="12.4016274"><ele>365.1666666666667</ele><time>2026-05-02T06:39:45.811Z</time></trkpt><trkpt lat="43.7501381" lon="12.4015304"><ele>366.0</ele><time>2026-05-02T06:39:46.795Z</time></trkpt><trkpt lat="43.7501438" lon="12.4013685"><ele>366.6666666666667</ele><time>2026-05-02T06:39:48.778Z</time></trkpt><trkpt lat="43.7501444" lon="12.401278"><ele>367.3333333333333</ele><time>2026-05-02T06:39:49.81Z</time></trkpt><trkpt lat="43.7501459" lon="12.4011785"><ele>368.0</ele><time>2026-05-02T06:39:50.79Z</time></trkpt><trkpt lat="43.7501391" lon="12.4010598"><ele>368.66666666666663</ele><time>2026-05-02T06:39:51.798Z</time></trkpt><trkpt lat="43.7501232" lon="12.4009387"><ele>369.3333333333333</ele><time>2026-05-02T06:39:52.795Z</time></trkpt><trkpt lat="43.7501058" lon="12.40081"><ele>370.0</ele><time>2026-05-02T06:39:53.793Z</time></trkpt><trkpt lat="43.750093" lon="12.4006767"><ele>370.0</ele><time>2026-05-02T06:39:54.793Z</time></trkpt><trkpt lat="43.750089" lon="12.4005468"><ele>370.0</ele><time>2026-05-02T06:39:55.796Z</time></trkpt><trkpt lat="43.7501007" lon="12.4004272"><ele>370.0</ele><time>2026-05-02T06:39:56.797Z</time></trkpt><trkpt lat="43.7501261" lon="12.4003145"><ele>370.0</ele><time>2026-05-02T06:39:57.784Z</time></trkpt><trkpt lat="43.750166" lon="12.400209"><ele>370.0</ele><time>2026-05-02T06:39:58.79Z</time></trkpt><trkpt lat="43.7502064" lon="12.4001166"><ele>370.0</ele><time>2026-05-02T06:39:59.792Z</time></trkpt><trkpt lat="43.7502247" lon="12.4000276"><ele>371.0</ele><time>2026-05-02T06:40:00.794Z</time></trkpt><trkpt lat="43.7501982" lon="12.399854"><ele>372.0</ele><time>2026-05-02T06:40:02.785Z</time></trkpt><trkpt lat="43.7501617" lon="12.3997618"><ele>373.0</ele><time>2026-05-02T06:40:03.8Z</time></trkpt><trkpt lat="43.75012" lon="12.3996522"><ele>374.0</ele><time>2026-05-02T06:40:04.791Z</time></trkpt><trkpt lat="43.7500692" lon="12.3995424"><ele>375.0</ele><time>2026-05-02T06:40:05.799Z</time></trkpt><trkpt lat="43.7500242" lon="12.3994259"><ele>378.2</ele><time>2026-05-02T06:40:06.795Z</time></trkpt><trkpt lat="43.7499836" lon="12.3993151"><ele>381.4</ele><time>2026-05-02T06:40:07.8Z</time></trkpt><trkpt lat="43.7499492" lon="12.3991895"><ele>384.6</ele><time>2026-05-02T06:40:08.791Z</time></trkpt><trkpt lat="43.7499265" lon="12.3990521"><ele>387.8</ele><time>2026-05-02T06:40:09.802Z</time></trkpt><trkpt lat="43.7499049" lon="12.3989048"><ele>391.0</ele><time>2026-05-02T06:40:10.796Z</time></trkpt><trkpt lat="43.7498797" lon="12.3987634"><ele>395.0</ele><time>2026-05-02T06:40:11.8Z</time></trkpt><trkpt lat="43.7498509" lon="12.3986247"><ele>399.0</ele><time>2026-05-02T06:40:12.804Z</time></trkpt><trkpt lat="43.7498228" lon="12.3984843"><ele>403.0</ele><time>2026-05-02T06:40:13.808Z</time></trkpt><trkpt lat="43.7497899" lon="12.3983382"><ele>407.0</ele><time>2026-05-02T06:40:14.801Z</time></trkpt><trkpt lat="43.7497565" lon="12.3981905"><ele>411.0</ele><time>2026-05-02T06:40:15.787Z</time></trkpt><trkpt lat="43.7497132" lon="12.3980447"><ele>413.5</ele><time>2026-05-02T06:40:16.791Z</time></trkpt><trkpt lat="43.7496655" lon="12.3978987"><ele>416.0</ele><time>2026-05-02T06:40:17.792Z</time></trkpt><trkpt lat="43.7496127" lon="12.3977467"><ele>418.5</ele><time>2026-05-02T06:40:18.788Z</time></trkpt><trkpt lat="43.7495555" lon="12.3975891"><ele>421.0</ele><time>2026-05-02T06:40:19.804Z</time></trkpt><trkpt lat="43.7494974" lon="12.3974336"><ele>421.0</ele><time>2026-05-02T06:40:20.789Z</time></trkpt><trkpt lat="43.7494394" lon="12.3972707"><ele>421.0</ele><time>2026-05-02T06:40:21.816Z</time></trkpt><trkpt lat="43.7493919" lon="12.3971295"><ele>421.0</ele><time>2026-05-02T06:40:22.794Z</time></trkpt><trkpt lat="43.7493572" lon="12.3970194"><ele>421.0</ele><time>2026-05-02T06:40:23.795Z</time></trkpt><trkpt lat="43.7493369" lon="12.3969259"><ele>421.0</ele><time>2026-05-02T06:40:24.794Z</time></trkpt><trkpt lat="43.7493337" lon="12.396836"><ele>419.5714285714286</ele><time>2026-05-02T06:40:25.788Z</time></trkpt><trkpt lat="43.7493515" lon="12.396752"><ele>418.14285714285717</ele><time>2026-05-02T06:40:26.796Z</time></trkpt><trkpt lat="43.7493913" lon="12.3966764"><ele>416.7142857142857</ele><time>2026-05-02T06:40:27.816Z</time></trkpt><trkpt lat="43.749447" lon="12.3966287"><ele>415.28571428571433</ele><time>2026-05-02T06:40:28.8Z</time></trkpt><trkpt lat="43.7495099" lon="12.3966042"><ele>413.85714285714283</ele><time>2026-05-02T06:40:29.804Z</time></trkpt><trkpt lat="43.7495792" lon="12.3965954"><ele>412.42857142857144</ele><time>2026-05-02T06:40:30.786Z</time></trkpt><trkpt lat="43.7496551" lon="12.3965956"><ele>411.0</ele><time>2026-05-02T06:40:31.808Z</time></trkpt><trkpt lat="43.7497417" lon="12.3965932"><ele>411.0</ele><time>2026-05-02T06:40:32.789Z</time></trkpt><trkpt lat="43.7498323" lon="12.3965845"><ele>411.0</ele><time>2026-05-02T06:40:33.809Z</time></trkpt><trkpt lat="43.7499206" lon="12.3965724"><ele>411.0</ele><time>2026-05-02T06:40:34.778Z</time></trkpt><trkpt lat="43.7499939" lon="12.3965513"><ele>411.0</ele><time>2026-05-02T06:40:35.795Z</time></trkpt><trkpt lat="43.7500598" lon="12.3965106"><ele>411.0</ele><time>2026-05-02T06:40:36.79Z</time></trkpt><trkpt lat="43.7501078" lon="12.3964358"><ele>411.0</ele><time>2026-05-02T06:40:37.801Z</time></trkpt><trkpt lat="43.7501417" lon="12.3963445"><ele>411.20000000000005</ele><time>2026-05-02T06:40:38.795Z</time></trkpt><trkpt lat="43.7501634" lon="12.3962408"><ele>411.40000000000003</ele><time>2026-05-02T06:40:39.79Z</time></trkpt><trkpt lat="43.7501723" lon="12.3961176"><ele>411.6</ele><time>2026-05-02T06:40:40.779Z</time></trkpt><trkpt lat="43.7501626" lon="12.3959835"><ele>411.8</ele><time>2026-05-02T06:40:41.8Z</time></trkpt><trkpt lat="43.7501348" lon="12.3958481"><ele>412.0</ele><time>2026-05-02T06:40:42.797Z</time></trkpt><trkpt lat="43.7500918" lon="12.3957193"><ele>412.0</ele><time>2026-05-02T06:40:43.802Z</time></trkpt><trkpt lat="43.7500387" lon="12.3955955"><ele>412.0</ele><time>2026-05-02T06:40:44.785Z</time></trkpt><trkpt lat="43.7499727" lon="12.3954721"><ele>412.0</ele><time>2026-05-02T06:40:45.795Z</time></trkpt><trkpt lat="43.7499002" lon="12.3953572"><ele>412.0</ele><time>2026-05-02T06:40:46.785Z</time></trkpt><trkpt lat="43.7498246" lon="12.3952399"><ele>412.0</ele><time>2026-05-02T06:40:47.797Z</time></trkpt><trkpt lat="43.7497518" lon="12.3951318"><ele>414.6</ele><time>2026-05-02T06:40:48.795Z</time></trkpt><trkpt lat="43.7496781" lon="12.395022"><ele>417.20000000000005</ele><time>2026-05-02T06:40:49.81Z</time></trkpt><trkpt lat="43.7496118" lon="12.3949088"><ele>419.8</ele><time>2026-05-02T06:40:50.794Z</time></trkpt><trkpt lat="43.7495583" lon="12.3947977"><ele>422.4</ele><time>2026-05-02T06:40:51.801Z</time></trkpt><trkpt lat="43.749517" lon="12.3946738"><ele>425.0</ele><time>2026-05-02T06:40:52.795Z</time></trkpt><trkpt lat="43.7494964" lon="12.3945555"><ele>424.99999999999994</ele><time>2026-05-02T06:40:53.789Z</time></trkpt><trkpt lat="43.7494913" lon="12.394447"><ele>425.0</ele><time>2026-05-02T06:40:54.802Z</time></trkpt><trkpt lat="43.7495039" lon="12.394347"><ele>425.0</ele><time>2026-05-02T06:40:55.805Z</time></trkpt><trkpt lat="43.7495355" lon="12.3942539"><ele>425.0</ele><time>2026-05-02T06:40:56.803Z</time></trkpt><trkpt lat="43.7495804" lon="12.3941594"><ele>424.99999999999994</ele><time>2026-05-02T06:40:57.801Z</time></trkpt><trkpt lat="43.7496467" lon="12.3940656"><ele>425.0</ele><time>2026-05-02T06:40:58.797Z</time></trkpt><trkpt lat="43.7497296" lon="12.3939751"><ele>424.99999999999994</ele><time>2026-05-02T06:40:59.797Z</time></trkpt><trkpt lat="43.749816" lon="12.3938939"><ele>425.0</ele><time>2026-05-02T06:41:00.802Z</time></trkpt><trkpt lat="43.7499003" lon="12.3938225"><ele>425.0</ele><time>2026-05-02T06:41:01.824Z</time></trkpt><trkpt lat="43.7499739" lon="12.3937461"><ele>425.0</ele><time>2026-05-02T06:41:02.792Z</time></trkpt><trkpt lat="43.7500248" lon="12.3936679"><ele>424.99999999999994</ele><time>2026-05-02T06:41:03.789Z</time></trkpt><trkpt lat="43.7500603" lon="12.3935851"><ele>425.0</ele><time>2026-05-02T06:41:04.787Z</time></trkpt><trkpt lat="43.7500747" lon="12.3934907"><ele>424.66666666666663</ele><time>2026-05-02T06:41:05.79Z</time></trkpt><trkpt lat="43.7500638" lon="12.3933874"><ele>424.3333333333333</ele><time>2026-05-02T06:41:06.811Z</time></trkpt><trkpt lat="43.7500275" lon="12.3933022"><ele>424.0</ele><time>2026-05-02T06:41:07.798Z</time></trkpt><trkpt lat="43.749971" lon="12.3932388"><ele>423.66666666666663</ele><time>2026-05-02T06:41:08.795Z</time></trkpt><trkpt lat="43.7498984" lon="12.3931683"><ele>423.3333333333333</ele><time>2026-05-02T06:41:09.809Z</time></trkpt><trkpt lat="43.749801" lon="12.3930737"><ele>423.0</ele><time>2026-05-02T06:41:10.789Z</time></trkpt><trkpt lat="43.749701" lon="12.3929682"><ele>423.0</ele><time>2026-05-02T06:41:11.806Z</time></trkpt><trkpt lat="43.7496012" lon="12.3928514"><ele>423.0</ele><time>2026-05-02T06:41:12.797Z</time></trkpt><trkpt lat="43.7495129" lon="12.3927503"><ele>423.0</ele><time>2026-05-02T06:41:13.795Z</time></trkpt><trkpt lat="43.7494395" lon="12.3926645"><ele>423.0</ele><time>2026-05-02T06:41:14.793Z</time></trkpt><trkpt lat="43.74937" lon="12.3925816"><ele>423.0</ele><time>2026-05-02T06:41:15.804Z</time></trkpt><trkpt lat="43.749303" lon="12.392497"><ele>419.1666666666667</ele><time>2026-05-02T06:41:16.792Z</time></trkpt><trkpt lat="43.7492559" lon="12.3924091"><ele>415.33333333333337</ele><time>2026-05-02T06:41:17.803Z</time></trkpt><trkpt lat="43.7492237" lon="12.3923128"><ele>411.5</ele><time>2026-05-02T06:41:18.793Z</time></trkpt><trkpt lat="43.7491985" lon="12.3922063"><ele>407.6666666666667</ele><time>2026-05-02T06:41:19.809Z</time></trkpt><trkpt lat="43.7491957" lon="12.3920907"><ele>403.83333333333337</ele><time>2026-05-02T06:41:20.796Z</time></trkpt><trkpt lat="43.7492046" lon="12.3919584"><ele>400.0</ele><time>2026-05-02T06:41:21.801Z</time></trkpt><trkpt lat="43.749224" lon="12.3918102"><ele>399.5</ele><time>2026-05-02T06:41:22.796Z</time></trkpt><trkpt lat="43.7492544" lon="12.3916565"><ele>399.0</ele><time>2026-05-02T06:41:23.79Z</time></trkpt><trkpt lat="43.7492814" lon="12.391502"><ele>398.5</ele><time>2026-05-02T06:41:24.791Z</time></trkpt><trkpt lat="43.7493076" lon="12.3913436"><ele>398.0</ele><time>2026-05-02T06:41:25.808Z</time></trkpt><trkpt lat="43.7493312" lon="12.3911789"><ele>397.75</ele><time>2026-05-02T06:41:26.791Z</time></trkpt><trkpt lat="43.7493488" lon="12.3910145"><ele>397.5</ele><time>2026-05-02T06:41:27.808Z</time></trkpt><trkpt lat="43.7493508" lon="12.3908535"><ele>397.25</ele><time>2026-05-02T06:41:28.789Z</time></trkpt><trkpt lat="43.7493491" lon="12.3906888"><ele>397.0</ele><time>2026-05-02T06:41:29.809Z</time></trkpt><trkpt lat="43.7493599" lon="12.3905278"><ele>400.6</ele><time>2026-05-02T06:41:30.783Z</time></trkpt><trkpt lat="43.7493825" lon="12.3903713"><ele>404.20000000000005</ele><time>2026-05-02T06:41:31.8Z</time></trkpt><trkpt lat="43.7494159" lon="12.3902287"><ele>407.8</ele><time>2026-05-02T06:41:32.794Z</time></trkpt><trkpt lat="43.7494607" lon="12.390092"><ele>411.4</ele><time>2026-05-02T06:41:33.806Z</time></trkpt><trkpt lat="43.7495153" lon="12.3899672"><ele>415.0</ele><time>2026-05-02T06:41:34.805Z</time></trkpt><trkpt lat="43.7495696" lon="12.3898539"><ele>415.0</ele><time>2026-05-02T06:41:35.804Z</time></trkpt><trkpt lat="43.7496191" lon="12.3897352"><ele>415.0</ele><time>2026-05-02T06:41:36.793Z</time></trkpt><trkpt lat="43.7496486" lon="12.3895979"><ele>415.0</ele><time>2026-05-02T06:41:37.795Z</time></trkpt><trkpt lat="43.749655" lon="12.3894591"><ele>415.0</ele><time>2026-05-02T06:41:38.803Z</time></trkpt><trkpt lat="43.7496411" lon="12.3893391"><ele>415.0</ele><time>2026-05-02T06:41:39.8Z</time></trkpt><trkpt lat="43.7496058" lon="12.3892358"><ele>415.14285714285717</ele><time>2026-05-02T06:41:40.798Z</time></trkpt><trkpt lat="43.7495542" lon="12.3891568"><ele>415.28571428571433</ele><time>2026-05-02T06:41:41.806Z</time></trkpt><trkpt lat="43.7494956" lon="12.3891116"><ele>415.42857142857144</ele><time>2026-05-02T06:41:42.792Z</time></trkpt><trkpt lat="43.7494325" lon="12.3891062"><ele>415.57142857142856</ele><time>2026-05-02T06:41:43.787Z</time></trkpt><trkpt lat="43.7493662" lon="12.3891337"><ele>415.7142857142857</ele><time>2026-05-02T06:41:44.791Z</time></trkpt><trkpt lat="43.7493039" lon="12.389168"><ele>415.85714285714283</ele><time>2026-05-02T06:41:45.807Z</time></trkpt><trkpt lat="43.7492365" lon="12.389183"><ele>416.0</ele><time>2026-05-02T06:41:46.788Z</time></trkpt><trkpt lat="43.7491736" lon="12.3891714"><ele>415.99999999999994</ele><time>2026-05-02T06:41:47.795Z</time></trkpt><trkpt lat="43.7491178" lon="12.3891223"><ele>416.0</ele><time>2026-05-02T06:41:48.796Z</time></trkpt><trkpt lat="43.749075" lon="12.3890435"><ele>416.0</ele><time>2026-05-02T06:41:49.818Z</time></trkpt><trkpt lat="43.7490517" lon="12.388946"><ele>416.0</ele><time>2026-05-02T06:41:50.796Z</time></trkpt><trkpt lat="43.7490403" lon="12.3888337"><ele>415.99999999999994</ele><time>2026-05-02T06:41:51.8Z</time></trkpt><trkpt lat="43.7490374" lon="12.388711"><ele>416.0</ele><time>2026-05-02T06:41:52.801Z</time></trkpt><trkpt lat="43.7490295" lon="12.3885795"><ele>417.6</ele><time>2026-05-02T06:41:53.804Z</time></trkpt><trkpt lat="43.7490164" lon="12.3884488"><ele>419.20000000000005</ele><time>2026-05-02T06:41:54.793Z</time></trkpt><trkpt lat="43.7489803" lon="12.3883251"><ele>420.79999999999995</ele><time>2026-05-02T06:41:55.8Z</time></trkpt><trkpt lat="43.7489328" lon="12.3882033"><ele>422.4</ele><time>2026-05-02T06:41:56.804Z</time></trkpt><trkpt lat="43.7488811" lon="12.3880816"><ele>424.0</ele><time>2026-05-02T06:41:57.802Z</time></trkpt><trkpt lat="43.7488285" lon="12.387958"><ele>425.00000000000006</ele><time>2026-05-02T06:41:58.797Z</time></trkpt><trkpt lat="43.7487751" lon="12.3878579"><ele>426.0</ele><time>2026-05-02T06:41:59.81Z</time></trkpt><trkpt lat="43.74871" lon="12.3877981"><ele>427.0</ele><time>2026-05-02T06:42:00.802Z</time></trkpt><trkpt lat="43.7486338" lon="12.3877699"><ele>428.0</ele><time>2026-05-02T06:42:01.797Z</time></trkpt><trkpt lat="43.7485503" lon="12.3877781"><ele>429.00000000000006</ele><time>2026-05-02T06:42:02.802Z</time></trkpt><trkpt lat="43.7484653" lon="12.3877956"><ele>430.0</ele><time>2026-05-02T06:42:03.802Z</time></trkpt><trkpt lat="43.7483805" lon="12.3877942"><ele>430.0</ele><time>2026-05-02T06:42:04.789Z</time></trkpt><trkpt lat="43.7483146" lon="12.3877599"><ele>430.0</ele><time>2026-05-02T06:42:05.811Z</time></trkpt><trkpt lat="43.7482672" lon="12.3876975"><ele>430.0</ele><time>2026-05-02T06:42:06.799Z</time></trkpt><trkpt lat="43.7482301" lon="12.3876188"><ele>430.0</ele><time>2026-05-02T06:42:07.817Z</time></trkpt><trkpt lat="43.7482029" lon="12.3875252"><ele>430.0</ele><time>2026-05-02T06:42:08.797Z</time></trkpt><trkpt lat="43.7481856" lon="12.3874173"><ele>430.0</ele><time>2026-05-02T06:42:09.806Z</time></trkpt><trkpt lat="43.748162" lon="12.3873022"><ele>430.0</ele><time>2026-05-02T06:42:10.798Z</time></trkpt><trkpt lat="43.7481324" lon="12.3871771"><ele>432.4</ele><time>2026-05-02T06:42:11.802Z</time></trkpt><trkpt lat="43.7481016" lon="12.3870389"><ele>434.8</ele><time>2026-05-02T06:42:12.796Z</time></trkpt><trkpt lat="43.7480681" lon="12.386896"><ele>437.20000000000005</ele><time>2026-05-02T06:42:13.798Z</time></trkpt><trkpt lat="43.7480417" lon="12.3867572"><ele>439.6</ele><time>2026-05-02T06:42:14.789Z</time></trkpt><trkpt lat="43.7480235" lon="12.3866226"><ele>442.0</ele><time>2026-05-02T06:42:15.79Z</time></trkpt><trkpt lat="43.7480145" lon="12.3864937"><ele>442.00000000000006</ele><time>2026-05-02T06:42:16.793Z</time></trkpt><trkpt lat="43.7480177" lon="12.3863707"><ele>442.0</ele><time>2026-05-02T06:42:17.797Z</time></trkpt><trkpt lat="43.7480381" lon="12.3862614"><ele>442.0</ele><time>2026-05-02T06:42:18.79Z</time></trkpt><trkpt lat="43.7480751" lon="12.3861776"><ele>442.0</ele><time>2026-05-02T06:42:19.797Z</time></trkpt><trkpt lat="43.7481264" lon="12.386114"><ele>442.00000000000006</ele><time>2026-05-02T06:42:20.793Z</time></trkpt><trkpt lat="43.7481936" lon="12.3860671"><ele>442.0</ele><time>2026-05-02T06:42:21.8Z</time></trkpt><trkpt lat="43.748272" lon="12.3860298"><ele>442.0</ele><time>2026-05-02T06:42:22.798Z</time></trkpt><trkpt lat="43.7483624" lon="12.385992"><ele>442.00000000000006</ele><time>2026-05-02T06:42:23.81Z</time></trkpt><trkpt lat="43.748457" lon="12.3859542"><ele>442.00000000000006</ele><time>2026-05-02T06:42:24.805Z</time></trkpt><trkpt lat="43.7485516" lon="12.385906"><ele>442.0</ele><time>2026-05-02T06:42:25.806Z</time></trkpt><trkpt lat="43.7486478" lon="12.3858354"><ele>442.0</ele><time>2026-05-02T06:42:26.784Z</time></trkpt><trkpt lat="43.7487369" lon="12.3857447"><ele>446.40000000000003</ele><time>2026-05-02T06:42:27.803Z</time></trkpt><trkpt lat="43.7488133" lon="12.3856386"><ele>450.80000000000007</ele><time>2026-05-02T06:42:28.791Z</time></trkpt><trkpt lat="43.7488754" lon="12.3855269"><ele>455.2</ele><time>2026-05-02T06:42:29.813Z</time></trkpt><trkpt lat="43.7489172" lon="12.3854051"><ele>459.6</ele><time>2026-05-02T06:42:30.786Z</time></trkpt><trkpt lat="43.748933" lon="12.3852817"><ele>464.0</ele><time>2026-05-02T06:42:31.808Z</time></trkpt><trkpt lat="43.7489299" lon="12.3851482"><ele>464.2</ele><time>2026-05-02T06:42:32.795Z</time></trkpt><trkpt lat="43.7489137" lon="12.3850083"><ele>464.4</ele><time>2026-05-02T06:42:33.799Z</time></trkpt><trkpt lat="43.7488914" lon="12.3848644"><ele>464.6</ele><time>2026-05-02T06:42:34.799Z</time></trkpt><trkpt lat="43.7488696" lon="12.3847182"><ele>464.8</ele><time>2026-05-02T06:42:35.787Z</time></trkpt><trkpt lat="43.7488512" lon="12.3845717"><ele>465.0</ele><time>2026-05-02T06:42:36.794Z</time></trkpt><trkpt lat="43.7488406" lon="12.3844354"><ele>464.4</ele><time>2026-05-02T06:42:37.802Z</time></trkpt><trkpt lat="43.748843" lon="12.3843218"><ele>463.8</ele><time>2026-05-02T06:42:38.8Z</time></trkpt><trkpt lat="43.7488914" lon="12.3841822"><ele>463.20000000000005</ele><time>2026-05-02T06:42:40.791Z</time></trkpt><trkpt lat="43.7490073" lon="12.3841178"><ele>462.6</ele><time>2026-05-02T06:42:42.799Z</time></trkpt><trkpt lat="43.7490828" lon="12.384114"><ele>462.0</ele><time>2026-05-02T06:42:43.805Z</time></trkpt><trkpt lat="43.7491628" lon="12.3841358"><ele>462.0</ele><time>2026-05-02T06:42:44.801Z</time></trkpt><trkpt lat="43.7492544" lon="12.3841895"><ele>462.0</ele><time>2026-05-02T06:42:45.801Z</time></trkpt><trkpt lat="43.7493553" lon="12.3842525"><ele>462.0</ele><time>2026-05-02T06:42:46.792Z</time></trkpt><trkpt lat="43.7494638" lon="12.3843197"><ele>462.0</ele><time>2026-05-02T06:42:47.795Z</time></trkpt><trkpt lat="43.749572" lon="12.3843964"><ele>460.5</ele><time>2026-05-02T06:42:48.795Z</time></trkpt><trkpt lat="43.7496708" lon="12.3844727"><ele>459.0</ele><time>2026-05-02T06:42:49.801Z</time></trkpt><trkpt lat="43.7497738" lon="12.3845478"><ele>457.5</ele><time>2026-05-02T06:42:50.787Z</time></trkpt><trkpt lat="43.7498804" lon="12.3846263"><ele>456.0</ele><time>2026-05-02T06:42:51.805Z</time></trkpt><trkpt lat="43.7499852" lon="12.3847196"><ele>456.25</ele><time>2026-05-02T06:42:52.798Z</time></trkpt><trkpt lat="43.7500885" lon="12.3848161"><ele>456.5</ele><time>2026-05-02T06:42:53.813Z</time></trkpt><trkpt lat="43.7501862" lon="12.3849118"><ele>456.75</ele><time>2026-05-02T06:42:54.788Z</time></trkpt><trkpt lat="43.7502793" lon="12.3850171"><ele>457.0</ele><time>2026-05-02T06:42:55.801Z</time></trkpt><trkpt lat="43.7503699" lon="12.3851281"><ele>457.0</ele><time>2026-05-02T06:42:56.79Z</time></trkpt><trkpt lat="43.7504618" lon="12.3852347"><ele>457.0</ele><time>2026-05-02T06:42:57.792Z</time></trkpt><trkpt lat="43.7505603" lon="12.3853454"><ele>457.0</ele><time>2026-05-02T06:42:58.785Z</time></trkpt><trkpt lat="43.7506557" lon="12.3854515"><ele>457.0</ele><time>2026-05-02T06:42:59.796Z</time></trkpt><trkpt lat="43.7507454" lon="12.3855475"><ele>458.6</ele><time>2026-05-02T06:43:00.787Z</time></trkpt><trkpt lat="43.7508293" lon="12.3856334"><ele>460.20000000000005</ele><time>2026-05-02T06:43:01.793Z</time></trkpt><trkpt lat="43.750911" lon="12.3857047"><ele>461.8</ele><time>2026-05-02T06:43:02.786Z</time></trkpt><trkpt lat="43.7509951" lon="12.3857532"><ele>463.4</ele><time>2026-05-02T06:43:03.808Z</time></trkpt><trkpt lat="43.7510831" lon="12.385776"><ele>465.0</ele><time>2026-05-02T06:43:04.788Z</time></trkpt><trkpt lat="43.7511622" lon="12.385763"><ele>465.0</ele><time>2026-05-02T06:43:05.779Z</time></trkpt><trkpt lat="43.7512328" lon="12.3857073"><ele>465.0</ele><time>2026-05-02T06:43:06.79Z</time></trkpt><trkpt lat="43.7512911" lon="12.385629"><ele>465.0</ele><time>2026-05-02T06:43:07.798Z</time></trkpt><trkpt lat="43.7513356" lon="12.3855262"><ele>465.0</ele><time>2026-05-02T06:43:08.784Z</time></trkpt><trkpt lat="43.7513687" lon="12.3853975"><ele>465.0</ele><time>2026-05-02T06:43:09.801Z</time></trkpt><trkpt lat="43.7513717" lon="12.3852493"><ele>464.6</ele><time>2026-05-02T06:43:10.778Z</time></trkpt><trkpt lat="43.7513507" lon="12.3850988"><ele>464.2</ele><time>2026-05-02T06:43:11.804Z</time></trkpt><trkpt lat="43.7513166" lon="12.384952"><ele>463.79999999999995</ele><time>2026-05-02T06:43:12.778Z</time></trkpt><trkpt lat="43.7512685" lon="12.3848073"><ele>463.4</ele><time>2026-05-02T06:43:13.803Z</time></trkpt><trkpt lat="43.7512237" lon="12.3846649"><ele>463.0</ele><time>2026-05-02T06:43:14.798Z</time></trkpt><trkpt lat="43.7511789" lon="12.3845349"><ele>463.79999999999995</ele><time>2026-05-02T06:43:15.8Z</time></trkpt><trkpt lat="43.7511466" lon="12.3844152"><ele>464.59999999999997</ele><time>2026-05-02T06:43:16.797Z</time></trkpt><trkpt lat="43.7511317" lon="12.3842854"><ele>465.40000000000003</ele><time>2026-05-02T06:43:17.795Z</time></trkpt><trkpt lat="43.7511389" lon="12.3841366"><ele>466.20000000000005</ele><time>2026-05-02T06:43:18.798Z</time></trkpt><trkpt lat="43.7511652" lon="12.383978"><ele>467.0</ele><time>2026-05-02T06:43:19.8Z</time></trkpt><trkpt lat="43.751193" lon="12.3838188"><ele>467.25</ele><time>2026-05-02T06:43:20.796Z</time></trkpt><trkpt lat="43.7512309" lon="12.3836544"><ele>467.5</ele><time>2026-05-02T06:43:21.802Z</time></trkpt><trkpt lat="43.7512652" lon="12.3834899"><ele>467.75</ele><time>2026-05-02T06:43:22.79Z</time></trkpt><trkpt lat="43.7512945" lon="12.3833297"><ele>468.0</ele><time>2026-05-02T06:43:23.82Z</time></trkpt><trkpt lat="43.7513248" lon="12.3831657"><ele>468.25</ele><time>2026-05-02T06:43:24.81Z</time></trkpt><trkpt lat="43.7513566" lon="12.382995"><ele>468.5</ele><time>2026-05-02T06:43:25.79Z</time></trkpt><trkpt lat="43.7513873" lon="12.3828168"><ele>468.75</ele><time>2026-05-02T06:43:26.808Z</time></trkpt><trkpt lat="43.7514137" lon="12.3826461"><ele>469.0</ele><time>2026-05-02T06:43:27.807Z</time></trkpt><trkpt lat="43.7514421" lon="12.3824944"><ele>469.0</ele><time>2026-05-02T06:43:28.798Z</time></trkpt><trkpt lat="43.7514805" lon="12.3823558"><ele>469.0</ele><time>2026-05-02T06:43:29.801Z</time></trkpt><trkpt lat="43.7515339" lon="12.3822232"><ele>469.0</ele><time>2026-05-02T06:43:30.797Z</time></trkpt><trkpt lat="43.7515856" lon="12.3820971"><ele>469.0</ele><time>2026-05-02T06:43:31.803Z</time></trkpt><trkpt lat="43.7516307" lon="12.3819733"><ele>469.0</ele><time>2026-05-02T06:43:32.788Z</time></trkpt><trkpt lat="43.7516669" lon="12.3818559"><ele>470.1666666666667</ele><time>2026-05-02T06:43:33.796Z</time></trkpt><trkpt lat="43.7516784" lon="12.3817458"><ele>471.33333333333337</ele><time>2026-05-02T06:43:34.788Z</time></trkpt><trkpt lat="43.7516558" lon="12.3816394"><ele>472.5</ele><time>2026-05-02T06:43:35.793Z</time></trkpt><trkpt lat="43.7516039" lon="12.3815448"><ele>473.66666666666663</ele><time>2026-05-02T06:43:36.798Z</time></trkpt><trkpt lat="43.7515361" lon="12.3814565"><ele>474.8333333333333</ele><time>2026-05-02T06:43:37.802Z</time></trkpt><trkpt lat="43.7514578" lon="12.3813745"><ele>476.0</ele><time>2026-05-02T06:43:38.793Z</time></trkpt><trkpt lat="43.7513757" lon="12.3813015"><ele>477.8333333333333</ele><time>2026-05-02T06:43:39.797Z</time></trkpt><trkpt lat="43.7512914" lon="12.3812585"><ele>479.66666666666663</ele><time>2026-05-02T06:43:40.794Z</time></trkpt><trkpt lat="43.7511976" lon="12.3812632"><ele>481.5</ele><time>2026-05-02T06:43:41.8Z</time></trkpt><trkpt lat="43.7511058" lon="12.3812901"><ele>483.33333333333337</ele><time>2026-05-02T06:43:42.8Z</time></trkpt><trkpt lat="43.7510199" lon="12.3813004"><ele>485.1666666666667</ele><time>2026-05-02T06:43:43.796Z</time></trkpt><trkpt lat="43.7509538" lon="12.3812714"><ele>487.0</ele><time>2026-05-02T06:43:44.792Z</time></trkpt><trkpt lat="43.7508909" lon="12.3811459"><ele>487.00000000000006</ele><time>2026-05-02T06:43:46.814Z</time></trkpt><trkpt lat="43.7509301" lon="12.3809985"><ele>487.0</ele><time>2026-05-02T06:43:48.787Z</time></trkpt><trkpt lat="43.7509822" lon="12.38094"><ele>487.0</ele><time>2026-05-02T06:43:49.788Z</time></trkpt><trkpt lat="43.7510481" lon="12.3808984"><ele>487.0</ele><time>2026-05-02T06:43:50.783Z</time></trkpt><trkpt lat="43.7511244" lon="12.3808761"><ele>487.00000000000006</ele><time>2026-05-02T06:43:51.783Z</time></trkpt><trkpt lat="43.7511969" lon="12.380886"><ele>487.0</ele><time>2026-05-02T06:43:52.787Z</time></trkpt><trkpt lat="43.7512652" lon="12.3809026"><ele>487.00000000000006</ele><time>2026-05-02T06:43:53.787Z</time></trkpt><trkpt lat="43.7513626" lon="12.3809023"><ele>487.0</ele><time>2026-05-02T06:43:55.792Z</time></trkpt><trkpt lat="43.7513544" lon="12.3807797"><ele>487.0</ele><time>2026-05-02T06:43:58.802Z</time></trkpt><trkpt lat="43.7512884" lon="12.380739"><ele>487.0</ele><time>2026-05-02T06:43:59.795Z</time></trkpt><trkpt lat="43.7512076" lon="12.3807083"><ele>487.00000000000006</ele><time>2026-05-02T06:44:00.796Z</time></trkpt><trkpt lat="43.751109" lon="12.3806713"><ele>487.0</ele><time>2026-05-02T06:44:01.801Z</time></trkpt><trkpt lat="43.7510019" lon="12.3806377"><ele>487.0</ele><time>2026-05-02T06:44:02.784Z</time></trkpt><trkpt lat="43.7508873" lon="12.3806018"><ele>487.0</ele><time>2026-05-02T06:44:03.807Z</time></trkpt><trkpt lat="43.7507743" lon="12.3805773"><ele>487.0</ele><time>2026-05-02T06:44:04.803Z</time></trkpt><trkpt lat="43.7506563" lon="12.3805518"><ele>487.0</ele><time>2026-05-02T06:44:05.815Z</time></trkpt><trkpt lat="43.7505373" lon="12.3805232"><ele>490.75</ele><time>2026-05-02T06:44:06.795Z</time></trkpt><trkpt lat="43.750418" lon="12.3804933"><ele>494.5</ele><time>2026-05-02T06:44:07.794Z</time></trkpt><trkpt lat="43.7502968" lon="12.380465"><ele>498.25</ele><time>2026-05-02T06:44:08.8Z</time></trkpt><trkpt lat="43.7501746" lon="12.3804454"><ele>502.0</ele><time>2026-05-02T06:44:09.799Z</time></trkpt><trkpt lat="43.7500536" lon="12.3804405"><ele>502.8</ele><time>2026-05-02T06:44:10.805Z</time></trkpt><trkpt lat="43.7499374" lon="12.3804372"><ele>503.6</ele><time>2026-05-02T06:44:11.798Z</time></trkpt><trkpt lat="43.7498334" lon="12.3804146"><ele>504.40000000000003</ele><time>2026-05-02T06:44:12.797Z</time></trkpt><trkpt lat="43.7497402" lon="12.3803532"><ele>505.20000000000005</ele><time>2026-05-02T06:44:13.804Z</time></trkpt><trkpt lat="43.7496658" lon="12.3802532"><ele>506.0</ele><time>2026-05-02T06:44:14.784Z</time></trkpt><trkpt lat="43.7496229" lon="12.3801232"><ele>506.0</ele><time>2026-05-02T06:44:15.8Z</time></trkpt><trkpt lat="43.7495992" lon="12.3799768"><ele>506.0</ele><time>2026-05-02T06:44:16.798Z</time></trkpt><trkpt lat="43.7495785" lon="12.3798416"><ele>506.0</ele><time>2026-05-02T06:44:17.804Z</time></trkpt><trkpt lat="43.7495456" lon="12.3797008"><ele>506.0</ele><time>2026-05-02T06:44:18.795Z</time></trkpt><trkpt lat="43.7494924" lon="12.3795656"><ele>506.0</ele><time>2026-05-02T06:44:19.797Z</time></trkpt><trkpt lat="43.7494138" lon="12.3794433"><ele>507.0</ele><time>2026-05-02T06:44:20.797Z</time></trkpt><trkpt lat="43.7493186" lon="12.3793579"><ele>508.0</ele><time>2026-05-02T06:44:21.796Z</time></trkpt><trkpt lat="43.7492152" lon="12.3792898"><ele>509.0</ele><time>2026-05-02T06:44:22.795Z</time></trkpt><trkpt lat="43.7491131" lon="12.379229"><ele>510.0</ele><time>2026-05-02T06:44:23.805Z</time></trkpt><trkpt lat="43.749016" lon="12.3791517"><ele>510.0</ele><time>2026-05-02T06:44:24.797Z</time></trkpt><trkpt lat="43.7489267" lon="12.3790637"><ele>510.0</ele><time>2026-05-02T06:44:25.807Z</time></trkpt><trkpt lat="43.7488379" lon="12.3789644"><ele>510.0</ele><time>2026-05-02T06:44:26.79Z</time></trkpt><trkpt lat="43.7487533" lon="12.3788465"><ele>510.0</ele><time>2026-05-02T06:44:27.798Z</time></trkpt><trkpt lat="43.7486583" lon="12.3787368"><ele>512.75</ele><time>2026-05-02T06:44:28.786Z</time></trkpt><trkpt lat="43.7485531" lon="12.378643"><ele>515.5</ele><time>2026-05-02T06:44:29.805Z</time></trkpt><trkpt lat="43.748433" lon="12.3785836"><ele>518.25</ele><time>2026-05-02T06:44:30.792Z</time></trkpt><trkpt lat="43.7483045" lon="12.3785534"><ele>521.0</ele><time>2026-05-02T06:44:31.793Z</time></trkpt><trkpt lat="43.7481675" lon="12.3785531"><ele>521.0</ele><time>2026-05-02T06:44:32.797Z</time></trkpt><trkpt lat="43.7480256" lon="12.3785867"><ele>521.0</ele><time>2026-05-02T06:44:33.808Z</time></trkpt><trkpt lat="43.7478897" lon="12.3786423"><ele>521.0</ele><time>2026-05-02T06:44:34.793Z</time></trkpt><trkpt lat="43.747752" lon="12.3787215"><ele>521.0</ele><time>2026-05-02T06:44:35.782Z</time></trkpt><trkpt lat="43.7476215" lon="12.3788033"><ele>517.75</ele><time>2026-05-02T06:44:36.791Z</time></trkpt><trkpt lat="43.7474952" lon="12.3788922"><ele>514.5</ele><time>2026-05-02T06:44:37.798Z</time></trkpt><trkpt lat="43.7473708" lon="12.3789808"><ele>511.25</ele><time>2026-05-02T06:44:38.788Z</time></trkpt><trkpt lat="43.7472444" lon="12.3790637"><ele>508.0</ele><time>2026-05-02T06:44:39.795Z</time></trkpt><trkpt lat="43.7471172" lon="12.3791301"><ele>508.0</ele><time>2026-05-02T06:44:40.792Z</time></trkpt><trkpt lat="43.7469786" lon="12.3791765"><ele>508.0</ele><time>2026-05-02T06:44:41.795Z</time></trkpt><trkpt lat="43.7468346" lon="12.3791981"><ele>508.0</ele><time>2026-05-02T06:44:42.785Z</time></trkpt><trkpt lat="43.7466922" lon="12.3792128"><ele>508.0</ele><time>2026-05-02T06:44:43.792Z</time></trkpt><trkpt lat="43.746568" lon="12.3792381"><ele>510.83333333333337</ele><time>2026-05-02T06:44:44.783Z</time></trkpt><trkpt lat="43.7464743" lon="12.3792678"><ele>513.6666666666667</ele><time>2026-05-02T06:44:45.775Z</time></trkpt><trkpt lat="43.7464075" lon="12.3792971"><ele>516.5</ele><time>2026-05-02T06:44:46.77Z</time></trkpt><trkpt lat="43.7463496" lon="12.3793426"><ele>519.3333333333334</ele><time>2026-05-02T06:44:47.787Z</time></trkpt><trkpt lat="43.7462842" lon="12.3794156"><ele>522.1666666666666</ele><time>2026-05-02T06:44:48.769Z</time></trkpt><trkpt lat="43.7462046" lon="12.3795063"><ele>525.0</ele><time>2026-05-02T06:44:49.795Z</time></trkpt><trkpt lat="43.7461421" lon="12.3796122"><ele>522.25</ele><time>2026-05-02T06:44:50.787Z</time></trkpt><trkpt lat="43.7460854" lon="12.3797582"><ele>519.5</ele><time>2026-05-02T06:44:51.796Z</time></trkpt><trkpt lat="43.7460334" lon="12.3798973"><ele>516.75</ele><time>2026-05-02T06:44:52.792Z</time></trkpt><trkpt lat="43.7459775" lon="12.3800532"><ele>514.0</ele><time>2026-05-02T06:44:53.799Z</time></trkpt><trkpt lat="43.7459205" lon="12.3801965"><ele>514.0</ele><time>2026-05-02T06:44:54.793Z</time></trkpt><trkpt lat="43.7458561" lon="12.380312"><ele>514.0</ele><time>2026-05-02T06:44:55.789Z</time></trkpt><trkpt lat="43.7457766" lon="12.3804183"><ele>514.0</ele><time>2026-05-02T06:44:56.799Z</time></trkpt><trkpt lat="43.74568" lon="12.3805023"><ele>514.0</ele><time>2026-05-02T06:44:57.803Z</time></trkpt><trkpt lat="43.7455658" lon="12.3805558"><ele>513.5</ele><time>2026-05-02T06:44:58.802Z</time></trkpt><trkpt lat="43.7454459" lon="12.3805748"><ele>513.0</ele><time>2026-05-02T06:44:59.815Z</time></trkpt><trkpt lat="43.7453228" lon="12.3805822"><ele>512.5</ele><time>2026-05-02T06:45:00.798Z</time></trkpt><trkpt lat="43.7451977" lon="12.3805904"><ele>512.0</ele><time>2026-05-02T06:45:01.817Z</time></trkpt><trkpt lat="43.7450682" lon="12.3806008"><ele>511.5</ele><time>2026-05-02T06:45:02.803Z</time></trkpt><trkpt lat="43.7449295" lon="12.3806146"><ele>511.0</ele><time>2026-05-02T06:45:03.8Z</time></trkpt><trkpt lat="43.7447851" lon="12.380628"><ele>510.5</ele><time>2026-05-02T06:45:04.809Z</time></trkpt><trkpt lat="43.7446427" lon="12.3806456"><ele>510.0</ele><time>2026-05-02T06:45:05.806Z</time></trkpt><trkpt lat="43.7444966" lon="12.380678"><ele>512.0</ele><time>2026-05-02T06:45:06.791Z</time></trkpt><trkpt lat="43.7443513" lon="12.3807304"><ele>514.0</ele><time>2026-05-02T06:45:07.801Z</time></trkpt><trkpt lat="43.7442083" lon="12.380808"><ele>516.0</ele><time>2026-05-02T06:45:08.799Z</time></trkpt><trkpt lat="43.7440669" lon="12.3808915"><ele>516.0</ele><time>2026-05-02T06:45:09.806Z</time></trkpt><trkpt lat="43.7439242" lon="12.3809833"><ele>516.0</ele><time>2026-05-02T06:45:10.805Z</time></trkpt><trkpt lat="43.7437815" lon="12.3810737"><ele>516.0</ele><time>2026-05-02T06:45:11.806Z</time></trkpt><trkpt lat="43.7436495" lon="12.3811549"><ele>516.5</ele><time>2026-05-02T06:45:12.795Z</time></trkpt><trkpt lat="43.7435244" lon="12.3812356"><ele>517.0</ele><time>2026-05-02T06:45:13.806Z</time></trkpt><trkpt lat="43.743412" lon="12.3813442"><ele>517.5</ele><time>2026-05-02T06:45:14.794Z</time></trkpt><trkpt lat="43.7433238" lon="12.3814757"><ele>518.0</ele><time>2026-05-02T06:45:15.809Z</time></trkpt><trkpt lat="43.7432551" lon="12.381643"><ele>518.0</ele><time>2026-05-02T06:45:16.799Z</time></trkpt><trkpt lat="43.7431985" lon="12.3818052"><ele>518.0</ele><time>2026-05-02T06:45:17.809Z</time></trkpt><trkpt lat="43.7431402" lon="12.381949"><ele>518.0</ele><time>2026-05-02T06:45:18.796Z</time></trkpt><trkpt lat="43.7430688" lon="12.3820741"><ele>518.0</ele><time>2026-05-02T06:45:19.802Z</time></trkpt><trkpt lat="43.7429785" lon="12.3821781"><ele>519.75</ele><time>2026-05-02T06:45:20.799Z</time></trkpt><trkpt lat="43.742868" lon="12.3822754"><ele>521.5</ele><time>2026-05-02T06:45:21.805Z</time></trkpt><trkpt lat="43.7427514" lon="12.3823571"><ele>523.25</ele><time>2026-05-02T06:45:22.805Z</time></trkpt><trkpt lat="43.742632" lon="12.3824278"><ele>525.0</ele><time>2026-05-02T06:45:23.801Z</time></trkpt><trkpt lat="43.7425166" lon="12.3824949"><ele>525.0</ele><time>2026-05-02T06:45:24.796Z</time></trkpt><trkpt lat="43.7424036" lon="12.3825641"><ele>525.0</ele><time>2026-05-02T06:45:25.809Z</time></trkpt><trkpt lat="43.7422997" lon="12.382655"><ele>525.0</ele><time>2026-05-02T06:45:26.803Z</time></trkpt><trkpt lat="43.742207" lon="12.3827714"><ele>525.0</ele><time>2026-05-02T06:45:27.799Z</time></trkpt><trkpt lat="43.7421248" lon="12.3829107"><ele>524.5</ele><time>2026-05-02T06:45:28.804Z</time></trkpt><trkpt lat="43.7420454" lon="12.3830823"><ele>524.0</ele><time>2026-05-02T06:45:29.814Z</time></trkpt><trkpt lat="43.7419615" lon="12.3832472"><ele>523.5</ele><time>2026-05-02T06:45:30.796Z</time></trkpt><trkpt lat="43.7418866" lon="12.3834193"><ele>523.0</ele><time>2026-05-02T06:45:31.793Z</time></trkpt><trkpt lat="43.7418132" lon="12.3835822"><ele>523.0</ele><time>2026-05-02T06:45:32.804Z</time></trkpt><trkpt lat="43.741743" lon="12.383744"><ele>523.0</ele><time>2026-05-02T06:45:33.799Z</time></trkpt><trkpt lat="43.7416784" lon="12.3839094"><ele>523.0</ele><time>2026-05-02T06:45:34.808Z</time></trkpt><trkpt lat="43.7416124" lon="12.3840803"><ele>523.0</ele><time>2026-05-02T06:45:35.811Z</time></trkpt><trkpt lat="43.7415445" lon="12.3842509"><ele>524.1999999999999</ele><time>2026-05-02T06:45:36.806Z</time></trkpt><trkpt lat="43.7414771" lon="12.3844078"><ele>525.4</ele><time>2026-05-02T06:45:37.796Z</time></trkpt><trkpt lat="43.7414156" lon="12.3845376"><ele>526.5999999999999</ele><time>2026-05-02T06:45:38.804Z</time></trkpt><trkpt lat="43.7413579" lon="12.3846423"><ele>527.8</ele><time>2026-05-02T06:45:39.816Z</time></trkpt><trkpt lat="43.7412939" lon="12.3847247"><ele>529.0</ele><time>2026-05-02T06:45:40.802Z</time></trkpt><trkpt lat="43.7412182" lon="12.3847938"><ele>529.75</ele><time>2026-05-02T06:45:41.805Z</time></trkpt><trkpt lat="43.7411171" lon="12.3848429"><ele>530.5</ele><time>2026-05-02T06:45:42.783Z</time></trkpt><trkpt lat="43.7410031" lon="12.3848761"><ele>531.25</ele><time>2026-05-02T06:45:43.798Z</time></trkpt><trkpt lat="43.740879" lon="12.3848995"><ele>532.0</ele><time>2026-05-02T06:45:44.79Z</time></trkpt><trkpt lat="43.7407497" lon="12.3849104"><ele>532.5</ele><time>2026-05-02T06:45:45.8Z</time></trkpt><trkpt lat="43.7406254" lon="12.3848888"><ele>533.0</ele><time>2026-05-02T06:45:46.798Z</time></trkpt><trkpt lat="43.7405136" lon="12.3848397"><ele>533.5</ele><time>2026-05-02T06:45:47.802Z</time></trkpt><trkpt lat="43.7404077" lon="12.3847849"><ele>534.0</ele><time>2026-05-02T06:45:48.788Z</time></trkpt><trkpt lat="43.7403091" lon="12.3847146"><ele>529.5</ele><time>2026-05-02T06:45:49.797Z</time></trkpt><trkpt lat="43.7402077" lon="12.3846399"><ele>525.0</ele><time>2026-05-02T06:45:50.801Z</time></trkpt><trkpt lat="43.740091" lon="12.3845754"><ele>520.5</ele><time>2026-05-02T06:45:51.803Z</time></trkpt><trkpt lat="43.7399688" lon="12.3845116"><ele>516.0</ele><time>2026-05-02T06:45:52.794Z</time></trkpt><trkpt lat="43.7398536" lon="12.3844257"><ele>516.0</ele><time>2026-05-02T06:45:53.8Z</time></trkpt><trkpt lat="43.7397467" lon="12.3843325"><ele>516.0</ele><time>2026-05-02T06:45:54.803Z</time></trkpt><trkpt lat="43.7396581" lon="12.3842147"><ele>516.0</ele><time>2026-05-02T06:45:55.824Z</time></trkpt><trkpt lat="43.7395852" lon="12.3840861"><ele>516.0</ele><time>2026-05-02T06:45:56.784Z</time></trkpt><trkpt lat="43.7395196" lon="12.3839311"><ele>514.0</ele><time>2026-05-02T06:45:57.806Z</time></trkpt><trkpt lat="43.739446" lon="12.3837646"><ele>512.0</ele><time>2026-05-02T06:45:58.793Z</time></trkpt><trkpt lat="43.7393723" lon="12.3835844"><ele>510.0</ele><time>2026-05-02T06:45:59.814Z</time></trkpt><trkpt lat="43.7392969" lon="12.3834123"><ele>508.0</ele><time>2026-05-02T06:46:00.793Z</time></trkpt><trkpt lat="43.739221" lon="12.3832413"><ele>508.0</ele><time>2026-05-02T06:46:01.821Z</time></trkpt><trkpt lat="43.7391498" lon="12.3830746"><ele>508.0</ele><time>2026-05-02T06:46:02.806Z</time></trkpt><trkpt lat="43.7390816" lon="12.3829086"><ele>508.0</ele><time>2026-05-02T06:46:03.805Z</time></trkpt><trkpt lat="43.7390214" lon="12.3827487"><ele>508.0</ele><time>2026-05-02T06:46:04.792Z</time></trkpt><trkpt lat="43.7389654" lon="12.3825933"><ele>508.5</ele><time>2026-05-02T06:46:05.792Z</time></trkpt><trkpt lat="43.7389202" lon="12.3824422"><ele>509.0</ele><time>2026-05-02T06:46:06.781Z</time></trkpt><trkpt lat="43.7388911" lon="12.3822938"><ele>509.5</ele><time>2026-05-02T06:46:07.799Z</time></trkpt><trkpt lat="43.7388715" lon="12.3821352"><ele>510.0</ele><time>2026-05-02T06:46:08.79Z</time></trkpt><trkpt lat="43.7388604" lon="12.3819619"><ele>507.75</ele><time>2026-05-02T06:46:09.799Z</time></trkpt><trkpt lat="43.7388544" lon="12.3817821"><ele>505.5</ele><time>2026-05-02T06:46:10.785Z</time></trkpt><trkpt lat="43.7388482" lon="12.3815968"><ele>503.25</ele><time>2026-05-02T06:46:11.788Z</time></trkpt><trkpt lat="43.738835" lon="12.3814234"><ele>501.0</ele><time>2026-05-02T06:46:12.792Z</time></trkpt><trkpt lat="43.7388111" lon="12.3812501"><ele>499.0</ele><time>2026-05-02T06:46:13.782Z</time></trkpt><trkpt lat="43.7387634" lon="12.3810782"><ele>497.0</ele><time>2026-05-02T06:46:14.801Z</time></trkpt><trkpt lat="43.7386804" lon="12.3809044"><ele>495.0</ele><time>2026-05-02T06:46:15.797Z</time></trkpt><trkpt lat="43.7385896" lon="12.3807323"><ele>493.0</ele><time>2026-05-02T06:46:16.784Z</time></trkpt><trkpt lat="43.7384968" lon="12.3805634"><ele>494.0</ele><time>2026-05-02T06:46:17.811Z</time></trkpt><trkpt lat="43.7384135" lon="12.3804017"><ele>495.0</ele><time>2026-05-02T06:46:18.803Z</time></trkpt><trkpt lat="43.7383389" lon="12.3802551"><ele>496.0</ele><time>2026-05-02T06:46:19.797Z</time></trkpt><trkpt lat="43.7382679" lon="12.3801139"><ele>497.0</ele><time>2026-05-02T06:46:20.799Z</time></trkpt><trkpt lat="43.7381984" lon="12.3799766"><ele>497.0</ele><time>2026-05-02T06:46:21.792Z</time></trkpt><trkpt lat="43.7381284" lon="12.3798457"><ele>497.00000000000006</ele><time>2026-05-02T06:46:22.798Z</time></trkpt><trkpt lat="43.7380532" lon="12.3797407"><ele>497.00000000000006</ele><time>2026-05-02T06:46:23.791Z</time></trkpt><trkpt lat="43.7379728" lon="12.3796815"><ele>497.0</ele><time>2026-05-02T06:46:24.783Z</time></trkpt><trkpt lat="43.7378977" lon="12.3796703"><ele>497.0</ele><time>2026-05-02T06:46:25.795Z</time></trkpt><trkpt lat="43.7378167" lon="12.3797528"><ele>497.0</ele><time>2026-05-02T06:46:27.791Z</time></trkpt><trkpt lat="43.7378473" lon="12.3799447"><ele>497.0</ele><time>2026-05-02T06:46:29.807Z</time></trkpt><trkpt lat="43.7379011" lon="12.3800577"><ele>497.0</ele><time>2026-05-02T06:46:30.803Z</time></trkpt><trkpt lat="43.7379732" lon="12.3801976"><ele>497.0</ele><time>2026-05-02T06:46:31.799Z</time></trkpt><trkpt lat="43.7380499" lon="12.380357"><ele>496.0</ele><time>2026-05-02T06:46:32.81Z</time></trkpt><trkpt lat="43.7381194" lon="12.3805243"><ele>495.0</ele><time>2026-05-02T06:46:33.807Z</time></trkpt><trkpt lat="43.7381745" lon="12.3806911"><ele>494.0</ele><time>2026-05-02T06:46:34.805Z</time></trkpt><trkpt lat="43.7382198" lon="12.3808573"><ele>493.0</ele><time>2026-05-02T06:46:35.797Z</time></trkpt><trkpt lat="43.7382638" lon="12.3810123"><ele>493.0</ele><time>2026-05-02T06:46:36.793Z</time></trkpt><trkpt lat="43.7383065" lon="12.3811694"><ele>493.0</ele><time>2026-05-02T06:46:37.787Z</time></trkpt><trkpt lat="43.7383336" lon="12.3813266"><ele>493.0</ele><time>2026-05-02T06:46:38.781Z</time></trkpt><trkpt lat="43.7383476" lon="12.3814795"><ele>493.0</ele><time>2026-05-02T06:46:39.8Z</time></trkpt><trkpt lat="43.7383442" lon="12.3816402"><ele>491.5</ele><time>2026-05-02T06:46:40.786Z</time></trkpt><trkpt lat="43.7383224" lon="12.3818102"><ele>490.0</ele><time>2026-05-02T06:46:41.804Z</time></trkpt><trkpt lat="43.7382955" lon="12.3819948"><ele>488.5</ele><time>2026-05-02T06:46:42.793Z</time></trkpt><trkpt lat="43.7382664" lon="12.3821812"><ele>487.0</ele><time>2026-05-02T06:46:43.796Z</time></trkpt><trkpt lat="43.7382504" lon="12.3823675"><ele>486.0</ele><time>2026-05-02T06:46:44.794Z</time></trkpt><trkpt lat="43.7382598" lon="12.3825414"><ele>485.0</ele><time>2026-05-02T06:46:45.811Z</time></trkpt><trkpt lat="43.7382828" lon="12.3827009"><ele>484.0</ele><time>2026-05-02T06:46:46.808Z</time></trkpt><trkpt lat="43.7382981" lon="12.3828506"><ele>483.0</ele><time>2026-05-02T06:46:47.808Z</time></trkpt><trkpt lat="43.7382951" lon="12.3830031"><ele>482.4</ele><time>2026-05-02T06:46:48.801Z</time></trkpt><trkpt lat="43.7382647" lon="12.3831332"><ele>481.79999999999995</ele><time>2026-05-02T06:46:49.788Z</time></trkpt><trkpt lat="43.7381971" lon="12.3832601"><ele>481.2</ele><time>2026-05-02T06:46:50.796Z</time></trkpt><trkpt lat="43.7381093" lon="12.3833546"><ele>480.6</ele><time>2026-05-02T06:46:51.802Z</time></trkpt><trkpt lat="43.7380115" lon="12.383379"><ele>480.0</ele><time>2026-05-02T06:46:52.788Z</time></trkpt><trkpt lat="43.7379077" lon="12.3833411"><ele>480.0</ele><time>2026-05-02T06:46:53.784Z</time></trkpt><trkpt lat="43.7378142" lon="12.3832458"><ele>480.0</ele><time>2026-05-02T06:46:54.789Z</time></trkpt><trkpt lat="43.7377364" lon="12.3831072"><ele>480.0</ele><time>2026-05-02T06:46:55.798Z</time></trkpt><trkpt lat="43.7376657" lon="12.3829433"><ele>480.0</ele><time>2026-05-02T06:46:56.793Z</time></trkpt><trkpt lat="43.7375967" lon="12.3827758"><ele>475.5</ele><time>2026-05-02T06:46:57.796Z</time></trkpt><trkpt lat="43.7375348" lon="12.3825939"><ele>471.0</ele><time>2026-05-02T06:46:58.79Z</time></trkpt><trkpt lat="43.7374726" lon="12.3824085"><ele>466.5</ele><time>2026-05-02T06:46:59.794Z</time></trkpt><trkpt lat="43.7374216" lon="12.3822123"><ele>462.0</ele><time>2026-05-02T06:47:00.807Z</time></trkpt><trkpt lat="43.737371" lon="12.3820336"><ele>461.5</ele><time>2026-05-02T06:47:01.809Z</time></trkpt><trkpt lat="43.7373215" lon="12.3818569"><ele>461.0</ele><time>2026-05-02T06:47:02.799Z</time></trkpt><trkpt lat="43.7372732" lon="12.3816653"><ele>460.5</ele><time>2026-05-02T06:47:03.808Z</time></trkpt><trkpt lat="43.737224" lon="12.3814735"><ele>460.0</ele><time>2026-05-02T06:47:04.789Z</time></trkpt><trkpt lat="43.737164" lon="12.3812886"><ele>462.0</ele><time>2026-05-02T06:47:05.804Z</time></trkpt><trkpt lat="43.7370876" lon="12.3811124"><ele>464.0</ele><time>2026-05-02T06:47:06.784Z</time></trkpt><trkpt lat="43.7369972" lon="12.3809438"><ele>466.0</ele><time>2026-05-02T06:47:07.8Z</time></trkpt><trkpt lat="43.7369035" lon="12.3807882"><ele>468.0</ele><time>2026-05-02T06:47:08.799Z</time></trkpt><trkpt lat="43.7368024" lon="12.3806494"><ele>465.0</ele><time>2026-05-02T06:47:09.806Z</time></trkpt><trkpt lat="43.7366848" lon="12.3805402"><ele>462.0</ele><time>2026-05-02T06:47:10.793Z</time></trkpt><trkpt lat="43.736544" lon="12.3804714"><ele>459.0</ele><time>2026-05-02T06:47:11.806Z</time></trkpt><trkpt lat="43.7363912" lon="12.3804159"><ele>456.0</ele><time>2026-05-02T06:47:12.798Z</time></trkpt><trkpt lat="43.7362377" lon="12.3803815"><ele>456.0</ele><time>2026-05-02T06:47:13.776Z</time></trkpt><trkpt lat="43.7360855" lon="12.3803391"><ele>456.0</ele><time>2026-05-02T06:47:14.795Z</time></trkpt><trkpt lat="43.7359375" lon="12.380297"><ele>456.0</ele><time>2026-05-02T06:47:15.809Z</time></trkpt><trkpt lat="43.7357936" lon="12.3802626"><ele>449.0</ele><time>2026-05-02T06:47:16.79Z</time></trkpt><trkpt lat="43.7356486" lon="12.3802165"><ele>442.0</ele><time>2026-05-02T06:47:17.79Z</time></trkpt><trkpt lat="43.7355005" lon="12.3801601"><ele>435.0</ele><time>2026-05-02T06:47:18.789Z</time></trkpt><trkpt lat="43.7353566" lon="12.3800807"><ele>435.0</ele><time>2026-05-02T06:47:19.8Z</time></trkpt><trkpt lat="43.735225" lon="12.3799841"><ele>435.0</ele><time>2026-05-02T06:47:20.792Z</time></trkpt><trkpt lat="43.7351028" lon="12.379883"><ele>435.0</ele><time>2026-05-02T06:47:21.808Z</time></trkpt><trkpt lat="43.7349826" lon="12.379796"><ele>435.0</ele><time>2026-05-02T06:47:22.792Z</time></trkpt><trkpt lat="43.7348704" lon="12.3797008"><ele>432.5</ele><time>2026-05-02T06:47:23.799Z</time></trkpt><trkpt lat="43.7347693" lon="12.3795953"><ele>430.0</ele><time>2026-05-02T06:47:24.798Z</time></trkpt><trkpt lat="43.7346821" lon="12.3794654"><ele>427.5</ele><time>2026-05-02T06:47:25.811Z</time></trkpt><trkpt lat="43.7346041" lon="12.3792977"><ele>425.0</ele><time>2026-05-02T06:47:26.802Z</time></trkpt><trkpt lat="43.7345317" lon="12.379113"><ele>425.0</ele><time>2026-05-02T06:47:27.808Z</time></trkpt><trkpt lat="43.7344571" lon="12.3789251"><ele>425.0</ele><time>2026-05-02T06:47:28.808Z</time></trkpt><trkpt lat="43.7343755" lon="12.3787455"><ele>425.0</ele><time>2026-05-02T06:47:29.807Z</time></trkpt><trkpt lat="43.73429" lon="12.3785722"><ele>421.66666666666663</ele><time>2026-05-02T06:47:30.794Z</time></trkpt><trkpt lat="43.7342012" lon="12.3783941"><ele>418.33333333333337</ele><time>2026-05-02T06:47:31.804Z</time></trkpt><trkpt lat="43.7341035" lon="12.3782208"><ele>415.0</ele><time>2026-05-02T06:47:32.789Z</time></trkpt><trkpt lat="43.7339999" lon="12.3780437"><ele>415.0</ele><time>2026-05-02T06:47:33.796Z</time></trkpt><trkpt lat="43.7338904" lon="12.3778605"><ele>415.0</ele><time>2026-05-02T06:47:34.788Z</time></trkpt><trkpt lat="43.7337811" lon="12.3776686"><ele>415.0</ele><time>2026-05-02T06:47:35.802Z</time></trkpt><trkpt lat="43.7336676" lon="12.3774769"><ele>413.33333333333337</ele><time>2026-05-02T06:47:36.798Z</time></trkpt><trkpt lat="43.7335545" lon="12.3772825"><ele>411.66666666666663</ele><time>2026-05-02T06:47:37.804Z</time></trkpt><trkpt lat="43.7334462" lon="12.3770969"><ele>410.0</ele><time>2026-05-02T06:47:38.788Z</time></trkpt><trkpt lat="43.7333433" lon="12.3769139"><ele>409.0</ele><time>2026-05-02T06:47:39.799Z</time></trkpt><trkpt lat="43.7332437" lon="12.3767373"><ele>408.0</ele><time>2026-05-02T06:47:40.792Z</time></trkpt><trkpt lat="43.7331482" lon="12.3765678"><ele>407.0</ele><time>2026-05-02T06:47:41.789Z</time></trkpt><trkpt lat="43.7330506" lon="12.3764099"><ele>406.0</ele><time>2026-05-02T06:47:42.789Z</time></trkpt><trkpt lat="43.7329376" lon="12.3762806"><ele>405.0</ele><time>2026-05-02T06:47:43.812Z</time></trkpt><trkpt lat="43.7328129" lon="12.3761795"><ele>404.0</ele><time>2026-05-02T06:47:44.786Z</time></trkpt><trkpt lat="43.7326878" lon="12.3760797"><ele>403.0</ele><time>2026-05-02T06:47:45.806Z</time></trkpt><trkpt lat="43.7325818" lon="12.3759681"><ele>399.75</ele><time>2026-05-02T06:47:46.784Z</time></trkpt><trkpt lat="43.7324881" lon="12.375826"><ele>396.5</ele><time>2026-05-02T06:47:47.796Z</time></trkpt><trkpt lat="43.7324152" lon="12.3756582"><ele>393.25</ele><time>2026-05-02T06:47:48.791Z</time></trkpt><trkpt lat="43.7323645" lon="12.3754697"><ele>390.0</ele><time>2026-05-02T06:47:49.785Z</time></trkpt><trkpt lat="43.7323184" lon="12.37527"><ele>388.66666666666663</ele><time>2026-05-02T06:47:50.778Z</time></trkpt><trkpt lat="43.7322749" lon="12.375065"><ele>387.3333333333333</ele><time>2026-05-02T06:47:51.792Z</time></trkpt><trkpt lat="43.7322291" lon="12.3748636"><ele>386.0</ele><time>2026-05-02T06:47:52.797Z</time></trkpt><trkpt lat="43.732182" lon="12.3746609"><ele>388.25</ele><time>2026-05-02T06:47:53.797Z</time></trkpt><trkpt lat="43.7321314" lon="12.3744494"><ele>390.5</ele><time>2026-05-02T06:47:54.785Z</time></trkpt><trkpt lat="43.7320863" lon="12.3742508"><ele>392.75</ele><time>2026-05-02T06:47:55.796Z</time></trkpt><trkpt lat="43.7320405" lon="12.3740845"><ele>395.0</ele><time>2026-05-02T06:47:56.789Z</time></trkpt><trkpt lat="43.7319867" lon="12.3739483"><ele>395.8</ele><time>2026-05-02T06:47:57.788Z</time></trkpt><trkpt lat="43.7319232" lon="12.3738508"><ele>396.6</ele><time>2026-05-02T06:47:58.794Z</time></trkpt><trkpt lat="43.7318377" lon="12.3737889"><ele>397.4</ele><time>2026-05-02T06:47:59.796Z</time></trkpt><trkpt lat="43.7317376" lon="12.3737317"><ele>398.2</ele><time>2026-05-02T06:48:00.791Z</time></trkpt><trkpt lat="43.7316298" lon="12.3736763"><ele>399.0</ele><time>2026-05-02T06:48:01.798Z</time></trkpt><trkpt lat="43.7315091" lon="12.3736269"><ele>399.0</ele><time>2026-05-02T06:48:02.788Z</time></trkpt><trkpt lat="43.7313881" lon="12.3735739"><ele>399.0</ele><time>2026-05-02T06:48:03.832Z</time></trkpt><trkpt lat="43.7312589" lon="12.3735332"><ele>399.0</ele><time>2026-05-02T06:48:04.787Z</time></trkpt><trkpt lat="43.7311232" lon="12.3735152"><ele>399.0</ele><time>2026-05-02T06:48:05.802Z</time></trkpt><trkpt lat="43.7309866" lon="12.3735126"><ele>398.25</ele><time>2026-05-02T06:48:06.802Z</time></trkpt><trkpt lat="43.7308455" lon="12.3735206"><ele>397.5</ele><time>2026-05-02T06:48:07.793Z</time></trkpt><trkpt lat="43.7307253" lon="12.3735168"><ele>396.75</ele><time>2026-05-02T06:48:08.796Z</time></trkpt><trkpt lat="43.7306186" lon="12.3734981"><ele>396.0</ele><time>2026-05-02T06:48:09.796Z</time></trkpt><trkpt lat="43.7305183" lon="12.373465"><ele>396.0</ele><time>2026-05-02T06:48:10.797Z</time></trkpt><trkpt lat="43.730414" lon="12.3734093"><ele>396.0</ele><time>2026-05-02T06:48:11.81Z</time></trkpt><trkpt lat="43.7303017" lon="12.3733277"><ele>396.0</ele><time>2026-05-02T06:48:12.79Z</time></trkpt><trkpt lat="43.7301762" lon="12.3732329"><ele>396.0</ele><time>2026-05-02T06:48:13.811Z</time></trkpt><trkpt lat="43.730033" lon="12.373142"><ele>395.33333333333337</ele><time>2026-05-02T06:48:14.805Z</time></trkpt><trkpt lat="43.7298724" lon="12.3730781"><ele>394.6666666666667</ele><time>2026-05-02T06:48:15.816Z</time></trkpt><trkpt lat="43.7297008" lon="12.3730334"><ele>394.0</ele><time>2026-05-02T06:48:16.783Z</time></trkpt><trkpt lat="43.7295258" lon="12.3729977"><ele>392.33333333333337</ele><time>2026-05-02T06:48:17.81Z</time></trkpt><trkpt lat="43.7293561" lon="12.3729617"><ele>390.66666666666663</ele><time>2026-05-02T06:48:18.795Z</time></trkpt><trkpt lat="43.7291904" lon="12.3729133"><ele>389.0</ele><time>2026-05-02T06:48:19.805Z</time></trkpt><trkpt lat="43.7290242" lon="12.3728693"><ele>389.0</ele><time>2026-05-02T06:48:20.792Z</time></trkpt><trkpt lat="43.7288634" lon="12.3728231"><ele>389.0</ele><time>2026-05-02T06:48:21.803Z</time></trkpt><trkpt lat="43.7287006" lon="12.3727765"><ele>389.0</ele><time>2026-05-02T06:48:22.797Z</time></trkpt><trkpt lat="43.7285343" lon="12.3727296"><ele>385.66666666666663</ele><time>2026-05-02T06:48:23.797Z</time></trkpt><trkpt lat="43.7283701" lon="12.372681"><ele>382.3333333333333</ele><time>2026-05-02T06:48:24.801Z</time></trkpt><trkpt lat="43.7282057" lon="12.3726366"><ele>379.0</ele><time>2026-05-02T06:48:25.793Z</time></trkpt><trkpt lat="43.728048" lon="12.3725872"><ele>379.0</ele><time>2026-05-02T06:48:26.789Z</time></trkpt><trkpt lat="43.727891" lon="12.3725381"><ele>379.0</ele><time>2026-05-02T06:48:27.803Z</time></trkpt><trkpt lat="43.7277385" lon="12.3724884"><ele>379.0</ele><time>2026-05-02T06:48:28.795Z</time></trkpt><trkpt lat="43.7275948" lon="12.372445"><ele>376.3333333333333</ele><time>2026-05-02T06:48:29.804Z</time></trkpt><trkpt lat="43.7274548" lon="12.3724162"><ele>373.6666666666667</ele><time>2026-05-02T06:48:30.807Z</time></trkpt><trkpt lat="43.7273061" lon="12.3724212"><ele>371.0</ele><time>2026-05-02T06:48:31.815Z</time></trkpt><trkpt lat="43.7271462" lon="12.3724497"><ele>371.0</ele><time>2026-05-02T06:48:32.796Z</time></trkpt><trkpt lat="43.7269739" lon="12.3724781"><ele>371.0</ele><time>2026-05-02T06:48:33.794Z</time></trkpt><trkpt lat="43.726797" lon="12.3725173"><ele>371.0</ele><time>2026-05-02T06:48:34.791Z</time></trkpt><trkpt lat="43.726611" lon="12.3725649"><ele>372.33333333333337</ele><time>2026-05-02T06:48:35.791Z</time></trkpt><trkpt lat="43.7264356" lon="12.3725952"><ele>373.6666666666667</ele><time>2026-05-02T06:48:36.789Z</time></trkpt><trkpt lat="43.7262716" lon="12.3726329"><ele>375.0</ele><time>2026-05-02T06:48:37.794Z</time></trkpt><trkpt lat="43.7261144" lon="12.3726708"><ele>377.3333333333333</ele><time>2026-05-02T06:48:38.794Z</time></trkpt><trkpt lat="43.7259583" lon="12.3727043"><ele>379.66666666666663</ele><time>2026-05-02T06:48:39.793Z</time></trkpt><trkpt lat="43.7258045" lon="12.3727252"><ele>382.0</ele><time>2026-05-02T06:48:40.798Z</time></trkpt><trkpt lat="43.7256566" lon="12.3727429"><ele>382.0</ele><time>2026-05-02T06:48:41.791Z</time></trkpt><trkpt lat="43.7255276" lon="12.37277"><ele>382.0</ele><time>2026-05-02T06:48:42.787Z</time></trkpt><trkpt lat="43.7254173" lon="12.3727914"><ele>382.0</ele><time>2026-05-02T06:48:43.796Z</time></trkpt><trkpt lat="43.7253349" lon="12.3728081"><ele>382.0</ele><time>2026-05-02T06:48:44.785Z</time></trkpt><trkpt lat="43.7252175" lon="12.3728606"><ele>382.0</ele><time>2026-05-02T06:48:46.794Z</time></trkpt><trkpt lat="43.7251378" lon="12.3728867"><ele>383.5</ele><time>2026-05-02T06:48:47.797Z</time></trkpt><trkpt lat="43.7250289" lon="12.3729438"><ele>385.0</ele><time>2026-05-02T06:48:48.793Z</time></trkpt><trkpt lat="43.7249081" lon="12.3730049"><ele>386.5</ele><time>2026-05-02T06:48:49.795Z</time></trkpt><trkpt lat="43.7247724" lon="12.373075"><ele>388.0</ele><time>2026-05-02T06:48:50.803Z</time></trkpt><trkpt lat="43.7246257" lon="12.3731499"><ele>384.33333333333337</ele><time>2026-05-02T06:48:51.804Z</time></trkpt><trkpt lat="43.7244777" lon="12.3732109"><ele>380.6666666666667</ele><time>2026-05-02T06:48:52.802Z</time></trkpt><trkpt lat="43.7243272" lon="12.3732645"><ele>377.0</ele><time>2026-05-02T06:48:53.823Z</time></trkpt><trkpt lat="43.7241629" lon="12.3733061"><ele>377.0</ele><time>2026-05-02T06:48:54.792Z</time></trkpt><trkpt lat="43.7239899" lon="12.3733401"><ele>377.0</ele><time>2026-05-02T06:48:55.817Z</time></trkpt><trkpt lat="43.723814" lon="12.3733707"><ele>377.0</ele><time>2026-05-02T06:48:56.791Z</time></trkpt><trkpt lat="43.7236405" lon="12.3734019"><ele>376.0</ele><time>2026-05-02T06:48:57.804Z</time></trkpt><trkpt lat="43.7234725" lon="12.3734343"><ele>375.0</ele><time>2026-05-02T06:48:58.799Z</time></trkpt><trkpt lat="43.7232987" lon="12.3734787"><ele>374.0</ele><time>2026-05-02T06:48:59.8Z</time></trkpt><trkpt lat="43.7231261" lon="12.3735268"><ele>374.0</ele><time>2026-05-02T06:49:00.798Z</time></trkpt><trkpt lat="43.7229517" lon="12.3735819"><ele>374.0</ele><time>2026-05-02T06:49:01.819Z</time></trkpt><trkpt lat="43.7227827" lon="12.3736317"><ele>374.0</ele><time>2026-05-02T06:49:02.808Z</time></trkpt><trkpt lat="43.722618" lon="12.3736824"><ele>373.6666666666667</ele><time>2026-05-02T06:49:03.805Z</time></trkpt><trkpt lat="43.7224547" lon="12.3737236"><ele>373.3333333333333</ele><time>2026-05-02T06:49:04.795Z</time></trkpt><trkpt lat="43.7222893" lon="12.3737633"><ele>373.0</ele><time>2026-05-02T06:49:05.8Z</time></trkpt><trkpt lat="43.7221193" lon="12.373801"><ele>373.0</ele><time>2026-05-02T06:49:06.805Z</time></trkpt><trkpt lat="43.7219477" lon="12.3738328"><ele>373.0</ele><time>2026-05-02T06:49:07.807Z</time></trkpt><trkpt lat="43.7217755" lon="12.373861"><ele>373.0</ele><time>2026-05-02T06:49:08.8Z</time></trkpt><trkpt lat="43.7216051" lon="12.3738934"><ele>370.66666666666663</ele><time>2026-05-02T06:49:09.808Z</time></trkpt><trkpt lat="43.7214387" lon="12.3739204"><ele>368.3333333333333</ele><time>2026-05-02T06:49:10.808Z</time></trkpt><trkpt lat="43.7212704" lon="12.3739474"><ele>366.0</ele><time>2026-05-02T06:49:11.802Z</time></trkpt><trkpt lat="43.7210999" lon="12.3739737"><ele>366.3333333333333</ele><time>2026-05-02T06:49:12.803Z</time></trkpt><trkpt lat="43.7209293" lon="12.3739952"><ele>366.66666666666663</ele><time>2026-05-02T06:49:13.804Z</time></trkpt><trkpt lat="43.7207575" lon="12.3740144"><ele>367.0</ele><time>2026-05-02T06:49:14.799Z</time></trkpt><trkpt lat="43.720585" lon="12.3740338"><ele>367.0</ele><time>2026-05-02T06:49:15.801Z</time></trkpt><trkpt lat="43.7204146" lon="12.3740462"><ele>367.0</ele><time>2026-05-02T06:49:16.804Z</time></trkpt><trkpt lat="43.7202529" lon="12.3740668"><ele>367.0</ele><time>2026-05-02T06:49:17.805Z</time></trkpt><trkpt lat="43.7201014" lon="12.374096"><ele>366.5</ele><time>2026-05-02T06:49:18.805Z</time></trkpt><trkpt lat="43.7199595" lon="12.3741398"><ele>366.0</ele><time>2026-05-02T06:49:19.797Z</time></trkpt><trkpt lat="43.7198226" lon="12.3742043"><ele>365.5</ele><time>2026-05-02T06:49:20.804Z</time></trkpt><trkpt lat="43.7196795" lon="12.3742804"><ele>365.0</ele><time>2026-05-02T06:49:21.824Z</time></trkpt><trkpt lat="43.7195386" lon="12.3743679"><ele>364.0</ele><time>2026-05-02T06:49:22.808Z</time></trkpt><trkpt lat="43.7193968" lon="12.3744562"><ele>363.0</ele><time>2026-05-02T06:49:23.819Z</time></trkpt><trkpt lat="43.7192529" lon="12.374544"><ele>362.0</ele><time>2026-05-02T06:49:24.79Z</time></trkpt><trkpt lat="43.7191157" lon="12.3746223"><ele>362.75</ele><time>2026-05-02T06:49:25.808Z</time></trkpt><trkpt lat="43.7189831" lon="12.3746986"><ele>363.5</ele><time>2026-05-02T06:49:26.794Z</time></trkpt><trkpt lat="43.7188502" lon="12.3747719"><ele>364.25</ele><time>2026-05-02T06:49:27.815Z</time></trkpt><trkpt lat="43.7187313" lon="12.3748489"><ele>365.0</ele><time>2026-05-02T06:49:28.804Z</time></trkpt><trkpt lat="43.7186136" lon="12.3749216"><ele>363.25</ele><time>2026-05-02T06:49:29.804Z</time></trkpt><trkpt lat="43.7184923" lon="12.3749937"><ele>361.5</ele><time>2026-05-02T06:49:30.803Z</time></trkpt><trkpt lat="43.7183718" lon="12.3750672"><ele>359.75</ele><time>2026-05-02T06:49:31.813Z</time></trkpt><trkpt lat="43.7182545" lon="12.3751426"><ele>358.0</ele><time>2026-05-02T06:49:32.785Z</time></trkpt><trkpt lat="43.7181313" lon="12.3752161"><ele>358.0</ele><time>2026-05-02T06:49:33.82Z</time></trkpt><trkpt lat="43.7180067" lon="12.3752929"><ele>358.0</ele><time>2026-05-02T06:49:34.803Z</time></trkpt><trkpt lat="43.7178843" lon="12.3753789"><ele>358.0</ele><time>2026-05-02T06:49:35.813Z</time></trkpt><trkpt lat="43.7177653" lon="12.3754623"><ele>358.0</ele><time>2026-05-02T06:49:36.798Z</time></trkpt><trkpt lat="43.7176523" lon="12.3755401"><ele>356.25</ele><time>2026-05-02T06:49:37.806Z</time></trkpt><trkpt lat="43.7175426" lon="12.3756115"><ele>354.5</ele><time>2026-05-02T06:49:38.798Z</time></trkpt><trkpt lat="43.7174336" lon="12.3756839"><ele>352.75</ele><time>2026-05-02T06:49:39.813Z</time></trkpt><trkpt lat="43.7173267" lon="12.3757561"><ele>351.0</ele><time>2026-05-02T06:49:40.801Z</time></trkpt><trkpt lat="43.7172299" lon="12.3758228"><ele>351.0</ele><time>2026-05-02T06:49:41.808Z</time></trkpt><trkpt lat="43.7171547" lon="12.3758728"><ele>351.0</ele><time>2026-05-02T06:49:42.799Z</time></trkpt><trkpt lat="43.7170975" lon="12.375915"><ele>351.0</ele><time>2026-05-02T06:49:43.815Z</time></trkpt><trkpt lat="43.7170321" lon="12.3759578"><ele>351.0</ele><time>2026-05-02T06:49:45.816Z</time></trkpt><trkpt lat="43.7169454" lon="12.3759902"><ele>351.0</ele><time>2026-05-02T06:50:02.796Z</time></trkpt><trkpt lat="43.716856" lon="12.3760303"><ele>351.0</ele><time>2026-05-02T06:50:04.807Z</time></trkpt><trkpt lat="43.7167929" lon="12.3761323"><ele>350.0</ele><time>2026-05-02T06:50:06.789Z</time></trkpt><trkpt lat="43.7167134" lon="12.3762103"><ele>349.0</ele><time>2026-05-02T06:50:08.793Z</time></trkpt><trkpt lat="43.7166036" lon="12.3762793"><ele>348.0</ele><time>2026-05-02T06:50:10.788Z</time></trkpt><trkpt lat="43.7165076" lon="12.3763353"><ele>347.0</ele><time>2026-05-02T06:50:12.802Z</time></trkpt><trkpt lat="43.7164343" lon="12.3763679"><ele>346.0</ele><time>2026-05-02T06:50:14.778Z</time></trkpt><trkpt lat="43.7163564" lon="12.3763992"><ele>345.66666666666663</ele><time>2026-05-02T06:50:16.785Z</time></trkpt><trkpt lat="43.7162676" lon="12.3764476"><ele>345.3333333333333</ele><time>2026-05-02T06:50:19.795Z</time></trkpt><trkpt lat="43.7161961" lon="12.3764523"><ele>345.0</ele><time>2026-05-02T06:50:22.797Z</time></trkpt><trkpt lat="43.7161316" lon="12.3764548"><ele>344.6666666666667</ele><time>2026-05-02T07:16:45.79Z</time></trkpt><trkpt lat="43.7160406" lon="12.3764676"><ele>344.33333333333337</ele><time>2026-05-02T07:16:48.783Z</time></trkpt><trkpt lat="43.7159545" lon="12.376472"><ele>344.0</ele><time>2026-05-02T07:16:51.809Z</time></trkpt><trkpt lat="43.7158755" lon="12.3764894"><ele>342.83333333333337</ele><time>2026-05-02T07:16:54.778Z</time></trkpt><trkpt lat="43.7158139" lon="12.3765144"><ele>341.6666666666667</ele><time>2026-05-02T07:16:56.795Z</time></trkpt><trkpt lat="43.7157433" lon="12.3765316"><ele>340.5</ele><time>2026-05-02T07:16:58.792Z</time></trkpt><trkpt lat="43.7156783" lon="12.3765466"><ele>339.3333333333333</ele><time>2026-05-02T07:17:00.784Z</time></trkpt><trkpt lat="43.7156015" lon="12.3765688"><ele>338.16666666666663</ele><time>2026-05-02T07:17:02.801Z</time></trkpt><trkpt lat="43.7154896" lon="12.3765983"><ele>337.0</ele><time>2026-05-02T07:17:04.795Z</time></trkpt><trkpt lat="43.7153727" lon="12.3766222"><ele>337.0</ele><time>2026-05-02T07:17:06.784Z</time></trkpt><trkpt lat="43.7153083" lon="12.3766402"><ele>337.0</ele><time>2026-05-02T07:17:07.799Z</time></trkpt><trkpt lat="43.7152427" lon="12.3766715"><ele>337.0</ele><time>2026-05-02T07:17:08.789Z</time></trkpt><trkpt lat="43.7151706" lon="12.3767098"><ele>337.0</ele><time>2026-05-02T07:17:09.809Z</time></trkpt><trkpt lat="43.7150965" lon="12.3767569"><ele>337.0</ele><time>2026-05-02T07:17:10.779Z</time></trkpt><trkpt lat="43.7150182" lon="12.3768025"><ele>337.0</ele><time>2026-05-02T07:17:11.803Z</time></trkpt><trkpt lat="43.7149353" lon="12.3768541"><ele>338.0</ele><time>2026-05-02T07:17:12.785Z</time></trkpt><trkpt lat="43.7148644" lon="12.3769423"><ele>339.0</ele><time>2026-05-02T07:17:13.806Z</time></trkpt><trkpt lat="43.7148132" lon="12.3770489"><ele>340.0</ele><time>2026-05-02T07:17:14.794Z</time></trkpt><trkpt lat="43.7148004" lon="12.3771825"><ele>341.0</ele><time>2026-05-02T07:17:15.797Z</time></trkpt><trkpt lat="43.7148153" lon="12.3773321"><ele>342.0</ele><time>2026-05-02T07:17:16.787Z</time></trkpt><trkpt lat="43.7148524" lon="12.3774739"><ele>342.0</ele><time>2026-05-02T07:17:17.784Z</time></trkpt><trkpt lat="43.7149033" lon="12.3776215"><ele>342.0</ele><time>2026-05-02T07:17:18.799Z</time></trkpt><trkpt lat="43.714941" lon="12.3777743"><ele>342.0</ele><time>2026-05-02T07:17:19.797Z</time></trkpt><trkpt lat="43.7149777" lon="12.3779301"><ele>342.0</ele><time>2026-05-02T07:17:20.811Z</time></trkpt><trkpt lat="43.715001" lon="12.378107"><ele>344.25</ele><time>2026-05-02T07:17:21.79Z</time></trkpt><trkpt lat="43.7150076" lon="12.3782982"><ele>346.5</ele><time>2026-05-02T07:17:22.799Z</time></trkpt><trkpt lat="43.7150055" lon="12.3785023"><ele>348.75</ele><time>2026-05-02T07:17:23.803Z</time></trkpt><trkpt lat="43.715019" lon="12.3787135"><ele>351.0</ele><time>2026-05-02T07:17:24.79Z</time></trkpt><trkpt lat="43.7150553" lon="12.3789198"><ele>352.6</ele><time>2026-05-02T07:17:25.805Z</time></trkpt><trkpt lat="43.7150876" lon="12.3790957"><ele>354.20000000000005</ele><time>2026-05-02T07:17:26.784Z</time></trkpt><trkpt lat="43.7150962" lon="12.379237"><ele>355.79999999999995</ele><time>2026-05-02T07:17:27.796Z</time></trkpt><trkpt lat="43.7150051" lon="12.3793312"><ele>357.4</ele><time>2026-05-02T07:17:29.782Z</time></trkpt><trkpt lat="43.7149394" lon="12.3792819"><ele>359.0</ele><time>2026-05-02T07:17:30.799Z</time></trkpt><trkpt lat="43.7148954" lon="12.379155"><ele>359.0</ele><time>2026-05-02T07:17:31.79Z</time></trkpt><trkpt lat="43.7148694" lon="12.3789754"><ele>359.0</ele><time>2026-05-02T07:17:32.784Z</time></trkpt><trkpt lat="43.7148271" lon="12.3787911"><ele>359.0</ele><time>2026-05-02T07:17:33.783Z</time></trkpt><trkpt lat="43.7147593" lon="12.378637"><ele>359.0</ele><time>2026-05-02T07:17:34.779Z</time></trkpt><trkpt lat="43.7146664" lon="12.3785624"><ele>360.25</ele><time>2026-05-02T07:17:35.797Z</time></trkpt><trkpt lat="43.7145542" lon="12.3785351"><ele>361.5</ele><time>2026-05-02T07:17:36.779Z</time></trkpt><trkpt lat="43.7144273" lon="12.3785954"><ele>362.75</ele><time>2026-05-02T07:17:37.786Z</time></trkpt><trkpt lat="43.7143149" lon="12.3787181"><ele>364.0</ele><time>2026-05-02T07:17:38.797Z</time></trkpt><trkpt lat="43.7141966" lon="12.3788514"><ele>365.5</ele><time>2026-05-02T07:17:39.775Z</time></trkpt><trkpt lat="43.7140817" lon="12.379003"><ele>367.0</ele><time>2026-05-02T07:17:40.775Z</time></trkpt><trkpt lat="43.7139851" lon="12.379164"><ele>368.5</ele><time>2026-05-02T07:17:41.796Z</time></trkpt><trkpt lat="43.713916" lon="12.3793126"><ele>370.0</ele><time>2026-05-02T07:17:42.78Z</time></trkpt><trkpt lat="43.7138614" lon="12.379476"><ele>370.0</ele><time>2026-05-02T07:17:43.784Z</time></trkpt><trkpt lat="43.7138359" lon="12.3796605"><ele>370.0</ele><time>2026-05-02T07:17:44.785Z</time></trkpt><trkpt lat="43.7138417" lon="12.379842"><ele>370.0</ele><time>2026-05-02T07:17:45.777Z</time></trkpt><trkpt lat="43.7138923" lon="12.3800007"><ele>370.0</ele><time>2026-05-02T07:17:46.78Z</time></trkpt><trkpt lat="43.7139716" lon="12.3801178"><ele>372.0</ele><time>2026-05-02T07:17:47.795Z</time></trkpt><trkpt lat="43.7140747" lon="12.3801771"><ele>374.0</ele><time>2026-05-02T07:17:48.79Z</time></trkpt><trkpt lat="43.7141887" lon="12.3801665"><ele>376.0</ele><time>2026-05-02T07:17:49.792Z</time></trkpt><trkpt lat="43.7142888" lon="12.3800886"><ele>378.0</ele><time>2026-05-02T07:17:50.78Z</time></trkpt><trkpt lat="43.714399" lon="12.3800087"><ele>375.2</ele><time>2026-05-02T07:17:51.788Z</time></trkpt><trkpt lat="43.7145001" lon="12.3799881"><ele>372.4</ele><time>2026-05-02T07:17:52.781Z</time></trkpt><trkpt lat="43.7145886" lon="12.3800256"><ele>369.59999999999997</ele><time>2026-05-02T07:17:53.809Z</time></trkpt><trkpt lat="43.7146619" lon="12.3801116"><ele>366.79999999999995</ele><time>2026-05-02T07:17:54.773Z</time></trkpt><trkpt lat="43.7146932" lon="12.3802343"><ele>364.0</ele><time>2026-05-02T07:17:55.784Z</time></trkpt><trkpt lat="43.7146938" lon="12.380367"><ele>364.0</ele><time>2026-05-02T07:17:56.78Z</time></trkpt><trkpt lat="43.7146526" lon="12.3804876"><ele>364.0</ele><time>2026-05-02T07:17:57.788Z</time></trkpt><trkpt lat="43.7145766" lon="12.3806098"><ele>364.0</ele><time>2026-05-02T07:17:58.782Z</time></trkpt><trkpt lat="43.7144803" lon="12.380715"><ele>364.0</ele><time>2026-05-02T07:17:59.791Z</time></trkpt><trkpt lat="43.7143673" lon="12.3808267"><ele>369.75</ele><time>2026-05-02T07:18:00.786Z</time></trkpt><trkpt lat="43.7142466" lon="12.3809504"><ele>375.5</ele><time>2026-05-02T07:18:01.786Z</time></trkpt><trkpt lat="43.7141245" lon="12.3810704"><ele>381.25</ele><time>2026-05-02T07:18:02.797Z</time></trkpt><trkpt lat="43.7140068" lon="12.3811797"><ele>387.0</ele><time>2026-05-02T07:18:03.793Z</time></trkpt><trkpt lat="43.7138897" lon="12.3812847"><ele>389.5</ele><time>2026-05-02T07:18:04.785Z</time></trkpt><trkpt lat="43.7137675" lon="12.3813893"><ele>392.0</ele><time>2026-05-02T07:18:05.788Z</time></trkpt><trkpt lat="43.7136387" lon="12.3814913"><ele>394.5</ele><time>2026-05-02T07:18:06.782Z</time></trkpt><trkpt lat="43.7134992" lon="12.3815819"><ele>397.0</ele><time>2026-05-02T07:18:07.809Z</time></trkpt><trkpt lat="43.7133527" lon="12.3816519"><ele>397.75</ele><time>2026-05-02T07:18:08.788Z</time></trkpt><trkpt lat="43.7132049" lon="12.3816774"><ele>398.5</ele><time>2026-05-02T07:18:09.792Z</time></trkpt><trkpt lat="43.7130731" lon="12.381693"><ele>399.25</ele><time>2026-05-02T07:18:10.781Z</time></trkpt><trkpt lat="43.712952" lon="12.3817158"><ele>400.0</ele><time>2026-05-02T07:18:11.789Z</time></trkpt><trkpt lat="43.7128869" lon="12.3818028"><ele>400.0</ele><time>2026-05-02T07:18:12.78Z</time></trkpt><trkpt lat="43.7128881" lon="12.3819288"><ele>400.0</ele><time>2026-05-02T07:18:13.79Z</time></trkpt><trkpt lat="43.7129301" lon="12.3820596"><ele>400.0</ele><time>2026-05-02T07:18:14.787Z</time></trkpt><trkpt lat="43.7130284" lon="12.3821769"><ele>400.0</ele><time>2026-05-02T07:18:15.786Z</time></trkpt><trkpt lat="43.7131688" lon="12.3822691"><ele>402.6666666666667</ele><time>2026-05-02T07:18:16.782Z</time></trkpt><trkpt lat="43.7133141" lon="12.382354"><ele>405.33333333333337</ele><time>2026-05-02T07:18:17.791Z</time></trkpt><trkpt lat="43.7134535" lon="12.3824783"><ele>408.0</ele><time>2026-05-02T07:18:18.782Z</time></trkpt><trkpt lat="43.7135914" lon="12.3826242"><ele>408.0</ele><time>2026-05-02T07:18:19.788Z</time></trkpt><trkpt lat="43.7137306" lon="12.3827662"><ele>408.0</ele><time>2026-05-02T07:18:20.787Z</time></trkpt><trkpt lat="43.7138595" lon="12.3829119"><ele>408.0</ele><time>2026-05-02T07:18:21.805Z</time></trkpt><trkpt lat="43.71398" lon="12.3830556"><ele>412.33333333333337</ele><time>2026-05-02T07:18:22.775Z</time></trkpt><trkpt lat="43.7140952" lon="12.3832053"><ele>416.6666666666667</ele><time>2026-05-02T07:18:23.793Z</time></trkpt><trkpt lat="43.7142099" lon="12.383361"><ele>421.0</ele><time>2026-05-02T07:18:24.792Z</time></trkpt><trkpt lat="43.7143167" lon="12.3835164"><ele>415.0</ele><time>2026-05-02T07:18:25.796Z</time></trkpt><trkpt lat="43.7144059" lon="12.3836663"><ele>409.0</ele><time>2026-05-02T07:18:26.785Z</time></trkpt><trkpt lat="43.7144637" lon="12.3838157"><ele>403.0</ele><time>2026-05-02T07:18:27.802Z</time></trkpt><trkpt lat="43.7144832" lon="12.3839701"><ele>397.0</ele><time>2026-05-02T07:18:28.781Z</time></trkpt><trkpt lat="43.7144588" lon="12.3841327"><ele>397.0</ele><time>2026-05-02T07:18:29.795Z</time></trkpt><trkpt lat="43.7144082" lon="12.3842974"><ele>397.0</ele><time>2026-05-02T07:18:30.794Z</time></trkpt><trkpt lat="43.7143518" lon="12.3844689"><ele>397.0</ele><time>2026-05-02T07:18:31.817Z</time></trkpt><trkpt lat="43.714309" lon="12.3846463"><ele>397.0</ele><time>2026-05-02T07:18:32.782Z</time></trkpt><trkpt lat="43.714279" lon="12.3848462"><ele>405.5</ele><time>2026-05-02T07:18:33.804Z</time></trkpt><trkpt lat="43.714272" lon="12.3850614"><ele>414.0</ele><time>2026-05-02T07:18:34.79Z</time></trkpt><trkpt lat="43.7142878" lon="12.3852668"><ele>422.5</ele><time>2026-05-02T07:18:35.787Z</time></trkpt><trkpt lat="43.7143204" lon="12.3854483"><ele>431.0</ele><time>2026-05-02T07:18:36.781Z</time></trkpt><trkpt lat="43.7143437" lon="12.3855931"><ele>430.99999999999994</ele><time>2026-05-02T07:18:37.784Z</time></trkpt><trkpt lat="43.7143278" lon="12.3857045"><ele>431.0</ele><time>2026-05-02T07:18:38.791Z</time></trkpt><trkpt lat="43.7142781" lon="12.3857602"><ele>431.0</ele><time>2026-05-02T07:18:39.797Z</time></trkpt><trkpt lat="43.7142084" lon="12.3857452"><ele>431.0</ele><time>2026-05-02T07:18:40.783Z</time></trkpt><trkpt lat="43.7141148" lon="12.3856774"><ele>430.99999999999994</ele><time>2026-05-02T07:18:41.789Z</time></trkpt><trkpt lat="43.7140691" lon="12.3855301"><ele>431.0</ele><time>2026-05-02T07:18:42.792Z</time></trkpt><trkpt lat="43.7140034" lon="12.3853906"><ele>432.3333333333333</ele><time>2026-05-02T07:18:43.794Z</time></trkpt><trkpt lat="43.7138921" lon="12.3852655"><ele>433.66666666666663</ele><time>2026-05-02T07:18:44.786Z</time></trkpt><trkpt lat="43.7137306" lon="12.3851439"><ele>435.0</ele><time>2026-05-02T07:18:45.792Z</time></trkpt><trkpt lat="43.7135979" lon="12.3850176"><ele>440.0</ele><time>2026-05-02T07:18:46.78Z</time></trkpt><trkpt lat="43.7134637" lon="12.3849068"><ele>445.0</ele><time>2026-05-02T07:18:47.792Z</time></trkpt><trkpt lat="43.7133114" lon="12.38481"><ele>450.0</ele><time>2026-05-02T07:18:48.781Z</time></trkpt><trkpt lat="43.7131574" lon="12.3847781"><ele>450.0</ele><time>2026-05-02T07:18:49.787Z</time></trkpt><trkpt lat="43.7129967" lon="12.384819"><ele>450.0</ele><time>2026-05-02T07:18:50.778Z</time></trkpt><trkpt lat="43.7128428" lon="12.3849028"><ele>450.0</ele><time>2026-05-02T07:18:51.808Z</time></trkpt><trkpt lat="43.7127032" lon="12.3849834"><ele>451.0</ele><time>2026-05-02T07:18:52.772Z</time></trkpt><trkpt lat="43.712569" lon="12.3850226"><ele>452.0</ele><time>2026-05-02T07:18:53.802Z</time></trkpt><trkpt lat="43.7124398" lon="12.3850524"><ele>453.0</ele><time>2026-05-02T07:18:54.787Z</time></trkpt><trkpt lat="43.7123498" lon="12.3851143"><ele>454.0</ele><time>2026-05-02T07:18:55.785Z</time></trkpt><trkpt lat="43.7123189" lon="12.385221"><ele>454.0</ele><time>2026-05-02T07:18:56.785Z</time></trkpt><trkpt lat="43.7123265" lon="12.3853291"><ele>454.0</ele><time>2026-05-02T07:18:57.808Z</time></trkpt><trkpt lat="43.712372" lon="12.3854247"><ele>454.0</ele><time>2026-05-02T07:18:58.787Z</time></trkpt><trkpt lat="43.7124468" lon="12.3854798"><ele>454.0</ele><time>2026-05-02T07:18:59.787Z</time></trkpt><trkpt lat="43.7125615" lon="12.3855158"><ele>454.0</ele><time>2026-05-02T07:19:00.78Z</time></trkpt><trkpt lat="43.7126835" lon="12.3855555"><ele>451.25</ele><time>2026-05-02T07:19:01.779Z</time></trkpt><trkpt lat="43.7127837" lon="12.3856266"><ele>448.5</ele><time>2026-05-02T07:19:02.767Z</time></trkpt><trkpt lat="43.7128356" lon="12.3857491"><ele>445.75</ele><time>2026-05-02T07:19:03.802Z</time></trkpt><trkpt lat="43.7128408" lon="12.3859045"><ele>443.0</ele><time>2026-05-02T07:19:04.79Z</time></trkpt><trkpt lat="43.7128029" lon="12.3860708"><ele>443.0</ele><time>2026-05-02T07:19:05.773Z</time></trkpt><trkpt lat="43.7127447" lon="12.3862067"><ele>443.0</ele><time>2026-05-02T07:19:06.772Z</time></trkpt><trkpt lat="43.7126706" lon="12.3862742"><ele>443.0</ele><time>2026-05-02T07:19:07.783Z</time></trkpt><trkpt lat="43.7125414" lon="12.3863032"><ele>443.0</ele><time>2026-05-02T07:19:08.775Z</time></trkpt><trkpt lat="43.7123945" lon="12.3862759"><ele>448.5</ele><time>2026-05-02T07:19:09.779Z</time></trkpt><trkpt lat="43.7122597" lon="12.3862422"><ele>454.0</ele><time>2026-05-02T07:19:10.784Z</time></trkpt><trkpt lat="43.7121156" lon="12.386198"><ele>459.5</ele><time>2026-05-02T07:19:11.806Z</time></trkpt><trkpt lat="43.7119757" lon="12.386184"><ele>465.0</ele><time>2026-05-02T07:19:12.788Z</time></trkpt><trkpt lat="43.7118302" lon="12.3862083"><ele>466.33333333333337</ele><time>2026-05-02T07:19:13.779Z</time></trkpt><trkpt lat="43.7116724" lon="12.3862804"><ele>467.6666666666667</ele><time>2026-05-02T07:19:14.784Z</time></trkpt><trkpt lat="43.7115097" lon="12.3863712"><ele>469.0</ele><time>2026-05-02T07:19:15.807Z</time></trkpt><trkpt lat="43.7113401" lon="12.3864575"><ele>469.6666666666667</ele><time>2026-05-02T07:19:16.783Z</time></trkpt><trkpt lat="43.7111662" lon="12.3865506"><ele>470.33333333333337</ele><time>2026-05-02T07:19:17.801Z</time></trkpt><trkpt lat="43.7109863" lon="12.3866318"><ele>471.0</ele><time>2026-05-02T07:19:18.781Z</time></trkpt><trkpt lat="43.7108043" lon="12.3867112"><ele>473.33333333333337</ele><time>2026-05-02T07:19:19.79Z</time></trkpt><trkpt lat="43.7106311" lon="12.3867806"><ele>475.6666666666667</ele><time>2026-05-02T07:19:20.787Z</time></trkpt><trkpt lat="43.7104628" lon="12.3868427"><ele>478.0</ele><time>2026-05-02T07:19:21.796Z</time></trkpt><trkpt lat="43.7103049" lon="12.3869099"><ele>480.25</ele><time>2026-05-02T07:19:22.794Z</time></trkpt><trkpt lat="43.710169" lon="12.3869885"><ele>482.5</ele><time>2026-05-02T07:19:23.792Z</time></trkpt><trkpt lat="43.7100541" lon="12.387108"><ele>484.75</ele><time>2026-05-02T07:19:24.787Z</time></trkpt><trkpt lat="43.7099595" lon="12.3872563"><ele>487.0</ele><time>2026-05-02T07:19:25.796Z</time></trkpt><trkpt lat="43.7098643" lon="12.3874171"><ele>487.0</ele><time>2026-05-02T07:19:26.784Z</time></trkpt><trkpt lat="43.7097651" lon="12.3875974"><ele>487.0</ele><time>2026-05-02T07:19:27.803Z</time></trkpt><trkpt lat="43.7096565" lon="12.3877841"><ele>487.0</ele><time>2026-05-02T07:19:28.785Z</time></trkpt><trkpt lat="43.7095346" lon="12.3879635"><ele>496.0</ele><time>2026-05-02T07:19:29.813Z</time></trkpt><trkpt lat="43.7094056" lon="12.3881555"><ele>505.0</ele><time>2026-05-02T07:19:30.784Z</time></trkpt><trkpt lat="43.7092785" lon="12.3883795"><ele>514.0</ele><time>2026-05-02T07:19:31.806Z</time></trkpt><trkpt lat="43.7091759" lon="12.3886059"><ele>514.0</ele><time>2026-05-02T07:19:32.779Z</time></trkpt><trkpt lat="43.7090966" lon="12.3888"><ele>514.0</ele><time>2026-05-02T07:19:33.796Z</time></trkpt><trkpt lat="43.7090389" lon="12.3889393"><ele>514.0</ele><time>2026-05-02T07:19:34.795Z</time></trkpt><trkpt lat="43.7089934" lon="12.3890628"><ele>514.0</ele><time>2026-05-02T07:19:35.789Z</time></trkpt><trkpt lat="43.7089734" lon="12.3891893"><ele>513.3333333333334</ele><time>2026-05-02T07:19:36.778Z</time></trkpt><trkpt lat="43.7089764" lon="12.3893185"><ele>512.6666666666667</ele><time>2026-05-02T07:19:37.782Z</time></trkpt><trkpt lat="43.7089944" lon="12.389446"><ele>512.0</ele><time>2026-05-02T07:19:38.775Z</time></trkpt><trkpt lat="43.709004" lon="12.3895694"><ele>511.33333333333337</ele><time>2026-05-02T07:19:39.772Z</time></trkpt><trkpt lat="43.7089746" lon="12.3896672"><ele>510.6666666666667</ele><time>2026-05-02T07:19:40.782Z</time></trkpt><trkpt lat="43.708916" lon="12.3897248"><ele>510.0</ele><time>2026-05-02T07:19:41.778Z</time></trkpt><trkpt lat="43.7088495" lon="12.3896988"><ele>510.0</ele><time>2026-05-02T07:19:42.779Z</time></trkpt><trkpt lat="43.7087895" lon="12.3896171"><ele>510.0</ele><time>2026-05-02T07:19:43.81Z</time></trkpt><trkpt lat="43.708748" lon="12.3894957"><ele>510.0</ele><time>2026-05-02T07:19:44.783Z</time></trkpt><trkpt lat="43.7087124" lon="12.389341"><ele>510.0</ele><time>2026-05-02T07:19:45.793Z</time></trkpt><trkpt lat="43.7086639" lon="12.3891725"><ele>510.0</ele><time>2026-05-02T07:19:46.784Z</time></trkpt><trkpt lat="43.7086028" lon="12.3890181"><ele>511.5</ele><time>2026-05-02T07:19:47.8Z</time></trkpt><trkpt lat="43.7085148" lon="12.3888738"><ele>513.0</ele><time>2026-05-02T07:19:48.783Z</time></trkpt><trkpt lat="43.7083999" lon="12.3887955"><ele>514.5</ele><time>2026-05-02T07:19:49.802Z</time></trkpt><trkpt lat="43.7082685" lon="12.3887809"><ele>516.0</ele><time>2026-05-02T07:19:50.788Z</time></trkpt><trkpt lat="43.7081232" lon="12.3888126"><ele>516.0</ele><time>2026-05-02T07:19:51.79Z</time></trkpt><trkpt lat="43.7079937" lon="12.388872"><ele>516.0</ele><time>2026-05-02T07:19:52.776Z</time></trkpt><trkpt lat="43.7078801" lon="12.3889112"><ele>516.0</ele><time>2026-05-02T07:19:53.795Z</time></trkpt><trkpt lat="43.7077604" lon="12.3888843"><ele>516.0</ele><time>2026-05-02T07:19:54.786Z</time></trkpt><trkpt lat="43.7076532" lon="12.3888062"><ele>519.6666666666666</ele><time>2026-05-02T07:19:55.796Z</time></trkpt><trkpt lat="43.7075421" lon="12.388667"><ele>523.3333333333333</ele><time>2026-05-02T07:19:56.774Z</time></trkpt><trkpt lat="43.7074351" lon="12.3885101"><ele>527.0</ele><time>2026-05-02T07:19:57.781Z</time></trkpt><trkpt lat="43.7073347" lon="12.3883544"><ele>527.0</ele><time>2026-05-02T07:19:58.789Z</time></trkpt><trkpt lat="43.7072269" lon="12.3882046"><ele>527.0</ele><time>2026-05-02T07:19:59.808Z</time></trkpt><trkpt lat="43.7071314" lon="12.3880578"><ele>527.0</ele><time>2026-05-02T07:20:00.771Z</time></trkpt><trkpt lat="43.7070689" lon="12.387903"><ele>527.0</ele><time>2026-05-02T07:20:01.812Z</time></trkpt><trkpt lat="43.7070235" lon="12.3877188"><ele>528.75</ele><time>2026-05-02T07:20:02.773Z</time></trkpt><trkpt lat="43.7069939" lon="12.3875181"><ele>530.5</ele><time>2026-05-02T07:20:03.79Z</time></trkpt><trkpt lat="43.7069701" lon="12.3873168"><ele>532.25</ele><time>2026-05-02T07:20:04.782Z</time></trkpt><trkpt lat="43.7069522" lon="12.3871213"><ele>534.0</ele><time>2026-05-02T07:20:05.795Z</time></trkpt><trkpt lat="43.7069164" lon="12.3869566"><ele>534.0</ele><time>2026-05-02T07:20:06.791Z</time></trkpt><trkpt lat="43.7068451" lon="12.3868303"><ele>534.0</ele><time>2026-05-02T07:20:07.788Z</time></trkpt><trkpt lat="43.7067337" lon="12.3867351"><ele>534.0</ele><time>2026-05-02T07:20:08.788Z</time></trkpt><trkpt lat="43.7065979" lon="12.3866468"><ele>534.0</ele><time>2026-05-02T07:20:09.802Z</time></trkpt><trkpt lat="43.7064594" lon="12.3865525"><ele>534.0</ele><time>2026-05-02T07:20:10.782Z</time></trkpt><trkpt lat="43.7063177" lon="12.3864956"><ele>534.0</ele><time>2026-05-02T07:20:11.804Z</time></trkpt><trkpt lat="43.7061798" lon="12.3864214"><ele>534.0</ele><time>2026-05-02T07:20:12.77Z</time></trkpt><trkpt lat="43.7060296" lon="12.3863627"><ele>537.3333333333334</ele><time>2026-05-02T07:20:13.781Z</time></trkpt><trkpt lat="43.7058814" lon="12.3863158"><ele>540.6666666666667</ele><time>2026-05-02T07:20:14.777Z</time></trkpt><trkpt lat="43.7057259" lon="12.3862986"><ele>544.0</ele><time>2026-05-02T07:20:15.774Z</time></trkpt><trkpt lat="43.7055707" lon="12.3862966"><ele>544.0</ele><time>2026-05-02T07:20:16.775Z</time></trkpt><trkpt lat="43.7054099" lon="12.3863079"><ele>544.0</ele><time>2026-05-02T07:20:17.775Z</time></trkpt><trkpt lat="43.7052516" lon="12.3863441"><ele>544.0</ele><time>2026-05-02T07:20:18.786Z</time></trkpt><trkpt lat="43.7050917" lon="12.3863954"><ele>535.3333333333334</ele><time>2026-05-02T07:20:19.785Z</time></trkpt><trkpt lat="43.7049346" lon="12.3864551"><ele>526.6666666666666</ele><time>2026-05-02T07:20:20.789Z</time></trkpt><trkpt lat="43.704774" lon="12.3865163"><ele>518.0</ele><time>2026-05-02T07:20:21.794Z</time></trkpt><trkpt lat="43.7046166" lon="12.3865878"><ele>518.0</ele><time>2026-05-02T07:20:22.78Z</time></trkpt><trkpt lat="43.7044687" lon="12.3866654"><ele>518.0</ele><time>2026-05-02T07:20:23.797Z</time></trkpt><trkpt lat="43.7043337" lon="12.3867811"><ele>518.0</ele><time>2026-05-02T07:20:24.774Z</time></trkpt><trkpt lat="43.7042064" lon="12.3869007"><ele>517.3333333333333</ele><time>2026-05-02T07:20:25.789Z</time></trkpt><trkpt lat="43.7040893" lon="12.3870503"><ele>516.6666666666666</ele><time>2026-05-02T07:20:26.78Z</time></trkpt><trkpt lat="43.7039692" lon="12.3872147"><ele>516.0</ele><time>2026-05-02T07:20:27.821Z</time></trkpt><trkpt lat="43.7038478" lon="12.3873728"><ele>514.3333333333334</ele><time>2026-05-02T07:20:28.768Z</time></trkpt><trkpt lat="43.7037151" lon="12.3875172"><ele>512.6666666666667</ele><time>2026-05-02T07:20:29.805Z</time></trkpt><trkpt lat="43.703576" lon="12.3876392"><ele>511.0</ele><time>2026-05-02T07:20:30.783Z</time></trkpt><trkpt lat="43.7034262" lon="12.387735"><ele>511.33333333333337</ele><time>2026-05-02T07:20:31.794Z</time></trkpt><trkpt lat="43.7032761" lon="12.3878318"><ele>511.66666666666663</ele><time>2026-05-02T07:20:32.774Z</time></trkpt><trkpt lat="43.7031345" lon="12.3879459"><ele>512.0</ele><time>2026-05-02T07:20:33.768Z</time></trkpt><trkpt lat="43.702996" lon="12.3880741"><ele>512.0</ele><time>2026-05-02T07:20:34.786Z</time></trkpt><trkpt lat="43.7028653" lon="12.3882126"><ele>512.0</ele><time>2026-05-02T07:20:35.789Z</time></trkpt><trkpt lat="43.702724" lon="12.3883495"><ele>512.0</ele><time>2026-05-02T07:20:36.792Z</time></trkpt><trkpt lat="43.702584" lon="12.3884849"><ele>514.3333333333333</ele><time>2026-05-02T07:20:37.775Z</time></trkpt><trkpt lat="43.702443" lon="12.3886258"><ele>516.6666666666666</ele><time>2026-05-02T07:20:38.775Z</time></trkpt><trkpt lat="43.7023003" lon="12.3887566"><ele>519.0</ele><time>2026-05-02T07:20:39.799Z</time></trkpt><trkpt lat="43.7021657" lon="12.3888737"><ele>515.6666666666666</ele><time>2026-05-02T07:20:40.772Z</time></trkpt><trkpt lat="43.7020255" lon="12.3889634"><ele>512.3333333333333</ele><time>2026-05-02T07:20:41.794Z</time></trkpt><trkpt lat="43.7018776" lon="12.3890272"><ele>509.0</ele><time>2026-05-02T07:20:42.788Z</time></trkpt><trkpt lat="43.701713" lon="12.3890494"><ele>509.0</ele><time>2026-05-02T07:20:43.789Z</time></trkpt><trkpt lat="43.7015298" lon="12.3890321"><ele>509.0</ele><time>2026-05-02T07:20:44.784Z</time></trkpt><trkpt lat="43.7013639" lon="12.3890251"><ele>509.0</ele><time>2026-05-02T07:20:45.8Z</time></trkpt><trkpt lat="43.7012054" lon="12.3890528"><ele>509.0</ele><time>2026-05-02T07:20:46.784Z</time></trkpt><trkpt lat="43.7010447" lon="12.3891234"><ele>509.0</ele><time>2026-05-02T07:20:47.784Z</time></trkpt><trkpt lat="43.7009015" lon="12.3892529"><ele>509.0</ele><time>2026-05-02T07:20:48.777Z</time></trkpt><trkpt lat="43.7007522" lon="12.3894085"><ele>509.0</ele><time>2026-05-02T07:20:49.793Z</time></trkpt><trkpt lat="43.7006143" lon="12.3895836"><ele>509.0</ele><time>2026-05-02T07:20:50.787Z</time></trkpt><trkpt lat="43.7004867" lon="12.3897805"><ele>509.0</ele><time>2026-05-02T07:20:51.793Z</time></trkpt><trkpt lat="43.700379" lon="12.3899959"><ele>508.0</ele><time>2026-05-02T07:20:52.801Z</time></trkpt><trkpt lat="43.7002995" lon="12.3902122"><ele>507.0</ele><time>2026-05-02T07:20:53.802Z</time></trkpt><trkpt lat="43.7002707" lon="12.3904347"><ele>506.0</ele><time>2026-05-02T07:20:54.781Z</time></trkpt><trkpt lat="43.7002659" lon="12.3906701"><ele>506.0</ele><time>2026-05-02T07:20:55.813Z</time></trkpt><trkpt lat="43.7002715" lon="12.3909009"><ele>506.0</ele><time>2026-05-02T07:20:56.777Z</time></trkpt><trkpt lat="43.700287" lon="12.3911003"><ele>506.0</ele><time>2026-05-02T07:20:57.795Z</time></trkpt><trkpt lat="43.7003303" lon="12.3912952"><ele>508.66666666666663</ele><time>2026-05-02T07:20:58.798Z</time></trkpt><trkpt lat="43.7004112" lon="12.3914668"><ele>511.33333333333337</ele><time>2026-05-02T07:20:59.791Z</time></trkpt><trkpt lat="43.7005331" lon="12.3916136"><ele>514.0</ele><time>2026-05-02T07:21:00.779Z</time></trkpt><trkpt lat="43.7006752" lon="12.3917393"><ele>514.0</ele><time>2026-05-02T07:21:01.793Z</time></trkpt><trkpt lat="43.7008028" lon="12.3918678"><ele>514.0</ele><time>2026-05-02T07:21:02.789Z</time></trkpt><trkpt lat="43.7009126" lon="12.3919979"><ele>514.0</ele><time>2026-05-02T07:21:03.787Z</time></trkpt><trkpt lat="43.7009996" lon="12.3921323"><ele>514.0</ele><time>2026-05-02T07:21:04.777Z</time></trkpt><trkpt lat="43.7010649" lon="12.3922786"><ele>512.6</ele><time>2026-05-02T07:21:05.802Z</time></trkpt><trkpt lat="43.7011178" lon="12.392415"><ele>511.2</ele><time>2026-05-02T07:21:06.777Z</time></trkpt><trkpt lat="43.7011511" lon="12.3925511"><ele>509.80000000000007</ele><time>2026-05-02T07:21:07.776Z</time></trkpt><trkpt lat="43.7011821" lon="12.3926919"><ele>508.40000000000003</ele><time>2026-05-02T07:21:08.778Z</time></trkpt><trkpt lat="43.7011922" lon="12.392836"><ele>507.0</ele><time>2026-05-02T07:21:09.781Z</time></trkpt><trkpt lat="43.7011954" lon="12.3929841"><ele>508.75</ele><time>2026-05-02T07:21:10.774Z</time></trkpt><trkpt lat="43.7011965" lon="12.3931431"><ele>510.5</ele><time>2026-05-02T07:21:11.785Z</time></trkpt><trkpt lat="43.7011918" lon="12.3933126"><ele>512.25</ele><time>2026-05-02T07:21:12.773Z</time></trkpt><trkpt lat="43.7011873" lon="12.393486"><ele>514.0</ele><time>2026-05-02T07:21:13.784Z</time></trkpt><trkpt lat="43.7011747" lon="12.3936556"><ele>514.0</ele><time>2026-05-02T07:21:14.776Z</time></trkpt><trkpt lat="43.7011504" lon="12.3938341"><ele>514.0</ele><time>2026-05-02T07:21:15.777Z</time></trkpt><trkpt lat="43.7011154" lon="12.3940052"><ele>514.0</ele><time>2026-05-02T07:21:16.778Z</time></trkpt><trkpt lat="43.7010826" lon="12.3941625"><ele>514.0</ele><time>2026-05-02T07:21:17.775Z</time></trkpt><trkpt lat="43.7010366" lon="12.3943257"><ele>515.25</ele><time>2026-05-02T07:21:18.769Z</time></trkpt><trkpt lat="43.7009734" lon="12.394497"><ele>516.5</ele><time>2026-05-02T07:21:19.787Z</time></trkpt><trkpt lat="43.7009058" lon="12.3946712"><ele>517.75</ele><time>2026-05-02T07:21:20.78Z</time></trkpt><trkpt lat="43.7008197" lon="12.394808"><ele>519.0</ele><time>2026-05-02T07:21:21.797Z</time></trkpt><trkpt lat="43.7007204" lon="12.3948938"><ele>519.0</ele><time>2026-05-02T07:21:22.77Z</time></trkpt><trkpt lat="43.7006233" lon="12.39493"><ele>519.0</ele><time>2026-05-02T07:21:23.778Z</time></trkpt><trkpt lat="43.7005107" lon="12.3949262"><ele>519.0</ele><time>2026-05-02T07:21:24.772Z</time></trkpt><trkpt lat="43.7003982" lon="12.3948795"><ele>519.0</ele><time>2026-05-02T07:21:25.784Z</time></trkpt><trkpt lat="43.700279" lon="12.3948126"><ele>520.5</ele><time>2026-05-02T07:21:26.773Z</time></trkpt><trkpt lat="43.7001609" lon="12.3947402"><ele>522.0</ele><time>2026-05-02T07:21:27.785Z</time></trkpt><trkpt lat="43.7000474" lon="12.3946622"><ele>523.5</ele><time>2026-05-02T07:21:28.776Z</time></trkpt><trkpt lat="43.6999383" lon="12.3945752"><ele>525.0</ele><time>2026-05-02T07:21:29.777Z</time></trkpt><trkpt lat="43.6998312" lon="12.3944759"><ele>531.25</ele><time>2026-05-02T07:21:30.773Z</time></trkpt><trkpt lat="43.6997394" lon="12.394342"><ele>537.5</ele><time>2026-05-02T07:21:31.775Z</time></trkpt><trkpt lat="43.6996481" lon="12.39421"><ele>543.75</ele><time>2026-05-02T07:21:32.783Z</time></trkpt><trkpt lat="43.6995538" lon="12.3940997"><ele>550.0</ele><time>2026-05-02T07:21:33.796Z</time></trkpt><trkpt lat="43.6994481" lon="12.3940238"><ele>552.0</ele><time>2026-05-02T07:21:34.783Z</time></trkpt><trkpt lat="43.6993368" lon="12.3939674"><ele>554.0</ele><time>2026-05-02T07:21:35.781Z</time></trkpt><trkpt lat="43.699215" lon="12.3939085"><ele>556.0</ele><time>2026-05-02T07:21:36.77Z</time></trkpt><trkpt lat="43.6990889" lon="12.3938584"><ele>558.0</ele><time>2026-05-02T07:21:37.774Z</time></trkpt><trkpt lat="43.6989662" lon="12.3938262"><ele>558.0</ele><time>2026-05-02T07:21:38.776Z</time></trkpt><trkpt lat="43.6988557" lon="12.3938021"><ele>558.0</ele><time>2026-05-02T07:21:39.785Z</time></trkpt><trkpt lat="43.69876" lon="12.3937951"><ele>558.0</ele><time>2026-05-02T07:21:40.77Z</time></trkpt><trkpt lat="43.6986785" lon="12.3937988"><ele>558.0</ele><time>2026-05-02T07:21:41.781Z</time></trkpt><trkpt lat="43.6986143" lon="12.393813"><ele>558.0</ele><time>2026-05-02T07:21:42.776Z</time></trkpt><trkpt lat="43.6985517" lon="12.3938239"><ele>558.0</ele><time>2026-05-02T07:21:43.787Z</time></trkpt><trkpt lat="43.6984672" lon="12.3938446"><ele>555.8</ele><time>2026-05-02T07:21:45.78Z</time></trkpt><trkpt lat="43.6983804" lon="12.3938241"><ele>553.5999999999999</ele><time>2026-05-02T07:21:47.778Z</time></trkpt><trkpt lat="43.6982945" lon="12.3936978"><ele>551.4000000000001</ele><time>2026-05-02T07:21:49.78Z</time></trkpt><trkpt lat="43.6982541" lon="12.3936077"><ele>549.2</ele><time>2026-05-02T07:21:50.778Z</time></trkpt><trkpt lat="43.6982111" lon="12.3935197"><ele>547.0</ele><time>2026-05-02T07:21:51.774Z</time></trkpt><trkpt lat="43.6981544" lon="12.3934183"><ele>547.0</ele><time>2026-05-02T07:21:52.773Z</time></trkpt><trkpt lat="43.6980944" lon="12.3933141"><ele>547.0</ele><time>2026-05-02T07:21:53.803Z</time></trkpt><trkpt lat="43.6980296" lon="12.3931997"><ele>547.0</ele><time>2026-05-02T07:21:54.782Z</time></trkpt><trkpt lat="43.6979593" lon="12.3930874"><ele>547.0</ele><time>2026-05-02T07:21:55.815Z</time></trkpt><trkpt lat="43.6978819" lon="12.3929801"><ele>547.0</ele><time>2026-05-02T07:21:56.782Z</time></trkpt><trkpt lat="43.6978017" lon="12.3928811"><ele>548.0</ele><time>2026-05-02T07:21:57.805Z</time></trkpt><trkpt lat="43.697722" lon="12.3927878"><ele>549.0</ele><time>2026-05-02T07:21:58.779Z</time></trkpt><trkpt lat="43.6976558" lon="12.3927001"><ele>550.0</ele><time>2026-05-02T07:21:59.804Z</time></trkpt><trkpt lat="43.6976174" lon="12.3926196"><ele>551.0</ele><time>2026-05-02T07:22:00.789Z</time></trkpt><trkpt lat="43.6976084" lon="12.3924505"><ele>552.0</ele><time>2026-05-02T07:22:02.785Z</time></trkpt><trkpt lat="43.6976574" lon="12.3922932"><ele>552.0</ele><time>2026-05-02T07:22:04.788Z</time></trkpt><trkpt lat="43.6976827" lon="12.3922014"><ele>552.0</ele><time>2026-05-02T07:22:05.8Z</time></trkpt><trkpt lat="43.6977013" lon="12.3921058"><ele>552.0</ele><time>2026-05-02T07:22:06.776Z</time></trkpt><trkpt lat="43.697711" lon="12.3920019"><ele>552.0</ele><time>2026-05-02T07:22:07.793Z</time></trkpt><trkpt lat="43.6977157" lon="12.391889"><ele>552.0</ele><time>2026-05-02T07:22:08.775Z</time></trkpt><trkpt lat="43.6977193" lon="12.3917721"><ele>552.0</ele><time>2026-05-02T07:22:09.785Z</time></trkpt><trkpt lat="43.6977182" lon="12.3916425"><ele>554.0</ele><time>2026-05-02T07:22:10.784Z</time></trkpt><trkpt lat="43.6976984" lon="12.3914946"><ele>556.0</ele><time>2026-05-02T07:22:11.783Z</time></trkpt><trkpt lat="43.6976623" lon="12.3913437"><ele>558.0</ele><time>2026-05-02T07:22:12.78Z</time></trkpt><trkpt lat="43.6976273" lon="12.3911952"><ele>560.0</ele><time>2026-05-02T07:22:13.774Z</time></trkpt><trkpt lat="43.6975981" lon="12.3910525"><ele>562.0</ele><time>2026-05-02T07:22:14.783Z</time></trkpt><trkpt lat="43.6975922" lon="12.3909318"><ele>563.6</ele><time>2026-05-02T07:22:15.8Z</time></trkpt><trkpt lat="43.697609" lon="12.3908245"><ele>565.2</ele><time>2026-05-02T07:22:16.781Z</time></trkpt><trkpt lat="43.6976558" lon="12.3907271"><ele>566.8</ele><time>2026-05-02T07:22:17.797Z</time></trkpt><trkpt lat="43.6977228" lon="12.3906356"><ele>568.4</ele><time>2026-05-02T07:22:18.778Z</time></trkpt><trkpt lat="43.69779" lon="12.3905321"><ele>570.0</ele><time>2026-05-02T07:22:19.796Z</time></trkpt><trkpt lat="43.6978364" lon="12.3904098"><ele>570.5</ele><time>2026-05-02T07:22:20.77Z</time></trkpt><trkpt lat="43.6978561" lon="12.3902713"><ele>571.0</ele><time>2026-05-02T07:22:21.783Z</time></trkpt><trkpt lat="43.6978387" lon="12.3901046"><ele>571.5</ele><time>2026-05-02T07:22:22.769Z</time></trkpt><trkpt lat="43.6977905" lon="12.3899389"><ele>572.0</ele><time>2026-05-02T07:22:23.789Z</time></trkpt><trkpt lat="43.6977382" lon="12.3898019"><ele>572.75</ele><time>2026-05-02T07:22:24.782Z</time></trkpt><trkpt lat="43.6976751" lon="12.3896707"><ele>573.5</ele><time>2026-05-02T07:22:25.791Z</time></trkpt><trkpt lat="43.6976159" lon="12.3895275"><ele>574.25</ele><time>2026-05-02T07:22:26.779Z</time></trkpt><trkpt lat="43.6975511" lon="12.3893845"><ele>575.0</ele><time>2026-05-02T07:22:27.812Z</time></trkpt><trkpt lat="43.6974865" lon="12.389244"><ele>575.0</ele><time>2026-05-02T07:22:28.782Z</time></trkpt><trkpt lat="43.6974239" lon="12.3891078"><ele>575.0</ele><time>2026-05-02T07:22:29.804Z</time></trkpt><trkpt lat="43.6973803" lon="12.3889942"><ele>575.0</ele><time>2026-05-02T07:22:30.788Z</time></trkpt><trkpt lat="43.6973398" lon="12.38889"><ele>575.0</ele><time>2026-05-02T07:22:31.789Z</time></trkpt><trkpt lat="43.6972961" lon="12.3887878"><ele>575.0</ele><time>2026-05-02T07:22:32.8Z</time></trkpt><trkpt lat="43.6972548" lon="12.388667"><ele>572.0</ele><time>2026-05-02T07:22:33.782Z</time></trkpt><trkpt lat="43.6972202" lon="12.388523"><ele>569.0</ele><time>2026-05-02T07:22:34.793Z</time></trkpt><trkpt lat="43.6971845" lon="12.3883596"><ele>566.0</ele><time>2026-05-02T07:22:35.782Z</time></trkpt><trkpt lat="43.6971395" lon="12.3881812"><ele>563.0</ele><time>2026-05-02T07:22:36.788Z</time></trkpt><trkpt lat="43.6970895" lon="12.3879822"><ele>556.6666666666666</ele><time>2026-05-02T07:22:37.797Z</time></trkpt><trkpt lat="43.6970424" lon="12.3877658"><ele>550.3333333333334</ele><time>2026-05-02T07:22:38.789Z</time></trkpt><trkpt lat="43.6969892" lon="12.3875315"><ele>544.0</ele><time>2026-05-02T07:22:39.794Z</time></trkpt><trkpt lat="43.696939" lon="12.387297"><ele>550.3333333333334</ele><time>2026-05-02T07:22:40.792Z</time></trkpt><trkpt lat="43.6969013" lon="12.3870858"><ele>556.6666666666666</ele><time>2026-05-02T07:22:41.78Z</time></trkpt><trkpt lat="43.6968629" lon="12.3868885"><ele>563.0</ele><time>2026-05-02T07:22:42.784Z</time></trkpt><trkpt lat="43.6968186" lon="12.3866949"><ele>563.0</ele><time>2026-05-02T07:22:43.806Z</time></trkpt><trkpt lat="43.6967585" lon="12.3865131"><ele>563.0</ele><time>2026-05-02T07:22:44.79Z</time></trkpt><trkpt lat="43.6966858" lon="12.386335"><ele>563.0</ele><time>2026-05-02T07:22:45.788Z</time></trkpt><trkpt lat="43.6966149" lon="12.3861608"><ele>563.0</ele><time>2026-05-02T07:22:46.782Z</time></trkpt><trkpt lat="43.6965445" lon="12.3859726"><ele>561.5</ele><time>2026-05-02T07:22:47.794Z</time></trkpt><trkpt lat="43.6964864" lon="12.3857848"><ele>560.0</ele><time>2026-05-02T07:22:48.783Z</time></trkpt><trkpt lat="43.6964399" lon="12.3856228"><ele>558.5</ele><time>2026-05-02T07:22:49.788Z</time></trkpt><trkpt lat="43.696408" lon="12.3854795"><ele>557.0</ele><time>2026-05-02T07:22:50.778Z</time></trkpt><trkpt lat="43.6963675" lon="12.3853627"><ele>557.0</ele><time>2026-05-02T07:22:51.794Z</time></trkpt><trkpt lat="43.6963128" lon="12.3852727"><ele>557.0</ele><time>2026-05-02T07:22:52.789Z</time></trkpt><trkpt lat="43.6962447" lon="12.3852179"><ele>557.0</ele><time>2026-05-02T07:22:53.81Z</time></trkpt><trkpt lat="43.6961584" lon="12.385178"><ele>557.0</ele><time>2026-05-02T07:22:54.779Z</time></trkpt><trkpt lat="43.6960501" lon="12.3851369"><ele>557.0</ele><time>2026-05-02T07:22:55.786Z</time></trkpt><trkpt lat="43.6959217" lon="12.3850749"><ele>557.0</ele><time>2026-05-02T07:22:56.785Z</time></trkpt><trkpt lat="43.695781" lon="12.3850165"><ele>557.0</ele><time>2026-05-02T07:22:57.8Z</time></trkpt><trkpt lat="43.6956377" lon="12.3849613"><ele>557.0</ele><time>2026-05-02T07:22:58.794Z</time></trkpt><trkpt lat="43.6954978" lon="12.3849018"><ele>557.0</ele><time>2026-05-02T07:22:59.786Z</time></trkpt><trkpt lat="43.6953672" lon="12.3848262"><ele>556.5</ele><time>2026-05-02T07:23:00.789Z</time></trkpt><trkpt lat="43.6952425" lon="12.3847633"><ele>556.0</ele><time>2026-05-02T07:23:01.799Z</time></trkpt><trkpt lat="43.6951287" lon="12.3847133"><ele>555.5</ele><time>2026-05-02T07:23:02.776Z</time></trkpt><trkpt lat="43.6950233" lon="12.3846665"><ele>555.0</ele><time>2026-05-02T07:23:03.815Z</time></trkpt><trkpt lat="43.6949223" lon="12.3846108"><ele>555.0</ele><time>2026-05-02T07:23:04.782Z</time></trkpt><trkpt lat="43.6948157" lon="12.3845588"><ele>555.0</ele><time>2026-05-02T07:23:05.789Z</time></trkpt><trkpt lat="43.6947028" lon="12.3845136"><ele>555.0</ele><time>2026-05-02T07:23:06.776Z</time></trkpt><trkpt lat="43.6945836" lon="12.384458"><ele>555.0</ele><time>2026-05-02T07:23:07.794Z</time></trkpt><trkpt lat="43.6944619" lon="12.3844011"><ele>556.0</ele><time>2026-05-02T07:23:08.797Z</time></trkpt><trkpt lat="43.6943328" lon="12.3843384"><ele>557.0</ele><time>2026-05-02T07:23:09.78Z</time></trkpt><trkpt lat="43.6941984" lon="12.3842613"><ele>558.0</ele><time>2026-05-02T07:23:10.786Z</time></trkpt><trkpt lat="43.6940581" lon="12.3841762"><ele>559.0</ele><time>2026-05-02T07:23:11.782Z</time></trkpt><trkpt lat="43.6939342" lon="12.3840828"><ele>559.0</ele><time>2026-05-02T07:23:12.78Z</time></trkpt><trkpt lat="43.6938227" lon="12.3839968"><ele>559.0</ele><time>2026-05-02T07:23:13.801Z</time></trkpt><trkpt lat="43.6937231" lon="12.3839075"><ele>559.0</ele><time>2026-05-02T07:23:14.785Z</time></trkpt><trkpt lat="43.693631" lon="12.383796"><ele>559.0</ele><time>2026-05-02T07:23:15.788Z</time></trkpt><trkpt lat="43.6935422" lon="12.3836605"><ele>561.75</ele><time>2026-05-02T07:23:16.779Z</time></trkpt><trkpt lat="43.6934602" lon="12.3835226"><ele>564.5</ele><time>2026-05-02T07:23:17.793Z</time></trkpt><trkpt lat="43.6933739" lon="12.3834003"><ele>567.25</ele><time>2026-05-02T07:23:18.773Z</time></trkpt><trkpt lat="43.6932841" lon="12.3833009"><ele>570.0</ele><time>2026-05-02T07:23:19.797Z</time></trkpt><trkpt lat="43.6931754" lon="12.3832331"><ele>570.0</ele><time>2026-05-02T07:23:20.791Z</time></trkpt><trkpt lat="43.6930479" lon="12.383188"><ele>570.0</ele><time>2026-05-02T07:23:21.793Z</time></trkpt><trkpt lat="43.6929124" lon="12.3831499"><ele>570.0</ele><time>2026-05-02T07:23:22.785Z</time></trkpt><trkpt lat="43.6927781" lon="12.3831134"><ele>570.0</ele><time>2026-05-02T07:23:23.793Z</time></trkpt><trkpt lat="43.6926535" lon="12.3830653"><ele>571.8</ele><time>2026-05-02T07:23:24.782Z</time></trkpt><trkpt lat="43.6925593" lon="12.3830096"><ele>573.6</ele><time>2026-05-02T07:23:25.791Z</time></trkpt><trkpt lat="43.6924872" lon="12.3829693"><ele>575.4</ele><time>2026-05-02T07:23:26.789Z</time></trkpt><trkpt lat="43.6924319" lon="12.3829193"><ele>577.2</ele><time>2026-05-02T07:23:27.806Z</time></trkpt><trkpt lat="43.6923274" lon="12.3827999"><ele>579.0</ele><time>2026-05-02T07:23:29.803Z</time></trkpt><trkpt lat="43.6922463" lon="12.382706"><ele>579.0</ele><time>2026-05-02T07:23:30.783Z</time></trkpt><trkpt lat="43.6921622" lon="12.3826029"><ele>579.0</ele><time>2026-05-02T07:23:31.808Z</time></trkpt><trkpt lat="43.6920814" lon="12.3824876"><ele>579.0</ele><time>2026-05-02T07:23:32.775Z</time></trkpt><trkpt lat="43.6920139" lon="12.3823657"><ele>579.0</ele><time>2026-05-02T07:23:33.796Z</time></trkpt><trkpt lat="43.6919617" lon="12.3822286"><ele>577.0</ele><time>2026-05-02T07:23:34.792Z</time></trkpt><trkpt lat="43.6919262" lon="12.3820856"><ele>575.0</ele><time>2026-05-02T07:23:35.78Z</time></trkpt><trkpt lat="43.6918949" lon="12.3819431"><ele>573.0</ele><time>2026-05-02T07:23:36.772Z</time></trkpt><trkpt lat="43.6918669" lon="12.3818054"><ele>571.0</ele><time>2026-05-02T07:23:37.788Z</time></trkpt><trkpt lat="43.6918429" lon="12.3816762"><ele>569.0</ele><time>2026-05-02T07:23:38.794Z</time></trkpt><trkpt lat="43.6918036" lon="12.3815387"><ele>569.0</ele><time>2026-05-02T07:23:39.795Z</time></trkpt><trkpt lat="43.6917601" lon="12.3813967"><ele>569.0</ele><time>2026-05-02T07:23:40.777Z</time></trkpt><trkpt lat="43.6917132" lon="12.3812552"><ele>569.0</ele><time>2026-05-02T07:23:41.786Z</time></trkpt><trkpt lat="43.6916583" lon="12.3811049"><ele>569.0</ele><time>2026-05-02T07:23:42.782Z</time></trkpt><trkpt lat="43.6916011" lon="12.3809421"><ele>564.3333333333333</ele><time>2026-05-02T07:23:43.788Z</time></trkpt><trkpt lat="43.6915337" lon="12.3807641"><ele>559.6666666666666</ele><time>2026-05-02T07:23:44.782Z</time></trkpt><trkpt lat="43.6914572" lon="12.38058"><ele>555.0</ele><time>2026-05-02T07:23:45.816Z</time></trkpt><trkpt lat="43.6913788" lon="12.3803888"><ele>549.6666666666666</ele><time>2026-05-02T07:23:46.779Z</time></trkpt><trkpt lat="43.6912975" lon="12.3801965"><ele>544.3333333333333</ele><time>2026-05-02T07:23:47.809Z</time></trkpt><trkpt lat="43.6912146" lon="12.3799998"><ele>539.0</ele><time>2026-05-02T07:23:48.782Z</time></trkpt><trkpt lat="43.6911362" lon="12.3798091"><ele>542.5</ele><time>2026-05-02T07:23:49.803Z</time></trkpt><trkpt lat="43.6910647" lon="12.3796296"><ele>546.0</ele><time>2026-05-02T07:23:50.774Z</time></trkpt><trkpt lat="43.691002" lon="12.3794534"><ele>549.5</ele><time>2026-05-02T07:23:51.79Z</time></trkpt><trkpt lat="43.6909409" lon="12.3792756"><ele>553.0</ele><time>2026-05-02T07:23:52.777Z</time></trkpt><trkpt lat="43.6908766" lon="12.3790988"><ele>553.0</ele><time>2026-05-02T07:23:53.802Z</time></trkpt><trkpt lat="43.6908112" lon="12.3789292"><ele>553.0</ele><time>2026-05-02T07:23:54.779Z</time></trkpt><trkpt lat="43.6907514" lon="12.3787567"><ele>553.0</ele><time>2026-05-02T07:23:55.792Z</time></trkpt><trkpt lat="43.6906875" lon="12.3785814"><ele>553.0</ele><time>2026-05-02T07:23:56.778Z</time></trkpt><trkpt lat="43.6906193" lon="12.3783996"><ele>556.0</ele><time>2026-05-02T07:23:57.796Z</time></trkpt><trkpt lat="43.6905596" lon="12.3782271"><ele>559.0</ele><time>2026-05-02T07:23:58.788Z</time></trkpt><trkpt lat="43.6905062" lon="12.378069"><ele>562.0</ele><time>2026-05-02T07:23:59.799Z</time></trkpt><trkpt lat="43.6904594" lon="12.3779195"><ele>565.0</ele><time>2026-05-02T07:24:00.777Z</time></trkpt><trkpt lat="43.6904123" lon="12.3777766"><ele>566.2</ele><time>2026-05-02T07:24:01.79Z</time></trkpt><trkpt lat="43.6903653" lon="12.3776412"><ele>567.4</ele><time>2026-05-02T07:24:02.794Z</time></trkpt><trkpt lat="43.6903084" lon="12.3775131"><ele>568.6</ele><time>2026-05-02T07:24:03.807Z</time></trkpt><trkpt lat="43.6902516" lon="12.3773931"><ele>569.8</ele><time>2026-05-02T07:24:04.784Z</time></trkpt><trkpt lat="43.6901903" lon="12.3772812"><ele>571.0</ele><time>2026-05-02T07:24:05.798Z</time></trkpt><trkpt lat="43.6901243" lon="12.3771781"><ele>571.6</ele><time>2026-05-02T07:24:06.789Z</time></trkpt><trkpt lat="43.6900564" lon="12.3770729"><ele>572.2</ele><time>2026-05-02T07:24:07.8Z</time></trkpt><trkpt lat="43.6899923" lon="12.3769609"><ele>572.8</ele><time>2026-05-02T07:24:08.784Z</time></trkpt><trkpt lat="43.6899294" lon="12.3768522"><ele>573.4</ele><time>2026-05-02T07:24:09.788Z</time></trkpt><trkpt lat="43.6898746" lon="12.3767295"><ele>574.0</ele><time>2026-05-02T07:24:10.787Z</time></trkpt><trkpt lat="43.6898278" lon="12.3766026"><ele>574.0</ele><time>2026-05-02T07:24:11.781Z</time></trkpt><trkpt lat="43.6897846" lon="12.3764809"><ele>574.0</ele><time>2026-05-02T07:24:12.774Z</time></trkpt><trkpt lat="43.6897498" lon="12.3763545"><ele>574.0</ele><time>2026-05-02T07:24:13.774Z</time></trkpt><trkpt lat="43.6897267" lon="12.3762279"><ele>574.0</ele><time>2026-05-02T07:24:14.779Z</time></trkpt><trkpt lat="43.6897077" lon="12.3760956"><ele>574.0</ele><time>2026-05-02T07:24:15.787Z</time></trkpt><trkpt lat="43.6896883" lon="12.3759526"><ele>572.4</ele><time>2026-05-02T07:24:16.78Z</time></trkpt><trkpt lat="43.6896561" lon="12.3758054"><ele>570.8</ele><time>2026-05-02T07:24:17.778Z</time></trkpt><trkpt lat="43.6896212" lon="12.3756569"><ele>569.2</ele><time>2026-05-02T07:24:18.781Z</time></trkpt><trkpt lat="43.6895713" lon="12.375528"><ele>567.6</ele><time>2026-05-02T07:24:19.785Z</time></trkpt><trkpt lat="43.6895315" lon="12.3754071"><ele>566.0</ele><time>2026-05-02T07:24:20.779Z</time></trkpt><trkpt lat="43.6895004" lon="12.3752822"><ele>566.3333333333333</ele><time>2026-05-02T07:24:21.778Z</time></trkpt><trkpt lat="43.6894767" lon="12.3751629"><ele>566.6666666666666</ele><time>2026-05-02T07:24:22.778Z</time></trkpt><trkpt lat="43.6894517" lon="12.3750462"><ele>567.0</ele><time>2026-05-02T07:24:23.783Z</time></trkpt><trkpt lat="43.689429" lon="12.3749307"><ele>567.3333333333334</ele><time>2026-05-02T07:24:24.784Z</time></trkpt><trkpt lat="43.6894068" lon="12.3748232"><ele>567.6666666666667</ele><time>2026-05-02T07:24:25.781Z</time></trkpt><trkpt lat="43.6893788" lon="12.374724"><ele>568.0</ele><time>2026-05-02T07:24:26.781Z</time></trkpt><trkpt lat="43.6893477" lon="12.3746318"><ele>568.0</ele><time>2026-05-02T07:24:27.785Z</time></trkpt><trkpt lat="43.6893239" lon="12.3745333"><ele>568.0</ele><time>2026-05-02T07:24:28.772Z</time></trkpt><trkpt lat="43.689296" lon="12.374429"><ele>568.0</ele><time>2026-05-02T07:24:29.783Z</time></trkpt><trkpt lat="43.6892657" lon="12.3743299"><ele>568.0</ele><time>2026-05-02T07:24:30.779Z</time></trkpt><trkpt lat="43.6892507" lon="12.374245"><ele>568.0</ele><time>2026-05-02T07:24:31.784Z</time></trkpt><trkpt lat="43.6892311" lon="12.3741072"><ele>568.0</ele><time>2026-05-02T07:24:33.777Z</time></trkpt><trkpt lat="43.6891911" lon="12.3740066"><ele>568.0</ele><time>2026-05-02T07:25:02.769Z</time></trkpt><trkpt lat="43.6891804" lon="12.3738878"><ele>568.0</ele><time>2026-05-02T07:25:04.785Z</time></trkpt><trkpt lat="43.6892255" lon="12.3737913"><ele>568.0</ele><time>2026-05-02T07:25:07.796Z</time></trkpt><trkpt lat="43.689235" lon="12.3736507"><ele>568.0</ele><time>2026-05-02T07:25:10.78Z</time></trkpt><trkpt lat="43.6891982" lon="12.3734558"><ele>568.0</ele><time>2026-05-02T07:25:12.78Z</time></trkpt><trkpt lat="43.6891757" lon="12.3733388"><ele>568.8</ele><time>2026-05-02T07:25:13.78Z</time></trkpt><trkpt lat="43.6891411" lon="12.3732215"><ele>569.5999999999999</ele><time>2026-05-02T07:25:14.791Z</time></trkpt><trkpt lat="43.6890866" lon="12.3730987"><ele>570.4000000000001</ele><time>2026-05-02T07:25:15.784Z</time></trkpt><trkpt lat="43.6890198" lon="12.3729584"><ele>571.2</ele><time>2026-05-02T07:25:16.779Z</time></trkpt><trkpt lat="43.688946" lon="12.3728102"><ele>572.0</ele><time>2026-05-02T07:25:17.794Z</time></trkpt><trkpt lat="43.688876" lon="12.3726575"><ele>575.5</ele><time>2026-05-02T07:25:18.802Z</time></trkpt><trkpt lat="43.6888092" lon="12.3725148"><ele>579.0</ele><time>2026-05-02T07:25:19.784Z</time></trkpt><trkpt lat="43.6887446" lon="12.3723957"><ele>582.5</ele><time>2026-05-02T07:25:20.787Z</time></trkpt><trkpt lat="43.6886827" lon="12.372274"><ele>586.0</ele><time>2026-05-02T07:25:21.786Z</time></trkpt><trkpt lat="43.6886295" lon="12.3721379"><ele>587.25</ele><time>2026-05-02T07:25:22.765Z</time></trkpt><trkpt lat="43.688599" lon="12.3719898"><ele>588.5</ele><time>2026-05-02T07:25:23.801Z</time></trkpt><trkpt lat="43.6886074" lon="12.3718369"><ele>589.75</ele><time>2026-05-02T07:25:24.783Z</time></trkpt><trkpt lat="43.6886446" lon="12.3716851"><ele>591.0</ele><time>2026-05-02T07:25:25.803Z</time></trkpt><trkpt lat="43.6886895" lon="12.3715305"><ele>591.0</ele><time>2026-05-02T07:25:26.774Z</time></trkpt><trkpt lat="43.6887323" lon="12.3713976"><ele>591.0</ele><time>2026-05-02T07:25:27.794Z</time></trkpt><trkpt lat="43.6887626" lon="12.3712697"><ele>591.0</ele><time>2026-05-02T07:25:28.801Z</time></trkpt><trkpt lat="43.6887716" lon="12.371133"><ele>591.0</ele><time>2026-05-02T07:25:29.799Z</time></trkpt><trkpt lat="43.6887732" lon="12.3709868"><ele>591.0</ele><time>2026-05-02T07:25:30.774Z</time></trkpt><trkpt lat="43.6887743" lon="12.3708359"><ele>591.5</ele><time>2026-05-02T07:25:31.788Z</time></trkpt><trkpt lat="43.6887706" lon="12.3706782"><ele>592.0</ele><time>2026-05-02T07:25:32.788Z</time></trkpt><trkpt lat="43.6887571" lon="12.3705127"><ele>592.5</ele><time>2026-05-02T07:25:33.803Z</time></trkpt><trkpt lat="43.6887315" lon="12.3703367"><ele>593.0</ele><time>2026-05-02T07:25:34.78Z</time></trkpt><trkpt lat="43.6886989" lon="12.3701534"><ele>593.0</ele><time>2026-05-02T07:25:35.791Z</time></trkpt><trkpt lat="43.6886521" lon="12.3699948"><ele>593.0</ele><time>2026-05-02T07:25:36.792Z</time></trkpt><trkpt lat="43.6885791" lon="12.3698566"><ele>593.0</ele><time>2026-05-02T07:25:37.793Z</time></trkpt><trkpt lat="43.6884988" lon="12.36973"><ele>593.0</ele><time>2026-05-02T07:25:38.774Z</time></trkpt><trkpt lat="43.6884105" lon="12.3696016"><ele>593.25</ele><time>2026-05-02T07:25:39.78Z</time></trkpt><trkpt lat="43.6883197" lon="12.3694795"><ele>593.5</ele><time>2026-05-02T07:25:40.777Z</time></trkpt><trkpt lat="43.6882319" lon="12.3693772"><ele>593.75</ele><time>2026-05-02T07:25:41.795Z</time></trkpt><trkpt lat="43.6881319" lon="12.3692974"><ele>594.0</ele><time>2026-05-02T07:25:42.779Z</time></trkpt><trkpt lat="43.6880143" lon="12.3692254"><ele>594.0</ele><time>2026-05-02T07:25:43.787Z</time></trkpt><trkpt lat="43.6878923" lon="12.3691572"><ele>594.0</ele><time>2026-05-02T07:25:44.779Z</time></trkpt><trkpt lat="43.687775" lon="12.3690881"><ele>594.0</ele><time>2026-05-02T07:25:45.799Z</time></trkpt><trkpt lat="43.6876764" lon="12.3690242"><ele>594.0</ele><time>2026-05-02T07:25:46.791Z</time></trkpt><trkpt lat="43.6875969" lon="12.3689559"><ele>595.6</ele><time>2026-05-02T07:25:47.784Z</time></trkpt><trkpt lat="43.6875197" lon="12.3688859"><ele>597.2</ele><time>2026-05-02T07:25:48.788Z</time></trkpt><trkpt lat="43.6874399" lon="12.368819"><ele>598.8000000000001</ele><time>2026-05-02T07:25:49.773Z</time></trkpt><trkpt lat="43.6873419" lon="12.368785"><ele>600.4</ele><time>2026-05-02T07:25:50.783Z</time></trkpt><trkpt lat="43.6872341" lon="12.3687599"><ele>602.0</ele><time>2026-05-02T07:25:51.775Z</time></trkpt><trkpt lat="43.6871218" lon="12.3687288"><ele>603.5</ele><time>2026-05-02T07:25:52.778Z</time></trkpt><trkpt lat="43.6870254" lon="12.3686603"><ele>605.0</ele><time>2026-05-02T07:25:53.784Z</time></trkpt><trkpt lat="43.6869465" lon="12.3685493"><ele>606.5</ele><time>2026-05-02T07:25:54.78Z</time></trkpt><trkpt lat="43.6868714" lon="12.3684144"><ele>608.0</ele><time>2026-05-02T07:25:55.782Z</time></trkpt><trkpt lat="43.686806" lon="12.3682823"><ele>608.4</ele><time>2026-05-02T07:25:56.775Z</time></trkpt><trkpt lat="43.6867362" lon="12.3681596"><ele>608.8</ele><time>2026-05-02T07:25:57.793Z</time></trkpt><trkpt lat="43.6866632" lon="12.3680515"><ele>609.2</ele><time>2026-05-02T07:25:58.777Z</time></trkpt><trkpt lat="43.6865901" lon="12.3679383"><ele>609.6</ele><time>2026-05-02T07:25:59.785Z</time></trkpt><trkpt lat="43.6865242" lon="12.3678131"><ele>610.0</ele><time>2026-05-02T07:26:00.77Z</time></trkpt><trkpt lat="43.6864719" lon="12.3676808"><ele>609.25</ele><time>2026-05-02T07:26:01.797Z</time></trkpt><trkpt lat="43.6864149" lon="12.3675406"><ele>608.5</ele><time>2026-05-02T07:26:02.777Z</time></trkpt><trkpt lat="43.6863535" lon="12.3673897"><ele>607.75</ele><time>2026-05-02T07:26:03.794Z</time></trkpt><trkpt lat="43.6863109" lon="12.3672472"><ele>607.0</ele><time>2026-05-02T07:26:04.788Z</time></trkpt><trkpt lat="43.6862775" lon="12.3671097"><ele>607.0</ele><time>2026-05-02T07:26:05.81Z</time></trkpt><trkpt lat="43.6862591" lon="12.3669775"><ele>607.0</ele><time>2026-05-02T07:26:06.789Z</time></trkpt><trkpt lat="43.686235" lon="12.3668484"><ele>607.0</ele><time>2026-05-02T07:26:07.784Z</time></trkpt><trkpt lat="43.6861992" lon="12.3667415"><ele>607.0</ele><time>2026-05-02T07:26:08.795Z</time></trkpt><trkpt lat="43.6861388" lon="12.3666583"><ele>607.0</ele><time>2026-05-02T07:26:09.8Z</time></trkpt><trkpt lat="43.6860636" lon="12.3665874"><ele>607.4</ele><time>2026-05-02T07:26:10.78Z</time></trkpt><trkpt lat="43.6859839" lon="12.3665216"><ele>607.8000000000001</ele><time>2026-05-02T07:26:11.781Z</time></trkpt><trkpt lat="43.6858902" lon="12.366466"><ele>608.2</ele><time>2026-05-02T07:26:12.779Z</time></trkpt><trkpt lat="43.6857868" lon="12.3664293"><ele>608.6</ele><time>2026-05-02T07:26:13.788Z</time></trkpt><trkpt lat="43.6856973" lon="12.3663998"><ele>609.0</ele><time>2026-05-02T07:26:14.783Z</time></trkpt><trkpt lat="43.6856202" lon="12.3663537"><ele>609.4</ele><time>2026-05-02T07:26:15.778Z</time></trkpt><trkpt lat="43.6855449" lon="12.3663019"><ele>609.8</ele><time>2026-05-02T07:26:16.786Z</time></trkpt><trkpt lat="43.6854629" lon="12.3662421"><ele>610.2</ele><time>2026-05-02T07:26:17.783Z</time></trkpt><trkpt lat="43.6853672" lon="12.3661781"><ele>610.6</ele><time>2026-05-02T07:26:18.765Z</time></trkpt><trkpt lat="43.6852507" lon="12.3661313"><ele>611.0</ele><time>2026-05-02T07:26:19.804Z</time></trkpt><trkpt lat="43.6851312" lon="12.3660994"><ele>612.0</ele><time>2026-05-02T07:26:20.77Z</time></trkpt><trkpt lat="43.6850276" lon="12.3660534"><ele>613.0</ele><time>2026-05-02T07:26:21.792Z</time></trkpt><trkpt lat="43.6849408" lon="12.3659875"><ele>614.0</ele><time>2026-05-02T07:26:22.78Z</time></trkpt><trkpt lat="43.68485" lon="12.3658976"><ele>615.0</ele><time>2026-05-02T07:26:23.789Z</time></trkpt><trkpt lat="43.6847716" lon="12.3657973"><ele>616.0</ele><time>2026-05-02T07:26:24.778Z</time></trkpt><trkpt lat="43.6847153" lon="12.3656964"><ele>616.0</ele><time>2026-05-02T07:26:25.78Z</time></trkpt><trkpt lat="43.6846692" lon="12.3655956"><ele>616.0</ele><time>2026-05-02T07:26:26.774Z</time></trkpt><trkpt lat="43.6846291" lon="12.3655026"><ele>616.0</ele><time>2026-05-02T07:26:27.799Z</time></trkpt><trkpt lat="43.6845894" lon="12.3654075"><ele>616.0</ele><time>2026-05-02T07:26:28.776Z</time></trkpt><trkpt lat="43.6845483" lon="12.3653017"><ele>616.0</ele><time>2026-05-02T07:26:29.8Z</time></trkpt><trkpt lat="43.6845192" lon="12.3651854"><ele>616.0</ele><time>2026-05-02T07:26:30.778Z</time></trkpt><trkpt lat="43.6845026" lon="12.3650578"><ele>617.2</ele><time>2026-05-02T07:26:31.789Z</time></trkpt><trkpt lat="43.6844908" lon="12.3649235"><ele>618.4000000000001</ele><time>2026-05-02T07:26:32.772Z</time></trkpt><trkpt lat="43.6844646" lon="12.3647875"><ele>619.6</ele><time>2026-05-02T07:26:33.796Z</time></trkpt><trkpt lat="43.6844259" lon="12.3646492"><ele>620.8000000000001</ele><time>2026-05-02T07:26:34.77Z</time></trkpt><trkpt lat="43.6843899" lon="12.3645262"><ele>622.0</ele><time>2026-05-02T07:26:35.773Z</time></trkpt><trkpt lat="43.6843507" lon="12.3644197"><ele>618.6</ele><time>2026-05-02T07:26:36.778Z</time></trkpt><trkpt lat="43.6843192" lon="12.3643215"><ele>615.2</ele><time>2026-05-02T07:26:37.797Z</time></trkpt><trkpt lat="43.6842883" lon="12.3642177"><ele>611.8</ele><time>2026-05-02T07:26:38.778Z</time></trkpt><trkpt lat="43.6842518" lon="12.3640895"><ele>608.4</ele><time>2026-05-02T07:26:39.79Z</time></trkpt><trkpt lat="43.6842212" lon="12.3639453"><ele>605.0</ele><time>2026-05-02T07:26:40.77Z</time></trkpt><trkpt lat="43.6841961" lon="12.3637996"><ele>604.8333333333333</ele><time>2026-05-02T07:26:41.79Z</time></trkpt><trkpt lat="43.6841811" lon="12.3636689"><ele>604.6666666666666</ele><time>2026-05-02T07:26:42.772Z</time></trkpt><trkpt lat="43.6841673" lon="12.3635487"><ele>604.5</ele><time>2026-05-02T07:26:43.779Z</time></trkpt><trkpt lat="43.6841398" lon="12.3634436"><ele>604.3333333333334</ele><time>2026-05-02T07:26:44.772Z</time></trkpt><trkpt lat="43.6840987" lon="12.3633558"><ele>604.1666666666667</ele><time>2026-05-02T07:26:45.781Z</time></trkpt><trkpt lat="43.6840425" lon="12.3632783"><ele>604.0</ele><time>2026-05-02T07:26:46.769Z</time></trkpt><trkpt lat="43.6839707" lon="12.3632125"><ele>604.0</ele><time>2026-05-02T07:26:47.784Z</time></trkpt><trkpt lat="43.6838841" lon="12.3631725"><ele>604.0</ele><time>2026-05-02T07:26:48.772Z</time></trkpt><trkpt lat="43.6837888" lon="12.363128"><ele>604.0</ele><time>2026-05-02T07:26:49.792Z</time></trkpt><trkpt lat="43.6836816" lon="12.3630739"><ele>604.0</ele><time>2026-05-02T07:26:50.785Z</time></trkpt><trkpt lat="43.6835916" lon="12.3630007"><ele>604.0</ele><time>2026-05-02T07:26:51.783Z</time></trkpt><trkpt lat="43.6835191" lon="12.3628928"><ele>605.0</ele><time>2026-05-02T07:26:52.774Z</time></trkpt><trkpt lat="43.6834637" lon="12.3627731"><ele>606.0</ele><time>2026-05-02T07:26:53.803Z</time></trkpt><trkpt lat="43.6834072" lon="12.3626567"><ele>607.0</ele><time>2026-05-02T07:26:54.784Z</time></trkpt><trkpt lat="43.6833525" lon="12.3625491"><ele>608.0</ele><time>2026-05-02T07:26:55.806Z</time></trkpt><trkpt lat="43.6832797" lon="12.3624707"><ele>609.0</ele><time>2026-05-02T07:26:56.775Z</time></trkpt><trkpt lat="43.683193" lon="12.3624111"><ele>609.0</ele><time>2026-05-02T07:26:57.792Z</time></trkpt><trkpt lat="43.6830961" lon="12.3623668"><ele>609.0</ele><time>2026-05-02T07:26:58.778Z</time></trkpt><trkpt lat="43.6829956" lon="12.3623278"><ele>609.0</ele><time>2026-05-02T07:26:59.781Z</time></trkpt><trkpt lat="43.6829027" lon="12.3622708"><ele>609.0</ele><time>2026-05-02T07:27:00.777Z</time></trkpt><trkpt lat="43.682826" lon="12.362185"><ele>609.0</ele><time>2026-05-02T07:27:01.792Z</time></trkpt><trkpt lat="43.6827621" lon="12.3620723"><ele>610.6</ele><time>2026-05-02T07:27:02.771Z</time></trkpt><trkpt lat="43.6827115" lon="12.3619468"><ele>612.2</ele><time>2026-05-02T07:27:03.769Z</time></trkpt><trkpt lat="43.6826773" lon="12.3618057"><ele>613.8000000000001</ele><time>2026-05-02T07:27:04.776Z</time></trkpt><trkpt lat="43.6826643" lon="12.3616678"><ele>615.4</ele><time>2026-05-02T07:27:05.783Z</time></trkpt><trkpt lat="43.6826819" lon="12.3615286"><ele>617.0</ele><time>2026-05-02T07:27:06.784Z</time></trkpt><trkpt lat="43.6827287" lon="12.361419"><ele>615.4</ele><time>2026-05-02T07:27:07.785Z</time></trkpt><trkpt lat="43.6827967" lon="12.3613405"><ele>613.8000000000001</ele><time>2026-05-02T07:27:08.781Z</time></trkpt><trkpt lat="43.6828537" lon="12.3612408"><ele>612.2</ele><time>2026-05-02T07:27:09.791Z</time></trkpt><trkpt lat="43.6828741" lon="12.3610879"><ele>610.6</ele><time>2026-05-02T07:27:10.773Z</time></trkpt><trkpt lat="43.6828812" lon="12.3609302"><ele>609.0</ele><time>2026-05-02T07:27:11.773Z</time></trkpt><trkpt lat="43.6828708" lon="12.3607599"><ele>609.0</ele><time>2026-05-02T07:27:12.779Z</time></trkpt><trkpt lat="43.682852" lon="12.360593"><ele>609.0</ele><time>2026-05-02T07:27:13.774Z</time></trkpt><trkpt lat="43.6828271" lon="12.3604393"><ele>609.0</ele><time>2026-05-02T07:27:14.773Z</time></trkpt><trkpt lat="43.6827902" lon="12.3602973"><ele>609.0</ele><time>2026-05-02T07:27:15.775Z</time></trkpt><trkpt lat="43.6827322" lon="12.3601768"><ele>612.4</ele><time>2026-05-02T07:27:16.782Z</time></trkpt><trkpt lat="43.6826597" lon="12.3600641"><ele>615.8</ele><time>2026-05-02T07:27:17.775Z</time></trkpt><trkpt lat="43.682586" lon="12.359971"><ele>619.2</ele><time>2026-05-02T07:27:18.784Z</time></trkpt><trkpt lat="43.6825196" lon="12.3598922"><ele>622.6</ele><time>2026-05-02T07:27:19.782Z</time></trkpt><trkpt lat="43.6824498" lon="12.3598039"><ele>626.0</ele><time>2026-05-02T07:27:20.771Z</time></trkpt><trkpt lat="43.6823806" lon="12.3597035"><ele>626.0</ele><time>2026-05-02T07:27:21.776Z</time></trkpt><trkpt lat="43.6823037" lon="12.359602"><ele>626.0</ele><time>2026-05-02T07:27:22.77Z</time></trkpt><trkpt lat="43.6822309" lon="12.3595021"><ele>626.0</ele><time>2026-05-02T07:27:23.799Z</time></trkpt><trkpt lat="43.682172" lon="12.3594004"><ele>626.0</ele><time>2026-05-02T07:27:24.782Z</time></trkpt><trkpt lat="43.6821448" lon="12.3592953"><ele>626.0</ele><time>2026-05-02T07:27:25.781Z</time></trkpt><trkpt lat="43.6821405" lon="12.3591831"><ele>626.0</ele><time>2026-05-02T07:27:26.778Z</time></trkpt><trkpt lat="43.6821481" lon="12.3590636"><ele>626.0</ele><time>2026-05-02T07:27:27.78Z</time></trkpt><trkpt lat="43.6821638" lon="12.3589509"><ele>626.0</ele><time>2026-05-02T07:27:28.768Z</time></trkpt><trkpt lat="43.6821763" lon="12.3588403"><ele>626.0</ele><time>2026-05-02T07:27:29.786Z</time></trkpt><trkpt lat="43.6821646" lon="12.3587308"><ele>626.0</ele><time>2026-05-02T07:27:30.777Z</time></trkpt><trkpt lat="43.6821298" lon="12.3586226"><ele>626.0</ele><time>2026-05-02T07:27:31.791Z</time></trkpt><trkpt lat="43.6820918" lon="12.3585069"><ele>626.6666666666666</ele><time>2026-05-02T07:27:32.78Z</time></trkpt><trkpt lat="43.6820732" lon="12.3583867"><ele>627.3333333333333</ele><time>2026-05-02T07:27:33.783Z</time></trkpt><trkpt lat="43.6820949" lon="12.3582836"><ele>628.0</ele><time>2026-05-02T07:27:34.774Z</time></trkpt><trkpt lat="43.6821264" lon="12.3581811"><ele>628.6666666666666</ele><time>2026-05-02T07:27:35.786Z</time></trkpt><trkpt lat="43.6821507" lon="12.3580677"><ele>629.3333333333334</ele><time>2026-05-02T07:27:36.773Z</time></trkpt><trkpt lat="43.6821587" lon="12.3579356"><ele>630.0</ele><time>2026-05-02T07:27:37.802Z</time></trkpt><trkpt lat="43.6821571" lon="12.3577959"><ele>632.4</ele><time>2026-05-02T07:27:38.781Z</time></trkpt><trkpt lat="43.6821463" lon="12.3576458"><ele>634.8</ele><time>2026-05-02T07:27:39.783Z</time></trkpt><trkpt lat="43.6821461" lon="12.3574974"><ele>637.2</ele><time>2026-05-02T07:27:40.772Z</time></trkpt><trkpt lat="43.6821533" lon="12.3573556"><ele>639.6</ele><time>2026-05-02T07:27:41.793Z</time></trkpt><trkpt lat="43.682169" lon="12.35722"><ele>642.0</ele><time>2026-05-02T07:27:42.778Z</time></trkpt><trkpt lat="43.6821933" lon="12.3570905"><ele>643.0</ele><time>2026-05-02T07:27:43.761Z</time></trkpt><trkpt lat="43.6822144" lon="12.3569731"><ele>644.0</ele><time>2026-05-02T07:27:44.77Z</time></trkpt><trkpt lat="43.6822398" lon="12.3568522"><ele>645.0</ele><time>2026-05-02T07:27:45.773Z</time></trkpt><trkpt lat="43.6822694" lon="12.3567398"><ele>646.0</ele><time>2026-05-02T07:27:46.783Z</time></trkpt><trkpt lat="43.6822865" lon="12.3566287"><ele>647.0</ele><time>2026-05-02T07:27:47.777Z</time></trkpt><trkpt lat="43.6822667" lon="12.3565288"><ele>648.0</ele><time>2026-05-02T07:27:48.785Z</time></trkpt><trkpt lat="43.6822178" lon="12.3564566"><ele>648.0</ele><time>2026-05-02T07:27:49.78Z</time></trkpt><trkpt lat="43.6821159" lon="12.3564613"><ele>648.0</ele><time>2026-05-02T07:27:51.779Z</time></trkpt><trkpt lat="43.682093" lon="12.3566068"><ele>648.0</ele><time>2026-05-02T07:27:53.797Z</time></trkpt><trkpt lat="43.6820492" lon="12.3566896"><ele>648.0</ele><time>2026-05-02T07:27:54.789Z</time></trkpt><trkpt lat="43.6819865" lon="12.3567726"><ele>648.0</ele><time>2026-05-02T07:27:55.805Z</time></trkpt><trkpt lat="43.6819221" lon="12.3568633"><ele>653.4</ele><time>2026-05-02T07:27:56.77Z</time></trkpt><trkpt lat="43.6818818" lon="12.3569664"><ele>658.8</ele><time>2026-05-02T07:27:57.778Z</time></trkpt><trkpt lat="43.6818438" lon="12.3570704"><ele>664.2</ele><time>2026-05-02T07:27:58.776Z</time></trkpt><trkpt lat="43.6817896" lon="12.3571798"><ele>669.6</ele><time>2026-05-02T07:27:59.797Z</time></trkpt><trkpt lat="43.681727" lon="12.357288"><ele>675.0</ele><time>2026-05-02T07:28:00.772Z</time></trkpt><trkpt lat="43.6816597" lon="12.357393"><ele>675.0</ele><time>2026-05-02T07:28:01.772Z</time></trkpt><trkpt lat="43.6815918" lon="12.3574996"><ele>675.0</ele><time>2026-05-02T07:28:02.779Z</time></trkpt><trkpt lat="43.6815167" lon="12.3576055"><ele>675.0</ele><time>2026-05-02T07:28:03.789Z</time></trkpt><trkpt lat="43.6814437" lon="12.3577024"><ele>675.0</ele><time>2026-05-02T07:28:04.771Z</time></trkpt><trkpt lat="43.6813701" lon="12.3577651"><ele>675.0</ele><time>2026-05-02T07:28:05.801Z</time></trkpt><trkpt lat="43.6812952" lon="12.3577786"><ele>675.0</ele><time>2026-05-02T07:28:06.769Z</time></trkpt><trkpt lat="43.6812021" lon="12.3577703"><ele>675.0</ele><time>2026-05-02T07:28:07.783Z</time></trkpt><trkpt lat="43.6811099" lon="12.3577396"><ele>675.0</ele><time>2026-05-02T07:28:08.784Z</time></trkpt><trkpt lat="43.6810353" lon="12.3576812"><ele>675.0</ele><time>2026-05-02T07:28:09.773Z</time></trkpt><trkpt lat="43.6809598" lon="12.3576076"><ele>675.0</ele><time>2026-05-02T07:28:10.772Z</time></trkpt><trkpt lat="43.6808865" lon="12.357519"><ele>677.2</ele><time>2026-05-02T07:28:11.783Z</time></trkpt><trkpt lat="43.680809" lon="12.3574314"><ele>679.4</ele><time>2026-05-02T07:28:12.776Z</time></trkpt><trkpt lat="43.6807238" lon="12.3573489"><ele>681.5999999999999</ele><time>2026-05-02T07:28:13.783Z</time></trkpt><trkpt lat="43.6806364" lon="12.3572653"><ele>683.8</ele><time>2026-05-02T07:28:14.782Z</time></trkpt><trkpt lat="43.6805446" lon="12.3571844"><ele>686.0</ele><time>2026-05-02T07:28:15.776Z</time></trkpt><trkpt lat="43.6804527" lon="12.3571105"><ele>689.5</ele><time>2026-05-02T07:28:16.773Z</time></trkpt><trkpt lat="43.6803461" lon="12.3570523"><ele>693.0</ele><time>2026-05-02T07:28:17.77Z</time></trkpt><trkpt lat="43.6802316" lon="12.3570058"><ele>696.5</ele><time>2026-05-02T07:28:18.78Z</time></trkpt><trkpt lat="43.68011" lon="12.3569758"><ele>700.0</ele><time>2026-05-02T07:28:19.777Z</time></trkpt><trkpt lat="43.6800049" lon="12.3569708"><ele>700.0</ele><time>2026-05-02T07:28:20.781Z</time></trkpt><trkpt lat="43.6799261" lon="12.3569777"><ele>700.0</ele><time>2026-05-02T07:28:21.781Z</time></trkpt><trkpt lat="43.6798458" lon="12.356905"><ele>700.0</ele><time>2026-05-02T07:28:23.776Z</time></trkpt><trkpt lat="43.6798903" lon="12.3567903"><ele>700.0</ele><time>2026-05-02T07:28:25.778Z</time></trkpt><trkpt lat="43.679962" lon="12.3567752"><ele>700.0</ele><time>2026-05-02T07:28:26.772Z</time></trkpt><trkpt lat="43.680039" lon="12.3567643"><ele>700.0</ele><time>2026-05-02T07:28:27.781Z</time></trkpt><trkpt lat="43.6801279" lon="12.3567442"><ele>700.0</ele><time>2026-05-02T07:28:28.782Z</time></trkpt><trkpt lat="43.6802099" lon="12.3567478"><ele>700.0</ele><time>2026-05-02T07:28:30.777Z</time></trkpt><trkpt lat="43.6801905" lon="12.3566642"><ele>700.0</ele><time>2026-05-02T07:28:33.79Z</time></trkpt><trkpt lat="43.6800904" lon="12.3565523"><ele>700.0</ele><time>2026-05-02T07:28:35.783Z</time></trkpt><trkpt lat="43.6800035" lon="12.356519"><ele>700.0</ele><time>2026-05-02T07:28:36.779Z</time></trkpt><trkpt lat="43.6798905" lon="12.3565116"><ele>700.0</ele><time>2026-05-02T07:28:37.796Z</time></trkpt><trkpt lat="43.6797651" lon="12.3565041"><ele>700.0</ele><time>2026-05-02T07:28:38.793Z</time></trkpt><trkpt lat="43.6796418" lon="12.3565039"><ele>700.0</ele><time>2026-05-02T07:28:39.77Z</time></trkpt><trkpt lat="43.6795166" lon="12.3565251"><ele>700.0</ele><time>2026-05-02T07:28:40.772Z</time></trkpt><trkpt lat="43.6793994" lon="12.3565483"><ele>700.8</ele><time>2026-05-02T07:28:41.782Z</time></trkpt><trkpt lat="43.6793012" lon="12.3565737"><ele>701.6</ele><time>2026-05-02T07:28:42.777Z</time></trkpt><trkpt lat="43.6792124" lon="12.3565901"><ele>702.4000000000001</ele><time>2026-05-02T07:28:43.785Z</time></trkpt><trkpt lat="43.6791211" lon="12.3566058"><ele>703.2</ele><time>2026-05-02T07:28:44.779Z</time></trkpt><trkpt lat="43.6790281" lon="12.3566138"><ele>704.0</ele><time>2026-05-02T07:28:45.8Z</time></trkpt><trkpt lat="43.6789389" lon="12.356617"><ele>704.0</ele><time>2026-05-02T07:28:46.779Z</time></trkpt><trkpt lat="43.6788458" lon="12.3566309"><ele>704.0</ele><time>2026-05-02T07:28:47.781Z</time></trkpt><trkpt lat="43.6787552" lon="12.3566647"><ele>704.0</ele><time>2026-05-02T07:28:48.78Z</time></trkpt><trkpt lat="43.6786826" lon="12.3567271"><ele>704.0</ele><time>2026-05-02T07:28:49.78Z</time></trkpt><trkpt lat="43.6786314" lon="12.3568085"><ele>704.0</ele><time>2026-05-02T07:28:50.782Z</time></trkpt><trkpt lat="43.6785915" lon="12.3569115"><ele>704.0</ele><time>2026-05-02T07:28:51.804Z</time></trkpt><trkpt lat="43.6785733" lon="12.3570342"><ele>704.4000000000001</ele><time>2026-05-02T07:28:52.775Z</time></trkpt><trkpt lat="43.678563" lon="12.3571497"><ele>704.8</ele><time>2026-05-02T07:28:53.771Z</time></trkpt><trkpt lat="43.6785424" lon="12.3572655"><ele>705.2</ele><time>2026-05-02T07:28:54.786Z</time></trkpt><trkpt lat="43.6785045" lon="12.3573803"><ele>705.5999999999999</ele><time>2026-05-02T07:28:55.793Z</time></trkpt><trkpt lat="43.678456" lon="12.3574935"><ele>706.0</ele><time>2026-05-02T07:28:56.776Z</time></trkpt><trkpt lat="43.6784001" lon="12.3576036"><ele>706.0</ele><time>2026-05-02T07:28:57.788Z</time></trkpt><trkpt lat="43.6783421" lon="12.3577068"><ele>706.0</ele><time>2026-05-02T07:28:58.768Z</time></trkpt><trkpt lat="43.6782706" lon="12.3578035"><ele>706.0</ele><time>2026-05-02T07:28:59.789Z</time></trkpt><trkpt lat="43.678195" lon="12.3578986"><ele>706.0</ele><time>2026-05-02T07:29:00.777Z</time></trkpt><trkpt lat="43.6781071" lon="12.3579937"><ele>706.0</ele><time>2026-05-02T07:29:01.792Z</time></trkpt><trkpt lat="43.6780199" lon="12.3581059"><ele>707.5999999999999</ele><time>2026-05-02T07:29:02.777Z</time></trkpt><trkpt lat="43.6779362" lon="12.3582288"><ele>709.2</ele><time>2026-05-02T07:29:03.784Z</time></trkpt><trkpt lat="43.6778582" lon="12.358347"><ele>710.8</ele><time>2026-05-02T07:29:04.788Z</time></trkpt><trkpt lat="43.6777906" lon="12.3584584"><ele>712.4000000000001</ele><time>2026-05-02T07:29:05.806Z</time></trkpt><trkpt lat="43.6777267" lon="12.3585582"><ele>714.0</ele><time>2026-05-02T07:29:06.776Z</time></trkpt><trkpt lat="43.677658" lon="12.3586492"><ele>714.0</ele><time>2026-05-02T07:29:07.807Z</time></trkpt><trkpt lat="43.6775818" lon="12.3587455"><ele>714.0</ele><time>2026-05-02T07:29:08.775Z</time></trkpt><trkpt lat="43.6775016" lon="12.3588302"><ele>714.0</ele><time>2026-05-02T07:29:09.784Z</time></trkpt><trkpt lat="43.6774253" lon="12.3588923"><ele>714.0</ele><time>2026-05-02T07:29:10.778Z</time></trkpt><trkpt lat="43.6773479" lon="12.3589343"><ele>714.0</ele><time>2026-05-02T07:29:11.782Z</time></trkpt><trkpt lat="43.6772686" lon="12.3589623"><ele>711.4000000000001</ele><time>2026-05-02T07:29:12.782Z</time></trkpt><trkpt lat="43.677183" lon="12.3589607"><ele>708.8</ele><time>2026-05-02T07:29:13.795Z</time></trkpt><trkpt lat="43.6770904" lon="12.3589449"><ele>706.2</ele><time>2026-05-02T07:29:14.792Z</time></trkpt><trkpt lat="43.6769836" lon="12.3589195"><ele>703.5999999999999</ele><time>2026-05-02T07:29:15.791Z</time></trkpt><trkpt lat="43.6768724" lon="12.3589089"><ele>701.0</ele><time>2026-05-02T07:29:16.782Z</time></trkpt><trkpt lat="43.676772" lon="12.3589177"><ele>701.0</ele><time>2026-05-02T07:29:17.778Z</time></trkpt><trkpt lat="43.676687" lon="12.3589146"><ele>701.0</ele><time>2026-05-02T07:29:18.769Z</time></trkpt><trkpt lat="43.6766112" lon="12.3589187"><ele>701.0</ele><time>2026-05-02T07:29:19.802Z</time></trkpt><trkpt lat="43.6765384" lon="12.3589182"><ele>701.0</ele><time>2026-05-02T07:29:20.789Z</time></trkpt><trkpt lat="43.6764615" lon="12.3589014"><ele>701.0</ele><time>2026-05-02T07:29:21.788Z</time></trkpt><trkpt lat="43.6763779" lon="12.3588673"><ele>701.0</ele><time>2026-05-02T07:29:22.778Z</time></trkpt><trkpt lat="43.6763114" lon="12.3588578"><ele>701.0</ele><time>2026-05-02T07:29:23.781Z</time></trkpt><trkpt lat="43.6762454" lon="12.3588763"><ele>701.0</ele><time>2026-05-02T07:29:24.774Z</time></trkpt><trkpt lat="43.6761702" lon="12.3589228"><ele>701.0</ele><time>2026-05-02T07:29:25.776Z</time></trkpt><trkpt lat="43.6760915" lon="12.3589821"><ele>701.0</ele><time>2026-05-02T07:29:26.778Z</time></trkpt><trkpt lat="43.6760141" lon="12.359036"><ele>701.0</ele><time>2026-05-02T07:29:27.761Z</time></trkpt><trkpt lat="43.6759204" lon="12.359092"><ele>701.0</ele><time>2026-05-02T07:29:28.774Z</time></trkpt><trkpt lat="43.6758207" lon="12.3591345"><ele>702.1666666666666</ele><time>2026-05-02T07:29:29.781Z</time></trkpt><trkpt lat="43.6757284" lon="12.3591689"><ele>703.3333333333333</ele><time>2026-05-02T07:29:30.78Z</time></trkpt><trkpt lat="43.6756438" lon="12.3592125"><ele>704.5</ele><time>2026-05-02T07:29:31.78Z</time></trkpt><trkpt lat="43.6755633" lon="12.3592624"><ele>705.6666666666666</ele><time>2026-05-02T07:29:32.778Z</time></trkpt><trkpt lat="43.6754926" lon="12.3593126"><ele>706.8333333333334</ele><time>2026-05-02T07:29:33.791Z</time></trkpt><trkpt lat="43.6754181" lon="12.3593544"><ele>708.0</ele><time>2026-05-02T07:29:34.775Z</time></trkpt><trkpt lat="43.6753565" lon="12.3594091"><ele>708.0</ele><time>2026-05-02T07:29:35.788Z</time></trkpt><trkpt lat="43.6752934" lon="12.3594859"><ele>708.0</ele><time>2026-05-02T07:29:36.774Z</time></trkpt><trkpt lat="43.6752262" lon="12.3595801"><ele>708.0</ele><time>2026-05-02T07:29:37.779Z</time></trkpt><trkpt lat="43.6751654" lon="12.3596942"><ele>708.0</ele><time>2026-05-02T07:29:38.77Z</time></trkpt><trkpt lat="43.6751135" lon="12.359817"><ele>708.0</ele><time>2026-05-02T07:29:39.78Z</time></trkpt><trkpt lat="43.6750754" lon="12.3599631"><ele>708.0</ele><time>2026-05-02T07:29:40.777Z</time></trkpt><trkpt lat="43.6750473" lon="12.3601044"><ele>708.0</ele><time>2026-05-02T07:29:41.772Z</time></trkpt><trkpt lat="43.675017" lon="12.3602393"><ele>708.0</ele><time>2026-05-02T07:29:42.782Z</time></trkpt><trkpt lat="43.6749797" lon="12.360364"><ele>708.0</ele><time>2026-05-02T07:29:43.785Z</time></trkpt><trkpt lat="43.6749411" lon="12.3604696"><ele>708.0</ele><time>2026-05-02T07:29:44.77Z</time></trkpt><trkpt lat="43.6749124" lon="12.3605793"><ele>705.4</ele><time>2026-05-02T07:29:45.785Z</time></trkpt><trkpt lat="43.6748924" lon="12.3607"><ele>702.8</ele><time>2026-05-02T07:29:46.759Z</time></trkpt><trkpt lat="43.6748731" lon="12.3608301"><ele>700.2</ele><time>2026-05-02T07:29:47.809Z</time></trkpt><trkpt lat="43.6748511" lon="12.3609904"><ele>697.6</ele><time>2026-05-02T07:29:48.771Z</time></trkpt><trkpt lat="43.6748265" lon="12.3611684"><ele>695.0</ele><time>2026-05-02T07:29:49.787Z</time></trkpt><trkpt lat="43.6748064" lon="12.3613558"><ele>693.25</ele><time>2026-05-02T07:29:50.761Z</time></trkpt><trkpt lat="43.6747797" lon="12.3615325"><ele>691.5</ele><time>2026-05-02T07:29:51.776Z</time></trkpt><trkpt lat="43.6747406" lon="12.3617051"><ele>689.75</ele><time>2026-05-02T07:29:52.775Z</time></trkpt><trkpt lat="43.6746962" lon="12.3618712"><ele>688.0</ele><time>2026-05-02T07:29:53.792Z</time></trkpt><trkpt lat="43.6746504" lon="12.36204"><ele>686.4</ele><time>2026-05-02T07:29:54.776Z</time></trkpt><trkpt lat="43.6746075" lon="12.3622034"><ele>684.8</ele><time>2026-05-02T07:29:55.791Z</time></trkpt><trkpt lat="43.6745678" lon="12.3623573"><ele>683.2</ele><time>2026-05-02T07:29:56.772Z</time></trkpt><trkpt lat="43.6745342" lon="12.3624962"><ele>681.6</ele><time>2026-05-02T07:29:57.775Z</time></trkpt><trkpt lat="43.6744954" lon="12.362612"><ele>680.0</ele><time>2026-05-02T07:29:58.776Z</time></trkpt><trkpt lat="43.674443" lon="12.3627163"><ele>684.0</ele><time>2026-05-02T07:29:59.788Z</time></trkpt><trkpt lat="43.674371" lon="12.3628201"><ele>688.0</ele><time>2026-05-02T07:30:00.774Z</time></trkpt><trkpt lat="43.6743004" lon="12.3629072"><ele>692.0</ele><time>2026-05-02T07:30:01.788Z</time></trkpt><trkpt lat="43.6742443" lon="12.3629681"><ele>696.0</ele><time>2026-05-02T07:30:02.778Z</time></trkpt><trkpt lat="43.6741287" lon="12.3630084"><ele>700.0</ele><time>2026-05-02T07:30:04.783Z</time></trkpt><trkpt lat="43.6740336" lon="12.3629445"><ele>700.0</ele><time>2026-05-02T07:30:06.79Z</time></trkpt><trkpt lat="43.6739873" lon="12.3628578"><ele>700.0</ele><time>2026-05-02T07:30:07.772Z</time></trkpt><trkpt lat="43.6739398" lon="12.3627633"><ele>700.0</ele><time>2026-05-02T07:30:08.774Z</time></trkpt><trkpt lat="43.6738874" lon="12.362664"><ele>700.0</ele><time>2026-05-02T07:30:09.793Z</time></trkpt><trkpt lat="43.6738315" lon="12.3625602"><ele>700.0</ele><time>2026-05-02T07:30:10.782Z</time></trkpt><trkpt lat="43.6737803" lon="12.3624586"><ele>700.0</ele><time>2026-05-02T07:30:11.796Z</time></trkpt><trkpt lat="43.6737109" lon="12.3623653"><ele>700.0</ele><time>2026-05-02T07:30:12.785Z</time></trkpt><trkpt lat="43.6736548" lon="12.362275"><ele>700.0</ele><time>2026-05-02T07:30:13.786Z</time></trkpt><trkpt lat="43.6736341" lon="12.3621522"><ele>700.0</ele><time>2026-05-02T07:30:14.777Z</time></trkpt><trkpt lat="43.6735966" lon="12.3620443"><ele>700.0</ele><time>2026-05-02T07:30:15.78Z</time></trkpt><trkpt lat="43.6735575" lon="12.3619374"><ele>700.0</ele><time>2026-05-02T07:30:16.772Z</time></trkpt><trkpt lat="43.6735082" lon="12.3618374"><ele>700.0</ele><time>2026-05-02T07:30:17.776Z</time></trkpt><trkpt lat="43.6734527" lon="12.3617456"><ele>699.3333333333334</ele><time>2026-05-02T07:30:18.776Z</time></trkpt><trkpt lat="43.6733977" lon="12.3616605"><ele>698.6666666666667</ele><time>2026-05-02T07:30:19.788Z</time></trkpt><trkpt lat="43.6733261" lon="12.3615891"><ele>698.0</ele><time>2026-05-02T07:30:20.785Z</time></trkpt><trkpt lat="43.673256" lon="12.3615147"><ele>697.3333333333334</ele><time>2026-05-02T07:30:21.801Z</time></trkpt><trkpt lat="43.6731743" lon="12.3614568"><ele>696.6666666666666</ele><time>2026-05-02T07:30:22.784Z</time></trkpt><trkpt lat="43.673092" lon="12.3614032"><ele>696.0</ele><time>2026-05-02T07:30:23.783Z</time></trkpt><trkpt lat="43.673004" lon="12.3613468"><ele>697.0</ele><time>2026-05-02T07:30:24.784Z</time></trkpt><trkpt lat="43.6728973" lon="12.3612938"><ele>698.0</ele><time>2026-05-02T07:30:25.798Z</time></trkpt><trkpt lat="43.6727839" lon="12.361248"><ele>699.0</ele><time>2026-05-02T07:30:26.771Z</time></trkpt><trkpt lat="43.6726784" lon="12.3612114"><ele>700.0</ele><time>2026-05-02T07:30:27.806Z</time></trkpt><trkpt lat="43.6725848" lon="12.3611814"><ele>701.0</ele><time>2026-05-02T07:30:28.776Z</time></trkpt><trkpt lat="43.6724869" lon="12.3611619"><ele>701.0</ele><time>2026-05-02T07:30:29.778Z</time></trkpt><trkpt lat="43.6723981" lon="12.3611634"><ele>701.0</ele><time>2026-05-02T07:30:30.775Z</time></trkpt><trkpt lat="43.6723095" lon="12.3611811"><ele>701.0</ele><time>2026-05-02T07:30:31.792Z</time></trkpt><trkpt lat="43.6722163" lon="12.3612145"><ele>701.0</ele><time>2026-05-02T07:30:32.776Z</time></trkpt><trkpt lat="43.6721161" lon="12.3612582"><ele>701.0</ele><time>2026-05-02T07:30:33.787Z</time></trkpt><trkpt lat="43.6720099" lon="12.3613047"><ele>697.75</ele><time>2026-05-02T07:30:34.789Z</time></trkpt><trkpt lat="43.6719007" lon="12.3613566"><ele>694.5</ele><time>2026-05-02T07:30:35.787Z</time></trkpt><trkpt lat="43.6717845" lon="12.3613961"><ele>691.25</ele><time>2026-05-02T07:30:36.779Z</time></trkpt><trkpt lat="43.6716804" lon="12.3614241"><ele>688.0</ele><time>2026-05-02T07:30:37.798Z</time></trkpt><trkpt lat="43.6715725" lon="12.361438"><ele>687.4</ele><time>2026-05-02T07:30:38.782Z</time></trkpt><trkpt lat="43.6714789" lon="12.3614469"><ele>686.8</ele><time>2026-05-02T07:30:39.784Z</time></trkpt><trkpt lat="43.6714087" lon="12.3614451"><ele>686.2</ele><time>2026-05-02T07:30:40.776Z</time></trkpt><trkpt lat="43.6713066" lon="12.3614368"><ele>685.6</ele><time>2026-05-02T07:30:42.777Z</time></trkpt><trkpt lat="43.6711821" lon="12.3614646"><ele>685.0</ele><time>2026-05-02T07:30:44.772Z</time></trkpt><trkpt lat="43.6711116" lon="12.3614724"><ele>685.4</ele><time>2026-05-02T07:30:45.796Z</time></trkpt><trkpt lat="43.6710304" lon="12.3614999"><ele>685.8</ele><time>2026-05-02T07:30:46.775Z</time></trkpt><trkpt lat="43.6709332" lon="12.3615478"><ele>686.2</ele><time>2026-05-02T07:30:47.783Z</time></trkpt><trkpt lat="43.6708315" lon="12.3616149"><ele>686.6</ele><time>2026-05-02T07:30:48.769Z</time></trkpt><trkpt lat="43.6707406" lon="12.3616864"><ele>687.0</ele><time>2026-05-02T07:30:49.778Z</time></trkpt><trkpt lat="43.6706579" lon="12.3617595"><ele>687.0</ele><time>2026-05-02T07:30:50.768Z</time></trkpt><trkpt lat="43.6705699" lon="12.3618151"><ele>687.0</ele><time>2026-05-02T07:30:51.777Z</time></trkpt><trkpt lat="43.6704793" lon="12.3618684"><ele>687.0</ele><time>2026-05-02T07:30:52.774Z</time></trkpt><trkpt lat="43.6703836" lon="12.3619248"><ele>687.0</ele><time>2026-05-02T07:30:53.793Z</time></trkpt><trkpt lat="43.6702775" lon="12.3619758"><ele>687.0</ele><time>2026-05-02T07:30:54.777Z</time></trkpt><trkpt lat="43.6701659" lon="12.3620199"><ele>686.5</ele><time>2026-05-02T07:30:55.788Z</time></trkpt><trkpt lat="43.6700402" lon="12.3620579"><ele>686.0</ele><time>2026-05-02T07:30:56.773Z</time></trkpt><trkpt lat="43.6699179" lon="12.3621055"><ele>685.5</ele><time>2026-05-02T07:30:57.794Z</time></trkpt><trkpt lat="43.669809" lon="12.3621519"><ele>685.0</ele><time>2026-05-02T07:30:58.774Z</time></trkpt><trkpt lat="43.6697098" lon="12.3621961"><ele>684.4</ele><time>2026-05-02T07:30:59.778Z</time></trkpt><trkpt lat="43.6696155" lon="12.3622393"><ele>683.8</ele><time>2026-05-02T07:31:00.778Z</time></trkpt><trkpt lat="43.66953" lon="12.3622802"><ele>683.2</ele><time>2026-05-02T07:31:01.787Z</time></trkpt><trkpt lat="43.6694455" lon="12.3623452"><ele>682.6</ele><time>2026-05-02T07:31:02.791Z</time></trkpt><trkpt lat="43.669359" lon="12.3624249"><ele>682.0</ele><time>2026-05-02T07:31:03.78Z</time></trkpt><trkpt lat="43.669276" lon="12.3625178"><ele>681.5</ele><time>2026-05-02T07:31:04.775Z</time></trkpt><trkpt lat="43.6692048" lon="12.3626073"><ele>681.0</ele><time>2026-05-02T07:31:05.778Z</time></trkpt><trkpt lat="43.6691464" lon="12.3626943"><ele>680.5</ele><time>2026-05-02T07:31:06.774Z</time></trkpt><trkpt lat="43.669092" lon="12.3627851"><ele>680.0</ele><time>2026-05-02T07:31:07.782Z</time></trkpt><trkpt lat="43.6690357" lon="12.3628756"><ele>679.5</ele><time>2026-05-02T07:31:08.778Z</time></trkpt><trkpt lat="43.6689755" lon="12.3629717"><ele>679.0</ele><time>2026-05-02T07:31:09.784Z</time></trkpt><trkpt lat="43.6689135" lon="12.3630696"><ele>678.6666666666667</ele><time>2026-05-02T07:31:10.777Z</time></trkpt><trkpt lat="43.6688513" lon="12.3631429"><ele>678.3333333333334</ele><time>2026-05-02T07:31:11.781Z</time></trkpt><trkpt lat="43.6687841" lon="12.3632009"><ele>678.0</ele><time>2026-05-02T07:31:12.775Z</time></trkpt><trkpt lat="43.6687132" lon="12.3632333"><ele>677.6666666666666</ele><time>2026-05-02T07:31:13.782Z</time></trkpt><trkpt lat="43.6686492" lon="12.3632451"><ele>677.3333333333333</ele><time>2026-05-02T07:31:14.781Z</time></trkpt><trkpt lat="43.668565" lon="12.3632394"><ele>677.0</ele><time>2026-05-02T07:31:15.795Z</time></trkpt><trkpt lat="43.6684759" lon="12.3632307"><ele>677.0</ele><time>2026-05-02T07:31:16.769Z</time></trkpt><trkpt lat="43.6683926" lon="12.3632416"><ele>677.0</ele><time>2026-05-02T07:31:17.782Z</time></trkpt><trkpt lat="43.6683205" lon="12.3632768"><ele>677.0</ele><time>2026-05-02T07:31:18.769Z</time></trkpt><trkpt lat="43.6682518" lon="12.3633312"><ele>677.0</ele><time>2026-05-02T07:31:19.772Z</time></trkpt><trkpt lat="43.6681826" lon="12.3634118"><ele>677.0</ele><time>2026-05-02T07:31:20.774Z</time></trkpt><trkpt lat="43.6681016" lon="12.3635128"><ele>677.0</ele><time>2026-05-02T07:31:21.775Z</time></trkpt><trkpt lat="43.6680029" lon="12.3636347"><ele>677.0</ele><time>2026-05-02T07:31:22.767Z</time></trkpt><trkpt lat="43.6679174" lon="12.363758"><ele>677.0</ele><time>2026-05-02T07:31:23.77Z</time></trkpt><trkpt lat="43.6678435" lon="12.3638719"><ele>677.0</ele><time>2026-05-02T07:31:24.766Z</time></trkpt><trkpt lat="43.6677854" lon="12.3639548"><ele>677.0</ele><time>2026-05-02T07:31:25.779Z</time></trkpt><trkpt lat="43.6677278" lon="12.3640236"><ele>677.0</ele><time>2026-05-02T07:31:26.765Z</time></trkpt><trkpt lat="43.6676735" lon="12.3640828"><ele>675.3333333333333</ele><time>2026-05-02T07:31:27.777Z</time></trkpt><trkpt lat="43.6676115" lon="12.3641164"><ele>673.6666666666666</ele><time>2026-05-02T07:31:28.781Z</time></trkpt><trkpt lat="43.6675464" lon="12.3641142"><ele>672.0</ele><time>2026-05-02T07:31:29.779Z</time></trkpt><trkpt lat="43.6674742" lon="12.3640864"><ele>670.3333333333334</ele><time>2026-05-02T07:31:30.766Z</time></trkpt><trkpt lat="43.6673936" lon="12.3640373"><ele>668.6666666666667</ele><time>2026-05-02T07:31:31.773Z</time></trkpt><trkpt lat="43.6672993" lon="12.3639829"><ele>667.0</ele><time>2026-05-02T07:31:32.779Z</time></trkpt><trkpt lat="43.667199" lon="12.3639083"><ele>665.0</ele><time>2026-05-02T07:31:33.778Z</time></trkpt><trkpt lat="43.6671032" lon="12.3638366"><ele>663.0</ele><time>2026-05-02T07:31:34.78Z</time></trkpt><trkpt lat="43.6670113" lon="12.3637699"><ele>661.0</ele><time>2026-05-02T07:31:35.798Z</time></trkpt><trkpt lat="43.6669302" lon="12.363716"><ele>659.0</ele><time>2026-05-02T07:31:36.776Z</time></trkpt><trkpt lat="43.6668591" lon="12.3636665"><ele>657.0</ele><time>2026-05-02T07:31:37.786Z</time></trkpt><trkpt lat="43.6668021" lon="12.3636047"><ele>657.0</ele><time>2026-05-02T07:31:38.785Z</time></trkpt><trkpt lat="43.6667601" lon="12.3635264"><ele>657.0</ele><time>2026-05-02T07:31:39.782Z</time></trkpt><trkpt lat="43.6667224" lon="12.3634403"><ele>657.0</ele><time>2026-05-02T07:31:40.773Z</time></trkpt><trkpt lat="43.6666964" lon="12.3633398"><ele>657.0</ele><time>2026-05-02T07:31:41.79Z</time></trkpt><trkpt lat="43.6666699" lon="12.3632094"><ele>657.0</ele><time>2026-05-02T07:31:42.787Z</time></trkpt><trkpt lat="43.6666449" lon="12.3630666"><ele>657.0</ele><time>2026-05-02T07:31:43.784Z</time></trkpt><trkpt lat="43.6666232" lon="12.3629176"><ele>657.5</ele><time>2026-05-02T07:31:44.788Z</time></trkpt><trkpt lat="43.6666055" lon="12.3627875"><ele>658.0</ele><time>2026-05-02T07:31:45.795Z</time></trkpt><trkpt lat="43.6665834" lon="12.3626816"><ele>658.5</ele><time>2026-05-02T07:31:46.77Z</time></trkpt><trkpt lat="43.6665513" lon="12.3625825"><ele>659.0</ele><time>2026-05-02T07:31:47.769Z</time></trkpt><trkpt lat="43.6665059" lon="12.3624974"><ele>659.5</ele><time>2026-05-02T07:31:48.782Z</time></trkpt><trkpt lat="43.6664383" lon="12.3624438"><ele>660.0</ele><time>2026-05-02T07:31:49.778Z</time></trkpt><trkpt lat="43.6663622" lon="12.3624138"><ele>660.0</ele><time>2026-05-02T07:31:50.782Z</time></trkpt><trkpt lat="43.6662798" lon="12.3624192"><ele>660.0</ele><time>2026-05-02T07:31:51.785Z</time></trkpt><trkpt lat="43.6661964" lon="12.3624563"><ele>660.0</ele><time>2026-05-02T07:31:52.773Z</time></trkpt><trkpt lat="43.6661249" lon="12.362522"><ele>660.0</ele><time>2026-05-02T07:31:53.779Z</time></trkpt><trkpt lat="43.6660826" lon="12.36261"><ele>660.0</ele><time>2026-05-02T07:31:54.78Z</time></trkpt><trkpt lat="43.6660602" lon="12.3627147"><ele>660.0</ele><time>2026-05-02T07:31:55.774Z</time></trkpt><trkpt lat="43.6660583" lon="12.3628453"><ele>659.4</ele><time>2026-05-02T07:31:56.785Z</time></trkpt><trkpt lat="43.6660733" lon="12.3629823"><ele>658.8</ele><time>2026-05-02T07:31:57.789Z</time></trkpt><trkpt lat="43.6660995" lon="12.3631323"><ele>658.2</ele><time>2026-05-02T07:31:58.785Z</time></trkpt><trkpt lat="43.6661218" lon="12.3632755"><ele>657.6</ele><time>2026-05-02T07:31:59.798Z</time></trkpt><trkpt lat="43.666134" lon="12.3633988"><ele>657.0</ele><time>2026-05-02T07:32:00.778Z</time></trkpt><trkpt lat="43.6661388" lon="12.363508"><ele>657.0</ele><time>2026-05-02T07:32:01.789Z</time></trkpt><trkpt lat="43.6661426" lon="12.3636092"><ele>657.0</ele><time>2026-05-02T07:32:02.778Z</time></trkpt><trkpt lat="43.6661271" lon="12.3637031"><ele>657.0</ele><time>2026-05-02T07:32:03.788Z</time></trkpt><trkpt lat="43.6660861" lon="12.3637844"><ele>657.0</ele><time>2026-05-02T07:32:04.775Z</time></trkpt><trkpt lat="43.6660266" lon="12.3638397"><ele>657.0</ele><time>2026-05-02T07:32:05.784Z</time></trkpt><trkpt lat="43.6659657" lon="12.3638822"><ele>657.0</ele><time>2026-05-02T07:32:06.762Z</time></trkpt><trkpt lat="43.6659066" lon="12.3639214"><ele>657.0</ele><time>2026-05-02T07:32:07.782Z</time></trkpt><trkpt lat="43.6658476" lon="12.3639538"><ele>653.8333333333334</ele><time>2026-05-02T07:32:08.775Z</time></trkpt><trkpt lat="43.6657893" lon="12.3639869"><ele>650.6666666666666</ele><time>2026-05-02T07:32:09.785Z</time></trkpt><trkpt lat="43.6657298" lon="12.364031"><ele>647.5</ele><time>2026-05-02T07:32:10.774Z</time></trkpt><trkpt lat="43.6656618" lon="12.364089"><ele>644.3333333333333</ele><time>2026-05-02T07:32:11.778Z</time></trkpt><trkpt lat="43.6655821" lon="12.3641351"><ele>641.1666666666666</ele><time>2026-05-02T07:32:12.775Z</time></trkpt><trkpt lat="43.665491" lon="12.3641705"><ele>638.0</ele><time>2026-05-02T07:32:13.775Z</time></trkpt><trkpt lat="43.6653846" lon="12.3641937"><ele>635.1999999999999</ele><time>2026-05-02T07:32:14.778Z</time></trkpt><trkpt lat="43.6652703" lon="12.3642113"><ele>632.4</ele><time>2026-05-02T07:32:15.781Z</time></trkpt><trkpt lat="43.6651582" lon="12.3642227"><ele>629.5999999999999</ele><time>2026-05-02T07:32:16.78Z</time></trkpt><trkpt lat="43.665052" lon="12.3642408"><ele>626.8</ele><time>2026-05-02T07:32:17.776Z</time></trkpt><trkpt lat="43.6649408" lon="12.3642573"><ele>624.0</ele><time>2026-05-02T07:32:18.775Z</time></trkpt><trkpt lat="43.6648365" lon="12.3642728"><ele>624.0</ele><time>2026-05-02T07:32:19.784Z</time></trkpt><trkpt lat="43.6647484" lon="12.3642988"><ele>624.0</ele><time>2026-05-02T07:32:20.773Z</time></trkpt><trkpt lat="43.664668" lon="12.3643308"><ele>624.0</ele><time>2026-05-02T07:32:21.78Z</time></trkpt><trkpt lat="43.6645985" lon="12.3643555"><ele>624.0</ele><time>2026-05-02T07:32:22.773Z</time></trkpt><trkpt lat="43.6644863" lon="12.3643733"><ele>624.0</ele><time>2026-05-02T07:32:24.765Z</time></trkpt><trkpt lat="43.6644334" lon="12.3642755"><ele>624.0</ele><time>2026-05-02T07:32:26.785Z</time></trkpt><trkpt lat="43.6645004" lon="12.3641469"><ele>624.0</ele><time>2026-05-02T07:32:28.773Z</time></trkpt><trkpt lat="43.6645585" lon="12.3640809"><ele>624.0</ele><time>2026-05-02T07:32:29.786Z</time></trkpt><trkpt lat="43.6646335" lon="12.3639873"><ele>624.0</ele><time>2026-05-02T07:32:30.772Z</time></trkpt><trkpt lat="43.6647092" lon="12.3638808"><ele>624.0</ele><time>2026-05-02T07:32:31.803Z</time></trkpt><trkpt lat="43.6647876" lon="12.3637646"><ele>624.0</ele><time>2026-05-02T07:32:32.782Z</time></trkpt><trkpt lat="43.6648505" lon="12.3636465"><ele>621.8</ele><time>2026-05-02T07:32:33.781Z</time></trkpt><trkpt lat="43.6649051" lon="12.3635268"><ele>619.5999999999999</ele><time>2026-05-02T07:32:34.78Z</time></trkpt><trkpt lat="43.6649512" lon="12.3634129"><ele>617.4</ele><time>2026-05-02T07:32:35.766Z</time></trkpt><trkpt lat="43.6649843" lon="12.3633104"><ele>615.1999999999999</ele><time>2026-05-02T07:32:36.776Z</time></trkpt><trkpt lat="43.6650237" lon="12.3632053"><ele>613.0</ele><time>2026-05-02T07:32:37.788Z</time></trkpt><trkpt lat="43.6650581" lon="12.3630931"><ele>611.8333333333334</ele><time>2026-05-02T07:32:38.773Z</time></trkpt><trkpt lat="43.6650764" lon="12.3629698"><ele>610.6666666666667</ele><time>2026-05-02T07:32:39.787Z</time></trkpt><trkpt lat="43.6650862" lon="12.3628488"><ele>609.5</ele><time>2026-05-02T07:32:40.768Z</time></trkpt><trkpt lat="43.6650885" lon="12.3627373"><ele>608.3333333333334</ele><time>2026-05-02T07:32:41.773Z</time></trkpt><trkpt lat="43.6650769" lon="12.3626215"><ele>607.1666666666666</ele><time>2026-05-02T07:32:42.772Z</time></trkpt><trkpt lat="43.6650541" lon="12.3625056"><ele>606.0</ele><time>2026-05-02T07:32:43.77Z</time></trkpt><trkpt lat="43.6650126" lon="12.3623631"><ele>606.0</ele><time>2026-05-02T07:32:44.783Z</time></trkpt><trkpt lat="43.6649655" lon="12.3622221"><ele>606.0</ele><time>2026-05-02T07:32:45.779Z</time></trkpt><trkpt lat="43.6649181" lon="12.3620895"><ele>606.0</ele><time>2026-05-02T07:32:46.772Z</time></trkpt><trkpt lat="43.6648718" lon="12.361961"><ele>606.0</ele><time>2026-05-02T07:32:47.804Z</time></trkpt><trkpt lat="43.6648141" lon="12.3618377"><ele>606.0</ele><time>2026-05-02T07:32:48.776Z</time></trkpt><trkpt lat="43.664756" lon="12.361717"><ele>607.2</ele><time>2026-05-02T07:32:49.785Z</time></trkpt><trkpt lat="43.6646924" lon="12.3616017"><ele>608.4000000000001</ele><time>2026-05-02T07:32:50.774Z</time></trkpt><trkpt lat="43.6646229" lon="12.3614902"><ele>609.6</ele><time>2026-05-02T07:32:51.799Z</time></trkpt><trkpt lat="43.6645593" lon="12.3613892"><ele>610.8000000000001</ele><time>2026-05-02T07:32:52.771Z</time></trkpt><trkpt lat="43.6644879" lon="12.3613"><ele>612.0</ele><time>2026-05-02T07:32:53.786Z</time></trkpt><trkpt lat="43.6644173" lon="12.361217"><ele>607.3333333333334</ele><time>2026-05-02T07:32:54.781Z</time></trkpt><trkpt lat="43.664342" lon="12.3611388"><ele>602.6666666666666</ele><time>2026-05-02T07:32:55.783Z</time></trkpt><trkpt lat="43.6642691" lon="12.3610713"><ele>598.0</ele><time>2026-05-02T07:32:56.785Z</time></trkpt><trkpt lat="43.6642033" lon="12.3610052"><ele>593.3333333333333</ele><time>2026-05-02T07:32:57.798Z</time></trkpt><trkpt lat="43.6641446" lon="12.3609365"><ele>588.6666666666666</ele><time>2026-05-02T07:32:58.777Z</time></trkpt><trkpt lat="43.664098" lon="12.3608594"><ele>584.0</ele><time>2026-05-02T07:32:59.766Z</time></trkpt><trkpt lat="43.6640697" lon="12.3607726"><ele>584.0</ele><time>2026-05-02T07:33:00.771Z</time></trkpt><trkpt lat="43.6640582" lon="12.360681"><ele>584.0</ele><time>2026-05-02T07:33:01.789Z</time></trkpt><trkpt lat="43.6640674" lon="12.360591"><ele>584.0</ele><time>2026-05-02T07:33:02.783Z</time></trkpt><trkpt lat="43.6640858" lon="12.3605075"><ele>584.0</ele><time>2026-05-02T07:33:03.781Z</time></trkpt><trkpt lat="43.6641108" lon="12.3604238"><ele>584.0</ele><time>2026-05-02T07:33:04.777Z</time></trkpt><trkpt lat="43.6641367" lon="12.3603295"><ele>584.0</ele><time>2026-05-02T07:33:05.791Z</time></trkpt><trkpt lat="43.6641556" lon="12.3602295"><ele>584.0</ele><time>2026-05-02T07:33:06.781Z</time></trkpt><trkpt lat="43.6641722" lon="12.3601222"><ele>583.8</ele><time>2026-05-02T07:33:07.807Z</time></trkpt><trkpt lat="43.6641742" lon="12.360001"><ele>583.5999999999999</ele><time>2026-05-02T07:33:08.774Z</time></trkpt><trkpt lat="43.6641545" lon="12.3598786"><ele>583.4</ele><time>2026-05-02T07:33:09.797Z</time></trkpt><trkpt lat="43.6641149" lon="12.3597555"><ele>583.1999999999999</ele><time>2026-05-02T07:33:10.779Z</time></trkpt><trkpt lat="43.6640716" lon="12.3596469"><ele>583.0</ele><time>2026-05-02T07:33:11.778Z</time></trkpt><trkpt lat="43.6640135" lon="12.359545"><ele>583.0</ele><time>2026-05-02T07:33:12.778Z</time></trkpt><trkpt lat="43.663939" lon="12.3594482"><ele>583.0</ele><time>2026-05-02T07:33:13.779Z</time></trkpt><trkpt lat="43.6638538" lon="12.3593635"><ele>583.0</ele><time>2026-05-02T07:33:14.772Z</time></trkpt><trkpt lat="43.6637693" lon="12.3592903"><ele>583.0</ele><time>2026-05-02T07:33:15.787Z</time></trkpt><trkpt lat="43.6636873" lon="12.3592242"><ele>583.0</ele><time>2026-05-02T07:33:16.762Z</time></trkpt><trkpt lat="43.663614" lon="12.359155"><ele>579.4</ele><time>2026-05-02T07:33:17.788Z</time></trkpt><trkpt lat="43.6635467" lon="12.3590746"><ele>575.8</ele><time>2026-05-02T07:33:18.771Z</time></trkpt><trkpt lat="43.6634934" lon="12.358978"><ele>572.2</ele><time>2026-05-02T07:33:19.787Z</time></trkpt><trkpt lat="43.6634415" lon="12.3588762"><ele>568.6</ele><time>2026-05-02T07:33:20.773Z</time></trkpt><trkpt lat="43.6633879" lon="12.3587715"><ele>565.0</ele><time>2026-05-02T07:33:21.799Z</time></trkpt><trkpt lat="43.6633374" lon="12.3586685"><ele>565.0</ele><time>2026-05-02T07:33:22.778Z</time></trkpt><trkpt lat="43.663298" lon="12.3585679"><ele>565.0</ele><time>2026-05-02T07:33:23.782Z</time></trkpt><trkpt lat="43.663272" lon="12.3584612"><ele>565.0</ele><time>2026-05-02T07:33:24.766Z</time></trkpt><trkpt lat="43.663267" lon="12.3583484"><ele>565.0</ele><time>2026-05-02T07:33:25.778Z</time></trkpt><trkpt lat="43.6632801" lon="12.3582247"><ele>565.0</ele><time>2026-05-02T07:33:26.781Z</time></trkpt><trkpt lat="43.6632993" lon="12.3580744"><ele>565.0</ele><time>2026-05-02T07:33:27.771Z</time></trkpt><trkpt lat="43.6633135" lon="12.3579129"><ele>563.2</ele><time>2026-05-02T07:33:28.771Z</time></trkpt><trkpt lat="43.6633301" lon="12.357742"><ele>561.4</ele><time>2026-05-02T07:33:29.785Z</time></trkpt><trkpt lat="43.6633419" lon="12.3575802"><ele>559.6</ele><time>2026-05-02T07:33:30.773Z</time></trkpt><trkpt lat="43.6633489" lon="12.3574291"><ele>557.8</ele><time>2026-05-02T07:33:31.786Z</time></trkpt><trkpt lat="43.6633538" lon="12.3572953"><ele>556.0</ele><time>2026-05-02T07:33:32.771Z</time></trkpt><trkpt lat="43.6633615" lon="12.3571634"><ele>553.2</ele><time>2026-05-02T07:33:33.795Z</time></trkpt><trkpt lat="43.6633804" lon="12.3570489"><ele>550.4000000000001</ele><time>2026-05-02T07:33:34.776Z</time></trkpt><trkpt lat="43.6634071" lon="12.3569337"><ele>547.6</ele><time>2026-05-02T07:33:35.783Z</time></trkpt><trkpt lat="43.6634404" lon="12.356821"><ele>544.8000000000001</ele><time>2026-05-02T07:33:36.776Z</time></trkpt><trkpt lat="43.6634802" lon="12.3566984"><ele>542.0</ele><time>2026-05-02T07:33:37.791Z</time></trkpt><trkpt lat="43.6635332" lon="12.356567"><ele>542.0</ele><time>2026-05-02T07:33:38.761Z</time></trkpt><trkpt lat="43.6635854" lon="12.356424"><ele>542.0</ele><time>2026-05-02T07:33:39.782Z</time></trkpt><trkpt lat="43.6636291" lon="12.3562881"><ele>542.0</ele><time>2026-05-02T07:33:40.782Z</time></trkpt><trkpt lat="43.6636655" lon="12.3561612"><ele>542.0</ele><time>2026-05-02T07:33:41.795Z</time></trkpt><trkpt lat="43.6637072" lon="12.3560503"><ele>542.0</ele><time>2026-05-02T07:33:42.768Z</time></trkpt><trkpt lat="43.6637568" lon="12.3559445"><ele>543.0</ele><time>2026-05-02T07:33:43.779Z</time></trkpt><trkpt lat="43.6638147" lon="12.3558596"><ele>544.0</ele><time>2026-05-02T07:33:44.77Z</time></trkpt><trkpt lat="43.6638837" lon="12.3557974"><ele>545.0</ele><time>2026-05-02T07:33:45.794Z</time></trkpt><trkpt lat="43.6639585" lon="12.3557478"><ele>546.0</ele><time>2026-05-02T07:33:46.772Z</time></trkpt><trkpt lat="43.6640248" lon="12.3556838"><ele>547.0</ele><time>2026-05-02T07:33:47.782Z</time></trkpt><trkpt lat="43.6640713" lon="12.3555993"><ele>548.0</ele><time>2026-05-02T07:33:48.776Z</time></trkpt><trkpt lat="43.6640903" lon="12.3554978"><ele>545.0</ele><time>2026-05-02T07:33:49.787Z</time></trkpt><trkpt lat="43.6640851" lon="12.3553852"><ele>542.0</ele><time>2026-05-02T07:33:50.768Z</time></trkpt><trkpt lat="43.664074" lon="12.3552589"><ele>539.0</ele><time>2026-05-02T07:33:51.788Z</time></trkpt><trkpt lat="43.6640644" lon="12.3551063"><ele>536.0</ele><time>2026-05-02T07:33:52.788Z</time></trkpt><trkpt lat="43.6640477" lon="12.3549526"><ele>533.0</ele><time>2026-05-02T07:33:53.779Z</time></trkpt><trkpt lat="43.6640437" lon="12.3548158"><ele>530.8333333333333</ele><time>2026-05-02T07:33:54.771Z</time></trkpt><trkpt lat="43.6640532" lon="12.3547035"><ele>528.6666666666666</ele><time>2026-05-02T07:33:55.792Z</time></trkpt><trkpt lat="43.6640733" lon="12.3546152"><ele>526.5</ele><time>2026-05-02T07:33:56.765Z</time></trkpt><trkpt lat="43.6641851" lon="12.3545417"><ele>524.3333333333334</ele><time>2026-05-02T07:33:58.779Z</time></trkpt><trkpt lat="43.6642545" lon="12.3545654"><ele>522.1666666666667</ele><time>2026-05-02T07:33:59.792Z</time></trkpt><trkpt lat="43.6643252" lon="12.354615"><ele>520.0</ele><time>2026-05-02T07:34:00.771Z</time></trkpt><trkpt lat="43.6643947" lon="12.3546626"><ele>521.1666666666667</ele><time>2026-05-02T07:34:01.789Z</time></trkpt><trkpt lat="43.6644594" lon="12.3546703"><ele>522.3333333333334</ele><time>2026-05-02T07:34:02.772Z</time></trkpt><trkpt lat="43.6645178" lon="12.3546327"><ele>523.5</ele><time>2026-05-02T07:34:03.806Z</time></trkpt><trkpt lat="43.6645697" lon="12.3545585"><ele>524.6666666666666</ele><time>2026-05-02T07:34:04.777Z</time></trkpt><trkpt lat="43.6646158" lon="12.3544499"><ele>525.8333333333333</ele><time>2026-05-02T07:34:05.776Z</time></trkpt><trkpt lat="43.6646458" lon="12.3543208"><ele>527.0</ele><time>2026-05-02T07:34:06.772Z</time></trkpt><trkpt lat="43.6646726" lon="12.3541942"><ele>527.0</ele><time>2026-05-02T07:34:07.788Z</time></trkpt><trkpt lat="43.6647013" lon="12.3540697"><ele>527.0</ele><time>2026-05-02T07:34:08.776Z</time></trkpt><trkpt lat="43.6647233" lon="12.3539433"><ele>527.0</ele><time>2026-05-02T07:34:09.8Z</time></trkpt><trkpt lat="43.6647415" lon="12.3538334"><ele>527.0</ele><time>2026-05-02T07:34:10.772Z</time></trkpt><trkpt lat="43.6647557" lon="12.3537434"><ele>527.0</ele><time>2026-05-02T07:34:11.785Z</time></trkpt><trkpt lat="43.6647786" lon="12.3536606"><ele>527.0</ele><time>2026-05-02T07:34:12.772Z</time></trkpt><trkpt lat="43.6648167" lon="12.3535891"><ele>525.5</ele><time>2026-05-02T07:34:13.79Z</time></trkpt><trkpt lat="43.6648702" lon="12.3535377"><ele>524.0</ele><time>2026-05-02T07:34:14.776Z</time></trkpt><trkpt lat="43.6649407" lon="12.3535133"><ele>522.5</ele><time>2026-05-02T07:34:15.78Z</time></trkpt><trkpt lat="43.6650199" lon="12.3535026"><ele>521.0</ele><time>2026-05-02T07:34:16.778Z</time></trkpt><trkpt lat="43.665121" lon="12.3534935"><ele>519.5</ele><time>2026-05-02T07:34:17.785Z</time></trkpt><trkpt lat="43.6652242" lon="12.3534641"><ele>518.0</ele><time>2026-05-02T07:34:18.774Z</time></trkpt><trkpt lat="43.6653199" lon="12.3534176"><ele>518.0</ele><time>2026-05-02T07:34:19.798Z</time></trkpt><trkpt lat="43.6654043" lon="12.3533667"><ele>518.0</ele><time>2026-05-02T07:34:20.773Z</time></trkpt><trkpt lat="43.6654769" lon="12.3533109"><ele>518.0</ele><time>2026-05-02T07:34:21.78Z</time></trkpt><trkpt lat="43.6655338" lon="12.3532398"><ele>518.0</ele><time>2026-05-02T07:34:22.785Z</time></trkpt><trkpt lat="43.665571" lon="12.353159"><ele>518.0</ele><time>2026-05-02T07:34:23.771Z</time></trkpt><trkpt lat="43.6655843" lon="12.3530542"><ele>518.0</ele><time>2026-05-02T07:34:24.775Z</time></trkpt><trkpt lat="43.6655782" lon="12.3529305"><ele>516.8</ele><time>2026-05-02T07:34:25.807Z</time></trkpt><trkpt lat="43.6655752" lon="12.3527926"><ele>515.5999999999999</ele><time>2026-05-02T07:34:26.776Z</time></trkpt><trkpt lat="43.6655801" lon="12.3526606"><ele>514.4000000000001</ele><time>2026-05-02T07:34:27.788Z</time></trkpt><trkpt lat="43.6655967" lon="12.3525191"><ele>513.2</ele><time>2026-05-02T07:34:28.781Z</time></trkpt><trkpt lat="43.6656216" lon="12.3523827"><ele>512.0</ele><time>2026-05-02T07:34:29.793Z</time></trkpt><trkpt lat="43.6656472" lon="12.3522644"><ele>511.3333333333333</ele><time>2026-05-02T07:34:30.773Z</time></trkpt><trkpt lat="43.6656621" lon="12.352153"><ele>510.66666666666663</ele><time>2026-05-02T07:34:31.794Z</time></trkpt><trkpt lat="43.6656603" lon="12.3520406"><ele>510.0</ele><time>2026-05-02T07:34:32.782Z</time></trkpt><trkpt lat="43.6656365" lon="12.3519427"><ele>509.33333333333337</ele><time>2026-05-02T07:34:33.778Z</time></trkpt><trkpt lat="43.6655917" lon="12.3518466"><ele>508.6666666666667</ele><time>2026-05-02T07:34:34.78Z</time></trkpt><trkpt lat="43.6655271" lon="12.3517649"><ele>508.0</ele><time>2026-05-02T07:34:35.782Z</time></trkpt><trkpt lat="43.6654426" lon="12.3517158"><ele>508.0</ele><time>2026-05-02T07:34:36.774Z</time></trkpt><trkpt lat="43.6653535" lon="12.3517018"><ele>507.99999999999994</ele><time>2026-05-02T07:34:37.785Z</time></trkpt><trkpt lat="43.6652632" lon="12.351721"><ele>507.99999999999994</ele><time>2026-05-02T07:34:38.779Z</time></trkpt><trkpt lat="43.6651732" lon="12.351765"><ele>508.0</ele><time>2026-05-02T07:34:39.781Z</time></trkpt><trkpt lat="43.665077" lon="12.3518031"><ele>508.0</ele><time>2026-05-02T07:34:40.783Z</time></trkpt><trkpt lat="43.6649729" lon="12.3518398"><ele>509.0</ele><time>2026-05-02T07:34:41.781Z</time></trkpt><trkpt lat="43.6648755" lon="12.3518739"><ele>509.99999999999994</ele><time>2026-05-02T07:34:42.774Z</time></trkpt><trkpt lat="43.6647806" lon="12.3519142"><ele>510.99999999999994</ele><time>2026-05-02T07:34:43.778Z</time></trkpt><trkpt lat="43.664688" lon="12.3519375"><ele>512.0</ele><time>2026-05-02T07:34:44.766Z</time></trkpt><trkpt lat="43.6645894" lon="12.351938"><ele>513.0</ele><time>2026-05-02T07:34:45.793Z</time></trkpt><trkpt lat="43.6644862" lon="12.3519134"><ele>516.1999999999999</ele><time>2026-05-02T07:34:46.782Z</time></trkpt><trkpt lat="43.6643839" lon="12.3518671"><ele>519.4</ele><time>2026-05-02T07:34:47.789Z</time></trkpt><trkpt lat="43.6642847" lon="12.3518219"><ele>522.5999999999999</ele><time>2026-05-02T07:34:48.771Z</time></trkpt><trkpt lat="43.66418" lon="12.3517912"><ele>525.8</ele><time>2026-05-02T07:34:49.772Z</time></trkpt><trkpt lat="43.6640755" lon="12.3517786"><ele>529.0</ele><time>2026-05-02T07:34:50.79Z</time></trkpt><trkpt lat="43.663976" lon="12.35179"><ele>529.0</ele><time>2026-05-02T07:34:51.777Z</time></trkpt><trkpt lat="43.6638861" lon="12.3518213"><ele>529.0</ele><time>2026-05-02T07:34:52.77Z</time></trkpt><trkpt lat="43.6638112" lon="12.3518601"><ele>529.0</ele><time>2026-05-02T07:34:53.786Z</time></trkpt><trkpt lat="43.6637368" lon="12.3518874"><ele>529.0</ele><time>2026-05-02T07:34:54.775Z</time></trkpt><trkpt lat="43.6636616" lon="12.3519033"><ele>529.0</ele><time>2026-05-02T07:34:55.779Z</time></trkpt><trkpt lat="43.6635822" lon="12.351909"><ele>529.0</ele><time>2026-05-02T07:34:56.786Z</time></trkpt><trkpt lat="43.6634967" lon="12.3519008"><ele>531.8</ele><time>2026-05-02T07:34:57.76Z</time></trkpt><trkpt lat="43.6634021" lon="12.3518769"><ele>534.5999999999999</ele><time>2026-05-02T07:34:58.754Z</time></trkpt><trkpt lat="43.6632975" lon="12.3518622"><ele>537.4</ele><time>2026-05-02T07:34:59.767Z</time></trkpt><trkpt lat="43.6631851" lon="12.3518573"><ele>540.1999999999999</ele><time>2026-05-02T07:35:00.77Z</time></trkpt><trkpt lat="43.6630725" lon="12.3518611"><ele>543.0</ele><time>2026-05-02T07:35:01.788Z</time></trkpt><trkpt lat="43.6629719" lon="12.3518521"><ele>543.0</ele><time>2026-05-02T07:35:02.794Z</time></trkpt><trkpt lat="43.662879" lon="12.3518287"><ele>543.0</ele><time>2026-05-02T07:35:03.782Z</time></trkpt><trkpt lat="43.6627798" lon="12.3517794"><ele>543.0</ele><time>2026-05-02T07:35:04.768Z</time></trkpt><trkpt lat="43.6626831" lon="12.3517262"><ele>543.0</ele><time>2026-05-02T07:35:05.769Z</time></trkpt><trkpt lat="43.6625878" lon="12.3516644"><ele>543.0</ele><time>2026-05-02T07:35:06.766Z</time></trkpt><trkpt lat="43.662497" lon="12.351589"><ele>541.4</ele><time>2026-05-02T07:35:07.771Z</time></trkpt><trkpt lat="43.662419" lon="12.3515016"><ele>539.8</ele><time>2026-05-02T07:35:08.777Z</time></trkpt><trkpt lat="43.6623518" lon="12.3514003"><ele>538.2</ele><time>2026-05-02T07:35:09.789Z</time></trkpt><trkpt lat="43.6622868" lon="12.3512946"><ele>536.6</ele><time>2026-05-02T07:35:10.78Z</time></trkpt><trkpt lat="43.6622084" lon="12.3512045"><ele>535.0</ele><time>2026-05-02T07:35:11.774Z</time></trkpt><trkpt lat="43.6621194" lon="12.3511408"><ele>537.2</ele><time>2026-05-02T07:35:12.772Z</time></trkpt><trkpt lat="43.6620268" lon="12.3510986"><ele>539.4</ele><time>2026-05-02T07:35:13.777Z</time></trkpt><trkpt lat="43.6619298" lon="12.3510638"><ele>541.6</ele><time>2026-05-02T07:35:14.779Z</time></trkpt><trkpt lat="43.6618275" lon="12.3510484"><ele>543.8</ele><time>2026-05-02T07:35:15.775Z</time></trkpt><trkpt lat="43.6617221" lon="12.3510514"><ele>546.0</ele><time>2026-05-02T07:35:16.774Z</time></trkpt><trkpt lat="43.6616192" lon="12.3510756"><ele>546.0</ele><time>2026-05-02T07:35:17.788Z</time></trkpt><trkpt lat="43.6615311" lon="12.3511145"><ele>546.0</ele><time>2026-05-02T07:35:18.775Z</time></trkpt><trkpt lat="43.6614713" lon="12.3511744"><ele>546.0</ele><time>2026-05-02T07:35:19.783Z</time></trkpt><trkpt lat="43.6614363" lon="12.3512612"><ele>546.0</ele><time>2026-05-02T07:35:20.775Z</time></trkpt><trkpt lat="43.6614285" lon="12.3513831"><ele>546.0</ele><time>2026-05-02T07:35:21.769Z</time></trkpt><trkpt lat="43.6614403" lon="12.3515042"><ele>546.0</ele><time>2026-05-02T07:35:22.772Z</time></trkpt><trkpt lat="43.6614539" lon="12.3516327"><ele>543.0</ele><time>2026-05-02T07:35:23.787Z</time></trkpt><trkpt lat="43.661455" lon="12.3517516"><ele>540.0</ele><time>2026-05-02T07:35:24.782Z</time></trkpt><trkpt lat="43.6614373" lon="12.3518764"><ele>537.0</ele><time>2026-05-02T07:35:25.778Z</time></trkpt><trkpt lat="43.6614161" lon="12.3520039"><ele>534.0</ele><time>2026-05-02T07:35:26.776Z</time></trkpt><trkpt lat="43.6614021" lon="12.3521331"><ele>531.0</ele><time>2026-05-02T07:35:27.784Z</time></trkpt><trkpt lat="43.6614145" lon="12.3522451"><ele>528.0</ele><time>2026-05-02T07:35:28.777Z</time></trkpt><trkpt lat="43.6614531" lon="12.3523224"><ele>526.6666666666666</ele><time>2026-05-02T07:35:29.78Z</time></trkpt><trkpt lat="43.661499" lon="12.3523824"><ele>525.3333333333334</ele><time>2026-05-02T07:35:30.775Z</time></trkpt><trkpt lat="43.6615584" lon="12.3524899"><ele>524.0</ele><time>2026-05-02T07:35:32.776Z</time></trkpt><trkpt lat="43.6615436" lon="12.3526039"><ele>522.6666666666667</ele><time>2026-05-02T07:35:33.773Z</time></trkpt><trkpt lat="43.661511" lon="12.3527"><ele>521.3333333333334</ele><time>2026-05-02T07:35:34.78Z</time></trkpt><trkpt lat="43.661452" lon="12.3527749"><ele>520.0</ele><time>2026-05-02T07:35:35.782Z</time></trkpt><trkpt lat="43.6613549" lon="12.3528253"><ele>520.0</ele><time>2026-05-02T07:35:36.769Z</time></trkpt><trkpt lat="43.6612465" lon="12.3528707"><ele>520.0</ele><time>2026-05-02T07:35:37.771Z</time></trkpt><trkpt lat="43.6611312" lon="12.352911"><ele>520.0</ele><time>2026-05-02T07:35:38.773Z</time></trkpt><trkpt lat="43.6610149" lon="12.3529583"><ele>520.0</ele><time>2026-05-02T07:35:39.774Z</time></trkpt><trkpt lat="43.6609041" lon="12.3530072"><ele>521.0</ele><time>2026-05-02T07:35:40.77Z</time></trkpt><trkpt lat="43.6608068" lon="12.3530594"><ele>522.0</ele><time>2026-05-02T07:35:41.791Z</time></trkpt><trkpt lat="43.6607241" lon="12.353117"><ele>523.0</ele><time>2026-05-02T07:35:42.777Z</time></trkpt><trkpt lat="43.6606377" lon="12.3531884"><ele>524.0</ele><time>2026-05-02T07:35:43.782Z</time></trkpt><trkpt lat="43.660551" lon="12.3532979"><ele>525.0</ele><time>2026-05-02T07:35:44.775Z</time></trkpt><trkpt lat="43.6604656" lon="12.3534254"><ele>525.0</ele><time>2026-05-02T07:35:45.786Z</time></trkpt><trkpt lat="43.6603887" lon="12.3535672"><ele>525.0</ele><time>2026-05-02T07:35:46.78Z</time></trkpt><trkpt lat="43.6603242" lon="12.3536968"><ele>525.0</ele><time>2026-05-02T07:35:47.785Z</time></trkpt><trkpt lat="43.6602622" lon="12.3538085"><ele>525.0</ele><time>2026-05-02T07:35:48.771Z</time></trkpt><trkpt lat="43.6601765" lon="12.353905"><ele>524.0</ele><time>2026-05-02T07:35:49.801Z</time></trkpt><trkpt lat="43.660085" lon="12.3539899"><ele>523.0</ele><time>2026-05-02T07:35:50.769Z</time></trkpt><trkpt lat="43.6599978" lon="12.3540495"><ele>522.0</ele><time>2026-05-02T07:35:51.788Z</time></trkpt><trkpt lat="43.6599216" lon="12.354123"><ele>521.0</ele><time>2026-05-02T07:35:52.771Z</time></trkpt><trkpt lat="43.6598342" lon="12.3541903"><ele>520.0</ele><time>2026-05-02T07:35:53.792Z</time></trkpt><trkpt lat="43.6597342" lon="12.3542368"><ele>520.0</ele><time>2026-05-02T07:35:54.771Z</time></trkpt><trkpt lat="43.6596372" lon="12.3542834"><ele>520.0</ele><time>2026-05-02T07:35:55.78Z</time></trkpt><trkpt lat="43.6595534" lon="12.3543526"><ele>520.0</ele><time>2026-05-02T07:35:56.78Z</time></trkpt><trkpt lat="43.6594834" lon="12.354438"><ele>520.0</ele><time>2026-05-02T07:35:57.78Z</time></trkpt><trkpt lat="43.6594184" lon="12.3545164"><ele>520.0</ele><time>2026-05-02T07:35:58.77Z</time></trkpt><trkpt lat="43.6593575" lon="12.3545928"><ele>520.6</ele><time>2026-05-02T07:35:59.794Z</time></trkpt><trkpt lat="43.6592883" lon="12.3546395"><ele>521.2</ele><time>2026-05-02T07:36:00.768Z</time></trkpt><trkpt lat="43.6592136" lon="12.3546609"><ele>521.8</ele><time>2026-05-02T07:36:01.77Z</time></trkpt><trkpt lat="43.6591268" lon="12.3546762"><ele>522.4</ele><time>2026-05-02T07:36:02.771Z</time></trkpt><trkpt lat="43.6590263" lon="12.3546966"><ele>523.0</ele><time>2026-05-02T07:36:03.785Z</time></trkpt><trkpt lat="43.6589119" lon="12.3547001"><ele>523.0</ele><time>2026-05-02T07:36:04.797Z</time></trkpt><trkpt lat="43.6588077" lon="12.3546942"><ele>523.0</ele><time>2026-05-02T07:36:05.785Z</time></trkpt><trkpt lat="43.6586923" lon="12.3546823"><ele>523.0</ele><time>2026-05-02T07:36:06.762Z</time></trkpt><trkpt lat="43.6585789" lon="12.3547"><ele>523.0</ele><time>2026-05-02T07:36:07.776Z</time></trkpt><trkpt lat="43.6584594" lon="12.354715"><ele>518.25</ele><time>2026-05-02T07:36:08.777Z</time></trkpt><trkpt lat="43.6583455" lon="12.3547354"><ele>513.5</ele><time>2026-05-02T07:36:09.79Z</time></trkpt><trkpt lat="43.6582334" lon="12.3547565"><ele>508.75</ele><time>2026-05-02T07:36:10.775Z</time></trkpt><trkpt lat="43.6581218" lon="12.3548094"><ele>504.0</ele><time>2026-05-02T07:36:11.794Z</time></trkpt><trkpt lat="43.6580133" lon="12.3548784"><ele>504.0</ele><time>2026-05-02T07:36:12.772Z</time></trkpt><trkpt lat="43.6579137" lon="12.3549617"><ele>504.0</ele><time>2026-05-02T07:36:13.777Z</time></trkpt><trkpt lat="43.6578241" lon="12.3550524"><ele>504.0</ele><time>2026-05-02T07:36:14.782Z</time></trkpt><trkpt lat="43.6577277" lon="12.3551251"><ele>504.0</ele><time>2026-05-02T07:36:15.786Z</time></trkpt><trkpt lat="43.6576161" lon="12.3551674"><ele>503.25</ele><time>2026-05-02T07:36:16.767Z</time></trkpt><trkpt lat="43.6574906" lon="12.3551807"><ele>502.5</ele><time>2026-05-02T07:36:17.804Z</time></trkpt><trkpt lat="43.6573614" lon="12.3551703"><ele>501.75</ele><time>2026-05-02T07:36:18.769Z</time></trkpt><trkpt lat="43.6572394" lon="12.3551395"><ele>501.0</ele><time>2026-05-02T07:36:19.774Z</time></trkpt><trkpt lat="43.6571239" lon="12.3551016"><ele>501.0</ele><time>2026-05-02T07:36:20.764Z</time></trkpt><trkpt lat="43.6570231" lon="12.355081"><ele>501.0</ele><time>2026-05-02T07:36:21.804Z</time></trkpt><trkpt lat="43.6569311" lon="12.3550418"><ele>501.0</ele><time>2026-05-02T07:36:22.77Z</time></trkpt><trkpt lat="43.6568531" lon="12.3549824"><ele>501.0</ele><time>2026-05-02T07:36:23.782Z</time></trkpt><trkpt lat="43.6567874" lon="12.3549062"><ele>501.0</ele><time>2026-05-02T07:36:24.776Z</time></trkpt><trkpt lat="43.6567295" lon="12.3548223"><ele>500.6</ele><time>2026-05-02T07:36:25.782Z</time></trkpt><trkpt lat="43.6566855" lon="12.3547369"><ele>500.20000000000005</ele><time>2026-05-02T07:36:26.772Z</time></trkpt><trkpt lat="43.6566502" lon="12.3546324"><ele>499.79999999999995</ele><time>2026-05-02T07:36:27.778Z</time></trkpt><trkpt lat="43.6566212" lon="12.3545125"><ele>499.4</ele><time>2026-05-02T07:36:28.785Z</time></trkpt><trkpt lat="43.6565945" lon="12.3543695"><ele>499.0</ele><time>2026-05-02T07:36:29.768Z</time></trkpt><trkpt lat="43.6565583" lon="12.3542323"><ele>499.0</ele><time>2026-05-02T07:36:30.772Z</time></trkpt><trkpt lat="43.6565026" lon="12.3541034"><ele>499.0</ele><time>2026-05-02T07:36:31.774Z</time></trkpt><trkpt lat="43.6564312" lon="12.353985"><ele>499.0</ele><time>2026-05-02T07:36:32.767Z</time></trkpt><trkpt lat="43.6563585" lon="12.3538868"><ele>499.0</ele><time>2026-05-02T07:36:33.811Z</time></trkpt><trkpt lat="43.6562881" lon="12.3537984"><ele>499.0</ele><time>2026-05-02T07:36:34.771Z</time></trkpt><trkpt lat="43.6562122" lon="12.3537556"><ele>499.6666666666667</ele><time>2026-05-02T07:36:35.799Z</time></trkpt><trkpt lat="43.6561362" lon="12.3537444"><ele>500.33333333333337</ele><time>2026-05-02T07:36:36.771Z</time></trkpt><trkpt lat="43.6560546" lon="12.3537455"><ele>501.0</ele><time>2026-05-02T07:36:37.763Z</time></trkpt><trkpt lat="43.6559801" lon="12.3537831"><ele>501.66666666666663</ele><time>2026-05-02T07:36:38.761Z</time></trkpt><trkpt lat="43.6558988" lon="12.3538448"><ele>502.3333333333333</ele><time>2026-05-02T07:36:39.784Z</time></trkpt><trkpt lat="43.6558162" lon="12.3539185"><ele>503.0</ele><time>2026-05-02T07:36:40.77Z</time></trkpt><trkpt lat="43.655749" lon="12.3539936"><ele>500.2</ele><time>2026-05-02T07:36:41.769Z</time></trkpt><trkpt lat="43.6557009" lon="12.3540653"><ele>497.4</ele><time>2026-05-02T07:36:42.768Z</time></trkpt><trkpt lat="43.6556285" lon="12.3541858"><ele>494.59999999999997</ele><time>2026-05-02T07:36:44.769Z</time></trkpt><trkpt lat="43.6555516" lon="12.3542486"><ele>491.79999999999995</ele><time>2026-05-02T07:36:46.764Z</time></trkpt><trkpt lat="43.6554301" lon="12.3541469"><ele>489.0</ele><time>2026-05-02T07:36:48.778Z</time></trkpt><trkpt lat="43.6553768" lon="12.354049"><ele>489.0</ele><time>2026-05-02T07:36:49.773Z</time></trkpt><trkpt lat="43.6553181" lon="12.3539174"><ele>489.0</ele><time>2026-05-02T07:36:50.767Z</time></trkpt><trkpt lat="43.6552583" lon="12.353791"><ele>489.0</ele><time>2026-05-02T07:36:51.781Z</time></trkpt><trkpt lat="43.655189" lon="12.35367"><ele>489.0</ele><time>2026-05-02T07:36:52.773Z</time></trkpt><trkpt lat="43.6551017" lon="12.3535793"><ele>489.0</ele><time>2026-05-02T07:36:53.768Z</time></trkpt><trkpt lat="43.6550123" lon="12.3535123"><ele>489.25</ele><time>2026-05-02T07:36:54.778Z</time></trkpt><trkpt lat="43.6548999" lon="12.3534736"><ele>489.5</ele><time>2026-05-02T07:36:55.794Z</time></trkpt><trkpt lat="43.6547792" lon="12.3534495"><ele>489.75</ele><time>2026-05-02T07:36:56.776Z</time></trkpt><trkpt lat="43.6546566" lon="12.3534505"><ele>490.0</ele><time>2026-05-02T07:36:57.786Z</time></trkpt><trkpt lat="43.6545462" lon="12.3535038"><ele>488.0</ele><time>2026-05-02T07:36:58.77Z</time></trkpt><trkpt lat="43.6544383" lon="12.3535814"><ele>486.0</ele><time>2026-05-02T07:36:59.784Z</time></trkpt><trkpt lat="43.6543535" lon="12.3536818"><ele>484.0</ele><time>2026-05-02T07:37:00.763Z</time></trkpt><trkpt lat="43.6542903" lon="12.3538178"><ele>482.0</ele><time>2026-05-02T07:37:01.768Z</time></trkpt><trkpt lat="43.6542268" lon="12.3539736"><ele>482.0</ele><time>2026-05-02T07:37:02.782Z</time></trkpt><trkpt lat="43.6541663" lon="12.3541259"><ele>482.0</ele><time>2026-05-02T07:37:03.784Z</time></trkpt><trkpt lat="43.6541009" lon="12.3542656"><ele>482.0</ele><time>2026-05-02T07:37:04.774Z</time></trkpt><trkpt lat="43.6540285" lon="12.3544028"><ele>482.0</ele><time>2026-05-02T07:37:05.794Z</time></trkpt><trkpt lat="43.6539424" lon="12.3545544"><ele>482.0</ele><time>2026-05-02T07:37:06.78Z</time></trkpt><trkpt lat="43.6538474" lon="12.354704"><ele>482.0</ele><time>2026-05-02T07:37:07.771Z</time></trkpt><trkpt lat="43.6537485" lon="12.354848"><ele>482.0</ele><time>2026-05-02T07:37:08.77Z</time></trkpt><trkpt lat="43.6536497" lon="12.354992"><ele>482.0</ele><time>2026-05-02T07:37:09.783Z</time></trkpt><trkpt lat="43.6535547" lon="12.3551383"><ele>478.75</ele><time>2026-05-02T07:37:10.783Z</time></trkpt><trkpt lat="43.6534665" lon="12.3552929"><ele>475.5</ele><time>2026-05-02T07:37:11.801Z</time></trkpt><trkpt lat="43.6533742" lon="12.3554238"><ele>472.25</ele><time>2026-05-02T07:37:12.774Z</time></trkpt><trkpt lat="43.6532861" lon="12.3555491"><ele>469.0</ele><time>2026-05-02T07:37:13.784Z</time></trkpt><trkpt lat="43.6531998" lon="12.3556716"><ele>464.4</ele><time>2026-05-02T07:37:14.785Z</time></trkpt><trkpt lat="43.653103" lon="12.3557782"><ele>459.79999999999995</ele><time>2026-05-02T07:37:15.78Z</time></trkpt><trkpt lat="43.6529977" lon="12.355857"><ele>455.20000000000005</ele><time>2026-05-02T07:37:16.785Z</time></trkpt><trkpt lat="43.6528965" lon="12.3558781"><ele>450.6</ele><time>2026-05-02T07:37:17.774Z</time></trkpt><trkpt lat="43.6528032" lon="12.3558583"><ele>446.0</ele><time>2026-05-02T07:37:18.775Z</time></trkpt><trkpt lat="43.6526948" lon="12.3558163"><ele>445.75</ele><time>2026-05-02T07:37:19.799Z</time></trkpt><trkpt lat="43.6525699" lon="12.3557644"><ele>445.5</ele><time>2026-05-02T07:37:20.768Z</time></trkpt><trkpt lat="43.652437" lon="12.3557116"><ele>445.25</ele><time>2026-05-02T07:37:21.792Z</time></trkpt><trkpt lat="43.6523041" lon="12.3556467"><ele>445.0</ele><time>2026-05-02T07:37:22.78Z</time></trkpt><trkpt lat="43.6521771" lon="12.355575"><ele>445.75</ele><time>2026-05-02T07:37:23.779Z</time></trkpt><trkpt lat="43.6520507" lon="12.3554942"><ele>446.5</ele><time>2026-05-02T07:37:24.775Z</time></trkpt><trkpt lat="43.6519254" lon="12.3554107"><ele>447.25</ele><time>2026-05-02T07:37:25.781Z</time></trkpt><trkpt lat="43.6517977" lon="12.3553188"><ele>448.0</ele><time>2026-05-02T07:37:26.783Z</time></trkpt><trkpt lat="43.6516689" lon="12.3552272"><ele>448.0</ele><time>2026-05-02T07:37:27.798Z</time></trkpt><trkpt lat="43.6515379" lon="12.3551543"><ele>448.0</ele><time>2026-05-02T07:37:28.781Z</time></trkpt><trkpt lat="43.6514113" lon="12.3550914"><ele>448.0</ele><time>2026-05-02T07:37:29.792Z</time></trkpt><trkpt lat="43.6512942" lon="12.3550444"><ele>448.0</ele><time>2026-05-02T07:37:30.79Z</time></trkpt><trkpt lat="43.6511873" lon="12.355001"><ele>445.0</ele><time>2026-05-02T07:37:31.792Z</time></trkpt><trkpt lat="43.6510894" lon="12.3549371"><ele>441.99999999999994</ele><time>2026-05-02T07:37:32.782Z</time></trkpt><trkpt lat="43.6510096" lon="12.3548439"><ele>438.99999999999994</ele><time>2026-05-02T07:37:33.788Z</time></trkpt><trkpt lat="43.6509479" lon="12.3547114"><ele>436.0</ele><time>2026-05-02T07:37:34.777Z</time></trkpt><trkpt lat="43.6509075" lon="12.3545555"><ele>433.0</ele><time>2026-05-02T07:37:35.773Z</time></trkpt><trkpt lat="43.6508892" lon="12.3543868"><ele>433.0</ele><time>2026-05-02T07:37:36.784Z</time></trkpt><trkpt lat="43.6508784" lon="12.3541962"><ele>433.0</ele><time>2026-05-02T07:37:37.797Z</time></trkpt><trkpt lat="43.6508681" lon="12.3540025"><ele>433.0</ele><time>2026-05-02T07:37:38.761Z</time></trkpt><trkpt lat="43.6508585" lon="12.3538034"><ele>433.0</ele><time>2026-05-02T07:37:39.797Z</time></trkpt><trkpt lat="43.6508414" lon="12.3535991"><ele>433.25</ele><time>2026-05-02T07:37:40.778Z</time></trkpt><trkpt lat="43.6508237" lon="12.3533973"><ele>433.5</ele><time>2026-05-02T07:37:41.81Z</time></trkpt><trkpt lat="43.650806" lon="12.3531994"><ele>433.75</ele><time>2026-05-02T07:37:42.783Z</time></trkpt><trkpt lat="43.6507847" lon="12.3530051"><ele>434.0</ele><time>2026-05-02T07:37:43.797Z</time></trkpt><trkpt lat="43.6507534" lon="12.3528128"><ele>434.0</ele><time>2026-05-02T07:37:44.782Z</time></trkpt><trkpt lat="43.6507207" lon="12.3526165"><ele>434.0</ele><time>2026-05-02T07:37:45.783Z</time></trkpt><trkpt lat="43.6506906" lon="12.3524172"><ele>434.0</ele><time>2026-05-02T07:37:46.78Z</time></trkpt><trkpt lat="43.6506634" lon="12.3522203"><ele>434.0</ele><time>2026-05-02T07:37:47.803Z</time></trkpt><trkpt lat="43.650637" lon="12.3520267"><ele>435.0</ele><time>2026-05-02T07:37:48.78Z</time></trkpt><trkpt lat="43.6506113" lon="12.3518398"><ele>436.0</ele><time>2026-05-02T07:37:49.796Z</time></trkpt><trkpt lat="43.6505876" lon="12.3516532"><ele>437.0</ele><time>2026-05-02T07:37:50.769Z</time></trkpt><trkpt lat="43.6505568" lon="12.351473"><ele>438.0</ele><time>2026-05-02T07:37:51.786Z</time></trkpt><trkpt lat="43.6505102" lon="12.3512978"><ele>438.0</ele><time>2026-05-02T07:37:52.772Z</time></trkpt><trkpt lat="43.6504526" lon="12.3511282"><ele>438.0</ele><time>2026-05-02T07:37:53.796Z</time></trkpt><trkpt lat="43.6503943" lon="12.350959"><ele>438.0</ele><time>2026-05-02T07:37:54.777Z</time></trkpt><trkpt lat="43.6503354" lon="12.350793"><ele>438.0</ele><time>2026-05-02T07:37:55.784Z</time></trkpt><trkpt lat="43.6502712" lon="12.3506282"><ele>433.5</ele><time>2026-05-02T07:37:56.794Z</time></trkpt><trkpt lat="43.6502023" lon="12.3504651"><ele>429.0</ele><time>2026-05-02T07:37:57.793Z</time></trkpt><trkpt lat="43.6501287" lon="12.3503162"><ele>424.5</ele><time>2026-05-02T07:37:58.76Z</time></trkpt><trkpt lat="43.65004" lon="12.3501858"><ele>420.0</ele><time>2026-05-02T07:37:59.799Z</time></trkpt><trkpt lat="43.6499429" lon="12.3500722"><ele>420.0</ele><time>2026-05-02T07:38:00.777Z</time></trkpt><trkpt lat="43.6498396" lon="12.3499804"><ele>420.0</ele><time>2026-05-02T07:38:01.793Z</time></trkpt><trkpt lat="43.6497384" lon="12.3499122"><ele>420.0</ele><time>2026-05-02T07:38:02.781Z</time></trkpt><trkpt lat="43.6496461" lon="12.3498593"><ele>420.0</ele><time>2026-05-02T07:38:03.785Z</time></trkpt><trkpt lat="43.6495583" lon="12.3498118"><ele>420.0</ele><time>2026-05-02T07:38:04.789Z</time></trkpt><trkpt lat="43.6494835" lon="12.3497562"><ele>417.6</ele><time>2026-05-02T07:38:05.786Z</time></trkpt><trkpt lat="43.649415" lon="12.3496987"><ele>415.2</ele><time>2026-05-02T07:38:06.775Z</time></trkpt><trkpt lat="43.6493574" lon="12.3496166"><ele>412.79999999999995</ele><time>2026-05-02T07:38:07.787Z</time></trkpt><trkpt lat="43.649306" lon="12.3495009"><ele>410.4</ele><time>2026-05-02T07:38:08.779Z</time></trkpt><trkpt lat="43.6492594" lon="12.3493623"><ele>408.0</ele><time>2026-05-02T07:38:09.78Z</time></trkpt><trkpt lat="43.6492122" lon="12.3492083"><ele>408.0</ele><time>2026-05-02T07:38:10.777Z</time></trkpt><trkpt lat="43.6491655" lon="12.3490501"><ele>408.0</ele><time>2026-05-02T07:38:11.782Z</time></trkpt><trkpt lat="43.64912" lon="12.3488765"><ele>408.0</ele><time>2026-05-02T07:38:12.776Z</time></trkpt><trkpt lat="43.6490722" lon="12.3486947"><ele>408.0</ele><time>2026-05-02T07:38:13.801Z</time></trkpt><trkpt lat="43.6490217" lon="12.3485091"><ele>409.25</ele><time>2026-05-02T07:38:14.782Z</time></trkpt><trkpt lat="43.6489658" lon="12.3483192"><ele>410.5</ele><time>2026-05-02T07:38:15.775Z</time></trkpt><trkpt lat="43.6489137" lon="12.3481279"><ele>411.75</ele><time>2026-05-02T07:38:16.783Z</time></trkpt><trkpt lat="43.6488676" lon="12.3479298"><ele>413.0</ele><time>2026-05-02T07:38:17.794Z</time></trkpt><trkpt lat="43.6488322" lon="12.3477264"><ele>414.25</ele><time>2026-05-02T07:38:18.783Z</time></trkpt><trkpt lat="43.6488112" lon="12.3475216"><ele>415.5</ele><time>2026-05-02T07:38:19.786Z</time></trkpt><trkpt lat="43.6487969" lon="12.3473141"><ele>416.75</ele><time>2026-05-02T07:38:20.779Z</time></trkpt><trkpt lat="43.6487845" lon="12.3471133"><ele>418.0</ele><time>2026-05-02T07:38:21.776Z</time></trkpt><trkpt lat="43.6487647" lon="12.3469085"><ele>418.75</ele><time>2026-05-02T07:38:22.78Z</time></trkpt><trkpt lat="43.6487439" lon="12.3467103"><ele>419.5</ele><time>2026-05-02T07:38:23.784Z</time></trkpt><trkpt lat="43.6487147" lon="12.3465208"><ele>420.25</ele><time>2026-05-02T07:38:24.782Z</time></trkpt><trkpt lat="43.6486824" lon="12.3463499"><ele>421.0</ele><time>2026-05-02T07:38:25.783Z</time></trkpt><trkpt lat="43.6486576" lon="12.3462031"><ele>421.0</ele><time>2026-05-02T07:38:26.772Z</time></trkpt><trkpt lat="43.6486386" lon="12.346073"><ele>421.0</ele><time>2026-05-02T07:38:27.788Z</time></trkpt><trkpt lat="43.6486228" lon="12.3459414"><ele>421.0</ele><time>2026-05-02T07:38:28.774Z</time></trkpt><trkpt lat="43.6486111" lon="12.3457876"><ele>421.0</ele><time>2026-05-02T07:38:29.776Z</time></trkpt><trkpt lat="43.648615" lon="12.3456327"><ele>421.0</ele><time>2026-05-02T07:38:30.784Z</time></trkpt><trkpt lat="43.6486265" lon="12.3454854"><ele>421.0</ele><time>2026-05-02T07:38:31.778Z</time></trkpt><trkpt lat="43.6486544" lon="12.3453431"><ele>421.0</ele><time>2026-05-02T07:38:32.79Z</time></trkpt><trkpt lat="43.6486822" lon="12.3452086"><ele>421.0</ele><time>2026-05-02T07:38:33.774Z</time></trkpt><trkpt lat="43.6487001" lon="12.3450748"><ele>421.0</ele><time>2026-05-02T07:38:34.774Z</time></trkpt><trkpt lat="43.6486904" lon="12.3449462"><ele>421.0</ele><time>2026-05-02T07:38:35.792Z</time></trkpt><trkpt lat="43.648649" lon="12.3448294"><ele>417.0</ele><time>2026-05-02T07:38:36.778Z</time></trkpt><trkpt lat="43.6485777" lon="12.3447318"><ele>413.0</ele><time>2026-05-02T07:38:37.774Z</time></trkpt><trkpt lat="43.6484768" lon="12.3446579"><ele>409.0</ele><time>2026-05-02T07:38:38.78Z</time></trkpt><trkpt lat="43.6483586" lon="12.3445939"><ele>405.0</ele><time>2026-05-02T07:38:39.783Z</time></trkpt><trkpt lat="43.6482497" lon="12.34453"><ele>404.75</ele><time>2026-05-02T07:38:40.773Z</time></trkpt><trkpt lat="43.6481473" lon="12.3444723"><ele>404.5</ele><time>2026-05-02T07:38:41.784Z</time></trkpt><trkpt lat="43.6480445" lon="12.3444228"><ele>404.25</ele><time>2026-05-02T07:38:42.784Z</time></trkpt><trkpt lat="43.6479269" lon="12.3443695"><ele>404.0</ele><time>2026-05-02T07:38:43.781Z</time></trkpt><trkpt lat="43.6478266" lon="12.344316"><ele>405.2</ele><time>2026-05-02T07:38:44.782Z</time></trkpt><trkpt lat="43.6477511" lon="12.3442696"><ele>406.4</ele><time>2026-05-02T07:38:45.773Z</time></trkpt><trkpt lat="43.6476947" lon="12.3442307"><ele>407.6</ele><time>2026-05-02T07:38:46.771Z</time></trkpt><trkpt lat="43.6476242" lon="12.3441307"><ele>408.8</ele><time>2026-05-02T07:38:48.78Z</time></trkpt><trkpt lat="43.6476522" lon="12.3439675"><ele>410.0</ele><time>2026-05-02T07:38:50.768Z</time></trkpt><trkpt lat="43.6477006" lon="12.343858"><ele>410.0</ele><time>2026-05-02T07:38:51.787Z</time></trkpt><trkpt lat="43.647751" lon="12.3437251"><ele>410.0</ele><time>2026-05-02T07:38:52.779Z</time></trkpt><trkpt lat="43.6477864" lon="12.3435582"><ele>410.0</ele><time>2026-05-02T07:38:53.779Z</time></trkpt><trkpt lat="43.647813" lon="12.3433909"><ele>410.0</ele><time>2026-05-02T07:38:54.776Z</time></trkpt><trkpt lat="43.6478222" lon="12.343207"><ele>410.0</ele><time>2026-05-02T07:38:55.775Z</time></trkpt><trkpt lat="43.64782" lon="12.3430206"><ele>410.0</ele><time>2026-05-02T07:38:56.778Z</time></trkpt><trkpt lat="43.647808" lon="12.3428299"><ele>410.0</ele><time>2026-05-02T07:38:57.781Z</time></trkpt><trkpt lat="43.6477969" lon="12.3426419"><ele>410.0</ele><time>2026-05-02T07:38:58.772Z</time></trkpt><trkpt lat="43.6477888" lon="12.3424702"><ele>410.0</ele><time>2026-05-02T07:38:59.772Z</time></trkpt><trkpt lat="43.6477765" lon="12.3423272"><ele>410.0</ele><time>2026-05-02T07:39:00.779Z</time></trkpt><trkpt lat="43.6477696" lon="12.3422254"><ele>410.0</ele><time>2026-05-02T07:39:01.785Z</time></trkpt><trkpt lat="43.6477652" lon="12.3421339"><ele>410.0</ele><time>2026-05-02T07:39:02.782Z</time></trkpt><trkpt lat="43.6476927" lon="12.3420415"><ele>410.0</ele><time>2026-05-02T07:39:04.781Z</time></trkpt><trkpt lat="43.6475617" lon="12.3421064"><ele>410.0</ele><time>2026-05-02T07:39:06.779Z</time></trkpt><trkpt lat="43.6474764" lon="12.3421602"><ele>410.0</ele><time>2026-05-02T07:39:07.782Z</time></trkpt><trkpt lat="43.6473883" lon="12.3422112"><ele>410.0</ele><time>2026-05-02T07:39:08.78Z</time></trkpt><trkpt lat="43.6472938" lon="12.3422534"><ele>410.0</ele><time>2026-05-02T07:39:09.774Z</time></trkpt><trkpt lat="43.647201" lon="12.3422989"><ele>410.0</ele><time>2026-05-02T07:39:10.773Z</time></trkpt><trkpt lat="43.6471043" lon="12.3423476"><ele>410.0</ele><time>2026-05-02T07:39:11.777Z</time></trkpt><trkpt lat="43.6470098" lon="12.3423953"><ele>410.0</ele><time>2026-05-02T07:39:12.774Z</time></trkpt><trkpt lat="43.6469135" lon="12.3424458"><ele>410.0</ele><time>2026-05-02T07:39:13.78Z</time></trkpt><trkpt lat="43.6468095" lon="12.3424997"><ele>410.0</ele><time>2026-05-02T07:39:14.774Z</time></trkpt><trkpt lat="43.6467136" lon="12.3425501"><ele>410.0</ele><time>2026-05-02T07:39:15.776Z</time></trkpt><trkpt lat="43.6466353" lon="12.3425947"><ele>410.6</ele><time>2026-05-02T07:39:16.783Z</time></trkpt><trkpt lat="43.6465606" lon="12.3426434"><ele>411.2</ele><time>2026-05-02T07:39:17.788Z</time></trkpt><trkpt lat="43.6464754" lon="12.3427021"><ele>411.79999999999995</ele><time>2026-05-02T07:39:18.783Z</time></trkpt><trkpt lat="43.646384" lon="12.3427699"><ele>412.4</ele><time>2026-05-02T07:39:19.813Z</time></trkpt><trkpt lat="43.6462995" lon="12.342862"><ele>413.0</ele><time>2026-05-02T07:39:20.787Z</time></trkpt><trkpt lat="43.646235" lon="12.3429951"><ele>413.4</ele><time>2026-05-02T07:39:21.78Z</time></trkpt><trkpt lat="43.6461923" lon="12.3431433"><ele>413.79999999999995</ele><time>2026-05-02T07:39:22.775Z</time></trkpt><trkpt lat="43.6461562" lon="12.3432909"><ele>414.2</ele><time>2026-05-02T07:39:23.801Z</time></trkpt><trkpt lat="43.6461185" lon="12.3434199"><ele>414.6</ele><time>2026-05-02T07:39:24.782Z</time></trkpt><trkpt lat="43.6460762" lon="12.3435306"><ele>415.0</ele><time>2026-05-02T07:39:25.79Z</time></trkpt><trkpt lat="43.6460147" lon="12.3436213"><ele>416.00000000000006</ele><time>2026-05-02T07:39:26.776Z</time></trkpt><trkpt lat="43.6459329" lon="12.3436836"><ele>417.0</ele><time>2026-05-02T07:39:27.787Z</time></trkpt><trkpt lat="43.6458455" lon="12.3437012"><ele>418.0</ele><time>2026-05-02T07:39:28.775Z</time></trkpt><trkpt lat="43.6457623" lon="12.3436693"><ele>419.0</ele><time>2026-05-02T07:39:29.798Z</time></trkpt><trkpt lat="43.6456971" lon="12.3435863"><ele>420.00000000000006</ele><time>2026-05-02T07:39:30.781Z</time></trkpt><trkpt lat="43.6456516" lon="12.3434777"><ele>421.0</ele><time>2026-05-02T07:39:31.77Z</time></trkpt><trkpt lat="43.6456115" lon="12.3433552"><ele>421.0</ele><time>2026-05-02T07:39:32.773Z</time></trkpt><trkpt lat="43.6455695" lon="12.343224"><ele>421.0</ele><time>2026-05-02T07:39:33.807Z</time></trkpt><trkpt lat="43.645518" lon="12.3430881"><ele>421.0</ele><time>2026-05-02T07:39:34.789Z</time></trkpt><trkpt lat="43.645457" lon="12.3429532"><ele>421.0</ele><time>2026-05-02T07:39:35.786Z</time></trkpt><trkpt lat="43.6453899" lon="12.3428148"><ele>420.75</ele><time>2026-05-02T07:39:36.779Z</time></trkpt><trkpt lat="43.6453273" lon="12.3426825"><ele>420.5</ele><time>2026-05-02T07:39:37.793Z</time></trkpt><trkpt lat="43.6452661" lon="12.3425396"><ele>420.25</ele><time>2026-05-02T07:39:38.798Z</time></trkpt><trkpt lat="43.6452129" lon="12.3423845"><ele>420.0</ele><time>2026-05-02T07:39:39.79Z</time></trkpt><trkpt lat="43.6451773" lon="12.3422207"><ele>425.5</ele><time>2026-05-02T07:39:40.77Z</time></trkpt><trkpt lat="43.6451591" lon="12.3420507"><ele>431.0</ele><time>2026-05-02T07:39:41.784Z</time></trkpt><trkpt lat="43.6451436" lon="12.3418758"><ele>436.5</ele><time>2026-05-02T07:39:42.778Z</time></trkpt><trkpt lat="43.6451276" lon="12.341703"><ele>442.0</ele><time>2026-05-02T07:39:43.776Z</time></trkpt><trkpt lat="43.6451065" lon="12.3415305"><ele>440.5</ele><time>2026-05-02T07:39:44.787Z</time></trkpt><trkpt lat="43.645078" lon="12.3413621"><ele>439.0</ele><time>2026-05-02T07:39:45.779Z</time></trkpt><trkpt lat="43.6450405" lon="12.3411906"><ele>437.5</ele><time>2026-05-02T07:39:46.785Z</time></trkpt><trkpt lat="43.6449979" lon="12.3410174"><ele>436.0</ele><time>2026-05-02T07:39:47.788Z</time></trkpt><trkpt lat="43.6449549" lon="12.3408485"><ele>436.0</ele><time>2026-05-02T07:39:48.771Z</time></trkpt><trkpt lat="43.6449151" lon="12.3406774"><ele>436.0</ele><time>2026-05-02T07:39:49.781Z</time></trkpt><trkpt lat="43.644865" lon="12.3405142"><ele>436.0</ele><time>2026-05-02T07:39:50.772Z</time></trkpt><trkpt lat="43.6448032" lon="12.340362"><ele>436.0</ele><time>2026-05-02T07:39:51.801Z</time></trkpt><trkpt lat="43.6447323" lon="12.3402235"><ele>434.25</ele><time>2026-05-02T07:39:52.772Z</time></trkpt><trkpt lat="43.6446566" lon="12.3400929"><ele>432.5</ele><time>2026-05-02T07:39:53.77Z</time></trkpt><trkpt lat="43.6445735" lon="12.3399646"><ele>430.75</ele><time>2026-05-02T07:39:54.778Z</time></trkpt><trkpt lat="43.6444806" lon="12.3398638"><ele>429.0</ele><time>2026-05-02T07:39:55.777Z</time></trkpt><trkpt lat="43.6443762" lon="12.3397907"><ele>431.75</ele><time>2026-05-02T07:39:56.775Z</time></trkpt><trkpt lat="43.6442652" lon="12.3397342"><ele>434.5</ele><time>2026-05-02T07:39:57.767Z</time></trkpt><trkpt lat="43.6441469" lon="12.339682"><ele>437.25</ele><time>2026-05-02T07:39:58.771Z</time></trkpt><trkpt lat="43.6440222" lon="12.3396283"><ele>440.0</ele><time>2026-05-02T07:39:59.783Z</time></trkpt><trkpt lat="43.6438933" lon="12.3395975"><ele>440.0</ele><time>2026-05-02T07:40:00.779Z</time></trkpt><trkpt lat="43.6437586" lon="12.339576"><ele>440.0</ele><time>2026-05-02T07:40:01.8Z</time></trkpt><trkpt lat="43.6436236" lon="12.3395564"><ele>440.0</ele><time>2026-05-02T07:40:02.782Z</time></trkpt><trkpt lat="43.6434857" lon="12.3395325"><ele>440.0</ele><time>2026-05-02T07:40:03.775Z</time></trkpt><trkpt lat="43.6433452" lon="12.3395129"><ele>442.0</ele><time>2026-05-02T07:40:04.774Z</time></trkpt><trkpt lat="43.6432002" lon="12.3394877"><ele>444.0</ele><time>2026-05-02T07:40:05.778Z</time></trkpt><trkpt lat="43.6430594" lon="12.3394703"><ele>446.0</ele><time>2026-05-02T07:40:06.777Z</time></trkpt><trkpt lat="43.6429183" lon="12.339452"><ele>448.0</ele><time>2026-05-02T07:40:07.787Z</time></trkpt><trkpt lat="43.6427744" lon="12.3394274"><ele>450.25</ele><time>2026-05-02T07:40:08.776Z</time></trkpt><trkpt lat="43.642628" lon="12.3394065"><ele>452.5</ele><time>2026-05-02T07:40:09.775Z</time></trkpt><trkpt lat="43.6424908" lon="12.3393849"><ele>454.75</ele><time>2026-05-02T07:40:10.78Z</time></trkpt><trkpt lat="43.6423639" lon="12.339354"><ele>457.0</ele><time>2026-05-02T07:40:11.776Z</time></trkpt><trkpt lat="43.6422491" lon="12.3393043"><ele>457.0</ele><time>2026-05-02T07:40:12.779Z</time></trkpt><trkpt lat="43.642132" lon="12.3392515"><ele>457.0</ele><time>2026-05-02T07:40:13.782Z</time></trkpt><trkpt lat="43.6420101" lon="12.3391934"><ele>457.0</ele><time>2026-05-02T07:40:14.789Z</time></trkpt><trkpt lat="43.6418889" lon="12.3391341"><ele>457.0</ele><time>2026-05-02T07:40:15.797Z</time></trkpt><trkpt lat="43.641767" lon="12.3390761"><ele>456.0</ele><time>2026-05-02T07:40:16.779Z</time></trkpt><trkpt lat="43.6416457" lon="12.3390168"><ele>455.0</ele><time>2026-05-02T07:40:17.788Z</time></trkpt><trkpt lat="43.6415217" lon="12.3389617"><ele>454.0</ele><time>2026-05-02T07:40:18.775Z</time></trkpt><trkpt lat="43.6413964" lon="12.3388989"><ele>453.0</ele><time>2026-05-02T07:40:19.798Z</time></trkpt><trkpt lat="43.6412709" lon="12.3388337"><ele>453.0</ele><time>2026-05-02T07:40:20.773Z</time></trkpt><trkpt lat="43.6411465" lon="12.3387709"><ele>453.0</ele><time>2026-05-02T07:40:21.767Z</time></trkpt><trkpt lat="43.641025" lon="12.3387139"><ele>453.0</ele><time>2026-05-02T07:40:22.776Z</time></trkpt><trkpt lat="43.6409042" lon="12.3386538"><ele>453.0</ele><time>2026-05-02T07:40:23.821Z</time></trkpt><trkpt lat="43.6407841" lon="12.338596"><ele>455.5</ele><time>2026-05-02T07:40:24.781Z</time></trkpt><trkpt lat="43.640665" lon="12.3385414"><ele>458.0</ele><time>2026-05-02T07:40:25.804Z</time></trkpt><trkpt lat="43.640543" lon="12.3384957"><ele>460.5</ele><time>2026-05-02T07:40:26.774Z</time></trkpt><trkpt lat="43.6404186" lon="12.3384582"><ele>463.0</ele><time>2026-05-02T07:40:27.794Z</time></trkpt><trkpt lat="43.6402861" lon="12.3384289"><ele>465.0</ele><time>2026-05-02T07:40:28.774Z</time></trkpt><trkpt lat="43.6401539" lon="12.3384091"><ele>467.0</ele><time>2026-05-02T07:40:29.804Z</time></trkpt><trkpt lat="43.6400187" lon="12.3383904"><ele>469.0</ele><time>2026-05-02T07:40:30.772Z</time></trkpt><trkpt lat="43.6398846" lon="12.3383715"><ele>471.0</ele><time>2026-05-02T07:40:31.781Z</time></trkpt><trkpt lat="43.6397492" lon="12.3383543"><ele>471.0</ele><time>2026-05-02T07:40:32.773Z</time></trkpt><trkpt lat="43.6396155" lon="12.3383432"><ele>471.0</ele><time>2026-05-02T07:40:33.777Z</time></trkpt><trkpt lat="43.6394896" lon="12.3383348"><ele>471.0</ele><time>2026-05-02T07:40:34.759Z</time></trkpt><trkpt lat="43.6393585" lon="12.3383454"><ele>471.0</ele><time>2026-05-02T07:40:35.789Z</time></trkpt><trkpt lat="43.6392281" lon="12.3383818"><ele>473.0</ele><time>2026-05-02T07:40:36.78Z</time></trkpt><trkpt lat="43.639097" lon="12.3384245"><ele>475.0</ele><time>2026-05-02T07:40:37.797Z</time></trkpt><trkpt lat="43.6389655" lon="12.3384742"><ele>477.0</ele><time>2026-05-02T07:40:38.782Z</time></trkpt><trkpt lat="43.6388394" lon="12.3385244"><ele>479.0</ele><time>2026-05-02T07:40:39.784Z</time></trkpt><trkpt lat="43.638716" lon="12.3385666"><ele>480.0</ele><time>2026-05-02T07:40:40.776Z</time></trkpt><trkpt lat="43.6385932" lon="12.3386074"><ele>481.0</ele><time>2026-05-02T07:40:41.8Z</time></trkpt><trkpt lat="43.6384704" lon="12.3386417"><ele>482.0</ele><time>2026-05-02T07:40:42.776Z</time></trkpt><trkpt lat="43.6383426" lon="12.3386599"><ele>483.0</ele><time>2026-05-02T07:40:43.805Z</time></trkpt><trkpt lat="43.6382175" lon="12.3386546"><ele>483.0</ele><time>2026-05-02T07:40:44.775Z</time></trkpt><trkpt lat="43.6380996" lon="12.3386257"><ele>483.0</ele><time>2026-05-02T07:40:45.779Z</time></trkpt><trkpt lat="43.6380022" lon="12.3386137"><ele>483.0</ele><time>2026-05-02T07:40:46.778Z</time></trkpt><trkpt lat="43.6379233" lon="12.3386398"><ele>483.0</ele><time>2026-05-02T07:40:47.788Z</time></trkpt><trkpt lat="43.6378676" lon="12.3387076"><ele>483.0</ele><time>2026-05-02T07:40:48.775Z</time></trkpt><trkpt lat="43.6378291" lon="12.3387969"><ele>483.0</ele><time>2026-05-02T07:40:49.79Z</time></trkpt><trkpt lat="43.6378216" lon="12.3389013"><ele>485.0</ele><time>2026-05-02T07:40:50.778Z</time></trkpt><trkpt lat="43.63784" lon="12.3389999"><ele>487.0</ele><time>2026-05-02T07:40:51.776Z</time></trkpt><trkpt lat="43.6378886" lon="12.3390688"><ele>489.0</ele><time>2026-05-02T07:40:52.784Z</time></trkpt><trkpt lat="43.6379664" lon="12.339113"><ele>491.0</ele><time>2026-05-02T07:40:53.77Z</time></trkpt><trkpt lat="43.6380603" lon="12.3391391"><ele>493.0</ele><time>2026-05-02T07:40:54.779Z</time></trkpt><trkpt lat="43.6381691" lon="12.3391573"><ele>495.0</ele><time>2026-05-02T07:40:55.783Z</time></trkpt><trkpt lat="43.6382903" lon="12.3391811"><ele>495.0</ele><time>2026-05-02T07:40:56.776Z</time></trkpt><trkpt lat="43.6384189" lon="12.3392186"><ele>495.0</ele><time>2026-05-02T07:40:57.79Z</time></trkpt><trkpt lat="43.6385596" lon="12.3392566"><ele>495.0</ele><time>2026-05-02T07:40:58.778Z</time></trkpt><trkpt lat="43.6387036" lon="12.3392947"><ele>495.0</ele><time>2026-05-02T07:40:59.785Z</time></trkpt><trkpt lat="43.6388397" lon="12.3393406"><ele>494.4</ele><time>2026-05-02T07:41:00.776Z</time></trkpt><trkpt lat="43.6389642" lon="12.3393834"><ele>493.8</ele><time>2026-05-02T07:41:01.789Z</time></trkpt><trkpt lat="43.6390661" lon="12.3394304"><ele>493.20000000000005</ele><time>2026-05-02T07:41:02.769Z</time></trkpt><trkpt lat="43.6391424" lon="12.3394899"><ele>492.6</ele><time>2026-05-02T07:41:03.785Z</time></trkpt><trkpt lat="43.639204" lon="12.3395702"><ele>492.0</ele><time>2026-05-02T07:41:04.776Z</time></trkpt><trkpt lat="43.6392536" lon="12.3396639"><ele>494.6666666666667</ele><time>2026-05-02T07:41:05.799Z</time></trkpt><trkpt lat="43.6392723" lon="12.3397614"><ele>497.33333333333337</ele><time>2026-05-02T07:41:06.779Z</time></trkpt><trkpt lat="43.6392525" lon="12.3398575"><ele>500.0</ele><time>2026-05-02T07:41:07.796Z</time></trkpt><trkpt lat="43.6392104" lon="12.3399307"><ele>502.6666666666667</ele><time>2026-05-02T07:41:08.771Z</time></trkpt><trkpt lat="43.6391424" lon="12.3399695"><ele>505.33333333333337</ele><time>2026-05-02T07:41:09.789Z</time></trkpt><trkpt lat="43.639065" lon="12.339977"><ele>508.0</ele><time>2026-05-02T07:41:10.779Z</time></trkpt><trkpt lat="43.6389824" lon="12.3399438"><ele>508.0</ele><time>2026-05-02T07:41:11.775Z</time></trkpt><trkpt lat="43.6388883" lon="12.3398993"><ele>508.0</ele><time>2026-05-02T07:41:12.772Z</time></trkpt><trkpt lat="43.6387718" lon="12.339853"><ele>508.0</ele><time>2026-05-02T07:41:13.781Z</time></trkpt><trkpt lat="43.6386421" lon="12.3398253"><ele>508.0</ele><time>2026-05-02T07:41:14.769Z</time></trkpt><trkpt lat="43.6385113" lon="12.3398091"><ele>508.75</ele><time>2026-05-02T07:41:15.784Z</time></trkpt><trkpt lat="43.6383808" lon="12.3398215"><ele>509.5</ele><time>2026-05-02T07:41:16.767Z</time></trkpt><trkpt lat="43.6382518" lon="12.3398578"><ele>510.25</ele><time>2026-05-02T07:41:17.785Z</time></trkpt><trkpt lat="43.6381292" lon="12.3399055"><ele>511.0</ele><time>2026-05-02T07:41:18.774Z</time></trkpt><trkpt lat="43.6380116" lon="12.3399651"><ele>511.0</ele><time>2026-05-02T07:41:19.773Z</time></trkpt><trkpt lat="43.6378985" lon="12.3400319"><ele>511.0</ele><time>2026-05-02T07:41:20.771Z</time></trkpt><trkpt lat="43.6377808" lon="12.3400856"><ele>511.0</ele><time>2026-05-02T07:41:21.779Z</time></trkpt><trkpt lat="43.6376671" lon="12.3401089"><ele>511.0</ele><time>2026-05-02T07:41:22.775Z</time></trkpt><trkpt lat="43.6375514" lon="12.3400984"><ele>513.0</ele><time>2026-05-02T07:41:23.786Z</time></trkpt><trkpt lat="43.6374425" lon="12.3400665"><ele>515.0</ele><time>2026-05-02T07:41:24.785Z</time></trkpt><trkpt lat="43.6373329" lon="12.3399994"><ele>517.0</ele><time>2026-05-02T07:41:25.774Z</time></trkpt><trkpt lat="43.6372355" lon="12.3399083"><ele>519.0</ele><time>2026-05-02T07:41:26.777Z</time></trkpt><trkpt lat="43.6371444" lon="12.3398067"><ele>520.5</ele><time>2026-05-02T07:41:27.772Z</time></trkpt><trkpt lat="43.637063" lon="12.3396928"><ele>522.0</ele><time>2026-05-02T07:41:28.761Z</time></trkpt><trkpt lat="43.6369842" lon="12.3395802"><ele>523.5</ele><time>2026-05-02T07:41:29.788Z</time></trkpt><trkpt lat="43.6368945" lon="12.3394705"><ele>525.0</ele><time>2026-05-02T07:41:30.78Z</time></trkpt><trkpt lat="43.6367865" lon="12.3393714"><ele>525.0</ele><time>2026-05-02T07:41:31.772Z</time></trkpt><trkpt lat="43.636673" lon="12.3392826"><ele>525.0</ele><time>2026-05-02T07:41:32.775Z</time></trkpt><trkpt lat="43.6365534" lon="12.3392219"><ele>525.0</ele><time>2026-05-02T07:41:33.777Z</time></trkpt><trkpt lat="43.6364402" lon="12.3392012"><ele>525.0</ele><time>2026-05-02T07:41:34.784Z</time></trkpt><trkpt lat="43.6363168" lon="12.3392004"><ele>525.0</ele><time>2026-05-02T07:41:35.759Z</time></trkpt><trkpt lat="43.6361882" lon="12.3391945"><ele>525.0</ele><time>2026-05-02T07:41:36.789Z</time></trkpt><trkpt lat="43.6360544" lon="12.3391794"><ele>525.0</ele><time>2026-05-02T07:41:37.773Z</time></trkpt><trkpt lat="43.6359239" lon="12.3391525"><ele>525.0</ele><time>2026-05-02T07:41:38.764Z</time></trkpt><trkpt lat="43.6358004" lon="12.3391189"><ele>527.25</ele><time>2026-05-02T07:41:39.797Z</time></trkpt><trkpt lat="43.6356817" lon="12.3391012"><ele>529.5</ele><time>2026-05-02T07:41:40.771Z</time></trkpt><trkpt lat="43.6355555" lon="12.3390793"><ele>531.75</ele><time>2026-05-02T07:41:41.767Z</time></trkpt><trkpt lat="43.6354416" lon="12.3390444"><ele>534.0</ele><time>2026-05-02T07:41:42.775Z</time></trkpt><trkpt lat="43.6353175" lon="12.3389938"><ele>534.2</ele><time>2026-05-02T07:41:43.784Z</time></trkpt><trkpt lat="43.6352004" lon="12.3389312"><ele>534.4</ele><time>2026-05-02T07:41:44.766Z</time></trkpt><trkpt lat="43.6350938" lon="12.3388796"><ele>534.6</ele><time>2026-05-02T07:41:45.781Z</time></trkpt><trkpt lat="43.634994" lon="12.3388334"><ele>534.8</ele><time>2026-05-02T07:41:46.771Z</time></trkpt><trkpt lat="43.6349026" lon="12.3388118"><ele>535.0</ele><time>2026-05-02T07:41:47.781Z</time></trkpt><trkpt lat="43.6348276" lon="12.3388241"><ele>535.0</ele><time>2026-05-02T07:41:48.775Z</time></trkpt><trkpt lat="43.6347707" lon="12.3388727"><ele>535.0</ele><time>2026-05-02T07:41:49.776Z</time></trkpt><trkpt lat="43.6347268" lon="12.3390165"><ele>535.0</ele><time>2026-05-02T07:41:51.777Z</time></trkpt><trkpt lat="43.6347805" lon="12.3391686"><ele>535.0</ele><time>2026-05-02T07:41:53.777Z</time></trkpt><trkpt lat="43.6348407" lon="12.3392364"><ele>535.0</ele><time>2026-05-02T07:41:54.774Z</time></trkpt><trkpt lat="43.6349188" lon="12.3392943"><ele>534.8</ele><time>2026-05-02T07:41:55.79Z</time></trkpt><trkpt lat="43.6350108" lon="12.3393387"><ele>534.6</ele><time>2026-05-02T07:41:56.768Z</time></trkpt><trkpt lat="43.6351155" lon="12.3393775"><ele>534.4</ele><time>2026-05-02T07:41:57.765Z</time></trkpt><trkpt lat="43.6352231" lon="12.3394149"><ele>534.2</ele><time>2026-05-02T07:41:58.768Z</time></trkpt><trkpt lat="43.6353296" lon="12.3394468"><ele>534.0</ele><time>2026-05-02T07:41:59.786Z</time></trkpt><trkpt lat="43.6354339" lon="12.3394866"><ele>534.0</ele><time>2026-05-02T07:42:00.774Z</time></trkpt><trkpt lat="43.6355306" lon="12.339534"><ele>534.0</ele><time>2026-05-02T07:42:01.786Z</time></trkpt><trkpt lat="43.6356102" lon="12.3395816"><ele>534.0</ele><time>2026-05-02T07:42:02.778Z</time></trkpt><trkpt lat="43.6356658" lon="12.339647"><ele>534.0</ele><time>2026-05-02T07:42:03.785Z</time></trkpt><trkpt lat="43.6357081" lon="12.3398104"><ele>534.0</ele><time>2026-05-02T07:42:05.793Z</time></trkpt><trkpt lat="43.6356567" lon="12.339971"><ele>538.0</ele><time>2026-05-02T07:42:07.8Z</time></trkpt><trkpt lat="43.6356026" lon="12.3400348"><ele>542.0</ele><time>2026-05-02T07:42:08.768Z</time></trkpt><trkpt lat="43.6355305" lon="12.3400751"><ele>546.0</ele><time>2026-05-02T07:42:09.783Z</time></trkpt><trkpt lat="43.6354395" lon="12.3400787"><ele>550.0</ele><time>2026-05-02T07:42:10.779Z</time></trkpt><trkpt lat="43.635334" lon="12.3400471"><ele>554.0</ele><time>2026-05-02T07:42:11.79Z</time></trkpt><trkpt lat="43.6352195" lon="12.3399938"><ele>555.25</ele><time>2026-05-02T07:42:12.769Z</time></trkpt><trkpt lat="43.6351007" lon="12.3399442"><ele>556.5</ele><time>2026-05-02T07:42:13.78Z</time></trkpt><trkpt lat="43.6349776" lon="12.3399094"><ele>557.75</ele><time>2026-05-02T07:42:14.787Z</time></trkpt><trkpt lat="43.634856" lon="12.33988"><ele>559.0</ele><time>2026-05-02T07:42:15.782Z</time></trkpt><trkpt lat="43.6347321" lon="12.3398715"><ele>559.0</ele><time>2026-05-02T07:42:16.768Z</time></trkpt><trkpt lat="43.6346094" lon="12.3398969"><ele>559.0</ele><time>2026-05-02T07:42:17.791Z</time></trkpt><trkpt lat="43.6344867" lon="12.3399296"><ele>559.0</ele><time>2026-05-02T07:42:18.777Z</time></trkpt><trkpt lat="43.6343626" lon="12.3399715"><ele>559.0</ele><time>2026-05-02T07:42:19.792Z</time></trkpt><trkpt lat="43.6342398" lon="12.3400164"><ele>559.75</ele><time>2026-05-02T07:42:20.774Z</time></trkpt><trkpt lat="43.6341211" lon="12.3400773"><ele>560.5</ele><time>2026-05-02T07:42:21.78Z</time></trkpt><trkpt lat="43.634009" lon="12.3401551"><ele>561.25</ele><time>2026-05-02T07:42:22.778Z</time></trkpt><trkpt lat="43.6339042" lon="12.3402471"><ele>562.0</ele><time>2026-05-02T07:42:23.794Z</time></trkpt><trkpt lat="43.6337991" lon="12.3403417"><ele>562.0</ele><time>2026-05-02T07:42:24.776Z</time></trkpt><trkpt lat="43.6337094" lon="12.3404608"><ele>562.0</ele><time>2026-05-02T07:42:25.783Z</time></trkpt><trkpt lat="43.6336255" lon="12.3405867"><ele>562.0</ele><time>2026-05-02T07:42:26.771Z</time></trkpt><trkpt lat="43.6335497" lon="12.3407138"><ele>562.0</ele><time>2026-05-02T07:42:27.777Z</time></trkpt><trkpt lat="43.6334826" lon="12.3408381"><ele>563.6666666666667</ele><time>2026-05-02T07:42:28.792Z</time></trkpt><trkpt lat="43.6334228" lon="12.3409552"><ele>565.3333333333334</ele><time>2026-05-02T07:42:29.784Z</time></trkpt><trkpt lat="43.6333801" lon="12.3410772"><ele>567.0</ele><time>2026-05-02T07:42:30.78Z</time></trkpt><trkpt lat="43.6333602" lon="12.3411866"><ele>568.6666666666666</ele><time>2026-05-02T07:42:31.782Z</time></trkpt><trkpt lat="43.6333689" lon="12.3413124"><ele>570.3333333333333</ele><time>2026-05-02T07:42:32.789Z</time></trkpt><trkpt lat="43.6334004" lon="12.3414052"><ele>572.0</ele><time>2026-05-02T07:42:33.787Z</time></trkpt><trkpt lat="43.6334544" lon="12.3414796"><ele>574.4</ele><time>2026-05-02T07:42:34.778Z</time></trkpt><trkpt lat="43.6335297" lon="12.3415226"><ele>576.8000000000001</ele><time>2026-05-02T07:42:35.799Z</time></trkpt><trkpt lat="43.6336091" lon="12.3415416"><ele>579.2</ele><time>2026-05-02T07:42:36.772Z</time></trkpt><trkpt lat="43.6337028" lon="12.341556"><ele>581.6</ele><time>2026-05-02T07:42:37.799Z</time></trkpt><trkpt lat="43.6338123" lon="12.3415561"><ele>584.0</ele><time>2026-05-02T07:42:38.779Z</time></trkpt><trkpt lat="43.6339314" lon="12.3415624"><ele>584.75</ele><time>2026-05-02T07:42:39.78Z</time></trkpt><trkpt lat="43.6340573" lon="12.3415679"><ele>585.5</ele><time>2026-05-02T07:42:40.775Z</time></trkpt><trkpt lat="43.6341846" lon="12.3415844"><ele>586.25</ele><time>2026-05-02T07:42:41.777Z</time></trkpt><trkpt lat="43.6343133" lon="12.341603"><ele>587.0</ele><time>2026-05-02T07:42:42.785Z</time></trkpt><trkpt lat="43.6344465" lon="12.3416194"><ele>586.75</ele><time>2026-05-02T07:42:43.779Z</time></trkpt><trkpt lat="43.6345774" lon="12.3416285"><ele>586.5</ele><time>2026-05-02T07:42:44.778Z</time></trkpt><trkpt lat="43.6347071" lon="12.3416563"><ele>586.25</ele><time>2026-05-02T07:42:45.781Z</time></trkpt><trkpt lat="43.6348318" lon="12.3417095"><ele>586.0</ele><time>2026-05-02T07:42:46.78Z</time></trkpt><trkpt lat="43.6349533" lon="12.3417811"><ele>586.0</ele><time>2026-05-02T07:42:47.78Z</time></trkpt><trkpt lat="43.6350763" lon="12.3418596"><ele>586.0</ele><time>2026-05-02T07:42:48.777Z</time></trkpt><trkpt lat="43.6351995" lon="12.3419214"><ele>586.0</ele><time>2026-05-02T07:42:49.785Z</time></trkpt><trkpt lat="43.6353219" lon="12.3419563"><ele>586.0</ele><time>2026-05-02T07:42:50.779Z</time></trkpt><trkpt lat="43.635447" lon="12.3419598"><ele>587.0</ele><time>2026-05-02T07:42:51.783Z</time></trkpt><trkpt lat="43.6355658" lon="12.3419302"><ele>588.0</ele><time>2026-05-02T07:42:52.777Z</time></trkpt><trkpt lat="43.6356696" lon="12.3418816"><ele>589.0</ele><time>2026-05-02T07:42:53.78Z</time></trkpt><trkpt lat="43.6357606" lon="12.3418504"><ele>590.0</ele><time>2026-05-02T07:42:54.765Z</time></trkpt><trkpt lat="43.6358354" lon="12.3418478"><ele>591.0</ele><time>2026-05-02T07:42:55.772Z</time></trkpt><trkpt lat="43.6359085" lon="12.3418747"><ele>591.0</ele><time>2026-05-02T07:42:56.773Z</time></trkpt><trkpt lat="43.6359767" lon="12.3419472"><ele>591.0</ele><time>2026-05-02T07:42:57.784Z</time></trkpt><trkpt lat="43.6360204" lon="12.3420419"><ele>591.0</ele><time>2026-05-02T07:42:58.773Z</time></trkpt><trkpt lat="43.6360321" lon="12.3421579"><ele>591.0</ele><time>2026-05-02T07:42:59.787Z</time></trkpt><trkpt lat="43.636013" lon="12.3422658"><ele>591.0</ele><time>2026-05-02T07:43:00.788Z</time></trkpt><trkpt lat="43.635967" lon="12.3423521"><ele>591.0</ele><time>2026-05-02T07:43:01.787Z</time></trkpt><trkpt lat="43.6358933" lon="12.3424343"><ele>594.25</ele><time>2026-05-02T07:43:02.778Z</time></trkpt><trkpt lat="43.6358013" lon="12.3425137"><ele>597.5</ele><time>2026-05-02T07:43:03.776Z</time></trkpt><trkpt lat="43.6357121" lon="12.3425971"><ele>600.75</ele><time>2026-05-02T07:43:04.775Z</time></trkpt><trkpt lat="43.6356135" lon="12.3426879"><ele>604.0</ele><time>2026-05-02T07:43:05.778Z</time></trkpt><trkpt lat="43.6355023" lon="12.3427982"><ele>604.0</ele><time>2026-05-02T07:43:06.779Z</time></trkpt><trkpt lat="43.6353789" lon="12.342891"><ele>604.0</ele><time>2026-05-02T07:43:07.781Z</time></trkpt><trkpt lat="43.6352459" lon="12.3429538"><ele>604.0</ele><time>2026-05-02T07:43:08.777Z</time></trkpt><trkpt lat="43.6351081" lon="12.3429757"><ele>604.0</ele><time>2026-05-02T07:43:09.804Z</time></trkpt><trkpt lat="43.6349752" lon="12.3429597"><ele>603.25</ele><time>2026-05-02T07:43:10.776Z</time></trkpt><trkpt lat="43.6348437" lon="12.3429414"><ele>602.5</ele><time>2026-05-02T07:43:11.779Z</time></trkpt><trkpt lat="43.6347193" lon="12.3429364"><ele>601.75</ele><time>2026-05-02T07:43:12.779Z</time></trkpt><trkpt lat="43.6346045" lon="12.3429767"><ele>601.0</ele><time>2026-05-02T07:43:13.787Z</time></trkpt><trkpt lat="43.6345192" lon="12.343069"><ele>602.75</ele><time>2026-05-02T07:43:14.773Z</time></trkpt><trkpt lat="43.6344495" lon="12.3432043"><ele>604.5</ele><time>2026-05-02T07:43:15.774Z</time></trkpt><trkpt lat="43.6343817" lon="12.3433641"><ele>606.25</ele><time>2026-05-02T07:43:16.778Z</time></trkpt><trkpt lat="43.634314" lon="12.3435295"><ele>608.0</ele><time>2026-05-02T07:43:17.775Z</time></trkpt><trkpt lat="43.6342461" lon="12.3436809"><ele>608.0</ele><time>2026-05-02T07:43:18.765Z</time></trkpt><trkpt lat="43.6341662" lon="12.343818"><ele>608.0</ele><time>2026-05-02T07:43:19.773Z</time></trkpt><trkpt lat="43.6340705" lon="12.343927"><ele>608.0</ele><time>2026-05-02T07:43:20.77Z</time></trkpt><trkpt lat="43.6339657" lon="12.3440131"><ele>608.0</ele><time>2026-05-02T07:43:21.779Z</time></trkpt><trkpt lat="43.6338541" lon="12.3440503"><ele>609.8</ele><time>2026-05-02T07:43:22.776Z</time></trkpt><trkpt lat="43.633738" lon="12.344066"><ele>611.5999999999999</ele><time>2026-05-02T07:43:23.778Z</time></trkpt><trkpt lat="43.6336237" lon="12.3440714"><ele>613.4000000000001</ele><time>2026-05-02T07:43:24.772Z</time></trkpt><trkpt lat="43.6335186" lon="12.3441026"><ele>615.2</ele><time>2026-05-02T07:43:25.798Z</time></trkpt><trkpt lat="43.633434" lon="12.344157"><ele>617.0</ele><time>2026-05-02T07:43:26.767Z</time></trkpt><trkpt lat="43.6333734" lon="12.3442521"><ele>617.0</ele><time>2026-05-02T07:43:27.785Z</time></trkpt><trkpt lat="43.6333264" lon="12.3443784"><ele>617.0</ele><time>2026-05-02T07:43:28.776Z</time></trkpt><trkpt lat="43.6332799" lon="12.3445249"><ele>617.0</ele><time>2026-05-02T07:43:29.778Z</time></trkpt><trkpt lat="43.6332259" lon="12.3446763"><ele>617.0</ele><time>2026-05-02T07:43:30.776Z</time></trkpt><trkpt lat="43.633165" lon="12.3448254"><ele>620.0</ele><time>2026-05-02T07:43:31.782Z</time></trkpt><trkpt lat="43.6330844" lon="12.344964"><ele>623.0</ele><time>2026-05-02T07:43:32.782Z</time></trkpt><trkpt lat="43.6329977" lon="12.3451117"><ele>626.0</ele><time>2026-05-02T07:43:33.774Z</time></trkpt><trkpt lat="43.6329073" lon="12.3452607"><ele>629.0</ele><time>2026-05-02T07:43:34.778Z</time></trkpt><trkpt lat="43.6328168" lon="12.3454084"><ele>629.5</ele><time>2026-05-02T07:43:35.795Z</time></trkpt><trkpt lat="43.63272" lon="12.3455498"><ele>630.0</ele><time>2026-05-02T07:43:36.775Z</time></trkpt><trkpt lat="43.6326217" lon="12.3456925"><ele>630.5</ele><time>2026-05-02T07:43:37.783Z</time></trkpt><trkpt lat="43.6325248" lon="12.3458335"><ele>631.0</ele><time>2026-05-02T07:43:38.78Z</time></trkpt><trkpt lat="43.6324323" lon="12.3459778"><ele>631.0</ele><time>2026-05-02T07:43:39.763Z</time></trkpt><trkpt lat="43.6323454" lon="12.3461192"><ele>631.0</ele><time>2026-05-02T07:43:40.771Z</time></trkpt><trkpt lat="43.6322591" lon="12.3462649"><ele>631.0</ele><time>2026-05-02T07:43:41.774Z</time></trkpt><trkpt lat="43.6321785" lon="12.3464121"><ele>631.0</ele><time>2026-05-02T07:43:42.775Z</time></trkpt><trkpt lat="43.6321143" lon="12.3465747"><ele>634.0</ele><time>2026-05-02T07:43:43.776Z</time></trkpt><trkpt lat="43.6320677" lon="12.346747"><ele>637.0</ele><time>2026-05-02T07:43:44.767Z</time></trkpt><trkpt lat="43.6320409" lon="12.3469288"><ele>640.0</ele><time>2026-05-02T07:43:45.786Z</time></trkpt><trkpt lat="43.6320359" lon="12.3471124"><ele>643.0</ele><time>2026-05-02T07:43:46.77Z</time></trkpt><trkpt lat="43.6320448" lon="12.3472946"><ele>643.0</ele><time>2026-05-02T07:43:47.787Z</time></trkpt><trkpt lat="43.6320445" lon="12.3474657"><ele>643.0</ele><time>2026-05-02T07:43:48.774Z</time></trkpt><trkpt lat="43.6320224" lon="12.3476314"><ele>643.0</ele><time>2026-05-02T07:43:49.778Z</time></trkpt><trkpt lat="43.6319777" lon="12.3477923"><ele>643.0</ele><time>2026-05-02T07:43:50.775Z</time></trkpt><trkpt lat="43.6319237" lon="12.347947"><ele>646.5</ele><time>2026-05-02T07:43:51.785Z</time></trkpt><trkpt lat="43.6318628" lon="12.3480846"><ele>650.0</ele><time>2026-05-02T07:43:52.776Z</time></trkpt><trkpt lat="43.6317858" lon="12.3482172"><ele>653.5</ele><time>2026-05-02T07:43:53.777Z</time></trkpt><trkpt lat="43.6316998" lon="12.3483225"><ele>657.0</ele><time>2026-05-02T07:43:54.774Z</time></trkpt><trkpt lat="43.6316069" lon="12.3483965"><ele>657.0</ele><time>2026-05-02T07:43:55.783Z</time></trkpt><trkpt lat="43.631509" lon="12.3484487"><ele>657.0</ele><time>2026-05-02T07:43:56.78Z</time></trkpt><trkpt lat="43.6314026" lon="12.3484565"><ele>657.0</ele><time>2026-05-02T07:43:57.783Z</time></trkpt><trkpt lat="43.6312992" lon="12.3484372"><ele>657.0</ele><time>2026-05-02T07:43:58.771Z</time></trkpt><trkpt lat="43.6312064" lon="12.3483848"><ele>657.0</ele><time>2026-05-02T07:43:59.792Z</time></trkpt><trkpt lat="43.6311249" lon="12.348311"><ele>658.5</ele><time>2026-05-02T07:44:00.77Z</time></trkpt><trkpt lat="43.6310307" lon="12.3482286"><ele>660.0</ele><time>2026-05-02T07:44:01.771Z</time></trkpt><trkpt lat="43.6309372" lon="12.348137"><ele>661.5</ele><time>2026-05-02T07:44:02.772Z</time></trkpt><trkpt lat="43.6308313" lon="12.3480504"><ele>663.0</ele><time>2026-05-02T07:44:03.783Z</time></trkpt><trkpt lat="43.6307241" lon="12.3479747"><ele>662.0</ele><time>2026-05-02T07:44:04.774Z</time></trkpt><trkpt lat="43.6306084" lon="12.3478914"><ele>661.0</ele><time>2026-05-02T07:44:05.795Z</time></trkpt><trkpt lat="43.6305179" lon="12.3478386"><ele>660.0</ele><time>2026-05-02T07:44:06.784Z</time></trkpt><trkpt lat="43.6304378" lon="12.3478288"><ele>659.0</ele><time>2026-05-02T07:44:07.782Z</time></trkpt><trkpt lat="43.6303428" lon="12.3478456"><ele>658.0</ele><time>2026-05-02T07:44:08.769Z</time></trkpt><trkpt lat="43.630236" lon="12.3478842"><ele>658.0</ele><time>2026-05-02T07:44:09.798Z</time></trkpt><trkpt lat="43.6301272" lon="12.347933"><ele>658.0</ele><time>2026-05-02T07:44:10.77Z</time></trkpt><trkpt lat="43.6300126" lon="12.3479726"><ele>658.0</ele><time>2026-05-02T07:44:11.77Z</time></trkpt><trkpt lat="43.6298987" lon="12.3480146"><ele>658.0</ele><time>2026-05-02T07:44:12.774Z</time></trkpt><trkpt lat="43.6297823" lon="12.3480606"><ele>660.0</ele><time>2026-05-02T07:44:13.782Z</time></trkpt><trkpt lat="43.6296649" lon="12.348112"><ele>662.0</ele><time>2026-05-02T07:44:14.775Z</time></trkpt><trkpt lat="43.6295548" lon="12.3481602"><ele>664.0</ele><time>2026-05-02T07:44:15.789Z</time></trkpt><trkpt lat="43.6294456" lon="12.3482244"><ele>666.0</ele><time>2026-05-02T07:44:16.776Z</time></trkpt><trkpt lat="43.6293404" lon="12.3483083"><ele>666.0</ele><time>2026-05-02T07:44:17.792Z</time></trkpt><trkpt lat="43.6292362" lon="12.3484049"><ele>666.0</ele><time>2026-05-02T07:44:18.77Z</time></trkpt><trkpt lat="43.6291435" lon="12.3485152"><ele>666.0</ele><time>2026-05-02T07:44:19.797Z</time></trkpt><trkpt lat="43.6290566" lon="12.3486409"><ele>666.0</ele><time>2026-05-02T07:44:20.782Z</time></trkpt><trkpt lat="43.6289706" lon="12.3487731"><ele>669.25</ele><time>2026-05-02T07:44:21.789Z</time></trkpt><trkpt lat="43.6288926" lon="12.3489115"><ele>672.5</ele><time>2026-05-02T07:44:22.77Z</time></trkpt><trkpt lat="43.628821" lon="12.3490541"><ele>675.75</ele><time>2026-05-02T07:44:23.784Z</time></trkpt><trkpt lat="43.628753" lon="12.3491908"><ele>679.0</ele><time>2026-05-02T07:44:24.78Z</time></trkpt><trkpt lat="43.6286928" lon="12.3493394"><ele>679.0</ele><time>2026-05-02T07:44:25.793Z</time></trkpt><trkpt lat="43.6286487" lon="12.349497"><ele>679.0</ele><time>2026-05-02T07:44:26.778Z</time></trkpt><trkpt lat="43.6286221" lon="12.349672"><ele>679.0</ele><time>2026-05-02T07:44:27.781Z</time></trkpt><trkpt lat="43.6286005" lon="12.3498498"><ele>679.0</ele><time>2026-05-02T07:44:28.779Z</time></trkpt><trkpt lat="43.6285804" lon="12.3500388"><ele>678.6666666666667</ele><time>2026-05-02T07:44:29.793Z</time></trkpt><trkpt lat="43.628564" lon="12.3502439"><ele>678.3333333333334</ele><time>2026-05-02T07:44:30.774Z</time></trkpt><trkpt lat="43.628545" lon="12.350451"><ele>678.0</ele><time>2026-05-02T07:44:31.81Z</time></trkpt><trkpt lat="43.6285264" lon="12.3506566"><ele>679.75</ele><time>2026-05-02T07:44:32.772Z</time></trkpt><trkpt lat="43.6285112" lon="12.3508575"><ele>681.5</ele><time>2026-05-02T07:44:33.794Z</time></trkpt><trkpt lat="43.6284998" lon="12.3510479"><ele>683.25</ele><time>2026-05-02T07:44:34.769Z</time></trkpt><trkpt lat="43.6284875" lon="12.3512338"><ele>685.0</ele><time>2026-05-02T07:44:35.782Z</time></trkpt><trkpt lat="43.628474" lon="12.3514237"><ele>688.0</ele><time>2026-05-02T07:44:36.771Z</time></trkpt><trkpt lat="43.6284556" lon="12.3516179"><ele>691.0</ele><time>2026-05-02T07:44:37.79Z</time></trkpt><trkpt lat="43.628429" lon="12.35181"><ele>694.0</ele><time>2026-05-02T07:44:38.78Z</time></trkpt><trkpt lat="43.6283938" lon="12.3519932"><ele>697.0</ele><time>2026-05-02T07:44:39.784Z</time></trkpt><trkpt lat="43.6283469" lon="12.3521597"><ele>700.25</ele><time>2026-05-02T07:44:40.779Z</time></trkpt><trkpt lat="43.6282819" lon="12.3522963"><ele>703.5</ele><time>2026-05-02T07:44:41.789Z</time></trkpt><trkpt lat="43.6281954" lon="12.3524178"><ele>706.75</ele><time>2026-05-02T07:44:42.774Z</time></trkpt><trkpt lat="43.628089" lon="12.3525167"><ele>710.0</ele><time>2026-05-02T07:44:43.779Z</time></trkpt><trkpt lat="43.627981" lon="12.352623"><ele>710.0</ele><time>2026-05-02T07:44:44.774Z</time></trkpt><trkpt lat="43.6278772" lon="12.3527161"><ele>710.0</ele><time>2026-05-02T07:44:45.771Z</time></trkpt><trkpt lat="43.6277759" lon="12.3527745"><ele>710.0</ele><time>2026-05-02T07:44:46.762Z</time></trkpt><trkpt lat="43.6276888" lon="12.3527969"><ele>710.0</ele><time>2026-05-02T07:44:47.785Z</time></trkpt><trkpt lat="43.6276077" lon="12.3527715"><ele>710.0</ele><time>2026-05-02T07:44:48.764Z</time></trkpt><trkpt lat="43.6275315" lon="12.3526896"><ele>709.8</ele><time>2026-05-02T07:44:49.78Z</time></trkpt><trkpt lat="43.6274767" lon="12.3525878"><ele>709.6</ele><time>2026-05-02T07:44:50.777Z</time></trkpt><trkpt lat="43.6274242" lon="12.3524633"><ele>709.4000000000001</ele><time>2026-05-02T07:44:51.774Z</time></trkpt><trkpt lat="43.6273707" lon="12.3523355"><ele>709.2</ele><time>2026-05-02T07:44:52.779Z</time></trkpt><trkpt lat="43.6273237" lon="12.3522123"><ele>709.0</ele><time>2026-05-02T07:44:53.778Z</time></trkpt><trkpt lat="43.6272956" lon="12.3520696"><ele>708.4000000000001</ele><time>2026-05-02T07:44:54.76Z</time></trkpt><trkpt lat="43.6272824" lon="12.3519137"><ele>707.8</ele><time>2026-05-02T07:44:55.783Z</time></trkpt><trkpt lat="43.6272706" lon="12.3517779"><ele>707.2</ele><time>2026-05-02T07:44:56.776Z</time></trkpt><trkpt lat="43.6272393" lon="12.3516664"><ele>706.5999999999999</ele><time>2026-05-02T07:44:57.797Z</time></trkpt><trkpt lat="43.6271826" lon="12.3515734"><ele>706.0</ele><time>2026-05-02T07:44:58.774Z</time></trkpt><trkpt lat="43.6271076" lon="12.3514875"><ele>706.0</ele><time>2026-05-02T07:44:59.774Z</time></trkpt><trkpt lat="43.6270144" lon="12.3514125"><ele>706.0</ele><time>2026-05-02T07:45:00.779Z</time></trkpt><trkpt lat="43.6269101" lon="12.351337"><ele>706.0</ele><time>2026-05-02T07:45:01.772Z</time></trkpt><trkpt lat="43.6268087" lon="12.351271"><ele>706.0</ele><time>2026-05-02T07:45:02.771Z</time></trkpt><trkpt lat="43.626704" lon="12.3511978"><ele>708.8</ele><time>2026-05-02T07:45:03.798Z</time></trkpt><trkpt lat="43.6265941" lon="12.3511317"><ele>711.5999999999999</ele><time>2026-05-02T07:45:04.773Z</time></trkpt><trkpt lat="43.6264968" lon="12.3510566"><ele>714.4</ele><time>2026-05-02T07:45:05.808Z</time></trkpt><trkpt lat="43.6264159" lon="12.3509658"><ele>717.2</ele><time>2026-05-02T07:45:06.772Z</time></trkpt><trkpt lat="43.6263522" lon="12.3508683"><ele>720.0</ele><time>2026-05-02T07:45:07.794Z</time></trkpt><trkpt lat="43.6263111" lon="12.3507511"><ele>720.0</ele><time>2026-05-02T07:45:08.775Z</time></trkpt><trkpt lat="43.6263009" lon="12.350612"><ele>720.0</ele><time>2026-05-02T07:45:09.778Z</time></trkpt><trkpt lat="43.6263062" lon="12.3504668"><ele>720.0</ele><time>2026-05-02T07:45:10.775Z</time></trkpt><trkpt lat="43.626316" lon="12.3503227"><ele>720.0</ele><time>2026-05-02T07:45:11.796Z</time></trkpt><trkpt lat="43.6263316" lon="12.3501813"><ele>720.0</ele><time>2026-05-02T07:45:12.778Z</time></trkpt><trkpt lat="43.6263502" lon="12.3500422"><ele>719.3333333333334</ele><time>2026-05-02T07:45:13.789Z</time></trkpt><trkpt lat="43.6263542" lon="12.3499059"><ele>718.6666666666666</ele><time>2026-05-02T07:45:14.764Z</time></trkpt><trkpt lat="43.6263525" lon="12.3497769"><ele>718.0</ele><time>2026-05-02T07:45:15.789Z</time></trkpt><trkpt lat="43.6263292" lon="12.3496904"><ele>717.3333333333333</ele><time>2026-05-02T07:45:16.772Z</time></trkpt><trkpt lat="43.6262824" lon="12.3496305"><ele>716.6666666666666</ele><time>2026-05-02T07:45:17.779Z</time></trkpt><trkpt lat="43.6262194" lon="12.3495785"><ele>716.0</ele><time>2026-05-02T07:45:18.771Z</time></trkpt><trkpt lat="43.6261453" lon="12.3495407"><ele>719.1999999999999</ele><time>2026-05-02T07:45:19.785Z</time></trkpt><trkpt lat="43.6260487" lon="12.3495096"><ele>722.4</ele><time>2026-05-02T07:45:20.784Z</time></trkpt><trkpt lat="43.6259431" lon="12.3494822"><ele>725.6</ele><time>2026-05-02T07:45:21.788Z</time></trkpt><trkpt lat="43.6258349" lon="12.3494254"><ele>728.8</ele><time>2026-05-02T07:45:22.788Z</time></trkpt><trkpt lat="43.6257284" lon="12.3493536"><ele>732.0</ele><time>2026-05-02T07:45:23.789Z</time></trkpt><trkpt lat="43.6256298" lon="12.3492664"><ele>732.0</ele><time>2026-05-02T07:45:24.783Z</time></trkpt><trkpt lat="43.6255308" lon="12.3491659"><ele>732.0</ele><time>2026-05-02T07:45:25.782Z</time></trkpt><trkpt lat="43.6254388" lon="12.3490493"><ele>732.0</ele><time>2026-05-02T07:45:26.771Z</time></trkpt><trkpt lat="43.6253635" lon="12.3489239"><ele>732.0</ele><time>2026-05-02T07:45:27.799Z</time></trkpt><trkpt lat="43.6253043" lon="12.3487837"><ele>734.25</ele><time>2026-05-02T07:45:28.771Z</time></trkpt><trkpt lat="43.6252533" lon="12.3486399"><ele>736.5</ele><time>2026-05-02T07:45:29.777Z</time></trkpt><trkpt lat="43.6252059" lon="12.3484965"><ele>738.75</ele><time>2026-05-02T07:45:30.774Z</time></trkpt><trkpt lat="43.6251556" lon="12.3483507"><ele>741.0</ele><time>2026-05-02T07:45:31.791Z</time></trkpt><trkpt lat="43.6251007" lon="12.3481978"><ele>742.0</ele><time>2026-05-02T07:45:32.771Z</time></trkpt><trkpt lat="43.6250487" lon="12.3480426"><ele>743.0</ele><time>2026-05-02T07:45:33.757Z</time></trkpt><trkpt lat="43.6249966" lon="12.3478809"><ele>744.0</ele><time>2026-05-02T07:45:34.762Z</time></trkpt><trkpt lat="43.6249379" lon="12.3477272"><ele>745.0</ele><time>2026-05-02T07:45:35.772Z</time></trkpt><trkpt lat="43.6248904" lon="12.3475813"><ele>745.0</ele><time>2026-05-02T07:45:36.77Z</time></trkpt><trkpt lat="43.6248468" lon="12.3474502"><ele>745.0</ele><time>2026-05-02T07:45:37.803Z</time></trkpt><trkpt lat="43.6247924" lon="12.3472996"><ele>745.0</ele><time>2026-05-02T07:45:38.792Z</time></trkpt><trkpt lat="43.6247406" lon="12.3471396"><ele>745.0</ele><time>2026-05-02T07:45:39.785Z</time></trkpt><trkpt lat="43.6246829" lon="12.3469818"><ele>746.0</ele><time>2026-05-02T07:45:40.772Z</time></trkpt><trkpt lat="43.6246288" lon="12.3468205"><ele>747.0</ele><time>2026-05-02T07:45:41.782Z</time></trkpt><trkpt lat="43.6245815" lon="12.3466553"><ele>748.0</ele><time>2026-05-02T07:45:42.773Z</time></trkpt><trkpt lat="43.6245296" lon="12.3464851"><ele>749.0</ele><time>2026-05-02T07:45:43.786Z</time></trkpt><trkpt lat="43.6244746" lon="12.3463139"><ele>749.75</ele><time>2026-05-02T07:45:44.76Z</time></trkpt><trkpt lat="43.6244238" lon="12.3461507"><ele>750.5</ele><time>2026-05-02T07:45:45.78Z</time></trkpt><trkpt lat="43.6243835" lon="12.345994"><ele>751.25</ele><time>2026-05-02T07:45:46.784Z</time></trkpt><trkpt lat="43.6243473" lon="12.3458556"><ele>752.0</ele><time>2026-05-02T07:45:47.785Z</time></trkpt><trkpt lat="43.6243323" lon="12.3457237"><ele>752.0</ele><time>2026-05-02T07:45:48.771Z</time></trkpt><trkpt lat="43.624328" lon="12.3456152"><ele>752.0</ele><time>2026-05-02T07:45:49.783Z</time></trkpt><trkpt lat="43.6243308" lon="12.3454688"><ele>752.0</ele><time>2026-05-02T07:45:51.771Z</time></trkpt><trkpt lat="43.6243505" lon="12.3453422"><ele>752.0</ele><time>2026-05-02T07:45:53.792Z</time></trkpt><trkpt lat="43.6243767" lon="12.345196"><ele>752.0</ele><time>2026-05-02T07:45:55.793Z</time></trkpt><trkpt lat="43.6244077" lon="12.3451076"><ele>750.2</ele><time>2026-05-02T07:45:56.783Z</time></trkpt><trkpt lat="43.6244527" lon="12.3450065"><ele>748.4000000000001</ele><time>2026-05-02T07:45:57.771Z</time></trkpt><trkpt lat="43.6245136" lon="12.3449094"><ele>746.5999999999999</ele><time>2026-05-02T07:45:58.767Z</time></trkpt><trkpt lat="43.6245926" lon="12.3448156"><ele>744.8</ele><time>2026-05-02T07:45:59.789Z</time></trkpt><trkpt lat="43.6246779" lon="12.3447279"><ele>743.0</ele><time>2026-05-02T07:46:00.778Z</time></trkpt><trkpt lat="43.6247638" lon="12.3446358"><ele>742.0</ele><time>2026-05-02T07:46:01.771Z</time></trkpt><trkpt lat="43.6248481" lon="12.3445323"><ele>741.0</ele><time>2026-05-02T07:46:02.772Z</time></trkpt><trkpt lat="43.6249258" lon="12.3444268"><ele>740.0</ele><time>2026-05-02T07:46:03.796Z</time></trkpt><trkpt lat="43.6250005" lon="12.3443292"><ele>739.0</ele><time>2026-05-02T07:46:04.763Z</time></trkpt><trkpt lat="43.6250755" lon="12.344233"><ele>738.0</ele><time>2026-05-02T07:46:05.782Z</time></trkpt><trkpt lat="43.6251521" lon="12.3441335"><ele>738.0</ele><time>2026-05-02T07:46:06.772Z</time></trkpt><trkpt lat="43.6252248" lon="12.3440329"><ele>738.0</ele><time>2026-05-02T07:46:07.774Z</time></trkpt><trkpt lat="43.6252961" lon="12.3439319"><ele>738.0</ele><time>2026-05-02T07:46:08.785Z</time></trkpt><trkpt lat="43.6253687" lon="12.3438343"><ele>738.0</ele><time>2026-05-02T07:46:09.796Z</time></trkpt><trkpt lat="43.625443" lon="12.3437401"><ele>738.0</ele><time>2026-05-02T07:46:10.775Z</time></trkpt><trkpt lat="43.6255136" lon="12.3436466"><ele>735.8</ele><time>2026-05-02T07:46:11.785Z</time></trkpt><trkpt lat="43.6255747" lon="12.3435496"><ele>733.5999999999999</ele><time>2026-05-02T07:46:12.782Z</time></trkpt><trkpt lat="43.6256278" lon="12.3434445"><ele>731.4000000000001</ele><time>2026-05-02T07:46:13.787Z</time></trkpt><trkpt lat="43.6256684" lon="12.343326"><ele>729.2</ele><time>2026-05-02T07:46:14.774Z</time></trkpt><trkpt lat="43.6256889" lon="12.343203"><ele>727.0</ele><time>2026-05-02T07:46:15.785Z</time></trkpt><trkpt lat="43.6256929" lon="12.3430663"><ele>727.0</ele><time>2026-05-02T07:46:16.778Z</time></trkpt><trkpt lat="43.6256917" lon="12.3429136"><ele>727.0</ele><time>2026-05-02T07:46:17.775Z</time></trkpt><trkpt lat="43.6256833" lon="12.342755"><ele>727.0</ele><time>2026-05-02T07:46:18.776Z</time></trkpt><trkpt lat="43.6256757" lon="12.3425808"><ele>727.0</ele><time>2026-05-02T07:46:19.775Z</time></trkpt><trkpt lat="43.6256602" lon="12.3423997"><ele>728.75</ele><time>2026-05-02T07:46:20.766Z</time></trkpt><trkpt lat="43.6256459" lon="12.3422115"><ele>730.5</ele><time>2026-05-02T07:46:21.793Z</time></trkpt><trkpt lat="43.6256292" lon="12.3420108"><ele>732.25</ele><time>2026-05-02T07:46:22.772Z</time></trkpt><trkpt lat="43.6256063" lon="12.3418287"><ele>734.0</ele><time>2026-05-02T07:46:23.795Z</time></trkpt><trkpt lat="43.6255853" lon="12.3416504"><ele>734.0</ele><time>2026-05-02T07:46:24.778Z</time></trkpt><trkpt lat="43.6255673" lon="12.3414725"><ele>734.0</ele><time>2026-05-02T07:46:25.797Z</time></trkpt><trkpt lat="43.6255538" lon="12.341303"><ele>734.0</ele><time>2026-05-02T07:46:26.778Z</time></trkpt><trkpt lat="43.6255315" lon="12.3411325"><ele>734.0</ele><time>2026-05-02T07:46:27.785Z</time></trkpt><trkpt lat="43.6255113" lon="12.3409617"><ele>733.5</ele><time>2026-05-02T07:46:28.772Z</time></trkpt><trkpt lat="43.6254929" lon="12.3407832"><ele>733.0</ele><time>2026-05-02T07:46:29.783Z</time></trkpt><trkpt lat="43.6254719" lon="12.3406045"><ele>732.5</ele><time>2026-05-02T07:46:30.775Z</time></trkpt><trkpt lat="43.6254488" lon="12.3404285"><ele>732.0</ele><time>2026-05-02T07:46:31.798Z</time></trkpt><trkpt lat="43.6254282" lon="12.3402546"><ele>731.5</ele><time>2026-05-02T07:46:32.778Z</time></trkpt><trkpt lat="43.6254098" lon="12.3400779"><ele>731.0</ele><time>2026-05-02T07:46:33.759Z</time></trkpt><trkpt lat="43.6253868" lon="12.3399109"><ele>730.5</ele><time>2026-05-02T07:46:34.785Z</time></trkpt><trkpt lat="43.6253696" lon="12.3397463"><ele>730.0</ele><time>2026-05-02T07:46:35.772Z</time></trkpt><trkpt lat="43.6253495" lon="12.3395886"><ele>728.5</ele><time>2026-05-02T07:46:36.773Z</time></trkpt><trkpt lat="43.6253328" lon="12.3394298"><ele>727.0</ele><time>2026-05-02T07:46:37.777Z</time></trkpt><trkpt lat="43.625332" lon="12.3392767"><ele>725.5</ele><time>2026-05-02T07:46:38.765Z</time></trkpt><trkpt lat="43.6253499" lon="12.3391192"><ele>724.0</ele><time>2026-05-02T07:46:39.784Z</time></trkpt><trkpt lat="43.6253785" lon="12.338966"><ele>724.0</ele><time>2026-05-02T07:46:40.777Z</time></trkpt><trkpt lat="43.6254134" lon="12.3388018"><ele>724.0</ele><time>2026-05-02T07:46:41.781Z</time></trkpt><trkpt lat="43.6254505" lon="12.3386425"><ele>724.0</ele><time>2026-05-02T07:46:42.771Z</time></trkpt><trkpt lat="43.625486" lon="12.3384733"><ele>724.0</ele><time>2026-05-02T07:46:43.787Z</time></trkpt><trkpt lat="43.6255107" lon="12.3383129"><ele>724.0</ele><time>2026-05-02T07:46:44.776Z</time></trkpt><trkpt lat="43.6255213" lon="12.3381721"><ele>724.0</ele><time>2026-05-02T07:46:45.772Z</time></trkpt><trkpt lat="43.6255117" lon="12.3380434"><ele>724.0</ele><time>2026-05-02T07:46:46.778Z</time></trkpt><trkpt lat="43.6254797" lon="12.3379213"><ele>724.0</ele><time>2026-05-02T07:46:47.772Z</time></trkpt><trkpt lat="43.6254292" lon="12.3378473"><ele>724.0</ele><time>2026-05-02T07:46:48.77Z</time></trkpt><trkpt lat="43.6253592" lon="12.3378149"><ele>724.0</ele><time>2026-05-02T07:46:49.788Z</time></trkpt><trkpt lat="43.6252857" lon="12.3378234"><ele>728.6</ele><time>2026-05-02T07:46:50.771Z</time></trkpt><trkpt lat="43.6252058" lon="12.337863"><ele>733.2</ele><time>2026-05-02T07:46:51.773Z</time></trkpt><trkpt lat="43.6251333" lon="12.3379387"><ele>737.8000000000001</ele><time>2026-05-02T07:46:52.778Z</time></trkpt><trkpt lat="43.6250565" lon="12.3380194"><ele>742.4000000000001</ele><time>2026-05-02T07:46:53.781Z</time></trkpt><trkpt lat="43.6249744" lon="12.3381093"><ele>747.0</ele><time>2026-05-02T07:46:54.767Z</time></trkpt><trkpt lat="43.6248886" lon="12.3381869"><ele>747.0</ele><time>2026-05-02T07:46:55.772Z</time></trkpt><trkpt lat="43.6247928" lon="12.3382345"><ele>747.0</ele><time>2026-05-02T07:46:56.772Z</time></trkpt><trkpt lat="43.6246927" lon="12.3382481"><ele>747.0</ele><time>2026-05-02T07:46:57.785Z</time></trkpt><trkpt lat="43.624599" lon="12.3382191"><ele>747.0</ele><time>2026-05-02T07:46:58.775Z</time></trkpt><trkpt lat="43.624518" lon="12.3381497"><ele>747.0</ele><time>2026-05-02T07:46:59.782Z</time></trkpt><trkpt lat="43.624452" lon="12.3380524"><ele>747.2</ele><time>2026-05-02T07:47:00.763Z</time></trkpt><trkpt lat="43.6243972" lon="12.3379336"><ele>747.4000000000001</ele><time>2026-05-02T07:47:01.788Z</time></trkpt><trkpt lat="43.6243429" lon="12.3377973"><ele>747.5999999999999</ele><time>2026-05-02T07:47:02.788Z</time></trkpt><trkpt lat="43.6242823" lon="12.3376642"><ele>747.8</ele><time>2026-05-02T07:47:03.788Z</time></trkpt><trkpt lat="43.6242159" lon="12.3375305"><ele>748.0</ele><time>2026-05-02T07:47:04.778Z</time></trkpt><trkpt lat="43.6241601" lon="12.3374079"><ele>748.0</ele><time>2026-05-02T07:47:05.783Z</time></trkpt><trkpt lat="43.6241214" lon="12.3372808"><ele>748.0</ele><time>2026-05-02T07:47:06.785Z</time></trkpt><trkpt lat="43.6241069" lon="12.3371371"><ele>748.0</ele><time>2026-05-02T07:47:07.783Z</time></trkpt><trkpt lat="43.6241022" lon="12.3369785"><ele>748.0</ele><time>2026-05-02T07:47:08.784Z</time></trkpt><trkpt lat="43.6240879" lon="12.3368167"><ele>748.0</ele><time>2026-05-02T07:47:09.779Z</time></trkpt><trkpt lat="43.6240683" lon="12.3366565"><ele>749.4</ele><time>2026-05-02T07:47:10.781Z</time></trkpt><trkpt lat="43.6240477" lon="12.3364976"><ele>750.8</ele><time>2026-05-02T07:47:11.781Z</time></trkpt><trkpt lat="43.6240319" lon="12.3363382"><ele>752.2</ele><time>2026-05-02T07:47:12.77Z</time></trkpt><trkpt lat="43.6240232" lon="12.3361902"><ele>753.6</ele><time>2026-05-02T07:47:13.779Z</time></trkpt><trkpt lat="43.6240068" lon="12.3360524"><ele>755.0</ele><time>2026-05-02T07:47:14.77Z</time></trkpt><trkpt lat="43.6239859" lon="12.3359286"><ele>756.5</ele><time>2026-05-02T07:47:15.799Z</time></trkpt><trkpt lat="43.6239542" lon="12.3358113"><ele>758.0</ele><time>2026-05-02T07:47:16.77Z</time></trkpt><trkpt lat="43.6239083" lon="12.3357098"><ele>759.5</ele><time>2026-05-02T07:47:17.788Z</time></trkpt><trkpt lat="43.6238505" lon="12.3356305"><ele>761.0</ele><time>2026-05-02T07:47:18.77Z</time></trkpt><trkpt lat="43.623771" lon="12.3355749"><ele>762.5</ele><time>2026-05-02T07:47:19.769Z</time></trkpt><trkpt lat="43.6236799" lon="12.335548"><ele>764.0</ele><time>2026-05-02T07:47:20.776Z</time></trkpt><trkpt lat="43.6235826" lon="12.3355608"><ele>763.2</ele><time>2026-05-02T07:47:21.786Z</time></trkpt><trkpt lat="43.6234864" lon="12.3355689"><ele>762.4000000000001</ele><time>2026-05-02T07:47:22.771Z</time></trkpt><trkpt lat="43.6233937" lon="12.3355612"><ele>761.6</ele><time>2026-05-02T07:47:23.779Z</time></trkpt><trkpt lat="43.6233013" lon="12.3355156"><ele>760.8</ele><time>2026-05-02T07:47:24.777Z</time></trkpt><trkpt lat="43.6232132" lon="12.3354315"><ele>760.0</ele><time>2026-05-02T07:47:25.777Z</time></trkpt><trkpt lat="43.6231352" lon="12.3353337"><ele>760.0</ele><time>2026-05-02T07:47:26.771Z</time></trkpt><trkpt lat="43.62305" lon="12.3352321"><ele>760.0</ele><time>2026-05-02T07:47:27.78Z</time></trkpt><trkpt lat="43.6229572" lon="12.3351212"><ele>760.0</ele><time>2026-05-02T07:47:28.768Z</time></trkpt><trkpt lat="43.6228663" lon="12.335023"><ele>760.0</ele><time>2026-05-02T07:47:29.796Z</time></trkpt><trkpt lat="43.6227814" lon="12.3349258"><ele>758.4</ele><time>2026-05-02T07:47:30.775Z</time></trkpt><trkpt lat="43.6227065" lon="12.3348211"><ele>756.8</ele><time>2026-05-02T07:47:31.787Z</time></trkpt><trkpt lat="43.6226432" lon="12.3347116"><ele>755.2</ele><time>2026-05-02T07:47:32.774Z</time></trkpt><trkpt lat="43.6225864" lon="12.3345937"><ele>753.6</ele><time>2026-05-02T07:47:33.79Z</time></trkpt><trkpt lat="43.6225242" lon="12.3344763"><ele>752.0</ele><time>2026-05-02T07:47:34.774Z</time></trkpt><trkpt lat="43.6224594" lon="12.3343654"><ele>752.0</ele><time>2026-05-02T07:47:35.773Z</time></trkpt><trkpt lat="43.622379" lon="12.334276"><ele>752.0</ele><time>2026-05-02T07:47:36.78Z</time></trkpt><trkpt lat="43.6222785" lon="12.3342122"><ele>752.0</ele><time>2026-05-02T07:47:37.792Z</time></trkpt><trkpt lat="43.6221706" lon="12.3341757"><ele>752.0</ele><time>2026-05-02T07:47:38.763Z</time></trkpt><trkpt lat="43.6220567" lon="12.3341588"><ele>752.0</ele><time>2026-05-02T07:47:39.802Z</time></trkpt><trkpt lat="43.6219352" lon="12.3341314"><ele>749.0</ele><time>2026-05-02T07:47:40.769Z</time></trkpt><trkpt lat="43.6218029" lon="12.3340951"><ele>746.0</ele><time>2026-05-02T07:47:41.794Z</time></trkpt><trkpt lat="43.6216809" lon="12.3340605"><ele>743.0</ele><time>2026-05-02T07:47:42.778Z</time></trkpt><trkpt lat="43.6215681" lon="12.3340294"><ele>740.0</ele><time>2026-05-02T07:47:43.795Z</time></trkpt><trkpt lat="43.6214697" lon="12.3340147"><ele>740.0</ele><time>2026-05-02T07:47:44.778Z</time></trkpt><trkpt lat="43.6213604" lon="12.3340153"><ele>740.0</ele><time>2026-05-02T07:47:45.786Z</time></trkpt><trkpt lat="43.6212452" lon="12.3340386"><ele>740.0</ele><time>2026-05-02T07:47:46.778Z</time></trkpt><trkpt lat="43.6211358" lon="12.3340874"><ele>740.0</ele><time>2026-05-02T07:47:47.784Z</time></trkpt><trkpt lat="43.6210283" lon="12.3341587"><ele>743.25</ele><time>2026-05-02T07:47:48.764Z</time></trkpt><trkpt lat="43.6209304" lon="12.3342573"><ele>746.5</ele><time>2026-05-02T07:47:49.775Z</time></trkpt><trkpt lat="43.6208386" lon="12.3343702"><ele>749.75</ele><time>2026-05-02T07:47:50.769Z</time></trkpt><trkpt lat="43.6207523" lon="12.3344878"><ele>753.0</ele><time>2026-05-02T07:47:51.768Z</time></trkpt><trkpt lat="43.6206705" lon="12.3346016"><ele>753.0</ele><time>2026-05-02T07:47:52.766Z</time></trkpt><trkpt lat="43.6205904" lon="12.3347044"><ele>753.0</ele><time>2026-05-02T07:47:53.779Z</time></trkpt><trkpt lat="43.6205037" lon="12.3347789"><ele>753.0</ele><time>2026-05-02T07:47:54.77Z</time></trkpt><trkpt lat="43.6204063" lon="12.3348277"><ele>753.0</ele><time>2026-05-02T07:47:55.775Z</time></trkpt><trkpt lat="43.6202992" lon="12.3348465"><ele>753.0</ele><time>2026-05-02T07:47:56.765Z</time></trkpt><trkpt lat="43.620189" lon="12.3348377"><ele>752.5</ele><time>2026-05-02T07:47:57.775Z</time></trkpt><trkpt lat="43.6200712" lon="12.3348139"><ele>752.0</ele><time>2026-05-02T07:47:58.767Z</time></trkpt><trkpt lat="43.6199535" lon="12.334795"><ele>751.5</ele><time>2026-05-02T07:47:59.772Z</time></trkpt><trkpt lat="43.6198352" lon="12.3347835"><ele>751.0</ele><time>2026-05-02T07:48:00.775Z</time></trkpt><trkpt lat="43.6197132" lon="12.3347995"><ele>751.0</ele><time>2026-05-02T07:48:01.77Z</time></trkpt><trkpt lat="43.619599" lon="12.3348418"><ele>751.0</ele><time>2026-05-02T07:48:02.773Z</time></trkpt><trkpt lat="43.6194894" lon="12.3348953"><ele>751.0</ele><time>2026-05-02T07:48:03.771Z</time></trkpt><trkpt lat="43.6193943" lon="12.3349313"><ele>751.0</ele><time>2026-05-02T07:48:04.775Z</time></trkpt><trkpt lat="43.6193232" lon="12.3349589"><ele>751.0</ele><time>2026-05-02T07:48:05.776Z</time></trkpt><trkpt lat="43.6192316" lon="12.3349669"><ele>750.5</ele><time>2026-05-02T07:48:07.78Z</time></trkpt><trkpt lat="43.6192091" lon="12.3348779"><ele>750.0</ele><time>2026-05-02T07:48:11.775Z</time></trkpt><trkpt lat="43.6192557" lon="12.3347681"><ele>749.5</ele><time>2026-05-02T07:53:08.776Z</time></trkpt><trkpt lat="43.6192679" lon="12.334665"><ele>749.0</ele><time>2026-05-02T07:53:09.793Z</time></trkpt><trkpt lat="43.6192786" lon="12.3345416"><ele>748.5</ele><time>2026-05-02T07:53:10.771Z</time></trkpt><trkpt lat="43.6192929" lon="12.3344127"><ele>748.0</ele><time>2026-05-02T07:53:11.774Z</time></trkpt><trkpt lat="43.6193039" lon="12.3342803"><ele>747.3333333333334</ele><time>2026-05-02T07:53:12.775Z</time></trkpt><trkpt lat="43.6193122" lon="12.3341519"><ele>746.6666666666667</ele><time>2026-05-02T07:53:13.782Z</time></trkpt><trkpt lat="43.6193184" lon="12.3340356"><ele>746.0</ele><time>2026-05-02T07:53:14.769Z</time></trkpt><trkpt lat="43.6193168" lon="12.3339292"><ele>745.3333333333334</ele><time>2026-05-02T07:53:15.795Z</time></trkpt><trkpt lat="43.6193161" lon="12.3338302"><ele>744.6666666666666</ele><time>2026-05-02T07:53:16.776Z</time></trkpt><trkpt lat="43.6193048" lon="12.3337352"><ele>744.0</ele><time>2026-05-02T07:53:17.786Z</time></trkpt><trkpt lat="43.6192751" lon="12.3336399"><ele>745.6</ele><time>2026-05-02T07:53:18.768Z</time></trkpt><trkpt lat="43.6192274" lon="12.3335464"><ele>747.2</ele><time>2026-05-02T07:53:19.781Z</time></trkpt><trkpt lat="43.6191654" lon="12.3334503"><ele>748.8000000000001</ele><time>2026-05-02T07:53:20.772Z</time></trkpt><trkpt lat="43.6190785" lon="12.3333643"><ele>750.4000000000001</ele><time>2026-05-02T07:53:21.774Z</time></trkpt><trkpt lat="43.618981" lon="12.3332903"><ele>752.0</ele><time>2026-05-02T07:53:22.772Z</time></trkpt><trkpt lat="43.6188771" lon="12.3332262"><ele>752.0</ele><time>2026-05-02T07:53:23.778Z</time></trkpt><trkpt lat="43.6187607" lon="12.3331636"><ele>752.0</ele><time>2026-05-02T07:53:24.776Z</time></trkpt><trkpt lat="43.6186448" lon="12.3331063"><ele>752.0</ele><time>2026-05-02T07:53:25.784Z</time></trkpt><trkpt lat="43.6185361" lon="12.3330477"><ele>752.0</ele><time>2026-05-02T07:53:26.786Z</time></trkpt><trkpt lat="43.6184332" lon="12.3329852"><ele>753.4000000000001</ele><time>2026-05-02T07:53:27.786Z</time></trkpt><trkpt lat="43.6183452" lon="12.3329292"><ele>754.8000000000001</ele><time>2026-05-02T07:53:28.766Z</time></trkpt><trkpt lat="43.6182565" lon="12.3328934"><ele>756.2</ele><time>2026-05-02T07:53:29.776Z</time></trkpt><trkpt lat="43.6181606" lon="12.3328915"><ele>757.6</ele><time>2026-05-02T07:53:30.771Z</time></trkpt><trkpt lat="43.6180697" lon="12.3329257"><ele>759.0</ele><time>2026-05-02T07:53:31.786Z</time></trkpt><trkpt lat="43.6179817" lon="12.3329574"><ele>759.0</ele><time>2026-05-02T07:53:32.776Z</time></trkpt><trkpt lat="43.6179161" lon="12.3329561"><ele>759.0</ele><time>2026-05-02T07:53:33.769Z</time></trkpt><trkpt lat="43.6178527" lon="12.3328452"><ele>759.0</ele><time>2026-05-02T07:53:35.782Z</time></trkpt><trkpt lat="43.617838" lon="12.332745"><ele>759.0</ele><time>2026-05-02T07:53:36.772Z</time></trkpt><trkpt lat="43.6178184" lon="12.3326287"><ele>759.0</ele><time>2026-05-02T07:53:37.802Z</time></trkpt><trkpt lat="43.6177942" lon="12.3325033"><ele>759.0</ele><time>2026-05-02T07:53:38.765Z</time></trkpt><trkpt lat="43.61776" lon="12.3323703"><ele>755.4000000000001</ele><time>2026-05-02T07:53:39.778Z</time></trkpt><trkpt lat="43.6177213" lon="12.3322298"><ele>751.8</ele><time>2026-05-02T07:53:40.771Z</time></trkpt><trkpt lat="43.6177005" lon="12.332093"><ele>748.2</ele><time>2026-05-02T07:53:41.787Z</time></trkpt><trkpt lat="43.6176967" lon="12.3319618"><ele>744.5999999999999</ele><time>2026-05-02T07:53:42.779Z</time></trkpt><trkpt lat="43.6176874" lon="12.3318433"><ele>741.0</ele><time>2026-05-02T07:53:43.779Z</time></trkpt><trkpt lat="43.617661" lon="12.3317298"><ele>741.0</ele><time>2026-05-02T07:53:44.775Z</time></trkpt><trkpt lat="43.6176185" lon="12.3316308"><ele>741.0</ele><time>2026-05-02T07:53:45.785Z</time></trkpt><trkpt lat="43.6175545" lon="12.3315371"><ele>741.0</ele><time>2026-05-02T07:53:46.771Z</time></trkpt><trkpt lat="43.6174706" lon="12.3314491"><ele>741.0</ele><time>2026-05-02T07:53:47.783Z</time></trkpt><trkpt lat="43.6173658" lon="12.3313793"><ele>741.0</ele><time>2026-05-02T07:53:48.768Z</time></trkpt><trkpt lat="43.6172691" lon="12.3313247"><ele>741.0</ele><time>2026-05-02T07:53:49.768Z</time></trkpt><trkpt lat="43.617202" lon="12.3312777"><ele>741.0</ele><time>2026-05-02T07:53:50.775Z</time></trkpt><trkpt lat="43.6171543" lon="12.3312144"><ele>741.0</ele><time>2026-05-02T07:53:51.779Z</time></trkpt><trkpt lat="43.61713" lon="12.3310434"><ele>741.0</ele><time>2026-05-02T07:53:53.788Z</time></trkpt><trkpt lat="43.6171327" lon="12.330929"><ele>741.0</ele><time>2026-05-02T07:53:54.772Z</time></trkpt><trkpt lat="43.6171432" lon="12.3308017"><ele>741.0</ele><time>2026-05-02T07:53:55.773Z</time></trkpt><trkpt lat="43.6171568" lon="12.3306791"><ele>741.0</ele><time>2026-05-02T07:53:56.783Z</time></trkpt><trkpt lat="43.617174" lon="12.330578"><ele>741.0</ele><time>2026-05-02T07:53:57.78Z</time></trkpt><trkpt lat="43.6172576" lon="12.3304633"><ele>741.0</ele><time>2026-05-02T07:53:59.774Z</time></trkpt><trkpt lat="43.617393" lon="12.3305027"><ele>741.0</ele><time>2026-05-02T07:54:01.775Z</time></trkpt><trkpt lat="43.6174689" lon="12.330539"><ele>741.0</ele><time>2026-05-02T07:54:02.776Z</time></trkpt><trkpt lat="43.6175427" lon="12.3305824"><ele>741.0</ele><time>2026-05-02T07:54:03.778Z</time></trkpt><trkpt lat="43.6176209" lon="12.3306374"><ele>741.0</ele><time>2026-05-02T07:54:04.759Z</time></trkpt><trkpt lat="43.6177115" lon="12.3307034"><ele>741.0</ele><time>2026-05-02T07:54:05.78Z</time></trkpt><trkpt lat="43.617812" lon="12.3307689"><ele>741.0</ele><time>2026-05-02T07:54:06.77Z</time></trkpt><trkpt lat="43.6179156" lon="12.3308385"><ele>741.0</ele><time>2026-05-02T07:54:07.781Z</time></trkpt><trkpt lat="43.6180169" lon="12.3308933"><ele>741.1999999999999</ele><time>2026-05-02T07:54:08.77Z</time></trkpt><trkpt lat="43.6181214" lon="12.3309495"><ele>741.4</ele><time>2026-05-02T07:54:09.776Z</time></trkpt><trkpt lat="43.6182209" lon="12.3310074"><ele>741.6</ele><time>2026-05-02T07:54:10.771Z</time></trkpt><trkpt lat="43.6183171" lon="12.331056"><ele>741.8</ele><time>2026-05-02T07:54:11.772Z</time></trkpt><trkpt lat="43.6184213" lon="12.3311035"><ele>742.0</ele><time>2026-05-02T07:54:12.767Z</time></trkpt><trkpt lat="43.6185231" lon="12.3311385"><ele>742.0</ele><time>2026-05-02T07:54:13.775Z</time></trkpt><trkpt lat="43.6186103" lon="12.3311495"><ele>742.0</ele><time>2026-05-02T07:54:14.766Z</time></trkpt><trkpt lat="43.618689" lon="12.3311306"><ele>742.0</ele><time>2026-05-02T07:54:15.792Z</time></trkpt><trkpt lat="43.6187519" lon="12.3310835"><ele>742.0</ele><time>2026-05-02T07:54:16.767Z</time></trkpt><trkpt lat="43.6187779" lon="12.3310007"><ele>742.0</ele><time>2026-05-02T07:54:17.773Z</time></trkpt><trkpt lat="43.6187744" lon="12.3309134"><ele>742.0</ele><time>2026-05-02T07:54:18.759Z</time></trkpt><trkpt lat="43.6187618" lon="12.3308189"><ele>742.0</ele><time>2026-05-02T07:54:19.772Z</time></trkpt><trkpt lat="43.6187668" lon="12.3307276"><ele>741.5</ele><time>2026-05-02T07:54:20.767Z</time></trkpt><trkpt lat="43.6188021" lon="12.3306525"><ele>741.0</ele><time>2026-05-02T07:54:21.788Z</time></trkpt><trkpt lat="43.618864" lon="12.3305663"><ele>740.5</ele><time>2026-05-02T07:54:22.762Z</time></trkpt><trkpt lat="43.6189284" lon="12.3304674"><ele>740.0</ele><time>2026-05-02T07:54:23.765Z</time></trkpt><trkpt lat="43.6189754" lon="12.3303533"><ele>739.5</ele><time>2026-05-02T07:54:24.77Z</time></trkpt><trkpt lat="43.6189877" lon="12.3302184"><ele>739.0</ele><time>2026-05-02T07:54:25.769Z</time></trkpt><trkpt lat="43.6189861" lon="12.3300959"><ele>739.0</ele><time>2026-05-02T07:54:26.776Z</time></trkpt><trkpt lat="43.6189931" lon="12.3299971"><ele>739.0</ele><time>2026-05-02T07:54:27.784Z</time></trkpt><trkpt lat="43.6190213" lon="12.3299143"><ele>739.0</ele><time>2026-05-02T07:54:28.77Z</time></trkpt><trkpt lat="43.6190723" lon="12.3298469"><ele>739.0</ele><time>2026-05-02T07:54:29.79Z</time></trkpt><trkpt lat="43.6191441" lon="12.3297883"><ele>739.0</ele><time>2026-05-02T07:54:30.768Z</time></trkpt><trkpt lat="43.6192303" lon="12.3297533"><ele>739.0</ele><time>2026-05-02T07:54:31.775Z</time></trkpt><trkpt lat="43.6193191" lon="12.3297278"><ele>739.0</ele><time>2026-05-02T07:54:32.784Z</time></trkpt><trkpt lat="43.6194021" lon="12.3297307"><ele>739.0</ele><time>2026-05-02T07:54:33.784Z</time></trkpt><trkpt lat="43.6194833" lon="12.3297545"><ele>739.0</ele><time>2026-05-02T07:54:34.766Z</time></trkpt><trkpt lat="43.6195774" lon="12.3298037"><ele>739.0</ele><time>2026-05-02T07:54:35.776Z</time></trkpt><trkpt lat="43.6196733" lon="12.3298743"><ele>739.0</ele><time>2026-05-02T07:54:36.768Z</time></trkpt><trkpt lat="43.6197762" lon="12.3299526"><ele>740.25</ele><time>2026-05-02T07:54:37.782Z</time></trkpt><trkpt lat="43.6198896" lon="12.3300472"><ele>741.5</ele><time>2026-05-02T07:54:38.766Z</time></trkpt><trkpt lat="43.6199922" lon="12.3301571"><ele>742.75</ele><time>2026-05-02T07:54:39.785Z</time></trkpt><trkpt lat="43.6200803" lon="12.3302723"><ele>744.0</ele><time>2026-05-02T07:54:40.766Z</time></trkpt><trkpt lat="43.6201594" lon="12.3303655"><ele>744.0</ele><time>2026-05-02T07:54:41.767Z</time></trkpt><trkpt lat="43.6202387" lon="12.330412"><ele>744.0</ele><time>2026-05-02T07:54:42.768Z</time></trkpt><trkpt lat="43.6203059" lon="12.3304142"><ele>744.0</ele><time>2026-05-02T07:54:43.77Z</time></trkpt><trkpt lat="43.6203626" lon="12.3303745"><ele>744.0</ele><time>2026-05-02T07:54:44.766Z</time></trkpt><trkpt lat="43.6203992" lon="12.3302955"><ele>744.0</ele><time>2026-05-02T07:54:45.78Z</time></trkpt><trkpt lat="43.6204148" lon="12.3301885"><ele>744.0</ele><time>2026-05-02T07:54:46.767Z</time></trkpt><trkpt lat="43.6204456" lon="12.3300587"><ele>745.4000000000001</ele><time>2026-05-02T07:54:47.779Z</time></trkpt><trkpt lat="43.620492" lon="12.3299161"><ele>746.8</ele><time>2026-05-02T07:54:48.765Z</time></trkpt><trkpt lat="43.6205378" lon="12.3297658"><ele>748.2</ele><time>2026-05-02T07:54:49.766Z</time></trkpt><trkpt lat="43.6205592" lon="12.329626"><ele>749.5999999999999</ele><time>2026-05-02T07:54:50.773Z</time></trkpt><trkpt lat="43.6205529" lon="12.3294927"><ele>751.0</ele><time>2026-05-02T07:54:51.774Z</time></trkpt><trkpt lat="43.620534" lon="12.3293557"><ele>751.0</ele><time>2026-05-02T07:54:52.772Z</time></trkpt><trkpt lat="43.620516" lon="12.3292093"><ele>751.0</ele><time>2026-05-02T07:54:53.775Z</time></trkpt><trkpt lat="43.6205123" lon="12.3290604"><ele>751.0</ele><time>2026-05-02T07:54:54.776Z</time></trkpt><trkpt lat="43.6205268" lon="12.3289401"><ele>751.0</ele><time>2026-05-02T07:54:55.778Z</time></trkpt><trkpt lat="43.6205628" lon="12.3288648"><ele>751.0</ele><time>2026-05-02T07:54:56.769Z</time></trkpt><trkpt lat="43.6207015" lon="12.3288321"><ele>750.8333333333334</ele><time>2026-05-02T07:54:58.768Z</time></trkpt><trkpt lat="43.620778" lon="12.3288585"><ele>750.6666666666667</ele><time>2026-05-02T07:54:59.781Z</time></trkpt><trkpt lat="43.6208478" lon="12.3288534"><ele>750.5</ele><time>2026-05-02T07:55:00.774Z</time></trkpt><trkpt lat="43.6208847" lon="12.3287716"><ele>750.3333333333334</ele><time>2026-05-02T07:55:01.776Z</time></trkpt><trkpt lat="43.6208836" lon="12.3286265"><ele>750.1666666666666</ele><time>2026-05-02T07:55:02.779Z</time></trkpt><trkpt lat="43.6208725" lon="12.3284734"><ele>750.0</ele><time>2026-05-02T07:55:03.795Z</time></trkpt><trkpt lat="43.6208491" lon="12.3283048"><ele>750.0</ele><time>2026-05-02T07:55:04.775Z</time></trkpt><trkpt lat="43.6208146" lon="12.3281473"><ele>750.0</ele><time>2026-05-02T07:55:05.776Z</time></trkpt><trkpt lat="43.6207732" lon="12.3279811"><ele>750.0</ele><time>2026-05-02T07:55:06.775Z</time></trkpt><trkpt lat="43.6207103" lon="12.3278202"><ele>750.0</ele><time>2026-05-02T07:55:07.796Z</time></trkpt><trkpt lat="43.6206255" lon="12.3276722"><ele>752.5</ele><time>2026-05-02T07:55:08.78Z</time></trkpt><trkpt lat="43.6205229" lon="12.3275496"><ele>755.0</ele><time>2026-05-02T07:55:09.783Z</time></trkpt><trkpt lat="43.62041" lon="12.3274418"><ele>757.5</ele><time>2026-05-02T07:55:10.773Z</time></trkpt><trkpt lat="43.6202873" lon="12.3273563"><ele>760.0</ele><time>2026-05-02T07:55:11.78Z</time></trkpt><trkpt lat="43.6201562" lon="12.3272871"><ele>755.0</ele><time>2026-05-02T07:55:12.769Z</time></trkpt><trkpt lat="43.6200185" lon="12.3272391"><ele>750.0</ele><time>2026-05-02T07:55:13.784Z</time></trkpt><trkpt lat="43.6198796" lon="12.3272315"><ele>745.0</ele><time>2026-05-02T07:55:14.775Z</time></trkpt><trkpt lat="43.6197525" lon="12.3272383"><ele>740.0</ele><time>2026-05-02T07:55:15.776Z</time></trkpt><trkpt lat="43.6196395" lon="12.3272567"><ele>740.0</ele><time>2026-05-02T07:55:16.777Z</time></trkpt><trkpt lat="43.6195484" lon="12.3272859"><ele>740.0</ele><time>2026-05-02T07:55:17.778Z</time></trkpt><trkpt lat="43.6194791" lon="12.3273283"><ele>740.0</ele><time>2026-05-02T07:55:18.768Z</time></trkpt><trkpt lat="43.6194117" lon="12.3273959"><ele>740.0</ele><time>2026-05-02T07:55:19.791Z</time></trkpt><trkpt lat="43.6193455" lon="12.3274758"><ele>740.0</ele><time>2026-05-02T07:55:20.782Z</time></trkpt><trkpt lat="43.6192787" lon="12.3275563"><ele>740.0</ele><time>2026-05-02T07:55:21.779Z</time></trkpt><trkpt lat="43.619211" lon="12.3276073"><ele>740.4</ele><time>2026-05-02T07:55:22.773Z</time></trkpt><trkpt lat="43.6191124" lon="12.3275545"><ele>740.8</ele><time>2026-05-02T07:55:24.77Z</time></trkpt><trkpt lat="43.6191229" lon="12.3273679"><ele>741.2</ele><time>2026-05-02T07:55:26.773Z</time></trkpt><trkpt lat="43.6191361" lon="12.3272448"><ele>741.6</ele><time>2026-05-02T07:55:27.785Z</time></trkpt><trkpt lat="43.6191457" lon="12.3270992"><ele>742.0</ele><time>2026-05-02T07:55:28.761Z</time></trkpt><trkpt lat="43.6191515" lon="12.326952"><ele>742.0</ele><time>2026-05-02T07:55:29.78Z</time></trkpt><trkpt lat="43.6191482" lon="12.3267957"><ele>742.0</ele><time>2026-05-02T07:55:30.767Z</time></trkpt><trkpt lat="43.6191392" lon="12.326632"><ele>742.0</ele><time>2026-05-02T07:55:31.78Z</time></trkpt><trkpt lat="43.6191363" lon="12.3264784"><ele>742.0</ele><time>2026-05-02T07:55:32.775Z</time></trkpt><trkpt lat="43.6191418" lon="12.3263297"><ele>743.6</ele><time>2026-05-02T07:55:33.775Z</time></trkpt><trkpt lat="43.6191507" lon="12.3262004"><ele>745.2</ele><time>2026-05-02T07:55:34.768Z</time></trkpt><trkpt lat="43.6191596" lon="12.3260871"><ele>746.8</ele><time>2026-05-02T07:55:35.773Z</time></trkpt><trkpt lat="43.619156" lon="12.3259907"><ele>748.4</ele><time>2026-05-02T07:55:36.775Z</time></trkpt><trkpt lat="43.6190892" lon="12.3258612"><ele>750.0</ele><time>2026-05-02T07:55:38.777Z</time></trkpt><trkpt lat="43.6189463" lon="12.3258698"><ele>750.0</ele><time>2026-05-02T07:55:40.773Z</time></trkpt><trkpt lat="43.6188515" lon="12.3259084"><ele>750.0</ele><time>2026-05-02T07:55:41.788Z</time></trkpt><trkpt lat="43.6187477" lon="12.3259554"><ele>750.0</ele><time>2026-05-02T07:55:42.768Z</time></trkpt><trkpt lat="43.6186386" lon="12.3260089"><ele>750.0</ele><time>2026-05-02T07:55:43.772Z</time></trkpt><trkpt lat="43.6185467" lon="12.3260593"><ele>750.0</ele><time>2026-05-02T07:55:44.775Z</time></trkpt><trkpt lat="43.6184629" lon="12.3261001"><ele>748.0</ele><time>2026-05-02T07:55:45.802Z</time></trkpt><trkpt lat="43.6183909" lon="12.3261041"><ele>746.0</ele><time>2026-05-02T07:55:46.773Z</time></trkpt><trkpt lat="43.6182937" lon="12.3260044"><ele>744.0</ele><time>2026-05-02T07:55:48.771Z</time></trkpt><trkpt lat="43.6182653" lon="12.3259162"><ele>742.0</ele><time>2026-05-02T07:55:49.769Z</time></trkpt><trkpt lat="43.6182427" lon="12.3258081"><ele>740.0</ele><time>2026-05-02T07:55:50.778Z</time></trkpt><trkpt lat="43.6182131" lon="12.3256813"><ele>738.0</ele><time>2026-05-02T07:55:51.785Z</time></trkpt><trkpt lat="43.6181699" lon="12.3255672"><ele>741.2</ele><time>2026-05-02T07:55:52.778Z</time></trkpt><trkpt lat="43.6181167" lon="12.3254724"><ele>744.4</ele><time>2026-05-02T07:55:53.787Z</time></trkpt><trkpt lat="43.6180464" lon="12.3254032"><ele>747.6</ele><time>2026-05-02T07:55:54.773Z</time></trkpt><trkpt lat="43.6179609" lon="12.3253508"><ele>750.8000000000001</ele><time>2026-05-02T07:55:55.781Z</time></trkpt><trkpt lat="43.6178595" lon="12.3253198"><ele>754.0</ele><time>2026-05-02T07:55:56.769Z</time></trkpt><trkpt lat="43.6177565" lon="12.3253466"><ele>754.0</ele><time>2026-05-02T07:55:57.772Z</time></trkpt><trkpt lat="43.6176664" lon="12.3254152"><ele>754.0</ele><time>2026-05-02T07:55:58.767Z</time></trkpt><trkpt lat="43.6176046" lon="12.3255035"><ele>754.0</ele><time>2026-05-02T07:55:59.767Z</time></trkpt><trkpt lat="43.6175598" lon="12.3256104"><ele>754.0</ele><time>2026-05-02T07:56:00.772Z</time></trkpt><trkpt lat="43.6175171" lon="12.3256979"><ele>754.0</ele><time>2026-05-02T07:56:01.782Z</time></trkpt><trkpt lat="43.6173822" lon="12.3256479"><ele>754.0</ele><time>2026-05-02T07:56:03.774Z</time></trkpt><trkpt lat="43.6172976" lon="12.3255695"><ele>754.0</ele><time>2026-05-02T07:56:04.763Z</time></trkpt><trkpt lat="43.6172117" lon="12.3254846"><ele>754.0</ele><time>2026-05-02T07:56:05.772Z</time></trkpt><trkpt lat="43.6171288" lon="12.3253974"><ele>754.0</ele><time>2026-05-02T07:56:06.768Z</time></trkpt><trkpt lat="43.6170649" lon="12.3253122"><ele>754.0</ele><time>2026-05-02T07:56:07.795Z</time></trkpt><trkpt lat="43.6170315" lon="12.3252216"><ele>754.0</ele><time>2026-05-02T07:56:08.77Z</time></trkpt><trkpt lat="43.6170134" lon="12.3251145"><ele>754.0</ele><time>2026-05-02T07:56:09.783Z</time></trkpt><trkpt lat="43.6170061" lon="12.3249963"><ele>754.0</ele><time>2026-05-02T07:56:10.777Z</time></trkpt><trkpt lat="43.6169801" lon="12.3248752"><ele>754.0</ele><time>2026-05-02T07:56:11.792Z</time></trkpt><trkpt lat="43.6169295" lon="12.3247619"><ele>754.0</ele><time>2026-05-02T07:56:12.78Z</time></trkpt><trkpt lat="43.6168591" lon="12.3246539"><ele>750.5</ele><time>2026-05-02T07:56:13.787Z</time></trkpt><trkpt lat="43.616794" lon="12.3245669"><ele>747.0</ele><time>2026-05-02T07:56:14.781Z</time></trkpt><trkpt lat="43.6167346" lon="12.3244973"><ele>743.5</ele><time>2026-05-02T07:56:15.781Z</time></trkpt><trkpt lat="43.6166905" lon="12.3244229"><ele>740.0</ele><time>2026-05-02T07:56:16.77Z</time></trkpt><trkpt lat="43.6166578" lon="12.3243291"><ele>736.5</ele><time>2026-05-02T07:56:17.793Z</time></trkpt><trkpt lat="43.6166372" lon="12.3242189"><ele>733.0</ele><time>2026-05-02T07:56:18.774Z</time></trkpt><trkpt lat="43.6166278" lon="12.3240866"><ele>733.0</ele><time>2026-05-02T07:56:19.778Z</time></trkpt><trkpt lat="43.6166248" lon="12.3239427"><ele>733.0</ele><time>2026-05-02T07:56:20.776Z</time></trkpt><trkpt lat="43.6166329" lon="12.3238034"><ele>733.0</ele><time>2026-05-02T07:56:21.789Z</time></trkpt><trkpt lat="43.6166569" lon="12.3236748"><ele>733.0</ele><time>2026-05-02T07:56:22.768Z</time></trkpt><trkpt lat="43.6166958" lon="12.323566"><ele>733.0</ele><time>2026-05-02T07:56:23.786Z</time></trkpt><trkpt lat="43.6167395" lon="12.3234858"><ele>732.8</ele><time>2026-05-02T07:56:24.771Z</time></trkpt><trkpt lat="43.6167908" lon="12.3233572"><ele>732.5999999999999</ele><time>2026-05-02T07:56:26.772Z</time></trkpt><trkpt lat="43.6166967" lon="12.3232874"><ele>732.4000000000001</ele><time>2026-05-02T07:56:28.775Z</time></trkpt><trkpt lat="43.6166205" lon="12.3232535"><ele>732.2</ele><time>2026-05-02T07:56:29.78Z</time></trkpt><trkpt lat="43.6165393" lon="12.323212"><ele>732.0</ele><time>2026-05-02T07:56:30.774Z</time></trkpt><trkpt lat="43.6164605" lon="12.3231609"><ele>732.0</ele><time>2026-05-02T07:56:31.787Z</time></trkpt><trkpt lat="43.6163843" lon="12.3230952"><ele>732.0</ele><time>2026-05-02T07:56:32.785Z</time></trkpt><trkpt lat="43.6163029" lon="12.32303"><ele>732.0</ele><time>2026-05-02T07:56:33.78Z</time></trkpt><trkpt lat="43.6162063" lon="12.3230021"><ele>732.0</ele><time>2026-05-02T07:56:34.771Z</time></trkpt><trkpt lat="43.6161039" lon="12.3230004"><ele>732.0</ele><time>2026-05-02T07:56:35.777Z</time></trkpt><trkpt lat="43.6160115" lon="12.3230059"><ele>733.2</ele><time>2026-05-02T07:56:36.763Z</time></trkpt><trkpt lat="43.6159117" lon="12.3230292"><ele>734.4000000000001</ele><time>2026-05-02T07:56:37.78Z</time></trkpt><trkpt lat="43.615817" lon="12.3230879"><ele>735.5999999999999</ele><time>2026-05-02T07:56:38.778Z</time></trkpt><trkpt lat="43.6157361" lon="12.3231693"><ele>736.8</ele><time>2026-05-02T07:56:39.796Z</time></trkpt><trkpt lat="43.6156706" lon="12.3232561"><ele>738.0</ele><time>2026-05-02T07:56:40.774Z</time></trkpt><trkpt lat="43.6156112" lon="12.3233115"><ele>735.3333333333334</ele><time>2026-05-02T07:56:41.776Z</time></trkpt><trkpt lat="43.6154976" lon="12.3233482"><ele>732.6666666666666</ele><time>2026-05-02T07:56:43.779Z</time></trkpt><trkpt lat="43.6154338" lon="12.323317"><ele>730.0</ele><time>2026-05-02T07:56:44.775Z</time></trkpt><trkpt lat="43.6153667" lon="12.3232738"><ele>727.3333333333333</ele><time>2026-05-02T07:56:45.776Z</time></trkpt><trkpt lat="43.6153019" lon="12.3232198"><ele>724.6666666666666</ele><time>2026-05-02T07:56:46.769Z</time></trkpt><trkpt lat="43.6152389" lon="12.3231541"><ele>722.0</ele><time>2026-05-02T07:56:47.784Z</time></trkpt><trkpt lat="43.6151646" lon="12.3230545"><ele>722.0</ele><time>2026-05-02T07:56:48.77Z</time></trkpt><trkpt lat="43.6151028" lon="12.3229499"><ele>722.0</ele><time>2026-05-02T07:56:49.769Z</time></trkpt><trkpt lat="43.6150416" lon="12.3228575"><ele>722.0</ele><time>2026-05-02T07:56:50.778Z</time></trkpt><trkpt lat="43.6149847" lon="12.3227608"><ele>722.0</ele><time>2026-05-02T07:56:51.796Z</time></trkpt><trkpt lat="43.6149266" lon="12.3226532"><ele>722.0</ele><time>2026-05-02T07:56:52.765Z</time></trkpt><trkpt lat="43.6148795" lon="12.3225558"><ele>722.0</ele><time>2026-05-02T07:56:53.782Z</time></trkpt><trkpt lat="43.6148306" lon="12.3224813"><ele>722.0</ele><time>2026-05-02T07:56:54.774Z</time></trkpt><trkpt lat="43.6147692" lon="12.3224464"><ele>722.0</ele><time>2026-05-02T07:56:55.791Z</time></trkpt><trkpt lat="43.6146842" lon="12.3225693"><ele>722.0</ele><time>2026-05-02T07:56:57.767Z</time></trkpt><trkpt lat="43.6146501" lon="12.3226737"><ele>722.0</ele><time>2026-05-02T07:56:58.772Z</time></trkpt><trkpt lat="43.6146508" lon="12.3228263"><ele>722.0</ele><time>2026-05-02T07:56:59.775Z</time></trkpt><trkpt lat="43.6146649" lon="12.3229851"><ele>722.0</ele><time>2026-05-02T07:57:00.768Z</time></trkpt><trkpt lat="43.6146812" lon="12.3231535"><ele>722.0</ele><time>2026-05-02T07:57:01.775Z</time></trkpt><trkpt lat="43.6147019" lon="12.3233151"><ele>722.0</ele><time>2026-05-02T07:57:02.766Z</time></trkpt><trkpt lat="43.6147244" lon="12.323483"><ele>719.6</ele><time>2026-05-02T07:57:03.776Z</time></trkpt><trkpt lat="43.6147532" lon="12.3236317"><ele>717.2</ele><time>2026-05-02T07:57:04.762Z</time></trkpt><trkpt lat="43.6147901" lon="12.3237705"><ele>714.8</ele><time>2026-05-02T07:57:05.774Z</time></trkpt><trkpt lat="43.614819" lon="12.3239073"><ele>712.4</ele><time>2026-05-02T07:57:06.757Z</time></trkpt><trkpt lat="43.614829" lon="12.3240458"><ele>710.0</ele><time>2026-05-02T07:57:07.766Z</time></trkpt><trkpt lat="43.6148265" lon="12.3241974"><ele>708.4</ele><time>2026-05-02T07:57:08.772Z</time></trkpt><trkpt lat="43.6148163" lon="12.3243267"><ele>706.8</ele><time>2026-05-02T07:57:09.779Z</time></trkpt><trkpt lat="43.6147928" lon="12.3244543"><ele>705.2</ele><time>2026-05-02T07:57:10.769Z</time></trkpt><trkpt lat="43.6147636" lon="12.3245835"><ele>703.6</ele><time>2026-05-02T07:57:11.765Z</time></trkpt><trkpt lat="43.6147242" lon="12.3247099"><ele>702.0</ele><time>2026-05-02T07:57:12.766Z</time></trkpt><trkpt lat="43.6146729" lon="12.324829"><ele>699.75</ele><time>2026-05-02T07:57:13.775Z</time></trkpt><trkpt lat="43.614619" lon="12.3249469"><ele>697.5</ele><time>2026-05-02T07:57:14.783Z</time></trkpt><trkpt lat="43.6145617" lon="12.3250821"><ele>695.25</ele><time>2026-05-02T07:57:15.777Z</time></trkpt><trkpt lat="43.6144937" lon="12.3252204"><ele>693.0</ele><time>2026-05-02T07:57:16.757Z</time></trkpt><trkpt lat="43.6144246" lon="12.3253687"><ele>699.0</ele><time>2026-05-02T07:57:17.78Z</time></trkpt><trkpt lat="43.6143525" lon="12.3255196"><ele>705.0</ele><time>2026-05-02T07:57:18.771Z</time></trkpt><trkpt lat="43.6142835" lon="12.3256827"><ele>711.0</ele><time>2026-05-02T07:57:19.779Z</time></trkpt><trkpt lat="43.6142215" lon="12.3258393"><ele>717.0</ele><time>2026-05-02T07:57:20.773Z</time></trkpt><trkpt lat="43.6141612" lon="12.3259946"><ele>717.0</ele><time>2026-05-02T07:57:21.778Z</time></trkpt><trkpt lat="43.6141029" lon="12.326151"><ele>717.0</ele><time>2026-05-02T07:57:22.768Z</time></trkpt><trkpt lat="43.6140463" lon="12.3263023"><ele>717.0</ele><time>2026-05-02T07:57:23.773Z</time></trkpt><trkpt lat="43.6139899" lon="12.3264468"><ele>717.0</ele><time>2026-05-02T07:57:24.768Z</time></trkpt><trkpt lat="43.6139345" lon="12.3265825"><ele>717.2</ele><time>2026-05-02T07:57:25.76Z</time></trkpt><trkpt lat="43.6138775" lon="12.326711"><ele>717.4000000000001</ele><time>2026-05-02T07:57:26.774Z</time></trkpt><trkpt lat="43.6138215" lon="12.3268311"><ele>717.5999999999999</ele><time>2026-05-02T07:57:27.78Z</time></trkpt><trkpt lat="43.6137619" lon="12.3269319"><ele>717.8</ele><time>2026-05-02T07:57:28.767Z</time></trkpt><trkpt lat="43.613703" lon="12.327006"><ele>718.0</ele><time>2026-05-02T07:57:29.788Z</time></trkpt><trkpt lat="43.6136505" lon="12.3270663"><ele>718.0</ele><time>2026-05-02T07:57:30.768Z</time></trkpt><trkpt lat="43.6135587" lon="12.3270442"><ele>718.0</ele><time>2026-05-02T07:57:32.77Z</time></trkpt><trkpt lat="43.613515" lon="12.3269718"><ele>718.0</ele><time>2026-05-02T07:57:33.787Z</time></trkpt><trkpt lat="43.6134631" lon="12.3268829"><ele>718.0</ele><time>2026-05-02T07:57:34.768Z</time></trkpt><trkpt lat="43.6133957" lon="12.3268007"><ele>718.0</ele><time>2026-05-02T07:57:35.777Z</time></trkpt><trkpt lat="43.6133036" lon="12.32674"><ele>718.0</ele><time>2026-05-02T07:57:36.773Z</time></trkpt><trkpt lat="43.6132026" lon="12.3266845"><ele>718.0</ele><time>2026-05-02T07:57:37.789Z</time></trkpt><trkpt lat="43.6131083" lon="12.3266456"><ele>718.0</ele><time>2026-05-02T07:57:38.776Z</time></trkpt><trkpt lat="43.6130228" lon="12.3266044"><ele>718.0</ele><time>2026-05-02T07:57:39.785Z</time></trkpt><trkpt lat="43.6129451" lon="12.3265514"><ele>718.0</ele><time>2026-05-02T07:57:40.767Z</time></trkpt><trkpt lat="43.6128619" lon="12.3264876"><ele>718.0</ele><time>2026-05-02T07:57:41.799Z</time></trkpt><trkpt lat="43.6127654" lon="12.3264262"><ele>719.5</ele><time>2026-05-02T07:57:42.769Z</time></trkpt><trkpt lat="43.6126646" lon="12.3263888"><ele>721.0</ele><time>2026-05-02T07:57:43.782Z</time></trkpt><trkpt lat="43.6125743" lon="12.3263701"><ele>722.5</ele><time>2026-05-02T07:57:44.767Z</time></trkpt><trkpt lat="43.6125001" lon="12.3263508"><ele>724.0</ele><time>2026-05-02T07:57:45.793Z</time></trkpt><trkpt lat="43.612441" lon="12.3263095"><ele>725.5</ele><time>2026-05-02T07:57:46.774Z</time></trkpt><trkpt lat="43.6123789" lon="12.3262438"><ele>727.0</ele><time>2026-05-02T07:57:47.778Z</time></trkpt><trkpt lat="43.612321" lon="12.3261437"><ele>727.0</ele><time>2026-05-02T07:57:48.774Z</time></trkpt><trkpt lat="43.6122711" lon="12.3260342"><ele>727.0</ele><time>2026-05-02T07:57:49.773Z</time></trkpt><trkpt lat="43.612231" lon="12.3259192"><ele>727.0</ele><time>2026-05-02T07:57:50.781Z</time></trkpt><trkpt lat="43.6121805" lon="12.3258002"><ele>727.0</ele><time>2026-05-02T07:57:51.783Z</time></trkpt><trkpt lat="43.6121221" lon="12.3256854"><ele>727.0</ele><time>2026-05-02T07:57:52.781Z</time></trkpt><trkpt lat="43.6120579" lon="12.3255841"><ele>727.8</ele><time>2026-05-02T07:57:53.783Z</time></trkpt><trkpt lat="43.6119823" lon="12.3255086"><ele>728.6</ele><time>2026-05-02T07:57:54.773Z</time></trkpt><trkpt lat="43.6118985" lon="12.3254589"><ele>729.4</ele><time>2026-05-02T07:57:55.764Z</time></trkpt><trkpt lat="43.6118014" lon="12.32544"><ele>730.1999999999999</ele><time>2026-05-02T07:57:56.79Z</time></trkpt><trkpt lat="43.6117071" lon="12.3254531"><ele>731.0</ele><time>2026-05-02T07:57:57.775Z</time></trkpt><trkpt lat="43.6116232" lon="12.3255099"><ele>727.5</ele><time>2026-05-02T07:57:58.77Z</time></trkpt><trkpt lat="43.6115525" lon="12.3255855"><ele>724.0</ele><time>2026-05-02T07:57:59.796Z</time></trkpt><trkpt lat="43.611489" lon="12.3256719"><ele>720.5</ele><time>2026-05-02T07:58:00.769Z</time></trkpt><trkpt lat="43.6114231" lon="12.3257428"><ele>717.0</ele><time>2026-05-02T07:58:01.784Z</time></trkpt><trkpt lat="43.61136" lon="12.3258165"><ele>713.5</ele><time>2026-05-02T07:58:02.768Z</time></trkpt><trkpt lat="43.6113015" lon="12.3258795"><ele>710.0</ele><time>2026-05-02T07:58:03.775Z</time></trkpt><trkpt lat="43.6112499" lon="12.325936"><ele>710.0</ele><time>2026-05-02T07:58:04.777Z</time></trkpt><trkpt lat="43.6111624" lon="12.3260011"><ele>710.0</ele><time>2026-05-02T07:58:06.775Z</time></trkpt><trkpt lat="43.6110837" lon="12.3259775"><ele>710.0</ele><time>2026-05-02T07:58:08.765Z</time></trkpt><trkpt lat="43.6110347" lon="12.3258703"><ele>710.0</ele><time>2026-05-02T07:58:10.772Z</time></trkpt><trkpt lat="43.6109645" lon="12.3257463"><ele>710.0</ele><time>2026-05-02T07:58:12.766Z</time></trkpt><trkpt lat="43.6109189" lon="12.3256812"><ele>709.6666666666666</ele><time>2026-05-02T07:58:13.776Z</time></trkpt><trkpt lat="43.6108658" lon="12.325612"><ele>709.3333333333333</ele><time>2026-05-02T07:58:14.783Z</time></trkpt><trkpt lat="43.6108157" lon="12.3255331"><ele>709.0</ele><time>2026-05-02T07:58:15.778Z</time></trkpt><trkpt lat="43.6107742" lon="12.3254434"><ele>708.6666666666666</ele><time>2026-05-02T07:58:16.771Z</time></trkpt><trkpt lat="43.6107291" lon="12.32534"><ele>708.3333333333334</ele><time>2026-05-02T07:58:17.778Z</time></trkpt><trkpt lat="43.6106814" lon="12.3252277"><ele>708.0</ele><time>2026-05-02T07:58:18.774Z</time></trkpt><trkpt lat="43.6106318" lon="12.3251193"><ele>710.6666666666666</ele><time>2026-05-02T07:58:19.786Z</time></trkpt><trkpt lat="43.6105853" lon="12.3250165"><ele>713.3333333333334</ele><time>2026-05-02T07:58:20.773Z</time></trkpt><trkpt lat="43.6105487" lon="12.3249129"><ele>716.0</ele><time>2026-05-02T07:58:21.793Z</time></trkpt><trkpt lat="43.6105177" lon="12.3248089"><ele>718.6666666666667</ele><time>2026-05-02T07:58:22.773Z</time></trkpt><trkpt lat="43.6104905" lon="12.3247099"><ele>721.3333333333334</ele><time>2026-05-02T07:58:23.785Z</time></trkpt><trkpt lat="43.6104623" lon="12.324627"><ele>724.0</ele><time>2026-05-02T07:58:24.778Z</time></trkpt><trkpt lat="43.6103498" lon="12.3245654"><ele>724.2</ele><time>2026-05-02T07:58:26.78Z</time></trkpt><trkpt lat="43.6102516" lon="12.3245901"><ele>724.4000000000001</ele><time>2026-05-02T07:58:27.792Z</time></trkpt><trkpt lat="43.6101425" lon="12.3246383"><ele>724.6</ele><time>2026-05-02T07:58:28.767Z</time></trkpt><trkpt lat="43.6100404" lon="12.3246943"><ele>724.8</ele><time>2026-05-02T07:58:29.786Z</time></trkpt><trkpt lat="43.6099345" lon="12.3247437"><ele>725.0</ele><time>2026-05-02T07:58:30.769Z</time></trkpt><trkpt lat="43.6098178" lon="12.3247771"><ele>724.5</ele><time>2026-05-02T07:58:31.786Z</time></trkpt><trkpt lat="43.6096854" lon="12.3247851"><ele>724.0</ele><time>2026-05-02T07:58:32.778Z</time></trkpt><trkpt lat="43.6095442" lon="12.3247617"><ele>723.5</ele><time>2026-05-02T07:58:33.779Z</time></trkpt><trkpt lat="43.6094239" lon="12.324724"><ele>723.0</ele><time>2026-05-02T07:58:34.765Z</time></trkpt><trkpt lat="43.6093176" lon="12.3246783"><ele>723.0</ele><time>2026-05-02T07:58:35.785Z</time></trkpt><trkpt lat="43.609219" lon="12.324624"><ele>723.0</ele><time>2026-05-02T07:58:36.769Z</time></trkpt><trkpt lat="43.6091296" lon="12.3245727"><ele>723.0</ele><time>2026-05-02T07:58:37.771Z</time></trkpt><trkpt lat="43.6090381" lon="12.3245361"><ele>723.0</ele><time>2026-05-02T07:58:38.78Z</time></trkpt><trkpt lat="43.6089323" lon="12.3245346"><ele>723.0</ele><time>2026-05-02T07:58:39.775Z</time></trkpt><trkpt lat="43.6088235" lon="12.3245674"><ele>723.0</ele><time>2026-05-02T07:58:40.776Z</time></trkpt><trkpt lat="43.6087219" lon="12.3246125"><ele>723.0</ele><time>2026-05-02T07:58:41.778Z</time></trkpt><trkpt lat="43.6086398" lon="12.3246485"><ele>723.0</ele><time>2026-05-02T07:58:42.763Z</time></trkpt><trkpt lat="43.6085591" lon="12.3246656"><ele>723.0</ele><time>2026-05-02T07:58:43.788Z</time></trkpt><trkpt lat="43.6084689" lon="12.3246624"><ele>723.0</ele><time>2026-05-02T07:58:44.773Z</time></trkpt><trkpt lat="43.6083675" lon="12.3246222"><ele>723.0</ele><time>2026-05-02T07:58:45.781Z</time></trkpt><trkpt lat="43.6082639" lon="12.3245538"><ele>723.0</ele><time>2026-05-02T07:58:46.764Z</time></trkpt><trkpt lat="43.6081714" lon="12.3244722"><ele>723.0</ele><time>2026-05-02T07:58:47.78Z</time></trkpt><trkpt lat="43.6080921" lon="12.3243721"><ele>723.0</ele><time>2026-05-02T07:58:48.772Z</time></trkpt><trkpt lat="43.6079944" lon="12.3242848"><ele>723.0</ele><time>2026-05-02T07:58:49.774Z</time></trkpt><trkpt lat="43.607895" lon="12.3242256"><ele>721.25</ele><time>2026-05-02T07:58:50.775Z</time></trkpt><trkpt lat="43.6077864" lon="12.3242005"><ele>719.5</ele><time>2026-05-02T07:58:51.783Z</time></trkpt><trkpt lat="43.6076699" lon="12.3241834"><ele>717.75</ele><time>2026-05-02T07:58:52.775Z</time></trkpt><trkpt lat="43.6075547" lon="12.3241718"><ele>716.0</ele><time>2026-05-02T07:58:53.784Z</time></trkpt><trkpt lat="43.6074415" lon="12.3241671"><ele>716.0</ele><time>2026-05-02T07:58:54.763Z</time></trkpt><trkpt lat="43.6073324" lon="12.3241687"><ele>716.0</ele><time>2026-05-02T07:58:55.784Z</time></trkpt><trkpt lat="43.607229" lon="12.3241539"><ele>716.0</ele><time>2026-05-02T07:58:56.775Z</time></trkpt><trkpt lat="43.607154" lon="12.3241385"><ele>716.0</ele><time>2026-05-02T07:58:57.79Z</time></trkpt><trkpt lat="43.6070822" lon="12.3240832"><ele>716.0</ele><time>2026-05-02T07:58:58.765Z</time></trkpt><trkpt lat="43.6070053" lon="12.3240156"><ele>716.0</ele><time>2026-05-02T07:58:59.785Z</time></trkpt><trkpt lat="43.606922" lon="12.3239229"><ele>716.0</ele><time>2026-05-02T07:59:00.767Z</time></trkpt><trkpt lat="43.6068514" lon="12.3238143"><ele>716.0</ele><time>2026-05-02T07:59:01.789Z</time></trkpt><trkpt lat="43.606807" lon="12.3236982"><ele>716.0</ele><time>2026-05-02T07:59:02.769Z</time></trkpt><trkpt lat="43.6067993" lon="12.3235727"><ele>716.0</ele><time>2026-05-02T07:59:03.768Z</time></trkpt><trkpt lat="43.6068103" lon="12.3234521"><ele>717.0</ele><time>2026-05-02T07:59:04.777Z</time></trkpt><trkpt lat="43.6068095" lon="12.3233278"><ele>718.0</ele><time>2026-05-02T07:59:05.786Z</time></trkpt><trkpt lat="43.6067823" lon="12.323223"><ele>719.0</ele><time>2026-05-02T07:59:06.776Z</time></trkpt><trkpt lat="43.606731" lon="12.3231372"><ele>720.0</ele><time>2026-05-02T07:59:07.793Z</time></trkpt><trkpt lat="43.606665" lon="12.3230727"><ele>721.0</ele><time>2026-05-02T07:59:08.769Z</time></trkpt><trkpt lat="43.6065933" lon="12.3230198"><ele>722.0</ele><time>2026-05-02T07:59:09.767Z</time></trkpt><trkpt lat="43.6065318" lon="12.3229445"><ele>722.4000000000001</ele><time>2026-05-02T07:59:10.772Z</time></trkpt><trkpt lat="43.6064916" lon="12.322828"><ele>722.8000000000001</ele><time>2026-05-02T07:59:11.768Z</time></trkpt><trkpt lat="43.6064567" lon="12.3226939"><ele>723.2</ele><time>2026-05-02T07:59:12.758Z</time></trkpt><trkpt lat="43.6064271" lon="12.3225597"><ele>723.6</ele><time>2026-05-02T07:59:13.776Z</time></trkpt><trkpt lat="43.6064101" lon="12.3224208"><ele>724.0</ele><time>2026-05-02T07:59:14.769Z</time></trkpt><trkpt lat="43.6063848" lon="12.3222797"><ele>727.2</ele><time>2026-05-02T07:59:15.773Z</time></trkpt><trkpt lat="43.6063533" lon="12.3221431"><ele>730.4000000000001</ele><time>2026-05-02T07:59:16.759Z</time></trkpt><trkpt lat="43.6063031" lon="12.3220321"><ele>733.6</ele><time>2026-05-02T07:59:17.775Z</time></trkpt><trkpt lat="43.6062386" lon="12.3219409"><ele>736.8</ele><time>2026-05-02T07:59:18.785Z</time></trkpt><trkpt lat="43.6061693" lon="12.3218439"><ele>740.0</ele><time>2026-05-02T07:59:19.79Z</time></trkpt><trkpt lat="43.6061099" lon="12.3217356"><ele>740.6</ele><time>2026-05-02T07:59:20.771Z</time></trkpt><trkpt lat="43.6060697" lon="12.3216141"><ele>741.2</ele><time>2026-05-02T07:59:21.774Z</time></trkpt><trkpt lat="43.6060297" lon="12.3214795"><ele>741.8</ele><time>2026-05-02T07:59:22.765Z</time></trkpt><trkpt lat="43.6059828" lon="12.3213296"><ele>742.4</ele><time>2026-05-02T07:59:23.773Z</time></trkpt><trkpt lat="43.6059192" lon="12.3212063"><ele>743.0</ele><time>2026-05-02T07:59:24.777Z</time></trkpt><trkpt lat="43.6058319" lon="12.3211037"><ele>743.25</ele><time>2026-05-02T07:59:25.779Z</time></trkpt><trkpt lat="43.6057365" lon="12.3210268"><ele>743.5</ele><time>2026-05-02T07:59:26.778Z</time></trkpt><trkpt lat="43.6056391" lon="12.3209469"><ele>743.75</ele><time>2026-05-02T07:59:27.778Z</time></trkpt><trkpt lat="43.6055319" lon="12.3208603"><ele>744.0</ele><time>2026-05-02T07:59:28.775Z</time></trkpt><trkpt lat="43.6054285" lon="12.3207626"><ele>744.0</ele><time>2026-05-02T07:59:29.767Z</time></trkpt><trkpt lat="43.605346" lon="12.3206302"><ele>744.0</ele><time>2026-05-02T07:59:30.775Z</time></trkpt><trkpt lat="43.6052997" lon="12.3204794"><ele>744.0</ele><time>2026-05-02T07:59:31.776Z</time></trkpt><trkpt lat="43.6052604" lon="12.3203073"><ele>744.0</ele><time>2026-05-02T07:59:32.782Z</time></trkpt><trkpt lat="43.6052108" lon="12.3201472"><ele>746.6</ele><time>2026-05-02T07:59:33.781Z</time></trkpt><trkpt lat="43.6051466" lon="12.3200123"><ele>749.2</ele><time>2026-05-02T07:59:34.771Z</time></trkpt><trkpt lat="43.6050875" lon="12.3198872"><ele>751.8000000000001</ele><time>2026-05-02T07:59:35.776Z</time></trkpt><trkpt lat="43.6050576" lon="12.3197553"><ele>754.4000000000001</ele><time>2026-05-02T07:59:36.77Z</time></trkpt><trkpt lat="43.6050714" lon="12.3196191"><ele>757.0</ele><time>2026-05-02T07:59:37.773Z</time></trkpt><trkpt lat="43.6051036" lon="12.3194914"><ele>757.2</ele><time>2026-05-02T07:59:38.766Z</time></trkpt><trkpt lat="43.6051611" lon="12.3193735"><ele>757.4000000000001</ele><time>2026-05-02T07:59:39.767Z</time></trkpt><trkpt lat="43.6051976" lon="12.3192515"><ele>757.5999999999999</ele><time>2026-05-02T07:59:40.759Z</time></trkpt><trkpt lat="43.6052019" lon="12.3191189"><ele>757.8</ele><time>2026-05-02T07:59:41.773Z</time></trkpt><trkpt lat="43.6051612" lon="12.318997"><ele>758.0</ele><time>2026-05-02T07:59:42.774Z</time></trkpt><trkpt lat="43.6050824" lon="12.3189441"><ele>758.0</ele><time>2026-05-02T07:59:44.77Z</time></trkpt><trkpt lat="43.605028" lon="12.3190372"><ele>758.0</ele><time>2026-05-02T07:59:46.77Z</time></trkpt><trkpt lat="43.6049831" lon="12.3191464"><ele>758.0</ele><time>2026-05-02T07:59:48.766Z</time></trkpt><trkpt lat="43.6049093" lon="12.3192134"><ele>758.0</ele><time>2026-05-02T07:59:49.781Z</time></trkpt><trkpt lat="43.6048074" lon="12.3192745"><ele>758.0</ele><time>2026-05-02T07:59:50.761Z</time></trkpt><trkpt lat="43.6047084" lon="12.3192701"><ele>758.0</ele><time>2026-05-02T07:59:51.777Z</time></trkpt><trkpt lat="43.6046448" lon="12.3192675"><ele>758.0</ele><time>2026-05-02T07:59:52.762Z</time></trkpt><trkpt lat="43.604645" lon="12.3191627"><ele>758.0</ele><time>2026-05-02T07:59:55.779Z</time></trkpt><trkpt lat="43.6047109" lon="12.3191084"><ele>758.0</ele><time>2026-05-02T07:59:56.77Z</time></trkpt><trkpt lat="43.6047745" lon="12.3190548"><ele>758.0</ele><time>2026-05-02T07:59:57.773Z</time></trkpt><trkpt lat="43.6048364" lon="12.318977"><ele>758.0</ele><time>2026-05-02T07:59:58.771Z</time></trkpt><trkpt lat="43.6048831" lon="12.318887"><ele>759.6666666666666</ele><time>2026-05-02T07:59:59.771Z</time></trkpt><trkpt lat="43.6049101" lon="12.3187826"><ele>761.3333333333333</ele><time>2026-05-02T08:00:00.766Z</time></trkpt><trkpt lat="43.6048984" lon="12.3186669"><ele>763.0</ele><time>2026-05-02T08:00:01.784Z</time></trkpt><trkpt lat="43.6048722" lon="12.3185595"><ele>764.6666666666666</ele><time>2026-05-02T08:00:02.772Z</time></trkpt><trkpt lat="43.6048402" lon="12.3184458"><ele>766.3333333333334</ele><time>2026-05-02T08:00:03.773Z</time></trkpt><trkpt lat="43.6047823" lon="12.3183301"><ele>768.0</ele><time>2026-05-02T08:00:04.769Z</time></trkpt><trkpt lat="43.6047101" lon="12.3182098"><ele>768.0</ele><time>2026-05-02T08:00:05.775Z</time></trkpt><trkpt lat="43.6046245" lon="12.3180833"><ele>768.0</ele><time>2026-05-02T08:00:06.772Z</time></trkpt><trkpt lat="43.6045478" lon="12.3179301"><ele>768.0</ele><time>2026-05-02T08:00:07.78Z</time></trkpt><trkpt lat="43.6044923" lon="12.3177515"><ele>768.0</ele><time>2026-05-02T08:00:08.767Z</time></trkpt><trkpt lat="43.6044321" lon="12.3175514"><ele>775.5</ele><time>2026-05-02T08:00:09.775Z</time></trkpt><trkpt lat="43.6043771" lon="12.3173736"><ele>783.0</ele><time>2026-05-02T08:00:10.767Z</time></trkpt><trkpt lat="43.6043381" lon="12.3171996"><ele>790.5</ele><time>2026-05-02T08:00:11.778Z</time></trkpt><trkpt lat="43.6043102" lon="12.3170315"><ele>798.0</ele><time>2026-05-02T08:00:12.765Z</time></trkpt><trkpt lat="43.604291" lon="12.3168585"><ele>798.0</ele><time>2026-05-02T08:00:13.78Z</time></trkpt><trkpt lat="43.6042878" lon="12.3166778"><ele>798.0</ele><time>2026-05-02T08:00:14.783Z</time></trkpt><trkpt lat="43.6042855" lon="12.3165019"><ele>798.0</ele><time>2026-05-02T08:00:15.782Z</time></trkpt><trkpt lat="43.6043054" lon="12.3163488"><ele>798.0</ele><time>2026-05-02T08:00:16.765Z</time></trkpt><trkpt lat="43.6043386" lon="12.3162036"><ele>799.1666666666666</ele><time>2026-05-02T08:00:17.781Z</time></trkpt><trkpt lat="43.6043912" lon="12.3160672"><ele>800.3333333333333</ele><time>2026-05-02T08:00:18.779Z</time></trkpt><trkpt lat="43.6044876" lon="12.315972"><ele>801.5</ele><time>2026-05-02T08:00:19.78Z</time></trkpt><trkpt lat="43.6045565" lon="12.3159716"><ele>802.6666666666666</ele><time>2026-05-02T08:00:20.767Z</time></trkpt><trkpt lat="43.6046169" lon="12.3159336"><ele>803.8333333333333</ele><time>2026-05-02T08:00:22.766Z</time></trkpt><trkpt lat="43.6045742" lon="12.3158679"><ele>805.0</ele><time>2026-05-02T08:00:24.773Z</time></trkpt><trkpt lat="43.6044909" lon="12.3158465"><ele>804.9999999999999</ele><time>2026-05-02T08:00:25.775Z</time></trkpt><trkpt lat="43.6043997" lon="12.3158309"><ele>805.0</ele><time>2026-05-02T08:00:26.783Z</time></trkpt><trkpt lat="43.6043163" lon="12.3158398"><ele>805.0</ele><time>2026-05-02T08:00:27.769Z</time></trkpt><trkpt lat="43.6042282" lon="12.3158908"><ele>805.0</ele><time>2026-05-02T08:00:28.772Z</time></trkpt><trkpt lat="43.6041604" lon="12.3159926"><ele>804.9999999999999</ele><time>2026-05-02T08:00:29.774Z</time></trkpt><trkpt lat="43.6041208" lon="12.3160667"><ele>805.0</ele><time>2026-05-02T08:00:30.772Z</time></trkpt><trkpt lat="43.6040673" lon="12.3159164"><ele>805.0</ele><time>2026-05-02T08:00:34.766Z</time></trkpt><trkpt lat="43.6040869" lon="12.315812"><ele>805.0</ele><time>2026-05-02T08:00:35.764Z</time></trkpt><trkpt lat="43.6041058" lon="12.3156958"><ele>805.0</ele><time>2026-05-02T08:00:36.768Z</time></trkpt><trkpt lat="43.604141" lon="12.3155573"><ele>805.0</ele><time>2026-05-02T08:00:37.769Z</time></trkpt><trkpt lat="43.6041841" lon="12.3154121"><ele>805.0</ele><time>2026-05-02T08:00:38.767Z</time></trkpt><trkpt lat="43.6042243" lon="12.3152816"><ele>807.9999999999999</ele><time>2026-05-02T08:00:39.77Z</time></trkpt><trkpt lat="43.6042692" lon="12.3151806"><ele>811.0</ele><time>2026-05-02T08:00:40.769Z</time></trkpt><trkpt lat="43.6043311" lon="12.3151406"><ele>814.0</ele><time>2026-05-02T08:00:41.773Z</time></trkpt><trkpt lat="43.6043973" lon="12.3151598"><ele>817.0</ele><time>2026-05-02T08:00:42.766Z</time></trkpt><trkpt lat="43.6044547" lon="12.3152237"><ele>819.9999999999999</ele><time>2026-05-02T08:00:43.769Z</time></trkpt><trkpt lat="43.6045253" lon="12.3152929"><ele>823.0</ele><time>2026-05-02T08:00:44.773Z</time></trkpt><trkpt lat="43.6045982" lon="12.3153317"><ele>824.5999999999999</ele><time>2026-05-02T08:00:45.789Z</time></trkpt><trkpt lat="43.6046867" lon="12.3153347"><ele>826.1999999999999</ele><time>2026-05-02T08:00:46.769Z</time></trkpt><trkpt lat="43.6047719" lon="12.3153104"><ele>827.8</ele><time>2026-05-02T08:00:47.78Z</time></trkpt><trkpt lat="43.6048612" lon="12.3152676"><ele>829.4</ele><time>2026-05-02T08:00:48.782Z</time></trkpt><trkpt lat="43.6049552" lon="12.3152214"><ele>831.0</ele><time>2026-05-02T08:00:49.774Z</time></trkpt><trkpt lat="43.605049" lon="12.3151965"><ele>831.0</ele><time>2026-05-02T08:00:50.762Z</time></trkpt><trkpt lat="43.6051194" lon="12.3152024"><ele>831.0</ele><time>2026-05-02T08:00:51.764Z</time></trkpt><trkpt lat="43.6051873" lon="12.3152622"><ele>831.0</ele><time>2026-05-02T08:00:52.762Z</time></trkpt><trkpt lat="43.6052515" lon="12.315359"><ele>831.0</ele><time>2026-05-02T08:00:53.765Z</time></trkpt><trkpt lat="43.605305" lon="12.3154652"><ele>831.0</ele><time>2026-05-02T08:00:54.766Z</time></trkpt><trkpt lat="43.6053443" lon="12.3156012"><ele>831.0</ele><time>2026-05-02T08:00:55.776Z</time></trkpt><trkpt lat="43.6053753" lon="12.315716"><ele>827.3333333333334</ele><time>2026-05-02T08:00:56.767Z</time></trkpt><trkpt lat="43.6054122" lon="12.3158141"><ele>823.6666666666667</ele><time>2026-05-02T08:00:57.767Z</time></trkpt><trkpt lat="43.6054744" lon="12.3158648"><ele>820.0</ele><time>2026-05-02T08:00:58.774Z</time></trkpt><trkpt lat="43.6055391" lon="12.3158634"><ele>816.3333333333334</ele><time>2026-05-02T08:00:59.774Z</time></trkpt><trkpt lat="43.6056054" lon="12.3158272"><ele>812.6666666666667</ele><time>2026-05-02T08:01:00.772Z</time></trkpt><trkpt lat="43.6056669" lon="12.3157633"><ele>809.0</ele><time>2026-05-02T08:01:01.791Z</time></trkpt><trkpt lat="43.6057195" lon="12.3156701"><ele>813.6</ele><time>2026-05-02T08:01:02.78Z</time></trkpt><trkpt lat="43.6057715" lon="12.3155555"><ele>818.2</ele><time>2026-05-02T08:01:03.779Z</time></trkpt><trkpt lat="43.605809" lon="12.3154277"><ele>822.8000000000001</ele><time>2026-05-02T08:01:04.767Z</time></trkpt><trkpt lat="43.6058354" lon="12.3152838"><ele>827.4000000000001</ele><time>2026-05-02T08:01:05.775Z</time></trkpt><trkpt lat="43.6058538" lon="12.315135"><ele>832.0</ele><time>2026-05-02T08:01:06.761Z</time></trkpt><trkpt lat="43.605868" lon="12.3149793"><ele>832.0</ele><time>2026-05-02T08:01:07.784Z</time></trkpt><trkpt lat="43.6058764" lon="12.3148261"><ele>832.0</ele><time>2026-05-02T08:01:08.77Z</time></trkpt><trkpt lat="43.6058872" lon="12.3146714"><ele>832.0</ele><time>2026-05-02T08:01:09.784Z</time></trkpt><trkpt lat="43.6058985" lon="12.3145234"><ele>832.0</ele><time>2026-05-02T08:01:10.775Z</time></trkpt><trkpt lat="43.6059187" lon="12.3143969"><ele>832.0</ele><time>2026-05-02T08:01:11.774Z</time></trkpt><trkpt lat="43.6059585" lon="12.3143131"><ele>834.8</ele><time>2026-05-02T08:01:12.769Z</time></trkpt><trkpt lat="43.6060825" lon="12.314254"><ele>837.6</ele><time>2026-05-02T08:01:14.767Z</time></trkpt><trkpt lat="43.6061456" lon="12.3142799"><ele>840.4</ele><time>2026-05-02T08:01:15.776Z</time></trkpt><trkpt lat="43.6062162" lon="12.3142604"><ele>843.1999999999999</ele><time>2026-05-02T08:01:17.776Z</time></trkpt><trkpt lat="43.6062998" lon="12.3141501"><ele>846.0</ele><time>2026-05-02T08:01:19.782Z</time></trkpt><trkpt lat="43.6063656" lon="12.3141212"><ele>846.0</ele><time>2026-05-02T08:01:20.76Z</time></trkpt><trkpt lat="43.6064298" lon="12.3141363"><ele>846.0</ele><time>2026-05-02T08:01:21.77Z</time></trkpt><trkpt lat="43.6064992" lon="12.3141627"><ele>846.0</ele><time>2026-05-02T08:01:22.769Z</time></trkpt><trkpt lat="43.6065715" lon="12.314163"><ele>846.0</ele><time>2026-05-02T08:01:23.776Z</time></trkpt><trkpt lat="43.6066372" lon="12.3141236"><ele>846.0</ele><time>2026-05-02T08:01:24.77Z</time></trkpt><trkpt lat="43.6067018" lon="12.3140846"><ele>846.0</ele><time>2026-05-02T08:01:25.779Z</time></trkpt><trkpt lat="43.6067788" lon="12.3140338"><ele>846.0</ele><time>2026-05-02T08:01:26.785Z</time></trkpt><trkpt lat="43.6068683" lon="12.3139894"><ele>846.0</ele><time>2026-05-02T08:01:27.78Z</time></trkpt><trkpt lat="43.6069625" lon="12.3139431"><ele>846.0</ele><time>2026-05-02T08:01:28.769Z</time></trkpt><trkpt lat="43.6070669" lon="12.3139098"><ele>846.0</ele><time>2026-05-02T08:01:29.783Z</time></trkpt><trkpt lat="43.6071729" lon="12.3138702"><ele>846.0</ele><time>2026-05-02T08:01:30.762Z</time></trkpt><trkpt lat="43.6072742" lon="12.313829"><ele>846.0</ele><time>2026-05-02T08:01:31.787Z</time></trkpt><trkpt lat="43.607349" lon="12.313803"><ele>847.8333333333334</ele><time>2026-05-02T08:01:32.77Z</time></trkpt><trkpt lat="43.6074604" lon="12.3138936"><ele>849.6666666666667</ele><time>2026-05-02T08:01:34.759Z</time></trkpt><trkpt lat="43.6075068" lon="12.3139851"><ele>851.5</ele><time>2026-05-02T08:01:35.769Z</time></trkpt><trkpt lat="43.6075594" lon="12.3140661"><ele>853.3333333333334</ele><time>2026-05-02T08:01:36.766Z</time></trkpt><trkpt lat="43.6076204" lon="12.314134"><ele>855.1666666666667</ele><time>2026-05-02T08:01:37.776Z</time></trkpt><trkpt lat="43.607694" lon="12.3141837"><ele>857.0</ele><time>2026-05-02T08:01:38.779Z</time></trkpt><trkpt lat="43.607778" lon="12.3142444"><ele>861.3333333333334</ele><time>2026-05-02T08:01:39.771Z</time></trkpt><trkpt lat="43.6078483" lon="12.3143087"><ele>865.6666666666667</ele><time>2026-05-02T08:01:40.772Z</time></trkpt><trkpt lat="43.6079033" lon="12.314388"><ele>870.0</ele><time>2026-05-02T08:01:41.767Z</time></trkpt><trkpt lat="43.6079522" lon="12.314474"><ele>874.3333333333333</ele><time>2026-05-02T08:01:42.759Z</time></trkpt><trkpt lat="43.607947" lon="12.3145862"><ele>878.6666666666666</ele><time>2026-05-02T08:01:43.766Z</time></trkpt><trkpt lat="43.6079393" lon="12.3147026"><ele>883.0</ele><time>2026-05-02T08:01:44.766Z</time></trkpt><trkpt lat="43.6079273" lon="12.3148002"><ele>883.0</ele><time>2026-05-02T08:01:45.781Z</time></trkpt><trkpt lat="43.6079748" lon="12.3148987"><ele>883.0</ele><time>2026-05-02T08:01:47.77Z</time></trkpt><trkpt lat="43.6080587" lon="12.3148744"><ele>883.0</ele><time>2026-05-02T08:01:49.766Z</time></trkpt><trkpt lat="43.6081351" lon="12.3147064"><ele>883.0</ele><time>2026-05-02T08:01:51.776Z</time></trkpt><trkpt lat="43.608174" lon="12.3145873"><ele>883.0</ele><time>2026-05-02T08:01:52.757Z</time></trkpt><trkpt lat="43.6082057" lon="12.3144596"><ele>882.9999999999999</ele><time>2026-05-02T08:01:53.761Z</time></trkpt><trkpt lat="43.6082169" lon="12.3143362"><ele>883.0</ele><time>2026-05-02T08:01:54.763Z</time></trkpt><trkpt lat="43.6081946" lon="12.3142245"><ele>883.0</ele><time>2026-05-02T08:01:55.771Z</time></trkpt><trkpt lat="43.6081335" lon="12.3141255"><ele>883.0</ele><time>2026-05-02T08:01:56.757Z</time></trkpt><trkpt lat="43.6080621" lon="12.3140539"><ele>882.9999999999999</ele><time>2026-05-02T08:01:57.765Z</time></trkpt><trkpt lat="43.6079897" lon="12.313978"><ele>883.0</ele><time>2026-05-02T08:01:58.763Z</time></trkpt><trkpt lat="43.6079354" lon="12.3138757"><ele>882.2</ele><time>2026-05-02T08:01:59.759Z</time></trkpt><trkpt lat="43.6079091" lon="12.3137525"><ele>881.4</ele><time>2026-05-02T08:02:00.762Z</time></trkpt><trkpt lat="43.6078985" lon="12.3136233"><ele>880.6000000000001</ele><time>2026-05-02T08:02:01.768Z</time></trkpt><trkpt lat="43.6078823" lon="12.3134915"><ele>879.8000000000001</ele><time>2026-05-02T08:02:02.764Z</time></trkpt><trkpt lat="43.6078562" lon="12.3133934"><ele>879.0</ele><time>2026-05-02T08:02:03.774Z</time></trkpt><trkpt lat="43.607793" lon="12.313263"><ele>877.8333333333334</ele><time>2026-05-02T08:02:05.78Z</time></trkpt><trkpt lat="43.6077354" lon="12.3131993"><ele>876.6666666666667</ele><time>2026-05-02T08:02:07.771Z</time></trkpt><trkpt lat="43.6076425" lon="12.3131847"><ele>875.5</ele><time>2026-05-02T08:02:10.785Z</time></trkpt><trkpt lat="43.6075715" lon="12.3132224"><ele>874.3333333333334</ele><time>2026-05-02T08:02:12.775Z</time></trkpt><trkpt lat="43.6074929" lon="12.3132632"><ele>873.1666666666667</ele><time>2026-05-02T08:02:14.776Z</time></trkpt><trkpt lat="43.6074221" lon="12.3132574"><ele>872.0</ele><time>2026-05-02T08:02:16.771Z</time></trkpt><trkpt lat="43.6074151" lon="12.3131665"><ele>872.0000000000001</ele><time>2026-05-02T08:02:19.795Z</time></trkpt><trkpt lat="43.6074975" lon="12.3131507"><ele>872.0</ele><time>2026-05-02T08:02:22.78Z</time></trkpt><trkpt lat="43.6075627" lon="12.3131893"><ele>872.0</ele><time>2026-05-02T08:02:24.768Z</time></trkpt><trkpt lat="43.6076311" lon="12.3132127"><ele>872.0</ele><time>2026-05-02T08:02:26.773Z</time></trkpt><trkpt lat="43.6076539" lon="12.3131092"><ele>872.0000000000001</ele><time>2026-05-02T08:02:30.773Z</time></trkpt><trkpt lat="43.6075762" lon="12.3130941"><ele>872.0</ele><time>2026-05-02T08:02:33.782Z</time></trkpt><trkpt lat="43.6075224" lon="12.3131705"><ele>872.0000000000001</ele><time>2026-05-02T08:02:35.791Z</time></trkpt><trkpt lat="43.6074177" lon="12.3132297"><ele>872.0</ele><time>2026-05-02T08:02:37.779Z</time></trkpt><trkpt lat="43.6073486" lon="12.3132488"><ele>872.0</ele><time>2026-05-02T08:02:38.774Z</time></trkpt><trkpt lat="43.6072699" lon="12.3132663"><ele>872.0</ele><time>2026-05-02T08:02:39.798Z</time></trkpt><trkpt lat="43.6071863" lon="12.3132765"><ele>872.0000000000001</ele><time>2026-05-02T08:02:40.77Z</time></trkpt><trkpt lat="43.6070974" lon="12.313285"><ele>872.0</ele><time>2026-05-02T08:02:41.783Z</time></trkpt><trkpt lat="43.6070159" lon="12.3132908"><ele>871.8333333333334</ele><time>2026-05-02T08:02:42.775Z</time></trkpt><trkpt lat="43.6069432" lon="12.3132812"><ele>871.6666666666667</ele><time>2026-05-02T08:02:43.778Z</time></trkpt><trkpt lat="43.6068723" lon="12.3132379"><ele>871.5</ele><time>2026-05-02T08:02:44.78Z</time></trkpt><trkpt lat="43.6067989" lon="12.313187"><ele>871.3333333333333</ele><time>2026-05-02T08:02:45.785Z</time></trkpt><trkpt lat="43.6067165" lon="12.3131464"><ele>871.1666666666666</ele><time>2026-05-02T08:02:46.772Z</time></trkpt><trkpt lat="43.6066337" lon="12.3131397"><ele>871.0</ele><time>2026-05-02T08:02:47.788Z</time></trkpt><trkpt lat="43.6065456" lon="12.313143"><ele>871.0</ele><time>2026-05-02T08:02:48.773Z</time></trkpt><trkpt lat="43.6064485" lon="12.3131487"><ele>870.9999999999999</ele><time>2026-05-02T08:02:49.777Z</time></trkpt><trkpt lat="43.6063478" lon="12.313154"><ele>870.9999999999999</ele><time>2026-05-02T08:02:50.771Z</time></trkpt><trkpt lat="43.6062543" lon="12.3131793"><ele>871.0</ele><time>2026-05-02T08:02:51.776Z</time></trkpt><trkpt lat="43.6061631" lon="12.313224"><ele>871.0</ele><time>2026-05-02T08:02:52.772Z</time></trkpt><trkpt lat="43.6060663" lon="12.3132715"><ele>872.1666666666666</ele><time>2026-05-02T08:02:53.778Z</time></trkpt><trkpt lat="43.6059726" lon="12.3133005"><ele>873.3333333333333</ele><time>2026-05-02T08:02:54.771Z</time></trkpt><trkpt lat="43.6058884" lon="12.3133085"><ele>874.5</ele><time>2026-05-02T08:02:55.769Z</time></trkpt><trkpt lat="43.6058096" lon="12.3133043"><ele>875.6666666666667</ele><time>2026-05-02T08:02:56.781Z</time></trkpt><trkpt lat="43.6057241" lon="12.3132929"><ele>876.8333333333334</ele><time>2026-05-02T08:02:57.775Z</time></trkpt><trkpt lat="43.6056409" lon="12.313269"><ele>878.0</ele><time>2026-05-02T08:02:58.772Z</time></trkpt><trkpt lat="43.6055625" lon="12.3132374"><ele>878.0000000000001</ele><time>2026-05-02T08:02:59.772Z</time></trkpt><trkpt lat="43.6054847" lon="12.3132105"><ele>878.0</ele><time>2026-05-02T08:03:00.768Z</time></trkpt><trkpt lat="43.6054009" lon="12.3131934"><ele>878.0</ele><time>2026-05-02T08:03:01.788Z</time></trkpt><trkpt lat="43.6053198" lon="12.3131735"><ele>878.0</ele><time>2026-05-02T08:03:02.778Z</time></trkpt><trkpt lat="43.6052456" lon="12.3131545"><ele>878.0000000000001</ele><time>2026-05-02T08:03:03.789Z</time></trkpt><trkpt lat="43.6051729" lon="12.3131266"><ele>878.0</ele><time>2026-05-02T08:03:04.781Z</time></trkpt><trkpt lat="43.6050972" lon="12.3130945"><ele>878.8333333333334</ele><time>2026-05-02T08:03:05.783Z</time></trkpt><trkpt lat="43.6050154" lon="12.3130613"><ele>879.6666666666667</ele><time>2026-05-02T08:03:06.787Z</time></trkpt><trkpt lat="43.6049326" lon="12.3130288"><ele>880.5</ele><time>2026-05-02T08:03:07.783Z</time></trkpt><trkpt lat="43.6048531" lon="12.3129912"><ele>881.3333333333333</ele><time>2026-05-02T08:03:08.776Z</time></trkpt><trkpt lat="43.6047772" lon="12.312954"><ele>882.1666666666666</ele><time>2026-05-02T08:03:09.783Z</time></trkpt><trkpt lat="43.604711" lon="12.3129225"><ele>883.0</ele><time>2026-05-02T08:03:10.777Z</time></trkpt><trkpt lat="43.6046126" lon="12.3128639"><ele>882.9999999999999</ele><time>2026-05-02T08:03:12.77Z</time></trkpt><trkpt lat="43.6045459" lon="12.3128432"><ele>883.0</ele><time>2026-05-02T08:03:14.772Z</time></trkpt><trkpt lat="43.604484" lon="12.3128164"><ele>883.0</ele><time>2026-05-02T08:03:16.768Z</time></trkpt><trkpt lat="43.6043867" lon="12.3127765"><ele>883.0</ele><time>2026-05-02T08:03:18.782Z</time></trkpt><trkpt lat="43.604323" lon="12.312752"><ele>882.9999999999999</ele><time>2026-05-02T08:03:19.775Z</time></trkpt><trkpt lat="43.6042081" lon="12.3127035"><ele>883.0</ele><time>2026-05-02T08:03:21.766Z</time></trkpt><trkpt lat="43.6041429" lon="12.3126237"><ele>884.4</ele><time>2026-05-02T08:03:23.777Z</time></trkpt><trkpt lat="43.6041196" lon="12.3125244"><ele>885.8</ele><time>2026-05-02T08:03:26.773Z</time></trkpt><trkpt lat="43.6040291" lon="12.3124505"><ele>887.2</ele><time>2026-05-02T08:03:28.783Z</time></trkpt><trkpt lat="43.6039113" lon="12.3124115"><ele>888.6</ele><time>2026-05-02T08:03:30.779Z</time></trkpt><trkpt lat="43.6038406" lon="12.3124334"><ele>890.0</ele><time>2026-05-02T08:03:31.777Z</time></trkpt><trkpt lat="43.6037547" lon="12.3125019"><ele>890.0</ele><time>2026-05-02T08:03:32.769Z</time></trkpt><trkpt lat="43.6036689" lon="12.3125585"><ele>890.0</ele><time>2026-05-02T08:03:33.777Z</time></trkpt><trkpt lat="43.6035772" lon="12.3125566"><ele>890.0</ele><time>2026-05-02T08:03:34.772Z</time></trkpt><trkpt lat="43.6034864" lon="12.3125339"><ele>890.0</ele><time>2026-05-02T08:03:35.78Z</time></trkpt><trkpt lat="43.6033986" lon="12.3125139"><ele>890.0</ele><time>2026-05-02T08:03:36.763Z</time></trkpt><trkpt lat="43.6033037" lon="12.3125265"><ele>892.0000000000001</ele><time>2026-05-02T08:03:37.78Z</time></trkpt><trkpt lat="43.6032127" lon="12.312563"><ele>894.0</ele><time>2026-05-02T08:03:38.769Z</time></trkpt><trkpt lat="43.6031366" lon="12.3126247"><ele>896.0</ele><time>2026-05-02T08:03:39.773Z</time></trkpt><trkpt lat="43.6030736" lon="12.3127074"><ele>898.0</ele><time>2026-05-02T08:03:40.777Z</time></trkpt><trkpt lat="43.6030212" lon="12.3127842"><ele>900.0000000000001</ele><time>2026-05-02T08:03:41.785Z</time></trkpt><trkpt lat="43.6029698" lon="12.312846"><ele>902.0</ele><time>2026-05-02T08:03:42.778Z</time></trkpt><trkpt lat="43.60289" lon="12.3129336"><ele>903.6666666666667</ele><time>2026-05-02T08:03:44.774Z</time></trkpt><trkpt lat="43.602788" lon="12.3130281"><ele>905.3333333333334</ele><time>2026-05-02T08:03:46.768Z</time></trkpt><trkpt lat="43.602739" lon="12.3130898"><ele>907.0</ele><time>2026-05-02T08:03:47.785Z</time></trkpt><trkpt lat="43.6026919" lon="12.3131614"><ele>908.6666666666667</ele><time>2026-05-02T08:03:48.774Z</time></trkpt><trkpt lat="43.6026429" lon="12.3132376"><ele>910.3333333333334</ele><time>2026-05-02T08:03:49.792Z</time></trkpt><trkpt lat="43.6025833" lon="12.3133255"><ele>912.0</ele><time>2026-05-02T08:03:50.772Z</time></trkpt><trkpt lat="43.6025221" lon="12.3134235"><ele>913.0</ele><time>2026-05-02T08:03:51.782Z</time></trkpt><trkpt lat="43.6024748" lon="12.3135166"><ele>914.0</ele><time>2026-05-02T08:03:52.773Z</time></trkpt><trkpt lat="43.602424" lon="12.313589"><ele>915.0</ele><time>2026-05-02T08:03:53.793Z</time></trkpt><trkpt lat="43.6023689" lon="12.3136358"><ele>916.0</ele><time>2026-05-02T08:03:54.78Z</time></trkpt><trkpt lat="43.6023052" lon="12.3136467"><ele>917.0</ele><time>2026-05-02T08:03:55.784Z</time></trkpt><trkpt lat="43.6022404" lon="12.3136376"><ele>918.0</ele><time>2026-05-02T08:03:56.779Z</time></trkpt><trkpt lat="43.6021419" lon="12.313568"><ele>918.0</ele><time>2026-05-02T08:03:58.777Z</time></trkpt><trkpt lat="43.6020527" lon="12.3134684"><ele>918.0</ele><time>2026-05-02T08:04:00.779Z</time></trkpt><trkpt lat="43.6019994" lon="12.3134151"><ele>918.0</ele><time>2026-05-02T08:04:01.791Z</time></trkpt><trkpt lat="43.6019465" lon="12.3133545"><ele>918.0</ele><time>2026-05-02T08:04:02.774Z</time></trkpt><trkpt lat="43.6018679" lon="12.3132623"><ele>918.0</ele><time>2026-05-02T08:04:04.762Z</time></trkpt><trkpt lat="43.601833" lon="12.3131432"><ele>918.0</ele><time>2026-05-02T08:04:06.771Z</time></trkpt><trkpt lat="43.6017849" lon="12.3130091"><ele>917.2</ele><time>2026-05-02T08:04:08.77Z</time></trkpt><trkpt lat="43.6016995" lon="12.312909"><ele>916.4</ele><time>2026-05-02T08:04:10.768Z</time></trkpt><trkpt lat="43.6016139" lon="12.3128557"><ele>915.6000000000001</ele><time>2026-05-02T08:04:12.774Z</time></trkpt><trkpt lat="43.6015489" lon="12.3128086"><ele>914.8000000000001</ele><time>2026-05-02T08:04:14.773Z</time></trkpt><trkpt lat="43.6014761" lon="12.3127096"><ele>914.0</ele><time>2026-05-02T08:04:16.773Z</time></trkpt><trkpt lat="43.6013873" lon="12.3125811"><ele>914.0</ele><time>2026-05-02T08:04:18.77Z</time></trkpt><trkpt lat="43.6013225" lon="12.3125285"><ele>914.0000000000001</ele><time>2026-05-02T08:04:19.781Z</time></trkpt><trkpt lat="43.6012599" lon="12.3124911"><ele>914.0000000000001</ele><time>2026-05-02T08:04:20.782Z</time></trkpt><trkpt lat="43.6011787" lon="12.3124033"><ele>914.0</ele><time>2026-05-02T08:04:22.773Z</time></trkpt><trkpt lat="43.6011215" lon="12.3122849"><ele>914.0</ele><time>2026-05-02T08:04:24.774Z</time></trkpt><trkpt lat="43.6010846" lon="12.3121356"><ele>914.8333333333334</ele><time>2026-05-02T08:04:26.765Z</time></trkpt><trkpt lat="43.6010028" lon="12.3120062"><ele>915.6666666666667</ele><time>2026-05-02T08:04:28.784Z</time></trkpt><trkpt lat="43.6009485" lon="12.311957"><ele>916.5</ele><time>2026-05-02T08:04:29.768Z</time></trkpt><trkpt lat="43.6008839" lon="12.3119118"><ele>917.3333333333333</ele><time>2026-05-02T08:04:30.773Z</time></trkpt><trkpt lat="43.6008157" lon="12.3118741"><ele>918.1666666666666</ele><time>2026-05-02T08:04:31.775Z</time></trkpt><trkpt lat="43.6007557" lon="12.3118472"><ele>919.0</ele><time>2026-05-02T08:04:32.766Z</time></trkpt><trkpt lat="43.6006722" lon="12.3117716"><ele>919.0</ele><time>2026-05-02T08:04:34.767Z</time></trkpt><trkpt lat="43.6005996" lon="12.311639"><ele>919.0000000000001</ele><time>2026-05-02T08:04:36.768Z</time></trkpt><trkpt lat="43.6005488" lon="12.3115451"><ele>919.0000000000001</ele><time>2026-05-02T08:04:37.775Z</time></trkpt><trkpt lat="43.6004903" lon="12.3114401"><ele>919.0</ele><time>2026-05-02T08:04:38.792Z</time></trkpt><trkpt lat="43.6004207" lon="12.31135"><ele>919.0</ele><time>2026-05-02T08:04:39.805Z</time></trkpt><trkpt lat="43.6003433" lon="12.3112713"><ele>918.6</ele><time>2026-05-02T08:04:40.77Z</time></trkpt><trkpt lat="43.6002401" lon="12.3111736"><ele>918.2</ele><time>2026-05-02T08:04:41.777Z</time></trkpt><trkpt lat="43.6001399" lon="12.3110891"><ele>917.8000000000001</ele><time>2026-05-02T08:04:42.793Z</time></trkpt><trkpt lat="43.6000521" lon="12.3110225"><ele>917.4000000000001</ele><time>2026-05-02T08:04:43.782Z</time></trkpt><trkpt lat="43.5999606" lon="12.3109903"><ele>917.0</ele><time>2026-05-02T08:04:44.774Z</time></trkpt><trkpt lat="43.5998563" lon="12.3109734"><ele>917.0</ele><time>2026-05-02T08:04:45.767Z</time></trkpt><trkpt lat="43.5997398" lon="12.310964"><ele>917.0</ele><time>2026-05-02T08:04:46.763Z</time></trkpt><trkpt lat="43.5996234" lon="12.3109567"><ele>917.0</ele><time>2026-05-02T08:04:47.786Z</time></trkpt><trkpt lat="43.5995122" lon="12.3109482"><ele>917.0</ele><time>2026-05-02T08:04:48.772Z</time></trkpt><trkpt lat="43.5994079" lon="12.3109507"><ele>917.0</ele><time>2026-05-02T08:04:49.789Z</time></trkpt><trkpt lat="43.5993195" lon="12.3109779"><ele>917.3333333333334</ele><time>2026-05-02T08:04:50.772Z</time></trkpt><trkpt lat="43.5992533" lon="12.3110261"><ele>917.6666666666667</ele><time>2026-05-02T08:04:51.786Z</time></trkpt><trkpt lat="43.5992007" lon="12.3110935"><ele>918.0</ele><time>2026-05-02T08:04:52.775Z</time></trkpt><trkpt lat="43.5991456" lon="12.3111869"><ele>918.3333333333333</ele><time>2026-05-02T08:04:53.779Z</time></trkpt><trkpt lat="43.599093" lon="12.3112693"><ele>918.6666666666666</ele><time>2026-05-02T08:04:54.777Z</time></trkpt><trkpt lat="43.5990327" lon="12.3113411"><ele>919.0</ele><time>2026-05-02T08:04:55.785Z</time></trkpt><trkpt lat="43.5989645" lon="12.3114126"><ele>920.3333333333333</ele><time>2026-05-02T08:04:56.772Z</time></trkpt><trkpt lat="43.5988959" lon="12.3114989"><ele>921.6666666666666</ele><time>2026-05-02T08:04:57.781Z</time></trkpt><trkpt lat="43.598833" lon="12.3115841"><ele>923.0</ele><time>2026-05-02T08:04:58.767Z</time></trkpt><trkpt lat="43.5987788" lon="12.3116524"><ele>924.3333333333333</ele><time>2026-05-02T08:04:59.779Z</time></trkpt><trkpt lat="43.5986816" lon="12.3116571"><ele>925.6666666666666</ele><time>2026-05-02T08:05:01.791Z</time></trkpt><trkpt lat="43.5986162" lon="12.3116388"><ele>927.0</ele><time>2026-05-02T08:05:02.768Z</time></trkpt><trkpt lat="43.5985316" lon="12.3116156"><ele>929.3333333333334</ele><time>2026-05-02T08:05:03.779Z</time></trkpt><trkpt lat="43.5984439" lon="12.3115983"><ele>931.6666666666667</ele><time>2026-05-02T08:05:04.775Z</time></trkpt><trkpt lat="43.5983615" lon="12.3115852"><ele>934.0</ele><time>2026-05-02T08:05:05.781Z</time></trkpt><trkpt lat="43.5982908" lon="12.3115602"><ele>936.3333333333334</ele><time>2026-05-02T08:05:06.772Z</time></trkpt><trkpt lat="43.5982182" lon="12.3115439"><ele>938.6666666666667</ele><time>2026-05-02T08:05:07.782Z</time></trkpt><trkpt lat="43.5981421" lon="12.3115255"><ele>941.0</ele><time>2026-05-02T08:05:08.779Z</time></trkpt><trkpt lat="43.5980553" lon="12.3115117"><ele>941.0</ele><time>2026-05-02T08:05:09.784Z</time></trkpt><trkpt lat="43.5979685" lon="12.3114893"><ele>940.9999999999999</ele><time>2026-05-02T08:05:10.778Z</time></trkpt><trkpt lat="43.597879" lon="12.3114658"><ele>940.9999999999999</ele><time>2026-05-02T08:05:11.781Z</time></trkpt><trkpt lat="43.5977835" lon="12.3114453"><ele>941.0</ele><time>2026-05-02T08:05:12.777Z</time></trkpt><trkpt lat="43.5976935" lon="12.311409"><ele>941.0</ele><time>2026-05-02T08:05:13.783Z</time></trkpt><trkpt lat="43.5976047" lon="12.3113605"><ele>939.1999999999999</ele><time>2026-05-02T08:05:14.766Z</time></trkpt><trkpt lat="43.5975403" lon="12.3113064"><ele>937.3999999999999</ele><time>2026-05-02T08:05:15.765Z</time></trkpt><trkpt lat="43.5974862" lon="12.3112411"><ele>935.6</ele><time>2026-05-02T08:05:16.778Z</time></trkpt><trkpt lat="43.5973986" lon="12.3111363"><ele>933.8</ele><time>2026-05-02T08:05:18.779Z</time></trkpt><trkpt lat="43.5973217" lon="12.3109958"><ele>932.0</ele><time>2026-05-02T08:05:20.775Z</time></trkpt><trkpt lat="43.5972641" lon="12.3109234"><ele>932.0000000000001</ele><time>2026-05-02T08:05:21.786Z</time></trkpt><trkpt lat="43.597188" lon="12.3108565"><ele>932.0</ele><time>2026-05-02T08:05:22.779Z</time></trkpt><trkpt lat="43.5971116" lon="12.3107793"><ele>932.0</ele><time>2026-05-02T08:05:23.776Z</time></trkpt><trkpt lat="43.5970365" lon="12.3107031"><ele>932.0</ele><time>2026-05-02T08:05:24.785Z</time></trkpt><trkpt lat="43.5969769" lon="12.3106319"><ele>932.0000000000001</ele><time>2026-05-02T08:05:25.779Z</time></trkpt><trkpt lat="43.5969214" lon="12.3105724"><ele>932.0</ele><time>2026-05-02T08:05:26.772Z</time></trkpt><trkpt lat="43.5968583" lon="12.3104972"><ele>932.6666666666667</ele><time>2026-05-02T08:05:28.773Z</time></trkpt><trkpt lat="43.596799" lon="12.3104492"><ele>933.3333333333334</ele><time>2026-05-02T08:05:31.778Z</time></trkpt><trkpt lat="43.5967275" lon="12.3104005"><ele>934.0</ele><time>2026-05-02T08:13:54.765Z</time></trkpt><trkpt lat="43.5966423" lon="12.310345"><ele>934.6666666666667</ele><time>2026-05-02T08:13:56.771Z</time></trkpt><trkpt lat="43.5965808" lon="12.3103133"><ele>935.3333333333334</ele><time>2026-05-02T08:13:57.785Z</time></trkpt><trkpt lat="43.5965111" lon="12.3102687"><ele>936.0</ele><time>2026-05-02T08:13:58.785Z</time></trkpt><trkpt lat="43.5964373" lon="12.3102183"><ele>936.0</ele><time>2026-05-02T08:13:59.77Z</time></trkpt><trkpt lat="43.5963724" lon="12.3101627"><ele>936.0</ele><time>2026-05-02T08:14:00.762Z</time></trkpt><trkpt lat="43.5963105" lon="12.3101152"><ele>936.0</ele><time>2026-05-02T08:14:01.768Z</time></trkpt><trkpt lat="43.5962461" lon="12.3100799"><ele>936.0</ele><time>2026-05-02T08:14:02.763Z</time></trkpt><trkpt lat="43.596168" lon="12.3100588"><ele>936.0</ele><time>2026-05-02T08:14:03.792Z</time></trkpt><trkpt lat="43.5960829" lon="12.3100478"><ele>936.0</ele><time>2026-05-02T08:14:04.773Z</time></trkpt><trkpt lat="43.5960054" lon="12.3100509"><ele>936.5999999999999</ele><time>2026-05-02T08:14:05.76Z</time></trkpt><trkpt lat="43.5959365" lon="12.310055"><ele>937.1999999999999</ele><time>2026-05-02T08:14:06.769Z</time></trkpt><trkpt lat="43.5958116" lon="12.3100358"><ele>937.8000000000001</ele><time>2026-05-02T08:14:08.769Z</time></trkpt><trkpt lat="43.5957059" lon="12.3099686"><ele>938.4000000000001</ele><time>2026-05-02T08:14:10.761Z</time></trkpt><trkpt lat="43.5956068" lon="12.3098576"><ele>939.0</ele><time>2026-05-02T08:14:12.757Z</time></trkpt><trkpt lat="43.5955535" lon="12.3097975"><ele>939.3333333333334</ele><time>2026-05-02T08:14:13.775Z</time></trkpt><trkpt lat="43.5954438" lon="12.3097156"><ele>939.6666666666667</ele><time>2026-05-02T08:14:15.768Z</time></trkpt><trkpt lat="43.5953832" lon="12.309671"><ele>940.0</ele><time>2026-05-02T08:14:16.756Z</time></trkpt><trkpt lat="43.5953227" lon="12.3096125"><ele>940.3333333333334</ele><time>2026-05-02T08:14:17.798Z</time></trkpt><trkpt lat="43.5952522" lon="12.3095622"><ele>940.6666666666667</ele><time>2026-05-02T08:14:18.776Z</time></trkpt><trkpt lat="43.5951794" lon="12.3095218"><ele>941.0</ele><time>2026-05-02T08:14:19.761Z</time></trkpt><trkpt lat="43.5951033" lon="12.3095023"><ele>938.5000000000001</ele><time>2026-05-02T08:14:20.769Z</time></trkpt><trkpt lat="43.5950189" lon="12.3094993"><ele>936.0</ele><time>2026-05-02T08:14:21.775Z</time></trkpt><trkpt lat="43.5949289" lon="12.3095158"><ele>933.5</ele><time>2026-05-02T08:14:22.772Z</time></trkpt><trkpt lat="43.5948475" lon="12.3095327"><ele>931.0</ele><time>2026-05-02T08:14:23.771Z</time></trkpt><trkpt lat="43.5947703" lon="12.30955"><ele>928.5000000000001</ele><time>2026-05-02T08:14:24.756Z</time></trkpt><trkpt lat="43.5946932" lon="12.3095547"><ele>926.0</ele><time>2026-05-02T08:14:25.786Z</time></trkpt><trkpt lat="43.5946114" lon="12.3095532"><ele>926.0000000000001</ele><time>2026-05-02T08:14:26.769Z</time></trkpt><trkpt lat="43.5945263" lon="12.309538"><ele>926.0</ele><time>2026-05-02T08:14:27.779Z</time></trkpt><trkpt lat="43.5944392" lon="12.3095143"><ele>926.0</ele><time>2026-05-02T08:14:28.762Z</time></trkpt><trkpt lat="43.5943569" lon="12.3094936"><ele>926.0</ele><time>2026-05-02T08:14:29.769Z</time></trkpt><trkpt lat="43.594279" lon="12.3094685"><ele>926.0000000000001</ele><time>2026-05-02T08:14:30.774Z</time></trkpt><trkpt lat="43.5942064" lon="12.309439"><ele>926.0</ele><time>2026-05-02T08:14:31.765Z</time></trkpt><trkpt lat="43.594151" lon="12.3093918"><ele>926.8</ele><time>2026-05-02T08:14:32.76Z</time></trkpt><trkpt lat="43.5940437" lon="12.3092985"><ele>927.5999999999999</ele><time>2026-05-02T08:14:34.764Z</time></trkpt><trkpt lat="43.5939713" lon="12.3092618"><ele>928.4</ele><time>2026-05-02T08:14:35.773Z</time></trkpt><trkpt lat="43.5938912" lon="12.3092319"><ele>929.2</ele><time>2026-05-02T08:14:36.767Z</time></trkpt><trkpt lat="43.5938151" lon="12.3091789"><ele>930.0</ele><time>2026-05-02T08:14:37.777Z</time></trkpt><trkpt lat="43.5937522" lon="12.3091122"><ele>930.0</ele><time>2026-05-02T08:14:38.778Z</time></trkpt><trkpt lat="43.5937027" lon="12.3090343"><ele>930.0</ele><time>2026-05-02T08:14:39.775Z</time></trkpt><trkpt lat="43.5936174" lon="12.3089271"><ele>930.0</ele><time>2026-05-02T08:14:41.763Z</time></trkpt><trkpt lat="43.5935426" lon="12.3088986"><ele>930.0</ele><time>2026-05-02T08:14:42.768Z</time></trkpt><trkpt lat="43.5934588" lon="12.308872"><ele>930.0</ele><time>2026-05-02T08:14:43.774Z</time></trkpt><trkpt lat="43.5933695" lon="12.308828"><ele>930.0</ele><time>2026-05-02T08:14:44.772Z</time></trkpt><trkpt lat="43.5932843" lon="12.3087704"><ele>930.6</ele><time>2026-05-02T08:14:45.779Z</time></trkpt><trkpt lat="43.5932075" lon="12.3087102"><ele>931.2</ele><time>2026-05-02T08:14:46.761Z</time></trkpt><trkpt lat="43.593147" lon="12.3086453"><ele>931.8</ele><time>2026-05-02T08:14:47.767Z</time></trkpt><trkpt lat="43.5930794" lon="12.3085308"><ele>932.4</ele><time>2026-05-02T08:14:49.781Z</time></trkpt><trkpt lat="43.5929906" lon="12.3084218"><ele>933.0</ele><time>2026-05-02T08:14:51.781Z</time></trkpt><trkpt lat="43.5929075" lon="12.3083069"><ele>933.2</ele><time>2026-05-02T08:14:53.777Z</time></trkpt><trkpt lat="43.592803" lon="12.3082412"><ele>933.4</ele><time>2026-05-02T08:14:55.771Z</time></trkpt><trkpt lat="43.5926852" lon="12.3081874"><ele>933.6000000000001</ele><time>2026-05-02T08:14:57.769Z</time></trkpt><trkpt lat="43.5926166" lon="12.3081532"><ele>933.8000000000001</ele><time>2026-05-02T08:14:58.773Z</time></trkpt><trkpt lat="43.5925457" lon="12.3081123"><ele>934.0</ele><time>2026-05-02T08:14:59.776Z</time></trkpt><trkpt lat="43.5924751" lon="12.3080635"><ele>933.9999999999999</ele><time>2026-05-02T08:15:00.767Z</time></trkpt><trkpt lat="43.5924029" lon="12.3080248"><ele>934.0</ele><time>2026-05-02T08:15:01.773Z</time></trkpt><trkpt lat="43.5923283" lon="12.3080154"><ele>934.0</ele><time>2026-05-02T08:15:02.771Z</time></trkpt><trkpt lat="43.5922426" lon="12.3080165"><ele>934.0</ele><time>2026-05-02T08:15:03.774Z</time></trkpt><trkpt lat="43.5921365" lon="12.3080187"><ele>933.9999999999999</ele><time>2026-05-02T08:15:04.766Z</time></trkpt><trkpt lat="43.5920345" lon="12.3080352"><ele>934.0</ele><time>2026-05-02T08:15:05.78Z</time></trkpt><trkpt lat="43.591929" lon="12.308037"><ele>936.8000000000001</ele><time>2026-05-02T08:15:06.774Z</time></trkpt><trkpt lat="43.5918203" lon="12.3080339"><ele>939.6000000000001</ele><time>2026-05-02T08:15:07.776Z</time></trkpt><trkpt lat="43.5917109" lon="12.3080296"><ele>942.4</ele><time>2026-05-02T08:15:08.775Z</time></trkpt><trkpt lat="43.5916078" lon="12.3080309"><ele>945.2</ele><time>2026-05-02T08:15:09.783Z</time></trkpt><trkpt lat="43.5915042" lon="12.3080584"><ele>948.0</ele><time>2026-05-02T08:15:10.773Z</time></trkpt><trkpt lat="43.5914115" lon="12.3081107"><ele>948.0</ele><time>2026-05-02T08:15:11.763Z</time></trkpt><trkpt lat="43.591332" lon="12.3081879"><ele>948.0</ele><time>2026-05-02T08:15:12.763Z</time></trkpt><trkpt lat="43.5912554" lon="12.3082815"><ele>948.0</ele><time>2026-05-02T08:15:13.781Z</time></trkpt><trkpt lat="43.5911832" lon="12.3083924"><ele>948.0</ele><time>2026-05-02T08:15:14.768Z</time></trkpt><trkpt lat="43.5911101" lon="12.308505"><ele>948.0</ele><time>2026-05-02T08:15:15.775Z</time></trkpt><trkpt lat="43.5910319" lon="12.3086238"><ele>948.0</ele><time>2026-05-02T08:15:16.77Z</time></trkpt><trkpt lat="43.5909447" lon="12.3087373"><ele>948.0</ele><time>2026-05-02T08:15:17.763Z</time></trkpt><trkpt lat="43.5908507" lon="12.3088395"><ele>948.0</ele><time>2026-05-02T08:15:18.771Z</time></trkpt><trkpt lat="43.590749" lon="12.3089282"><ele>948.0</ele><time>2026-05-02T08:15:19.772Z</time></trkpt><trkpt lat="43.5906464" lon="12.3090111"><ele>950.5</ele><time>2026-05-02T08:15:20.775Z</time></trkpt><trkpt lat="43.5905399" lon="12.3090797"><ele>953.0</ele><time>2026-05-02T08:15:21.775Z</time></trkpt><trkpt lat="43.5904246" lon="12.3091494"><ele>955.5</ele><time>2026-05-02T08:15:22.773Z</time></trkpt><trkpt lat="43.5903116" lon="12.3092198"><ele>958.0</ele><time>2026-05-02T08:15:23.772Z</time></trkpt><trkpt lat="43.5901958" lon="12.3092981"><ele>958.8</ele><time>2026-05-02T08:15:24.78Z</time></trkpt><trkpt lat="43.5900794" lon="12.3093673"><ele>959.5999999999999</ele><time>2026-05-02T08:15:25.771Z</time></trkpt><trkpt lat="43.5899765" lon="12.3094187"><ele>960.4000000000001</ele><time>2026-05-02T08:15:26.77Z</time></trkpt><trkpt lat="43.5898852" lon="12.3094519"><ele>961.2</ele><time>2026-05-02T08:15:27.775Z</time></trkpt><trkpt lat="43.5897828" lon="12.3094704"><ele>962.0</ele><time>2026-05-02T08:15:28.763Z</time></trkpt><trkpt lat="43.5896717" lon="12.3094712"><ele>962.0</ele><time>2026-05-02T08:15:29.768Z</time></trkpt><trkpt lat="43.5895537" lon="12.3094449"><ele>962.0</ele><time>2026-05-02T08:15:30.762Z</time></trkpt><trkpt lat="43.5894321" lon="12.3094045"><ele>962.0</ele><time>2026-05-02T08:15:31.776Z</time></trkpt><trkpt lat="43.5893104" lon="12.3093629"><ele>962.0</ele><time>2026-05-02T08:15:32.768Z</time></trkpt><trkpt lat="43.5891792" lon="12.3093353"><ele>962.5</ele><time>2026-05-02T08:15:33.783Z</time></trkpt><trkpt lat="43.5890421" lon="12.3093147"><ele>963.0</ele><time>2026-05-02T08:15:34.776Z</time></trkpt><trkpt lat="43.5889195" lon="12.309288"><ele>963.5</ele><time>2026-05-02T08:15:35.765Z</time></trkpt><trkpt lat="43.5888043" lon="12.3092619"><ele>964.0</ele><time>2026-05-02T08:15:36.76Z</time></trkpt><trkpt lat="43.5886942" lon="12.3092312"><ele>962.8000000000001</ele><time>2026-05-02T08:15:37.792Z</time></trkpt><trkpt lat="43.5885895" lon="12.3091889"><ele>961.6000000000001</ele><time>2026-05-02T08:15:38.773Z</time></trkpt><trkpt lat="43.5884832" lon="12.3091411"><ele>960.4</ele><time>2026-05-02T08:15:39.768Z</time></trkpt><trkpt lat="43.5883805" lon="12.3090777"><ele>959.2</ele><time>2026-05-02T08:15:40.781Z</time></trkpt><trkpt lat="43.5882832" lon="12.30901"><ele>958.0</ele><time>2026-05-02T08:15:41.768Z</time></trkpt><trkpt lat="43.5881814" lon="12.3089486"><ele>958.0</ele><time>2026-05-02T08:15:42.772Z</time></trkpt><trkpt lat="43.5880764" lon="12.3089116"><ele>958.0</ele><time>2026-05-02T08:15:43.778Z</time></trkpt><trkpt lat="43.5879608" lon="12.3089064"><ele>958.0</ele><time>2026-05-02T08:15:44.784Z</time></trkpt><trkpt lat="43.5878453" lon="12.3089546"><ele>958.0</ele><time>2026-05-02T08:15:45.78Z</time></trkpt><trkpt lat="43.5877434" lon="12.3090421"><ele>955.5</ele><time>2026-05-02T08:15:46.763Z</time></trkpt><trkpt lat="43.5876563" lon="12.3091514"><ele>953.0</ele><time>2026-05-02T08:15:47.783Z</time></trkpt><trkpt lat="43.5875849" lon="12.3092768"><ele>950.5</ele><time>2026-05-02T08:15:48.779Z</time></trkpt><trkpt lat="43.5875168" lon="12.3094215"><ele>948.0</ele><time>2026-05-02T08:15:49.78Z</time></trkpt><trkpt lat="43.5874551" lon="12.30957"><ele>948.0</ele><time>2026-05-02T08:15:50.775Z</time></trkpt><trkpt lat="43.5873968" lon="12.3097221"><ele>948.0</ele><time>2026-05-02T08:15:51.767Z</time></trkpt><trkpt lat="43.5873418" lon="12.3098772"><ele>948.0</ele><time>2026-05-02T08:15:52.774Z</time></trkpt><trkpt lat="43.5872854" lon="12.3100338"><ele>948.0</ele><time>2026-05-02T08:15:53.773Z</time></trkpt><trkpt lat="43.5872287" lon="12.3101886"><ele>949.5</ele><time>2026-05-02T08:15:54.77Z</time></trkpt><trkpt lat="43.5871668" lon="12.3103355"><ele>951.0</ele><time>2026-05-02T08:15:55.783Z</time></trkpt><trkpt lat="43.5870875" lon="12.3104677"><ele>952.5</ele><time>2026-05-02T08:15:56.761Z</time></trkpt><trkpt lat="43.5870055" lon="12.3105839"><ele>954.0</ele><time>2026-05-02T08:15:57.775Z</time></trkpt><trkpt lat="43.5869161" lon="12.3106851"><ele>956.25</ele><time>2026-05-02T08:15:58.77Z</time></trkpt><trkpt lat="43.5868111" lon="12.3107817"><ele>958.5</ele><time>2026-05-02T08:15:59.771Z</time></trkpt><trkpt lat="43.5866983" lon="12.3108783"><ele>960.75</ele><time>2026-05-02T08:16:00.763Z</time></trkpt><trkpt lat="43.5865849" lon="12.3109608"><ele>963.0</ele><time>2026-05-02T08:16:01.776Z</time></trkpt><trkpt lat="43.5864712" lon="12.3110221"><ele>963.0</ele><time>2026-05-02T08:16:02.77Z</time></trkpt><trkpt lat="43.5863541" lon="12.311074"><ele>963.0</ele><time>2026-05-02T08:16:03.804Z</time></trkpt><trkpt lat="43.5862254" lon="12.3111178"><ele>963.0</ele><time>2026-05-02T08:16:04.772Z</time></trkpt><trkpt lat="43.5860928" lon="12.3111663"><ele>963.0</ele><time>2026-05-02T08:16:05.789Z</time></trkpt><trkpt lat="43.585953" lon="12.3112126"><ele>958.25</ele><time>2026-05-02T08:16:06.776Z</time></trkpt><trkpt lat="43.5858116" lon="12.3112717"><ele>953.5</ele><time>2026-05-02T08:16:07.785Z</time></trkpt><trkpt lat="43.5856724" lon="12.3113366"><ele>948.75</ele><time>2026-05-02T08:16:08.771Z</time></trkpt><trkpt lat="43.5855388" lon="12.3113869"><ele>944.0</ele><time>2026-05-02T08:16:09.796Z</time></trkpt><trkpt lat="43.5854068" lon="12.3114361"><ele>943.5</ele><time>2026-05-02T08:16:10.772Z</time></trkpt><trkpt lat="43.585272" lon="12.3114714"><ele>943.0</ele><time>2026-05-02T08:16:11.779Z</time></trkpt><trkpt lat="43.5851291" lon="12.3115017"><ele>942.5</ele><time>2026-05-02T08:16:12.77Z</time></trkpt><trkpt lat="43.5849771" lon="12.311528"><ele>942.0</ele><time>2026-05-02T08:16:13.779Z</time></trkpt><trkpt lat="43.5848235" lon="12.3115473"><ele>942.0</ele><time>2026-05-02T08:16:14.772Z</time></trkpt><trkpt lat="43.5846857" lon="12.3115504"><ele>942.0</ele><time>2026-05-02T08:16:15.78Z</time></trkpt><trkpt lat="43.5845608" lon="12.3115348"><ele>942.0</ele><time>2026-05-02T08:16:16.771Z</time></trkpt><trkpt lat="43.5844347" lon="12.3115172"><ele>942.0</ele><time>2026-05-02T08:16:17.784Z</time></trkpt><trkpt lat="43.5843095" lon="12.3114872"><ele>942.75</ele><time>2026-05-02T08:16:18.775Z</time></trkpt><trkpt lat="43.5841751" lon="12.311453"><ele>943.5</ele><time>2026-05-02T08:16:19.769Z</time></trkpt><trkpt lat="43.5840352" lon="12.3114339"><ele>944.25</ele><time>2026-05-02T08:16:20.779Z</time></trkpt><trkpt lat="43.5838897" lon="12.3114182"><ele>945.0</ele><time>2026-05-02T08:16:21.774Z</time></trkpt><trkpt lat="43.5837647" lon="12.3113974"><ele>943.0</ele><time>2026-05-02T08:16:22.769Z</time></trkpt><trkpt lat="43.5836537" lon="12.3113624"><ele>941.0</ele><time>2026-05-02T08:16:23.776Z</time></trkpt><trkpt lat="43.5835552" lon="12.3112957"><ele>939.0</ele><time>2026-05-02T08:16:24.762Z</time></trkpt><trkpt lat="43.5834611" lon="12.3112179"><ele>937.0</ele><time>2026-05-02T08:16:25.779Z</time></trkpt><trkpt lat="43.5833658" lon="12.3111643"><ele>935.0</ele><time>2026-05-02T08:16:26.773Z</time></trkpt><trkpt lat="43.5832559" lon="12.311142"><ele>935.0</ele><time>2026-05-02T08:16:27.776Z</time></trkpt><trkpt lat="43.5831348" lon="12.3111454"><ele>935.0</ele><time>2026-05-02T08:16:28.77Z</time></trkpt><trkpt lat="43.583008" lon="12.3111451"><ele>935.0</ele><time>2026-05-02T08:16:29.781Z</time></trkpt><trkpt lat="43.5828787" lon="12.3111401"><ele>935.0</ele><time>2026-05-02T08:16:30.765Z</time></trkpt><trkpt lat="43.5827526" lon="12.3111209"><ele>935.75</ele><time>2026-05-02T08:16:31.758Z</time></trkpt><trkpt lat="43.5826344" lon="12.3110951"><ele>936.5</ele><time>2026-05-02T08:16:32.767Z</time></trkpt><trkpt lat="43.5825218" lon="12.311068"><ele>937.25</ele><time>2026-05-02T08:16:33.764Z</time></trkpt><trkpt lat="43.5824159" lon="12.3110211"><ele>938.0</ele><time>2026-05-02T08:16:34.767Z</time></trkpt><trkpt lat="43.5823087" lon="12.3109449"><ele>938.0</ele><time>2026-05-02T08:16:35.773Z</time></trkpt><trkpt lat="43.5822052" lon="12.3108448"><ele>938.0</ele><time>2026-05-02T08:16:36.77Z</time></trkpt><trkpt lat="43.5821116" lon="12.3107312"><ele>938.0</ele><time>2026-05-02T08:16:37.767Z</time></trkpt><trkpt lat="43.582035" lon="12.3106071"><ele>938.0</ele><time>2026-05-02T08:16:38.772Z</time></trkpt><trkpt lat="43.5819702" lon="12.3104959"><ele>936.8</ele><time>2026-05-02T08:16:39.778Z</time></trkpt><trkpt lat="43.581902" lon="12.310382"><ele>935.5999999999999</ele><time>2026-05-02T08:16:40.771Z</time></trkpt><trkpt lat="43.5818171" lon="12.3102964"><ele>934.4000000000001</ele><time>2026-05-02T08:16:41.774Z</time></trkpt><trkpt lat="43.5817239" lon="12.3102218"><ele>933.2</ele><time>2026-05-02T08:16:42.772Z</time></trkpt><trkpt lat="43.5816336" lon="12.310133"><ele>932.0</ele><time>2026-05-02T08:16:43.78Z</time></trkpt><trkpt lat="43.5815402" lon="12.3100352"><ele>932.0</ele><time>2026-05-02T08:16:44.77Z</time></trkpt><trkpt lat="43.5814454" lon="12.3099627"><ele>932.0</ele><time>2026-05-02T08:16:45.785Z</time></trkpt><trkpt lat="43.5813387" lon="12.3099175"><ele>932.0</ele><time>2026-05-02T08:16:46.78Z</time></trkpt><trkpt lat="43.5812221" lon="12.3098941"><ele>932.0</ele><time>2026-05-02T08:16:47.795Z</time></trkpt><trkpt lat="43.5811053" lon="12.3099029"><ele>928.75</ele><time>2026-05-02T08:16:48.773Z</time></trkpt><trkpt lat="43.5809771" lon="12.3099401"><ele>925.5</ele><time>2026-05-02T08:16:49.77Z</time></trkpt><trkpt lat="43.5808425" lon="12.3099829"><ele>922.25</ele><time>2026-05-02T08:16:50.766Z</time></trkpt><trkpt lat="43.5807098" lon="12.310029"><ele>919.0</ele><time>2026-05-02T08:16:51.776Z</time></trkpt><trkpt lat="43.5805816" lon="12.3100787"><ele>919.0</ele><time>2026-05-02T08:16:52.774Z</time></trkpt><trkpt lat="43.5804655" lon="12.3101375"><ele>919.0000000000001</ele><time>2026-05-02T08:16:53.77Z</time></trkpt><trkpt lat="43.5803593" lon="12.310188"><ele>919.0000000000001</ele><time>2026-05-02T08:16:54.77Z</time></trkpt><trkpt lat="43.5802633" lon="12.3102075"><ele>919.0</ele><time>2026-05-02T08:16:55.775Z</time></trkpt><trkpt lat="43.5801724" lon="12.3101972"><ele>919.0</ele><time>2026-05-02T08:16:56.775Z</time></trkpt><trkpt lat="43.5800946" lon="12.3101486"><ele>919.0</ele><time>2026-05-02T08:16:57.769Z</time></trkpt><trkpt lat="43.5800352" lon="12.3100626"><ele>919.0000000000001</ele><time>2026-05-02T08:16:58.762Z</time></trkpt><trkpt lat="43.5799968" lon="12.3099472"><ele>919.0000000000001</ele><time>2026-05-02T08:16:59.778Z</time></trkpt><trkpt lat="43.5799804" lon="12.3098167"><ele>919.0</ele><time>2026-05-02T08:17:00.773Z</time></trkpt><trkpt lat="43.5799826" lon="12.309665"><ele>919.0</ele><time>2026-05-02T08:17:01.768Z</time></trkpt><trkpt lat="43.5800287" lon="12.3095187"><ele>916.0</ele><time>2026-05-02T08:17:02.758Z</time></trkpt><trkpt lat="43.5800371" lon="12.3093611"><ele>913.0</ele><time>2026-05-02T08:17:03.794Z</time></trkpt><trkpt lat="43.5799745" lon="12.3092167"><ele>910.0</ele><time>2026-05-02T08:17:04.78Z</time></trkpt><trkpt lat="43.579912" lon="12.3090725"><ele>907.0</ele><time>2026-05-02T08:17:05.77Z</time></trkpt><trkpt lat="43.5798554" lon="12.3089302"><ele>904.8</ele><time>2026-05-02T08:17:06.764Z</time></trkpt><trkpt lat="43.5798169" lon="12.3087883"><ele>902.6</ele><time>2026-05-02T08:17:07.777Z</time></trkpt><trkpt lat="43.5797843" lon="12.308657"><ele>900.3999999999999</ele><time>2026-05-02T08:17:08.766Z</time></trkpt><trkpt lat="43.5797413" lon="12.3085504"><ele>898.1999999999999</ele><time>2026-05-02T08:17:09.774Z</time></trkpt><trkpt lat="43.5796723" lon="12.3084491"><ele>896.0</ele><time>2026-05-02T08:17:10.767Z</time></trkpt><trkpt lat="43.5795788" lon="12.3083418"><ele>894.75</ele><time>2026-05-02T08:17:11.771Z</time></trkpt><trkpt lat="43.579485" lon="12.3082429"><ele>893.5</ele><time>2026-05-02T08:17:12.759Z</time></trkpt><trkpt lat="43.5793801" lon="12.3081438"><ele>892.25</ele><time>2026-05-02T08:17:13.772Z</time></trkpt><trkpt lat="43.5793123" lon="12.3080263"><ele>891.0</ele><time>2026-05-02T08:17:14.769Z</time></trkpt><trkpt lat="43.5792403" lon="12.3079195"><ele>891.0</ele><time>2026-05-02T08:17:15.779Z</time></trkpt><trkpt lat="43.5791524" lon="12.3078381"><ele>891.0</ele><time>2026-05-02T08:17:16.763Z</time></trkpt><trkpt lat="43.5790463" lon="12.3077652"><ele>891.0</ele><time>2026-05-02T08:17:17.772Z</time></trkpt><trkpt lat="43.5789302" lon="12.307702"><ele>891.0</ele><time>2026-05-02T08:17:18.774Z</time></trkpt><trkpt lat="43.5788184" lon="12.3076534"><ele>891.0</ele><time>2026-05-02T08:17:19.78Z</time></trkpt><trkpt lat="43.5787204" lon="12.3076026"><ele>890.9999999999999</ele><time>2026-05-02T08:17:20.769Z</time></trkpt><trkpt lat="43.578651" lon="12.3075242"><ele>890.9999999999999</ele><time>2026-05-02T08:17:21.766Z</time></trkpt><trkpt lat="43.5786087" lon="12.3073909"><ele>891.0</ele><time>2026-05-02T08:17:22.756Z</time></trkpt><trkpt lat="43.5785801" lon="12.3072299"><ele>891.0</ele><time>2026-05-02T08:17:23.768Z</time></trkpt><trkpt lat="43.5785638" lon="12.3070736"><ele>889.5999999999999</ele><time>2026-05-02T08:17:24.762Z</time></trkpt><trkpt lat="43.5785552" lon="12.3069452"><ele>888.1999999999999</ele><time>2026-05-02T08:17:25.788Z</time></trkpt><trkpt lat="43.5785177" lon="12.3068396"><ele>886.8000000000001</ele><time>2026-05-02T08:17:26.762Z</time></trkpt><trkpt lat="43.5784531" lon="12.3067346"><ele>885.4000000000001</ele><time>2026-05-02T08:17:27.765Z</time></trkpt><trkpt lat="43.5783757" lon="12.3066288"><ele>884.0</ele><time>2026-05-02T08:17:28.773Z</time></trkpt><trkpt lat="43.5782821" lon="12.3065576"><ele>884.0</ele><time>2026-05-02T08:17:29.778Z</time></trkpt><trkpt lat="43.5781647" lon="12.3065484"><ele>884.0</ele><time>2026-05-02T08:17:30.784Z</time></trkpt><trkpt lat="43.5780443" lon="12.3065539"><ele>884.0</ele><time>2026-05-02T08:17:31.764Z</time></trkpt><trkpt lat="43.5779351" lon="12.3065738"><ele>884.0</ele><time>2026-05-02T08:17:32.77Z</time></trkpt><trkpt lat="43.5778366" lon="12.306608"><ele>883.8000000000001</ele><time>2026-05-02T08:17:33.772Z</time></trkpt><trkpt lat="43.5777366" lon="12.3066441"><ele>883.6000000000001</ele><time>2026-05-02T08:17:34.769Z</time></trkpt><trkpt lat="43.5776328" lon="12.3066652"><ele>883.4</ele><time>2026-05-02T08:17:35.785Z</time></trkpt><trkpt lat="43.5775419" lon="12.3066728"><ele>883.2</ele><time>2026-05-02T08:17:36.767Z</time></trkpt><trkpt lat="43.5774541" lon="12.3066559"><ele>883.0</ele><time>2026-05-02T08:17:37.768Z</time></trkpt><trkpt lat="43.5773694" lon="12.3066085"><ele>883.0</ele><time>2026-05-02T08:17:38.763Z</time></trkpt><trkpt lat="43.5772863" lon="12.3065222"><ele>883.0</ele><time>2026-05-02T08:17:39.764Z</time></trkpt><trkpt lat="43.5772148" lon="12.3064106"><ele>883.0</ele><time>2026-05-02T08:17:40.766Z</time></trkpt><trkpt lat="43.5771677" lon="12.3062774"><ele>883.0</ele><time>2026-05-02T08:17:41.772Z</time></trkpt><trkpt lat="43.5771456" lon="12.306125"><ele>883.0</ele><time>2026-05-02T08:17:42.767Z</time></trkpt><trkpt lat="43.5771442" lon="12.3059669"><ele>882.5</ele><time>2026-05-02T08:17:43.774Z</time></trkpt><trkpt lat="43.577178" lon="12.3058198"><ele>882.0</ele><time>2026-05-02T08:17:44.753Z</time></trkpt><trkpt lat="43.5772416" lon="12.3056785"><ele>881.5</ele><time>2026-05-02T08:17:45.772Z</time></trkpt><trkpt lat="43.5773104" lon="12.3055261"><ele>881.0</ele><time>2026-05-02T08:17:46.76Z</time></trkpt><trkpt lat="43.5773798" lon="12.3053768"><ele>881.0</ele><time>2026-05-02T08:17:47.77Z</time></trkpt><trkpt lat="43.577449" lon="12.3052265"><ele>881.0</ele><time>2026-05-02T08:17:48.759Z</time></trkpt><trkpt lat="43.5775144" lon="12.3050779"><ele>881.0</ele><time>2026-05-02T08:17:49.77Z</time></trkpt><trkpt lat="43.5775791" lon="12.3049384"><ele>881.0</ele><time>2026-05-02T08:17:50.782Z</time></trkpt><trkpt lat="43.5776403" lon="12.3047986"><ele>881.5999999999999</ele><time>2026-05-02T08:17:51.771Z</time></trkpt><trkpt lat="43.577676" lon="12.3046469"><ele>882.1999999999999</ele><time>2026-05-02T08:17:52.767Z</time></trkpt><trkpt lat="43.5776828" lon="12.3044944"><ele>882.8000000000001</ele><time>2026-05-02T08:17:53.788Z</time></trkpt><trkpt lat="43.5776626" lon="12.3043551"><ele>883.4000000000001</ele><time>2026-05-02T08:17:54.772Z</time></trkpt><trkpt lat="43.5776166" lon="12.3042303"><ele>884.0</ele><time>2026-05-02T08:17:55.774Z</time></trkpt><trkpt lat="43.5775515" lon="12.304116"><ele>884.0</ele><time>2026-05-02T08:17:56.758Z</time></trkpt><trkpt lat="43.57749" lon="12.3039955"><ele>884.0000000000001</ele><time>2026-05-02T08:17:57.761Z</time></trkpt><trkpt lat="43.5774487" lon="12.3038607"><ele>884.0000000000001</ele><time>2026-05-02T08:17:58.765Z</time></trkpt><trkpt lat="43.5774403" lon="12.3037188"><ele>884.0</ele><time>2026-05-02T08:17:59.767Z</time></trkpt><trkpt lat="43.5774483" lon="12.3035673"><ele>884.0</ele><time>2026-05-02T08:18:00.766Z</time></trkpt><trkpt lat="43.5774651" lon="12.303429"><ele>884.2</ele><time>2026-05-02T08:18:01.768Z</time></trkpt><trkpt lat="43.5775009" lon="12.3032907"><ele>884.4000000000001</ele><time>2026-05-02T08:18:02.773Z</time></trkpt><trkpt lat="43.5775477" lon="12.3031531"><ele>884.6</ele><time>2026-05-02T08:18:03.777Z</time></trkpt><trkpt lat="43.5776019" lon="12.3030229"><ele>884.8</ele><time>2026-05-02T08:18:04.768Z</time></trkpt><trkpt lat="43.5776552" lon="12.3028857"><ele>885.0</ele><time>2026-05-02T08:18:05.781Z</time></trkpt><trkpt lat="43.5777079" lon="12.3027458"><ele>883.8</ele><time>2026-05-02T08:18:06.766Z</time></trkpt><trkpt lat="43.5777601" lon="12.30261"><ele>882.6</ele><time>2026-05-02T08:18:07.78Z</time></trkpt><trkpt lat="43.5778072" lon="12.3024744"><ele>881.4000000000001</ele><time>2026-05-02T08:18:08.772Z</time></trkpt><trkpt lat="43.5778515" lon="12.302335"><ele>880.2</ele><time>2026-05-02T08:18:09.778Z</time></trkpt><trkpt lat="43.5778992" lon="12.3021912"><ele>879.0</ele><time>2026-05-02T08:18:10.768Z</time></trkpt><trkpt lat="43.5779417" lon="12.302049"><ele>878.8000000000001</ele><time>2026-05-02T08:18:11.768Z</time></trkpt><trkpt lat="43.5779808" lon="12.3019123"><ele>878.6000000000001</ele><time>2026-05-02T08:18:12.763Z</time></trkpt><trkpt lat="43.578021" lon="12.3017867"><ele>878.4</ele><time>2026-05-02T08:18:13.774Z</time></trkpt><trkpt lat="43.5780535" lon="12.3016548"><ele>878.2</ele><time>2026-05-02T08:18:14.779Z</time></trkpt><trkpt lat="43.5780807" lon="12.3015263"><ele>878.0</ele><time>2026-05-02T08:18:15.775Z</time></trkpt><trkpt lat="43.5781035" lon="12.3014154"><ele>878.0000000000001</ele><time>2026-05-02T08:18:16.766Z</time></trkpt><trkpt lat="43.5781204" lon="12.3013262"><ele>878.0</ele><time>2026-05-02T08:18:17.787Z</time></trkpt><trkpt lat="43.5781374" lon="12.3012002"><ele>878.0</ele><time>2026-05-02T08:18:19.789Z</time></trkpt><trkpt lat="43.5781341" lon="12.3011109"><ele>878.0</ele><time>2026-05-02T08:18:21.79Z</time></trkpt><trkpt lat="43.5781044" lon="12.3010113"><ele>878.0000000000001</ele><time>2026-05-02T08:18:23.796Z</time></trkpt><trkpt lat="43.57806" lon="12.3008727"><ele>878.0</ele><time>2026-05-02T08:18:25.774Z</time></trkpt><trkpt lat="43.5780621" lon="12.3007724"><ele>878.0000000000001</ele><time>2026-05-02T08:18:27.771Z</time></trkpt><trkpt lat="43.5780571" lon="12.3006792"><ele>878.0</ele><time>2026-05-02T08:18:29.778Z</time></trkpt><trkpt lat="43.5780395" lon="12.3005881"><ele>878.0</ele><time>2026-05-02T08:18:32.781Z</time></trkpt><trkpt lat="43.5780579" lon="12.3005013"><ele>878.0</ele><time>2026-05-02T08:18:37.779Z</time></trkpt><trkpt lat="43.5781169" lon="12.3003811"><ele>878.0000000000001</ele><time>2026-05-02T08:18:51.762Z</time></trkpt><trkpt lat="43.5781583" lon="12.3002759"><ele>878.0</ele><time>2026-05-02T08:18:53.782Z</time></trkpt><trkpt lat="43.5781991" lon="12.300207"><ele>880.6666666666667</ele><time>2026-05-02T08:18:55.782Z</time></trkpt><trkpt lat="43.5782228" lon="12.3000926"><ele>883.3333333333334</ele><time>2026-05-02T08:19:26.781Z</time></trkpt><trkpt lat="43.5782084" lon="12.2999713"><ele>886.0</ele><time>2026-05-02T08:19:28.778Z</time></trkpt><trkpt lat="43.5781829" lon="12.2998822"><ele>888.6666666666667</ele><time>2026-05-02T08:19:29.783Z</time></trkpt><trkpt lat="43.5781523" lon="12.2997912"><ele>891.3333333333334</ele><time>2026-05-02T08:19:30.774Z</time></trkpt><trkpt lat="43.5781201" lon="12.2997165"><ele>894.0</ele><time>2026-05-02T08:19:31.788Z</time></trkpt><trkpt lat="43.5780478" lon="12.2995992"><ele>894.6</ele><time>2026-05-02T08:19:33.793Z</time></trkpt><trkpt lat="43.5779728" lon="12.2994924"><ele>895.2</ele><time>2026-05-02T08:19:35.785Z</time></trkpt><trkpt lat="43.5779183" lon="12.2993899"><ele>895.8000000000001</ele><time>2026-05-02T08:19:37.786Z</time></trkpt><trkpt lat="43.5778571" lon="12.2992958"><ele>896.4000000000001</ele><time>2026-05-02T08:19:39.776Z</time></trkpt><trkpt lat="43.5777817" lon="12.2992132"><ele>897.0</ele><time>2026-05-02T08:19:41.771Z</time></trkpt><trkpt lat="43.5776809" lon="12.2991632"><ele>892.0</ele><time>2026-05-02T08:19:43.787Z</time></trkpt><trkpt lat="43.5775711" lon="12.2991298"><ele>887.0</ele><time>2026-05-02T08:19:45.773Z</time></trkpt><trkpt lat="43.5774591" lon="12.2990862"><ele>882.0</ele><time>2026-05-02T08:19:47.777Z</time></trkpt><trkpt lat="43.5773659" lon="12.2990356"><ele>877.0</ele><time>2026-05-02T08:19:49.776Z</time></trkpt><trkpt lat="43.5772938" lon="12.2989726"><ele>872.0</ele><time>2026-05-02T08:19:51.779Z</time></trkpt><trkpt lat="43.5772368" lon="12.2989208"><ele>873.1428571428571</ele><time>2026-05-02T08:19:53.78Z</time></trkpt><trkpt lat="43.5771807" lon="12.2988695"><ele>874.2857142857143</ele><time>2026-05-02T08:19:55.763Z</time></trkpt><trkpt lat="43.5771264" lon="12.2988132"><ele>875.4285714285713</ele><time>2026-05-02T08:19:57.773Z</time></trkpt><trkpt lat="43.5770778" lon="12.2987562"><ele>876.5714285714286</ele><time>2026-05-02T08:19:59.784Z</time></trkpt><trkpt lat="43.5769916" lon="12.298718"><ele>877.7142857142857</ele><time>2026-05-02T08:20:02.775Z</time></trkpt><trkpt lat="43.5769307" lon="12.2986919"><ele>878.8571428571428</ele><time>2026-05-02T08:20:04.78Z</time></trkpt><trkpt lat="43.5768498" lon="12.2986372"><ele>880.0</ele><time>2026-05-02T08:20:07.786Z</time></trkpt><trkpt lat="43.5767974" lon="12.2985843"><ele>875.4</ele><time>2026-05-02T08:20:11.778Z</time></trkpt><trkpt lat="43.5767446" lon="12.2985131"><ele>870.8</ele><time>2026-05-02T08:21:36.777Z</time></trkpt><trkpt lat="43.5766715" lon="12.2983988"><ele>866.2</ele><time>2026-05-02T08:21:38.783Z</time></trkpt><trkpt lat="43.5766013" lon="12.2983042"><ele>861.6</ele><time>2026-05-02T08:21:39.78Z</time></trkpt><trkpt lat="43.576524" lon="12.2982007"><ele>857.0</ele><time>2026-05-02T08:21:40.779Z</time></trkpt><trkpt lat="43.5764456" lon="12.298093"><ele>857.0</ele><time>2026-05-02T08:21:41.781Z</time></trkpt><trkpt lat="43.576369" lon="12.2979957"><ele>857.0</ele><time>2026-05-02T08:21:42.776Z</time></trkpt><trkpt lat="43.5763082" lon="12.2979162"><ele>857.0</ele><time>2026-05-02T08:21:43.784Z</time></trkpt><trkpt lat="43.5762555" lon="12.2978557"><ele>857.0</ele><time>2026-05-02T08:21:44.789Z</time></trkpt><trkpt lat="43.576151" lon="12.2978208"><ele>857.0</ele><time>2026-05-02T08:21:46.784Z</time></trkpt><trkpt lat="43.5760703" lon="12.2979518"><ele>857.0</ele><time>2026-05-02T08:21:48.766Z</time></trkpt><trkpt lat="43.5760822" lon="12.2980591"><ele>857.0</ele><time>2026-05-02T08:21:49.781Z</time></trkpt><trkpt lat="43.5761314" lon="12.2981374"><ele>857.0</ele><time>2026-05-02T08:21:50.78Z</time></trkpt><trkpt lat="43.5762084" lon="12.2982121"><ele>857.0</ele><time>2026-05-02T08:21:51.773Z</time></trkpt><trkpt lat="43.5763073" lon="12.2982833"><ele>857.0</ele><time>2026-05-02T08:21:52.766Z</time></trkpt><trkpt lat="43.5763939" lon="12.2983723"><ele>857.0</ele><time>2026-05-02T08:21:53.787Z</time></trkpt><trkpt lat="43.5764677" lon="12.298484"><ele>857.0</ele><time>2026-05-02T08:21:54.781Z</time></trkpt><trkpt lat="43.5765293" lon="12.2986273"><ele>857.0</ele><time>2026-05-02T08:21:55.774Z</time></trkpt><trkpt lat="43.5765741" lon="12.2987901"><ele>857.0</ele><time>2026-05-02T08:21:56.772Z</time></trkpt><trkpt lat="43.5766236" lon="12.2989495"><ele>853.25</ele><time>2026-05-02T08:21:57.781Z</time></trkpt><trkpt lat="43.5766626" lon="12.2991077"><ele>849.5</ele><time>2026-05-02T08:21:58.765Z</time></trkpt><trkpt lat="43.5766886" lon="12.2992648"><ele>845.75</ele><time>2026-05-02T08:21:59.786Z</time></trkpt><trkpt lat="43.5766956" lon="12.2994377"><ele>842.0</ele><time>2026-05-02T08:22:00.776Z</time></trkpt><trkpt lat="43.5766943" lon="12.2996401"><ele>839.5</ele><time>2026-05-02T08:22:01.797Z</time></trkpt><trkpt lat="43.5767007" lon="12.2998348"><ele>837.0</ele><time>2026-05-02T08:22:02.773Z</time></trkpt><trkpt lat="43.5767101" lon="12.3000181"><ele>834.5</ele><time>2026-05-02T08:22:03.804Z</time></trkpt><trkpt lat="43.5767215" lon="12.3001759"><ele>832.0</ele><time>2026-05-02T08:22:04.772Z</time></trkpt><trkpt lat="43.576729" lon="12.3003252"><ele>832.0</ele><time>2026-05-02T08:22:05.787Z</time></trkpt><trkpt lat="43.5767273" lon="12.3004608"><ele>832.0</ele><time>2026-05-02T08:22:06.769Z</time></trkpt><trkpt lat="43.5767026" lon="12.3005831"><ele>832.0</ele><time>2026-05-02T08:22:07.789Z</time></trkpt><trkpt lat="43.5766414" lon="12.3006884"><ele>832.0</ele><time>2026-05-02T08:22:08.791Z</time></trkpt><trkpt lat="43.5765494" lon="12.300767"><ele>832.0</ele><time>2026-05-02T08:22:09.791Z</time></trkpt><trkpt lat="43.5764456" lon="12.3008493"><ele>831.8</ele><time>2026-05-02T08:22:10.777Z</time></trkpt><trkpt lat="43.576352" lon="12.3009464"><ele>831.6</ele><time>2026-05-02T08:22:11.777Z</time></trkpt><trkpt lat="43.5762674" lon="12.3010579"><ele>831.4</ele><time>2026-05-02T08:22:12.778Z</time></trkpt><trkpt lat="43.5762039" lon="12.3011832"><ele>831.1999999999999</ele><time>2026-05-02T08:22:13.779Z</time></trkpt><trkpt lat="43.5761397" lon="12.3012936"><ele>831.0</ele><time>2026-05-02T08:22:14.766Z</time></trkpt><trkpt lat="43.5760676" lon="12.3013917"><ele>829.1999999999999</ele><time>2026-05-02T08:22:15.788Z</time></trkpt><trkpt lat="43.5759868" lon="12.3014567"><ele>827.4</ele><time>2026-05-02T08:22:16.767Z</time></trkpt><trkpt lat="43.5758931" lon="12.3014875"><ele>825.6</ele><time>2026-05-02T08:22:17.782Z</time></trkpt><trkpt lat="43.575783" lon="12.3014601"><ele>823.8</ele><time>2026-05-02T08:22:18.767Z</time></trkpt><trkpt lat="43.5756685" lon="12.3013782"><ele>822.0</ele><time>2026-05-02T08:22:19.771Z</time></trkpt><trkpt lat="43.5755456" lon="12.3012935"><ele>818.5</ele><time>2026-05-02T08:22:20.765Z</time></trkpt><trkpt lat="43.5754311" lon="12.301217"><ele>815.0</ele><time>2026-05-02T08:22:21.773Z</time></trkpt><trkpt lat="43.5753125" lon="12.3011617"><ele>811.5</ele><time>2026-05-02T08:22:22.772Z</time></trkpt><trkpt lat="43.5751924" lon="12.3011251"><ele>808.0</ele><time>2026-05-02T08:22:23.774Z</time></trkpt><trkpt lat="43.575064" lon="12.3011051"><ele>804.5</ele><time>2026-05-02T08:22:24.778Z</time></trkpt><trkpt lat="43.5749273" lon="12.3010998"><ele>801.0</ele><time>2026-05-02T08:22:25.79Z</time></trkpt><trkpt lat="43.574789" lon="12.3011064"><ele>797.5</ele><time>2026-05-02T08:22:26.775Z</time></trkpt><trkpt lat="43.5746488" lon="12.301121"><ele>794.0</ele><time>2026-05-02T08:22:27.776Z</time></trkpt><trkpt lat="43.5745156" lon="12.3011218"><ele>792.5</ele><time>2026-05-02T08:22:28.763Z</time></trkpt><trkpt lat="43.5743908" lon="12.3011195"><ele>791.0</ele><time>2026-05-02T08:22:29.78Z</time></trkpt><trkpt lat="43.5742716" lon="12.3011004"><ele>789.5</ele><time>2026-05-02T08:22:30.767Z</time></trkpt><trkpt lat="43.5741529" lon="12.3010656"><ele>788.0</ele><time>2026-05-02T08:22:31.766Z</time></trkpt><trkpt lat="43.5740315" lon="12.3010071"><ele>788.0</ele><time>2026-05-02T08:22:32.763Z</time></trkpt><trkpt lat="43.5739067" lon="12.3009318"><ele>788.0</ele><time>2026-05-02T08:22:33.763Z</time></trkpt><trkpt lat="43.5737793" lon="12.3008509"><ele>788.0</ele><time>2026-05-02T08:22:34.759Z</time></trkpt><trkpt lat="43.5736641" lon="12.300778"><ele>788.0</ele><time>2026-05-02T08:22:35.78Z</time></trkpt><trkpt lat="43.5735695" lon="12.3007063"><ele>786.8</ele><time>2026-05-02T08:22:36.768Z</time></trkpt><trkpt lat="43.5735005" lon="12.3006181"><ele>785.5999999999999</ele><time>2026-05-02T08:22:37.77Z</time></trkpt><trkpt lat="43.5734632" lon="12.300499"><ele>784.4000000000001</ele><time>2026-05-02T08:22:38.765Z</time></trkpt><trkpt lat="43.5734488" lon="12.3003493"><ele>783.2</ele><time>2026-05-02T08:22:39.774Z</time></trkpt><trkpt lat="43.573432" lon="12.3001831"><ele>782.0</ele><time>2026-05-02T08:22:40.771Z</time></trkpt><trkpt lat="43.5733972" lon="12.3000246"><ele>782.0</ele><time>2026-05-02T08:22:41.778Z</time></trkpt><trkpt lat="43.5733464" lon="12.2999043"><ele>782.0</ele><time>2026-05-02T08:22:42.776Z</time></trkpt><trkpt lat="43.5732687" lon="12.2997989"><ele>782.0</ele><time>2026-05-02T08:22:43.761Z</time></trkpt><trkpt lat="43.5731727" lon="12.2997179"><ele>782.0</ele><time>2026-05-02T08:22:44.763Z</time></trkpt><trkpt lat="43.5730692" lon="12.2996528"><ele>782.0</ele><time>2026-05-02T08:22:45.772Z</time></trkpt><trkpt lat="43.5729594" lon="12.2995973"><ele>778.0</ele><time>2026-05-02T08:22:46.758Z</time></trkpt><trkpt lat="43.5728583" lon="12.2995305"><ele>774.0</ele><time>2026-05-02T08:22:47.776Z</time></trkpt><trkpt lat="43.5727649" lon="12.2994424"><ele>770.0</ele><time>2026-05-02T08:22:48.76Z</time></trkpt><trkpt lat="43.5726784" lon="12.2993331"><ele>766.0</ele><time>2026-05-02T08:22:49.777Z</time></trkpt><trkpt lat="43.572605" lon="12.2992034"><ele>766.0</ele><time>2026-05-02T08:22:50.766Z</time></trkpt><trkpt lat="43.5725568" lon="12.2990681"><ele>766.0</ele><time>2026-05-02T08:22:51.781Z</time></trkpt><trkpt lat="43.5725197" lon="12.2989256"><ele>766.0</ele><time>2026-05-02T08:22:52.761Z</time></trkpt><trkpt lat="43.5724702" lon="12.2988062"><ele>766.0</ele><time>2026-05-02T08:22:53.771Z</time></trkpt><trkpt lat="43.5723994" lon="12.2987167"><ele>766.0</ele><time>2026-05-02T08:22:54.774Z</time></trkpt><trkpt lat="43.5723114" lon="12.2986577"><ele>761.5</ele><time>2026-05-02T08:22:55.763Z</time></trkpt><trkpt lat="43.5722058" lon="12.2986292"><ele>757.0</ele><time>2026-05-02T08:22:56.773Z</time></trkpt><trkpt lat="43.5720834" lon="12.2986186"><ele>752.5</ele><time>2026-05-02T08:22:57.779Z</time></trkpt><trkpt lat="43.5719525" lon="12.2986069"><ele>748.0</ele><time>2026-05-02T08:22:58.77Z</time></trkpt><trkpt lat="43.5718306" lon="12.2985817"><ele>746.25</ele><time>2026-05-02T08:22:59.782Z</time></trkpt><trkpt lat="43.57172" lon="12.2985416"><ele>744.5</ele><time>2026-05-02T08:23:00.759Z</time></trkpt><trkpt lat="43.5716106" lon="12.2985051"><ele>742.75</ele><time>2026-05-02T08:23:01.773Z</time></trkpt><trkpt lat="43.5714977" lon="12.2984841"><ele>741.0</ele><time>2026-05-02T08:23:02.767Z</time></trkpt><trkpt lat="43.5713859" lon="12.298483"><ele>741.0</ele><time>2026-05-02T08:23:03.784Z</time></trkpt><trkpt lat="43.5712725" lon="12.2984736"><ele>741.0</ele><time>2026-05-02T08:23:04.776Z</time></trkpt><trkpt lat="43.5711515" lon="12.2984543"><ele>741.0</ele><time>2026-05-02T08:23:05.795Z</time></trkpt><trkpt lat="43.571027" lon="12.298395"><ele>741.0</ele><time>2026-05-02T08:23:06.778Z</time></trkpt><trkpt lat="43.5709092" lon="12.2983084"><ele>741.3333333333334</ele><time>2026-05-02T08:23:07.779Z</time></trkpt><trkpt lat="43.5707969" lon="12.2982163"><ele>741.6666666666667</ele><time>2026-05-02T08:23:08.78Z</time></trkpt><trkpt lat="43.5706943" lon="12.2981173"><ele>742.0</ele><time>2026-05-02T08:23:09.782Z</time></trkpt><trkpt lat="43.5735695" lon="12.3007063"><ele>750.0</ele><time>2026-05-02T08:22:36.768Z</time></trkpt><trkpt lat="43.5735005" lon="12.3006181"><ele>758.0</ele><time>2026-05-02T08:22:37.77Z</time></trkpt><trkpt lat="43.5734632" lon="12.300499"><ele>766.0</ele><time>2026-05-02T08:22:38.765Z</time></trkpt><trkpt lat="43.5734488" lon="12.3003493"><ele>774.0</ele><time>2026-05-02T08:22:39.774Z</time></trkpt><trkpt lat="43.573432" lon="12.3001831"><ele>782.0</ele><time>2026-05-02T08:22:40.771Z</time></trkpt><trkpt lat="43.5733972" lon="12.3000246"><ele>782.0</ele><time>2026-05-02T08:22:41.778Z</time></trkpt><trkpt lat="43.5733464" lon="12.2999043"><ele>782.0</ele><time>2026-05-02T08:22:42.776Z</time></trkpt><trkpt lat="43.5732687" lon="12.2997989"><ele>782.0</ele><time>2026-05-02T08:22:43.761Z</time></trkpt><trkpt lat="43.5731727" lon="12.2997179"><ele>782.0</ele><time>2026-05-02T08:22:44.763Z</time></trkpt><trkpt lat="43.5730692" lon="12.2996528"><ele>782.0</ele><time>2026-05-02T08:22:45.772Z</time></trkpt><trkpt lat="43.5729594" lon="12.2995973"><ele>778.0</ele><time>2026-05-02T08:22:46.758Z</time></trkpt><trkpt lat="43.5728583" lon="12.2995305"><ele>774.0</ele><time>2026-05-02T08:22:47.776Z</time></trkpt><trkpt lat="43.5727649" lon="12.2994424"><ele>770.0</ele><time>2026-05-02T08:22:48.76Z</time></trkpt><trkpt lat="43.5726784" lon="12.2993331"><ele>766.0</ele><time>2026-05-02T08:22:49.777Z</time></trkpt><trkpt lat="43.572605" lon="12.2992034"><ele>766.0</ele><time>2026-05-02T08:22:50.766Z</time></trkpt><trkpt lat="43.5725568" lon="12.2990681"><ele>766.0</ele><time>2026-05-02T08:22:51.781Z</time></trkpt><trkpt lat="43.5725197" lon="12.2989256"><ele>766.0</ele><time>2026-05-02T08:22:52.761Z</time></trkpt><trkpt lat="43.5724702" lon="12.2988062"><ele>766.0</ele><time>2026-05-02T08:22:53.771Z</time></trkpt><trkpt lat="43.5723994" lon="12.2987167"><ele>766.0</ele><time>2026-05-02T08:22:54.774Z</time></trkpt><trkpt lat="43.5723114" lon="12.2986577"><ele>761.5</ele><time>2026-05-02T08:22:55.763Z</time></trkpt><trkpt lat="43.5722058" lon="12.2986292"><ele>757.0</ele><time>2026-05-02T08:22:56.773Z</time></trkpt><trkpt lat="43.5720834" lon="12.2986186"><ele>752.5</ele><time>2026-05-02T08:22:57.779Z</time></trkpt><trkpt lat="43.5719525" lon="12.2986069"><ele>748.0</ele><time>2026-05-02T08:22:58.77Z</time></trkpt><trkpt lat="43.5718306" lon="12.2985817"><ele>746.25</ele><time>2026-05-02T08:22:59.782Z</time></trkpt><trkpt lat="43.57172" lon="12.2985416"><ele>744.5</ele><time>2026-05-02T08:23:00.759Z</time></trkpt><trkpt lat="43.5716106" lon="12.2985051"><ele>742.75</ele><time>2026-05-02T08:23:01.773Z</time></trkpt><trkpt lat="43.5714977" lon="12.2984841"><ele>741.0</ele><time>2026-05-02T08:23:02.767Z</time></trkpt><trkpt lat="43.5713859" lon="12.298483"><ele>741.0</ele><time>2026-05-02T08:23:03.784Z</time></trkpt><trkpt lat="43.5712725" lon="12.2984736"><ele>741.0</ele><time>2026-05-02T08:23:04.776Z</time></trkpt><trkpt lat="43.5711515" lon="12.2984543"><ele>741.0</ele><time>2026-05-02T08:23:05.795Z</time></trkpt><trkpt lat="43.571027" lon="12.298395"><ele>741.0</ele><time>2026-05-02T08:23:06.778Z</time></trkpt><trkpt lat="43.5709092" lon="12.2983084"><ele>741.25</ele><time>2026-05-02T08:23:07.779Z</time></trkpt><trkpt lat="43.5707969" lon="12.2982163"><ele>741.5</ele><time>2026-05-02T08:23:08.78Z</time></trkpt><trkpt lat="43.5706943" lon="12.2981173"><ele>741.75</ele><time>2026-05-02T08:23:09.782Z</time></trkpt><trkpt lat="43.5705988" lon="12.2979932"><ele>742.0</ele><time>2026-05-02T08:23:10.775Z</time></trkpt><trkpt lat="43.5705058" lon="12.2978603"><ele>745.0</ele><time>2026-05-02T08:23:11.781Z</time></trkpt><trkpt lat="43.5704213" lon="12.2977202"><ele>748.0</ele><time>2026-05-02T08:23:12.767Z</time></trkpt><trkpt lat="43.5703505" lon="12.2975824"><ele>751.0</ele><time>2026-05-02T08:23:13.786Z</time></trkpt><trkpt lat="43.5703046" lon="12.2974397"><ele>754.0</ele><time>2026-05-02T08:23:14.765Z</time></trkpt><trkpt lat="43.5702878" lon="12.2972883"><ele>748.5</ele><time>2026-05-02T08:23:15.772Z</time></trkpt><trkpt lat="43.5702864" lon="12.2971256"><ele>743.0</ele><time>2026-05-02T08:23:16.769Z</time></trkpt><trkpt lat="43.5702886" lon="12.2969539"><ele>737.5</ele><time>2026-05-02T08:23:17.775Z</time></trkpt><trkpt lat="43.570276" lon="12.2967829"><ele>732.0</ele><time>2026-05-02T08:23:18.775Z</time></trkpt><trkpt lat="43.5702298" lon="12.2966189"><ele>732.0</ele><time>2026-05-02T08:23:19.773Z</time></trkpt><trkpt lat="43.5701669" lon="12.2964618"><ele>732.0</ele><time>2026-05-02T08:23:20.761Z</time></trkpt><trkpt lat="43.5700845" lon="12.2963087"><ele>732.0</ele><time>2026-05-02T08:23:21.767Z</time></trkpt><trkpt lat="43.5699921" lon="12.2961474"><ele>732.0</ele><time>2026-05-02T08:23:22.758Z</time></trkpt><trkpt lat="43.569908" lon="12.295986"><ele>726.5</ele><time>2026-05-02T08:23:23.768Z</time></trkpt><trkpt lat="43.5698327" lon="12.2958288"><ele>721.0</ele><time>2026-05-02T08:23:24.762Z</time></trkpt><trkpt lat="43.5697639" lon="12.2956677"><ele>715.5</ele><time>2026-05-02T08:23:25.769Z</time></trkpt><trkpt lat="43.5697126" lon="12.295501"><ele>710.0</ele><time>2026-05-02T08:23:26.766Z</time></trkpt><trkpt lat="43.5696783" lon="12.2953259"><ele>707.25</ele><time>2026-05-02T08:23:27.756Z</time></trkpt><trkpt lat="43.5696454" lon="12.2951523"><ele>704.5</ele><time>2026-05-02T08:23:28.754Z</time></trkpt><trkpt lat="43.5696" lon="12.2949801"><ele>701.75</ele><time>2026-05-02T08:23:29.776Z</time></trkpt><trkpt lat="43.5695382" lon="12.2948122"><ele>699.0</ele><time>2026-05-02T08:23:30.766Z</time></trkpt><trkpt lat="43.5694643" lon="12.2946409"><ele>699.0</ele><time>2026-05-02T08:23:31.79Z</time></trkpt><trkpt lat="43.5693955" lon="12.2944602"><ele>699.0</ele><time>2026-05-02T08:23:32.762Z</time></trkpt><trkpt lat="43.5693414" lon="12.294269"><ele>699.0</ele><time>2026-05-02T08:23:33.771Z</time></trkpt><trkpt lat="43.5692907" lon="12.2940765"><ele>699.0</ele><time>2026-05-02T08:23:34.765Z</time></trkpt><trkpt lat="43.5692382" lon="12.2938939"><ele>695.75</ele><time>2026-05-02T08:23:35.765Z</time></trkpt><trkpt lat="43.5691876" lon="12.2937282"><ele>692.5</ele><time>2026-05-02T08:23:36.767Z</time></trkpt><trkpt lat="43.5691403" lon="12.2935778"><ele>689.25</ele><time>2026-05-02T08:23:37.765Z</time></trkpt><trkpt lat="43.5690784" lon="12.293449"><ele>686.0</ele><time>2026-05-02T08:23:38.765Z</time></trkpt><trkpt lat="43.5690105" lon="12.2933441"><ele>686.0</ele><time>2026-05-02T08:23:39.77Z</time></trkpt><trkpt lat="43.5689253" lon="12.2932693"><ele>686.0</ele><time>2026-05-02T08:23:40.77Z</time></trkpt><trkpt lat="43.5688283" lon="12.2932031"><ele>686.0</ele><time>2026-05-02T08:23:41.764Z</time></trkpt><trkpt lat="43.5687165" lon="12.2931475"><ele>686.0</ele><time>2026-05-02T08:23:42.77Z</time></trkpt><trkpt lat="43.568603" lon="12.2931034"><ele>686.0</ele><time>2026-05-02T08:23:43.769Z</time></trkpt><trkpt lat="43.5684874" lon="12.2930737"><ele>686.0</ele><time>2026-05-02T08:23:44.765Z</time></trkpt><trkpt lat="43.5683838" lon="12.2930804"><ele>686.0</ele><time>2026-05-02T08:23:45.759Z</time></trkpt><trkpt lat="43.5682841" lon="12.2931285"><ele>686.0</ele><time>2026-05-02T08:23:46.76Z</time></trkpt><trkpt lat="43.5682032" lon="12.2932124"><ele>686.0</ele><time>2026-05-02T08:23:47.758Z</time></trkpt><trkpt lat="43.568132" lon="12.2933174"><ele>686.0</ele><time>2026-05-02T08:23:48.762Z</time></trkpt><trkpt lat="43.5680707" lon="12.2934122"><ele>686.0</ele><time>2026-05-02T08:23:49.767Z</time></trkpt><trkpt lat="43.5680164" lon="12.2934813"><ele>686.0</ele><time>2026-05-02T08:23:50.762Z</time></trkpt><trkpt lat="43.5679116" lon="12.2935099"><ele>686.0</ele><time>2026-05-02T08:23:52.772Z</time></trkpt><trkpt lat="43.567856" lon="12.2933725"><ele>686.0</ele><time>2026-05-02T08:23:54.763Z</time></trkpt><trkpt lat="43.5678712" lon="12.293264"><ele>686.0</ele><time>2026-05-02T08:23:55.764Z</time></trkpt><trkpt lat="43.5679141" lon="12.2931425"><ele>681.5</ele><time>2026-05-02T08:23:56.757Z</time></trkpt><trkpt lat="43.5679751" lon="12.2930029"><ele>677.0</ele><time>2026-05-02T08:23:57.779Z</time></trkpt><trkpt lat="43.5680477" lon="12.2928743"><ele>672.5</ele><time>2026-05-02T08:23:58.758Z</time></trkpt><trkpt lat="43.5681299" lon="12.2927528"><ele>668.0</ele><time>2026-05-02T08:23:59.777Z</time></trkpt><trkpt lat="43.5682262" lon="12.2926412"><ele>668.0</ele><time>2026-05-02T08:24:00.759Z</time></trkpt><trkpt lat="43.5683321" lon="12.2925409"><ele>668.0</ele><time>2026-05-02T08:24:01.771Z</time></trkpt><trkpt lat="43.5684393" lon="12.2924375"><ele>668.0</ele><time>2026-05-02T08:24:02.771Z</time></trkpt><trkpt lat="43.5685368" lon="12.2923446"><ele>668.0</ele><time>2026-05-02T08:24:03.783Z</time></trkpt><trkpt lat="43.568606" lon="12.2922366"><ele>668.0</ele><time>2026-05-02T08:24:04.771Z</time></trkpt><trkpt lat="43.5686221" lon="12.292097"><ele>668.0</ele><time>2026-05-02T08:24:05.776Z</time></trkpt><trkpt lat="43.5686029" lon="12.2919622"><ele>668.0</ele><time>2026-05-02T08:24:06.765Z</time></trkpt><trkpt lat="43.5685456" lon="12.2918439"><ele>668.0</ele><time>2026-05-02T08:24:07.783Z</time></trkpt><trkpt lat="43.5684574" lon="12.2917417"><ele>668.0</ele><time>2026-05-02T08:24:08.775Z</time></trkpt><trkpt lat="43.5683518" lon="12.291664"><ele>668.0</ele><time>2026-05-02T08:24:09.788Z</time></trkpt><trkpt lat="43.5682396" lon="12.2915943"><ele>668.0</ele><time>2026-05-02T08:24:10.763Z</time></trkpt><trkpt lat="43.5681307" lon="12.291516"><ele>668.0</ele><time>2026-05-02T08:24:11.767Z</time></trkpt><trkpt lat="43.5680215" lon="12.2914233"><ele>668.0</ele><time>2026-05-02T08:24:12.771Z</time></trkpt><trkpt lat="43.5679168" lon="12.291316"><ele>667.0</ele><time>2026-05-02T08:24:13.774Z</time></trkpt><trkpt lat="43.5678176" lon="12.2911995"><ele>666.0</ele><time>2026-05-02T08:24:14.761Z</time></trkpt><trkpt lat="43.567721" lon="12.2910712"><ele>665.0</ele><time>2026-05-02T08:24:15.778Z</time></trkpt><trkpt lat="43.5676286" lon="12.2909456"><ele>664.0</ele><time>2026-05-02T08:24:16.769Z</time></trkpt><trkpt lat="43.567527" lon="12.2908324"><ele>664.0</ele><time>2026-05-02T08:24:17.777Z</time></trkpt><trkpt lat="43.5674162" lon="12.2907284"><ele>664.0</ele><time>2026-05-02T08:24:18.771Z</time></trkpt><trkpt lat="43.5672988" lon="12.2906285"><ele>664.0</ele><time>2026-05-02T08:24:19.767Z</time></trkpt><trkpt lat="43.5671702" lon="12.2905322"><ele>664.0</ele><time>2026-05-02T08:24:20.785Z</time></trkpt><trkpt lat="43.5670389" lon="12.2904487"><ele>665.0</ele><time>2026-05-02T08:24:21.769Z</time></trkpt><trkpt lat="43.5669122" lon="12.2903785"><ele>666.0</ele><time>2026-05-02T08:24:22.77Z</time></trkpt><trkpt lat="43.5667907" lon="12.2903091"><ele>667.0</ele><time>2026-05-02T08:24:23.773Z</time></trkpt><trkpt lat="43.5666717" lon="12.2902218"><ele>668.0</ele><time>2026-05-02T08:24:24.769Z</time></trkpt><trkpt lat="43.5665493" lon="12.290107"><ele>668.0</ele><time>2026-05-02T08:24:25.773Z</time></trkpt><trkpt lat="43.566421" lon="12.2899876"><ele>668.0</ele><time>2026-05-02T08:24:26.766Z</time></trkpt><trkpt lat="43.5662856" lon="12.28987"><ele>668.0</ele><time>2026-05-02T08:24:27.771Z</time></trkpt><trkpt lat="43.5661406" lon="12.289759"><ele>664.75</ele><time>2026-05-02T08:24:28.775Z</time></trkpt><trkpt lat="43.5660003" lon="12.2896568"><ele>661.5</ele><time>2026-05-02T08:24:29.774Z</time></trkpt><trkpt lat="43.5658807" lon="12.2895676"><ele>658.25</ele><time>2026-05-02T08:24:30.781Z</time></trkpt><trkpt lat="43.5657719" lon="12.2894901"><ele>655.0</ele><time>2026-05-02T08:24:31.771Z</time></trkpt><trkpt lat="43.5656895" lon="12.2894165"><ele>655.0</ele><time>2026-05-02T08:24:32.767Z</time></trkpt><trkpt lat="43.5656378" lon="12.2893187"><ele>655.0</ele><time>2026-05-02T08:24:33.764Z</time></trkpt><trkpt lat="43.5655967" lon="12.2891768"><ele>655.0</ele><time>2026-05-02T08:24:34.765Z</time></trkpt><trkpt lat="43.5655828" lon="12.2890084"><ele>655.0</ele><time>2026-05-02T08:24:35.769Z</time></trkpt><trkpt lat="43.5655832" lon="12.2888437"><ele>655.0</ele><time>2026-05-02T08:24:36.761Z</time></trkpt><trkpt lat="43.5655771" lon="12.2886983"><ele>655.6</ele><time>2026-05-02T08:24:37.763Z</time></trkpt><trkpt lat="43.5655153" lon="12.2885818"><ele>656.2</ele><time>2026-05-02T08:24:38.761Z</time></trkpt><trkpt lat="43.565423" lon="12.2885004"><ele>656.8</ele><time>2026-05-02T08:24:39.763Z</time></trkpt><trkpt lat="43.5653251" lon="12.288481"><ele>657.4</ele><time>2026-05-02T08:24:40.759Z</time></trkpt><trkpt lat="43.5652361" lon="12.2885396"><ele>658.0</ele><time>2026-05-02T08:24:41.769Z</time></trkpt><trkpt lat="43.5651498" lon="12.2886386"><ele>658.0</ele><time>2026-05-02T08:24:42.767Z</time></trkpt><trkpt lat="43.5650682" lon="12.2887793"><ele>658.0</ele><time>2026-05-02T08:24:43.767Z</time></trkpt><trkpt lat="43.5649802" lon="12.2889209"><ele>658.0</ele><time>2026-05-02T08:24:44.758Z</time></trkpt><trkpt lat="43.5649035" lon="12.2890399"><ele>658.0</ele><time>2026-05-02T08:24:45.756Z</time></trkpt><trkpt lat="43.5648271" lon="12.2891153"><ele>653.0</ele><time>2026-05-02T08:24:46.763Z</time></trkpt><trkpt lat="43.5647271" lon="12.2891535"><ele>648.0</ele><time>2026-05-02T08:24:47.765Z</time></trkpt><trkpt lat="43.5646144" lon="12.2891513"><ele>643.0</ele><time>2026-05-02T08:24:48.76Z</time></trkpt><trkpt lat="43.5644749" lon="12.2891241"><ele>638.0</ele><time>2026-05-02T08:24:49.774Z</time></trkpt><trkpt lat="43.5643237" lon="12.2890957"><ele>636.5</ele><time>2026-05-02T08:24:50.763Z</time></trkpt><trkpt lat="43.5641745" lon="12.2890637"><ele>635.0</ele><time>2026-05-02T08:24:51.776Z</time></trkpt><trkpt lat="43.5640421" lon="12.2890237"><ele>633.5</ele><time>2026-05-02T08:24:52.784Z</time></trkpt><trkpt lat="43.5639264" lon="12.2889472"><ele>632.0</ele><time>2026-05-02T08:24:53.797Z</time></trkpt><trkpt lat="43.5638233" lon="12.288836"><ele>631.0</ele><time>2026-05-02T08:24:54.775Z</time></trkpt><trkpt lat="43.5637349" lon="12.2886964"><ele>630.0</ele><time>2026-05-02T08:24:55.781Z</time></trkpt><trkpt lat="43.5636685" lon="12.2885386"><ele>629.0</ele><time>2026-05-02T08:24:56.78Z</time></trkpt><trkpt lat="43.563592" lon="12.288392"><ele>628.0</ele><time>2026-05-02T08:24:57.793Z</time></trkpt><trkpt lat="43.5634716" lon="12.2882853"><ele>628.0</ele><time>2026-05-02T08:24:58.76Z</time></trkpt><trkpt lat="43.563322" lon="12.2882223"><ele>628.0</ele><time>2026-05-02T08:24:59.77Z</time></trkpt><trkpt lat="43.5631658" lon="12.2881633"><ele>628.0</ele><time>2026-05-02T08:25:00.777Z</time></trkpt><trkpt lat="43.563012" lon="12.2881131"><ele>626.75</ele><time>2026-05-02T08:25:01.758Z</time></trkpt><trkpt lat="43.5628702" lon="12.288077"><ele>625.5</ele><time>2026-05-02T08:25:02.767Z</time></trkpt><trkpt lat="43.562731" lon="12.2880301"><ele>624.25</ele><time>2026-05-02T08:25:03.777Z</time></trkpt><trkpt lat="43.5625964" lon="12.2879511"><ele>623.0</ele><time>2026-05-02T08:25:04.761Z</time></trkpt><trkpt lat="43.562461" lon="12.287832"><ele>623.0</ele><time>2026-05-02T08:25:05.772Z</time></trkpt><trkpt lat="43.562315" lon="12.2876926"><ele>623.0</ele><time>2026-05-02T08:25:06.769Z</time></trkpt><trkpt lat="43.5621657" lon="12.2875514"><ele>623.0</ele><time>2026-05-02T08:25:07.765Z</time></trkpt><trkpt lat="43.5620183" lon="12.2874055"><ele>620.3333333333333</ele><time>2026-05-02T08:25:08.757Z</time></trkpt><trkpt lat="43.5618727" lon="12.28727"><ele>617.6666666666666</ele><time>2026-05-02T08:25:09.766Z</time></trkpt><trkpt lat="43.5617203" lon="12.2871592"><ele>615.0</ele><time>2026-05-02T08:25:10.77Z</time></trkpt><trkpt lat="43.5615463" lon="12.2870754"><ele>615.0</ele><time>2026-05-02T08:25:11.774Z</time></trkpt><trkpt lat="43.5613746" lon="12.2869756"><ele>615.0</ele><time>2026-05-02T08:25:12.766Z</time></trkpt><trkpt lat="43.5612191" lon="12.2868527"><ele>615.0</ele><time>2026-05-02T08:25:13.776Z</time></trkpt><trkpt lat="43.5610685" lon="12.2867401"><ele>611.0</ele><time>2026-05-02T08:25:14.775Z</time></trkpt><trkpt lat="43.5609001" lon="12.2866676"><ele>607.0</ele><time>2026-05-02T08:25:15.771Z</time></trkpt><trkpt lat="43.5607162" lon="12.2866262"><ele>603.0</ele><time>2026-05-02T08:25:16.767Z</time></trkpt><trkpt lat="43.560524" lon="12.2865907"><ele>603.3333333333334</ele><time>2026-05-02T08:25:17.779Z</time></trkpt><trkpt lat="43.5603364" lon="12.2865305"><ele>603.6666666666667</ele><time>2026-05-02T08:25:18.771Z</time></trkpt><trkpt lat="43.5601624" lon="12.2864615"><ele>604.0</ele><time>2026-05-02T08:25:19.771Z</time></trkpt><trkpt lat="43.5600141" lon="12.2863964"><ele>604.0</ele><time>2026-05-02T08:25:20.759Z</time></trkpt><trkpt lat="43.5598957" lon="12.2863352"><ele>604.0</ele><time>2026-05-02T08:25:21.78Z</time></trkpt><trkpt lat="43.5598002" lon="12.2862432"><ele>604.0</ele><time>2026-05-02T08:25:22.761Z</time></trkpt><trkpt lat="43.5597309" lon="12.2861171"><ele>604.0</ele><time>2026-05-02T08:25:23.773Z</time></trkpt><trkpt lat="43.5596753" lon="12.2859966"><ele>604.0</ele><time>2026-05-02T08:25:24.756Z</time></trkpt><trkpt lat="43.5596236" lon="12.2858949"><ele>604.0</ele><time>2026-05-02T08:25:25.782Z</time></trkpt><trkpt lat="43.5595673" lon="12.2857914"><ele>604.0</ele><time>2026-05-02T08:25:26.766Z</time></trkpt><trkpt lat="43.5595057" lon="12.2856867"><ele>604.0</ele><time>2026-05-02T08:25:27.773Z</time></trkpt><trkpt lat="43.5594415" lon="12.2855595"><ele>604.0</ele><time>2026-05-02T08:25:28.774Z</time></trkpt><trkpt lat="43.5593709" lon="12.2854107"><ele>598.75</ele><time>2026-05-02T08:25:29.774Z</time></trkpt><trkpt lat="43.559294" lon="12.2852634"><ele>593.5</ele><time>2026-05-02T08:25:30.769Z</time></trkpt><trkpt lat="43.5592126" lon="12.2851199"><ele>588.25</ele><time>2026-05-02T08:25:31.783Z</time></trkpt><trkpt lat="43.5591254" lon="12.2850027"><ele>583.0</ele><time>2026-05-02T08:25:32.771Z</time></trkpt><trkpt lat="43.5590146" lon="12.2849059"><ele>583.0</ele><time>2026-05-02T08:25:33.773Z</time></trkpt><trkpt lat="43.5588927" lon="12.2848082"><ele>583.0</ele><time>2026-05-02T08:25:34.765Z</time></trkpt><trkpt lat="43.5587677" lon="12.2846981"><ele>583.0</ele><time>2026-05-02T08:25:35.794Z</time></trkpt><trkpt lat="43.5586402" lon="12.284584"><ele>583.0</ele><time>2026-05-02T08:25:36.763Z</time></trkpt><trkpt lat="43.5585106" lon="12.2844741"><ele>583.25</ele><time>2026-05-02T08:25:37.776Z</time></trkpt><trkpt lat="43.5583768" lon="12.2843862"><ele>583.5</ele><time>2026-05-02T08:25:38.769Z</time></trkpt><trkpt lat="43.5582406" lon="12.2843142"><ele>583.75</ele><time>2026-05-02T08:25:39.774Z</time></trkpt><trkpt lat="43.5581087" lon="12.2842437"><ele>584.0</ele><time>2026-05-02T08:25:40.764Z</time></trkpt><trkpt lat="43.5579832" lon="12.2841598"><ele>583.0</ele><time>2026-05-02T08:25:41.782Z</time></trkpt><trkpt lat="43.5578614" lon="12.2840347"><ele>582.0</ele><time>2026-05-02T08:25:42.767Z</time></trkpt><trkpt lat="43.5577431" lon="12.2838883"><ele>581.0</ele><time>2026-05-02T08:25:43.777Z</time></trkpt><trkpt lat="43.5576185" lon="12.2837541"><ele>581.0</ele><time>2026-05-02T08:25:44.76Z</time></trkpt><trkpt lat="43.5574786" lon="12.2836456"><ele>581.0</ele><time>2026-05-02T08:25:45.775Z</time></trkpt><trkpt lat="43.5573169" lon="12.2835596"><ele>581.0</ele><time>2026-05-02T08:25:46.762Z</time></trkpt><trkpt lat="43.5571469" lon="12.2834737"><ele>583.3333333333333</ele><time>2026-05-02T08:25:47.769Z</time></trkpt><trkpt lat="43.5569705" lon="12.2833644"><ele>585.6666666666666</ele><time>2026-05-02T08:25:48.753Z</time></trkpt><trkpt lat="43.5568047" lon="12.2832287"><ele>588.0</ele><time>2026-05-02T08:25:49.785Z</time></trkpt><trkpt lat="43.5566452" lon="12.2830887"><ele>588.0</ele><time>2026-05-02T08:25:50.761Z</time></trkpt><trkpt lat="43.5564942" lon="12.2829511"><ele>588.0</ele><time>2026-05-02T08:25:51.773Z</time></trkpt><trkpt lat="43.5563442" lon="12.2828222"><ele>588.0</ele><time>2026-05-02T08:25:52.766Z</time></trkpt><trkpt lat="43.5561949" lon="12.2827247"><ele>584.6666666666666</ele><time>2026-05-02T08:25:53.781Z</time></trkpt><trkpt lat="43.5560494" lon="12.2826391"><ele>581.3333333333333</ele><time>2026-05-02T08:25:54.763Z</time></trkpt><trkpt lat="43.5558963" lon="12.2825747"><ele>578.0</ele><time>2026-05-02T08:25:55.786Z</time></trkpt><trkpt lat="43.555736" lon="12.2825437"><ele>578.0</ele><time>2026-05-02T08:25:56.78Z</time></trkpt><trkpt lat="43.555577" lon="12.2825431"><ele>578.0</ele><time>2026-05-02T08:25:57.777Z</time></trkpt><trkpt lat="43.5554191" lon="12.2825406"><ele>578.0</ele><time>2026-05-02T08:25:58.766Z</time></trkpt><trkpt lat="43.5552555" lon="12.2825143"><ele>574.3333333333333</ele><time>2026-05-02T08:25:59.775Z</time></trkpt><trkpt lat="43.5550907" lon="12.2824859"><ele>570.6666666666666</ele><time>2026-05-02T08:26:00.767Z</time></trkpt><trkpt lat="43.5549325" lon="12.2824745"><ele>567.0</ele><time>2026-05-02T08:26:01.774Z</time></trkpt><trkpt lat="43.5547746" lon="12.2824614"><ele>567.0</ele><time>2026-05-02T08:26:02.763Z</time></trkpt><trkpt lat="43.5546138" lon="12.2824304"><ele>567.0</ele><time>2026-05-02T08:26:03.776Z</time></trkpt><trkpt lat="43.5544462" lon="12.2823935"><ele>567.0</ele><time>2026-05-02T08:26:04.76Z</time></trkpt><trkpt lat="43.5542689" lon="12.2823487"><ele>563.0</ele><time>2026-05-02T08:26:05.778Z</time></trkpt><trkpt lat="43.5540899" lon="12.2823051"><ele>559.0</ele><time>2026-05-02T08:26:06.773Z</time></trkpt><trkpt lat="43.5539158" lon="12.282267"><ele>555.0</ele><time>2026-05-02T08:26:07.774Z</time></trkpt><trkpt lat="43.5537539" lon="12.2822274"><ele>560.3333333333334</ele><time>2026-05-02T08:26:08.773Z</time></trkpt><trkpt lat="43.553598" lon="12.2821865"><ele>565.6666666666667</ele><time>2026-05-02T08:26:09.776Z</time></trkpt><trkpt lat="43.5534547" lon="12.2821444"><ele>571.0</ele><time>2026-05-02T08:26:10.772Z</time></trkpt><trkpt lat="43.5533234" lon="12.2820575"><ele>571.0</ele><time>2026-05-02T08:26:11.772Z</time></trkpt><trkpt lat="43.5532008" lon="12.2819114"><ele>571.0</ele><time>2026-05-02T08:26:12.769Z</time></trkpt><trkpt lat="43.5530774" lon="12.2817288"><ele>571.0</ele><time>2026-05-02T08:26:13.767Z</time></trkpt><trkpt lat="43.5529576" lon="12.2815319"><ele>567.3333333333334</ele><time>2026-05-02T08:26:14.767Z</time></trkpt><trkpt lat="43.5528335" lon="12.2813388"><ele>563.6666666666666</ele><time>2026-05-02T08:26:15.775Z</time></trkpt><trkpt lat="43.552702" lon="12.2811499"><ele>560.0</ele><time>2026-05-02T08:26:16.773Z</time></trkpt><trkpt lat="43.5525609" lon="12.2809764"><ele>560.0</ele><time>2026-05-02T08:26:17.774Z</time></trkpt><trkpt lat="43.5524152" lon="12.2808199"><ele>560.0</ele><time>2026-05-02T08:26:18.774Z</time></trkpt><trkpt lat="43.5522662" lon="12.2806931"><ele>560.0</ele><time>2026-05-02T08:26:19.782Z</time></trkpt><trkpt lat="43.5521165" lon="12.2806029"><ele>556.3333333333333</ele><time>2026-05-02T08:26:20.771Z</time></trkpt><trkpt lat="43.5519713" lon="12.280528"><ele>552.6666666666666</ele><time>2026-05-02T08:26:21.778Z</time></trkpt><trkpt lat="43.5518374" lon="12.2804355"><ele>549.0</ele><time>2026-05-02T08:26:22.767Z</time></trkpt><trkpt lat="43.5517197" lon="12.2802908"><ele>549.0</ele><time>2026-05-02T08:26:23.773Z</time></trkpt><trkpt lat="43.5516122" lon="12.2801023"><ele>549.0</ele><time>2026-05-02T08:26:24.782Z</time></trkpt><trkpt lat="43.5515038" lon="12.2798896"><ele>549.0</ele><time>2026-05-02T08:26:25.774Z</time></trkpt><trkpt lat="43.5513868" lon="12.2796596"><ele>552.6666666666666</ele><time>2026-05-02T08:26:26.771Z</time></trkpt><trkpt lat="43.5512636" lon="12.2794306"><ele>556.3333333333333</ele><time>2026-05-02T08:26:27.787Z</time></trkpt><trkpt lat="43.5511423" lon="12.2791977"><ele>560.0</ele><time>2026-05-02T08:26:28.772Z</time></trkpt><trkpt lat="43.5510187" lon="12.2789639"><ele>554.0</ele><time>2026-05-02T08:26:29.763Z</time></trkpt><trkpt lat="43.5508918" lon="12.2787372"><ele>548.0</ele><time>2026-05-02T08:26:30.766Z</time></trkpt><trkpt lat="43.550765" lon="12.2785078"><ele>542.0</ele><time>2026-05-02T08:26:31.777Z</time></trkpt><trkpt lat="43.5506488" lon="12.2782778"><ele>543.6666666666666</ele><time>2026-05-02T08:26:32.77Z</time></trkpt><trkpt lat="43.550541" lon="12.2780608"><ele>545.3333333333334</ele><time>2026-05-02T08:26:33.779Z</time></trkpt><trkpt lat="43.5504344" lon="12.2778586"><ele>547.0</ele><time>2026-05-02T08:26:34.776Z</time></trkpt><trkpt lat="43.5503394" lon="12.2776578"><ele>540.3333333333334</ele><time>2026-05-02T08:26:35.774Z</time></trkpt><trkpt lat="43.5502658" lon="12.2774538"><ele>533.6666666666666</ele><time>2026-05-02T08:26:36.768Z</time></trkpt><trkpt lat="43.5501949" lon="12.2772534"><ele>527.0</ele><time>2026-05-02T08:26:37.79Z</time></trkpt><trkpt lat="43.5501058" lon="12.2770809"><ele>527.0</ele><time>2026-05-02T08:26:38.779Z</time></trkpt><trkpt lat="43.5500077" lon="12.2769193"><ele>527.0</ele><time>2026-05-02T08:26:39.772Z</time></trkpt><trkpt lat="43.5499264" lon="12.2767629"><ele>527.0</ele><time>2026-05-02T08:26:40.784Z</time></trkpt><trkpt lat="43.5498886" lon="12.2765847"><ele>527.0</ele><time>2026-05-02T08:26:41.772Z</time></trkpt><trkpt lat="43.549891" lon="12.27639"><ele>526.0</ele><time>2026-05-02T08:26:42.76Z</time></trkpt><trkpt lat="43.5499038" lon="12.2761719"><ele>525.0</ele><time>2026-05-02T08:26:43.774Z</time></trkpt><trkpt lat="43.5499251" lon="12.2759154"><ele>524.0</ele><time>2026-05-02T08:26:44.762Z</time></trkpt><trkpt lat="43.5499493" lon="12.2756384"><ele>522.3333333333333</ele><time>2026-05-02T08:26:45.785Z</time></trkpt><trkpt lat="43.5499707" lon="12.2753554"><ele>520.6666666666666</ele><time>2026-05-02T08:26:46.767Z</time></trkpt><trkpt lat="43.5499868" lon="12.275075"><ele>519.0</ele><time>2026-05-02T08:26:47.784Z</time></trkpt><trkpt lat="43.5499973" lon="12.2747987"><ele>517.6666666666666</ele><time>2026-05-02T08:26:48.771Z</time></trkpt><trkpt lat="43.5500041" lon="12.2745317"><ele>516.3333333333333</ele><time>2026-05-02T08:26:49.783Z</time></trkpt><trkpt lat="43.5500157" lon="12.2742747"><ele>515.0</ele><time>2026-05-02T08:26:50.771Z</time></trkpt><trkpt lat="43.5500244" lon="12.2740314"><ele>517.3333333333333</ele><time>2026-05-02T08:26:51.774Z</time></trkpt><trkpt lat="43.5500166" lon="12.2737983"><ele>519.6666666666666</ele><time>2026-05-02T08:26:52.779Z</time></trkpt><trkpt lat="43.5499662" lon="12.2735738"><ele>522.0</ele><time>2026-05-02T08:26:53.774Z</time></trkpt><trkpt lat="43.5498686" lon="12.2733655"><ele>522.0</ele><time>2026-05-02T08:26:54.771Z</time></trkpt><trkpt lat="43.549744" lon="12.2731677"><ele>522.0</ele><time>2026-05-02T08:26:55.775Z</time></trkpt><trkpt lat="43.5495977" lon="12.2729936"><ele>522.0</ele><time>2026-05-02T08:26:56.774Z</time></trkpt><trkpt lat="43.549445" lon="12.2728326"><ele>516.0</ele><time>2026-05-02T08:26:57.784Z</time></trkpt><trkpt lat="43.5492962" lon="12.2726794"><ele>510.0</ele><time>2026-05-02T08:26:58.767Z</time></trkpt><trkpt lat="43.5491584" lon="12.272535"><ele>504.0</ele><time>2026-05-02T08:26:59.779Z</time></trkpt><trkpt lat="43.549058" lon="12.2723976"><ele>507.25</ele><time>2026-05-02T08:27:00.768Z</time></trkpt><trkpt lat="43.5489961" lon="12.2722557"><ele>510.5</ele><time>2026-05-02T08:27:01.781Z</time></trkpt><trkpt lat="43.5489658" lon="12.2720614"><ele>513.75</ele><time>2026-05-02T08:27:02.776Z</time></trkpt><trkpt lat="43.5489587" lon="12.2718345"><ele>517.0</ele><time>2026-05-02T08:27:03.77Z</time></trkpt><trkpt lat="43.5489505" lon="12.2715881"><ele>520.6666666666667</ele><time>2026-05-02T08:27:04.769Z</time></trkpt><trkpt lat="43.5489139" lon="12.2713482"><ele>524.3333333333334</ele><time>2026-05-02T08:27:05.78Z</time></trkpt><trkpt lat="43.5488445" lon="12.2711078"><ele>528.0</ele><time>2026-05-02T08:27:06.769Z</time></trkpt><trkpt lat="43.5487523" lon="12.2708858"><ele>518.3333333333334</ele><time>2026-05-02T08:27:07.773Z</time></trkpt><trkpt lat="43.5486581" lon="12.2706659"><ele>508.6666666666667</ele><time>2026-05-02T08:27:08.768Z</time></trkpt><trkpt lat="43.5485535" lon="12.2704598"><ele>499.0</ele><time>2026-05-02T08:27:09.769Z</time></trkpt><trkpt lat="43.5484461" lon="12.2702712"><ele>499.0</ele><time>2026-05-02T08:27:10.77Z</time></trkpt><trkpt lat="43.5483446" lon="12.2700951"><ele>499.0</ele><time>2026-05-02T08:27:11.775Z</time></trkpt><trkpt lat="43.5482577" lon="12.2699148"><ele>499.0</ele><time>2026-05-02T08:27:12.76Z</time></trkpt><trkpt lat="43.5481993" lon="12.2697224"><ele>499.33333333333337</ele><time>2026-05-02T08:27:13.779Z</time></trkpt><trkpt lat="43.5481757" lon="12.2695073"><ele>499.66666666666663</ele><time>2026-05-02T08:27:14.764Z</time></trkpt><trkpt lat="43.5481636" lon="12.2692725"><ele>500.0</ele><time>2026-05-02T08:27:15.772Z</time></trkpt><trkpt lat="43.5481488" lon="12.2690339"><ele>499.66666666666663</ele><time>2026-05-02T08:27:16.764Z</time></trkpt><trkpt lat="43.5481294" lon="12.2688027"><ele>499.33333333333337</ele><time>2026-05-02T08:27:17.778Z</time></trkpt><trkpt lat="43.548108" lon="12.2685855"><ele>499.0</ele><time>2026-05-02T08:27:18.76Z</time></trkpt><trkpt lat="43.5480877" lon="12.2683753"><ele>499.0</ele><time>2026-05-02T08:27:19.772Z</time></trkpt><trkpt lat="43.5480671" lon="12.2681765"><ele>499.0</ele><time>2026-05-02T08:27:20.771Z</time></trkpt><trkpt lat="43.5480393" lon="12.2679879"><ele>499.0</ele><time>2026-05-02T08:27:21.772Z</time></trkpt><trkpt lat="43.548012" lon="12.2678106"><ele>499.0</ele><time>2026-05-02T08:27:22.766Z</time></trkpt><trkpt lat="43.5479888" lon="12.2676652"><ele>496.2</ele><time>2026-05-02T08:27:23.764Z</time></trkpt><trkpt lat="43.5479858" lon="12.2675247"><ele>493.4</ele><time>2026-05-02T08:27:24.763Z</time></trkpt><trkpt lat="43.5480241" lon="12.2674123"><ele>490.6</ele><time>2026-05-02T08:27:25.767Z</time></trkpt><trkpt lat="43.5481017" lon="12.2673451"><ele>487.8</ele><time>2026-05-02T08:27:26.768Z</time></trkpt><trkpt lat="43.548196" lon="12.2673325"><ele>485.0</ele><time>2026-05-02T08:27:27.77Z</time></trkpt><trkpt lat="43.5482903" lon="12.2673725"><ele>485.0</ele><time>2026-05-02T08:27:28.774Z</time></trkpt><trkpt lat="43.5483903" lon="12.2674413"><ele>485.0</ele><time>2026-05-02T08:27:29.768Z</time></trkpt><trkpt lat="43.5485103" lon="12.2675112"><ele>485.0</ele><time>2026-05-02T08:27:30.768Z</time></trkpt><trkpt lat="43.548643" lon="12.2675537"><ele>485.0</ele><time>2026-05-02T08:27:31.762Z</time></trkpt><trkpt lat="43.5487737" lon="12.2675617"><ele>485.2</ele><time>2026-05-02T08:27:32.759Z</time></trkpt><trkpt lat="43.5488885" lon="12.2675247"><ele>485.4</ele><time>2026-05-02T08:27:33.759Z</time></trkpt><trkpt lat="43.5489875" lon="12.2674455"><ele>485.6</ele><time>2026-05-02T08:27:34.754Z</time></trkpt><trkpt lat="43.5490542" lon="12.2673343"><ele>485.8</ele><time>2026-05-02T08:27:35.76Z</time></trkpt><trkpt lat="43.5490758" lon="12.2671941"><ele>486.0</ele><time>2026-05-02T08:27:36.759Z</time></trkpt><trkpt lat="43.5490597" lon="12.267015"><ele>484.8</ele><time>2026-05-02T08:27:37.772Z</time></trkpt><trkpt lat="43.5490317" lon="12.2668699"><ele>483.6</ele><time>2026-05-02T08:27:38.771Z</time></trkpt><trkpt lat="43.5489838" lon="12.2667403"><ele>482.4</ele><time>2026-05-02T08:27:39.771Z</time></trkpt><trkpt lat="43.5489104" lon="12.2666513"><ele>481.2</ele><time>2026-05-02T08:27:40.77Z</time></trkpt><trkpt lat="43.5488056" lon="12.2666085"><ele>480.0</ele><time>2026-05-02T08:27:41.763Z</time></trkpt><trkpt lat="43.548678" lon="12.2665639"><ele>477.0</ele><time>2026-05-02T08:27:42.772Z</time></trkpt><trkpt lat="43.5485452" lon="12.2664829"><ele>474.0</ele><time>2026-05-02T08:27:43.771Z</time></trkpt><trkpt lat="43.5484155" lon="12.2663649"><ele>471.0</ele><time>2026-05-02T08:27:44.767Z</time></trkpt><trkpt lat="43.5482756" lon="12.2662398"><ele>469.33333333333337</ele><time>2026-05-02T08:27:45.778Z</time></trkpt><trkpt lat="43.5481306" lon="12.2661236"><ele>467.6666666666667</ele><time>2026-05-02T08:27:46.766Z</time></trkpt><trkpt lat="43.5479837" lon="12.2660069"><ele>466.0</ele><time>2026-05-02T08:27:47.772Z</time></trkpt><trkpt lat="43.5478441" lon="12.2658942"><ele>466.0</ele><time>2026-05-02T08:27:48.773Z</time></trkpt><trkpt lat="43.5477105" lon="12.2657743"><ele>466.0</ele><time>2026-05-02T08:27:49.771Z</time></trkpt><trkpt lat="43.547589" lon="12.2656495"><ele>466.0</ele><time>2026-05-02T08:27:50.769Z</time></trkpt><trkpt lat="43.5474779" lon="12.2655119"><ele>470.33333333333337</ele><time>2026-05-02T08:27:51.785Z</time></trkpt><trkpt lat="43.5473882" lon="12.2653577"><ele>474.66666666666663</ele><time>2026-05-02T08:27:52.771Z</time></trkpt><trkpt lat="43.5473166" lon="12.2651742"><ele>479.0</ele><time>2026-05-02T08:27:53.772Z</time></trkpt><trkpt lat="43.5472467" lon="12.2649772"><ele>479.0</ele><time>2026-05-02T08:27:54.772Z</time></trkpt><trkpt lat="43.547156" lon="12.2647877"><ele>479.0</ele><time>2026-05-02T08:27:55.766Z</time></trkpt><trkpt lat="43.5470406" lon="12.2646196"><ele>479.0</ele><time>2026-05-02T08:27:56.765Z</time></trkpt><trkpt lat="43.5469107" lon="12.2644665"><ele>476.25</ele><time>2026-05-02T08:27:57.782Z</time></trkpt><trkpt lat="43.5467951" lon="12.2643103"><ele>473.5</ele><time>2026-05-02T08:27:58.769Z</time></trkpt><trkpt lat="43.5467022" lon="12.2641628"><ele>470.75</ele><time>2026-05-02T08:27:59.765Z</time></trkpt><trkpt lat="43.5466303" lon="12.2640119"><ele>468.0</ele><time>2026-05-02T08:28:00.762Z</time></trkpt><trkpt lat="43.5465979" lon="12.2638616"><ele>468.0</ele><time>2026-05-02T08:28:01.768Z</time></trkpt><trkpt lat="43.5466106" lon="12.2637076"><ele>468.0</ele><time>2026-05-02T08:28:02.773Z</time></trkpt><trkpt lat="43.5466601" lon="12.2635497"><ele>468.0</ele><time>2026-05-02T08:28:03.8Z</time></trkpt><trkpt lat="43.5467377" lon="12.2633862"><ele>468.0</ele><time>2026-05-02T08:28:04.776Z</time></trkpt><trkpt lat="43.546822" lon="12.2632177"><ele>463.33333333333337</ele><time>2026-05-02T08:28:05.776Z</time></trkpt><trkpt lat="43.5468954" lon="12.2630269"><ele>458.6666666666667</ele><time>2026-05-02T08:28:06.764Z</time></trkpt><trkpt lat="43.5469626" lon="12.2628351"><ele>454.0</ele><time>2026-05-02T08:28:07.782Z</time></trkpt><trkpt lat="43.5470276" lon="12.262659"><ele>454.25</ele><time>2026-05-02T08:28:08.767Z</time></trkpt><trkpt lat="43.5470801" lon="12.2624918"><ele>454.5</ele><time>2026-05-02T08:28:09.776Z</time></trkpt><trkpt lat="43.5471017" lon="12.2623094"><ele>454.75</ele><time>2026-05-02T08:28:10.758Z</time></trkpt><trkpt lat="43.5470827" lon="12.2621167"><ele>455.0</ele><time>2026-05-02T08:28:11.781Z</time></trkpt><trkpt lat="43.5470396" lon="12.2619157"><ele>455.0</ele><time>2026-05-02T08:28:12.764Z</time></trkpt><trkpt lat="43.5469748" lon="12.2617076"><ele>455.0</ele><time>2026-05-02T08:28:13.789Z</time></trkpt><trkpt lat="43.5468969" lon="12.2615067"><ele>455.0</ele><time>2026-05-02T08:28:14.769Z</time></trkpt><trkpt lat="43.5468046" lon="12.2613071"><ele>460.3333333333333</ele><time>2026-05-02T08:28:15.766Z</time></trkpt><trkpt lat="43.546705" lon="12.2611217"><ele>465.66666666666663</ele><time>2026-05-02T08:28:16.767Z</time></trkpt><trkpt lat="43.5465985" lon="12.2609589"><ele>471.0</ele><time>2026-05-02T08:28:17.773Z</time></trkpt><trkpt lat="43.5464818" lon="12.2608119"><ele>471.0</ele><time>2026-05-02T08:28:18.769Z</time></trkpt><trkpt lat="43.5463826" lon="12.2606849"><ele>471.0</ele><time>2026-05-02T08:28:19.789Z</time></trkpt><trkpt lat="43.5463022" lon="12.2605636"><ele>471.0</ele><time>2026-05-02T08:28:20.763Z</time></trkpt><trkpt lat="43.5462607" lon="12.2604223"><ele>471.0</ele><time>2026-05-02T08:28:21.786Z</time></trkpt><trkpt lat="43.546284" lon="12.2602693"><ele>469.5</ele><time>2026-05-02T08:28:22.774Z</time></trkpt><trkpt lat="43.5463536" lon="12.2601058"><ele>468.0</ele><time>2026-05-02T08:28:23.785Z</time></trkpt><trkpt lat="43.5464471" lon="12.2599612"><ele>466.5</ele><time>2026-05-02T08:28:24.773Z</time></trkpt><trkpt lat="43.5465299" lon="12.2598304"><ele>465.0</ele><time>2026-05-02T08:28:25.785Z</time></trkpt><trkpt lat="43.5465943" lon="12.2597088"><ele>463.0</ele><time>2026-05-02T08:28:26.773Z</time></trkpt><trkpt lat="43.5466468" lon="12.2595883"><ele>461.0</ele><time>2026-05-02T08:28:27.768Z</time></trkpt><trkpt lat="43.5466686" lon="12.2594696"><ele>459.0</ele><time>2026-05-02T08:28:28.769Z</time></trkpt><trkpt lat="43.5466447" lon="12.2593549"><ele>457.0</ele><time>2026-05-02T08:28:29.781Z</time></trkpt><trkpt lat="43.5465798" lon="12.2592448"><ele>455.0</ele><time>2026-05-02T08:28:30.765Z</time></trkpt><trkpt lat="43.5464723" lon="12.2591718"><ele>455.0</ele><time>2026-05-02T08:28:31.772Z</time></trkpt><trkpt lat="43.5463582" lon="12.2591126"><ele>455.0</ele><time>2026-05-02T08:28:32.767Z</time></trkpt><trkpt lat="43.5462513" lon="12.2590566"><ele>455.0</ele><time>2026-05-02T08:28:33.775Z</time></trkpt><trkpt lat="43.5461531" lon="12.2589889"><ele>455.0</ele><time>2026-05-02T08:28:34.765Z</time></trkpt><trkpt lat="43.5460655" lon="12.2588799"><ele>453.75</ele><time>2026-05-02T08:28:35.779Z</time></trkpt><trkpt lat="43.5459722" lon="12.2587611"><ele>452.5</ele><time>2026-05-02T08:28:36.766Z</time></trkpt><trkpt lat="43.5458766" lon="12.25863"><ele>451.25</ele><time>2026-05-02T08:28:37.782Z</time></trkpt><trkpt lat="43.5457785" lon="12.2585036"><ele>450.0</ele><time>2026-05-02T08:28:38.766Z</time></trkpt><trkpt lat="43.5456908" lon="12.2583751"><ele>450.0</ele><time>2026-05-02T08:28:39.787Z</time></trkpt><trkpt lat="43.5456084" lon="12.2582584"><ele>450.0</ele><time>2026-05-02T08:28:40.776Z</time></trkpt><trkpt lat="43.5455223" lon="12.2581448"><ele>450.0</ele><time>2026-05-02T08:28:41.778Z</time></trkpt><trkpt lat="43.5454308" lon="12.2580363"><ele>450.0</ele><time>2026-05-02T08:28:42.778Z</time></trkpt><trkpt lat="43.5453334" lon="12.2579389"><ele>450.75</ele><time>2026-05-02T08:28:43.776Z</time></trkpt><trkpt lat="43.5452242" lon="12.2578716"><ele>451.5</ele><time>2026-05-02T08:28:44.768Z</time></trkpt><trkpt lat="43.5450977" lon="12.2578449"><ele>452.25</ele><time>2026-05-02T08:28:45.78Z</time></trkpt><trkpt lat="43.5449621" lon="12.2578469"><ele>453.0</ele><time>2026-05-02T08:28:46.773Z</time></trkpt><trkpt lat="43.544842" lon="12.2578529"><ele>453.0</ele><time>2026-05-02T08:28:47.77Z</time></trkpt><trkpt lat="43.5447344" lon="12.2578205"><ele>453.0</ele><time>2026-05-02T08:28:48.761Z</time></trkpt><trkpt lat="43.5446234" lon="12.2577481"><ele>453.0</ele><time>2026-05-02T08:28:49.77Z</time></trkpt><trkpt lat="43.5445378" lon="12.2576202"><ele>453.0</ele><time>2026-05-02T08:28:50.753Z</time></trkpt><trkpt lat="43.5444696" lon="12.2574484"><ele>447.0</ele><time>2026-05-02T08:28:51.775Z</time></trkpt><trkpt lat="43.5444067" lon="12.2572571"><ele>441.0</ele><time>2026-05-02T08:28:52.768Z</time></trkpt><trkpt lat="43.5443436" lon="12.25706"><ele>435.0</ele><time>2026-05-02T08:28:53.775Z</time></trkpt><trkpt lat="43.544272" lon="12.2568704"><ele>435.0</ele><time>2026-05-02T08:28:54.771Z</time></trkpt><trkpt lat="43.5442064" lon="12.2566858"><ele>435.0</ele><time>2026-05-02T08:28:55.779Z</time></trkpt><trkpt lat="43.5441535" lon="12.2565045"><ele>435.0</ele><time>2026-05-02T08:28:56.771Z</time></trkpt><trkpt lat="43.5441042" lon="12.256326"><ele>435.0</ele><time>2026-05-02T08:28:57.794Z</time></trkpt><trkpt lat="43.5440465" lon="12.2561344"><ele>437.0</ele><time>2026-05-02T08:28:58.774Z</time></trkpt><trkpt lat="43.5439976" lon="12.2559321"><ele>439.0</ele><time>2026-05-02T08:28:59.781Z</time></trkpt><trkpt lat="43.5439432" lon="12.2557276"><ele>441.0</ele><time>2026-05-02T08:29:00.77Z</time></trkpt><trkpt lat="43.5438788" lon="12.2555225"><ele>444.33333333333337</ele><time>2026-05-02T08:29:01.786Z</time></trkpt><trkpt lat="43.5438029" lon="12.2553022"><ele>447.6666666666667</ele><time>2026-05-02T08:29:02.771Z</time></trkpt><trkpt lat="43.5437162" lon="12.2550822"><ele>451.0</ele><time>2026-05-02T08:29:03.783Z</time></trkpt><trkpt lat="43.543637" lon="12.2548589"><ele>443.33333333333337</ele><time>2026-05-02T08:29:04.763Z</time></trkpt><trkpt lat="43.5435687" lon="12.2546281"><ele>435.66666666666663</ele><time>2026-05-02T08:29:05.78Z</time></trkpt><trkpt lat="43.5435163" lon="12.2543942"><ele>428.0</ele><time>2026-05-02T08:29:06.778Z</time></trkpt><trkpt lat="43.5434679" lon="12.2541539"><ele>433.3333333333333</ele><time>2026-05-02T08:29:07.777Z</time></trkpt><trkpt lat="43.5434147" lon="12.2539272"><ele>438.66666666666663</ele><time>2026-05-02T08:29:08.769Z</time></trkpt><trkpt lat="43.5433477" lon="12.2537198"><ele>444.0</ele><time>2026-05-02T08:29:09.786Z</time></trkpt><trkpt lat="43.5432695" lon="12.2535287"><ele>444.0</ele><time>2026-05-02T08:29:10.771Z</time></trkpt><trkpt lat="43.5431819" lon="12.2533646"><ele>444.0</ele><time>2026-05-02T08:29:11.779Z</time></trkpt><trkpt lat="43.5430687" lon="12.2532182"><ele>444.0</ele><time>2026-05-02T08:29:12.773Z</time></trkpt><trkpt lat="43.542935" lon="12.2530869"><ele>438.33333333333337</ele><time>2026-05-02T08:29:13.763Z</time></trkpt><trkpt lat="43.5427835" lon="12.252964"><ele>432.6666666666667</ele><time>2026-05-02T08:29:14.769Z</time></trkpt><trkpt lat="43.5426348" lon="12.2528503"><ele>427.0</ele><time>2026-05-02T08:29:15.778Z</time></trkpt><trkpt lat="43.5424995" lon="12.2527536"><ele>427.0</ele><time>2026-05-02T08:29:16.757Z</time></trkpt><trkpt lat="43.5423916" lon="12.2526739"><ele>427.0</ele><time>2026-05-02T08:29:17.79Z</time></trkpt><trkpt lat="43.542315" lon="12.2525821"><ele>427.0</ele><time>2026-05-02T08:29:18.758Z</time></trkpt><trkpt lat="43.5422707" lon="12.2524479"><ele>427.0</ele><time>2026-05-02T08:29:19.773Z</time></trkpt><trkpt lat="43.5422527" lon="12.2522676"><ele>429.0</ele><time>2026-05-02T08:29:20.77Z</time></trkpt><trkpt lat="43.5422399" lon="12.2520533"><ele>431.0</ele><time>2026-05-02T08:29:21.789Z</time></trkpt><trkpt lat="43.5422168" lon="12.2518255"><ele>433.0</ele><time>2026-05-02T08:29:22.773Z</time></trkpt><trkpt lat="43.5421835" lon="12.2515878"><ele>430.5</ele><time>2026-05-02T08:29:23.767Z</time></trkpt><trkpt lat="43.5421514" lon="12.2513698"><ele>428.0</ele><time>2026-05-02T08:29:24.766Z</time></trkpt><trkpt lat="43.5421228" lon="12.2511722"><ele>425.5</ele><time>2026-05-02T08:29:25.768Z</time></trkpt><trkpt lat="43.5421062" lon="12.2509813"><ele>423.0</ele><time>2026-05-02T08:29:26.776Z</time></trkpt><trkpt lat="43.5421127" lon="12.250788"><ele>419.5</ele><time>2026-05-02T08:29:27.76Z</time></trkpt><trkpt lat="43.5421547" lon="12.250602"><ele>416.0</ele><time>2026-05-02T08:29:28.773Z</time></trkpt><trkpt lat="43.5421944" lon="12.2504039"><ele>412.5</ele><time>2026-05-02T08:29:29.79Z</time></trkpt><trkpt lat="43.542195" lon="12.2501879"><ele>409.0</ele><time>2026-05-02T08:29:30.768Z</time></trkpt><trkpt lat="43.5421495" lon="12.2499609"><ele>410.0</ele><time>2026-05-02T08:29:31.78Z</time></trkpt><trkpt lat="43.5420871" lon="12.2497355"><ele>411.0</ele><time>2026-05-02T08:29:32.773Z</time></trkpt><trkpt lat="43.5420139" lon="12.2494981"><ele>412.0</ele><time>2026-05-02T08:29:33.78Z</time></trkpt><trkpt lat="43.5419495" lon="12.2492597"><ele>411.6666666666667</ele><time>2026-05-02T08:29:34.764Z</time></trkpt><trkpt lat="43.5418957" lon="12.2490409"><ele>411.33333333333337</ele><time>2026-05-02T08:29:35.777Z</time></trkpt><trkpt lat="43.5418263" lon="12.2488447"><ele>411.0</ele><time>2026-05-02T08:29:36.76Z</time></trkpt><trkpt lat="43.5417284" lon="12.2486557"><ele>411.0</ele><time>2026-05-02T08:29:37.793Z</time></trkpt><trkpt lat="43.5416145" lon="12.2484706"><ele>411.0</ele><time>2026-05-02T08:29:38.766Z</time></trkpt><trkpt lat="43.5415063" lon="12.248276"><ele>411.0</ele><time>2026-05-02T08:29:39.794Z</time></trkpt><trkpt lat="43.5413958" lon="12.2480702"><ele>408.0</ele><time>2026-05-02T08:29:40.777Z</time></trkpt><trkpt lat="43.5412868" lon="12.2478616"><ele>405.0</ele><time>2026-05-02T08:29:41.776Z</time></trkpt><trkpt lat="43.5411856" lon="12.2476428"><ele>402.0</ele><time>2026-05-02T08:29:42.774Z</time></trkpt><trkpt lat="43.5410861" lon="12.2474249"><ele>405.0</ele><time>2026-05-02T08:29:43.78Z</time></trkpt><trkpt lat="43.5409923" lon="12.2472211"><ele>408.0</ele><time>2026-05-02T08:29:44.766Z</time></trkpt><trkpt lat="43.5408975" lon="12.2470136"><ele>411.0</ele><time>2026-05-02T08:29:45.79Z</time></trkpt><trkpt lat="43.5407992" lon="12.2468032"><ele>411.0</ele><time>2026-05-02T08:29:46.765Z</time></trkpt><trkpt lat="43.540703" lon="12.246591"><ele>411.0</ele><time>2026-05-02T08:29:47.778Z</time></trkpt><trkpt lat="43.540607" lon="12.2463799"><ele>411.0</ele><time>2026-05-02T08:29:48.757Z</time></trkpt><trkpt lat="43.5405137" lon="12.2461618"><ele>411.66666666666663</ele><time>2026-05-02T08:29:49.786Z</time></trkpt><trkpt lat="43.5404186" lon="12.2459426"><ele>412.3333333333333</ele><time>2026-05-02T08:29:50.777Z</time></trkpt><trkpt lat="43.5403259" lon="12.2457304"><ele>413.0</ele><time>2026-05-02T08:29:51.781Z</time></trkpt><trkpt lat="43.5402196" lon="12.2455247"><ele>413.0</ele><time>2026-05-02T08:29:52.767Z</time></trkpt><trkpt lat="43.5401033" lon="12.2453361"><ele>413.0</ele><time>2026-05-02T08:29:53.779Z</time></trkpt><trkpt lat="43.5399797" lon="12.245159"><ele>413.0</ele><time>2026-05-02T08:29:54.751Z</time></trkpt><trkpt lat="43.5398542" lon="12.2450006"><ele>413.0</ele><time>2026-05-02T08:29:55.794Z</time></trkpt><trkpt lat="43.5397389" lon="12.2448396"><ele>413.0</ele><time>2026-05-02T08:29:56.754Z</time></trkpt><trkpt lat="43.5396305" lon="12.2446535"><ele>413.0</ele><time>2026-05-02T08:29:57.773Z</time></trkpt><trkpt lat="43.5395286" lon="12.2444388"><ele>410.0</ele><time>2026-05-02T08:29:58.775Z</time></trkpt><trkpt lat="43.5394355" lon="12.2442141"><ele>407.0</ele><time>2026-05-02T08:29:59.779Z</time></trkpt><trkpt lat="43.539351" lon="12.2439806"><ele>404.0</ele><time>2026-05-02T08:30:00.759Z</time></trkpt><trkpt lat="43.5392732" lon="12.2437472"><ele>404.0</ele><time>2026-05-02T08:30:01.775Z</time></trkpt><trkpt lat="43.5391937" lon="12.2435079"><ele>404.0</ele><time>2026-05-02T08:30:02.776Z</time></trkpt><trkpt lat="43.5391106" lon="12.2432708"><ele>404.0</ele><time>2026-05-02T08:30:03.775Z</time></trkpt><trkpt lat="43.5390229" lon="12.243043"><ele>407.66666666666663</ele><time>2026-05-02T08:30:04.772Z</time></trkpt><trkpt lat="43.5389337" lon="12.2428198"><ele>411.33333333333337</ele><time>2026-05-02T08:30:05.774Z</time></trkpt><trkpt lat="43.5388475" lon="12.2426001"><ele>415.0</ele><time>2026-05-02T08:30:06.772Z</time></trkpt><trkpt lat="43.5387624" lon="12.2423817"><ele>407.0</ele><time>2026-05-02T08:30:07.77Z</time></trkpt><trkpt lat="43.5386761" lon="12.2421711"><ele>399.0</ele><time>2026-05-02T08:30:08.762Z</time></trkpt><trkpt lat="43.5385899" lon="12.241968"><ele>391.0</ele><time>2026-05-02T08:30:09.771Z</time></trkpt><trkpt lat="43.5385029" lon="12.2417598"><ele>391.0</ele><time>2026-05-02T08:30:10.769Z</time></trkpt><trkpt lat="43.5384193" lon="12.2415456"><ele>391.0</ele><time>2026-05-02T08:30:11.776Z</time></trkpt><trkpt lat="43.538342" lon="12.2413108"><ele>391.0</ele><time>2026-05-02T08:30:12.766Z</time></trkpt><trkpt lat="43.5382761" lon="12.24107"><ele>392.0</ele><time>2026-05-02T08:30:13.757Z</time></trkpt><trkpt lat="43.5382201" lon="12.2408231"><ele>393.0</ele><time>2026-05-02T08:30:14.764Z</time></trkpt><trkpt lat="43.5381637" lon="12.2405759"><ele>394.0</ele><time>2026-05-02T08:30:15.772Z</time></trkpt><trkpt lat="43.5381051" lon="12.2403356"><ele>398.33333333333337</ele><time>2026-05-02T08:30:16.756Z</time></trkpt><trkpt lat="43.538046" lon="12.2401242"><ele>402.66666666666663</ele><time>2026-05-02T08:30:17.76Z</time></trkpt><trkpt lat="43.5379916" lon="12.2399156"><ele>407.0</ele><time>2026-05-02T08:30:18.765Z</time></trkpt><trkpt lat="43.5379179" lon="12.239716"><ele>400.66666666666663</ele><time>2026-05-02T08:30:19.772Z</time></trkpt><trkpt lat="43.537829" lon="12.2395214"><ele>394.33333333333337</ele><time>2026-05-02T08:30:20.774Z</time></trkpt><trkpt lat="43.5377231" lon="12.2393275"><ele>388.0</ele><time>2026-05-02T08:30:21.79Z</time></trkpt><trkpt lat="43.5376074" lon="12.2391401"><ele>388.0</ele><time>2026-05-02T08:30:22.78Z</time></trkpt><trkpt lat="43.537497" lon="12.2389453"><ele>388.0</ele><time>2026-05-02T08:30:23.762Z</time></trkpt><trkpt lat="43.5373933" lon="12.2387415"><ele>388.0</ele><time>2026-05-02T08:30:24.777Z</time></trkpt><trkpt lat="43.5372978" lon="12.238526"><ele>388.0</ele><time>2026-05-02T08:30:25.77Z</time></trkpt><trkpt lat="43.5372055" lon="12.2382967"><ele>388.0</ele><time>2026-05-02T08:30:26.764Z</time></trkpt><trkpt lat="43.5371224" lon="12.2380684"><ele>388.0</ele><time>2026-05-02T08:30:27.764Z</time></trkpt><trkpt lat="43.537038" lon="12.2378388"><ele>388.33333333333337</ele><time>2026-05-02T08:30:28.767Z</time></trkpt><trkpt lat="43.5369631" lon="12.237611"><ele>388.66666666666663</ele><time>2026-05-02T08:30:29.762Z</time></trkpt><trkpt lat="43.5369058" lon="12.2373826"><ele>389.0</ele><time>2026-05-02T08:30:30.771Z</time></trkpt><trkpt lat="43.5368734" lon="12.2371445"><ele>388.3333333333333</ele><time>2026-05-02T08:30:31.761Z</time></trkpt><trkpt lat="43.5368657" lon="12.2369012"><ele>387.66666666666663</ele><time>2026-05-02T08:30:32.769Z</time></trkpt><trkpt lat="43.5368717" lon="12.2366442"><ele>387.0</ele><time>2026-05-02T08:30:33.773Z</time></trkpt><trkpt lat="43.5368906" lon="12.2363897"><ele>385.6666666666667</ele><time>2026-05-02T08:30:34.768Z</time></trkpt><trkpt lat="43.536908" lon="12.2361371"><ele>384.33333333333337</ele><time>2026-05-02T08:30:35.781Z</time></trkpt><trkpt lat="43.5369111" lon="12.2358871"><ele>383.0</ele><time>2026-05-02T08:30:36.761Z</time></trkpt><trkpt lat="43.5368991" lon="12.2356324"><ele>382.0</ele><time>2026-05-02T08:30:37.767Z</time></trkpt><trkpt lat="43.5368782" lon="12.2353729"><ele>381.0</ele><time>2026-05-02T08:30:38.781Z</time></trkpt><trkpt lat="43.5368542" lon="12.2351074"><ele>380.0</ele><time>2026-05-02T08:30:39.786Z</time></trkpt><trkpt lat="43.5368294" lon="12.2348448"><ele>379.0</ele><time>2026-05-02T08:30:40.773Z</time></trkpt><trkpt lat="43.5368051" lon="12.2345808"><ele>378.0</ele><time>2026-05-02T08:30:41.771Z</time></trkpt><trkpt lat="43.5367813" lon="12.2343201"><ele>377.0</ele><time>2026-05-02T08:30:42.773Z</time></trkpt><trkpt lat="43.5367615" lon="12.2340593"><ele>376.0</ele><time>2026-05-02T08:30:43.778Z</time></trkpt><trkpt lat="43.5367345" lon="12.2338014"><ele>375.0</ele><time>2026-05-02T08:30:44.765Z</time></trkpt><trkpt lat="43.5367059" lon="12.2335458"><ele>374.0</ele><time>2026-05-02T08:30:45.777Z</time></trkpt><trkpt lat="43.5366663" lon="12.2333072"><ele>373.6666666666667</ele><time>2026-05-02T08:30:46.769Z</time></trkpt><trkpt lat="43.5366039" lon="12.2330674"><ele>373.3333333333333</ele><time>2026-05-02T08:30:47.773Z</time></trkpt><trkpt lat="43.5365107" lon="12.2328332"><ele>373.0</ele><time>2026-05-02T08:30:48.763Z</time></trkpt><trkpt lat="43.5364122" lon="12.2326025"><ele>373.0</ele><time>2026-05-02T08:30:49.763Z</time></trkpt><trkpt lat="43.5363139" lon="12.2323771"><ele>373.0</ele><time>2026-05-02T08:30:50.768Z</time></trkpt><trkpt lat="43.5362223" lon="12.2321462"><ele>373.0</ele><time>2026-05-02T08:30:51.787Z</time></trkpt><trkpt lat="43.5361414" lon="12.2319225"><ele>371.3333333333333</ele><time>2026-05-02T08:30:52.768Z</time></trkpt><trkpt lat="43.5360789" lon="12.2316931"><ele>369.6666666666667</ele><time>2026-05-02T08:30:53.778Z</time></trkpt><trkpt lat="43.5360171" lon="12.2314681"><ele>368.0</ele><time>2026-05-02T08:30:54.772Z</time></trkpt><trkpt lat="43.535949" lon="12.2312397"><ele>367.6666666666667</ele><time>2026-05-02T08:30:55.769Z</time></trkpt><trkpt lat="43.5358796" lon="12.2310124"><ele>367.3333333333333</ele><time>2026-05-02T08:30:56.767Z</time></trkpt><trkpt lat="43.5358134" lon="12.2307817"><ele>367.0</ele><time>2026-05-02T08:30:57.774Z</time></trkpt><trkpt lat="43.5357481" lon="12.2305603"><ele>368.0</ele><time>2026-05-02T08:30:58.77Z</time></trkpt><trkpt lat="43.5356846" lon="12.2303589"><ele>369.0</ele><time>2026-05-02T08:30:59.773Z</time></trkpt><trkpt lat="43.5356295" lon="12.2301678"><ele>370.0</ele><time>2026-05-02T08:31:00.769Z</time></trkpt><trkpt lat="43.535577" lon="12.2299837"><ele>371.0</ele><time>2026-05-02T08:31:01.783Z</time></trkpt><trkpt lat="43.5355254" lon="12.2298001"><ele>372.0</ele><time>2026-05-02T08:31:02.774Z</time></trkpt><trkpt lat="43.5354716" lon="12.2296258"><ele>373.0</ele><time>2026-05-02T08:31:03.782Z</time></trkpt><trkpt lat="43.5354065" lon="12.2294572"><ele>374.0</ele><time>2026-05-02T08:31:04.765Z</time></trkpt><trkpt lat="43.5353201" lon="12.2293062"><ele>372.0</ele><time>2026-05-02T08:31:05.776Z</time></trkpt><trkpt lat="43.5352035" lon="12.2291783"><ele>370.0</ele><time>2026-05-02T08:31:06.768Z</time></trkpt><trkpt lat="43.5350721" lon="12.2290705"><ele>368.0</ele><time>2026-05-02T08:31:07.772Z</time></trkpt><trkpt lat="43.5349457" lon="12.2289545"><ele>368.0</ele><time>2026-05-02T08:31:08.77Z</time></trkpt><trkpt lat="43.5348311" lon="12.2287877"><ele>368.0</ele><time>2026-05-02T08:31:09.788Z</time></trkpt><trkpt lat="43.5347254" lon="12.2285945"><ele>368.0</ele><time>2026-05-02T08:31:10.773Z</time></trkpt><trkpt lat="43.5346084" lon="12.228388"><ele>366.6666666666667</ele><time>2026-05-02T08:31:11.779Z</time></trkpt><trkpt lat="43.5344813" lon="12.2281808"><ele>365.3333333333333</ele><time>2026-05-02T08:31:12.767Z</time></trkpt><trkpt lat="43.5343459" lon="12.2279847"><ele>364.0</ele><time>2026-05-02T08:31:13.78Z</time></trkpt><trkpt lat="43.5342041" lon="12.2277883"><ele>364.0</ele><time>2026-05-02T08:31:14.769Z</time></trkpt><trkpt lat="43.5340636" lon="12.2275922"><ele>364.0</ele><time>2026-05-02T08:31:15.769Z</time></trkpt><trkpt lat="43.5339231" lon="12.2273971"><ele>364.0</ele><time>2026-05-02T08:31:16.751Z</time></trkpt><trkpt lat="43.5337854" lon="12.227206"><ele>362.3333333333333</ele><time>2026-05-02T08:31:17.782Z</time></trkpt><trkpt lat="43.5336545" lon="12.2270282"><ele>360.6666666666667</ele><time>2026-05-02T08:31:18.774Z</time></trkpt><trkpt lat="43.5335303" lon="12.2268612"><ele>359.0</ele><time>2026-05-02T08:31:19.772Z</time></trkpt><trkpt lat="43.533413" lon="12.2266987"><ele>359.0</ele><time>2026-05-02T08:31:20.77Z</time></trkpt><trkpt lat="43.5333041" lon="12.226548"><ele>359.0</ele><time>2026-05-02T08:31:21.791Z</time></trkpt><trkpt lat="43.5332089" lon="12.2264185"><ele>359.0</ele><time>2026-05-02T08:31:22.764Z</time></trkpt><trkpt lat="43.5331209" lon="12.2263302"><ele>359.0</ele><time>2026-05-02T08:31:23.774Z</time></trkpt><trkpt lat="43.5330346" lon="12.2263058"><ele>359.0</ele><time>2026-05-02T08:31:24.772Z</time></trkpt><trkpt lat="43.5329419" lon="12.2263404"><ele>359.0</ele><time>2026-05-02T08:31:25.774Z</time></trkpt><trkpt lat="43.532831" lon="12.2264168"><ele>359.0</ele><time>2026-05-02T08:31:26.776Z</time></trkpt><trkpt lat="43.5327096" lon="12.2265204"><ele>359.0</ele><time>2026-05-02T08:31:27.79Z</time></trkpt><trkpt lat="43.5325732" lon="12.2266247"><ele>358.33333333333337</ele><time>2026-05-02T08:31:28.776Z</time></trkpt><trkpt lat="43.5324288" lon="12.2267273"><ele>357.6666666666667</ele><time>2026-05-02T08:31:29.78Z</time></trkpt><trkpt lat="43.5322721" lon="12.2268244"><ele>357.0</ele><time>2026-05-02T08:31:30.781Z</time></trkpt><trkpt lat="43.5321128" lon="12.2269225"><ele>354.6666666666667</ele><time>2026-05-02T08:31:31.775Z</time></trkpt><trkpt lat="43.5319478" lon="12.2270125"><ele>352.33333333333337</ele><time>2026-05-02T08:31:32.78Z</time></trkpt><trkpt lat="43.5317869" lon="12.2271059"><ele>350.0</ele><time>2026-05-02T08:31:33.767Z</time></trkpt><trkpt lat="43.5316386" lon="12.2271957"><ele>350.0</ele><time>2026-05-02T08:31:34.774Z</time></trkpt><trkpt lat="43.5315099" lon="12.2272779"><ele>350.0</ele><time>2026-05-02T08:31:35.775Z</time></trkpt><trkpt lat="43.5313994" lon="12.22734"><ele>350.0</ele><time>2026-05-02T08:31:36.779Z</time></trkpt><trkpt lat="43.5313004" lon="12.2273478"><ele>350.0</ele><time>2026-05-02T08:31:37.78Z</time></trkpt><trkpt lat="43.531205" lon="12.2272966"><ele>350.75</ele><time>2026-05-02T08:31:38.77Z</time></trkpt><trkpt lat="43.5310951" lon="12.227202"><ele>351.5</ele><time>2026-05-02T08:31:39.785Z</time></trkpt><trkpt lat="43.530985" lon="12.2270759"><ele>352.25</ele><time>2026-05-02T08:31:40.769Z</time></trkpt><trkpt lat="43.5308741" lon="12.22694"><ele>353.0</ele><time>2026-05-02T08:31:41.781Z</time></trkpt><trkpt lat="43.5307663" lon="12.226793"><ele>353.0</ele><time>2026-05-02T08:31:42.77Z</time></trkpt><trkpt lat="43.5306552" lon="12.2266492"><ele>353.0</ele><time>2026-05-02T08:31:43.784Z</time></trkpt><trkpt lat="43.5305408" lon="12.2265094"><ele>353.0</ele><time>2026-05-02T08:31:44.77Z</time></trkpt><trkpt lat="43.5304261" lon="12.2263707"><ele>353.0</ele><time>2026-05-02T08:31:45.772Z</time></trkpt><trkpt lat="43.5303076" lon="12.2262305"><ele>353.0</ele><time>2026-05-02T08:31:46.764Z</time></trkpt><trkpt lat="43.5301812" lon="12.2260917"><ele>353.0</ele><time>2026-05-02T08:31:47.781Z</time></trkpt><trkpt lat="43.5300541" lon="12.225951"><ele>353.0</ele><time>2026-05-02T08:31:48.775Z</time></trkpt><trkpt lat="43.5299397" lon="12.2258024"><ele>353.0</ele><time>2026-05-02T08:31:49.774Z</time></trkpt><trkpt lat="43.5298289" lon="12.2256737"><ele>353.0</ele><time>2026-05-02T08:31:50.78Z</time></trkpt><trkpt lat="43.5297258" lon="12.2255477"><ele>353.0</ele><time>2026-05-02T08:31:51.784Z</time></trkpt><trkpt lat="43.5296228" lon="12.2254226"><ele>352.33333333333337</ele><time>2026-05-02T08:31:52.779Z</time></trkpt><trkpt lat="43.5295027" lon="12.2253078"><ele>351.6666666666667</ele><time>2026-05-02T08:31:53.779Z</time></trkpt><trkpt lat="43.5293653" lon="12.2252159"><ele>351.0</ele><time>2026-05-02T08:31:54.785Z</time></trkpt><trkpt lat="43.5292103" lon="12.2251427"><ele>351.0</ele><time>2026-05-02T08:31:55.784Z</time></trkpt><trkpt lat="43.5290433" lon="12.2250676"><ele>351.0</ele><time>2026-05-02T08:31:56.767Z</time></trkpt><trkpt lat="43.5288734" lon="12.2249907"><ele>351.0</ele><time>2026-05-02T08:31:57.784Z</time></trkpt><trkpt lat="43.5287035" lon="12.2249134"><ele>350.6666666666667</ele><time>2026-05-02T08:31:58.765Z</time></trkpt><trkpt lat="43.528529" lon="12.2248362"><ele>350.33333333333337</ele><time>2026-05-02T08:31:59.793Z</time></trkpt><trkpt lat="43.5283579" lon="12.2247568"><ele>350.0</ele><time>2026-05-02T08:32:00.768Z</time></trkpt><trkpt lat="43.5281848" lon="12.2246771"><ele>349.0</ele><time>2026-05-02T08:32:01.787Z</time></trkpt><trkpt lat="43.5280109" lon="12.2245908"><ele>348.0</ele><time>2026-05-02T08:32:02.777Z</time></trkpt><trkpt lat="43.5278372" lon="12.2244891"><ele>347.0</ele><time>2026-05-02T08:32:03.776Z</time></trkpt><trkpt lat="43.5276729" lon="12.2243716"><ele>347.0</ele><time>2026-05-02T08:32:04.773Z</time></trkpt><trkpt lat="43.5275202" lon="12.2242398"><ele>347.0</ele><time>2026-05-02T08:32:05.787Z</time></trkpt><trkpt lat="43.5273732" lon="12.2240928"><ele>347.0</ele><time>2026-05-02T08:32:06.783Z</time></trkpt><trkpt lat="43.5272342" lon="12.2239419"><ele>346.0</ele><time>2026-05-02T08:32:07.782Z</time></trkpt><trkpt lat="43.5271021" lon="12.2237882"><ele>345.0</ele><time>2026-05-02T08:32:08.767Z</time></trkpt><trkpt lat="43.5269765" lon="12.2236291"><ele>344.0</ele><time>2026-05-02T08:32:09.782Z</time></trkpt><trkpt lat="43.5268616" lon="12.2234578"><ele>344.0</ele><time>2026-05-02T08:32:10.782Z</time></trkpt><trkpt lat="43.5267542" lon="12.2232766"><ele>344.0</ele><time>2026-05-02T08:32:11.786Z</time></trkpt><trkpt lat="43.5266495" lon="12.2230753"><ele>344.0</ele><time>2026-05-02T08:32:12.77Z</time></trkpt><trkpt lat="43.5265532" lon="12.2228726"><ele>343.6666666666667</ele><time>2026-05-02T08:32:13.779Z</time></trkpt><trkpt lat="43.5264639" lon="12.2226784"><ele>343.3333333333333</ele><time>2026-05-02T08:32:14.767Z</time></trkpt><trkpt lat="43.5263789" lon="12.2224962"><ele>343.0</ele><time>2026-05-02T08:32:15.771Z</time></trkpt><trkpt lat="43.5263008" lon="12.2223262"><ele>342.79999999999995</ele><time>2026-05-02T08:32:16.777Z</time></trkpt><trkpt lat="43.5262307" lon="12.222173"><ele>342.6</ele><time>2026-05-02T08:32:17.786Z</time></trkpt><trkpt lat="43.5261782" lon="12.2220445"><ele>342.4</ele><time>2026-05-02T08:32:18.769Z</time></trkpt><trkpt lat="43.5261317" lon="12.2219533"><ele>342.20000000000005</ele><time>2026-05-02T08:32:19.773Z</time></trkpt><trkpt lat="43.5260358" lon="12.221931"><ele>342.0</ele><time>2026-05-02T08:32:21.773Z</time></trkpt><trkpt lat="43.5259376" lon="12.2220804"><ele>342.0</ele><time>2026-05-02T08:32:23.776Z</time></trkpt><trkpt lat="43.5258533" lon="12.2221764"><ele>342.0</ele><time>2026-05-02T08:32:24.771Z</time></trkpt><trkpt lat="43.5257503" lon="12.2222758"><ele>342.0</ele><time>2026-05-02T08:32:25.775Z</time></trkpt><trkpt lat="43.5256396" lon="12.2223837"><ele>342.0</ele><time>2026-05-02T08:32:26.776Z</time></trkpt><trkpt lat="43.5255281" lon="12.2224948"><ele>342.0</ele><time>2026-05-02T08:32:27.774Z</time></trkpt><trkpt lat="43.5254114" lon="12.2226237"><ele>342.0</ele><time>2026-05-02T08:32:28.767Z</time></trkpt><trkpt lat="43.5252913" lon="12.2227612"><ele>342.0</ele><time>2026-05-02T08:32:29.773Z</time></trkpt><trkpt lat="43.5251676" lon="12.2228904"><ele>341.75</ele><time>2026-05-02T08:32:30.773Z</time></trkpt><trkpt lat="43.5250531" lon="12.2230152"><ele>341.5</ele><time>2026-05-02T08:32:31.767Z</time></trkpt><trkpt lat="43.524948" lon="12.2231224"><ele>341.25</ele><time>2026-05-02T08:32:32.775Z</time></trkpt><trkpt lat="43.5248488" lon="12.2232134"><ele>341.0</ele><time>2026-05-02T08:32:33.778Z</time></trkpt><trkpt lat="43.5247582" lon="12.223298"><ele>341.1666666666667</ele><time>2026-05-02T08:32:34.773Z</time></trkpt><trkpt lat="43.5246772" lon="12.2233783"><ele>341.33333333333337</ele><time>2026-05-02T08:32:35.778Z</time></trkpt><trkpt lat="43.524618" lon="12.2234462"><ele>341.5</ele><time>2026-05-02T08:32:36.768Z</time></trkpt><trkpt lat="43.5245494" lon="12.2234944"><ele>341.6666666666667</ele><time>2026-05-02T08:32:38.773Z</time></trkpt><trkpt lat="43.5244864" lon="12.2235146"><ele>341.8333333333333</ele><time>2026-05-02T08:32:41.778Z</time></trkpt><trkpt lat="43.5244012" lon="12.2235907"><ele>342.0</ele><time>2026-05-02T08:32:43.776Z</time></trkpt><trkpt lat="43.5243331" lon="12.2236495"><ele>342.0</ele><time>2026-05-02T08:32:44.768Z</time></trkpt><trkpt lat="43.5242621" lon="12.2237423"><ele>342.0</ele><time>2026-05-02T08:32:45.764Z</time></trkpt><trkpt lat="43.5241747" lon="12.2238372"><ele>342.0</ele><time>2026-05-02T08:32:46.77Z</time></trkpt><trkpt lat="43.5240833" lon="12.2239499"><ele>342.0</ele><time>2026-05-02T08:32:47.765Z</time></trkpt><trkpt lat="43.523984" lon="12.2240764"><ele>342.3333333333333</ele><time>2026-05-02T08:32:48.771Z</time></trkpt><trkpt lat="43.5238787" lon="12.2242194"><ele>342.66666666666663</ele><time>2026-05-02T08:32:49.765Z</time></trkpt><trkpt lat="43.5237736" lon="12.2243749"><ele>343.0</ele><time>2026-05-02T08:32:50.773Z</time></trkpt><trkpt lat="43.5236792" lon="12.2245329"><ele>342.5</ele><time>2026-05-02T08:32:51.776Z</time></trkpt><trkpt lat="43.5235978" lon="12.2246748"><ele>342.0</ele><time>2026-05-02T08:32:52.776Z</time></trkpt><trkpt lat="43.5235149" lon="12.2247981"><ele>341.5</ele><time>2026-05-02T08:32:53.772Z</time></trkpt><trkpt lat="43.5234408" lon="12.2248995"><ele>341.0</ele><time>2026-05-02T08:32:54.776Z</time></trkpt><trkpt lat="43.5233712" lon="12.2249977"><ele>341.0</ele><time>2026-05-02T08:32:55.776Z</time></trkpt><trkpt lat="43.523315" lon="12.2250832"><ele>341.0</ele><time>2026-05-02T08:32:56.772Z</time></trkpt><trkpt lat="43.5232571" lon="12.2251685"><ele>341.0</ele><time>2026-05-02T08:32:57.772Z</time></trkpt><trkpt lat="43.5232043" lon="12.2252591"><ele>341.0</ele><time>2026-05-02T08:32:58.774Z</time></trkpt><trkpt lat="43.523152" lon="12.2253534"><ele>341.0</ele><time>2026-05-02T08:32:59.771Z</time></trkpt><trkpt lat="43.5230959" lon="12.2254519"><ele>341.0</ele><time>2026-05-02T08:33:00.77Z</time></trkpt><trkpt lat="43.5230321" lon="12.225555"><ele>341.0</ele><time>2026-05-02T08:33:01.764Z</time></trkpt><trkpt lat="43.522964" lon="12.2256612"><ele>341.0</ele><time>2026-05-02T08:33:02.773Z</time></trkpt><trkpt lat="43.522891" lon="12.2257759"><ele>341.0</ele><time>2026-05-02T08:33:03.772Z</time></trkpt><trkpt lat="43.52282" lon="12.2258977"><ele>341.0</ele><time>2026-05-02T08:33:04.774Z</time></trkpt><trkpt lat="43.5227512" lon="12.2260264"><ele>341.0</ele><time>2026-05-02T08:33:05.777Z</time></trkpt><trkpt lat="43.5226871" lon="12.2261611"><ele>341.0</ele><time>2026-05-02T08:33:06.765Z</time></trkpt><trkpt lat="43.5226252" lon="12.2262888"><ele>341.0</ele><time>2026-05-02T08:33:07.771Z</time></trkpt><trkpt lat="43.5225673" lon="12.2264122"><ele>341.0</ele><time>2026-05-02T08:33:08.772Z</time></trkpt><trkpt lat="43.5225221" lon="12.2265024"><ele>341.0</ele><time>2026-05-02T08:33:09.774Z</time></trkpt><trkpt lat="43.5224807" lon="12.2265704"><ele>341.0</ele><time>2026-05-02T08:33:10.779Z</time></trkpt><trkpt lat="43.5224115" lon="12.2266965"><ele>341.0</ele><time>2026-05-02T08:33:12.773Z</time></trkpt><trkpt lat="43.5223576" lon="12.2267594"><ele>341.0</ele><time>2026-05-02T08:33:14.78Z</time></trkpt><trkpt lat="43.5223867" lon="12.2266595"><ele>341.0</ele><time>2026-05-02T08:33:37.784Z</time></trkpt><trkpt lat="43.5224554" lon="12.2265728"><ele>341.0</ele><time>2026-05-02T08:33:39.773Z</time></trkpt><trkpt lat="43.5225249" lon="12.2264973"><ele>341.0</ele><time>2026-05-02T08:33:41.78Z</time></trkpt><trkpt lat="43.5225875" lon="12.2263745"><ele>341.0</ele><time>2026-05-02T08:33:43.779Z</time></trkpt><trkpt lat="43.5226228" lon="12.2262937"><ele>341.0</ele><time>2026-05-02T08:33:44.776Z</time></trkpt><trkpt lat="43.5226593" lon="12.2262078"><ele>341.0</ele><time>2026-05-02T08:33:45.769Z</time></trkpt><trkpt lat="43.5227002" lon="12.2261214"><ele>341.0</ele><time>2026-05-02T08:33:46.767Z</time></trkpt><trkpt lat="43.5227438" lon="12.2260294"><ele>341.0</ele><time>2026-05-02T08:33:47.767Z</time></trkpt><trkpt lat="43.522791" lon="12.2259347"><ele>341.0</ele><time>2026-05-02T08:33:48.768Z</time></trkpt><trkpt lat="43.5228448" lon="12.2258378"><ele>341.0</ele><time>2026-05-02T08:33:49.771Z</time></trkpt><trkpt lat="43.5228971" lon="12.2257327"><ele>341.0</ele><time>2026-05-02T08:33:50.772Z</time></trkpt><trkpt lat="43.5229507" lon="12.2256374"><ele>341.0</ele><time>2026-05-02T08:33:51.77Z</time></trkpt><trkpt lat="43.5230069" lon="12.2255462"><ele>341.0</ele><time>2026-05-02T08:33:52.772Z</time></trkpt><trkpt lat="43.5230643" lon="12.2254527"><ele>341.0</ele><time>2026-05-02T08:33:53.772Z</time></trkpt><trkpt lat="43.523118" lon="12.2253704"><ele>341.0</ele><time>2026-05-02T08:33:54.765Z</time></trkpt><trkpt lat="43.5231669" lon="12.2252961"><ele>341.0</ele><time>2026-05-02T08:33:55.768Z</time></trkpt><trkpt lat="43.5232157" lon="12.225227"><ele>341.0</ele><time>2026-05-02T08:33:56.772Z</time></trkpt><trkpt lat="43.5232626" lon="12.2251625"><ele>341.0</ele><time>2026-05-02T08:33:57.779Z</time></trkpt><trkpt lat="43.5233078" lon="12.2251006"><ele>341.0</ele><time>2026-05-02T08:33:58.76Z</time></trkpt><trkpt lat="43.5233548" lon="12.2250344"><ele>341.0</ele><time>2026-05-02T08:33:59.766Z</time></trkpt><trkpt lat="43.5234069" lon="12.2249587"><ele>341.0</ele><time>2026-05-02T08:34:00.767Z</time></trkpt><trkpt lat="43.523465" lon="12.2248787"><ele>341.0</ele><time>2026-05-02T08:34:01.772Z</time></trkpt><trkpt lat="43.5235268" lon="12.2247874"><ele>341.0</ele><time>2026-05-02T08:34:02.769Z</time></trkpt><trkpt lat="43.5235902" lon="12.2246934"><ele>340.8</ele><time>2026-05-02T08:34:03.773Z</time></trkpt><trkpt lat="43.5236552" lon="12.224591"><ele>340.6</ele><time>2026-05-02T08:34:04.767Z</time></trkpt><trkpt lat="43.5237159" lon="12.2244811"><ele>340.4</ele><time>2026-05-02T08:34:05.774Z</time></trkpt><trkpt lat="43.5237827" lon="12.2243682"><ele>340.2</ele><time>2026-05-02T08:34:06.772Z</time></trkpt><trkpt lat="43.5238552" lon="12.2242625"><ele>340.0</ele><time>2026-05-02T08:34:07.775Z</time></trkpt><trkpt lat="43.5239332" lon="12.2241636"><ele>340.4</ele><time>2026-05-02T08:34:08.77Z</time></trkpt><trkpt lat="43.5240049" lon="12.2240683"><ele>340.8</ele><time>2026-05-02T08:34:09.773Z</time></trkpt><trkpt lat="43.5240735" lon="12.2239778"><ele>341.20000000000005</ele><time>2026-05-02T08:34:10.761Z</time></trkpt><trkpt lat="43.5241427" lon="12.2238912"><ele>341.6</ele><time>2026-05-02T08:34:11.775Z</time></trkpt><trkpt lat="43.5242088" lon="12.2238029"><ele>342.0</ele><time>2026-05-02T08:34:12.776Z</time></trkpt><trkpt lat="43.5242756" lon="12.223721"><ele>342.0</ele><time>2026-05-02T08:34:13.766Z</time></trkpt><trkpt lat="43.5243323" lon="12.2236467"><ele>342.0</ele><time>2026-05-02T08:34:14.77Z</time></trkpt><trkpt lat="43.5244051" lon="12.2235413"><ele>342.0</ele><time>2026-05-02T08:34:16.789Z</time></trkpt><trkpt lat="43.5244037" lon="12.223413"><ele>342.0</ele><time>2026-05-02T08:34:18.77Z</time></trkpt><trkpt lat="43.5243631" lon="12.2233298"><ele>342.0</ele><time>2026-05-02T08:34:19.771Z</time></trkpt><trkpt lat="43.5242994" lon="12.2232232"><ele>341.75</ele><time>2026-05-02T08:34:20.766Z</time></trkpt><trkpt lat="43.5242235" lon="12.2230967"><ele>341.5</ele><time>2026-05-02T08:34:21.776Z</time></trkpt><trkpt lat="43.5241404" lon="12.2229579"><ele>341.25</ele><time>2026-05-02T08:34:22.758Z</time></trkpt><trkpt lat="43.5240537" lon="12.2228108"><ele>341.0</ele><time>2026-05-02T08:34:23.772Z</time></trkpt><trkpt lat="43.5239621" lon="12.2226505"><ele>341.0</ele><time>2026-05-02T08:34:24.768Z</time></trkpt><trkpt lat="43.52387" lon="12.2224856"><ele>341.0</ele><time>2026-05-02T08:34:25.781Z</time></trkpt><trkpt lat="43.5237749" lon="12.2223217"><ele>341.0</ele><time>2026-05-02T08:34:26.783Z</time></trkpt><trkpt lat="43.5236811" lon="12.2221579"><ele>340.0</ele><time>2026-05-02T08:34:27.777Z</time></trkpt><trkpt lat="43.5235897" lon="12.2219927"><ele>339.0</ele><time>2026-05-02T08:34:28.768Z</time></trkpt><trkpt lat="43.5234958" lon="12.221827"><ele>338.0</ele><time>2026-05-02T08:34:29.779Z</time></trkpt><trkpt lat="43.523403" lon="12.2216647"><ele>338.0</ele><time>2026-05-02T08:34:30.776Z</time></trkpt><trkpt lat="43.52331" lon="12.2215047"><ele>338.0</ele><time>2026-05-02T08:34:31.769Z</time></trkpt><trkpt lat="43.5232213" lon="12.2213505"><ele>338.0</ele><time>2026-05-02T08:34:32.768Z</time></trkpt><trkpt lat="43.5231357" lon="12.2211954"><ele>338.0</ele><time>2026-05-02T08:34:33.775Z</time></trkpt><trkpt lat="43.5230478" lon="12.2210428"><ele>337.75</ele><time>2026-05-02T08:34:34.775Z</time></trkpt><trkpt lat="43.5229579" lon="12.2208961"><ele>337.5</ele><time>2026-05-02T08:34:35.777Z</time></trkpt><trkpt lat="43.5228655" lon="12.2207502"><ele>337.25</ele><time>2026-05-02T08:34:36.774Z</time></trkpt><trkpt lat="43.5227665" lon="12.2206101"><ele>337.0</ele><time>2026-05-02T08:34:37.784Z</time></trkpt><trkpt lat="43.5226662" lon="12.2204753"><ele>336.25</ele><time>2026-05-02T08:34:38.783Z</time></trkpt><trkpt lat="43.522563" lon="12.2203497"><ele>335.5</ele><time>2026-05-02T08:34:39.786Z</time></trkpt><trkpt lat="43.5224706" lon="12.2202327"><ele>334.75</ele><time>2026-05-02T08:34:40.77Z</time></trkpt><trkpt lat="43.5223903" lon="12.2201369"><ele>334.0</ele><time>2026-05-02T08:34:41.787Z</time></trkpt><trkpt lat="43.5223278" lon="12.2200572"><ele>334.0</ele><time>2026-05-02T08:34:42.781Z</time></trkpt><trkpt lat="43.522276" lon="12.2199947"><ele>334.0</ele><time>2026-05-02T08:34:43.803Z</time></trkpt><trkpt lat="43.5222139" lon="12.219912"><ele>334.0</ele><time>2026-05-02T08:34:45.787Z</time></trkpt><trkpt lat="43.5221509" lon="12.2198801"><ele>334.0</ele><time>2026-05-02T08:34:48.783Z</time></trkpt><trkpt lat="43.5220898" lon="12.2199952"><ele>334.0</ele><time>2026-05-02T08:34:50.774Z</time></trkpt><trkpt lat="43.5220942" lon="12.2200896"><ele>334.0</ele><time>2026-05-02T08:34:51.778Z</time></trkpt><trkpt lat="43.5220619" lon="12.2202048"><ele>334.25</ele><time>2026-05-02T08:34:52.751Z</time></trkpt><trkpt lat="43.5220046" lon="12.2203402"><ele>334.5</ele><time>2026-05-02T08:34:53.776Z</time></trkpt><trkpt lat="43.521929" lon="12.2204842"><ele>334.75</ele><time>2026-05-02T08:34:54.772Z</time></trkpt><trkpt lat="43.5218395" lon="12.2206408"><ele>335.0</ele><time>2026-05-02T08:34:55.777Z</time></trkpt><trkpt lat="43.5217467" lon="12.2207995"><ele>335.0</ele><time>2026-05-02T08:34:56.776Z</time></trkpt><trkpt lat="43.521636" lon="12.2209567"><ele>335.0</ele><time>2026-05-02T08:34:57.774Z</time></trkpt><trkpt lat="43.5215261" lon="12.2211199"><ele>335.0</ele><time>2026-05-02T08:34:58.77Z</time></trkpt><trkpt lat="43.5214107" lon="12.2212882"><ele>335.0</ele><time>2026-05-02T08:34:59.781Z</time></trkpt><trkpt lat="43.5212996" lon="12.2214597"><ele>335.0</ele><time>2026-05-02T08:35:00.766Z</time></trkpt><trkpt lat="43.5211878" lon="12.2216295"><ele>335.0</ele><time>2026-05-02T08:35:01.782Z</time></trkpt><trkpt lat="43.5210812" lon="12.2218003"><ele>334.6666666666667</ele><time>2026-05-02T08:35:02.767Z</time></trkpt><trkpt lat="43.5209759" lon="12.221972"><ele>334.3333333333333</ele><time>2026-05-02T08:35:03.769Z</time></trkpt><trkpt lat="43.5208712" lon="12.2221414"><ele>334.0</ele><time>2026-05-02T08:35:04.764Z</time></trkpt><trkpt lat="43.5207709" lon="12.2223055"><ele>334.0</ele><time>2026-05-02T08:35:05.778Z</time></trkpt><trkpt lat="43.5206709" lon="12.2224702"><ele>334.0</ele><time>2026-05-02T08:35:06.777Z</time></trkpt><trkpt lat="43.5205782" lon="12.2226372"><ele>334.0</ele><time>2026-05-02T08:35:07.778Z</time></trkpt><trkpt lat="43.520487" lon="12.2228022"><ele>333.75</ele><time>2026-05-02T08:35:08.773Z</time></trkpt><trkpt lat="43.5203954" lon="12.2229629"><ele>333.5</ele><time>2026-05-02T08:35:09.784Z</time></trkpt><trkpt lat="43.5203088" lon="12.2231235"><ele>333.25</ele><time>2026-05-02T08:35:10.777Z</time></trkpt><trkpt lat="43.5202276" lon="12.2232862"><ele>333.0</ele><time>2026-05-02T08:35:11.766Z</time></trkpt><trkpt lat="43.520148" lon="12.2234381"><ele>333.0</ele><time>2026-05-02T08:35:12.776Z</time></trkpt><trkpt lat="43.5200627" lon="12.2235904"><ele>333.0</ele><time>2026-05-02T08:35:13.785Z</time></trkpt><trkpt lat="43.5199782" lon="12.2237363"><ele>333.0</ele><time>2026-05-02T08:35:14.796Z</time></trkpt><trkpt lat="43.5198937" lon="12.2238803"><ele>333.0</ele><time>2026-05-02T08:35:15.778Z</time></trkpt><trkpt lat="43.5198074" lon="12.2240203"><ele>333.0</ele><time>2026-05-02T08:35:16.772Z</time></trkpt><trkpt lat="43.5197155" lon="12.2241635"><ele>333.0</ele><time>2026-05-02T08:35:17.777Z</time></trkpt><trkpt lat="43.5196196" lon="12.2243195"><ele>333.0</ele><time>2026-05-02T08:35:18.778Z</time></trkpt><trkpt lat="43.5195212" lon="12.2244839"><ele>333.0</ele><time>2026-05-02T08:35:19.776Z</time></trkpt><trkpt lat="43.51942" lon="12.2246546"><ele>333.0</ele><time>2026-05-02T08:35:20.776Z</time></trkpt><trkpt lat="43.5193213" lon="12.2248276"><ele>333.0</ele><time>2026-05-02T08:35:21.784Z</time></trkpt><trkpt lat="43.51922" lon="12.2249968"><ele>333.0</ele><time>2026-05-02T08:35:22.769Z</time></trkpt><trkpt lat="43.519116" lon="12.2251656"><ele>333.0</ele><time>2026-05-02T08:35:23.783Z</time></trkpt><trkpt lat="43.5190169" lon="12.2253294"><ele>333.0</ele><time>2026-05-02T08:35:24.78Z</time></trkpt><trkpt lat="43.5189194" lon="12.2254867"><ele>333.0</ele><time>2026-05-02T08:35:25.779Z</time></trkpt><trkpt lat="43.5188246" lon="12.2256358"><ele>333.0</ele><time>2026-05-02T08:35:26.772Z</time></trkpt><trkpt lat="43.5187296" lon="12.2257769"><ele>333.59999999999997</ele><time>2026-05-02T08:35:27.771Z</time></trkpt><trkpt lat="43.5186331" lon="12.2259039"><ele>334.2</ele><time>2026-05-02T08:35:28.77Z</time></trkpt><trkpt lat="43.5185456" lon="12.2260019"><ele>334.8</ele><time>2026-05-02T08:35:29.767Z</time></trkpt><trkpt lat="43.5184702" lon="12.226081"><ele>335.4</ele><time>2026-05-02T08:35:30.758Z</time></trkpt><trkpt lat="43.5184216" lon="12.2261718"><ele>336.0</ele><time>2026-05-02T08:35:31.786Z</time></trkpt><trkpt lat="43.5184437" lon="12.226358"><ele>336.0</ele><time>2026-05-02T08:35:33.787Z</time></trkpt><trkpt lat="43.5184975" lon="12.2264583"><ele>336.0</ele><time>2026-05-02T08:35:34.771Z</time></trkpt><trkpt lat="43.518561" lon="12.2265662"><ele>336.0</ele><time>2026-05-02T08:35:35.773Z</time></trkpt><trkpt lat="43.5186393" lon="12.226684"><ele>336.0</ele><time>2026-05-02T08:35:36.766Z</time></trkpt><trkpt lat="43.5187238" lon="12.2268147"><ele>336.0</ele><time>2026-05-02T08:35:37.774Z</time></trkpt><trkpt lat="43.5188144" lon="12.2269445"><ele>336.5</ele><time>2026-05-02T08:35:38.766Z</time></trkpt><trkpt lat="43.5189124" lon="12.2270743"><ele>337.0</ele><time>2026-05-02T08:35:39.772Z</time></trkpt><trkpt lat="43.5190264" lon="12.2271924"><ele>337.5</ele><time>2026-05-02T08:35:40.78Z</time></trkpt><trkpt lat="43.5191428" lon="12.2272987"><ele>338.0</ele><time>2026-05-02T08:35:41.774Z</time></trkpt><trkpt lat="43.5192571" lon="12.2274034"><ele>338.4</ele><time>2026-05-02T08:35:42.779Z</time></trkpt><trkpt lat="43.5193608" lon="12.2275114"><ele>338.79999999999995</ele><time>2026-05-02T08:35:43.778Z</time></trkpt><trkpt lat="43.5194523" lon="12.2276187"><ele>339.2</ele><time>2026-05-02T08:35:44.769Z</time></trkpt><trkpt lat="43.5195264" lon="12.2277219"><ele>339.6</ele><time>2026-05-02T08:35:45.766Z</time></trkpt><trkpt lat="43.5195788" lon="12.227825"><ele>340.0</ele><time>2026-05-02T08:35:46.768Z</time></trkpt><trkpt lat="43.5196076" lon="12.2279298"><ele>340.5</ele><time>2026-05-02T08:35:47.768Z</time></trkpt><trkpt lat="43.5196156" lon="12.2280336"><ele>341.0</ele><time>2026-05-02T08:35:48.773Z</time></trkpt><trkpt lat="43.5195913" lon="12.228135"><ele>341.5</ele><time>2026-05-02T08:35:49.764Z</time></trkpt><trkpt lat="43.5195521" lon="12.2282397"><ele>342.0</ele><time>2026-05-02T08:35:50.768Z</time></trkpt><trkpt lat="43.5194898" lon="12.2283442"><ele>342.5</ele><time>2026-05-02T08:35:51.772Z</time></trkpt><trkpt lat="43.5194235" lon="12.2284626"><ele>343.0</ele><time>2026-05-02T08:35:52.773Z</time></trkpt><trkpt lat="43.5193526" lon="12.2285901"><ele>343.2</ele><time>2026-05-02T08:35:53.767Z</time></trkpt><trkpt lat="43.5193006" lon="12.2287366"><ele>343.4</ele><time>2026-05-02T08:35:54.764Z</time></trkpt><trkpt lat="43.519268" lon="12.2288897"><ele>343.59999999999997</ele><time>2026-05-02T08:35:55.776Z</time></trkpt><trkpt lat="43.5192454" lon="12.2290402"><ele>343.79999999999995</ele><time>2026-05-02T08:35:56.766Z</time></trkpt><trkpt lat="43.5192273" lon="12.2291689"><ele>344.0</ele><time>2026-05-02T08:35:57.76Z</time></trkpt><trkpt lat="43.5192107" lon="12.2292755"><ele>344.6666666666667</ele><time>2026-05-02T08:35:58.765Z</time></trkpt><trkpt lat="43.5191952" lon="12.2293666"><ele>345.33333333333337</ele><time>2026-05-02T08:35:59.76Z</time></trkpt><trkpt lat="43.5191435" lon="12.2295266"><ele>346.0</ele><time>2026-05-02T08:36:01.774Z</time></trkpt><trkpt lat="43.5190978" lon="12.229598"><ele>346.6666666666667</ele><time>2026-05-02T08:36:02.784Z</time></trkpt><trkpt lat="43.5190278" lon="12.2296673"><ele>347.3333333333333</ele><time>2026-05-02T08:36:03.787Z</time></trkpt><trkpt lat="43.5189564" lon="12.2297497"><ele>348.0</ele><time>2026-05-02T08:36:04.778Z</time></trkpt><trkpt lat="43.5188824" lon="12.2298323"><ele>348.0</ele><time>2026-05-02T08:36:05.779Z</time></trkpt><trkpt lat="43.5188157" lon="12.2299247"><ele>348.0</ele><time>2026-05-02T08:36:06.78Z</time></trkpt><trkpt lat="43.5187418" lon="12.2300163"><ele>348.0</ele><time>2026-05-02T08:36:07.771Z</time></trkpt><trkpt lat="43.5186665" lon="12.2300999"><ele>348.0</ele><time>2026-05-02T08:36:08.766Z</time></trkpt><trkpt lat="43.5185945" lon="12.2301845"><ele>348.0</ele><time>2026-05-02T08:36:09.771Z</time></trkpt><trkpt lat="43.5185203" lon="12.2302666"><ele>348.0</ele><time>2026-05-02T08:36:10.77Z</time></trkpt><trkpt lat="43.5184425" lon="12.2303487"><ele>348.0</ele><time>2026-05-02T08:36:11.77Z</time></trkpt><trkpt lat="43.5183664" lon="12.2304241"><ele>348.0</ele><time>2026-05-02T08:36:12.768Z</time></trkpt><trkpt lat="43.5182947" lon="12.2304675"><ele>348.0</ele><time>2026-05-02T08:36:13.769Z</time></trkpt><trkpt lat="43.518214" lon="12.2304937"><ele>348.0</ele><time>2026-05-02T08:36:15.771Z</time></trkpt><trkpt lat="43.518191" lon="12.2305819"><ele>348.0</ele><time>2026-05-02T08:36:36.775Z</time></trkpt><trkpt lat="43.518076" lon="12.2306061"><ele>348.0</ele><time>2026-05-02T08:36:38.762Z</time></trkpt><trkpt lat="43.5180036" lon="12.2306139"><ele>348.0</ele><time>2026-05-02T08:36:39.765Z</time></trkpt><trkpt lat="43.5179317" lon="12.2306248"><ele>348.0</ele><time>2026-05-02T08:36:40.774Z</time></trkpt><trkpt lat="43.5178678" lon="12.2306383"><ele>348.0</ele><time>2026-05-02T08:36:41.768Z</time></trkpt><trkpt lat="43.5177953" lon="12.2306439"><ele>348.0</ele><time>2026-05-02T08:36:42.765Z</time></trkpt><trkpt lat="43.5177206" lon="12.2306639"><ele>348.0</ele><time>2026-05-02T08:36:43.762Z</time></trkpt><trkpt lat="43.5176523" lon="12.2306872"><ele>348.0</ele><time>2026-05-02T08:36:44.761Z</time></trkpt><trkpt lat="43.5175956" lon="12.2307261"><ele>348.6666666666667</ele><time>2026-05-02T08:36:45.77Z</time></trkpt><trkpt lat="43.5175526" lon="12.2307911"><ele>349.3333333333333</ele><time>2026-05-02T08:36:46.766Z</time></trkpt><trkpt lat="43.517513" lon="12.2308775"><ele>350.0</ele><time>2026-05-02T08:36:47.766Z</time></trkpt><trkpt lat="43.5174725" lon="12.2309625"><ele>350.66666666666663</ele><time>2026-05-02T08:36:48.773Z</time></trkpt><trkpt lat="43.5173795" lon="12.2310454"><ele>351.3333333333333</ele><time>2026-05-02T08:36:50.769Z</time></trkpt><trkpt lat="43.5173065" lon="12.2310621"><ele>352.0</ele><time>2026-05-02T08:36:51.776Z</time></trkpt><trkpt lat="43.5172278" lon="12.231078"><ele>352.0</ele><time>2026-05-02T08:36:52.764Z</time></trkpt><trkpt lat="43.5171381" lon="12.231094"><ele>352.0</ele><time>2026-05-02T08:36:53.77Z</time></trkpt><trkpt lat="43.5170554" lon="12.2311139"><ele>352.0</ele><time>2026-05-02T08:36:54.779Z</time></trkpt><trkpt lat="43.5169939" lon="12.2311359"><ele>352.0</ele><time>2026-05-02T08:36:55.762Z</time></trkpt><trkpt lat="43.5168988" lon="12.2311437"><ele>352.0</ele><time>2026-05-02T08:36:57.773Z</time></trkpt><trkpt lat="43.5168216" lon="12.2311716"><ele>352.0</ele><time>2026-05-02T08:36:59.765Z</time></trkpt><trkpt lat="43.5167571" lon="12.2311413"><ele>350.20000000000005</ele><time>2026-05-02T08:37:01.768Z</time></trkpt><trkpt lat="43.5166916" lon="12.2310281"><ele>348.4</ele><time>2026-05-02T08:37:03.768Z</time></trkpt><trkpt lat="43.5166142" lon="12.2309483"><ele>346.6</ele><time>2026-05-02T08:37:05.773Z</time></trkpt><trkpt lat="43.5165126" lon="12.2309532"><ele>344.79999999999995</ele><time>2026-05-02T08:37:07.775Z</time></trkpt><trkpt lat="43.5163838" lon="12.2309691"><ele>343.0</ele><time>2026-05-02T08:37:09.767Z</time></trkpt><trkpt lat="43.5163115" lon="12.230983"><ele>341.59999999999997</ele><time>2026-05-02T08:37:10.765Z</time></trkpt><trkpt lat="43.5162353" lon="12.2309911"><ele>340.2</ele><time>2026-05-02T08:37:11.768Z</time></trkpt><trkpt lat="43.5161661" lon="12.231003"><ele>338.8</ele><time>2026-05-02T08:37:12.766Z</time></trkpt><trkpt lat="43.5160511" lon="12.2310285"><ele>337.4</ele><time>2026-05-02T08:37:14.771Z</time></trkpt><trkpt lat="43.5159448" lon="12.2310557"><ele>336.0</ele><time>2026-05-02T08:37:16.768Z</time></trkpt><trkpt lat="43.515855" lon="12.2310753"><ele>336.0</ele><time>2026-05-02T08:37:18.768Z</time></trkpt><trkpt lat="43.5157845" lon="12.2310929"><ele>336.0</ele><time>2026-05-02T08:37:20.773Z</time></trkpt><trkpt lat="43.5157083" lon="12.2311099"><ele>336.0</ele><time>2026-05-02T08:37:22.77Z</time></trkpt><trkpt lat="43.5156207" lon="12.2311315"><ele>336.0</ele><time>2026-05-02T08:37:24.772Z</time></trkpt><trkpt lat="43.5155388" lon="12.2311527"><ele>336.0</ele><time>2026-05-02T08:37:26.762Z</time></trkpt><trkpt lat="43.5154419" lon="12.2311704"><ele>336.0</ele><time>2026-05-02T08:37:28.769Z</time></trkpt><trkpt lat="43.5153315" lon="12.2311917"><ele>334.8</ele><time>2026-05-02T08:37:30.769Z</time></trkpt><trkpt lat="43.5152299" lon="12.2312075"><ele>333.6</ele><time>2026-05-02T08:37:32.764Z</time></trkpt><trkpt lat="43.5151544" lon="12.2312272"><ele>332.4</ele><time>2026-05-02T08:37:34.758Z</time></trkpt><trkpt lat="43.5150664" lon="12.231251"><ele>331.2</ele><time>2026-05-02T08:37:36.772Z</time></trkpt><trkpt lat="43.5149663" lon="12.2312765"><ele>330.0</ele><time>2026-05-02T08:37:38.781Z</time></trkpt><trkpt lat="43.5148661" lon="12.2313008"><ele>330.0</ele><time>2026-05-02T08:37:40.761Z</time></trkpt><trkpt lat="43.5147674" lon="12.2313232"><ele>330.0</ele><time>2026-05-02T08:37:42.767Z</time></trkpt><trkpt lat="43.5146552" lon="12.2313552"><ele>330.0</ele><time>2026-05-02T08:37:44.769Z</time></trkpt><trkpt lat="43.5145923" lon="12.2313714"><ele>330.0</ele><time>2026-05-02T08:37:45.777Z</time></trkpt><trkpt lat="43.5144778" lon="12.2313964"><ele>330.0</ele><time>2026-05-02T08:37:47.773Z</time></trkpt><trkpt lat="43.5143549" lon="12.2314292"><ele>329.8</ele><time>2026-05-02T08:37:49.774Z</time></trkpt><trkpt lat="43.51428" lon="12.2314437"><ele>329.6</ele><time>2026-05-02T08:37:50.771Z</time></trkpt><trkpt lat="43.5142089" lon="12.2314556"><ele>329.4</ele><time>2026-05-02T08:37:51.781Z</time></trkpt><trkpt lat="43.5140927" lon="12.2314854"><ele>329.2</ele><time>2026-05-02T08:37:53.777Z</time></trkpt><trkpt lat="43.5139861" lon="12.2315032"><ele>329.0</ele><time>2026-05-02T08:37:55.776Z</time></trkpt><trkpt lat="43.5138866" lon="12.2315253"><ele>329.0</ele><time>2026-05-02T08:37:57.785Z</time></trkpt><trkpt lat="43.5137653" lon="12.2315504"><ele>329.0</ele><time>2026-05-02T08:37:59.774Z</time></trkpt><trkpt lat="43.5136595" lon="12.2315738"><ele>329.0</ele><time>2026-05-02T08:38:01.763Z</time></trkpt><trkpt lat="43.5135532" lon="12.2315977"><ele>329.0</ele><time>2026-05-02T08:38:03.769Z</time></trkpt><trkpt lat="43.5134515" lon="12.2316217"><ele>329.0</ele><time>2026-05-02T08:38:05.777Z</time></trkpt><trkpt lat="43.5133639" lon="12.2316367"><ele>329.0</ele><time>2026-05-02T08:38:07.768Z</time></trkpt><trkpt lat="43.5132789" lon="12.2316498"><ele>329.0</ele><time>2026-05-02T08:38:10.767Z</time></trkpt><trkpt lat="43.5132022" lon="12.2316154"><ele>329.0</ele><time>2026-05-02T08:38:13.775Z</time></trkpt><trkpt lat="43.5131456" lon="12.2315467"><ele>329.0</ele><time>2026-05-02T08:38:15.773Z</time></trkpt><trkpt lat="43.5130879" lon="12.2315087"><ele>329.0</ele><time>2026-05-02T08:38:29.772Z</time></trkpt><trkpt lat="43.5129914" lon="12.2314216"><ele>329.0</ele><time>2026-05-02T08:38:32.772Z</time></trkpt><trkpt lat="43.5129392" lon="12.2313596"><ele>328.1666666666667</ele><time>2026-05-02T08:38:33.765Z</time></trkpt><trkpt lat="43.5128823" lon="12.2313"><ele>327.33333333333337</ele><time>2026-05-02T08:38:34.784Z</time></trkpt><trkpt lat="43.5128008" lon="12.2312284"><ele>326.5</ele><time>2026-05-02T08:38:36.773Z</time></trkpt><trkpt lat="43.512714" lon="12.2312328"><ele>325.6666666666667</ele><time>2026-05-02T08:38:38.77Z</time></trkpt><trkpt lat="43.5126377" lon="12.2312838"><ele>324.8333333333333</ele><time>2026-05-02T08:38:39.786Z</time></trkpt><trkpt lat="43.51256" lon="12.2313526"><ele>324.0</ele><time>2026-05-02T08:38:40.762Z</time></trkpt><trkpt lat="43.512474" lon="12.2314448"><ele>323.75</ele><time>2026-05-02T08:38:41.783Z</time></trkpt><trkpt lat="43.5123709" lon="12.2315396"><ele>323.5</ele><time>2026-05-02T08:38:42.771Z</time></trkpt><trkpt lat="43.5122603" lon="12.2316401"><ele>323.25</ele><time>2026-05-02T08:38:43.782Z</time></trkpt><trkpt lat="43.5121448" lon="12.2317451"><ele>323.0</ele><time>2026-05-02T08:38:44.774Z</time></trkpt><trkpt lat="43.5120298" lon="12.231867"><ele>321.6666666666667</ele><time>2026-05-02T08:38:45.773Z</time></trkpt><trkpt lat="43.5119087" lon="12.2320038"><ele>320.3333333333333</ele><time>2026-05-02T08:38:46.768Z</time></trkpt><trkpt lat="43.5117863" lon="12.2321499"><ele>319.0</ele><time>2026-05-02T08:38:47.772Z</time></trkpt><trkpt lat="43.5116674" lon="12.2323058"><ele>320.0</ele><time>2026-05-02T08:38:48.777Z</time></trkpt><trkpt lat="43.5115425" lon="12.232467"><ele>321.0</ele><time>2026-05-02T08:38:49.778Z</time></trkpt><trkpt lat="43.5114149" lon="12.2326282"><ele>322.0</ele><time>2026-05-02T08:38:50.782Z</time></trkpt><trkpt lat="43.5112805" lon="12.2327906"><ele>322.66666666666663</ele><time>2026-05-02T08:38:51.779Z</time></trkpt><trkpt lat="43.5111493" lon="12.2329537"><ele>323.3333333333333</ele><time>2026-05-02T08:38:52.78Z</time></trkpt><trkpt lat="43.5110202" lon="12.2331211"><ele>324.0</ele><time>2026-05-02T08:38:53.766Z</time></trkpt><trkpt lat="43.5108881" lon="12.2332884"><ele>325.0</ele><time>2026-05-02T08:38:54.784Z</time></trkpt><trkpt lat="43.5107547" lon="12.2334537"><ele>326.0</ele><time>2026-05-02T08:38:55.776Z</time></trkpt><trkpt lat="43.5106208" lon="12.2336147"><ele>327.0</ele><time>2026-05-02T08:38:56.786Z</time></trkpt><trkpt lat="43.5104869" lon="12.2337783"><ele>327.0</ele><time>2026-05-02T08:38:57.768Z</time></trkpt><trkpt lat="43.5103511" lon="12.2339498"><ele>327.0</ele><time>2026-05-02T08:38:58.766Z</time></trkpt><trkpt lat="43.5102133" lon="12.2341174"><ele>327.0</ele><time>2026-05-02T08:38:59.766Z</time></trkpt><trkpt lat="43.510076" lon="12.2342741"><ele>327.5</ele><time>2026-05-02T08:39:00.769Z</time></trkpt><trkpt lat="43.5099363" lon="12.2344106"><ele>328.0</ele><time>2026-05-02T08:39:01.774Z</time></trkpt><trkpt lat="43.5098041" lon="12.234501"><ele>328.5</ele><time>2026-05-02T08:39:02.775Z</time></trkpt><trkpt lat="43.5096987" lon="12.2345633"><ele>329.0</ele><time>2026-05-02T08:39:03.763Z</time></trkpt><trkpt lat="43.509607" lon="12.234604"><ele>329.0</ele><time>2026-05-02T08:39:04.767Z</time></trkpt><trkpt lat="43.5095357" lon="12.2346219"><ele>329.0</ele><time>2026-05-02T08:39:05.782Z</time></trkpt><trkpt lat="43.509466" lon="12.2346124"><ele>329.0</ele><time>2026-05-02T08:39:07.774Z</time></trkpt><trkpt lat="43.5094049" lon="12.2345888"><ele>329.0</ele><time>2026-05-02T08:39:42.785Z</time></trkpt><trkpt lat="43.5093006" lon="12.2344509"><ele>329.0</ele><time>2026-05-02T08:39:44.771Z</time></trkpt><trkpt lat="43.5092205" lon="12.2343386"><ele>329.0</ele><time>2026-05-02T08:39:45.772Z</time></trkpt><trkpt lat="43.5091219" lon="12.2342024"><ele>329.0</ele><time>2026-05-02T08:39:46.778Z</time></trkpt><trkpt lat="43.5090142" lon="12.234047"><ele>329.0</ele><time>2026-05-02T08:39:47.775Z</time></trkpt><trkpt lat="43.5088959" lon="12.233872"><ele>328.33333333333337</ele><time>2026-05-02T08:39:48.772Z</time></trkpt><trkpt lat="43.508767" lon="12.2336918"><ele>327.6666666666667</ele><time>2026-05-02T08:39:49.78Z</time></trkpt><trkpt lat="43.508629" lon="12.2335258"><ele>327.0</ele><time>2026-05-02T08:39:50.765Z</time></trkpt><trkpt lat="43.5084778" lon="12.233367"><ele>326.3333333333333</ele><time>2026-05-02T08:39:51.776Z</time></trkpt><trkpt lat="43.5083172" lon="12.2332223"><ele>325.66666666666663</ele><time>2026-05-02T08:39:52.782Z</time></trkpt><trkpt lat="43.5081494" lon="12.2330791"><ele>325.0</ele><time>2026-05-02T08:39:53.769Z</time></trkpt><trkpt lat="43.5079793" lon="12.232939"><ele>324.0</ele><time>2026-05-02T08:39:54.77Z</time></trkpt><trkpt lat="43.5078032" lon="12.2327978"><ele>323.0</ele><time>2026-05-02T08:39:55.772Z</time></trkpt><trkpt lat="43.5076276" lon="12.2326548"><ele>322.0</ele><time>2026-05-02T08:39:56.774Z</time></trkpt><trkpt lat="43.507449" lon="12.2325175"><ele>322.0</ele><time>2026-05-02T08:39:57.763Z</time></trkpt><trkpt lat="43.5072704" lon="12.2323762"><ele>322.0</ele><time>2026-05-02T08:39:58.768Z</time></trkpt><trkpt lat="43.5070919" lon="12.2322446"><ele>322.0</ele><time>2026-05-02T08:39:59.769Z</time></trkpt><trkpt lat="43.506915" lon="12.2321099"><ele>321.3333333333333</ele><time>2026-05-02T08:40:00.775Z</time></trkpt><trkpt lat="43.5067362" lon="12.2319798"><ele>320.6666666666667</ele><time>2026-05-02T08:40:01.763Z</time></trkpt><trkpt lat="43.5065553" lon="12.2318576"><ele>320.0</ele><time>2026-05-02T08:40:02.771Z</time></trkpt><trkpt lat="43.5063743" lon="12.2317428"><ele>320.0</ele><time>2026-05-02T08:40:03.779Z</time></trkpt><trkpt lat="43.5061935" lon="12.2316291"><ele>320.0</ele><time>2026-05-02T08:40:04.758Z</time></trkpt><trkpt lat="43.5060193" lon="12.231515"><ele>320.0</ele><time>2026-05-02T08:40:05.784Z</time></trkpt><trkpt lat="43.5058499" lon="12.2314032"><ele>320.0</ele><time>2026-05-02T08:40:06.765Z</time></trkpt><trkpt lat="43.5056891" lon="12.2312984"><ele>320.0</ele><time>2026-05-02T08:40:07.777Z</time></trkpt><trkpt lat="43.5055373" lon="12.2312023"><ele>320.0</ele><time>2026-05-02T08:40:08.776Z</time></trkpt><trkpt lat="43.5053936" lon="12.2311119"><ele>319.6666666666667</ele><time>2026-05-02T08:40:09.777Z</time></trkpt><trkpt lat="43.5052563" lon="12.231014"><ele>319.3333333333333</ele><time>2026-05-02T08:40:10.775Z</time></trkpt><trkpt lat="43.5051234" lon="12.2309072"><ele>319.0</ele><time>2026-05-02T08:40:11.766Z</time></trkpt><trkpt lat="43.5049866" lon="12.2307864"><ele>319.0</ele><time>2026-05-02T08:40:12.766Z</time></trkpt><trkpt lat="43.5048499" lon="12.2306468"><ele>319.0</ele><time>2026-05-02T08:40:13.766Z</time></trkpt><trkpt lat="43.5047091" lon="12.2304989"><ele>319.0</ele><time>2026-05-02T08:40:14.779Z</time></trkpt><trkpt lat="43.5045653" lon="12.2303507"><ele>318.0</ele><time>2026-05-02T08:40:15.763Z</time></trkpt><trkpt lat="43.5044153" lon="12.2302004"><ele>317.0</ele><time>2026-05-02T08:40:16.773Z</time></trkpt><trkpt lat="43.5042618" lon="12.2300384"><ele>316.0</ele><time>2026-05-02T08:40:17.773Z</time></trkpt><trkpt lat="43.5041112" lon="12.2298752"><ele>315.3333333333333</ele><time>2026-05-02T08:40:18.772Z</time></trkpt><trkpt lat="43.5039655" lon="12.2297156"><ele>314.6666666666667</ele><time>2026-05-02T08:40:19.784Z</time></trkpt><trkpt lat="43.5038322" lon="12.2295711"><ele>314.0</ele><time>2026-05-02T08:40:20.771Z</time></trkpt><trkpt lat="43.5037314" lon="12.2294537"><ele>313.83333333333337</ele><time>2026-05-02T08:40:21.78Z</time></trkpt><trkpt lat="43.5036473" lon="12.2293654"><ele>313.6666666666667</ele><time>2026-05-02T08:40:22.776Z</time></trkpt><trkpt lat="43.5035768" lon="12.2292947"><ele>313.5</ele><time>2026-05-02T08:40:23.769Z</time></trkpt><trkpt lat="43.5035235" lon="12.2292466"><ele>313.3333333333333</ele><time>2026-05-02T08:40:24.784Z</time></trkpt><trkpt lat="43.5034588" lon="12.2291998"><ele>313.16666666666663</ele><time>2026-05-02T08:40:26.765Z</time></trkpt><trkpt lat="43.5033544" lon="12.2292655"><ele>313.0</ele><time>2026-05-02T08:40:33.767Z</time></trkpt><trkpt lat="43.5032944" lon="12.2293893"><ele>313.0</ele><time>2026-05-02T08:40:34.769Z</time></trkpt><trkpt lat="43.5032375" lon="12.2295856"><ele>313.0</ele><time>2026-05-02T08:40:35.781Z</time></trkpt><trkpt lat="43.5031382" lon="12.2298208"><ele>313.0</ele><time>2026-05-02T08:40:36.762Z</time></trkpt><trkpt lat="43.503012" lon="12.2300976"><ele>313.5</ele><time>2026-05-02T08:40:37.768Z</time></trkpt><trkpt lat="43.5028898" lon="12.2303865"><ele>314.0</ele><time>2026-05-02T08:40:38.77Z</time></trkpt><trkpt lat="43.5027763" lon="12.2306377"><ele>314.33333333333337</ele><time>2026-05-02T08:40:39.767Z</time></trkpt><trkpt lat="43.5026825" lon="12.2308428"><ele>314.6666666666667</ele><time>2026-05-02T08:40:40.763Z</time></trkpt><trkpt lat="43.5026053" lon="12.2310496"><ele>315.0</ele><time>2026-05-02T08:40:41.774Z</time></trkpt><trkpt lat="43.5025336" lon="12.231285"><ele>315.0</ele><time>2026-05-02T08:40:42.768Z</time></trkpt><trkpt lat="43.5024703" lon="12.2315495"><ele>315.0</ele><time>2026-05-02T08:40:43.769Z</time></trkpt><trkpt lat="43.5024329" lon="12.2318122"><ele>315.0</ele><time>2026-05-02T08:40:44.774Z</time></trkpt><trkpt lat="43.5024116" lon="12.2320612"><ele>315.0</ele><time>2026-05-02T08:40:45.773Z</time></trkpt><trkpt lat="43.502395" lon="12.2323056"><ele>315.0</ele><time>2026-05-02T08:40:46.764Z</time></trkpt><trkpt lat="43.5023699" lon="12.2325325"><ele>315.0</ele><time>2026-05-02T08:40:47.769Z</time></trkpt><trkpt lat="43.5023394" lon="12.2327496"><ele>315.0</ele><time>2026-05-02T08:40:48.773Z</time></trkpt><trkpt lat="43.5023004" lon="12.2329572"><ele>315.0</ele><time>2026-05-02T08:40:49.767Z</time></trkpt><trkpt lat="43.5022523" lon="12.2331557"><ele>315.0</ele><time>2026-05-02T08:40:50.775Z</time></trkpt><trkpt lat="43.5021939" lon="12.233358"><ele>315.0</ele><time>2026-05-02T08:40:51.773Z</time></trkpt><trkpt lat="43.5021306" lon="12.2335536"><ele>315.0</ele><time>2026-05-02T08:40:52.774Z</time></trkpt><trkpt lat="43.5020549" lon="12.2337507"><ele>315.0</ele><time>2026-05-02T08:40:53.781Z</time></trkpt><trkpt lat="43.5019715" lon="12.2339442"><ele>315.3333333333333</ele><time>2026-05-02T08:40:54.767Z</time></trkpt><trkpt lat="43.5018789" lon="12.2341301"><ele>315.66666666666663</ele><time>2026-05-02T08:40:55.766Z</time></trkpt><trkpt lat="43.5017803" lon="12.2343086"><ele>316.0</ele><time>2026-05-02T08:40:56.779Z</time></trkpt><trkpt lat="43.501666" lon="12.2344813"><ele>316.0</ele><time>2026-05-02T08:40:57.772Z</time></trkpt><trkpt lat="43.5015469" lon="12.2346419"><ele>316.0</ele><time>2026-05-02T08:40:58.763Z</time></trkpt><trkpt lat="43.5014229" lon="12.234795"><ele>316.0</ele><time>2026-05-02T08:40:59.786Z</time></trkpt><trkpt lat="43.5012973" lon="12.2349348"><ele>316.66666666666663</ele><time>2026-05-02T08:41:00.767Z</time></trkpt><trkpt lat="43.5011613" lon="12.23507"><ele>317.3333333333333</ele><time>2026-05-02T08:41:01.779Z</time></trkpt><trkpt lat="43.5010217" lon="12.2351876"><ele>318.0</ele><time>2026-05-02T08:41:02.769Z</time></trkpt><trkpt lat="43.5008719" lon="12.2353004"><ele>318.0</ele><time>2026-05-02T08:41:03.772Z</time></trkpt><trkpt lat="43.5007164" lon="12.2354127"><ele>318.0</ele><time>2026-05-02T08:41:04.766Z</time></trkpt><trkpt lat="43.5005564" lon="12.2355287"><ele>318.0</ele><time>2026-05-02T08:41:05.771Z</time></trkpt><trkpt lat="43.5003973" lon="12.2356458"><ele>316.0</ele><time>2026-05-02T08:41:06.781Z</time></trkpt><trkpt lat="43.5002402" lon="12.2357582"><ele>314.0</ele><time>2026-05-02T08:41:07.768Z</time></trkpt><trkpt lat="43.5000936" lon="12.2358707"><ele>312.0</ele><time>2026-05-02T08:41:08.764Z</time></trkpt><trkpt lat="43.4999512" lon="12.2359721"><ele>312.0</ele><time>2026-05-02T08:41:09.777Z</time></trkpt><trkpt lat="43.4998047" lon="12.2360746"><ele>312.0</ele><time>2026-05-02T08:41:10.768Z</time></trkpt><trkpt lat="43.4996528" lon="12.2361791"><ele>312.0</ele><time>2026-05-02T08:41:11.771Z</time></trkpt><trkpt lat="43.4994965" lon="12.236286"><ele>312.0</ele><time>2026-05-02T08:41:12.771Z</time></trkpt><trkpt lat="43.4993378" lon="12.2363961"><ele>312.0</ele><time>2026-05-02T08:41:13.772Z</time></trkpt><trkpt lat="43.499179" lon="12.2365072"><ele>312.0</ele><time>2026-05-02T08:41:14.773Z</time></trkpt><trkpt lat="43.4990231" lon="12.2366215"><ele>312.0</ele><time>2026-05-02T08:41:15.778Z</time></trkpt><trkpt lat="43.4988771" lon="12.2367368"><ele>312.0</ele><time>2026-05-02T08:41:16.769Z</time></trkpt><trkpt lat="43.4987332" lon="12.2368462"><ele>312.0</ele><time>2026-05-02T08:41:17.781Z</time></trkpt><trkpt lat="43.4985827" lon="12.2369492"><ele>312.0</ele><time>2026-05-02T08:41:18.764Z</time></trkpt><trkpt lat="43.498433" lon="12.2370446"><ele>312.0</ele><time>2026-05-02T08:41:19.779Z</time></trkpt><trkpt lat="43.4982756" lon="12.2371207"><ele>312.0</ele><time>2026-05-02T08:41:20.773Z</time></trkpt><trkpt lat="43.4981163" lon="12.2371702"><ele>312.0</ele><time>2026-05-02T08:41:21.769Z</time></trkpt><trkpt lat="43.4979462" lon="12.2372088"><ele>312.0</ele><time>2026-05-02T08:41:22.776Z</time></trkpt><trkpt lat="43.4977773" lon="12.2372516"><ele>312.0</ele><time>2026-05-02T08:41:23.775Z</time></trkpt><trkpt lat="43.4976084" lon="12.2372897"><ele>312.0</ele><time>2026-05-02T08:41:24.768Z</time></trkpt><trkpt lat="43.4974553" lon="12.2373301"><ele>312.0</ele><time>2026-05-02T08:41:25.765Z</time></trkpt><trkpt lat="43.4973152" lon="12.2373665"><ele>312.0</ele><time>2026-05-02T08:41:26.771Z</time></trkpt><trkpt lat="43.4971909" lon="12.2374016"><ele>312.0</ele><time>2026-05-02T08:41:27.778Z</time></trkpt><trkpt lat="43.4970718" lon="12.2374336"><ele>312.0</ele><time>2026-05-02T08:41:28.759Z</time></trkpt><trkpt lat="43.4969614" lon="12.2374614"><ele>312.0</ele><time>2026-05-02T08:41:29.762Z</time></trkpt><trkpt lat="43.4968615" lon="12.2374847"><ele>312.0</ele><time>2026-05-02T08:41:30.775Z</time></trkpt><trkpt lat="43.4967723" lon="12.2375169"><ele>312.0</ele><time>2026-05-02T08:41:31.778Z</time></trkpt><trkpt lat="43.496715" lon="12.2375648"><ele>312.0</ele><time>2026-05-02T08:41:32.777Z</time></trkpt><trkpt lat="43.4966977" lon="12.2376905"><ele>312.0</ele><time>2026-05-02T08:41:34.775Z</time></trkpt><trkpt lat="43.4967248" lon="12.2377792"><ele>312.0</ele><time>2026-05-02T08:41:35.771Z</time></trkpt><trkpt lat="43.4967645" lon="12.2378939"><ele>312.0</ele><time>2026-05-02T08:41:36.77Z</time></trkpt><trkpt lat="43.496803" lon="12.2380272"><ele>312.0</ele><time>2026-05-02T08:41:37.775Z</time></trkpt><trkpt lat="43.4968509" lon="12.2381694"><ele>312.0</ele><time>2026-05-02T08:41:38.766Z</time></trkpt><trkpt lat="43.4969085" lon="12.2383097"><ele>312.0</ele><time>2026-05-02T08:41:39.764Z</time></trkpt><trkpt lat="43.4969794" lon="12.2384434"><ele>312.0</ele><time>2026-05-02T08:41:40.772Z</time></trkpt><trkpt lat="43.4970556" lon="12.2385781"><ele>312.0</ele><time>2026-05-02T08:41:41.773Z</time></trkpt><trkpt lat="43.4971291" lon="12.2387225"><ele>312.0</ele><time>2026-05-02T08:41:42.784Z</time></trkpt><trkpt lat="43.4972009" lon="12.238872"><ele>313.0</ele><time>2026-05-02T08:41:43.779Z</time></trkpt><trkpt lat="43.4972744" lon="12.2390212"><ele>314.0</ele><time>2026-05-02T08:41:44.78Z</time></trkpt><trkpt lat="43.4973452" lon="12.2391718"><ele>315.0</ele><time>2026-05-02T08:41:45.773Z</time></trkpt><trkpt lat="43.4974174" lon="12.2393151"><ele>316.0</ele><time>2026-05-02T08:41:46.763Z</time></trkpt><trkpt lat="43.4974879" lon="12.2394635"><ele>316.0</ele><time>2026-05-02T08:41:47.777Z</time></trkpt><trkpt lat="43.4975546" lon="12.2396117"><ele>316.0</ele><time>2026-05-02T08:41:48.78Z</time></trkpt><trkpt lat="43.4976222" lon="12.2397542"><ele>316.0</ele><time>2026-05-02T08:41:49.773Z</time></trkpt><trkpt lat="43.4976936" lon="12.2398949"><ele>316.0</ele><time>2026-05-02T08:41:50.772Z</time></trkpt><trkpt lat="43.4977659" lon="12.2400198"><ele>316.0</ele><time>2026-05-02T08:41:51.783Z</time></trkpt><trkpt lat="43.4978378" lon="12.240134"><ele>316.0</ele><time>2026-05-02T08:41:52.773Z</time></trkpt><trkpt lat="43.497904" lon="12.2402394"><ele>316.0</ele><time>2026-05-02T08:41:53.776Z</time></trkpt><trkpt lat="43.4979651" lon="12.2403384"><ele>316.0</ele><time>2026-05-02T08:41:54.765Z</time></trkpt><trkpt lat="43.4980272" lon="12.2404374"><ele>316.0</ele><time>2026-05-02T08:41:55.774Z</time></trkpt><trkpt lat="43.4980983" lon="12.2405351"><ele>316.25</ele><time>2026-05-02T08:41:56.773Z</time></trkpt><trkpt lat="43.498172" lon="12.2406386"><ele>316.5</ele><time>2026-05-02T08:41:57.768Z</time></trkpt><trkpt lat="43.4982535" lon="12.2407588"><ele>316.75</ele><time>2026-05-02T08:41:58.773Z</time></trkpt><trkpt lat="43.4983389" lon="12.2408854"><ele>317.0</ele><time>2026-05-02T08:41:59.775Z</time></trkpt><trkpt lat="43.4984213" lon="12.2410115"><ele>317.0</ele><time>2026-05-02T08:42:00.764Z</time></trkpt><trkpt lat="43.4985116" lon="12.2411409"><ele>317.0</ele><time>2026-05-02T08:42:01.779Z</time></trkpt><trkpt lat="43.4986043" lon="12.2412743"><ele>317.0</ele><time>2026-05-02T08:42:02.757Z</time></trkpt><trkpt lat="43.4987" lon="12.2414092"><ele>317.0</ele><time>2026-05-02T08:42:03.776Z</time></trkpt><trkpt lat="43.4987959" lon="12.2415499"><ele>317.0</ele><time>2026-05-02T08:42:04.764Z</time></trkpt><trkpt lat="43.4988946" lon="12.241691"><ele>317.0</ele><time>2026-05-02T08:42:05.777Z</time></trkpt><trkpt lat="43.4989931" lon="12.241835"><ele>317.0</ele><time>2026-05-02T08:42:06.76Z</time></trkpt><trkpt lat="43.4990927" lon="12.2419786"><ele>317.0</ele><time>2026-05-02T08:42:07.773Z</time></trkpt><trkpt lat="43.4991904" lon="12.2421262"><ele>317.0</ele><time>2026-05-02T08:42:08.762Z</time></trkpt><trkpt lat="43.4992916" lon="12.2422793"><ele>317.0</ele><time>2026-05-02T08:42:09.771Z</time></trkpt><trkpt lat="43.4993955" lon="12.2424265"><ele>317.0</ele><time>2026-05-02T08:42:10.772Z</time></trkpt><trkpt lat="43.4995042" lon="12.2425705"><ele>317.33333333333337</ele><time>2026-05-02T08:42:11.772Z</time></trkpt><trkpt lat="43.4996102" lon="12.2427157"><ele>317.6666666666667</ele><time>2026-05-02T08:42:12.774Z</time></trkpt><trkpt lat="43.499723" lon="12.2428579"><ele>318.0</ele><time>2026-05-02T08:42:13.774Z</time></trkpt><trkpt lat="43.4998323" lon="12.2430006"><ele>318.75</ele><time>2026-05-02T08:42:14.768Z</time></trkpt><trkpt lat="43.4999389" lon="12.2431406"><ele>319.5</ele><time>2026-05-02T08:42:15.769Z</time></trkpt><trkpt lat="43.5000484" lon="12.2432795"><ele>320.25</ele><time>2026-05-02T08:42:16.771Z</time></trkpt><trkpt lat="43.5001614" lon="12.2434173"><ele>321.0</ele><time>2026-05-02T08:42:17.774Z</time></trkpt><trkpt lat="43.5002743" lon="12.2435571"><ele>321.0</ele><time>2026-05-02T08:42:18.763Z</time></trkpt><trkpt lat="43.5003877" lon="12.2436925"><ele>321.0</ele><time>2026-05-02T08:42:19.773Z</time></trkpt><trkpt lat="43.5005006" lon="12.2438268"><ele>321.0</ele><time>2026-05-02T08:42:20.777Z</time></trkpt><trkpt lat="43.5006149" lon="12.2439671"><ele>322.0</ele><time>2026-05-02T08:42:21.776Z</time></trkpt><trkpt lat="43.5007263" lon="12.2441122"><ele>323.0</ele><time>2026-05-02T08:42:22.763Z</time></trkpt><trkpt lat="43.5008412" lon="12.2442562"><ele>324.0</ele><time>2026-05-02T08:42:23.767Z</time></trkpt><trkpt lat="43.5009559" lon="12.2444028"><ele>324.0</ele><time>2026-05-02T08:42:24.776Z</time></trkpt><trkpt lat="43.5010687" lon="12.2445442"><ele>324.0</ele><time>2026-05-02T08:42:25.778Z</time></trkpt><trkpt lat="43.5011707" lon="12.244686"><ele>324.0</ele><time>2026-05-02T08:42:26.768Z</time></trkpt><trkpt lat="43.5012701" lon="12.2448253"><ele>324.0</ele><time>2026-05-02T08:42:27.783Z</time></trkpt><trkpt lat="43.5013619" lon="12.2449485"><ele>325.25</ele><time>2026-05-02T08:42:28.767Z</time></trkpt><trkpt lat="43.5014528" lon="12.2450564"><ele>326.5</ele><time>2026-05-02T08:42:29.764Z</time></trkpt><trkpt lat="43.5015455" lon="12.245147"><ele>327.75</ele><time>2026-05-02T08:42:30.76Z</time></trkpt><trkpt lat="43.5016466" lon="12.2452316"><ele>329.0</ele><time>2026-05-02T08:42:31.784Z</time></trkpt><trkpt lat="43.5017565" lon="12.2453217"><ele>329.0</ele><time>2026-05-02T08:42:32.763Z</time></trkpt><trkpt lat="43.5018679" lon="12.2454171"><ele>329.0</ele><time>2026-05-02T08:42:33.77Z</time></trkpt><trkpt lat="43.5019815" lon="12.2455202"><ele>329.0</ele><time>2026-05-02T08:42:34.768Z</time></trkpt><trkpt lat="43.5020977" lon="12.2456256"><ele>329.0</ele><time>2026-05-02T08:42:35.785Z</time></trkpt><trkpt lat="43.5022092" lon="12.2457274"><ele>330.5</ele><time>2026-05-02T08:42:36.769Z</time></trkpt><trkpt lat="43.5023133" lon="12.2458351"><ele>332.0</ele><time>2026-05-02T08:42:37.786Z</time></trkpt><trkpt lat="43.5024047" lon="12.2459568"><ele>333.5</ele><time>2026-05-02T08:42:38.774Z</time></trkpt><trkpt lat="43.5024971" lon="12.2460905"><ele>335.0</ele><time>2026-05-02T08:42:39.785Z</time></trkpt><trkpt lat="43.5025804" lon="12.2462402"><ele>335.0</ele><time>2026-05-02T08:42:40.777Z</time></trkpt><trkpt lat="43.5026393" lon="12.2463848"><ele>335.0</ele><time>2026-05-02T08:42:41.785Z</time></trkpt><trkpt lat="43.502682" lon="12.2465189"><ele>335.0</ele><time>2026-05-02T08:42:42.77Z</time></trkpt><trkpt lat="43.5027153" lon="12.246649"><ele>335.0</ele><time>2026-05-02T08:42:43.79Z</time></trkpt><trkpt lat="43.5027441" lon="12.2467758"><ele>335.0</ele><time>2026-05-02T08:42:44.774Z</time></trkpt><trkpt lat="43.5027807" lon="12.2468975"><ele>335.0</ele><time>2026-05-02T08:42:45.782Z</time></trkpt><trkpt lat="43.5028258" lon="12.2470187"><ele>335.0</ele><time>2026-05-02T08:42:46.783Z</time></trkpt><trkpt lat="43.5028826" lon="12.2471366"><ele>335.0</ele><time>2026-05-02T08:42:47.78Z</time></trkpt><trkpt lat="43.5029372" lon="12.2472537"><ele>335.0</ele><time>2026-05-02T08:42:48.774Z</time></trkpt><trkpt lat="43.5029933" lon="12.2473774"><ele>335.0</ele><time>2026-05-02T08:42:49.776Z</time></trkpt><trkpt lat="43.5030531" lon="12.2474969"><ele>336.5</ele><time>2026-05-02T08:42:50.77Z</time></trkpt><trkpt lat="43.5031213" lon="12.2476152"><ele>338.0</ele><time>2026-05-02T08:42:51.78Z</time></trkpt><trkpt lat="43.503197" lon="12.2477239"><ele>339.5</ele><time>2026-05-02T08:42:52.778Z</time></trkpt><trkpt lat="43.5032778" lon="12.2478355"><ele>341.0</ele><time>2026-05-02T08:42:53.787Z</time></trkpt><trkpt lat="43.5033592" lon="12.2479583"><ele>341.0</ele><time>2026-05-02T08:42:54.767Z</time></trkpt><trkpt lat="43.5034375" lon="12.2480895"><ele>341.0</ele><time>2026-05-02T08:42:55.765Z</time></trkpt><trkpt lat="43.5035047" lon="12.2482349"><ele>341.0</ele><time>2026-05-02T08:42:56.783Z</time></trkpt><trkpt lat="43.5035767" lon="12.2483897"><ele>341.0</ele><time>2026-05-02T08:42:57.774Z</time></trkpt><trkpt lat="43.5036514" lon="12.2485507"><ele>341.0</ele><time>2026-05-02T08:42:58.778Z</time></trkpt><trkpt lat="43.503726" lon="12.248708"><ele>341.0</ele><time>2026-05-02T08:42:59.771Z</time></trkpt><trkpt lat="43.5038021" lon="12.2488651"><ele>341.0</ele><time>2026-05-02T08:43:00.756Z</time></trkpt><trkpt lat="43.5038809" lon="12.2490165"><ele>341.0</ele><time>2026-05-02T08:43:01.765Z</time></trkpt><trkpt lat="43.5039574" lon="12.249159"><ele>341.75</ele><time>2026-05-02T08:43:02.77Z</time></trkpt><trkpt lat="43.5040351" lon="12.2493006"><ele>342.5</ele><time>2026-05-02T08:43:03.775Z</time></trkpt><trkpt lat="43.5041148" lon="12.2494344"><ele>343.25</ele><time>2026-05-02T08:43:04.766Z</time></trkpt><trkpt lat="43.5042052" lon="12.2495493"><ele>344.0</ele><time>2026-05-02T08:43:05.784Z</time></trkpt><trkpt lat="43.5042998" lon="12.2496542"><ele>344.0</ele><time>2026-05-02T08:43:06.765Z</time></trkpt><trkpt lat="43.5043975" lon="12.2497604"><ele>344.0</ele><time>2026-05-02T08:43:07.772Z</time></trkpt><trkpt lat="43.5044997" lon="12.2498743"><ele>344.0</ele><time>2026-05-02T08:43:08.774Z</time></trkpt><trkpt lat="43.5046074" lon="12.2499868"><ele>344.0</ele><time>2026-05-02T08:43:09.782Z</time></trkpt><trkpt lat="43.5047099" lon="12.2501008"><ele>344.5</ele><time>2026-05-02T08:43:10.767Z</time></trkpt><trkpt lat="43.5048118" lon="12.2502102"><ele>345.0</ele><time>2026-05-02T08:43:11.765Z</time></trkpt><trkpt lat="43.5049084" lon="12.2503216"><ele>345.5</ele><time>2026-05-02T08:43:12.772Z</time></trkpt><trkpt lat="43.5050035" lon="12.2504407"><ele>346.0</ele><time>2026-05-02T08:43:13.773Z</time></trkpt><trkpt lat="43.5050858" lon="12.2505785"><ele>346.75</ele><time>2026-05-02T08:43:14.759Z</time></trkpt><trkpt lat="43.5051706" lon="12.2507291"><ele>347.5</ele><time>2026-05-02T08:43:15.766Z</time></trkpt><trkpt lat="43.5052594" lon="12.2508857"><ele>348.25</ele><time>2026-05-02T08:43:16.766Z</time></trkpt><trkpt lat="43.505348" lon="12.2510446"><ele>349.0</ele><time>2026-05-02T08:43:17.775Z</time></trkpt><trkpt lat="43.5054412" lon="12.2511986"><ele>349.0</ele><time>2026-05-02T08:43:18.769Z</time></trkpt><trkpt lat="43.5055434" lon="12.2513461"><ele>349.0</ele><time>2026-05-02T08:43:19.763Z</time></trkpt><trkpt lat="43.5056461" lon="12.2514901"><ele>349.0</ele><time>2026-05-02T08:43:20.767Z</time></trkpt><trkpt lat="43.5057466" lon="12.2516327"><ele>349.0</ele><time>2026-05-02T08:43:21.772Z</time></trkpt><trkpt lat="43.5058316" lon="12.2517778"><ele>347.2</ele><time>2026-05-02T08:43:22.761Z</time></trkpt><trkpt lat="43.5059083" lon="12.2519071"><ele>345.4</ele><time>2026-05-02T08:43:23.763Z</time></trkpt><trkpt lat="43.505968" lon="12.2520271"><ele>343.6</ele><time>2026-05-02T08:43:24.755Z</time></trkpt><trkpt lat="43.506025" lon="12.2521388"><ele>341.8</ele><time>2026-05-02T08:43:25.776Z</time></trkpt><trkpt lat="43.5060714" lon="12.2522388"><ele>340.0</ele><time>2026-05-02T08:43:26.76Z</time></trkpt><trkpt lat="43.5060956" lon="12.2523368"><ele>339.2</ele><time>2026-05-02T08:43:27.765Z</time></trkpt><trkpt lat="43.5060921" lon="12.2524369"><ele>338.4</ele><time>2026-05-02T08:43:28.762Z</time></trkpt><trkpt lat="43.5060557" lon="12.2525433"><ele>337.6</ele><time>2026-05-02T08:43:29.777Z</time></trkpt><trkpt lat="43.5059862" lon="12.2526568"><ele>336.8</ele><time>2026-05-02T08:43:30.767Z</time></trkpt><trkpt lat="43.5058996" lon="12.2527763"><ele>336.0</ele><time>2026-05-02T08:43:31.777Z</time></trkpt><trkpt lat="43.5058085" lon="12.2528926"><ele>336.0</ele><time>2026-05-02T08:43:32.759Z</time></trkpt><trkpt lat="43.5057186" lon="12.252993"><ele>336.0</ele><time>2026-05-02T08:43:33.768Z</time></trkpt><trkpt lat="43.5056427" lon="12.2530803"><ele>336.0</ele><time>2026-05-02T08:43:34.766Z</time></trkpt><trkpt lat="43.5055673" lon="12.2531411"><ele>336.0</ele><time>2026-05-02T08:43:35.767Z</time></trkpt><trkpt lat="43.5054914" lon="12.2531772"><ele>336.0</ele><time>2026-05-02T08:43:36.761Z</time></trkpt><trkpt lat="43.5054197" lon="12.2531907"><ele>336.2857142857143</ele><time>2026-05-02T08:43:37.765Z</time></trkpt><trkpt lat="43.5053498" lon="12.2532052"><ele>336.57142857142856</ele><time>2026-05-02T08:43:38.754Z</time></trkpt><trkpt lat="43.5052747" lon="12.2532099"><ele>336.8571428571429</ele><time>2026-05-02T08:43:39.758Z</time></trkpt><trkpt lat="43.5051997" lon="12.2532144"><ele>337.1428571428571</ele><time>2026-05-02T08:43:40.77Z</time></trkpt><trkpt lat="43.5051314" lon="12.2532353"><ele>337.42857142857144</ele><time>2026-05-02T08:43:41.769Z</time></trkpt><trkpt lat="43.5050627" lon="12.2532766"><ele>337.7142857142857</ele><time>2026-05-02T08:43:42.761Z</time></trkpt><trkpt lat="43.5049989" lon="12.2533235"><ele>338.0</ele><time>2026-05-02T08:43:43.775Z</time></trkpt><trkpt lat="43.5049336" lon="12.2533701"><ele>338.0</ele><time>2026-05-02T08:43:44.769Z</time></trkpt><trkpt lat="43.5048623" lon="12.2533996"><ele>338.0</ele><time>2026-05-02T08:43:45.762Z</time></trkpt><trkpt lat="43.504781" lon="12.2534135"><ele>338.0</ele><time>2026-05-02T08:43:46.761Z</time></trkpt><trkpt lat="43.5046858" lon="12.2534066"><ele>338.0</ele><time>2026-05-02T08:43:47.769Z</time></trkpt><trkpt lat="43.5045822" lon="12.253385"><ele>338.0</ele><time>2026-05-02T08:43:48.758Z</time></trkpt><trkpt lat="43.5044747" lon="12.2533578"><ele>338.0</ele><time>2026-05-02T08:43:49.766Z</time></trkpt><trkpt lat="43.5043611" lon="12.2533327"><ele>338.0</ele><time>2026-05-02T08:43:50.766Z</time></trkpt><trkpt lat="43.504242" lon="12.2533115"><ele>338.0</ele><time>2026-05-02T08:43:51.768Z</time></trkpt><trkpt lat="43.5041233" lon="12.2532878"><ele>338.0</ele><time>2026-05-02T08:43:52.765Z</time></trkpt><trkpt lat="43.5040064" lon="12.2532788"><ele>338.0</ele><time>2026-05-02T08:43:53.769Z</time></trkpt><trkpt lat="43.503907" lon="12.2532662"><ele>338.0</ele><time>2026-05-02T08:43:54.767Z</time></trkpt><trkpt lat="43.5038243" lon="12.2532539"><ele>338.0</ele><time>2026-05-02T08:43:55.765Z</time></trkpt><trkpt lat="43.5037158" lon="12.253253"><ele>338.0</ele><time>2026-05-02T08:43:57.759Z</time></trkpt><trkpt lat="43.5036571" lon="12.2533264"><ele>338.0</ele><time>2026-05-02T08:43:59.758Z</time></trkpt><trkpt lat="43.5036872" lon="12.2534503"><ele>338.0</ele><time>2026-05-02T08:44:01.774Z</time></trkpt><trkpt lat="43.503732" lon="12.2535272"><ele>338.0</ele><time>2026-05-02T08:44:02.758Z</time></trkpt><trkpt lat="43.5037939" lon="12.2536032"><ele>338.0</ele><time>2026-05-02T08:44:03.759Z</time></trkpt><trkpt lat="43.5038509" lon="12.2536893"><ele>338.0</ele><time>2026-05-02T08:44:04.754Z</time></trkpt><trkpt lat="43.5039225" lon="12.2538134"><ele>338.0</ele><time>2026-05-02T08:44:05.766Z</time></trkpt><trkpt lat="43.5039989" lon="12.253945"><ele>339.75</ele><time>2026-05-02T08:44:06.764Z</time></trkpt><trkpt lat="43.5040567" lon="12.2540844"><ele>341.5</ele><time>2026-05-02T08:44:07.763Z</time></trkpt><trkpt lat="43.5041278" lon="12.2542343"><ele>343.25</ele><time>2026-05-02T08:44:08.766Z</time></trkpt><trkpt lat="43.5042052" lon="12.2543672"><ele>345.0</ele><time>2026-05-02T08:44:09.781Z</time></trkpt><trkpt lat="43.5042945" lon="12.2545045"><ele>345.0</ele><time>2026-05-02T08:44:10.764Z</time></trkpt><trkpt lat="43.5043803" lon="12.2546343"><ele>345.0</ele><time>2026-05-02T08:44:11.762Z</time></trkpt><trkpt lat="43.5044691" lon="12.2547653"><ele>345.0</ele><time>2026-05-02T08:44:12.762Z</time></trkpt><trkpt lat="43.5045725" lon="12.2548721"><ele>345.0</ele><time>2026-05-02T08:44:13.775Z</time></trkpt><trkpt lat="43.5046822" lon="12.2549919"><ele>344.5</ele><time>2026-05-02T08:44:14.768Z</time></trkpt><trkpt lat="43.5048036" lon="12.255093"><ele>344.0</ele><time>2026-05-02T08:44:15.769Z</time></trkpt><trkpt lat="43.5049283" lon="12.2551985"><ele>343.5</ele><time>2026-05-02T08:44:16.758Z</time></trkpt><trkpt lat="43.5050562" lon="12.2553017"><ele>343.0</ele><time>2026-05-02T08:44:17.762Z</time></trkpt><trkpt lat="43.5051843" lon="12.2554052"><ele>343.0</ele><time>2026-05-02T08:44:18.762Z</time></trkpt><trkpt lat="43.5053094" lon="12.2555114"><ele>343.0</ele><time>2026-05-02T08:44:19.769Z</time></trkpt><trkpt lat="43.5054353" lon="12.2556255"><ele>343.0</ele><time>2026-05-02T08:44:20.766Z</time></trkpt><trkpt lat="43.5055594" lon="12.2557383"><ele>343.0</ele><time>2026-05-02T08:44:21.764Z</time></trkpt><trkpt lat="43.5056804" lon="12.2558594"><ele>343.25</ele><time>2026-05-02T08:44:22.762Z</time></trkpt><trkpt lat="43.5057937" lon="12.2559904"><ele>343.5</ele><time>2026-05-02T08:44:23.779Z</time></trkpt><trkpt lat="43.5058937" lon="12.2561365"><ele>343.75</ele><time>2026-05-02T08:44:24.757Z</time></trkpt><trkpt lat="43.505982" lon="12.2562968"><ele>344.0</ele><time>2026-05-02T08:44:25.753Z</time></trkpt><trkpt lat="43.5060672" lon="12.2564652"><ele>344.25</ele><time>2026-05-02T08:44:26.768Z</time></trkpt><trkpt lat="43.5061426" lon="12.2566462"><ele>344.5</ele><time>2026-05-02T08:44:27.756Z</time></trkpt><trkpt lat="43.5062122" lon="12.2568259"><ele>344.75</ele><time>2026-05-02T08:44:28.766Z</time></trkpt><trkpt lat="43.5062859" lon="12.2569994"><ele>345.0</ele><time>2026-05-02T08:44:29.769Z</time></trkpt><trkpt lat="43.5063581" lon="12.2571629"><ele>345.75</ele><time>2026-05-02T08:44:30.76Z</time></trkpt><trkpt lat="43.5064331" lon="12.2573277"><ele>346.5</ele><time>2026-05-02T08:44:31.767Z</time></trkpt><trkpt lat="43.5065058" lon="12.2574835"><ele>347.25</ele><time>2026-05-02T08:44:32.768Z</time></trkpt><trkpt lat="43.5065691" lon="12.2576315"><ele>348.0</ele><time>2026-05-02T08:44:33.755Z</time></trkpt><trkpt lat="43.5066194" lon="12.2577777"><ele>348.0</ele><time>2026-05-02T08:44:34.752Z</time></trkpt><trkpt lat="43.5066526" lon="12.2579239"><ele>348.0</ele><time>2026-05-02T08:44:35.765Z</time></trkpt><trkpt lat="43.506665" lon="12.2580842"><ele>348.0</ele><time>2026-05-02T08:44:36.764Z</time></trkpt><trkpt lat="43.5066415" lon="12.2582502"><ele>348.0</ele><time>2026-05-02T08:44:37.765Z</time></trkpt><trkpt lat="43.5066074" lon="12.2584051"><ele>348.75</ele><time>2026-05-02T08:44:38.755Z</time></trkpt><trkpt lat="43.5065697" lon="12.2585735"><ele>349.5</ele><time>2026-05-02T08:44:39.77Z</time></trkpt><trkpt lat="43.5065478" lon="12.2587504"><ele>350.25</ele><time>2026-05-02T08:44:40.766Z</time></trkpt><trkpt lat="43.5065487" lon="12.2589328"><ele>351.0</ele><time>2026-05-02T08:44:41.764Z</time></trkpt><trkpt lat="43.50656" lon="12.2591098"><ele>352.5</ele><time>2026-05-02T08:44:42.76Z</time></trkpt><trkpt lat="43.5065982" lon="12.2592878"><ele>354.0</ele><time>2026-05-02T08:44:43.755Z</time></trkpt><trkpt lat="43.5066655" lon="12.2594505"><ele>355.5</ele><time>2026-05-02T08:44:44.759Z</time></trkpt><trkpt lat="43.5067393" lon="12.2595957"><ele>357.0</ele><time>2026-05-02T08:44:45.761Z</time></trkpt><trkpt lat="43.5067912" lon="12.2597437"><ele>359.20000000000005</ele><time>2026-05-02T08:44:46.761Z</time></trkpt><trkpt lat="43.5068151" lon="12.2599027"><ele>361.4</ele><time>2026-05-02T08:44:47.76Z</time></trkpt><trkpt lat="43.5068266" lon="12.2600548"><ele>363.6</ele><time>2026-05-02T08:44:48.762Z</time></trkpt><trkpt lat="43.5068379" lon="12.2601907"><ele>365.79999999999995</ele><time>2026-05-02T08:44:49.766Z</time></trkpt><trkpt lat="43.5068417" lon="12.2603127"><ele>368.0</ele><time>2026-05-02T08:44:50.762Z</time></trkpt><trkpt lat="43.5068401" lon="12.2604137"><ele>368.0</ele><time>2026-05-02T08:44:51.763Z</time></trkpt><trkpt lat="43.5068591" lon="12.260521"><ele>368.0</ele><time>2026-05-02T08:44:53.76Z</time></trkpt><trkpt lat="43.5069687" lon="12.2605575"><ele>368.0</ele><time>2026-05-02T08:47:43.759Z</time></trkpt><trkpt lat="43.5070631" lon="12.2605546"><ele>368.0</ele><time>2026-05-02T08:47:44.764Z</time></trkpt><trkpt lat="43.5071776" lon="12.2605383"><ele>368.0</ele><time>2026-05-02T08:47:45.76Z</time></trkpt><trkpt lat="43.5073008" lon="12.2604975"><ele>363.5</ele><time>2026-05-02T08:47:46.747Z</time></trkpt><trkpt lat="43.5074161" lon="12.2604371"><ele>359.0</ele><time>2026-05-02T08:47:47.764Z</time></trkpt><trkpt lat="43.5075286" lon="12.2603658"><ele>354.5</ele><time>2026-05-02T08:47:48.757Z</time></trkpt><trkpt lat="43.5076526" lon="12.2602971"><ele>350.0</ele><time>2026-05-02T08:47:49.772Z</time></trkpt><trkpt lat="43.5077857" lon="12.2602485"><ele>352.5</ele><time>2026-05-02T08:47:50.759Z</time></trkpt><trkpt lat="43.5079184" lon="12.2602347"><ele>355.0</ele><time>2026-05-02T08:47:51.758Z</time></trkpt><trkpt lat="43.5080314" lon="12.260275"><ele>357.5</ele><time>2026-05-02T08:47:52.766Z</time></trkpt><trkpt lat="43.5081191" lon="12.2603658"><ele>360.0</ele><time>2026-05-02T08:47:53.759Z</time></trkpt><trkpt lat="43.5081705" lon="12.2605074"><ele>360.25</ele><time>2026-05-02T08:47:54.77Z</time></trkpt><trkpt lat="43.5081981" lon="12.2606918"><ele>360.5</ele><time>2026-05-02T08:47:55.77Z</time></trkpt><trkpt lat="43.508225" lon="12.2608885"><ele>360.75</ele><time>2026-05-02T08:47:56.762Z</time></trkpt><trkpt lat="43.5082541" lon="12.2611064"><ele>361.0</ele><time>2026-05-02T08:47:57.774Z</time></trkpt><trkpt lat="43.508313" lon="12.2613124"><ele>361.5</ele><time>2026-05-02T08:47:58.774Z</time></trkpt><trkpt lat="43.5083733" lon="12.2615069"><ele>362.0</ele><time>2026-05-02T08:47:59.78Z</time></trkpt><trkpt lat="43.5084154" lon="12.2616925"><ele>362.5</ele><time>2026-05-02T08:48:00.769Z</time></trkpt><trkpt lat="43.5084282" lon="12.2618804"><ele>363.0</ele><time>2026-05-02T08:48:01.777Z</time></trkpt><trkpt lat="43.5084302" lon="12.2620754"><ele>363.3333333333333</ele><time>2026-05-02T08:48:02.763Z</time></trkpt><trkpt lat="43.50843" lon="12.2622834"><ele>363.66666666666663</ele><time>2026-05-02T08:48:03.763Z</time></trkpt><trkpt lat="43.5084326" lon="12.2624945"><ele>364.0</ele><time>2026-05-02T08:48:04.767Z</time></trkpt><trkpt lat="43.50845" lon="12.2627084"><ele>364.0</ele><time>2026-05-02T08:48:05.768Z</time></trkpt><trkpt lat="43.5084764" lon="12.2629216"><ele>364.0</ele><time>2026-05-02T08:48:06.757Z</time></trkpt><trkpt lat="43.5085008" lon="12.2631229"><ele>364.0</ele><time>2026-05-02T08:48:07.765Z</time></trkpt><trkpt lat="43.5084998" lon="12.2633077"><ele>364.0</ele><time>2026-05-02T08:48:08.773Z</time></trkpt><trkpt lat="43.5084668" lon="12.2634768"><ele>363.5</ele><time>2026-05-02T08:48:09.769Z</time></trkpt><trkpt lat="43.5083883" lon="12.2636342"><ele>363.0</ele><time>2026-05-02T08:48:10.756Z</time></trkpt><trkpt lat="43.5082938" lon="12.263779"><ele>362.5</ele><time>2026-05-02T08:48:11.77Z</time></trkpt><trkpt lat="43.508206" lon="12.2639249"><ele>362.0</ele><time>2026-05-02T08:48:12.776Z</time></trkpt><trkpt lat="43.5081279" lon="12.2640725"><ele>363.75</ele><time>2026-05-02T08:48:13.758Z</time></trkpt><trkpt lat="43.5080531" lon="12.2642436"><ele>365.5</ele><time>2026-05-02T08:48:14.768Z</time></trkpt><trkpt lat="43.5079999" lon="12.2644273"><ele>367.25</ele><time>2026-05-02T08:48:15.769Z</time></trkpt><trkpt lat="43.5079692" lon="12.2646264"><ele>369.0</ele><time>2026-05-02T08:48:16.772Z</time></trkpt><trkpt lat="43.507942" lon="12.2648367"><ele>365.3333333333333</ele><time>2026-05-02T08:48:17.77Z</time></trkpt><trkpt lat="43.5079132" lon="12.2650439"><ele>361.66666666666663</ele><time>2026-05-02T08:48:18.768Z</time></trkpt><trkpt lat="43.5078829" lon="12.2652484"><ele>358.0</ele><time>2026-05-02T08:48:19.765Z</time></trkpt><trkpt lat="43.5078567" lon="12.2654521"><ele>358.66666666666663</ele><time>2026-05-02T08:48:20.777Z</time></trkpt><trkpt lat="43.5078303" lon="12.2656573"><ele>359.3333333333333</ele><time>2026-05-02T08:48:21.773Z</time></trkpt><trkpt lat="43.5078022" lon="12.2658622"><ele>360.0</ele><time>2026-05-02T08:48:22.774Z</time></trkpt><trkpt lat="43.5077773" lon="12.2660732"><ele>360.0</ele><time>2026-05-02T08:48:23.766Z</time></trkpt><trkpt lat="43.5077549" lon="12.2662854"><ele>360.0</ele><time>2026-05-02T08:48:24.769Z</time></trkpt><trkpt lat="43.5077343" lon="12.2665045"><ele>360.0</ele><time>2026-05-02T08:48:25.773Z</time></trkpt><trkpt lat="43.5077298" lon="12.266732"><ele>360.3333333333333</ele><time>2026-05-02T08:48:26.767Z</time></trkpt><trkpt lat="43.5077347" lon="12.2669636"><ele>360.66666666666663</ele><time>2026-05-02T08:48:27.783Z</time></trkpt><trkpt lat="43.5077388" lon="12.2671968"><ele>361.0</ele><time>2026-05-02T08:48:28.766Z</time></trkpt><trkpt lat="43.5077291" lon="12.2674296"><ele>363.0</ele><time>2026-05-02T08:48:29.768Z</time></trkpt><trkpt lat="43.5077026" lon="12.2676588"><ele>365.0</ele><time>2026-05-02T08:48:30.758Z</time></trkpt><trkpt lat="43.50767" lon="12.2678769"><ele>367.0</ele><time>2026-05-02T08:48:31.78Z</time></trkpt><trkpt lat="43.5076289" lon="12.2680711"><ele>368.20000000000005</ele><time>2026-05-02T08:48:32.764Z</time></trkpt><trkpt lat="43.5075904" lon="12.2682349"><ele>369.4</ele><time>2026-05-02T08:48:33.771Z</time></trkpt><trkpt lat="43.507554" lon="12.268366"><ele>370.6</ele><time>2026-05-02T08:48:34.763Z</time></trkpt><trkpt lat="43.507517" lon="12.2684716"><ele>371.79999999999995</ele><time>2026-05-02T08:48:35.772Z</time></trkpt><trkpt lat="43.5074724" lon="12.2685605"><ele>373.0</ele><time>2026-05-02T08:48:36.766Z</time></trkpt><trkpt lat="43.5074156" lon="12.2686607"><ele>373.0</ele><time>2026-05-02T08:48:37.778Z</time></trkpt><trkpt lat="43.5073469" lon="12.2687717"><ele>373.0</ele><time>2026-05-02T08:48:38.768Z</time></trkpt><trkpt lat="43.5072607" lon="12.2688855"><ele>373.0</ele><time>2026-05-02T08:48:39.776Z</time></trkpt><trkpt lat="43.5071732" lon="12.269014"><ele>373.0</ele><time>2026-05-02T08:48:40.763Z</time></trkpt><trkpt lat="43.5070828" lon="12.2691507"><ele>372.25</ele><time>2026-05-02T08:48:41.762Z</time></trkpt><trkpt lat="43.5069888" lon="12.2692958"><ele>371.5</ele><time>2026-05-02T08:48:42.763Z</time></trkpt><trkpt lat="43.5068885" lon="12.2694469"><ele>370.75</ele><time>2026-05-02T08:48:43.776Z</time></trkpt><trkpt lat="43.506788" lon="12.2695965"><ele>370.0</ele><time>2026-05-02T08:48:44.756Z</time></trkpt><trkpt lat="43.5066878" lon="12.269751"><ele>372.3333333333333</ele><time>2026-05-02T08:48:45.774Z</time></trkpt><trkpt lat="43.5065822" lon="12.2699117"><ele>374.6666666666667</ele><time>2026-05-02T08:48:46.762Z</time></trkpt><trkpt lat="43.5064784" lon="12.2700718"><ele>377.0</ele><time>2026-05-02T08:48:47.778Z</time></trkpt><trkpt lat="43.506376" lon="12.2702191"><ele>377.0</ele><time>2026-05-02T08:48:48.765Z</time></trkpt><trkpt lat="43.5062823" lon="12.2703456"><ele>377.0</ele><time>2026-05-02T08:48:49.765Z</time></trkpt><trkpt lat="43.5061833" lon="12.2704353"><ele>377.0</ele><time>2026-05-02T08:48:50.766Z</time></trkpt><trkpt lat="43.5060855" lon="12.2704832"><ele>377.0</ele><time>2026-05-02T08:48:51.771Z</time></trkpt><trkpt lat="43.5059863" lon="12.2704948"><ele>375.8</ele><time>2026-05-02T08:48:52.765Z</time></trkpt><trkpt lat="43.5058941" lon="12.2704931"><ele>374.6</ele><time>2026-05-02T08:48:53.769Z</time></trkpt><trkpt lat="43.5057865" lon="12.2705132"><ele>373.40000000000003</ele><time>2026-05-02T08:48:54.769Z</time></trkpt><trkpt lat="43.50567" lon="12.2705534"><ele>372.20000000000005</ele><time>2026-05-02T08:48:55.787Z</time></trkpt><trkpt lat="43.5055519" lon="12.2706163"><ele>371.0</ele><time>2026-05-02T08:48:56.763Z</time></trkpt><trkpt lat="43.5054288" lon="12.2706832"><ele>371.25</ele><time>2026-05-02T08:48:57.784Z</time></trkpt><trkpt lat="43.5053059" lon="12.2707639"><ele>371.5</ele><time>2026-05-02T08:48:58.762Z</time></trkpt><trkpt lat="43.5051918" lon="12.2708534"><ele>371.75</ele><time>2026-05-02T08:48:59.767Z</time></trkpt><trkpt lat="43.5050839" lon="12.2709475"><ele>372.0</ele><time>2026-05-02T08:49:00.758Z</time></trkpt><trkpt lat="43.5049824" lon="12.2710558"><ele>372.0</ele><time>2026-05-02T08:49:01.754Z</time></trkpt><trkpt lat="43.5048815" lon="12.2711753"><ele>372.0</ele><time>2026-05-02T08:49:02.756Z</time></trkpt><trkpt lat="43.5047819" lon="12.2712934"><ele>372.0</ele><time>2026-05-02T08:49:03.77Z</time></trkpt><trkpt lat="43.504689" lon="12.2714202"><ele>372.0</ele><time>2026-05-02T08:49:04.762Z</time></trkpt><trkpt lat="43.5045922" lon="12.2715547"><ele>371.75</ele><time>2026-05-02T08:49:05.772Z</time></trkpt><trkpt lat="43.5044959" lon="12.2716971"><ele>371.5</ele><time>2026-05-02T08:49:06.76Z</time></trkpt><trkpt lat="43.5044019" lon="12.2718357"><ele>371.25</ele><time>2026-05-02T08:49:07.767Z</time></trkpt><trkpt lat="43.5043075" lon="12.2719857"><ele>371.0</ele><time>2026-05-02T08:49:08.771Z</time></trkpt><trkpt lat="43.5042078" lon="12.2721429"><ele>374.6666666666667</ele><time>2026-05-02T08:49:09.769Z</time></trkpt><trkpt lat="43.5041016" lon="12.2723105"><ele>378.3333333333333</ele><time>2026-05-02T08:49:10.752Z</time></trkpt><trkpt lat="43.5039955" lon="12.2724773"><ele>382.0</ele><time>2026-05-02T08:49:11.774Z</time></trkpt><trkpt lat="43.5038858" lon="12.2726437"><ele>382.0</ele><time>2026-05-02T08:49:12.753Z</time></trkpt><trkpt lat="43.5037867" lon="12.2728089"><ele>382.0</ele><time>2026-05-02T08:49:13.766Z</time></trkpt><trkpt lat="43.5037006" lon="12.272987"><ele>382.0</ele><time>2026-05-02T08:49:14.764Z</time></trkpt><trkpt lat="43.5036292" lon="12.2731794"><ele>381.0</ele><time>2026-05-02T08:49:15.763Z</time></trkpt><trkpt lat="43.5035599" lon="12.2733854"><ele>380.0</ele><time>2026-05-02T08:49:16.759Z</time></trkpt><trkpt lat="43.5034916" lon="12.2735976"><ele>379.0</ele><time>2026-05-02T08:49:17.758Z</time></trkpt><trkpt lat="43.5034245" lon="12.2738205"><ele>380.3333333333333</ele><time>2026-05-02T08:49:18.757Z</time></trkpt><trkpt lat="43.503361" lon="12.2740273"><ele>381.6666666666667</ele><time>2026-05-02T08:49:19.758Z</time></trkpt><trkpt lat="43.5033096" lon="12.2742206"><ele>383.0</ele><time>2026-05-02T08:49:20.758Z</time></trkpt><trkpt lat="43.5032671" lon="12.2744141"><ele>383.0</ele><time>2026-05-02T08:49:21.759Z</time></trkpt><trkpt lat="43.5032142" lon="12.2746055"><ele>383.0</ele><time>2026-05-02T08:49:22.757Z</time></trkpt><trkpt lat="43.5031313" lon="12.2747903"><ele>383.0</ele><time>2026-05-02T08:49:23.77Z</time></trkpt><trkpt lat="43.5030276" lon="12.2749806"><ele>380.33333333333337</ele><time>2026-05-02T08:49:24.767Z</time></trkpt><trkpt lat="43.5029138" lon="12.2751752"><ele>377.6666666666667</ele><time>2026-05-02T08:49:25.772Z</time></trkpt><trkpt lat="43.5027983" lon="12.2753632"><ele>375.0</ele><time>2026-05-02T08:49:26.761Z</time></trkpt><trkpt lat="43.5026868" lon="12.2755436"><ele>377.3333333333333</ele><time>2026-05-02T08:49:27.758Z</time></trkpt><trkpt lat="43.5025914" lon="12.2757188"><ele>379.66666666666663</ele><time>2026-05-02T08:49:28.764Z</time></trkpt><trkpt lat="43.5024992" lon="12.2759012"><ele>382.0</ele><time>2026-05-02T08:49:29.778Z</time></trkpt><trkpt lat="43.5024214" lon="12.2760986"><ele>382.0</ele><time>2026-05-02T08:49:30.761Z</time></trkpt><trkpt lat="43.5023503" lon="12.2763056"><ele>382.0</ele><time>2026-05-02T08:49:31.771Z</time></trkpt><trkpt lat="43.5022775" lon="12.276517"><ele>382.0</ele><time>2026-05-02T08:49:32.76Z</time></trkpt><trkpt lat="43.5022032" lon="12.276735"><ele>382.66666666666663</ele><time>2026-05-02T08:49:33.773Z</time></trkpt><trkpt lat="43.5021304" lon="12.2769525"><ele>383.3333333333333</ele><time>2026-05-02T08:49:34.761Z</time></trkpt><trkpt lat="43.5020571" lon="12.2771607"><ele>384.0</ele><time>2026-05-02T08:49:35.77Z</time></trkpt><trkpt lat="43.5019871" lon="12.2773626"><ele>382.6666666666667</ele><time>2026-05-02T08:49:36.762Z</time></trkpt><trkpt lat="43.5019282" lon="12.2775663"><ele>381.33333333333337</ele><time>2026-05-02T08:49:37.785Z</time></trkpt><trkpt lat="43.5018804" lon="12.277783"><ele>380.0</ele><time>2026-05-02T08:49:38.762Z</time></trkpt><trkpt lat="43.5018454" lon="12.2780046"><ele>381.0</ele><time>2026-05-02T08:49:39.775Z</time></trkpt><trkpt lat="43.501821" lon="12.2782259"><ele>382.0</ele><time>2026-05-02T08:49:40.763Z</time></trkpt><trkpt lat="43.5017908" lon="12.2784595"><ele>383.0</ele><time>2026-05-02T08:49:41.77Z</time></trkpt><trkpt lat="43.5017552" lon="12.2787003"><ele>385.6666666666667</ele><time>2026-05-02T08:49:42.777Z</time></trkpt><trkpt lat="43.501717" lon="12.2789405"><ele>388.33333333333337</ele><time>2026-05-02T08:49:43.786Z</time></trkpt><trkpt lat="43.50168" lon="12.2791707"><ele>391.0</ele><time>2026-05-02T08:49:44.778Z</time></trkpt><trkpt lat="43.5016526" lon="12.2793842"><ele>391.0</ele><time>2026-05-02T08:49:45.776Z</time></trkpt><trkpt lat="43.5016418" lon="12.2795969"><ele>391.0</ele><time>2026-05-02T08:49:46.757Z</time></trkpt><trkpt lat="43.5016475" lon="12.2798129"><ele>391.0</ele><time>2026-05-02T08:49:47.774Z</time></trkpt><trkpt lat="43.5016605" lon="12.2800332"><ele>392.6666666666667</ele><time>2026-05-02T08:49:48.767Z</time></trkpt><trkpt lat="43.5016501" lon="12.2802557"><ele>394.33333333333337</ele><time>2026-05-02T08:49:49.783Z</time></trkpt><trkpt lat="43.5016237" lon="12.2804787"><ele>396.0</ele><time>2026-05-02T08:49:50.769Z</time></trkpt><trkpt lat="43.5015833" lon="12.2806967"><ele>397.33333333333337</ele><time>2026-05-02T08:49:51.782Z</time></trkpt><trkpt lat="43.50153" lon="12.2809149"><ele>398.6666666666667</ele><time>2026-05-02T08:49:52.764Z</time></trkpt><trkpt lat="43.5014733" lon="12.2811319"><ele>400.0</ele><time>2026-05-02T08:49:53.764Z</time></trkpt><trkpt lat="43.5014264" lon="12.2813523"><ele>403.0</ele><time>2026-05-02T08:49:54.777Z</time></trkpt><trkpt lat="43.5013974" lon="12.2815773"><ele>406.0</ele><time>2026-05-02T08:49:55.783Z</time></trkpt><trkpt lat="43.5013778" lon="12.2818019"><ele>409.0</ele><time>2026-05-02T08:49:56.765Z</time></trkpt><trkpt lat="43.501353" lon="12.2820224"><ele>409.0</ele><time>2026-05-02T08:49:57.778Z</time></trkpt><trkpt lat="43.5013388" lon="12.2822201"><ele>409.0</ele><time>2026-05-02T08:49:58.767Z</time></trkpt><trkpt lat="43.5013331" lon="12.2823977"><ele>409.0</ele><time>2026-05-02T08:49:59.766Z</time></trkpt><trkpt lat="43.5013427" lon="12.2825695"><ele>409.0</ele><time>2026-05-02T08:50:00.759Z</time></trkpt><trkpt lat="43.5013704" lon="12.282745"><ele>409.0</ele><time>2026-05-02T08:50:01.767Z</time></trkpt><trkpt lat="43.5014067" lon="12.2829255"><ele>409.0</ele><time>2026-05-02T08:50:02.77Z</time></trkpt><trkpt lat="43.5014562" lon="12.2830908"><ele>409.0</ele><time>2026-05-02T08:50:03.769Z</time></trkpt><trkpt lat="43.5015217" lon="12.2832447"><ele>409.0</ele><time>2026-05-02T08:50:04.763Z</time></trkpt><trkpt lat="43.5016029" lon="12.2833951"><ele>409.0</ele><time>2026-05-02T08:50:05.768Z</time></trkpt><trkpt lat="43.5016924" lon="12.2835532"><ele>409.0</ele><time>2026-05-02T08:50:06.769Z</time></trkpt><trkpt lat="43.5017821" lon="12.2837093"><ele>409.0</ele><time>2026-05-02T08:50:07.771Z</time></trkpt><trkpt lat="43.5018765" lon="12.2838436"><ele>409.0</ele><time>2026-05-02T08:50:08.769Z</time></trkpt><trkpt lat="43.501961" lon="12.2839468"><ele>408.6666666666667</ele><time>2026-05-02T08:50:09.761Z</time></trkpt><trkpt lat="43.5020605" lon="12.2840254"><ele>408.33333333333337</ele><time>2026-05-02T08:50:10.768Z</time></trkpt><trkpt lat="43.5021544" lon="12.2840799"><ele>408.0</ele><time>2026-05-02T08:50:11.755Z</time></trkpt><trkpt lat="43.5022347" lon="12.2841026"><ele>407.66666666666663</ele><time>2026-05-02T08:50:12.763Z</time></trkpt><trkpt lat="43.5023076" lon="12.284115"><ele>407.3333333333333</ele><time>2026-05-02T08:50:13.763Z</time></trkpt><trkpt lat="43.5023755" lon="12.2841398"><ele>407.0</ele><time>2026-05-02T08:50:14.764Z</time></trkpt><trkpt lat="43.5024443" lon="12.284192"><ele>407.0</ele><time>2026-05-02T08:50:15.765Z</time></trkpt><trkpt lat="43.5025292" lon="12.2842662"><ele>407.0</ele><time>2026-05-02T08:50:16.766Z</time></trkpt><trkpt lat="43.5026164" lon="12.2843781"><ele>407.0</ele><time>2026-05-02T08:50:17.772Z</time></trkpt><trkpt lat="43.5027" lon="12.2845077"><ele>407.0</ele><time>2026-05-02T08:50:18.757Z</time></trkpt><trkpt lat="43.502786" lon="12.2846378"><ele>405.25</ele><time>2026-05-02T08:50:19.774Z</time></trkpt><trkpt lat="43.5028679" lon="12.2847684"><ele>403.5</ele><time>2026-05-02T08:50:20.758Z</time></trkpt><trkpt lat="43.5029577" lon="12.2848915"><ele>401.75</ele><time>2026-05-02T08:50:21.768Z</time></trkpt><trkpt lat="43.5030476" lon="12.2850071"><ele>400.0</ele><time>2026-05-02T08:50:22.767Z</time></trkpt><trkpt lat="43.5031602" lon="12.2851236"><ele>404.75</ele><time>2026-05-02T08:50:23.783Z</time></trkpt><trkpt lat="43.5032718" lon="12.2852232"><ele>409.5</ele><time>2026-05-02T08:50:24.772Z</time></trkpt><trkpt lat="43.503393" lon="12.2853138"><ele>414.25</ele><time>2026-05-02T08:50:25.768Z</time></trkpt><trkpt lat="43.503534" lon="12.2853971"><ele>419.0</ele><time>2026-05-02T08:50:26.76Z</time></trkpt><trkpt lat="43.5036848" lon="12.2854765"><ele>423.66666666666663</ele><time>2026-05-02T08:50:27.774Z</time></trkpt><trkpt lat="43.5038519" lon="12.2855274"><ele>428.33333333333337</ele><time>2026-05-02T08:50:28.769Z</time></trkpt><trkpt lat="43.5040226" lon="12.2855518"><ele>433.0</ele><time>2026-05-02T08:50:29.78Z</time></trkpt><trkpt lat="43.504185" lon="12.2855669"><ele>433.0</ele><time>2026-05-02T08:50:30.769Z</time></trkpt><trkpt lat="43.5043368" lon="12.2855894"><ele>433.0</ele><time>2026-05-02T08:50:31.767Z</time></trkpt><trkpt lat="43.5044774" lon="12.2856162"><ele>433.0</ele><time>2026-05-02T08:50:32.759Z</time></trkpt><trkpt lat="43.5046147" lon="12.2856408"><ele>433.0</ele><time>2026-05-02T08:50:33.777Z</time></trkpt><trkpt lat="43.5047538" lon="12.2856569"><ele>429.0</ele><time>2026-05-02T08:50:34.759Z</time></trkpt><trkpt lat="43.504895" lon="12.285663"><ele>425.0</ele><time>2026-05-02T08:50:35.78Z</time></trkpt><trkpt lat="43.5050338" lon="12.2856796"><ele>421.0</ele><time>2026-05-02T08:50:36.764Z</time></trkpt><trkpt lat="43.5051775" lon="12.2857109"><ele>417.0</ele><time>2026-05-02T08:50:37.78Z</time></trkpt><trkpt lat="43.5053231" lon="12.2857586"><ele>420.66666666666663</ele><time>2026-05-02T08:50:38.768Z</time></trkpt><trkpt lat="43.5054707" lon="12.2858291"><ele>424.3333333333333</ele><time>2026-05-02T08:50:39.771Z</time></trkpt><trkpt lat="43.5056252" lon="12.2859337"><ele>428.0</ele><time>2026-05-02T08:50:40.773Z</time></trkpt><trkpt lat="43.5057702" lon="12.2860725"><ele>428.0</ele><time>2026-05-02T08:50:41.774Z</time></trkpt><trkpt lat="43.5059222" lon="12.2862203"><ele>428.0</ele><time>2026-05-02T08:50:42.77Z</time></trkpt><trkpt lat="43.506075" lon="12.2863764"><ele>428.0</ele><time>2026-05-02T08:50:43.764Z</time></trkpt><trkpt lat="43.5062312" lon="12.2865418"><ele>426.0</ele><time>2026-05-02T08:50:44.76Z</time></trkpt><trkpt lat="43.5063856" lon="12.2867135"><ele>424.0</ele><time>2026-05-02T08:50:45.772Z</time></trkpt><trkpt lat="43.5065433" lon="12.2868828"><ele>422.0</ele><time>2026-05-02T08:50:46.759Z</time></trkpt><trkpt lat="43.5067025" lon="12.2870521"><ele>422.0</ele><time>2026-05-02T08:50:47.776Z</time></trkpt><trkpt lat="43.5068539" lon="12.2872073"><ele>422.0</ele><time>2026-05-02T08:50:48.764Z</time></trkpt><trkpt lat="43.506996" lon="12.2873502"><ele>422.0</ele><time>2026-05-02T08:50:49.776Z</time></trkpt><trkpt lat="43.507123" lon="12.2874991"><ele>421.0</ele><time>2026-05-02T08:50:50.771Z</time></trkpt><trkpt lat="43.507237" lon="12.2876717"><ele>420.0</ele><time>2026-05-02T08:50:51.771Z</time></trkpt><trkpt lat="43.5073488" lon="12.2878609"><ele>419.0</ele><time>2026-05-02T08:50:52.771Z</time></trkpt><trkpt lat="43.5074708" lon="12.2880579"><ele>418.0</ele><time>2026-05-02T08:50:53.773Z</time></trkpt><trkpt lat="43.5076" lon="12.2882569"><ele>417.0</ele><time>2026-05-02T08:50:54.764Z</time></trkpt><trkpt lat="43.5077244" lon="12.2884514"><ele>416.0</ele><time>2026-05-02T08:50:55.772Z</time></trkpt><trkpt lat="43.5078364" lon="12.2886279"><ele>419.66666666666663</ele><time>2026-05-02T08:50:56.766Z</time></trkpt><trkpt lat="43.5079215" lon="12.2888074"><ele>423.33333333333337</ele><time>2026-05-02T08:50:57.784Z</time></trkpt><trkpt lat="43.5079803" lon="12.2890076"><ele>427.0</ele><time>2026-05-02T08:50:58.782Z</time></trkpt><trkpt lat="43.508025" lon="12.2892315"><ele>427.0</ele><time>2026-05-02T08:50:59.779Z</time></trkpt><trkpt lat="43.5080586" lon="12.2894612"><ele>427.0</ele><time>2026-05-02T08:51:00.769Z</time></trkpt><trkpt lat="43.5080998" lon="12.2896905"><ele>427.0</ele><time>2026-05-02T08:51:01.786Z</time></trkpt><trkpt lat="43.5081287" lon="12.2899198"><ele>427.0</ele><time>2026-05-02T08:51:02.77Z</time></trkpt><trkpt lat="43.5081464" lon="12.2901329"><ele>427.0</ele><time>2026-05-02T08:51:03.769Z</time></trkpt><trkpt lat="43.5081364" lon="12.2903371"><ele>427.0</ele><time>2026-05-02T08:51:04.769Z</time></trkpt><trkpt lat="43.5080965" lon="12.290531"><ele>425.0</ele><time>2026-05-02T08:51:05.77Z</time></trkpt><trkpt lat="43.5080416" lon="12.2907286"><ele>423.0</ele><time>2026-05-02T08:51:06.769Z</time></trkpt><trkpt lat="43.5080192" lon="12.2909396"><ele>421.0</ele><time>2026-05-02T08:51:07.784Z</time></trkpt><trkpt lat="43.5080325" lon="12.2911589"><ele>421.0</ele><time>2026-05-02T08:51:08.771Z</time></trkpt><trkpt lat="43.5080542" lon="12.2913871"><ele>421.0</ele><time>2026-05-02T08:51:09.782Z</time></trkpt><trkpt lat="43.5080757" lon="12.2916148"><ele>421.0</ele><time>2026-05-02T08:51:10.772Z</time></trkpt><trkpt lat="43.5080918" lon="12.2918189"><ele>422.4</ele><time>2026-05-02T08:51:11.783Z</time></trkpt><trkpt lat="43.5081083" lon="12.2919841"><ele>423.8</ele><time>2026-05-02T08:51:12.763Z</time></trkpt><trkpt lat="43.5081146" lon="12.2921223"><ele>425.19999999999993</ele><time>2026-05-02T08:51:13.771Z</time></trkpt><trkpt lat="43.5081175" lon="12.2922397"><ele>426.59999999999997</ele><time>2026-05-02T08:51:14.773Z</time></trkpt><trkpt lat="43.5081284" lon="12.2923591"><ele>428.0</ele><time>2026-05-02T08:51:15.766Z</time></trkpt><trkpt lat="43.5081462" lon="12.2924804"><ele>428.4</ele><time>2026-05-02T08:51:16.76Z</time></trkpt><trkpt lat="43.5081714" lon="12.2926041"><ele>428.79999999999995</ele><time>2026-05-02T08:51:17.762Z</time></trkpt><trkpt lat="43.5082059" lon="12.2927284"><ele>429.2</ele><time>2026-05-02T08:51:18.782Z</time></trkpt><trkpt lat="43.5082461" lon="12.2928466"><ele>429.6</ele><time>2026-05-02T08:51:19.765Z</time></trkpt><trkpt lat="43.5082902" lon="12.292973"><ele>430.0</ele><time>2026-05-02T08:51:20.769Z</time></trkpt><trkpt lat="43.5083402" lon="12.2931031"><ele>430.0</ele><time>2026-05-02T08:51:21.769Z</time></trkpt><trkpt lat="43.5083927" lon="12.2932352"><ele>430.0</ele><time>2026-05-02T08:51:22.766Z</time></trkpt><trkpt lat="43.5084406" lon="12.2933687"><ele>430.0</ele><time>2026-05-02T08:51:23.766Z</time></trkpt><trkpt lat="43.5084812" lon="12.2935094"><ele>430.0</ele><time>2026-05-02T08:51:24.763Z</time></trkpt><trkpt lat="43.5085254" lon="12.2936382"><ele>430.0</ele><time>2026-05-02T08:51:25.765Z</time></trkpt><trkpt lat="43.5085738" lon="12.2937597"><ele>430.00000000000006</ele><time>2026-05-02T08:51:26.758Z</time></trkpt><trkpt lat="43.5086292" lon="12.2938757"><ele>430.0</ele><time>2026-05-02T08:51:27.759Z</time></trkpt><trkpt lat="43.5086912" lon="12.2939772"><ele>430.0</ele><time>2026-05-02T08:51:28.762Z</time></trkpt><trkpt lat="43.5087572" lon="12.2940632"><ele>430.0</ele><time>2026-05-02T08:51:29.767Z</time></trkpt><trkpt lat="43.5088154" lon="12.2941414"><ele>430.00000000000006</ele><time>2026-05-02T08:51:30.768Z</time></trkpt><trkpt lat="43.5088655" lon="12.2942052"><ele>430.0</ele><time>2026-05-02T08:51:31.766Z</time></trkpt><trkpt lat="43.5089657" lon="12.2943164"><ele>430.50000000000006</ele><time>2026-05-02T08:51:33.772Z</time></trkpt><trkpt lat="43.5090218" lon="12.2943782"><ele>431.0</ele><time>2026-05-02T08:51:34.759Z</time></trkpt><trkpt lat="43.509074" lon="12.2944597"><ele>431.5</ele><time>2026-05-02T08:51:35.767Z</time></trkpt><trkpt lat="43.5091363" lon="12.2945418"><ele>432.0</ele><time>2026-05-02T08:51:36.759Z</time></trkpt><trkpt lat="43.5091966" lon="12.2946347"><ele>432.50000000000006</ele><time>2026-05-02T08:51:37.76Z</time></trkpt><trkpt lat="43.5092474" lon="12.2947322"><ele>433.0</ele><time>2026-05-02T08:51:38.778Z</time></trkpt><trkpt lat="43.5092825" lon="12.29484"><ele>433.0</ele><time>2026-05-02T08:51:39.778Z</time></trkpt><trkpt lat="43.5093019" lon="12.2949637"><ele>433.0</ele><time>2026-05-02T08:51:40.77Z</time></trkpt><trkpt lat="43.5093015" lon="12.2951218"><ele>433.0</ele><time>2026-05-02T08:51:41.765Z</time></trkpt><trkpt lat="43.5093" lon="12.2952988"><ele>433.0</ele><time>2026-05-02T08:51:42.774Z</time></trkpt><trkpt lat="43.509294" lon="12.2954838"><ele>432.5</ele><time>2026-05-02T08:51:43.781Z</time></trkpt><trkpt lat="43.5092742" lon="12.2956734"><ele>432.0</ele><time>2026-05-02T08:51:44.77Z</time></trkpt><trkpt lat="43.5092333" lon="12.2958585"><ele>431.5</ele><time>2026-05-02T08:51:45.781Z</time></trkpt><trkpt lat="43.5091856" lon="12.296036"><ele>431.0</ele><time>2026-05-02T08:51:46.773Z</time></trkpt><trkpt lat="43.5091161" lon="12.2961876"><ele>431.0</ele><time>2026-05-02T08:51:47.781Z</time></trkpt><trkpt lat="43.509038" lon="12.2963174"><ele>431.0</ele><time>2026-05-02T08:51:48.764Z</time></trkpt><trkpt lat="43.5089461" lon="12.2964132"><ele>431.0</ele><time>2026-05-02T08:51:49.775Z</time></trkpt><trkpt lat="43.5088418" lon="12.2964698"><ele>431.0</ele><time>2026-05-02T08:51:50.77Z</time></trkpt><trkpt lat="43.5087298" lon="12.2964983"><ele>433.0</ele><time>2026-05-02T08:51:51.774Z</time></trkpt><trkpt lat="43.5086094" lon="12.29654"><ele>435.0</ele><time>2026-05-02T08:51:52.756Z</time></trkpt><trkpt lat="43.5084933" lon="12.296618"><ele>437.0</ele><time>2026-05-02T08:51:53.773Z</time></trkpt><trkpt lat="43.5083791" lon="12.2967291"><ele>439.0</ele><time>2026-05-02T08:51:54.754Z</time></trkpt><trkpt lat="43.5082733" lon="12.2968586"><ele>439.0</ele><time>2026-05-02T08:51:55.768Z</time></trkpt><trkpt lat="43.5081659" lon="12.2969735"><ele>439.0</ele><time>2026-05-02T08:51:56.759Z</time></trkpt><trkpt lat="43.5080555" lon="12.2970823"><ele>439.0</ele><time>2026-05-02T08:51:57.768Z</time></trkpt><trkpt lat="43.5079498" lon="12.2971984"><ele>439.0</ele><time>2026-05-02T08:51:58.752Z</time></trkpt><trkpt lat="43.5078672" lon="12.2973248"><ele>441.75</ele><time>2026-05-02T08:51:59.781Z</time></trkpt><trkpt lat="43.5078095" lon="12.2974688"><ele>444.5</ele><time>2026-05-02T08:52:00.764Z</time></trkpt><trkpt lat="43.5077872" lon="12.2976265"><ele>447.25</ele><time>2026-05-02T08:52:01.77Z</time></trkpt><trkpt lat="43.5077901" lon="12.2977948"><ele>450.0</ele><time>2026-05-02T08:52:02.764Z</time></trkpt><trkpt lat="43.5078003" lon="12.2979627"><ele>451.25</ele><time>2026-05-02T08:52:03.767Z</time></trkpt><trkpt lat="43.5077884" lon="12.2981364"><ele>452.5</ele><time>2026-05-02T08:52:04.764Z</time></trkpt><trkpt lat="43.5077422" lon="12.2982986"><ele>453.75</ele><time>2026-05-02T08:52:05.764Z</time></trkpt><trkpt lat="43.5076743" lon="12.2984356"><ele>455.0</ele><time>2026-05-02T08:52:06.766Z</time></trkpt><trkpt lat="43.5075909" lon="12.2985685"><ele>455.0</ele><time>2026-05-02T08:52:07.774Z</time></trkpt><trkpt lat="43.5074985" lon="12.2986972"><ele>455.0</ele><time>2026-05-02T08:52:08.766Z</time></trkpt><trkpt lat="43.5074059" lon="12.2988137"><ele>455.0</ele><time>2026-05-02T08:52:09.764Z</time></trkpt><trkpt lat="43.5073528" lon="12.2989273"><ele>455.0</ele><time>2026-05-02T08:52:10.763Z</time></trkpt><trkpt lat="43.5073359" lon="12.2990497"><ele>455.0</ele><time>2026-05-02T08:52:11.769Z</time></trkpt><trkpt lat="43.5073416" lon="12.2991787"><ele>456.4</ele><time>2026-05-02T08:52:12.767Z</time></trkpt><trkpt lat="43.5073642" lon="12.2993155"><ele>457.8</ele><time>2026-05-02T08:52:13.768Z</time></trkpt><trkpt lat="43.507405" lon="12.2994533"><ele>459.20000000000005</ele><time>2026-05-02T08:52:14.759Z</time></trkpt><trkpt lat="43.507463" lon="12.2995757"><ele>460.6</ele><time>2026-05-02T08:52:15.764Z</time></trkpt><trkpt lat="43.5075396" lon="12.2996434"><ele>462.0</ele><time>2026-05-02T08:52:16.767Z</time></trkpt><trkpt lat="43.5076218" lon="12.2996506"><ele>462.0</ele><time>2026-05-02T08:52:17.763Z</time></trkpt><trkpt lat="43.5077067" lon="12.2996028"><ele>462.00000000000006</ele><time>2026-05-02T08:52:18.769Z</time></trkpt><trkpt lat="43.50778" lon="12.299513"><ele>462.00000000000006</ele><time>2026-05-02T08:52:19.754Z</time></trkpt><trkpt lat="43.5078456" lon="12.2993953"><ele>462.0</ele><time>2026-05-02T08:52:20.751Z</time></trkpt><trkpt lat="43.5079045" lon="12.2992843"><ele>462.0</ele><time>2026-05-02T08:52:21.762Z</time></trkpt><trkpt lat="43.5079729" lon="12.2992277"><ele>463.3333333333333</ele><time>2026-05-02T08:52:22.771Z</time></trkpt><trkpt lat="43.5080533" lon="12.2992255"><ele>464.66666666666663</ele><time>2026-05-02T08:52:23.756Z</time></trkpt><trkpt lat="43.5081074" lon="12.2992782"><ele>466.0</ele><time>2026-05-02T08:52:24.769Z</time></trkpt><trkpt lat="43.5081322" lon="12.2993649"><ele>467.3333333333333</ele><time>2026-05-02T08:52:25.773Z</time></trkpt><trkpt lat="43.5081453" lon="12.299476"><ele>468.66666666666663</ele><time>2026-05-02T08:52:26.763Z</time></trkpt><trkpt lat="43.508171" lon="12.2995895"><ele>470.0</ele><time>2026-05-02T08:52:27.754Z</time></trkpt><trkpt lat="43.5082062" lon="12.2996955"><ele>470.75</ele><time>2026-05-02T08:52:28.78Z</time></trkpt><trkpt lat="43.5082595" lon="12.2998164"><ele>471.5</ele><time>2026-05-02T08:52:29.768Z</time></trkpt><trkpt lat="43.5083165" lon="12.2999438"><ele>472.25</ele><time>2026-05-02T08:52:30.762Z</time></trkpt><trkpt lat="43.5083759" lon="12.3000883"><ele>473.0</ele><time>2026-05-02T08:52:31.776Z</time></trkpt><trkpt lat="43.5084499" lon="12.3002339"><ele>473.0</ele><time>2026-05-02T08:52:32.767Z</time></trkpt><trkpt lat="43.5085213" lon="12.3003649"><ele>473.0</ele><time>2026-05-02T08:52:33.772Z</time></trkpt><trkpt lat="43.5085714" lon="12.3005084"><ele>473.0</ele><time>2026-05-02T08:52:34.761Z</time></trkpt><trkpt lat="43.5085906" lon="12.300658"><ele>473.0</ele><time>2026-05-02T08:52:35.774Z</time></trkpt><trkpt lat="43.5085806" lon="12.3008059"><ele>474.0</ele><time>2026-05-02T08:52:36.767Z</time></trkpt><trkpt lat="43.5085599" lon="12.3009511"><ele>474.99999999999994</ele><time>2026-05-02T08:52:37.759Z</time></trkpt><trkpt lat="43.508536" lon="12.3010772"><ele>475.99999999999994</ele><time>2026-05-02T08:52:38.764Z</time></trkpt><trkpt lat="43.5084983" lon="12.3011846"><ele>477.0</ele><time>2026-05-02T08:52:39.774Z</time></trkpt><trkpt lat="43.5083865" lon="12.3012378"><ele>478.0</ele><time>2026-05-02T08:52:41.762Z</time></trkpt><trkpt lat="43.508324" lon="12.3012021"><ele>478.00000000000006</ele><time>2026-05-02T08:52:42.765Z</time></trkpt><trkpt lat="43.508263" lon="12.3011554"><ele>478.0</ele><time>2026-05-02T08:52:43.762Z</time></trkpt><trkpt lat="43.5081888" lon="12.3011307"><ele>478.0</ele><time>2026-05-02T08:52:44.773Z</time></trkpt><trkpt lat="43.5081207" lon="12.3011674"><ele>478.0</ele><time>2026-05-02T08:52:45.754Z</time></trkpt><trkpt lat="43.5080915" lon="12.3012485"><ele>478.00000000000006</ele><time>2026-05-02T08:52:46.767Z</time></trkpt><trkpt lat="43.5081162" lon="12.301408"><ele>478.0</ele><time>2026-05-02T08:52:48.765Z</time></trkpt><trkpt lat="43.5081589" lon="12.3014874"><ele>479.79999999999995</ele><time>2026-05-02T08:52:49.775Z</time></trkpt><trkpt lat="43.5082096" lon="12.3015864"><ele>481.59999999999997</ele><time>2026-05-02T08:52:50.765Z</time></trkpt><trkpt lat="43.5082616" lon="12.3017063"><ele>483.40000000000003</ele><time>2026-05-02T08:52:51.785Z</time></trkpt><trkpt lat="43.5083144" lon="12.3018117"><ele>485.20000000000005</ele><time>2026-05-02T08:52:52.769Z</time></trkpt><trkpt lat="43.5083542" lon="12.301932"><ele>487.0</ele><time>2026-05-02T08:52:53.78Z</time></trkpt><trkpt lat="43.5083614" lon="12.3020588"><ele>487.00000000000006</ele><time>2026-05-02T08:52:54.774Z</time></trkpt><trkpt lat="43.5083325" lon="12.3021644"><ele>487.0</ele><time>2026-05-02T08:52:55.792Z</time></trkpt><trkpt lat="43.5082732" lon="12.3022308"><ele>487.0</ele><time>2026-05-02T08:52:56.769Z</time></trkpt><trkpt lat="43.5081864" lon="12.3022698"><ele>487.0</ele><time>2026-05-02T08:52:57.775Z</time></trkpt><trkpt lat="43.5080895" lon="12.3022876"><ele>487.00000000000006</ele><time>2026-05-02T08:52:58.773Z</time></trkpt><trkpt lat="43.5079892" lon="12.3022951"><ele>487.0</ele><time>2026-05-02T08:52:59.776Z</time></trkpt><trkpt lat="43.5078854" lon="12.3023157"><ele>489.5</ele><time>2026-05-02T08:53:00.76Z</time></trkpt><trkpt lat="43.5077783" lon="12.3023335"><ele>492.0</ele><time>2026-05-02T08:53:01.766Z</time></trkpt><trkpt lat="43.5076698" lon="12.3023622"><ele>494.5</ele><time>2026-05-02T08:53:02.761Z</time></trkpt><trkpt lat="43.5075554" lon="12.3024047"><ele>497.0</ele><time>2026-05-02T08:53:03.78Z</time></trkpt><trkpt lat="43.5074377" lon="12.3024529"><ele>497.0</ele><time>2026-05-02T08:53:04.766Z</time></trkpt><trkpt lat="43.5073151" lon="12.3024966"><ele>497.0</ele><time>2026-05-02T08:53:05.782Z</time></trkpt><trkpt lat="43.5071971" lon="12.3025276"><ele>497.0</ele><time>2026-05-02T08:53:06.766Z</time></trkpt><trkpt lat="43.5070729" lon="12.3025385"><ele>497.0</ele><time>2026-05-02T08:53:07.785Z</time></trkpt><trkpt lat="43.5069507" lon="12.3025158"><ele>496.40000000000003</ele><time>2026-05-02T08:53:08.758Z</time></trkpt><trkpt lat="43.5068384" lon="12.3024659"><ele>495.80000000000007</ele><time>2026-05-02T08:53:09.773Z</time></trkpt><trkpt lat="43.5067512" lon="12.3023708"><ele>495.2</ele><time>2026-05-02T08:53:10.776Z</time></trkpt><trkpt lat="43.5066754" lon="12.302264"><ele>494.6</ele><time>2026-05-02T08:53:11.778Z</time></trkpt><trkpt lat="43.5065976" lon="12.3021697"><ele>494.0</ele><time>2026-05-02T08:53:12.76Z</time></trkpt><trkpt lat="43.5065114" lon="12.3021229"><ele>494.0</ele><time>2026-05-02T08:53:13.781Z</time></trkpt><trkpt lat="43.5064341" lon="12.3021479"><ele>494.0</ele><time>2026-05-02T08:53:14.766Z</time></trkpt><trkpt lat="43.5063617" lon="12.3022072"><ele>494.0</ele><time>2026-05-02T08:53:15.773Z</time></trkpt><trkpt lat="43.5062963" lon="12.3022892"><ele>494.0</ele><time>2026-05-02T08:53:16.773Z</time></trkpt><trkpt lat="43.5062291" lon="12.3023956"><ele>494.0</ele><time>2026-05-02T08:53:17.768Z</time></trkpt><trkpt lat="43.5061625" lon="12.302511"><ele>498.0</ele><time>2026-05-02T08:53:18.77Z</time></trkpt><trkpt lat="43.5060949" lon="12.3026219"><ele>502.0</ele><time>2026-05-02T08:53:19.781Z</time></trkpt><trkpt lat="43.5060183" lon="12.3027157"><ele>506.0</ele><time>2026-05-02T08:53:20.762Z</time></trkpt><trkpt lat="43.5059328" lon="12.30276"><ele>510.0</ele><time>2026-05-02T08:53:21.766Z</time></trkpt><trkpt lat="43.5058459" lon="12.3027433"><ele>514.0</ele><time>2026-05-02T08:53:22.769Z</time></trkpt><trkpt lat="43.5057533" lon="12.3026882"><ele>514.0</ele><time>2026-05-02T08:53:23.762Z</time></trkpt><trkpt lat="43.5056603" lon="12.3026084"><ele>514.0</ele><time>2026-05-02T08:53:24.762Z</time></trkpt><trkpt lat="43.5055688" lon="12.3025136"><ele>514.0</ele><time>2026-05-02T08:53:25.765Z</time></trkpt><trkpt lat="43.50546" lon="12.3024391"><ele>514.0</ele><time>2026-05-02T08:53:26.761Z</time></trkpt><trkpt lat="43.5053547" lon="12.302407"><ele>516.25</ele><time>2026-05-02T08:53:27.772Z</time></trkpt><trkpt lat="43.5052515" lon="12.3024365"><ele>518.5</ele><time>2026-05-02T08:53:28.771Z</time></trkpt><trkpt lat="43.5051445" lon="12.3025002"><ele>520.75</ele><time>2026-05-02T08:53:29.764Z</time></trkpt><trkpt lat="43.5050441" lon="12.3025761"><ele>523.0</ele><time>2026-05-02T08:53:30.764Z</time></trkpt><trkpt lat="43.504932" lon="12.3026379"><ele>523.0</ele><time>2026-05-02T08:53:31.767Z</time></trkpt><trkpt lat="43.5048073" lon="12.3027074"><ele>523.0</ele><time>2026-05-02T08:53:32.762Z</time></trkpt><trkpt lat="43.504676" lon="12.3027866"><ele>523.0</ele><time>2026-05-02T08:53:33.774Z</time></trkpt><trkpt lat="43.504555" lon="12.3028416"><ele>523.0</ele><time>2026-05-02T08:53:34.764Z</time></trkpt><trkpt lat="43.5044469" lon="12.3028524"><ele>524.8</ele><time>2026-05-02T08:53:35.774Z</time></trkpt><trkpt lat="43.5043526" lon="12.3028069"><ele>526.5999999999999</ele><time>2026-05-02T08:53:36.766Z</time></trkpt><trkpt lat="43.5042877" lon="12.3027194"><ele>528.4000000000001</ele><time>2026-05-02T08:53:37.772Z</time></trkpt><trkpt lat="43.5042299" lon="12.3026085"><ele>530.2</ele><time>2026-05-02T08:53:38.771Z</time></trkpt><trkpt lat="43.5041815" lon="12.302475"><ele>532.0</ele><time>2026-05-02T08:53:39.758Z</time></trkpt><trkpt lat="43.50413" lon="12.3023329"><ele>530.0</ele><time>2026-05-02T08:53:40.759Z</time></trkpt><trkpt lat="43.504069" lon="12.3022103"><ele>528.0</ele><time>2026-05-02T08:53:41.762Z</time></trkpt><trkpt lat="43.5039958" lon="12.3021192"><ele>526.0</ele><time>2026-05-02T08:53:42.767Z</time></trkpt><trkpt lat="43.5039205" lon="12.3020723"><ele>524.0</ele><time>2026-05-02T08:53:43.769Z</time></trkpt><trkpt lat="43.5038522" lon="12.3020761"><ele>522.0</ele><time>2026-05-02T08:53:44.753Z</time></trkpt><trkpt lat="43.5038027" lon="12.3021909"><ele>523.6666666666666</ele><time>2026-05-02T08:53:46.748Z</time></trkpt><trkpt lat="43.5038072" lon="12.3022863"><ele>525.3333333333334</ele><time>2026-05-02T08:53:47.769Z</time></trkpt><trkpt lat="43.5038253" lon="12.3023951"><ele>527.0</ele><time>2026-05-02T08:53:48.76Z</time></trkpt><trkpt lat="43.5038326" lon="12.3025202"><ele>528.6666666666667</ele><time>2026-05-02T08:53:49.768Z</time></trkpt><trkpt lat="43.5038194" lon="12.3026494"><ele>530.3333333333334</ele><time>2026-05-02T08:53:50.76Z</time></trkpt><trkpt lat="43.5037974" lon="12.3027844"><ele>532.0</ele><time>2026-05-02T08:53:51.761Z</time></trkpt><trkpt lat="43.5037617" lon="12.3029235"><ele>536.0</ele><time>2026-05-02T08:53:52.759Z</time></trkpt><trkpt lat="43.5037083" lon="12.3030545"><ele>540.0</ele><time>2026-05-02T08:53:53.758Z</time></trkpt><trkpt lat="43.5036496" lon="12.3031856"><ele>544.0</ele><time>2026-05-02T08:53:54.758Z</time></trkpt><trkpt lat="43.5035791" lon="12.303318"><ele>548.0</ele><time>2026-05-02T08:53:55.766Z</time></trkpt><trkpt lat="43.5035075" lon="12.3034494"><ele>548.0</ele><time>2026-05-02T08:53:56.758Z</time></trkpt><trkpt lat="43.5034253" lon="12.303589"><ele>548.0</ele><time>2026-05-02T08:53:57.769Z</time></trkpt><trkpt lat="43.503355" lon="12.3037355"><ele>548.0</ele><time>2026-05-02T08:53:58.758Z</time></trkpt><trkpt lat="43.5033086" lon="12.3038859"><ele>548.0</ele><time>2026-05-02T08:53:59.76Z</time></trkpt><trkpt lat="43.5032894" lon="12.3040162"><ele>545.75</ele><time>2026-05-02T08:54:00.757Z</time></trkpt><trkpt lat="43.5033042" lon="12.3041066"><ele>543.5</ele><time>2026-05-02T08:54:01.757Z</time></trkpt><trkpt lat="43.503393" lon="12.3042456"><ele>541.25</ele><time>2026-05-02T08:54:03.761Z</time></trkpt><trkpt lat="43.503488" lon="12.3043578"><ele>539.0</ele><time>2026-05-02T08:54:04.761Z</time></trkpt><trkpt lat="43.5035913" lon="12.3045073"><ele>539.0</ele><time>2026-05-02T08:54:05.763Z</time></trkpt><trkpt lat="43.5037064" lon="12.3046862"><ele>539.0</ele><time>2026-05-02T08:54:06.762Z</time></trkpt><trkpt lat="43.5038031" lon="12.3048961"><ele>539.0</ele><time>2026-05-02T08:54:07.764Z</time></trkpt><trkpt lat="43.5038586" lon="12.3051256"><ele>540.0</ele><time>2026-05-02T08:54:08.76Z</time></trkpt><trkpt lat="43.5038969" lon="12.3053448"><ele>541.0</ele><time>2026-05-02T08:54:09.77Z</time></trkpt><trkpt lat="43.503922" lon="12.3055609"><ele>542.0</ele><time>2026-05-02T08:54:10.757Z</time></trkpt><trkpt lat="43.5039473" lon="12.305764"><ele>542.0</ele><time>2026-05-02T08:54:11.775Z</time></trkpt><trkpt lat="43.5039704" lon="12.3059789"><ele>542.0</ele><time>2026-05-02T08:54:12.766Z</time></trkpt><trkpt lat="43.5039903" lon="12.3062007"><ele>542.0</ele><time>2026-05-02T08:54:13.767Z</time></trkpt><trkpt lat="43.5040039" lon="12.3064207"><ele>543.6666666666666</ele><time>2026-05-02T08:54:14.776Z</time></trkpt><trkpt lat="43.5040092" lon="12.3066396"><ele>545.3333333333334</ele><time>2026-05-02T08:54:15.769Z</time></trkpt><trkpt lat="43.5040179" lon="12.306863"><ele>547.0</ele><time>2026-05-02T08:54:16.758Z</time></trkpt><trkpt lat="43.5040471" lon="12.3070771"><ele>548.6666666666667</ele><time>2026-05-02T08:54:17.76Z</time></trkpt><trkpt lat="43.5040895" lon="12.3072938"><ele>550.3333333333334</ele><time>2026-05-02T08:54:18.765Z</time></trkpt><trkpt lat="43.5041624" lon="12.3075022"><ele>552.0</ele><time>2026-05-02T08:54:19.76Z</time></trkpt><trkpt lat="43.5042809" lon="12.3076811"><ele>552.0</ele><time>2026-05-02T08:54:20.759Z</time></trkpt><trkpt lat="43.504424" lon="12.3078484"><ele>552.0</ele><time>2026-05-02T08:54:21.761Z</time></trkpt><trkpt lat="43.504564" lon="12.308019"><ele>552.0</ele><time>2026-05-02T08:54:22.755Z</time></trkpt><trkpt lat="43.5047023" lon="12.3081923"><ele>554.3333333333334</ele><time>2026-05-02T08:54:23.766Z</time></trkpt><trkpt lat="43.504842" lon="12.3083638"><ele>556.6666666666667</ele><time>2026-05-02T08:54:24.753Z</time></trkpt><trkpt lat="43.5049866" lon="12.3085278"><ele>559.0</ele><time>2026-05-02T08:54:25.77Z</time></trkpt><trkpt lat="43.5051275" lon="12.3086966"><ele>559.0</ele><time>2026-05-02T08:54:26.755Z</time></trkpt><trkpt lat="43.5052721" lon="12.3088607"><ele>559.0</ele><time>2026-05-02T08:54:27.767Z</time></trkpt><trkpt lat="43.5054153" lon="12.3090416"><ele>559.0</ele><time>2026-05-02T08:54:28.761Z</time></trkpt><trkpt lat="43.5055314" lon="12.3092539"><ele>559.6666666666667</ele><time>2026-05-02T08:54:29.758Z</time></trkpt><trkpt lat="43.505606" lon="12.3095011"><ele>560.3333333333334</ele><time>2026-05-02T08:54:30.762Z</time></trkpt><trkpt lat="43.5056281" lon="12.3097807"><ele>561.0</ele><time>2026-05-02T08:54:31.76Z</time></trkpt><trkpt lat="43.5056355" lon="12.3100436"><ele>563.3333333333334</ele><time>2026-05-02T08:54:32.76Z</time></trkpt><trkpt lat="43.5056683" lon="12.3102885"><ele>565.6666666666667</ele><time>2026-05-02T08:54:33.793Z</time></trkpt><trkpt lat="43.5057376" lon="12.3105329"><ele>568.0</ele><time>2026-05-02T08:54:34.761Z</time></trkpt><trkpt lat="43.5058564" lon="12.3107601"><ele>568.0</ele><time>2026-05-02T08:54:35.764Z</time></trkpt><trkpt lat="43.5059888" lon="12.3109862"><ele>568.0</ele><time>2026-05-02T08:54:36.756Z</time></trkpt><trkpt lat="43.5061159" lon="12.3112052"><ele>568.0</ele><time>2026-05-02T08:54:37.759Z</time></trkpt><trkpt lat="43.5062147" lon="12.3114293"><ele>571.6666666666667</ele><time>2026-05-02T08:54:38.764Z</time></trkpt><trkpt lat="43.5062688" lon="12.3116438"><ele>575.3333333333334</ele><time>2026-05-02T08:54:39.765Z</time></trkpt><trkpt lat="43.5062949" lon="12.3118554"><ele>579.0</ele><time>2026-05-02T08:54:40.767Z</time></trkpt><trkpt lat="43.5063405" lon="12.3120636"><ele>577.6666666666666</ele><time>2026-05-02T08:54:41.766Z</time></trkpt><trkpt lat="43.5064257" lon="12.3122785"><ele>576.3333333333333</ele><time>2026-05-02T08:54:42.758Z</time></trkpt><trkpt lat="43.5065444" lon="12.3125043"><ele>575.0</ele><time>2026-05-02T08:54:43.776Z</time></trkpt><trkpt lat="43.5066749" lon="12.3127292"><ele>575.0</ele><time>2026-05-02T08:54:44.759Z</time></trkpt><trkpt lat="43.5068133" lon="12.312963"><ele>575.0</ele><time>2026-05-02T08:54:45.785Z</time></trkpt><trkpt lat="43.5069385" lon="12.3132033"><ele>575.0</ele><time>2026-05-02T08:54:46.77Z</time></trkpt><trkpt lat="43.5070404" lon="12.3134385"><ele>573.0</ele><time>2026-05-02T08:54:47.766Z</time></trkpt><trkpt lat="43.5070983" lon="12.3136926"><ele>571.0</ele><time>2026-05-02T08:54:48.77Z</time></trkpt><trkpt lat="43.5071181" lon="12.3139653"><ele>569.0</ele><time>2026-05-02T08:54:49.777Z</time></trkpt><trkpt lat="43.507124" lon="12.314265"><ele>573.6666666666666</ele><time>2026-05-02T08:54:50.758Z</time></trkpt><trkpt lat="43.5071234" lon="12.3145729"><ele>578.3333333333334</ele><time>2026-05-02T08:54:51.764Z</time></trkpt><trkpt lat="43.5071285" lon="12.3148578"><ele>583.0</ele><time>2026-05-02T08:54:52.762Z</time></trkpt><trkpt lat="43.5071346" lon="12.3151295"><ele>584.6666666666667</ele><time>2026-05-02T08:54:53.782Z</time></trkpt><trkpt lat="43.5071254" lon="12.3153892"><ele>586.3333333333334</ele><time>2026-05-02T08:54:54.765Z</time></trkpt><trkpt lat="43.5071036" lon="12.3156322"><ele>588.0</ele><time>2026-05-02T08:54:55.77Z</time></trkpt><trkpt lat="43.5070842" lon="12.3158554"><ele>588.6666666666666</ele><time>2026-05-02T08:54:56.764Z</time></trkpt><trkpt lat="43.5071159" lon="12.3160669"><ele>589.3333333333333</ele><time>2026-05-02T08:54:57.773Z</time></trkpt><trkpt lat="43.5072044" lon="12.3162624"><ele>590.0</ele><time>2026-05-02T08:54:58.755Z</time></trkpt><trkpt lat="43.5073119" lon="12.3164585"><ele>590.6666666666666</ele><time>2026-05-02T08:54:59.772Z</time></trkpt><trkpt lat="43.5074215" lon="12.3166852"><ele>591.3333333333334</ele><time>2026-05-02T08:55:00.778Z</time></trkpt><trkpt lat="43.5075" lon="12.316936"><ele>592.0</ele><time>2026-05-02T08:55:01.763Z</time></trkpt><trkpt lat="43.5075475" lon="12.3171872"><ele>592.0</ele><time>2026-05-02T08:55:02.763Z</time></trkpt><trkpt lat="43.5075443" lon="12.3173917"><ele>592.0</ele><time>2026-05-02T08:55:03.777Z</time></trkpt><trkpt lat="43.5074869" lon="12.3175446"><ele>592.0</ele><time>2026-05-02T08:55:04.766Z</time></trkpt><trkpt lat="43.5073773" lon="12.3176604"><ele>592.0</ele><time>2026-05-02T08:55:05.775Z</time></trkpt><trkpt lat="43.5072301" lon="12.3177117"><ele>592.0</ele><time>2026-05-02T08:55:06.769Z</time></trkpt><trkpt lat="43.5070796" lon="12.3177151"><ele>592.0</ele><time>2026-05-02T08:55:07.772Z</time></trkpt><trkpt lat="43.5069289" lon="12.3176429"><ele>592.0</ele><time>2026-05-02T08:55:08.762Z</time></trkpt><trkpt lat="43.5067803" lon="12.3175374"><ele>592.0</ele><time>2026-05-02T08:55:09.774Z</time></trkpt><trkpt lat="43.5066148" lon="12.3174627"><ele>592.0</ele><time>2026-05-02T08:55:10.769Z</time></trkpt><trkpt lat="43.5064544" lon="12.3174579"><ele>592.0</ele><time>2026-05-02T08:55:11.773Z</time></trkpt><trkpt lat="43.5062832" lon="12.3175303"><ele>592.0</ele><time>2026-05-02T08:55:12.76Z</time></trkpt><trkpt lat="43.506147" lon="12.3176529"><ele>592.0</ele><time>2026-05-02T08:55:13.77Z</time></trkpt><trkpt lat="43.5060445" lon="12.3178266"><ele>592.0</ele><time>2026-05-02T08:55:14.773Z</time></trkpt><trkpt lat="43.5059704" lon="12.3180281"><ele>595.75</ele><time>2026-05-02T08:55:15.769Z</time></trkpt><trkpt lat="43.505913" lon="12.3182203"><ele>599.5</ele><time>2026-05-02T08:55:16.761Z</time></trkpt><trkpt lat="43.5058387" lon="12.3183169"><ele>603.25</ele><time>2026-05-02T08:55:17.763Z</time></trkpt><trkpt lat="43.5056967" lon="12.3183511"><ele>607.0</ele><time>2026-05-02T08:55:18.772Z</time></trkpt><trkpt lat="43.5055481" lon="12.3183343"><ele>606.75</ele><time>2026-05-02T08:55:19.777Z</time></trkpt><trkpt lat="43.5053929" lon="12.3182869"><ele>606.5</ele><time>2026-05-02T08:55:20.764Z</time></trkpt><trkpt lat="43.5052471" lon="12.3182419"><ele>606.25</ele><time>2026-05-02T08:55:21.772Z</time></trkpt><trkpt lat="43.5051152" lon="12.3182509"><ele>606.0</ele><time>2026-05-02T08:55:22.766Z</time></trkpt><trkpt lat="43.5049959" lon="12.318334"><ele>606.0</ele><time>2026-05-02T08:55:23.766Z</time></trkpt><trkpt lat="43.5049095" lon="12.3184607"><ele>606.0</ele><time>2026-05-02T08:55:24.769Z</time></trkpt><trkpt lat="43.5048469" lon="12.3186361"><ele>606.0</ele><time>2026-05-02T08:55:25.769Z</time></trkpt><trkpt lat="43.504817" lon="12.3188341"><ele>606.0</ele><time>2026-05-02T08:55:26.768Z</time></trkpt><trkpt lat="43.5048046" lon="12.3190291"><ele>608.0</ele><time>2026-05-02T08:55:27.766Z</time></trkpt><trkpt lat="43.5047988" lon="12.3192231"><ele>610.0</ele><time>2026-05-02T08:55:28.77Z</time></trkpt><trkpt lat="43.5047899" lon="12.3194191"><ele>612.0</ele><time>2026-05-02T08:55:29.753Z</time></trkpt><trkpt lat="43.5047862" lon="12.319608"><ele>614.0</ele><time>2026-05-02T08:55:30.774Z</time></trkpt><trkpt lat="43.5048251" lon="12.3197878"><ele>614.25</ele><time>2026-05-02T08:55:31.772Z</time></trkpt><trkpt lat="43.5048925" lon="12.3199552"><ele>614.5</ele><time>2026-05-02T08:55:32.774Z</time></trkpt><trkpt lat="43.5049723" lon="12.320104"><ele>614.75</ele><time>2026-05-02T08:55:33.766Z</time></trkpt><trkpt lat="43.505042" lon="12.3202605"><ele>615.0</ele><time>2026-05-02T08:55:34.754Z</time></trkpt><trkpt lat="43.5050926" lon="12.3204203"><ele>615.2</ele><time>2026-05-02T08:55:35.77Z</time></trkpt><trkpt lat="43.5051148" lon="12.3205731"><ele>615.4</ele><time>2026-05-02T08:55:36.757Z</time></trkpt><trkpt lat="43.5051173" lon="12.3207158"><ele>615.6</ele><time>2026-05-02T08:55:37.778Z</time></trkpt><trkpt lat="43.5051003" lon="12.3208224"><ele>615.8</ele><time>2026-05-02T08:55:38.772Z</time></trkpt><trkpt lat="43.5050008" lon="12.3209237"><ele>616.0</ele><time>2026-05-02T08:55:40.759Z</time></trkpt><trkpt lat="43.5049177" lon="12.3209363"><ele>616.0</ele><time>2026-05-02T08:55:41.768Z</time></trkpt><trkpt lat="43.5048139" lon="12.3209411"><ele>616.0</ele><time>2026-05-02T08:55:42.763Z</time></trkpt><trkpt lat="43.504705" lon="12.3209501"><ele>616.0</ele><time>2026-05-02T08:55:43.771Z</time></trkpt><trkpt lat="43.5046019" lon="12.3209689"><ele>616.0</ele><time>2026-05-02T08:55:44.777Z</time></trkpt><trkpt lat="43.5044968" lon="12.3209885"><ele>616.0</ele><time>2026-05-02T08:55:45.767Z</time></trkpt><trkpt lat="43.5043854" lon="12.3209883"><ele>614.2</ele><time>2026-05-02T08:55:46.766Z</time></trkpt><trkpt lat="43.5042721" lon="12.320968"><ele>612.4000000000001</ele><time>2026-05-02T08:55:47.772Z</time></trkpt><trkpt lat="43.5041669" lon="12.3209163"><ele>610.6</ele><time>2026-05-02T08:55:48.763Z</time></trkpt><trkpt lat="43.5040756" lon="12.3208596"><ele>608.8000000000001</ele><time>2026-05-02T08:55:49.758Z</time></trkpt><trkpt lat="43.5039855" lon="12.3208069"><ele>607.0</ele><time>2026-05-02T08:55:50.764Z</time></trkpt><trkpt lat="43.5038928" lon="12.3207683"><ele>607.0</ele><time>2026-05-02T08:55:51.773Z</time></trkpt><trkpt lat="43.503795" lon="12.3207191"><ele>607.0</ele><time>2026-05-02T08:55:52.766Z</time></trkpt><trkpt lat="43.5036875" lon="12.3206756"><ele>607.0</ele><time>2026-05-02T08:55:53.766Z</time></trkpt><trkpt lat="43.5035803" lon="12.3206425"><ele>607.0</ele><time>2026-05-02T08:55:54.778Z</time></trkpt><trkpt lat="43.5034746" lon="12.3206122"><ele>607.0</ele><time>2026-05-02T08:55:55.766Z</time></trkpt><trkpt lat="43.5033695" lon="12.320581"><ele>607.0</ele><time>2026-05-02T08:55:56.752Z</time></trkpt><trkpt lat="43.5032568" lon="12.3205461"><ele>607.0</ele><time>2026-05-02T08:55:57.765Z</time></trkpt><trkpt lat="43.503141" lon="12.3204976"><ele>607.0</ele><time>2026-05-02T08:55:58.777Z</time></trkpt><trkpt lat="43.503021" lon="12.3204441"><ele>607.0</ele><time>2026-05-02T08:55:59.769Z</time></trkpt><trkpt lat="43.5028998" lon="12.3203687"><ele>607.0</ele><time>2026-05-02T08:56:00.749Z</time></trkpt><trkpt lat="43.5027828" lon="12.3202758"><ele>607.0</ele><time>2026-05-02T08:56:01.775Z</time></trkpt><trkpt lat="43.5026833" lon="12.3201592"><ele>607.0</ele><time>2026-05-02T08:56:02.767Z</time></trkpt><trkpt lat="43.5026089" lon="12.3200026"><ele>607.0</ele><time>2026-05-02T08:56:03.766Z</time></trkpt><trkpt lat="43.502561" lon="12.3198502"><ele>603.0</ele><time>2026-05-02T08:56:04.768Z</time></trkpt><trkpt lat="43.5025128" lon="12.3197222"><ele>599.0</ele><time>2026-05-02T08:56:05.767Z</time></trkpt><trkpt lat="43.5024309" lon="12.3196287"><ele>595.0</ele><time>2026-05-02T08:56:06.769Z</time></trkpt><trkpt lat="43.5023121" lon="12.3195821"><ele>591.0</ele><time>2026-05-02T08:56:07.783Z</time></trkpt><trkpt lat="43.5021825" lon="12.3195697"><ele>595.0</ele><time>2026-05-02T08:56:08.75Z</time></trkpt><trkpt lat="43.5020687" lon="12.3195556"><ele>599.0</ele><time>2026-05-02T08:56:09.782Z</time></trkpt><trkpt lat="43.5019793" lon="12.3194956"><ele>603.0</ele><time>2026-05-02T08:56:10.763Z</time></trkpt><trkpt lat="43.5019072" lon="12.31941"><ele>607.0</ele><time>2026-05-02T08:56:11.763Z</time></trkpt><trkpt lat="43.5018797" lon="12.3192861"><ele>611.0</ele><time>2026-05-02T08:56:12.765Z</time></trkpt><trkpt lat="43.5018834" lon="12.3191351"><ele>611.0</ele><time>2026-05-02T08:56:13.765Z</time></trkpt><trkpt lat="43.5019035" lon="12.3189734"><ele>611.0</ele><time>2026-05-02T08:56:14.759Z</time></trkpt><trkpt lat="43.5019325" lon="12.3188035"><ele>611.0</ele><time>2026-05-02T08:56:15.769Z</time></trkpt><trkpt lat="43.5019788" lon="12.3186387"><ele>611.0</ele><time>2026-05-02T08:56:16.762Z</time></trkpt><trkpt lat="43.5020275" lon="12.3184932"><ele>610.2</ele><time>2026-05-02T08:56:17.763Z</time></trkpt><trkpt lat="43.5020596" lon="12.3183555"><ele>609.4000000000001</ele><time>2026-05-02T08:56:18.76Z</time></trkpt><trkpt lat="43.5020626" lon="12.3182288"><ele>608.6</ele><time>2026-05-02T08:56:19.768Z</time></trkpt><trkpt lat="43.5020245" lon="12.3180931"><ele>607.8000000000001</ele><time>2026-05-02T08:56:20.764Z</time></trkpt><trkpt lat="43.501952" lon="12.3179672"><ele>607.0</ele><time>2026-05-02T08:56:21.771Z</time></trkpt><trkpt lat="43.5018593" lon="12.3178456"><ele>602.75</ele><time>2026-05-02T08:56:22.753Z</time></trkpt><trkpt lat="43.5017564" lon="12.3177164"><ele>598.5</ele><time>2026-05-02T08:56:23.782Z</time></trkpt><trkpt lat="43.5016587" lon="12.3175906"><ele>594.25</ele><time>2026-05-02T08:56:24.758Z</time></trkpt><trkpt lat="43.5015539" lon="12.3174572"><ele>590.0</ele><time>2026-05-02T08:56:25.769Z</time></trkpt><trkpt lat="43.5014397" lon="12.3173261"><ele>590.6666666666666</ele><time>2026-05-02T08:56:26.752Z</time></trkpt><trkpt lat="43.5013262" lon="12.3171917"><ele>591.3333333333334</ele><time>2026-05-02T08:56:27.759Z</time></trkpt><trkpt lat="43.5012107" lon="12.3170514"><ele>592.0</ele><time>2026-05-02T08:56:28.756Z</time></trkpt><trkpt lat="43.5011088" lon="12.3169047"><ele>592.0</ele><time>2026-05-02T08:56:29.759Z</time></trkpt><trkpt lat="43.5010202" lon="12.316752"><ele>592.0</ele><time>2026-05-02T08:56:30.76Z</time></trkpt><trkpt lat="43.5009434" lon="12.3165932"><ele>592.0</ele><time>2026-05-02T08:56:31.764Z</time></trkpt><trkpt lat="43.5008585" lon="12.316445"><ele>592.0</ele><time>2026-05-02T08:56:32.763Z</time></trkpt><trkpt lat="43.500768" lon="12.3163084"><ele>588.25</ele><time>2026-05-02T08:56:33.769Z</time></trkpt><trkpt lat="43.5006711" lon="12.316184"><ele>584.5</ele><time>2026-05-02T08:56:34.765Z</time></trkpt><trkpt lat="43.5005618" lon="12.3160836"><ele>580.75</ele><time>2026-05-02T08:56:35.773Z</time></trkpt><trkpt lat="43.5004387" lon="12.3160165"><ele>577.0</ele><time>2026-05-02T08:56:36.753Z</time></trkpt><trkpt lat="43.5002998" lon="12.3159875"><ele>577.0</ele><time>2026-05-02T08:56:37.763Z</time></trkpt><trkpt lat="43.5001486" lon="12.3159744"><ele>577.0</ele><time>2026-05-02T08:56:38.764Z</time></trkpt><trkpt lat="43.5000088" lon="12.3159514"><ele>577.0</ele><time>2026-05-02T08:56:39.767Z</time></trkpt><trkpt lat="43.4998793" lon="12.3159224"><ele>577.0</ele><time>2026-05-02T08:56:40.765Z</time></trkpt><trkpt lat="43.4997567" lon="12.3158932"><ele>577.0</ele><time>2026-05-02T08:56:41.763Z</time></trkpt><trkpt lat="43.4996414" lon="12.3158634"><ele>577.0</ele><time>2026-05-02T08:56:42.762Z</time></trkpt><trkpt lat="43.4995198" lon="12.3158302"><ele>577.0</ele><time>2026-05-02T08:56:43.773Z</time></trkpt><trkpt lat="43.4993915" lon="12.3157903"><ele>577.0</ele><time>2026-05-02T08:56:44.759Z</time></trkpt><trkpt lat="43.4992593" lon="12.3157427"><ele>576.75</ele><time>2026-05-02T08:56:45.78Z</time></trkpt><trkpt lat="43.4991256" lon="12.3156944"><ele>576.5</ele><time>2026-05-02T08:56:46.764Z</time></trkpt><trkpt lat="43.4989847" lon="12.3156538"><ele>576.25</ele><time>2026-05-02T08:56:47.776Z</time></trkpt><trkpt lat="43.4988384" lon="12.3156136"><ele>576.0</ele><time>2026-05-02T08:56:48.761Z</time></trkpt><trkpt lat="43.4986902" lon="12.3155776"><ele>572.3333333333334</ele><time>2026-05-02T08:56:49.766Z</time></trkpt><trkpt lat="43.4985345" lon="12.3155479"><ele>568.6666666666667</ele><time>2026-05-02T08:56:50.755Z</time></trkpt><trkpt lat="43.4983761" lon="12.3155276"><ele>565.0</ele><time>2026-05-02T08:56:51.776Z</time></trkpt><trkpt lat="43.4982131" lon="12.3155235"><ele>565.0</ele><time>2026-05-02T08:56:52.752Z</time></trkpt><trkpt lat="43.4980538" lon="12.3155269"><ele>565.0</ele><time>2026-05-02T08:56:53.769Z</time></trkpt><trkpt lat="43.4979021" lon="12.3155283"><ele>565.0</ele><time>2026-05-02T08:56:54.763Z</time></trkpt><trkpt lat="43.4977681" lon="12.3155113"><ele>565.0</ele><time>2026-05-02T08:56:55.771Z</time></trkpt><trkpt lat="43.4976559" lon="12.3154785"><ele>564.25</ele><time>2026-05-02T08:56:56.761Z</time></trkpt><trkpt lat="43.4975495" lon="12.315406"><ele>563.5</ele><time>2026-05-02T08:56:57.779Z</time></trkpt><trkpt lat="43.4974425" lon="12.3152998"><ele>562.75</ele><time>2026-05-02T08:56:58.771Z</time></trkpt><trkpt lat="43.4973236" lon="12.3151863"><ele>562.0</ele><time>2026-05-02T08:56:59.777Z</time></trkpt><trkpt lat="43.4971929" lon="12.315078"><ele>559.3333333333334</ele><time>2026-05-02T08:57:00.758Z</time></trkpt><trkpt lat="43.4970507" lon="12.314981"><ele>556.6666666666666</ele><time>2026-05-02T08:57:01.779Z</time></trkpt><trkpt lat="43.4969023" lon="12.3148898"><ele>554.0</ele><time>2026-05-02T08:57:02.756Z</time></trkpt><trkpt lat="43.4967482" lon="12.3148122"><ele>554.0</ele><time>2026-05-02T08:57:03.774Z</time></trkpt><trkpt lat="43.4965972" lon="12.3147496"><ele>554.0</ele><time>2026-05-02T08:57:04.774Z</time></trkpt><trkpt lat="43.496443" lon="12.3146919"><ele>554.0</ele><time>2026-05-02T08:57:05.775Z</time></trkpt><trkpt lat="43.5005618" lon="12.3160836"><ele>557.5</ele><time>2026-05-02T08:56:35.773Z</time></trkpt><trkpt lat="43.5004387" lon="12.3160165"><ele>561.0</ele><time>2026-05-02T08:56:36.753Z</time></trkpt><trkpt lat="43.5002998" lon="12.3159875"><ele>564.5</ele><time>2026-05-02T08:56:37.763Z</time></trkpt><trkpt lat="43.5001486" lon="12.3159744"><ele>568.0</ele><time>2026-05-02T08:56:38.764Z</time></trkpt><trkpt lat="43.5000088" lon="12.3159514"><ele>570.25</ele><time>2026-05-02T08:56:39.767Z</time></trkpt><trkpt lat="43.4998793" lon="12.3159224"><ele>572.5</ele><time>2026-05-02T08:56:40.765Z</time></trkpt><trkpt lat="43.4997567" lon="12.3158932"><ele>574.75</ele><time>2026-05-02T08:56:41.763Z</time></trkpt><trkpt lat="43.4996414" lon="12.3158634"><ele>577.0</ele><time>2026-05-02T08:56:42.762Z</time></trkpt><trkpt lat="43.4995198" lon="12.3158302"><ele>577.75</ele><time>2026-05-02T08:56:43.773Z</time></trkpt><trkpt lat="43.4993915" lon="12.3157903"><ele>578.5</ele><time>2026-05-02T08:56:44.759Z</time></trkpt><trkpt lat="43.4992593" lon="12.3157427"><ele>579.25</ele><time>2026-05-02T08:56:45.78Z</time></trkpt><trkpt lat="43.4991256" lon="12.3156944"><ele>580.0</ele><time>2026-05-02T08:56:46.764Z</time></trkpt><trkpt lat="43.4989847" lon="12.3156538"><ele>580.0</ele><time>2026-05-02T08:56:47.776Z</time></trkpt><trkpt lat="43.4988384" lon="12.3156136"><ele>580.0</ele><time>2026-05-02T08:56:48.761Z</time></trkpt><trkpt lat="43.4986902" lon="12.3155776"><ele>580.0</ele><time>2026-05-02T08:56:49.766Z</time></trkpt><trkpt lat="43.4985345" lon="12.3155479"><ele>575.0</ele><time>2026-05-02T08:56:50.755Z</time></trkpt><trkpt lat="43.4983761" lon="12.3155276"><ele>570.0</ele><time>2026-05-02T08:56:51.776Z</time></trkpt><trkpt lat="43.4982131" lon="12.3155235"><ele>565.0</ele><time>2026-05-02T08:56:52.752Z</time></trkpt><trkpt lat="43.4980538" lon="12.3155269"><ele>564.25</ele><time>2026-05-02T08:56:53.769Z</time></trkpt><trkpt lat="43.4979021" lon="12.3155283"><ele>563.5</ele><time>2026-05-02T08:56:54.763Z</time></trkpt><trkpt lat="43.4977681" lon="12.3155113"><ele>562.75</ele><time>2026-05-02T08:56:55.771Z</time></trkpt><trkpt lat="43.4976559" lon="12.3154785"><ele>562.0</ele><time>2026-05-02T08:56:56.761Z</time></trkpt><trkpt lat="43.4975495" lon="12.315406"><ele>562.0</ele><time>2026-05-02T08:56:57.779Z</time></trkpt><trkpt lat="43.4974425" lon="12.3152998"><ele>562.0</ele><time>2026-05-02T08:56:58.771Z</time></trkpt><trkpt lat="43.4973236" lon="12.3151863"><ele>562.0</ele><time>2026-05-02T08:56:59.777Z</time></trkpt><trkpt lat="43.4971929" lon="12.315078"><ele>562.0</ele><time>2026-05-02T08:57:00.758Z</time></trkpt><trkpt lat="43.4970507" lon="12.314981"><ele>559.3333333333334</ele><time>2026-05-02T08:57:01.779Z</time></trkpt><trkpt lat="43.4969023" lon="12.3148898"><ele>556.6666666666666</ele><time>2026-05-02T08:57:02.756Z</time></trkpt><trkpt lat="43.4967482" lon="12.3148122"><ele>554.0</ele><time>2026-05-02T08:57:03.774Z</time></trkpt><trkpt lat="43.4965972" lon="12.3147496"><ele>554.0</ele><time>2026-05-02T08:57:04.774Z</time></trkpt><trkpt lat="43.496443" lon="12.3146919"><ele>554.0</ele><time>2026-05-02T08:57:05.775Z</time></trkpt><trkpt lat="43.4962886" lon="12.3146289"><ele>554.0</ele><time>2026-05-02T08:57:06.758Z</time></trkpt><trkpt lat="43.4961315" lon="12.3145559"><ele>555.0</ele><time>2026-05-02T08:57:07.772Z</time></trkpt><trkpt lat="43.4959725" lon="12.3144725"><ele>556.0</ele><time>2026-05-02T08:57:08.765Z</time></trkpt><trkpt lat="43.4958173" lon="12.3143725"><ele>557.0</ele><time>2026-05-02T08:57:09.767Z</time></trkpt><trkpt lat="43.4956694" lon="12.3142637"><ele>557.0</ele><time>2026-05-02T08:57:10.766Z</time></trkpt><trkpt lat="43.4955192" lon="12.314153"><ele>557.0</ele><time>2026-05-02T08:57:11.768Z</time></trkpt><trkpt lat="43.495372" lon="12.3140309"><ele>557.0</ele><time>2026-05-02T08:57:12.755Z</time></trkpt><trkpt lat="43.4952325" lon="12.3139039"><ele>555.3333333333333</ele><time>2026-05-02T08:57:13.77Z</time></trkpt><trkpt lat="43.495088" lon="12.3137765"><ele>553.6666666666666</ele><time>2026-05-02T08:57:14.771Z</time></trkpt><trkpt lat="43.4949451" lon="12.3136483"><ele>552.0</ele><time>2026-05-02T08:57:15.779Z</time></trkpt><trkpt lat="43.4948014" lon="12.3135159"><ele>552.0</ele><time>2026-05-02T08:57:16.761Z</time></trkpt><trkpt lat="43.4946594" lon="12.3133788"><ele>552.0</ele><time>2026-05-02T08:57:17.772Z</time></trkpt><trkpt lat="43.4945175" lon="12.3132342"><ele>552.0</ele><time>2026-05-02T08:57:18.754Z</time></trkpt><trkpt lat="43.494375" lon="12.3130878"><ele>551.3333333333334</ele><time>2026-05-02T08:57:19.777Z</time></trkpt><trkpt lat="43.4942305" lon="12.3129357"><ele>550.6666666666667</ele><time>2026-05-02T08:57:20.769Z</time></trkpt><trkpt lat="43.4940936" lon="12.3127741"><ele>550.0</ele><time>2026-05-02T08:57:21.78Z</time></trkpt><trkpt lat="43.4939577" lon="12.3125972"><ele>550.0</ele><time>2026-05-02T08:57:22.762Z</time></trkpt><trkpt lat="43.4938134" lon="12.3124199"><ele>550.0</ele><time>2026-05-02T08:57:23.775Z</time></trkpt><trkpt lat="43.4936715" lon="12.312239"><ele>550.0</ele><time>2026-05-02T08:57:24.771Z</time></trkpt><trkpt lat="43.4935283" lon="12.3120505"><ele>550.3333333333334</ele><time>2026-05-02T08:57:25.773Z</time></trkpt><trkpt lat="43.4933799" lon="12.3118622"><ele>550.6666666666666</ele><time>2026-05-02T08:57:26.763Z</time></trkpt><trkpt lat="43.4932277" lon="12.311685"><ele>551.0</ele><time>2026-05-02T08:57:27.772Z</time></trkpt><trkpt lat="43.4930842" lon="12.3115345"><ele>550.6666666666666</ele><time>2026-05-02T08:57:28.763Z</time></trkpt><trkpt lat="43.4929394" lon="12.3113977"><ele>550.3333333333334</ele><time>2026-05-02T08:57:29.767Z</time></trkpt><trkpt lat="43.4928005" lon="12.3112478"><ele>550.0</ele><time>2026-05-02T08:57:30.766Z</time></trkpt><trkpt lat="43.4926712" lon="12.3110764"><ele>550.0</ele><time>2026-05-02T08:57:31.769Z</time></trkpt><trkpt lat="43.4925521" lon="12.3108811"><ele>550.0</ele><time>2026-05-02T08:57:32.758Z</time></trkpt><trkpt lat="43.4924274" lon="12.3106539"><ele>550.0</ele><time>2026-05-02T08:57:33.782Z</time></trkpt><trkpt lat="43.4923006" lon="12.3104096"><ele>548.3333333333334</ele><time>2026-05-02T08:57:34.775Z</time></trkpt><trkpt lat="43.4921939" lon="12.310189"><ele>546.6666666666666</ele><time>2026-05-02T08:57:35.774Z</time></trkpt><trkpt lat="43.4921022" lon="12.3100154"><ele>545.0</ele><time>2026-05-02T08:57:36.758Z</time></trkpt><trkpt lat="43.492009" lon="12.3098822"><ele>548.0</ele><time>2026-05-02T08:57:37.781Z</time></trkpt><trkpt lat="43.4918892" lon="12.3097834"><ele>551.0</ele><time>2026-05-02T08:57:38.764Z</time></trkpt><trkpt lat="43.491727" lon="12.3097268"><ele>554.0</ele><time>2026-05-02T08:57:39.759Z</time></trkpt><trkpt lat="43.4915438" lon="12.3096722"><ele>554.0</ele><time>2026-05-02T08:57:40.758Z</time></trkpt><trkpt lat="43.4913496" lon="12.3095922"><ele>554.0</ele><time>2026-05-02T08:57:41.762Z</time></trkpt><trkpt lat="43.4911641" lon="12.3094702"><ele>554.0</ele><time>2026-05-02T08:57:42.762Z</time></trkpt><trkpt lat="43.4909941" lon="12.3093583"><ele>553.6666666666666</ele><time>2026-05-02T08:57:43.763Z</time></trkpt><trkpt lat="43.4908221" lon="12.3092887"><ele>553.3333333333334</ele><time>2026-05-02T08:57:44.772Z</time></trkpt><trkpt lat="43.4906427" lon="12.3092627"><ele>553.0</ele><time>2026-05-02T08:57:45.774Z</time></trkpt><trkpt lat="43.4904567" lon="12.3092754"><ele>551.0</ele><time>2026-05-02T08:57:46.762Z</time></trkpt><trkpt lat="43.490273" lon="12.3092895"><ele>549.0</ele><time>2026-05-02T08:57:47.766Z</time></trkpt><trkpt lat="43.4901052" lon="12.3093029"><ele>547.0</ele><time>2026-05-02T08:57:48.77Z</time></trkpt><trkpt lat="43.4899809" lon="12.3093422"><ele>547.0</ele><time>2026-05-02T08:57:49.772Z</time></trkpt><trkpt lat="43.4898941" lon="12.3094024"><ele>547.0</ele><time>2026-05-02T08:57:50.757Z</time></trkpt><trkpt lat="43.4898112" lon="12.3094933"><ele>547.0</ele><time>2026-05-02T08:57:52.761Z</time></trkpt><trkpt lat="43.489735" lon="12.3095577"><ele>547.0</ele><time>2026-05-02T08:57:54.769Z</time></trkpt><trkpt lat="43.4896815" lon="12.3096059"><ele>547.0</ele><time>2026-05-02T08:57:55.767Z</time></trkpt><trkpt lat="43.4895719" lon="12.3096818"><ele>546.6666666666667</ele><time>2026-05-02T08:57:57.776Z</time></trkpt><trkpt lat="43.4895119" lon="12.3097176"><ele>546.3333333333334</ele><time>2026-05-02T08:57:58.773Z</time></trkpt><trkpt lat="43.4894433" lon="12.3097553"><ele>546.0</ele><time>2026-05-02T08:57:59.77Z</time></trkpt><trkpt lat="43.4893671" lon="12.3098011"><ele>545.6666666666666</ele><time>2026-05-02T08:58:00.769Z</time></trkpt><trkpt lat="43.4892963" lon="12.3098549"><ele>545.3333333333333</ele><time>2026-05-02T08:58:01.786Z</time></trkpt><trkpt lat="43.4892392" lon="12.3099026"><ele>545.0</ele><time>2026-05-02T08:58:02.772Z</time></trkpt><trkpt lat="43.4891312" lon="12.3099346"><ele>546.3333333333333</ele><time>2026-05-02T08:58:04.777Z</time></trkpt><trkpt lat="43.4890239" lon="12.3098895"><ele>547.6666666666666</ele><time>2026-05-02T08:58:06.776Z</time></trkpt><trkpt lat="43.4889623" lon="12.309844"><ele>549.0</ele><time>2026-05-02T08:58:07.781Z</time></trkpt><trkpt lat="43.4888828" lon="12.3098299"><ele>550.3333333333334</ele><time>2026-05-02T08:58:08.77Z</time></trkpt><trkpt lat="43.4887928" lon="12.3098406"><ele>551.6666666666667</ele><time>2026-05-02T08:58:09.769Z</time></trkpt><trkpt lat="43.4886993" lon="12.3098468"><ele>553.0</ele><time>2026-05-02T08:58:10.77Z</time></trkpt><trkpt lat="43.488611" lon="12.3098284"><ele>552.1999999999999</ele><time>2026-05-02T08:58:11.776Z</time></trkpt><trkpt lat="43.4885183" lon="12.3097799"><ele>551.4</ele><time>2026-05-02T08:58:12.769Z</time></trkpt><trkpt lat="43.4884261" lon="12.3097367"><ele>550.5999999999999</ele><time>2026-05-02T08:58:13.775Z</time></trkpt><trkpt lat="43.4883329" lon="12.3097039"><ele>549.8</ele><time>2026-05-02T08:58:14.77Z</time></trkpt><trkpt lat="43.4882413" lon="12.3096583"><ele>549.0</ele><time>2026-05-02T08:58:15.785Z</time></trkpt><trkpt lat="43.488154" lon="12.309614"><ele>549.0</ele><time>2026-05-02T08:58:16.757Z</time></trkpt><trkpt lat="43.4880776" lon="12.3095774"><ele>549.0</ele><time>2026-05-02T08:58:17.766Z</time></trkpt><trkpt lat="43.4880151" lon="12.3095426"><ele>549.0</ele><time>2026-05-02T08:58:18.776Z</time></trkpt><trkpt lat="43.4879097" lon="12.3094716"><ele>549.0</ele><time>2026-05-02T08:58:20.763Z</time></trkpt><trkpt lat="43.4878649" lon="12.3093959"><ele>549.0</ele><time>2026-05-02T08:58:21.763Z</time></trkpt><trkpt lat="43.4878282" lon="12.3093058"><ele>549.0</ele><time>2026-05-02T08:58:22.775Z</time></trkpt><trkpt lat="43.4877999" lon="12.3092101"><ele>549.3333333333334</ele><time>2026-05-02T08:58:23.76Z</time></trkpt><trkpt lat="43.4877666" lon="12.3091136"><ele>549.6666666666666</ele><time>2026-05-02T08:58:24.763Z</time></trkpt><trkpt lat="43.4877234" lon="12.3090245"><ele>550.0</ele><time>2026-05-02T08:58:25.775Z</time></trkpt><trkpt lat="43.4876621" lon="12.308947"><ele>550.3333333333333</ele><time>2026-05-02T08:58:26.768Z</time></trkpt><trkpt lat="43.487593" lon="12.3088671"><ele>550.6666666666666</ele><time>2026-05-02T08:58:27.77Z</time></trkpt><trkpt lat="43.4875172" lon="12.3087732"><ele>551.0</ele><time>2026-05-02T08:58:28.775Z</time></trkpt><trkpt lat="43.4874489" lon="12.3086683"><ele>551.0</ele><time>2026-05-02T08:58:29.759Z</time></trkpt><trkpt lat="43.487386" lon="12.3085568"><ele>551.0</ele><time>2026-05-02T08:58:30.76Z</time></trkpt><trkpt lat="43.4873254" lon="12.3084495"><ele>551.0</ele><time>2026-05-02T08:58:31.776Z</time></trkpt><trkpt lat="43.4872605" lon="12.3083414"><ele>551.0</ele><time>2026-05-02T08:58:32.759Z</time></trkpt><trkpt lat="43.4871979" lon="12.3082346"><ele>551.0</ele><time>2026-05-02T08:58:33.766Z</time></trkpt><trkpt lat="43.4871365" lon="12.3081302"><ele>550.4</ele><time>2026-05-02T08:58:34.76Z</time></trkpt><trkpt lat="43.4870696" lon="12.3080334"><ele>549.8</ele><time>2026-05-02T08:58:35.763Z</time></trkpt><trkpt lat="43.4869925" lon="12.3079486"><ele>549.1999999999999</ele><time>2026-05-02T08:58:36.764Z</time></trkpt><trkpt lat="43.4869036" lon="12.3078821"><ele>548.6</ele><time>2026-05-02T08:58:37.771Z</time></trkpt><trkpt lat="43.486821" lon="12.3078261"><ele>548.0</ele><time>2026-05-02T08:58:38.759Z</time></trkpt><trkpt lat="43.4867594" lon="12.3077523"><ele>548.0</ele><time>2026-05-02T08:58:39.766Z</time></trkpt><trkpt lat="43.4866964" lon="12.3076508"><ele>548.0</ele><time>2026-05-02T08:58:40.756Z</time></trkpt><trkpt lat="43.4866328" lon="12.3075458"><ele>548.0</ele><time>2026-05-02T08:58:41.768Z</time></trkpt><trkpt lat="43.4865543" lon="12.3074625"><ele>548.0</ele><time>2026-05-02T08:58:42.766Z</time></trkpt><trkpt lat="43.4864618" lon="12.307397"><ele>548.0</ele><time>2026-05-02T08:58:43.778Z</time></trkpt><trkpt lat="43.4863687" lon="12.3073205"><ele>548.0</ele><time>2026-05-02T08:58:44.756Z</time></trkpt><trkpt lat="43.4862712" lon="12.3072356"><ele>548.0</ele><time>2026-05-02T08:58:45.769Z</time></trkpt><trkpt lat="43.486165" lon="12.3071548"><ele>548.0</ele><time>2026-05-02T08:58:46.772Z</time></trkpt><trkpt lat="43.4860458" lon="12.3070708"><ele>548.0</ele><time>2026-05-02T08:58:47.776Z</time></trkpt><trkpt lat="43.4859343" lon="12.3069794"><ele>548.0</ele><time>2026-05-02T08:58:48.776Z</time></trkpt><trkpt lat="43.4858363" lon="12.3068773"><ele>548.0</ele><time>2026-05-02T08:58:49.785Z</time></trkpt><trkpt lat="43.4857464" lon="12.3067893"><ele>548.0</ele><time>2026-05-02T08:58:50.756Z</time></trkpt><trkpt lat="43.4856604" lon="12.3067006"><ele>548.0</ele><time>2026-05-02T08:58:51.763Z</time></trkpt><trkpt lat="43.4855783" lon="12.306608"><ele>548.0</ele><time>2026-05-02T08:58:52.758Z</time></trkpt><trkpt lat="43.4854965" lon="12.3065039"><ele>548.75</ele><time>2026-05-02T08:58:53.762Z</time></trkpt><trkpt lat="43.4854106" lon="12.3063933"><ele>549.5</ele><time>2026-05-02T08:58:54.766Z</time></trkpt><trkpt lat="43.4853296" lon="12.3062759"><ele>550.25</ele><time>2026-05-02T08:58:55.788Z</time></trkpt><trkpt lat="43.485243" lon="12.3061621"><ele>551.0</ele><time>2026-05-02T08:58:56.762Z</time></trkpt><trkpt lat="43.4851605" lon="12.3060516"><ele>551.0</ele><time>2026-05-02T08:58:57.781Z</time></trkpt><trkpt lat="43.4850827" lon="12.3059576"><ele>551.0</ele><time>2026-05-02T08:58:58.775Z</time></trkpt><trkpt lat="43.4850097" lon="12.3058893"><ele>551.0</ele><time>2026-05-02T08:58:59.78Z</time></trkpt><trkpt lat="43.48495" lon="12.3058394"><ele>551.0</ele><time>2026-05-02T08:59:00.759Z</time></trkpt><trkpt lat="43.4848747" lon="12.3057718"><ele>551.0</ele><time>2026-05-02T08:59:02.757Z</time></trkpt><trkpt lat="43.4848225" lon="12.3057217"><ele>551.0</ele><time>2026-05-02T08:59:04.768Z</time></trkpt><trkpt lat="43.4847589" lon="12.3056705"><ele>551.5</ele><time>2026-05-02T08:59:06.767Z</time></trkpt><trkpt lat="43.4846674" lon="12.3055622"><ele>552.0</ele><time>2026-05-02T08:59:08.762Z</time></trkpt><trkpt lat="43.4846089" lon="12.305485"><ele>552.5</ele><time>2026-05-02T08:59:10.766Z</time></trkpt><trkpt lat="43.484569" lon="12.3053876"><ele>553.0</ele><time>2026-05-02T08:59:16.756Z</time></trkpt><trkpt lat="43.4845359" lon="12.3053042"><ele>553.5</ele><time>2026-05-02T08:59:18.785Z</time></trkpt><trkpt lat="43.4844892" lon="12.3052016"><ele>554.0</ele><time>2026-05-02T08:59:21.761Z</time></trkpt><trkpt lat="43.484414" lon="12.3050835"><ele>552.8</ele><time>2026-05-02T08:59:23.779Z</time></trkpt><trkpt lat="43.4843687" lon="12.304996"><ele>551.5999999999999</ele><time>2026-05-02T08:59:24.765Z</time></trkpt><trkpt lat="43.4843265" lon="12.3048774"><ele>550.4</ele><time>2026-05-02T08:59:25.777Z</time></trkpt><trkpt lat="43.4842756" lon="12.3047331"><ele>549.1999999999999</ele><time>2026-05-02T08:59:26.754Z</time></trkpt><trkpt lat="43.4842146" lon="12.3045806"><ele>548.0</ele><time>2026-05-02T08:59:27.769Z</time></trkpt><trkpt lat="43.4841607" lon="12.3044416"><ele>547.8333333333333</ele><time>2026-05-02T08:59:28.758Z</time></trkpt><trkpt lat="43.4841159" lon="12.3043247"><ele>547.6666666666666</ele><time>2026-05-02T08:59:29.764Z</time></trkpt><trkpt lat="43.4840801" lon="12.3042304"><ele>547.5</ele><time>2026-05-02T08:59:30.773Z</time></trkpt><trkpt lat="43.4840441" lon="12.3040703"><ele>547.3333333333334</ele><time>2026-05-02T08:59:32.774Z</time></trkpt><trkpt lat="43.4840502" lon="12.3039758"><ele>547.1666666666667</ele><time>2026-05-02T08:59:33.778Z</time></trkpt><trkpt lat="43.4840716" lon="12.303867"><ele>547.0</ele><time>2026-05-02T08:59:34.768Z</time></trkpt><trkpt lat="43.4840749" lon="12.3037441"><ele>546.6</ele><time>2026-05-02T08:59:35.773Z</time></trkpt><trkpt lat="43.4840676" lon="12.3036222"><ele>546.2</ele><time>2026-05-02T08:59:36.765Z</time></trkpt><trkpt lat="43.4840392" lon="12.3034757"><ele>545.8</ele><time>2026-05-02T08:59:37.759Z</time></trkpt><trkpt lat="43.4840003" lon="12.3033117"><ele>545.4</ele><time>2026-05-02T08:59:38.763Z</time></trkpt><trkpt lat="43.4839541" lon="12.3031532"><ele>545.0</ele><time>2026-05-02T08:59:39.774Z</time></trkpt><trkpt lat="43.483904" lon="12.3030099"><ele>544.3333333333333</ele><time>2026-05-02T08:59:40.764Z</time></trkpt><trkpt lat="43.4838472" lon="12.3028961"><ele>543.6666666666666</ele><time>2026-05-02T08:59:41.782Z</time></trkpt><trkpt lat="43.4837873" lon="12.3028009"><ele>543.0</ele><time>2026-05-02T08:59:42.762Z</time></trkpt><trkpt lat="43.4837177" lon="12.3027271"><ele>542.3333333333334</ele><time>2026-05-02T08:59:43.778Z</time></trkpt><trkpt lat="43.483648" lon="12.3026661"><ele>541.6666666666667</ele><time>2026-05-02T08:59:44.77Z</time></trkpt><trkpt lat="43.4835835" lon="12.30261"><ele>541.0</ele><time>2026-05-02T08:59:45.763Z</time></trkpt><trkpt lat="43.483528" lon="12.3024722"><ele>540.6</ele><time>2026-05-02T08:59:47.771Z</time></trkpt><trkpt lat="43.4835089" lon="12.3023264"><ele>540.2</ele><time>2026-05-02T08:59:49.772Z</time></trkpt><trkpt lat="43.4834425" lon="12.3022637"><ele>539.8</ele><time>2026-05-02T08:59:51.762Z</time></trkpt><trkpt lat="43.4833283" lon="12.3022247"><ele>539.4</ele><time>2026-05-02T08:59:53.765Z</time></trkpt><trkpt lat="43.4832637" lon="12.3021781"><ele>539.0</ele><time>2026-05-02T08:59:54.756Z</time></trkpt><trkpt lat="43.4831868" lon="12.3021174"><ele>538.8</ele><time>2026-05-02T08:59:55.764Z</time></trkpt><trkpt lat="43.4830961" lon="12.3020671"><ele>538.5999999999999</ele><time>2026-05-02T08:59:56.763Z</time></trkpt><trkpt lat="43.4830052" lon="12.3020169"><ele>538.4</ele><time>2026-05-02T08:59:57.755Z</time></trkpt><trkpt lat="43.4829069" lon="12.3019656"><ele>538.1999999999999</ele><time>2026-05-02T08:59:58.754Z</time></trkpt><trkpt lat="43.4828027" lon="12.3019048"><ele>538.0</ele><time>2026-05-02T08:59:59.77Z</time></trkpt><trkpt lat="43.4827008" lon="12.3018418"><ele>538.0</ele><time>2026-05-02T09:00:00.767Z</time></trkpt><trkpt lat="43.4826071" lon="12.3017788"><ele>538.0</ele><time>2026-05-02T09:00:01.774Z</time></trkpt><trkpt lat="43.4825211" lon="12.3017226"><ele>538.0</ele><time>2026-05-02T09:00:02.759Z</time></trkpt><trkpt lat="43.4824442" lon="12.3016896"><ele>538.0</ele><time>2026-05-02T09:00:03.764Z</time></trkpt><trkpt lat="43.4823734" lon="12.301659"><ele>538.0</ele><time>2026-05-02T09:00:04.77Z</time></trkpt><trkpt lat="43.4822962" lon="12.3016289"><ele>538.0</ele><time>2026-05-02T09:00:05.767Z</time></trkpt><trkpt lat="43.4822127" lon="12.3015917"><ele>538.0</ele><time>2026-05-02T09:00:06.771Z</time></trkpt><trkpt lat="43.4821269" lon="12.3015465"><ele>538.0</ele><time>2026-05-02T09:00:07.783Z</time></trkpt><trkpt lat="43.4820427" lon="12.3014917"><ele>538.0</ele><time>2026-05-02T09:00:08.756Z</time></trkpt><trkpt lat="43.4819538" lon="12.3014299"><ele>538.0</ele><time>2026-05-02T09:00:09.784Z</time></trkpt><trkpt lat="43.4818637" lon="12.3013602"><ele>538.0</ele><time>2026-05-02T09:00:10.776Z</time></trkpt><trkpt lat="43.4817739" lon="12.301287"><ele>537.6666666666667</ele><time>2026-05-02T09:00:11.779Z</time></trkpt><trkpt lat="43.4816951" lon="12.3012192"><ele>537.3333333333334</ele><time>2026-05-02T09:00:12.766Z</time></trkpt><trkpt lat="43.4816324" lon="12.3011521"><ele>537.0</ele><time>2026-05-02T09:00:13.775Z</time></trkpt><trkpt lat="43.4815795" lon="12.3010938"><ele>536.6666666666666</ele><time>2026-05-02T09:00:14.771Z</time></trkpt><trkpt lat="43.4814935" lon="12.3009676"><ele>536.3333333333333</ele><time>2026-05-02T09:00:16.761Z</time></trkpt><trkpt lat="43.4814377" lon="12.3008888"><ele>536.0</ele><time>2026-05-02T09:00:17.773Z</time></trkpt><trkpt lat="43.4813791" lon="12.3008099"><ele>536.0</ele><time>2026-05-02T09:00:18.769Z</time></trkpt><trkpt lat="43.4813227" lon="12.3007446"><ele>536.0</ele><time>2026-05-02T09:00:19.769Z</time></trkpt><trkpt lat="43.4812667" lon="12.3007049"><ele>536.0</ele><time>2026-05-02T09:00:20.763Z</time></trkpt><trkpt lat="43.4812025" lon="12.3006804"><ele>536.0</ele><time>2026-05-02T09:00:21.781Z</time></trkpt><trkpt lat="43.4811346" lon="12.3006392"><ele>536.0</ele><time>2026-05-02T09:00:22.76Z</time></trkpt><trkpt lat="43.4810615" lon="12.3005743"><ele>536.0</ele><time>2026-05-02T09:00:23.76Z</time></trkpt><trkpt lat="43.4809772" lon="12.3005021"><ele>537.0</ele><time>2026-05-02T09:00:24.755Z</time></trkpt><trkpt lat="43.4808911" lon="12.3004451"><ele>538.0</ele><time>2026-05-02T09:00:25.758Z</time></trkpt><trkpt lat="43.4808016" lon="12.300394"><ele>539.0</ele><time>2026-05-02T09:00:26.76Z</time></trkpt><trkpt lat="43.4807139" lon="12.3003361"><ele>540.0</ele><time>2026-05-02T09:00:27.775Z</time></trkpt><trkpt lat="43.4806233" lon="12.3002736"><ele>541.0</ele><time>2026-05-02T09:00:28.759Z</time></trkpt><trkpt lat="43.4805267" lon="12.3002065"><ele>544.0</ele><time>2026-05-02T09:00:29.761Z</time></trkpt><trkpt lat="43.480429" lon="12.3001369"><ele>547.0</ele><time>2026-05-02T09:00:30.757Z</time></trkpt><trkpt lat="43.480326" lon="12.3000738"><ele>550.0</ele><time>2026-05-02T09:00:31.778Z</time></trkpt><trkpt lat="43.4802198" lon="12.3000103"><ele>553.0</ele><time>2026-05-02T09:00:32.756Z</time></trkpt><trkpt lat="43.48011" lon="12.2999531"><ele>553.0</ele><time>2026-05-02T09:00:33.77Z</time></trkpt><trkpt lat="43.4799953" lon="12.2998884"><ele>553.0</ele><time>2026-05-02T09:00:34.757Z</time></trkpt><trkpt lat="43.4798856" lon="12.2998128"><ele>553.0</ele><time>2026-05-02T09:00:35.765Z</time></trkpt><trkpt lat="43.4797763" lon="12.2997164"><ele>553.0</ele><time>2026-05-02T09:00:36.769Z</time></trkpt><trkpt lat="43.4796583" lon="12.299625"><ele>552.25</ele><time>2026-05-02T09:00:37.777Z</time></trkpt><trkpt lat="43.4795371" lon="12.2995487"><ele>551.5</ele><time>2026-05-02T09:00:38.779Z</time></trkpt><trkpt lat="43.4794186" lon="12.2994833"><ele>550.75</ele><time>2026-05-02T09:00:39.774Z</time></trkpt><trkpt lat="43.4793016" lon="12.2994122"><ele>550.0</ele><time>2026-05-02T09:00:40.754Z</time></trkpt><trkpt lat="43.4791962" lon="12.299334"><ele>550.0</ele><time>2026-05-02T09:00:41.773Z</time></trkpt><trkpt lat="43.4791186" lon="12.2992515"><ele>550.0</ele><time>2026-05-02T09:00:42.77Z</time></trkpt><trkpt lat="43.4790588" lon="12.2991766"><ele>550.0</ele><time>2026-05-02T09:00:43.771Z</time></trkpt><trkpt lat="43.4790123" lon="12.299115"><ele>550.0</ele><time>2026-05-02T09:00:44.773Z</time></trkpt><trkpt lat="43.478962" lon="12.2990564"><ele>550.0</ele><time>2026-05-02T09:00:45.778Z</time></trkpt><trkpt lat="43.4789084" lon="12.2989944"><ele>550.0</ele><time>2026-05-02T09:00:46.769Z</time></trkpt><trkpt lat="43.4788626" lon="12.2989311"><ele>550.0</ele><time>2026-05-02T09:00:47.78Z</time></trkpt><trkpt lat="43.4787902" lon="12.298824"><ele>549.6</ele><time>2026-05-02T09:00:49.771Z</time></trkpt><trkpt lat="43.4786939" lon="12.2986924"><ele>549.2</ele><time>2026-05-02T09:00:51.781Z</time></trkpt><trkpt lat="43.4786399" lon="12.2985903"><ele>548.8</ele><time>2026-05-02T09:00:52.764Z</time></trkpt><trkpt lat="43.4785807" lon="12.2984701"><ele>548.4</ele><time>2026-05-02T09:00:53.779Z</time></trkpt><trkpt lat="43.4785078" lon="12.2983471"><ele>548.0</ele><time>2026-05-02T09:00:54.77Z</time></trkpt><trkpt lat="43.4784328" lon="12.2982381"><ele>548.0</ele><time>2026-05-02T09:00:55.775Z</time></trkpt><trkpt lat="43.4783645" lon="12.2981449"><ele>548.0</ele><time>2026-05-02T09:00:56.777Z</time></trkpt><trkpt lat="43.4782989" lon="12.2980671"><ele>548.0</ele><time>2026-05-02T09:00:57.777Z</time></trkpt><trkpt lat="43.4782255" lon="12.2979986"><ele>548.0</ele><time>2026-05-02T09:00:58.76Z</time></trkpt><trkpt lat="43.4781418" lon="12.2979368"><ele>548.0</ele><time>2026-05-02T09:00:59.776Z</time></trkpt><trkpt lat="43.4780595" lon="12.2978788"><ele>548.3333333333333</ele><time>2026-05-02T09:01:00.76Z</time></trkpt><trkpt lat="43.4779805" lon="12.2978238"><ele>548.6666666666666</ele><time>2026-05-02T09:01:01.765Z</time></trkpt><trkpt lat="43.4779178" lon="12.2977794"><ele>549.0</ele><time>2026-05-02T09:01:02.772Z</time></trkpt><trkpt lat="43.4778553" lon="12.2977399"><ele>549.3333333333334</ele><time>2026-05-02T09:01:03.774Z</time></trkpt><trkpt lat="43.4777417" lon="12.2976902"><ele>549.6666666666667</ele><time>2026-05-02T09:01:05.777Z</time></trkpt><trkpt lat="43.4776664" lon="12.2976159"><ele>550.0</ele><time>2026-05-02T09:01:07.778Z</time></trkpt><trkpt lat="43.4775733" lon="12.2976092"><ele>550.8</ele><time>2026-05-02T09:01:09.776Z</time></trkpt><trkpt lat="43.4774633" lon="12.2976205"><ele>551.6</ele><time>2026-05-02T09:01:11.77Z</time></trkpt><trkpt lat="43.477363" lon="12.2975641"><ele>552.4</ele><time>2026-05-02T09:01:13.766Z</time></trkpt><trkpt lat="43.477289" lon="12.2975006"><ele>553.2</ele><time>2026-05-02T09:01:15.771Z</time></trkpt><trkpt lat="43.4772189" lon="12.2974607"><ele>554.0</ele><time>2026-05-02T09:01:17.772Z</time></trkpt><trkpt lat="43.4771124" lon="12.2974367"><ele>553.8333333333333</ele><time>2026-05-02T09:01:19.757Z</time></trkpt><trkpt lat="43.4770395" lon="12.2974168"><ele>553.6666666666666</ele><time>2026-05-02T09:01:20.761Z</time></trkpt><trkpt lat="43.4769837" lon="12.2973727"><ele>553.5</ele><time>2026-05-02T09:01:21.765Z</time></trkpt><trkpt lat="43.4769007" lon="12.2972583"><ele>553.3333333333334</ele><time>2026-05-02T09:01:23.766Z</time></trkpt><trkpt lat="43.4768005" lon="12.297241"><ele>553.1666666666667</ele><time>2026-05-02T09:01:25.752Z</time></trkpt><trkpt lat="43.4767358" lon="12.2971702"><ele>553.0</ele><time>2026-05-02T09:01:27.784Z</time></trkpt><trkpt lat="43.4766938" lon="12.2971004"><ele>553.5</ele><time>2026-05-02T09:01:29.747Z</time></trkpt><trkpt lat="43.4766279" lon="12.2970415"><ele>554.0</ele><time>2026-05-02T09:01:32.77Z</time></trkpt><trkpt lat="43.4765657" lon="12.2969846"><ele>554.5</ele><time>2026-05-02T09:01:34.761Z</time></trkpt><trkpt lat="43.4765124" lon="12.2969227"><ele>555.0</ele><time>2026-05-02T09:01:36.768Z</time></trkpt><trkpt lat="43.476494" lon="12.2968135"><ele>555.5</ele><time>2026-05-02T09:01:39.768Z</time></trkpt><trkpt lat="43.4764563" lon="12.2967423"><ele>556.0</ele><time>2026-05-02T09:01:41.788Z</time></trkpt><trkpt lat="43.476371" lon="12.2967051"><ele>556.0</ele><time>2026-05-02T09:01:44.763Z</time></trkpt><trkpt lat="43.4763198" lon="12.2966434"><ele>556.0</ele><time>2026-05-02T09:01:46.766Z</time></trkpt><trkpt lat="43.4762524" lon="12.2965575"><ele>556.0</ele><time>2026-05-02T09:01:48.774Z</time></trkpt><trkpt lat="43.4761681" lon="12.2964546"><ele>556.0</ele><time>2026-05-02T09:01:50.767Z</time></trkpt><trkpt lat="43.4761025" lon="12.2964057"><ele>556.0</ele><time>2026-05-02T09:01:51.76Z</time></trkpt><trkpt lat="43.4760472" lon="12.2963605"><ele>556.0</ele><time>2026-05-02T09:01:52.767Z</time></trkpt><trkpt lat="43.4759861" lon="12.2963081"><ele>555.6666666666667</ele><time>2026-05-02T09:01:53.765Z</time></trkpt><trkpt lat="43.4759206" lon="12.2962492"><ele>555.3333333333334</ele><time>2026-05-02T09:01:54.757Z</time></trkpt><trkpt lat="43.4758486" lon="12.2961797"><ele>555.0</ele><time>2026-05-02T09:01:55.779Z</time></trkpt><trkpt lat="43.4757657" lon="12.2961276"><ele>554.6666666666666</ele><time>2026-05-02T09:01:56.765Z</time></trkpt><trkpt lat="43.4756817" lon="12.2960671"><ele>554.3333333333333</ele><time>2026-05-02T09:01:57.779Z</time></trkpt><trkpt lat="43.4755977" lon="12.2960016"><ele>554.0</ele><time>2026-05-02T09:01:58.76Z</time></trkpt><trkpt lat="43.4755107" lon="12.2959405"><ele>553.5</ele><time>2026-05-02T09:01:59.771Z</time></trkpt><trkpt lat="43.4754292" lon="12.2958808"><ele>553.0</ele><time>2026-05-02T09:02:00.762Z</time></trkpt><trkpt lat="43.475355" lon="12.2958163"><ele>552.5</ele><time>2026-05-02T09:02:01.773Z</time></trkpt><trkpt lat="43.4752871" lon="12.2957507"><ele>552.0</ele><time>2026-05-02T09:02:02.765Z</time></trkpt><trkpt lat="43.4752272" lon="12.2956932"><ele>551.5</ele><time>2026-05-02T09:02:03.78Z</time></trkpt><trkpt lat="43.4751603" lon="12.2956276"><ele>551.0</ele><time>2026-05-02T09:02:04.772Z</time></trkpt><trkpt lat="43.4750838" lon="12.2955622"><ele>551.0</ele><time>2026-05-02T09:02:05.773Z</time></trkpt><trkpt lat="43.4749957" lon="12.2954915"><ele>551.0</ele><time>2026-05-02T09:02:06.769Z</time></trkpt><trkpt lat="43.474902" lon="12.2954214"><ele>551.0</ele><time>2026-05-02T09:02:07.782Z</time></trkpt><trkpt lat="43.4748054" lon="12.2953475"><ele>551.0</ele><time>2026-05-02T09:02:08.765Z</time></trkpt><trkpt lat="43.4747132" lon="12.2952666"><ele>551.0</ele><time>2026-05-02T09:02:09.767Z</time></trkpt><trkpt lat="43.4746245" lon="12.2951916"><ele>549.8</ele><time>2026-05-02T09:02:10.761Z</time></trkpt><trkpt lat="43.4745389" lon="12.2951089"><ele>548.6</ele><time>2026-05-02T09:02:11.773Z</time></trkpt><trkpt lat="43.474463" lon="12.2950336"><ele>547.4</ele><time>2026-05-02T09:02:12.759Z</time></trkpt><trkpt lat="43.4743985" lon="12.2949642"><ele>546.2</ele><time>2026-05-02T09:02:13.771Z</time></trkpt><trkpt lat="43.4743347" lon="12.2949048"><ele>545.0</ele><time>2026-05-02T09:02:14.773Z</time></trkpt><trkpt lat="43.4742503" lon="12.2948193"><ele>545.3333333333333</ele><time>2026-05-02T09:02:16.768Z</time></trkpt><trkpt lat="43.4742095" lon="12.2947387"><ele>545.6666666666666</ele><time>2026-05-02T09:02:24.755Z</time></trkpt><trkpt lat="43.4741615" lon="12.2946794"><ele>546.0</ele><time>2026-05-02T09:02:26.77Z</time></trkpt><trkpt lat="43.4741008" lon="12.2945741"><ele>546.3333333333334</ele><time>2026-05-02T09:02:28.762Z</time></trkpt><trkpt lat="43.4740687" lon="12.2944938"><ele>546.6666666666667</ele><time>2026-05-02T09:02:29.76Z</time></trkpt><trkpt lat="43.4740195" lon="12.2944172"><ele>547.0</ele><time>2026-05-02T09:02:30.761Z</time></trkpt><trkpt lat="43.4739593" lon="12.2943469"><ele>547.0</ele><time>2026-05-02T09:02:31.763Z</time></trkpt><trkpt lat="43.4738808" lon="12.294273"><ele>547.0</ele><time>2026-05-02T09:02:32.762Z</time></trkpt><trkpt lat="43.4737846" lon="12.2941821"><ele>547.0</ele><time>2026-05-02T09:02:33.757Z</time></trkpt><trkpt lat="43.4736835" lon="12.2940962"><ele>547.0</ele><time>2026-05-02T09:02:34.761Z</time></trkpt><trkpt lat="43.47359" lon="12.2939945"><ele>547.5</ele><time>2026-05-02T09:02:35.767Z</time></trkpt><trkpt lat="43.4735096" lon="12.2938992"><ele>548.0</ele><time>2026-05-02T09:02:36.763Z</time></trkpt><trkpt lat="43.4734394" lon="12.2938138"><ele>548.5</ele><time>2026-05-02T09:02:37.768Z</time></trkpt><trkpt lat="43.4733799" lon="12.2937408"><ele>549.0</ele><time>2026-05-02T09:02:38.767Z</time></trkpt><trkpt lat="43.4733195" lon="12.2936743"><ele>549.5</ele><time>2026-05-02T09:02:39.767Z</time></trkpt><trkpt lat="43.47326" lon="12.2936097"><ele>550.0</ele><time>2026-05-02T09:02:40.767Z</time></trkpt><trkpt lat="43.4731882" lon="12.2935405"><ele>550.0</ele><time>2026-05-02T09:02:41.765Z</time></trkpt><trkpt lat="43.4731178" lon="12.2934599"><ele>550.0</ele><time>2026-05-02T09:02:42.768Z</time></trkpt><trkpt lat="43.4730484" lon="12.2933615"><ele>550.0</ele><time>2026-05-02T09:02:43.765Z</time></trkpt><trkpt lat="43.4729831" lon="12.2932545"><ele>550.0</ele><time>2026-05-02T09:02:44.759Z</time></trkpt><trkpt lat="43.4729275" lon="12.2931548"><ele>550.0</ele><time>2026-05-02T09:02:45.752Z</time></trkpt><trkpt lat="43.4728866" lon="12.2930677"><ele>550.8333333333334</ele><time>2026-05-02T09:02:46.781Z</time></trkpt><trkpt lat="43.4728488" lon="12.2929911"><ele>551.6666666666667</ele><time>2026-05-02T09:02:47.758Z</time></trkpt><trkpt lat="43.472811" lon="12.2929216"><ele>552.5</ele><time>2026-05-02T09:02:48.759Z</time></trkpt><trkpt lat="43.4727547" lon="12.2928046"><ele>553.3333333333334</ele><time>2026-05-02T09:02:50.755Z</time></trkpt><trkpt lat="43.4726997" lon="12.2926839"><ele>554.1666666666666</ele><time>2026-05-02T09:02:52.752Z</time></trkpt><trkpt lat="43.4726274" lon="12.2925712"><ele>555.0</ele><time>2026-05-02T09:02:54.766Z</time></trkpt><trkpt lat="43.472569" lon="12.2924338"><ele>555.0</ele><time>2026-05-02T09:02:56.769Z</time></trkpt><trkpt lat="43.4725114" lon="12.2922654"><ele>555.0</ele><time>2026-05-02T09:02:58.767Z</time></trkpt><trkpt lat="43.472485" lon="12.2921623"><ele>555.0</ele><time>2026-05-02T09:02:59.79Z</time></trkpt><trkpt lat="43.4724637" lon="12.2920544"><ele>555.0</ele><time>2026-05-02T09:03:00.758Z</time></trkpt><trkpt lat="43.4724358" lon="12.2919665"><ele>555.0</ele><time>2026-05-02T09:03:01.768Z</time></trkpt><trkpt lat="43.4724025" lon="12.291883"><ele>555.0</ele><time>2026-05-02T09:03:02.756Z</time></trkpt><trkpt lat="43.4723671" lon="12.2917974"><ele>555.5</ele><time>2026-05-02T09:03:03.77Z</time></trkpt><trkpt lat="43.4723307" lon="12.2917139"><ele>556.0</ele><time>2026-05-02T09:03:04.761Z</time></trkpt><trkpt lat="43.4722963" lon="12.2916342"><ele>556.5</ele><time>2026-05-02T09:03:05.772Z</time></trkpt><trkpt lat="43.4722607" lon="12.29154"><ele>557.0</ele><time>2026-05-02T09:03:06.767Z</time></trkpt><trkpt lat="43.472226" lon="12.2914279"><ele>557.5</ele><time>2026-05-02T09:03:07.769Z</time></trkpt><trkpt lat="43.472192" lon="12.2913226"><ele>558.0</ele><time>2026-05-02T09:03:08.757Z</time></trkpt><trkpt lat="43.4721593" lon="12.2912345"><ele>557.8</ele><time>2026-05-02T09:03:09.758Z</time></trkpt><trkpt lat="43.472132" lon="12.2911527"><ele>557.5999999999999</ele><time>2026-05-02T09:03:10.769Z</time></trkpt><trkpt lat="43.4721084" lon="12.2910693"><ele>557.4000000000001</ele><time>2026-05-02T09:03:11.781Z</time></trkpt><trkpt lat="43.4720767" lon="12.2909812"><ele>557.2</ele><time>2026-05-02T09:03:12.758Z</time></trkpt><trkpt lat="43.4719867" lon="12.2908884"><ele>557.0</ele><time>2026-05-02T09:03:14.766Z</time></trkpt><trkpt lat="43.471878" lon="12.2907683"><ele>557.0</ele><time>2026-05-02T09:03:16.768Z</time></trkpt><trkpt lat="43.4718246" lon="12.2906845"><ele>557.0</ele><time>2026-05-02T09:03:17.763Z</time></trkpt><trkpt lat="43.4717822" lon="12.2906169"><ele>557.0</ele><time>2026-05-02T09:03:18.763Z</time></trkpt><trkpt lat="43.4717298" lon="12.2905238"><ele>557.0</ele><time>2026-05-02T09:03:20.771Z</time></trkpt><trkpt lat="43.4716758" lon="12.2904254"><ele>557.0</ele><time>2026-05-02T09:03:28.753Z</time></trkpt><trkpt lat="43.4716207" lon="12.2903389"><ele>557.0</ele><time>2026-05-02T09:03:30.773Z</time></trkpt><trkpt lat="43.4715621" lon="12.2902273"><ele>557.6</ele><time>2026-05-02T09:03:32.77Z</time></trkpt><trkpt lat="43.4714958" lon="12.2900882"><ele>558.2</ele><time>2026-05-02T09:03:34.761Z</time></trkpt><trkpt lat="43.4714574" lon="12.2900079"><ele>558.8</ele><time>2026-05-02T09:03:35.763Z</time></trkpt><trkpt lat="43.4714005" lon="12.2899184"><ele>559.4</ele><time>2026-05-02T09:03:36.752Z</time></trkpt><trkpt lat="43.4713306" lon="12.2898187"><ele>560.0</ele><time>2026-05-02T09:03:37.782Z</time></trkpt><trkpt lat="43.4712681" lon="12.2897053"><ele>560.4</ele><time>2026-05-02T09:03:38.77Z</time></trkpt><trkpt lat="43.4712197" lon="12.289589"><ele>560.8</ele><time>2026-05-02T09:03:39.782Z</time></trkpt><trkpt lat="43.4711651" lon="12.2894961"><ele>561.2</ele><time>2026-05-02T09:03:40.775Z</time></trkpt><trkpt lat="43.4711049" lon="12.2894232"><ele>561.6</ele><time>2026-05-02T09:03:41.775Z</time></trkpt><trkpt lat="43.4710317" lon="12.2893322"><ele>562.0</ele><time>2026-05-02T09:03:42.771Z</time></trkpt><trkpt lat="43.4709622" lon="12.2892411"><ele>562.0</ele><time>2026-05-02T09:03:43.767Z</time></trkpt><trkpt lat="43.4709202" lon="12.2891721"><ele>562.0</ele><time>2026-05-02T09:03:44.777Z</time></trkpt><trkpt lat="43.4708804" lon="12.2890789"><ele>562.0</ele><time>2026-05-02T09:03:46.767Z</time></trkpt><trkpt lat="43.4708394" lon="12.2890055"><ele>562.0</ele><time>2026-05-02T09:04:14.759Z</time></trkpt><trkpt lat="43.4707871" lon="12.2888385"><ele>562.0</ele><time>2026-05-02T09:04:16.753Z</time></trkpt><trkpt lat="43.4707527" lon="12.2887269"><ele>562.0</ele><time>2026-05-02T09:04:17.784Z</time></trkpt><trkpt lat="43.4707271" lon="12.288632"><ele>561.0</ele><time>2026-05-02T09:04:18.768Z</time></trkpt><trkpt lat="43.4707568" lon="12.2884844"><ele>560.0</ele><time>2026-05-02T09:04:20.771Z</time></trkpt><trkpt lat="43.4707908" lon="12.2884055"><ele>559.0</ele><time>2026-05-02T09:04:21.78Z</time></trkpt><trkpt lat="43.4707832" lon="12.2882461"><ele>558.0</ele><time>2026-05-02T09:04:23.769Z</time></trkpt><trkpt lat="43.4707223" lon="12.2881145"><ele>557.0</ele><time>2026-05-02T09:04:25.753Z</time></trkpt><trkpt lat="43.4706417" lon="12.2880596"><ele>557.0</ele><time>2026-05-02T09:04:27.749Z</time></trkpt><trkpt lat="43.4706155" lon="12.2879772"><ele>557.0</ele><time>2026-05-02T09:04:33.771Z</time></trkpt><trkpt lat="43.4706765" lon="12.2879365"><ele>557.0</ele><time>2026-05-02T09:05:43.762Z</time></trkpt><trkpt lat="43.4707166" lon="12.2878593"><ele>557.0</ele><time>2026-05-02T09:05:54.752Z</time></trkpt><trkpt lat="43.4706698" lon="12.287932"><ele>557.0</ele><time>2026-05-02T09:06:30.757Z</time></trkpt><trkpt lat="43.470617" lon="12.2879847"><ele>557.0</ele><time>2026-05-02T09:06:33.759Z</time></trkpt><trkpt lat="43.4705987" lon="12.2880824"><ele>557.0</ele><time>2026-05-02T09:06:36.746Z</time></trkpt><trkpt lat="43.4706312" lon="12.2882233"><ele>557.0</ele><time>2026-05-02T09:06:39.762Z</time></trkpt><trkpt lat="43.4706767" lon="12.2883566"><ele>557.0</ele><time>2026-05-02T09:06:41.759Z</time></trkpt><trkpt lat="43.4706817" lon="12.2885009"><ele>557.0</ele><time>2026-05-02T09:06:43.766Z</time></trkpt><trkpt lat="43.470673" lon="12.2886377"><ele>557.0</ele><time>2026-05-02T09:06:45.764Z</time></trkpt><trkpt lat="43.4707136" lon="12.28878"><ele>557.0</ele><time>2026-05-02T09:06:47.766Z</time></trkpt><trkpt lat="43.4707669" lon="12.2889141"><ele>557.8333333333333</ele><time>2026-05-02T09:06:49.758Z</time></trkpt><trkpt lat="43.470799" lon="12.2890156"><ele>558.6666666666666</ele><time>2026-05-02T09:06:51.77Z</time></trkpt><trkpt lat="43.4708528" lon="12.2891204"><ele>559.5</ele><time>2026-05-02T09:06:54.761Z</time></trkpt><trkpt lat="43.4709219" lon="12.2891739"><ele>560.3333333333334</ele><time>2026-05-02T09:06:56.758Z</time></trkpt><trkpt lat="43.4709689" lon="12.2892597"><ele>561.1666666666667</ele><time>2026-05-02T09:07:14.769Z</time></trkpt><trkpt lat="43.4710174" lon="12.2893221"><ele>562.0</ele><time>2026-05-02T09:07:16.768Z</time></trkpt><trkpt lat="43.4709801" lon="12.2892196"><ele>562.0</ele><time>2026-05-02T09:07:23.787Z</time></trkpt><trkpt lat="43.4709009" lon="12.2891736"><ele>562.0</ele><time>2026-05-02T09:07:25.772Z</time></trkpt><trkpt lat="43.4708025" lon="12.2891572"><ele>562.0</ele><time>2026-05-02T09:07:27.759Z</time></trkpt><trkpt lat="43.4707256" lon="12.289136"><ele>562.0</ele><time>2026-05-02T09:07:29.766Z</time></trkpt><trkpt lat="43.4706816" lon="12.289047"><ele>562.0</ele><time>2026-05-02T09:07:31.778Z</time></trkpt><trkpt lat="43.4706736" lon="12.2889499"><ele>562.0</ele><time>2026-05-02T09:07:33.773Z</time></trkpt><trkpt lat="43.4706617" lon="12.2888646"><ele>562.0</ele><time>2026-05-02T09:07:36.772Z</time></trkpt><trkpt lat="43.4705896" lon="12.2888394"><ele>562.0</ele><time>2026-05-02T09:07:40.767Z</time></trkpt><trkpt lat="43.4705701" lon="12.2889237"><ele>562.0</ele><time>2026-05-02T09:07:43.763Z</time></trkpt><trkpt lat="43.470646" lon="12.2889849"><ele>562.0</ele><time>2026-05-02T09:07:46.756Z</time></trkpt><trkpt lat="43.4707095" lon="12.2889512"><ele>562.0</ele><time>2026-05-02T09:07:48.751Z</time></trkpt><trkpt lat="43.4707691" lon="12.2889165"><ele>562.0</ele><time>2026-05-02T09:07:50.755Z</time></trkpt><trkpt lat="43.4707578" lon="12.288786"><ele>561.1666666666667</ele><time>2026-05-02T09:08:01.788Z</time></trkpt><trkpt lat="43.4707245" lon="12.2886997"><ele>560.3333333333334</ele><time>2026-05-02T09:08:02.764Z</time></trkpt><trkpt lat="43.4706918" lon="12.2886116"><ele>559.5</ele><time>2026-05-02T09:08:03.77Z</time></trkpt><trkpt lat="43.4706498" lon="12.2884854"><ele>558.6666666666666</ele><time>2026-05-02T09:08:05.77Z</time></trkpt><trkpt lat="43.4706152" lon="12.2883864"><ele>557.8333333333333</ele><time>2026-05-02T09:08:08.756Z</time></trkpt><trkpt lat="43.4706662" lon="12.2884552"><ele>557.0</ele><time>2026-05-02T09:13:24.769Z</time></trkpt><trkpt lat="43.4706656" lon="12.2885659"><ele>557.0</ele><time>2026-05-02T09:13:26.764Z</time></trkpt><trkpt lat="43.4707114" lon="12.2886652"><ele>557.0</ele><time>2026-05-02T09:13:28.764Z</time></trkpt><trkpt lat="43.470767" lon="12.288815"><ele>557.0</ele><time>2026-05-02T09:13:30.748Z</time></trkpt><trkpt lat="43.4707944" lon="12.2889098"><ele>557.0</ele><time>2026-05-02T09:13:31.786Z</time></trkpt><trkpt lat="43.4708276" lon="12.2890063"><ele>557.0</ele><time>2026-05-02T09:13:32.755Z</time></trkpt><trkpt lat="43.4708698" lon="12.2891065"><ele>557.0</ele><time>2026-05-02T09:13:33.769Z</time></trkpt><trkpt lat="43.4709301" lon="12.2892138"><ele>558.0</ele><time>2026-05-02T09:13:34.76Z</time></trkpt><trkpt lat="43.4709953" lon="12.2893219"><ele>559.0</ele><time>2026-05-02T09:13:35.749Z</time></trkpt><trkpt lat="43.4710624" lon="12.2894197"><ele>560.0</ele><time>2026-05-02T09:13:36.756Z</time></trkpt><trkpt lat="43.4711213" lon="12.2895001"><ele>561.0</ele><time>2026-05-02T09:13:37.767Z</time></trkpt><trkpt lat="43.4711951" lon="12.2896245"><ele>562.0</ele><time>2026-05-02T09:13:39.792Z</time></trkpt><trkpt lat="43.4712315" lon="12.2896999"><ele>561.6666666666667</ele><time>2026-05-02T09:13:40.764Z</time></trkpt><trkpt lat="43.471302" lon="12.2898339"><ele>561.3333333333334</ele><time>2026-05-02T09:13:42.759Z</time></trkpt><trkpt lat="43.4713857" lon="12.2899272"><ele>561.0</ele><time>2026-05-02T09:13:44.764Z</time></trkpt><trkpt lat="43.4714637" lon="12.289939"><ele>560.6666666666666</ele><time>2026-05-02T09:13:48.753Z</time></trkpt><trkpt lat="43.4714962" lon="12.2900178"><ele>560.3333333333333</ele><time>2026-05-02T09:13:54.77Z</time></trkpt><trkpt lat="43.4714764" lon="12.2901087"><ele>560.0</ele><time>2026-05-02T09:14:12.758Z</time></trkpt><trkpt lat="43.4715333" lon="12.2902147"><ele>560.0</ele><time>2026-05-02T09:14:15.755Z</time></trkpt><trkpt lat="43.4715688" lon="12.2903117"><ele>560.0</ele><time>2026-05-02T09:14:17.773Z</time></trkpt><trkpt lat="43.471613" lon="12.2904099"><ele>560.0</ele><time>2026-05-02T09:14:19.768Z</time></trkpt><trkpt lat="43.4716753" lon="12.2905006"><ele>560.0</ele><time>2026-05-02T09:14:22.751Z</time></trkpt><trkpt lat="43.4717527" lon="12.2906217"><ele>560.0</ele><time>2026-05-02T09:14:24.768Z</time></trkpt><trkpt lat="43.471797" lon="12.2906927"><ele>560.0</ele><time>2026-05-02T09:14:25.783Z</time></trkpt><trkpt lat="43.4718408" lon="12.2907624"><ele>559.4</ele><time>2026-05-02T09:14:26.763Z</time></trkpt><trkpt lat="43.47188" lon="12.2908349"><ele>558.8</ele><time>2026-05-02T09:14:27.774Z</time></trkpt><trkpt lat="43.4719686" lon="12.2909386"><ele>558.2</ele><time>2026-05-02T09:14:29.774Z</time></trkpt><trkpt lat="43.4720453" lon="12.2910112"><ele>557.6</ele><time>2026-05-02T09:14:31.776Z</time></trkpt><trkpt lat="43.4720931" lon="12.2911382"><ele>557.0</ele><time>2026-05-02T09:14:33.76Z</time></trkpt><trkpt lat="43.4721286" lon="12.2912721"><ele>557.1666666666666</ele><time>2026-05-02T09:14:35.769Z</time></trkpt><trkpt lat="43.4721907" lon="12.2914173"><ele>557.3333333333333</ele><time>2026-05-02T09:14:37.775Z</time></trkpt><trkpt lat="43.4722319" lon="12.2915151"><ele>557.5</ele><time>2026-05-02T09:14:38.77Z</time></trkpt><trkpt lat="43.4722625" lon="12.2916166"><ele>557.6666666666666</ele><time>2026-05-02T09:14:39.764Z</time></trkpt><trkpt lat="43.4722998" lon="12.2917187"><ele>557.8333333333334</ele><time>2026-05-02T09:14:40.763Z</time></trkpt><trkpt lat="43.4723361" lon="12.2918143"><ele>558.0</ele><time>2026-05-02T09:14:41.768Z</time></trkpt><trkpt lat="43.4723692" lon="12.2919007"><ele>558.0</ele><time>2026-05-02T09:14:42.762Z</time></trkpt><trkpt lat="43.4724058" lon="12.2919887"><ele>558.0</ele><time>2026-05-02T09:14:43.764Z</time></trkpt><trkpt lat="43.472437" lon="12.2920649"><ele>558.0</ele><time>2026-05-02T09:14:44.755Z</time></trkpt><trkpt lat="43.472468" lon="12.2921918"><ele>558.0</ele><time>2026-05-02T09:14:46.769Z</time></trkpt><trkpt lat="43.472491" lon="12.2922736"><ele>558.0</ele><time>2026-05-02T09:14:47.762Z</time></trkpt><trkpt lat="43.4725193" lon="12.2923577"><ele>558.0</ele><time>2026-05-02T09:14:48.769Z</time></trkpt><trkpt lat="43.4725604" lon="12.2924885"><ele>557.5</ele><time>2026-05-02T09:14:50.761Z</time></trkpt><trkpt lat="43.4725724" lon="12.2926021"><ele>557.0</ele><time>2026-05-02T09:14:52.765Z</time></trkpt><trkpt lat="43.4725029" lon="12.2926477"><ele>556.5</ele><time>2026-05-02T09:14:55.765Z</time></trkpt><trkpt lat="43.4724313" lon="12.2926034"><ele>556.0</ele><time>2026-05-02T09:14:57.757Z</time></trkpt><trkpt lat="43.4723295" lon="12.2925208"><ele>555.5</ele><time>2026-05-02T09:14:59.758Z</time></trkpt><trkpt lat="43.4722516" lon="12.2924574"><ele>555.0</ele><time>2026-05-02T09:15:01.78Z</time></trkpt><trkpt lat="43.4721716" lon="12.2924339"><ele>553.2</ele><time>2026-05-02T09:15:03.767Z</time></trkpt><trkpt lat="43.4720656" lon="12.2924332"><ele>551.4</ele><time>2026-05-02T09:15:05.763Z</time></trkpt><trkpt lat="43.4719433" lon="12.2924136"><ele>549.6</ele><time>2026-05-02T09:15:07.755Z</time></trkpt><trkpt lat="43.4718309" lon="12.2923846"><ele>547.8</ele><time>2026-05-02T09:15:09.765Z</time></trkpt><trkpt lat="43.4717412" lon="12.2923753"><ele>546.0</ele><time>2026-05-02T09:15:11.765Z</time></trkpt><trkpt lat="43.4716905" lon="12.2924782"><ele>546.0</ele><time>2026-05-02T09:15:13.765Z</time></trkpt><trkpt lat="43.4716978" lon="12.2925749"><ele>546.0</ele><time>2026-05-02T09:15:14.756Z</time></trkpt><trkpt lat="43.471721" lon="12.2926979"><ele>546.0</ele><time>2026-05-02T09:15:15.768Z</time></trkpt><trkpt lat="43.4717576" lon="12.2928281"><ele>546.0</ele><time>2026-05-02T09:15:16.749Z</time></trkpt><trkpt lat="43.4718007" lon="12.2929516"><ele>546.0</ele><time>2026-05-02T09:15:17.767Z</time></trkpt><trkpt lat="43.4718353" lon="12.2930616"><ele>544.1666666666666</ele><time>2026-05-02T09:15:18.76Z</time></trkpt><trkpt lat="43.471842" lon="12.293155"><ele>542.3333333333334</ele><time>2026-05-02T09:15:19.769Z</time></trkpt><trkpt lat="43.4718059" lon="12.2932785"><ele>540.5</ele><time>2026-05-02T09:15:21.761Z</time></trkpt><trkpt lat="43.4717135" lon="12.2932714"><ele>538.6666666666667</ele><time>2026-05-02T09:15:23.764Z</time></trkpt><trkpt lat="43.4716493" lon="12.293248"><ele>536.8333333333334</ele><time>2026-05-02T09:15:24.766Z</time></trkpt><trkpt lat="43.4715774" lon="12.2932562"><ele>535.0</ele><time>2026-05-02T09:15:25.753Z</time></trkpt><trkpt lat="43.4714965" lon="12.2932688"><ele>535.0</ele><time>2026-05-02T09:15:26.757Z</time></trkpt><trkpt lat="43.471418" lon="12.293251"><ele>535.0</ele><time>2026-05-02T09:15:27.759Z</time></trkpt><trkpt lat="43.4713419" lon="12.2931857"><ele>535.0</ele><time>2026-05-02T09:15:28.757Z</time></trkpt><trkpt lat="43.4712463" lon="12.2931018"><ele>535.0</ele><time>2026-05-02T09:15:29.769Z</time></trkpt><trkpt lat="43.4711561" lon="12.2930128"><ele>535.0</ele><time>2026-05-02T09:15:30.751Z</time></trkpt><trkpt lat="43.471071" lon="12.292937"><ele>533.3333333333334</ele><time>2026-05-02T09:15:31.757Z</time></trkpt><trkpt lat="43.4709874" lon="12.2928707"><ele>531.6666666666667</ele><time>2026-05-02T09:15:32.763Z</time></trkpt><trkpt lat="43.4709085" lon="12.2928042"><ele>530.0</ele><time>2026-05-02T09:15:33.779Z</time></trkpt><trkpt lat="43.470841" lon="12.2927239"><ele>528.3333333333334</ele><time>2026-05-02T09:15:34.756Z</time></trkpt><trkpt lat="43.470786" lon="12.2926438"><ele>526.6666666666666</ele><time>2026-05-02T09:15:35.768Z</time></trkpt><trkpt lat="43.4707351" lon="12.2925567"><ele>525.0</ele><time>2026-05-02T09:15:36.762Z</time></trkpt><trkpt lat="43.4706815" lon="12.2924975"><ele>525.0</ele><time>2026-05-02T09:15:37.765Z</time></trkpt><trkpt lat="43.4705732" lon="12.292495"><ele>525.0</ele><time>2026-05-02T09:15:39.763Z</time></trkpt><trkpt lat="43.4704719" lon="12.2925957"><ele>525.0</ele><time>2026-05-02T09:15:41.755Z</time></trkpt><trkpt lat="43.4704233" lon="12.2926534"><ele>525.0</ele><time>2026-05-02T09:15:42.751Z</time></trkpt><trkpt lat="43.4703171" lon="12.2926795"><ele>525.0</ele><time>2026-05-02T09:15:44.757Z</time></trkpt><trkpt lat="43.4702285" lon="12.2926685"><ele>523.1666666666666</ele><time>2026-05-02T09:15:46.747Z</time></trkpt><trkpt lat="43.4701707" lon="12.2927259"><ele>521.3333333333334</ele><time>2026-05-02T09:15:49.756Z</time></trkpt><trkpt lat="43.4702216" lon="12.2928429"><ele>519.5</ele><time>2026-05-02T09:15:51.767Z</time></trkpt><trkpt lat="43.4703132" lon="12.2929564"><ele>517.6666666666667</ele><time>2026-05-02T09:15:53.761Z</time></trkpt><trkpt lat="43.4703138" lon="12.2930465"><ele>515.8333333333334</ele><time>2026-05-02T09:15:55.773Z</time></trkpt><trkpt lat="43.4702391" lon="12.2930408"><ele>514.0</ele><time>2026-05-02T09:15:57.771Z</time></trkpt><trkpt lat="43.4701823" lon="12.2929424"><ele>514.0</ele><time>2026-05-02T09:15:59.759Z</time></trkpt><trkpt lat="43.4700952" lon="12.2928055"><ele>514.0</ele><time>2026-05-02T09:16:01.769Z</time></trkpt><trkpt lat="43.4700499" lon="12.2927364"><ele>514.0</ele><time>2026-05-02T09:16:02.766Z</time></trkpt><trkpt lat="43.4699963" lon="12.2926009"><ele>514.0</ele><time>2026-05-02T09:16:04.772Z</time></trkpt><trkpt lat="43.4699723" lon="12.2925173"><ele>514.0</ele><time>2026-05-02T09:16:05.765Z</time></trkpt><trkpt lat="43.4699521" lon="12.2924105"><ele>514.0</ele><time>2026-05-02T09:16:06.765Z</time></trkpt><trkpt lat="43.4699449" lon="12.292297"><ele>514.0</ele><time>2026-05-02T09:16:07.762Z</time></trkpt><trkpt lat="43.4699481" lon="12.2921775"><ele>514.0</ele><time>2026-05-02T09:16:08.763Z</time></trkpt><trkpt lat="43.4699698" lon="12.292045"><ele>514.0</ele><time>2026-05-02T09:16:09.759Z</time></trkpt><trkpt lat="43.4700005" lon="12.2919012"><ele>514.0</ele><time>2026-05-02T09:16:10.758Z</time></trkpt><trkpt lat="43.4700156" lon="12.2917573"><ele>512.8</ele><time>2026-05-02T09:16:11.764Z</time></trkpt><trkpt lat="43.4700142" lon="12.2916158"><ele>511.59999999999997</ele><time>2026-05-02T09:16:12.761Z</time></trkpt><trkpt lat="43.4699979" lon="12.2914831"><ele>510.4</ele><time>2026-05-02T09:16:13.768Z</time></trkpt><trkpt lat="43.4699533" lon="12.2913692"><ele>509.2</ele><time>2026-05-02T09:16:14.775Z</time></trkpt><trkpt lat="43.4698892" lon="12.291267"><ele>508.0</ele><time>2026-05-02T09:16:15.761Z</time></trkpt><trkpt lat="43.4698086" lon="12.2911829"><ele>507.0</ele><time>2026-05-02T09:16:16.757Z</time></trkpt><trkpt lat="43.4697165" lon="12.2910906"><ele>506.0</ele><time>2026-05-02T09:16:17.768Z</time></trkpt><trkpt lat="43.4696221" lon="12.2909945"><ele>505.0</ele><time>2026-05-02T09:16:18.763Z</time></trkpt><trkpt lat="43.4695281" lon="12.2908818"><ele>504.0</ele><time>2026-05-02T09:16:19.753Z</time></trkpt><trkpt lat="43.4694346" lon="12.2907564"><ele>504.0</ele><time>2026-05-02T09:16:20.761Z</time></trkpt><trkpt lat="43.4693536" lon="12.290627"><ele>504.0</ele><time>2026-05-02T09:16:21.777Z</time></trkpt><trkpt lat="43.4692805" lon="12.2904829"><ele>504.0</ele><time>2026-05-02T09:16:22.767Z</time></trkpt><trkpt lat="43.4692163" lon="12.2903231"><ele>504.0</ele><time>2026-05-02T09:16:23.761Z</time></trkpt><trkpt lat="43.4691639" lon="12.2901338"><ele>507.0</ele><time>2026-05-02T09:16:24.762Z</time></trkpt><trkpt lat="43.4691148" lon="12.2899361"><ele>510.0</ele><time>2026-05-02T09:16:25.765Z</time></trkpt><trkpt lat="43.4690577" lon="12.2897339"><ele>513.0</ele><time>2026-05-02T09:16:26.765Z</time></trkpt><trkpt lat="43.4689806" lon="12.2895494"><ele>517.6666666666666</ele><time>2026-05-02T09:16:27.77Z</time></trkpt><trkpt lat="43.4688891" lon="12.2893713"><ele>522.3333333333333</ele><time>2026-05-02T09:16:28.763Z</time></trkpt><trkpt lat="43.468788" lon="12.289197"><ele>527.0</ele><time>2026-05-02T09:16:29.759Z</time></trkpt><trkpt lat="43.468689" lon="12.2890435"><ele>521.75</ele><time>2026-05-02T09:16:30.766Z</time></trkpt><trkpt lat="43.4686006" lon="12.2888982"><ele>516.5</ele><time>2026-05-02T09:16:31.764Z</time></trkpt><trkpt lat="43.4685198" lon="12.2887606"><ele>511.25</ele><time>2026-05-02T09:16:32.758Z</time></trkpt><trkpt lat="43.4684579" lon="12.2886258"><ele>506.0</ele><time>2026-05-02T09:16:33.752Z</time></trkpt><trkpt lat="43.4684353" lon="12.2885012"><ele>505.99999999999994</ele><time>2026-05-02T09:16:34.767Z</time></trkpt><trkpt lat="43.4684428" lon="12.2883969"><ele>506.0</ele><time>2026-05-02T09:16:35.759Z</time></trkpt><trkpt lat="43.4684835" lon="12.2883066"><ele>506.0</ele><time>2026-05-02T09:16:36.768Z</time></trkpt><trkpt lat="43.468545" lon="12.2882345"><ele>506.0</ele><time>2026-05-02T09:16:37.766Z</time></trkpt><trkpt lat="43.4686286" lon="12.2881595"><ele>505.99999999999994</ele><time>2026-05-02T09:16:38.766Z</time></trkpt><trkpt lat="43.4687292" lon="12.2880938"><ele>506.0</ele><time>2026-05-02T09:16:39.763Z</time></trkpt><trkpt lat="43.4688455" lon="12.2880315"><ele>509.4</ele><time>2026-05-02T09:16:40.761Z</time></trkpt><trkpt lat="43.4689604" lon="12.2879837"><ele>512.8</ele><time>2026-05-02T09:16:41.764Z</time></trkpt><trkpt lat="43.4690578" lon="12.2879365"><ele>516.1999999999999</ele><time>2026-05-02T09:16:42.755Z</time></trkpt><trkpt lat="43.4691438" lon="12.2878703"><ele>519.6</ele><time>2026-05-02T09:16:43.76Z</time></trkpt><trkpt lat="43.4692082" lon="12.2877809"><ele>523.0</ele><time>2026-05-02T09:16:44.754Z</time></trkpt><trkpt lat="43.469236" lon="12.2876669"><ele>523.0</ele><time>2026-05-02T09:16:45.761Z</time></trkpt><trkpt lat="43.4692315" lon="12.2875298"><ele>523.0</ele><time>2026-05-02T09:16:46.747Z</time></trkpt><trkpt lat="43.4691977" lon="12.2873873"><ele>523.0</ele><time>2026-05-02T09:16:47.764Z</time></trkpt><trkpt lat="43.4691476" lon="12.2872483"><ele>523.0</ele><time>2026-05-02T09:16:48.75Z</time></trkpt><trkpt lat="43.4690902" lon="12.2871163"><ele>523.0</ele><time>2026-05-02T09:16:49.757Z</time></trkpt><trkpt lat="43.4690211" lon="12.287012"><ele>522.1666666666667</ele><time>2026-05-02T09:16:50.751Z</time></trkpt><trkpt lat="43.4689486" lon="12.2869335"><ele>521.3333333333334</ele><time>2026-05-02T09:16:51.755Z</time></trkpt><trkpt lat="43.4688775" lon="12.2868744"><ele>520.5</ele><time>2026-05-02T09:16:52.757Z</time></trkpt><trkpt lat="43.4688184" lon="12.2868284"><ele>519.6666666666666</ele><time>2026-05-02T09:16:53.762Z</time></trkpt><trkpt lat="43.468757" lon="12.2867846"><ele>518.8333333333333</ele><time>2026-05-02T09:16:54.76Z</time></trkpt><trkpt lat="43.4686602" lon="12.2867299"><ele>518.0</ele><time>2026-05-02T09:16:56.752Z</time></trkpt><trkpt lat="43.4685537" lon="12.2866762"><ele>516.6666666666666</ele><time>2026-05-02T09:16:58.759Z</time></trkpt><trkpt lat="43.4684928" lon="12.2866442"><ele>515.3333333333333</ele><time>2026-05-02T09:16:59.758Z</time></trkpt><trkpt lat="43.46842" lon="12.2866136"><ele>514.0</ele><time>2026-05-02T09:17:00.754Z</time></trkpt><trkpt lat="43.4683341" lon="12.2865808"><ele>512.6666666666666</ele><time>2026-05-02T09:17:01.759Z</time></trkpt><trkpt lat="43.4682455" lon="12.2865419"><ele>511.3333333333333</ele><time>2026-05-02T09:17:02.766Z</time></trkpt><trkpt lat="43.4681549" lon="12.286506"><ele>510.0</ele><time>2026-05-02T09:17:03.769Z</time></trkpt><trkpt lat="43.4680632" lon="12.2864769"><ele>510.0</ele><time>2026-05-02T09:17:04.765Z</time></trkpt><trkpt lat="43.4679691" lon="12.2864596"><ele>510.0</ele><time>2026-05-02T09:17:05.772Z</time></trkpt><trkpt lat="43.4678701" lon="12.2864372"><ele>510.0</ele><time>2026-05-02T09:17:06.763Z</time></trkpt><trkpt lat="43.4677608" lon="12.2864105"><ele>510.0</ele><time>2026-05-02T09:17:07.774Z</time></trkpt><trkpt lat="43.4676457" lon="12.2863769"><ele>510.0</ele><time>2026-05-02T09:17:08.76Z</time></trkpt><trkpt lat="43.4675269" lon="12.2863379"><ele>509.75</ele><time>2026-05-02T09:17:09.77Z</time></trkpt><trkpt lat="43.4674043" lon="12.2862875"><ele>509.5</ele><time>2026-05-02T09:17:10.76Z</time></trkpt><trkpt lat="43.4672781" lon="12.2862352"><ele>509.25</ele><time>2026-05-02T09:17:11.764Z</time></trkpt><trkpt lat="43.4671517" lon="12.2861832"><ele>509.0</ele><time>2026-05-02T09:17:12.772Z</time></trkpt><trkpt lat="43.4670247" lon="12.2861337"><ele>510.0</ele><time>2026-05-02T09:17:13.763Z</time></trkpt><trkpt lat="43.4668929" lon="12.2860921"><ele>511.0</ele><time>2026-05-02T09:17:14.76Z</time></trkpt><trkpt lat="43.4667565" lon="12.2860536"><ele>512.0</ele><time>2026-05-02T09:17:15.777Z</time></trkpt><trkpt lat="43.4666136" lon="12.2860158"><ele>513.0</ele><time>2026-05-02T09:17:16.762Z</time></trkpt><trkpt lat="43.4664678" lon="12.2859759"><ele>513.0</ele><time>2026-05-02T09:17:17.769Z</time></trkpt><trkpt lat="43.4663218" lon="12.2859322"><ele>513.0</ele><time>2026-05-02T09:17:18.766Z</time></trkpt><trkpt lat="43.4661749" lon="12.2858866"><ele>513.0</ele><time>2026-05-02T09:17:19.769Z</time></trkpt><trkpt lat="43.4660267" lon="12.285841"><ele>512.6666666666666</ele><time>2026-05-02T09:17:20.756Z</time></trkpt><trkpt lat="43.4658745" lon="12.2857976"><ele>512.3333333333333</ele><time>2026-05-02T09:17:21.77Z</time></trkpt><trkpt lat="43.4657234" lon="12.2857562"><ele>512.0</ele><time>2026-05-02T09:17:22.759Z</time></trkpt><trkpt lat="43.4655773" lon="12.2857115"><ele>512.0</ele><time>2026-05-02T09:17:23.774Z</time></trkpt><trkpt lat="43.4654358" lon="12.2856538"><ele>512.0</ele><time>2026-05-02T09:17:24.764Z</time></trkpt><trkpt lat="43.4652944" lon="12.2855877"><ele>512.0</ele><time>2026-05-02T09:17:25.762Z</time></trkpt><trkpt lat="43.4651534" lon="12.2855103"><ele>512.0</ele><time>2026-05-02T09:17:26.766Z</time></trkpt><trkpt lat="43.4650111" lon="12.2854189"><ele>511.66666666666663</ele><time>2026-05-02T09:17:27.775Z</time></trkpt><trkpt lat="43.4648664" lon="12.2853224"><ele>511.33333333333337</ele><time>2026-05-02T09:17:28.756Z</time></trkpt><trkpt lat="43.464719" lon="12.285224"><ele>511.0</ele><time>2026-05-02T09:17:29.772Z</time></trkpt><trkpt lat="43.4645787" lon="12.285135"><ele>511.0</ele><time>2026-05-02T09:17:30.754Z</time></trkpt><trkpt lat="43.4644495" lon="12.2850324"><ele>511.0</ele><time>2026-05-02T09:17:31.776Z</time></trkpt><trkpt lat="43.4643279" lon="12.2849108"><ele>511.0</ele><time>2026-05-02T09:17:32.759Z</time></trkpt><trkpt lat="43.4642015" lon="12.284771"><ele>509.0</ele><time>2026-05-02T09:17:33.773Z</time></trkpt><trkpt lat="43.464074" lon="12.2846127"><ele>507.0</ele><time>2026-05-02T09:17:34.759Z</time></trkpt><trkpt lat="43.4639463" lon="12.2844394"><ele>505.0</ele><time>2026-05-02T09:17:35.752Z</time></trkpt><trkpt lat="43.4638243" lon="12.2842653"><ele>504.6666666666667</ele><time>2026-05-02T09:17:36.756Z</time></trkpt><trkpt lat="43.4637084" lon="12.2841041"><ele>504.33333333333337</ele><time>2026-05-02T09:17:37.771Z</time></trkpt><trkpt lat="43.4635902" lon="12.2839562"><ele>504.0</ele><time>2026-05-02T09:17:38.752Z</time></trkpt><trkpt lat="43.4634562" lon="12.2838362"><ele>502.5</ele><time>2026-05-02T09:17:39.77Z</time></trkpt><trkpt lat="43.4633223" lon="12.2837349"><ele>501.0</ele><time>2026-05-02T09:17:40.773Z</time></trkpt><trkpt lat="43.463191" lon="12.2836374"><ele>499.5</ele><time>2026-05-02T09:17:41.774Z</time></trkpt><trkpt lat="43.4630702" lon="12.2835384"><ele>498.0</ele><time>2026-05-02T09:17:42.767Z</time></trkpt><trkpt lat="43.4629527" lon="12.2834311"><ele>498.25</ele><time>2026-05-02T09:17:43.761Z</time></trkpt><trkpt lat="43.4628374" lon="12.2833171"><ele>498.5</ele><time>2026-05-02T09:17:44.755Z</time></trkpt><trkpt lat="43.4627313" lon="12.2832033"><ele>498.75</ele><time>2026-05-02T09:17:45.754Z</time></trkpt><trkpt lat="43.4626242" lon="12.2831045"><ele>499.0</ele><time>2026-05-02T09:17:46.754Z</time></trkpt><trkpt lat="43.4625117" lon="12.2830169"><ele>498.5</ele><time>2026-05-02T09:17:47.769Z</time></trkpt><trkpt lat="43.4623966" lon="12.282949"><ele>498.0</ele><time>2026-05-02T09:17:48.774Z</time></trkpt><trkpt lat="43.4622604" lon="12.2829117"><ele>497.5</ele><time>2026-05-02T09:17:49.78Z</time></trkpt><trkpt lat="43.4621293" lon="12.282885"><ele>497.0</ele><time>2026-05-02T09:17:50.758Z</time></trkpt><trkpt lat="43.462005" lon="12.2828464"><ele>497.0</ele><time>2026-05-02T09:17:51.762Z</time></trkpt><trkpt lat="43.4618824" lon="12.2828001"><ele>497.0</ele><time>2026-05-02T09:17:52.766Z</time></trkpt><trkpt lat="43.4617626" lon="12.2827395"><ele>497.0</ele><time>2026-05-02T09:17:53.763Z</time></trkpt><trkpt lat="43.4616518" lon="12.2826687"><ele>497.0</ele><time>2026-05-02T09:17:54.753Z</time></trkpt><trkpt lat="43.4615478" lon="12.2825934"><ele>497.0</ele><time>2026-05-02T09:17:55.753Z</time></trkpt><trkpt lat="43.4614605" lon="12.282507"><ele>497.0</ele><time>2026-05-02T09:17:56.753Z</time></trkpt><trkpt lat="43.4613803" lon="12.2824132"><ele>497.0</ele><time>2026-05-02T09:17:57.762Z</time></trkpt><trkpt lat="43.4612835" lon="12.2823238"><ele>497.0</ele><time>2026-05-02T09:17:58.76Z</time></trkpt><trkpt lat="43.4611665" lon="12.2822427"><ele>493.75</ele><time>2026-05-02T09:17:59.753Z</time></trkpt><trkpt lat="43.4610365" lon="12.2821719"><ele>490.5</ele><time>2026-05-02T09:18:00.756Z</time></trkpt><trkpt lat="43.4609109" lon="12.2821082"><ele>487.25</ele><time>2026-05-02T09:18:01.758Z</time></trkpt><trkpt lat="43.4607943" lon="12.2820601"><ele>484.0</ele><time>2026-05-02T09:18:02.761Z</time></trkpt><trkpt lat="43.4606817" lon="12.2820204"><ele>484.00000000000006</ele><time>2026-05-02T09:18:03.758Z</time></trkpt><trkpt lat="43.4605755" lon="12.2819899"><ele>484.0</ele><time>2026-05-02T09:18:04.748Z</time></trkpt><trkpt lat="43.460482" lon="12.2819595"><ele>484.0</ele><time>2026-05-02T09:18:05.772Z</time></trkpt><trkpt lat="43.4604096" lon="12.2819216"><ele>484.0</ele><time>2026-05-02T09:18:06.761Z</time></trkpt><trkpt lat="43.4603446" lon="12.2818378"><ele>484.00000000000006</ele><time>2026-05-02T09:18:08.762Z</time></trkpt><trkpt lat="43.460334" lon="12.2817446"><ele>484.0</ele><time>2026-05-02T09:18:11.771Z</time></trkpt><trkpt lat="43.4602933" lon="12.2816778"><ele>482.6</ele><time>2026-05-02T09:18:28.759Z</time></trkpt><trkpt lat="43.4602412" lon="12.2816254"><ele>481.2</ele><time>2026-05-02T09:18:29.782Z</time></trkpt><trkpt lat="43.4601597" lon="12.2815581"><ele>479.80000000000007</ele><time>2026-05-02T09:18:30.772Z</time></trkpt><trkpt lat="43.4600729" lon="12.2814866"><ele>478.40000000000003</ele><time>2026-05-02T09:18:31.776Z</time></trkpt><trkpt lat="43.459986" lon="12.2814034"><ele>477.0</ele><time>2026-05-02T09:18:32.759Z</time></trkpt><trkpt lat="43.4599086" lon="12.2813206"><ele>476.3333333333333</ele><time>2026-05-02T09:18:33.778Z</time></trkpt><trkpt lat="43.4598413" lon="12.2812302"><ele>475.66666666666663</ele><time>2026-05-02T09:18:34.759Z</time></trkpt><trkpt lat="43.4597738" lon="12.2811508"><ele>475.0</ele><time>2026-05-02T09:18:35.777Z</time></trkpt><trkpt lat="43.4597093" lon="12.281082"><ele>474.3333333333333</ele><time>2026-05-02T09:18:36.767Z</time></trkpt><trkpt lat="43.4596558" lon="12.2810163"><ele>473.66666666666663</ele><time>2026-05-02T09:18:37.775Z</time></trkpt><trkpt lat="43.4596085" lon="12.2809451"><ele>473.0</ele><time>2026-05-02T09:18:38.764Z</time></trkpt><trkpt lat="43.4595584" lon="12.2808657"><ele>472.99999999999994</ele><time>2026-05-02T09:18:39.769Z</time></trkpt><trkpt lat="43.4594966" lon="12.2807935"><ele>473.0</ele><time>2026-05-02T09:18:40.771Z</time></trkpt><trkpt lat="43.4594249" lon="12.2807264"><ele>473.0</ele><time>2026-05-02T09:18:41.774Z</time></trkpt><trkpt lat="43.4593443" lon="12.2806621"><ele>473.0</ele><time>2026-05-02T09:18:42.767Z</time></trkpt><trkpt lat="43.4592627" lon="12.2806091"><ele>472.99999999999994</ele><time>2026-05-02T09:18:43.775Z</time></trkpt><trkpt lat="43.4591912" lon="12.2805603"><ele>473.0</ele><time>2026-05-02T09:18:44.767Z</time></trkpt><trkpt lat="43.4591168" lon="12.2805145"><ele>472.59999999999997</ele><time>2026-05-02T09:18:45.769Z</time></trkpt><trkpt lat="43.4590297" lon="12.2804683"><ele>472.19999999999993</ele><time>2026-05-02T09:18:46.761Z</time></trkpt><trkpt lat="43.45893" lon="12.2804259"><ele>471.8</ele><time>2026-05-02T09:18:47.767Z</time></trkpt><trkpt lat="43.4588387" lon="12.2803858"><ele>471.4</ele><time>2026-05-02T09:18:48.76Z</time></trkpt><trkpt lat="43.4587574" lon="12.280341"><ele>471.0</ele><time>2026-05-02T09:18:49.77Z</time></trkpt><trkpt lat="43.4586816" lon="12.2803136"><ele>472.0</ele><time>2026-05-02T09:18:50.77Z</time></trkpt><trkpt lat="43.4585851" lon="12.2802942"><ele>473.0</ele><time>2026-05-02T09:18:52.757Z</time></trkpt><trkpt lat="43.4584903" lon="12.2803195"><ele>474.0</ele><time>2026-05-02T09:18:54.764Z</time></trkpt><trkpt lat="43.4584244" lon="12.2803263"><ele>475.0</ele><time>2026-05-02T09:18:55.753Z</time></trkpt><trkpt lat="43.4583198" lon="12.280324"><ele>476.0</ele><time>2026-05-02T09:18:57.767Z</time></trkpt><trkpt lat="43.4582307" lon="12.2803176"><ele>475.99999999999994</ele><time>2026-05-02T09:18:59.76Z</time></trkpt><trkpt lat="43.4581437" lon="12.2803232"><ele>476.0</ele><time>2026-05-02T09:19:01.754Z</time></trkpt><trkpt lat="43.4580687" lon="12.2803154"><ele>476.0</ele><time>2026-05-02T09:19:03.771Z</time></trkpt><trkpt lat="43.4579781" lon="12.2803281"><ele>476.0</ele><time>2026-05-02T09:19:05.766Z</time></trkpt><trkpt lat="43.4578804" lon="12.2803447"><ele>475.99999999999994</ele><time>2026-05-02T09:19:07.769Z</time></trkpt><trkpt lat="43.4577863" lon="12.2803615"><ele>476.0</ele><time>2026-05-02T09:19:09.78Z</time></trkpt><trkpt lat="43.4576754" lon="12.2803473"><ele>476.3333333333333</ele><time>2026-05-02T09:19:11.759Z</time></trkpt><trkpt lat="43.4575938" lon="12.2803391"><ele>476.66666666666663</ele><time>2026-05-02T09:19:12.761Z</time></trkpt><trkpt lat="43.4574971" lon="12.280322"><ele>477.0</ele><time>2026-05-02T09:19:13.76Z</time></trkpt><trkpt lat="43.4573986" lon="12.2803133"><ele>477.33333333333337</ele><time>2026-05-02T09:19:14.754Z</time></trkpt><trkpt lat="43.4573092" lon="12.2802938"><ele>477.6666666666667</ele><time>2026-05-02T09:19:15.786Z</time></trkpt><trkpt lat="43.4572305" lon="12.2802715"><ele>478.0</ele><time>2026-05-02T09:19:16.746Z</time></trkpt><trkpt lat="43.4571643" lon="12.2802601"><ele>477.50000000000006</ele><time>2026-05-02T09:19:17.769Z</time></trkpt><trkpt lat="43.4570599" lon="12.2802507"><ele>477.0</ele><time>2026-05-02T09:19:19.776Z</time></trkpt><trkpt lat="43.45697" lon="12.2801947"><ele>476.5</ele><time>2026-05-02T09:19:21.764Z</time></trkpt><trkpt lat="43.4568756" lon="12.2801327"><ele>476.0</ele><time>2026-05-02T09:19:23.759Z</time></trkpt><trkpt lat="43.4568081" lon="12.2801501"><ele>475.50000000000006</ele><time>2026-05-02T09:19:24.758Z</time></trkpt><trkpt lat="43.4567377" lon="12.2801635"><ele>475.0</ele><time>2026-05-02T09:19:25.765Z</time></trkpt><trkpt lat="43.4566676" lon="12.2801693"><ele>475.00000000000006</ele><time>2026-05-02T09:19:26.765Z</time></trkpt><trkpt lat="43.456591" lon="12.2801937"><ele>475.0</ele><time>2026-05-02T09:19:27.778Z</time></trkpt><trkpt lat="43.4565165" lon="12.2802291"><ele>475.0</ele><time>2026-05-02T09:19:28.757Z</time></trkpt><trkpt lat="43.4564487" lon="12.2802646"><ele>475.0</ele><time>2026-05-02T09:19:29.782Z</time></trkpt><trkpt lat="43.4563805" lon="12.280289"><ele>475.00000000000006</ele><time>2026-05-02T09:19:30.76Z</time></trkpt><trkpt lat="43.4563096" lon="12.2802848"><ele>475.0</ele><time>2026-05-02T09:19:31.769Z</time></trkpt><trkpt lat="43.4562282" lon="12.2802558"><ele>473.50000000000006</ele><time>2026-05-02T09:19:32.762Z</time></trkpt><trkpt lat="43.4561523" lon="12.2802367"><ele>472.0</ele><time>2026-05-02T09:19:33.772Z</time></trkpt><trkpt lat="43.4560838" lon="12.2802407"><ele>470.5</ele><time>2026-05-02T09:19:34.753Z</time></trkpt><trkpt lat="43.4559606" lon="12.280276"><ele>469.0</ele><time>2026-05-02T09:19:36.765Z</time></trkpt><trkpt lat="43.4558938" lon="12.2802768"><ele>467.50000000000006</ele><time>2026-05-02T09:19:37.766Z</time></trkpt><trkpt lat="43.4558271" lon="12.2802491"><ele>466.0</ele><time>2026-05-02T09:19:38.758Z</time></trkpt><trkpt lat="43.4557493" lon="12.2802115"><ele>466.00000000000006</ele><time>2026-05-02T09:19:39.755Z</time></trkpt><trkpt lat="43.4556581" lon="12.2801804"><ele>466.0</ele><time>2026-05-02T09:19:40.749Z</time></trkpt><trkpt lat="43.4555662" lon="12.280161"><ele>466.0</ele><time>2026-05-02T09:19:41.781Z</time></trkpt><trkpt lat="43.4554857" lon="12.2801486"><ele>466.0</ele><time>2026-05-02T09:19:42.751Z</time></trkpt><trkpt lat="43.4554208" lon="12.280126"><ele>466.00000000000006</ele><time>2026-05-02T09:19:43.764Z</time></trkpt><trkpt lat="43.4553589" lon="12.2800945"><ele>466.0</ele><time>2026-05-02T09:19:44.751Z</time></trkpt><trkpt lat="43.4552967" lon="12.2800563"><ele>464.50000000000006</ele><time>2026-05-02T09:19:45.764Z</time></trkpt><trkpt lat="43.4552412" lon="12.2800036"><ele>463.0</ele><time>2026-05-02T09:19:46.754Z</time></trkpt><trkpt lat="43.4551375" lon="12.2799495"><ele>461.5</ele><time>2026-05-02T09:19:48.762Z</time></trkpt><trkpt lat="43.4550693" lon="12.2799546"><ele>460.0</ele><time>2026-05-02T09:19:49.772Z</time></trkpt><trkpt lat="43.4550024" lon="12.27996"><ele>458.50000000000006</ele><time>2026-05-02T09:19:50.77Z</time></trkpt><trkpt lat="43.4548858" lon="12.2799592"><ele>457.0</ele><time>2026-05-02T09:19:52.762Z</time></trkpt><trkpt lat="43.4547725" lon="12.2799525"><ele>457.00000000000006</ele><time>2026-05-02T09:19:54.749Z</time></trkpt><trkpt lat="43.4546635" lon="12.2799124"><ele>457.0</ele><time>2026-05-02T09:19:56.76Z</time></trkpt><trkpt lat="43.4546008" lon="12.2798878"><ele>457.0</ele><time>2026-05-02T09:19:57.766Z</time></trkpt><trkpt lat="43.4545342" lon="12.2798606"><ele>457.0</ele><time>2026-05-02T09:19:58.756Z</time></trkpt><trkpt lat="43.4544724" lon="12.2798174"><ele>457.00000000000006</ele><time>2026-05-02T09:19:59.774Z</time></trkpt><trkpt lat="43.4544153" lon="12.2797638"><ele>457.0</ele><time>2026-05-02T09:20:00.757Z</time></trkpt><trkpt lat="43.4543676" lon="12.2796953"><ele>456.1666666666667</ele><time>2026-05-02T09:20:01.771Z</time></trkpt><trkpt lat="43.4543228" lon="12.2796213"><ele>455.33333333333337</ele><time>2026-05-02T09:20:02.75Z</time></trkpt><trkpt lat="43.4542741" lon="12.2795506"><ele>454.5</ele><time>2026-05-02T09:20:03.76Z</time></trkpt><trkpt lat="43.4542281" lon="12.2794554"><ele>453.66666666666663</ele><time>2026-05-02T09:20:04.76Z</time></trkpt><trkpt lat="43.454174" lon="12.2793495"><ele>452.8333333333333</ele><time>2026-05-02T09:20:05.767Z</time></trkpt><trkpt lat="43.4541248" lon="12.2792553"><ele>452.0</ele><time>2026-05-02T09:20:06.756Z</time></trkpt><trkpt lat="43.4540798" lon="12.2791675"><ele>451.99999999999994</ele><time>2026-05-02T09:20:07.751Z</time></trkpt><trkpt lat="43.4540397" lon="12.2790898"><ele>452.0</ele><time>2026-05-02T09:20:08.76Z</time></trkpt><trkpt lat="43.453995" lon="12.2790063"><ele>452.0</ele><time>2026-05-02T09:20:09.786Z</time></trkpt><trkpt lat="43.4539557" lon="12.2789188"><ele>452.0</ele><time>2026-05-02T09:20:10.753Z</time></trkpt><trkpt lat="43.4539192" lon="12.278825"><ele>451.99999999999994</ele><time>2026-05-02T09:20:11.758Z</time></trkpt><trkpt lat="43.4538826" lon="12.2787278"><ele>452.0</ele><time>2026-05-02T09:20:12.745Z</time></trkpt><trkpt lat="43.4538363" lon="12.2786335"><ele>450.16666666666663</ele><time>2026-05-02T09:20:13.752Z</time></trkpt><trkpt lat="43.4537571" lon="12.2785025"><ele>448.3333333333333</ele><time>2026-05-02T09:20:15.758Z</time></trkpt><trkpt lat="43.4537169" lon="12.2784343"><ele>446.5</ele><time>2026-05-02T09:20:16.748Z</time></trkpt><trkpt lat="43.4536738" lon="12.2783535"><ele>444.66666666666663</ele><time>2026-05-02T09:20:17.763Z</time></trkpt><trkpt lat="43.4536334" lon="12.2782744"><ele>442.8333333333333</ele><time>2026-05-02T09:20:18.765Z</time></trkpt><trkpt lat="43.4535971" lon="12.2781941"><ele>441.0</ele><time>2026-05-02T09:20:19.763Z</time></trkpt><trkpt lat="43.4535601" lon="12.2781107"><ele>441.6</ele><time>2026-05-02T09:20:20.758Z</time></trkpt><trkpt lat="43.4535214" lon="12.2780191"><ele>442.20000000000005</ele><time>2026-05-02T09:20:21.766Z</time></trkpt><trkpt lat="43.4534892" lon="12.277881"><ele>442.79999999999995</ele><time>2026-05-02T09:20:23.765Z</time></trkpt><trkpt lat="43.4534618" lon="12.2777227"><ele>443.4</ele><time>2026-05-02T09:20:25.776Z</time></trkpt><trkpt lat="43.4534483" lon="12.2775533"><ele>444.0</ele><time>2026-05-02T09:20:27.763Z</time></trkpt><trkpt lat="43.4534392" lon="12.2774585"><ele>444.0</ele><time>2026-05-02T09:20:28.761Z</time></trkpt><trkpt lat="43.4534285" lon="12.2773668"><ele>444.0</ele><time>2026-05-02T09:20:29.765Z</time></trkpt><trkpt lat="43.4534193" lon="12.2772738"><ele>444.0</ele><time>2026-05-02T09:20:30.764Z</time></trkpt><trkpt lat="43.4534034" lon="12.2771853"><ele>444.0</ele><time>2026-05-02T09:20:31.766Z</time></trkpt><trkpt lat="43.4533769" lon="12.2770276"><ele>444.0</ele><time>2026-05-02T09:20:33.759Z</time></trkpt><trkpt lat="43.4533375" lon="12.2768944"><ele>444.0</ele><time>2026-05-02T09:20:35.761Z</time></trkpt><trkpt lat="43.4532788" lon="12.2767808"><ele>444.2</ele><time>2026-05-02T09:20:37.762Z</time></trkpt><trkpt lat="43.4531997" lon="12.2766881"><ele>444.4</ele><time>2026-05-02T09:20:39.76Z</time></trkpt><trkpt lat="43.4531286" lon="12.2766046"><ele>444.6</ele><time>2026-05-02T09:20:41.763Z</time></trkpt><trkpt lat="43.4530562" lon="12.2765063"><ele>444.8</ele><time>2026-05-02T09:20:43.751Z</time></trkpt><trkpt lat="43.4529704" lon="12.2764271"><ele>445.0</ele><time>2026-05-02T09:20:45.753Z</time></trkpt><trkpt lat="43.4528689" lon="12.2763319"><ele>442.2</ele><time>2026-05-02T09:20:47.768Z</time></trkpt><trkpt lat="43.452818" lon="12.2762775"><ele>439.4</ele><time>2026-05-02T09:20:48.753Z</time></trkpt><trkpt lat="43.4527201" lon="12.2761821"><ele>436.6</ele><time>2026-05-02T09:20:50.757Z</time></trkpt><trkpt lat="43.4526371" lon="12.2760854"><ele>433.8</ele><time>2026-05-02T09:20:52.757Z</time></trkpt><trkpt lat="43.4525812" lon="12.2759756"><ele>431.0</ele><time>2026-05-02T09:20:54.756Z</time></trkpt><trkpt lat="43.4525239" lon="12.2758896"><ele>430.99999999999994</ele><time>2026-05-02T09:20:56.752Z</time></trkpt><trkpt lat="43.4524797" lon="12.2758236"><ele>431.0</ele><time>2026-05-02T09:20:58.756Z</time></trkpt><trkpt lat="43.4524212" lon="12.2757481"><ele>431.0</ele><time>2026-05-02T09:21:01.757Z</time></trkpt><trkpt lat="43.452368" lon="12.2756953"><ele>431.0</ele><time>2026-05-02T09:21:04.755Z</time></trkpt><trkpt lat="43.4523104" lon="12.2756592"><ele>430.99999999999994</ele><time>2026-05-02T09:21:09.758Z</time></trkpt><trkpt lat="43.4522101" lon="12.2756135"><ele>431.0</ele><time>2026-05-02T09:21:17.762Z</time></trkpt><trkpt lat="43.4521213" lon="12.2755705"><ele>429.0</ele><time>2026-05-02T09:21:18.749Z</time></trkpt><trkpt lat="43.4520325" lon="12.2755137"><ele>427.0</ele><time>2026-05-02T09:21:19.758Z</time></trkpt><trkpt lat="43.4519462" lon="12.2754425"><ele>425.0</ele><time>2026-05-02T09:21:20.755Z</time></trkpt><trkpt lat="43.4518616" lon="12.2753534"><ele>423.0</ele><time>2026-05-02T09:21:21.752Z</time></trkpt><trkpt lat="43.45178" lon="12.2752726"><ele>421.0</ele><time>2026-05-02T09:21:22.752Z</time></trkpt><trkpt lat="43.4517137" lon="12.2751894"><ele>421.00000000000006</ele><time>2026-05-02T09:21:23.756Z</time></trkpt><trkpt lat="43.4516534" lon="12.2751239"><ele>421.0</ele><time>2026-05-02T09:21:24.754Z</time></trkpt><trkpt lat="43.4516034" lon="12.2750651"><ele>421.0</ele><time>2026-05-02T09:21:25.765Z</time></trkpt><trkpt lat="43.4515283" lon="12.2749895"><ele>421.0</ele><time>2026-05-02T09:21:27.758Z</time></trkpt><trkpt lat="43.4514133" lon="12.2750242"><ele>421.00000000000006</ele><time>2026-05-02T09:21:30.747Z</time></trkpt><trkpt lat="43.4513392" lon="12.2750568"><ele>421.0</ele><time>2026-05-02T09:21:31.759Z</time></trkpt><trkpt lat="43.4512396" lon="12.2750244"><ele>418.5</ele><time>2026-05-02T09:21:32.752Z</time></trkpt><trkpt lat="43.4511294" lon="12.2749621"><ele>416.0</ele><time>2026-05-02T09:21:33.752Z</time></trkpt><trkpt lat="43.4510112" lon="12.2748863"><ele>413.5</ele><time>2026-05-02T09:21:34.742Z</time></trkpt><trkpt lat="43.4508909" lon="12.2747944"><ele>411.0</ele><time>2026-05-02T09:21:35.758Z</time></trkpt><trkpt lat="43.4507654" lon="12.2747051"><ele>411.0</ele><time>2026-05-02T09:21:36.749Z</time></trkpt><trkpt lat="43.4506436" lon="12.2746135"><ele>411.0</ele><time>2026-05-02T09:21:37.747Z</time></trkpt><trkpt lat="43.4505256" lon="12.2745167"><ele>411.0</ele><time>2026-05-02T09:21:38.755Z</time></trkpt><trkpt lat="43.4504148" lon="12.2744059"><ele>411.0</ele><time>2026-05-02T09:21:39.756Z</time></trkpt><trkpt lat="43.4503175" lon="12.2742982"><ele>409.6666666666667</ele><time>2026-05-02T09:21:40.751Z</time></trkpt><trkpt lat="43.4502387" lon="12.2742018"><ele>408.33333333333337</ele><time>2026-05-02T09:21:41.759Z</time></trkpt><trkpt lat="43.4501742" lon="12.2741086"><ele>407.0</ele><time>2026-05-02T09:21:42.764Z</time></trkpt><trkpt lat="43.4501263" lon="12.2740437"><ele>405.6666666666667</ele><time>2026-05-02T09:21:43.767Z</time></trkpt><trkpt lat="43.4500642" lon="12.274004"><ele>404.33333333333337</ele><time>2026-05-02T09:21:46.748Z</time></trkpt><trkpt lat="43.4500137" lon="12.2739433"><ele>403.0</ele><time>2026-05-02T09:21:49.763Z</time></trkpt><trkpt lat="43.4499655" lon="12.2738848"><ele>401.6666666666667</ele><time>2026-05-02T09:21:50.765Z</time></trkpt><trkpt lat="43.4499124" lon="12.2738017"><ele>400.33333333333337</ele><time>2026-05-02T09:21:51.761Z</time></trkpt><trkpt lat="43.449866" lon="12.2737076"><ele>399.0</ele><time>2026-05-02T09:21:52.76Z</time></trkpt><trkpt lat="43.4498339" lon="12.2736157"><ele>397.66666666666663</ele><time>2026-05-02T09:21:53.752Z</time></trkpt><trkpt lat="43.4498153" lon="12.273532"><ele>396.3333333333333</ele><time>2026-05-02T09:21:54.767Z</time></trkpt><trkpt lat="43.4498161" lon="12.2733839"><ele>395.0</ele><time>2026-05-02T09:21:56.757Z</time></trkpt><trkpt lat="43.4498396" lon="12.2732123"><ele>394.99999999999994</ele><time>2026-05-02T09:21:58.752Z</time></trkpt><trkpt lat="43.449858" lon="12.2731086"><ele>395.0</ele><time>2026-05-02T09:21:59.762Z</time></trkpt><trkpt lat="43.4498849" lon="12.2730052"><ele>395.0</ele><time>2026-05-02T09:22:00.753Z</time></trkpt><trkpt lat="43.4499253" lon="12.2729089"><ele>395.0</ele><time>2026-05-02T09:22:01.767Z</time></trkpt><trkpt lat="43.4499753" lon="12.2728211"><ele>394.99999999999994</ele><time>2026-05-02T09:22:02.767Z</time></trkpt><trkpt lat="43.4500265" lon="12.2727448"><ele>395.0</ele><time>2026-05-02T09:22:03.76Z</time></trkpt><trkpt lat="43.4500805" lon="12.2726172"><ele>392.6</ele><time>2026-05-02T09:22:05.757Z</time></trkpt><trkpt lat="43.450047" lon="12.2724822"><ele>390.2</ele><time>2026-05-02T09:22:07.756Z</time></trkpt><trkpt lat="43.4499804" lon="12.2723501"><ele>387.79999999999995</ele><time>2026-05-02T09:22:09.76Z</time></trkpt><trkpt lat="43.4499196" lon="12.2722136"><ele>385.4</ele><time>2026-05-02T09:22:11.751Z</time></trkpt><trkpt lat="43.4498846" lon="12.2721414"><ele>383.0</ele><time>2026-05-02T09:22:12.756Z</time></trkpt><trkpt lat="43.449848" lon="12.2720689"><ele>381.5</ele><time>2026-05-02T09:22:13.756Z</time></trkpt><trkpt lat="43.4498118" lon="12.2719177"><ele>380.0</ele><time>2026-05-02T09:22:15.767Z</time></trkpt><trkpt lat="43.449776" lon="12.2718234"><ele>378.5</ele><time>2026-05-02T09:22:17.76Z</time></trkpt><trkpt lat="43.4497215" lon="12.2717304"><ele>377.0</ele><time>2026-05-02T09:22:19.75Z</time></trkpt><trkpt lat="43.4496829" lon="12.2716421"><ele>375.5</ele><time>2026-05-02T09:22:21.764Z</time></trkpt><trkpt lat="43.4496474" lon="12.2715565"><ele>374.0</ele><time>2026-05-02T09:22:23.755Z</time></trkpt><trkpt lat="43.4496054" lon="12.2714523"><ele>372.33333333333337</ele><time>2026-05-02T09:22:26.754Z</time></trkpt><trkpt lat="43.4495567" lon="12.2713454"><ele>370.6666666666667</ele><time>2026-05-02T09:22:29.768Z</time></trkpt><trkpt lat="43.449522" lon="12.2712698"><ele>369.0</ele><time>2026-05-02T09:22:31.757Z</time></trkpt><trkpt lat="43.4494859" lon="12.2711589"><ele>367.3333333333333</ele><time>2026-05-02T09:22:33.758Z</time></trkpt><trkpt lat="43.4494392" lon="12.2710487"><ele>365.66666666666663</ele><time>2026-05-02T09:22:35.763Z</time></trkpt><trkpt lat="43.4493852" lon="12.27093"><ele>364.0</ele><time>2026-05-02T09:22:37.765Z</time></trkpt><trkpt lat="43.44932" lon="12.270783"><ele>364.0</ele><time>2026-05-02T09:22:39.751Z</time></trkpt><trkpt lat="43.4492763" lon="12.2706819"><ele>364.0</ele><time>2026-05-02T09:22:41.756Z</time></trkpt><trkpt lat="43.4492358" lon="12.2705844"><ele>364.0</ele><time>2026-05-02T09:22:44.75Z</time></trkpt><trkpt lat="43.4492069" lon="12.2704763"><ele>364.0</ele><time>2026-05-02T09:22:46.743Z</time></trkpt><trkpt lat="43.449776" lon="12.2718234"><ele>364.0</ele><time>2026-05-02T09:22:17.76Z</time></trkpt><trkpt lat="43.4497215" lon="12.2717304"><ele>364.0</ele><time>2026-05-02T09:22:19.75Z</time></trkpt><trkpt lat="43.4496829" lon="12.2716421"><ele>364.0</ele><time>2026-05-02T09:22:21.764Z</time></trkpt><trkpt lat="43.4496474" lon="12.2715565"><ele>364.0</ele><time>2026-05-02T09:22:23.755Z</time></trkpt><trkpt lat="43.4496054" lon="12.2714523"><ele>364.0</ele><time>2026-05-02T09:22:26.754Z</time></trkpt><trkpt lat="43.4495567" lon="12.2713454"><ele>364.0</ele><time>2026-05-02T09:22:29.768Z</time></trkpt><trkpt lat="43.449522" lon="12.2712698"><ele>364.0</ele><time>2026-05-02T09:22:31.757Z</time></trkpt><trkpt lat="43.4494859" lon="12.2711589"><ele>364.0</ele><time>2026-05-02T09:22:33.758Z</time></trkpt><trkpt lat="43.4494392" lon="12.2710487"><ele>364.0</ele><time>2026-05-02T09:22:35.763Z</time></trkpt><trkpt lat="43.4493852" lon="12.27093"><ele>364.0</ele><time>2026-05-02T09:22:37.765Z</time></trkpt><trkpt lat="43.44932" lon="12.270783"><ele>364.0</ele><time>2026-05-02T09:22:39.751Z</time></trkpt><trkpt lat="43.4492763" lon="12.2706819"><ele>363.2</ele><time>2026-05-02T09:22:41.756Z</time></trkpt><trkpt lat="43.4492358" lon="12.2705844"><ele>362.4</ele><time>2026-05-02T09:22:44.75Z</time></trkpt><trkpt lat="43.4492069" lon="12.2704763"><ele>361.6</ele><time>2026-05-02T09:22:46.743Z</time></trkpt><trkpt lat="43.4491521" lon="12.2703655"><ele>360.8</ele><time>2026-05-02T09:22:48.761Z</time></trkpt><trkpt lat="43.4491005" lon="12.2702424"><ele>360.0</ele><time>2026-05-02T09:22:50.756Z</time></trkpt><trkpt lat="43.4490866" lon="12.2701009"><ele>360.0</ele><time>2026-05-02T09:22:52.756Z</time></trkpt><trkpt lat="43.4490695" lon="12.2699833"><ele>360.0</ele><time>2026-05-02T09:22:54.748Z</time></trkpt><trkpt lat="43.4490571" lon="12.2698957"><ele>360.0</ele><time>2026-05-02T09:22:58.762Z</time></trkpt><trkpt lat="43.4490398" lon="12.2697948"><ele>360.0</ele><time>2026-05-02T09:23:02.76Z</time></trkpt><trkpt lat="43.4490246" lon="12.2697011"><ele>360.0</ele><time>2026-05-02T09:23:09.752Z</time></trkpt><trkpt lat="43.4490104" lon="12.2696015"><ele>360.0</ele><time>2026-05-02T09:23:12.75Z</time></trkpt><trkpt lat="43.4489799" lon="12.2694475"><ele>360.8333333333333</ele><time>2026-05-02T09:23:14.763Z</time></trkpt><trkpt lat="43.4489608" lon="12.269354"><ele>361.6666666666667</ele><time>2026-05-02T09:23:15.765Z</time></trkpt><trkpt lat="43.4489329" lon="12.2692061"><ele>362.5</ele><time>2026-05-02T09:23:17.759Z</time></trkpt><trkpt lat="43.4489162" lon="12.2690968"><ele>363.33333333333337</ele><time>2026-05-02T09:23:19.755Z</time></trkpt><trkpt lat="43.4488952" lon="12.2690123"><ele>364.1666666666667</ele><time>2026-05-02T09:23:22.76Z</time></trkpt><trkpt lat="43.4488787" lon="12.268924"><ele>365.0</ele><time>2026-05-02T09:23:28.75Z</time></trkpt><trkpt lat="43.4488518" lon="12.2688293"><ele>368.0</ele><time>2026-05-02T09:23:31.755Z</time></trkpt></trkseg><trkseg><trkpt lat="43.4487018" lon="12.265723"><ele>382.0</ele><time>2026-05-02T09:38:29.741Z</time></trkpt><trkpt lat="43.4486773" lon="12.2656321"><ele>382.0</ele><time>2026-05-02T09:38:32.77Z</time></trkpt><trkpt lat="43.4486976" lon="12.265522"><ele>382.0</ele><time>2026-05-02T09:39:26.761Z</time></trkpt><trkpt lat="43.4487044" lon="12.2654283"><ele>382.0</ele><time>2026-05-02T09:39:27.754Z</time></trkpt><trkpt lat="43.4487178" lon="12.2653152"><ele>382.0</ele><time>2026-05-02T09:39:28.771Z</time></trkpt><trkpt lat="43.4487381" lon="12.2651807"><ele>382.0</ele><time>2026-05-02T09:39:29.766Z</time></trkpt><trkpt lat="43.4487688" lon="12.2650302"><ele>381.75</ele><time>2026-05-02T09:39:30.765Z</time></trkpt><trkpt lat="43.448825" lon="12.2648842"><ele>381.5</ele><time>2026-05-02T09:39:31.75Z</time></trkpt><trkpt lat="43.4489091" lon="12.264774"><ele>381.25</ele><time>2026-05-02T09:39:32.768Z</time></trkpt><trkpt lat="43.4490053" lon="12.2646557"><ele>381.0</ele><time>2026-05-02T09:39:33.764Z</time></trkpt><trkpt lat="43.4491043" lon="12.2645257"><ele>381.0</ele><time>2026-05-02T09:39:34.751Z</time></trkpt><trkpt lat="43.449212" lon="12.2644007"><ele>381.0</ele><time>2026-05-02T09:39:35.746Z</time></trkpt><trkpt lat="43.4493158" lon="12.2642764"><ele>381.0</ele><time>2026-05-02T09:39:36.764Z</time></trkpt><trkpt lat="43.449417" lon="12.2641726"><ele>381.0</ele><time>2026-05-02T09:39:37.758Z</time></trkpt><trkpt lat="43.4495176" lon="12.264074"><ele>381.0</ele><time>2026-05-02T09:39:38.757Z</time></trkpt><trkpt lat="43.4496053" lon="12.2639511"><ele>381.0</ele><time>2026-05-02T09:39:39.757Z</time></trkpt><trkpt lat="43.4496804" lon="12.2638132"><ele>381.0</ele><time>2026-05-02T09:39:40.759Z</time></trkpt><trkpt lat="43.449763" lon="12.2636928"><ele>381.0</ele><time>2026-05-02T09:39:41.743Z</time></trkpt><trkpt lat="43.4498582" lon="12.2635843"><ele>379.25</ele><time>2026-05-02T09:39:42.779Z</time></trkpt><trkpt lat="43.4499745" lon="12.263487"><ele>377.5</ele><time>2026-05-02T09:39:43.754Z</time></trkpt><trkpt lat="43.4500874" lon="12.2634009"><ele>375.75</ele><time>2026-05-02T09:39:44.757Z</time></trkpt><trkpt lat="43.4501898" lon="12.2633259"><ele>374.0</ele><time>2026-05-02T09:39:45.757Z</time></trkpt><trkpt lat="43.450285" lon="12.2632601"><ele>374.0</ele><time>2026-05-02T09:39:46.761Z</time></trkpt><trkpt lat="43.4503734" lon="12.263194"><ele>374.0</ele><time>2026-05-02T09:39:47.767Z</time></trkpt><trkpt lat="43.4504559" lon="12.2631097"><ele>374.0</ele><time>2026-05-02T09:39:48.77Z</time></trkpt><trkpt lat="43.4505352" lon="12.2630047"><ele>374.0</ele><time>2026-05-02T09:39:49.755Z</time></trkpt><trkpt lat="43.4506035" lon="12.26287"><ele>374.0</ele><time>2026-05-02T09:39:50.768Z</time></trkpt><trkpt lat="43.4506617" lon="12.2627186"><ele>372.75</ele><time>2026-05-02T09:39:51.765Z</time></trkpt><trkpt lat="43.4507194" lon="12.2625612"><ele>371.5</ele><time>2026-05-02T09:39:52.766Z</time></trkpt><trkpt lat="43.4507748" lon="12.2624106"><ele>370.25</ele><time>2026-05-02T09:39:53.753Z</time></trkpt><trkpt lat="43.4508276" lon="12.2622771"><ele>369.0</ele><time>2026-05-02T09:39:54.753Z</time></trkpt><trkpt lat="43.4508771" lon="12.2621662"><ele>368.6666666666667</ele><time>2026-05-02T09:39:55.75Z</time></trkpt><trkpt lat="43.4509116" lon="12.262056"><ele>368.3333333333333</ele><time>2026-05-02T09:39:56.763Z</time></trkpt><trkpt lat="43.4509409" lon="12.2619421"><ele>368.0</ele><time>2026-05-02T09:39:57.756Z</time></trkpt><trkpt lat="43.4509534" lon="12.2618166"><ele>367.66666666666663</ele><time>2026-05-02T09:39:58.756Z</time></trkpt><trkpt lat="43.4509655" lon="12.261693"><ele>367.3333333333333</ele><time>2026-05-02T09:39:59.761Z</time></trkpt><trkpt lat="43.4509799" lon="12.261573"><ele>367.0</ele><time>2026-05-02T09:40:00.766Z</time></trkpt><trkpt lat="43.4509982" lon="12.2614444"><ele>365.5</ele><time>2026-05-02T09:40:01.757Z</time></trkpt><trkpt lat="43.4510192" lon="12.2613098"><ele>364.0</ele><time>2026-05-02T09:40:02.766Z</time></trkpt><trkpt lat="43.4510435" lon="12.2611526"><ele>362.5</ele><time>2026-05-02T09:40:03.77Z</time></trkpt><trkpt lat="43.4510668" lon="12.2609802"><ele>361.0</ele><time>2026-05-02T09:40:04.764Z</time></trkpt><trkpt lat="43.4510916" lon="12.2607937"><ele>359.5</ele><time>2026-05-02T09:40:05.766Z</time></trkpt><trkpt lat="43.4511191" lon="12.2606061"><ele>358.0</ele><time>2026-05-02T09:40:06.77Z</time></trkpt><trkpt lat="43.4511504" lon="12.2604181"><ele>356.5</ele><time>2026-05-02T09:40:07.751Z</time></trkpt><trkpt lat="43.451193" lon="12.2602462"><ele>355.0</ele><time>2026-05-02T09:40:08.756Z</time></trkpt><trkpt lat="43.4512372" lon="12.2600746"><ele>355.0</ele><time>2026-05-02T09:40:09.764Z</time></trkpt><trkpt lat="43.4512694" lon="12.2599037"><ele>355.0</ele><time>2026-05-02T09:40:10.769Z</time></trkpt><trkpt lat="43.4512857" lon="12.2597421"><ele>355.0</ele><time>2026-05-02T09:40:11.752Z</time></trkpt><trkpt lat="43.4512833" lon="12.2595958"><ele>355.0</ele><time>2026-05-02T09:40:12.774Z</time></trkpt><trkpt lat="43.4512571" lon="12.2594582"><ele>354.5</ele><time>2026-05-02T09:40:13.762Z</time></trkpt><trkpt lat="43.4512146" lon="12.2593221"><ele>354.0</ele><time>2026-05-02T09:40:14.76Z</time></trkpt><trkpt lat="43.451161" lon="12.2591766"><ele>353.5</ele><time>2026-05-02T09:40:15.751Z</time></trkpt><trkpt lat="43.4511059" lon="12.2590238"><ele>353.0</ele><time>2026-05-02T09:40:16.772Z</time></trkpt><trkpt lat="43.4510511" lon="12.2588689"><ele>352.5</ele><time>2026-05-02T09:40:17.759Z</time></trkpt><trkpt lat="43.4509939" lon="12.2587064"><ele>352.0</ele><time>2026-05-02T09:40:18.777Z</time></trkpt><trkpt lat="43.4509336" lon="12.2585512"><ele>351.5</ele><time>2026-05-02T09:40:19.753Z</time></trkpt><trkpt lat="43.4508757" lon="12.2584065"><ele>351.0</ele><time>2026-05-02T09:40:20.76Z</time></trkpt><trkpt lat="43.4508382" lon="12.2582839"><ele>351.0</ele><time>2026-05-02T09:40:21.766Z</time></trkpt><trkpt lat="43.4508142" lon="12.258199"><ele>351.0</ele><time>2026-05-02T09:40:22.762Z</time></trkpt><trkpt lat="43.4507838" lon="12.2580781"><ele>351.0</ele><time>2026-05-02T09:40:24.769Z</time></trkpt><trkpt lat="43.4507483" lon="12.2579449"><ele>351.0</ele><time>2026-05-02T09:40:26.778Z</time></trkpt><trkpt lat="43.4507206" lon="12.2578604"><ele>351.0</ele><time>2026-05-02T09:40:27.762Z</time></trkpt><trkpt lat="43.4506809" lon="12.2577659"><ele>351.0</ele><time>2026-05-02T09:40:28.764Z</time></trkpt><trkpt lat="43.4506408" lon="12.2576626"><ele>349.5</ele><time>2026-05-02T09:40:29.762Z</time></trkpt><trkpt lat="43.4506048" lon="12.2575582"><ele>348.0</ele><time>2026-05-02T09:40:30.767Z</time></trkpt><trkpt lat="43.4505759" lon="12.2574565"><ele>346.5</ele><time>2026-05-02T09:40:31.765Z</time></trkpt><trkpt lat="43.4505554" lon="12.2573593"><ele>345.0</ele><time>2026-05-02T09:40:32.776Z</time></trkpt><trkpt lat="43.4505467" lon="12.2572629"><ele>343.5</ele><time>2026-05-02T09:40:33.759Z</time></trkpt><trkpt lat="43.4505485" lon="12.2571617"><ele>342.0</ele><time>2026-05-02T09:40:34.779Z</time></trkpt><trkpt lat="43.4505638" lon="12.2570541"><ele>340.8</ele><time>2026-05-02T09:40:35.753Z</time></trkpt><trkpt lat="43.4505834" lon="12.2569358"><ele>339.6</ele><time>2026-05-02T09:40:36.762Z</time></trkpt><trkpt lat="43.4506097" lon="12.2568021"><ele>338.40000000000003</ele><time>2026-05-02T09:40:37.75Z</time></trkpt><trkpt lat="43.4506465" lon="12.2566615"><ele>337.20000000000005</ele><time>2026-05-02T09:40:38.757Z</time></trkpt><trkpt lat="43.4506875" lon="12.2565196"><ele>336.0</ele><time>2026-05-02T09:40:39.753Z</time></trkpt><trkpt lat="43.4507252" lon="12.2563639"><ele>335.0</ele><time>2026-05-02T09:40:40.756Z</time></trkpt><trkpt lat="43.4507485" lon="12.2562075"><ele>334.0</ele><time>2026-05-02T09:40:41.758Z</time></trkpt><trkpt lat="43.4507579" lon="12.2560637"><ele>333.0</ele><time>2026-05-02T09:40:42.765Z</time></trkpt><trkpt lat="43.4507487" lon="12.2559349"><ele>332.0</ele><time>2026-05-02T09:40:43.752Z</time></trkpt><trkpt lat="43.4507075" lon="12.2558184"><ele>331.0</ele><time>2026-05-02T09:40:44.762Z</time></trkpt><trkpt lat="43.4506426" lon="12.2557216"><ele>331.0</ele><time>2026-05-02T09:40:45.761Z</time></trkpt><trkpt lat="43.4505468" lon="12.2556521"><ele>331.0</ele><time>2026-05-02T09:40:46.757Z</time></trkpt><trkpt lat="43.450427" lon="12.2556007"><ele>331.0</ele><time>2026-05-02T09:40:47.756Z</time></trkpt><trkpt lat="43.4503102" lon="12.2555559"><ele>331.0</ele><time>2026-05-02T09:40:48.773Z</time></trkpt><trkpt lat="43.4501993" lon="12.2555066"><ele>331.20000000000005</ele><time>2026-05-02T09:40:49.762Z</time></trkpt><trkpt lat="43.4501096" lon="12.2554249"><ele>331.40000000000003</ele><time>2026-05-02T09:40:50.753Z</time></trkpt><trkpt lat="43.4500447" lon="12.2553237"><ele>331.6</ele><time>2026-05-02T09:40:51.764Z</time></trkpt><trkpt lat="43.450014" lon="12.2552013"><ele>331.8</ele><time>2026-05-02T09:40:52.744Z</time></trkpt><trkpt lat="43.450006" lon="12.2550673"><ele>332.0</ele><time>2026-05-02T09:40:53.763Z</time></trkpt><trkpt lat="43.4500122" lon="12.2549191"><ele>329.8</ele><time>2026-05-02T09:40:54.76Z</time></trkpt><trkpt lat="43.4500224" lon="12.2547727"><ele>327.6</ele><time>2026-05-02T09:40:55.768Z</time></trkpt><trkpt lat="43.4500372" lon="12.2546301"><ele>325.40000000000003</ele><time>2026-05-02T09:40:56.763Z</time></trkpt><trkpt lat="43.4500416" lon="12.25449"><ele>323.20000000000005</ele><time>2026-05-02T09:40:57.767Z</time></trkpt><trkpt lat="43.4500328" lon="12.2543576"><ele>321.0</ele><time>2026-05-02T09:40:58.764Z</time></trkpt><trkpt lat="43.4500052" lon="12.2542205"><ele>321.0</ele><time>2026-05-02T09:40:59.75Z</time></trkpt><trkpt lat="43.4499566" lon="12.2540656"><ele>321.0</ele><time>2026-05-02T09:41:00.765Z</time></trkpt><trkpt lat="43.4498977" lon="12.2539181"><ele>321.0</ele><time>2026-05-02T09:41:01.752Z</time></trkpt><trkpt lat="43.4498229" lon="12.2537547"><ele>321.0</ele><time>2026-05-02T09:41:02.771Z</time></trkpt><trkpt lat="43.4497408" lon="12.2535838"><ele>320.3333333333333</ele><time>2026-05-02T09:41:03.76Z</time></trkpt><trkpt lat="43.4496611" lon="12.2534048"><ele>319.66666666666663</ele><time>2026-05-02T09:41:04.758Z</time></trkpt><trkpt lat="43.4495904" lon="12.2532255"><ele>319.0</ele><time>2026-05-02T09:41:05.758Z</time></trkpt><trkpt lat="43.4495461" lon="12.2530281"><ele>319.0</ele><time>2026-05-02T09:41:06.749Z</time></trkpt><trkpt lat="43.4495188" lon="12.2528173"><ele>319.0</ele><time>2026-05-02T09:41:07.746Z</time></trkpt><trkpt lat="43.449501" lon="12.2526003"><ele>319.0</ele><time>2026-05-02T09:41:08.754Z</time></trkpt><trkpt lat="43.4494806" lon="12.2523951"><ele>315.75</ele><time>2026-05-02T09:41:09.749Z</time></trkpt><trkpt lat="43.4494389" lon="12.2522133"><ele>312.5</ele><time>2026-05-02T09:41:10.759Z</time></trkpt><trkpt lat="43.4493777" lon="12.2520698"><ele>309.25</ele><time>2026-05-02T09:41:11.746Z</time></trkpt><trkpt lat="43.4492926" lon="12.2519394"><ele>306.0</ele><time>2026-05-02T09:41:12.746Z</time></trkpt><trkpt lat="43.4492141" lon="12.2518067"><ele>306.0</ele><time>2026-05-02T09:41:13.744Z</time></trkpt><trkpt lat="43.4491476" lon="12.2516321"><ele>306.0</ele><time>2026-05-02T09:41:14.746Z</time></trkpt><trkpt lat="43.4490965" lon="12.2514341"><ele>306.0</ele><time>2026-05-02T09:41:15.745Z</time></trkpt><trkpt lat="43.4490509" lon="12.2512295"><ele>302.8</ele><time>2026-05-02T09:41:16.75Z</time></trkpt><trkpt lat="43.4490084" lon="12.2510514"><ele>299.6</ele><time>2026-05-02T09:41:17.756Z</time></trkpt><trkpt lat="43.4489811" lon="12.2509134"><ele>296.4</ele><time>2026-05-02T09:41:18.749Z</time></trkpt><trkpt lat="43.4489768" lon="12.2507904"><ele>293.2</ele><time>2026-05-02T09:41:19.741Z</time></trkpt><trkpt lat="43.4490192" lon="12.2506809"><ele>290.0</ele><time>2026-05-02T09:41:20.758Z</time></trkpt><trkpt lat="43.4491076" lon="12.2505839"><ele>288.75</ele><time>2026-05-02T09:41:21.744Z</time></trkpt><trkpt lat="43.4492278" lon="12.2504945"><ele>287.5</ele><time>2026-05-02T09:41:22.751Z</time></trkpt><trkpt lat="43.4493493" lon="12.2504065"><ele>286.25</ele><time>2026-05-02T09:41:23.751Z</time></trkpt><trkpt lat="43.449462" lon="12.2503195"><ele>285.0</ele><time>2026-05-02T09:41:24.756Z</time></trkpt><trkpt lat="43.4495544" lon="12.250244"><ele>285.0</ele><time>2026-05-02T09:41:25.748Z</time></trkpt><trkpt lat="43.4496221" lon="12.2501706"><ele>285.0</ele><time>2026-05-02T09:41:26.744Z</time></trkpt><trkpt lat="43.4497005" lon="12.250065"><ele>285.0</ele><time>2026-05-02T09:41:28.761Z</time></trkpt><trkpt lat="43.4497561" lon="12.2500149"><ele>285.0</ele><time>2026-05-02T09:41:30.764Z</time></trkpt><trkpt lat="43.4499015" lon="12.2499683"><ele>285.0</ele><time>2026-05-02T09:41:32.749Z</time></trkpt><trkpt lat="43.4500095" lon="12.2499397"><ele>284.75</ele><time>2026-05-02T09:41:33.758Z</time></trkpt><trkpt lat="43.4501352" lon="12.2499002"><ele>284.5</ele><time>2026-05-02T09:41:34.751Z</time></trkpt><trkpt lat="43.4502744" lon="12.2498502"><ele>284.25</ele><time>2026-05-02T09:41:35.765Z</time></trkpt><trkpt lat="43.4504301" lon="12.2498095"><ele>284.0</ele><time>2026-05-02T09:41:36.758Z</time></trkpt><trkpt lat="43.4505901" lon="12.24977"><ele>284.0</ele><time>2026-05-02T09:41:37.759Z</time></trkpt><trkpt lat="43.4507523" lon="12.2497269"><ele>284.0</ele><time>2026-05-02T09:41:38.751Z</time></trkpt><trkpt lat="43.4509171" lon="12.2496824"><ele>284.0</ele><time>2026-05-02T09:41:39.743Z</time></trkpt><trkpt lat="43.4510811" lon="12.2496378"><ele>284.0</ele><time>2026-05-02T09:41:40.754Z</time></trkpt><trkpt lat="43.451233" lon="12.2495986"><ele>284.0</ele><time>2026-05-02T09:41:41.753Z</time></trkpt><trkpt lat="43.4513783" lon="12.249563"><ele>284.0</ele><time>2026-05-02T09:41:42.765Z</time></trkpt><trkpt lat="43.4515036" lon="12.2495311"><ele>284.0</ele><time>2026-05-02T09:41:43.746Z</time></trkpt><trkpt lat="43.4516142" lon="12.2494992"><ele>283.59999999999997</ele><time>2026-05-02T09:41:44.764Z</time></trkpt><trkpt lat="43.4517073" lon="12.2494809"><ele>283.2</ele><time>2026-05-02T09:41:45.745Z</time></trkpt><trkpt lat="43.4517802" lon="12.249451"><ele>282.79999999999995</ele><time>2026-05-02T09:41:46.737Z</time></trkpt><trkpt lat="43.4518511" lon="12.2493321"><ele>282.4</ele><time>2026-05-02T09:41:48.76Z</time></trkpt><trkpt lat="43.4518384" lon="12.2492166"><ele>282.0</ele><time>2026-05-02T09:41:49.749Z</time></trkpt><trkpt lat="43.4518075" lon="12.2490744"><ele>282.0</ele><time>2026-05-02T09:41:50.767Z</time></trkpt><trkpt lat="43.4517777" lon="12.2489144"><ele>282.0</ele><time>2026-05-02T09:41:51.762Z</time></trkpt><trkpt lat="43.4517496" lon="12.2487371"><ele>282.0</ele><time>2026-05-02T09:41:52.764Z</time></trkpt><trkpt lat="43.4517294" lon="12.2485517"><ele>282.0</ele><time>2026-05-02T09:41:53.749Z</time></trkpt><trkpt lat="43.451713" lon="12.2483853"><ele>282.0</ele><time>2026-05-02T09:41:54.75Z</time></trkpt><trkpt lat="43.4516962" lon="12.2482104"><ele>282.0</ele><time>2026-05-02T09:41:55.753Z</time></trkpt><trkpt lat="43.4516703" lon="12.2480221"><ele>282.0</ele><time>2026-05-02T09:41:56.754Z</time></trkpt><trkpt lat="43.45164" lon="12.2478186"><ele>282.0</ele><time>2026-05-02T09:41:57.757Z</time></trkpt><trkpt lat="43.4516049" lon="12.2475983"><ele>282.0</ele><time>2026-05-02T09:41:58.759Z</time></trkpt><trkpt lat="43.4515599" lon="12.2473799"><ele>282.0</ele><time>2026-05-02T09:41:59.762Z</time></trkpt><trkpt lat="43.4515023" lon="12.247185"><ele>282.0</ele><time>2026-05-02T09:42:00.766Z</time></trkpt><trkpt lat="43.4514348" lon="12.2470247"><ele>282.0</ele><time>2026-05-02T09:42:01.755Z</time></trkpt><trkpt lat="43.4513689" lon="12.2468814"><ele>282.0</ele><time>2026-05-02T09:42:02.76Z</time></trkpt><trkpt lat="43.4513042" lon="12.2467364"><ele>282.0</ele><time>2026-05-02T09:42:03.748Z</time></trkpt><trkpt lat="43.4512425" lon="12.2465882"><ele>282.0</ele><time>2026-05-02T09:42:04.753Z</time></trkpt><trkpt lat="43.4511919" lon="12.2464481"><ele>281.8</ele><time>2026-05-02T09:42:05.749Z</time></trkpt><trkpt lat="43.4511677" lon="12.2463412"><ele>281.6</ele><time>2026-05-02T09:42:06.749Z</time></trkpt><trkpt lat="43.4511671" lon="12.2461807"><ele>281.40000000000003</ele><time>2026-05-02T09:42:08.749Z</time></trkpt><trkpt lat="43.4512019" lon="12.2460905"><ele>281.2</ele><time>2026-05-02T09:42:09.758Z</time></trkpt><trkpt lat="43.4512709" lon="12.2459932"><ele>281.0</ele><time>2026-05-02T09:42:10.754Z</time></trkpt><trkpt lat="43.4513633" lon="12.2459106"><ele>281.0</ele><time>2026-05-02T09:42:11.745Z</time></trkpt><trkpt lat="43.4514663" lon="12.2458398"><ele>281.0</ele><time>2026-05-02T09:42:12.761Z</time></trkpt><trkpt lat="43.4515785" lon="12.2457558"><ele>281.0</ele><time>2026-05-02T09:42:13.752Z</time></trkpt><trkpt lat="43.4517021" lon="12.2456657"><ele>281.0</ele><time>2026-05-02T09:42:14.757Z</time></trkpt><trkpt lat="43.4518221" lon="12.2455794"><ele>280.75</ele><time>2026-05-02T09:42:15.762Z</time></trkpt><trkpt lat="43.4519452" lon="12.2454846"><ele>280.5</ele><time>2026-05-02T09:42:16.766Z</time></trkpt><trkpt lat="43.452073" lon="12.2453948"><ele>280.25</ele><time>2026-05-02T09:42:17.754Z</time></trkpt><trkpt lat="43.4522016" lon="12.2452965"><ele>280.0</ele><time>2026-05-02T09:42:18.763Z</time></trkpt><trkpt lat="43.4523355" lon="12.2451989"><ele>280.66666666666663</ele><time>2026-05-02T09:42:19.763Z</time></trkpt><trkpt lat="43.452467" lon="12.245101"><ele>281.3333333333333</ele><time>2026-05-02T09:42:20.754Z</time></trkpt><trkpt lat="43.4526021" lon="12.2450039"><ele>282.0</ele><time>2026-05-02T09:42:21.76Z</time></trkpt><trkpt lat="43.4527401" lon="12.2449031"><ele>282.0</ele><time>2026-05-02T09:42:22.735Z</time></trkpt><trkpt lat="43.4528767" lon="12.2448001"><ele>282.0</ele><time>2026-05-02T09:42:23.762Z</time></trkpt><trkpt lat="43.4530114" lon="12.2447003"><ele>282.0</ele><time>2026-05-02T09:42:24.747Z</time></trkpt><trkpt lat="43.4531455" lon="12.2446012"><ele>282.0</ele><time>2026-05-02T09:42:25.752Z</time></trkpt><trkpt lat="43.4532736" lon="12.2445136"><ele>282.0</ele><time>2026-05-02T09:42:26.766Z</time></trkpt><trkpt lat="43.4533819" lon="12.2444329"><ele>282.0</ele><time>2026-05-02T09:42:27.75Z</time></trkpt><trkpt lat="43.4534794" lon="12.2443593"><ele>282.0</ele><time>2026-05-02T09:42:28.749Z</time></trkpt><trkpt lat="43.4535705" lon="12.2442868"><ele>282.0</ele><time>2026-05-02T09:42:29.755Z</time></trkpt><trkpt lat="43.4536544" lon="12.2442255"><ele>282.0</ele><time>2026-05-02T09:42:30.757Z</time></trkpt><trkpt lat="43.4537329" lon="12.2441697"><ele>282.0</ele><time>2026-05-02T09:42:31.754Z</time></trkpt><trkpt lat="43.4538143" lon="12.2441141"><ele>282.0</ele><time>2026-05-02T09:42:32.755Z</time></trkpt><trkpt lat="43.4538889" lon="12.2440617"><ele>282.0</ele><time>2026-05-02T09:42:33.753Z</time></trkpt><trkpt lat="43.4539606" lon="12.2440182"><ele>282.0</ele><time>2026-05-02T09:42:34.755Z</time></trkpt><trkpt lat="43.4540194" lon="12.2439817"><ele>283.0</ele><time>2026-05-02T09:42:35.763Z</time></trkpt><trkpt lat="43.4541141" lon="12.2439093"><ele>284.0</ele><time>2026-05-02T09:42:37.756Z</time></trkpt><trkpt lat="43.45421" lon="12.2438525"><ele>285.0</ele><time>2026-05-02T09:42:39.752Z</time></trkpt><trkpt lat="43.4542715" lon="12.2438211"><ele>286.0</ele><time>2026-05-02T09:42:40.749Z</time></trkpt><trkpt lat="43.4543385" lon="12.2437047"><ele>287.0</ele><time>2026-05-02T09:42:42.739Z</time></trkpt><trkpt lat="43.454245" lon="12.243555"><ele>287.0</ele><time>2026-05-02T09:42:44.749Z</time></trkpt><trkpt lat="43.4541598" lon="12.2435296"><ele>287.0</ele><time>2026-05-02T09:42:45.75Z</time></trkpt><trkpt lat="43.4540806" lon="12.2434771"><ele>287.0</ele><time>2026-05-02T09:42:46.748Z</time></trkpt><trkpt lat="43.4540094" lon="12.2433613"><ele>287.0</ele><time>2026-05-02T09:42:47.742Z</time></trkpt><trkpt lat="43.4539488" lon="12.2431711"><ele>287.0</ele><time>2026-05-02T09:42:48.756Z</time></trkpt><trkpt lat="43.4538871" lon="12.2429886"><ele>287.4</ele><time>2026-05-02T09:42:49.746Z</time></trkpt><trkpt lat="43.453822" lon="12.2428358"><ele>287.79999999999995</ele><time>2026-05-02T09:42:50.753Z</time></trkpt><trkpt lat="43.4537533" lon="12.2427217"><ele>288.2</ele><time>2026-05-02T09:42:51.75Z</time></trkpt><trkpt lat="43.4536926" lon="12.2426258"><ele>288.59999999999997</ele><time>2026-05-02T09:42:52.765Z</time></trkpt><trkpt lat="43.4536307" lon="12.2425345"><ele>289.0</ele><time>2026-05-02T09:42:53.749Z</time></trkpt><trkpt lat="43.4535877" lon="12.2424355"><ele>287.8</ele><time>2026-05-02T09:42:54.759Z</time></trkpt><trkpt lat="43.4535697" lon="12.2423076"><ele>286.59999999999997</ele><time>2026-05-02T09:42:55.754Z</time></trkpt><trkpt lat="43.4535799" lon="12.2421632"><ele>285.4</ele><time>2026-05-02T09:42:56.762Z</time></trkpt><trkpt lat="43.4536" lon="12.2420114"><ele>284.2</ele><time>2026-05-02T09:42:57.763Z</time></trkpt><trkpt lat="43.4536199" lon="12.2418571"><ele>283.0</ele><time>2026-05-02T09:42:58.768Z</time></trkpt><trkpt lat="43.4536387" lon="12.2417125"><ele>283.0</ele><time>2026-05-02T09:42:59.764Z</time></trkpt><trkpt lat="43.4536527" lon="12.2415769"><ele>283.0</ele><time>2026-05-02T09:43:00.759Z</time></trkpt><trkpt lat="43.4536737" lon="12.2414525"><ele>283.0</ele><time>2026-05-02T09:43:01.753Z</time></trkpt><trkpt lat="43.4536918" lon="12.2413341"><ele>283.0</ele><time>2026-05-02T09:43:02.761Z</time></trkpt><trkpt lat="43.4537029" lon="12.2412181"><ele>283.0</ele><time>2026-05-02T09:43:03.757Z</time></trkpt><trkpt lat="43.453715" lon="12.2410938"><ele>282.6</ele><time>2026-05-02T09:43:04.763Z</time></trkpt><trkpt lat="43.4537247" lon="12.2409558"><ele>282.20000000000005</ele><time>2026-05-02T09:43:05.76Z</time></trkpt><trkpt lat="43.4537396" lon="12.240806"><ele>281.8</ele><time>2026-05-02T09:43:06.753Z</time></trkpt><trkpt lat="43.4537559" lon="12.2406519"><ele>281.40000000000003</ele><time>2026-05-02T09:43:07.755Z</time></trkpt><trkpt lat="43.4537674" lon="12.2405085"><ele>281.0</ele><time>2026-05-02T09:43:08.767Z</time></trkpt><trkpt lat="43.4537757" lon="12.240378"><ele>281.0</ele><time>2026-05-02T09:43:09.751Z</time></trkpt><trkpt lat="43.453788" lon="12.2402546"><ele>281.0</ele><time>2026-05-02T09:43:10.754Z</time></trkpt><trkpt lat="43.453799" lon="12.2401342"><ele>281.0</ele><time>2026-05-02T09:43:11.75Z</time></trkpt><trkpt lat="43.4538087" lon="12.2400085"><ele>281.0</ele><time>2026-05-02T09:43:12.759Z</time></trkpt><trkpt lat="43.4538197" lon="12.2398789"><ele>281.0</ele><time>2026-05-02T09:43:13.746Z</time></trkpt><trkpt lat="43.4538334" lon="12.2397482"><ele>281.0</ele><time>2026-05-02T09:43:14.758Z</time></trkpt><trkpt lat="43.4538425" lon="12.2396214"><ele>281.0</ele><time>2026-05-02T09:43:15.752Z</time></trkpt><trkpt lat="43.4538457" lon="12.239503"><ele>281.0</ele><time>2026-05-02T09:43:16.769Z</time></trkpt><trkpt lat="43.4538542" lon="12.2393875"><ele>281.0</ele><time>2026-05-02T09:43:17.757Z</time></trkpt><trkpt lat="43.4538645" lon="12.2392759"><ele>281.0</ele><time>2026-05-02T09:43:18.766Z</time></trkpt><trkpt lat="43.4538745" lon="12.239165"><ele>281.0</ele><time>2026-05-02T09:43:19.76Z</time></trkpt><trkpt lat="43.4538921" lon="12.2390456"><ele>281.0</ele><time>2026-05-02T09:43:20.758Z</time></trkpt><trkpt lat="43.4539059" lon="12.2389078"><ele>281.0</ele><time>2026-05-02T09:43:21.748Z</time></trkpt><trkpt lat="43.4539212" lon="12.2387774"><ele>281.0</ele><time>2026-05-02T09:43:22.743Z</time></trkpt><trkpt lat="43.4539345" lon="12.2386536"><ele>281.0</ele><time>2026-05-02T09:43:23.764Z</time></trkpt><trkpt lat="43.4539472" lon="12.2385336"><ele>281.0</ele><time>2026-05-02T09:43:24.756Z</time></trkpt><trkpt lat="43.4539611" lon="12.2384088"><ele>281.0</ele><time>2026-05-02T09:43:25.749Z</time></trkpt><trkpt lat="43.4539684" lon="12.238282"><ele>281.0</ele><time>2026-05-02T09:43:26.748Z</time></trkpt><trkpt lat="43.4539769" lon="12.2381597"><ele>281.0</ele><time>2026-05-02T09:43:27.749Z</time></trkpt><trkpt lat="43.4539791" lon="12.2380445"><ele>281.0</ele><time>2026-05-02T09:43:28.742Z</time></trkpt><trkpt lat="43.4539846" lon="12.2379411"><ele>281.0</ele><time>2026-05-02T09:43:29.749Z</time></trkpt><trkpt lat="43.4539912" lon="12.237836"><ele>281.0</ele><time>2026-05-02T09:43:30.756Z</time></trkpt><trkpt lat="43.453994" lon="12.2377307"><ele>281.0</ele><time>2026-05-02T09:43:31.749Z</time></trkpt><trkpt lat="43.453989" lon="12.237622"><ele>281.0</ele><time>2026-05-02T09:43:32.742Z</time></trkpt><trkpt lat="43.4539749" lon="12.2375047"><ele>281.0</ele><time>2026-05-02T09:43:33.77Z</time></trkpt><trkpt lat="43.4539604" lon="12.2373785"><ele>281.0</ele><time>2026-05-02T09:43:34.744Z</time></trkpt><trkpt lat="43.4539448" lon="12.2372716"><ele>281.0</ele><time>2026-05-02T09:43:35.75Z</time></trkpt><trkpt lat="43.4539345" lon="12.2371128"><ele>281.0</ele><time>2026-05-02T09:43:37.753Z</time></trkpt><trkpt lat="43.4539318" lon="12.2369764"><ele>281.0</ele><time>2026-05-02T09:43:39.745Z</time></trkpt><trkpt lat="43.4538479" lon="12.2368818"><ele>281.0</ele><time>2026-05-02T09:43:41.751Z</time></trkpt><trkpt lat="43.4537249" lon="12.2369232"><ele>281.0</ele><time>2026-05-02T09:43:43.744Z</time></trkpt><trkpt lat="43.4536666" lon="12.2369951"><ele>281.0</ele><time>2026-05-02T09:43:44.744Z</time></trkpt><trkpt lat="43.4535902" lon="12.2370175"><ele>280.40000000000003</ele><time>2026-05-02T09:43:45.758Z</time></trkpt><trkpt lat="43.4535061" lon="12.2370023"><ele>279.8</ele><time>2026-05-02T09:43:46.748Z</time></trkpt><trkpt lat="43.4534248" lon="12.2369664"><ele>279.20000000000005</ele><time>2026-05-02T09:43:47.755Z</time></trkpt><trkpt lat="43.4533431" lon="12.2369201"><ele>278.6</ele><time>2026-05-02T09:43:48.742Z</time></trkpt><trkpt lat="43.4532499" lon="12.2368575"><ele>278.0</ele><time>2026-05-02T09:43:49.746Z</time></trkpt><trkpt lat="43.4531413" lon="12.236787"><ele>278.0</ele><time>2026-05-02T09:43:50.747Z</time></trkpt><trkpt lat="43.4530186" lon="12.2367041"><ele>278.0</ele><time>2026-05-02T09:43:51.745Z</time></trkpt><trkpt lat="43.4528836" lon="12.2366109"><ele>278.0</ele><time>2026-05-02T09:43:52.751Z</time></trkpt><trkpt lat="43.4527427" lon="12.2365087"><ele>278.0</ele><time>2026-05-02T09:43:53.751Z</time></trkpt><trkpt lat="43.4526101" lon="12.2364182"><ele>278.75</ele><time>2026-05-02T09:43:54.761Z</time></trkpt><trkpt lat="43.4524853" lon="12.2363356"><ele>279.5</ele><time>2026-05-02T09:43:55.749Z</time></trkpt><trkpt lat="43.4523612" lon="12.2362505"><ele>280.25</ele><time>2026-05-02T09:43:56.757Z</time></trkpt><trkpt lat="43.4522459" lon="12.2361564"><ele>281.0</ele><time>2026-05-02T09:43:57.754Z</time></trkpt><trkpt lat="43.4521496" lon="12.2360429"><ele>283.0</ele><time>2026-05-02T09:43:58.746Z</time></trkpt><trkpt lat="43.4520796" lon="12.2359458"><ele>285.0</ele><time>2026-05-02T09:43:59.755Z</time></trkpt><trkpt lat="43.4520386" lon="12.2358416"><ele>287.0</ele><time>2026-05-02T09:44:01.749Z</time></trkpt><trkpt lat="43.4519225" lon="12.2357913"><ele>289.0</ele><time>2026-05-02T09:44:04.751Z</time></trkpt><trkpt lat="43.4518235" lon="12.2358453"><ele>291.0</ele><time>2026-05-02T09:44:05.739Z</time></trkpt><trkpt lat="43.4517073" lon="12.2359591"><ele>291.0</ele><time>2026-05-02T09:44:06.753Z</time></trkpt><trkpt lat="43.4515786" lon="12.2360996"><ele>291.0</ele><time>2026-05-02T09:44:07.746Z</time></trkpt><trkpt lat="43.4514491" lon="12.2362463"><ele>291.0</ele><time>2026-05-02T09:44:08.757Z</time></trkpt><trkpt lat="43.4513167" lon="12.2363861"><ele>290.5</ele><time>2026-05-02T09:44:09.752Z</time></trkpt><trkpt lat="43.4511977" lon="12.2365259"><ele>290.0</ele><time>2026-05-02T09:44:10.738Z</time></trkpt><trkpt lat="43.4510874" lon="12.2366605"><ele>289.5</ele><time>2026-05-02T09:44:11.734Z</time></trkpt><trkpt lat="43.4509929" lon="12.2367792"><ele>289.0</ele><time>2026-05-02T09:44:12.741Z</time></trkpt><trkpt lat="43.4509066" lon="12.2368952"><ele>289.0</ele><time>2026-05-02T09:44:13.741Z</time></trkpt><trkpt lat="43.4508256" lon="12.2370113"><ele>289.0</ele><time>2026-05-02T09:44:14.751Z</time></trkpt><trkpt lat="43.4507352" lon="12.2371254"><ele>289.0</ele><time>2026-05-02T09:44:15.742Z</time></trkpt><trkpt lat="43.4506394" lon="12.2372574"><ele>289.0</ele><time>2026-05-02T09:44:16.741Z</time></trkpt><trkpt lat="43.4505402" lon="12.2374047"><ele>289.75</ele><time>2026-05-02T09:44:17.752Z</time></trkpt><trkpt lat="43.4504515" lon="12.2375682"><ele>290.5</ele><time>2026-05-02T09:44:18.754Z</time></trkpt><trkpt lat="43.4503567" lon="12.2377232"><ele>291.25</ele><time>2026-05-02T09:44:19.74Z</time></trkpt><trkpt lat="43.4502576" lon="12.2378722"><ele>292.0</ele><time>2026-05-02T09:44:20.751Z</time></trkpt><trkpt lat="43.4501553" lon="12.2380103"><ele>292.0</ele><time>2026-05-02T09:44:21.745Z</time></trkpt><trkpt lat="43.4500477" lon="12.2381276"><ele>292.0</ele><time>2026-05-02T09:44:22.747Z</time></trkpt><trkpt lat="43.4499328" lon="12.2382111"><ele>292.0</ele><time>2026-05-02T09:44:23.743Z</time></trkpt><trkpt lat="43.449809" lon="12.2382519"><ele>292.0</ele><time>2026-05-02T09:44:24.759Z</time></trkpt><trkpt lat="43.4496866" lon="12.2382527"><ele>291.25</ele><time>2026-05-02T09:44:25.75Z</time></trkpt><trkpt lat="43.4495723" lon="12.2382198"><ele>290.5</ele><time>2026-05-02T09:44:26.749Z</time></trkpt><trkpt lat="43.4494627" lon="12.2381725"><ele>289.75</ele><time>2026-05-02T09:44:27.754Z</time></trkpt><trkpt lat="43.4493527" lon="12.2381225"><ele>289.0</ele><time>2026-05-02T09:44:28.744Z</time></trkpt><trkpt lat="43.44923" lon="12.2380854"><ele>290.0</ele><time>2026-05-02T09:44:29.742Z</time></trkpt><trkpt lat="43.4490962" lon="12.2380597"><ele>291.0</ele><time>2026-05-02T09:44:30.745Z</time></trkpt><trkpt lat="43.4489548" lon="12.238048"><ele>292.0</ele><time>2026-05-02T09:44:31.747Z</time></trkpt><trkpt lat="43.4488112" lon="12.2380577"><ele>293.0</ele><time>2026-05-02T09:44:32.768Z</time></trkpt><trkpt lat="43.4486538" lon="12.2380994"><ele>291.6666666666667</ele><time>2026-05-02T09:44:33.753Z</time></trkpt><trkpt lat="43.4484959" lon="12.238167"><ele>290.3333333333333</ele><time>2026-05-02T09:44:34.758Z</time></trkpt><trkpt lat="43.4483291" lon="12.2382294"><ele>289.0</ele><time>2026-05-02T09:44:35.751Z</time></trkpt><trkpt lat="43.4481496" lon="12.2382886"><ele>289.0</ele><time>2026-05-02T09:44:36.74Z</time></trkpt><trkpt lat="43.4479649" lon="12.2383447"><ele>289.0</ele><time>2026-05-02T09:44:37.743Z</time></trkpt><trkpt lat="43.44778" lon="12.2383944"><ele>289.0</ele><time>2026-05-02T09:44:38.771Z</time></trkpt><trkpt lat="43.4475944" lon="12.2384578"><ele>289.3333333333333</ele><time>2026-05-02T09:44:39.747Z</time></trkpt><trkpt lat="43.4474037" lon="12.2385301"><ele>289.6666666666667</ele><time>2026-05-02T09:44:40.756Z</time></trkpt><trkpt lat="43.447203" lon="12.2385945"><ele>290.0</ele><time>2026-05-02T09:44:41.755Z</time></trkpt><trkpt lat="43.4469983" lon="12.2386513"><ele>291.33333333333337</ele><time>2026-05-02T09:44:42.766Z</time></trkpt><trkpt lat="43.4467896" lon="12.2387067"><ele>292.6666666666667</ele><time>2026-05-02T09:44:43.759Z</time></trkpt><trkpt lat="43.4465867" lon="12.2387659"><ele>294.0</ele><time>2026-05-02T09:44:44.764Z</time></trkpt><trkpt lat="43.4463889" lon="12.2388316"><ele>295.3333333333333</ele><time>2026-05-02T09:44:45.752Z</time></trkpt><trkpt lat="43.4461946" lon="12.2389024"><ele>296.66666666666663</ele><time>2026-05-02T09:44:46.766Z</time></trkpt><trkpt lat="43.446003" lon="12.2389713"><ele>298.0</ele><time>2026-05-02T09:44:47.761Z</time></trkpt><trkpt lat="43.4458061" lon="12.2390157"><ele>295.66666666666663</ele><time>2026-05-02T09:44:48.765Z</time></trkpt><trkpt lat="43.4456034" lon="12.2390329"><ele>293.3333333333333</ele><time>2026-05-02T09:44:49.753Z</time></trkpt><trkpt lat="43.4454" lon="12.2390288"><ele>291.0</ele><time>2026-05-02T09:44:50.766Z</time></trkpt><trkpt lat="43.4451824" lon="12.2390325"><ele>291.0</ele><time>2026-05-02T09:44:51.745Z</time></trkpt><trkpt lat="43.4449569" lon="12.2390454"><ele>291.0</ele><time>2026-05-02T09:44:52.762Z</time></trkpt><trkpt lat="43.4447245" lon="12.2390725"><ele>291.5</ele><time>2026-05-02T09:44:53.76Z</time></trkpt><trkpt lat="43.4444919" lon="12.2391139"><ele>292.0</ele><time>2026-05-02T09:44:54.776Z</time></trkpt><trkpt lat="43.4442622" lon="12.2391655"><ele>292.0</ele><time>2026-05-02T09:44:55.756Z</time></trkpt><trkpt lat="43.4440354" lon="12.2392232"><ele>292.0</ele><time>2026-05-02T09:44:56.75Z</time></trkpt><trkpt lat="43.4438054" lon="12.2392788"><ele>291.5</ele><time>2026-05-02T09:44:57.757Z</time></trkpt><trkpt lat="43.4435703" lon="12.2393258"><ele>291.0</ele><time>2026-05-02T09:44:58.756Z</time></trkpt><trkpt lat="43.4433362" lon="12.2393791"><ele>291.0</ele><time>2026-05-02T09:44:59.759Z</time></trkpt><trkpt lat="43.4431074" lon="12.2394283"><ele>291.0</ele><time>2026-05-02T09:45:00.767Z</time></trkpt><trkpt lat="43.4428845" lon="12.2394804"><ele>291.3333333333333</ele><time>2026-05-02T09:45:01.768Z</time></trkpt><trkpt lat="43.4426652" lon="12.2395339"><ele>291.66666666666663</ele><time>2026-05-02T09:45:02.78Z</time></trkpt><trkpt lat="43.4424536" lon="12.2395848"><ele>292.0</ele><time>2026-05-02T09:45:03.752Z</time></trkpt><trkpt lat="43.442245" lon="12.2396407"><ele>292.3333333333333</ele><time>2026-05-02T09:45:04.77Z</time></trkpt><trkpt lat="43.4420373" lon="12.2397105"><ele>292.6666666666667</ele><time>2026-05-02T09:45:05.765Z</time></trkpt><trkpt lat="43.4418396" lon="12.239822"><ele>293.0</ele><time>2026-05-02T09:45:06.764Z</time></trkpt><trkpt lat="43.4416481" lon="12.2399684"><ele>293.0</ele><time>2026-05-02T09:45:07.757Z</time></trkpt><trkpt lat="43.4414584" lon="12.2401403"><ele>293.0</ele><time>2026-05-02T09:45:08.769Z</time></trkpt><trkpt lat="43.4412689" lon="12.2403191"><ele>292.5</ele><time>2026-05-02T09:45:09.761Z</time></trkpt><trkpt lat="43.4410797" lon="12.2405065"><ele>292.0</ele><time>2026-05-02T09:45:10.773Z</time></trkpt><trkpt lat="43.4408864" lon="12.2406867"><ele>292.0</ele><time>2026-05-02T09:45:11.746Z</time></trkpt><trkpt lat="43.44069" lon="12.2408643"><ele>292.0</ele><time>2026-05-02T09:45:12.771Z</time></trkpt><trkpt lat="43.4405019" lon="12.2410332"><ele>291.0</ele><time>2026-05-02T09:45:13.753Z</time></trkpt><trkpt lat="43.4403191" lon="12.2411992"><ele>290.0</ele><time>2026-05-02T09:45:14.764Z</time></trkpt><trkpt lat="43.4401394" lon="12.2413655"><ele>289.0</ele><time>2026-05-02T09:45:15.748Z</time></trkpt><trkpt lat="43.4399605" lon="12.2415363"><ele>289.0</ele><time>2026-05-02T09:45:16.765Z</time></trkpt><trkpt lat="43.4397863" lon="12.2417024"><ele>289.0</ele><time>2026-05-02T09:45:17.757Z</time></trkpt><trkpt lat="43.4396192" lon="12.2418655"><ele>289.0</ele><time>2026-05-02T09:45:18.773Z</time></trkpt><trkpt lat="43.4394566" lon="12.2420109"><ele>288.66666666666663</ele><time>2026-05-02T09:45:19.756Z</time></trkpt><trkpt lat="43.4392945" lon="12.2421203"><ele>288.3333333333333</ele><time>2026-05-02T09:45:20.756Z</time></trkpt><trkpt lat="43.4391245" lon="12.2421879"><ele>288.0</ele><time>2026-05-02T09:45:21.754Z</time></trkpt><trkpt lat="43.4389515" lon="12.2422008"><ele>288.0</ele><time>2026-05-02T09:45:22.77Z</time></trkpt><trkpt lat="43.4387791" lon="12.2421445"><ele>288.0</ele><time>2026-05-02T09:45:23.763Z</time></trkpt><trkpt lat="43.4386055" lon="12.2420526"><ele>288.0</ele><time>2026-05-02T09:45:24.772Z</time></trkpt><trkpt lat="43.4384493" lon="12.2419242"><ele>288.0</ele><time>2026-05-02T09:45:25.752Z</time></trkpt><trkpt lat="43.4383113" lon="12.2417542"><ele>288.0</ele><time>2026-05-02T09:45:26.744Z</time></trkpt><trkpt lat="43.4382136" lon="12.2415606"><ele>288.0</ele><time>2026-05-02T09:45:27.742Z</time></trkpt><trkpt lat="43.4381478" lon="12.2413347"><ele>288.6666666666667</ele><time>2026-05-02T09:45:28.765Z</time></trkpt><trkpt lat="43.4380994" lon="12.2410939"><ele>289.33333333333337</ele><time>2026-05-02T09:45:29.756Z</time></trkpt><trkpt lat="43.4380499" lon="12.2408439"><ele>290.0</ele><time>2026-05-02T09:45:30.755Z</time></trkpt><trkpt lat="43.4379953" lon="12.2406019"><ele>289.33333333333337</ele><time>2026-05-02T09:45:31.759Z</time></trkpt><trkpt lat="43.4379395" lon="12.2403706"><ele>288.6666666666667</ele><time>2026-05-02T09:45:32.76Z</time></trkpt><trkpt lat="43.4378847" lon="12.2401184"><ele>288.0</ele><time>2026-05-02T09:45:33.76Z</time></trkpt><trkpt lat="43.4378336" lon="12.2398607"><ele>288.3333333333333</ele><time>2026-05-02T09:45:34.763Z</time></trkpt><trkpt lat="43.4377786" lon="12.2396109"><ele>288.66666666666663</ele><time>2026-05-02T09:45:35.758Z</time></trkpt><trkpt lat="43.4377102" lon="12.2393791"><ele>289.0</ele><time>2026-05-02T09:45:36.759Z</time></trkpt><trkpt lat="43.4376113" lon="12.2391589"><ele>291.3333333333333</ele><time>2026-05-02T09:45:37.755Z</time></trkpt><trkpt lat="43.437485" lon="12.2389435"><ele>293.6666666666667</ele><time>2026-05-02T09:45:38.772Z</time></trkpt><trkpt lat="43.4373472" lon="12.2387314"><ele>296.0</ele><time>2026-05-02T09:45:39.754Z</time></trkpt><trkpt lat="43.4372088" lon="12.2385094"><ele>295.33333333333337</ele><time>2026-05-02T09:45:40.755Z</time></trkpt><trkpt lat="43.4370783" lon="12.2382811"><ele>294.6666666666667</ele><time>2026-05-02T09:45:41.748Z</time></trkpt><trkpt lat="43.4369714" lon="12.2380365"><ele>294.0</ele><time>2026-05-02T09:45:42.756Z</time></trkpt><trkpt lat="43.4368832" lon="12.2377764"><ele>294.0</ele><time>2026-05-02T09:45:43.74Z</time></trkpt><trkpt lat="43.4367915" lon="12.2375177"><ele>294.0</ele><time>2026-05-02T09:45:44.772Z</time></trkpt><trkpt lat="43.4366846" lon="12.2372725"><ele>294.0</ele><time>2026-05-02T09:45:45.757Z</time></trkpt><trkpt lat="43.4365525" lon="12.2370517"><ele>293.3333333333333</ele><time>2026-05-02T09:45:46.765Z</time></trkpt><trkpt lat="43.4364011" lon="12.23686"><ele>292.66666666666663</ele><time>2026-05-02T09:45:47.757Z</time></trkpt><trkpt lat="43.4362395" lon="12.2366741"><ele>292.0</ele><time>2026-05-02T09:45:48.772Z</time></trkpt><trkpt lat="43.4360854" lon="12.2364947"><ele>295.66666666666663</ele><time>2026-05-02T09:45:49.756Z</time></trkpt><trkpt lat="43.4359373" lon="12.2363199"><ele>299.3333333333333</ele><time>2026-05-02T09:45:50.767Z</time></trkpt><trkpt lat="43.4357993" lon="12.2361454"><ele>303.0</ele><time>2026-05-02T09:45:51.766Z</time></trkpt><trkpt lat="43.4356662" lon="12.2359814"><ele>303.0</ele><time>2026-05-02T09:45:52.762Z</time></trkpt><trkpt lat="43.4355306" lon="12.2358204"><ele>303.0</ele><time>2026-05-02T09:45:53.754Z</time></trkpt><trkpt lat="43.4353949" lon="12.2356681"><ele>303.0</ele><time>2026-05-02T09:45:54.764Z</time></trkpt><trkpt lat="43.4352579" lon="12.2355198"><ele>302.6666666666667</ele><time>2026-05-02T09:45:55.761Z</time></trkpt><trkpt lat="43.4351114" lon="12.2353794"><ele>302.33333333333337</ele><time>2026-05-02T09:45:56.748Z</time></trkpt><trkpt lat="43.4349571" lon="12.2352496"><ele>302.0</ele><time>2026-05-02T09:45:57.773Z</time></trkpt><trkpt lat="43.4347954" lon="12.2351195"><ele>300.33333333333337</ele><time>2026-05-02T09:45:58.759Z</time></trkpt><trkpt lat="43.4346334" lon="12.2349896"><ele>298.6666666666667</ele><time>2026-05-02T09:45:59.758Z</time></trkpt><trkpt lat="43.4344642" lon="12.2348572"><ele>297.0</ele><time>2026-05-02T09:46:00.756Z</time></trkpt><trkpt lat="43.4342866" lon="12.234719"><ele>296.0</ele><time>2026-05-02T09:46:01.753Z</time></trkpt><trkpt lat="43.4341058" lon="12.2345824"><ele>295.0</ele><time>2026-05-02T09:46:02.761Z</time></trkpt><trkpt lat="43.4339283" lon="12.2344408"><ele>294.0</ele><time>2026-05-02T09:46:03.753Z</time></trkpt><trkpt lat="43.433752" lon="12.2342917"><ele>294.0</ele><time>2026-05-02T09:46:04.754Z</time></trkpt><trkpt lat="43.4335726" lon="12.234144"><ele>294.0</ele><time>2026-05-02T09:46:05.752Z</time></trkpt><trkpt lat="43.4333945" lon="12.2340026"><ele>294.0</ele><time>2026-05-02T09:46:06.752Z</time></trkpt><trkpt lat="43.4332236" lon="12.2338677"><ele>293.3333333333333</ele><time>2026-05-02T09:46:07.749Z</time></trkpt><trkpt lat="43.4330447" lon="12.2337467"><ele>292.66666666666663</ele><time>2026-05-02T09:46:08.766Z</time></trkpt><trkpt lat="43.4328434" lon="12.2336646"><ele>292.0</ele><time>2026-05-02T09:46:09.756Z</time></trkpt><trkpt lat="43.4326256" lon="12.2336277"><ele>292.0</ele><time>2026-05-02T09:46:10.762Z</time></trkpt><trkpt lat="43.4324007" lon="12.2336128"><ele>292.0</ele><time>2026-05-02T09:46:11.756Z</time></trkpt><trkpt lat="43.4321736" lon="12.2336032"><ele>290.0</ele><time>2026-05-02T09:46:12.752Z</time></trkpt><trkpt lat="43.4319399" lon="12.2335727"><ele>288.0</ele><time>2026-05-02T09:46:13.747Z</time></trkpt><trkpt lat="43.4317039" lon="12.233544"><ele>288.0</ele><time>2026-05-02T09:46:14.759Z</time></trkpt><trkpt lat="43.431468" lon="12.2335132"><ele>288.0</ele><time>2026-05-02T09:46:15.75Z</time></trkpt><trkpt lat="43.4312314" lon="12.23348"><ele>287.0</ele><time>2026-05-02T09:46:16.758Z</time></trkpt><trkpt lat="43.4309943" lon="12.2334445"><ele>286.0</ele><time>2026-05-02T09:46:17.746Z</time></trkpt><trkpt lat="43.4307556" lon="12.2334158"><ele>286.0</ele><time>2026-05-02T09:46:18.745Z</time></trkpt><trkpt lat="43.4305149" lon="12.2333863"><ele>286.0</ele><time>2026-05-02T09:46:19.755Z</time></trkpt><trkpt lat="43.4302776" lon="12.2333659"><ele>284.66666666666663</ele><time>2026-05-02T09:46:20.754Z</time></trkpt><trkpt lat="43.4300515" lon="12.2333516"><ele>283.3333333333333</ele><time>2026-05-02T09:46:21.749Z</time></trkpt><trkpt lat="43.4298355" lon="12.2333259"><ele>282.0</ele><time>2026-05-02T09:46:22.748Z</time></trkpt><trkpt lat="43.4296256" lon="12.2332756"><ele>281.0</ele><time>2026-05-02T09:46:23.752Z</time></trkpt><trkpt lat="43.4294257" lon="12.2331853"><ele>280.0</ele><time>2026-05-02T09:46:24.757Z</time></trkpt><trkpt lat="43.4292395" lon="12.2330595"><ele>279.0</ele><time>2026-05-02T09:46:25.757Z</time></trkpt><trkpt lat="43.4290603" lon="12.2329263"><ele>281.0</ele><time>2026-05-02T09:46:26.757Z</time></trkpt><trkpt lat="43.4288671" lon="12.2328118"><ele>283.0</ele><time>2026-05-02T09:46:27.75Z</time></trkpt><trkpt lat="43.4286603" lon="12.2327149"><ele>285.0</ele><time>2026-05-02T09:46:28.752Z</time></trkpt><trkpt lat="43.4284439" lon="12.2326313"><ele>285.0</ele><time>2026-05-02T09:46:29.755Z</time></trkpt><trkpt lat="43.4282242" lon="12.2325423"><ele>285.0</ele><time>2026-05-02T09:46:30.757Z</time></trkpt><trkpt lat="43.4280057" lon="12.2324497"><ele>282.0</ele><time>2026-05-02T09:46:31.763Z</time></trkpt><trkpt lat="43.4277891" lon="12.2323579"><ele>279.0</ele><time>2026-05-02T09:46:32.754Z</time></trkpt><trkpt lat="43.4275745" lon="12.2322648"><ele>284.0</ele><time>2026-05-02T09:46:33.761Z</time></trkpt><trkpt lat="43.4273747" lon="12.2321835"><ele>289.0</ele><time>2026-05-02T09:46:34.754Z</time></trkpt><trkpt lat="43.4271895" lon="12.2321124"><ele>294.0</ele><time>2026-05-02T09:46:35.75Z</time></trkpt><trkpt lat="43.4270177" lon="12.2320767"><ele>294.0</ele><time>2026-05-02T09:46:36.764Z</time></trkpt><trkpt lat="43.4268506" lon="12.2320975"><ele>294.0</ele><time>2026-05-02T09:46:37.753Z</time></trkpt><trkpt lat="43.4266852" lon="12.2321738"><ele>294.0</ele><time>2026-05-02T09:46:38.753Z</time></trkpt><trkpt lat="43.4265325" lon="12.2323036"><ele>291.6666666666667</ele><time>2026-05-02T09:46:39.761Z</time></trkpt><trkpt lat="43.4263825" lon="12.2324682"><ele>289.33333333333337</ele><time>2026-05-02T09:46:40.757Z</time></trkpt><trkpt lat="43.4262356" lon="12.2326344"><ele>287.0</ele><time>2026-05-02T09:46:41.746Z</time></trkpt><trkpt lat="43.4260894" lon="12.2327834"><ele>287.0</ele><time>2026-05-02T09:46:42.758Z</time></trkpt><trkpt lat="43.4259383" lon="12.2328774"><ele>287.0</ele><time>2026-05-02T09:46:43.75Z</time></trkpt><trkpt lat="43.425788" lon="12.2329217"><ele>287.0</ele><time>2026-05-02T09:46:44.756Z</time></trkpt><trkpt lat="43.4256213" lon="12.2329131"><ele>287.6666666666667</ele><time>2026-05-02T09:46:45.763Z</time></trkpt><trkpt lat="43.4254415" lon="12.2328618"><ele>288.3333333333333</ele><time>2026-05-02T09:46:46.754Z</time></trkpt><trkpt lat="43.4252546" lon="12.2328005"><ele>289.0</ele><time>2026-05-02T09:46:47.752Z</time></trkpt><trkpt lat="43.4250562" lon="12.2327712"><ele>289.0</ele><time>2026-05-02T09:46:48.752Z</time></trkpt><trkpt lat="43.4248495" lon="12.2327342"><ele>289.0</ele><time>2026-05-02T09:46:49.75Z</time></trkpt><trkpt lat="43.4246343" lon="12.2326977"><ele>289.0</ele><time>2026-05-02T09:46:50.759Z</time></trkpt><trkpt lat="43.4244174" lon="12.2326633"><ele>288.3333333333333</ele><time>2026-05-02T09:46:51.753Z</time></trkpt><trkpt lat="43.4241983" lon="12.2326288"><ele>287.6666666666667</ele><time>2026-05-02T09:46:52.758Z</time></trkpt><trkpt lat="43.4239733" lon="12.2326118"><ele>287.0</ele><time>2026-05-02T09:46:53.757Z</time></trkpt><trkpt lat="43.4237507" lon="12.2326125"><ele>286.33333333333337</ele><time>2026-05-02T09:46:54.753Z</time></trkpt><trkpt lat="43.4235321" lon="12.2326105"><ele>285.6666666666667</ele><time>2026-05-02T09:46:55.748Z</time></trkpt><trkpt lat="43.4233076" lon="12.232614"><ele>285.0</ele><time>2026-05-02T09:46:56.754Z</time></trkpt><trkpt lat="43.4230722" lon="12.2326012"><ele>287.0</ele><time>2026-05-02T09:46:57.749Z</time></trkpt><trkpt lat="43.4228417" lon="12.2325573"><ele>289.0</ele><time>2026-05-02T09:46:58.755Z</time></trkpt><trkpt lat="43.4226187" lon="12.2325043"><ele>289.0</ele><time>2026-05-02T09:46:59.758Z</time></trkpt><trkpt lat="43.4223956" lon="12.2324775"><ele>289.0</ele><time>2026-05-02T09:47:00.761Z</time></trkpt><trkpt lat="43.4221682" lon="12.2324897"><ele>286.0</ele><time>2026-05-02T09:47:01.76Z</time></trkpt><trkpt lat="43.4219377" lon="12.2325359"><ele>283.0</ele><time>2026-05-02T09:47:02.764Z</time></trkpt><trkpt lat="43.4217155" lon="12.2325984"><ele>283.0</ele><time>2026-05-02T09:47:03.758Z</time></trkpt><trkpt lat="43.4214994" lon="12.2326627"><ele>283.0</ele><time>2026-05-02T09:47:04.757Z</time></trkpt><trkpt lat="43.4212876" lon="12.2327296"><ele>283.0</ele><time>2026-05-02T09:47:05.757Z</time></trkpt><trkpt lat="43.421082" lon="12.2328131"><ele>285.0</ele><time>2026-05-02T09:47:06.763Z</time></trkpt><trkpt lat="43.4208891" lon="12.2329168"><ele>287.0</ele><time>2026-05-02T09:47:07.756Z</time></trkpt><trkpt lat="43.4207111" lon="12.2330203"><ele>289.0</ele><time>2026-05-02T09:47:08.759Z</time></trkpt><trkpt lat="43.4205453" lon="12.2331123"><ele>287.3333333333333</ele><time>2026-05-02T09:47:09.74Z</time></trkpt><trkpt lat="43.4203902" lon="12.2331742"><ele>285.6666666666667</ele><time>2026-05-02T09:47:10.756Z</time></trkpt><trkpt lat="43.4202439" lon="12.2331956"><ele>284.0</ele><time>2026-05-02T09:47:11.751Z</time></trkpt><trkpt lat="43.4200965" lon="12.2331855"><ele>284.0</ele><time>2026-05-02T09:47:12.764Z</time></trkpt><trkpt lat="43.4199466" lon="12.2331354"><ele>284.0</ele><time>2026-05-02T09:47:13.741Z</time></trkpt><trkpt lat="43.4197956" lon="12.2330636"><ele>284.0</ele><time>2026-05-02T09:47:14.749Z</time></trkpt><trkpt lat="43.4196465" lon="12.2329844"><ele>284.0</ele><time>2026-05-02T09:47:15.751Z</time></trkpt><trkpt lat="43.4195005" lon="12.2329075"><ele>284.0</ele><time>2026-05-02T09:47:16.755Z</time></trkpt><trkpt lat="43.419359" lon="12.2328341"><ele>284.0</ele><time>2026-05-02T09:47:17.753Z</time></trkpt><trkpt lat="43.4192086" lon="12.2327569"><ele>284.0</ele><time>2026-05-02T09:47:18.754Z</time></trkpt><trkpt lat="43.4190485" lon="12.2326811"><ele>284.0</ele><time>2026-05-02T09:47:19.752Z</time></trkpt><trkpt lat="43.4188836" lon="12.2326243"><ele>284.0</ele><time>2026-05-02T09:47:20.782Z</time></trkpt><trkpt lat="43.4187104" lon="12.2325869"><ele>282.6666666666667</ele><time>2026-05-02T09:47:21.756Z</time></trkpt><trkpt lat="43.4185367" lon="12.2325761"><ele>281.3333333333333</ele><time>2026-05-02T09:47:22.759Z</time></trkpt><trkpt lat="43.4183631" lon="12.2325912"><ele>280.0</ele><time>2026-05-02T09:47:23.764Z</time></trkpt><trkpt lat="43.4181967" lon="12.2326232"><ele>280.0</ele><time>2026-05-02T09:47:24.759Z</time></trkpt><trkpt lat="43.4180344" lon="12.2326552"><ele>280.0</ele><time>2026-05-02T09:47:25.76Z</time></trkpt><trkpt lat="43.4178771" lon="12.2326864"><ele>280.0</ele><time>2026-05-02T09:47:26.758Z</time></trkpt><trkpt lat="43.417724" lon="12.2327146"><ele>280.66666666666663</ele><time>2026-05-02T09:47:27.753Z</time></trkpt><trkpt lat="43.4175673" lon="12.2327461"><ele>281.3333333333333</ele><time>2026-05-02T09:47:28.763Z</time></trkpt><trkpt lat="43.4174128" lon="12.2327816"><ele>282.0</ele><time>2026-05-02T09:47:29.761Z</time></trkpt><trkpt lat="43.4172601" lon="12.2328139"><ele>281.0</ele><time>2026-05-02T09:47:30.758Z</time></trkpt><trkpt lat="43.4171092" lon="12.2328452"><ele>280.0</ele><time>2026-05-02T09:47:31.756Z</time></trkpt><trkpt lat="43.4169621" lon="12.2328802"><ele>279.0</ele><time>2026-05-02T09:47:32.744Z</time></trkpt><trkpt lat="43.4168237" lon="12.2329137"><ele>278.0</ele><time>2026-05-02T09:47:33.757Z</time></trkpt><trkpt lat="43.416681" lon="12.2329457"><ele>278.0</ele><time>2026-05-02T09:47:34.765Z</time></trkpt><trkpt lat="43.4165257" lon="12.232982"><ele>278.0</ele><time>2026-05-02T09:47:35.762Z</time></trkpt><trkpt lat="43.4163568" lon="12.2330246"><ele>278.0</ele><time>2026-05-02T09:47:36.74Z</time></trkpt><trkpt lat="43.4161733" lon="12.2330686"><ele>277.33333333333337</ele><time>2026-05-02T09:47:37.756Z</time></trkpt><trkpt lat="43.4159803" lon="12.2331148"><ele>276.6666666666667</ele><time>2026-05-02T09:47:38.783Z</time></trkpt><trkpt lat="43.4157775" lon="12.2331561"><ele>276.0</ele><time>2026-05-02T09:47:39.756Z</time></trkpt><trkpt lat="43.4155704" lon="12.2332008"><ele>276.0</ele><time>2026-05-02T09:47:40.756Z</time></trkpt><trkpt lat="43.4153681" lon="12.2332382"><ele>276.0</ele><time>2026-05-02T09:47:41.76Z</time></trkpt><trkpt lat="43.4151997" lon="12.2332674"><ele>276.0</ele><time>2026-05-02T09:47:42.772Z</time></trkpt><trkpt lat="43.4150544" lon="12.2332873"><ele>276.0</ele><time>2026-05-02T09:47:43.765Z</time></trkpt><trkpt lat="43.4149265" lon="12.2333124"><ele>276.0</ele><time>2026-05-02T09:47:44.758Z</time></trkpt><trkpt lat="43.4148063" lon="12.2333402"><ele>276.0</ele><time>2026-05-02T09:47:45.763Z</time></trkpt><trkpt lat="43.4146888" lon="12.2333688"><ele>276.0</ele><time>2026-05-02T09:47:46.758Z</time></trkpt><trkpt lat="43.4145558" lon="12.2334031"><ele>276.6666666666667</ele><time>2026-05-02T09:47:47.769Z</time></trkpt><trkpt lat="43.4143867" lon="12.2334405"><ele>277.33333333333337</ele><time>2026-05-02T09:47:48.773Z</time></trkpt><trkpt lat="43.4142018" lon="12.2334754"><ele>278.0</ele><time>2026-05-02T09:47:49.755Z</time></trkpt><trkpt lat="43.4140235" lon="12.2335085"><ele>278.0</ele><time>2026-05-02T09:47:50.776Z</time></trkpt><trkpt lat="43.4138526" lon="12.2335408"><ele>278.0</ele><time>2026-05-02T09:47:51.757Z</time></trkpt><trkpt lat="43.4136642" lon="12.2335634"><ele>278.0</ele><time>2026-05-02T09:47:52.778Z</time></trkpt><trkpt lat="43.4134662" lon="12.2335722"><ele>278.33333333333337</ele><time>2026-05-02T09:47:53.756Z</time></trkpt><trkpt lat="43.4132752" lon="12.2335754"><ele>278.6666666666667</ele><time>2026-05-02T09:47:54.764Z</time></trkpt><trkpt lat="43.4130967" lon="12.2335869"><ele>279.0</ele><time>2026-05-02T09:47:55.755Z</time></trkpt><trkpt lat="43.4129131" lon="12.2336064"><ele>279.3333333333333</ele><time>2026-05-02T09:47:56.764Z</time></trkpt><trkpt lat="43.4127125" lon="12.233626"><ele>279.66666666666663</ele><time>2026-05-02T09:47:57.757Z</time></trkpt><trkpt lat="43.4125117" lon="12.233636"><ele>280.0</ele><time>2026-05-02T09:47:58.765Z</time></trkpt><trkpt lat="43.4123193" lon="12.2336418"><ele>279.66666666666663</ele><time>2026-05-02T09:47:59.759Z</time></trkpt><trkpt lat="43.4121365" lon="12.2336517"><ele>279.3333333333333</ele><time>2026-05-02T09:48:00.769Z</time></trkpt><trkpt lat="43.4119677" lon="12.2336601"><ele>279.0</ele><time>2026-05-02T09:48:01.763Z</time></trkpt><trkpt lat="43.4117982" lon="12.2336729"><ele>279.0</ele><time>2026-05-02T09:48:02.77Z</time></trkpt><trkpt lat="43.4116275" lon="12.2336838"><ele>279.0</ele><time>2026-05-02T09:48:03.759Z</time></trkpt><trkpt lat="43.4114624" lon="12.2336929"><ele>279.0</ele><time>2026-05-02T09:48:04.736Z</time></trkpt><trkpt lat="43.4113071" lon="12.2337049"><ele>278.0</ele><time>2026-05-02T09:48:05.752Z</time></trkpt><trkpt lat="43.4111632" lon="12.2337168"><ele>277.0</ele><time>2026-05-02T09:48:06.742Z</time></trkpt><trkpt lat="43.4110292" lon="12.2337251"><ele>276.0</ele><time>2026-05-02T09:48:07.74Z</time></trkpt><trkpt lat="43.4109009" lon="12.2337333"><ele>275.0</ele><time>2026-05-02T09:48:08.752Z</time></trkpt><trkpt lat="43.4107783" lon="12.2337472"><ele>275.0</ele><time>2026-05-02T09:48:09.764Z</time></trkpt><trkpt lat="43.4106522" lon="12.2337634"><ele>275.0</ele><time>2026-05-02T09:48:10.761Z</time></trkpt><trkpt lat="43.4105141" lon="12.2337743"><ele>275.0</ele><time>2026-05-02T09:48:11.768Z</time></trkpt><trkpt lat="43.4103751" lon="12.2337776"><ele>275.0</ele><time>2026-05-02T09:48:12.776Z</time></trkpt><trkpt lat="43.4102482" lon="12.2337774"><ele>275.25</ele><time>2026-05-02T09:48:13.758Z</time></trkpt><trkpt lat="43.4101292" lon="12.2337773"><ele>275.5</ele><time>2026-05-02T09:48:14.773Z</time></trkpt><trkpt lat="43.4100108" lon="12.2337846"><ele>275.75</ele><time>2026-05-02T09:48:15.761Z</time></trkpt><trkpt lat="43.4098847" lon="12.2337955"><ele>276.0</ele><time>2026-05-02T09:48:16.753Z</time></trkpt><trkpt lat="43.409745" lon="12.2338038"><ele>276.0</ele><time>2026-05-02T09:48:17.763Z</time></trkpt><trkpt lat="43.4096013" lon="12.233813"><ele>276.0</ele><time>2026-05-02T09:48:18.773Z</time></trkpt><trkpt lat="43.40945" lon="12.2338272"><ele>276.0</ele><time>2026-05-02T09:48:19.754Z</time></trkpt><trkpt lat="43.4092893" lon="12.233842"><ele>276.0</ele><time>2026-05-02T09:48:20.761Z</time></trkpt><trkpt lat="43.4091188" lon="12.2338591"><ele>276.0</ele><time>2026-05-02T09:48:21.762Z</time></trkpt><trkpt lat="43.4089396" lon="12.2338727"><ele>276.0</ele><time>2026-05-02T09:48:22.782Z</time></trkpt><trkpt lat="43.4087521" lon="12.2338858"><ele>275.6666666666667</ele><time>2026-05-02T09:48:23.775Z</time></trkpt><trkpt lat="43.408555" lon="12.2338976"><ele>275.33333333333337</ele><time>2026-05-02T09:48:24.761Z</time></trkpt><trkpt lat="43.4083523" lon="12.233908"><ele>275.0</ele><time>2026-05-02T09:48:25.76Z</time></trkpt><trkpt lat="43.4081513" lon="12.2339203"><ele>274.6666666666667</ele><time>2026-05-02T09:48:26.76Z</time></trkpt><trkpt lat="43.4079488" lon="12.233931"><ele>274.3333333333333</ele><time>2026-05-02T09:48:27.762Z</time></trkpt><trkpt lat="43.4077481" lon="12.2339464"><ele>274.0</ele><time>2026-05-02T09:48:28.76Z</time></trkpt><trkpt lat="43.407548" lon="12.233956"><ele>274.0</ele><time>2026-05-02T09:48:29.758Z</time></trkpt><trkpt lat="43.4073495" lon="12.2339648"><ele>274.0</ele><time>2026-05-02T09:48:30.781Z</time></trkpt><trkpt lat="43.4071504" lon="12.2339795"><ele>274.0</ele><time>2026-05-02T09:48:31.762Z</time></trkpt><trkpt lat="43.4069512" lon="12.2339961"><ele>272.66666666666663</ele><time>2026-05-02T09:48:32.778Z</time></trkpt><trkpt lat="43.40675" lon="12.234012"><ele>271.3333333333333</ele><time>2026-05-02T09:48:33.75Z</time></trkpt><trkpt lat="43.4065466" lon="12.234022"><ele>270.0</ele><time>2026-05-02T09:48:34.777Z</time></trkpt><trkpt lat="43.4063425" lon="12.2340355"><ele>269.6666666666667</ele><time>2026-05-02T09:48:35.76Z</time></trkpt><trkpt lat="43.406137" lon="12.2340508"><ele>269.33333333333337</ele><time>2026-05-02T09:48:36.774Z</time></trkpt><trkpt lat="43.4059325" lon="12.2340737"><ele>269.0</ele><time>2026-05-02T09:48:37.764Z</time></trkpt><trkpt lat="43.4057271" lon="12.2340911"><ele>269.0</ele><time>2026-05-02T09:48:38.756Z</time></trkpt><trkpt lat="43.4055268" lon="12.2341061"><ele>269.0</ele><time>2026-05-02T09:48:39.765Z</time></trkpt><trkpt lat="43.4053237" lon="12.2341113"><ele>269.0</ele><time>2026-05-02T09:48:40.757Z</time></trkpt><trkpt lat="43.40512" lon="12.2341195"><ele>269.33333333333337</ele><time>2026-05-02T09:48:41.763Z</time></trkpt><trkpt lat="43.4049197" lon="12.2341358"><ele>269.6666666666667</ele><time>2026-05-02T09:48:42.762Z</time></trkpt><trkpt lat="43.4047219" lon="12.2341531"><ele>270.0</ele><time>2026-05-02T09:48:43.747Z</time></trkpt><trkpt lat="43.4045287" lon="12.2341715"><ele>270.0</ele><time>2026-05-02T09:48:44.743Z</time></trkpt><trkpt lat="43.4043377" lon="12.2341879"><ele>270.0</ele><time>2026-05-02T09:48:45.765Z</time></trkpt><trkpt lat="43.4041431" lon="12.2341974"><ele>270.0</ele><time>2026-05-02T09:48:46.768Z</time></trkpt><trkpt lat="43.4039475" lon="12.2342089"><ele>271.0</ele><time>2026-05-02T09:48:47.76Z</time></trkpt><trkpt lat="43.4037462" lon="12.2342172"><ele>272.0</ele><time>2026-05-02T09:48:48.78Z</time></trkpt><trkpt lat="43.4035393" lon="12.2342328"><ele>273.0</ele><time>2026-05-02T09:48:49.761Z</time></trkpt><trkpt lat="43.4033277" lon="12.2342504"><ele>273.0</ele><time>2026-05-02T09:48:50.767Z</time></trkpt><trkpt lat="43.4031173" lon="12.2342746"><ele>273.0</ele><time>2026-05-02T09:48:51.754Z</time></trkpt><trkpt lat="43.4029021" lon="12.2343098"><ele>273.0</ele><time>2026-05-02T09:48:52.76Z</time></trkpt><trkpt lat="43.4026819" lon="12.2343544"><ele>274.0</ele><time>2026-05-02T09:48:53.755Z</time></trkpt><trkpt lat="43.4024588" lon="12.2344026"><ele>275.0</ele><time>2026-05-02T09:48:54.77Z</time></trkpt><trkpt lat="43.4022338" lon="12.2344504"><ele>277.5</ele><time>2026-05-02T09:48:55.764Z</time></trkpt><trkpt lat="43.402006" lon="12.2345049"><ele>280.0</ele><time>2026-05-02T09:48:56.75Z</time></trkpt><trkpt lat="43.4017765" lon="12.2345677"><ele>280.0</ele><time>2026-05-02T09:48:57.758Z</time></trkpt><trkpt lat="43.401548" lon="12.2346424"><ele>280.0</ele><time>2026-05-02T09:48:58.775Z</time></trkpt><trkpt lat="43.4013268" lon="12.234717"><ele>279.0</ele><time>2026-05-02T09:48:59.749Z</time></trkpt><trkpt lat="43.4011219" lon="12.2347976"><ele>278.0</ele><time>2026-05-02T09:49:00.781Z</time></trkpt><trkpt lat="43.4009326" lon="12.2348818"><ele>277.0</ele><time>2026-05-02T09:49:01.759Z</time></trkpt><trkpt lat="43.4007592" lon="12.2349833"><ele>277.0</ele><time>2026-05-02T09:49:02.749Z</time></trkpt><trkpt lat="43.4005962" lon="12.2351029"><ele>277.0</ele><time>2026-05-02T09:49:03.745Z</time></trkpt><trkpt lat="43.4004393" lon="12.2352299"><ele>277.0</ele><time>2026-05-02T09:49:04.756Z</time></trkpt><trkpt lat="43.4002909" lon="12.2353516"><ele>275.66666666666663</ele><time>2026-05-02T09:49:05.749Z</time></trkpt><trkpt lat="43.4001528" lon="12.2354659"><ele>274.3333333333333</ele><time>2026-05-02T09:49:06.76Z</time></trkpt><trkpt lat="43.4000158" lon="12.2355775"><ele>273.0</ele><time>2026-05-02T09:49:07.747Z</time></trkpt><trkpt lat="43.3998777" lon="12.2356913"><ele>273.0</ele><time>2026-05-02T09:49:08.762Z</time></trkpt><trkpt lat="43.3997437" lon="12.2357966"><ele>273.0</ele><time>2026-05-02T09:49:09.752Z</time></trkpt><trkpt lat="43.3996125" lon="12.2358846"><ele>273.0</ele><time>2026-05-02T09:49:10.754Z</time></trkpt><trkpt lat="43.399498" lon="12.2359629"><ele>273.0</ele><time>2026-05-02T09:49:11.75Z</time></trkpt><trkpt lat="43.3994016" lon="12.2360182"><ele>274.1666666666667</ele><time>2026-05-02T09:49:12.76Z</time></trkpt><trkpt lat="43.3993135" lon="12.2360307"><ele>275.3333333333333</ele><time>2026-05-02T09:49:13.756Z</time></trkpt><trkpt lat="43.3992317" lon="12.2360065"><ele>276.5</ele><time>2026-05-02T09:49:14.771Z</time></trkpt><trkpt lat="43.3991587" lon="12.235966"><ele>277.66666666666663</ele><time>2026-05-02T09:49:15.747Z</time></trkpt><trkpt lat="43.3990922" lon="12.2359373"><ele>278.8333333333333</ele><time>2026-05-02T09:49:16.772Z</time></trkpt><trkpt lat="43.3990295" lon="12.2359164"><ele>280.0</ele><time>2026-05-02T09:49:17.75Z</time></trkpt><trkpt lat="43.3989612" lon="12.235908"><ele>280.0</ele><time>2026-05-02T09:49:18.745Z</time></trkpt><trkpt lat="43.3988913" lon="12.2358945"><ele>280.0</ele><time>2026-05-02T09:49:19.752Z</time></trkpt><trkpt lat="43.398774" lon="12.2358924"><ele>280.0</ele><time>2026-05-02T09:49:21.752Z</time></trkpt><trkpt lat="43.3986411" lon="12.235881"><ele>280.0</ele><time>2026-05-02T09:49:23.751Z</time></trkpt><trkpt lat="43.39856" lon="12.2358841"><ele>280.0</ele><time>2026-05-02T09:49:24.752Z</time></trkpt><trkpt lat="43.3984686" lon="12.2358885"><ele>279.6</ele><time>2026-05-02T09:49:25.751Z</time></trkpt><trkpt lat="43.3983757" lon="12.2359135"><ele>279.2</ele><time>2026-05-02T09:49:26.742Z</time></trkpt><trkpt lat="43.3982793" lon="12.2359597"><ele>278.8</ele><time>2026-05-02T09:49:27.743Z</time></trkpt><trkpt lat="43.3981769" lon="12.2359989"><ele>278.4</ele><time>2026-05-02T09:49:28.753Z</time></trkpt><trkpt lat="43.3980671" lon="12.2360445"><ele>278.0</ele><time>2026-05-02T09:49:29.746Z</time></trkpt><trkpt lat="43.3979503" lon="12.2360802"><ele>276.75</ele><time>2026-05-02T09:49:30.762Z</time></trkpt><trkpt lat="43.3978272" lon="12.2361146"><ele>275.5</ele><time>2026-05-02T09:49:31.755Z</time></trkpt><trkpt lat="43.3977061" lon="12.2361299"><ele>274.25</ele><time>2026-05-02T09:49:32.754Z</time></trkpt><trkpt lat="43.3975954" lon="12.2361427"><ele>273.0</ele><time>2026-05-02T09:49:33.753Z</time></trkpt><trkpt lat="43.3974846" lon="12.2361553"><ele>273.0</ele><time>2026-05-02T09:49:34.755Z</time></trkpt><trkpt lat="43.3973642" lon="12.2361573"><ele>273.0</ele><time>2026-05-02T09:49:35.748Z</time></trkpt><trkpt lat="43.3972303" lon="12.2361574"><ele>273.0</ele><time>2026-05-02T09:49:36.757Z</time></trkpt><trkpt lat="43.3970846" lon="12.2361581"><ele>273.0</ele><time>2026-05-02T09:49:37.753Z</time></trkpt><trkpt lat="43.3969315" lon="12.2361707"><ele>272.3333333333333</ele><time>2026-05-02T09:49:38.754Z</time></trkpt><trkpt lat="43.3967723" lon="12.2361794"><ele>271.66666666666663</ele><time>2026-05-02T09:49:39.761Z</time></trkpt><trkpt lat="43.3966032" lon="12.2361853"><ele>271.0</ele><time>2026-05-02T09:49:40.764Z</time></trkpt><trkpt lat="43.3964236" lon="12.2361911"><ele>270.0</ele><time>2026-05-02T09:49:41.759Z</time></trkpt><trkpt lat="43.3962395" lon="12.2361969"><ele>269.0</ele><time>2026-05-02T09:49:42.761Z</time></trkpt><trkpt lat="43.3960545" lon="12.2362047"><ele>268.0</ele><time>2026-05-02T09:49:43.753Z</time></trkpt><trkpt lat="43.3958676" lon="12.2362158"><ele>268.0</ele><time>2026-05-02T09:49:44.763Z</time></trkpt><trkpt lat="43.3956832" lon="12.2362263"><ele>268.0</ele><time>2026-05-02T09:49:45.76Z</time></trkpt><trkpt lat="43.3955006" lon="12.236227"><ele>268.0</ele><time>2026-05-02T09:49:46.746Z</time></trkpt><trkpt lat="43.3953234" lon="12.2362265"><ele>268.0</ele><time>2026-05-02T09:49:47.764Z</time></trkpt><trkpt lat="43.3951462" lon="12.2362312"><ele>268.0</ele><time>2026-05-02T09:49:48.734Z</time></trkpt><trkpt lat="43.3949732" lon="12.2362395"><ele>268.0</ele><time>2026-05-02T09:49:49.758Z</time></trkpt><trkpt lat="43.3948006" lon="12.2362484"><ele>269.0</ele><time>2026-05-02T09:49:50.748Z</time></trkpt><trkpt lat="43.3946271" lon="12.2362589"><ele>270.0</ele><time>2026-05-02T09:49:51.754Z</time></trkpt><trkpt lat="43.3944505" lon="12.2362633"><ele>271.0</ele><time>2026-05-02T09:49:52.756Z</time></trkpt><trkpt lat="43.3942728" lon="12.2362707"><ele>271.0</ele><time>2026-05-02T09:49:53.755Z</time></trkpt><trkpt lat="43.3940953" lon="12.2363001"><ele>271.0</ele><time>2026-05-02T09:49:54.762Z</time></trkpt><trkpt lat="43.3939292" lon="12.2363612"><ele>271.0</ele><time>2026-05-02T09:49:55.755Z</time></trkpt><trkpt lat="43.3937735" lon="12.2364788"><ele>273.0</ele><time>2026-05-02T09:49:56.752Z</time></trkpt><trkpt lat="43.3936249" lon="12.236613"><ele>275.0</ele><time>2026-05-02T09:49:57.75Z</time></trkpt><trkpt lat="43.3934796" lon="12.2367482"><ele>277.0</ele><time>2026-05-02T09:49:58.749Z</time></trkpt><trkpt lat="43.393335" lon="12.2368755"><ele>277.0</ele><time>2026-05-02T09:49:59.749Z</time></trkpt><trkpt lat="43.3931875" lon="12.2369942"><ele>277.0</ele><time>2026-05-02T09:50:00.754Z</time></trkpt><trkpt lat="43.3930373" lon="12.2371181"><ele>277.0</ele><time>2026-05-02T09:50:01.756Z</time></trkpt><trkpt lat="43.392886" lon="12.2372473"><ele>276.3333333333333</ele><time>2026-05-02T09:50:02.748Z</time></trkpt><trkpt lat="43.392731" lon="12.2373794"><ele>275.6666666666667</ele><time>2026-05-02T09:50:03.75Z</time></trkpt><trkpt lat="43.3925754" lon="12.237516"><ele>275.0</ele><time>2026-05-02T09:50:04.758Z</time></trkpt><trkpt lat="43.3924157" lon="12.2376475"><ele>275.0</ele><time>2026-05-02T09:50:05.761Z</time></trkpt><trkpt lat="43.3922585" lon="12.2377765"><ele>275.0</ele><time>2026-05-02T09:50:06.759Z</time></trkpt><trkpt lat="43.3920942" lon="12.2378798"><ele>275.0</ele><time>2026-05-02T09:50:07.759Z</time></trkpt><trkpt lat="43.3919206" lon="12.237947"><ele>276.6666666666667</ele><time>2026-05-02T09:50:08.759Z</time></trkpt><trkpt lat="43.3917328" lon="12.2379754"><ele>278.3333333333333</ele><time>2026-05-02T09:50:09.75Z</time></trkpt><trkpt lat="43.3915388" lon="12.2379853"><ele>280.0</ele><time>2026-05-02T09:50:10.762Z</time></trkpt><trkpt lat="43.3913319" lon="12.2379821"><ele>280.0</ele><time>2026-05-02T09:50:11.75Z</time></trkpt><trkpt lat="43.391105" lon="12.2379747"><ele>280.0</ele><time>2026-05-02T09:50:12.757Z</time></trkpt><trkpt lat="43.3908544" lon="12.2379662"><ele>280.0</ele><time>2026-05-02T09:50:13.754Z</time></trkpt><trkpt lat="43.3905968" lon="12.2379583"><ele>280.0</ele><time>2026-05-02T09:50:14.771Z</time></trkpt><trkpt lat="43.3903483" lon="12.2379409"><ele>278.0</ele><time>2026-05-02T09:50:15.753Z</time></trkpt><trkpt lat="43.3901052" lon="12.2379125"><ele>276.0</ele><time>2026-05-02T09:50:16.752Z</time></trkpt><trkpt lat="43.3898677" lon="12.2378842"><ele>278.6666666666667</ele><time>2026-05-02T09:50:17.751Z</time></trkpt><trkpt lat="43.3896408" lon="12.2378566"><ele>281.33333333333337</ele><time>2026-05-02T09:50:18.76Z</time></trkpt><trkpt lat="43.3894306" lon="12.2378549"><ele>284.0</ele><time>2026-05-02T09:50:19.752Z</time></trkpt><trkpt lat="43.3892396" lon="12.2378957"><ele>284.0</ele><time>2026-05-02T09:50:20.758Z</time></trkpt><trkpt lat="43.3890513" lon="12.2379804"><ele>284.0</ele><time>2026-05-02T09:50:21.748Z</time></trkpt><trkpt lat="43.388862" lon="12.2380939"><ele>284.0</ele><time>2026-05-02T09:50:22.777Z</time></trkpt><trkpt lat="43.3886677" lon="12.2382135"><ele>279.6666666666667</ele><time>2026-05-02T09:50:23.761Z</time></trkpt><trkpt lat="43.3884728" lon="12.2383374"><ele>275.3333333333333</ele><time>2026-05-02T09:50:24.759Z</time></trkpt><trkpt lat="43.3882734" lon="12.2384555"><ele>271.0</ele><time>2026-05-02T09:50:25.753Z</time></trkpt><trkpt lat="43.3880698" lon="12.2385716"><ele>272.3333333333333</ele><time>2026-05-02T09:50:26.761Z</time></trkpt><trkpt lat="43.3878698" lon="12.2386814"><ele>273.6666666666667</ele><time>2026-05-02T09:50:27.766Z</time></trkpt><trkpt lat="43.3876798" lon="12.2387952"><ele>275.0</ele><time>2026-05-02T09:50:28.766Z</time></trkpt><trkpt lat="43.3874995" lon="12.238898"><ele>272.33333333333337</ele><time>2026-05-02T09:50:29.751Z</time></trkpt><trkpt lat="43.3873358" lon="12.2390023"><ele>269.6666666666667</ele><time>2026-05-02T09:50:30.78Z</time></trkpt><trkpt lat="43.3871709" lon="12.2390783"><ele>267.0</ele><time>2026-05-02T09:50:31.766Z</time></trkpt><trkpt lat="43.3869979" lon="12.2391172"><ele>267.0</ele><time>2026-05-02T09:50:32.767Z</time></trkpt><trkpt lat="43.3868172" lon="12.2391041"><ele>267.0</ele><time>2026-05-02T09:50:33.764Z</time></trkpt><trkpt lat="43.3866317" lon="12.2390429"><ele>267.0</ele><time>2026-05-02T09:50:34.757Z</time></trkpt><trkpt lat="43.3864428" lon="12.2389637"><ele>270.3333333333333</ele><time>2026-05-02T09:50:35.769Z</time></trkpt><trkpt lat="43.3862466" lon="12.2388963"><ele>273.66666666666663</ele><time>2026-05-02T09:50:36.761Z</time></trkpt><trkpt lat="43.3860368" lon="12.2388485"><ele>277.0</ele><time>2026-05-02T09:50:37.761Z</time></trkpt><trkpt lat="43.385819" lon="12.2388337"><ele>277.0</ele><time>2026-05-02T09:50:38.752Z</time></trkpt><trkpt lat="43.3855976" lon="12.23885"><ele>277.0</ele><time>2026-05-02T09:50:39.758Z</time></trkpt><trkpt lat="43.3853777" lon="12.2388702"><ele>277.0</ele><time>2026-05-02T09:50:40.774Z</time></trkpt><trkpt lat="43.3851533" lon="12.2388605"><ele>275.0</ele><time>2026-05-02T09:50:41.761Z</time></trkpt><trkpt lat="43.3849301" lon="12.2388081"><ele>273.0</ele><time>2026-05-02T09:50:42.762Z</time></trkpt><trkpt lat="43.3847062" lon="12.2387325"><ele>272.0</ele><time>2026-05-02T09:50:43.77Z</time></trkpt><trkpt lat="43.3844774" lon="12.2386539"><ele>271.0</ele><time>2026-05-02T09:50:44.771Z</time></trkpt><trkpt lat="43.3842431" lon="12.238589"><ele>271.0</ele><time>2026-05-02T09:50:45.763Z</time></trkpt><trkpt lat="43.3840184" lon="12.2385268"><ele>271.0</ele><time>2026-05-02T09:50:46.754Z</time></trkpt><trkpt lat="43.3837944" lon="12.2384602"><ele>270.66666666666663</ele><time>2026-05-02T09:50:47.763Z</time></trkpt><trkpt lat="43.383576" lon="12.2383937"><ele>270.3333333333333</ele><time>2026-05-02T09:50:48.763Z</time></trkpt><trkpt lat="43.383364" lon="12.2383297"><ele>270.0</ele><time>2026-05-02T09:50:49.763Z</time></trkpt><trkpt lat="43.3831586" lon="12.2382753"><ele>271.3333333333333</ele><time>2026-05-02T09:50:50.758Z</time></trkpt><trkpt lat="43.3829534" lon="12.2382433"><ele>272.66666666666663</ele><time>2026-05-02T09:50:51.767Z</time></trkpt><trkpt lat="43.3827464" lon="12.2382337"><ele>274.0</ele><time>2026-05-02T09:50:52.764Z</time></trkpt><trkpt lat="43.3825426" lon="12.2382397"><ele>274.0</ele><time>2026-05-02T09:50:53.759Z</time></trkpt><trkpt lat="43.3823355" lon="12.2382462"><ele>274.0</ele><time>2026-05-02T09:50:54.766Z</time></trkpt><trkpt lat="43.3821231" lon="12.2382484"><ele>274.0</ele><time>2026-05-02T09:50:55.773Z</time></trkpt><trkpt lat="43.3819103" lon="12.238238"><ele>272.66666666666663</ele><time>2026-05-02T09:50:56.75Z</time></trkpt><trkpt lat="43.3817068" lon="12.2382141"><ele>271.3333333333333</ele><time>2026-05-02T09:50:57.763Z</time></trkpt><trkpt lat="43.3815146" lon="12.2381768"><ele>270.0</ele><time>2026-05-02T09:50:58.743Z</time></trkpt><trkpt lat="43.3813288" lon="12.2381394"><ele>271.0</ele><time>2026-05-02T09:50:59.762Z</time></trkpt><trkpt lat="43.3811431" lon="12.2381111"><ele>272.0</ele><time>2026-05-02T09:51:00.751Z</time></trkpt><trkpt lat="43.3809623" lon="12.2380806"><ele>273.0</ele><time>2026-05-02T09:51:01.754Z</time></trkpt><trkpt lat="43.3807938" lon="12.2380508"><ele>273.0</ele><time>2026-05-02T09:51:02.751Z</time></trkpt><trkpt lat="43.3806367" lon="12.2380235"><ele>273.0</ele><time>2026-05-02T09:51:03.757Z</time></trkpt><trkpt lat="43.3804878" lon="12.237994"><ele>273.0</ele><time>2026-05-02T09:51:04.755Z</time></trkpt><trkpt lat="43.3803387" lon="12.2379702"><ele>272.75</ele><time>2026-05-02T09:51:05.752Z</time></trkpt><trkpt lat="43.3801908" lon="12.2379433"><ele>272.5</ele><time>2026-05-02T09:51:06.769Z</time></trkpt><trkpt lat="43.3800513" lon="12.237906"><ele>272.25</ele><time>2026-05-02T09:51:07.76Z</time></trkpt><trkpt lat="43.3799169" lon="12.237869"><ele>272.0</ele><time>2026-05-02T09:51:08.753Z</time></trkpt><trkpt lat="43.3797836" lon="12.2378426"><ele>271.25</ele><time>2026-05-02T09:51:09.749Z</time></trkpt><trkpt lat="43.3796492" lon="12.237823"><ele>270.5</ele><time>2026-05-02T09:51:10.757Z</time></trkpt><trkpt lat="43.3795132" lon="12.2378028"><ele>269.75</ele><time>2026-05-02T09:51:11.76Z</time></trkpt><trkpt lat="43.3793765" lon="12.2377757"><ele>269.0</ele><time>2026-05-02T09:51:12.747Z</time></trkpt><trkpt lat="43.3792356" lon="12.2377464"><ele>269.0</ele><time>2026-05-02T09:51:13.756Z</time></trkpt><trkpt lat="43.3790881" lon="12.2377174"><ele>269.0</ele><time>2026-05-02T09:51:14.754Z</time></trkpt><trkpt lat="43.3789324" lon="12.2376849"><ele>269.0</ele><time>2026-05-02T09:51:15.768Z</time></trkpt><trkpt lat="43.3787712" lon="12.2376578"><ele>268.33333333333337</ele><time>2026-05-02T09:51:16.76Z</time></trkpt><trkpt lat="43.3786102" lon="12.237633"><ele>267.6666666666667</ele><time>2026-05-02T09:51:17.761Z</time></trkpt><trkpt lat="43.3784505" lon="12.2376082"><ele>267.0</ele><time>2026-05-02T09:51:18.768Z</time></trkpt><trkpt lat="43.3782935" lon="12.2375822"><ele>267.0</ele><time>2026-05-02T09:51:19.752Z</time></trkpt><trkpt lat="43.3781359" lon="12.237556"><ele>267.0</ele><time>2026-05-02T09:51:20.757Z</time></trkpt><trkpt lat="43.3779791" lon="12.2375287"><ele>267.0</ele><time>2026-05-02T09:51:21.755Z</time></trkpt><trkpt lat="43.3778206" lon="12.2374994"><ele>266.3333333333333</ele><time>2026-05-02T09:51:22.771Z</time></trkpt><trkpt lat="43.3776621" lon="12.2374751"><ele>265.66666666666663</ele><time>2026-05-02T09:51:23.755Z</time></trkpt><trkpt lat="43.3775034" lon="12.2374495"><ele>265.0</ele><time>2026-05-02T09:51:24.765Z</time></trkpt><trkpt lat="43.3773519" lon="12.2374203"><ele>265.0</ele><time>2026-05-02T09:51:25.759Z</time></trkpt><trkpt lat="43.377206" lon="12.2373946"><ele>265.0</ele><time>2026-05-02T09:51:26.747Z</time></trkpt><trkpt lat="43.377057" lon="12.2373737"><ele>265.0</ele><time>2026-05-02T09:51:27.759Z</time></trkpt><trkpt lat="43.3769061" lon="12.2373591"><ele>265.0</ele><time>2026-05-02T09:51:28.754Z</time></trkpt><trkpt lat="43.3767628" lon="12.2373661"><ele>266.0</ele><time>2026-05-02T09:51:29.759Z</time></trkpt><trkpt lat="43.3766262" lon="12.2374085"><ele>267.0</ele><time>2026-05-02T09:51:30.76Z</time></trkpt><trkpt lat="43.3764779" lon="12.237505"><ele>268.0</ele><time>2026-05-02T09:51:31.749Z</time></trkpt><trkpt lat="43.3763204" lon="12.237653"><ele>267.66666666666663</ele><time>2026-05-02T09:51:32.753Z</time></trkpt><trkpt lat="43.3761568" lon="12.2378303"><ele>267.3333333333333</ele><time>2026-05-02T09:51:33.759Z</time></trkpt><trkpt lat="43.3759701" lon="12.2380219"><ele>267.0</ele><time>2026-05-02T09:51:34.755Z</time></trkpt><trkpt lat="43.3757635" lon="12.2382062"><ele>267.0</ele><time>2026-05-02T09:51:35.752Z</time></trkpt><trkpt lat="43.375564" lon="12.2383588"><ele>267.0</ele><time>2026-05-02T09:51:36.766Z</time></trkpt><trkpt lat="43.3753885" lon="12.2384937"><ele>267.0</ele><time>2026-05-02T09:51:37.755Z</time></trkpt><trkpt lat="43.3752329" lon="12.238623"><ele>264.6666666666667</ele><time>2026-05-02T09:51:38.764Z</time></trkpt><trkpt lat="43.3750834" lon="12.2387534"><ele>262.33333333333337</ele><time>2026-05-02T09:51:39.748Z</time></trkpt><trkpt lat="43.3749144" lon="12.2388754"><ele>260.0</ele><time>2026-05-02T09:51:40.747Z</time></trkpt><trkpt lat="43.3747185" lon="12.238997"><ele>264.33333333333337</ele><time>2026-05-02T09:51:41.762Z</time></trkpt><trkpt lat="43.3745092" lon="12.239101"><ele>268.6666666666667</ele><time>2026-05-02T09:51:42.774Z</time></trkpt><trkpt lat="43.3743005" lon="12.2391925"><ele>273.0</ele><time>2026-05-02T09:51:43.769Z</time></trkpt><trkpt lat="43.374085" lon="12.2392927"><ele>273.0</ele><time>2026-05-02T09:51:44.762Z</time></trkpt><trkpt lat="43.3738701" lon="12.2394028"><ele>273.0</ele><time>2026-05-02T09:51:45.762Z</time></trkpt><trkpt lat="43.3736617" lon="12.2395111"><ele>278.3333333333333</ele><time>2026-05-02T09:51:46.753Z</time></trkpt><trkpt lat="43.373456" lon="12.2396156"><ele>283.66666666666663</ele><time>2026-05-02T09:51:47.749Z</time></trkpt><trkpt lat="43.3732521" lon="12.2397001"><ele>289.0</ele><time>2026-05-02T09:51:48.768Z</time></trkpt><trkpt lat="43.3730494" lon="12.2397583"><ele>289.0</ele><time>2026-05-02T09:51:49.747Z</time></trkpt><trkpt lat="43.3728443" lon="12.2397887"><ele>289.0</ele><time>2026-05-02T09:51:50.766Z</time></trkpt><trkpt lat="43.372638" lon="12.2397868"><ele>289.0</ele><time>2026-05-02T09:51:51.754Z</time></trkpt><trkpt lat="43.3724331" lon="12.2397543"><ele>289.0</ele><time>2026-05-02T09:51:52.767Z</time></trkpt><trkpt lat="43.3722394" lon="12.2396894"><ele>289.0</ele><time>2026-05-02T09:51:53.751Z</time></trkpt><trkpt lat="43.3720508" lon="12.2396102"><ele>289.0</ele><time>2026-05-02T09:51:54.757Z</time></trkpt><trkpt lat="43.3718809" lon="12.2395327"><ele>285.75</ele><time>2026-05-02T09:51:55.743Z</time></trkpt><trkpt lat="43.3717323" lon="12.239459"><ele>282.5</ele><time>2026-05-02T09:51:56.746Z</time></trkpt><trkpt lat="43.3715942" lon="12.2393879"><ele>279.25</ele><time>2026-05-02T09:51:57.755Z</time></trkpt><trkpt lat="43.3714718" lon="12.2393187"><ele>276.0</ele><time>2026-05-02T09:51:58.746Z</time></trkpt><trkpt lat="43.3713599" lon="12.2392586"><ele>275.8</ele><time>2026-05-02T09:51:59.752Z</time></trkpt><trkpt lat="43.371265" lon="12.2391967"><ele>275.6</ele><time>2026-05-02T09:52:00.759Z</time></trkpt><trkpt lat="43.3711785" lon="12.2391461"><ele>275.4</ele><time>2026-05-02T09:52:01.749Z</time></trkpt><trkpt lat="43.3710871" lon="12.2390852"><ele>275.2</ele><time>2026-05-02T09:52:02.747Z</time></trkpt><trkpt lat="43.3709877" lon="12.2390088"><ele>275.0</ele><time>2026-05-02T09:52:03.751Z</time></trkpt><trkpt lat="43.3708851" lon="12.238927"><ele>275.0</ele><time>2026-05-02T09:52:04.749Z</time></trkpt><trkpt lat="43.3707881" lon="12.2388331"><ele>275.0</ele><time>2026-05-02T09:52:05.744Z</time></trkpt><trkpt lat="43.3707014" lon="12.2387332"><ele>275.0</ele><time>2026-05-02T09:52:06.76Z</time></trkpt><trkpt lat="43.3706207" lon="12.2386265"><ele>275.0</ele><time>2026-05-02T09:52:07.751Z</time></trkpt><trkpt lat="43.370547" lon="12.2385216"><ele>274.5</ele><time>2026-05-02T09:52:08.748Z</time></trkpt><trkpt lat="43.3704912" lon="12.2384311"><ele>274.0</ele><time>2026-05-02T09:52:09.748Z</time></trkpt><trkpt lat="43.3704518" lon="12.2383516"><ele>273.5</ele><time>2026-05-02T09:52:10.749Z</time></trkpt><trkpt lat="43.3704143" lon="12.2382775"><ele>273.0</ele><time>2026-05-02T09:52:11.754Z</time></trkpt><trkpt lat="43.3703741" lon="12.2381921"><ele>272.5</ele><time>2026-05-02T09:52:12.756Z</time></trkpt><trkpt lat="43.370333" lon="12.2380891"><ele>272.0</ele><time>2026-05-02T09:52:13.758Z</time></trkpt><trkpt lat="43.3702903" lon="12.2379773"><ele>272.0</ele><time>2026-05-02T09:52:14.75Z</time></trkpt><trkpt lat="43.3702396" lon="12.2378592"><ele>272.0</ele><time>2026-05-02T09:52:15.75Z</time></trkpt><trkpt lat="43.3701856" lon="12.2377405"><ele>272.0</ele><time>2026-05-02T09:52:16.758Z</time></trkpt><trkpt lat="43.3701291" lon="12.2376184"><ele>272.0</ele><time>2026-05-02T09:52:17.759Z</time></trkpt><trkpt lat="43.3700687" lon="12.2374972"><ele>272.0</ele><time>2026-05-02T09:52:18.767Z</time></trkpt><trkpt lat="43.3700154" lon="12.2373731"><ele>272.4</ele><time>2026-05-02T09:52:19.766Z</time></trkpt><trkpt lat="43.3699669" lon="12.2372427"><ele>272.79999999999995</ele><time>2026-05-02T09:52:20.748Z</time></trkpt><trkpt lat="43.3699184" lon="12.2371132"><ele>273.2</ele><time>2026-05-02T09:52:21.761Z</time></trkpt><trkpt lat="43.3698654" lon="12.2369849"><ele>273.59999999999997</ele><time>2026-05-02T09:52:22.751Z</time></trkpt><trkpt lat="43.3698164" lon="12.2368532"><ele>274.0</ele><time>2026-05-02T09:52:23.759Z</time></trkpt><trkpt lat="43.3697761" lon="12.23672"><ele>274.0</ele><time>2026-05-02T09:52:24.754Z</time></trkpt><trkpt lat="43.3697434" lon="12.2365953"><ele>274.0</ele><time>2026-05-02T09:52:25.761Z</time></trkpt><trkpt lat="43.3697176" lon="12.2364793"><ele>274.0</ele><time>2026-05-02T09:52:26.744Z</time></trkpt><trkpt lat="43.3696977" lon="12.2363679"><ele>274.0</ele><time>2026-05-02T09:52:27.759Z</time></trkpt><trkpt lat="43.3696761" lon="12.2362566"><ele>274.0</ele><time>2026-05-02T09:52:28.744Z</time></trkpt><trkpt lat="43.3696505" lon="12.2361354"><ele>274.0</ele><time>2026-05-02T09:52:29.761Z</time></trkpt><trkpt lat="43.3696256" lon="12.2360055"><ele>273.8</ele><time>2026-05-02T09:52:30.757Z</time></trkpt><trkpt lat="43.369604" lon="12.2358789"><ele>273.59999999999997</ele><time>2026-05-02T09:52:31.751Z</time></trkpt><trkpt lat="43.3695809" lon="12.2357476"><ele>273.4</ele><time>2026-05-02T09:52:32.759Z</time></trkpt><trkpt lat="43.3695563" lon="12.2356106"><ele>273.2</ele><time>2026-05-02T09:52:33.747Z</time></trkpt><trkpt lat="43.3695326" lon="12.2354648"><ele>273.0</ele><time>2026-05-02T09:52:34.76Z</time></trkpt><trkpt lat="43.3695026" lon="12.2353058"><ele>273.0</ele><time>2026-05-02T09:52:35.746Z</time></trkpt><trkpt lat="43.3694729" lon="12.2351407"><ele>273.0</ele><time>2026-05-02T09:52:36.747Z</time></trkpt><trkpt lat="43.3694431" lon="12.2349685"><ele>273.0</ele><time>2026-05-02T09:52:37.745Z</time></trkpt><trkpt lat="43.369413" lon="12.2347934"><ele>273.0</ele><time>2026-05-02T09:52:38.754Z</time></trkpt><trkpt lat="43.3693725" lon="12.2346129"><ele>274.0</ele><time>2026-05-02T09:52:39.752Z</time></trkpt><trkpt lat="43.3693236" lon="12.2344269"><ele>275.0</ele><time>2026-05-02T09:52:40.75Z</time></trkpt><trkpt lat="43.3692551" lon="12.2342469"><ele>276.0</ele><time>2026-05-02T09:52:41.751Z</time></trkpt><trkpt lat="43.3691645" lon="12.2340623"><ele>277.0</ele><time>2026-05-02T09:52:42.763Z</time></trkpt><trkpt lat="43.3690555" lon="12.2338813"><ele>278.0</ele><time>2026-05-02T09:52:43.762Z</time></trkpt><trkpt lat="43.3689412" lon="12.2336919"><ele>279.0</ele><time>2026-05-02T09:52:44.746Z</time></trkpt><trkpt lat="43.3688251" lon="12.2335008"><ele>277.6666666666667</ele><time>2026-05-02T09:52:45.757Z</time></trkpt><trkpt lat="43.3687051" lon="12.2333115"><ele>276.33333333333337</ele><time>2026-05-02T09:52:46.754Z</time></trkpt><trkpt lat="43.3685904" lon="12.2331247"><ele>275.0</ele><time>2026-05-02T09:52:47.752Z</time></trkpt><trkpt lat="43.3684852" lon="12.232946"><ele>275.0</ele><time>2026-05-02T09:52:48.76Z</time></trkpt><trkpt lat="43.3683825" lon="12.2327686"><ele>275.0</ele><time>2026-05-02T09:52:49.76Z</time></trkpt><trkpt lat="43.3682848" lon="12.2325859"><ele>275.0</ele><time>2026-05-02T09:52:50.755Z</time></trkpt><trkpt lat="43.3681932" lon="12.2323983"><ele>275.33333333333337</ele><time>2026-05-02T09:52:51.746Z</time></trkpt><trkpt lat="43.3681183" lon="12.2322078"><ele>275.6666666666667</ele><time>2026-05-02T09:52:52.762Z</time></trkpt><trkpt lat="43.3680557" lon="12.2320202"><ele>276.0</ele><time>2026-05-02T09:52:53.75Z</time></trkpt><trkpt lat="43.368004" lon="12.2318226"><ele>273.75</ele><time>2026-05-02T09:52:54.764Z</time></trkpt><trkpt lat="43.367958" lon="12.2316287"><ele>271.5</ele><time>2026-05-02T09:52:55.763Z</time></trkpt><trkpt lat="43.3679215" lon="12.2314505"><ele>269.25</ele><time>2026-05-02T09:52:56.764Z</time></trkpt><trkpt lat="43.3678943" lon="12.2312816"><ele>267.0</ele><time>2026-05-02T09:52:57.758Z</time></trkpt><trkpt lat="43.3678661" lon="12.2311248"><ele>267.0</ele><time>2026-05-02T09:52:58.751Z</time></trkpt><trkpt lat="43.367838" lon="12.2309662"><ele>267.0</ele><time>2026-05-02T09:52:59.753Z</time></trkpt><trkpt lat="43.3678058" lon="12.2308057"><ele>267.0</ele><time>2026-05-02T09:53:00.77Z</time></trkpt><trkpt lat="43.3677738" lon="12.230643"><ele>267.0</ele><time>2026-05-02T09:53:01.759Z</time></trkpt><trkpt lat="43.367744" lon="12.2304766"><ele>267.25</ele><time>2026-05-02T09:53:02.769Z</time></trkpt><trkpt lat="43.3677161" lon="12.2303095"><ele>267.5</ele><time>2026-05-02T09:53:03.758Z</time></trkpt><trkpt lat="43.3676896" lon="12.2301482"><ele>267.75</ele><time>2026-05-02T09:53:04.78Z</time></trkpt><trkpt lat="43.3676666" lon="12.2300015"><ele>268.0</ele><time>2026-05-02T09:53:05.749Z</time></trkpt><trkpt lat="43.3676429" lon="12.2298592"><ele>268.4</ele><time>2026-05-02T09:53:06.76Z</time></trkpt><trkpt lat="43.3676206" lon="12.2297234"><ele>268.8</ele><time>2026-05-02T09:53:07.763Z</time></trkpt><trkpt lat="43.3675988" lon="12.2295887"><ele>269.2</ele><time>2026-05-02T09:53:08.771Z</time></trkpt><trkpt lat="43.3675761" lon="12.2294463"><ele>269.6</ele><time>2026-05-02T09:53:09.759Z</time></trkpt><trkpt lat="43.3675547" lon="12.2292956"><ele>270.0</ele><time>2026-05-02T09:53:10.78Z</time></trkpt><trkpt lat="43.3675312" lon="12.229139"><ele>269.75</ele><time>2026-05-02T09:53:11.757Z</time></trkpt><trkpt lat="43.3675125" lon="12.228969"><ele>269.5</ele><time>2026-05-02T09:53:12.77Z</time></trkpt><trkpt lat="43.3674973" lon="12.2287972"><ele>269.25</ele><time>2026-05-02T09:53:13.767Z</time></trkpt><trkpt lat="43.3674878" lon="12.2286202"><ele>269.0</ele><time>2026-05-02T09:53:14.786Z</time></trkpt><trkpt lat="43.3674759" lon="12.2284388"><ele>269.0</ele><time>2026-05-02T09:53:15.749Z</time></trkpt><trkpt lat="43.3674711" lon="12.228267"><ele>269.0</ele><time>2026-05-02T09:53:16.77Z</time></trkpt><trkpt lat="43.3674734" lon="12.2281121"><ele>269.0</ele><time>2026-05-02T09:53:17.766Z</time></trkpt><trkpt lat="43.3674757" lon="12.2279755"><ele>269.0</ele><time>2026-05-02T09:53:18.771Z</time></trkpt><trkpt lat="43.3674761" lon="12.2278441"><ele>269.0</ele><time>2026-05-02T09:53:19.756Z</time></trkpt><trkpt lat="43.3674781" lon="12.2277102"><ele>269.0</ele><time>2026-05-02T09:53:20.759Z</time></trkpt><trkpt lat="43.3674797" lon="12.2275597"><ele>269.0</ele><time>2026-05-02T09:53:21.766Z</time></trkpt><trkpt lat="43.3674788" lon="12.2274008"><ele>269.0</ele><time>2026-05-02T09:53:22.776Z</time></trkpt><trkpt lat="43.3674736" lon="12.2272279"><ele>269.0</ele><time>2026-05-02T09:53:23.757Z</time></trkpt><trkpt lat="43.3674587" lon="12.2270451"><ele>268.75</ele><time>2026-05-02T09:53:24.76Z</time></trkpt><trkpt lat="43.3674309" lon="12.2268568"><ele>268.5</ele><time>2026-05-02T09:53:25.76Z</time></trkpt><trkpt lat="43.3673876" lon="12.2266793"><ele>268.25</ele><time>2026-05-02T09:53:26.766Z</time></trkpt><trkpt lat="43.3673387" lon="12.2265195"><ele>268.0</ele><time>2026-05-02T09:53:27.762Z</time></trkpt><trkpt lat="43.3672887" lon="12.2263831"><ele>267.8</ele><time>2026-05-02T09:53:28.758Z</time></trkpt><trkpt lat="43.3672406" lon="12.2262644"><ele>267.6</ele><time>2026-05-02T09:53:29.761Z</time></trkpt><trkpt lat="43.3671947" lon="12.2261563"><ele>267.4</ele><time>2026-05-02T09:53:30.754Z</time></trkpt><trkpt lat="43.3671529" lon="12.2260624"><ele>267.2</ele><time>2026-05-02T09:53:31.754Z</time></trkpt><trkpt lat="43.3671146" lon="12.2259816"><ele>267.0</ele><time>2026-05-02T09:53:32.757Z</time></trkpt><trkpt lat="43.3670358" lon="12.2258683"><ele>266.6</ele><time>2026-05-02T09:53:34.761Z</time></trkpt><trkpt lat="43.3669201" lon="12.2258717"><ele>266.2</ele><time>2026-05-02T09:53:36.764Z</time></trkpt><trkpt lat="43.3668484" lon="12.2259316"><ele>265.8</ele><time>2026-05-02T09:53:37.755Z</time></trkpt><trkpt lat="43.3667536" lon="12.2260041"><ele>265.4</ele><time>2026-05-02T09:53:38.757Z</time></trkpt><trkpt lat="43.3666404" lon="12.2260807"><ele>265.0</ele><time>2026-05-02T09:53:39.753Z</time></trkpt><trkpt lat="43.366512" lon="12.2261499"><ele>265.0</ele><time>2026-05-02T09:53:40.749Z</time></trkpt><trkpt lat="43.3663838" lon="12.2262194"><ele>265.0</ele><time>2026-05-02T09:53:41.749Z</time></trkpt><trkpt lat="43.3662592" lon="12.226295"><ele>265.0</ele><time>2026-05-02T09:53:42.751Z</time></trkpt><trkpt lat="43.3661333" lon="12.2263704"><ele>265.0</ele><time>2026-05-02T09:53:43.756Z</time></trkpt><trkpt lat="43.3659979" lon="12.2264479"><ele>265.3333333333333</ele><time>2026-05-02T09:53:44.753Z</time></trkpt><trkpt lat="43.3658516" lon="12.2265221"><ele>265.6666666666667</ele><time>2026-05-02T09:53:45.758Z</time></trkpt><trkpt lat="43.365701" lon="12.2266037"><ele>266.0</ele><time>2026-05-02T09:53:46.753Z</time></trkpt><trkpt lat="43.3655472" lon="12.2266899"><ele>265.6666666666667</ele><time>2026-05-02T09:53:47.758Z</time></trkpt><trkpt lat="43.3653957" lon="12.2267756"><ele>265.3333333333333</ele><time>2026-05-02T09:53:48.748Z</time></trkpt><trkpt lat="43.3652468" lon="12.2268568"><ele>265.0</ele><time>2026-05-02T09:53:49.753Z</time></trkpt><trkpt lat="43.3650994" lon="12.2269402"><ele>265.0</ele><time>2026-05-02T09:53:50.747Z</time></trkpt><trkpt lat="43.3649555" lon="12.2270142"><ele>265.0</ele><time>2026-05-02T09:53:51.748Z</time></trkpt><trkpt lat="43.3648145" lon="12.2270982"><ele>265.0</ele><time>2026-05-02T09:53:52.755Z</time></trkpt><trkpt lat="43.3646742" lon="12.2271804"><ele>264.66666666666663</ele><time>2026-05-02T09:53:53.75Z</time></trkpt><trkpt lat="43.3645294" lon="12.2272621"><ele>264.3333333333333</ele><time>2026-05-02T09:53:54.755Z</time></trkpt><trkpt lat="43.3643833" lon="12.2273504"><ele>264.0</ele><time>2026-05-02T09:53:55.759Z</time></trkpt><trkpt lat="43.3642294" lon="12.2274383"><ele>263.3333333333333</ele><time>2026-05-02T09:53:56.755Z</time></trkpt><trkpt lat="43.364075" lon="12.2275192"><ele>262.66666666666663</ele><time>2026-05-02T09:53:57.76Z</time></trkpt><trkpt lat="43.3639212" lon="12.2275989"><ele>262.0</ele><time>2026-05-02T09:53:58.753Z</time></trkpt><trkpt lat="43.3637789" lon="12.2276752"><ele>261.5</ele><time>2026-05-02T09:53:59.763Z</time></trkpt><trkpt lat="43.363647" lon="12.2277483"><ele>261.0</ele><time>2026-05-02T09:54:00.75Z</time></trkpt><trkpt lat="43.3635192" lon="12.2278144"><ele>260.5</ele><time>2026-05-02T09:54:01.757Z</time></trkpt><trkpt lat="43.3633879" lon="12.2278806"><ele>260.0</ele><time>2026-05-02T09:54:02.75Z</time></trkpt><trkpt lat="43.3632543" lon="12.2279536"><ele>260.0</ele><time>2026-05-02T09:54:03.744Z</time></trkpt><trkpt lat="43.3631167" lon="12.2280267"><ele>260.0</ele><time>2026-05-02T09:54:04.75Z</time></trkpt><trkpt lat="43.3629794" lon="12.2281052"><ele>260.0</ele><time>2026-05-02T09:54:05.745Z</time></trkpt><trkpt lat="43.3628468" lon="12.2281788"><ele>260.0</ele><time>2026-05-02T09:54:06.76Z</time></trkpt><trkpt lat="43.3627301" lon="12.2282557"><ele>259.6</ele><time>2026-05-02T09:54:07.759Z</time></trkpt><trkpt lat="43.3626263" lon="12.2283245"><ele>259.2</ele><time>2026-05-02T09:54:08.753Z</time></trkpt><trkpt lat="43.3625305" lon="12.2283849"><ele>258.8</ele><time>2026-05-02T09:54:09.756Z</time></trkpt><trkpt lat="43.3624413" lon="12.2284428"><ele>258.4</ele><time>2026-05-02T09:54:10.757Z</time></trkpt><trkpt lat="43.3623662" lon="12.2285002"><ele>258.0</ele><time>2026-05-02T09:54:11.76Z</time></trkpt><trkpt lat="43.3623066" lon="12.2285377"><ele>257.8333333333333</ele><time>2026-05-02T09:54:12.762Z</time></trkpt><trkpt lat="43.3621923" lon="12.2285691"><ele>257.6666666666667</ele><time>2026-05-02T09:54:14.749Z</time></trkpt><trkpt lat="43.3620828" lon="12.2285041"><ele>257.5</ele><time>2026-05-02T09:54:16.75Z</time></trkpt><trkpt lat="43.3620183" lon="12.2284688"><ele>257.33333333333337</ele><time>2026-05-02T09:54:17.758Z</time></trkpt><trkpt lat="43.3619486" lon="12.2284507"><ele>257.1666666666667</ele><time>2026-05-02T09:54:18.752Z</time></trkpt><trkpt lat="43.3618794" lon="12.22847"><ele>257.0</ele><time>2026-05-02T09:54:19.752Z</time></trkpt><trkpt lat="43.3618192" lon="12.2285332"><ele>257.0</ele><time>2026-05-02T09:54:20.758Z</time></trkpt><trkpt lat="43.3617812" lon="12.2286138"><ele>257.0</ele><time>2026-05-02T09:54:21.758Z</time></trkpt><trkpt lat="43.3617697" lon="12.2287151"><ele>257.0</ele><time>2026-05-02T09:54:22.755Z</time></trkpt><trkpt lat="43.361792" lon="12.2288252"><ele>257.0</ele><time>2026-05-02T09:54:23.759Z</time></trkpt><trkpt lat="43.3618363" lon="12.2289389"><ele>257.0</ele><time>2026-05-02T09:54:24.757Z</time></trkpt><trkpt lat="43.3618957" lon="12.2290515"><ele>257.0</ele><time>2026-05-02T09:54:25.752Z</time></trkpt><trkpt lat="43.3619336" lon="12.2292008"><ele>256.75</ele><time>2026-05-02T09:54:26.761Z</time></trkpt><trkpt lat="43.3619578" lon="12.2293713"><ele>256.5</ele><time>2026-05-02T09:54:27.757Z</time></trkpt><trkpt lat="43.3619768" lon="12.2295571"><ele>256.25</ele><time>2026-05-02T09:54:28.749Z</time></trkpt><trkpt lat="43.3619913" lon="12.2297663"><ele>256.0</ele><time>2026-05-02T09:54:29.751Z</time></trkpt><trkpt lat="43.3620124" lon="12.2299897"><ele>256.0</ele><time>2026-05-02T09:54:30.749Z</time></trkpt><trkpt lat="43.3620281" lon="12.2302103"><ele>256.0</ele><time>2026-05-02T09:54:31.759Z</time></trkpt><trkpt lat="43.3620414" lon="12.230444"><ele>256.0</ele><time>2026-05-02T09:54:32.754Z</time></trkpt><trkpt lat="43.3620586" lon="12.2307074"><ele>256.0</ele><time>2026-05-02T09:54:33.753Z</time></trkpt><trkpt lat="43.3620734" lon="12.2309951"><ele>256.0</ele><time>2026-05-02T09:54:34.751Z</time></trkpt><trkpt lat="43.3620779" lon="12.2312925"><ele>256.0</ele><time>2026-05-02T09:54:35.771Z</time></trkpt><trkpt lat="43.3620853" lon="12.2316086"><ele>256.5</ele><time>2026-05-02T09:54:36.754Z</time></trkpt><trkpt lat="43.3620992" lon="12.2319392"><ele>257.0</ele><time>2026-05-02T09:54:37.753Z</time></trkpt><trkpt lat="43.3621138" lon="12.2322697"><ele>257.0</ele><time>2026-05-02T09:54:38.751Z</time></trkpt><trkpt lat="43.362129" lon="12.2326196"><ele>257.0</ele><time>2026-05-02T09:54:39.75Z</time></trkpt><trkpt lat="43.362147" lon="12.2329702"><ele>257.0</ele><time>2026-05-02T09:54:40.752Z</time></trkpt><trkpt lat="43.3621654" lon="12.2333252"><ele>257.0</ele><time>2026-05-02T09:54:41.756Z</time></trkpt><trkpt lat="43.3621859" lon="12.2336863"><ele>257.0</ele><time>2026-05-02T09:54:42.76Z</time></trkpt><trkpt lat="43.3622055" lon="12.2340509"><ele>257.0</ele><time>2026-05-02T09:54:43.757Z</time></trkpt><trkpt lat="43.3622234" lon="12.2344078"><ele>257.0</ele><time>2026-05-02T09:54:44.752Z</time></trkpt><trkpt lat="43.3622423" lon="12.234758"><ele>257.0</ele><time>2026-05-02T09:54:45.763Z</time></trkpt><trkpt lat="43.3622605" lon="12.2351019"><ele>258.0</ele><time>2026-05-02T09:54:46.756Z</time></trkpt><trkpt lat="43.3622748" lon="12.2354344"><ele>259.0</ele><time>2026-05-02T09:54:47.757Z</time></trkpt><trkpt lat="43.3622884" lon="12.2357589"><ele>259.0</ele><time>2026-05-02T09:54:48.755Z</time></trkpt><trkpt lat="43.3622952" lon="12.236071"><ele>259.0</ele><time>2026-05-02T09:54:49.765Z</time></trkpt><trkpt lat="43.3622968" lon="12.2363587"><ele>259.0</ele><time>2026-05-02T09:54:50.755Z</time></trkpt><trkpt lat="43.3622962" lon="12.2366254"><ele>259.0</ele><time>2026-05-02T09:54:51.763Z</time></trkpt><trkpt lat="43.362292" lon="12.2368617"><ele>259.0</ele><time>2026-05-02T09:54:52.758Z</time></trkpt><trkpt lat="43.3622806" lon="12.2370678"><ele>259.0</ele><time>2026-05-02T09:54:53.761Z</time></trkpt><trkpt lat="43.3622645" lon="12.2372465"><ele>259.0</ele><time>2026-05-02T09:54:54.755Z</time></trkpt><trkpt lat="43.3622402" lon="12.2373964"><ele>259.0</ele><time>2026-05-02T09:54:55.756Z</time></trkpt><trkpt lat="43.3622043" lon="12.2375169"><ele>259.0</ele><time>2026-05-02T09:54:56.756Z</time></trkpt><trkpt lat="43.3621394" lon="12.2376202"><ele>259.0</ele><time>2026-05-02T09:54:57.755Z</time></trkpt><trkpt lat="43.3620438" lon="12.237708"><ele>259.0</ele><time>2026-05-02T09:54:58.752Z</time></trkpt><trkpt lat="43.3619288" lon="12.2377681"><ele>259.0</ele><time>2026-05-02T09:54:59.75Z</time></trkpt><trkpt lat="43.3617876" lon="12.2378023"><ele>259.0</ele><time>2026-05-02T09:55:00.752Z</time></trkpt><trkpt lat="43.3616306" lon="12.2378324"><ele>259.0</ele><time>2026-05-02T09:55:01.747Z</time></trkpt><trkpt lat="43.361457" lon="12.2378561"><ele>258.66666666666663</ele><time>2026-05-02T09:55:02.747Z</time></trkpt><trkpt lat="43.3612827" lon="12.2378785"><ele>258.3333333333333</ele><time>2026-05-02T09:55:03.751Z</time></trkpt><trkpt lat="43.3611322" lon="12.2378954"><ele>258.0</ele><time>2026-05-02T09:55:04.748Z</time></trkpt><trkpt lat="43.3610011" lon="12.2379024"><ele>258.0</ele><time>2026-05-02T09:55:05.761Z</time></trkpt><trkpt lat="43.3608663" lon="12.237876"><ele>258.0</ele><time>2026-05-02T09:55:06.746Z</time></trkpt><trkpt lat="43.3607308" lon="12.237816"><ele>258.0</ele><time>2026-05-02T09:55:07.76Z</time></trkpt><trkpt lat="43.3606036" lon="12.237752"><ele>258.0</ele><time>2026-05-02T09:55:08.744Z</time></trkpt><trkpt lat="43.3604794" lon="12.2376929"><ele>258.25</ele><time>2026-05-02T09:55:09.757Z</time></trkpt><trkpt lat="43.3603483" lon="12.2376355"><ele>258.5</ele><time>2026-05-02T09:55:10.744Z</time></trkpt><trkpt lat="43.3602124" lon="12.2375761"><ele>258.75</ele><time>2026-05-02T09:55:11.746Z</time></trkpt><trkpt lat="43.360076" lon="12.2375212"><ele>259.0</ele><time>2026-05-02T09:55:12.754Z</time></trkpt><trkpt lat="43.3599405" lon="12.2374723"><ele>259.0</ele><time>2026-05-02T09:55:13.758Z</time></trkpt><trkpt lat="43.3598045" lon="12.23742"><ele>259.0</ele><time>2026-05-02T09:55:14.758Z</time></trkpt><trkpt lat="43.359668" lon="12.2373653"><ele>259.0</ele><time>2026-05-02T09:55:15.76Z</time></trkpt><trkpt lat="43.3595201" lon="12.2373142"><ele>259.0</ele><time>2026-05-02T09:55:16.749Z</time></trkpt><trkpt lat="43.3593645" lon="12.2372722"><ele>259.0</ele><time>2026-05-02T09:55:17.768Z</time></trkpt><trkpt lat="43.359208" lon="12.2372456"><ele>259.0</ele><time>2026-05-02T09:55:18.743Z</time></trkpt><trkpt lat="43.3590597" lon="12.237225"><ele>259.0</ele><time>2026-05-02T09:55:19.768Z</time></trkpt><trkpt lat="43.3589141" lon="12.237196"><ele>258.66666666666663</ele><time>2026-05-02T09:55:20.749Z</time></trkpt><trkpt lat="43.3587664" lon="12.237173"><ele>258.3333333333333</ele><time>2026-05-02T09:55:21.751Z</time></trkpt><trkpt lat="43.3586136" lon="12.2371615"><ele>258.0</ele><time>2026-05-02T09:55:22.758Z</time></trkpt><trkpt lat="43.3584584" lon="12.2371679"><ele>258.0</ele><time>2026-05-02T09:55:23.758Z</time></trkpt><trkpt lat="43.3582982" lon="12.2371912"><ele>258.0</ele><time>2026-05-02T09:55:24.745Z</time></trkpt><trkpt lat="43.3581296" lon="12.2372154"><ele>258.0</ele><time>2026-05-02T09:55:25.757Z</time></trkpt><trkpt lat="43.3579587" lon="12.2372351"><ele>258.3333333333333</ele><time>2026-05-02T09:55:26.756Z</time></trkpt><trkpt lat="43.357776" lon="12.237251"><ele>258.66666666666663</ele><time>2026-05-02T09:55:27.751Z</time></trkpt><trkpt lat="43.3575895" lon="12.2372684"><ele>259.0</ele><time>2026-05-02T09:55:28.758Z</time></trkpt><trkpt lat="43.3574112" lon="12.2372831"><ele>259.0</ele><time>2026-05-02T09:55:29.767Z</time></trkpt><trkpt lat="43.3572428" lon="12.2373015"><ele>259.0</ele><time>2026-05-02T09:55:30.756Z</time></trkpt><trkpt lat="43.3570804" lon="12.237316"><ele>259.0</ele><time>2026-05-02T09:55:31.762Z</time></trkpt><trkpt lat="43.3569171" lon="12.2373421"><ele>259.0</ele><time>2026-05-02T09:55:32.749Z</time></trkpt><trkpt lat="43.3567449" lon="12.2373738"><ele>259.0</ele><time>2026-05-02T09:55:33.75Z</time></trkpt><trkpt lat="43.3565477" lon="12.2374075"><ele>259.0</ele><time>2026-05-02T09:55:34.771Z</time></trkpt><trkpt lat="43.3563298" lon="12.2374427"><ele>259.0</ele><time>2026-05-02T09:55:35.756Z</time></trkpt><trkpt lat="43.3561051" lon="12.237469"><ele>259.0</ele><time>2026-05-02T09:55:36.747Z</time></trkpt><trkpt lat="43.3559114" lon="12.2374978"><ele>259.0</ele><time>2026-05-02T09:55:37.768Z</time></trkpt><trkpt lat="43.3557428" lon="12.2375165"><ele>259.0</ele><time>2026-05-02T09:55:38.751Z</time></trkpt><trkpt lat="43.355593" lon="12.2375458"><ele>259.0</ele><time>2026-05-02T09:55:39.764Z</time></trkpt><trkpt lat="43.355462" lon="12.2375633"><ele>259.0</ele><time>2026-05-02T09:55:40.751Z</time></trkpt><trkpt lat="43.3553469" lon="12.2375676"><ele>259.0</ele><time>2026-05-02T09:55:41.767Z</time></trkpt><trkpt lat="43.3552473" lon="12.2375428"><ele>259.4</ele><time>2026-05-02T09:55:42.742Z</time></trkpt><trkpt lat="43.3551605" lon="12.2374909"><ele>259.79999999999995</ele><time>2026-05-02T09:55:43.755Z</time></trkpt><trkpt lat="43.3550935" lon="12.2373885"><ele>260.20000000000005</ele><time>2026-05-02T09:55:44.758Z</time></trkpt><trkpt lat="43.3550392" lon="12.2372534"><ele>260.6</ele><time>2026-05-02T09:55:45.752Z</time></trkpt><trkpt lat="43.3550089" lon="12.2370894"><ele>261.0</ele><time>2026-05-02T09:55:46.753Z</time></trkpt><trkpt lat="43.3550007" lon="12.2369064"><ele>261.6666666666667</ele><time>2026-05-02T09:55:47.755Z</time></trkpt><trkpt lat="43.3549993" lon="12.2367047"><ele>262.33333333333337</ele><time>2026-05-02T09:55:48.754Z</time></trkpt><trkpt lat="43.3549956" lon="12.2364954"><ele>263.0</ele><time>2026-05-02T09:55:49.754Z</time></trkpt><trkpt lat="43.3549899" lon="12.2362726"><ele>263.33333333333337</ele><time>2026-05-02T09:55:50.763Z</time></trkpt><trkpt lat="43.3549848" lon="12.2360385"><ele>263.6666666666667</ele><time>2026-05-02T09:55:51.761Z</time></trkpt><trkpt lat="43.3549797" lon="12.2357847"><ele>264.0</ele><time>2026-05-02T09:55:52.757Z</time></trkpt><trkpt lat="43.3549714" lon="12.2355277"><ele>262.6666666666667</ele><time>2026-05-02T09:55:53.759Z</time></trkpt><trkpt lat="43.3549552" lon="12.2352708"><ele>261.33333333333337</ele><time>2026-05-02T09:55:54.759Z</time></trkpt><trkpt lat="43.3549275" lon="12.2350202"><ele>260.0</ele><time>2026-05-02T09:55:55.773Z</time></trkpt><trkpt lat="43.354887" lon="12.2347648"><ele>259.6666666666667</ele><time>2026-05-02T09:55:56.748Z</time></trkpt><trkpt lat="43.3548309" lon="12.234508"><ele>259.3333333333333</ele><time>2026-05-02T09:55:57.757Z</time></trkpt><trkpt lat="43.3547542" lon="12.2342609"><ele>259.0</ele><time>2026-05-02T09:55:58.757Z</time></trkpt><trkpt lat="43.3546627" lon="12.2340187"><ele>260.3333333333333</ele><time>2026-05-02T09:55:59.754Z</time></trkpt><trkpt lat="43.3545676" lon="12.2337726"><ele>261.6666666666667</ele><time>2026-05-02T09:56:00.753Z</time></trkpt><trkpt lat="43.3544709" lon="12.233531"><ele>263.0</ele><time>2026-05-02T09:56:01.759Z</time></trkpt><trkpt lat="43.3543745" lon="12.2332992"><ele>262.6666666666667</ele><time>2026-05-02T09:56:02.748Z</time></trkpt><trkpt lat="43.3542776" lon="12.2330825"><ele>262.3333333333333</ele><time>2026-05-02T09:56:03.76Z</time></trkpt><trkpt lat="43.3541874" lon="12.2328803"><ele>262.0</ele><time>2026-05-02T09:56:04.753Z</time></trkpt><trkpt lat="43.3541129" lon="12.2326898"><ele>262.0</ele><time>2026-05-02T09:56:05.754Z</time></trkpt><trkpt lat="43.3540404" lon="12.2325164"><ele>262.0</ele><time>2026-05-02T09:56:06.751Z</time></trkpt><trkpt lat="43.3539684" lon="12.2323561"><ele>262.0</ele><time>2026-05-02T09:56:07.745Z</time></trkpt><trkpt lat="43.3538998" lon="12.2321938"><ele>262.0</ele><time>2026-05-02T09:56:08.752Z</time></trkpt><trkpt lat="43.3538325" lon="12.2320261"><ele>262.25</ele><time>2026-05-02T09:56:09.752Z</time></trkpt><trkpt lat="43.3537617" lon="12.2318571"><ele>262.5</ele><time>2026-05-02T09:56:10.753Z</time></trkpt><trkpt lat="43.3536867" lon="12.2316862"><ele>262.75</ele><time>2026-05-02T09:56:11.753Z</time></trkpt><trkpt lat="43.3536174" lon="12.2315119"><ele>263.0</ele><time>2026-05-02T09:56:12.756Z</time></trkpt><trkpt lat="43.3535478" lon="12.2313389"><ele>263.0</ele><time>2026-05-02T09:56:13.752Z</time></trkpt><trkpt lat="43.3534755" lon="12.2311625"><ele>263.0</ele><time>2026-05-02T09:56:14.764Z</time></trkpt><trkpt lat="43.3533978" lon="12.2309749"><ele>263.0</ele><time>2026-05-02T09:56:15.756Z</time></trkpt><trkpt lat="43.3533173" lon="12.2307848"><ele>261.6666666666667</ele><time>2026-05-02T09:56:16.738Z</time></trkpt><trkpt lat="43.3532353" lon="12.2305863"><ele>260.3333333333333</ele><time>2026-05-02T09:56:17.757Z</time></trkpt><trkpt lat="43.353149" lon="12.2303642"><ele>259.0</ele><time>2026-05-02T09:56:18.757Z</time></trkpt><trkpt lat="43.3530616" lon="12.2301281"><ele>259.66666666666663</ele><time>2026-05-02T09:56:19.75Z</time></trkpt><trkpt lat="43.352973" lon="12.2298823"><ele>260.3333333333333</ele><time>2026-05-02T09:56:20.753Z</time></trkpt><trkpt lat="43.3528799" lon="12.2296281"><ele>261.0</ele><time>2026-05-02T09:56:21.753Z</time></trkpt><trkpt lat="43.3527856" lon="12.2293735"><ele>261.0</ele><time>2026-05-02T09:56:22.754Z</time></trkpt><trkpt lat="43.352689" lon="12.2291172"><ele>261.0</ele><time>2026-05-02T09:56:23.753Z</time></trkpt><trkpt lat="43.3525892" lon="12.2288578"><ele>261.0</ele><time>2026-05-02T09:56:24.737Z</time></trkpt><trkpt lat="43.3524909" lon="12.2285894"><ele>261.0</ele><time>2026-05-02T09:56:25.766Z</time></trkpt><trkpt lat="43.352389" lon="12.2283195"><ele>261.0</ele><time>2026-05-02T09:56:26.737Z</time></trkpt><trkpt lat="43.3522829" lon="12.2280503"><ele>261.0</ele><time>2026-05-02T09:56:27.754Z</time></trkpt><trkpt lat="43.3521602" lon="12.2277749"><ele>263.0</ele><time>2026-05-02T09:56:28.75Z</time></trkpt><trkpt lat="43.3520206" lon="12.2275007"><ele>265.0</ele><time>2026-05-02T09:56:29.764Z</time></trkpt><trkpt lat="43.3518691" lon="12.2272306"><ele>265.0</ele><time>2026-05-02T09:56:30.762Z</time></trkpt><trkpt lat="43.3517083" lon="12.2269716"><ele>265.0</ele><time>2026-05-02T09:56:31.752Z</time></trkpt><trkpt lat="43.3515399" lon="12.2267293"><ele>266.5</ele><time>2026-05-02T09:56:32.743Z</time></trkpt><trkpt lat="43.3513668" lon="12.2265113"><ele>268.0</ele><time>2026-05-02T09:56:33.75Z</time></trkpt><trkpt lat="43.3511894" lon="12.2263264"><ele>268.0</ele><time>2026-05-02T09:56:34.753Z</time></trkpt><trkpt lat="43.3510017" lon="12.2261636"><ele>268.0</ele><time>2026-05-02T09:56:35.751Z</time></trkpt><trkpt lat="43.3508054" lon="12.2260286"><ele>268.0</ele><time>2026-05-02T09:56:36.744Z</time></trkpt><trkpt lat="43.3506007" lon="12.2259077"><ele>268.66666666666663</ele><time>2026-05-02T09:56:37.76Z</time></trkpt><trkpt lat="43.3503966" lon="12.2257881"><ele>269.3333333333333</ele><time>2026-05-02T09:56:38.75Z</time></trkpt><trkpt lat="43.3502009" lon="12.2256683"><ele>270.0</ele><time>2026-05-02T09:56:39.757Z</time></trkpt><trkpt lat="43.350013" lon="12.2255576"><ele>270.0</ele><time>2026-05-02T09:56:40.751Z</time></trkpt><trkpt lat="43.349831" lon="12.2254469"><ele>270.0</ele><time>2026-05-02T09:56:41.749Z</time></trkpt><trkpt lat="43.3496549" lon="12.2253413"><ele>270.0</ele><time>2026-05-02T09:56:42.749Z</time></trkpt><trkpt lat="43.3494791" lon="12.2252402"><ele>269.3333333333333</ele><time>2026-05-02T09:56:43.75Z</time></trkpt><trkpt lat="43.3493044" lon="12.2251389"><ele>268.66666666666663</ele><time>2026-05-02T09:56:44.751Z</time></trkpt><trkpt lat="43.3491292" lon="12.2250429"><ele>268.0</ele><time>2026-05-02T09:56:45.752Z</time></trkpt><trkpt lat="43.3489527" lon="12.2249492"><ele>267.3333333333333</ele><time>2026-05-02T09:56:46.745Z</time></trkpt><trkpt lat="43.348778" lon="12.2248562"><ele>266.6666666666667</ele><time>2026-05-02T09:56:47.754Z</time></trkpt><trkpt lat="43.3486051" lon="12.2247699"><ele>266.0</ele><time>2026-05-02T09:56:48.748Z</time></trkpt><trkpt lat="43.3484409" lon="12.2246886"><ele>266.0</ele><time>2026-05-02T09:56:49.759Z</time></trkpt><trkpt lat="43.3482861" lon="12.2246114"><ele>266.0</ele><time>2026-05-02T09:56:50.745Z</time></trkpt><trkpt lat="43.3481336" lon="12.2245377"><ele>266.0</ele><time>2026-05-02T09:56:51.744Z</time></trkpt><trkpt lat="43.3479799" lon="12.2244689"><ele>268.0</ele><time>2026-05-02T09:56:52.754Z</time></trkpt><trkpt lat="43.3478235" lon="12.2243929"><ele>270.0</ele><time>2026-05-02T09:56:53.758Z</time></trkpt><trkpt lat="43.3476626" lon="12.2243089"><ele>272.0</ele><time>2026-05-02T09:56:54.746Z</time></trkpt><trkpt lat="43.3475032" lon="12.2242166"><ele>272.0</ele><time>2026-05-02T09:56:55.751Z</time></trkpt><trkpt lat="43.347345" lon="12.2241295"><ele>272.0</ele><time>2026-05-02T09:56:56.746Z</time></trkpt><trkpt lat="43.3471978" lon="12.2240471"><ele>272.0</ele><time>2026-05-02T09:56:57.739Z</time></trkpt><trkpt lat="43.3470665" lon="12.2239714"><ele>272.25</ele><time>2026-05-02T09:56:58.749Z</time></trkpt><trkpt lat="43.3469486" lon="12.223888"><ele>272.5</ele><time>2026-05-02T09:56:59.745Z</time></trkpt><trkpt lat="43.3468428" lon="12.2238036"><ele>272.75</ele><time>2026-05-02T09:57:00.747Z</time></trkpt><trkpt lat="43.346747" lon="12.2237181"><ele>273.0</ele><time>2026-05-02T09:57:01.749Z</time></trkpt><trkpt lat="43.3466625" lon="12.2236318"><ele>273.0</ele><time>2026-05-02T09:57:02.744Z</time></trkpt><trkpt lat="43.3465878" lon="12.2235556"><ele>273.0</ele><time>2026-05-02T09:57:03.762Z</time></trkpt><trkpt lat="43.3465257" lon="12.2234907"><ele>273.0</ele><time>2026-05-02T09:57:04.747Z</time></trkpt><trkpt lat="43.3464719" lon="12.2234366"><ele>273.0</ele><time>2026-05-02T09:57:05.747Z</time></trkpt><trkpt lat="43.3464219" lon="12.22338"><ele>273.0</ele><time>2026-05-02T09:57:06.751Z</time></trkpt><trkpt lat="43.3463637" lon="12.2233282"><ele>273.0</ele><time>2026-05-02T09:57:07.762Z</time></trkpt><trkpt lat="43.3463008" lon="12.2232647"><ele>273.2</ele><time>2026-05-02T09:57:08.753Z</time></trkpt><trkpt lat="43.3462345" lon="12.2231986"><ele>273.4</ele><time>2026-05-02T09:57:09.75Z</time></trkpt><trkpt lat="43.3461664" lon="12.2231236"><ele>273.59999999999997</ele><time>2026-05-02T09:57:10.753Z</time></trkpt><trkpt lat="43.3460966" lon="12.2230405"><ele>273.8</ele><time>2026-05-02T09:57:11.749Z</time></trkpt><trkpt lat="43.3460258" lon="12.2229435"><ele>274.0</ele><time>2026-05-02T09:57:12.76Z</time></trkpt><trkpt lat="43.3459598" lon="12.2228465"><ele>274.0</ele><time>2026-05-02T09:57:13.734Z</time></trkpt><trkpt lat="43.3459035" lon="12.2227556"><ele>274.0</ele><time>2026-05-02T09:57:14.753Z</time></trkpt><trkpt lat="43.3458536" lon="12.2226754"><ele>274.0</ele><time>2026-05-02T09:57:15.753Z</time></trkpt><trkpt lat="43.345812" lon="12.2226097"><ele>274.0</ele><time>2026-05-02T09:57:16.756Z</time></trkpt><trkpt lat="43.3457519" lon="12.2225075"><ele>274.0</ele><time>2026-05-02T09:57:18.752Z</time></trkpt><trkpt lat="43.3457009" lon="12.2224385"><ele>274.0</ele><time>2026-05-02T09:57:21.748Z</time></trkpt><trkpt lat="43.3456288" lon="12.2223495"><ele>273.8</ele><time>2026-05-02T09:57:24.752Z</time></trkpt><trkpt lat="43.3455807" lon="12.2222749"><ele>273.59999999999997</ele><time>2026-05-02T09:57:25.751Z</time></trkpt><trkpt lat="43.3455179" lon="12.2221841"><ele>273.4</ele><time>2026-05-02T09:57:26.754Z</time></trkpt><trkpt lat="43.3454452" lon="12.2220779"><ele>273.2</ele><time>2026-05-02T09:57:27.752Z</time></trkpt><trkpt lat="43.3453673" lon="12.2219542"><ele>273.0</ele><time>2026-05-02T09:57:28.752Z</time></trkpt><trkpt lat="43.3452854" lon="12.2218248"><ele>273.0</ele><time>2026-05-02T09:57:29.752Z</time></trkpt><trkpt lat="43.345196" lon="12.2216837"><ele>273.0</ele><time>2026-05-02T09:57:30.747Z</time></trkpt><trkpt lat="43.3451018" lon="12.2215242"><ele>273.0</ele><time>2026-05-02T09:57:31.753Z</time></trkpt><trkpt lat="43.3450021" lon="12.2213577"><ele>273.0</ele><time>2026-05-02T09:57:32.75Z</time></trkpt><trkpt lat="43.3448961" lon="12.2211971"><ele>272.3333333333333</ele><time>2026-05-02T09:57:33.746Z</time></trkpt><trkpt lat="43.3447864" lon="12.22103"><ele>271.66666666666663</ele><time>2026-05-02T09:57:34.749Z</time></trkpt><trkpt lat="43.3446682" lon="12.2208525"><ele>271.0</ele><time>2026-05-02T09:57:35.765Z</time></trkpt><trkpt lat="43.3445471" lon="12.220665"><ele>270.3333333333333</ele><time>2026-05-02T09:57:36.745Z</time></trkpt><trkpt lat="43.344422" lon="12.2204787"><ele>269.6666666666667</ele><time>2026-05-02T09:57:37.758Z</time></trkpt><trkpt lat="43.3442949" lon="12.220297"><ele>269.0</ele><time>2026-05-02T09:57:38.757Z</time></trkpt><trkpt lat="43.3441673" lon="12.2201191"><ele>269.0</ele><time>2026-05-02T09:57:39.745Z</time></trkpt><trkpt lat="43.3440346" lon="12.2199418"><ele>269.0</ele><time>2026-05-02T09:57:40.754Z</time></trkpt><trkpt lat="43.3438969" lon="12.2197701"><ele>269.0</ele><time>2026-05-02T09:57:41.743Z</time></trkpt><trkpt lat="43.3437507" lon="12.2195996"><ele>269.6666666666667</ele><time>2026-05-02T09:57:42.76Z</time></trkpt><trkpt lat="43.3436022" lon="12.2194307"><ele>270.3333333333333</ele><time>2026-05-02T09:57:43.751Z</time></trkpt><trkpt lat="43.3434508" lon="12.2192598"><ele>271.0</ele><time>2026-05-02T09:57:44.742Z</time></trkpt><trkpt lat="43.3432992" lon="12.2190921"><ele>271.66666666666663</ele><time>2026-05-02T09:57:45.748Z</time></trkpt><trkpt lat="43.3431471" lon="12.2189241"><ele>272.3333333333333</ele><time>2026-05-02T09:57:46.736Z</time></trkpt><trkpt lat="43.3429907" lon="12.2187589"><ele>273.0</ele><time>2026-05-02T09:57:47.751Z</time></trkpt><trkpt lat="43.3428285" lon="12.2186002"><ele>273.3333333333333</ele><time>2026-05-02T09:57:48.754Z</time></trkpt><trkpt lat="43.3426586" lon="12.21845"><ele>273.66666666666663</ele><time>2026-05-02T09:57:49.74Z</time></trkpt><trkpt lat="43.3424813" lon="12.2183113"><ele>274.0</ele><time>2026-05-02T09:57:50.751Z</time></trkpt><trkpt lat="43.342296" lon="12.2181784"><ele>275.3333333333333</ele><time>2026-05-02T09:57:51.756Z</time></trkpt><trkpt lat="43.3421052" lon="12.2180491"><ele>276.6666666666667</ele><time>2026-05-02T09:57:52.736Z</time></trkpt><trkpt lat="43.3419163" lon="12.2179155"><ele>278.0</ele><time>2026-05-02T09:57:53.748Z</time></trkpt><trkpt lat="43.341741" lon="12.2177624"><ele>278.0</ele><time>2026-05-02T09:57:54.747Z</time></trkpt><trkpt lat="43.3415769" lon="12.2175814"><ele>278.0</ele><time>2026-05-02T09:57:55.744Z</time></trkpt><trkpt lat="43.3414239" lon="12.2173691"><ele>278.0</ele><time>2026-05-02T09:57:56.746Z</time></trkpt><trkpt lat="43.341268" lon="12.217139"><ele>278.0</ele><time>2026-05-02T09:57:57.743Z</time></trkpt><trkpt lat="43.3411102" lon="12.2168975"><ele>278.0</ele><time>2026-05-02T09:57:58.752Z</time></trkpt><trkpt lat="43.3409515" lon="12.2166399"><ele>282.0</ele><time>2026-05-02T09:57:59.745Z</time></trkpt><trkpt lat="43.3407919" lon="12.2163688"><ele>286.0</ele><time>2026-05-02T09:58:00.756Z</time></trkpt><trkpt lat="43.3406359" lon="12.2160855"><ele>282.0</ele><time>2026-05-02T09:58:01.742Z</time></trkpt><trkpt lat="43.3404835" lon="12.2158"><ele>278.0</ele><time>2026-05-02T09:58:02.751Z</time></trkpt><trkpt lat="43.3403437" lon="12.2155274"><ele>278.0</ele><time>2026-05-02T09:58:03.75Z</time></trkpt><trkpt lat="43.3402229" lon="12.2152696"><ele>278.0</ele><time>2026-05-02T09:58:04.749Z</time></trkpt><trkpt lat="43.3401147" lon="12.2150288"><ele>278.0</ele><time>2026-05-02T09:58:05.748Z</time></trkpt><trkpt lat="43.3400111" lon="12.2147742"><ele>283.0</ele><time>2026-05-02T09:58:06.746Z</time></trkpt><trkpt lat="43.3399052" lon="12.2144948"><ele>288.0</ele><time>2026-05-02T09:58:07.747Z</time></trkpt><trkpt lat="43.3397871" lon="12.2141766"><ele>282.0</ele><time>2026-05-02T09:58:08.751Z</time></trkpt><trkpt lat="43.3396651" lon="12.2138321"><ele>276.0</ele><time>2026-05-02T09:58:09.744Z</time></trkpt><trkpt lat="43.3395473" lon="12.2134937"><ele>276.0</ele><time>2026-05-02T09:58:10.75Z</time></trkpt><trkpt lat="43.3394431" lon="12.2131734"><ele>276.0</ele><time>2026-05-02T09:58:11.749Z</time></trkpt><trkpt lat="43.33934" lon="12.2128762"><ele>277.3333333333333</ele><time>2026-05-02T09:58:12.739Z</time></trkpt><trkpt lat="43.3392371" lon="12.2126053"><ele>278.66666666666663</ele><time>2026-05-02T09:58:13.748Z</time></trkpt><trkpt lat="43.3391375" lon="12.2123636"><ele>280.0</ele><time>2026-05-02T09:58:14.756Z</time></trkpt><trkpt lat="43.3390178" lon="12.2121555"><ele>281.3333333333333</ele><time>2026-05-02T09:58:15.751Z</time></trkpt><trkpt lat="43.3388698" lon="12.2119949"><ele>282.6666666666667</ele><time>2026-05-02T09:58:16.75Z</time></trkpt><trkpt lat="43.3386917" lon="12.211883"><ele>284.0</ele><time>2026-05-02T09:58:17.757Z</time></trkpt><trkpt lat="43.3385047" lon="12.2118254"><ele>284.0</ele><time>2026-05-02T09:58:18.747Z</time></trkpt><trkpt lat="43.3383281" lon="12.2117962"><ele>284.0</ele><time>2026-05-02T09:58:19.756Z</time></trkpt><trkpt lat="43.3381825" lon="12.2116939"><ele>284.0</ele><time>2026-05-02T09:58:20.75Z</time></trkpt><trkpt lat="43.3380518" lon="12.2115744"><ele>284.33333333333337</ele><time>2026-05-02T09:58:21.748Z</time></trkpt><trkpt lat="43.3379379" lon="12.21142"><ele>284.6666666666667</ele><time>2026-05-02T09:58:22.751Z</time></trkpt><trkpt lat="43.3378274" lon="12.2112164"><ele>285.0</ele><time>2026-05-02T09:58:23.748Z</time></trkpt><trkpt lat="43.3377231" lon="12.210958"><ele>285.0</ele><time>2026-05-02T09:58:24.757Z</time></trkpt><trkpt lat="43.3376184" lon="12.210677"><ele>285.0</ele><time>2026-05-02T09:58:25.75Z</time></trkpt><trkpt lat="43.3375107" lon="12.2103857"><ele>288.0</ele><time>2026-05-02T09:58:26.754Z</time></trkpt><trkpt lat="43.3373941" lon="12.210082"><ele>291.0</ele><time>2026-05-02T09:58:27.756Z</time></trkpt><trkpt lat="43.3372724" lon="12.2097718"><ele>286.5</ele><time>2026-05-02T09:58:28.751Z</time></trkpt><trkpt lat="43.3371525" lon="12.2094715"><ele>282.0</ele><time>2026-05-02T09:58:29.748Z</time></trkpt><trkpt lat="43.3370354" lon="12.2091884"><ele>284.3333333333333</ele><time>2026-05-02T09:58:30.755Z</time></trkpt><trkpt lat="43.3369229" lon="12.2089193"><ele>286.66666666666663</ele><time>2026-05-02T09:58:31.752Z</time></trkpt><trkpt lat="43.3368129" lon="12.208658"><ele>289.0</ele><time>2026-05-02T09:58:32.742Z</time></trkpt><trkpt lat="43.3367032" lon="12.2083956"><ele>291.66666666666663</ele><time>2026-05-02T09:58:33.739Z</time></trkpt><trkpt lat="43.3366008" lon="12.2081305"><ele>294.3333333333333</ele><time>2026-05-02T09:58:34.742Z</time></trkpt><trkpt lat="43.3364916" lon="12.2078615"><ele>297.0</ele><time>2026-05-02T09:58:35.75Z</time></trkpt><trkpt lat="43.3363765" lon="12.2075972"><ele>292.6666666666667</ele><time>2026-05-02T09:58:36.741Z</time></trkpt><trkpt lat="43.3362546" lon="12.2073404"><ele>288.33333333333337</ele><time>2026-05-02T09:58:37.742Z</time></trkpt><trkpt lat="43.33613" lon="12.2070905"><ele>284.0</ele><time>2026-05-02T09:58:38.757Z</time></trkpt><trkpt lat="43.3359988" lon="12.2068422"><ele>284.0</ele><time>2026-05-02T09:58:39.751Z</time></trkpt><trkpt lat="43.3358602" lon="12.2066053"><ele>284.0</ele><time>2026-05-02T09:58:40.749Z</time></trkpt><trkpt lat="43.3357258" lon="12.2063923"><ele>284.0</ele><time>2026-05-02T09:58:41.751Z</time></trkpt><trkpt lat="43.3355999" lon="12.2062005"><ele>282.6666666666667</ele><time>2026-05-02T09:58:42.756Z</time></trkpt><trkpt lat="43.3354943" lon="12.2060151"><ele>281.3333333333333</ele><time>2026-05-02T09:58:43.759Z</time></trkpt><trkpt lat="43.3354113" lon="12.205825"><ele>280.0</ele><time>2026-05-02T09:58:44.743Z</time></trkpt><trkpt lat="43.3353522" lon="12.2056299"><ele>280.0</ele><time>2026-05-02T09:58:45.751Z</time></trkpt><trkpt lat="43.3353345" lon="12.2054227"><ele>280.0</ele><time>2026-05-02T09:58:46.755Z</time></trkpt><trkpt lat="43.3353614" lon="12.2051983"><ele>280.0</ele><time>2026-05-02T09:58:47.752Z</time></trkpt><trkpt lat="43.335414" lon="12.2049627"><ele>279.0</ele><time>2026-05-02T09:58:48.755Z</time></trkpt><trkpt lat="43.3354758" lon="12.2047199"><ele>278.0</ele><time>2026-05-02T09:58:49.751Z</time></trkpt><trkpt lat="43.3355425" lon="12.2044612"><ele>277.0</ele><time>2026-05-02T09:58:50.76Z</time></trkpt><trkpt lat="43.3356103" lon="12.204193"><ele>281.66666666666663</ele><time>2026-05-02T09:58:51.743Z</time></trkpt><trkpt lat="43.3356885" lon="12.2039227"><ele>286.3333333333333</ele><time>2026-05-02T09:58:52.736Z</time></trkpt><trkpt lat="43.335766" lon="12.2036545"><ele>291.0</ele><time>2026-05-02T09:58:53.75Z</time></trkpt><trkpt lat="43.335844" lon="12.2033787"><ele>289.6666666666667</ele><time>2026-05-02T09:58:54.752Z</time></trkpt><trkpt lat="43.3359105" lon="12.2030943"><ele>288.33333333333337</ele><time>2026-05-02T09:58:55.764Z</time></trkpt><trkpt lat="43.3359596" lon="12.202803"><ele>287.0</ele><time>2026-05-02T09:58:56.744Z</time></trkpt><trkpt lat="43.3359999" lon="12.2025133"><ele>286.33333333333337</ele><time>2026-05-02T09:58:57.755Z</time></trkpt><trkpt lat="43.3360372" lon="12.2022413"><ele>285.6666666666667</ele><time>2026-05-02T09:58:58.748Z</time></trkpt><trkpt lat="43.3360643" lon="12.201989"><ele>285.0</ele><time>2026-05-02T09:58:59.745Z</time></trkpt><trkpt lat="43.3360662" lon="12.2017327"><ele>286.6666666666667</ele><time>2026-05-02T09:59:00.745Z</time></trkpt><trkpt lat="43.3360324" lon="12.2014572"><ele>288.33333333333337</ele><time>2026-05-02T09:59:01.74Z</time></trkpt><trkpt lat="43.3359651" lon="12.2011725"><ele>290.0</ele><time>2026-05-02T09:59:02.751Z</time></trkpt><trkpt lat="43.3358783" lon="12.2008892"><ele>292.0</ele><time>2026-05-02T09:59:03.746Z</time></trkpt><trkpt lat="43.3357966" lon="12.2006081"><ele>294.0</ele><time>2026-05-02T09:59:04.74Z</time></trkpt><trkpt lat="43.3357297" lon="12.2003368"><ele>296.0</ele><time>2026-05-02T09:59:05.742Z</time></trkpt><trkpt lat="43.3356899" lon="12.2000744"><ele>295.0</ele><time>2026-05-02T09:59:06.747Z</time></trkpt><trkpt lat="43.3356712" lon="12.1998115"><ele>294.0</ele><time>2026-05-02T09:59:07.748Z</time></trkpt><trkpt lat="43.3356575" lon="12.1995383"><ele>293.0</ele><time>2026-05-02T09:59:08.749Z</time></trkpt><trkpt lat="43.3356495" lon="12.1992713"><ele>293.0</ele><time>2026-05-02T09:59:09.752Z</time></trkpt><trkpt lat="43.3356416" lon="12.1990223"><ele>293.0</ele><time>2026-05-02T09:59:10.75Z</time></trkpt><trkpt lat="43.3356418" lon="12.198778"><ele>293.0</ele><time>2026-05-02T09:59:11.749Z</time></trkpt><trkpt lat="43.3356725" lon="12.1985512"><ele>293.0</ele><time>2026-05-02T09:59:12.746Z</time></trkpt><trkpt lat="43.3357278" lon="12.1983268"><ele>293.0</ele><time>2026-05-02T09:59:13.75Z</time></trkpt><trkpt lat="43.3357944" lon="12.1980997"><ele>293.0</ele><time>2026-05-02T09:59:14.752Z</time></trkpt><trkpt lat="43.3358478" lon="12.197854"><ele>292.6666666666667</ele><time>2026-05-02T09:59:15.754Z</time></trkpt><trkpt lat="43.3358745" lon="12.1975939"><ele>292.3333333333333</ele><time>2026-05-02T09:59:16.751Z</time></trkpt><trkpt lat="43.3358571" lon="12.1973168"><ele>292.0</ele><time>2026-05-02T09:59:17.751Z</time></trkpt><trkpt lat="43.3358042" lon="12.1970429"><ele>293.3333333333333</ele><time>2026-05-02T09:59:18.752Z</time></trkpt><trkpt lat="43.3357263" lon="12.1967882"><ele>294.6666666666667</ele><time>2026-05-02T09:59:19.758Z</time></trkpt><trkpt lat="43.3356402" lon="12.1965714"><ele>296.0</ele><time>2026-05-02T09:59:20.753Z</time></trkpt><trkpt lat="43.3355712" lon="12.1963844"><ele>296.0</ele><time>2026-05-02T09:59:21.751Z</time></trkpt><trkpt lat="43.3355305" lon="12.1961981"><ele>296.0</ele><time>2026-05-02T09:59:22.755Z</time></trkpt><trkpt lat="43.3355339" lon="12.1960146"><ele>296.0</ele><time>2026-05-02T09:59:23.756Z</time></trkpt><trkpt lat="43.3355809" lon="12.1958504"><ele>296.0</ele><time>2026-05-02T09:59:24.763Z</time></trkpt><trkpt lat="43.3356569" lon="12.1956888"><ele>295.0</ele><time>2026-05-02T09:59:25.739Z</time></trkpt><trkpt lat="43.3357385" lon="12.1955165"><ele>294.0</ele><time>2026-05-02T09:59:26.753Z</time></trkpt><trkpt lat="43.3358072" lon="12.1953278"><ele>293.0</ele><time>2026-05-02T09:59:27.759Z</time></trkpt><trkpt lat="43.3358457" lon="12.1951316"><ele>293.0</ele><time>2026-05-02T09:59:28.744Z</time></trkpt><trkpt lat="43.3358522" lon="12.1949306"><ele>293.0</ele><time>2026-05-02T09:59:29.751Z</time></trkpt><trkpt lat="43.335831" lon="12.194707"><ele>293.0</ele><time>2026-05-02T09:59:30.754Z</time></trkpt><trkpt lat="43.3357884" lon="12.1944672"><ele>294.33333333333337</ele><time>2026-05-02T09:59:31.749Z</time></trkpt><trkpt lat="43.3357341" lon="12.1942072"><ele>295.6666666666667</ele><time>2026-05-02T09:59:32.766Z</time></trkpt><trkpt lat="43.3356797" lon="12.1939401"><ele>297.0</ele><time>2026-05-02T09:59:33.76Z</time></trkpt><trkpt lat="43.335625" lon="12.1936629"><ele>297.0</ele><time>2026-05-02T09:59:34.745Z</time></trkpt><trkpt lat="43.3355683" lon="12.1933797"><ele>297.0</ele><time>2026-05-02T09:59:35.751Z</time></trkpt><trkpt lat="43.3355114" lon="12.1930901"><ele>297.0</ele><time>2026-05-02T09:59:36.746Z</time></trkpt><trkpt lat="43.3354557" lon="12.1928014"><ele>292.3333333333333</ele><time>2026-05-02T09:59:37.753Z</time></trkpt><trkpt lat="43.335398" lon="12.1925163"><ele>287.66666666666663</ele><time>2026-05-02T09:59:38.758Z</time></trkpt><trkpt lat="43.3353456" lon="12.1922348"><ele>283.0</ele><time>2026-05-02T09:59:39.757Z</time></trkpt><trkpt lat="43.335294" lon="12.1919595"><ele>283.0</ele><time>2026-05-02T09:59:40.757Z</time></trkpt><trkpt lat="43.3352401" lon="12.1916911"><ele>283.0</ele><time>2026-05-02T09:59:41.758Z</time></trkpt><trkpt lat="43.3351723" lon="12.1914377"><ele>283.0</ele><time>2026-05-02T09:59:42.772Z</time></trkpt><trkpt lat="43.3350795" lon="12.1912166"><ele>283.3333333333333</ele><time>2026-05-02T09:59:43.754Z</time></trkpt><trkpt lat="43.3349491" lon="12.1910268"><ele>283.6666666666667</ele><time>2026-05-02T09:59:44.763Z</time></trkpt><trkpt lat="43.3347923" lon="12.1908763"><ele>284.0</ele><time>2026-05-02T09:59:45.758Z</time></trkpt><trkpt lat="43.3346218" lon="12.1907241"><ele>284.6666666666667</ele><time>2026-05-02T09:59:46.758Z</time></trkpt><trkpt lat="43.334457" lon="12.1905502"><ele>285.3333333333333</ele><time>2026-05-02T09:59:47.77Z</time></trkpt><trkpt lat="43.3343038" lon="12.1903547"><ele>286.0</ele><time>2026-05-02T09:59:48.761Z</time></trkpt><trkpt lat="43.334173" lon="12.1901465"><ele>286.0</ele><time>2026-05-02T09:59:49.75Z</time></trkpt><trkpt lat="43.3340633" lon="12.1899234"><ele>286.0</ele><time>2026-05-02T09:59:50.758Z</time></trkpt><trkpt lat="43.3339691" lon="12.1896718"><ele>286.0</ele><time>2026-05-02T09:59:51.752Z</time></trkpt><trkpt lat="43.3338907" lon="12.1894003"><ele>285.3333333333333</ele><time>2026-05-02T09:59:52.751Z</time></trkpt><trkpt lat="43.3338296" lon="12.1891236"><ele>284.6666666666667</ele><time>2026-05-02T09:59:53.742Z</time></trkpt><trkpt lat="43.3337895" lon="12.1888563"><ele>284.0</ele><time>2026-05-02T09:59:54.739Z</time></trkpt><trkpt lat="43.3337766" lon="12.1885854"><ele>284.0</ele><time>2026-05-02T09:59:55.763Z</time></trkpt><trkpt lat="43.3337768" lon="12.1882958"><ele>284.0</ele><time>2026-05-02T09:59:56.751Z</time></trkpt><trkpt lat="43.333794" lon="12.1880073"><ele>284.0</ele><time>2026-05-02T09:59:57.751Z</time></trkpt><trkpt lat="43.3338133" lon="12.1877272"><ele>284.6666666666667</ele><time>2026-05-02T09:59:58.745Z</time></trkpt><trkpt lat="43.333831" lon="12.1874602"><ele>285.3333333333333</ele><time>2026-05-02T09:59:59.755Z</time></trkpt><trkpt lat="43.3338442" lon="12.187213"><ele>286.0</ele><time>2026-05-02T10:00:00.755Z</time></trkpt><trkpt lat="43.3338575" lon="12.18697"><ele>286.0</ele><time>2026-05-02T10:00:01.755Z</time></trkpt><trkpt lat="43.3338871" lon="12.1867335"><ele>286.0</ele><time>2026-05-02T10:00:02.764Z</time></trkpt><trkpt lat="43.3339451" lon="12.1864968"><ele>286.0</ele><time>2026-05-02T10:00:03.748Z</time></trkpt><trkpt lat="43.3340183" lon="12.1862547"><ele>286.3333333333333</ele><time>2026-05-02T10:00:04.754Z</time></trkpt><trkpt lat="43.3340838" lon="12.1859884"><ele>286.6666666666667</ele><time>2026-05-02T10:00:05.748Z</time></trkpt><trkpt lat="43.3341216" lon="12.1857035"><ele>287.0</ele><time>2026-05-02T10:00:06.755Z</time></trkpt><trkpt lat="43.3341361" lon="12.1854197"><ele>287.6666666666667</ele><time>2026-05-02T10:00:07.752Z</time></trkpt><trkpt lat="43.3341292" lon="12.1851331"><ele>288.3333333333333</ele><time>2026-05-02T10:00:08.755Z</time></trkpt><trkpt lat="43.3341099" lon="12.1848458"><ele>289.0</ele><time>2026-05-02T10:00:09.756Z</time></trkpt><trkpt lat="43.3340922" lon="12.1845568"><ele>290.3333333333333</ele><time>2026-05-02T10:00:10.766Z</time></trkpt><trkpt lat="43.3340826" lon="12.1842737"><ele>291.6666666666667</ele><time>2026-05-02T10:00:11.751Z</time></trkpt><trkpt lat="43.3340729" lon="12.1840004"><ele>293.0</ele><time>2026-05-02T10:00:12.766Z</time></trkpt><trkpt lat="43.3340645" lon="12.1837359"><ele>294.6666666666667</ele><time>2026-05-02T10:00:13.752Z</time></trkpt><trkpt lat="43.3340465" lon="12.1834704"><ele>296.3333333333333</ele><time>2026-05-02T10:00:14.761Z</time></trkpt><trkpt lat="43.3340141" lon="12.1831993"><ele>298.0</ele><time>2026-05-02T10:00:15.755Z</time></trkpt><trkpt lat="43.3339606" lon="12.1829302"><ele>295.0</ele><time>2026-05-02T10:00:16.741Z</time></trkpt><trkpt lat="43.3338835" lon="12.1826604"><ele>292.0</ele><time>2026-05-02T10:00:17.767Z</time></trkpt><trkpt lat="43.3337978" lon="12.1824084"><ele>289.0</ele><time>2026-05-02T10:00:18.755Z</time></trkpt><trkpt lat="43.3337048" lon="12.1821759"><ele>289.0</ele><time>2026-05-02T10:00:19.761Z</time></trkpt><trkpt lat="43.3335929" lon="12.1819593"><ele>289.0</ele><time>2026-05-02T10:00:20.753Z</time></trkpt><trkpt lat="43.3334585" lon="12.1817615"><ele>289.0</ele><time>2026-05-02T10:00:21.77Z</time></trkpt><trkpt lat="43.3333061" lon="12.1815925"><ele>289.0</ele><time>2026-05-02T10:00:22.754Z</time></trkpt><trkpt lat="43.3331454" lon="12.1814516"><ele>289.0</ele><time>2026-05-02T10:00:23.755Z</time></trkpt><trkpt lat="43.3329836" lon="12.181327"><ele>289.0</ele><time>2026-05-02T10:00:24.76Z</time></trkpt><trkpt lat="43.3328144" lon="12.1811992"><ele>289.0</ele><time>2026-05-02T10:00:25.749Z</time></trkpt><trkpt lat="43.3326446" lon="12.1810726"><ele>289.0</ele><time>2026-05-02T10:00:26.745Z</time></trkpt><trkpt lat="43.3324681" lon="12.1809504"><ele>289.0</ele><time>2026-05-02T10:00:27.751Z</time></trkpt><trkpt lat="43.3322788" lon="12.1808311"><ele>289.66666666666663</ele><time>2026-05-02T10:00:28.757Z</time></trkpt><trkpt lat="43.3320752" lon="12.1807439"><ele>290.3333333333333</ele><time>2026-05-02T10:00:29.749Z</time></trkpt><trkpt lat="43.3318664" lon="12.1806785"><ele>291.0</ele><time>2026-05-02T10:00:30.746Z</time></trkpt><trkpt lat="43.3316667" lon="12.1806123"><ele>291.0</ele><time>2026-05-02T10:00:31.764Z</time></trkpt><trkpt lat="43.331486" lon="12.1805312"><ele>291.0</ele><time>2026-05-02T10:00:32.754Z</time></trkpt><trkpt lat="43.3313346" lon="12.1804304"><ele>291.0</ele><time>2026-05-02T10:00:33.749Z</time></trkpt><trkpt lat="43.3312136" lon="12.1802917"><ele>291.0</ele><time>2026-05-02T10:00:34.745Z</time></trkpt><trkpt lat="43.3311133" lon="12.1801103"><ele>291.0</ele><time>2026-05-02T10:00:35.754Z</time></trkpt><trkpt lat="43.3310283" lon="12.1798744"><ele>291.0</ele><time>2026-05-02T10:00:36.739Z</time></trkpt><trkpt lat="43.3309491" lon="12.1796199"><ele>292.0</ele><time>2026-05-02T10:00:37.748Z</time></trkpt><trkpt lat="43.3308536" lon="12.1793611"><ele>293.0</ele><time>2026-05-02T10:00:38.757Z</time></trkpt><trkpt lat="43.3307472" lon="12.1791062"><ele>294.0</ele><time>2026-05-02T10:00:39.753Z</time></trkpt><trkpt lat="43.3306268" lon="12.1788548"><ele>294.3333333333333</ele><time>2026-05-02T10:00:40.766Z</time></trkpt><trkpt lat="43.3304986" lon="12.1786211"><ele>294.66666666666663</ele><time>2026-05-02T10:00:41.775Z</time></trkpt><trkpt lat="43.3303725" lon="12.1783891"><ele>295.0</ele><time>2026-05-02T10:00:42.757Z</time></trkpt><trkpt lat="43.3302476" lon="12.1781477"><ele>295.0</ele><time>2026-05-02T10:00:43.761Z</time></trkpt><trkpt lat="43.3301242" lon="12.1779178"><ele>295.0</ele><time>2026-05-02T10:00:44.765Z</time></trkpt><trkpt lat="43.3300027" lon="12.1776838"><ele>295.0</ele><time>2026-05-02T10:00:45.761Z</time></trkpt><trkpt lat="43.3298796" lon="12.1774625"><ele>295.3333333333333</ele><time>2026-05-02T10:00:46.743Z</time></trkpt><trkpt lat="43.3297482" lon="12.1772607"><ele>295.6666666666667</ele><time>2026-05-02T10:00:47.75Z</time></trkpt><trkpt lat="43.3295994" lon="12.177083"><ele>296.0</ele><time>2026-05-02T10:00:48.761Z</time></trkpt><trkpt lat="43.329433" lon="12.1769528"><ele>296.33333333333337</ele><time>2026-05-02T10:00:49.757Z</time></trkpt><trkpt lat="43.3292495" lon="12.1768579"><ele>296.6666666666667</ele><time>2026-05-02T10:00:50.756Z</time></trkpt><trkpt lat="43.3290567" lon="12.1767989"><ele>297.0</ele><time>2026-05-02T10:00:51.767Z</time></trkpt><trkpt lat="43.3288576" lon="12.1767832"><ele>295.6666666666667</ele><time>2026-05-02T10:00:52.761Z</time></trkpt><trkpt lat="43.3286539" lon="12.1767756"><ele>294.33333333333337</ele><time>2026-05-02T10:00:53.768Z</time></trkpt><trkpt lat="43.3284611" lon="12.1767531"><ele>293.0</ele><time>2026-05-02T10:00:54.74Z</time></trkpt><trkpt lat="43.3282815" lon="12.1766996"><ele>293.0</ele><time>2026-05-02T10:00:55.754Z</time></trkpt><trkpt lat="43.3281162" lon="12.176601"><ele>293.0</ele><time>2026-05-02T10:00:56.758Z</time></trkpt><trkpt lat="43.3279623" lon="12.1764418"><ele>293.0</ele><time>2026-05-02T10:00:57.758Z</time></trkpt><trkpt lat="43.3278201" lon="12.1762394"><ele>293.6666666666667</ele><time>2026-05-02T10:00:58.747Z</time></trkpt><trkpt lat="43.3276785" lon="12.1760158"><ele>294.3333333333333</ele><time>2026-05-02T10:00:59.738Z</time></trkpt><trkpt lat="43.3275298" lon="12.1757738"><ele>295.0</ele><time>2026-05-02T10:01:00.744Z</time></trkpt><trkpt lat="43.3273731" lon="12.1755383"><ele>293.5</ele><time>2026-05-02T10:01:01.747Z</time></trkpt><trkpt lat="43.3272194" lon="12.1752939"><ele>292.0</ele><time>2026-05-02T10:01:02.747Z</time></trkpt><trkpt lat="43.3270772" lon="12.1750341"><ele>294.0</ele><time>2026-05-02T10:01:03.75Z</time></trkpt><trkpt lat="43.3269494" lon="12.1747514"><ele>296.0</ele><time>2026-05-02T10:01:04.751Z</time></trkpt><trkpt lat="43.326837" lon="12.174459"><ele>296.0</ele><time>2026-05-02T10:01:05.754Z</time></trkpt><trkpt lat="43.3267287" lon="12.1741657"><ele>296.0</ele><time>2026-05-02T10:01:06.741Z</time></trkpt><trkpt lat="43.3266211" lon="12.1738716"><ele>294.0</ele><time>2026-05-02T10:01:07.746Z</time></trkpt><trkpt lat="43.3264985" lon="12.1735885"><ele>292.0</ele><time>2026-05-02T10:01:08.758Z</time></trkpt><trkpt lat="43.3263531" lon="12.1733272"><ele>298.0</ele><time>2026-05-02T10:01:09.75Z</time></trkpt><trkpt lat="43.3261808" lon="12.173109"><ele>304.0</ele><time>2026-05-02T10:01:10.742Z</time></trkpt><trkpt lat="43.3260054" lon="12.1729324"><ele>304.0</ele><time>2026-05-02T10:01:11.754Z</time></trkpt><trkpt lat="43.3258296" lon="12.1727662"><ele>304.0</ele><time>2026-05-02T10:01:12.745Z</time></trkpt><trkpt lat="43.3256702" lon="12.1725731"><ele>304.0</ele><time>2026-05-02T10:01:13.75Z</time></trkpt><trkpt lat="43.3255377" lon="12.1723424"><ele>300.5</ele><time>2026-05-02T10:01:14.753Z</time></trkpt><trkpt lat="43.3254187" lon="12.1720741"><ele>297.0</ele><time>2026-05-02T10:01:15.737Z</time></trkpt><trkpt lat="43.3253029" lon="12.1717997"><ele>299.6666666666667</ele><time>2026-05-02T10:01:16.74Z</time></trkpt><trkpt lat="43.3251953" lon="12.1715214"><ele>302.33333333333337</ele><time>2026-05-02T10:01:17.746Z</time></trkpt><trkpt lat="43.3251071" lon="12.1712501"><ele>305.0</ele><time>2026-05-02T10:01:18.748Z</time></trkpt><trkpt lat="43.3250299" lon="12.1710039"><ele>305.0</ele><time>2026-05-02T10:01:19.751Z</time></trkpt><trkpt lat="43.3249307" lon="12.1708048"><ele>305.0</ele><time>2026-05-02T10:01:20.757Z</time></trkpt><trkpt lat="43.3248" lon="12.1706532"><ele>305.0</ele><time>2026-05-02T10:01:21.765Z</time></trkpt><trkpt lat="43.3246511" lon="12.170533"><ele>304.6666666666667</ele><time>2026-05-02T10:01:22.756Z</time></trkpt><trkpt lat="43.3244939" lon="12.1704556"><ele>304.3333333333333</ele><time>2026-05-02T10:01:23.751Z</time></trkpt><trkpt lat="43.3243458" lon="12.1703439"><ele>304.0</ele><time>2026-05-02T10:01:24.75Z</time></trkpt><trkpt lat="43.3242182" lon="12.1701788"><ele>304.0</ele><time>2026-05-02T10:01:25.749Z</time></trkpt><trkpt lat="43.3241077" lon="12.1699628"><ele>304.0</ele><time>2026-05-02T10:01:26.743Z</time></trkpt><trkpt lat="43.3239979" lon="12.1697465"><ele>304.0</ele><time>2026-05-02T10:01:27.749Z</time></trkpt><trkpt lat="43.3238839" lon="12.169555"><ele>304.3333333333333</ele><time>2026-05-02T10:01:28.738Z</time></trkpt><trkpt lat="43.3237793" lon="12.1693872"><ele>304.6666666666667</ele><time>2026-05-02T10:01:29.742Z</time></trkpt><trkpt lat="43.3236861" lon="12.1692142"><ele>305.0</ele><time>2026-05-02T10:01:30.748Z</time></trkpt><trkpt lat="43.3236052" lon="12.1690216"><ele>305.0</ele><time>2026-05-02T10:01:31.748Z</time></trkpt><trkpt lat="43.3235329" lon="12.1687938"><ele>305.0</ele><time>2026-05-02T10:01:32.746Z</time></trkpt><trkpt lat="43.3234637" lon="12.1685414"><ele>305.0</ele><time>2026-05-02T10:01:33.749Z</time></trkpt><trkpt lat="43.3233843" lon="12.168275"><ele>306.0</ele><time>2026-05-02T10:01:34.761Z</time></trkpt><trkpt lat="43.3233029" lon="12.1680015"><ele>307.0</ele><time>2026-05-02T10:01:35.742Z</time></trkpt><trkpt lat="43.3232253" lon="12.167744"><ele>308.0</ele><time>2026-05-02T10:01:36.74Z</time></trkpt><trkpt lat="43.3231597" lon="12.1675067"><ele>308.0</ele><time>2026-05-02T10:01:37.757Z</time></trkpt><trkpt lat="43.323119" lon="12.1672869"><ele>308.0</ele><time>2026-05-02T10:01:38.754Z</time></trkpt><trkpt lat="43.323104" lon="12.1670613"><ele>308.0</ele><time>2026-05-02T10:01:39.754Z</time></trkpt><trkpt lat="43.3231142" lon="12.1668073"><ele>308.0</ele><time>2026-05-02T10:01:40.757Z</time></trkpt><trkpt lat="43.3231326" lon="12.1665304"><ele>308.0</ele><time>2026-05-02T10:01:41.751Z</time></trkpt><trkpt lat="43.3231473" lon="12.1662356"><ele>308.0</ele><time>2026-05-02T10:01:42.751Z</time></trkpt><trkpt lat="43.3231607" lon="12.1659303"><ele>309.0</ele><time>2026-05-02T10:01:43.75Z</time></trkpt><trkpt lat="43.3231755" lon="12.1656218"><ele>310.0</ele><time>2026-05-02T10:01:44.758Z</time></trkpt><trkpt lat="43.3231901" lon="12.1653171"><ele>311.0</ele><time>2026-05-02T10:01:45.754Z</time></trkpt><trkpt lat="43.3232117" lon="12.1650167"><ele>311.33333333333337</ele><time>2026-05-02T10:01:46.755Z</time></trkpt><trkpt lat="43.3232322" lon="12.164729"><ele>311.6666666666667</ele><time>2026-05-02T10:01:47.757Z</time></trkpt><trkpt lat="43.3232453" lon="12.1644447"><ele>312.0</ele><time>2026-05-02T10:01:48.746Z</time></trkpt><trkpt lat="43.3232513" lon="12.1641667"><ele>312.0</ele><time>2026-05-02T10:01:49.75Z</time></trkpt><trkpt lat="43.3232418" lon="12.1638895"><ele>312.0</ele><time>2026-05-02T10:01:50.747Z</time></trkpt><trkpt lat="43.3232243" lon="12.1636129"><ele>312.0</ele><time>2026-05-02T10:01:51.75Z</time></trkpt><trkpt lat="43.3232043" lon="12.163342"><ele>312.0</ele><time>2026-05-02T10:01:52.754Z</time></trkpt><trkpt lat="43.3231913" lon="12.1630686"><ele>312.0</ele><time>2026-05-02T10:01:53.748Z</time></trkpt><trkpt lat="43.3231913" lon="12.1627877"><ele>312.0</ele><time>2026-05-02T10:01:54.752Z</time></trkpt><trkpt lat="43.3231994" lon="12.1625002"><ele>311.0</ele><time>2026-05-02T10:01:55.753Z</time></trkpt><trkpt lat="43.3232115" lon="12.1622019"><ele>310.0</ele><time>2026-05-02T10:01:56.755Z</time></trkpt><trkpt lat="43.3232201" lon="12.1618985"><ele>309.0</ele><time>2026-05-02T10:01:57.759Z</time></trkpt><trkpt lat="43.3232249" lon="12.1615872"><ele>309.0</ele><time>2026-05-02T10:01:58.752Z</time></trkpt><trkpt lat="43.3232242" lon="12.1612724"><ele>309.0</ele><time>2026-05-02T10:01:59.745Z</time></trkpt><trkpt lat="43.323211" lon="12.1609695"><ele>308.6666666666667</ele><time>2026-05-02T10:02:00.754Z</time></trkpt><trkpt lat="43.3231842" lon="12.1606883"><ele>308.33333333333337</ele><time>2026-05-02T10:02:01.752Z</time></trkpt><trkpt lat="43.3231591" lon="12.1604258"><ele>308.0</ele><time>2026-05-02T10:02:02.75Z</time></trkpt><trkpt lat="43.3231456" lon="12.1601801"><ele>308.0</ele><time>2026-05-02T10:02:03.748Z</time></trkpt><trkpt lat="43.3231735" lon="12.159953"><ele>308.0</ele><time>2026-05-02T10:02:04.749Z</time></trkpt><trkpt lat="43.323253" lon="12.1597497"><ele>308.0</ele><time>2026-05-02T10:02:05.757Z</time></trkpt><trkpt lat="43.3233717" lon="12.1595695"><ele>305.6666666666667</ele><time>2026-05-02T10:02:06.746Z</time></trkpt><trkpt lat="43.3235164" lon="12.1594233"><ele>303.3333333333333</ele><time>2026-05-02T10:02:07.739Z</time></trkpt><trkpt lat="43.3236659" lon="12.1593159"><ele>301.0</ele><time>2026-05-02T10:02:08.749Z</time></trkpt><trkpt lat="43.3237947" lon="12.1592252"><ele>301.0</ele><time>2026-05-02T10:02:09.738Z</time></trkpt><trkpt lat="43.3238954" lon="12.1591286"><ele>301.0</ele><time>2026-05-02T10:02:10.756Z</time></trkpt><trkpt lat="43.323968" lon="12.1590152"><ele>301.0</ele><time>2026-05-02T10:02:11.753Z</time></trkpt><trkpt lat="43.3240176" lon="12.1588843"><ele>301.0</ele><time>2026-05-02T10:02:12.748Z</time></trkpt><trkpt lat="43.3240675" lon="12.1587376"><ele>302.0</ele><time>2026-05-02T10:02:13.737Z</time></trkpt><trkpt lat="43.3241289" lon="12.1585717"><ele>303.0</ele><time>2026-05-02T10:02:14.754Z</time></trkpt><trkpt lat="43.3241911" lon="12.1583906"><ele>304.0</ele><time>2026-05-02T10:02:15.753Z</time></trkpt><trkpt lat="43.3242557" lon="12.1581982"><ele>305.0</ele><time>2026-05-02T10:02:16.756Z</time></trkpt><trkpt lat="43.3243184" lon="12.1580029"><ele>305.0</ele><time>2026-05-02T10:02:17.753Z</time></trkpt><trkpt lat="43.3243822" lon="12.1578122"><ele>305.0</ele><time>2026-05-02T10:02:18.751Z</time></trkpt><trkpt lat="43.3244416" lon="12.1576317"><ele>305.0</ele><time>2026-05-02T10:02:19.753Z</time></trkpt><trkpt lat="43.3244896" lon="12.1574591"><ele>305.0</ele><time>2026-05-02T10:02:20.751Z</time></trkpt><trkpt lat="43.3245269" lon="12.1572856"><ele>304.75</ele><time>2026-05-02T10:02:21.754Z</time></trkpt><trkpt lat="43.3245515" lon="12.1570954"><ele>304.5</ele><time>2026-05-02T10:02:22.744Z</time></trkpt><trkpt lat="43.3245475" lon="12.1568902"><ele>304.25</ele><time>2026-05-02T10:02:23.758Z</time></trkpt><trkpt lat="43.3245078" lon="12.1566856"><ele>304.0</ele><time>2026-05-02T10:02:24.742Z</time></trkpt><trkpt lat="43.3244379" lon="12.1564919"><ele>305.0</ele><time>2026-05-02T10:02:25.76Z</time></trkpt><trkpt lat="43.3243602" lon="12.1562964"><ele>306.0</ele><time>2026-05-02T10:02:26.756Z</time></trkpt><trkpt lat="43.3242952" lon="12.1560933"><ele>307.0</ele><time>2026-05-02T10:02:27.756Z</time></trkpt><trkpt lat="43.3242708" lon="12.1558777"><ele>307.0</ele><time>2026-05-02T10:02:28.75Z</time></trkpt><trkpt lat="43.3242802" lon="12.155686"><ele>307.0</ele><time>2026-05-02T10:02:29.752Z</time></trkpt><trkpt lat="43.3242819" lon="12.1555299"><ele>307.0</ele><time>2026-05-02T10:02:30.766Z</time></trkpt><trkpt lat="43.3242984" lon="12.1553558"><ele>307.0</ele><time>2026-05-02T10:02:31.757Z</time></trkpt><trkpt lat="43.3243184" lon="12.1551745"><ele>307.0</ele><time>2026-05-02T10:02:32.744Z</time></trkpt><trkpt lat="43.3243406" lon="12.1549952"><ele>307.0</ele><time>2026-05-02T10:02:33.76Z</time></trkpt><trkpt lat="43.3243742" lon="12.1548115"><ele>307.0</ele><time>2026-05-02T10:02:34.76Z</time></trkpt><trkpt lat="43.3244169" lon="12.1546249"><ele>307.0</ele><time>2026-05-02T10:02:35.761Z</time></trkpt><trkpt lat="43.3244702" lon="12.1544424"><ele>306.75</ele><time>2026-05-02T10:02:36.757Z</time></trkpt><trkpt lat="43.3245289" lon="12.154266"><ele>306.5</ele><time>2026-05-02T10:02:37.754Z</time></trkpt><trkpt lat="43.3245904" lon="12.1540896"><ele>306.25</ele><time>2026-05-02T10:02:38.751Z</time></trkpt><trkpt lat="43.3246657" lon="12.1539146"><ele>306.0</ele><time>2026-05-02T10:02:39.756Z</time></trkpt><trkpt lat="43.3247711" lon="12.15376"><ele>306.6666666666667</ele><time>2026-05-02T10:02:40.752Z</time></trkpt><trkpt lat="43.3249168" lon="12.1536394"><ele>307.33333333333337</ele><time>2026-05-02T10:02:41.759Z</time></trkpt><trkpt lat="43.3250914" lon="12.1535399"><ele>308.0</ele><time>2026-05-02T10:02:42.748Z</time></trkpt><trkpt lat="43.3252657" lon="12.1534123"><ele>308.0</ele><time>2026-05-02T10:02:43.754Z</time></trkpt><trkpt lat="43.3254254" lon="12.1532304"><ele>308.0</ele><time>2026-05-02T10:02:44.757Z</time></trkpt><trkpt lat="43.3255741" lon="12.1530004"><ele>308.0</ele><time>2026-05-02T10:02:45.752Z</time></trkpt><trkpt lat="43.325721" lon="12.152756"><ele>309.6666666666667</ele><time>2026-05-02T10:02:46.752Z</time></trkpt><trkpt lat="43.3258529" lon="12.1525207"><ele>311.3333333333333</ele><time>2026-05-02T10:02:47.755Z</time></trkpt><trkpt lat="43.3259637" lon="12.1523143"><ele>313.0</ele><time>2026-05-02T10:02:48.762Z</time></trkpt><trkpt lat="43.3260385" lon="12.1521208"><ele>313.0</ele><time>2026-05-02T10:02:49.754Z</time></trkpt><trkpt lat="43.3260499" lon="12.1519188"><ele>313.0</ele><time>2026-05-02T10:02:50.751Z</time></trkpt><trkpt lat="43.3260165" lon="12.1517227"><ele>313.0</ele><time>2026-05-02T10:02:51.75Z</time></trkpt><trkpt lat="43.3259401" lon="12.1515401"><ele>313.0</ele><time>2026-05-02T10:02:52.751Z</time></trkpt><trkpt lat="43.3258225" lon="12.1513976"><ele>316.3333333333333</ele><time>2026-05-02T10:02:53.76Z</time></trkpt><trkpt lat="43.3256749" lon="12.1513221"><ele>319.6666666666667</ele><time>2026-05-02T10:02:54.75Z</time></trkpt><trkpt lat="43.3255135" lon="12.1513262"><ele>323.0</ele><time>2026-05-02T10:02:55.754Z</time></trkpt><trkpt lat="43.3253419" lon="12.1513869"><ele>324.6666666666667</ele><time>2026-05-02T10:02:56.745Z</time></trkpt><trkpt lat="43.3251505" lon="12.1514853"><ele>326.3333333333333</ele><time>2026-05-02T10:02:57.746Z</time></trkpt><trkpt lat="43.3249616" lon="12.1515884"><ele>328.0</ele><time>2026-05-02T10:02:58.762Z</time></trkpt><trkpt lat="43.3247878" lon="12.1516805"><ele>323.25</ele><time>2026-05-02T10:02:59.767Z</time></trkpt><trkpt lat="43.3246372" lon="12.1517451"><ele>318.5</ele><time>2026-05-02T10:03:00.756Z</time></trkpt><trkpt lat="43.3245101" lon="12.1517608"><ele>313.75</ele><time>2026-05-02T10:03:01.75Z</time></trkpt><trkpt lat="43.3244125" lon="12.151703"><ele>309.0</ele><time>2026-05-02T10:03:02.756Z</time></trkpt><trkpt lat="43.3243514" lon="12.1515688"><ele>310.6666666666667</ele><time>2026-05-02T10:03:03.746Z</time></trkpt><trkpt lat="43.3243295" lon="12.1513787"><ele>312.33333333333337</ele><time>2026-05-02T10:03:04.739Z</time></trkpt><trkpt lat="43.3243467" lon="12.1511721"><ele>314.0</ele><time>2026-05-02T10:03:05.736Z</time></trkpt><trkpt lat="43.3243918" lon="12.1509491"><ele>314.0</ele><time>2026-05-02T10:03:06.753Z</time></trkpt><trkpt lat="43.3244201" lon="12.1507367"><ele>314.0</ele><time>2026-05-02T10:03:07.75Z</time></trkpt><trkpt lat="43.3244042" lon="12.1505277"><ele>314.0</ele><time>2026-05-02T10:03:08.754Z</time></trkpt><trkpt lat="43.3243561" lon="12.1503222"><ele>316.6666666666667</ele><time>2026-05-02T10:03:09.749Z</time></trkpt><trkpt lat="43.3242965" lon="12.1501212"><ele>319.3333333333333</ele><time>2026-05-02T10:03:10.751Z</time></trkpt><trkpt lat="43.3242361" lon="12.1499255"><ele>322.0</ele><time>2026-05-02T10:03:11.749Z</time></trkpt><trkpt lat="43.3241833" lon="12.1497354"><ele>324.0</ele><time>2026-05-02T10:03:12.752Z</time></trkpt><trkpt lat="43.324132" lon="12.1495475"><ele>326.0</ele><time>2026-05-02T10:03:13.747Z</time></trkpt><trkpt lat="43.3240854" lon="12.1493505"><ele>328.0</ele><time>2026-05-02T10:03:14.749Z</time></trkpt><trkpt lat="43.3240405" lon="12.1491417"><ele>331.3333333333333</ele><time>2026-05-02T10:03:15.75Z</time></trkpt><trkpt lat="43.3240027" lon="12.1489196"><ele>334.6666666666667</ele><time>2026-05-02T10:03:16.752Z</time></trkpt><trkpt lat="43.3239692" lon="12.1487163"><ele>338.0</ele><time>2026-05-02T10:03:17.751Z</time></trkpt><trkpt lat="43.3239328" lon="12.1485418"><ele>337.59999999999997</ele><time>2026-05-02T10:03:18.751Z</time></trkpt><trkpt lat="43.3238832" lon="12.1484029"><ele>337.2</ele><time>2026-05-02T10:03:19.758Z</time></trkpt><trkpt lat="43.3238308" lon="12.1482969"><ele>336.8</ele><time>2026-05-02T10:03:20.743Z</time></trkpt><trkpt lat="43.3237825" lon="12.1482099"><ele>336.4</ele><time>2026-05-02T10:03:21.754Z</time></trkpt><trkpt lat="43.3237237" lon="12.1480731"><ele>336.0</ele><time>2026-05-02T10:03:23.761Z</time></trkpt><trkpt lat="43.3236969" lon="12.1479771"><ele>336.0</ele><time>2026-05-02T10:03:25.75Z</time></trkpt><trkpt lat="43.3236453" lon="12.1478982"><ele>336.0</ele><time>2026-05-02T10:04:14.766Z</time></trkpt><trkpt lat="43.3236245" lon="12.1479877"><ele>336.0</ele><time>2026-05-02T10:04:17.751Z</time></trkpt><trkpt lat="43.3236717" lon="12.1480977"><ele>336.0</ele><time>2026-05-02T10:04:19.746Z</time></trkpt><trkpt lat="43.3237206" lon="12.1481799"><ele>336.0</ele><time>2026-05-02T10:04:20.748Z</time></trkpt><trkpt lat="43.3237816" lon="12.1482807"><ele>336.0</ele><time>2026-05-02T10:04:21.76Z</time></trkpt><trkpt lat="43.3238472" lon="12.148405"><ele>336.5</ele><time>2026-05-02T10:04:22.756Z</time></trkpt><trkpt lat="43.3239046" lon="12.1485611"><ele>337.0</ele><time>2026-05-02T10:04:23.741Z</time></trkpt><trkpt lat="43.3239521" lon="12.1487331"><ele>337.5</ele><time>2026-05-02T10:04:24.75Z</time></trkpt><trkpt lat="43.3239861" lon="12.1489111"><ele>338.0</ele><time>2026-05-02T10:04:25.751Z</time></trkpt><trkpt lat="43.3240132" lon="12.1490763"><ele>335.5</ele><time>2026-05-02T10:04:26.746Z</time></trkpt><trkpt lat="43.3240413" lon="12.1492383"><ele>333.0</ele><time>2026-05-02T10:04:27.753Z</time></trkpt><trkpt lat="43.3240726" lon="12.1494016"><ele>330.5</ele><time>2026-05-02T10:04:28.73Z</time></trkpt><trkpt lat="43.3241139" lon="12.1495738"><ele>328.0</ele><time>2026-05-02T10:04:29.746Z</time></trkpt><trkpt lat="43.3241613" lon="12.1497465"><ele>326.5</ele><time>2026-05-02T10:04:30.748Z</time></trkpt><trkpt lat="43.3242066" lon="12.1499182"><ele>325.0</ele><time>2026-05-02T10:04:31.757Z</time></trkpt><trkpt lat="43.3242517" lon="12.1500918"><ele>323.5</ele><time>2026-05-02T10:04:32.751Z</time></trkpt><trkpt lat="43.3242972" lon="12.1502617"><ele>322.0</ele><time>2026-05-02T10:04:33.754Z</time></trkpt><trkpt lat="43.3243396" lon="12.1504261"><ele>322.0</ele><time>2026-05-02T10:04:34.743Z</time></trkpt><trkpt lat="43.3243679" lon="12.1505869"><ele>322.0</ele><time>2026-05-02T10:04:35.753Z</time></trkpt><trkpt lat="43.3243751" lon="12.1507578"><ele>322.0</ele><time>2026-05-02T10:04:36.746Z</time></trkpt><trkpt lat="43.3243602" lon="12.1509362"><ele>322.0</ele><time>2026-05-02T10:04:37.756Z</time></trkpt><trkpt lat="43.3243342" lon="12.151117"><ele>320.0</ele><time>2026-05-02T10:04:38.753Z</time></trkpt><trkpt lat="43.3243118" lon="12.151295"><ele>318.0</ele><time>2026-05-02T10:04:39.749Z</time></trkpt><trkpt lat="43.3243052" lon="12.1514603"><ele>316.0</ele><time>2026-05-02T10:04:40.75Z</time></trkpt><trkpt lat="43.3243324" lon="12.1516059"><ele>314.0</ele><time>2026-05-02T10:04:41.759Z</time></trkpt><trkpt lat="43.324393" lon="12.1517206"><ele>313.75</ele><time>2026-05-02T10:04:42.747Z</time></trkpt><trkpt lat="43.3244859" lon="12.1517794"><ele>313.5</ele><time>2026-05-02T10:04:43.764Z</time></trkpt><trkpt lat="43.3246018" lon="12.1517822"><ele>313.25</ele><time>2026-05-02T10:04:44.77Z</time></trkpt><trkpt lat="43.3247248" lon="12.1517308"><ele>313.0</ele><time>2026-05-02T10:04:45.747Z</time></trkpt><trkpt lat="43.3248621" lon="12.1516588"><ele>313.0</ele><time>2026-05-02T10:04:46.752Z</time></trkpt><trkpt lat="43.3249992" lon="12.151579"><ele>313.0</ele><time>2026-05-02T10:04:47.758Z</time></trkpt><trkpt lat="43.3251397" lon="12.1515057"><ele>313.0</ele><time>2026-05-02T10:04:48.758Z</time></trkpt><trkpt lat="43.3252836" lon="12.1514449"><ele>315.5</ele><time>2026-05-02T10:04:49.744Z</time></trkpt><trkpt lat="43.3254208" lon="12.1513947"><ele>318.0</ele><time>2026-05-02T10:04:50.752Z</time></trkpt><trkpt lat="43.3255516" lon="12.1513608"><ele>320.5</ele><time>2026-05-02T10:04:51.755Z</time></trkpt><trkpt lat="43.3256837" lon="12.1513687"><ele>323.0</ele><time>2026-05-02T10:04:52.752Z</time></trkpt><trkpt lat="43.3258254" lon="12.1514413"><ele>320.5</ele><time>2026-05-02T10:04:53.748Z</time></trkpt><trkpt lat="43.325932" lon="12.1515677"><ele>318.0</ele><time>2026-05-02T10:04:54.751Z</time></trkpt><trkpt lat="43.3259963" lon="12.1517318"><ele>315.5</ele><time>2026-05-02T10:04:55.756Z</time></trkpt><trkpt lat="43.3260217" lon="12.1519212"><ele>313.0</ele><time>2026-05-02T10:04:56.752Z</time></trkpt><trkpt lat="43.326008" lon="12.1521139"><ele>313.0</ele><time>2026-05-02T10:04:57.745Z</time></trkpt><trkpt lat="43.3259518" lon="12.1522921"><ele>313.0</ele><time>2026-05-02T10:04:58.757Z</time></trkpt><trkpt lat="43.3258587" lon="12.1524614"><ele>313.0</ele><time>2026-05-02T10:04:59.746Z</time></trkpt><trkpt lat="43.3257579" lon="12.152637"><ele>313.3333333333333</ele><time>2026-05-02T10:05:00.747Z</time></trkpt><trkpt lat="43.3256535" lon="12.1528022"><ele>313.6666666666667</ele><time>2026-05-02T10:05:01.755Z</time></trkpt><trkpt lat="43.3255587" lon="12.1529626"><ele>314.0</ele><time>2026-05-02T10:05:02.749Z</time></trkpt><trkpt lat="43.3254593" lon="12.1531169"><ele>312.0</ele><time>2026-05-02T10:05:03.751Z</time></trkpt><trkpt lat="43.3253489" lon="12.1532641"><ele>310.0</ele><time>2026-05-02T10:05:04.756Z</time></trkpt><trkpt lat="43.3252224" lon="12.1533962"><ele>308.0</ele><time>2026-05-02T10:05:05.755Z</time></trkpt><trkpt lat="43.3250839" lon="12.1535002"><ele>308.0</ele><time>2026-05-02T10:05:06.751Z</time></trkpt><trkpt lat="43.3249419" lon="12.1535882"><ele>308.0</ele><time>2026-05-02T10:05:07.746Z</time></trkpt><trkpt lat="43.3248088" lon="12.1536866"><ele>308.0</ele><time>2026-05-02T10:05:08.75Z</time></trkpt><trkpt lat="43.3246894" lon="12.1538179"><ele>307.5</ele><time>2026-05-02T10:05:09.751Z</time></trkpt><trkpt lat="43.3245963" lon="12.1539815"><ele>307.0</ele><time>2026-05-02T10:05:10.748Z</time></trkpt><trkpt lat="43.32453" lon="12.1541696"><ele>306.5</ele><time>2026-05-02T10:05:11.76Z</time></trkpt><trkpt lat="43.3244737" lon="12.1543545"><ele>306.0</ele><time>2026-05-02T10:05:12.741Z</time></trkpt><trkpt lat="43.3244177" lon="12.1545432"><ele>306.0</ele><time>2026-05-02T10:05:13.75Z</time></trkpt><trkpt lat="43.3243649" lon="12.1547404"><ele>306.0</ele><time>2026-05-02T10:05:14.758Z</time></trkpt><trkpt lat="43.3243302" lon="12.1549462"><ele>306.0</ele><time>2026-05-02T10:05:15.745Z</time></trkpt><trkpt lat="43.3243062" lon="12.1551522"><ele>306.3333333333333</ele><time>2026-05-02T10:05:16.766Z</time></trkpt><trkpt lat="43.3242878" lon="12.1553573"><ele>306.66666666666663</ele><time>2026-05-02T10:05:17.747Z</time></trkpt><trkpt lat="43.3242675" lon="12.1555641"><ele>307.0</ele><time>2026-05-02T10:05:18.752Z</time></trkpt><trkpt lat="43.3242492" lon="12.155767"><ele>307.0</ele><time>2026-05-02T10:05:19.753Z</time></trkpt><trkpt lat="43.3242619" lon="12.1559727"><ele>307.0</ele><time>2026-05-02T10:05:20.758Z</time></trkpt><trkpt lat="43.3243105" lon="12.1561758"><ele>307.0</ele><time>2026-05-02T10:05:21.746Z</time></trkpt><trkpt lat="43.3243796" lon="12.1563778"><ele>306.0</ele><time>2026-05-02T10:05:22.755Z</time></trkpt><trkpt lat="43.3244484" lon="12.1565831"><ele>305.0</ele><time>2026-05-02T10:05:23.751Z</time></trkpt><trkpt lat="43.3245041" lon="12.1567954"><ele>304.0</ele><time>2026-05-02T10:05:24.75Z</time></trkpt><trkpt lat="43.3245228" lon="12.1570125"><ele>304.0</ele><time>2026-05-02T10:05:25.745Z</time></trkpt><trkpt lat="43.3245178" lon="12.1572351"><ele>304.0</ele><time>2026-05-02T10:05:26.752Z</time></trkpt><trkpt lat="43.3244783" lon="12.1574471"><ele>304.0</ele><time>2026-05-02T10:05:27.747Z</time></trkpt><trkpt lat="43.3244216" lon="12.1576522"><ele>304.25</ele><time>2026-05-02T10:05:28.756Z</time></trkpt><trkpt lat="43.3243571" lon="12.1578477"><ele>304.5</ele><time>2026-05-02T10:05:29.756Z</time></trkpt><trkpt lat="43.3242983" lon="12.1580356"><ele>304.75</ele><time>2026-05-02T10:05:30.748Z</time></trkpt><trkpt lat="43.3242364" lon="12.1582128"><ele>305.0</ele><time>2026-05-02T10:05:31.756Z</time></trkpt><trkpt lat="43.3241776" lon="12.1583731"><ele>305.2</ele><time>2026-05-02T10:05:32.749Z</time></trkpt><trkpt lat="43.324126" lon="12.1585174"><ele>305.4</ele><time>2026-05-02T10:05:33.749Z</time></trkpt><trkpt lat="43.324085" lon="12.1586348"><ele>305.6</ele><time>2026-05-02T10:05:34.75Z</time></trkpt><trkpt lat="43.3240548" lon="12.1587194"><ele>305.8</ele><time>2026-05-02T10:05:35.755Z</time></trkpt><trkpt lat="43.3239764" lon="12.1588292"><ele>306.0</ele><time>2026-05-02T10:05:37.743Z</time></trkpt><trkpt lat="43.3238898" lon="12.1587803"><ele>304.25</ele><time>2026-05-02T10:05:39.75Z</time></trkpt><trkpt lat="43.3238175" lon="12.1587118"><ele>302.5</ele><time>2026-05-02T10:05:40.749Z</time></trkpt><trkpt lat="43.3237074" lon="12.1586554"><ele>300.75</ele><time>2026-05-02T10:05:41.753Z</time></trkpt><trkpt lat="43.3235788" lon="12.1586118"><ele>299.0</ele><time>2026-05-02T10:05:42.758Z</time></trkpt><trkpt lat="43.3234536" lon="12.158569"><ele>299.0</ele><time>2026-05-02T10:05:43.755Z</time></trkpt><trkpt lat="43.3233438" lon="12.1585357"><ele>299.0</ele><time>2026-05-02T10:05:44.754Z</time></trkpt><trkpt lat="43.3232447" lon="12.1585329"><ele>299.0</ele><time>2026-05-02T10:05:45.75Z</time></trkpt><trkpt lat="43.3231431" lon="12.1585831"><ele>299.0</ele><time>2026-05-02T10:05:46.756Z</time></trkpt><trkpt lat="43.3230371" lon="12.1586922"><ele>297.6666666666667</ele><time>2026-05-02T10:05:47.751Z</time></trkpt><trkpt lat="43.3229248" lon="12.1588499"><ele>296.3333333333333</ele><time>2026-05-02T10:05:48.762Z</time></trkpt><trkpt lat="43.3228064" lon="12.1590202"><ele>295.0</ele><time>2026-05-02T10:05:49.744Z</time></trkpt><trkpt lat="43.3226802" lon="12.1591963"><ele>294.66666666666663</ele><time>2026-05-02T10:05:50.754Z</time></trkpt><trkpt lat="43.3225558" lon="12.1593646"><ele>294.3333333333333</ele><time>2026-05-02T10:05:51.765Z</time></trkpt><trkpt lat="43.3224287" lon="12.1595087"><ele>294.0</ele><time>2026-05-02T10:05:52.765Z</time></trkpt><trkpt lat="43.3222848" lon="12.1596327"><ele>293.6666666666667</ele><time>2026-05-02T10:05:53.757Z</time></trkpt><trkpt lat="43.3221088" lon="12.1597272"><ele>293.33333333333337</ele><time>2026-05-02T10:05:54.766Z</time></trkpt><trkpt lat="43.3219234" lon="12.1598039"><ele>293.0</ele><time>2026-05-02T10:05:55.742Z</time></trkpt><trkpt lat="43.3217674" lon="12.1598583"><ele>293.25</ele><time>2026-05-02T10:05:56.754Z</time></trkpt><trkpt lat="43.3216482" lon="12.1598875"><ele>293.5</ele><time>2026-05-02T10:05:57.751Z</time></trkpt><trkpt lat="43.3215415" lon="12.1599041"><ele>293.75</ele><time>2026-05-02T10:05:58.751Z</time></trkpt><trkpt lat="43.3214307" lon="12.159908"><ele>294.0</ele><time>2026-05-02T10:05:59.757Z</time></trkpt><trkpt lat="43.3213019" lon="12.1599049"><ele>294.3333333333333</ele><time>2026-05-02T10:06:00.746Z</time></trkpt><trkpt lat="43.321156" lon="12.159913"><ele>294.66666666666663</ele><time>2026-05-02T10:06:01.756Z</time></trkpt><trkpt lat="43.3209949" lon="12.1599338"><ele>295.0</ele><time>2026-05-02T10:06:02.751Z</time></trkpt><trkpt lat="43.3208274" lon="12.1599645"><ele>295.0</ele><time>2026-05-02T10:06:03.753Z</time></trkpt><trkpt lat="43.320666" lon="12.1600043"><ele>295.0</ele><time>2026-05-02T10:06:04.752Z</time></trkpt><trkpt lat="43.3205118" lon="12.1600443"><ele>295.0</ele><time>2026-05-02T10:06:05.753Z</time></trkpt><trkpt lat="43.3203645" lon="12.160084"><ele>296.0</ele><time>2026-05-02T10:06:06.743Z</time></trkpt><trkpt lat="43.320224" lon="12.1601236"><ele>297.0</ele><time>2026-05-02T10:06:07.764Z</time></trkpt><trkpt lat="43.3200902" lon="12.1601775"><ele>298.0</ele><time>2026-05-02T10:06:08.755Z</time></trkpt><trkpt lat="43.3199737" lon="12.1602699"><ele>299.0</ele><time>2026-05-02T10:06:09.753Z</time></trkpt><trkpt lat="43.3198692" lon="12.160397"><ele>299.0</ele><time>2026-05-02T10:06:10.749Z</time></trkpt><trkpt lat="43.3197825" lon="12.1605465"><ele>299.0</ele><time>2026-05-02T10:06:11.764Z</time></trkpt><trkpt lat="43.3196971" lon="12.1606854"><ele>299.0</ele><time>2026-05-02T10:06:12.759Z</time></trkpt><trkpt lat="43.3195917" lon="12.1607987"><ele>299.0</ele><time>2026-05-02T10:06:13.747Z</time></trkpt><trkpt lat="43.3194712" lon="12.1608942"><ele>300.5</ele><time>2026-05-02T10:06:14.753Z</time></trkpt><trkpt lat="43.3193428" lon="12.1609757"><ele>302.0</ele><time>2026-05-02T10:06:15.752Z</time></trkpt><trkpt lat="43.319226" lon="12.1610444"><ele>303.5</ele><time>2026-05-02T10:06:16.742Z</time></trkpt><trkpt lat="43.3191235" lon="12.1611019"><ele>305.0</ele><time>2026-05-02T10:06:17.743Z</time></trkpt><trkpt lat="43.3190339" lon="12.1611725"><ele>305.0</ele><time>2026-05-02T10:06:18.76Z</time></trkpt><trkpt lat="43.3189448" lon="12.1612595"><ele>305.0</ele><time>2026-05-02T10:06:19.758Z</time></trkpt><trkpt lat="43.3188543" lon="12.1613606"><ele>305.0</ele><time>2026-05-02T10:06:20.749Z</time></trkpt><trkpt lat="43.3187504" lon="12.1614758"><ele>305.0</ele><time>2026-05-02T10:06:21.758Z</time></trkpt><trkpt lat="43.3186366" lon="12.1616"><ele>303.25</ele><time>2026-05-02T10:06:22.751Z</time></trkpt><trkpt lat="43.3185274" lon="12.1617253"><ele>301.5</ele><time>2026-05-02T10:06:23.749Z</time></trkpt><trkpt lat="43.3184347" lon="12.1618512"><ele>299.75</ele><time>2026-05-02T10:06:24.766Z</time></trkpt><trkpt lat="43.3183632" lon="12.1619795"><ele>298.0</ele><time>2026-05-02T10:06:25.747Z</time></trkpt><trkpt lat="43.318313" lon="12.1621141"><ele>298.0</ele><time>2026-05-02T10:06:26.75Z</time></trkpt><trkpt lat="43.3182711" lon="12.1622411"><ele>298.0</ele><time>2026-05-02T10:06:27.764Z</time></trkpt><trkpt lat="43.318232" lon="12.1623558"><ele>298.0</ele><time>2026-05-02T10:06:28.755Z</time></trkpt><trkpt lat="43.3181985" lon="12.1624604"><ele>298.0</ele><time>2026-05-02T10:06:29.751Z</time></trkpt><trkpt lat="43.318163" lon="12.1625609"><ele>298.0</ele><time>2026-05-02T10:06:30.752Z</time></trkpt><trkpt lat="43.3181277" lon="12.1626556"><ele>298.0</ele><time>2026-05-02T10:06:31.753Z</time></trkpt><trkpt lat="43.3180956" lon="12.1627381"><ele>299.0</ele><time>2026-05-02T10:06:32.762Z</time></trkpt><trkpt lat="43.3180404" lon="12.1628905"><ele>300.0</ele><time>2026-05-02T10:06:34.751Z</time></trkpt><trkpt lat="43.317988" lon="12.1630254"><ele>301.0</ele><time>2026-05-02T10:06:36.753Z</time></trkpt><trkpt lat="43.3179473" lon="12.1631501"><ele>302.0</ele><time>2026-05-02T10:06:38.756Z</time></trkpt><trkpt lat="43.3179136" lon="12.1633128"><ele>302.0</ele><time>2026-05-02T10:06:40.762Z</time></trkpt><trkpt lat="43.3178861" lon="12.1634181"><ele>302.0</ele><time>2026-05-02T10:06:41.74Z</time></trkpt><trkpt lat="43.3178542" lon="12.1635426"><ele>302.0</ele><time>2026-05-02T10:06:42.767Z</time></trkpt><trkpt lat="43.317823" lon="12.1636797"><ele>302.0</ele><time>2026-05-02T10:06:43.761Z</time></trkpt><trkpt lat="43.3177988" lon="12.1638278"><ele>302.0</ele><time>2026-05-02T10:06:44.759Z</time></trkpt><trkpt lat="43.3177748" lon="12.1639823"><ele>301.25</ele><time>2026-05-02T10:06:45.768Z</time></trkpt><trkpt lat="43.3177538" lon="12.1641472"><ele>300.5</ele><time>2026-05-02T10:06:46.753Z</time></trkpt><trkpt lat="43.3177424" lon="12.1643225"><ele>299.75</ele><time>2026-05-02T10:06:47.76Z</time></trkpt><trkpt lat="43.317737" lon="12.1644984"><ele>299.0</ele><time>2026-05-02T10:06:48.759Z</time></trkpt><trkpt lat="43.3177235" lon="12.1646501"><ele>299.0</ele><time>2026-05-02T10:06:49.754Z</time></trkpt><trkpt lat="43.3177072" lon="12.1647803"><ele>299.0</ele><time>2026-05-02T10:06:50.748Z</time></trkpt><trkpt lat="43.3176859" lon="12.1649011"><ele>299.0</ele><time>2026-05-02T10:06:51.757Z</time></trkpt><trkpt lat="43.3176556" lon="12.1650194"><ele>299.0</ele><time>2026-05-02T10:06:52.755Z</time></trkpt><trkpt lat="43.317621" lon="12.1651354"><ele>299.0</ele><time>2026-05-02T10:06:53.753Z</time></trkpt><trkpt lat="43.3175821" lon="12.1652529"><ele>299.2</ele><time>2026-05-02T10:06:54.751Z</time></trkpt><trkpt lat="43.3175482" lon="12.1653814"><ele>299.4</ele><time>2026-05-02T10:06:55.758Z</time></trkpt><trkpt lat="43.3175317" lon="12.1655188"><ele>299.6</ele><time>2026-05-02T10:06:56.76Z</time></trkpt><trkpt lat="43.3175343" lon="12.1656643"><ele>299.8</ele><time>2026-05-02T10:06:57.753Z</time></trkpt><trkpt lat="43.3175559" lon="12.1658018"><ele>300.0</ele><time>2026-05-02T10:06:58.763Z</time></trkpt><trkpt lat="43.3176048" lon="12.1659448"><ele>300.75</ele><time>2026-05-02T10:06:59.753Z</time></trkpt><trkpt lat="43.3176759" lon="12.1660851"><ele>301.5</ele><time>2026-05-02T10:07:00.76Z</time></trkpt><trkpt lat="43.3177608" lon="12.1662226"><ele>302.25</ele><time>2026-05-02T10:07:01.743Z</time></trkpt><trkpt lat="43.3178509" lon="12.1663588"><ele>303.0</ele><time>2026-05-02T10:07:02.75Z</time></trkpt><trkpt lat="43.3179389" lon="12.1664962"><ele>304.75</ele><time>2026-05-02T10:07:03.748Z</time></trkpt><trkpt lat="43.3180205" lon="12.1666347"><ele>306.5</ele><time>2026-05-02T10:07:04.749Z</time></trkpt><trkpt lat="43.3181187" lon="12.1667705"><ele>308.25</ele><time>2026-05-02T10:07:05.755Z</time></trkpt><trkpt lat="43.3182245" lon="12.1668957"><ele>310.0</ele><time>2026-05-02T10:07:06.742Z</time></trkpt><trkpt lat="43.3183418" lon="12.1670092"><ele>310.0</ele><time>2026-05-02T10:07:07.745Z</time></trkpt><trkpt lat="43.3184665" lon="12.1671053"><ele>310.0</ele><time>2026-05-02T10:07:08.75Z</time></trkpt><trkpt lat="43.3185839" lon="12.1671881"><ele>310.0</ele><time>2026-05-02T10:07:09.758Z</time></trkpt><trkpt lat="43.3186762" lon="12.1672791"><ele>310.0</ele><time>2026-05-02T10:07:10.76Z</time></trkpt><trkpt lat="43.3187323" lon="12.1673794"><ele>310.0</ele><time>2026-05-02T10:07:11.754Z</time></trkpt><trkpt lat="43.3187458" lon="12.1674876"><ele>310.0</ele><time>2026-05-02T10:07:12.761Z</time></trkpt><trkpt lat="43.3186982" lon="12.1675664"><ele>310.0</ele><time>2026-05-02T10:07:13.761Z</time></trkpt><trkpt lat="43.3186264" lon="12.1675875"><ele>310.0</ele><time>2026-05-02T10:07:14.748Z</time></trkpt><trkpt lat="43.3185444" lon="12.1675433"><ele>310.0</ele><time>2026-05-02T10:07:15.76Z</time></trkpt><trkpt lat="43.3184783" lon="12.1674513"><ele>310.0</ele><time>2026-05-02T10:07:16.742Z</time></trkpt><trkpt lat="43.3184082" lon="12.1673493"><ele>310.0</ele><time>2026-05-02T10:07:17.756Z</time></trkpt><trkpt lat="43.3183175" lon="12.1672713"><ele>310.0</ele><time>2026-05-02T10:07:18.743Z</time></trkpt><trkpt lat="43.3182211" lon="12.1672361"><ele>310.0</ele><time>2026-05-02T10:07:19.747Z</time></trkpt><trkpt lat="43.3181197" lon="12.1672441"><ele>310.0</ele><time>2026-05-02T10:07:20.747Z</time></trkpt><trkpt lat="43.3180164" lon="12.1672846"><ele>310.0</ele><time>2026-05-02T10:07:21.747Z</time></trkpt><trkpt lat="43.3179124" lon="12.1673504"><ele>314.2</ele><time>2026-05-02T10:07:22.75Z</time></trkpt><trkpt lat="43.3178048" lon="12.1674126"><ele>318.4</ele><time>2026-05-02T10:07:23.758Z</time></trkpt><trkpt lat="43.3177153" lon="12.167506"><ele>322.6</ele><time>2026-05-02T10:07:24.755Z</time></trkpt><trkpt lat="43.3176554" lon="12.1676317"><ele>326.8</ele><time>2026-05-02T10:07:25.756Z</time></trkpt><trkpt lat="43.3176139" lon="12.1677715"><ele>331.0</ele><time>2026-05-02T10:07:26.748Z</time></trkpt><trkpt lat="43.317583" lon="12.1679255"><ele>331.0</ele><time>2026-05-02T10:07:27.749Z</time></trkpt><trkpt lat="43.3175502" lon="12.1680902"><ele>331.0</ele><time>2026-05-02T10:07:28.758Z</time></trkpt><trkpt lat="43.3175221" lon="12.1682643"><ele>331.0</ele><time>2026-05-02T10:07:29.753Z</time></trkpt><trkpt lat="43.3175085" lon="12.1684364"><ele>331.0</ele><time>2026-05-02T10:07:30.747Z</time></trkpt><trkpt lat="43.3175127" lon="12.1685935"><ele>333.4</ele><time>2026-05-02T10:07:31.746Z</time></trkpt><trkpt lat="43.3175446" lon="12.1687272"><ele>335.8</ele><time>2026-05-02T10:07:32.745Z</time></trkpt><trkpt lat="43.3176053" lon="12.1688326"><ele>338.2</ele><time>2026-05-02T10:07:33.743Z</time></trkpt><trkpt lat="43.3176974" lon="12.1689019"><ele>340.59999999999997</ele><time>2026-05-02T10:07:34.751Z</time></trkpt><trkpt lat="43.3178132" lon="12.1689594"><ele>343.0</ele><time>2026-05-02T10:07:35.744Z</time></trkpt><trkpt lat="43.3179232" lon="12.1690273"><ele>345.5</ele><time>2026-05-02T10:07:36.746Z</time></trkpt><trkpt lat="43.3180008" lon="12.1691049"><ele>348.0</ele><time>2026-05-02T10:07:37.74Z</time></trkpt><trkpt lat="43.3180297" lon="12.1691919"><ele>350.5</ele><time>2026-05-02T10:07:38.747Z</time></trkpt><trkpt lat="43.31801" lon="12.1692809"><ele>353.0</ele><time>2026-05-02T10:07:39.746Z</time></trkpt><trkpt lat="43.3179483" lon="12.1693312"><ele>355.5</ele><time>2026-05-02T10:07:40.752Z</time></trkpt><trkpt lat="43.317875" lon="12.1693285"><ele>358.0</ele><time>2026-05-02T10:07:41.746Z</time></trkpt><trkpt lat="43.3177844" lon="12.1692977"><ele>358.0</ele><time>2026-05-02T10:07:42.739Z</time></trkpt><trkpt lat="43.3176822" lon="12.1692604"><ele>358.0</ele><time>2026-05-02T10:07:43.758Z</time></trkpt><trkpt lat="43.3175683" lon="12.1692124"><ele>358.0</ele><time>2026-05-02T10:07:44.743Z</time></trkpt><trkpt lat="43.3174496" lon="12.1691585"><ele>358.0</ele><time>2026-05-02T10:07:45.749Z</time></trkpt><trkpt lat="43.3173195" lon="12.1691175"><ele>360.25</ele><time>2026-05-02T10:07:46.748Z</time></trkpt><trkpt lat="43.3171873" lon="12.1690731"><ele>362.5</ele><time>2026-05-02T10:07:47.748Z</time></trkpt><trkpt lat="43.3170598" lon="12.1690359"><ele>364.75</ele><time>2026-05-02T10:07:48.745Z</time></trkpt><trkpt lat="43.3169393" lon="12.169026"><ele>367.0</ele><time>2026-05-02T10:07:49.755Z</time></trkpt><trkpt lat="43.316828" lon="12.169048"><ele>367.0</ele><time>2026-05-02T10:07:50.746Z</time></trkpt><trkpt lat="43.316725" lon="12.1691158"><ele>367.0</ele><time>2026-05-02T10:07:51.742Z</time></trkpt><trkpt lat="43.3166439" lon="12.1692173"><ele>367.0</ele><time>2026-05-02T10:07:52.747Z</time></trkpt><trkpt lat="43.3165929" lon="12.1693349"><ele>367.0</ele><time>2026-05-02T10:07:53.755Z</time></trkpt><trkpt lat="43.3165485" lon="12.1694643"><ele>367.0</ele><time>2026-05-02T10:07:54.751Z</time></trkpt><trkpt lat="43.3165175" lon="12.1696068"><ele>367.0</ele><time>2026-05-02T10:07:55.752Z</time></trkpt><trkpt lat="43.3164854" lon="12.169759"><ele>367.0</ele><time>2026-05-02T10:07:56.751Z</time></trkpt><trkpt lat="43.3164637" lon="12.1699138"><ele>367.0</ele><time>2026-05-02T10:07:57.755Z</time></trkpt><trkpt lat="43.3164495" lon="12.1700814"><ele>367.0</ele><time>2026-05-02T10:07:58.751Z</time></trkpt><trkpt lat="43.3164375" lon="12.1702506"><ele>369.75</ele><time>2026-05-02T10:07:59.76Z</time></trkpt><trkpt lat="43.3164403" lon="12.1704224"><ele>372.5</ele><time>2026-05-02T10:08:00.745Z</time></trkpt><trkpt lat="43.3164475" lon="12.1705868"><ele>375.25</ele><time>2026-05-02T10:08:01.748Z</time></trkpt><trkpt lat="43.3164558" lon="12.1707441"><ele>378.0</ele><time>2026-05-02T10:08:02.754Z</time></trkpt><trkpt lat="43.3164564" lon="12.1708794"><ele>377.79999999999995</ele><time>2026-05-02T10:08:03.763Z</time></trkpt><trkpt lat="43.3164395" lon="12.1709816"><ele>377.6</ele><time>2026-05-02T10:08:04.754Z</time></trkpt><trkpt lat="43.3163461" lon="12.1710874"><ele>377.4</ele><time>2026-05-02T10:08:06.753Z</time></trkpt><trkpt lat="43.3162618" lon="12.1710844"><ele>377.20000000000005</ele><time>2026-05-02T10:08:07.748Z</time></trkpt><trkpt lat="43.3161781" lon="12.1710915"><ele>377.0</ele><time>2026-05-02T10:08:08.753Z</time></trkpt><trkpt lat="43.3161067" lon="12.1711551"><ele>377.0</ele><time>2026-05-02T10:08:09.758Z</time></trkpt><trkpt lat="43.3160536" lon="12.1712661"><ele>377.0</ele><time>2026-05-02T10:08:10.745Z</time></trkpt><trkpt lat="43.3160001" lon="12.1713862"><ele>377.0</ele><time>2026-05-02T10:08:11.743Z</time></trkpt><trkpt lat="43.3159506" lon="12.1715053"><ele>377.0</ele><time>2026-05-02T10:08:12.744Z</time></trkpt><trkpt lat="43.3159423" lon="12.1716396"><ele>377.0</ele><time>2026-05-02T10:08:13.753Z</time></trkpt><trkpt lat="43.3159791" lon="12.1717848"><ele>377.5</ele><time>2026-05-02T10:08:14.753Z</time></trkpt><trkpt lat="43.3160426" lon="12.1719204"><ele>378.0</ele><time>2026-05-02T10:08:15.746Z</time></trkpt><trkpt lat="43.3161202" lon="12.172058"><ele>378.5</ele><time>2026-05-02T10:08:16.747Z</time></trkpt><trkpt lat="43.3162042" lon="12.172194"><ele>379.0</ele><time>2026-05-02T10:08:17.765Z</time></trkpt><trkpt lat="43.316287" lon="12.1723378"><ele>380.6</ele><time>2026-05-02T10:08:18.751Z</time></trkpt><trkpt lat="43.3163652" lon="12.1724771"><ele>382.2</ele><time>2026-05-02T10:08:19.747Z</time></trkpt><trkpt lat="43.3164423" lon="12.1725815"><ele>383.8</ele><time>2026-05-02T10:08:20.762Z</time></trkpt><trkpt lat="43.3165301" lon="12.1726222"><ele>385.40000000000003</ele><time>2026-05-02T10:08:21.754Z</time></trkpt><trkpt lat="43.316631" lon="12.1725948"><ele>387.0</ele><time>2026-05-02T10:08:22.755Z</time></trkpt><trkpt lat="43.3167421" lon="12.1725481"><ele>389.0</ele><time>2026-05-02T10:08:23.748Z</time></trkpt><trkpt lat="43.3168487" lon="12.172536"><ele>391.0</ele><time>2026-05-02T10:08:24.76Z</time></trkpt><trkpt lat="43.3169274" lon="12.1725738"><ele>393.0</ele><time>2026-05-02T10:08:25.75Z</time></trkpt><trkpt lat="43.3169638" lon="12.1726523"><ele>395.0</ele><time>2026-05-02T10:08:26.745Z</time></trkpt><trkpt lat="43.3169654" lon="12.1727711"><ele>397.0</ele><time>2026-05-02T10:08:27.758Z</time></trkpt><trkpt lat="43.3169254" lon="12.1728997"><ele>399.0</ele><time>2026-05-02T10:08:28.751Z</time></trkpt><trkpt lat="43.3168543" lon="12.1730306"><ele>399.0</ele><time>2026-05-02T10:08:29.759Z</time></trkpt><trkpt lat="43.316803" lon="12.1731686"><ele>399.0</ele><time>2026-05-02T10:08:30.745Z</time></trkpt><trkpt lat="43.3168001" lon="12.1733341"><ele>399.0</ele><time>2026-05-02T10:08:31.75Z</time></trkpt><trkpt lat="43.3168023" lon="12.1735242"><ele>399.0</ele><time>2026-05-02T10:08:32.742Z</time></trkpt><trkpt lat="43.3167707" lon="12.1737124"><ele>400.6</ele><time>2026-05-02T10:08:33.755Z</time></trkpt><trkpt lat="43.3167261" lon="12.1738678"><ele>402.2</ele><time>2026-05-02T10:08:34.759Z</time></trkpt><trkpt lat="43.3166797" lon="12.1740041"><ele>403.8</ele><time>2026-05-02T10:08:35.75Z</time></trkpt><trkpt lat="43.3166709" lon="12.1741135"><ele>405.40000000000003</ele><time>2026-05-02T10:08:36.753Z</time></trkpt><trkpt lat="43.3167952" lon="12.1741922"><ele>407.0</ele><time>2026-05-02T10:08:38.757Z</time></trkpt><trkpt lat="43.3168674" lon="12.1741262"><ele>407.0</ele><time>2026-05-02T10:08:39.748Z</time></trkpt><trkpt lat="43.3169477" lon="12.1739728"><ele>407.0</ele><time>2026-05-02T10:08:40.75Z</time></trkpt><trkpt lat="43.3170015" lon="12.1737848"><ele>407.0</ele><time>2026-05-02T10:08:41.748Z</time></trkpt><trkpt lat="43.3170526" lon="12.173598"><ele>407.0</ele><time>2026-05-02T10:08:42.751Z</time></trkpt><trkpt lat="43.3171125" lon="12.1734309"><ele>407.0</ele><time>2026-05-02T10:08:43.752Z</time></trkpt><trkpt lat="43.317199" lon="12.173298"><ele>407.0</ele><time>2026-05-02T10:08:44.75Z</time></trkpt><trkpt lat="43.3173023" lon="12.1731697"><ele>407.0</ele><time>2026-05-02T10:08:45.749Z</time></trkpt><trkpt lat="43.3174059" lon="12.1730485"><ele>407.0</ele><time>2026-05-02T10:08:46.742Z</time></trkpt><trkpt lat="43.3175003" lon="12.172919"><ele>407.5</ele><time>2026-05-02T10:08:47.748Z</time></trkpt><trkpt lat="43.3175731" lon="12.1727662"><ele>408.0</ele><time>2026-05-02T10:08:48.759Z</time></trkpt><trkpt lat="43.3176244" lon="12.1726033"><ele>408.5</ele><time>2026-05-02T10:08:49.752Z</time></trkpt><trkpt lat="43.317689" lon="12.1724502"><ele>409.0</ele><time>2026-05-02T10:08:50.75Z</time></trkpt><trkpt lat="43.3177746" lon="12.1723171"><ele>409.00000000000006</ele><time>2026-05-02T10:08:51.75Z</time></trkpt><trkpt lat="43.3178589" lon="12.1722259"><ele>409.0</ele><time>2026-05-02T10:08:52.756Z</time></trkpt><trkpt lat="43.3179431" lon="12.1721805"><ele>409.0</ele><time>2026-05-02T10:08:53.752Z</time></trkpt><trkpt lat="43.3180191" lon="12.1722015"><ele>409.0</ele><time>2026-05-02T10:08:54.75Z</time></trkpt><trkpt lat="43.3180617" lon="12.1722698"><ele>409.00000000000006</ele><time>2026-05-02T10:08:55.746Z</time></trkpt><trkpt lat="43.3180622" lon="12.1723681"><ele>409.0</ele><time>2026-05-02T10:08:56.747Z</time></trkpt><trkpt lat="43.3180113" lon="12.1724632"><ele>410.6</ele><time>2026-05-02T10:08:57.743Z</time></trkpt><trkpt lat="43.3179352" lon="12.1725582"><ele>412.2</ele><time>2026-05-02T10:08:58.737Z</time></trkpt><trkpt lat="43.3178727" lon="12.1726657"><ele>413.8</ele><time>2026-05-02T10:08:59.749Z</time></trkpt><trkpt lat="43.3178502" lon="12.1727856"><ele>415.40000000000003</ele><time>2026-05-02T10:09:00.743Z</time></trkpt><trkpt lat="43.3178591" lon="12.1729221"><ele>417.0</ele><time>2026-05-02T10:09:01.752Z</time></trkpt><trkpt lat="43.3179031" lon="12.1730701"><ele>418.40000000000003</ele><time>2026-05-02T10:09:02.743Z</time></trkpt><trkpt lat="43.3179464" lon="12.1732293"><ele>419.8</ele><time>2026-05-02T10:09:03.745Z</time></trkpt><trkpt lat="43.3179622" lon="12.1733815"><ele>421.2</ele><time>2026-05-02T10:09:04.748Z</time></trkpt><trkpt lat="43.3179403" lon="12.1735047"><ele>422.6</ele><time>2026-05-02T10:09:05.747Z</time></trkpt><trkpt lat="43.3178726" lon="12.1735894"><ele>424.0</ele><time>2026-05-02T10:09:06.755Z</time></trkpt><trkpt lat="43.3177867" lon="12.1736651"><ele>424.0</ele><time>2026-05-02T10:09:07.751Z</time></trkpt><trkpt lat="43.3176958" lon="12.173761"><ele>424.0</ele><time>2026-05-02T10:09:08.743Z</time></trkpt><trkpt lat="43.317638" lon="12.1739073"><ele>424.0</ele><time>2026-05-02T10:09:09.748Z</time></trkpt><trkpt lat="43.3176243" lon="12.174087"><ele>424.0</ele><time>2026-05-02T10:09:10.75Z</time></trkpt><trkpt lat="43.3176432" lon="12.1742754"><ele>427.0</ele><time>2026-05-02T10:09:11.752Z</time></trkpt><trkpt lat="43.3176891" lon="12.174491"><ele>430.0</ele><time>2026-05-02T10:09:12.748Z</time></trkpt><trkpt lat="43.3177453" lon="12.1747141"><ele>433.0</ele><time>2026-05-02T10:09:13.748Z</time></trkpt><trkpt lat="43.3177707" lon="12.1749133"><ele>435.0</ele><time>2026-05-02T10:09:14.75Z</time></trkpt><trkpt lat="43.3177591" lon="12.1751122"><ele>437.0</ele><time>2026-05-02T10:09:15.75Z</time></trkpt><trkpt lat="43.3177095" lon="12.1753189"><ele>439.0</ele><time>2026-05-02T10:09:16.745Z</time></trkpt><trkpt lat="43.3176486" lon="12.1755376"><ele>443.0</ele><time>2026-05-02T10:09:17.746Z</time></trkpt><trkpt lat="43.3175769" lon="12.1757512"><ele>447.0</ele><time>2026-05-02T10:09:18.75Z</time></trkpt><trkpt lat="43.3174994" lon="12.1759628"><ele>451.0</ele><time>2026-05-02T10:09:19.743Z</time></trkpt><trkpt lat="43.3174083" lon="12.1761564"><ele>451.0</ele><time>2026-05-02T10:09:20.74Z</time></trkpt><trkpt lat="43.3172852" lon="12.1763256"><ele>451.0</ele><time>2026-05-02T10:09:21.744Z</time></trkpt><trkpt lat="43.3171575" lon="12.1764818"><ele>451.0</ele><time>2026-05-02T10:09:22.745Z</time></trkpt><trkpt lat="43.3170459" lon="12.1766088"><ele>452.4</ele><time>2026-05-02T10:09:23.744Z</time></trkpt><trkpt lat="43.3169528" lon="12.1766983"><ele>453.8</ele><time>2026-05-02T10:09:24.75Z</time></trkpt><trkpt lat="43.3168692" lon="12.1767723"><ele>455.19999999999993</ele><time>2026-05-02T10:09:25.747Z</time></trkpt><trkpt lat="43.3167708" lon="12.176817"><ele>456.59999999999997</ele><time>2026-05-02T10:09:26.739Z</time></trkpt><trkpt lat="43.3166484" lon="12.1768222"><ele>458.0</ele><time>2026-05-02T10:09:27.749Z</time></trkpt><trkpt lat="43.3165173" lon="12.1768146"><ele>456.0</ele><time>2026-05-02T10:09:28.743Z</time></trkpt><trkpt lat="43.3163948" lon="12.1768474"><ele>454.0</ele><time>2026-05-02T10:09:29.744Z</time></trkpt><trkpt lat="43.3162901" lon="12.1769403"><ele>452.0</ele><time>2026-05-02T10:09:30.759Z</time></trkpt><trkpt lat="43.3161782" lon="12.1770767"><ele>450.0</ele><time>2026-05-02T10:09:31.747Z</time></trkpt><trkpt lat="43.3160629" lon="12.17724"><ele>456.33333333333337</ele><time>2026-05-02T10:09:32.739Z</time></trkpt><trkpt lat="43.3159501" lon="12.1774175"><ele>462.6666666666667</ele><time>2026-05-02T10:09:33.755Z</time></trkpt><trkpt lat="43.3158374" lon="12.1776002"><ele>469.0</ele><time>2026-05-02T10:09:34.737Z</time></trkpt><trkpt lat="43.3157372" lon="12.177775"><ele>469.0</ele><time>2026-05-02T10:09:35.743Z</time></trkpt><trkpt lat="43.315636" lon="12.177908"><ele>469.0</ele><time>2026-05-02T10:09:36.749Z</time></trkpt><trkpt lat="43.3155282" lon="12.1779949"><ele>469.0</ele><time>2026-05-02T10:09:37.741Z</time></trkpt><trkpt lat="43.3154005" lon="12.1780385"><ele>469.0</ele><time>2026-05-02T10:09:38.744Z</time></trkpt><trkpt lat="43.3152453" lon="12.1780628"><ele>467.5</ele><time>2026-05-02T10:09:39.742Z</time></trkpt><trkpt lat="43.3150884" lon="12.1780846"><ele>466.0</ele><time>2026-05-02T10:09:40.755Z</time></trkpt><trkpt lat="43.3149434" lon="12.1780853"><ele>464.5</ele><time>2026-05-02T10:09:41.752Z</time></trkpt><trkpt lat="43.3148115" lon="12.1780458"><ele>463.0</ele><time>2026-05-02T10:09:42.745Z</time></trkpt><trkpt lat="43.3146893" lon="12.1780043"><ele>462.0</ele><time>2026-05-02T10:09:43.751Z</time></trkpt><trkpt lat="43.3145796" lon="12.1780048"><ele>461.0</ele><time>2026-05-02T10:09:44.749Z</time></trkpt><trkpt lat="43.3144887" lon="12.1780726"><ele>460.0</ele><time>2026-05-02T10:09:45.749Z</time></trkpt><trkpt lat="43.3144196" lon="12.1781889"><ele>459.0</ele><time>2026-05-02T10:09:46.758Z</time></trkpt><trkpt lat="43.3143519" lon="12.1783442"><ele>462.75</ele><time>2026-05-02T10:09:47.75Z</time></trkpt><trkpt lat="43.31428" lon="12.1785171"><ele>466.5</ele><time>2026-05-02T10:09:48.76Z</time></trkpt><trkpt lat="43.3141906" lon="12.1786769"><ele>470.25</ele><time>2026-05-02T10:09:49.755Z</time></trkpt><trkpt lat="43.3140904" lon="12.1788139"><ele>474.0</ele><time>2026-05-02T10:09:50.747Z</time></trkpt><trkpt lat="43.313992" lon="12.1789238"><ele>473.2</ele><time>2026-05-02T10:09:51.756Z</time></trkpt><trkpt lat="43.3138892" lon="12.1789837"><ele>472.4</ele><time>2026-05-02T10:09:52.75Z</time></trkpt><trkpt lat="43.3137774" lon="12.1789854"><ele>471.6</ele><time>2026-05-02T10:09:53.749Z</time></trkpt><trkpt lat="43.3136825" lon="12.1789528"><ele>470.8</ele><time>2026-05-02T10:09:54.755Z</time></trkpt><trkpt lat="43.3136055" lon="12.1789297"><ele>470.0</ele><time>2026-05-02T10:09:55.743Z</time></trkpt><trkpt lat="43.3135361" lon="12.1789249"><ele>470.0</ele><time>2026-05-02T10:09:56.742Z</time></trkpt><trkpt lat="43.3134628" lon="12.1789932"><ele>470.0</ele><time>2026-05-02T10:09:58.744Z</time></trkpt><trkpt lat="43.3134835" lon="12.179151"><ele>470.0</ele><time>2026-05-02T10:10:00.75Z</time></trkpt><trkpt lat="43.3135351" lon="12.1792066"><ele>470.0</ele><time>2026-05-02T10:10:01.736Z</time></trkpt><trkpt lat="43.3136166" lon="12.1792496"><ele>470.0</ele><time>2026-05-02T10:10:02.744Z</time></trkpt><trkpt lat="43.3137162" lon="12.179293"><ele>475.0</ele><time>2026-05-02T10:10:03.737Z</time></trkpt><trkpt lat="43.313844" lon="12.1793304"><ele>480.0</ele><time>2026-05-02T10:10:04.744Z</time></trkpt><trkpt lat="43.3139788" lon="12.179367"><ele>485.0</ele><time>2026-05-02T10:10:05.745Z</time></trkpt><trkpt lat="43.3141176" lon="12.1793864"><ele>490.0</ele><time>2026-05-02T10:10:06.74Z</time></trkpt><trkpt lat="43.3142459" lon="12.1793891"><ele>490.25</ele><time>2026-05-02T10:10:07.745Z</time></trkpt><trkpt lat="43.3143818" lon="12.1793855"><ele>490.5</ele><time>2026-05-02T10:10:08.749Z</time></trkpt><trkpt lat="43.3145088" lon="12.1793786"><ele>490.75</ele><time>2026-05-02T10:10:09.753Z</time></trkpt><trkpt lat="43.3146318" lon="12.1793809"><ele>491.0</ele><time>2026-05-02T10:10:10.743Z</time></trkpt><trkpt lat="43.3147586" lon="12.1794089"><ele>492.25</ele><time>2026-05-02T10:10:11.746Z</time></trkpt><trkpt lat="43.3148883" lon="12.1794469"><ele>493.5</ele><time>2026-05-02T10:10:12.747Z</time></trkpt><trkpt lat="43.3150147" lon="12.1794842"><ele>494.75</ele><time>2026-05-02T10:10:13.749Z</time></trkpt><trkpt lat="43.3151464" lon="12.1795153"><ele>496.0</ele><time>2026-05-02T10:10:14.759Z</time></trkpt><trkpt lat="43.3152717" lon="12.1795373"><ele>496.0</ele><time>2026-05-02T10:10:15.76Z</time></trkpt><trkpt lat="43.3153985" lon="12.1795434"><ele>496.0</ele><time>2026-05-02T10:10:16.756Z</time></trkpt><trkpt lat="43.3155208" lon="12.1795318"><ele>496.0</ele><time>2026-05-02T10:10:17.757Z</time></trkpt><trkpt lat="43.3156379" lon="12.17952"><ele>496.0</ele><time>2026-05-02T10:10:18.75Z</time></trkpt><trkpt lat="43.3157496" lon="12.1794901"><ele>497.25</ele><time>2026-05-02T10:10:19.747Z</time></trkpt><trkpt lat="43.315864" lon="12.1794338"><ele>498.5</ele><time>2026-05-02T10:10:20.75Z</time></trkpt><trkpt lat="43.3159883" lon="12.1793532"><ele>499.75</ele><time>2026-05-02T10:10:21.747Z</time></trkpt><trkpt lat="43.3161176" lon="12.1792585"><ele>501.0</ele><time>2026-05-02T10:10:22.753Z</time></trkpt><trkpt lat="43.3162582" lon="12.1791675"><ele>499.33333333333337</ele><time>2026-05-02T10:10:23.753Z</time></trkpt><trkpt lat="43.3164057" lon="12.1790719"><ele>497.6666666666667</ele><time>2026-05-02T10:10:24.746Z</time></trkpt><trkpt lat="43.3165532" lon="12.1789656"><ele>496.0</ele><time>2026-05-02T10:10:25.755Z</time></trkpt><trkpt lat="43.3166969" lon="12.1788693"><ele>496.0</ele><time>2026-05-02T10:10:26.755Z</time></trkpt><trkpt lat="43.316837" lon="12.1787803"><ele>496.0</ele><time>2026-05-02T10:10:27.748Z</time></trkpt><trkpt lat="43.3169765" lon="12.1786979"><ele>496.0</ele><time>2026-05-02T10:10:28.756Z</time></trkpt><trkpt lat="43.3171257" lon="12.1786223"><ele>499.33333333333337</ele><time>2026-05-02T10:10:29.755Z</time></trkpt><trkpt lat="43.3172783" lon="12.1785476"><ele>502.66666666666663</ele><time>2026-05-02T10:10:30.756Z</time></trkpt><trkpt lat="43.3174235" lon="12.1784762"><ele>506.0</ele><time>2026-05-02T10:10:31.757Z</time></trkpt><trkpt lat="43.3175567" lon="12.1784176"><ele>506.0</ele><time>2026-05-02T10:10:32.756Z</time></trkpt><trkpt lat="43.3176744" lon="12.1783785"><ele>506.0</ele><time>2026-05-02T10:10:33.75Z</time></trkpt><trkpt lat="43.3177786" lon="12.178374"><ele>506.0</ele><time>2026-05-02T10:10:34.758Z</time></trkpt><trkpt lat="43.3178692" lon="12.1784147"><ele>506.0</ele><time>2026-05-02T10:10:35.752Z</time></trkpt><trkpt lat="43.3179384" lon="12.1784752"><ele>506.0</ele><time>2026-05-02T10:10:36.752Z</time></trkpt><trkpt lat="43.3179846" lon="12.1785431"><ele>506.0</ele><time>2026-05-02T10:10:37.754Z</time></trkpt><trkpt lat="43.3180312" lon="12.1786898"><ele>506.0</ele><time>2026-05-02T10:10:39.754Z</time></trkpt><trkpt lat="43.3179882" lon="12.1788356"><ele>506.0</ele><time>2026-05-02T10:10:41.75Z</time></trkpt><trkpt lat="43.3179379" lon="12.178912"><ele>506.0</ele><time>2026-05-02T10:10:42.745Z</time></trkpt><trkpt lat="43.3178856" lon="12.1789983"><ele>506.0</ele><time>2026-05-02T10:10:43.762Z</time></trkpt><trkpt lat="43.317833" lon="12.179105"><ele>506.6</ele><time>2026-05-02T10:10:44.75Z</time></trkpt><trkpt lat="43.3177843" lon="12.1792265"><ele>507.20000000000005</ele><time>2026-05-02T10:10:45.747Z</time></trkpt><trkpt lat="43.317747" lon="12.1793599"><ele>507.79999999999995</ele><time>2026-05-02T10:10:46.748Z</time></trkpt><trkpt lat="43.3177084" lon="12.1795033"><ele>508.4</ele><time>2026-05-02T10:10:47.746Z</time></trkpt><trkpt lat="43.3176775" lon="12.1796469"><ele>509.0</ele><time>2026-05-02T10:10:48.738Z</time></trkpt><trkpt lat="43.3175997" lon="12.1799017"><ele>509.0</ele><time>2026-05-02T10:10:50.745Z</time></trkpt><trkpt lat="43.3175402" lon="12.1800146"><ele>509.0</ele><time>2026-05-02T10:10:51.744Z</time></trkpt><trkpt lat="43.317472" lon="12.1801208"><ele>509.0</ele><time>2026-05-02T10:10:52.747Z</time></trkpt><trkpt lat="43.3174079" lon="12.1802396"><ele>509.0</ele><time>2026-05-02T10:10:53.745Z</time></trkpt><trkpt lat="43.3173565" lon="12.1803604"><ele>509.0</ele><time>2026-05-02T10:10:54.75Z</time></trkpt><trkpt lat="43.3173175" lon="12.1804717"><ele>508.99999999999994</ele><time>2026-05-02T10:10:55.746Z</time></trkpt><trkpt lat="43.3172798" lon="12.1805673"><ele>509.0</ele><time>2026-05-02T10:10:56.748Z</time></trkpt><trkpt lat="43.317235" lon="12.180643"><ele>509.0</ele><time>2026-05-02T10:10:57.755Z</time></trkpt><trkpt lat="43.3171834" lon="12.1806966"><ele>509.0</ele><time>2026-05-02T10:10:58.746Z</time></trkpt><trkpt lat="43.3170743" lon="12.180705"><ele>508.99999999999994</ele><time>2026-05-02T10:11:00.753Z</time></trkpt><trkpt lat="43.3170099" lon="12.1806777"><ele>509.0</ele><time>2026-05-02T10:11:01.742Z</time></trkpt><trkpt lat="43.3169404" lon="12.1806632"><ele>509.8333333333333</ele><time>2026-05-02T10:11:02.746Z</time></trkpt><trkpt lat="43.31687" lon="12.1806737"><ele>510.66666666666663</ele><time>2026-05-02T10:11:03.746Z</time></trkpt><trkpt lat="43.3168101" lon="12.1807144"><ele>511.5</ele><time>2026-05-02T10:11:04.745Z</time></trkpt><trkpt lat="43.3167625" lon="12.1807826"><ele>512.3333333333334</ele><time>2026-05-02T10:11:05.736Z</time></trkpt><trkpt lat="43.3167342" lon="12.1808803"><ele>513.1666666666667</ele><time>2026-05-02T10:11:06.754Z</time></trkpt><trkpt lat="43.3167209" lon="12.1810068"><ele>514.0</ele><time>2026-05-02T10:11:07.732Z</time></trkpt><trkpt lat="43.3167241" lon="12.1811516"><ele>514.0</ele><time>2026-05-02T10:11:08.738Z</time></trkpt><trkpt lat="43.3167337" lon="12.1812926"><ele>514.0</ele><time>2026-05-02T10:11:09.736Z</time></trkpt><trkpt lat="43.3167317" lon="12.1814026"><ele>514.0</ele><time>2026-05-02T10:11:10.749Z</time></trkpt><trkpt lat="43.3167303" lon="12.1814966"><ele>514.0</ele><time>2026-05-02T10:11:11.74Z</time></trkpt><trkpt lat="43.3167134" lon="12.181598"><ele>514.0</ele><time>2026-05-02T10:11:12.732Z</time></trkpt><trkpt lat="43.3167111" lon="12.1817163"><ele>514.0</ele><time>2026-05-02T10:11:13.747Z</time></trkpt><trkpt lat="43.3166961" lon="12.1818577"><ele>511.6666666666667</ele><time>2026-05-02T10:11:14.734Z</time></trkpt><trkpt lat="43.3166771" lon="12.1819997"><ele>509.33333333333337</ele><time>2026-05-02T10:11:15.75Z</time></trkpt><trkpt lat="43.3166659" lon="12.1821216"><ele>507.0</ele><time>2026-05-02T10:11:16.737Z</time></trkpt><trkpt lat="43.3166492" lon="12.1822148"><ele>504.66666666666663</ele><time>2026-05-02T10:11:17.743Z</time></trkpt><trkpt lat="43.3166082" lon="12.1822841"><ele>502.3333333333333</ele><time>2026-05-02T10:11:18.749Z</time></trkpt><trkpt lat="43.3164908" lon="12.1823156"><ele>500.0</ele><time>2026-05-02T10:11:20.75Z</time></trkpt><trkpt lat="43.3164064" lon="12.1822887"><ele>504.6</ele><time>2026-05-02T10:11:21.752Z</time></trkpt><trkpt lat="43.3163042" lon="12.1822596"><ele>509.2</ele><time>2026-05-02T10:11:22.747Z</time></trkpt><trkpt lat="43.3161976" lon="12.1822297"><ele>513.8</ele><time>2026-05-02T10:11:23.744Z</time></trkpt><trkpt lat="43.3161097" lon="12.182206"><ele>518.4</ele><time>2026-05-02T10:11:24.745Z</time></trkpt><trkpt lat="43.3160417" lon="12.1821979"><ele>523.0</ele><time>2026-05-02T10:11:25.734Z</time></trkpt><trkpt lat="43.3159332" lon="12.1822771"><ele>523.6</ele><time>2026-05-02T10:11:27.743Z</time></trkpt><trkpt lat="43.3158795" lon="12.1823514"><ele>524.1999999999999</ele><time>2026-05-02T10:11:28.743Z</time></trkpt><trkpt lat="43.3158134" lon="12.1824374"><ele>524.8</ele><time>2026-05-02T10:11:29.743Z</time></trkpt><trkpt lat="43.3157354" lon="12.1825174"><ele>525.4</ele><time>2026-05-02T10:11:30.743Z</time></trkpt><trkpt lat="43.3156532" lon="12.1825917"><ele>526.0</ele><time>2026-05-02T10:11:31.736Z</time></trkpt><trkpt lat="43.315566" lon="12.1826566"><ele>526.0</ele><time>2026-05-02T10:11:32.757Z</time></trkpt><trkpt lat="43.3154714" lon="12.1826959"><ele>526.0</ele><time>2026-05-02T10:11:33.749Z</time></trkpt><trkpt lat="43.315372" lon="12.1827241"><ele>526.0</ele><time>2026-05-02T10:11:34.746Z</time></trkpt><trkpt lat="43.3152752" lon="12.1827537"><ele>526.0</ele><time>2026-05-02T10:11:35.751Z</time></trkpt><trkpt lat="43.3151973" lon="12.1827911"><ele>526.0</ele><time>2026-05-02T10:11:36.746Z</time></trkpt><trkpt lat="43.3151244" lon="12.182919"><ele>526.0</ele><time>2026-05-02T10:11:38.741Z</time></trkpt><trkpt lat="43.3151008" lon="12.1830435"><ele>526.0</ele><time>2026-05-02T10:11:39.742Z</time></trkpt><trkpt lat="43.3151157" lon="12.1832009"><ele>526.0</ele><time>2026-05-02T10:11:40.748Z</time></trkpt><trkpt lat="43.3151459" lon="12.1833418"><ele>526.0</ele><time>2026-05-02T10:11:41.737Z</time></trkpt><trkpt lat="43.3151898" lon="12.1834803"><ele>526.0</ele><time>2026-05-02T10:11:42.732Z</time></trkpt><trkpt lat="43.3152201" lon="12.183623"><ele>523.0</ele><time>2026-05-02T10:11:43.746Z</time></trkpt><trkpt lat="43.3152391" lon="12.1837653"><ele>520.0</ele><time>2026-05-02T10:11:44.734Z</time></trkpt><trkpt lat="43.3152418" lon="12.1838801"><ele>517.0</ele><time>2026-05-02T10:11:45.754Z</time></trkpt><trkpt lat="43.315214" lon="12.1839667"><ele>514.0</ele><time>2026-05-02T10:11:46.748Z</time></trkpt><trkpt lat="43.3151647" lon="12.1840248"><ele>511.00000000000006</ele><time>2026-05-02T10:11:47.753Z</time></trkpt><trkpt lat="43.3150776" lon="12.1840572"><ele>508.0</ele><time>2026-05-02T10:11:48.754Z</time></trkpt><trkpt lat="43.3149809" lon="12.1840851"><ele>506.00000000000006</ele><time>2026-05-02T10:11:49.74Z</time></trkpt><trkpt lat="43.314902" lon="12.1841339"><ele>504.0</ele><time>2026-05-02T10:11:50.746Z</time></trkpt><trkpt lat="43.3148665" lon="12.184219"><ele>502.0</ele><time>2026-05-02T10:11:51.755Z</time></trkpt><trkpt lat="43.3148519" lon="12.1843203"><ele>500.0</ele><time>2026-05-02T10:11:52.739Z</time></trkpt><trkpt lat="43.3148436" lon="12.1844289"><ele>498.00000000000006</ele><time>2026-05-02T10:11:53.737Z</time></trkpt><trkpt lat="43.314827" lon="12.184527"><ele>496.0</ele><time>2026-05-02T10:11:54.746Z</time></trkpt><trkpt lat="43.314786" lon="12.1846105"><ele>498.6</ele><time>2026-05-02T10:11:55.748Z</time></trkpt><trkpt lat="43.3147162" lon="12.1846959"><ele>501.20000000000005</ele><time>2026-05-02T10:11:56.74Z</time></trkpt><trkpt lat="43.3146198" lon="12.1847796"><ele>503.79999999999995</ele><time>2026-05-02T10:11:57.739Z</time></trkpt><trkpt lat="43.3145192" lon="12.1848601"><ele>506.4</ele><time>2026-05-02T10:11:58.737Z</time></trkpt><trkpt lat="43.3144201" lon="12.1849395"><ele>509.0</ele><time>2026-05-02T10:11:59.736Z</time></trkpt><trkpt lat="43.3143188" lon="12.1850333"><ele>509.0</ele><time>2026-05-02T10:12:00.738Z</time></trkpt><trkpt lat="43.3142176" lon="12.1851195"><ele>509.0</ele><time>2026-05-02T10:12:01.75Z</time></trkpt><trkpt lat="43.3141137" lon="12.1852075"><ele>509.0</ele><time>2026-05-02T10:12:02.741Z</time></trkpt><trkpt lat="43.3140089" lon="12.185296"><ele>509.0</ele><time>2026-05-02T10:12:03.744Z</time></trkpt><trkpt lat="43.3139121" lon="12.1853929"><ele>511.2</ele><time>2026-05-02T10:12:04.741Z</time></trkpt><trkpt lat="43.3138197" lon="12.1854916"><ele>513.4</ele><time>2026-05-02T10:12:05.741Z</time></trkpt><trkpt lat="43.3137362" lon="12.185586"><ele>515.6</ele><time>2026-05-02T10:12:06.731Z</time></trkpt><trkpt lat="43.3136713" lon="12.1856784"><ele>517.8</ele><time>2026-05-02T10:12:07.751Z</time></trkpt><trkpt lat="43.3136333" lon="12.1857734"><ele>520.0</ele><time>2026-05-02T10:12:08.744Z</time></trkpt><trkpt lat="43.3136347" lon="12.1858681"><ele>520.0000000000001</ele><time>2026-05-02T10:12:09.741Z</time></trkpt><trkpt lat="43.3136599" lon="12.1859546"><ele>520.0</ele><time>2026-05-02T10:12:10.742Z</time></trkpt><trkpt lat="43.3137017" lon="12.1860315"><ele>520.0</ele><time>2026-05-02T10:12:11.745Z</time></trkpt><trkpt lat="43.3137539" lon="12.1861033"><ele>520.0</ele><time>2026-05-02T10:12:12.74Z</time></trkpt><trkpt lat="43.3138009" lon="12.1861928"><ele>520.0</ele><time>2026-05-02T10:12:13.748Z</time></trkpt><trkpt lat="43.3138154" lon="12.1862907"><ele>520.0000000000001</ele><time>2026-05-02T10:12:14.73Z</time></trkpt><trkpt lat="43.3138053" lon="12.1863795"><ele>520.0</ele><time>2026-05-02T10:12:15.724Z</time></trkpt><trkpt lat="43.3137076" lon="12.1864591"><ele>520.0</ele><time>2026-05-02T10:12:17.749Z</time></trkpt><trkpt lat="43.3136109" lon="12.1864693"><ele>520.0</ele><time>2026-05-02T10:12:18.762Z</time></trkpt><trkpt lat="43.3134936" lon="12.1864887"><ele>520.0</ele><time>2026-05-02T10:12:19.743Z</time></trkpt><trkpt lat="43.3133837" lon="12.1865373"><ele>520.0</ele><time>2026-05-02T10:12:20.745Z</time></trkpt><trkpt lat="43.313288" lon="12.1866143"><ele>520.0</ele><time>2026-05-02T10:12:21.74Z</time></trkpt><trkpt lat="43.3131957" lon="12.1867093"><ele>517.25</ele><time>2026-05-02T10:12:22.744Z</time></trkpt><trkpt lat="43.3130896" lon="12.1867836"><ele>514.5</ele><time>2026-05-02T10:12:23.74Z</time></trkpt><trkpt lat="43.3129716" lon="12.1868535"><ele>511.75</ele><time>2026-05-02T10:12:24.747Z</time></trkpt><trkpt lat="43.3128696" lon="12.1869297"><ele>509.0</ele><time>2026-05-02T10:12:25.747Z</time></trkpt><trkpt lat="43.3127875" lon="12.1870143"><ele>510.0</ele><time>2026-05-02T10:12:26.73Z</time></trkpt><trkpt lat="43.3127169" lon="12.1871059"><ele>511.0</ele><time>2026-05-02T10:12:27.742Z</time></trkpt><trkpt lat="43.3126651" lon="12.187205"><ele>512.0</ele><time>2026-05-02T10:12:28.745Z</time></trkpt><trkpt lat="43.3126282" lon="12.1873224"><ele>513.0</ele><time>2026-05-02T10:12:29.738Z</time></trkpt><trkpt lat="43.3125791" lon="12.1874383"><ele>514.0</ele><time>2026-05-02T10:12:30.733Z</time></trkpt><trkpt lat="43.3125041" lon="12.1875456"><ele>514.0</ele><time>2026-05-02T10:12:31.735Z</time></trkpt><trkpt lat="43.3123932" lon="12.1876296"><ele>514.0</ele><time>2026-05-02T10:12:32.748Z</time></trkpt><trkpt lat="43.3122942" lon="12.1877403"><ele>514.0</ele><time>2026-05-02T10:12:33.74Z</time></trkpt><trkpt lat="43.3122087" lon="12.1878705"><ele>514.0</ele><time>2026-05-02T10:12:34.737Z</time></trkpt><trkpt lat="43.312131" lon="12.1880234"><ele>519.25</ele><time>2026-05-02T10:12:35.738Z</time></trkpt><trkpt lat="43.3120594" lon="12.1881959"><ele>524.5</ele><time>2026-05-02T10:12:36.735Z</time></trkpt><trkpt lat="43.3120081" lon="12.1883661"><ele>529.75</ele><time>2026-05-02T10:12:37.739Z</time></trkpt><trkpt lat="43.3119627" lon="12.1885152"><ele>535.0</ele><time>2026-05-02T10:12:38.742Z</time></trkpt><trkpt lat="43.311925" lon="12.1886464"><ele>535.0</ele><time>2026-05-02T10:12:39.753Z</time></trkpt><trkpt lat="43.3119024" lon="12.188772"><ele>535.0</ele><time>2026-05-02T10:12:40.743Z</time></trkpt><trkpt lat="43.3118963" lon="12.1888816"><ele>535.0</ele><time>2026-05-02T10:12:41.745Z</time></trkpt><trkpt lat="43.3119072" lon="12.1889985"><ele>535.0</ele><time>2026-05-02T10:12:42.744Z</time></trkpt><trkpt lat="43.3119346" lon="12.1891104"><ele>535.0</ele><time>2026-05-02T10:12:43.745Z</time></trkpt><trkpt lat="43.3119691" lon="12.1892399"><ele>535.0</ele><time>2026-05-02T10:12:44.75Z</time></trkpt><trkpt lat="43.3120174" lon="12.1893703"><ele>534.1666666666667</ele><time>2026-05-02T10:12:45.75Z</time></trkpt><trkpt lat="43.3120646" lon="12.1895041"><ele>533.3333333333334</ele><time>2026-05-02T10:12:46.747Z</time></trkpt><trkpt lat="43.3121012" lon="12.1896228"><ele>532.5</ele><time>2026-05-02T10:12:47.749Z</time></trkpt><trkpt lat="43.3121176" lon="12.1897356"><ele>531.6666666666666</ele><time>2026-05-02T10:12:48.744Z</time></trkpt><trkpt lat="43.3121149" lon="12.1898435"><ele>530.8333333333333</ele><time>2026-05-02T10:12:49.75Z</time></trkpt><trkpt lat="43.3120862" lon="12.1899387"><ele>530.0</ele><time>2026-05-02T10:12:50.735Z</time></trkpt><trkpt lat="43.3120323" lon="12.1900214"><ele>529.5</ele><time>2026-05-02T10:12:51.731Z</time></trkpt><trkpt lat="43.3119732" lon="12.1900915"><ele>529.0</ele><time>2026-05-02T10:12:52.738Z</time></trkpt><trkpt lat="43.3119039" lon="12.1901661"><ele>528.5</ele><time>2026-05-02T10:12:53.747Z</time></trkpt><trkpt lat="43.3118307" lon="12.1902455"><ele>528.0</ele><time>2026-05-02T10:12:54.74Z</time></trkpt><trkpt lat="43.3117676" lon="12.1903324"><ele>527.5</ele><time>2026-05-02T10:12:55.743Z</time></trkpt><trkpt lat="43.3117213" lon="12.1904372"><ele>527.0</ele><time>2026-05-02T10:12:56.74Z</time></trkpt><trkpt lat="43.3117135" lon="12.190566"><ele>525.0</ele><time>2026-05-02T10:12:57.734Z</time></trkpt><trkpt lat="43.3117465" lon="12.190707"><ele>523.0</ele><time>2026-05-02T10:12:58.725Z</time></trkpt><trkpt lat="43.3117823" lon="12.1908433"><ele>521.0</ele><time>2026-05-02T10:12:59.743Z</time></trkpt><trkpt lat="43.3118259" lon="12.190973"><ele>519.0</ele><time>2026-05-02T10:13:00.745Z</time></trkpt><trkpt lat="43.311876" lon="12.1911211"><ele>517.0</ele><time>2026-05-02T10:13:01.733Z</time></trkpt><trkpt lat="43.3119371" lon="12.1912599"><ele>517.0</ele><time>2026-05-02T10:13:02.759Z</time></trkpt><trkpt lat="43.3120064" lon="12.1913973"><ele>517.0</ele><time>2026-05-02T10:13:03.745Z</time></trkpt><trkpt lat="43.3120889" lon="12.1915233"><ele>517.0</ele><time>2026-05-02T10:13:04.751Z</time></trkpt><trkpt lat="43.312174" lon="12.1916353"><ele>517.0</ele><time>2026-05-02T10:13:05.75Z</time></trkpt><trkpt lat="43.3122462" lon="12.1917315"><ele>515.3333333333334</ele><time>2026-05-02T10:13:06.747Z</time></trkpt><trkpt lat="43.3122977" lon="12.1918145"><ele>513.6666666666667</ele><time>2026-05-02T10:13:07.762Z</time></trkpt><trkpt lat="43.3123585" lon="12.1919168"><ele>512.0</ele><time>2026-05-02T10:13:09.751Z</time></trkpt><trkpt lat="43.3123968" lon="12.1919885"><ele>510.33333333333337</ele><time>2026-05-02T10:13:12.748Z</time></trkpt><trkpt lat="43.3124444" lon="12.1921131"><ele>508.6666666666667</ele><time>2026-05-02T10:19:27.742Z</time></trkpt><trkpt lat="43.3124899" lon="12.1921953"><ele>507.0</ele><time>2026-05-02T10:19:28.755Z</time></trkpt><trkpt lat="43.3125449" lon="12.1922861"><ele>506.8</ele><time>2026-05-02T10:19:29.742Z</time></trkpt><trkpt lat="43.3126001" lon="12.1923777"><ele>506.6</ele><time>2026-05-02T10:19:30.747Z</time></trkpt><trkpt lat="43.3126418" lon="12.1924786"><ele>506.40000000000003</ele><time>2026-05-02T10:19:31.74Z</time></trkpt><trkpt lat="43.3126816" lon="12.1925889"><ele>506.20000000000005</ele><time>2026-05-02T10:19:32.748Z</time></trkpt><trkpt lat="43.3127216" lon="12.1927095"><ele>506.0</ele><time>2026-05-02T10:19:33.745Z</time></trkpt><trkpt lat="43.3127492" lon="12.1928458"><ele>506.0</ele><time>2026-05-02T10:19:34.742Z</time></trkpt><trkpt lat="43.3127731" lon="12.1929644"><ele>506.0</ele><time>2026-05-02T10:19:35.745Z</time></trkpt><trkpt lat="43.3127866" lon="12.1930602"><ele>506.0</ele><time>2026-05-02T10:19:36.752Z</time></trkpt><trkpt lat="43.3127603" lon="12.193215"><ele>506.0</ele><time>2026-05-02T10:19:38.752Z</time></trkpt><trkpt lat="43.3126397" lon="12.1932633"><ele>506.0</ele><time>2026-05-02T10:19:40.75Z</time></trkpt><trkpt lat="43.3125795" lon="12.193226"><ele>505.99999999999994</ele><time>2026-05-02T10:19:41.75Z</time></trkpt><trkpt lat="43.3125259" lon="12.1931641"><ele>506.0</ele><time>2026-05-02T10:19:42.749Z</time></trkpt><trkpt lat="43.3124614" lon="12.1930888"><ele>506.0</ele><time>2026-05-02T10:19:43.751Z</time></trkpt><trkpt lat="43.3123778" lon="12.1930271"><ele>506.0</ele><time>2026-05-02T10:19:44.759Z</time></trkpt><trkpt lat="43.3122925" lon="12.1930081"><ele>505.99999999999994</ele><time>2026-05-02T10:19:45.756Z</time></trkpt><trkpt lat="43.3121924" lon="12.193029"><ele>506.0</ele><time>2026-05-02T10:19:46.747Z</time></trkpt><trkpt lat="43.3120819" lon="12.1930757"><ele>505.0</ele><time>2026-05-02T10:19:47.737Z</time></trkpt><trkpt lat="43.3119686" lon="12.1931282"><ele>504.0</ele><time>2026-05-02T10:19:48.755Z</time></trkpt><trkpt lat="43.3118526" lon="12.1931795"><ele>503.0</ele><time>2026-05-02T10:19:49.746Z</time></trkpt><trkpt lat="43.3117384" lon="12.1932058"><ele>502.0</ele><time>2026-05-02T10:19:50.751Z</time></trkpt><trkpt lat="43.3116392" lon="12.1932418"><ele>501.1666666666667</ele><time>2026-05-02T10:19:51.746Z</time></trkpt><trkpt lat="43.3115485" lon="12.1932921"><ele>500.33333333333337</ele><time>2026-05-02T10:19:52.74Z</time></trkpt><trkpt lat="43.3114698" lon="12.1933568"><ele>499.5</ele><time>2026-05-02T10:19:53.747Z</time></trkpt><trkpt lat="43.311407" lon="12.1934396"><ele>498.66666666666663</ele><time>2026-05-02T10:19:54.755Z</time></trkpt><trkpt lat="43.3113585" lon="12.1935183"><ele>497.8333333333333</ele><time>2026-05-02T10:19:55.747Z</time></trkpt><trkpt lat="43.3113232" lon="12.1935946"><ele>497.0</ele><time>2026-05-02T10:19:56.739Z</time></trkpt><trkpt lat="43.3113011" lon="12.1937346"><ele>497.0</ele><time>2026-05-02T10:19:58.747Z</time></trkpt><trkpt lat="43.3113805" lon="12.1938616"><ele>497.00000000000006</ele><time>2026-05-02T10:20:00.749Z</time></trkpt><trkpt lat="43.311447" lon="12.1939145"><ele>497.00000000000006</ele><time>2026-05-02T10:20:01.743Z</time></trkpt><trkpt lat="43.3115273" lon="12.1939756"><ele>497.0</ele><time>2026-05-02T10:20:02.748Z</time></trkpt><trkpt lat="43.3116062" lon="12.1940485"><ele>497.0</ele><time>2026-05-02T10:20:03.733Z</time></trkpt><trkpt lat="43.3116767" lon="12.1941335"><ele>494.20000000000005</ele><time>2026-05-02T10:20:04.743Z</time></trkpt><trkpt lat="43.3117315" lon="12.194248"><ele>491.40000000000003</ele><time>2026-05-02T10:20:05.75Z</time></trkpt><trkpt lat="43.3117635" lon="12.1943897"><ele>488.59999999999997</ele><time>2026-05-02T10:20:06.739Z</time></trkpt><trkpt lat="43.3117797" lon="12.194537"><ele>485.79999999999995</ele><time>2026-05-02T10:20:07.732Z</time></trkpt><trkpt lat="43.3118181" lon="12.1946614"><ele>483.0</ele><time>2026-05-02T10:20:08.75Z</time></trkpt><trkpt lat="43.3118759" lon="12.1947555"><ele>483.0</ele><time>2026-05-02T10:20:09.729Z</time></trkpt><trkpt lat="43.3119522" lon="12.194822"><ele>482.99999999999994</ele><time>2026-05-02T10:20:10.754Z</time></trkpt><trkpt lat="43.3120391" lon="12.1948631"><ele>482.99999999999994</ele><time>2026-05-02T10:20:11.734Z</time></trkpt><trkpt lat="43.3121415" lon="12.1948889"><ele>483.0</ele><time>2026-05-02T10:20:12.742Z</time></trkpt><trkpt lat="43.31225" lon="12.1949205"><ele>483.0</ele><time>2026-05-02T10:20:13.747Z</time></trkpt><trkpt lat="43.3123732" lon="12.1949703"><ele>481.33333333333337</ele><time>2026-05-02T10:20:14.758Z</time></trkpt><trkpt lat="43.3125054" lon="12.1950387"><ele>479.6666666666667</ele><time>2026-05-02T10:20:15.755Z</time></trkpt><trkpt lat="43.3126628" lon="12.1951293"><ele>478.0</ele><time>2026-05-02T10:20:16.719Z</time></trkpt><trkpt lat="43.3128247" lon="12.1952272"><ele>478.0</ele><time>2026-05-02T10:20:17.737Z</time></trkpt><trkpt lat="43.3129916" lon="12.1953255"><ele>478.0</ele><time>2026-05-02T10:20:18.747Z</time></trkpt><trkpt lat="43.3131509" lon="12.195423"><ele>478.0</ele><time>2026-05-02T10:20:19.741Z</time></trkpt><trkpt lat="43.3132932" lon="12.1955199"><ele>479.5</ele><time>2026-05-02T10:20:20.754Z</time></trkpt><trkpt lat="43.3134188" lon="12.1956094"><ele>481.0</ele><time>2026-05-02T10:20:21.742Z</time></trkpt><trkpt lat="43.3135256" lon="12.195701"><ele>482.5</ele><time>2026-05-02T10:20:22.75Z</time></trkpt><trkpt lat="43.313626" lon="12.1958278"><ele>484.0</ele><time>2026-05-02T10:20:23.747Z</time></trkpt><trkpt lat="43.3137209" lon="12.1959824"><ele>484.0</ele><time>2026-05-02T10:20:24.743Z</time></trkpt><trkpt lat="43.3138209" lon="12.1961525"><ele>484.0</ele><time>2026-05-02T10:20:25.736Z</time></trkpt><trkpt lat="43.3139165" lon="12.1963067"><ele>484.0</ele><time>2026-05-02T10:20:26.739Z</time></trkpt><trkpt lat="43.3140077" lon="12.1964454"><ele>484.0</ele><time>2026-05-02T10:20:27.747Z</time></trkpt><trkpt lat="43.3140868" lon="12.1965753"><ele>482.0</ele><time>2026-05-02T10:20:28.754Z</time></trkpt><trkpt lat="43.3141607" lon="12.1967039"><ele>480.0</ele><time>2026-05-02T10:20:29.751Z</time></trkpt><trkpt lat="43.314228" lon="12.1968249"><ele>478.0</ele><time>2026-05-02T10:20:30.746Z</time></trkpt><trkpt lat="43.3142915" lon="12.1969545"><ele>476.0</ele><time>2026-05-02T10:20:31.736Z</time></trkpt><trkpt lat="43.3143443" lon="12.1971042"><ele>476.0</ele><time>2026-05-02T10:20:32.753Z</time></trkpt><trkpt lat="43.3143875" lon="12.1972753"><ele>476.0</ele><time>2026-05-02T10:20:33.749Z</time></trkpt><trkpt lat="43.3144216" lon="12.1974636"><ele>476.0</ele><time>2026-05-02T10:20:34.733Z</time></trkpt><trkpt lat="43.3144496" lon="12.1976633"><ele>476.0</ele><time>2026-05-02T10:20:35.737Z</time></trkpt><trkpt lat="43.3144807" lon="12.1978624"><ele>476.0</ele><time>2026-05-02T10:20:36.737Z</time></trkpt><trkpt lat="43.3145093" lon="12.1980424"><ele>476.0</ele><time>2026-05-02T10:20:37.747Z</time></trkpt><trkpt lat="43.3145452" lon="12.1982143"><ele>476.0</ele><time>2026-05-02T10:20:38.751Z</time></trkpt><trkpt lat="43.314582" lon="12.1983796"><ele>476.0</ele><time>2026-05-02T10:20:39.746Z</time></trkpt><trkpt lat="43.3146103" lon="12.1985453"><ele>477.0</ele><time>2026-05-02T10:20:40.756Z</time></trkpt><trkpt lat="43.3146218" lon="12.1986975"><ele>478.0</ele><time>2026-05-02T10:20:41.756Z</time></trkpt><trkpt lat="43.3146193" lon="12.1988545"><ele>479.0</ele><time>2026-05-02T10:20:42.75Z</time></trkpt><trkpt lat="43.3146018" lon="12.1990297"><ele>480.0</ele><time>2026-05-02T10:20:43.751Z</time></trkpt><trkpt lat="43.3145749" lon="12.1992189"><ele>480.75</ele><time>2026-05-02T10:20:44.755Z</time></trkpt><trkpt lat="43.3145502" lon="12.1994033"><ele>481.5</ele><time>2026-05-02T10:20:45.751Z</time></trkpt><trkpt lat="43.314514" lon="12.1995518"><ele>482.25</ele><time>2026-05-02T10:20:46.746Z</time></trkpt><trkpt lat="43.3144626" lon="12.1996677"><ele>483.0</ele><time>2026-05-02T10:20:47.744Z</time></trkpt><trkpt lat="43.3143927" lon="12.199772"><ele>483.25</ele><time>2026-05-02T10:20:48.75Z</time></trkpt><trkpt lat="43.314307" lon="12.1998859"><ele>483.5</ele><time>2026-05-02T10:20:49.743Z</time></trkpt><trkpt lat="43.3142108" lon="12.2000156"><ele>483.75</ele><time>2026-05-02T10:20:50.749Z</time></trkpt><trkpt lat="43.3141072" lon="12.2001578"><ele>484.0</ele><time>2026-05-02T10:20:51.749Z</time></trkpt><trkpt lat="43.3140033" lon="12.2002974"><ele>484.0</ele><time>2026-05-02T10:20:52.74Z</time></trkpt><trkpt lat="43.3139075" lon="12.2004398"><ele>484.0</ele><time>2026-05-02T10:20:53.744Z</time></trkpt><trkpt lat="43.3138348" lon="12.2005802"><ele>484.0</ele><time>2026-05-02T10:20:54.744Z</time></trkpt><trkpt lat="43.3137759" lon="12.2007138"><ele>484.0</ele><time>2026-05-02T10:20:55.733Z</time></trkpt><trkpt lat="43.3137411" lon="12.2008509"><ele>488.2</ele><time>2026-05-02T10:20:56.749Z</time></trkpt><trkpt lat="43.3137268" lon="12.200996"><ele>492.4</ele><time>2026-05-02T10:20:57.742Z</time></trkpt><trkpt lat="43.3137376" lon="12.201147"><ele>496.6</ele><time>2026-05-02T10:20:58.761Z</time></trkpt><trkpt lat="43.3137749" lon="12.2012955"><ele>500.8</ele><time>2026-05-02T10:20:59.746Z</time></trkpt><trkpt lat="43.313828" lon="12.2014404"><ele>505.0</ele><time>2026-05-02T10:21:00.77Z</time></trkpt><trkpt lat="43.3138984" lon="12.201581"><ele>499.75</ele><time>2026-05-02T10:21:01.742Z</time></trkpt><trkpt lat="43.3139856" lon="12.2017035"><ele>494.5</ele><time>2026-05-02T10:21:02.75Z</time></trkpt><trkpt lat="43.3140729" lon="12.2018259"><ele>489.25</ele><time>2026-05-02T10:21:03.748Z</time></trkpt><trkpt lat="43.3141437" lon="12.2019394"><ele>484.0</ele><time>2026-05-02T10:21:04.745Z</time></trkpt><trkpt lat="43.3142027" lon="12.2020578"><ele>484.00000000000006</ele><time>2026-05-02T10:21:05.748Z</time></trkpt><trkpt lat="43.3142364" lon="12.2021648"><ele>484.0</ele><time>2026-05-02T10:21:06.755Z</time></trkpt><trkpt lat="43.3142381" lon="12.2022693"><ele>484.0</ele><time>2026-05-02T10:21:07.743Z</time></trkpt><trkpt lat="43.314213" lon="12.2023753"><ele>484.0</ele><time>2026-05-02T10:21:08.748Z</time></trkpt><trkpt lat="43.3141771" lon="12.2024846"><ele>484.00000000000006</ele><time>2026-05-02T10:21:09.734Z</time></trkpt><trkpt lat="43.314137" lon="12.2026096"><ele>484.0</ele><time>2026-05-02T10:21:10.758Z</time></trkpt><trkpt lat="43.3141034" lon="12.2027475"><ele>485.25</ele><time>2026-05-02T10:21:11.75Z</time></trkpt><trkpt lat="43.3140761" lon="12.2029045"><ele>486.5</ele><time>2026-05-02T10:21:12.753Z</time></trkpt><trkpt lat="43.3140352" lon="12.2030695"><ele>487.75</ele><time>2026-05-02T10:21:13.745Z</time></trkpt><trkpt lat="43.3139763" lon="12.2032261"><ele>489.0</ele><time>2026-05-02T10:21:14.75Z</time></trkpt><trkpt lat="43.3138891" lon="12.2033646"><ele>495.0</ele><time>2026-05-02T10:21:15.741Z</time></trkpt><trkpt lat="43.3137856" lon="12.2034883"><ele>501.0</ele><time>2026-05-02T10:21:16.743Z</time></trkpt><trkpt lat="43.313676" lon="12.2036039"><ele>507.0</ele><time>2026-05-02T10:21:17.74Z</time></trkpt><trkpt lat="43.3135594" lon="12.2036976"><ele>513.0</ele><time>2026-05-02T10:21:18.766Z</time></trkpt><trkpt lat="43.3134389" lon="12.2037762"><ele>513.0</ele><time>2026-05-02T10:21:19.738Z</time></trkpt><trkpt lat="43.3133086" lon="12.2038488"><ele>513.0</ele><time>2026-05-02T10:21:20.753Z</time></trkpt><trkpt lat="43.3131788" lon="12.2039427"><ele>513.0</ele><time>2026-05-02T10:21:21.744Z</time></trkpt><trkpt lat="43.3130473" lon="12.2040518"><ele>513.0</ele><time>2026-05-02T10:21:22.736Z</time></trkpt><trkpt lat="43.3129099" lon="12.2041668"><ele>514.5</ele><time>2026-05-02T10:21:23.747Z</time></trkpt><trkpt lat="43.3127754" lon="12.2042698"><ele>516.0</ele><time>2026-05-02T10:21:24.755Z</time></trkpt><trkpt lat="43.3126569" lon="12.2043661"><ele>517.5</ele><time>2026-05-02T10:21:25.732Z</time></trkpt><trkpt lat="43.3125445" lon="12.2044625"><ele>519.0</ele><time>2026-05-02T10:21:26.746Z</time></trkpt><trkpt lat="43.3124361" lon="12.2045658"><ele>519.0</ele><time>2026-05-02T10:21:27.733Z</time></trkpt><trkpt lat="43.3123215" lon="12.2046942"><ele>519.0</ele><time>2026-05-02T10:21:28.757Z</time></trkpt><trkpt lat="43.3122094" lon="12.2048404"><ele>519.0</ele><time>2026-05-02T10:21:29.735Z</time></trkpt><trkpt lat="43.3121015" lon="12.204995"><ele>519.75</ele><time>2026-05-02T10:21:30.742Z</time></trkpt><trkpt lat="43.3120079" lon="12.2051598"><ele>520.5</ele><time>2026-05-02T10:21:31.747Z</time></trkpt><trkpt lat="43.3119334" lon="12.2053307"><ele>521.25</ele><time>2026-05-02T10:21:32.761Z</time></trkpt><trkpt lat="43.3118808" lon="12.2055259"><ele>522.0</ele><time>2026-05-02T10:21:33.743Z</time></trkpt><trkpt lat="43.3118302" lon="12.2057353"><ele>522.0</ele><time>2026-05-02T10:21:34.75Z</time></trkpt><trkpt lat="43.3117787" lon="12.2059483"><ele>522.0</ele><time>2026-05-02T10:21:35.734Z</time></trkpt><trkpt lat="43.3117332" lon="12.2061571"><ele>522.0</ele><time>2026-05-02T10:21:36.758Z</time></trkpt><trkpt lat="43.311701" lon="12.2063688"><ele>521.75</ele><time>2026-05-02T10:21:37.753Z</time></trkpt><trkpt lat="43.3116853" lon="12.2065722"><ele>521.5</ele><time>2026-05-02T10:21:38.751Z</time></trkpt><trkpt lat="43.3116844" lon="12.206749"><ele>521.25</ele><time>2026-05-02T10:21:39.745Z</time></trkpt><trkpt lat="43.3116767" lon="12.2069173"><ele>521.0</ele><time>2026-05-02T10:21:40.745Z</time></trkpt><trkpt lat="43.3116493" lon="12.2070848"><ele>521.0</ele><time>2026-05-02T10:21:41.747Z</time></trkpt><trkpt lat="43.3116025" lon="12.2072458"><ele>521.0</ele><time>2026-05-02T10:21:42.76Z</time></trkpt><trkpt lat="43.3115352" lon="12.2073889"><ele>521.0</ele><time>2026-05-02T10:21:43.747Z</time></trkpt><trkpt lat="43.3114534" lon="12.2075195"><ele>521.0</ele><time>2026-05-02T10:21:44.746Z</time></trkpt><trkpt lat="43.3113804" lon="12.2076536"><ele>525.75</ele><time>2026-05-02T10:21:45.748Z</time></trkpt><trkpt lat="43.3113387" lon="12.2078033"><ele>530.5</ele><time>2026-05-02T10:21:46.727Z</time></trkpt><trkpt lat="43.3113237" lon="12.2079706"><ele>535.25</ele><time>2026-05-02T10:21:47.756Z</time></trkpt><trkpt lat="43.3113277" lon="12.208159"><ele>540.0</ele><time>2026-05-02T10:21:48.745Z</time></trkpt><trkpt lat="43.3113253" lon="12.2083395"><ele>540.0</ele><time>2026-05-02T10:21:49.741Z</time></trkpt><trkpt lat="43.3113087" lon="12.2084845"><ele>540.0</ele><time>2026-05-02T10:21:50.738Z</time></trkpt><trkpt lat="43.3112914" lon="12.2085923"><ele>540.0</ele><time>2026-05-02T10:21:51.741Z</time></trkpt><trkpt lat="43.3112609" lon="12.2086857"><ele>540.0</ele><time>2026-05-02T10:21:52.743Z</time></trkpt><trkpt lat="43.3112108" lon="12.2087678"><ele>540.0</ele><time>2026-05-02T10:21:53.746Z</time></trkpt><trkpt lat="43.3111588" lon="12.2088439"><ele>540.0</ele><time>2026-05-02T10:21:54.737Z</time></trkpt><trkpt lat="43.3111122" lon="12.2089304"><ele>539.2</ele><time>2026-05-02T10:21:55.751Z</time></trkpt><trkpt lat="43.3110776" lon="12.2090383"><ele>538.4</ele><time>2026-05-02T10:21:56.733Z</time></trkpt><trkpt lat="43.3110576" lon="12.2091628"><ele>537.6</ele><time>2026-05-02T10:21:57.745Z</time></trkpt><trkpt lat="43.3110401" lon="12.2092984"><ele>536.8</ele><time>2026-05-02T10:21:58.75Z</time></trkpt><trkpt lat="43.31103" lon="12.2094444"><ele>536.0</ele><time>2026-05-02T10:21:59.74Z</time></trkpt><trkpt lat="43.3110229" lon="12.209587"><ele>536.0</ele><time>2026-05-02T10:22:00.739Z</time></trkpt><trkpt lat="43.3110108" lon="12.2097201"><ele>536.0</ele><time>2026-05-02T10:22:01.736Z</time></trkpt><trkpt lat="43.3109999" lon="12.2098505"><ele>536.0</ele><time>2026-05-02T10:22:02.751Z</time></trkpt><trkpt lat="43.3109811" lon="12.2099742"><ele>536.0</ele><time>2026-05-02T10:22:03.738Z</time></trkpt><trkpt lat="43.3109489" lon="12.2100925"><ele>536.0</ele><time>2026-05-02T10:22:04.748Z</time></trkpt><trkpt lat="43.3109029" lon="12.2102115"><ele>536.75</ele><time>2026-05-02T10:22:05.746Z</time></trkpt><trkpt lat="43.3108344" lon="12.2103377"><ele>537.5</ele><time>2026-05-02T10:22:06.755Z</time></trkpt><trkpt lat="43.3107532" lon="12.2104656"><ele>538.25</ele><time>2026-05-02T10:22:07.745Z</time></trkpt><trkpt lat="43.3106599" lon="12.2105904"><ele>539.0</ele><time>2026-05-02T10:22:08.74Z</time></trkpt><trkpt lat="43.3105641" lon="12.2107171"><ele>540.25</ele><time>2026-05-02T10:22:09.743Z</time></trkpt><trkpt lat="43.310466" lon="12.2108426"><ele>541.5</ele><time>2026-05-02T10:22:10.753Z</time></trkpt><trkpt lat="43.3103695" lon="12.2109632"><ele>542.75</ele><time>2026-05-02T10:22:11.746Z</time></trkpt><trkpt lat="43.3102731" lon="12.2110659"><ele>544.0</ele><time>2026-05-02T10:22:12.737Z</time></trkpt><trkpt lat="43.3101836" lon="12.2111355"><ele>544.0</ele><time>2026-05-02T10:22:13.745Z</time></trkpt><trkpt lat="43.3100927" lon="12.2111687"><ele>544.0</ele><time>2026-05-02T10:22:14.741Z</time></trkpt><trkpt lat="43.3100074" lon="12.2111616"><ele>544.0</ele><time>2026-05-02T10:22:15.738Z</time></trkpt><trkpt lat="43.3099251" lon="12.21112"><ele>544.0</ele><time>2026-05-02T10:22:16.764Z</time></trkpt><trkpt lat="43.3098308" lon="12.2110789"><ele>544.0</ele><time>2026-05-02T10:22:17.743Z</time></trkpt><trkpt lat="43.3097191" lon="12.2110588"><ele>542.6</ele><time>2026-05-02T10:22:18.741Z</time></trkpt><trkpt lat="43.3096005" lon="12.2110602"><ele>541.2</ele><time>2026-05-02T10:22:19.744Z</time></trkpt><trkpt lat="43.3094923" lon="12.2110855"><ele>539.8000000000001</ele><time>2026-05-02T10:22:20.729Z</time></trkpt><trkpt lat="43.3093944" lon="12.2111412"><ele>538.4</ele><time>2026-05-02T10:22:21.748Z</time></trkpt><trkpt lat="43.3093124" lon="12.211216"><ele>537.0</ele><time>2026-05-02T10:22:22.742Z</time></trkpt><trkpt lat="43.3092349" lon="12.2113027"><ele>537.0</ele><time>2026-05-02T10:22:23.736Z</time></trkpt><trkpt lat="43.3091439" lon="12.2113824"><ele>537.0</ele><time>2026-05-02T10:22:24.755Z</time></trkpt><trkpt lat="43.3090443" lon="12.2114534"><ele>537.0</ele><time>2026-05-02T10:22:25.746Z</time></trkpt><trkpt lat="43.3089291" lon="12.2115041"><ele>537.0</ele><time>2026-05-02T10:22:26.749Z</time></trkpt><trkpt lat="43.3088013" lon="12.2115558"><ele>534.25</ele><time>2026-05-02T10:22:27.751Z</time></trkpt><trkpt lat="43.3086689" lon="12.2116073"><ele>531.5</ele><time>2026-05-02T10:22:28.745Z</time></trkpt><trkpt lat="43.3085442" lon="12.2116459"><ele>528.75</ele><time>2026-05-02T10:22:29.746Z</time></trkpt><trkpt lat="43.3084301" lon="12.2116939"><ele>526.0</ele><time>2026-05-02T10:22:30.753Z</time></trkpt><trkpt lat="43.3083319" lon="12.2117615"><ele>526.0</ele><time>2026-05-02T10:22:31.757Z</time></trkpt><trkpt lat="43.3082514" lon="12.2118485"><ele>526.0</ele><time>2026-05-02T10:22:32.745Z</time></trkpt><trkpt lat="43.3081847" lon="12.2119515"><ele>526.0</ele><time>2026-05-02T10:22:33.744Z</time></trkpt><trkpt lat="43.3081207" lon="12.2120784"><ele>526.0</ele><time>2026-05-02T10:22:34.747Z</time></trkpt><trkpt lat="43.3080664" lon="12.2122301"><ele>526.0</ele><time>2026-05-02T10:22:35.751Z</time></trkpt><trkpt lat="43.3080218" lon="12.2123764"><ele>527.2</ele><time>2026-05-02T10:22:36.754Z</time></trkpt><trkpt lat="43.307996" lon="12.2125109"><ele>528.4000000000001</ele><time>2026-05-02T10:22:37.753Z</time></trkpt><trkpt lat="43.307988" lon="12.2126347"><ele>529.6</ele><time>2026-05-02T10:22:38.752Z</time></trkpt><trkpt lat="43.3080068" lon="12.2127497"><ele>530.8000000000001</ele><time>2026-05-02T10:22:39.747Z</time></trkpt><trkpt lat="43.308048" lon="12.2128826"><ele>532.0</ele><time>2026-05-02T10:22:40.749Z</time></trkpt><trkpt lat="43.3080895" lon="12.2130354"><ele>530.5</ele><time>2026-05-02T10:22:41.75Z</time></trkpt><trkpt lat="43.3080981" lon="12.2131952"><ele>529.0</ele><time>2026-05-02T10:22:42.757Z</time></trkpt><trkpt lat="43.3080962" lon="12.2133515"><ele>527.5</ele><time>2026-05-02T10:22:43.741Z</time></trkpt><trkpt lat="43.3080892" lon="12.2135019"><ele>526.0</ele><time>2026-05-02T10:22:44.745Z</time></trkpt><trkpt lat="43.3081284" lon="12.2136521"><ele>526.0</ele><time>2026-05-02T10:22:45.745Z</time></trkpt><trkpt lat="43.3081821" lon="12.2137937"><ele>526.0</ele><time>2026-05-02T10:22:46.752Z</time></trkpt><trkpt lat="43.3082332" lon="12.2139325"><ele>526.0</ele><time>2026-05-02T10:22:47.751Z</time></trkpt><trkpt lat="43.3082693" lon="12.2140643"><ele>526.0</ele><time>2026-05-02T10:22:48.743Z</time></trkpt><trkpt lat="43.3082839" lon="12.2141939"><ele>526.0</ele><time>2026-05-02T10:22:49.748Z</time></trkpt><trkpt lat="43.3082722" lon="12.2143326"><ele>524.6</ele><time>2026-05-02T10:22:50.752Z</time></trkpt><trkpt lat="43.3082534" lon="12.2144917"><ele>523.2</ele><time>2026-05-02T10:22:51.754Z</time></trkpt><trkpt lat="43.3082335" lon="12.2146534"><ele>521.8</ele><time>2026-05-02T10:22:52.759Z</time></trkpt><trkpt lat="43.3082026" lon="12.214797"><ele>520.4</ele><time>2026-05-02T10:22:53.739Z</time></trkpt><trkpt lat="43.3081618" lon="12.2149193"><ele>519.0</ele><time>2026-05-02T10:22:54.744Z</time></trkpt><trkpt lat="43.3080981" lon="12.2150128"><ele>516.6</ele><time>2026-05-02T10:22:55.74Z</time></trkpt><trkpt lat="43.308025" lon="12.2150777"><ele>514.2</ele><time>2026-05-02T10:22:56.736Z</time></trkpt><trkpt lat="43.3079466" lon="12.2151184"><ele>511.80000000000007</ele><time>2026-05-02T10:22:57.739Z</time></trkpt><trkpt lat="43.3078582" lon="12.2151319"><ele>509.40000000000003</ele><time>2026-05-02T10:22:58.743Z</time></trkpt><trkpt lat="43.3077606" lon="12.2151051"><ele>507.0</ele><time>2026-05-02T10:22:59.749Z</time></trkpt><trkpt lat="43.307658" lon="12.2150538"><ele>507.0</ele><time>2026-05-02T10:23:00.745Z</time></trkpt><trkpt lat="43.3075606" lon="12.2149882"><ele>507.00000000000006</ele><time>2026-05-02T10:23:01.735Z</time></trkpt><trkpt lat="43.3074685" lon="12.214903"><ele>507.00000000000006</ele><time>2026-05-02T10:23:02.746Z</time></trkpt><trkpt lat="43.3073906" lon="12.214799"><ele>507.0</ele><time>2026-05-02T10:23:03.739Z</time></trkpt><trkpt lat="43.3073324" lon="12.2146859"><ele>507.0</ele><time>2026-05-02T10:23:04.743Z</time></trkpt><trkpt lat="43.3072872" lon="12.2145571"><ele>509.0</ele><time>2026-05-02T10:23:05.742Z</time></trkpt><trkpt lat="43.3072487" lon="12.2144087"><ele>511.0</ele><time>2026-05-02T10:23:06.735Z</time></trkpt><trkpt lat="43.3071945" lon="12.2142541"><ele>513.0</ele><time>2026-05-02T10:23:07.759Z</time></trkpt><trkpt lat="43.3071172" lon="12.2141136"><ele>515.0</ele><time>2026-05-02T10:23:08.739Z</time></trkpt><trkpt lat="43.3070361" lon="12.2139775"><ele>509.6</ele><time>2026-05-02T10:23:09.743Z</time></trkpt><trkpt lat="43.3069694" lon="12.2138546"><ele>504.2</ele><time>2026-05-02T10:23:10.751Z</time></trkpt><trkpt lat="43.3069288" lon="12.2137458"><ele>498.79999999999995</ele><time>2026-05-02T10:23:11.754Z</time></trkpt><trkpt lat="43.3069046" lon="12.2136597"><ele>493.4</ele><time>2026-05-02T10:23:12.754Z</time></trkpt><trkpt lat="43.3068367" lon="12.2135606"><ele>488.0</ele><time>2026-05-02T10:23:14.756Z</time></trkpt><trkpt lat="43.30673" lon="12.2135936"><ele>487.99999999999994</ele><time>2026-05-02T10:23:16.739Z</time></trkpt><trkpt lat="43.306684" lon="12.2136641"><ele>488.0</ele><time>2026-05-02T10:23:17.748Z</time></trkpt><trkpt lat="43.3066504" lon="12.2137523"><ele>487.99999999999994</ele><time>2026-05-02T10:23:18.738Z</time></trkpt><trkpt lat="43.3066453" lon="12.2138468"><ele>487.99999999999994</ele><time>2026-05-02T10:23:19.743Z</time></trkpt><trkpt lat="43.3066665" lon="12.2139329"><ele>488.0</ele><time>2026-05-02T10:23:20.757Z</time></trkpt><trkpt lat="43.3067132" lon="12.2140225"><ele>487.99999999999994</ele><time>2026-05-02T10:23:21.746Z</time></trkpt><trkpt lat="43.3067689" lon="12.2141103"><ele>487.99999999999994</ele><time>2026-05-02T10:23:22.751Z</time></trkpt><trkpt lat="43.3068156" lon="12.2142213"><ele>489.25</ele><time>2026-05-02T10:23:23.742Z</time></trkpt><trkpt lat="43.3068396" lon="12.2143794"><ele>490.5</ele><time>2026-05-02T10:23:24.755Z</time></trkpt><trkpt lat="43.3068314" lon="12.214547"><ele>491.75</ele><time>2026-05-02T10:23:25.757Z</time></trkpt><trkpt lat="43.306841" lon="12.2147155"><ele>493.0</ele><time>2026-05-02T10:23:26.735Z</time></trkpt><trkpt lat="43.3068789" lon="12.2148777"><ele>489.75</ele><time>2026-05-02T10:23:27.753Z</time></trkpt><trkpt lat="43.3069431" lon="12.2150502"><ele>486.5</ele><time>2026-05-02T10:23:28.75Z</time></trkpt><trkpt lat="43.307018" lon="12.2152266"><ele>483.25</ele><time>2026-05-02T10:23:29.753Z</time></trkpt><trkpt lat="43.307089" lon="12.2154035"><ele>480.0</ele><time>2026-05-02T10:23:30.754Z</time></trkpt><trkpt lat="43.3071484" lon="12.2155838"><ele>483.0</ele><time>2026-05-02T10:23:31.749Z</time></trkpt><trkpt lat="43.3071921" lon="12.2157535"><ele>486.0</ele><time>2026-05-02T10:23:32.745Z</time></trkpt><trkpt lat="43.307229" lon="12.2159107"><ele>489.0</ele><time>2026-05-02T10:23:33.758Z</time></trkpt><trkpt lat="43.3072787" lon="12.2160682"><ele>492.0</ele><time>2026-05-02T10:23:34.737Z</time></trkpt><trkpt lat="43.3073449" lon="12.2162241"><ele>492.0</ele><time>2026-05-02T10:23:35.744Z</time></trkpt><trkpt lat="43.3074282" lon="12.2163521"><ele>492.0</ele><time>2026-05-02T10:23:36.755Z</time></trkpt><trkpt lat="43.3075295" lon="12.2164532"><ele>492.0</ele><time>2026-05-02T10:23:37.758Z</time></trkpt><trkpt lat="43.3076403" lon="12.2165293"><ele>492.0</ele><time>2026-05-02T10:23:38.755Z</time></trkpt><trkpt lat="43.3077459" lon="12.2165784"><ele>489.5</ele><time>2026-05-02T10:23:39.744Z</time></trkpt><trkpt lat="43.3078276" lon="12.2166131"><ele>487.0</ele><time>2026-05-02T10:23:40.752Z</time></trkpt><trkpt lat="43.3078866" lon="12.2166544"><ele>484.5</ele><time>2026-05-02T10:23:41.746Z</time></trkpt><trkpt lat="43.3079243" lon="12.2167836"><ele>482.0</ele><time>2026-05-02T10:23:43.743Z</time></trkpt><trkpt lat="43.3079012" lon="12.216865"><ele>479.5</ele><time>2026-05-02T10:23:44.754Z</time></trkpt><trkpt lat="43.3078464" lon="12.2169294"><ele>477.0</ele><time>2026-05-02T10:23:45.737Z</time></trkpt><trkpt lat="43.3077744" lon="12.2169676"><ele>477.0</ele><time>2026-05-02T10:23:46.742Z</time></trkpt><trkpt lat="43.3076876" lon="12.2169725"><ele>477.00000000000006</ele><time>2026-05-02T10:23:47.738Z</time></trkpt><trkpt lat="43.3075884" lon="12.2169452"><ele>477.00000000000006</ele><time>2026-05-02T10:23:48.754Z</time></trkpt><trkpt lat="43.3074884" lon="12.2169016"><ele>477.0</ele><time>2026-05-02T10:23:49.742Z</time></trkpt><trkpt lat="43.3074003" lon="12.2168551"><ele>477.0</ele><time>2026-05-02T10:23:50.736Z</time></trkpt><trkpt lat="43.3073156" lon="12.2168228"><ele>474.20000000000005</ele><time>2026-05-02T10:23:51.738Z</time></trkpt><trkpt lat="43.3072406" lon="12.2168248"><ele>471.40000000000003</ele><time>2026-05-02T10:23:52.753Z</time></trkpt><trkpt lat="43.3071698" lon="12.2168701"><ele>468.59999999999997</ele><time>2026-05-02T10:23:53.74Z</time></trkpt><trkpt lat="43.3070965" lon="12.2169602"><ele>465.79999999999995</ele><time>2026-05-02T10:23:54.738Z</time></trkpt><trkpt lat="43.3070199" lon="12.2170666"><ele>463.0</ele><time>2026-05-02T10:23:55.751Z</time></trkpt><trkpt lat="43.3069545" lon="12.2171647"><ele>463.0</ele><time>2026-05-02T10:23:56.749Z</time></trkpt><trkpt lat="43.3068998" lon="12.2172444"><ele>462.99999999999994</ele><time>2026-05-02T10:23:57.758Z</time></trkpt><trkpt lat="43.3068356" lon="12.2173523"><ele>462.99999999999994</ele><time>2026-05-02T10:23:59.754Z</time></trkpt><trkpt lat="43.3067696" lon="12.2174578"><ele>463.0</ele><time>2026-05-02T10:24:01.748Z</time></trkpt><trkpt lat="43.3066728" lon="12.2175896"><ele>463.0</ele><time>2026-05-02T10:24:03.744Z</time></trkpt><trkpt lat="43.3066023" lon="12.2176811"><ele>461.75</ele><time>2026-05-02T10:24:04.757Z</time></trkpt><trkpt lat="43.3065158" lon="12.2177879"><ele>460.5</ele><time>2026-05-02T10:24:05.752Z</time></trkpt><trkpt lat="43.3064251" lon="12.2179066"><ele>459.25</ele><time>2026-05-02T10:24:06.755Z</time></trkpt><trkpt lat="43.3063325" lon="12.2180323"><ele>458.0</ele><time>2026-05-02T10:24:07.744Z</time></trkpt><trkpt lat="43.3062486" lon="12.2181554"><ele>455.0</ele><time>2026-05-02T10:24:08.752Z</time></trkpt><trkpt lat="43.3061787" lon="12.2182897"><ele>452.0</ele><time>2026-05-02T10:24:09.736Z</time></trkpt><trkpt lat="43.3061257" lon="12.2184303"><ele>449.0</ele><time>2026-05-02T10:24:10.747Z</time></trkpt><trkpt lat="43.306086" lon="12.218573"><ele>446.0</ele><time>2026-05-02T10:24:11.746Z</time></trkpt><trkpt lat="43.3060477" lon="12.2187111"><ele>446.0</ele><time>2026-05-02T10:24:12.745Z</time></trkpt><trkpt lat="43.3060022" lon="12.2188331"><ele>446.0</ele><time>2026-05-02T10:24:13.75Z</time></trkpt><trkpt lat="43.3059419" lon="12.2189317"><ele>446.0</ele><time>2026-05-02T10:24:14.749Z</time></trkpt><trkpt lat="43.3058567" lon="12.2189973"><ele>446.0</ele><time>2026-05-02T10:24:15.749Z</time></trkpt><trkpt lat="43.3057585" lon="12.2190525"><ele>446.0</ele><time>2026-05-02T10:24:16.751Z</time></trkpt><trkpt lat="43.3056558" lon="12.2191169"><ele>441.75</ele><time>2026-05-02T10:24:17.744Z</time></trkpt><trkpt lat="43.305553" lon="12.2191798"><ele>437.5</ele><time>2026-05-02T10:24:18.745Z</time></trkpt><trkpt lat="43.305449" lon="12.2192485"><ele>433.25</ele><time>2026-05-02T10:24:19.758Z</time></trkpt><trkpt lat="43.3053498" lon="12.219328"><ele>429.0</ele><time>2026-05-02T10:24:20.743Z</time></trkpt><trkpt lat="43.3052552" lon="12.2194313"><ele>429.0</ele><time>2026-05-02T10:24:21.745Z</time></trkpt><trkpt lat="43.3051669" lon="12.2195442"><ele>429.0</ele><time>2026-05-02T10:24:22.748Z</time></trkpt><trkpt lat="43.3050957" lon="12.2196622"><ele>429.0</ele><time>2026-05-02T10:24:23.751Z</time></trkpt><trkpt lat="43.3050453" lon="12.2197787"><ele>429.0</ele><time>2026-05-02T10:24:24.754Z</time></trkpt><trkpt lat="43.3050186" lon="12.2199014"><ele>429.0</ele><time>2026-05-02T10:24:25.754Z</time></trkpt><trkpt lat="43.3050112" lon="12.2200399"><ele>429.0</ele><time>2026-05-02T10:24:26.757Z</time></trkpt><trkpt lat="43.3050229" lon="12.2201932"><ele>429.0</ele><time>2026-05-02T10:24:27.752Z</time></trkpt><trkpt lat="43.3050523" lon="12.2203558"><ele>429.0</ele><time>2026-05-02T10:24:28.753Z</time></trkpt><trkpt lat="43.3050962" lon="12.2205203"><ele>429.0</ele><time>2026-05-02T10:24:29.748Z</time></trkpt><trkpt lat="43.305138" lon="12.2206707"><ele>427.6</ele><time>2026-05-02T10:24:30.751Z</time></trkpt><trkpt lat="43.3051856" lon="12.2207962"><ele>426.2</ele><time>2026-05-02T10:24:31.749Z</time></trkpt><trkpt lat="43.3052403" lon="12.220904"><ele>424.8</ele><time>2026-05-02T10:24:32.748Z</time></trkpt><trkpt lat="43.305303" lon="12.2210039"><ele>423.40000000000003</ele><time>2026-05-02T10:24:33.75Z</time></trkpt><trkpt lat="43.3053801" lon="12.2210899"><ele>422.0</ele><time>2026-05-02T10:24:34.751Z</time></trkpt><trkpt lat="43.305471" lon="12.2211487"><ele>421.99999999999994</ele><time>2026-05-02T10:24:35.755Z</time></trkpt><trkpt lat="43.3055704" lon="12.2211851"><ele>422.0</ele><time>2026-05-02T10:24:36.743Z</time></trkpt><trkpt lat="43.3056597" lon="12.2211933"><ele>422.0</ele><time>2026-05-02T10:24:37.748Z</time></trkpt><trkpt lat="43.3057373" lon="12.2212108"><ele>422.0</ele><time>2026-05-02T10:24:38.747Z</time></trkpt><trkpt lat="43.3057902" lon="12.2212593"><ele>421.99999999999994</ele><time>2026-05-02T10:24:39.75Z</time></trkpt><trkpt lat="43.3058203" lon="12.2213484"><ele>422.0</ele><time>2026-05-02T10:24:40.742Z</time></trkpt><trkpt lat="43.3058277" lon="12.221459"><ele>419.0</ele><time>2026-05-02T10:24:41.739Z</time></trkpt><trkpt lat="43.3058162" lon="12.2216082"><ele>416.0</ele><time>2026-05-02T10:24:42.739Z</time></trkpt><trkpt lat="43.3057986" lon="12.2217875"><ele>413.0</ele><time>2026-05-02T10:24:43.752Z</time></trkpt><trkpt lat="43.3057856" lon="12.2219708"><ele>410.0</ele><time>2026-05-02T10:24:44.744Z</time></trkpt><trkpt lat="43.3057851" lon="12.2221475"><ele>408.75</ele><time>2026-05-02T10:24:45.75Z</time></trkpt><trkpt lat="43.3057955" lon="12.2223164"><ele>407.5</ele><time>2026-05-02T10:24:46.751Z</time></trkpt><trkpt lat="43.3058308" lon="12.2224772"><ele>406.25</ele><time>2026-05-02T10:24:47.745Z</time></trkpt><trkpt lat="43.3058744" lon="12.2226346"><ele>405.0</ele><time>2026-05-02T10:24:48.743Z</time></trkpt><trkpt lat="43.3059126" lon="12.2227889"><ele>405.0</ele><time>2026-05-02T10:24:49.752Z</time></trkpt><trkpt lat="43.305937" lon="12.222924"><ele>405.0</ele><time>2026-05-02T10:24:50.741Z</time></trkpt><trkpt lat="43.3059344" lon="12.2230478"><ele>405.0</ele><time>2026-05-02T10:24:51.745Z</time></trkpt><trkpt lat="43.3058988" lon="12.2231548"><ele>405.0</ele><time>2026-05-02T10:24:52.743Z</time></trkpt><trkpt lat="43.3058353" lon="12.2232385"><ele>405.0</ele><time>2026-05-02T10:24:53.748Z</time></trkpt><trkpt lat="43.3057473" lon="12.2233312"><ele>404.0</ele><time>2026-05-02T10:24:54.745Z</time></trkpt><trkpt lat="43.3056512" lon="12.2234487"><ele>403.0</ele><time>2026-05-02T10:24:55.737Z</time></trkpt><trkpt lat="43.3055663" lon="12.2236023"><ele>402.0</ele><time>2026-05-02T10:24:56.73Z</time></trkpt><trkpt lat="43.3054949" lon="12.2237695"><ele>401.0</ele><time>2026-05-02T10:24:57.749Z</time></trkpt><trkpt lat="43.3054229" lon="12.2239058"><ele>397.6</ele><time>2026-05-02T10:24:58.749Z</time></trkpt><trkpt lat="43.3053404" lon="12.2240053"><ele>394.20000000000005</ele><time>2026-05-02T10:24:59.747Z</time></trkpt><trkpt lat="43.3052506" lon="12.2240729"><ele>390.79999999999995</ele><time>2026-05-02T10:25:00.747Z</time></trkpt><trkpt lat="43.3051517" lon="12.2241103"><ele>387.4</ele><time>2026-05-02T10:25:01.743Z</time></trkpt><trkpt lat="43.3050472" lon="12.2241245"><ele>384.0</ele><time>2026-05-02T10:25:02.749Z</time></trkpt><trkpt lat="43.3049305" lon="12.2241191"><ele>384.0</ele><time>2026-05-02T10:25:03.744Z</time></trkpt><trkpt lat="43.3047952" lon="12.2240999"><ele>384.0</ele><time>2026-05-02T10:25:04.75Z</time></trkpt><trkpt lat="43.3046535" lon="12.2240677"><ele>384.0</ele><time>2026-05-02T10:25:05.745Z</time></trkpt><trkpt lat="43.3045253" lon="12.2240361"><ele>384.0</ele><time>2026-05-02T10:25:06.75Z</time></trkpt><trkpt lat="43.3044119" lon="12.2239975"><ele>383.2</ele><time>2026-05-02T10:25:07.747Z</time></trkpt><trkpt lat="43.3043128" lon="12.2239328"><ele>382.4</ele><time>2026-05-02T10:25:08.754Z</time></trkpt><trkpt lat="43.3042315" lon="12.2238475"><ele>381.6</ele><time>2026-05-02T10:25:09.744Z</time></trkpt><trkpt lat="43.304171" lon="12.2237413"><ele>380.8</ele><time>2026-05-02T10:25:10.745Z</time></trkpt><trkpt lat="43.3041384" lon="12.2236069"><ele>380.0</ele><time>2026-05-02T10:25:11.757Z</time></trkpt><trkpt lat="43.3041337" lon="12.2234581"><ele>380.0</ele><time>2026-05-02T10:25:12.74Z</time></trkpt><trkpt lat="43.3041605" lon="12.223302"><ele>380.0</ele><time>2026-05-02T10:25:13.739Z</time></trkpt><trkpt lat="43.3042096" lon="12.2231571"><ele>380.0</ele><time>2026-05-02T10:25:14.743Z</time></trkpt><trkpt lat="43.3042575" lon="12.2230396"><ele>380.0</ele><time>2026-05-02T10:25:15.75Z</time></trkpt><trkpt lat="43.3042893" lon="12.2229459"><ele>380.0</ele><time>2026-05-02T10:25:16.746Z</time></trkpt><trkpt lat="43.3042805" lon="12.2228121"><ele>379.0</ele><time>2026-05-02T10:25:18.748Z</time></trkpt><trkpt lat="43.3041629" lon="12.2228038"><ele>378.0</ele><time>2026-05-02T10:25:20.752Z</time></trkpt><trkpt lat="43.3040855" lon="12.2228694"><ele>377.0</ele><time>2026-05-02T10:25:21.742Z</time></trkpt><trkpt lat="43.3040121" lon="12.2229713"><ele>376.0</ele><time>2026-05-02T10:25:22.747Z</time></trkpt><trkpt lat="43.3039445" lon="12.2231023"><ele>375.0</ele><time>2026-05-02T10:25:23.751Z</time></trkpt><trkpt lat="43.3038815" lon="12.2232512"><ele>370.75</ele><time>2026-05-02T10:25:24.748Z</time></trkpt><trkpt lat="43.3038232" lon="12.2234225"><ele>366.5</ele><time>2026-05-02T10:25:25.737Z</time></trkpt><trkpt lat="43.3037832" lon="12.2236117"><ele>362.25</ele><time>2026-05-02T10:25:26.748Z</time></trkpt><trkpt lat="43.3037455" lon="12.2238067"><ele>358.0</ele><time>2026-05-02T10:25:27.745Z</time></trkpt><trkpt lat="43.3036919" lon="12.2239962"><ele>358.0</ele><time>2026-05-02T10:25:28.749Z</time></trkpt><trkpt lat="43.3036268" lon="12.2241643"><ele>358.0</ele><time>2026-05-02T10:25:29.748Z</time></trkpt><trkpt lat="43.3035632" lon="12.2243118"><ele>358.0</ele><time>2026-05-02T10:25:30.755Z</time></trkpt><trkpt lat="43.3035108" lon="12.2244533"><ele>358.0</ele><time>2026-05-02T10:25:31.747Z</time></trkpt><trkpt lat="43.3034841" lon="12.2245948"><ele>358.0</ele><time>2026-05-02T10:25:32.743Z</time></trkpt><trkpt lat="43.3034848" lon="12.2247325"><ele>358.0</ele><time>2026-05-02T10:25:33.748Z</time></trkpt><trkpt lat="43.3034828" lon="12.2248505"><ele>358.0</ele><time>2026-05-02T10:25:34.742Z</time></trkpt><trkpt lat="43.3034695" lon="12.2249448"><ele>358.0</ele><time>2026-05-02T10:25:35.743Z</time></trkpt><trkpt lat="43.3034304" lon="12.2250133"><ele>358.0</ele><time>2026-05-02T10:25:36.743Z</time></trkpt><trkpt lat="43.3033675" lon="12.2250388"><ele>358.0</ele><time>2026-05-02T10:25:37.747Z</time></trkpt><trkpt lat="43.3032967" lon="12.2250257"><ele>358.0</ele><time>2026-05-02T10:25:38.737Z</time></trkpt><trkpt lat="43.3032194" lon="12.2249735"><ele>358.0</ele><time>2026-05-02T10:25:39.754Z</time></trkpt><trkpt lat="43.3031518" lon="12.2248903"><ele>358.0</ele><time>2026-05-02T10:25:40.748Z</time></trkpt><trkpt lat="43.3031013" lon="12.2247791"><ele>358.0</ele><time>2026-05-02T10:25:41.741Z</time></trkpt><trkpt lat="43.3030855" lon="12.224652"><ele>358.0</ele><time>2026-05-02T10:25:42.74Z</time></trkpt><trkpt lat="43.303096" lon="12.2245117"><ele>358.0</ele><time>2026-05-02T10:25:43.745Z</time></trkpt><trkpt lat="43.3031221" lon="12.2243759"><ele>358.0</ele><time>2026-05-02T10:25:44.74Z</time></trkpt><trkpt lat="43.3031634" lon="12.2242497"><ele>358.0</ele><time>2026-05-02T10:25:45.745Z</time></trkpt><trkpt lat="43.3031963" lon="12.2241489"><ele>358.0</ele><time>2026-05-02T10:25:46.75Z</time></trkpt><trkpt lat="43.3031801" lon="12.2240086"><ele>358.0</ele><time>2026-05-02T10:25:48.748Z</time></trkpt><trkpt lat="43.303064" lon="12.2240277"><ele>353.2</ele><time>2026-05-02T10:25:50.743Z</time></trkpt><trkpt lat="43.3030028" lon="12.2241125"><ele>348.4</ele><time>2026-05-02T10:25:51.749Z</time></trkpt><trkpt lat="43.3029444" lon="12.2242322"><ele>343.59999999999997</ele><time>2026-05-02T10:25:52.746Z</time></trkpt><trkpt lat="43.3028746" lon="12.2243683"><ele>338.79999999999995</ele><time>2026-05-02T10:25:53.756Z</time></trkpt><trkpt lat="43.3028002" lon="12.2245029"><ele>334.0</ele><time>2026-05-02T10:25:54.739Z</time></trkpt><trkpt lat="43.302727" lon="12.2246331"><ele>334.0</ele><time>2026-05-02T10:25:55.735Z</time></trkpt><trkpt lat="43.3026486" lon="12.224763"><ele>334.0</ele><time>2026-05-02T10:25:56.728Z</time></trkpt><trkpt lat="43.3025602" lon="12.224893"><ele>334.0</ele><time>2026-05-02T10:25:57.764Z</time></trkpt><trkpt lat="43.3024472" lon="12.2250025"><ele>334.0</ele><time>2026-05-02T10:25:58.738Z</time></trkpt><trkpt lat="43.3023105" lon="12.225081"><ele>332.0</ele><time>2026-05-02T10:25:59.746Z</time></trkpt><trkpt lat="43.3021697" lon="12.2251589"><ele>330.0</ele><time>2026-05-02T10:26:00.745Z</time></trkpt><trkpt lat="43.3020417" lon="12.2252408"><ele>328.0</ele><time>2026-05-02T10:26:01.744Z</time></trkpt><trkpt lat="43.3019332" lon="12.2253184"><ele>326.0</ele><time>2026-05-02T10:26:02.754Z</time></trkpt><trkpt lat="43.3018498" lon="12.2254022"><ele>326.0</ele><time>2026-05-02T10:26:03.741Z</time></trkpt><trkpt lat="43.3017867" lon="12.2254897"><ele>326.0</ele><time>2026-05-02T10:26:04.754Z</time></trkpt><trkpt lat="43.3017507" lon="12.2255895"><ele>326.0</ele><time>2026-05-02T10:26:05.747Z</time></trkpt><trkpt lat="43.3017513" lon="12.2256943"><ele>326.0</ele><time>2026-05-02T10:26:06.748Z</time></trkpt><trkpt lat="43.3017872" lon="12.2257884"><ele>326.0</ele><time>2026-05-02T10:26:07.745Z</time></trkpt><trkpt lat="43.3018584" lon="12.2258544"><ele>326.0</ele><time>2026-05-02T10:26:08.744Z</time></trkpt><trkpt lat="43.3019615" lon="12.2258946"><ele>325.5</ele><time>2026-05-02T10:26:09.746Z</time></trkpt><trkpt lat="43.3020835" lon="12.2259278"><ele>325.0</ele><time>2026-05-02T10:26:10.748Z</time></trkpt><trkpt lat="43.3022088" lon="12.2259749"><ele>324.5</ele><time>2026-05-02T10:26:11.75Z</time></trkpt><trkpt lat="43.3023297" lon="12.2260637"><ele>324.0</ele><time>2026-05-02T10:26:12.747Z</time></trkpt><trkpt lat="43.3024424" lon="12.2261888"><ele>323.0</ele><time>2026-05-02T10:26:13.744Z</time></trkpt><trkpt lat="43.3025196" lon="12.2263213"><ele>322.0</ele><time>2026-05-02T10:26:14.745Z</time></trkpt><trkpt lat="43.3025603" lon="12.2264672"><ele>321.0</ele><time>2026-05-02T10:26:15.746Z</time></trkpt><trkpt lat="43.3025792" lon="12.2266313"><ele>320.0</ele><time>2026-05-02T10:26:16.742Z</time></trkpt><trkpt lat="43.3025776" lon="12.226786"><ele>320.0</ele><time>2026-05-02T10:26:17.741Z</time></trkpt><trkpt lat="43.3025935" lon="12.2269324"><ele>320.0</ele><time>2026-05-02T10:26:18.753Z</time></trkpt><trkpt lat="43.3026315" lon="12.2270662"><ele>320.0</ele><time>2026-05-02T10:26:19.749Z</time></trkpt><trkpt lat="43.3026999" lon="12.2271891"><ele>320.0</ele><time>2026-05-02T10:26:20.742Z</time></trkpt><trkpt lat="43.3027905" lon="12.2273074"><ele>318.75</ele><time>2026-05-02T10:26:21.737Z</time></trkpt><trkpt lat="43.3028997" lon="12.2274255"><ele>317.5</ele><time>2026-05-02T10:26:22.752Z</time></trkpt><trkpt lat="43.3030161" lon="12.2275464"><ele>316.25</ele><time>2026-05-02T10:26:23.747Z</time></trkpt><trkpt lat="43.3031401" lon="12.2276617"><ele>315.0</ele><time>2026-05-02T10:26:24.754Z</time></trkpt><trkpt lat="43.3032699" lon="12.2277705"><ele>315.0</ele><time>2026-05-02T10:26:25.751Z</time></trkpt><trkpt lat="43.3033985" lon="12.2278721"><ele>315.0</ele><time>2026-05-02T10:26:26.743Z</time></trkpt><trkpt lat="43.3035189" lon="12.2279564"><ele>315.0</ele><time>2026-05-02T10:26:27.742Z</time></trkpt><trkpt lat="43.3036313" lon="12.2280273"><ele>315.0</ele><time>2026-05-02T10:26:28.752Z</time></trkpt><trkpt lat="43.3037457" lon="12.2280839"><ele>315.0</ele><time>2026-05-02T10:26:29.738Z</time></trkpt><trkpt lat="43.3038637" lon="12.2281183"><ele>315.0</ele><time>2026-05-02T10:26:30.755Z</time></trkpt><trkpt lat="43.303989" lon="12.2281298"><ele>315.0</ele><time>2026-05-02T10:26:31.737Z</time></trkpt><trkpt lat="43.3041239" lon="12.2281367"><ele>315.0</ele><time>2026-05-02T10:26:32.755Z</time></trkpt><trkpt lat="43.3042577" lon="12.2281519"><ele>311.25</ele><time>2026-05-02T10:26:33.738Z</time></trkpt><trkpt lat="43.3043885" lon="12.2281748"><ele>307.5</ele><time>2026-05-02T10:26:34.754Z</time></trkpt><trkpt lat="43.3045116" lon="12.2281974"><ele>303.75</ele><time>2026-05-02T10:26:35.751Z</time></trkpt><trkpt lat="43.3046227" lon="12.228231"><ele>300.0</ele><time>2026-05-02T10:26:36.747Z</time></trkpt><trkpt lat="43.3047214" lon="12.2282635"><ele>299.0</ele><time>2026-05-02T10:26:37.748Z</time></trkpt><trkpt lat="43.3048174" lon="12.2282914"><ele>298.0</ele><time>2026-05-02T10:26:38.749Z</time></trkpt><trkpt lat="43.3049106" lon="12.2282968"><ele>297.0</ele><time>2026-05-02T10:26:39.744Z</time></trkpt><trkpt lat="43.3050056" lon="12.2282711"><ele>296.0</ele><time>2026-05-02T10:26:40.752Z</time></trkpt><trkpt lat="43.3051012" lon="12.2282243"><ele>295.0</ele><time>2026-05-02T10:26:41.749Z</time></trkpt><trkpt lat="43.3052034" lon="12.2281596"><ele>295.2</ele><time>2026-05-02T10:26:42.751Z</time></trkpt><trkpt lat="43.3053013" lon="12.2280729"><ele>295.4</ele><time>2026-05-02T10:26:43.745Z</time></trkpt><trkpt lat="43.305384" lon="12.2279693"><ele>295.6</ele><time>2026-05-02T10:26:44.749Z</time></trkpt><trkpt lat="43.3054558" lon="12.2278783"><ele>295.8</ele><time>2026-05-02T10:26:45.748Z</time></trkpt><trkpt lat="43.3055129" lon="12.2278232"><ele>296.0</ele><time>2026-05-02T10:26:46.748Z</time></trkpt><trkpt lat="43.3056435" lon="12.227856"><ele>296.0</ele><time>2026-05-02T10:26:48.748Z</time></trkpt><trkpt lat="43.3057112" lon="12.2279523"><ele>296.0</ele><time>2026-05-02T10:26:49.746Z</time></trkpt><trkpt lat="43.3057796" lon="12.2280789"><ele>296.0</ele><time>2026-05-02T10:26:50.745Z</time></trkpt><trkpt lat="43.305859" lon="12.228219"><ele>296.0</ele><time>2026-05-02T10:26:51.744Z</time></trkpt><trkpt lat="43.3059458" lon="12.2283516"><ele>295.2</ele><time>2026-05-02T10:26:52.747Z</time></trkpt><trkpt lat="43.3060271" lon="12.2284729"><ele>294.40000000000003</ele><time>2026-05-02T10:26:53.741Z</time></trkpt><trkpt lat="43.306093" lon="12.2285682"><ele>293.6</ele><time>2026-05-02T10:26:54.738Z</time></trkpt><trkpt lat="43.3061464" lon="12.228667"><ele>292.8</ele><time>2026-05-02T10:26:55.741Z</time></trkpt><trkpt lat="43.3061679" lon="12.2287729"><ele>292.0</ele><time>2026-05-02T10:26:56.756Z</time></trkpt><trkpt lat="43.3061592" lon="12.2288919"><ele>291.5</ele><time>2026-05-02T10:26:57.746Z</time></trkpt><trkpt lat="43.3061172" lon="12.2290198"><ele>291.0</ele><time>2026-05-02T10:26:58.744Z</time></trkpt><trkpt lat="43.3060481" lon="12.2291524"><ele>290.5</ele><time>2026-05-02T10:26:59.753Z</time></trkpt><trkpt lat="43.3059689" lon="12.2292859"><ele>290.0</ele><time>2026-05-02T10:27:00.74Z</time></trkpt><trkpt lat="43.3058737" lon="12.2294142"><ele>290.0</ele><time>2026-05-02T10:27:01.743Z</time></trkpt><trkpt lat="43.3057658" lon="12.2295291"><ele>290.0</ele><time>2026-05-02T10:27:02.747Z</time></trkpt><trkpt lat="43.3056496" lon="12.2296325"><ele>290.0</ele><time>2026-05-02T10:27:03.744Z</time></trkpt><trkpt lat="43.3055288" lon="12.2297297"><ele>290.0</ele><time>2026-05-02T10:27:04.741Z</time></trkpt><trkpt lat="43.3054096" lon="12.2298282"><ele>289.0</ele><time>2026-05-02T10:27:05.741Z</time></trkpt><trkpt lat="43.3052819" lon="12.2299311"><ele>288.0</ele><time>2026-05-02T10:27:06.739Z</time></trkpt><trkpt lat="43.3051488" lon="12.2300394"><ele>287.0</ele><time>2026-05-02T10:27:07.745Z</time></trkpt><trkpt lat="43.3050094" lon="12.2301479"><ele>287.0</ele><time>2026-05-02T10:27:08.748Z</time></trkpt><trkpt lat="43.3048729" lon="12.2302511"><ele>287.0</ele><time>2026-05-02T10:27:09.743Z</time></trkpt><trkpt lat="43.3047438" lon="12.2303569"><ele>287.0</ele><time>2026-05-02T10:27:10.742Z</time></trkpt><trkpt lat="43.3046183" lon="12.2304603"><ele>286.0</ele><time>2026-05-02T10:27:11.75Z</time></trkpt><trkpt lat="43.3044941" lon="12.2305606"><ele>285.0</ele><time>2026-05-02T10:27:12.748Z</time></trkpt><trkpt lat="43.3043783" lon="12.2306577"><ele>284.0</ele><time>2026-05-02T10:27:13.752Z</time></trkpt><trkpt lat="43.3042669" lon="12.2307466"><ele>283.0</ele><time>2026-05-02T10:27:14.747Z</time></trkpt><trkpt lat="43.3041678" lon="12.230827"><ele>283.0</ele><time>2026-05-02T10:27:15.741Z</time></trkpt><trkpt lat="43.3040773" lon="12.2308941"><ele>283.0</ele><time>2026-05-02T10:27:16.75Z</time></trkpt><trkpt lat="43.3040035" lon="12.2309451"><ele>283.0</ele><time>2026-05-02T10:27:17.739Z</time></trkpt><trkpt lat="43.3039129" lon="12.2309703"><ele>283.0</ele><time>2026-05-02T10:27:19.744Z</time></trkpt><trkpt lat="43.3038615" lon="12.2308959"><ele>283.0</ele><time>2026-05-02T10:27:21.756Z</time></trkpt><trkpt lat="43.303863" lon="12.2308083"><ele>283.0</ele><time>2026-05-02T10:27:22.748Z</time></trkpt><trkpt lat="43.3038585" lon="12.2307009"><ele>281.5</ele><time>2026-05-02T10:27:23.749Z</time></trkpt><trkpt lat="43.3038278" lon="12.2305545"><ele>280.0</ele><time>2026-05-02T10:27:24.748Z</time></trkpt><trkpt lat="43.3037671" lon="12.2303805"><ele>278.5</ele><time>2026-05-02T10:27:25.739Z</time></trkpt><trkpt lat="43.303688" lon="12.2302096"><ele>277.0</ele><time>2026-05-02T10:27:26.742Z</time></trkpt><trkpt lat="43.3035828" lon="12.2300601"><ele>277.0</ele><time>2026-05-02T10:27:27.747Z</time></trkpt><trkpt lat="43.3034532" lon="12.2299135"><ele>277.0</ele><time>2026-05-02T10:27:28.753Z</time></trkpt><trkpt lat="43.3033195" lon="12.2297715"><ele>277.0</ele><time>2026-05-02T10:27:29.746Z</time></trkpt><trkpt lat="43.3031883" lon="12.2296314"><ele>277.0</ele><time>2026-05-02T10:27:30.74Z</time></trkpt><trkpt lat="43.3030525" lon="12.2294855"><ele>277.0</ele><time>2026-05-02T10:27:31.75Z</time></trkpt><trkpt lat="43.3029136" lon="12.2293299"><ele>277.0</ele><time>2026-05-02T10:27:32.76Z</time></trkpt><trkpt lat="43.3027725" lon="12.2291749"><ele>277.0</ele><time>2026-05-02T10:27:33.747Z</time></trkpt><trkpt lat="43.3026287" lon="12.2290142"><ele>277.0</ele><time>2026-05-02T10:27:34.743Z</time></trkpt><trkpt lat="43.3024823" lon="12.228845"><ele>277.0</ele><time>2026-05-02T10:27:35.739Z</time></trkpt><trkpt lat="43.3023354" lon="12.228678"><ele>277.66666666666663</ele><time>2026-05-02T10:27:36.745Z</time></trkpt><trkpt lat="43.3021904" lon="12.2285166"><ele>278.3333333333333</ele><time>2026-05-02T10:27:37.748Z</time></trkpt><trkpt lat="43.3020451" lon="12.2283605"><ele>279.0</ele><time>2026-05-02T10:27:38.752Z</time></trkpt><trkpt lat="43.3018978" lon="12.2282108"><ele>280.6666666666667</ele><time>2026-05-02T10:27:39.748Z</time></trkpt><trkpt lat="43.3017307" lon="12.2280856"><ele>282.33333333333337</ele><time>2026-05-02T10:27:40.744Z</time></trkpt><trkpt lat="43.3015447" lon="12.2279953"><ele>284.0</ele><time>2026-05-02T10:27:41.741Z</time></trkpt><trkpt lat="43.3013568" lon="12.2279228"><ele>284.0</ele><time>2026-05-02T10:27:42.755Z</time></trkpt><trkpt lat="43.3011776" lon="12.2278604"><ele>284.0</ele><time>2026-05-02T10:27:43.76Z</time></trkpt><trkpt lat="43.3010073" lon="12.2277871"><ele>284.0</ele><time>2026-05-02T10:27:44.748Z</time></trkpt><trkpt lat="43.3008542" lon="12.2276718"><ele>284.0</ele><time>2026-05-02T10:27:45.74Z</time></trkpt><trkpt lat="43.3007242" lon="12.2274996"><ele>284.0</ele><time>2026-05-02T10:27:46.733Z</time></trkpt><trkpt lat="43.3006318" lon="12.2272861"><ele>284.0</ele><time>2026-05-02T10:27:47.744Z</time></trkpt><trkpt lat="43.300567" lon="12.2270473"><ele>281.33333333333337</ele><time>2026-05-02T10:27:48.746Z</time></trkpt><trkpt lat="43.3005359" lon="12.2267946"><ele>278.6666666666667</ele><time>2026-05-02T10:27:49.746Z</time></trkpt><trkpt lat="43.3005134" lon="12.2265258"><ele>276.0</ele><time>2026-05-02T10:27:50.75Z</time></trkpt><trkpt lat="43.3004978" lon="12.22624"><ele>276.0</ele><time>2026-05-02T10:27:51.743Z</time></trkpt><trkpt lat="43.3004863" lon="12.2259554"><ele>276.0</ele><time>2026-05-02T10:27:52.743Z</time></trkpt><trkpt lat="43.3004768" lon="12.2256723"><ele>276.0</ele><time>2026-05-02T10:27:53.752Z</time></trkpt><trkpt lat="43.3004641" lon="12.2253835"><ele>276.3333333333333</ele><time>2026-05-02T10:27:54.746Z</time></trkpt><trkpt lat="43.3004512" lon="12.2251062"><ele>276.66666666666663</ele><time>2026-05-02T10:27:55.744Z</time></trkpt><trkpt lat="43.3004394" lon="12.2248384"><ele>277.0</ele><time>2026-05-02T10:27:56.751Z</time></trkpt><trkpt lat="43.3004237" lon="12.2245848"><ele>277.66666666666663</ele><time>2026-05-02T10:27:57.742Z</time></trkpt><trkpt lat="43.3003964" lon="12.2243473"><ele>278.3333333333333</ele><time>2026-05-02T10:27:58.747Z</time></trkpt><trkpt lat="43.3003357" lon="12.2241284"><ele>279.0</ele><time>2026-05-02T10:27:59.746Z</time></trkpt><trkpt lat="43.3002386" lon="12.2239243"><ele>279.3333333333333</ele><time>2026-05-02T10:28:00.747Z</time></trkpt><trkpt lat="43.3001161" lon="12.2237374"><ele>279.66666666666663</ele><time>2026-05-02T10:28:01.745Z</time></trkpt><trkpt lat="43.2999794" lon="12.223545"><ele>280.0</ele><time>2026-05-02T10:28:02.76Z</time></trkpt><trkpt lat="43.2998387" lon="12.2233478"><ele>280.3333333333333</ele><time>2026-05-02T10:28:03.735Z</time></trkpt><trkpt lat="43.2996949" lon="12.2231487"><ele>280.6666666666667</ele><time>2026-05-02T10:28:04.749Z</time></trkpt><trkpt lat="43.2995506" lon="12.2229489"><ele>281.0</ele><time>2026-05-02T10:28:05.745Z</time></trkpt><trkpt lat="43.2994083" lon="12.2227541"><ele>281.0</ele><time>2026-05-02T10:28:06.748Z</time></trkpt><trkpt lat="43.299271" lon="12.2225671"><ele>281.0</ele><time>2026-05-02T10:28:07.75Z</time></trkpt><trkpt lat="43.2991386" lon="12.2223879"><ele>281.0</ele><time>2026-05-02T10:28:08.752Z</time></trkpt><trkpt lat="43.2990103" lon="12.2222012"><ele>281.0</ele><time>2026-05-02T10:28:09.753Z</time></trkpt><trkpt lat="43.2988966" lon="12.222011"><ele>281.0</ele><time>2026-05-02T10:28:10.752Z</time></trkpt><trkpt lat="43.2987962" lon="12.2218012"><ele>281.0</ele><time>2026-05-02T10:28:11.755Z</time></trkpt><trkpt lat="43.2987029" lon="12.2215718"><ele>282.6666666666667</ele><time>2026-05-02T10:28:12.749Z</time></trkpt><trkpt lat="43.2986094" lon="12.2213322"><ele>284.3333333333333</ele><time>2026-05-02T10:28:13.753Z</time></trkpt><trkpt lat="43.298516" lon="12.2210887"><ele>286.0</ele><time>2026-05-02T10:28:14.75Z</time></trkpt><trkpt lat="43.2984247" lon="12.2208506"><ele>285.3333333333333</ele><time>2026-05-02T10:28:15.742Z</time></trkpt><trkpt lat="43.2983422" lon="12.2206305"><ele>284.6666666666667</ele><time>2026-05-02T10:28:16.739Z</time></trkpt><trkpt lat="43.2982552" lon="12.220422"><ele>284.0</ele><time>2026-05-02T10:28:17.749Z</time></trkpt><trkpt lat="43.298154" lon="12.2202257"><ele>283.0</ele><time>2026-05-02T10:28:18.753Z</time></trkpt><trkpt lat="43.2980329" lon="12.2200594"><ele>282.0</ele><time>2026-05-02T10:28:19.744Z</time></trkpt><trkpt lat="43.2978843" lon="12.2199345"><ele>281.0</ele><time>2026-05-02T10:28:20.742Z</time></trkpt><trkpt lat="43.2977259" lon="12.2198721"><ele>281.0</ele><time>2026-05-02T10:28:21.743Z</time></trkpt><trkpt lat="43.297559" lon="12.2198611"><ele>281.0</ele><time>2026-05-02T10:28:22.752Z</time></trkpt><trkpt lat="43.2973754" lon="12.2199045"><ele>281.0</ele><time>2026-05-02T10:28:23.745Z</time></trkpt><trkpt lat="43.2972024" lon="12.2200055"><ele>282.33333333333337</ele><time>2026-05-02T10:28:24.738Z</time></trkpt><trkpt lat="43.297035" lon="12.2201421"><ele>283.6666666666667</ele><time>2026-05-02T10:28:25.743Z</time></trkpt><trkpt lat="43.29687" lon="12.2202675"><ele>285.0</ele><time>2026-05-02T10:28:26.75Z</time></trkpt><trkpt lat="43.2967003" lon="12.220368"><ele>285.0</ele><time>2026-05-02T10:28:27.74Z</time></trkpt><trkpt lat="43.2965208" lon="12.2204371"><ele>285.0</ele><time>2026-05-02T10:28:28.752Z</time></trkpt><trkpt lat="43.2963384" lon="12.2204795"><ele>285.0</ele><time>2026-05-02T10:28:29.743Z</time></trkpt><trkpt lat="43.2961509" lon="12.2205087"><ele>285.0</ele><time>2026-05-02T10:28:30.755Z</time></trkpt><trkpt lat="43.2959578" lon="12.2205288"><ele>285.0</ele><time>2026-05-02T10:28:31.75Z</time></trkpt><trkpt lat="43.2957638" lon="12.2205629"><ele>285.0</ele><time>2026-05-02T10:28:32.739Z</time></trkpt><trkpt lat="43.2955725" lon="12.2205992"><ele>284.3333333333333</ele><time>2026-05-02T10:28:33.747Z</time></trkpt><trkpt lat="43.2953841" lon="12.2206225"><ele>283.66666666666663</ele><time>2026-05-02T10:28:34.75Z</time></trkpt><trkpt lat="43.2952102" lon="12.2206268"><ele>283.0</ele><time>2026-05-02T10:28:35.746Z</time></trkpt><trkpt lat="43.2950566" lon="12.2205953"><ele>283.0</ele><time>2026-05-02T10:28:36.737Z</time></trkpt><trkpt lat="43.2949153" lon="12.220522"><ele>283.0</ele><time>2026-05-02T10:28:37.751Z</time></trkpt><trkpt lat="43.2947922" lon="12.2203934"><ele>283.0</ele><time>2026-05-02T10:28:38.746Z</time></trkpt><trkpt lat="43.2946881" lon="12.2202063"><ele>281.66666666666663</ele><time>2026-05-02T10:28:39.748Z</time></trkpt><trkpt lat="43.2945866" lon="12.2199887"><ele>280.3333333333333</ele><time>2026-05-02T10:28:40.732Z</time></trkpt><trkpt lat="43.2944883" lon="12.2197521"><ele>279.0</ele><time>2026-05-02T10:28:41.735Z</time></trkpt><trkpt lat="43.2943865" lon="12.2195087"><ele>279.0</ele><time>2026-05-02T10:28:42.752Z</time></trkpt><trkpt lat="43.2942867" lon="12.2192663"><ele>279.0</ele><time>2026-05-02T10:28:43.746Z</time></trkpt><trkpt lat="43.294193" lon="12.2190277"><ele>279.0</ele><time>2026-05-02T10:28:44.748Z</time></trkpt><trkpt lat="43.2941174" lon="12.2187911"><ele>281.0</ele><time>2026-05-02T10:28:45.758Z</time></trkpt><trkpt lat="43.2940653" lon="12.2185467"><ele>283.0</ele><time>2026-05-02T10:28:46.744Z</time></trkpt><trkpt lat="43.2940377" lon="12.2182912"><ele>285.0</ele><time>2026-05-02T10:28:47.744Z</time></trkpt><trkpt lat="43.2940221" lon="12.2180244"><ele>286.3333333333333</ele><time>2026-05-02T10:28:48.745Z</time></trkpt><trkpt lat="43.2940068" lon="12.217746"><ele>287.66666666666663</ele><time>2026-05-02T10:28:49.751Z</time></trkpt><trkpt lat="43.2939901" lon="12.2174566"><ele>289.0</ele><time>2026-05-02T10:28:50.745Z</time></trkpt><trkpt lat="43.2939737" lon="12.2171539"><ele>289.3333333333333</ele><time>2026-05-02T10:28:51.747Z</time></trkpt><trkpt lat="43.2939603" lon="12.2168483"><ele>289.6666666666667</ele><time>2026-05-02T10:28:52.746Z</time></trkpt><trkpt lat="43.2939515" lon="12.2165571"><ele>290.0</ele><time>2026-05-02T10:28:53.743Z</time></trkpt><trkpt lat="43.2939424" lon="12.2162872"><ele>290.0</ele><time>2026-05-02T10:28:54.738Z</time></trkpt><trkpt lat="43.2939334" lon="12.2160341"><ele>290.0</ele><time>2026-05-02T10:28:55.751Z</time></trkpt><trkpt lat="43.2939192" lon="12.2157924"><ele>290.0</ele><time>2026-05-02T10:28:56.747Z</time></trkpt><trkpt lat="43.2939023" lon="12.2155482"><ele>286.0</ele><time>2026-05-02T10:28:57.752Z</time></trkpt><trkpt lat="43.2938848" lon="12.2153019"><ele>282.0</ele><time>2026-05-02T10:28:58.75Z</time></trkpt><trkpt lat="43.2938706" lon="12.2150462"><ele>278.0</ele><time>2026-05-02T10:28:59.75Z</time></trkpt><trkpt lat="43.2938515" lon="12.2147985"><ele>278.0</ele><time>2026-05-02T10:29:00.739Z</time></trkpt><trkpt lat="43.2938329" lon="12.2145654"><ele>278.0</ele><time>2026-05-02T10:29:01.747Z</time></trkpt><trkpt lat="43.2938058" lon="12.2143431"><ele>278.0</ele><time>2026-05-02T10:29:02.746Z</time></trkpt><trkpt lat="43.2937576" lon="12.2141001"><ele>279.0</ele><time>2026-05-02T10:29:03.74Z</time></trkpt><trkpt lat="43.2936703" lon="12.2138339"><ele>280.0</ele><time>2026-05-02T10:29:04.752Z</time></trkpt><trkpt lat="43.2935533" lon="12.2135506"><ele>280.0</ele><time>2026-05-02T10:29:05.744Z</time></trkpt><trkpt lat="43.2934322" lon="12.2132548"><ele>280.0</ele><time>2026-05-02T10:29:06.75Z</time></trkpt><trkpt lat="43.2933134" lon="12.2129637"><ele>280.0</ele><time>2026-05-02T10:29:07.747Z</time></trkpt><trkpt lat="43.2931998" lon="12.2126773"><ele>280.0</ele><time>2026-05-02T10:29:08.751Z</time></trkpt><trkpt lat="43.2930866" lon="12.2124001"><ele>280.0</ele><time>2026-05-02T10:29:09.758Z</time></trkpt><trkpt lat="43.2929689" lon="12.2121305"><ele>280.0</ele><time>2026-05-02T10:29:10.745Z</time></trkpt><trkpt lat="43.2928501" lon="12.2118593"><ele>280.0</ele><time>2026-05-02T10:29:11.741Z</time></trkpt><trkpt lat="43.2927371" lon="12.2115866"><ele>280.0</ele><time>2026-05-02T10:29:12.751Z</time></trkpt><trkpt lat="43.2926212" lon="12.2113145"><ele>281.3333333333333</ele><time>2026-05-02T10:29:13.738Z</time></trkpt><trkpt lat="43.2925119" lon="12.2110562"><ele>282.6666666666667</ele><time>2026-05-02T10:29:14.75Z</time></trkpt><trkpt lat="43.2924034" lon="12.2108197"><ele>284.0</ele><time>2026-05-02T10:29:15.743Z</time></trkpt><trkpt lat="43.2922801" lon="12.2106162"><ele>287.33333333333337</ele><time>2026-05-02T10:29:16.735Z</time></trkpt><trkpt lat="43.2921279" lon="12.2104433"><ele>290.6666666666667</ele><time>2026-05-02T10:29:17.744Z</time></trkpt><trkpt lat="43.2919454" lon="12.2103128"><ele>294.0</ele><time>2026-05-02T10:29:18.746Z</time></trkpt><trkpt lat="43.2917366" lon="12.2101988"><ele>294.0</ele><time>2026-05-02T10:29:19.745Z</time></trkpt><trkpt lat="43.2915276" lon="12.2100906"><ele>294.0</ele><time>2026-05-02T10:29:20.739Z</time></trkpt><trkpt lat="43.2913145" lon="12.2099944"><ele>294.0</ele><time>2026-05-02T10:29:21.761Z</time></trkpt><trkpt lat="43.2910935" lon="12.209937"><ele>292.3333333333333</ele><time>2026-05-02T10:29:22.755Z</time></trkpt><trkpt lat="43.2908703" lon="12.2099407"><ele>290.66666666666663</ele><time>2026-05-02T10:29:23.748Z</time></trkpt><trkpt lat="43.2906473" lon="12.2099819"><ele>289.0</ele><time>2026-05-02T10:29:24.752Z</time></trkpt><trkpt lat="43.2904214" lon="12.2100587"><ele>289.0</ele><time>2026-05-02T10:29:25.735Z</time></trkpt><trkpt lat="43.2901908" lon="12.2101468"><ele>289.0</ele><time>2026-05-02T10:29:26.742Z</time></trkpt><trkpt lat="43.2899581" lon="12.2102359"><ele>291.0</ele><time>2026-05-02T10:29:27.743Z</time></trkpt><trkpt lat="43.2897247" lon="12.2103209"><ele>293.0</ele><time>2026-05-02T10:29:28.736Z</time></trkpt><trkpt lat="43.2894884" lon="12.2104029"><ele>293.0</ele><time>2026-05-02T10:29:29.744Z</time></trkpt><trkpt lat="43.2892537" lon="12.2104875"><ele>293.0</ele><time>2026-05-02T10:29:30.746Z</time></trkpt><trkpt lat="43.2890253" lon="12.2105667"><ele>291.0</ele><time>2026-05-02T10:29:31.757Z</time></trkpt><trkpt lat="43.2888056" lon="12.2106433"><ele>289.0</ele><time>2026-05-02T10:29:32.741Z</time></trkpt><trkpt lat="43.2885925" lon="12.2107207"><ele>287.0</ele><time>2026-05-02T10:29:33.736Z</time></trkpt><trkpt lat="43.2883902" lon="12.2107897"><ele>288.0</ele><time>2026-05-02T10:29:34.751Z</time></trkpt><trkpt lat="43.2882096" lon="12.2108515"><ele>289.0</ele><time>2026-05-02T10:29:35.733Z</time></trkpt><trkpt lat="43.2880451" lon="12.2109148"><ele>290.0</ele><time>2026-05-02T10:29:36.737Z</time></trkpt><trkpt lat="43.2878969" lon="12.2109891"><ele>290.0</ele><time>2026-05-02T10:29:37.749Z</time></trkpt><trkpt lat="43.2877691" lon="12.2110906"><ele>290.0</ele><time>2026-05-02T10:29:38.755Z</time></trkpt><trkpt lat="43.287671" lon="12.2112295"><ele>290.0</ele><time>2026-05-02T10:29:39.74Z</time></trkpt><trkpt lat="43.2876212" lon="12.2114118"><ele>290.0</ele><time>2026-05-02T10:29:40.749Z</time></trkpt><trkpt lat="43.2876206" lon="12.2116128"><ele>289.75</ele><time>2026-05-02T10:29:41.743Z</time></trkpt><trkpt lat="43.2876607" lon="12.2118123"><ele>289.5</ele><time>2026-05-02T10:29:42.742Z</time></trkpt><trkpt lat="43.2877148" lon="12.2119959"><ele>289.25</ele><time>2026-05-02T10:29:43.74Z</time></trkpt><trkpt lat="43.2877393" lon="12.2121747"><ele>289.0</ele><time>2026-05-02T10:29:44.745Z</time></trkpt><trkpt lat="43.2877391" lon="12.2123403"><ele>288.25</ele><time>2026-05-02T10:29:45.739Z</time></trkpt><trkpt lat="43.2876874" lon="12.2124918"><ele>287.5</ele><time>2026-05-02T10:29:46.73Z</time></trkpt><trkpt lat="43.2875834" lon="12.2125895"><ele>286.75</ele><time>2026-05-02T10:29:47.736Z</time></trkpt><trkpt lat="43.287455" lon="12.2126094"><ele>286.0</ele><time>2026-05-02T10:29:48.757Z</time></trkpt><trkpt lat="43.2873274" lon="12.2125727"><ele>284.75</ele><time>2026-05-02T10:29:49.741Z</time></trkpt><trkpt lat="43.2872101" lon="12.212467"><ele>283.5</ele><time>2026-05-02T10:29:50.743Z</time></trkpt><trkpt lat="43.2871087" lon="12.2123263"><ele>282.25</ele><time>2026-05-02T10:29:51.748Z</time></trkpt><trkpt lat="43.2870187" lon="12.2121446"><ele>281.0</ele><time>2026-05-02T10:29:52.76Z</time></trkpt><trkpt lat="43.2869288" lon="12.2119373"><ele>284.33333333333337</ele><time>2026-05-02T10:29:53.747Z</time></trkpt><trkpt lat="43.2868454" lon="12.211723"><ele>287.6666666666667</ele><time>2026-05-02T10:29:54.736Z</time></trkpt><trkpt lat="43.2867669" lon="12.2115018"><ele>291.0</ele><time>2026-05-02T10:29:55.742Z</time></trkpt><trkpt lat="43.2866973" lon="12.2112797"><ele>294.3333333333333</ele><time>2026-05-02T10:29:56.745Z</time></trkpt><trkpt lat="43.2866377" lon="12.2110553"><ele>297.66666666666663</ele><time>2026-05-02T10:29:57.75Z</time></trkpt><trkpt lat="43.2865974" lon="12.2108232"><ele>301.0</ele><time>2026-05-02T10:29:58.741Z</time></trkpt><trkpt lat="43.2865631" lon="12.210597"><ele>301.25</ele><time>2026-05-02T10:29:59.744Z</time></trkpt><trkpt lat="43.2865284" lon="12.2103861"><ele>301.5</ele><time>2026-05-02T10:30:00.738Z</time></trkpt><trkpt lat="43.2864825" lon="12.2102013"><ele>301.75</ele><time>2026-05-02T10:30:01.743Z</time></trkpt><trkpt lat="43.2864062" lon="12.2100534"><ele>302.0</ele><time>2026-05-02T10:30:02.756Z</time></trkpt><trkpt lat="43.2863091" lon="12.2099376"><ele>301.25</ele><time>2026-05-02T10:30:03.747Z</time></trkpt><trkpt lat="43.2861876" lon="12.209844"><ele>300.5</ele><time>2026-05-02T10:30:04.749Z</time></trkpt><trkpt lat="43.2860538" lon="12.209793"><ele>299.75</ele><time>2026-05-02T10:30:05.746Z</time></trkpt><trkpt lat="43.2859122" lon="12.2097915"><ele>299.0</ele><time>2026-05-02T10:30:06.743Z</time></trkpt><trkpt lat="43.2857643" lon="12.2098169"><ele>299.0</ele><time>2026-05-02T10:30:07.755Z</time></trkpt><trkpt lat="43.2856183" lon="12.2098308"><ele>299.0</ele><time>2026-05-02T10:30:08.735Z</time></trkpt><trkpt lat="43.2854815" lon="12.2098143"><ele>299.0</ele><time>2026-05-02T10:30:09.747Z</time></trkpt><trkpt lat="43.2853539" lon="12.2097532"><ele>299.0</ele><time>2026-05-02T10:30:10.736Z</time></trkpt><trkpt lat="43.2852434" lon="12.2096437"><ele>299.75</ele><time>2026-05-02T10:30:11.743Z</time></trkpt><trkpt lat="43.2851454" lon="12.2095008"><ele>300.5</ele><time>2026-05-02T10:30:12.743Z</time></trkpt><trkpt lat="43.2850501" lon="12.2093577"><ele>301.25</ele><time>2026-05-02T10:30:13.745Z</time></trkpt><trkpt lat="43.2849524" lon="12.2092242"><ele>302.0</ele><time>2026-05-02T10:30:14.751Z</time></trkpt><trkpt lat="43.2848459" lon="12.2091138"><ele>300.0</ele><time>2026-05-02T10:30:15.744Z</time></trkpt><trkpt lat="43.2847306" lon="12.2090414"><ele>298.0</ele><time>2026-05-02T10:30:16.747Z</time></trkpt><trkpt lat="43.2845955" lon="12.2090031"><ele>296.0</ele><time>2026-05-02T10:30:17.74Z</time></trkpt><trkpt lat="43.2844473" lon="12.2089927"><ele>294.0</ele><time>2026-05-02T10:30:18.739Z</time></trkpt><trkpt lat="43.2843041" lon="12.2089891"><ele>294.0</ele><time>2026-05-02T10:30:19.737Z</time></trkpt><trkpt lat="43.2841778" lon="12.2089845"><ele>294.0</ele><time>2026-05-02T10:30:20.742Z</time></trkpt><trkpt lat="43.2840557" lon="12.2089823"><ele>294.0</ele><time>2026-05-02T10:30:21.74Z</time></trkpt><trkpt lat="43.2839347" lon="12.2089794"><ele>294.0</ele><time>2026-05-02T10:30:22.738Z</time></trkpt><trkpt lat="43.2838166" lon="12.2089796"><ele>294.0</ele><time>2026-05-02T10:30:23.747Z</time></trkpt><trkpt lat="43.2837057" lon="12.2089748"><ele>294.0</ele><time>2026-05-02T10:30:24.734Z</time></trkpt><trkpt lat="43.2835994" lon="12.2089644"><ele>294.0</ele><time>2026-05-02T10:30:25.749Z</time></trkpt><trkpt lat="43.2834928" lon="12.2089297"><ele>294.0</ele><time>2026-05-02T10:30:26.746Z</time></trkpt><trkpt lat="43.283398" lon="12.2088497"><ele>294.0</ele><time>2026-05-02T10:30:27.74Z</time></trkpt><trkpt lat="43.2833166" lon="12.2087104"><ele>294.0</ele><time>2026-05-02T10:30:28.739Z</time></trkpt><trkpt lat="43.2832427" lon="12.2085182"><ele>294.0</ele><time>2026-05-02T10:30:29.754Z</time></trkpt><trkpt lat="43.2831644" lon="12.2082877"><ele>294.0</ele><time>2026-05-02T10:30:30.752Z</time></trkpt><trkpt lat="43.2830972" lon="12.2080806"><ele>291.25</ele><time>2026-05-02T10:30:31.749Z</time></trkpt><trkpt lat="43.2830436" lon="12.2079064"><ele>288.5</ele><time>2026-05-02T10:30:32.746Z</time></trkpt><trkpt lat="43.2829958" lon="12.2077444"><ele>285.75</ele><time>2026-05-02T10:30:33.749Z</time></trkpt><trkpt lat="43.282951" lon="12.2075798"><ele>283.0</ele><time>2026-05-02T10:30:34.753Z</time></trkpt><trkpt lat="43.2829067" lon="12.2074225"><ele>283.5</ele><time>2026-05-02T10:30:35.75Z</time></trkpt><trkpt lat="43.2828602" lon="12.2072556"><ele>284.0</ele><time>2026-05-02T10:30:36.739Z</time></trkpt><trkpt lat="43.282809" lon="12.2070906"><ele>284.5</ele><time>2026-05-02T10:30:37.745Z</time></trkpt><trkpt lat="43.2827599" lon="12.2069316"><ele>285.0</ele><time>2026-05-02T10:30:38.748Z</time></trkpt><trkpt lat="43.2827167" lon="12.2067749"><ele>285.0</ele><time>2026-05-02T10:30:39.748Z</time></trkpt><trkpt lat="43.2826664" lon="12.2065969"><ele>285.0</ele><time>2026-05-02T10:30:40.749Z</time></trkpt><trkpt lat="43.2825985" lon="12.2063877"><ele>285.0</ele><time>2026-05-02T10:30:41.745Z</time></trkpt><trkpt lat="43.2825226" lon="12.2061454"><ele>283.5</ele><time>2026-05-02T10:30:42.743Z</time></trkpt><trkpt lat="43.282442" lon="12.2058725"><ele>282.0</ele><time>2026-05-02T10:30:43.75Z</time></trkpt><trkpt lat="43.2823511" lon="12.2055711"><ele>282.5</ele><time>2026-05-02T10:30:44.756Z</time></trkpt><trkpt lat="43.2822403" lon="12.2052655"><ele>283.0</ele><time>2026-05-02T10:30:45.744Z</time></trkpt><trkpt lat="43.282106" lon="12.2049569"><ele>286.0</ele><time>2026-05-02T10:30:46.742Z</time></trkpt><trkpt lat="43.2819478" lon="12.2046623"><ele>289.0</ele><time>2026-05-02T10:30:47.745Z</time></trkpt><trkpt lat="43.281764" lon="12.2043904"><ele>289.0</ele><time>2026-05-02T10:30:48.747Z</time></trkpt><trkpt lat="43.2815633" lon="12.2041151"><ele>289.0</ele><time>2026-05-02T10:30:49.736Z</time></trkpt><trkpt lat="43.2813553" lon="12.2038373"><ele>288.0</ele><time>2026-05-02T10:30:50.748Z</time></trkpt><trkpt lat="43.2811506" lon="12.2035582"><ele>287.0</ele><time>2026-05-02T10:30:51.741Z</time></trkpt><trkpt lat="43.2809534" lon="12.2032925"><ele>292.0</ele><time>2026-05-02T10:30:52.738Z</time></trkpt><trkpt lat="43.2807726" lon="12.2030515"><ele>297.0</ele><time>2026-05-02T10:30:53.737Z</time></trkpt><trkpt lat="43.2806165" lon="12.2028305"><ele>293.0</ele><time>2026-05-02T10:30:54.743Z</time></trkpt><trkpt lat="43.2804832" lon="12.202631"><ele>289.0</ele><time>2026-05-02T10:30:55.738Z</time></trkpt><trkpt lat="43.2803723" lon="12.2024325"><ele>285.0</ele><time>2026-05-02T10:30:56.74Z</time></trkpt><trkpt lat="43.2802799" lon="12.2022412"><ele>285.0</ele><time>2026-05-02T10:30:57.744Z</time></trkpt><trkpt lat="43.2802057" lon="12.2020551"><ele>285.0</ele><time>2026-05-02T10:30:58.755Z</time></trkpt><trkpt lat="43.2801639" lon="12.2018516"><ele>285.0</ele><time>2026-05-02T10:30:59.743Z</time></trkpt><trkpt lat="43.2801656" lon="12.2016509"><ele>284.3333333333333</ele><time>2026-05-02T10:31:00.747Z</time></trkpt><trkpt lat="43.280208" lon="12.2014484"><ele>283.66666666666663</ele><time>2026-05-02T10:31:01.745Z</time></trkpt><trkpt lat="43.2802771" lon="12.2012323"><ele>283.0</ele><time>2026-05-02T10:31:02.746Z</time></trkpt><trkpt lat="43.280355" lon="12.2010107"><ele>283.0</ele><time>2026-05-02T10:31:03.747Z</time></trkpt><trkpt lat="43.2804337" lon="12.2007731"><ele>283.0</ele><time>2026-05-02T10:31:04.741Z</time></trkpt><trkpt lat="43.2805126" lon="12.2005212"><ele>283.0</ele><time>2026-05-02T10:31:05.746Z</time></trkpt><trkpt lat="43.2805944" lon="12.2002604"><ele>283.3333333333333</ele><time>2026-05-02T10:31:06.754Z</time></trkpt><trkpt lat="43.2806721" lon="12.2000022"><ele>283.6666666666667</ele><time>2026-05-02T10:31:07.737Z</time></trkpt><trkpt lat="43.2807466" lon="12.1997503"><ele>284.0</ele><time>2026-05-02T10:31:08.748Z</time></trkpt><trkpt lat="43.2808265" lon="12.1994986"><ele>284.0</ele><time>2026-05-02T10:31:09.745Z</time></trkpt><trkpt lat="43.2809133" lon="12.1992381"><ele>284.0</ele><time>2026-05-02T10:31:10.749Z</time></trkpt><trkpt lat="43.281" lon="12.1989708"><ele>284.0</ele><time>2026-05-02T10:31:11.747Z</time></trkpt><trkpt lat="43.2810859" lon="12.1986979"><ele>284.0</ele><time>2026-05-02T10:31:12.751Z</time></trkpt><trkpt lat="43.2811599" lon="12.198418"><ele>284.0</ele><time>2026-05-02T10:31:13.745Z</time></trkpt><trkpt lat="43.2812031" lon="12.1981284"><ele>284.0</ele><time>2026-05-02T10:31:14.753Z</time></trkpt><trkpt lat="43.2812062" lon="12.1978396"><ele>284.0</ele><time>2026-05-02T10:31:15.752Z</time></trkpt><trkpt lat="43.2811641" lon="12.1975432"><ele>284.0</ele><time>2026-05-02T10:31:16.75Z</time></trkpt><trkpt lat="43.2810983" lon="12.1972702"><ele>284.0</ele><time>2026-05-02T10:31:17.737Z</time></trkpt><trkpt lat="43.2810111" lon="12.1970019"><ele>286.0</ele><time>2026-05-02T10:31:18.745Z</time></trkpt><trkpt lat="43.2809163" lon="12.196722"><ele>288.0</ele><time>2026-05-02T10:31:19.746Z</time></trkpt><trkpt lat="43.2808278" lon="12.1964354"><ele>288.3333333333333</ele><time>2026-05-02T10:31:20.748Z</time></trkpt><trkpt lat="43.2807375" lon="12.1961528"><ele>288.66666666666663</ele><time>2026-05-02T10:31:21.744Z</time></trkpt><trkpt lat="43.2806484" lon="12.195874"><ele>289.0</ele><time>2026-05-02T10:31:22.743Z</time></trkpt><trkpt lat="43.2805495" lon="12.1956049"><ele>286.5</ele><time>2026-05-02T10:31:23.755Z</time></trkpt><trkpt lat="43.2804276" lon="12.1953232"><ele>284.0</ele><time>2026-05-02T10:31:24.748Z</time></trkpt><trkpt lat="43.280293" lon="12.1950304"><ele>284.5</ele><time>2026-05-02T10:31:25.752Z</time></trkpt><trkpt lat="43.2801642" lon="12.1947447"><ele>285.0</ele><time>2026-05-02T10:31:26.742Z</time></trkpt><trkpt lat="43.2800412" lon="12.1944723"><ele>285.0</ele><time>2026-05-02T10:31:27.746Z</time></trkpt><trkpt lat="43.2799262" lon="12.1942066"><ele>285.0</ele><time>2026-05-02T10:31:28.744Z</time></trkpt><trkpt lat="43.2798058" lon="12.1939558"><ele>285.0</ele><time>2026-05-02T10:31:29.757Z</time></trkpt><trkpt lat="43.2796723" lon="12.1937207"><ele>285.6666666666667</ele><time>2026-05-02T10:31:30.756Z</time></trkpt><trkpt lat="43.2795224" lon="12.1935085"><ele>286.33333333333337</ele><time>2026-05-02T10:31:31.752Z</time></trkpt><trkpt lat="43.2793648" lon="12.1933225"><ele>287.0</ele><time>2026-05-02T10:31:32.753Z</time></trkpt><trkpt lat="43.2792102" lon="12.1931356"><ele>286.0</ele><time>2026-05-02T10:31:33.76Z</time></trkpt><trkpt lat="43.2790634" lon="12.1929395"><ele>285.0</ele><time>2026-05-02T10:31:34.739Z</time></trkpt><trkpt lat="43.2789328" lon="12.1927212"><ele>284.0</ele><time>2026-05-02T10:31:35.746Z</time></trkpt><trkpt lat="43.278823" lon="12.192493"><ele>284.0</ele><time>2026-05-02T10:31:36.748Z</time></trkpt><trkpt lat="43.2787398" lon="12.1922473"><ele>284.0</ele><time>2026-05-02T10:31:37.751Z</time></trkpt><trkpt lat="43.2786785" lon="12.1919705"><ele>284.0</ele><time>2026-05-02T10:31:38.741Z</time></trkpt><trkpt lat="43.2786272" lon="12.1916642"><ele>284.0</ele><time>2026-05-02T10:31:39.744Z</time></trkpt><trkpt lat="43.2785722" lon="12.1913462"><ele>284.0</ele><time>2026-05-02T10:31:40.749Z</time></trkpt><trkpt lat="43.2785192" lon="12.1910184"><ele>286.0</ele><time>2026-05-02T10:31:41.723Z</time></trkpt><trkpt lat="43.278471" lon="12.190672"><ele>288.0</ele><time>2026-05-02T10:31:42.747Z</time></trkpt><trkpt lat="43.2784283" lon="12.1902984"><ele>288.0</ele><time>2026-05-02T10:31:43.746Z</time></trkpt><trkpt lat="43.2783887" lon="12.1899042"><ele>288.0</ele><time>2026-05-02T10:31:44.762Z</time></trkpt><trkpt lat="43.2783469" lon="12.1895066"><ele>287.5</ele><time>2026-05-02T10:31:45.752Z</time></trkpt><trkpt lat="43.2783037" lon="12.1891192"><ele>287.0</ele><time>2026-05-02T10:31:46.749Z</time></trkpt><trkpt lat="43.2782599" lon="12.1887358"><ele>286.5</ele><time>2026-05-02T10:31:47.753Z</time></trkpt><trkpt lat="43.278218" lon="12.1883517"><ele>286.0</ele><time>2026-05-02T10:31:48.746Z</time></trkpt><trkpt lat="43.2781801" lon="12.1879811"><ele>287.5</ele><time>2026-05-02T10:31:49.754Z</time></trkpt><trkpt lat="43.2781442" lon="12.1876129"><ele>289.0</ele><time>2026-05-02T10:31:50.745Z</time></trkpt><trkpt lat="43.278109" lon="12.1872485"><ele>286.5</ele><time>2026-05-02T10:31:51.736Z</time></trkpt><trkpt lat="43.2780715" lon="12.1868904"><ele>284.0</ele><time>2026-05-02T10:31:52.737Z</time></trkpt><trkpt lat="43.2780311" lon="12.1865344"><ele>284.5</ele><time>2026-05-02T10:31:53.74Z</time></trkpt><trkpt lat="43.2779895" lon="12.1861865"><ele>285.0</ele><time>2026-05-02T10:31:54.766Z</time></trkpt><trkpt lat="43.2779539" lon="12.1858559"><ele>284.6666666666667</ele><time>2026-05-02T10:31:55.742Z</time></trkpt><trkpt lat="43.2779191" lon="12.1855441"><ele>284.33333333333337</ele><time>2026-05-02T10:31:56.743Z</time></trkpt><trkpt lat="43.2778906" lon="12.1852622"><ele>284.0</ele><time>2026-05-02T10:31:57.754Z</time></trkpt><trkpt lat="43.27786" lon="12.1849838"><ele>284.33333333333337</ele><time>2026-05-02T10:31:58.754Z</time></trkpt><trkpt lat="43.277831" lon="12.1847047"><ele>284.6666666666667</ele><time>2026-05-02T10:31:59.739Z</time></trkpt><trkpt lat="43.277807" lon="12.1844151"><ele>285.0</ele><time>2026-05-02T10:32:00.757Z</time></trkpt><trkpt lat="43.2777826" lon="12.1841219"><ele>285.5</ele><time>2026-05-02T10:32:01.744Z</time></trkpt><trkpt lat="43.2777561" lon="12.1838135"><ele>286.0</ele><time>2026-05-02T10:32:02.747Z</time></trkpt><trkpt lat="43.2777231" lon="12.1835044"><ele>286.0</ele><time>2026-05-02T10:32:03.741Z</time></trkpt><trkpt lat="43.2776899" lon="12.1831905"><ele>286.0</ele><time>2026-05-02T10:32:04.762Z</time></trkpt><trkpt lat="43.277655" lon="12.1828736"><ele>286.0</ele><time>2026-05-02T10:32:05.751Z</time></trkpt><trkpt lat="43.2776217" lon="12.1825571"><ele>286.0</ele><time>2026-05-02T10:32:06.746Z</time></trkpt><trkpt lat="43.2775887" lon="12.1822377"><ele>286.0</ele><time>2026-05-02T10:32:07.746Z</time></trkpt><trkpt lat="43.2775531" lon="12.181921"><ele>286.0</ele><time>2026-05-02T10:32:08.757Z</time></trkpt><trkpt lat="43.2775196" lon="12.1816061"><ele>286.0</ele><time>2026-05-02T10:32:09.743Z</time></trkpt><trkpt lat="43.2774868" lon="12.1812876"><ele>286.0</ele><time>2026-05-02T10:32:10.757Z</time></trkpt><trkpt lat="43.277456" lon="12.1809645"><ele>287.5</ele><time>2026-05-02T10:32:11.75Z</time></trkpt><trkpt lat="43.2774228" lon="12.180645"><ele>289.0</ele><time>2026-05-02T10:32:12.752Z</time></trkpt><trkpt lat="43.2773879" lon="12.1803276"><ele>289.0</ele><time>2026-05-02T10:32:13.749Z</time></trkpt><trkpt lat="43.2773549" lon="12.1800107"><ele>289.0</ele><time>2026-05-02T10:32:14.751Z</time></trkpt><trkpt lat="43.2773244" lon="12.179694"><ele>290.0</ele><time>2026-05-02T10:32:15.743Z</time></trkpt><trkpt lat="43.277293" lon="12.1793803"><ele>291.0</ele><time>2026-05-02T10:32:16.745Z</time></trkpt><trkpt lat="43.2772615" lon="12.1790716"><ele>289.5</ele><time>2026-05-02T10:32:17.74Z</time></trkpt><trkpt lat="43.2772289" lon="12.178764"><ele>288.0</ele><time>2026-05-02T10:32:18.749Z</time></trkpt><trkpt lat="43.2771963" lon="12.1784578"><ele>287.6666666666667</ele><time>2026-05-02T10:32:19.748Z</time></trkpt><trkpt lat="43.2771653" lon="12.1781558"><ele>287.33333333333337</ele><time>2026-05-02T10:32:20.745Z</time></trkpt><trkpt lat="43.2771337" lon="12.1778634"><ele>287.0</ele><time>2026-05-02T10:32:21.745Z</time></trkpt><trkpt lat="43.2770953" lon="12.1775751"><ele>288.33333333333337</ele><time>2026-05-02T10:32:22.751Z</time></trkpt><trkpt lat="43.2770278" lon="12.1772947"><ele>289.6666666666667</ele><time>2026-05-02T10:32:23.749Z</time></trkpt><trkpt lat="43.2769355" lon="12.1770109"><ele>291.0</ele><time>2026-05-02T10:32:24.761Z</time></trkpt><trkpt lat="43.2768231" lon="12.1767247"><ele>291.0</ele><time>2026-05-02T10:32:25.752Z</time></trkpt><trkpt lat="43.2766838" lon="12.1764103"><ele>291.0</ele><time>2026-05-02T10:32:26.749Z</time></trkpt><trkpt lat="43.2765338" lon="12.1760652"><ele>290.0</ele><time>2026-05-02T10:32:27.748Z</time></trkpt><trkpt lat="43.2763776" lon="12.1757"><ele>289.0</ele><time>2026-05-02T10:32:28.74Z</time></trkpt><trkpt lat="43.2762112" lon="12.1753134"><ele>289.0</ele><time>2026-05-02T10:32:29.746Z</time></trkpt><trkpt lat="43.2760376" lon="12.1749184"><ele>289.0</ele><time>2026-05-02T10:32:30.752Z</time></trkpt><trkpt lat="43.2758706" lon="12.1745464"><ele>288.5</ele><time>2026-05-02T10:32:31.745Z</time></trkpt><trkpt lat="43.2756999" lon="12.1741897"><ele>288.0</ele><time>2026-05-02T10:32:32.745Z</time></trkpt><trkpt lat="43.2755267" lon="12.1738283"><ele>288.0</ele><time>2026-05-02T10:32:33.741Z</time></trkpt><trkpt lat="43.2753502" lon="12.1734733"><ele>288.0</ele><time>2026-05-02T10:32:34.736Z</time></trkpt><trkpt lat="43.2751725" lon="12.1731229"><ele>288.5</ele><time>2026-05-02T10:32:35.751Z</time></trkpt><trkpt lat="43.2749952" lon="12.172766"><ele>289.0</ele><time>2026-05-02T10:32:36.754Z</time></trkpt><trkpt lat="43.2748172" lon="12.172403"><ele>289.5</ele><time>2026-05-02T10:32:37.744Z</time></trkpt><trkpt lat="43.27464" lon="12.1720454"><ele>290.0</ele><time>2026-05-02T10:32:38.75Z</time></trkpt><trkpt lat="43.2744634" lon="12.1716946"><ele>290.0</ele><time>2026-05-02T10:32:39.744Z</time></trkpt><trkpt lat="43.2742918" lon="12.1713523"><ele>290.0</ele><time>2026-05-02T10:32:40.754Z</time></trkpt><trkpt lat="43.2741349" lon="12.1710413"><ele>290.0</ele><time>2026-05-02T10:32:41.748Z</time></trkpt><trkpt lat="43.2739959" lon="12.1707554"><ele>290.0</ele><time>2026-05-02T10:32:42.744Z</time></trkpt><trkpt lat="43.2738652" lon="12.1704869"><ele>289.5</ele><time>2026-05-02T10:32:43.754Z</time></trkpt><trkpt lat="43.2737369" lon="12.1702194"><ele>289.0</ele><time>2026-05-02T10:32:44.751Z</time></trkpt><trkpt lat="43.2736067" lon="12.1699513"><ele>288.5</ele><time>2026-05-02T10:32:45.745Z</time></trkpt><trkpt lat="43.2734738" lon="12.169671"><ele>288.0</ele><time>2026-05-02T10:32:46.746Z</time></trkpt><trkpt lat="43.2733393" lon="12.1693849"><ele>288.0</ele><time>2026-05-02T10:32:47.75Z</time></trkpt><trkpt lat="43.2732075" lon="12.1690994"><ele>288.0</ele><time>2026-05-02T10:32:48.752Z</time></trkpt><trkpt lat="43.273075" lon="12.1688136"><ele>289.0</ele><time>2026-05-02T10:32:49.755Z</time></trkpt><trkpt lat="43.2729414" lon="12.1685314"><ele>290.0</ele><time>2026-05-02T10:32:50.75Z</time></trkpt><trkpt lat="43.2728063" lon="12.1682449"><ele>290.5</ele><time>2026-05-02T10:32:51.748Z</time></trkpt><trkpt lat="43.2726708" lon="12.167968"><ele>291.0</ele><time>2026-05-02T10:32:52.744Z</time></trkpt><trkpt lat="43.2725399" lon="12.1676974"><ele>291.0</ele><time>2026-05-02T10:32:53.751Z</time></trkpt><trkpt lat="43.2724046" lon="12.1674275"><ele>291.0</ele><time>2026-05-02T10:32:54.757Z</time></trkpt><trkpt lat="43.2722549" lon="12.1671736"><ele>290.0</ele><time>2026-05-02T10:32:55.749Z</time></trkpt><trkpt lat="43.2720961" lon="12.1669267"><ele>289.0</ele><time>2026-05-02T10:32:56.731Z</time></trkpt><trkpt lat="43.2719425" lon="12.166691"><ele>289.5</ele><time>2026-05-02T10:32:57.758Z</time></trkpt><trkpt lat="43.2717887" lon="12.1664546"><ele>290.0</ele><time>2026-05-02T10:32:58.741Z</time></trkpt><trkpt lat="43.2716368" lon="12.1662186"><ele>290.0</ele><time>2026-05-02T10:32:59.756Z</time></trkpt><trkpt lat="43.2714907" lon="12.1659938"><ele>290.0</ele><time>2026-05-02T10:33:00.737Z</time></trkpt><trkpt lat="43.2713448" lon="12.1657835"><ele>290.0</ele><time>2026-05-02T10:33:01.748Z</time></trkpt><trkpt lat="43.2711861" lon="12.1655882"><ele>291.33333333333337</ele><time>2026-05-02T10:33:02.746Z</time></trkpt><trkpt lat="43.2710202" lon="12.1654092"><ele>292.6666666666667</ele><time>2026-05-02T10:33:03.748Z</time></trkpt><trkpt lat="43.2708586" lon="12.1652464"><ele>294.0</ele><time>2026-05-02T10:33:04.732Z</time></trkpt><trkpt lat="43.270711" lon="12.1650931"><ele>293.0</ele><time>2026-05-02T10:33:05.75Z</time></trkpt><trkpt lat="43.2705807" lon="12.164914"><ele>292.0</ele><time>2026-05-02T10:33:06.741Z</time></trkpt><trkpt lat="43.2704592" lon="12.1647038"><ele>291.0</ele><time>2026-05-02T10:33:07.745Z</time></trkpt><trkpt lat="43.2703455" lon="12.1644589"><ele>291.0</ele><time>2026-05-02T10:33:08.751Z</time></trkpt><trkpt lat="43.2702427" lon="12.1642025"><ele>291.0</ele><time>2026-05-02T10:33:09.742Z</time></trkpt><trkpt lat="43.2701378" lon="12.1639346"><ele>291.0</ele><time>2026-05-02T10:33:10.748Z</time></trkpt><trkpt lat="43.2700287" lon="12.1636533"><ele>292.0</ele><time>2026-05-02T10:33:11.755Z</time></trkpt><trkpt lat="43.2699221" lon="12.1633574"><ele>293.0</ele><time>2026-05-02T10:33:12.742Z</time></trkpt><trkpt lat="43.2698219" lon="12.1630734"><ele>291.6666666666667</ele><time>2026-05-02T10:33:13.74Z</time></trkpt><trkpt lat="43.2697265" lon="12.1628021"><ele>290.3333333333333</ele><time>2026-05-02T10:33:14.74Z</time></trkpt><trkpt lat="43.2696324" lon="12.1625288"><ele>289.0</ele><time>2026-05-02T10:33:15.735Z</time></trkpt><trkpt lat="43.2695326" lon="12.1622426"><ele>289.0</ele><time>2026-05-02T10:33:16.746Z</time></trkpt><trkpt lat="43.2694302" lon="12.1619485"><ele>289.0</ele><time>2026-05-02T10:33:17.744Z</time></trkpt><trkpt lat="43.2693294" lon="12.1616455"><ele>290.5</ele><time>2026-05-02T10:33:18.756Z</time></trkpt><trkpt lat="43.269229" lon="12.1613383"><ele>292.0</ele><time>2026-05-02T10:33:19.73Z</time></trkpt><trkpt lat="43.2691254" lon="12.1610301"><ele>292.0</ele><time>2026-05-02T10:33:20.744Z</time></trkpt><trkpt lat="43.2690173" lon="12.1607214"><ele>292.0</ele><time>2026-05-02T10:33:21.74Z</time></trkpt><trkpt lat="43.2688999" lon="12.1604134"><ele>290.5</ele><time>2026-05-02T10:33:22.745Z</time></trkpt><trkpt lat="43.268773" lon="12.160106"><ele>289.0</ele><time>2026-05-02T10:33:23.748Z</time></trkpt><trkpt lat="43.2686399" lon="12.1598042"><ele>289.0</ele><time>2026-05-02T10:33:24.747Z</time></trkpt><trkpt lat="43.2685058" lon="12.1595056"><ele>289.0</ele><time>2026-05-02T10:33:25.743Z</time></trkpt><trkpt lat="43.2683707" lon="12.1592089"><ele>288.5</ele><time>2026-05-02T10:33:26.742Z</time></trkpt><trkpt lat="43.268233" lon="12.1589132"><ele>288.0</ele><time>2026-05-02T10:33:27.738Z</time></trkpt><trkpt lat="43.2680953" lon="12.1586159"><ele>288.0</ele><time>2026-05-02T10:33:28.745Z</time></trkpt><trkpt lat="43.2679586" lon="12.1583175"><ele>288.0</ele><time>2026-05-02T10:33:29.74Z</time></trkpt><trkpt lat="43.2678234" lon="12.1580175"><ele>289.5</ele><time>2026-05-02T10:33:30.742Z</time></trkpt><trkpt lat="43.2676828" lon="12.1577113"><ele>291.0</ele><time>2026-05-02T10:33:31.74Z</time></trkpt><trkpt lat="43.2675417" lon="12.1573961"><ele>291.5</ele><time>2026-05-02T10:33:32.746Z</time></trkpt><trkpt lat="43.267399" lon="12.157074"><ele>292.0</ele><time>2026-05-02T10:33:33.75Z</time></trkpt><trkpt lat="43.2672567" lon="12.1567491"><ele>292.0</ele><time>2026-05-02T10:33:34.74Z</time></trkpt><trkpt lat="43.267117" lon="12.1564141"><ele>292.0</ele><time>2026-05-02T10:33:35.74Z</time></trkpt><trkpt lat="43.2669799" lon="12.1560875"><ele>292.0</ele><time>2026-05-02T10:33:36.755Z</time></trkpt><trkpt lat="43.2668518" lon="12.1557634"><ele>292.0</ele><time>2026-05-02T10:33:37.75Z</time></trkpt><trkpt lat="43.2667338" lon="12.15546"><ele>292.0</ele><time>2026-05-02T10:33:38.745Z</time></trkpt><trkpt lat="43.266625" lon="12.1551751"><ele>292.0</ele><time>2026-05-02T10:33:39.726Z</time></trkpt><trkpt lat="43.2665206" lon="12.1549132"><ele>293.0</ele><time>2026-05-02T10:33:40.76Z</time></trkpt><trkpt lat="43.2664252" lon="12.154677"><ele>294.0</ele><time>2026-05-02T10:33:41.741Z</time></trkpt><trkpt lat="43.2663255" lon="12.154455"><ele>295.0</ele><time>2026-05-02T10:33:42.746Z</time></trkpt><trkpt lat="43.2662133" lon="12.1542079"><ele>295.0</ele><time>2026-05-02T10:33:43.748Z</time></trkpt><trkpt lat="43.2660696" lon="12.1539513"><ele>295.0</ele><time>2026-05-02T10:33:44.753Z</time></trkpt><trkpt lat="43.2658919" lon="12.1536786"><ele>295.0</ele><time>2026-05-02T10:33:45.74Z</time></trkpt><trkpt lat="43.2657036" lon="12.1533988"><ele>295.0</ele><time>2026-05-02T10:33:46.754Z</time></trkpt><trkpt lat="43.2655173" lon="12.1531445"><ele>294.66666666666663</ele><time>2026-05-02T10:33:47.745Z</time></trkpt><trkpt lat="43.2653511" lon="12.1529233"><ele>294.3333333333333</ele><time>2026-05-02T10:33:48.745Z</time></trkpt><trkpt lat="43.2652073" lon="12.1527283"><ele>294.0</ele><time>2026-05-02T10:33:49.758Z</time></trkpt><trkpt lat="43.2650832" lon="12.1525508"><ele>294.0</ele><time>2026-05-02T10:33:50.758Z</time></trkpt><trkpt lat="43.2649714" lon="12.1523996"><ele>294.0</ele><time>2026-05-02T10:33:51.739Z</time></trkpt><trkpt lat="43.2648668" lon="12.1522695"><ele>294.0</ele><time>2026-05-02T10:33:52.751Z</time></trkpt><trkpt lat="43.2647684" lon="12.1521494"><ele>294.0</ele><time>2026-05-02T10:33:53.745Z</time></trkpt><trkpt lat="43.2646868" lon="12.1520284"><ele>294.5</ele><time>2026-05-02T10:33:54.74Z</time></trkpt><trkpt lat="43.2646051" lon="12.1518882"><ele>295.0</ele><time>2026-05-02T10:33:55.753Z</time></trkpt><trkpt lat="43.2645212" lon="12.1517335"><ele>295.5</ele><time>2026-05-02T10:33:56.747Z</time></trkpt><trkpt lat="43.2644276" lon="12.1515828"><ele>296.0</ele><time>2026-05-02T10:33:57.737Z</time></trkpt><trkpt lat="43.2643211" lon="12.1514248"><ele>296.33333333333337</ele><time>2026-05-02T10:33:58.744Z</time></trkpt><trkpt lat="43.2642102" lon="12.1512638"><ele>296.6666666666667</ele><time>2026-05-02T10:33:59.753Z</time></trkpt><trkpt lat="43.2641002" lon="12.1511061"><ele>297.0</ele><time>2026-05-02T10:34:00.749Z</time></trkpt><trkpt lat="43.2639887" lon="12.1509507"><ele>297.0</ele><time>2026-05-02T10:34:01.745Z</time></trkpt><trkpt lat="43.2638709" lon="12.1508031"><ele>297.0</ele><time>2026-05-02T10:34:02.746Z</time></trkpt><trkpt lat="43.2637314" lon="12.1506561"><ele>297.0</ele><time>2026-05-02T10:34:03.749Z</time></trkpt><trkpt lat="43.2635757" lon="12.1505062"><ele>297.0</ele><time>2026-05-02T10:34:04.752Z</time></trkpt><trkpt lat="43.2634045" lon="12.1503521"><ele>297.0</ele><time>2026-05-02T10:34:05.743Z</time></trkpt><trkpt lat="43.2632135" lon="12.1501989"><ele>297.0</ele><time>2026-05-02T10:34:06.749Z</time></trkpt><trkpt lat="43.2630105" lon="12.1500452"><ele>297.0</ele><time>2026-05-02T10:34:07.747Z</time></trkpt><trkpt lat="43.2628052" lon="12.1498939"><ele>297.0</ele><time>2026-05-02T10:34:08.746Z</time></trkpt><trkpt lat="43.2626018" lon="12.149741"><ele>296.0</ele><time>2026-05-02T10:34:09.751Z</time></trkpt><trkpt lat="43.2623999" lon="12.1495911"><ele>295.0</ele><time>2026-05-02T10:34:10.75Z</time></trkpt><trkpt lat="43.2621978" lon="12.1494396"><ele>295.0</ele><time>2026-05-02T10:34:11.755Z</time></trkpt><trkpt lat="43.2619909" lon="12.1492928"><ele>295.0</ele><time>2026-05-02T10:34:12.737Z</time></trkpt><trkpt lat="43.2617834" lon="12.1491407"><ele>297.0</ele><time>2026-05-02T10:34:13.755Z</time></trkpt><trkpt lat="43.2615751" lon="12.1489874"><ele>299.0</ele><time>2026-05-02T10:34:14.741Z</time></trkpt><trkpt lat="43.2613668" lon="12.1488273"><ele>299.0</ele><time>2026-05-02T10:34:15.743Z</time></trkpt><trkpt lat="43.2611565" lon="12.1486655"><ele>299.0</ele><time>2026-05-02T10:34:16.735Z</time></trkpt><trkpt lat="43.2609448" lon="12.1485082"><ele>299.0</ele><time>2026-05-02T10:34:17.744Z</time></trkpt><trkpt lat="43.2607313" lon="12.1483505"><ele>299.0</ele><time>2026-05-02T10:34:18.748Z</time></trkpt><trkpt lat="43.2605159" lon="12.1481915"><ele>302.5</ele><time>2026-05-02T10:34:19.757Z</time></trkpt><trkpt lat="43.2602987" lon="12.1480309"><ele>306.0</ele><time>2026-05-02T10:34:20.744Z</time></trkpt><trkpt lat="43.2600879" lon="12.1478674"><ele>306.0</ele><time>2026-05-02T10:34:21.744Z</time></trkpt><trkpt lat="43.2598772" lon="12.1477046"><ele>306.0</ele><time>2026-05-02T10:34:22.742Z</time></trkpt><trkpt lat="43.2596661" lon="12.1475476"><ele>304.5</ele><time>2026-05-02T10:34:23.75Z</time></trkpt><trkpt lat="43.259452" lon="12.1473926"><ele>303.0</ele><time>2026-05-02T10:34:24.744Z</time></trkpt><trkpt lat="43.2592429" lon="12.1472262"><ele>303.0</ele><time>2026-05-02T10:34:25.753Z</time></trkpt><trkpt lat="43.2590389" lon="12.1470499"><ele>303.0</ele><time>2026-05-02T10:34:26.748Z</time></trkpt><trkpt lat="43.2588465" lon="12.1468544"><ele>300.5</ele><time>2026-05-02T10:34:27.746Z</time></trkpt><trkpt lat="43.2586619" lon="12.1466517"><ele>298.0</ele><time>2026-05-02T10:34:28.751Z</time></trkpt><trkpt lat="43.2584848" lon="12.1464374"><ele>298.0</ele><time>2026-05-02T10:34:29.744Z</time></trkpt><trkpt lat="43.2583175" lon="12.1462032"><ele>298.0</ele><time>2026-05-02T10:34:30.756Z</time></trkpt><trkpt lat="43.2581553" lon="12.1459571"><ele>296.5</ele><time>2026-05-02T10:34:31.75Z</time></trkpt><trkpt lat="43.2579942" lon="12.1456952"><ele>295.0</ele><time>2026-05-02T10:34:32.742Z</time></trkpt><trkpt lat="43.2578315" lon="12.1454211"><ele>295.0</ele><time>2026-05-02T10:34:33.749Z</time></trkpt><trkpt lat="43.2576658" lon="12.1451369"><ele>295.0</ele><time>2026-05-02T10:34:34.745Z</time></trkpt><trkpt lat="43.2574943" lon="12.1448546"><ele>297.5</ele><time>2026-05-02T10:34:35.742Z</time></trkpt><trkpt lat="43.2573224" lon="12.14457"><ele>300.0</ele><time>2026-05-02T10:34:36.724Z</time></trkpt><trkpt lat="43.2571515" lon="12.1442865"><ele>300.0</ele><time>2026-05-02T10:34:37.756Z</time></trkpt><trkpt lat="43.2569847" lon="12.1440103"><ele>300.0</ele><time>2026-05-02T10:34:38.737Z</time></trkpt><trkpt lat="43.2568314" lon="12.1437528"><ele>300.0</ele><time>2026-05-02T10:34:39.754Z</time></trkpt><trkpt lat="43.2566929" lon="12.1435235"><ele>300.0</ele><time>2026-05-02T10:34:40.74Z</time></trkpt><trkpt lat="43.2565692" lon="12.1433168"><ele>300.0</ele><time>2026-05-02T10:34:41.743Z</time></trkpt><trkpt lat="43.2564537" lon="12.1431272"><ele>301.3333333333333</ele><time>2026-05-02T10:34:42.749Z</time></trkpt><trkpt lat="43.2563477" lon="12.1429513"><ele>302.66666666666663</ele><time>2026-05-02T10:34:43.759Z</time></trkpt><trkpt lat="43.2562547" lon="12.1427765"><ele>304.0</ele><time>2026-05-02T10:34:44.754Z</time></trkpt><trkpt lat="43.2561699" lon="12.1426273"><ele>304.0</ele><time>2026-05-02T10:34:45.743Z</time></trkpt><trkpt lat="43.2560897" lon="12.1424748"><ele>304.0</ele><time>2026-05-02T10:34:46.751Z</time></trkpt><trkpt lat="43.2560145" lon="12.1423175"><ele>304.0</ele><time>2026-05-02T10:34:47.748Z</time></trkpt><trkpt lat="43.2559451" lon="12.1421482"><ele>304.0</ele><time>2026-05-02T10:34:48.741Z</time></trkpt><trkpt lat="43.2558749" lon="12.1419688"><ele>304.66666666666663</ele><time>2026-05-02T10:34:49.751Z</time></trkpt><trkpt lat="43.2558032" lon="12.1417843"><ele>305.3333333333333</ele><time>2026-05-02T10:34:50.744Z</time></trkpt><trkpt lat="43.2557309" lon="12.1415914"><ele>306.0</ele><time>2026-05-02T10:34:51.748Z</time></trkpt><trkpt lat="43.2556571" lon="12.1413978"><ele>305.75</ele><time>2026-05-02T10:34:52.753Z</time></trkpt><trkpt lat="43.2555892" lon="12.1412038"><ele>305.5</ele><time>2026-05-02T10:34:53.751Z</time></trkpt><trkpt lat="43.2555281" lon="12.1410235"><ele>305.25</ele><time>2026-05-02T10:34:54.751Z</time></trkpt><trkpt lat="43.2554718" lon="12.1408607"><ele>305.0</ele><time>2026-05-02T10:34:55.744Z</time></trkpt><trkpt lat="43.2554177" lon="12.1407125"><ele>305.0</ele><time>2026-05-02T10:34:56.751Z</time></trkpt><trkpt lat="43.2553652" lon="12.1405688"><ele>305.0</ele><time>2026-05-02T10:34:57.746Z</time></trkpt><trkpt lat="43.2553162" lon="12.1404376"><ele>305.0</ele><time>2026-05-02T10:34:58.753Z</time></trkpt><trkpt lat="43.2552679" lon="12.1403051"><ele>305.0</ele><time>2026-05-02T10:34:59.752Z</time></trkpt><trkpt lat="43.2552324" lon="12.1401694"><ele>305.0</ele><time>2026-05-02T10:35:00.748Z</time></trkpt><trkpt lat="43.2552055" lon="12.1400366"><ele>305.0</ele><time>2026-05-02T10:35:01.75Z</time></trkpt><trkpt lat="43.2551896" lon="12.1399043"><ele>305.0</ele><time>2026-05-02T10:35:02.741Z</time></trkpt><trkpt lat="43.2551786" lon="12.1397839"><ele>305.0</ele><time>2026-05-02T10:35:03.755Z</time></trkpt><trkpt lat="43.2551647" lon="12.1396653"><ele>305.0</ele><time>2026-05-02T10:35:04.74Z</time></trkpt><trkpt lat="43.2551381" lon="12.1395545"><ele>305.0</ele><time>2026-05-02T10:35:05.742Z</time></trkpt><trkpt lat="43.2550866" lon="12.1394738"><ele>305.0</ele><time>2026-05-02T10:35:06.742Z</time></trkpt><trkpt lat="43.2550043" lon="12.139435"><ele>304.75</ele><time>2026-05-02T10:35:07.744Z</time></trkpt><trkpt lat="43.2548943" lon="12.1394348"><ele>304.5</ele><time>2026-05-02T10:35:08.748Z</time></trkpt><trkpt lat="43.254765" lon="12.1394451"><ele>304.25</ele><time>2026-05-02T10:35:09.74Z</time></trkpt><trkpt lat="43.2546209" lon="12.1394519"><ele>304.0</ele><time>2026-05-02T10:35:10.737Z</time></trkpt><trkpt lat="43.2544611" lon="12.1394389"><ele>303.66666666666663</ele><time>2026-05-02T10:35:11.741Z</time></trkpt><trkpt lat="43.2542926" lon="12.1394137"><ele>303.3333333333333</ele><time>2026-05-02T10:35:12.751Z</time></trkpt><trkpt lat="43.2541126" lon="12.1393817"><ele>303.0</ele><time>2026-05-02T10:35:13.74Z</time></trkpt><trkpt lat="43.2539207" lon="12.1393497"><ele>302.6666666666667</ele><time>2026-05-02T10:35:14.745Z</time></trkpt><trkpt lat="43.2537297" lon="12.1393211"><ele>302.33333333333337</ele><time>2026-05-02T10:35:15.741Z</time></trkpt><trkpt lat="43.2535354" lon="12.1393"><ele>302.0</ele><time>2026-05-02T10:35:16.74Z</time></trkpt><trkpt lat="43.2533383" lon="12.1392793"><ele>302.0</ele><time>2026-05-02T10:35:17.741Z</time></trkpt><trkpt lat="43.253141" lon="12.1392572"><ele>302.0</ele><time>2026-05-02T10:35:18.743Z</time></trkpt><trkpt lat="43.25294" lon="12.1392341"><ele>302.0</ele><time>2026-05-02T10:35:19.744Z</time></trkpt><trkpt lat="43.2527383" lon="12.1392141"><ele>301.33333333333337</ele><time>2026-05-02T10:35:20.744Z</time></trkpt><trkpt lat="43.2525337" lon="12.1391894"><ele>300.6666666666667</ele><time>2026-05-02T10:35:21.741Z</time></trkpt><trkpt lat="43.252327" lon="12.1391694"><ele>300.0</ele><time>2026-05-02T10:35:22.74Z</time></trkpt><trkpt lat="43.2521229" lon="12.1391469"><ele>299.6666666666667</ele><time>2026-05-02T10:35:23.75Z</time></trkpt><trkpt lat="43.2519176" lon="12.139126"><ele>299.33333333333337</ele><time>2026-05-02T10:35:24.739Z</time></trkpt><trkpt lat="43.2517116" lon="12.1391028"><ele>299.0</ele><time>2026-05-02T10:35:25.744Z</time></trkpt><trkpt lat="43.2515055" lon="12.1390784"><ele>298.6666666666667</ele><time>2026-05-02T10:35:26.744Z</time></trkpt><trkpt lat="43.2513007" lon="12.1390545"><ele>298.3333333333333</ele><time>2026-05-02T10:35:27.742Z</time></trkpt><trkpt lat="43.2510991" lon="12.1390259"><ele>298.0</ele><time>2026-05-02T10:35:28.741Z</time></trkpt><trkpt lat="43.2509019" lon="12.1389986"><ele>298.0</ele><time>2026-05-02T10:35:29.745Z</time></trkpt><trkpt lat="43.2507126" lon="12.1389792"><ele>298.0</ele><time>2026-05-02T10:35:30.766Z</time></trkpt><trkpt lat="43.2505316" lon="12.1389619"><ele>298.0</ele><time>2026-05-02T10:35:31.752Z</time></trkpt><trkpt lat="43.250355" lon="12.1389402"><ele>298.66666666666663</ele><time>2026-05-02T10:35:32.747Z</time></trkpt><trkpt lat="43.2501864" lon="12.1389158"><ele>299.3333333333333</ele><time>2026-05-02T10:35:33.752Z</time></trkpt><trkpt lat="43.2500277" lon="12.1389022"><ele>300.0</ele><time>2026-05-02T10:35:34.755Z</time></trkpt><trkpt lat="43.2498875" lon="12.1388757"><ele>305.2</ele><time>2026-05-02T10:35:35.747Z</time></trkpt><trkpt lat="43.2497738" lon="12.1388213"><ele>310.4</ele><time>2026-05-02T10:35:36.747Z</time></trkpt><trkpt lat="43.2497004" lon="12.138721"><ele>315.6</ele><time>2026-05-02T10:35:37.738Z</time></trkpt><trkpt lat="43.2496803" lon="12.1385994"><ele>320.8</ele><time>2026-05-02T10:35:38.75Z</time></trkpt><trkpt lat="43.2497018" lon="12.1384578"><ele>326.0</ele><time>2026-05-02T10:35:39.733Z</time></trkpt><trkpt lat="43.2497467" lon="12.1383009"><ele>320.75</ele><time>2026-05-02T10:35:40.765Z</time></trkpt><trkpt lat="43.2498069" lon="12.1381377"><ele>315.5</ele><time>2026-05-02T10:35:41.738Z</time></trkpt><trkpt lat="43.2498696" lon="12.137956"><ele>310.25</ele><time>2026-05-02T10:35:42.746Z</time></trkpt><trkpt lat="43.2499266" lon="12.1377592"><ele>305.0</ele><time>2026-05-02T10:35:43.744Z</time></trkpt><trkpt lat="43.2499862" lon="12.1375584"><ele>306.6666666666667</ele><time>2026-05-02T10:35:44.742Z</time></trkpt><trkpt lat="43.2500515" lon="12.1373563"><ele>308.3333333333333</ele><time>2026-05-02T10:35:45.746Z</time></trkpt><trkpt lat="43.2501341" lon="12.1371573"><ele>310.0</ele><time>2026-05-02T10:35:46.73Z</time></trkpt><trkpt lat="43.2502394" lon="12.1369698"><ele>310.0</ele><time>2026-05-02T10:35:47.746Z</time></trkpt><trkpt lat="43.2503561" lon="12.1367837"><ele>310.0</ele><time>2026-05-02T10:35:48.745Z</time></trkpt><trkpt lat="43.2504698" lon="12.1365886"><ele>310.0</ele><time>2026-05-02T10:35:49.752Z</time></trkpt><trkpt lat="43.2505778" lon="12.1363739"><ele>308.66666666666663</ele><time>2026-05-02T10:35:50.743Z</time></trkpt><trkpt lat="43.2506746" lon="12.1361349"><ele>307.3333333333333</ele><time>2026-05-02T10:35:51.748Z</time></trkpt><trkpt lat="43.2507585" lon="12.1358787"><ele>306.0</ele><time>2026-05-02T10:35:52.743Z</time></trkpt><trkpt lat="43.2508378" lon="12.1356168"><ele>309.6666666666667</ele><time>2026-05-02T10:35:53.749Z</time></trkpt><trkpt lat="43.2509204" lon="12.1353622"><ele>313.33333333333337</ele><time>2026-05-02T10:35:54.738Z</time></trkpt><trkpt lat="43.2509996" lon="12.1351117"><ele>317.0</ele><time>2026-05-02T10:35:55.742Z</time></trkpt><trkpt lat="43.2510799" lon="12.1348734"><ele>322.0</ele><time>2026-05-02T10:35:56.762Z</time></trkpt><trkpt lat="43.2511757" lon="12.1346636"><ele>327.0</ele><time>2026-05-02T10:35:57.752Z</time></trkpt><trkpt lat="43.251296" lon="12.1344842"><ele>332.0</ele><time>2026-05-02T10:35:58.759Z</time></trkpt><trkpt lat="43.2514355" lon="12.1343434"><ele>330.33333333333337</ele><time>2026-05-02T10:35:59.738Z</time></trkpt><trkpt lat="43.2515667" lon="12.1341914"><ele>328.6666666666667</ele><time>2026-05-02T10:36:00.749Z</time></trkpt><trkpt lat="43.2516862" lon="12.1339981"><ele>327.0</ele><time>2026-05-02T10:36:01.736Z</time></trkpt><trkpt lat="43.2517894" lon="12.1337534"><ele>327.0</ele><time>2026-05-02T10:36:02.743Z</time></trkpt><trkpt lat="43.251896" lon="12.1335232"><ele>327.0</ele><time>2026-05-02T10:36:03.74Z</time></trkpt><trkpt lat="43.2520312" lon="12.1333302"><ele>327.0</ele><time>2026-05-02T10:36:04.747Z</time></trkpt><trkpt lat="43.2521641" lon="12.1331615"><ele>328.5</ele><time>2026-05-02T10:36:05.743Z</time></trkpt><trkpt lat="43.2522814" lon="12.1330124"><ele>330.0</ele><time>2026-05-02T10:36:06.751Z</time></trkpt><trkpt lat="43.2523562" lon="12.1328638"><ele>331.5</ele><time>2026-05-02T10:36:07.732Z</time></trkpt><trkpt lat="43.2523679" lon="12.1326877"><ele>333.0</ele><time>2026-05-02T10:36:08.729Z</time></trkpt><trkpt lat="43.25234" lon="12.1324835"><ele>331.0</ele><time>2026-05-02T10:36:09.758Z</time></trkpt><trkpt lat="43.2522918" lon="12.132268"><ele>329.0</ele><time>2026-05-02T10:36:10.744Z</time></trkpt><trkpt lat="43.2522466" lon="12.1320682"><ele>327.0</ele><time>2026-05-02T10:36:11.738Z</time></trkpt><trkpt lat="43.2522048" lon="12.1319273"><ele>325.0</ele><time>2026-05-02T10:36:12.737Z</time></trkpt><trkpt lat="43.2521351" lon="12.1318204"><ele>325.0</ele><time>2026-05-02T10:36:13.745Z</time></trkpt><trkpt lat="43.2520226" lon="12.1317762"><ele>325.0</ele><time>2026-05-02T10:36:14.732Z</time></trkpt><trkpt lat="43.2518827" lon="12.1317415"><ele>325.0</ele><time>2026-05-02T10:36:15.738Z</time></trkpt><trkpt lat="43.251711" lon="12.1317078"><ele>325.0</ele><time>2026-05-02T10:36:16.733Z</time></trkpt><trkpt lat="43.2515243" lon="12.1316598"><ele>328.0</ele><time>2026-05-02T10:36:17.738Z</time></trkpt><trkpt lat="43.2513514" lon="12.1316211"><ele>331.0</ele><time>2026-05-02T10:36:18.745Z</time></trkpt><trkpt lat="43.2512146" lon="12.1315746"><ele>334.0</ele><time>2026-05-02T10:36:19.737Z</time></trkpt><trkpt lat="43.251119" lon="12.1314941"><ele>337.0</ele><time>2026-05-02T10:36:20.752Z</time></trkpt><trkpt lat="43.2510703" lon="12.1313658"><ele>337.0</ele><time>2026-05-02T10:36:21.731Z</time></trkpt><trkpt lat="43.2510747" lon="12.1312258"><ele>337.0</ele><time>2026-05-02T10:36:22.739Z</time></trkpt><trkpt lat="43.2511294" lon="12.1310754"><ele>337.0</ele><time>2026-05-02T10:36:23.732Z</time></trkpt><trkpt lat="43.2512358" lon="12.1309312"><ele>337.0</ele><time>2026-05-02T10:36:24.738Z</time></trkpt><trkpt lat="43.251339" lon="12.1308195"><ele>337.0</ele><time>2026-05-02T10:36:25.737Z</time></trkpt><trkpt lat="43.2514003" lon="12.1307344"><ele>337.0</ele><time>2026-05-02T10:36:26.743Z</time></trkpt><trkpt lat="43.2513513" lon="12.1305932"><ele>337.0</ele><time>2026-05-02T10:36:28.749Z</time></trkpt><trkpt lat="43.2512704" lon="12.1305712"><ele>337.0</ele><time>2026-05-02T10:36:29.735Z</time></trkpt><trkpt lat="43.2511512" lon="12.1306089"><ele>337.0</ele><time>2026-05-02T10:36:30.734Z</time></trkpt><trkpt lat="43.251" lon="12.1306974"><ele>337.0</ele><time>2026-05-02T10:36:31.731Z</time></trkpt><trkpt lat="43.2508118" lon="12.130813"><ele>337.0</ele><time>2026-05-02T10:36:32.738Z</time></trkpt><trkpt lat="43.2506148" lon="12.1309266"><ele>337.0</ele><time>2026-05-02T10:36:33.736Z</time></trkpt><trkpt lat="43.2504105" lon="12.1310151"><ele>339.66666666666663</ele><time>2026-05-02T10:36:34.738Z</time></trkpt><trkpt lat="43.2502303" lon="12.1310501"><ele>342.3333333333333</ele><time>2026-05-02T10:36:35.741Z</time></trkpt><trkpt lat="43.2500616" lon="12.1310336"><ele>345.0</ele><time>2026-05-02T10:36:36.74Z</time></trkpt><trkpt lat="43.2498844" lon="12.1309916"><ele>348.3333333333333</ele><time>2026-05-02T10:36:37.74Z</time></trkpt><trkpt lat="43.2497185" lon="12.1309666"><ele>351.66666666666663</ele><time>2026-05-02T10:36:38.745Z</time></trkpt><trkpt lat="43.2495683" lon="12.1310286"><ele>355.0</ele><time>2026-05-02T10:36:39.73Z</time></trkpt><trkpt lat="43.249449" lon="12.1311442"><ele>355.0</ele><time>2026-05-02T10:36:40.73Z</time></trkpt><trkpt lat="43.2493544" lon="12.1312161"><ele>355.0</ele><time>2026-05-02T10:36:41.75Z</time></trkpt><trkpt lat="43.2492705" lon="12.1312072"><ele>355.0</ele><time>2026-05-02T10:36:42.752Z</time></trkpt><trkpt lat="43.2492358" lon="12.1311241"><ele>355.0</ele><time>2026-05-02T10:36:43.736Z</time></trkpt><trkpt lat="43.2492352" lon="12.1309976"><ele>355.0</ele><time>2026-05-02T10:36:44.758Z</time></trkpt><trkpt lat="43.2492868" lon="12.1308559"><ele>358.0</ele><time>2026-05-02T10:36:45.735Z</time></trkpt><trkpt lat="43.2493832" lon="12.1306935"><ele>361.0</ele><time>2026-05-02T10:36:46.742Z</time></trkpt><trkpt lat="43.2494921" lon="12.1304979"><ele>364.0</ele><time>2026-05-02T10:36:47.741Z</time></trkpt><trkpt lat="43.2495785" lon="12.1302976"><ele>364.0</ele><time>2026-05-02T10:36:48.75Z</time></trkpt><trkpt lat="43.2496138" lon="12.1301087"><ele>364.0</ele><time>2026-05-02T10:36:49.737Z</time></trkpt><trkpt lat="43.2496114" lon="12.129895"><ele>364.0</ele><time>2026-05-02T10:36:50.766Z</time></trkpt><trkpt lat="43.2495539" lon="12.1296574"><ele>365.5</ele><time>2026-05-02T10:36:51.741Z</time></trkpt><trkpt lat="43.249471" lon="12.1294583"><ele>367.0</ele><time>2026-05-02T10:36:52.737Z</time></trkpt><trkpt lat="43.2493816" lon="12.1293219"><ele>368.5</ele><time>2026-05-02T10:36:53.732Z</time></trkpt><trkpt lat="43.2492806" lon="12.1292683"><ele>370.0</ele><time>2026-05-02T10:36:54.734Z</time></trkpt><trkpt lat="43.2491718" lon="12.1292863"><ele>370.0</ele><time>2026-05-02T10:36:55.732Z</time></trkpt><trkpt lat="43.2490654" lon="12.1293863"><ele>370.0</ele><time>2026-05-02T10:36:56.727Z</time></trkpt><trkpt lat="43.248978" lon="12.1295393"><ele>370.0</ele><time>2026-05-02T10:36:57.734Z</time></trkpt><trkpt lat="43.2488905" lon="12.1296868"><ele>370.0</ele><time>2026-05-02T10:36:58.741Z</time></trkpt><trkpt lat="43.2488206" lon="12.1297481"><ele>372.75</ele><time>2026-05-02T10:36:59.737Z</time></trkpt><trkpt lat="43.2487499" lon="12.1296969"><ele>375.5</ele><time>2026-05-02T10:37:00.731Z</time></trkpt><trkpt lat="43.2487096" lon="12.129567"><ele>378.25</ele><time>2026-05-02T10:37:01.73Z</time></trkpt><trkpt lat="43.2487118" lon="12.1293905"><ele>381.0</ele><time>2026-05-02T10:37:02.738Z</time></trkpt><trkpt lat="43.2487436" lon="12.1291734"><ele>384.0</ele><time>2026-05-02T10:37:03.746Z</time></trkpt><trkpt lat="43.2487973" lon="12.128925"><ele>387.0</ele><time>2026-05-02T10:37:04.731Z</time></trkpt><trkpt lat="43.2488467" lon="12.1286722"><ele>390.0</ele><time>2026-05-02T10:37:05.741Z</time></trkpt><trkpt lat="43.2488838" lon="12.1284415"><ele>391.25</ele><time>2026-05-02T10:37:06.741Z</time></trkpt><trkpt lat="43.2488966" lon="12.1282225"><ele>392.5</ele><time>2026-05-02T10:37:07.73Z</time></trkpt><trkpt lat="43.2488569" lon="12.1280701"><ele>393.75</ele><time>2026-05-02T10:37:08.726Z</time></trkpt><trkpt lat="43.2487558" lon="12.1280699"><ele>395.0</ele><time>2026-05-02T10:37:09.732Z</time></trkpt><trkpt lat="43.2486239" lon="12.1281864"><ele>393.3333333333333</ele><time>2026-05-02T10:37:10.733Z</time></trkpt><trkpt lat="43.2484877" lon="12.1283656"><ele>391.66666666666663</ele><time>2026-05-02T10:37:11.735Z</time></trkpt><trkpt lat="43.2483384" lon="12.1285488"><ele>390.0</ele><time>2026-05-02T10:37:12.739Z</time></trkpt><trkpt lat="43.2481961" lon="12.1287182"><ele>391.0</ele><time>2026-05-02T10:37:13.737Z</time></trkpt><trkpt lat="43.2480828" lon="12.1288601"><ele>392.0</ele><time>2026-05-02T10:37:14.731Z</time></trkpt><trkpt lat="43.2479874" lon="12.1289709"><ele>393.0</ele><time>2026-05-02T10:37:15.733Z</time></trkpt><trkpt lat="43.2478944" lon="12.1290677"><ele>394.0</ele><time>2026-05-02T10:37:16.729Z</time></trkpt><trkpt lat="43.2477983" lon="12.1291393"><ele>394.0</ele><time>2026-05-02T10:37:17.734Z</time></trkpt><trkpt lat="43.2476879" lon="12.1291839"><ele>394.0</ele><time>2026-05-02T10:37:18.739Z</time></trkpt><trkpt lat="43.2475714" lon="12.1292033"><ele>394.0</ele><time>2026-05-02T10:37:19.734Z</time></trkpt><trkpt lat="43.2474458" lon="12.1291808"><ele>394.0</ele><time>2026-05-02T10:37:20.739Z</time></trkpt><trkpt lat="43.2473085" lon="12.1291639"><ele>396.25</ele><time>2026-05-02T10:37:21.734Z</time></trkpt><trkpt lat="43.2471818" lon="12.129188"><ele>398.5</ele><time>2026-05-02T10:37:22.73Z</time></trkpt><trkpt lat="43.2470539" lon="12.1292751"><ele>400.75</ele><time>2026-05-02T10:37:23.736Z</time></trkpt><trkpt lat="43.246914" lon="12.1294049"><ele>403.0</ele><time>2026-05-02T10:37:24.739Z</time></trkpt><trkpt lat="43.24677" lon="12.1295436"><ele>403.0</ele><time>2026-05-02T10:37:25.744Z</time></trkpt><trkpt lat="43.2466312" lon="12.1296698"><ele>403.0</ele><time>2026-05-02T10:37:26.732Z</time></trkpt><trkpt lat="43.2465126" lon="12.1297794"><ele>403.0</ele><time>2026-05-02T10:37:27.744Z</time></trkpt><trkpt lat="43.2463974" lon="12.1298605"><ele>403.0</ele><time>2026-05-02T10:37:28.734Z</time></trkpt><trkpt lat="43.246293" lon="12.1299001"><ele>405.0</ele><time>2026-05-02T10:37:29.738Z</time></trkpt><trkpt lat="43.2462004" lon="12.1298762"><ele>407.0</ele><time>2026-05-02T10:37:30.74Z</time></trkpt><trkpt lat="43.2461288" lon="12.1297718"><ele>409.0</ele><time>2026-05-02T10:37:31.737Z</time></trkpt><trkpt lat="43.2460982" lon="12.1296333"><ele>411.0</ele><time>2026-05-02T10:37:32.732Z</time></trkpt><trkpt lat="43.2461028" lon="12.1294518"><ele>413.0</ele><time>2026-05-02T10:37:33.735Z</time></trkpt><trkpt lat="43.2461346" lon="12.129244"><ele>415.66666666666663</ele><time>2026-05-02T10:37:34.742Z</time></trkpt><trkpt lat="43.246173" lon="12.1289855"><ele>418.33333333333337</ele><time>2026-05-02T10:37:35.74Z</time></trkpt><trkpt lat="43.2461918" lon="12.128674"><ele>421.0</ele><time>2026-05-02T10:37:36.729Z</time></trkpt><trkpt lat="43.2461847" lon="12.1283432"><ele>423.6666666666667</ele><time>2026-05-02T10:37:37.732Z</time></trkpt><trkpt lat="43.2461579" lon="12.1280169"><ele>426.33333333333337</ele><time>2026-05-02T10:37:38.732Z</time></trkpt><trkpt lat="43.2461314" lon="12.1277418"><ele>429.0</ele><time>2026-05-02T10:37:39.735Z</time></trkpt><trkpt lat="43.2461277" lon="12.1275088"><ele>432.33333333333337</ele><time>2026-05-02T10:37:40.729Z</time></trkpt><trkpt lat="43.2461601" lon="12.1272846"><ele>435.6666666666667</ele><time>2026-05-02T10:37:41.738Z</time></trkpt><trkpt lat="43.246238" lon="12.1270782"><ele>439.0</ele><time>2026-05-02T10:37:42.726Z</time></trkpt><trkpt lat="43.2463274" lon="12.1268942"><ele>439.0</ele><time>2026-05-02T10:37:43.74Z</time></trkpt><trkpt lat="43.2464089" lon="12.126722"><ele>439.0</ele><time>2026-05-02T10:37:44.738Z</time></trkpt><trkpt lat="43.2464826" lon="12.126558"><ele>439.0</ele><time>2026-05-02T10:37:45.738Z</time></trkpt><trkpt lat="43.2465288" lon="12.1263706"><ele>439.0</ele><time>2026-05-02T10:37:46.733Z</time></trkpt><trkpt lat="43.2465167" lon="12.1261308"><ele>441.33333333333337</ele><time>2026-05-02T10:37:47.728Z</time></trkpt><trkpt lat="43.2464848" lon="12.1258761"><ele>443.66666666666663</ele><time>2026-05-02T10:37:48.753Z</time></trkpt><trkpt lat="43.2464365" lon="12.1256389"><ele>446.0</ele><time>2026-05-02T10:37:49.738Z</time></trkpt><trkpt lat="43.2463998" lon="12.1254407"><ele>446.0</ele><time>2026-05-02T10:37:50.745Z</time></trkpt><trkpt lat="43.2464119" lon="12.125294"><ele>446.0</ele><time>2026-05-02T10:37:51.735Z</time></trkpt><trkpt lat="43.246489" lon="12.12516"><ele>446.0</ele><time>2026-05-02T10:37:52.726Z</time></trkpt><trkpt lat="43.2465883" lon="12.1250083"><ele>446.0</ele><time>2026-05-02T10:37:53.732Z</time></trkpt><trkpt lat="43.2466995" lon="12.1248228"><ele>444.0</ele><time>2026-05-02T10:37:54.738Z</time></trkpt><trkpt lat="43.2467801" lon="12.1245703"><ele>442.0</ele><time>2026-05-02T10:37:55.737Z</time></trkpt><trkpt lat="43.2468133" lon="12.1242873"><ele>440.0</ele><time>2026-05-02T10:37:56.732Z</time></trkpt><trkpt lat="43.2468681" lon="12.1240707"><ele>441.0</ele><time>2026-05-02T10:37:57.732Z</time></trkpt><trkpt lat="43.2469384" lon="12.1239379"><ele>442.0</ele><time>2026-05-02T10:37:58.747Z</time></trkpt><trkpt lat="43.2470424" lon="12.1238577"><ele>443.0</ele><time>2026-05-02T10:37:59.745Z</time></trkpt><trkpt lat="43.2471829" lon="12.1238178"><ele>444.0</ele><time>2026-05-02T10:38:00.755Z</time></trkpt><trkpt lat="43.247334" lon="12.1237635"><ele>444.0</ele><time>2026-05-02T10:38:01.734Z</time></trkpt><trkpt lat="43.2474659" lon="12.1236732"><ele>444.0</ele><time>2026-05-02T10:38:02.75Z</time></trkpt><trkpt lat="43.2475654" lon="12.1235521"><ele>444.0</ele><time>2026-05-02T10:38:03.741Z</time></trkpt><trkpt lat="43.2476128" lon="12.1233792"><ele>444.0</ele><time>2026-05-02T10:38:04.748Z</time></trkpt><trkpt lat="43.2476318" lon="12.1231858"><ele>448.33333333333337</ele><time>2026-05-02T10:38:05.739Z</time></trkpt><trkpt lat="43.2476455" lon="12.1229648"><ele>452.6666666666667</ele><time>2026-05-02T10:38:06.748Z</time></trkpt><trkpt lat="43.2476891" lon="12.1227305"><ele>457.0</ele><time>2026-05-02T10:38:07.745Z</time></trkpt><trkpt lat="43.2477575" lon="12.1225086"><ele>459.0</ele><time>2026-05-02T10:38:08.744Z</time></trkpt><trkpt lat="43.2478003" lon="12.122269"><ele>461.0</ele><time>2026-05-02T10:38:09.744Z</time></trkpt><trkpt lat="43.2478118" lon="12.1220105"><ele>463.0</ele><time>2026-05-02T10:38:10.753Z</time></trkpt><trkpt lat="43.24783" lon="12.1217523"><ele>465.0</ele><time>2026-05-02T10:38:11.736Z</time></trkpt><trkpt lat="43.2478752" lon="12.1215236"><ele>467.0</ele><time>2026-05-02T10:38:12.766Z</time></trkpt><trkpt lat="43.2479214" lon="12.1212937"><ele>469.0</ele><time>2026-05-02T10:38:13.746Z</time></trkpt><trkpt lat="43.2479253" lon="12.1210839"><ele>469.0</ele><time>2026-05-02T10:38:14.744Z</time></trkpt><trkpt lat="43.2478601" lon="12.1208695"><ele>469.0</ele><time>2026-05-02T10:38:15.748Z</time></trkpt><trkpt lat="43.2477537" lon="12.1206427"><ele>469.0</ele><time>2026-05-02T10:38:16.738Z</time></trkpt><trkpt lat="43.2476238" lon="12.1203913"><ele>470.0</ele><time>2026-05-02T10:38:17.733Z</time></trkpt><trkpt lat="43.2474974" lon="12.1201315"><ele>471.0</ele><time>2026-05-02T10:38:18.759Z</time></trkpt><trkpt lat="43.24739" lon="12.1198794"><ele>472.0</ele><time>2026-05-02T10:38:19.737Z</time></trkpt><trkpt lat="43.2473093" lon="12.1196535"><ele>472.0</ele><time>2026-05-02T10:38:20.739Z</time></trkpt><trkpt lat="43.2472665" lon="12.1194659"><ele>472.0</ele><time>2026-05-02T10:38:21.744Z</time></trkpt><trkpt lat="43.2472611" lon="12.1192995"><ele>472.0</ele><time>2026-05-02T10:38:22.759Z</time></trkpt><trkpt lat="43.2473018" lon="12.1191674"><ele>472.0</ele><time>2026-05-02T10:38:23.75Z</time></trkpt><trkpt lat="43.2473824" lon="12.1190698"><ele>475.0</ele><time>2026-05-02T10:38:24.738Z</time></trkpt><trkpt lat="43.2474978" lon="12.119023"><ele>478.0</ele><time>2026-05-02T10:38:25.737Z</time></trkpt><trkpt lat="43.247623" lon="12.1189936"><ele>481.0</ele><time>2026-05-02T10:38:26.748Z</time></trkpt><trkpt lat="43.2477131" lon="12.118903"><ele>484.0</ele><time>2026-05-02T10:38:27.745Z</time></trkpt><trkpt lat="43.2477538" lon="12.1187532"><ele>484.0</ele><time>2026-05-02T10:38:28.743Z</time></trkpt><trkpt lat="43.2477506" lon="12.1185745"><ele>484.0</ele><time>2026-05-02T10:38:29.749Z</time></trkpt><trkpt lat="43.2477156" lon="12.1183597"><ele>484.0</ele><time>2026-05-02T10:38:30.736Z</time></trkpt><trkpt lat="43.2476738" lon="12.1181167"><ele>487.0</ele><time>2026-05-02T10:38:31.741Z</time></trkpt><trkpt lat="43.2476735" lon="12.1178651"><ele>490.0</ele><time>2026-05-02T10:38:32.734Z</time></trkpt><trkpt lat="43.2477204" lon="12.117614"><ele>493.0</ele><time>2026-05-02T10:38:33.737Z</time></trkpt><trkpt lat="43.2477934" lon="12.1174003"><ele>488.6666666666667</ele><time>2026-05-02T10:38:34.728Z</time></trkpt><trkpt lat="43.2478997" lon="12.1172297"><ele>484.33333333333337</ele><time>2026-05-02T10:38:35.729Z</time></trkpt><trkpt lat="43.248016" lon="12.1170943"><ele>480.0</ele><time>2026-05-02T10:38:36.737Z</time></trkpt><trkpt lat="43.2481334" lon="12.1169604"><ele>480.0</ele><time>2026-05-02T10:38:37.727Z</time></trkpt><trkpt lat="43.2482172" lon="12.1168004"><ele>480.0</ele><time>2026-05-02T10:38:38.74Z</time></trkpt><trkpt lat="43.2482521" lon="12.116586"><ele>480.0</ele><time>2026-05-02T10:38:39.73Z</time></trkpt><trkpt lat="43.2482698" lon="12.1163185"><ele>484.33333333333337</ele><time>2026-05-02T10:38:40.739Z</time></trkpt><trkpt lat="43.2482874" lon="12.1160451"><ele>488.6666666666667</ele><time>2026-05-02T10:38:41.747Z</time></trkpt><trkpt lat="43.2483542" lon="12.11578"><ele>493.0</ele><time>2026-05-02T10:38:42.729Z</time></trkpt><trkpt lat="43.2484551" lon="12.1155133"><ele>499.33333333333337</ele><time>2026-05-02T10:38:43.732Z</time></trkpt><trkpt lat="43.2485838" lon="12.1152715"><ele>505.66666666666663</ele><time>2026-05-02T10:38:44.741Z</time></trkpt><trkpt lat="43.2487219" lon="12.115064"><ele>512.0</ele><time>2026-05-02T10:38:45.729Z</time></trkpt><trkpt lat="43.2488515" lon="12.1148878"><ele>517.3333333333333</ele><time>2026-05-02T10:38:46.756Z</time></trkpt><trkpt lat="43.2489483" lon="12.114735"><ele>522.6666666666666</ele><time>2026-05-02T10:38:47.731Z</time></trkpt><trkpt lat="43.2490071" lon="12.114562"><ele>528.0</ele><time>2026-05-02T10:38:48.753Z</time></trkpt><trkpt lat="43.2490147" lon="12.1143308"><ele>526.0</ele><time>2026-05-02T10:38:49.736Z</time></trkpt><trkpt lat="43.248986" lon="12.1140699"><ele>524.0</ele><time>2026-05-02T10:38:50.736Z</time></trkpt><trkpt lat="43.2489483" lon="12.1137897"><ele>522.0</ele><time>2026-05-02T10:38:51.732Z</time></trkpt><trkpt lat="43.2489175" lon="12.1135269"><ele>522.0</ele><time>2026-05-02T10:38:52.738Z</time></trkpt><trkpt lat="43.2488791" lon="12.113287"><ele>522.0</ele><time>2026-05-02T10:38:53.739Z</time></trkpt><trkpt lat="43.2488036" lon="12.1130692"><ele>522.0</ele><time>2026-05-02T10:38:54.749Z</time></trkpt><trkpt lat="43.2487181" lon="12.1128598"><ele>517.6666666666666</ele><time>2026-05-02T10:38:55.727Z</time></trkpt><trkpt lat="43.2485967" lon="12.1126701"><ele>513.3333333333333</ele><time>2026-05-02T10:38:56.738Z</time></trkpt><trkpt lat="43.2484437" lon="12.1125371"><ele>509.0</ele><time>2026-05-02T10:38:57.735Z</time></trkpt><trkpt lat="43.2482907" lon="12.1124441"><ele>513.3333333333333</ele><time>2026-05-02T10:38:58.741Z</time></trkpt><trkpt lat="43.2481465" lon="12.112351"><ele>517.6666666666666</ele><time>2026-05-02T10:38:59.734Z</time></trkpt><trkpt lat="43.2480123" lon="12.11223"><ele>522.0</ele><time>2026-05-02T10:39:00.734Z</time></trkpt><trkpt lat="43.2479188" lon="12.112023"><ele>522.0</ele><time>2026-05-02T10:39:01.74Z</time></trkpt><trkpt lat="43.2478277" lon="12.1118246"><ele>522.0</ele><time>2026-05-02T10:39:02.734Z</time></trkpt><trkpt lat="43.2477255" lon="12.1116222"><ele>522.0</ele><time>2026-05-02T10:39:03.736Z</time></trkpt><trkpt lat="43.2475997" lon="12.1114236"><ele>523.3333333333334</ele><time>2026-05-02T10:39:04.732Z</time></trkpt><trkpt lat="43.247446" lon="12.1112298"><ele>524.6666666666667</ele><time>2026-05-02T10:39:05.742Z</time></trkpt><trkpt lat="43.2472913" lon="12.1110353"><ele>526.0</ele><time>2026-05-02T10:39:06.722Z</time></trkpt><trkpt lat="43.2471401" lon="12.110856"><ele>519.0</ele><time>2026-05-02T10:39:07.739Z</time></trkpt><trkpt lat="43.2469656" lon="12.1107166"><ele>512.0</ele><time>2026-05-02T10:39:08.74Z</time></trkpt><trkpt lat="43.2467771" lon="12.1106323"><ele>505.0</ele><time>2026-05-02T10:39:09.736Z</time></trkpt><trkpt lat="43.2465965" lon="12.1105555"><ele>510.6666666666667</ele><time>2026-05-02T10:39:10.74Z</time></trkpt><trkpt lat="43.2464378" lon="12.1104524"><ele>516.3333333333334</ele><time>2026-05-02T10:39:11.732Z</time></trkpt><trkpt lat="43.2463146" lon="12.1103296"><ele>522.0</ele><time>2026-05-02T10:39:12.74Z</time></trkpt><trkpt lat="43.2461873" lon="12.1102067"><ele>522.0</ele><time>2026-05-02T10:39:13.735Z</time></trkpt><trkpt lat="43.2460584" lon="12.1101103"><ele>522.0</ele><time>2026-05-02T10:39:14.74Z</time></trkpt><trkpt lat="43.245922" lon="12.1100906"><ele>522.0</ele><time>2026-05-02T10:39:15.738Z</time></trkpt><trkpt lat="43.2457772" lon="12.1101466"><ele>522.0</ele><time>2026-05-02T10:39:16.74Z</time></trkpt><trkpt lat="43.2456287" lon="12.1102398"><ele>524.0</ele><time>2026-05-02T10:39:17.742Z</time></trkpt><trkpt lat="43.245492" lon="12.1103171"><ele>526.0</ele><time>2026-05-02T10:39:18.735Z</time></trkpt><trkpt lat="43.2453874" lon="12.1103434"><ele>528.0</ele><time>2026-05-02T10:39:19.737Z</time></trkpt><trkpt lat="43.2453065" lon="12.1103134"><ele>530.0</ele><time>2026-05-02T10:39:20.744Z</time></trkpt><trkpt lat="43.2452441" lon="12.1102154"><ele>532.0</ele><time>2026-05-02T10:39:21.741Z</time></trkpt><trkpt lat="43.2451978" lon="12.1100854"><ele>532.0</ele><time>2026-05-02T10:39:22.734Z</time></trkpt><trkpt lat="43.2451357" lon="12.1099367"><ele>532.0</ele><time>2026-05-02T10:39:23.739Z</time></trkpt><trkpt lat="43.24504" lon="12.1098234"><ele>532.0</ele><time>2026-05-02T10:39:24.74Z</time></trkpt><trkpt lat="43.2449309" lon="12.1097828"><ele>532.0</ele><time>2026-05-02T10:39:25.738Z</time></trkpt><trkpt lat="43.2447911" lon="12.1098264"><ele>535.75</ele><time>2026-05-02T10:39:26.738Z</time></trkpt><trkpt lat="43.2446586" lon="12.1098715"><ele>539.5</ele><time>2026-05-02T10:39:27.735Z</time></trkpt><trkpt lat="43.2445479" lon="12.1098648"><ele>543.25</ele><time>2026-05-02T10:39:28.736Z</time></trkpt><trkpt lat="43.2444774" lon="12.1097785"><ele>547.0</ele><time>2026-05-02T10:39:29.734Z</time></trkpt><trkpt lat="43.2444461" lon="12.1096092"><ele>547.0</ele><time>2026-05-02T10:39:30.735Z</time></trkpt><trkpt lat="43.2444383" lon="12.1093887"><ele>547.0</ele><time>2026-05-02T10:39:31.729Z</time></trkpt><trkpt lat="43.24441" lon="12.1091665"><ele>547.0</ele><time>2026-05-02T10:39:32.74Z</time></trkpt><trkpt lat="43.2443473" lon="12.1089505"><ele>554.3333333333334</ele><time>2026-05-02T10:39:33.726Z</time></trkpt><trkpt lat="43.2442325" lon="12.108738"><ele>561.6666666666666</ele><time>2026-05-02T10:39:34.725Z</time></trkpt><trkpt lat="43.2440598" lon="12.108534"><ele>569.0</ele><time>2026-05-02T10:39:35.721Z</time></trkpt><trkpt lat="43.2438859" lon="12.1083353"><ele>561.3333333333333</ele><time>2026-05-02T10:39:36.718Z</time></trkpt><trkpt lat="43.2437235" lon="12.1081412"><ele>553.6666666666666</ele><time>2026-05-02T10:39:37.728Z</time></trkpt><trkpt lat="43.243576" lon="12.1079266"><ele>546.0</ele><time>2026-05-02T10:39:38.73Z</time></trkpt><trkpt lat="43.2434426" lon="12.1076949"><ele>546.0</ele><time>2026-05-02T10:39:39.733Z</time></trkpt><trkpt lat="43.2433053" lon="12.1074443"><ele>546.0</ele><time>2026-05-02T10:39:40.742Z</time></trkpt><trkpt lat="43.2431566" lon="12.1071638"><ele>556.0</ele><time>2026-05-02T10:39:41.729Z</time></trkpt><trkpt lat="43.2430104" lon="12.1068816"><ele>566.0</ele><time>2026-05-02T10:39:42.735Z</time></trkpt><trkpt lat="43.2428721" lon="12.1066"><ele>558.0</ele><time>2026-05-02T10:39:43.721Z</time></trkpt><trkpt lat="43.2427399" lon="12.1063207"><ele>550.0</ele><time>2026-05-02T10:39:44.742Z</time></trkpt><trkpt lat="43.2426243" lon="12.1060556"><ele>550.0</ele><time>2026-05-02T10:39:45.729Z</time></trkpt><trkpt lat="43.2425268" lon="12.1058058"><ele>550.0</ele><time>2026-05-02T10:39:46.735Z</time></trkpt><trkpt lat="43.2424103" lon="12.1055525"><ele>550.0</ele><time>2026-05-02T10:39:47.738Z</time></trkpt><trkpt lat="43.2422543" lon="12.1053114"><ele>550.6666666666667</ele><time>2026-05-02T10:39:48.74Z</time></trkpt><trkpt lat="43.2421033" lon="12.1051097"><ele>551.3333333333334</ele><time>2026-05-02T10:39:49.74Z</time></trkpt><trkpt lat="43.2419762" lon="12.1049533"><ele>552.0</ele><time>2026-05-02T10:39:50.741Z</time></trkpt><trkpt lat="43.2418506" lon="12.1048588"><ele>551.75</ele><time>2026-05-02T10:39:51.747Z</time></trkpt><trkpt lat="43.2417208" lon="12.1048352"><ele>551.5</ele><time>2026-05-02T10:39:52.741Z</time></trkpt><trkpt lat="43.2415818" lon="12.1048846"><ele>551.25</ele><time>2026-05-02T10:39:53.737Z</time></trkpt><trkpt lat="43.2414521" lon="12.1050205"><ele>551.0</ele><time>2026-05-02T10:39:54.75Z</time></trkpt><trkpt lat="43.2413235" lon="12.1051757"><ele>551.0</ele><time>2026-05-02T10:39:55.742Z</time></trkpt><trkpt lat="43.2411738" lon="12.105286"><ele>551.0</ele><time>2026-05-02T10:39:56.747Z</time></trkpt><trkpt lat="43.2410029" lon="12.1053155"><ele>551.0</ele><time>2026-05-02T10:39:57.738Z</time></trkpt><trkpt lat="43.2408186" lon="12.1052907"><ele>553.3333333333333</ele><time>2026-05-02T10:39:58.737Z</time></trkpt><trkpt lat="43.2406226" lon="12.1052943"><ele>555.6666666666666</ele><time>2026-05-02T10:39:59.735Z</time></trkpt><trkpt lat="43.2404261" lon="12.1053684"><ele>558.0</ele><time>2026-05-02T10:40:00.748Z</time></trkpt><trkpt lat="43.2402286" lon="12.1054601"><ele>558.0</ele><time>2026-05-02T10:40:01.736Z</time></trkpt><trkpt lat="43.2400258" lon="12.105502"><ele>558.0</ele><time>2026-05-02T10:40:02.735Z</time></trkpt><trkpt lat="43.2397907" lon="12.1054975"><ele>558.0</ele><time>2026-05-02T10:40:03.743Z</time></trkpt><trkpt lat="43.2395204" lon="12.1054637"><ele>561.5</ele><time>2026-05-02T10:40:04.731Z</time></trkpt><trkpt lat="43.2392398" lon="12.1054292"><ele>565.0</ele><time>2026-05-02T10:40:05.733Z</time></trkpt><trkpt lat="43.2389355" lon="12.105414"><ele>569.0</ele><time>2026-05-02T10:40:06.744Z</time></trkpt><trkpt lat="43.2386453" lon="12.1054253"><ele>573.0</ele><time>2026-05-02T10:40:07.738Z</time></trkpt><trkpt lat="43.2383754" lon="12.1054475"><ele>580.5</ele><time>2026-05-02T10:40:08.749Z</time></trkpt><trkpt lat="43.2381334" lon="12.1054808"><ele>588.0</ele><time>2026-05-02T10:40:09.736Z</time></trkpt><trkpt lat="43.2379144" lon="12.1055384"><ele>588.0</ele><time>2026-05-02T10:40:10.74Z</time></trkpt><trkpt lat="43.2376983" lon="12.1056432"><ele>588.0</ele><time>2026-05-02T10:40:11.727Z</time></trkpt><trkpt lat="43.2374934" lon="12.1057894"><ele>588.0</ele><time>2026-05-02T10:40:12.733Z</time></trkpt><trkpt lat="43.2372951" lon="12.1058978"><ele>588.0</ele><time>2026-05-02T10:40:13.736Z</time></trkpt><trkpt lat="43.2371109" lon="12.1059596"><ele>588.0</ele><time>2026-05-02T10:40:14.746Z</time></trkpt><trkpt lat="43.2369381" lon="12.1059998"><ele>588.0</ele><time>2026-05-02T10:40:15.737Z</time></trkpt><trkpt lat="43.2367879" lon="12.1061058"><ele>588.0</ele><time>2026-05-02T10:40:16.742Z</time></trkpt><trkpt lat="43.236662" lon="12.1062895"><ele>588.0</ele><time>2026-05-02T10:40:17.739Z</time></trkpt><trkpt lat="43.2365334" lon="12.1065315"><ele>591.5</ele><time>2026-05-02T10:40:18.739Z</time></trkpt><trkpt lat="43.2363856" lon="12.1068094"><ele>595.0</ele><time>2026-05-02T10:40:19.741Z</time></trkpt><trkpt lat="43.2362065" lon="12.1070971"><ele>595.0</ele><time>2026-05-02T10:40:20.734Z</time></trkpt><trkpt lat="43.2360095" lon="12.1074015"><ele>595.0</ele><time>2026-05-02T10:40:21.735Z</time></trkpt><trkpt lat="43.2358102" lon="12.1076934"><ele>600.0</ele><time>2026-05-02T10:40:22.741Z</time></trkpt><trkpt lat="43.235632" lon="12.1079637"><ele>605.0</ele><time>2026-05-02T10:40:23.739Z</time></trkpt><trkpt lat="43.2355018" lon="12.1082062"><ele>604.75</ele><time>2026-05-02T10:40:24.737Z</time></trkpt><trkpt lat="43.2354157" lon="12.1084102"><ele>604.5</ele><time>2026-05-02T10:40:25.73Z</time></trkpt><trkpt lat="43.2353379" lon="12.1085649"><ele>604.25</ele><time>2026-05-02T10:40:26.735Z</time></trkpt><trkpt lat="43.2352524" lon="12.108639"><ele>604.0</ele><time>2026-05-02T10:40:27.736Z</time></trkpt><trkpt lat="43.2351524" lon="12.1086319"><ele>604.0</ele><time>2026-05-02T10:40:28.737Z</time></trkpt><trkpt lat="43.2350563" lon="12.1085465"><ele>604.0</ele><time>2026-05-02T10:40:29.736Z</time></trkpt><trkpt lat="43.2350078" lon="12.1083941"><ele>604.0</ele><time>2026-05-02T10:40:30.733Z</time></trkpt><trkpt lat="43.2350175" lon="12.1082179"><ele>604.0</ele><time>2026-05-02T10:40:31.739Z</time></trkpt><trkpt lat="43.2350702" lon="12.108017"><ele>604.3333333333334</ele><time>2026-05-02T10:40:32.74Z</time></trkpt><trkpt lat="43.2351345" lon="12.1077731"><ele>604.6666666666666</ele><time>2026-05-02T10:40:33.747Z</time></trkpt><trkpt lat="43.2351855" lon="12.1075041"><ele>605.0</ele><time>2026-05-02T10:40:34.728Z</time></trkpt><trkpt lat="43.2351779" lon="12.1072548"><ele>605.0</ele><time>2026-05-02T10:40:35.733Z</time></trkpt><trkpt lat="43.2351152" lon="12.1070721"><ele>605.0</ele><time>2026-05-02T10:40:36.738Z</time></trkpt><trkpt lat="43.2350257" lon="12.1069599"><ele>605.0</ele><time>2026-05-02T10:40:37.736Z</time></trkpt><trkpt lat="43.234919" lon="12.1068911"><ele>605.0</ele><time>2026-05-02T10:40:38.736Z</time></trkpt><trkpt lat="43.2348222" lon="12.1068623"><ele>603.6666666666666</ele><time>2026-05-02T10:40:39.73Z</time></trkpt><trkpt lat="43.2347349" lon="12.106834"><ele>602.3333333333333</ele><time>2026-05-02T10:40:40.75Z</time></trkpt><trkpt lat="43.2346684" lon="12.1068112"><ele>601.0</ele><time>2026-05-02T10:40:41.749Z</time></trkpt><trkpt lat="43.2345583" lon="12.1067883"><ele>599.6666666666666</ele><time>2026-05-02T10:40:43.734Z</time></trkpt><trkpt lat="43.2344793" lon="12.1067614"><ele>598.3333333333334</ele><time>2026-05-02T10:40:45.742Z</time></trkpt><trkpt lat="43.2344555" lon="12.1066549"><ele>597.0</ele><time>2026-05-02T10:40:48.748Z</time></trkpt><trkpt lat="43.2343929" lon="12.1066093"><ele>596.4</ele><time>2026-05-02T11:41:59.721Z</time></trkpt><trkpt lat="43.2344005" lon="12.1065211"><ele>595.8000000000001</ele><time>2026-05-02T11:42:01.715Z</time></trkpt><trkpt lat="43.2344329" lon="12.1063536"><ele>595.2</ele><time>2026-05-02T11:42:03.73Z</time></trkpt><trkpt lat="43.2344484" lon="12.106249"><ele>594.6</ele><time>2026-05-02T11:42:04.732Z</time></trkpt><trkpt lat="43.234469" lon="12.1061251"><ele>594.0</ele><time>2026-05-02T11:42:05.734Z</time></trkpt><trkpt lat="43.2344945" lon="12.1059939"><ele>594.0</ele><time>2026-05-02T11:42:06.727Z</time></trkpt><trkpt lat="43.2345201" lon="12.1058615"><ele>594.0</ele><time>2026-05-02T11:42:07.72Z</time></trkpt><trkpt lat="43.2345471" lon="12.1057175"><ele>594.0</ele><time>2026-05-02T11:42:08.746Z</time></trkpt><trkpt lat="43.2345679" lon="12.1055651"><ele>594.0</ele><time>2026-05-02T11:42:09.738Z</time></trkpt><trkpt lat="43.2345718" lon="12.1054222"><ele>594.0</ele><time>2026-05-02T11:42:10.716Z</time></trkpt><trkpt lat="43.2345453" lon="12.1052948"><ele>595.8</ele><time>2026-05-02T11:42:11.725Z</time></trkpt><trkpt lat="43.2344948" lon="12.1051694"><ele>597.5999999999999</ele><time>2026-05-02T11:42:12.73Z</time></trkpt><trkpt lat="43.2344096" lon="12.1050698"><ele>599.4</ele><time>2026-05-02T11:42:13.729Z</time></trkpt><trkpt lat="43.2343036" lon="12.105004"><ele>601.1999999999999</ele><time>2026-05-02T11:42:14.725Z</time></trkpt><trkpt lat="43.2341982" lon="12.1049473"><ele>603.0</ele><time>2026-05-02T11:42:15.718Z</time></trkpt><trkpt lat="43.2340967" lon="12.1048878"><ele>601.8</ele><time>2026-05-02T11:42:16.721Z</time></trkpt><trkpt lat="43.2340009" lon="12.1048252"><ele>600.5999999999999</ele><time>2026-05-02T11:42:17.707Z</time></trkpt><trkpt lat="43.2339114" lon="12.104768"><ele>599.4000000000001</ele><time>2026-05-02T11:42:18.717Z</time></trkpt><trkpt lat="43.2338342" lon="12.1047089"><ele>598.2</ele><time>2026-05-02T11:42:19.725Z</time></trkpt><trkpt lat="43.2337697" lon="12.1046343"><ele>597.0</ele><time>2026-05-02T11:42:20.719Z</time></trkpt><trkpt lat="43.2337128" lon="12.1045478"><ele>597.0</ele><time>2026-05-02T11:42:21.73Z</time></trkpt><trkpt lat="43.2336634" lon="12.1044453"><ele>597.0</ele><time>2026-05-02T11:42:22.733Z</time></trkpt><trkpt lat="43.2336246" lon="12.1043267"><ele>597.0</ele><time>2026-05-02T11:42:23.719Z</time></trkpt><trkpt lat="43.2335941" lon="12.1041861"><ele>597.0</ele><time>2026-05-02T11:42:24.719Z</time></trkpt><trkpt lat="43.233579" lon="12.1040246"><ele>597.0</ele><time>2026-05-02T11:42:25.724Z</time></trkpt><trkpt lat="43.2335808" lon="12.1038486"><ele>597.25</ele><time>2026-05-02T11:42:26.72Z</time></trkpt><trkpt lat="43.2335855" lon="12.1036644"><ele>597.5</ele><time>2026-05-02T11:42:27.715Z</time></trkpt><trkpt lat="43.2335702" lon="12.1034725"><ele>597.75</ele><time>2026-05-02T11:42:28.716Z</time></trkpt><trkpt lat="43.2335094" lon="12.1032919"><ele>598.0</ele><time>2026-05-02T11:42:29.724Z</time></trkpt><trkpt lat="43.2334134" lon="12.1031481"><ele>599.3333333333334</ele><time>2026-05-02T11:42:30.722Z</time></trkpt><trkpt lat="43.2332795" lon="12.1030436"><ele>600.6666666666666</ele><time>2026-05-02T11:42:31.72Z</time></trkpt><trkpt lat="43.2331311" lon="12.1029673"><ele>602.0</ele><time>2026-05-02T11:42:32.718Z</time></trkpt><trkpt lat="43.2329754" lon="12.1028985"><ele>598.6666666666666</ele><time>2026-05-02T11:42:33.726Z</time></trkpt><trkpt lat="43.2328191" lon="12.1028258"><ele>595.3333333333334</ele><time>2026-05-02T11:42:34.706Z</time></trkpt><trkpt lat="43.2326757" lon="12.1027447"><ele>592.0</ele><time>2026-05-02T11:42:35.722Z</time></trkpt><trkpt lat="43.2325517" lon="12.1026452"><ele>592.0</ele><time>2026-05-02T11:42:36.712Z</time></trkpt><trkpt lat="43.2324516" lon="12.1025212"><ele>592.0</ele><time>2026-05-02T11:42:37.723Z</time></trkpt><trkpt lat="43.2323834" lon="12.102373"><ele>592.0</ele><time>2026-05-02T11:42:38.727Z</time></trkpt><trkpt lat="43.2323425" lon="12.1022041"><ele>592.0</ele><time>2026-05-02T11:42:39.726Z</time></trkpt><trkpt lat="43.2323267" lon="12.1020204"><ele>591.75</ele><time>2026-05-02T11:42:40.72Z</time></trkpt><trkpt lat="43.2323334" lon="12.1018252"><ele>591.5</ele><time>2026-05-02T11:42:41.715Z</time></trkpt><trkpt lat="43.2323302" lon="12.1016244"><ele>591.25</ele><time>2026-05-02T11:42:42.729Z</time></trkpt><trkpt lat="43.2322974" lon="12.101425"><ele>591.0</ele><time>2026-05-02T11:42:43.724Z</time></trkpt><trkpt lat="43.232231" lon="12.1012347"><ele>585.6666666666666</ele><time>2026-05-02T11:42:44.719Z</time></trkpt><trkpt lat="43.2321293" lon="12.1010667"><ele>580.3333333333333</ele><time>2026-05-02T11:42:45.718Z</time></trkpt><trkpt lat="43.2320029" lon="12.1009217"><ele>575.0</ele><time>2026-05-02T11:42:46.711Z</time></trkpt><trkpt lat="43.231862" lon="12.1007949"><ele>577.0</ele><time>2026-05-02T11:42:47.719Z</time></trkpt><trkpt lat="43.2317103" lon="12.1006812"><ele>579.0</ele><time>2026-05-02T11:42:48.715Z</time></trkpt><trkpt lat="43.2315678" lon="12.1005639"><ele>581.0</ele><time>2026-05-02T11:42:49.718Z</time></trkpt><trkpt lat="43.2314427" lon="12.1004538"><ele>577.5</ele><time>2026-05-02T11:42:50.706Z</time></trkpt><trkpt lat="43.2313308" lon="12.1003468"><ele>574.0</ele><time>2026-05-02T11:42:51.73Z</time></trkpt><trkpt lat="43.2312397" lon="12.1002313"><ele>570.5</ele><time>2026-05-02T11:42:52.702Z</time></trkpt><trkpt lat="43.2311813" lon="12.1000992"><ele>567.0</ele><time>2026-05-02T11:42:53.729Z</time></trkpt><trkpt lat="43.2311664" lon="12.0999532"><ele>567.25</ele><time>2026-05-02T11:42:54.717Z</time></trkpt><trkpt lat="43.2311973" lon="12.0997953"><ele>567.5</ele><time>2026-05-02T11:42:55.716Z</time></trkpt><trkpt lat="43.2312671" lon="12.0996525"><ele>567.75</ele><time>2026-05-02T11:42:56.696Z</time></trkpt><trkpt lat="43.2313658" lon="12.0995454"><ele>568.0</ele><time>2026-05-02T11:42:57.713Z</time></trkpt><trkpt lat="43.2314817" lon="12.0994618"><ele>569.4</ele><time>2026-05-02T11:42:58.701Z</time></trkpt><trkpt lat="43.2315976" lon="12.0993874"><ele>570.8</ele><time>2026-05-02T11:42:59.709Z</time></trkpt><trkpt lat="43.2316975" lon="12.099302"><ele>572.2</ele><time>2026-05-02T11:43:00.713Z</time></trkpt><trkpt lat="43.2317597" lon="12.0991929"><ele>573.6</ele><time>2026-05-02T11:43:01.703Z</time></trkpt><trkpt lat="43.2317803" lon="12.099056"><ele>575.0</ele><time>2026-05-02T11:43:02.703Z</time></trkpt><trkpt lat="43.2317606" lon="12.0989242"><ele>574.0</ele><time>2026-05-02T11:43:03.708Z</time></trkpt><trkpt lat="43.2316781" lon="12.0987984"><ele>573.0</ele><time>2026-05-02T11:43:04.711Z</time></trkpt><trkpt lat="43.2315551" lon="12.0987004"><ele>572.0</ele><time>2026-05-02T11:43:05.702Z</time></trkpt><trkpt lat="43.231405" lon="12.098673"><ele>571.0</ele><time>2026-05-02T11:43:06.714Z</time></trkpt><trkpt lat="43.2312518" lon="12.0986745"><ele>571.0</ele><time>2026-05-02T11:43:07.71Z</time></trkpt><trkpt lat="43.2311111" lon="12.0986726"><ele>571.0</ele><time>2026-05-02T11:43:08.722Z</time></trkpt><trkpt lat="43.2309871" lon="12.0986508"><ele>571.0</ele><time>2026-05-02T11:43:09.737Z</time></trkpt><trkpt lat="43.2308687" lon="12.0985861"><ele>571.0</ele><time>2026-05-02T11:43:10.741Z</time></trkpt><trkpt lat="43.2307688" lon="12.0984582"><ele>571.0</ele><time>2026-05-02T11:43:11.712Z</time></trkpt><trkpt lat="43.2307139" lon="12.0982805"><ele>571.0</ele><time>2026-05-02T11:43:12.717Z</time></trkpt><trkpt lat="43.2307071" lon="12.0980799"><ele>571.0</ele><time>2026-05-02T11:43:13.711Z</time></trkpt><trkpt lat="43.230731" lon="12.0978602"><ele>571.0</ele><time>2026-05-02T11:43:14.728Z</time></trkpt><trkpt lat="43.2307637" lon="12.0976182"><ele>572.25</ele><time>2026-05-02T11:43:15.711Z</time></trkpt><trkpt lat="43.230796" lon="12.0973952"><ele>573.5</ele><time>2026-05-02T11:43:16.714Z</time></trkpt><trkpt lat="43.2308216" lon="12.0971999"><ele>574.75</ele><time>2026-05-02T11:43:17.72Z</time></trkpt><trkpt lat="43.2308371" lon="12.0970285"><ele>576.0</ele><time>2026-05-02T11:43:18.719Z</time></trkpt><trkpt lat="43.2308081" lon="12.0968689"><ele>576.0</ele><time>2026-05-02T11:43:19.719Z</time></trkpt><trkpt lat="43.2307439" lon="12.0967314"><ele>576.0</ele><time>2026-05-02T11:43:20.711Z</time></trkpt><trkpt lat="43.2306299" lon="12.0966294"><ele>576.0</ele><time>2026-05-02T11:43:21.713Z</time></trkpt><trkpt lat="43.2304755" lon="12.0965731"><ele>576.0</ele><time>2026-05-02T11:43:22.721Z</time></trkpt><trkpt lat="43.2303089" lon="12.0965774"><ele>575.6666666666666</ele><time>2026-05-02T11:43:23.717Z</time></trkpt><trkpt lat="43.230134" lon="12.0965893"><ele>575.3333333333333</ele><time>2026-05-02T11:43:24.731Z</time></trkpt><trkpt lat="43.229962" lon="12.0965827"><ele>575.0</ele><time>2026-05-02T11:43:25.726Z</time></trkpt><trkpt lat="43.2297932" lon="12.0965624"><ele>575.0</ele><time>2026-05-02T11:43:26.714Z</time></trkpt><trkpt lat="43.2296246" lon="12.0965259"><ele>575.0</ele><time>2026-05-02T11:43:27.707Z</time></trkpt><trkpt lat="43.2294587" lon="12.096473"><ele>575.0</ele><time>2026-05-02T11:43:28.713Z</time></trkpt><trkpt lat="43.229295" lon="12.0963851"><ele>575.0</ele><time>2026-05-02T11:43:29.726Z</time></trkpt><trkpt lat="43.229133" lon="12.0962807"><ele>575.0</ele><time>2026-05-02T11:43:30.689Z</time></trkpt><trkpt lat="43.2289631" lon="12.0961815"><ele>575.0</ele><time>2026-05-02T11:43:31.706Z</time></trkpt><trkpt lat="43.2287848" lon="12.0960908"><ele>571.3333333333333</ele><time>2026-05-02T11:43:32.713Z</time></trkpt><trkpt lat="43.2286045" lon="12.0960344"><ele>567.6666666666666</ele><time>2026-05-02T11:43:33.715Z</time></trkpt><trkpt lat="43.2284199" lon="12.0959902"><ele>564.0</ele><time>2026-05-02T11:43:34.717Z</time></trkpt><trkpt lat="43.2282287" lon="12.0959592"><ele>560.3333333333334</ele><time>2026-05-02T11:43:35.707Z</time></trkpt><trkpt lat="43.2280379" lon="12.0959354"><ele>556.6666666666667</ele><time>2026-05-02T11:43:36.699Z</time></trkpt><trkpt lat="43.2278406" lon="12.0959334"><ele>553.0</ele><time>2026-05-02T11:43:37.707Z</time></trkpt><trkpt lat="43.2276398" lon="12.0959481"><ele>553.0</ele><time>2026-05-02T11:43:38.71Z</time></trkpt><trkpt lat="43.2274429" lon="12.0959936"><ele>553.0</ele><time>2026-05-02T11:43:39.718Z</time></trkpt><trkpt lat="43.2272621" lon="12.0960458"><ele>553.0</ele><time>2026-05-02T11:43:40.725Z</time></trkpt><trkpt lat="43.2270828" lon="12.0961048"><ele>551.3333333333334</ele><time>2026-05-02T11:43:41.716Z</time></trkpt><trkpt lat="43.2269271" lon="12.0961419"><ele>549.6666666666666</ele><time>2026-05-02T11:43:42.719Z</time></trkpt><trkpt lat="43.2267765" lon="12.096183"><ele>548.0</ele><time>2026-05-02T11:43:43.713Z</time></trkpt><trkpt lat="43.2266332" lon="12.0962023"><ele>548.0</ele><time>2026-05-02T11:43:44.715Z</time></trkpt><trkpt lat="43.2264894" lon="12.0962037"><ele>548.0</ele><time>2026-05-02T11:43:45.709Z</time></trkpt><trkpt lat="43.2263358" lon="12.0961746"><ele>548.0</ele><time>2026-05-02T11:43:46.714Z</time></trkpt><trkpt lat="43.2261867" lon="12.0961079"><ele>546.0</ele><time>2026-05-02T11:43:47.711Z</time></trkpt><trkpt lat="43.2260279" lon="12.0960201"><ele>544.0</ele><time>2026-05-02T11:43:48.719Z</time></trkpt><trkpt lat="43.225862" lon="12.0959243"><ele>542.0</ele><time>2026-05-02T11:43:49.716Z</time></trkpt><trkpt lat="43.2256823" lon="12.0958269"><ele>541.6666666666666</ele><time>2026-05-02T11:43:50.717Z</time></trkpt><trkpt lat="43.2255005" lon="12.0957394"><ele>541.3333333333334</ele><time>2026-05-02T11:43:51.72Z</time></trkpt><trkpt lat="43.2253246" lon="12.0956478"><ele>541.0</ele><time>2026-05-02T11:43:52.707Z</time></trkpt><trkpt lat="43.2251495" lon="12.0955471"><ele>541.0</ele><time>2026-05-02T11:43:53.726Z</time></trkpt><trkpt lat="43.2249771" lon="12.0954422"><ele>541.0</ele><time>2026-05-02T11:43:54.721Z</time></trkpt><trkpt lat="43.2248116" lon="12.0953278"><ele>541.0</ele><time>2026-05-02T11:43:55.71Z</time></trkpt><trkpt lat="43.2246615" lon="12.0952087"><ele>536.0</ele><time>2026-05-02T11:43:56.724Z</time></trkpt><trkpt lat="43.2245347" lon="12.0950822"><ele>531.0</ele><time>2026-05-02T11:43:57.725Z</time></trkpt><trkpt lat="43.2244285" lon="12.0949371"><ele>526.0</ele><time>2026-05-02T11:43:58.707Z</time></trkpt><trkpt lat="43.2243351" lon="12.0947781"><ele>526.0</ele><time>2026-05-02T11:43:59.723Z</time></trkpt><trkpt lat="43.2242623" lon="12.0945842"><ele>526.0</ele><time>2026-05-02T11:44:00.725Z</time></trkpt><trkpt lat="43.2242004" lon="12.0943659"><ele>526.0</ele><time>2026-05-02T11:44:01.721Z</time></trkpt><trkpt lat="43.2241343" lon="12.094132"><ele>526.6666666666667</ele><time>2026-05-02T11:44:02.723Z</time></trkpt><trkpt lat="43.2240592" lon="12.0938949"><ele>527.3333333333334</ele><time>2026-05-02T11:44:03.719Z</time></trkpt><trkpt lat="43.2239839" lon="12.0936637"><ele>528.0</ele><time>2026-05-02T11:44:04.725Z</time></trkpt><trkpt lat="43.2239045" lon="12.0934412"><ele>523.6666666666666</ele><time>2026-05-02T11:44:05.726Z</time></trkpt><trkpt lat="43.2238264" lon="12.0932226"><ele>519.3333333333333</ele><time>2026-05-02T11:44:06.72Z</time></trkpt><trkpt lat="43.2237427" lon="12.0930028"><ele>515.0</ele><time>2026-05-02T11:44:07.713Z</time></trkpt><trkpt lat="43.2236676" lon="12.0927922"><ele>515.0</ele><time>2026-05-02T11:44:08.721Z</time></trkpt><trkpt lat="43.2235988" lon="12.0925787"><ele>515.0</ele><time>2026-05-02T11:44:09.724Z</time></trkpt><trkpt lat="43.2235389" lon="12.0923685"><ele>515.0</ele><time>2026-05-02T11:44:10.718Z</time></trkpt><trkpt lat="43.2234997" lon="12.0921456"><ele>514.0</ele><time>2026-05-02T11:44:11.722Z</time></trkpt><trkpt lat="43.223493" lon="12.091919"><ele>513.0</ele><time>2026-05-02T11:44:12.714Z</time></trkpt><trkpt lat="43.2235277" lon="12.0916931"><ele>512.0</ele><time>2026-05-02T11:44:13.722Z</time></trkpt><trkpt lat="43.2235996" lon="12.0914967"><ele>509.0</ele><time>2026-05-02T11:44:14.713Z</time></trkpt><trkpt lat="43.2237023" lon="12.0913177"><ele>506.0</ele><time>2026-05-02T11:44:15.728Z</time></trkpt><trkpt lat="43.2238271" lon="12.0911732"><ele>503.0</ele><time>2026-05-02T11:44:16.713Z</time></trkpt><trkpt lat="43.2239605" lon="12.0910549"><ele>505.75</ele><time>2026-05-02T11:44:17.711Z</time></trkpt><trkpt lat="43.2241001" lon="12.0909704"><ele>508.5</ele><time>2026-05-02T11:44:18.719Z</time></trkpt><trkpt lat="43.2242379" lon="12.0909185"><ele>511.25</ele><time>2026-05-02T11:44:19.71Z</time></trkpt><trkpt lat="43.2243648" lon="12.0908509"><ele>514.0</ele><time>2026-05-02T11:44:20.719Z</time></trkpt><trkpt lat="43.2244601" lon="12.0907659"><ele>512.0</ele><time>2026-05-02T11:44:21.722Z</time></trkpt><trkpt lat="43.2244917" lon="12.0906405"><ele>510.0</ele><time>2026-05-02T11:44:22.709Z</time></trkpt><trkpt lat="43.22447" lon="12.0904943"><ele>508.0</ele><time>2026-05-02T11:44:23.709Z</time></trkpt><trkpt lat="43.2244006" lon="12.0903534"><ele>506.0</ele><time>2026-05-02T11:44:24.713Z</time></trkpt><trkpt lat="43.2242846" lon="12.0902217"><ele>506.0</ele><time>2026-05-02T11:44:25.711Z</time></trkpt><trkpt lat="43.2241575" lon="12.090115"><ele>506.0</ele><time>2026-05-02T11:44:26.719Z</time></trkpt><trkpt lat="43.2240502" lon="12.0899857"><ele>506.0</ele><time>2026-05-02T11:44:27.689Z</time></trkpt><trkpt lat="43.2239839" lon="12.089836"><ele>506.0</ele><time>2026-05-02T11:44:28.717Z</time></trkpt><trkpt lat="43.2239623" lon="12.0896739"><ele>503.5</ele><time>2026-05-02T11:44:29.705Z</time></trkpt><trkpt lat="43.2239947" lon="12.0895246"><ele>501.0</ele><time>2026-05-02T11:44:30.711Z</time></trkpt><trkpt lat="43.2240767" lon="12.0893925"><ele>498.5</ele><time>2026-05-02T11:44:31.717Z</time></trkpt><trkpt lat="43.2241903" lon="12.0892904"><ele>496.0</ele><time>2026-05-02T11:44:32.713Z</time></trkpt><trkpt lat="43.2243023" lon="12.0891837"><ele>495.5</ele><time>2026-05-02T11:44:33.704Z</time></trkpt><trkpt lat="43.2243899" lon="12.0890426"><ele>495.0</ele><time>2026-05-02T11:44:34.71Z</time></trkpt><trkpt lat="43.2244154" lon="12.0888755"><ele>494.5</ele><time>2026-05-02T11:44:35.708Z</time></trkpt><trkpt lat="43.2243787" lon="12.0887064"><ele>494.0</ele><time>2026-05-02T11:44:36.705Z</time></trkpt><trkpt lat="43.224293" lon="12.088518"><ele>494.0</ele><time>2026-05-02T11:44:37.722Z</time></trkpt><trkpt lat="43.2241806" lon="12.0883504"><ele>494.0</ele><time>2026-05-02T11:44:38.705Z</time></trkpt><trkpt lat="43.2240624" lon="12.0881759"><ele>494.0</ele><time>2026-05-02T11:44:39.707Z</time></trkpt><trkpt lat="43.2239464" lon="12.0879933"><ele>488.66666666666663</ele><time>2026-05-02T11:44:40.718Z</time></trkpt><trkpt lat="43.2238287" lon="12.0878121"><ele>483.33333333333337</ele><time>2026-05-02T11:44:41.717Z</time></trkpt><trkpt lat="43.2237022" lon="12.0876325"><ele>478.0</ele><time>2026-05-02T11:44:42.718Z</time></trkpt><trkpt lat="43.2235715" lon="12.0874681"><ele>482.0</ele><time>2026-05-02T11:44:43.716Z</time></trkpt><trkpt lat="43.2234548" lon="12.0872975"><ele>486.0</ele><time>2026-05-02T11:44:44.709Z</time></trkpt><trkpt lat="43.2233559" lon="12.0871186"><ele>490.0</ele><time>2026-05-02T11:44:45.711Z</time></trkpt><trkpt lat="43.2232752" lon="12.0869272"><ele>490.0</ele><time>2026-05-02T11:44:46.721Z</time></trkpt><trkpt lat="43.2232036" lon="12.0867443"><ele>490.0</ele><time>2026-05-02T11:44:47.715Z</time></trkpt><trkpt lat="43.2231169" lon="12.0865839"><ele>490.0</ele><time>2026-05-02T11:44:48.724Z</time></trkpt><trkpt lat="43.2230032" lon="12.0864527"><ele>490.0</ele><time>2026-05-02T11:44:49.714Z</time></trkpt><trkpt lat="43.2228598" lon="12.0863626"><ele>488.6666666666667</ele><time>2026-05-02T11:44:50.703Z</time></trkpt><trkpt lat="43.2226992" lon="12.0862954"><ele>487.33333333333337</ele><time>2026-05-02T11:44:51.719Z</time></trkpt><trkpt lat="43.222534" lon="12.0862214"><ele>486.0</ele><time>2026-05-02T11:44:52.718Z</time></trkpt><trkpt lat="43.2223679" lon="12.086137"><ele>478.66666666666663</ele><time>2026-05-02T11:44:53.713Z</time></trkpt><trkpt lat="43.2222012" lon="12.0860342"><ele>471.3333333333333</ele><time>2026-05-02T11:44:54.711Z</time></trkpt><trkpt lat="43.2220381" lon="12.0859199"><ele>464.0</ele><time>2026-05-02T11:44:55.712Z</time></trkpt><trkpt lat="43.2218769" lon="12.0858079"><ele>464.3333333333333</ele><time>2026-05-02T11:44:56.72Z</time></trkpt><trkpt lat="43.2217105" lon="12.0857127"><ele>464.66666666666663</ele><time>2026-05-02T11:44:57.707Z</time></trkpt><trkpt lat="43.2215386" lon="12.0856373"><ele>465.0</ele><time>2026-05-02T11:44:58.717Z</time></trkpt><trkpt lat="43.2213645" lon="12.0855753"><ele>465.0</ele><time>2026-05-02T11:44:59.716Z</time></trkpt><trkpt lat="43.2211996" lon="12.0855052"><ele>465.0</ele><time>2026-05-02T11:45:00.723Z</time></trkpt><trkpt lat="43.2210422" lon="12.0854037"><ele>465.0</ele><time>2026-05-02T11:45:01.726Z</time></trkpt><trkpt lat="43.2208925" lon="12.0852724"><ele>465.0</ele><time>2026-05-02T11:45:02.717Z</time></trkpt><trkpt lat="43.2207478" lon="12.0851194"><ele>465.0</ele><time>2026-05-02T11:45:03.717Z</time></trkpt><trkpt lat="43.2206092" lon="12.0849393"><ele>465.0</ele><time>2026-05-02T11:45:04.711Z</time></trkpt><trkpt lat="43.220477" lon="12.08475"><ele>461.33333333333337</ele><time>2026-05-02T11:45:05.722Z</time></trkpt><trkpt lat="43.2203547" lon="12.0845584"><ele>457.6666666666667</ele><time>2026-05-02T11:45:06.719Z</time></trkpt><trkpt lat="43.2202457" lon="12.0843803"><ele>454.0</ele><time>2026-05-02T11:45:07.72Z</time></trkpt><trkpt lat="43.2201487" lon="12.0842112"><ele>454.33333333333337</ele><time>2026-05-02T11:45:08.719Z</time></trkpt><trkpt lat="43.2200629" lon="12.0840383"><ele>454.66666666666663</ele><time>2026-05-02T11:45:09.717Z</time></trkpt><trkpt lat="43.2199817" lon="12.0838567"><ele>455.0</ele><time>2026-05-02T11:45:10.728Z</time></trkpt><trkpt lat="43.2199084" lon="12.0836661"><ele>455.0</ele><time>2026-05-02T11:45:11.717Z</time></trkpt><trkpt lat="43.2198357" lon="12.0834717"><ele>455.0</ele><time>2026-05-02T11:45:12.718Z</time></trkpt><trkpt lat="43.219759" lon="12.0832758"><ele>455.0</ele><time>2026-05-02T11:45:13.721Z</time></trkpt><trkpt lat="43.219683" lon="12.0830769"><ele>451.0</ele><time>2026-05-02T11:45:14.718Z</time></trkpt><trkpt lat="43.2196089" lon="12.0828797"><ele>447.0</ele><time>2026-05-02T11:45:15.728Z</time></trkpt><trkpt lat="43.2195518" lon="12.0827005"><ele>443.0</ele><time>2026-05-02T11:45:16.716Z</time></trkpt><trkpt lat="43.2195174" lon="12.0825355"><ele>439.0</ele><time>2026-05-02T11:45:17.723Z</time></trkpt><trkpt lat="43.2195213" lon="12.0823828"><ele>439.75</ele><time>2026-05-02T11:45:18.715Z</time></trkpt><trkpt lat="43.2195698" lon="12.0822478"><ele>440.5</ele><time>2026-05-02T11:45:19.719Z</time></trkpt><trkpt lat="43.2196599" lon="12.0821295"><ele>441.25</ele><time>2026-05-02T11:45:20.715Z</time></trkpt><trkpt lat="43.2197788" lon="12.0820236"><ele>442.0</ele><time>2026-05-02T11:45:21.719Z</time></trkpt><trkpt lat="43.219899" lon="12.0819245"><ele>442.0</ele><time>2026-05-02T11:45:22.729Z</time></trkpt><trkpt lat="43.2200094" lon="12.0818202"><ele>442.0</ele><time>2026-05-02T11:45:23.715Z</time></trkpt><trkpt lat="43.2201129" lon="12.0817129"><ele>442.0</ele><time>2026-05-02T11:45:24.709Z</time></trkpt><trkpt lat="43.2201943" lon="12.0815895"><ele>442.0</ele><time>2026-05-02T11:45:25.715Z</time></trkpt><trkpt lat="43.2202413" lon="12.0814292"><ele>440.0</ele><time>2026-05-02T11:45:26.716Z</time></trkpt><trkpt lat="43.2202382" lon="12.0812462"><ele>438.0</ele><time>2026-05-02T11:45:27.72Z</time></trkpt><trkpt lat="43.2201886" lon="12.081047"><ele>436.0</ele><time>2026-05-02T11:45:28.708Z</time></trkpt><trkpt lat="43.2201298" lon="12.0808537"><ele>434.0</ele><time>2026-05-02T11:45:29.708Z</time></trkpt><trkpt lat="43.2200818" lon="12.0806511"><ele>431.75</ele><time>2026-05-02T11:45:30.741Z</time></trkpt><trkpt lat="43.2200519" lon="12.080472"><ele>429.5</ele><time>2026-05-02T11:45:31.724Z</time></trkpt><trkpt lat="43.2200681" lon="12.0803306"><ele>427.25</ele><time>2026-05-02T11:45:32.719Z</time></trkpt><trkpt lat="43.2201248" lon="12.0801955"><ele>425.0</ele><time>2026-05-02T11:45:33.718Z</time></trkpt><trkpt lat="43.2202195" lon="12.0800809"><ele>425.0</ele><time>2026-05-02T11:45:34.709Z</time></trkpt><trkpt lat="43.2203371" lon="12.0799807"><ele>425.0</ele><time>2026-05-02T11:45:35.727Z</time></trkpt><trkpt lat="43.2204488" lon="12.0798793"><ele>425.0</ele><time>2026-05-02T11:45:36.724Z</time></trkpt><trkpt lat="43.2205629" lon="12.0797622"><ele>425.0</ele><time>2026-05-02T11:45:37.718Z</time></trkpt><trkpt lat="43.2206688" lon="12.0796228"><ele>425.25</ele><time>2026-05-02T11:45:38.719Z</time></trkpt><trkpt lat="43.2207663" lon="12.0794623"><ele>425.5</ele><time>2026-05-02T11:45:39.718Z</time></trkpt><trkpt lat="43.2208634" lon="12.0792986"><ele>425.75</ele><time>2026-05-02T11:45:40.716Z</time></trkpt><trkpt lat="43.220951" lon="12.0791523"><ele>426.0</ele><time>2026-05-02T11:45:41.724Z</time></trkpt><trkpt lat="43.2210339" lon="12.0790183"><ele>422.5</ele><time>2026-05-02T11:45:42.715Z</time></trkpt><trkpt lat="43.2210869" lon="12.0788689"><ele>419.0</ele><time>2026-05-02T11:45:43.719Z</time></trkpt><trkpt lat="43.2211006" lon="12.0786934"><ele>415.5</ele><time>2026-05-02T11:45:44.712Z</time></trkpt><trkpt lat="43.221087" lon="12.0785142"><ele>412.0</ele><time>2026-05-02T11:45:45.717Z</time></trkpt><trkpt lat="43.2210755" lon="12.0783509"><ele>410.0</ele><time>2026-05-02T11:45:46.713Z</time></trkpt><trkpt lat="43.2211067" lon="12.0782266"><ele>408.0</ele><time>2026-05-02T11:45:47.713Z</time></trkpt><trkpt lat="43.2211802" lon="12.0781374"><ele>406.0</ele><time>2026-05-02T11:45:48.712Z</time></trkpt><trkpt lat="43.2212837" lon="12.078089"><ele>404.0</ele><time>2026-05-02T11:45:49.714Z</time></trkpt><trkpt lat="43.2213954" lon="12.0780376"><ele>402.0</ele><time>2026-05-02T11:45:50.719Z</time></trkpt><trkpt lat="43.2214901" lon="12.0779656"><ele>407.0</ele><time>2026-05-02T11:45:51.715Z</time></trkpt><trkpt lat="43.2215656" lon="12.0778618"><ele>412.0</ele><time>2026-05-02T11:45:52.717Z</time></trkpt><trkpt lat="43.2215852" lon="12.0776914"><ele>417.0</ele><time>2026-05-02T11:45:53.714Z</time></trkpt><trkpt lat="43.2215539" lon="12.0774938"><ele>422.0</ele><time>2026-05-02T11:45:54.708Z</time></trkpt><trkpt lat="43.2215196" lon="12.0773151"><ele>419.5</ele><time>2026-05-02T11:45:55.719Z</time></trkpt><trkpt lat="43.2214423" lon="12.077153"><ele>417.0</ele><time>2026-05-02T11:45:56.709Z</time></trkpt><trkpt lat="43.2213358" lon="12.0770355"><ele>414.5</ele><time>2026-05-02T11:45:57.717Z</time></trkpt><trkpt lat="43.2212072" lon="12.0769493"><ele>412.0</ele><time>2026-05-02T11:45:58.712Z</time></trkpt><trkpt lat="43.2210607" lon="12.0768903"><ele>412.0</ele><time>2026-05-02T11:45:59.709Z</time></trkpt><trkpt lat="43.2209042" lon="12.0768473"><ele>412.0</ele><time>2026-05-02T11:46:00.716Z</time></trkpt><trkpt lat="43.2207396" lon="12.0768295"><ele>412.0</ele><time>2026-05-02T11:46:01.708Z</time></trkpt><trkpt lat="43.2205772" lon="12.0768331"><ele>407.75</ele><time>2026-05-02T11:46:02.712Z</time></trkpt><trkpt lat="43.2204212" lon="12.0768316"><ele>403.5</ele><time>2026-05-02T11:46:03.719Z</time></trkpt><trkpt lat="43.2202783" lon="12.0768311"><ele>399.25</ele><time>2026-05-02T11:46:04.713Z</time></trkpt><trkpt lat="43.2201571" lon="12.0768216"><ele>395.0</ele><time>2026-05-02T11:46:05.714Z</time></trkpt><trkpt lat="43.2200516" lon="12.0767915"><ele>395.0</ele><time>2026-05-02T11:46:06.71Z</time></trkpt><trkpt lat="43.2199664" lon="12.076707"><ele>395.0</ele><time>2026-05-02T11:46:07.719Z</time></trkpt><trkpt lat="43.2199239" lon="12.0765618"><ele>395.0</ele><time>2026-05-02T11:46:08.705Z</time></trkpt><trkpt lat="43.2199041" lon="12.0763867"><ele>395.0</ele><time>2026-05-02T11:46:09.717Z</time></trkpt><trkpt lat="43.2198878" lon="12.0761946"><ele>395.5</ele><time>2026-05-02T11:46:10.721Z</time></trkpt><trkpt lat="43.2198522" lon="12.0760158"><ele>396.0</ele><time>2026-05-02T11:46:11.711Z</time></trkpt><trkpt lat="43.2197507" lon="12.07587"><ele>396.5</ele><time>2026-05-02T11:46:12.722Z</time></trkpt><trkpt lat="43.2196196" lon="12.0757502"><ele>397.0</ele><time>2026-05-02T11:46:13.723Z</time></trkpt><trkpt lat="43.2194805" lon="12.0756481"><ele>397.0</ele><time>2026-05-02T11:46:14.706Z</time></trkpt><trkpt lat="43.2193424" lon="12.0755288"><ele>397.0</ele><time>2026-05-02T11:46:15.714Z</time></trkpt><trkpt lat="43.2192067" lon="12.0754191"><ele>397.0</ele><time>2026-05-02T11:46:16.723Z</time></trkpt><trkpt lat="43.2190758" lon="12.0753079"><ele>393.6666666666667</ele><time>2026-05-02T11:46:17.722Z</time></trkpt><trkpt lat="43.2189403" lon="12.075182"><ele>390.33333333333337</ele><time>2026-05-02T11:46:18.713Z</time></trkpt><trkpt lat="43.2188011" lon="12.0750501"><ele>387.0</ele><time>2026-05-02T11:46:19.717Z</time></trkpt><trkpt lat="43.2186596" lon="12.0749203"><ele>387.0</ele><time>2026-05-02T11:46:20.711Z</time></trkpt><trkpt lat="43.2185205" lon="12.0747835"><ele>387.0</ele><time>2026-05-02T11:46:21.717Z</time></trkpt><trkpt lat="43.2183791" lon="12.0746494"><ele>387.0</ele><time>2026-05-02T11:46:22.714Z</time></trkpt><trkpt lat="43.2182394" lon="12.0745069"><ele>384.0</ele><time>2026-05-02T11:46:23.721Z</time></trkpt><trkpt lat="43.2181064" lon="12.0743475"><ele>381.0</ele><time>2026-05-02T11:46:24.713Z</time></trkpt><trkpt lat="43.2179816" lon="12.0741875"><ele>378.0</ele><time>2026-05-02T11:46:25.714Z</time></trkpt><trkpt lat="43.217863" lon="12.0740191"><ele>378.0</ele><time>2026-05-02T11:46:26.707Z</time></trkpt><trkpt lat="43.2177468" lon="12.0738542"><ele>378.0</ele><time>2026-05-02T11:46:27.707Z</time></trkpt><trkpt lat="43.217621" lon="12.0737095"><ele>378.0</ele><time>2026-05-02T11:46:28.714Z</time></trkpt><trkpt lat="43.2174751" lon="12.0735928"><ele>372.3333333333333</ele><time>2026-05-02T11:46:29.72Z</time></trkpt><trkpt lat="43.2173125" lon="12.0735045"><ele>366.66666666666663</ele><time>2026-05-02T11:46:30.719Z</time></trkpt><trkpt lat="43.2171448" lon="12.0734176"><ele>361.0</ele><time>2026-05-02T11:46:31.716Z</time></trkpt><trkpt lat="43.2169716" lon="12.0733367"><ele>361.0</ele><time>2026-05-02T11:46:32.717Z</time></trkpt><trkpt lat="43.2167983" lon="12.0732753"><ele>361.0</ele><time>2026-05-02T11:46:33.71Z</time></trkpt><trkpt lat="43.2166247" lon="12.0732426"><ele>361.0</ele><time>2026-05-02T11:46:34.719Z</time></trkpt><trkpt lat="43.2164455" lon="12.0732419"><ele>359.66666666666663</ele><time>2026-05-02T11:46:35.72Z</time></trkpt><trkpt lat="43.2162674" lon="12.0732732"><ele>358.3333333333333</ele><time>2026-05-02T11:46:36.719Z</time></trkpt><trkpt lat="43.2160951" lon="12.0733363"><ele>357.0</ele><time>2026-05-02T11:46:37.716Z</time></trkpt><trkpt lat="43.2159283" lon="12.0734225"><ele>357.0</ele><time>2026-05-02T11:46:38.713Z</time></trkpt><trkpt lat="43.2157572" lon="12.0735007"><ele>357.0</ele><time>2026-05-02T11:46:39.716Z</time></trkpt><trkpt lat="43.215583" lon="12.0735704"><ele>357.0</ele><time>2026-05-02T11:46:40.721Z</time></trkpt><trkpt lat="43.2154013" lon="12.0736215"><ele>357.0</ele><time>2026-05-02T11:46:41.714Z</time></trkpt><trkpt lat="43.215219" lon="12.0736494"><ele>357.0</ele><time>2026-05-02T11:46:42.72Z</time></trkpt><trkpt lat="43.2150365" lon="12.0736775"><ele>357.0</ele><time>2026-05-02T11:46:43.704Z</time></trkpt><trkpt lat="43.214852" lon="12.0737062"><ele>356.6666666666667</ele><time>2026-05-02T11:46:44.721Z</time></trkpt><trkpt lat="43.2146615" lon="12.073748"><ele>356.33333333333337</ele><time>2026-05-02T11:46:45.719Z</time></trkpt><trkpt lat="43.2144675" lon="12.0737919"><ele>356.0</ele><time>2026-05-02T11:46:46.712Z</time></trkpt><trkpt lat="43.2142688" lon="12.0738266"><ele>356.0</ele><time>2026-05-02T11:46:47.721Z</time></trkpt><trkpt lat="43.2140691" lon="12.0738617"><ele>356.0</ele><time>2026-05-02T11:46:48.713Z</time></trkpt><trkpt lat="43.21387" lon="12.0738927"><ele>356.0</ele><time>2026-05-02T11:46:49.715Z</time></trkpt><trkpt lat="43.2136751" lon="12.0739244"><ele>354.33333333333337</ele><time>2026-05-02T11:46:50.718Z</time></trkpt><trkpt lat="43.2134886" lon="12.0739536"><ele>352.6666666666667</ele><time>2026-05-02T11:46:51.711Z</time></trkpt><trkpt lat="43.2133159" lon="12.0739838"><ele>351.0</ele><time>2026-05-02T11:46:52.7Z</time></trkpt><trkpt lat="43.2131532" lon="12.0740125"><ele>348.25</ele><time>2026-05-02T11:46:53.712Z</time></trkpt><trkpt lat="43.2130064" lon="12.074028"><ele>345.5</ele><time>2026-05-02T11:46:54.701Z</time></trkpt><trkpt lat="43.2128643" lon="12.0740432"><ele>342.75</ele><time>2026-05-02T11:46:55.709Z</time></trkpt><trkpt lat="43.2127202" lon="12.0740373"><ele>340.0</ele><time>2026-05-02T11:46:56.712Z</time></trkpt><trkpt lat="43.2125799" lon="12.074008"><ele>340.0</ele><time>2026-05-02T11:46:57.72Z</time></trkpt><trkpt lat="43.2124549" lon="12.0739564"><ele>340.0</ele><time>2026-05-02T11:46:58.717Z</time></trkpt><trkpt lat="43.2123456" lon="12.0738915"><ele>340.0</ele><time>2026-05-02T11:46:59.714Z</time></trkpt><trkpt lat="43.2122428" lon="12.0738185"><ele>340.0</ele><time>2026-05-02T11:47:00.714Z</time></trkpt><trkpt lat="43.2121373" lon="12.0737144"><ele>337.0</ele><time>2026-05-02T11:47:01.712Z</time></trkpt><trkpt lat="43.2120308" lon="12.0736094"><ele>334.0</ele><time>2026-05-02T11:47:02.711Z</time></trkpt><trkpt lat="43.211925" lon="12.0735019"><ele>331.0</ele><time>2026-05-02T11:47:03.71Z</time></trkpt><trkpt lat="43.2118202" lon="12.073378"><ele>328.0</ele><time>2026-05-02T11:47:04.717Z</time></trkpt><trkpt lat="43.211725" lon="12.0732324"><ele>328.0</ele><time>2026-05-02T11:47:05.71Z</time></trkpt><trkpt lat="43.2116377" lon="12.0730769"><ele>328.0</ele><time>2026-05-02T11:47:06.719Z</time></trkpt><trkpt lat="43.2115537" lon="12.0729135"><ele>328.0</ele><time>2026-05-02T11:47:07.719Z</time></trkpt><trkpt lat="43.2114712" lon="12.0727578"><ele>328.0</ele><time>2026-05-02T11:47:08.727Z</time></trkpt><trkpt lat="43.2113907" lon="12.0726048"><ele>325.75</ele><time>2026-05-02T11:47:09.739Z</time></trkpt><trkpt lat="43.2113145" lon="12.0724643"><ele>323.5</ele><time>2026-05-02T11:47:10.716Z</time></trkpt><trkpt lat="43.2112405" lon="12.0723257"><ele>321.25</ele><time>2026-05-02T11:47:11.718Z</time></trkpt><trkpt lat="43.2111768" lon="12.0721879"><ele>319.0</ele><time>2026-05-02T11:47:12.723Z</time></trkpt><trkpt lat="43.2111088" lon="12.0720673"><ele>319.0</ele><time>2026-05-02T11:47:13.72Z</time></trkpt><trkpt lat="43.2110276" lon="12.0719837"><ele>319.0</ele><time>2026-05-02T11:47:14.721Z</time></trkpt><trkpt lat="43.210927" lon="12.0719368"><ele>319.0</ele><time>2026-05-02T11:47:15.718Z</time></trkpt><trkpt lat="43.2108057" lon="12.0719244"><ele>319.0</ele><time>2026-05-02T11:47:16.726Z</time></trkpt><trkpt lat="43.2106722" lon="12.0719262"><ele>317.5</ele><time>2026-05-02T11:47:17.71Z</time></trkpt><trkpt lat="43.2105387" lon="12.0719433"><ele>316.0</ele><time>2026-05-02T11:47:18.711Z</time></trkpt><trkpt lat="43.2104066" lon="12.0719561"><ele>314.5</ele><time>2026-05-02T11:47:19.716Z</time></trkpt><trkpt lat="43.2102803" lon="12.0719557"><ele>313.0</ele><time>2026-05-02T11:47:20.716Z</time></trkpt><trkpt lat="43.2101566" lon="12.0719518"><ele>313.0</ele><time>2026-05-02T11:47:21.72Z</time></trkpt><trkpt lat="43.21004" lon="12.0719513"><ele>313.0</ele><time>2026-05-02T11:47:22.712Z</time></trkpt><trkpt lat="43.2099238" lon="12.0719437"><ele>313.0</ele><time>2026-05-02T11:47:23.718Z</time></trkpt><trkpt lat="43.209817" lon="12.0719468"><ele>313.0</ele><time>2026-05-02T11:47:24.711Z</time></trkpt><trkpt lat="43.2097192" lon="12.0719438"><ele>313.0</ele><time>2026-05-02T11:47:25.722Z</time></trkpt><trkpt lat="43.2096304" lon="12.0719402"><ele>312.8333333333333</ele><time>2026-05-02T11:47:26.714Z</time></trkpt><trkpt lat="43.2095665" lon="12.0719048"><ele>312.66666666666663</ele><time>2026-05-02T11:47:27.707Z</time></trkpt><trkpt lat="43.2094955" lon="12.0717864"><ele>312.5</ele><time>2026-05-02T11:47:29.711Z</time></trkpt><trkpt lat="43.2094908" lon="12.0716912"><ele>312.3333333333333</ele><time>2026-05-02T11:47:30.719Z</time></trkpt><trkpt lat="43.2094856" lon="12.0715891"><ele>312.1666666666667</ele><time>2026-05-02T11:47:31.712Z</time></trkpt><trkpt lat="43.2094462" lon="12.0714834"><ele>312.0</ele><time>2026-05-02T11:47:32.719Z</time></trkpt><trkpt lat="43.2093634" lon="12.0713859"><ele>310.6</ele><time>2026-05-02T11:47:33.71Z</time></trkpt><trkpt lat="43.2092836" lon="12.0713"><ele>309.2</ele><time>2026-05-02T11:47:34.714Z</time></trkpt><trkpt lat="43.2092142" lon="12.0711989"><ele>307.8</ele><time>2026-05-02T11:47:35.722Z</time></trkpt><trkpt lat="43.2091651" lon="12.0710782"><ele>306.4</ele><time>2026-05-02T11:47:36.71Z</time></trkpt><trkpt lat="43.2091217" lon="12.0709421"><ele>305.0</ele><time>2026-05-02T11:47:37.709Z</time></trkpt><trkpt lat="43.2090905" lon="12.0708065"><ele>303.1666666666667</ele><time>2026-05-02T11:47:38.72Z</time></trkpt><trkpt lat="43.2090561" lon="12.0706849"><ele>301.33333333333337</ele><time>2026-05-02T11:47:39.719Z</time></trkpt><trkpt lat="43.2090153" lon="12.0705755"><ele>299.5</ele><time>2026-05-02T11:47:40.716Z</time></trkpt><trkpt lat="43.208966" lon="12.0704825"><ele>297.6666666666667</ele><time>2026-05-02T11:47:41.725Z</time></trkpt><trkpt lat="43.208903" lon="12.0703976"><ele>295.8333333333333</ele><time>2026-05-02T11:47:42.717Z</time></trkpt><trkpt lat="43.2088362" lon="12.0703368"><ele>294.0</ele><time>2026-05-02T11:47:43.722Z</time></trkpt><trkpt lat="43.2087662" lon="12.0703117"><ele>293.6666666666667</ele><time>2026-05-02T11:47:44.713Z</time></trkpt><trkpt lat="43.208696" lon="12.0702939"><ele>293.3333333333333</ele><time>2026-05-02T11:47:45.722Z</time></trkpt><trkpt lat="43.2086236" lon="12.0702856"><ele>293.0</ele><time>2026-05-02T11:47:46.737Z</time></trkpt><trkpt lat="43.2085469" lon="12.0702865"><ele>292.66666666666663</ele><time>2026-05-02T11:47:47.714Z</time></trkpt><trkpt lat="43.2084687" lon="12.070298"><ele>292.3333333333333</ele><time>2026-05-02T11:47:48.73Z</time></trkpt><trkpt lat="43.2083893" lon="12.0703149"><ele>292.0</ele><time>2026-05-02T11:47:49.71Z</time></trkpt><trkpt lat="43.2083107" lon="12.0703333"><ele>292.0</ele><time>2026-05-02T11:47:50.724Z</time></trkpt><trkpt lat="43.2082379" lon="12.0703587"><ele>292.0</ele><time>2026-05-02T11:47:51.723Z</time></trkpt><trkpt lat="43.2081641" lon="12.0703848"><ele>292.0</ele><time>2026-05-02T11:47:52.726Z</time></trkpt><trkpt lat="43.2080968" lon="12.0704207"><ele>292.0</ele><time>2026-05-02T11:47:53.709Z</time></trkpt><trkpt lat="43.2080322" lon="12.0704644"><ele>292.0</ele><time>2026-05-02T11:47:54.717Z</time></trkpt><trkpt lat="43.2079752" lon="12.070525"><ele>292.0</ele><time>2026-05-02T11:47:55.713Z</time></trkpt><trkpt lat="43.2079197" lon="12.0705957"><ele>292.0</ele><time>2026-05-02T11:47:56.717Z</time></trkpt><trkpt lat="43.207863" lon="12.0706715"><ele>292.5</ele><time>2026-05-02T11:47:57.711Z</time></trkpt><trkpt lat="43.2078009" lon="12.0707497"><ele>293.0</ele><time>2026-05-02T11:47:58.717Z</time></trkpt><trkpt lat="43.2077393" lon="12.0708273"><ele>293.5</ele><time>2026-05-02T11:47:59.728Z</time></trkpt><trkpt lat="43.2076863" lon="12.0709034"><ele>294.0</ele><time>2026-05-02T11:48:00.74Z</time></trkpt><trkpt lat="43.2076266" lon="12.0709752"><ele>294.5</ele><time>2026-05-02T11:48:01.713Z</time></trkpt><trkpt lat="43.2075751" lon="12.071057"><ele>295.0</ele><time>2026-05-02T11:48:02.724Z</time></trkpt><trkpt lat="43.2075319" lon="12.0711548"><ele>295.0</ele><time>2026-05-02T11:48:03.719Z</time></trkpt><trkpt lat="43.2074964" lon="12.0712856"><ele>295.0</ele><time>2026-05-02T11:48:04.718Z</time></trkpt><trkpt lat="43.207469" lon="12.0714426"><ele>295.0</ele><time>2026-05-02T11:48:05.728Z</time></trkpt><trkpt lat="43.2074555" lon="12.0716055"><ele>295.0</ele><time>2026-05-02T11:48:06.724Z</time></trkpt><trkpt lat="43.2074491" lon="12.0717579"><ele>295.2</ele><time>2026-05-02T11:48:07.727Z</time></trkpt><trkpt lat="43.2074437" lon="12.0718972"><ele>295.4</ele><time>2026-05-02T11:48:08.718Z</time></trkpt><trkpt lat="43.2074432" lon="12.0720239"><ele>295.6</ele><time>2026-05-02T11:48:09.721Z</time></trkpt><trkpt lat="43.2074404" lon="12.0721493"><ele>295.8</ele><time>2026-05-02T11:48:10.72Z</time></trkpt><trkpt lat="43.2074442" lon="12.0722882"><ele>296.0</ele><time>2026-05-02T11:48:11.724Z</time></trkpt><trkpt lat="43.2074478" lon="12.07246"><ele>295.25</ele><time>2026-05-02T11:48:12.718Z</time></trkpt><trkpt lat="43.207443" lon="12.0726467"><ele>294.5</ele><time>2026-05-02T11:48:13.72Z</time></trkpt><trkpt lat="43.2074348" lon="12.0728472"><ele>293.75</ele><time>2026-05-02T11:48:14.713Z</time></trkpt><trkpt lat="43.2074192" lon="12.073057"><ele>293.0</ele><time>2026-05-02T11:48:15.715Z</time></trkpt><trkpt lat="43.2074026" lon="12.0732727"><ele>290.0</ele><time>2026-05-02T11:48:16.717Z</time></trkpt><trkpt lat="43.2073876" lon="12.0734895"><ele>287.0</ele><time>2026-05-02T11:48:17.721Z</time></trkpt><trkpt lat="43.2073788" lon="12.0737038"><ele>284.0</ele><time>2026-05-02T11:48:18.716Z</time></trkpt><trkpt lat="43.2073711" lon="12.0739068"><ele>284.0</ele><time>2026-05-02T11:48:19.715Z</time></trkpt><trkpt lat="43.2073621" lon="12.0741044"><ele>284.0</ele><time>2026-05-02T11:48:20.713Z</time></trkpt><trkpt lat="43.2073521" lon="12.0743111"><ele>284.0</ele><time>2026-05-02T11:48:21.718Z</time></trkpt><trkpt lat="43.207347" lon="12.0745302"><ele>282.33333333333337</ele><time>2026-05-02T11:48:22.721Z</time></trkpt><trkpt lat="43.2073372" lon="12.0747419"><ele>280.6666666666667</ele><time>2026-05-02T11:48:23.717Z</time></trkpt><trkpt lat="43.2073263" lon="12.0749488"><ele>279.0</ele><time>2026-05-02T11:48:24.717Z</time></trkpt><trkpt lat="43.2073155" lon="12.07516"><ele>277.25</ele><time>2026-05-02T11:48:25.704Z</time></trkpt><trkpt lat="43.207307" lon="12.0753646"><ele>275.5</ele><time>2026-05-02T11:48:26.714Z</time></trkpt><trkpt lat="43.2072845" lon="12.075564"><ele>273.75</ele><time>2026-05-02T11:48:27.717Z</time></trkpt><trkpt lat="43.2072551" lon="12.0757594"><ele>272.0</ele><time>2026-05-02T11:48:28.711Z</time></trkpt><trkpt lat="43.2072275" lon="12.0759593"><ele>272.0</ele><time>2026-05-02T11:48:29.717Z</time></trkpt><trkpt lat="43.2071923" lon="12.0761581"><ele>272.0</ele><time>2026-05-02T11:48:30.722Z</time></trkpt><trkpt lat="43.207156" lon="12.0763677"><ele>272.0</ele><time>2026-05-02T11:48:31.725Z</time></trkpt><trkpt lat="43.2071282" lon="12.0765717"><ele>272.0</ele><time>2026-05-02T11:48:32.724Z</time></trkpt><trkpt lat="43.2070907" lon="12.0767724"><ele>272.0</ele><time>2026-05-02T11:48:33.728Z</time></trkpt><trkpt lat="43.20704" lon="12.0769614"><ele>272.0</ele><time>2026-05-02T11:48:34.715Z</time></trkpt><trkpt lat="43.2069716" lon="12.0771274"><ele>272.0</ele><time>2026-05-02T11:48:35.713Z</time></trkpt><trkpt lat="43.2068837" lon="12.0772627"><ele>272.0</ele><time>2026-05-02T11:48:36.717Z</time></trkpt><trkpt lat="43.2067661" lon="12.0773638"><ele>272.0</ele><time>2026-05-02T11:48:37.717Z</time></trkpt><trkpt lat="43.2066456" lon="12.0774167"><ele>272.0</ele><time>2026-05-02T11:48:38.712Z</time></trkpt><trkpt lat="43.2065098" lon="12.0774228"><ele>272.0</ele><time>2026-05-02T11:48:39.715Z</time></trkpt><trkpt lat="43.2063727" lon="12.077412"><ele>271.75</ele><time>2026-05-02T11:48:40.72Z</time></trkpt><trkpt lat="43.2062338" lon="12.0773839"><ele>271.5</ele><time>2026-05-02T11:48:41.716Z</time></trkpt><trkpt lat="43.2060943" lon="12.0773635"><ele>271.25</ele><time>2026-05-02T11:48:42.717Z</time></trkpt><trkpt lat="43.2059522" lon="12.077342"><ele>271.0</ele><time>2026-05-02T11:48:43.715Z</time></trkpt><trkpt lat="43.2058089" lon="12.0773279"><ele>271.0</ele><time>2026-05-02T11:48:44.716Z</time></trkpt><trkpt lat="43.2056663" lon="12.0773117"><ele>271.0</ele><time>2026-05-02T11:48:45.715Z</time></trkpt><trkpt lat="43.205522" lon="12.0772969"><ele>271.0</ele><time>2026-05-02T11:48:46.716Z</time></trkpt><trkpt lat="43.2053716" lon="12.0772736"><ele>271.0</ele><time>2026-05-02T11:48:47.711Z</time></trkpt><trkpt lat="43.2052249" lon="12.0772567"><ele>270.66666666666663</ele><time>2026-05-02T11:48:48.718Z</time></trkpt><trkpt lat="43.2050762" lon="12.0772372"><ele>270.3333333333333</ele><time>2026-05-02T11:48:49.72Z</time></trkpt><trkpt lat="43.2049236" lon="12.0772197"><ele>270.0</ele><time>2026-05-02T11:48:50.718Z</time></trkpt><trkpt lat="43.204773" lon="12.0772054"><ele>269.0</ele><time>2026-05-02T11:48:51.722Z</time></trkpt><trkpt lat="43.2046206" lon="12.0771923"><ele>268.0</ele><time>2026-05-02T11:48:52.719Z</time></trkpt><trkpt lat="43.2044685" lon="12.077174"><ele>267.0</ele><time>2026-05-02T11:48:53.715Z</time></trkpt><trkpt lat="43.2043205" lon="12.0771581"><ele>267.0</ele><time>2026-05-02T11:48:54.718Z</time></trkpt><trkpt lat="43.204169" lon="12.0771432"><ele>267.0</ele><time>2026-05-02T11:48:55.721Z</time></trkpt><trkpt lat="43.204025" lon="12.0771286"><ele>267.0</ele><time>2026-05-02T11:48:56.713Z</time></trkpt><trkpt lat="43.203892" lon="12.0771121"><ele>267.0</ele><time>2026-05-02T11:48:57.723Z</time></trkpt><trkpt lat="43.2037801" lon="12.0770963"><ele>267.0</ele><time>2026-05-02T11:48:58.723Z</time></trkpt><trkpt lat="43.2036691" lon="12.0770832"><ele>267.0</ele><time>2026-05-02T11:48:59.711Z</time></trkpt><trkpt lat="43.2035614" lon="12.0770799"><ele>267.0</ele><time>2026-05-02T11:49:00.733Z</time></trkpt><trkpt lat="43.2034568" lon="12.0770701"><ele>267.0</ele><time>2026-05-02T11:49:01.716Z</time></trkpt><trkpt lat="43.2033471" lon="12.0770503"><ele>267.0</ele><time>2026-05-02T11:49:02.721Z</time></trkpt><trkpt lat="43.2032406" lon="12.0770381"><ele>267.0</ele><time>2026-05-02T11:49:03.715Z</time></trkpt><trkpt lat="43.2031414" lon="12.0770256"><ele>267.0</ele><time>2026-05-02T11:49:04.719Z</time></trkpt><trkpt lat="43.2030519" lon="12.0770137"><ele>267.0</ele><time>2026-05-02T11:49:05.725Z</time></trkpt><trkpt lat="43.2029741" lon="12.0770024"><ele>267.0</ele><time>2026-05-02T11:49:06.721Z</time></trkpt><trkpt lat="43.202905" lon="12.0769923"><ele>267.0</ele><time>2026-05-02T11:49:07.725Z</time></trkpt><trkpt lat="43.2027977" lon="12.0769812"><ele>267.0</ele><time>2026-05-02T11:49:09.713Z</time></trkpt><trkpt lat="43.202706" lon="12.0769619"><ele>267.0</ele><time>2026-05-02T11:49:36.718Z</time></trkpt><trkpt lat="43.2026667" lon="12.0768509"><ele>267.0</ele><time>2026-05-02T11:49:38.72Z</time></trkpt><trkpt lat="43.2026823" lon="12.0767231"><ele>267.0</ele><time>2026-05-02T11:49:39.706Z</time></trkpt><trkpt lat="43.2027084" lon="12.0765667"><ele>267.0</ele><time>2026-05-02T11:49:40.714Z</time></trkpt><trkpt lat="43.2027387" lon="12.0763905"><ele>267.0</ele><time>2026-05-02T11:49:41.731Z</time></trkpt><trkpt lat="43.2027689" lon="12.076203"><ele>266.3333333333333</ele><time>2026-05-02T11:49:42.704Z</time></trkpt><trkpt lat="43.2028073" lon="12.076008"><ele>265.66666666666663</ele><time>2026-05-02T11:49:43.717Z</time></trkpt><trkpt lat="43.2028509" lon="12.0757978"><ele>265.0</ele><time>2026-05-02T11:49:44.73Z</time></trkpt><trkpt lat="43.2028903" lon="12.0755889"><ele>264.3333333333333</ele><time>2026-05-02T11:49:45.715Z</time></trkpt><trkpt lat="43.2029301" lon="12.0753794"><ele>263.6666666666667</ele><time>2026-05-02T11:49:46.712Z</time></trkpt><trkpt lat="43.2029702" lon="12.0751625"><ele>263.0</ele><time>2026-05-02T11:49:47.715Z</time></trkpt><trkpt lat="43.2030108" lon="12.0749365"><ele>263.0</ele><time>2026-05-02T11:49:48.71Z</time></trkpt><trkpt lat="43.2030533" lon="12.0747025"><ele>263.0</ele><time>2026-05-02T11:49:49.723Z</time></trkpt><trkpt lat="43.2031001" lon="12.0744661"><ele>263.0</ele><time>2026-05-02T11:49:50.718Z</time></trkpt><trkpt lat="43.2031425" lon="12.074235"><ele>263.0</ele><time>2026-05-02T11:49:51.712Z</time></trkpt><trkpt lat="43.2031744" lon="12.0740094"><ele>263.0</ele><time>2026-05-02T11:49:52.718Z</time></trkpt><trkpt lat="43.2031873" lon="12.0737755"><ele>263.0</ele><time>2026-05-02T11:49:53.715Z</time></trkpt><trkpt lat="43.2031819" lon="12.0735367"><ele>263.0</ele><time>2026-05-02T11:49:54.719Z</time></trkpt><trkpt lat="43.2031574" lon="12.073295"><ele>263.0</ele><time>2026-05-02T11:49:55.717Z</time></trkpt><trkpt lat="43.2031036" lon="12.0730503"><ele>263.0</ele><time>2026-05-02T11:49:56.712Z</time></trkpt><trkpt lat="43.2030277" lon="12.0728051"><ele>263.0</ele><time>2026-05-02T11:49:57.719Z</time></trkpt><trkpt lat="43.2029553" lon="12.0725613"><ele>263.0</ele><time>2026-05-02T11:49:58.707Z</time></trkpt><trkpt lat="43.202919" lon="12.0723093"><ele>263.0</ele><time>2026-05-02T11:49:59.713Z</time></trkpt><trkpt lat="43.2029223" lon="12.0720451"><ele>263.0</ele><time>2026-05-02T11:50:00.709Z</time></trkpt><trkpt lat="43.2029361" lon="12.0717812"><ele>263.0</ele><time>2026-05-02T11:50:01.714Z</time></trkpt><trkpt lat="43.2029485" lon="12.0715211"><ele>263.0</ele><time>2026-05-02T11:50:02.711Z</time></trkpt><trkpt lat="43.2029458" lon="12.0712687"><ele>263.0</ele><time>2026-05-02T11:50:03.721Z</time></trkpt><trkpt lat="43.2029107" lon="12.0710254"><ele>263.0</ele><time>2026-05-02T11:50:04.712Z</time></trkpt><trkpt lat="43.2028356" lon="12.0708045"><ele>263.0</ele><time>2026-05-02T11:50:05.71Z</time></trkpt><trkpt lat="43.2027291" lon="12.0706015"><ele>263.33333333333337</ele><time>2026-05-02T11:50:06.721Z</time></trkpt><trkpt lat="43.2026108" lon="12.0704015"><ele>263.6666666666667</ele><time>2026-05-02T11:50:07.72Z</time></trkpt><trkpt lat="43.2025103" lon="12.0701886"><ele>264.0</ele><time>2026-05-02T11:50:08.713Z</time></trkpt><trkpt lat="43.2024339" lon="12.0699585"><ele>264.0</ele><time>2026-05-02T11:50:09.719Z</time></trkpt><trkpt lat="43.2023854" lon="12.0697107"><ele>264.0</ele><time>2026-05-02T11:50:10.722Z</time></trkpt><trkpt lat="43.2023509" lon="12.0694523"><ele>264.0</ele><time>2026-05-02T11:50:11.727Z</time></trkpt><trkpt lat="43.2023233" lon="12.0691898"><ele>263.6666666666667</ele><time>2026-05-02T11:50:12.713Z</time></trkpt><trkpt lat="43.2022978" lon="12.0689197"><ele>263.33333333333337</ele><time>2026-05-02T11:50:13.722Z</time></trkpt><trkpt lat="43.2022755" lon="12.0686481"><ele>263.0</ele><time>2026-05-02T11:50:14.712Z</time></trkpt><trkpt lat="43.2022562" lon="12.0683757"><ele>263.6666666666667</ele><time>2026-05-02T11:50:15.719Z</time></trkpt><trkpt lat="43.2022333" lon="12.068095"><ele>264.3333333333333</ele><time>2026-05-02T11:50:16.72Z</time></trkpt><trkpt lat="43.2022057" lon="12.0678147"><ele>265.0</ele><time>2026-05-02T11:50:17.72Z</time></trkpt><trkpt lat="43.2021814" lon="12.067531"><ele>264.66666666666663</ele><time>2026-05-02T11:50:18.729Z</time></trkpt><trkpt lat="43.2021546" lon="12.0672439"><ele>264.3333333333333</ele><time>2026-05-02T11:50:19.71Z</time></trkpt><trkpt lat="43.2021213" lon="12.0669557"><ele>264.0</ele><time>2026-05-02T11:50:20.723Z</time></trkpt><trkpt lat="43.2020741" lon="12.0666732"><ele>264.3333333333333</ele><time>2026-05-02T11:50:21.719Z</time></trkpt><trkpt lat="43.2020029" lon="12.0663953"><ele>264.66666666666663</ele><time>2026-05-02T11:50:22.739Z</time></trkpt><trkpt lat="43.2019052" lon="12.0661232"><ele>265.0</ele><time>2026-05-02T11:50:23.726Z</time></trkpt><trkpt lat="43.2017857" lon="12.065866"><ele>265.0</ele><time>2026-05-02T11:50:24.718Z</time></trkpt><trkpt lat="43.2016572" lon="12.0656137"><ele>265.0</ele><time>2026-05-02T11:50:25.722Z</time></trkpt><trkpt lat="43.2015371" lon="12.0653447"><ele>265.0</ele><time>2026-05-02T11:50:26.715Z</time></trkpt><trkpt lat="43.2014339" lon="12.0650655"><ele>265.0</ele><time>2026-05-02T11:50:27.725Z</time></trkpt><trkpt lat="43.2013389" lon="12.0647876"><ele>265.0</ele><time>2026-05-02T11:50:28.719Z</time></trkpt><trkpt lat="43.2012447" lon="12.0645063"><ele>265.0</ele><time>2026-05-02T11:50:29.717Z</time></trkpt><trkpt lat="43.2011503" lon="12.0642254"><ele>265.5</ele><time>2026-05-02T11:50:30.718Z</time></trkpt><trkpt lat="43.2010518" lon="12.0639441"><ele>266.0</ele><time>2026-05-02T11:50:31.72Z</time></trkpt><trkpt lat="43.2009604" lon="12.0636638"><ele>266.0</ele><time>2026-05-02T11:50:32.719Z</time></trkpt><trkpt lat="43.2008733" lon="12.0633777"><ele>266.0</ele><time>2026-05-02T11:50:33.723Z</time></trkpt><trkpt lat="43.2007998" lon="12.0630869"><ele>266.0</ele><time>2026-05-02T11:50:34.728Z</time></trkpt><trkpt lat="43.2007352" lon="12.062793"><ele>266.0</ele><time>2026-05-02T11:50:35.715Z</time></trkpt><trkpt lat="43.2006754" lon="12.0624993"><ele>266.0</ele><time>2026-05-02T11:50:36.725Z</time></trkpt><trkpt lat="43.2006146" lon="12.0621969"><ele>266.0</ele><time>2026-05-02T11:50:37.73Z</time></trkpt><trkpt lat="43.2005541" lon="12.061894"><ele>266.0</ele><time>2026-05-02T11:50:38.729Z</time></trkpt><trkpt lat="43.200493" lon="12.0615951"><ele>266.0</ele><time>2026-05-02T11:50:39.71Z</time></trkpt><trkpt lat="43.2004315" lon="12.0613008"><ele>266.0</ele><time>2026-05-02T11:50:40.735Z</time></trkpt><trkpt lat="43.2003717" lon="12.0610233"><ele>266.0</ele><time>2026-05-02T11:50:41.714Z</time></trkpt><trkpt lat="43.2003202" lon="12.0607596"><ele>266.33333333333337</ele><time>2026-05-02T11:50:42.733Z</time></trkpt><trkpt lat="43.2002688" lon="12.0605035"><ele>266.6666666666667</ele><time>2026-05-02T11:50:43.726Z</time></trkpt><trkpt lat="43.200221" lon="12.0602558"><ele>267.0</ele><time>2026-05-02T11:50:44.725Z</time></trkpt><trkpt lat="43.2001746" lon="12.0600148"><ele>267.0</ele><time>2026-05-02T11:50:45.72Z</time></trkpt><trkpt lat="43.2001249" lon="12.0597788"><ele>267.0</ele><time>2026-05-02T11:50:46.713Z</time></trkpt><trkpt lat="43.2000768" lon="12.059542"><ele>267.0</ele><time>2026-05-02T11:50:47.722Z</time></trkpt><trkpt lat="43.2000313" lon="12.0593044"><ele>267.0</ele><time>2026-05-02T11:50:48.734Z</time></trkpt><trkpt lat="43.199981" lon="12.0590622"><ele>267.0</ele><time>2026-05-02T11:50:49.721Z</time></trkpt><trkpt lat="43.1999271" lon="12.0588189"><ele>267.0</ele><time>2026-05-02T11:50:50.735Z</time></trkpt><trkpt lat="43.1998691" lon="12.0585773"><ele>266.6666666666667</ele><time>2026-05-02T11:50:51.708Z</time></trkpt><trkpt lat="43.199813" lon="12.0583399"><ele>266.33333333333337</ele><time>2026-05-02T11:50:52.72Z</time></trkpt><trkpt lat="43.1997674" lon="12.0581036"><ele>266.0</ele><time>2026-05-02T11:50:53.725Z</time></trkpt><trkpt lat="43.1997475" lon="12.0578615"><ele>266.0</ele><time>2026-05-02T11:50:54.739Z</time></trkpt><trkpt lat="43.1997528" lon="12.0576177"><ele>266.0</ele><time>2026-05-02T11:50:55.717Z</time></trkpt><trkpt lat="43.1997713" lon="12.0573641"><ele>266.0</ele><time>2026-05-02T11:50:56.72Z</time></trkpt><trkpt lat="43.1997859" lon="12.0571019"><ele>266.6666666666667</ele><time>2026-05-02T11:50:57.722Z</time></trkpt><trkpt lat="43.1998035" lon="12.0568401"><ele>267.3333333333333</ele><time>2026-05-02T11:50:58.715Z</time></trkpt><trkpt lat="43.1998226" lon="12.0565744"><ele>268.0</ele><time>2026-05-02T11:50:59.731Z</time></trkpt><trkpt lat="43.1998414" lon="12.0563018"><ele>269.3333333333333</ele><time>2026-05-02T11:51:00.719Z</time></trkpt><trkpt lat="43.1998608" lon="12.0560275"><ele>270.6666666666667</ele><time>2026-05-02T11:51:01.706Z</time></trkpt><trkpt lat="43.1998799" lon="12.0557508"><ele>272.0</ele><time>2026-05-02T11:51:02.741Z</time></trkpt><trkpt lat="43.1999004" lon="12.0554718"><ele>272.6666666666667</ele><time>2026-05-02T11:51:03.732Z</time></trkpt><trkpt lat="43.1999236" lon="12.0551906"><ele>273.3333333333333</ele><time>2026-05-02T11:51:04.719Z</time></trkpt><trkpt lat="43.1999458" lon="12.0549076"><ele>274.0</ele><time>2026-05-02T11:51:05.714Z</time></trkpt><trkpt lat="43.199965" lon="12.0546167"><ele>274.66666666666663</ele><time>2026-05-02T11:51:06.722Z</time></trkpt><trkpt lat="43.1999793" lon="12.0543211"><ele>275.3333333333333</ele><time>2026-05-02T11:51:07.734Z</time></trkpt><trkpt lat="43.1999767" lon="12.0540129"><ele>276.0</ele><time>2026-05-02T11:51:08.719Z</time></trkpt><trkpt lat="43.1999501" lon="12.0537032"><ele>278.5</ele><time>2026-05-02T11:51:09.732Z</time></trkpt><trkpt lat="43.1998949" lon="12.0533793"><ele>281.0</ele><time>2026-05-02T11:51:10.728Z</time></trkpt><trkpt lat="43.1998342" lon="12.0530638"><ele>281.6666666666667</ele><time>2026-05-02T11:51:11.715Z</time></trkpt><trkpt lat="43.1997778" lon="12.0527669"><ele>282.3333333333333</ele><time>2026-05-02T11:51:12.727Z</time></trkpt><trkpt lat="43.1997168" lon="12.052502"><ele>283.0</ele><time>2026-05-02T11:51:13.721Z</time></trkpt><trkpt lat="43.1996367" lon="12.0522765"><ele>285.0</ele><time>2026-05-02T11:51:14.719Z</time></trkpt><trkpt lat="43.1995204" lon="12.0520827"><ele>287.0</ele><time>2026-05-02T11:51:15.717Z</time></trkpt><trkpt lat="43.1993654" lon="12.0519077"><ele>289.0</ele><time>2026-05-02T11:51:16.722Z</time></trkpt><trkpt lat="43.1991816" lon="12.0517212"><ele>291.66666666666663</ele><time>2026-05-02T11:51:17.722Z</time></trkpt><trkpt lat="43.1989983" lon="12.0515273"><ele>294.3333333333333</ele><time>2026-05-02T11:51:18.721Z</time></trkpt><trkpt lat="43.1988285" lon="12.0513448"><ele>297.0</ele><time>2026-05-02T11:51:19.709Z</time></trkpt><trkpt lat="43.1986687" lon="12.0511714"><ele>297.0</ele><time>2026-05-02T11:51:20.712Z</time></trkpt><trkpt lat="43.1985196" lon="12.0510094"><ele>297.0</ele><time>2026-05-02T11:51:21.72Z</time></trkpt><trkpt lat="43.1983806" lon="12.0508575"><ele>297.0</ele><time>2026-05-02T11:51:22.712Z</time></trkpt><trkpt lat="43.198242" lon="12.0507432"><ele>302.0</ele><time>2026-05-02T11:51:23.708Z</time></trkpt><trkpt lat="43.1980953" lon="12.0506946"><ele>307.0</ele><time>2026-05-02T11:51:24.727Z</time></trkpt><trkpt lat="43.1979401" lon="12.0507232"><ele>312.0</ele><time>2026-05-02T11:51:25.708Z</time></trkpt><trkpt lat="43.1977639" lon="12.0507819"><ele>308.0</ele><time>2026-05-02T11:51:26.713Z</time></trkpt><trkpt lat="43.1975758" lon="12.0508432"><ele>304.0</ele><time>2026-05-02T11:51:27.716Z</time></trkpt><trkpt lat="43.1973755" lon="12.0508722"><ele>300.0</ele><time>2026-05-02T11:51:28.721Z</time></trkpt><trkpt lat="43.1971768" lon="12.0508691"><ele>300.0</ele><time>2026-05-02T11:51:29.709Z</time></trkpt><trkpt lat="43.1969729" lon="12.0508335"><ele>300.0</ele><time>2026-05-02T11:51:30.719Z</time></trkpt><trkpt lat="43.196766" lon="12.0507472"><ele>300.0</ele><time>2026-05-02T11:51:31.705Z</time></trkpt><trkpt lat="43.1965662" lon="12.0506665"><ele>306.0</ele><time>2026-05-02T11:51:32.707Z</time></trkpt><trkpt lat="43.1963831" lon="12.0505642"><ele>312.0</ele><time>2026-05-02T11:51:33.712Z</time></trkpt><trkpt lat="43.1962176" lon="12.0504511"><ele>318.0</ele><time>2026-05-02T11:51:34.715Z</time></trkpt><trkpt lat="43.196058" lon="12.050382"><ele>318.0</ele><time>2026-05-02T11:51:35.718Z</time></trkpt><trkpt lat="43.1959023" lon="12.0503341"><ele>318.0</ele><time>2026-05-02T11:51:36.71Z</time></trkpt><trkpt lat="43.1957388" lon="12.0503169"><ele>318.0</ele><time>2026-05-02T11:51:37.705Z</time></trkpt><trkpt lat="43.1955792" lon="12.0502951"><ele>317.0</ele><time>2026-05-02T11:51:38.72Z</time></trkpt><trkpt lat="43.1954247" lon="12.0502643"><ele>316.0</ele><time>2026-05-02T11:51:39.714Z</time></trkpt><trkpt lat="43.1952796" lon="12.0502324"><ele>315.0</ele><time>2026-05-02T11:51:40.715Z</time></trkpt><trkpt lat="43.1951484" lon="12.050208"><ele>314.0</ele><time>2026-05-02T11:51:41.71Z</time></trkpt><trkpt lat="43.1950179" lon="12.0501873"><ele>314.0</ele><time>2026-05-02T11:51:42.71Z</time></trkpt><trkpt lat="43.1948792" lon="12.0501658"><ele>314.0</ele><time>2026-05-02T11:51:43.702Z</time></trkpt><trkpt lat="43.1947314" lon="12.0501398"><ele>314.0</ele><time>2026-05-02T11:51:44.713Z</time></trkpt><trkpt lat="43.1945774" lon="12.0501112"><ele>314.0</ele><time>2026-05-02T11:51:45.714Z</time></trkpt><trkpt lat="43.1944225" lon="12.0500706"><ele>315.0</ele><time>2026-05-02T11:51:46.733Z</time></trkpt><trkpt lat="43.1942616" lon="12.0500309"><ele>316.0</ele><time>2026-05-02T11:51:47.723Z</time></trkpt><trkpt lat="43.1940993" lon="12.0499879"><ele>317.0</ele><time>2026-05-02T11:51:48.716Z</time></trkpt><trkpt lat="43.1939434" lon="12.0499441"><ele>317.0</ele><time>2026-05-02T11:51:49.714Z</time></trkpt><trkpt lat="43.1937959" lon="12.0499058"><ele>317.0</ele><time>2026-05-02T11:51:50.716Z</time></trkpt><trkpt lat="43.1936591" lon="12.0498648"><ele>317.0</ele><time>2026-05-02T11:51:51.724Z</time></trkpt><trkpt lat="43.1935237" lon="12.049822"><ele>317.0</ele><time>2026-05-02T11:51:52.722Z</time></trkpt><trkpt lat="43.1933916" lon="12.0497746"><ele>317.0</ele><time>2026-05-02T11:51:53.719Z</time></trkpt><trkpt lat="43.1932622" lon="12.0497169"><ele>317.0</ele><time>2026-05-02T11:51:54.721Z</time></trkpt><trkpt lat="43.1931311" lon="12.0496502"><ele>317.0</ele><time>2026-05-02T11:51:55.707Z</time></trkpt><trkpt lat="43.1929937" lon="12.0495751"><ele>317.0</ele><time>2026-05-02T11:51:56.716Z</time></trkpt><trkpt lat="43.1928522" lon="12.0495039"><ele>313.6666666666667</ele><time>2026-05-02T11:51:57.717Z</time></trkpt><trkpt lat="43.192709" lon="12.0494205"><ele>310.3333333333333</ele><time>2026-05-02T11:51:58.719Z</time></trkpt><trkpt lat="43.1925635" lon="12.0493368"><ele>307.0</ele><time>2026-05-02T11:51:59.713Z</time></trkpt><trkpt lat="43.1924155" lon="12.0492513"><ele>306.25</ele><time>2026-05-02T11:52:00.721Z</time></trkpt><trkpt lat="43.1922711" lon="12.0491722"><ele>305.5</ele><time>2026-05-02T11:52:01.714Z</time></trkpt><trkpt lat="43.1921351" lon="12.0490939"><ele>304.75</ele><time>2026-05-02T11:52:02.707Z</time></trkpt><trkpt lat="43.1920181" lon="12.0490173"><ele>304.0</ele><time>2026-05-02T11:52:03.714Z</time></trkpt><trkpt lat="43.191916" lon="12.0489321"><ele>304.0</ele><time>2026-05-02T11:52:04.719Z</time></trkpt><trkpt lat="43.1918288" lon="12.0488358"><ele>304.0</ele><time>2026-05-02T11:52:05.714Z</time></trkpt><trkpt lat="43.1917585" lon="12.0487185"><ele>304.0</ele><time>2026-05-02T11:52:06.724Z</time></trkpt><trkpt lat="43.1916997" lon="12.0485698"><ele>304.0</ele><time>2026-05-02T11:52:07.719Z</time></trkpt><trkpt lat="43.1916528" lon="12.0483875"><ele>304.0</ele><time>2026-05-02T11:52:08.715Z</time></trkpt><trkpt lat="43.1916176" lon="12.0481865"><ele>304.0</ele><time>2026-05-02T11:52:09.718Z</time></trkpt><trkpt lat="43.1915849" lon="12.0479686"><ele>304.0</ele><time>2026-05-02T11:52:10.718Z</time></trkpt><trkpt lat="43.1915548" lon="12.0477367"><ele>299.3333333333333</ele><time>2026-05-02T11:52:11.716Z</time></trkpt><trkpt lat="43.1915059" lon="12.0475036"><ele>294.6666666666667</ele><time>2026-05-02T11:52:12.735Z</time></trkpt><trkpt lat="43.1914279" lon="12.047267"><ele>290.0</ele><time>2026-05-02T11:52:13.715Z</time></trkpt><trkpt lat="43.1913325" lon="12.0470234"><ele>290.0</ele><time>2026-05-02T11:52:14.736Z</time></trkpt><trkpt lat="43.191232" lon="12.0467813"><ele>290.0</ele><time>2026-05-02T11:52:15.72Z</time></trkpt><trkpt lat="43.1911366" lon="12.0465455"><ele>290.0</ele><time>2026-05-02T11:52:16.728Z</time></trkpt><trkpt lat="43.191049" lon="12.04631"><ele>292.6666666666667</ele><time>2026-05-02T11:52:17.709Z</time></trkpt><trkpt lat="43.1909763" lon="12.0460865"><ele>295.3333333333333</ele><time>2026-05-02T11:52:18.718Z</time></trkpt><trkpt lat="43.1909133" lon="12.0458775"><ele>298.0</ele><time>2026-05-02T11:52:19.718Z</time></trkpt><trkpt lat="43.1908725" lon="12.0456714"><ele>298.66666666666663</ele><time>2026-05-02T11:52:20.725Z</time></trkpt><trkpt lat="43.1908586" lon="12.0454528"><ele>299.3333333333333</ele><time>2026-05-02T11:52:21.72Z</time></trkpt><trkpt lat="43.1908692" lon="12.0452228"><ele>300.0</ele><time>2026-05-02T11:52:22.717Z</time></trkpt><trkpt lat="43.1908921" lon="12.044986"><ele>299.6666666666667</ele><time>2026-05-02T11:52:23.707Z</time></trkpt><trkpt lat="43.1909226" lon="12.0447452"><ele>299.33333333333337</ele><time>2026-05-02T11:52:24.711Z</time></trkpt><trkpt lat="43.1909635" lon="12.0445114"><ele>299.0</ele><time>2026-05-02T11:52:25.713Z</time></trkpt><trkpt lat="43.1909961" lon="12.044288"><ele>300.25</ele><time>2026-05-02T11:52:26.712Z</time></trkpt><trkpt lat="43.1910217" lon="12.0440845"><ele>301.5</ele><time>2026-05-02T11:52:27.718Z</time></trkpt><trkpt lat="43.1910178" lon="12.0438898"><ele>302.75</ele><time>2026-05-02T11:52:28.716Z</time></trkpt><trkpt lat="43.1909672" lon="12.0437009"><ele>304.0</ele><time>2026-05-02T11:52:29.715Z</time></trkpt><trkpt lat="43.1908815" lon="12.0435252"><ele>304.0</ele><time>2026-05-02T11:52:30.712Z</time></trkpt><trkpt lat="43.1907861" lon="12.0433404"><ele>304.0</ele><time>2026-05-02T11:52:31.71Z</time></trkpt><trkpt lat="43.1907007" lon="12.0431454"><ele>304.0</ele><time>2026-05-02T11:52:32.715Z</time></trkpt><trkpt lat="43.1906225" lon="12.0429354"><ele>303.66666666666663</ele><time>2026-05-02T11:52:33.713Z</time></trkpt><trkpt lat="43.1905489" lon="12.0427124"><ele>303.3333333333333</ele><time>2026-05-02T11:52:34.709Z</time></trkpt><trkpt lat="43.1904706" lon="12.0424863"><ele>303.0</ele><time>2026-05-02T11:52:35.708Z</time></trkpt><trkpt lat="43.1903972" lon="12.0422586"><ele>303.0</ele><time>2026-05-02T11:52:36.708Z</time></trkpt><trkpt lat="43.190329" lon="12.0420362"><ele>303.0</ele><time>2026-05-02T11:52:37.714Z</time></trkpt><trkpt lat="43.1902652" lon="12.0418363"><ele>303.0</ele><time>2026-05-02T11:52:38.715Z</time></trkpt><trkpt lat="43.1902067" lon="12.0416471"><ele>304.0</ele><time>2026-05-02T11:52:39.707Z</time></trkpt><trkpt lat="43.1901446" lon="12.0414641"><ele>305.0</ele><time>2026-05-02T11:52:40.712Z</time></trkpt><trkpt lat="43.1900785" lon="12.0412821"><ele>306.0</ele><time>2026-05-02T11:52:41.706Z</time></trkpt><trkpt lat="43.1900135" lon="12.0411009"><ele>307.0</ele><time>2026-05-02T11:52:42.714Z</time></trkpt><trkpt lat="43.1899508" lon="12.0409236"><ele>307.0</ele><time>2026-05-02T11:52:43.711Z</time></trkpt><trkpt lat="43.1898924" lon="12.0407566"><ele>307.0</ele><time>2026-05-02T11:52:44.7Z</time></trkpt><trkpt lat="43.1898446" lon="12.0406026"><ele>307.0</ele><time>2026-05-02T11:52:45.704Z</time></trkpt><trkpt lat="43.1898015" lon="12.0404792"><ele>307.0</ele><time>2026-05-02T11:52:46.713Z</time></trkpt><trkpt lat="43.1897717" lon="12.0403914"><ele>307.0</ele><time>2026-05-02T11:52:47.717Z</time></trkpt><trkpt lat="43.1897332" lon="12.0402711"><ele>304.5</ele><time>2026-05-02T11:52:49.725Z</time></trkpt><trkpt lat="43.1896728" lon="12.0401323"><ele>302.0</ele><time>2026-05-02T11:52:51.706Z</time></trkpt><trkpt lat="43.1896267" lon="12.0399896"><ele>299.5</ele><time>2026-05-02T11:52:53.723Z</time></trkpt><trkpt lat="43.1896398" lon="12.0398303"><ele>297.0</ele><time>2026-05-02T11:52:55.716Z</time></trkpt><trkpt lat="43.1897365" lon="12.0397168"><ele>297.0</ele><time>2026-05-02T11:52:57.71Z</time></trkpt><trkpt lat="43.1897999" lon="12.0396687"><ele>297.0</ele><time>2026-05-02T11:52:58.719Z</time></trkpt><trkpt lat="43.1898468" lon="12.0396054"><ele>297.0</ele><time>2026-05-02T11:52:59.717Z</time></trkpt><trkpt lat="43.1898151" lon="12.0394429"><ele>297.0</ele><time>2026-05-02T11:53:01.715Z</time></trkpt><trkpt lat="43.1897347" lon="12.0393885"><ele>297.0</ele><time>2026-05-02T11:53:02.71Z</time></trkpt><trkpt lat="43.1896362" lon="12.0393688"><ele>296.0</ele><time>2026-05-02T11:53:03.713Z</time></trkpt><trkpt lat="43.1895237" lon="12.0393449"><ele>295.0</ele><time>2026-05-02T11:53:04.715Z</time></trkpt><trkpt lat="43.1894066" lon="12.0393078"><ele>294.0</ele><time>2026-05-02T11:53:05.707Z</time></trkpt><trkpt lat="43.1892834" lon="12.0392682"><ele>293.0</ele><time>2026-05-02T11:53:06.734Z</time></trkpt><trkpt lat="43.1891635" lon="12.0392261"><ele>293.0</ele><time>2026-05-02T11:53:07.714Z</time></trkpt><trkpt lat="43.1890519" lon="12.0391887"><ele>293.0</ele><time>2026-05-02T11:53:08.715Z</time></trkpt><trkpt lat="43.1889438" lon="12.0391501"><ele>293.0</ele><time>2026-05-02T11:53:09.714Z</time></trkpt><trkpt lat="43.1888362" lon="12.0391171"><ele>293.0</ele><time>2026-05-02T11:53:10.717Z</time></trkpt><trkpt lat="43.188732" lon="12.0390787"><ele>293.0</ele><time>2026-05-02T11:53:11.715Z</time></trkpt><trkpt lat="43.1886249" lon="12.0390311"><ele>290.0</ele><time>2026-05-02T11:53:12.723Z</time></trkpt><trkpt lat="43.1885072" lon="12.0389652"><ele>287.0</ele><time>2026-05-02T11:53:13.723Z</time></trkpt><trkpt lat="43.1883868" lon="12.0388747"><ele>284.0</ele><time>2026-05-02T11:53:14.724Z</time></trkpt><trkpt lat="43.1882722" lon="12.0387648"><ele>281.0</ele><time>2026-05-02T11:53:15.71Z</time></trkpt><trkpt lat="43.1881563" lon="12.0386413"><ele>279.0</ele><time>2026-05-02T11:53:16.724Z</time></trkpt><trkpt lat="43.1880353" lon="12.0385035"><ele>277.0</ele><time>2026-05-02T11:53:17.718Z</time></trkpt><trkpt lat="43.1879108" lon="12.0383574"><ele>275.0</ele><time>2026-05-02T11:53:18.715Z</time></trkpt><trkpt lat="43.187791" lon="12.0382053"><ele>274.75</ele><time>2026-05-02T11:53:19.712Z</time></trkpt><trkpt lat="43.1876818" lon="12.0380618"><ele>274.5</ele><time>2026-05-02T11:53:20.716Z</time></trkpt><trkpt lat="43.1875919" lon="12.0379131"><ele>274.25</ele><time>2026-05-02T11:53:21.71Z</time></trkpt><trkpt lat="43.1875269" lon="12.0377416"><ele>274.0</ele><time>2026-05-02T11:53:22.715Z</time></trkpt><trkpt lat="43.187485" lon="12.0375362"><ele>272.0</ele><time>2026-05-02T11:53:23.71Z</time></trkpt><trkpt lat="43.1874486" lon="12.0373056"><ele>270.0</ele><time>2026-05-02T11:53:24.703Z</time></trkpt><trkpt lat="43.1874049" lon="12.037057"><ele>268.0</ele><time>2026-05-02T11:53:25.708Z</time></trkpt><trkpt lat="43.1873547" lon="12.0368045"><ele>266.3333333333333</ele><time>2026-05-02T11:53:26.71Z</time></trkpt><trkpt lat="43.1873091" lon="12.0365629"><ele>264.6666666666667</ele><time>2026-05-02T11:53:27.718Z</time></trkpt><trkpt lat="43.1872719" lon="12.0363284"><ele>263.0</ele><time>2026-05-02T11:53:28.72Z</time></trkpt><trkpt lat="43.1872362" lon="12.036098"><ele>263.0</ele><time>2026-05-02T11:53:29.71Z</time></trkpt><trkpt lat="43.1872017" lon="12.0358903"><ele>263.0</ele><time>2026-05-02T11:53:30.718Z</time></trkpt><trkpt lat="43.1871559" lon="12.0357168"><ele>263.0</ele><time>2026-05-02T11:53:31.707Z</time></trkpt><trkpt lat="43.1870868" lon="12.0355948"><ele>263.0</ele><time>2026-05-02T11:53:32.719Z</time></trkpt><trkpt lat="43.1869999" lon="12.0355258"><ele>263.0</ele><time>2026-05-02T11:53:33.718Z</time></trkpt><trkpt lat="43.1869082" lon="12.0354922"><ele>263.0</ele><time>2026-05-02T11:53:34.726Z</time></trkpt><trkpt lat="43.1868179" lon="12.0354565"><ele>263.0</ele><time>2026-05-02T11:53:35.717Z</time></trkpt><trkpt lat="43.1867364" lon="12.0353915"><ele>263.0</ele><time>2026-05-02T11:53:36.728Z</time></trkpt><trkpt lat="43.1866686" lon="12.0352967"><ele>263.0</ele><time>2026-05-02T11:53:37.711Z</time></trkpt><trkpt lat="43.1866374" lon="12.0351714"><ele>263.0</ele><time>2026-05-02T11:53:38.714Z</time></trkpt><trkpt lat="43.1866434" lon="12.035007"><ele>263.0</ele><time>2026-05-02T11:53:39.72Z</time></trkpt><trkpt lat="43.1866705" lon="12.0348231"><ele>263.0</ele><time>2026-05-02T11:53:40.714Z</time></trkpt><trkpt lat="43.1867001" lon="12.0346231"><ele>263.0</ele><time>2026-05-02T11:53:41.724Z</time></trkpt><trkpt lat="43.1867328" lon="12.034413"><ele>262.6666666666667</ele><time>2026-05-02T11:53:42.717Z</time></trkpt><trkpt lat="43.1867662" lon="12.0341987"><ele>262.3333333333333</ele><time>2026-05-02T11:53:43.721Z</time></trkpt><trkpt lat="43.1868074" lon="12.0339868"><ele>262.0</ele><time>2026-05-02T11:53:44.715Z</time></trkpt><trkpt lat="43.1868628" lon="12.0337763"><ele>261.66666666666663</ele><time>2026-05-02T11:53:45.721Z</time></trkpt><trkpt lat="43.1869228" lon="12.0335677"><ele>261.3333333333333</ele><time>2026-05-02T11:53:46.703Z</time></trkpt><trkpt lat="43.1869728" lon="12.033343"><ele>261.0</ele><time>2026-05-02T11:53:47.712Z</time></trkpt><trkpt lat="43.1870044" lon="12.033105"><ele>260.6666666666667</ele><time>2026-05-02T11:53:48.719Z</time></trkpt><trkpt lat="43.1870194" lon="12.0328418"><ele>260.33333333333337</ele><time>2026-05-02T11:53:49.714Z</time></trkpt><trkpt lat="43.1870154" lon="12.0325664"><ele>260.0</ele><time>2026-05-02T11:53:50.715Z</time></trkpt><trkpt lat="43.1869964" lon="12.0322851"><ele>260.0</ele><time>2026-05-02T11:53:51.718Z</time></trkpt><trkpt lat="43.1869785" lon="12.0320078"><ele>260.0</ele><time>2026-05-02T11:53:52.713Z</time></trkpt><trkpt lat="43.186972" lon="12.0317318"><ele>260.0</ele><time>2026-05-02T11:53:53.712Z</time></trkpt><trkpt lat="43.1869791" lon="12.0314635"><ele>260.0</ele><time>2026-05-02T11:53:54.721Z</time></trkpt><trkpt lat="43.1869979" lon="12.0312002"><ele>260.0</ele><time>2026-05-02T11:53:55.718Z</time></trkpt><trkpt lat="43.1870277" lon="12.030937"><ele>260.0</ele><time>2026-05-02T11:53:56.713Z</time></trkpt><trkpt lat="43.1870681" lon="12.0306773"><ele>260.33333333333337</ele><time>2026-05-02T11:53:57.725Z</time></trkpt><trkpt lat="43.1871307" lon="12.0304398"><ele>260.6666666666667</ele><time>2026-05-02T11:53:58.714Z</time></trkpt><trkpt lat="43.1872212" lon="12.0302309"><ele>261.0</ele><time>2026-05-02T11:53:59.719Z</time></trkpt><trkpt lat="43.1873301" lon="12.0300499"><ele>261.3333333333333</ele><time>2026-05-02T11:54:00.706Z</time></trkpt><trkpt lat="43.1874362" lon="12.0298861"><ele>261.66666666666663</ele><time>2026-05-02T11:54:01.712Z</time></trkpt><trkpt lat="43.1875154" lon="12.0297168"><ele>262.0</ele><time>2026-05-02T11:54:02.709Z</time></trkpt><trkpt lat="43.1875528" lon="12.0295251"><ele>262.0</ele><time>2026-05-02T11:54:03.718Z</time></trkpt><trkpt lat="43.1875444" lon="12.0293072"><ele>262.0</ele><time>2026-05-02T11:54:04.721Z</time></trkpt><trkpt lat="43.1875124" lon="12.0290676"><ele>262.0</ele><time>2026-05-02T11:54:05.715Z</time></trkpt><trkpt lat="43.1875089" lon="12.0288184"><ele>262.0</ele><time>2026-05-02T11:54:06.718Z</time></trkpt><trkpt lat="43.1875408" lon="12.0285465"><ele>262.0</ele><time>2026-05-02T11:54:07.715Z</time></trkpt><trkpt lat="43.1876106" lon="12.0282554"><ele>262.0</ele><time>2026-05-02T11:54:08.715Z</time></trkpt><trkpt lat="43.1876818" lon="12.0279661"><ele>261.66666666666663</ele><time>2026-05-02T11:54:09.713Z</time></trkpt><trkpt lat="43.1877493" lon="12.0276819"><ele>261.3333333333333</ele><time>2026-05-02T11:54:10.72Z</time></trkpt><trkpt lat="43.1878135" lon="12.027396"><ele>261.0</ele><time>2026-05-02T11:54:11.713Z</time></trkpt><trkpt lat="43.1878781" lon="12.0271053"><ele>261.0</ele><time>2026-05-02T11:54:12.716Z</time></trkpt><trkpt lat="43.1879436" lon="12.0268137"><ele>261.0</ele><time>2026-05-02T11:54:13.711Z</time></trkpt><trkpt lat="43.1880088" lon="12.0265226"><ele>261.0</ele><time>2026-05-02T11:54:14.703Z</time></trkpt><trkpt lat="43.1880724" lon="12.0262345"><ele>261.0</ele><time>2026-05-02T11:54:15.708Z</time></trkpt><trkpt lat="43.1881354" lon="12.0259461"><ele>261.0</ele><time>2026-05-02T11:54:16.706Z</time></trkpt><trkpt lat="43.1882021" lon="12.0256531"><ele>261.0</ele><time>2026-05-02T11:54:17.713Z</time></trkpt><trkpt lat="43.1882673" lon="12.0253618"><ele>261.0</ele><time>2026-05-02T11:54:18.717Z</time></trkpt><trkpt lat="43.1883326" lon="12.0250684"><ele>261.0</ele><time>2026-05-02T11:54:19.721Z</time></trkpt><trkpt lat="43.1883979" lon="12.0247772"><ele>261.0</ele><time>2026-05-02T11:54:20.716Z</time></trkpt><trkpt lat="43.1884609" lon="12.0244873"><ele>261.0</ele><time>2026-05-02T11:54:21.721Z</time></trkpt><trkpt lat="43.188523" lon="12.024213"><ele>261.0</ele><time>2026-05-02T11:54:22.713Z</time></trkpt><trkpt lat="43.1885913" lon="12.0239678"><ele>261.0</ele><time>2026-05-02T11:54:23.719Z</time></trkpt><trkpt lat="43.1886765" lon="12.023745"><ele>260.75</ele><time>2026-05-02T11:54:24.705Z</time></trkpt><trkpt lat="43.1887688" lon="12.0235557"><ele>260.5</ele><time>2026-05-02T11:54:25.708Z</time></trkpt><trkpt lat="43.1888496" lon="12.0233904"><ele>260.25</ele><time>2026-05-02T11:54:26.717Z</time></trkpt><trkpt lat="43.1889013" lon="12.0232411"><ele>260.0</ele><time>2026-05-02T11:54:27.713Z</time></trkpt><trkpt lat="43.188912" lon="12.0231179"><ele>260.0</ele><time>2026-05-02T11:54:28.717Z</time></trkpt><trkpt lat="43.1888895" lon="12.0230174"><ele>260.0</ele><time>2026-05-02T11:54:29.714Z</time></trkpt><trkpt lat="43.1888296" lon="12.0229491"><ele>260.0</ele><time>2026-05-02T11:54:30.719Z</time></trkpt><trkpt lat="43.1887563" lon="12.0229183"><ele>260.0</ele><time>2026-05-02T11:54:31.706Z</time></trkpt><trkpt lat="43.1886595" lon="12.0229253"><ele>260.0</ele><time>2026-05-02T11:54:32.717Z</time></trkpt><trkpt lat="43.1885515" lon="12.0229618"><ele>260.0</ele><time>2026-05-02T11:54:33.711Z</time></trkpt><trkpt lat="43.1884313" lon="12.0230148"><ele>260.0</ele><time>2026-05-02T11:54:34.702Z</time></trkpt><trkpt lat="43.1882935" lon="12.0230347"><ele>260.0</ele><time>2026-05-02T11:54:35.698Z</time></trkpt><trkpt lat="43.1881427" lon="12.023054"><ele>260.0</ele><time>2026-05-02T11:54:36.72Z</time></trkpt><trkpt lat="43.1879953" lon="12.0230969"><ele>260.0</ele><time>2026-05-02T11:54:37.711Z</time></trkpt><trkpt lat="43.1878506" lon="12.023154"><ele>260.0</ele><time>2026-05-02T11:54:38.709Z</time></trkpt><trkpt lat="43.187708" lon="12.0232268"><ele>260.0</ele><time>2026-05-02T11:54:39.719Z</time></trkpt><trkpt lat="43.1875826" lon="12.0232887"><ele>260.0</ele><time>2026-05-02T11:54:40.718Z</time></trkpt><trkpt lat="43.1874689" lon="12.0233289"><ele>260.0</ele><time>2026-05-02T11:54:41.722Z</time></trkpt><trkpt lat="43.1873725" lon="12.0233528"><ele>260.4</ele><time>2026-05-02T11:54:42.724Z</time></trkpt><trkpt lat="43.187284" lon="12.0233558"><ele>260.8</ele><time>2026-05-02T11:54:43.714Z</time></trkpt><trkpt lat="43.1871993" lon="12.0233384"><ele>261.2</ele><time>2026-05-02T11:54:44.725Z</time></trkpt><trkpt lat="43.1871147" lon="12.0232919"><ele>261.6</ele><time>2026-05-02T11:54:45.712Z</time></trkpt><trkpt lat="43.1870308" lon="12.0232345"><ele>262.0</ele><time>2026-05-02T11:54:46.724Z</time></trkpt><trkpt lat="43.1869498" lon="12.0231764"><ele>262.0</ele><time>2026-05-02T11:54:47.713Z</time></trkpt><trkpt lat="43.1868683" lon="12.0231426"><ele>262.0</ele><time>2026-05-02T11:54:48.736Z</time></trkpt><trkpt lat="43.1867824" lon="12.0231175"><ele>262.0</ele><time>2026-05-02T11:54:49.714Z</time></trkpt><trkpt lat="43.186692" lon="12.0231227"><ele>262.0</ele><time>2026-05-02T11:54:50.729Z</time></trkpt><trkpt lat="43.1866143" lon="12.0231352"><ele>262.0</ele><time>2026-05-02T11:54:51.732Z</time></trkpt><trkpt lat="43.1865486" lon="12.023139"><ele>262.0</ele><time>2026-05-02T11:54:52.73Z</time></trkpt><trkpt lat="43.1864429" lon="12.023156"><ele>262.0</ele><time>2026-05-02T11:54:54.723Z</time></trkpt><trkpt lat="43.186357" lon="12.0230942"><ele>262.0</ele><time>2026-05-02T11:54:56.711Z</time></trkpt><trkpt lat="43.1863284" lon="12.0230123"><ele>262.0</ele><time>2026-05-02T11:54:57.714Z</time></trkpt><trkpt lat="43.1862964" lon="12.0229046"><ele>262.0</ele><time>2026-05-02T11:54:58.724Z</time></trkpt><trkpt lat="43.186263" lon="12.022778"><ele>262.0</ele><time>2026-05-02T11:54:59.715Z</time></trkpt><trkpt lat="43.1862206" lon="12.0226465"><ele>262.0</ele><time>2026-05-02T11:55:00.712Z</time></trkpt><trkpt lat="43.186172" lon="12.022508"><ele>262.0</ele><time>2026-05-02T11:55:01.724Z</time></trkpt><trkpt lat="43.1861237" lon="12.0223584"><ele>262.0</ele><time>2026-05-02T11:55:02.739Z</time></trkpt><trkpt lat="43.1860767" lon="12.0221984"><ele>262.0</ele><time>2026-05-02T11:55:03.707Z</time></trkpt><trkpt lat="43.1860335" lon="12.0220225"><ele>262.0</ele><time>2026-05-02T11:55:04.726Z</time></trkpt><trkpt lat="43.1859922" lon="12.0218437"><ele>262.0</ele><time>2026-05-02T11:55:05.71Z</time></trkpt><trkpt lat="43.185949" lon="12.0216601"><ele>262.0</ele><time>2026-05-02T11:55:06.723Z</time></trkpt><trkpt lat="43.1859071" lon="12.0214708"><ele>262.0</ele><time>2026-05-02T11:55:07.725Z</time></trkpt><trkpt lat="43.185863" lon="12.0212811"><ele>262.0</ele><time>2026-05-02T11:55:08.73Z</time></trkpt><trkpt lat="43.1858191" lon="12.0211034"><ele>262.0</ele><time>2026-05-02T11:55:09.728Z</time></trkpt><trkpt lat="43.1857755" lon="12.0209379"><ele>262.0</ele><time>2026-05-02T11:55:10.731Z</time></trkpt><trkpt lat="43.1857316" lon="12.0207682"><ele>262.0</ele><time>2026-05-02T11:55:11.71Z</time></trkpt><trkpt lat="43.185686" lon="12.0205877"><ele>261.75</ele><time>2026-05-02T11:55:12.704Z</time></trkpt><trkpt lat="43.1856322" lon="12.0204041"><ele>261.5</ele><time>2026-05-02T11:55:13.707Z</time></trkpt><trkpt lat="43.1855625" lon="12.0202355"><ele>261.25</ele><time>2026-05-02T11:55:14.712Z</time></trkpt><trkpt lat="43.1854785" lon="12.0200856"><ele>261.0</ele><time>2026-05-02T11:55:15.719Z</time></trkpt><trkpt lat="43.1853842" lon="12.0199554"><ele>260.5</ele><time>2026-05-02T11:55:16.718Z</time></trkpt><trkpt lat="43.1852797" lon="12.0198432"><ele>260.0</ele><time>2026-05-02T11:55:17.709Z</time></trkpt><trkpt lat="43.1851687" lon="12.0197529"><ele>259.5</ele><time>2026-05-02T11:55:18.707Z</time></trkpt><trkpt lat="43.1850542" lon="12.0196761"><ele>259.0</ele><time>2026-05-02T11:55:19.716Z</time></trkpt><trkpt lat="43.1849463" lon="12.0195938"><ele>259.25</ele><time>2026-05-02T11:55:20.706Z</time></trkpt><trkpt lat="43.1848423" lon="12.0195055"><ele>259.5</ele><time>2026-05-02T11:55:21.721Z</time></trkpt><trkpt lat="43.1847379" lon="12.0194142"><ele>259.75</ele><time>2026-05-02T11:55:22.719Z</time></trkpt><trkpt lat="43.1846293" lon="12.0193213"><ele>260.0</ele><time>2026-05-02T11:55:23.715Z</time></trkpt><trkpt lat="43.1845202" lon="12.0192281"><ele>259.75</ele><time>2026-05-02T11:55:24.718Z</time></trkpt><trkpt lat="43.184411" lon="12.0191389"><ele>259.5</ele><time>2026-05-02T11:55:25.717Z</time></trkpt><trkpt lat="43.1842998" lon="12.0190534"><ele>259.25</ele><time>2026-05-02T11:55:26.712Z</time></trkpt><trkpt lat="43.1841815" lon="12.0189682"><ele>259.0</ele><time>2026-05-02T11:55:27.7Z</time></trkpt><trkpt lat="43.1840631" lon="12.0188808"><ele>259.0</ele><time>2026-05-02T11:55:28.715Z</time></trkpt><trkpt lat="43.1839437" lon="12.0187796"><ele>259.0</ele><time>2026-05-02T11:55:29.711Z</time></trkpt><trkpt lat="43.1838274" lon="12.0186654"><ele>259.0</ele><time>2026-05-02T11:55:30.721Z</time></trkpt><trkpt lat="43.1837064" lon="12.018543"><ele>259.0</ele><time>2026-05-02T11:55:31.721Z</time></trkpt><trkpt lat="43.1835812" lon="12.0184267"><ele>259.66666666666663</ele><time>2026-05-02T11:55:32.708Z</time></trkpt><trkpt lat="43.1834511" lon="12.0183076"><ele>260.3333333333333</ele><time>2026-05-02T11:55:33.719Z</time></trkpt><trkpt lat="43.1833232" lon="12.0181979"><ele>261.0</ele><time>2026-05-02T11:55:34.714Z</time></trkpt><trkpt lat="43.1831948" lon="12.0180869"><ele>261.3333333333333</ele><time>2026-05-02T11:55:35.718Z</time></trkpt><trkpt lat="43.1830691" lon="12.0179705"><ele>261.66666666666663</ele><time>2026-05-02T11:55:36.715Z</time></trkpt><trkpt lat="43.1829445" lon="12.0178522"><ele>262.0</ele><time>2026-05-02T11:55:37.714Z</time></trkpt><trkpt lat="43.1828235" lon="12.0177278"><ele>262.0</ele><time>2026-05-02T11:55:38.716Z</time></trkpt><trkpt lat="43.1827009" lon="12.0175983"><ele>262.0</ele><time>2026-05-02T11:55:39.718Z</time></trkpt><trkpt lat="43.1825765" lon="12.0174662"><ele>262.0</ele><time>2026-05-02T11:55:40.717Z</time></trkpt><trkpt lat="43.182454" lon="12.0173262"><ele>262.3333333333333</ele><time>2026-05-02T11:55:41.713Z</time></trkpt><trkpt lat="43.1823303" lon="12.0171684"><ele>262.6666666666667</ele><time>2026-05-02T11:55:42.716Z</time></trkpt><trkpt lat="43.1822141" lon="12.0169921"><ele>263.0</ele><time>2026-05-02T11:55:43.707Z</time></trkpt><trkpt lat="43.1821201" lon="12.0167823"><ele>264.0</ele><time>2026-05-02T11:55:44.724Z</time></trkpt><trkpt lat="43.1820353" lon="12.0165575"><ele>265.0</ele><time>2026-05-02T11:55:45.714Z</time></trkpt><trkpt lat="43.1819504" lon="12.0163385"><ele>266.0</ele><time>2026-05-02T11:55:46.714Z</time></trkpt><trkpt lat="43.1818622" lon="12.0161192"><ele>266.0</ele><time>2026-05-02T11:55:47.716Z</time></trkpt><trkpt lat="43.1817741" lon="12.0159029"><ele>266.0</ele><time>2026-05-02T11:55:48.7Z</time></trkpt><trkpt lat="43.1816885" lon="12.0156964"><ele>266.0</ele><time>2026-05-02T11:55:49.715Z</time></trkpt><trkpt lat="43.1816049" lon="12.0155037"><ele>266.0</ele><time>2026-05-02T11:55:50.705Z</time></trkpt><trkpt lat="43.1815244" lon="12.0153081"><ele>266.0</ele><time>2026-05-02T11:55:51.707Z</time></trkpt><trkpt lat="43.181444" lon="12.0151123"><ele>266.0</ele><time>2026-05-02T11:55:52.704Z</time></trkpt><trkpt lat="43.181365" lon="12.0149105"><ele>266.33333333333337</ele><time>2026-05-02T11:55:53.71Z</time></trkpt><trkpt lat="43.1812831" lon="12.01471"><ele>266.6666666666667</ele><time>2026-05-02T11:55:54.709Z</time></trkpt><trkpt lat="43.1812025" lon="12.0145141"><ele>267.0</ele><time>2026-05-02T11:55:55.712Z</time></trkpt><trkpt lat="43.181125" lon="12.0143318"><ele>266.8</ele><time>2026-05-02T11:55:56.705Z</time></trkpt><trkpt lat="43.1810727" lon="12.014153"><ele>266.6</ele><time>2026-05-02T11:55:57.705Z</time></trkpt><trkpt lat="43.1810487" lon="12.0139909"><ele>266.40000000000003</ele><time>2026-05-02T11:55:58.717Z</time></trkpt><trkpt lat="43.1810475" lon="12.013864"><ele>266.2</ele><time>2026-05-02T11:55:59.71Z</time></trkpt><trkpt lat="43.1810453" lon="12.0137689"><ele>266.0</ele><time>2026-05-02T11:56:00.71Z</time></trkpt><trkpt lat="43.1810096" lon="12.0136338"><ele>266.0</ele><time>2026-05-02T11:56:02.717Z</time></trkpt><trkpt lat="43.1809081" lon="12.0135724"><ele>266.0</ele><time>2026-05-02T11:56:04.717Z</time></trkpt><trkpt lat="43.1808179" lon="12.013563"><ele>266.0</ele><time>2026-05-02T11:56:05.712Z</time></trkpt><trkpt lat="43.1807133" lon="12.0135736"><ele>266.0</ele><time>2026-05-02T11:56:06.709Z</time></trkpt><trkpt lat="43.1806042" lon="12.0135822"><ele>266.0</ele><time>2026-05-02T11:56:07.71Z</time></trkpt><trkpt lat="43.1804909" lon="12.013585"><ele>266.5</ele><time>2026-05-02T11:56:08.706Z</time></trkpt><trkpt lat="43.1803673" lon="12.0135941"><ele>267.0</ele><time>2026-05-02T11:56:09.723Z</time></trkpt><trkpt lat="43.1802386" lon="12.0136029"><ele>267.5</ele><time>2026-05-02T11:56:10.708Z</time></trkpt><trkpt lat="43.1801034" lon="12.0136161"><ele>268.0</ele><time>2026-05-02T11:56:11.71Z</time></trkpt><trkpt lat="43.1799678" lon="12.013621"><ele>267.5</ele><time>2026-05-02T11:56:12.712Z</time></trkpt><trkpt lat="43.1798308" lon="12.0136289"><ele>267.0</ele><time>2026-05-02T11:56:13.709Z</time></trkpt><trkpt lat="43.1796904" lon="12.0136419"><ele>266.5</ele><time>2026-05-02T11:56:14.718Z</time></trkpt><trkpt lat="43.1795444" lon="12.0136539"><ele>266.0</ele><time>2026-05-02T11:56:15.712Z</time></trkpt><trkpt lat="43.1793933" lon="12.0136625"><ele>266.0</ele><time>2026-05-02T11:56:16.718Z</time></trkpt><trkpt lat="43.179238" lon="12.0136713"><ele>266.0</ele><time>2026-05-02T11:56:17.728Z</time></trkpt><trkpt lat="43.1790821" lon="12.013682"><ele>266.0</ele><time>2026-05-02T11:56:18.735Z</time></trkpt><trkpt lat="43.1789241" lon="12.0136906"><ele>265.6666666666667</ele><time>2026-05-02T11:56:19.718Z</time></trkpt><trkpt lat="43.1787661" lon="12.0136966"><ele>265.3333333333333</ele><time>2026-05-02T11:56:20.714Z</time></trkpt><trkpt lat="43.1786081" lon="12.0137023"><ele>265.0</ele><time>2026-05-02T11:56:21.727Z</time></trkpt><trkpt lat="43.1784473" lon="12.0137141"><ele>265.0</ele><time>2026-05-02T11:56:22.716Z</time></trkpt><trkpt lat="43.1782782" lon="12.0137319"><ele>265.0</ele><time>2026-05-02T11:56:23.728Z</time></trkpt><trkpt lat="43.178104" lon="12.0137475"><ele>265.0</ele><time>2026-05-02T11:56:24.721Z</time></trkpt><trkpt lat="43.1779242" lon="12.0137586"><ele>264.66666666666663</ele><time>2026-05-02T11:56:25.731Z</time></trkpt><trkpt lat="43.1777398" lon="12.0137673"><ele>264.3333333333333</ele><time>2026-05-02T11:56:26.721Z</time></trkpt><trkpt lat="43.1775572" lon="12.013774"><ele>264.0</ele><time>2026-05-02T11:56:27.724Z</time></trkpt><trkpt lat="43.1773761" lon="12.0137846"><ele>264.0</ele><time>2026-05-02T11:56:28.725Z</time></trkpt><trkpt lat="43.1771962" lon="12.0137988"><ele>264.0</ele><time>2026-05-02T11:56:29.73Z</time></trkpt><trkpt lat="43.1770185" lon="12.013812"><ele>264.0</ele><time>2026-05-02T11:56:30.721Z</time></trkpt><trkpt lat="43.1768503" lon="12.0138222"><ele>264.0</ele><time>2026-05-02T11:56:31.715Z</time></trkpt><trkpt lat="43.1766891" lon="12.0138328"><ele>264.0</ele><time>2026-05-02T11:56:32.73Z</time></trkpt><trkpt lat="43.1765325" lon="12.013844"><ele>264.0</ele><time>2026-05-02T11:56:33.714Z</time></trkpt><trkpt lat="43.1763758" lon="12.0138552"><ele>264.0</ele><time>2026-05-02T11:56:34.734Z</time></trkpt><trkpt lat="43.1762148" lon="12.0138686"><ele>264.0</ele><time>2026-05-02T11:56:35.724Z</time></trkpt><trkpt lat="43.1760482" lon="12.013883"><ele>264.0</ele><time>2026-05-02T11:56:36.732Z</time></trkpt><trkpt lat="43.175881" lon="12.0138916"><ele>264.0</ele><time>2026-05-02T11:56:37.716Z</time></trkpt><trkpt lat="43.1757128" lon="12.0139009"><ele>264.0</ele><time>2026-05-02T11:56:38.724Z</time></trkpt><trkpt lat="43.1755437" lon="12.0139102"><ele>264.0</ele><time>2026-05-02T11:56:39.721Z</time></trkpt><trkpt lat="43.1753694" lon="12.0139224"><ele>264.0</ele><time>2026-05-02T11:56:40.732Z</time></trkpt><trkpt lat="43.1751894" lon="12.0139374"><ele>264.0</ele><time>2026-05-02T11:56:41.716Z</time></trkpt><trkpt lat="43.1750042" lon="12.013949"><ele>264.0</ele><time>2026-05-02T11:56:42.725Z</time></trkpt><trkpt lat="43.1748097" lon="12.0139608"><ele>263.6666666666667</ele><time>2026-05-02T11:56:43.708Z</time></trkpt><trkpt lat="43.1746048" lon="12.0139733"><ele>263.33333333333337</ele><time>2026-05-02T11:56:44.72Z</time></trkpt><trkpt lat="43.1743956" lon="12.013993"><ele>263.0</ele><time>2026-05-02T11:56:45.702Z</time></trkpt><trkpt lat="43.1741822" lon="12.0140141"><ele>263.0</ele><time>2026-05-02T11:56:46.715Z</time></trkpt><trkpt lat="43.1739633" lon="12.0140312"><ele>263.0</ele><time>2026-05-02T11:56:47.718Z</time></trkpt><trkpt lat="43.1737413" lon="12.0140491"><ele>263.0</ele><time>2026-05-02T11:56:48.72Z</time></trkpt><trkpt lat="43.1735177" lon="12.0140546"><ele>263.0</ele><time>2026-05-02T11:56:49.719Z</time></trkpt><trkpt lat="43.1732915" lon="12.0140621"><ele>263.0</ele><time>2026-05-02T11:56:50.713Z</time></trkpt><trkpt lat="43.1730646" lon="12.0140676"><ele>262.6666666666667</ele><time>2026-05-02T11:56:51.711Z</time></trkpt><trkpt lat="43.1728387" lon="12.0140767"><ele>262.3333333333333</ele><time>2026-05-02T11:56:52.725Z</time></trkpt><trkpt lat="43.1726169" lon="12.0140897"><ele>262.0</ele><time>2026-05-02T11:56:53.709Z</time></trkpt><trkpt lat="43.1724033" lon="12.0141037"><ele>262.0</ele><time>2026-05-02T11:56:54.725Z</time></trkpt><trkpt lat="43.1721945" lon="12.0141177"><ele>262.0</ele><time>2026-05-02T11:56:55.72Z</time></trkpt><trkpt lat="43.1719872" lon="12.0141303"><ele>262.0</ele><time>2026-05-02T11:56:56.722Z</time></trkpt><trkpt lat="43.1717793" lon="12.0141425"><ele>262.0</ele><time>2026-05-02T11:56:57.721Z</time></trkpt><trkpt lat="43.1715704" lon="12.0141572"><ele>262.0</ele><time>2026-05-02T11:56:58.698Z</time></trkpt><trkpt lat="43.1713618" lon="12.0141727"><ele>262.0</ele><time>2026-05-02T11:56:59.715Z</time></trkpt><trkpt lat="43.1711527" lon="12.0141853"><ele>262.0</ele><time>2026-05-02T11:57:00.734Z</time></trkpt><trkpt lat="43.1709419" lon="12.0142022"><ele>262.0</ele><time>2026-05-02T11:57:01.716Z</time></trkpt><trkpt lat="43.1707296" lon="12.0142218"><ele>262.0</ele><time>2026-05-02T11:57:02.715Z</time></trkpt><trkpt lat="43.1705161" lon="12.0142397"><ele>261.66666666666663</ele><time>2026-05-02T11:57:03.707Z</time></trkpt><trkpt lat="43.1703013" lon="12.0142597"><ele>261.3333333333333</ele><time>2026-05-02T11:57:04.714Z</time></trkpt><trkpt lat="43.1700865" lon="12.0142739"><ele>261.0</ele><time>2026-05-02T11:57:05.716Z</time></trkpt><trkpt lat="43.1698728" lon="12.0142904"><ele>261.0</ele><time>2026-05-02T11:57:06.725Z</time></trkpt><trkpt lat="43.1696605" lon="12.0143033"><ele>261.0</ele><time>2026-05-02T11:57:07.717Z</time></trkpt><trkpt lat="43.1694514" lon="12.0143193"><ele>261.0</ele><time>2026-05-02T11:57:08.722Z</time></trkpt><trkpt lat="43.1692431" lon="12.0143397"><ele>261.0</ele><time>2026-05-02T11:57:09.714Z</time></trkpt><trkpt lat="43.1690336" lon="12.0143668"><ele>261.0</ele><time>2026-05-02T11:57:10.73Z</time></trkpt><trkpt lat="43.1688246" lon="12.0143908"><ele>261.0</ele><time>2026-05-02T11:57:11.714Z</time></trkpt><trkpt lat="43.1686147" lon="12.0144118"><ele>261.0</ele><time>2026-05-02T11:57:12.713Z</time></trkpt><trkpt lat="43.1684047" lon="12.0144304"><ele>261.0</ele><time>2026-05-02T11:57:13.715Z</time></trkpt><trkpt lat="43.1681914" lon="12.0144488"><ele>261.0</ele><time>2026-05-02T11:57:14.727Z</time></trkpt><trkpt lat="43.1679756" lon="12.014466"><ele>261.3333333333333</ele><time>2026-05-02T11:57:15.724Z</time></trkpt><trkpt lat="43.1677581" lon="12.014487"><ele>261.66666666666663</ele><time>2026-05-02T11:57:16.724Z</time></trkpt><trkpt lat="43.1675398" lon="12.0145166"><ele>262.0</ele><time>2026-05-02T11:57:17.715Z</time></trkpt><trkpt lat="43.1673198" lon="12.0145467"><ele>261.3333333333333</ele><time>2026-05-02T11:57:18.706Z</time></trkpt><trkpt lat="43.1671035" lon="12.014584"><ele>260.6666666666667</ele><time>2026-05-02T11:57:19.72Z</time></trkpt><trkpt lat="43.1668903" lon="12.0146251"><ele>260.0</ele><time>2026-05-02T11:57:20.719Z</time></trkpt><trkpt lat="43.1666749" lon="12.0146649"><ele>260.6666666666667</ele><time>2026-05-02T11:57:21.72Z</time></trkpt><trkpt lat="43.1664626" lon="12.0147081"><ele>261.3333333333333</ele><time>2026-05-02T11:57:22.719Z</time></trkpt><trkpt lat="43.16626" lon="12.0147591"><ele>262.0</ele><time>2026-05-02T11:57:23.71Z</time></trkpt><trkpt lat="43.1660753" lon="12.0148075"><ele>262.0</ele><time>2026-05-02T11:57:24.702Z</time></trkpt><trkpt lat="43.1659069" lon="12.0148572"><ele>262.0</ele><time>2026-05-02T11:57:25.709Z</time></trkpt><trkpt lat="43.1657472" lon="12.014901"><ele>262.0</ele><time>2026-05-02T11:57:26.715Z</time></trkpt><trkpt lat="43.1655991" lon="12.0149434"><ele>262.0</ele><time>2026-05-02T11:57:27.711Z</time></trkpt><trkpt lat="43.1654737" lon="12.0149757"><ele>262.0</ele><time>2026-05-02T11:57:28.717Z</time></trkpt><trkpt lat="43.1653702" lon="12.0150055"><ele>262.0</ele><time>2026-05-02T11:57:29.721Z</time></trkpt><trkpt lat="43.165282" lon="12.0150224"><ele>262.0</ele><time>2026-05-02T11:57:30.715Z</time></trkpt><trkpt lat="43.1652075" lon="12.0150125"><ele>262.0</ele><time>2026-05-02T11:57:31.719Z</time></trkpt><trkpt lat="43.1651456" lon="12.0149789"><ele>262.4</ele><time>2026-05-02T11:57:32.708Z</time></trkpt><trkpt lat="43.1650594" lon="12.0148489"><ele>262.79999999999995</ele><time>2026-05-02T11:57:34.726Z</time></trkpt><trkpt lat="43.1650322" lon="12.0147419"><ele>263.2</ele><time>2026-05-02T11:57:35.72Z</time></trkpt><trkpt lat="43.1650113" lon="12.0146216"><ele>263.59999999999997</ele><time>2026-05-02T11:57:36.722Z</time></trkpt><trkpt lat="43.1649928" lon="12.0144804"><ele>264.0</ele><time>2026-05-02T11:57:37.717Z</time></trkpt><trkpt lat="43.1649662" lon="12.0143187"><ele>264.25</ele><time>2026-05-02T11:57:38.712Z</time></trkpt><trkpt lat="43.1649305" lon="12.0141362"><ele>264.5</ele><time>2026-05-02T11:57:39.695Z</time></trkpt><trkpt lat="43.1648689" lon="12.0139454"><ele>264.75</ele><time>2026-05-02T11:57:40.704Z</time></trkpt><trkpt lat="43.1648218" lon="12.0137406"><ele>265.0</ele><time>2026-05-02T11:57:41.71Z</time></trkpt><trkpt lat="43.1647803" lon="12.0135359"><ele>264.75</ele><time>2026-05-02T11:57:42.699Z</time></trkpt><trkpt lat="43.1647407" lon="12.0133299"><ele>264.5</ele><time>2026-05-02T11:57:43.712Z</time></trkpt><trkpt lat="43.1647018" lon="12.0131404"><ele>264.25</ele><time>2026-05-02T11:57:44.719Z</time></trkpt><trkpt lat="43.1646656" lon="12.012966"><ele>264.0</ele><time>2026-05-02T11:57:45.726Z</time></trkpt><trkpt lat="43.164626" lon="12.0128096"><ele>264.0</ele><time>2026-05-02T11:57:46.708Z</time></trkpt><trkpt lat="43.1645922" lon="12.0126749"><ele>264.0</ele><time>2026-05-02T11:57:47.71Z</time></trkpt><trkpt lat="43.1645612" lon="12.0125506"><ele>264.0</ele><time>2026-05-02T11:57:48.71Z</time></trkpt><trkpt lat="43.1645287" lon="12.0124376"><ele>264.0</ele><time>2026-05-02T11:57:49.713Z</time></trkpt><trkpt lat="43.1644944" lon="12.012326"><ele>264.0</ele><time>2026-05-02T11:57:50.716Z</time></trkpt><trkpt lat="43.1644563" lon="12.0122027"><ele>264.2</ele><time>2026-05-02T11:57:51.719Z</time></trkpt><trkpt lat="43.1644131" lon="12.0120753"><ele>264.4</ele><time>2026-05-02T11:57:52.703Z</time></trkpt><trkpt lat="43.164366" lon="12.0119505"><ele>264.6</ele><time>2026-05-02T11:57:53.712Z</time></trkpt><trkpt lat="43.1643197" lon="12.0118254"><ele>264.8</ele><time>2026-05-02T11:57:54.739Z</time></trkpt><trkpt lat="43.1642747" lon="12.0117018"><ele>265.0</ele><time>2026-05-02T11:57:55.703Z</time></trkpt><trkpt lat="43.164231" lon="12.0115754"><ele>265.2</ele><time>2026-05-02T11:57:56.729Z</time></trkpt><trkpt lat="43.1641855" lon="12.0114519"><ele>265.4</ele><time>2026-05-02T11:57:57.716Z</time></trkpt><trkpt lat="43.1641373" lon="12.0113267"><ele>265.6</ele><time>2026-05-02T11:57:58.71Z</time></trkpt><trkpt lat="43.1640888" lon="12.0112006"><ele>265.8</ele><time>2026-05-02T11:57:59.707Z</time></trkpt><trkpt lat="43.164039" lon="12.0110751"><ele>266.0</ele><time>2026-05-02T11:58:00.717Z</time></trkpt><trkpt lat="43.1639921" lon="12.0109502"><ele>266.6</ele><time>2026-05-02T11:58:01.706Z</time></trkpt><trkpt lat="43.1639438" lon="12.0108243"><ele>267.20000000000005</ele><time>2026-05-02T11:58:02.723Z</time></trkpt><trkpt lat="43.1638985" lon="12.0106977"><ele>267.79999999999995</ele><time>2026-05-02T11:58:03.713Z</time></trkpt><trkpt lat="43.1638506" lon="12.0105673"><ele>268.4</ele><time>2026-05-02T11:58:04.718Z</time></trkpt><trkpt lat="43.163803" lon="12.0104408"><ele>269.0</ele><time>2026-05-02T11:58:05.718Z</time></trkpt><trkpt lat="43.1637526" lon="12.0103092"><ele>269.0</ele><time>2026-05-02T11:58:06.728Z</time></trkpt><trkpt lat="43.16369" lon="12.0101451"><ele>269.0</ele><time>2026-05-02T11:58:07.722Z</time></trkpt><trkpt lat="43.163615" lon="12.0099571"><ele>269.0</ele><time>2026-05-02T11:58:08.73Z</time></trkpt><trkpt lat="43.1635469" lon="12.0097732"><ele>269.0</ele><time>2026-05-02T11:58:09.722Z</time></trkpt><trkpt lat="43.1634812" lon="12.0096049"><ele>269.25</ele><time>2026-05-02T11:58:10.71Z</time></trkpt><trkpt lat="43.1634238" lon="12.0094503"><ele>269.5</ele><time>2026-05-02T11:58:11.715Z</time></trkpt><trkpt lat="43.1633661" lon="12.0092998"><ele>269.75</ele><time>2026-05-02T11:58:12.722Z</time></trkpt><trkpt lat="43.1633037" lon="12.0091504"><ele>270.0</ele><time>2026-05-02T11:58:13.72Z</time></trkpt><trkpt lat="43.1632308" lon="12.0089974"><ele>270.0</ele><time>2026-05-02T11:58:14.721Z</time></trkpt><trkpt lat="43.1631529" lon="12.0088477"><ele>270.0</ele><time>2026-05-02T11:58:15.708Z</time></trkpt><trkpt lat="43.1630683" lon="12.0086989"><ele>270.0</ele><time>2026-05-02T11:58:16.717Z</time></trkpt><trkpt lat="43.1629768" lon="12.0085505"><ele>270.0</ele><time>2026-05-02T11:58:17.712Z</time></trkpt><trkpt lat="43.1628794" lon="12.0084047"><ele>270.0</ele><time>2026-05-02T11:58:18.721Z</time></trkpt><trkpt lat="43.1627839" lon="12.0082636"><ele>270.0</ele><time>2026-05-02T11:58:19.712Z</time></trkpt><trkpt lat="43.1626877" lon="12.0081027"><ele>270.0</ele><time>2026-05-02T11:58:20.721Z</time></trkpt><trkpt lat="43.1625926" lon="12.0079339"><ele>270.0</ele><time>2026-05-02T11:58:21.707Z</time></trkpt><trkpt lat="43.1624861" lon="12.007753"><ele>270.0</ele><time>2026-05-02T11:58:22.739Z</time></trkpt><trkpt lat="43.1623666" lon="12.007564"><ele>270.0</ele><time>2026-05-02T11:58:23.712Z</time></trkpt><trkpt lat="43.1622545" lon="12.0073844"><ele>270.0</ele><time>2026-05-02T11:58:24.71Z</time></trkpt><trkpt lat="43.1621577" lon="12.0072248"><ele>271.0</ele><time>2026-05-02T11:58:25.71Z</time></trkpt><trkpt lat="43.1620701" lon="12.0070784"><ele>272.0</ele><time>2026-05-02T11:58:26.719Z</time></trkpt><trkpt lat="43.1619848" lon="12.0069383"><ele>273.0</ele><time>2026-05-02T11:58:27.709Z</time></trkpt><trkpt lat="43.1619017" lon="12.0068024"><ele>274.0</ele><time>2026-05-02T11:58:28.706Z</time></trkpt><trkpt lat="43.161814" lon="12.0066637"><ele>274.25</ele><time>2026-05-02T11:58:29.703Z</time></trkpt><trkpt lat="43.1617259" lon="12.0065238"><ele>274.5</ele><time>2026-05-02T11:58:30.707Z</time></trkpt><trkpt lat="43.1616368" lon="12.0063808"><ele>274.75</ele><time>2026-05-02T11:58:31.7Z</time></trkpt><trkpt lat="43.1615486" lon="12.0062448"><ele>275.0</ele><time>2026-05-02T11:58:32.723Z</time></trkpt><trkpt lat="43.1614701" lon="12.0061069"><ele>275.75</ele><time>2026-05-02T11:58:33.714Z</time></trkpt><trkpt lat="43.1614049" lon="12.0059596"><ele>276.5</ele><time>2026-05-02T11:58:34.715Z</time></trkpt><trkpt lat="43.1613503" lon="12.0058034"><ele>277.25</ele><time>2026-05-02T11:58:35.709Z</time></trkpt><trkpt lat="43.1613026" lon="12.00564"><ele>278.0</ele><time>2026-05-02T11:58:36.721Z</time></trkpt><trkpt lat="43.1612547" lon="12.0054748"><ele>278.0</ele><time>2026-05-02T11:58:37.719Z</time></trkpt><trkpt lat="43.1612158" lon="12.0053121"><ele>278.0</ele><time>2026-05-02T11:58:38.715Z</time></trkpt><trkpt lat="43.1611798" lon="12.0051644"><ele>278.0</ele><time>2026-05-02T11:58:39.712Z</time></trkpt><trkpt lat="43.1611477" lon="12.0050325"><ele>278.0</ele><time>2026-05-02T11:58:40.707Z</time></trkpt><trkpt lat="43.1611186" lon="12.004913"><ele>278.0</ele><time>2026-05-02T11:58:41.713Z</time></trkpt><trkpt lat="43.1610949" lon="12.0047966"><ele>278.0</ele><time>2026-05-02T11:58:42.726Z</time></trkpt><trkpt lat="43.1610701" lon="12.0046771"><ele>278.0</ele><time>2026-05-02T11:58:43.705Z</time></trkpt><trkpt lat="43.1610422" lon="12.0045507"><ele>278.0</ele><time>2026-05-02T11:58:44.715Z</time></trkpt><trkpt lat="43.1610148" lon="12.0044206"><ele>278.0</ele><time>2026-05-02T11:58:45.711Z</time></trkpt><trkpt lat="43.1609787" lon="12.0042888"><ele>278.0</ele><time>2026-05-02T11:58:46.71Z</time></trkpt><trkpt lat="43.1609496" lon="12.0041709"><ele>278.0</ele><time>2026-05-02T11:58:47.716Z</time></trkpt><trkpt lat="43.1609233" lon="12.0040516"><ele>278.0</ele><time>2026-05-02T11:58:48.715Z</time></trkpt><trkpt lat="43.1608965" lon="12.0039286"><ele>278.0</ele><time>2026-05-02T11:58:49.704Z</time></trkpt><trkpt lat="43.1608682" lon="12.0038035"><ele>278.0</ele><time>2026-05-02T11:58:50.724Z</time></trkpt><trkpt lat="43.1608397" lon="12.0036741"><ele>278.0</ele><time>2026-05-02T11:58:51.72Z</time></trkpt><trkpt lat="43.1608092" lon="12.0035513"><ele>278.0</ele><time>2026-05-02T11:58:52.708Z</time></trkpt><trkpt lat="43.1607788" lon="12.0034226"><ele>278.0</ele><time>2026-05-02T11:58:53.701Z</time></trkpt><trkpt lat="43.1607493" lon="12.0032771"><ele>278.0</ele><time>2026-05-02T11:58:54.709Z</time></trkpt><trkpt lat="43.1607169" lon="12.0031241"><ele>278.0</ele><time>2026-05-02T11:58:55.71Z</time></trkpt><trkpt lat="43.1606912" lon="12.0029812"><ele>278.0</ele><time>2026-05-02T11:58:56.702Z</time></trkpt><trkpt lat="43.1606625" lon="12.0028534"><ele>278.6666666666667</ele><time>2026-05-02T11:58:57.707Z</time></trkpt><trkpt lat="43.1606416" lon="12.0027541"><ele>279.33333333333337</ele><time>2026-05-02T11:58:58.704Z</time></trkpt><trkpt lat="43.1605965" lon="12.0026724"><ele>280.0</ele><time>2026-05-02T11:59:00.709Z</time></trkpt><trkpt lat="43.1605138" lon="12.0026712"><ele>280.6666666666667</ele><time>2026-05-02T11:59:02.711Z</time></trkpt><trkpt lat="43.160386" lon="12.0027031"><ele>281.3333333333333</ele><time>2026-05-02T11:59:04.719Z</time></trkpt><trkpt lat="43.1603113" lon="12.002711"><ele>282.0</ele><time>2026-05-02T11:59:05.698Z</time></trkpt><trkpt lat="43.1602291" lon="12.0027209"><ele>282.0</ele><time>2026-05-02T11:59:06.708Z</time></trkpt><trkpt lat="43.1601335" lon="12.0027444"><ele>282.0</ele><time>2026-05-02T11:59:07.716Z</time></trkpt><trkpt lat="43.160031" lon="12.0027685"><ele>282.0</ele><time>2026-05-02T11:59:08.711Z</time></trkpt><trkpt lat="43.1599236" lon="12.0027985"><ele>282.0</ele><time>2026-05-02T11:59:09.711Z</time></trkpt><trkpt lat="43.1598203" lon="12.0028185"><ele>282.0</ele><time>2026-05-02T11:59:10.719Z</time></trkpt><trkpt lat="43.1597205" lon="12.0028425"><ele>281.8333333333333</ele><time>2026-05-02T11:59:11.725Z</time></trkpt><trkpt lat="43.1596307" lon="12.0028608"><ele>281.6666666666667</ele><time>2026-05-02T11:59:12.722Z</time></trkpt><trkpt lat="43.159546" lon="12.0028786"><ele>281.5</ele><time>2026-05-02T11:59:13.72Z</time></trkpt><trkpt lat="43.1594685" lon="12.0029162"><ele>281.33333333333337</ele><time>2026-05-02T11:59:14.714Z</time></trkpt><trkpt lat="43.1593832" lon="12.0029499"><ele>281.1666666666667</ele><time>2026-05-02T11:59:15.719Z</time></trkpt><trkpt lat="43.1592981" lon="12.0029827"><ele>281.0</ele><time>2026-05-02T11:59:16.698Z</time></trkpt><trkpt lat="43.1592233" lon="12.0030369"><ele>281.0</ele><time>2026-05-02T11:59:17.697Z</time></trkpt><trkpt lat="43.1591622" lon="12.0030951"><ele>281.0</ele><time>2026-05-02T11:59:18.71Z</time></trkpt><trkpt lat="43.1591042" lon="12.0031639"><ele>281.0</ele><time>2026-05-02T11:59:19.718Z</time></trkpt><trkpt lat="43.1590404" lon="12.0032424"><ele>281.0</ele><time>2026-05-02T11:59:20.712Z</time></trkpt><trkpt lat="43.1589801" lon="12.0033225"><ele>281.0</ele><time>2026-05-02T11:59:21.71Z</time></trkpt><trkpt lat="43.1589099" lon="12.0033932"><ele>281.0</ele><time>2026-05-02T11:59:22.714Z</time></trkpt><trkpt lat="43.1588381" lon="12.0034574"><ele>280.6</ele><time>2026-05-02T11:59:23.708Z</time></trkpt><trkpt lat="43.158767" lon="12.0035215"><ele>280.20000000000005</ele><time>2026-05-02T11:59:24.723Z</time></trkpt><trkpt lat="43.1586963" lon="12.0035777"><ele>279.79999999999995</ele><time>2026-05-02T11:59:25.703Z</time></trkpt><trkpt lat="43.1586002" lon="12.0036597"><ele>279.4</ele><time>2026-05-02T11:59:27.71Z</time></trkpt><trkpt lat="43.1585318" lon="12.0037581"><ele>279.0</ele><time>2026-05-02T11:59:29.705Z</time></trkpt><trkpt lat="43.1584678" lon="12.0038419"><ele>279.0</ele><time>2026-05-02T11:59:31.703Z</time></trkpt><trkpt lat="43.1583648" lon="12.0039233"><ele>279.0</ele><time>2026-05-02T11:59:33.704Z</time></trkpt><trkpt lat="43.1583002" lon="12.0039669"><ele>279.0</ele><time>2026-05-02T11:59:34.704Z</time></trkpt><trkpt lat="43.1582291" lon="12.0040118"><ele>279.0</ele><time>2026-05-02T11:59:35.713Z</time></trkpt><trkpt lat="43.1581529" lon="12.0040656"><ele>279.0</ele><time>2026-05-02T11:59:36.715Z</time></trkpt><trkpt lat="43.1580777" lon="12.0041275"><ele>279.0</ele><time>2026-05-02T11:59:37.709Z</time></trkpt><trkpt lat="43.1580073" lon="12.0041845"><ele>278.6666666666667</ele><time>2026-05-02T11:59:38.703Z</time></trkpt><trkpt lat="43.1579387" lon="12.0042364"><ele>278.3333333333333</ele><time>2026-05-02T11:59:39.71Z</time></trkpt><trkpt lat="43.1578642" lon="12.0042809"><ele>278.0</ele><time>2026-05-02T11:59:40.699Z</time></trkpt><trkpt lat="43.1577798" lon="12.0043192"><ele>277.66666666666663</ele><time>2026-05-02T11:59:41.701Z</time></trkpt><trkpt lat="43.1576958" lon="12.0043529"><ele>277.3333333333333</ele><time>2026-05-02T11:59:42.71Z</time></trkpt><trkpt lat="43.1576069" lon="12.0043815"><ele>277.0</ele><time>2026-05-02T11:59:43.712Z</time></trkpt><trkpt lat="43.1575147" lon="12.0044198"><ele>277.0</ele><time>2026-05-02T11:59:44.709Z</time></trkpt><trkpt lat="43.1574289" lon="12.0044756"><ele>277.0</ele><time>2026-05-02T11:59:45.708Z</time></trkpt><trkpt lat="43.1573447" lon="12.0045284"><ele>277.0</ele><time>2026-05-02T11:59:46.719Z</time></trkpt><trkpt lat="43.1572642" lon="12.0045756"><ele>277.0</ele><time>2026-05-02T11:59:47.707Z</time></trkpt><trkpt lat="43.1571942" lon="12.0046176"><ele>277.0</ele><time>2026-05-02T11:59:48.709Z</time></trkpt><trkpt lat="43.1571324" lon="12.0046424"><ele>277.0</ele><time>2026-05-02T11:59:49.692Z</time></trkpt><trkpt lat="43.1570193" lon="12.0046859"><ele>276.8</ele><time>2026-05-02T11:59:51.697Z</time></trkpt><trkpt lat="43.1569218" lon="12.0047424"><ele>276.6</ele><time>2026-05-02T11:59:53.71Z</time></trkpt><trkpt lat="43.1568249" lon="12.0047511"><ele>276.40000000000003</ele><time>2026-05-02T11:59:55.717Z</time></trkpt><trkpt lat="43.1567301" lon="12.0047313"><ele>276.2</ele><time>2026-05-02T11:59:57.711Z</time></trkpt><trkpt lat="43.1566311" lon="12.004671"><ele>276.0</ele><time>2026-05-02T11:59:59.7Z</time></trkpt><trkpt lat="43.1565711" lon="12.0046371"><ele>276.14285714285717</ele><time>2026-05-02T12:00:00.713Z</time></trkpt><trkpt lat="43.1565034" lon="12.0045991"><ele>276.28571428571433</ele><time>2026-05-02T12:00:01.711Z</time></trkpt><trkpt lat="43.1564378" lon="12.004561"><ele>276.42857142857144</ele><time>2026-05-02T12:00:02.714Z</time></trkpt><trkpt lat="43.1563641" lon="12.0045221"><ele>276.57142857142856</ele><time>2026-05-02T12:00:03.702Z</time></trkpt><trkpt lat="43.1562863" lon="12.0044877"><ele>276.71428571428567</ele><time>2026-05-02T12:00:04.708Z</time></trkpt><trkpt lat="43.1562171" lon="12.004452"><ele>276.85714285714283</ele><time>2026-05-02T12:00:05.719Z</time></trkpt><trkpt lat="43.1561564" lon="12.0044244"><ele>277.0</ele><time>2026-05-02T12:00:06.717Z</time></trkpt><trkpt lat="43.1560395" lon="12.0043691"><ele>277.0</ele><time>2026-05-02T12:00:08.714Z</time></trkpt><trkpt lat="43.1559791" lon="12.0043384"><ele>277.0</ele><time>2026-05-02T12:00:09.702Z</time></trkpt><trkpt lat="43.1559174" lon="12.0042966"><ele>277.0</ele><time>2026-05-02T12:00:10.717Z</time></trkpt><trkpt lat="43.155851" lon="12.0042422"><ele>277.0</ele><time>2026-05-02T12:00:11.705Z</time></trkpt><trkpt lat="43.1557819" lon="12.0041881"><ele>277.0</ele><time>2026-05-02T12:00:12.721Z</time></trkpt><trkpt lat="43.1557125" lon="12.0041291"><ele>277.0</ele><time>2026-05-02T12:00:13.713Z</time></trkpt><trkpt lat="43.155644" lon="12.0040762"><ele>276.8333333333333</ele><time>2026-05-02T12:00:14.716Z</time></trkpt><trkpt lat="43.155585" lon="12.0040291"><ele>276.66666666666663</ele><time>2026-05-02T12:00:15.716Z</time></trkpt><trkpt lat="43.1554781" lon="12.0039347"><ele>276.5</ele><time>2026-05-02T12:00:17.714Z</time></trkpt><trkpt lat="43.1554156" lon="12.0038854"><ele>276.3333333333333</ele><time>2026-05-02T12:00:18.723Z</time></trkpt><trkpt lat="43.1553471" lon="12.0038407"><ele>276.1666666666667</ele><time>2026-05-02T12:00:19.714Z</time></trkpt><trkpt lat="43.1552732" lon="12.0038001"><ele>276.0</ele><time>2026-05-02T12:00:20.72Z</time></trkpt><trkpt lat="43.1551942" lon="12.0037469"><ele>276.0</ele><time>2026-05-02T12:00:21.717Z</time></trkpt><trkpt lat="43.1551106" lon="12.0036844"><ele>276.0</ele><time>2026-05-02T12:00:22.712Z</time></trkpt><trkpt lat="43.1550202" lon="12.0036234"><ele>276.0</ele><time>2026-05-02T12:00:23.711Z</time></trkpt><trkpt lat="43.1549266" lon="12.0035647"><ele>276.0</ele><time>2026-05-02T12:00:24.72Z</time></trkpt><trkpt lat="43.1548233" lon="12.0035011"><ele>276.0</ele><time>2026-05-02T12:00:25.702Z</time></trkpt><trkpt lat="43.1547167" lon="12.0034291"><ele>276.0</ele><time>2026-05-02T12:00:26.721Z</time></trkpt><trkpt lat="43.1546139" lon="12.0033588"><ele>276.0</ele><time>2026-05-02T12:00:27.708Z</time></trkpt><trkpt lat="43.1545109" lon="12.0032891"><ele>276.0</ele><time>2026-05-02T12:00:28.72Z</time></trkpt><trkpt lat="43.1544074" lon="12.0032142"><ele>276.0</ele><time>2026-05-02T12:00:29.718Z</time></trkpt><trkpt lat="43.1543043" lon="12.003149"><ele>276.0</ele><time>2026-05-02T12:00:30.723Z</time></trkpt><trkpt lat="43.1542006" lon="12.0030829"><ele>276.0</ele><time>2026-05-02T12:00:31.707Z</time></trkpt><trkpt lat="43.1540986" lon="12.0030207"><ele>276.0</ele><time>2026-05-02T12:00:32.723Z</time></trkpt><trkpt lat="43.1539953" lon="12.0029552"><ele>276.0</ele><time>2026-05-02T12:00:33.714Z</time></trkpt><trkpt lat="43.1538886" lon="12.0028876"><ele>275.75</ele><time>2026-05-02T12:00:34.724Z</time></trkpt><trkpt lat="43.1537689" lon="12.0028208"><ele>275.5</ele><time>2026-05-02T12:00:35.722Z</time></trkpt><trkpt lat="43.1536495" lon="12.0027479"><ele>275.25</ele><time>2026-05-02T12:00:36.72Z</time></trkpt><trkpt lat="43.153535" lon="12.0026772"><ele>275.0</ele><time>2026-05-02T12:00:37.717Z</time></trkpt><trkpt lat="43.153426" lon="12.0026035"><ele>275.0</ele><time>2026-05-02T12:00:38.72Z</time></trkpt><trkpt lat="43.1533118" lon="12.002529"><ele>275.0</ele><time>2026-05-02T12:00:39.719Z</time></trkpt><trkpt lat="43.1531904" lon="12.0024621"><ele>275.0</ele><time>2026-05-02T12:00:40.717Z</time></trkpt><trkpt lat="43.1530685" lon="12.0024091"><ele>275.0</ele><time>2026-05-02T12:00:41.701Z</time></trkpt><trkpt lat="43.1529451" lon="12.0023741"><ele>275.5</ele><time>2026-05-02T12:00:42.726Z</time></trkpt><trkpt lat="43.1528184" lon="12.0023424"><ele>276.0</ele><time>2026-05-02T12:00:43.71Z</time></trkpt><trkpt lat="43.1526943" lon="12.002301"><ele>276.5</ele><time>2026-05-02T12:00:44.726Z</time></trkpt><trkpt lat="43.1525723" lon="12.0022409"><ele>277.0</ele><time>2026-05-02T12:00:45.719Z</time></trkpt><trkpt lat="43.1524625" lon="12.0021478"><ele>276.75</ele><time>2026-05-02T12:00:46.716Z</time></trkpt><trkpt lat="43.1523699" lon="12.0020619"><ele>276.5</ele><time>2026-05-02T12:00:47.717Z</time></trkpt><trkpt lat="43.1522812" lon="12.0019792"><ele>276.25</ele><time>2026-05-02T12:00:48.717Z</time></trkpt><trkpt lat="43.1521837" lon="12.0018916"><ele>276.0</ele><time>2026-05-02T12:00:49.71Z</time></trkpt><trkpt lat="43.1520836" lon="12.0018102"><ele>276.0</ele><time>2026-05-02T12:00:50.716Z</time></trkpt><trkpt lat="43.1519805" lon="12.0017283"><ele>276.0</ele><time>2026-05-02T12:00:51.704Z</time></trkpt><trkpt lat="43.1518797" lon="12.0016408"><ele>276.0</ele><time>2026-05-02T12:00:52.717Z</time></trkpt><trkpt lat="43.1517889" lon="12.0015564"><ele>276.0</ele><time>2026-05-02T12:00:53.712Z</time></trkpt><trkpt lat="43.1516958" lon="12.0014663"><ele>276.0</ele><time>2026-05-02T12:00:54.711Z</time></trkpt><trkpt lat="43.1515994" lon="12.0013708"><ele>276.0</ele><time>2026-05-02T12:00:55.717Z</time></trkpt><trkpt lat="43.1514995" lon="12.0012809"><ele>276.0</ele><time>2026-05-02T12:00:56.725Z</time></trkpt><trkpt lat="43.1513986" lon="12.0011888"><ele>276.0</ele><time>2026-05-02T12:00:57.724Z</time></trkpt><trkpt lat="43.1512929" lon="12.0010937"><ele>276.0</ele><time>2026-05-02T12:00:58.721Z</time></trkpt><trkpt lat="43.151186" lon="12.0009946"><ele>276.0</ele><time>2026-05-02T12:00:59.719Z</time></trkpt><trkpt lat="43.1510719" lon="12.000897"><ele>276.0</ele><time>2026-05-02T12:01:00.718Z</time></trkpt><trkpt lat="43.1509529" lon="12.0007972"><ele>276.0</ele><time>2026-05-02T12:01:01.716Z</time></trkpt><trkpt lat="43.1508328" lon="12.000689"><ele>276.25</ele><time>2026-05-02T12:01:02.724Z</time></trkpt><trkpt lat="43.1507109" lon="12.0005788"><ele>276.5</ele><time>2026-05-02T12:01:03.716Z</time></trkpt><trkpt lat="43.150598" lon="12.0004772"><ele>276.75</ele><time>2026-05-02T12:01:04.705Z</time></trkpt><trkpt lat="43.1505017" lon="12.0003868"><ele>277.0</ele><time>2026-05-02T12:01:05.73Z</time></trkpt><trkpt lat="43.1504238" lon="12.0003117"><ele>277.0</ele><time>2026-05-02T12:01:06.716Z</time></trkpt><trkpt lat="43.1503677" lon="12.0002554"><ele>277.0</ele><time>2026-05-02T12:01:07.709Z</time></trkpt><trkpt lat="43.1502996" lon="12.0002023"><ele>277.0</ele><time>2026-05-02T12:01:09.715Z</time></trkpt><trkpt lat="43.1502177" lon="12.0002018"><ele>277.0</ele><time>2026-05-02T12:01:11.709Z</time></trkpt><trkpt lat="43.1501424" lon="12.0002213"><ele>277.0</ele><time>2026-05-02T12:01:12.718Z</time></trkpt><trkpt lat="43.1500463" lon="12.0002543"><ele>277.0</ele><time>2026-05-02T12:01:13.71Z</time></trkpt><trkpt lat="43.149937" lon="12.0002969"><ele>276.75</ele><time>2026-05-02T12:01:14.712Z</time></trkpt><trkpt lat="43.1498206" lon="12.0003495"><ele>276.5</ele><time>2026-05-02T12:01:15.725Z</time></trkpt><trkpt lat="43.149692" lon="12.0004051"><ele>276.25</ele><time>2026-05-02T12:01:16.707Z</time></trkpt><trkpt lat="43.1495533" lon="12.0004641"><ele>276.0</ele><time>2026-05-02T12:01:17.709Z</time></trkpt><trkpt lat="43.1494071" lon="12.0005299"><ele>276.0</ele><time>2026-05-02T12:01:18.709Z</time></trkpt><trkpt lat="43.1492585" lon="12.0005926"><ele>276.0</ele><time>2026-05-02T12:01:19.716Z</time></trkpt><trkpt lat="43.149104" lon="12.0006551"><ele>276.0</ele><time>2026-05-02T12:01:20.727Z</time></trkpt><trkpt lat="43.1489515" lon="12.0007254"><ele>276.3333333333333</ele><time>2026-05-02T12:01:21.716Z</time></trkpt><trkpt lat="43.1487962" lon="12.0007925"><ele>276.66666666666663</ele><time>2026-05-02T12:01:22.712Z</time></trkpt><trkpt lat="43.1486391" lon="12.0008613"><ele>277.0</ele><time>2026-05-02T12:01:23.725Z</time></trkpt><trkpt lat="43.1484817" lon="12.0009301"><ele>277.3333333333333</ele><time>2026-05-02T12:01:24.713Z</time></trkpt><trkpt lat="43.1483215" lon="12.0010044"><ele>277.6666666666667</ele><time>2026-05-02T12:01:25.717Z</time></trkpt><trkpt lat="43.1481604" lon="12.0010739"><ele>278.0</ele><time>2026-05-02T12:01:26.723Z</time></trkpt><trkpt lat="43.1479977" lon="12.0011459"><ele>277.0</ele><time>2026-05-02T12:01:27.712Z</time></trkpt><trkpt lat="43.1478346" lon="12.0012161"><ele>276.0</ele><time>2026-05-02T12:01:28.7Z</time></trkpt><trkpt lat="43.1476808" lon="12.0012849"><ele>275.0</ele><time>2026-05-02T12:01:29.727Z</time></trkpt><trkpt lat="43.147535" lon="12.0013473"><ele>275.0</ele><time>2026-05-02T12:01:30.732Z</time></trkpt><trkpt lat="43.1473878" lon="12.0014103"><ele>275.0</ele><time>2026-05-02T12:01:31.71Z</time></trkpt><trkpt lat="43.1472326" lon="12.0014752"><ele>275.0</ele><time>2026-05-02T12:01:32.732Z</time></trkpt><trkpt lat="43.1470778" lon="12.0015396"><ele>275.33333333333337</ele><time>2026-05-02T12:01:33.718Z</time></trkpt><trkpt lat="43.1469231" lon="12.0016068"><ele>275.6666666666667</ele><time>2026-05-02T12:01:34.716Z</time></trkpt><trkpt lat="43.1467723" lon="12.0016742"><ele>276.0</ele><time>2026-05-02T12:01:35.721Z</time></trkpt><trkpt lat="43.1466234" lon="12.0017404"><ele>275.6666666666667</ele><time>2026-05-02T12:01:36.715Z</time></trkpt><trkpt lat="43.1464739" lon="12.0018056"><ele>275.33333333333337</ele><time>2026-05-02T12:01:37.716Z</time></trkpt><trkpt lat="43.1463227" lon="12.0018712"><ele>275.0</ele><time>2026-05-02T12:01:38.708Z</time></trkpt><trkpt lat="43.1461692" lon="12.0019382"><ele>275.0</ele><time>2026-05-02T12:01:39.716Z</time></trkpt><trkpt lat="43.1460084" lon="12.0020056"><ele>275.0</ele><time>2026-05-02T12:01:40.721Z</time></trkpt><trkpt lat="43.1458407" lon="12.0020767"><ele>275.0</ele><time>2026-05-02T12:01:41.709Z</time></trkpt><trkpt lat="43.1456698" lon="12.002147"><ele>274.6666666666667</ele><time>2026-05-02T12:01:42.717Z</time></trkpt><trkpt lat="43.1454954" lon="12.0022201"><ele>274.3333333333333</ele><time>2026-05-02T12:01:43.717Z</time></trkpt><trkpt lat="43.1453158" lon="12.0022941"><ele>274.0</ele><time>2026-05-02T12:01:44.72Z</time></trkpt><trkpt lat="43.1451365" lon="12.0023724"><ele>274.0</ele><time>2026-05-02T12:01:45.725Z</time></trkpt><trkpt lat="43.144954" lon="12.0024491"><ele>274.0</ele><time>2026-05-02T12:01:46.712Z</time></trkpt><trkpt lat="43.1447686" lon="12.0025318"><ele>274.0</ele><time>2026-05-02T12:01:47.722Z</time></trkpt><trkpt lat="43.1445829" lon="12.0026098"><ele>273.3333333333333</ele><time>2026-05-02T12:01:48.728Z</time></trkpt><trkpt lat="43.1443992" lon="12.0026909"><ele>272.6666666666667</ele><time>2026-05-02T12:01:49.714Z</time></trkpt><trkpt lat="43.1442152" lon="12.0027695"><ele>272.0</ele><time>2026-05-02T12:01:50.732Z</time></trkpt><trkpt lat="43.1440332" lon="12.0028481"><ele>271.6666666666667</ele><time>2026-05-02T12:01:51.717Z</time></trkpt><trkpt lat="43.1438537" lon="12.0029262"><ele>271.3333333333333</ele><time>2026-05-02T12:01:52.72Z</time></trkpt><trkpt lat="43.1436767" lon="12.0030032"><ele>271.0</ele><time>2026-05-02T12:01:53.707Z</time></trkpt><trkpt lat="43.1434965" lon="12.0030759"><ele>271.0</ele><time>2026-05-02T12:01:54.712Z</time></trkpt><trkpt lat="43.1433201" lon="12.003148"><ele>271.0</ele><time>2026-05-02T12:01:55.714Z</time></trkpt><trkpt lat="43.1431447" lon="12.0032211"><ele>271.0</ele><time>2026-05-02T12:01:56.72Z</time></trkpt><trkpt lat="43.142971" lon="12.0032965"><ele>272.0</ele><time>2026-05-02T12:01:57.713Z</time></trkpt><trkpt lat="43.1427936" lon="12.0033698"><ele>273.0</ele><time>2026-05-02T12:01:58.716Z</time></trkpt><trkpt lat="43.1426167" lon="12.0034443"><ele>274.0</ele><time>2026-05-02T12:01:59.711Z</time></trkpt><trkpt lat="43.1424421" lon="12.0035225"><ele>273.66666666666663</ele><time>2026-05-02T12:02:00.725Z</time></trkpt><trkpt lat="43.1422682" lon="12.0036027"><ele>273.3333333333333</ele><time>2026-05-02T12:02:01.709Z</time></trkpt><trkpt lat="43.1420953" lon="12.0036858"><ele>273.0</ele><time>2026-05-02T12:02:02.714Z</time></trkpt><trkpt lat="43.1419282" lon="12.0037864"><ele>273.0</ele><time>2026-05-02T12:02:03.703Z</time></trkpt><trkpt lat="43.1417727" lon="12.0039107"><ele>273.0</ele><time>2026-05-02T12:02:04.707Z</time></trkpt><trkpt lat="43.1416267" lon="12.004066"><ele>273.0</ele><time>2026-05-02T12:02:05.71Z</time></trkpt><trkpt lat="43.1414909" lon="12.0042441"><ele>273.6666666666667</ele><time>2026-05-02T12:02:06.714Z</time></trkpt><trkpt lat="43.141362" lon="12.0044322"><ele>274.33333333333337</ele><time>2026-05-02T12:02:07.718Z</time></trkpt><trkpt lat="43.141235" lon="12.0046213"><ele>275.0</ele><time>2026-05-02T12:02:08.714Z</time></trkpt><trkpt lat="43.1411052" lon="12.004808"><ele>275.0</ele><time>2026-05-02T12:02:09.714Z</time></trkpt><trkpt lat="43.1409786" lon="12.0049913"><ele>275.0</ele><time>2026-05-02T12:02:10.712Z</time></trkpt><trkpt lat="43.1408514" lon="12.00517"><ele>275.0</ele><time>2026-05-02T12:02:11.721Z</time></trkpt><trkpt lat="43.1407272" lon="12.005354"><ele>274.6666666666667</ele><time>2026-05-02T12:02:12.72Z</time></trkpt><trkpt lat="43.1406065" lon="12.0055321"><ele>274.3333333333333</ele><time>2026-05-02T12:02:13.712Z</time></trkpt><trkpt lat="43.1404839" lon="12.0057055"><ele>274.0</ele><time>2026-05-02T12:02:14.716Z</time></trkpt><trkpt lat="43.1403663" lon="12.0058776"><ele>274.66666666666663</ele><time>2026-05-02T12:02:15.714Z</time></trkpt><trkpt lat="43.140249" lon="12.0060454"><ele>275.3333333333333</ele><time>2026-05-02T12:02:16.73Z</time></trkpt><trkpt lat="43.1401342" lon="12.0062207"><ele>276.0</ele><time>2026-05-02T12:02:17.713Z</time></trkpt><trkpt lat="43.1400227" lon="12.0063926"><ele>276.0</ele><time>2026-05-02T12:02:18.709Z</time></trkpt><trkpt lat="43.1399126" lon="12.0065642"><ele>276.0</ele><time>2026-05-02T12:02:19.707Z</time></trkpt><trkpt lat="43.1398072" lon="12.0067195"><ele>276.0</ele><time>2026-05-02T12:02:20.707Z</time></trkpt><trkpt lat="43.1397066" lon="12.0068586"><ele>276.25</ele><time>2026-05-02T12:02:21.692Z</time></trkpt><trkpt lat="43.1396161" lon="12.0069969"><ele>276.5</ele><time>2026-05-02T12:02:22.711Z</time></trkpt><trkpt lat="43.1395307" lon="12.0071211"><ele>276.75</ele><time>2026-05-02T12:02:23.723Z</time></trkpt><trkpt lat="43.1394493" lon="12.0072359"><ele>277.0</ele><time>2026-05-02T12:02:24.706Z</time></trkpt><trkpt lat="43.1393621" lon="12.0073513"><ele>277.0</ele><time>2026-05-02T12:02:25.717Z</time></trkpt><trkpt lat="43.1392693" lon="12.0074645"><ele>277.0</ele><time>2026-05-02T12:02:26.727Z</time></trkpt><trkpt lat="43.1391672" lon="12.0075754"><ele>277.0</ele><time>2026-05-02T12:02:27.707Z</time></trkpt><trkpt lat="43.1390546" lon="12.0076643"><ele>277.0</ele><time>2026-05-02T12:02:28.713Z</time></trkpt><trkpt lat="43.1389472" lon="12.0077261"><ele>277.5</ele><time>2026-05-02T12:02:29.715Z</time></trkpt><trkpt lat="43.1388382" lon="12.0077796"><ele>278.0</ele><time>2026-05-02T12:02:30.711Z</time></trkpt><trkpt lat="43.1387475" lon="12.0078504"><ele>278.5</ele><time>2026-05-02T12:02:31.713Z</time></trkpt><trkpt lat="43.1386741" lon="12.0079638"><ele>279.0</ele><time>2026-05-02T12:02:32.716Z</time></trkpt><trkpt lat="43.1386173" lon="12.0081086"><ele>279.0</ele><time>2026-05-02T12:02:33.72Z</time></trkpt><trkpt lat="43.1385859" lon="12.0082619"><ele>279.0</ele><time>2026-05-02T12:02:34.713Z</time></trkpt><trkpt lat="43.138592" lon="12.008433"><ele>279.0</ele><time>2026-05-02T12:02:35.717Z</time></trkpt><trkpt lat="43.1386289" lon="12.0085995"><ele>279.0</ele><time>2026-05-02T12:02:36.719Z</time></trkpt><trkpt lat="43.1386753" lon="12.0087663"><ele>279.0</ele><time>2026-05-02T12:02:37.721Z</time></trkpt><trkpt lat="43.1387234" lon="12.0089303"><ele>279.0</ele><time>2026-05-02T12:02:38.714Z</time></trkpt><trkpt lat="43.1387655" lon="12.0091017"><ele>279.0</ele><time>2026-05-02T12:02:39.718Z</time></trkpt><trkpt lat="43.1387985" lon="12.0092781"><ele>279.0</ele><time>2026-05-02T12:02:40.716Z</time></trkpt><trkpt lat="43.1388152" lon="12.0094661"><ele>279.0</ele><time>2026-05-02T12:02:41.726Z</time></trkpt><trkpt lat="43.1388203" lon="12.0096641"><ele>279.0</ele><time>2026-05-02T12:02:42.709Z</time></trkpt><trkpt lat="43.1388256" lon="12.0098706"><ele>279.0</ele><time>2026-05-02T12:02:43.707Z</time></trkpt><trkpt lat="43.1388319" lon="12.010083"><ele>278.6666666666667</ele><time>2026-05-02T12:02:44.719Z</time></trkpt><trkpt lat="43.1388419" lon="12.0102991"><ele>278.33333333333337</ele><time>2026-05-02T12:02:45.713Z</time></trkpt><trkpt lat="43.138853" lon="12.0105204"><ele>278.0</ele><time>2026-05-02T12:02:46.713Z</time></trkpt><trkpt lat="43.1388762" lon="12.0107365"><ele>277.6666666666667</ele><time>2026-05-02T12:02:47.712Z</time></trkpt><trkpt lat="43.1388916" lon="12.0109607"><ele>277.3333333333333</ele><time>2026-05-02T12:02:48.715Z</time></trkpt><trkpt lat="43.1389101" lon="12.0111776"><ele>277.0</ele><time>2026-05-02T12:02:49.717Z</time></trkpt><trkpt lat="43.1389294" lon="12.0113917"><ele>277.0</ele><time>2026-05-02T12:02:50.711Z</time></trkpt><trkpt lat="43.1389458" lon="12.0116041"><ele>277.0</ele><time>2026-05-02T12:02:51.714Z</time></trkpt><trkpt lat="43.1389406" lon="12.0118028"><ele>277.0</ele><time>2026-05-02T12:02:52.714Z</time></trkpt><trkpt lat="43.1389076" lon="12.0119717"><ele>277.0</ele><time>2026-05-02T12:02:53.722Z</time></trkpt><trkpt lat="43.1388396" lon="12.012122"><ele>276.75</ele><time>2026-05-02T12:02:54.712Z</time></trkpt><trkpt lat="43.1387438" lon="12.0122625"><ele>276.5</ele><time>2026-05-02T12:02:55.722Z</time></trkpt><trkpt lat="43.1386342" lon="12.0124048"><ele>276.25</ele><time>2026-05-02T12:02:56.725Z</time></trkpt><trkpt lat="43.138523" lon="12.0125471"><ele>276.0</ele><time>2026-05-02T12:02:57.707Z</time></trkpt><trkpt lat="43.1384109" lon="12.0126981"><ele>276.0</ele><time>2026-05-02T12:02:58.712Z</time></trkpt><trkpt lat="43.1382979" lon="12.0128454"><ele>276.0</ele><time>2026-05-02T12:02:59.713Z</time></trkpt><trkpt lat="43.1381795" lon="12.0129959"><ele>276.0</ele><time>2026-05-02T12:03:00.722Z</time></trkpt><trkpt lat="43.1380588" lon="12.0131486"><ele>276.3333333333333</ele><time>2026-05-02T12:03:01.72Z</time></trkpt><trkpt lat="43.1379341" lon="12.0133133"><ele>276.66666666666663</ele><time>2026-05-02T12:03:02.716Z</time></trkpt><trkpt lat="43.1378086" lon="12.0134773"><ele>277.0</ele><time>2026-05-02T12:03:03.717Z</time></trkpt><trkpt lat="43.1376834" lon="12.0136476"><ele>277.0</ele><time>2026-05-02T12:03:04.715Z</time></trkpt><trkpt lat="43.1375554" lon="12.013825"><ele>277.0</ele><time>2026-05-02T12:03:05.717Z</time></trkpt><trkpt lat="43.1374273" lon="12.0140031"><ele>277.0</ele><time>2026-05-02T12:03:06.717Z</time></trkpt><trkpt lat="43.1372993" lon="12.0141744"><ele>278.3333333333333</ele><time>2026-05-02T12:03:07.722Z</time></trkpt><trkpt lat="43.137167" lon="12.0143441"><ele>279.6666666666667</ele><time>2026-05-02T12:03:08.714Z</time></trkpt><trkpt lat="43.1370363" lon="12.0145234"><ele>281.0</ele><time>2026-05-02T12:03:09.721Z</time></trkpt><trkpt lat="43.1369077" lon="12.0147068"><ele>281.0</ele><time>2026-05-02T12:03:10.716Z</time></trkpt><trkpt lat="43.1367789" lon="12.01489"><ele>281.0</ele><time>2026-05-02T12:03:11.72Z</time></trkpt><trkpt lat="43.1366487" lon="12.0150691"><ele>281.0</ele><time>2026-05-02T12:03:12.711Z</time></trkpt><trkpt lat="43.1365145" lon="12.0152435"><ele>281.0</ele><time>2026-05-02T12:03:13.723Z</time></trkpt><trkpt lat="43.1363804" lon="12.0154202"><ele>281.0</ele><time>2026-05-02T12:03:14.712Z</time></trkpt><trkpt lat="43.1362517" lon="12.0156023"><ele>281.0</ele><time>2026-05-02T12:03:15.715Z</time></trkpt><trkpt lat="43.1361249" lon="12.0157862"><ele>279.33333333333337</ele><time>2026-05-02T12:03:16.718Z</time></trkpt><trkpt lat="43.1359983" lon="12.0159672"><ele>277.6666666666667</ele><time>2026-05-02T12:03:17.723Z</time></trkpt><trkpt lat="43.1358705" lon="12.0161481"><ele>276.0</ele><time>2026-05-02T12:03:18.708Z</time></trkpt><trkpt lat="43.1357438" lon="12.0163326"><ele>276.0</ele><time>2026-05-02T12:03:19.702Z</time></trkpt><trkpt lat="43.135618" lon="12.0165258"><ele>276.0</ele><time>2026-05-02T12:03:20.712Z</time></trkpt><trkpt lat="43.1354947" lon="12.0167195"><ele>276.0</ele><time>2026-05-02T12:03:21.71Z</time></trkpt><trkpt lat="43.1353705" lon="12.0169135"><ele>276.0</ele><time>2026-05-02T12:03:22.726Z</time></trkpt><trkpt lat="43.1352464" lon="12.0171117"><ele>276.0</ele><time>2026-05-02T12:03:23.716Z</time></trkpt><trkpt lat="43.1351204" lon="12.017308"><ele>276.0</ele><time>2026-05-02T12:03:24.716Z</time></trkpt><trkpt lat="43.1349927" lon="12.0175028"><ele>275.3333333333333</ele><time>2026-05-02T12:03:25.713Z</time></trkpt><trkpt lat="43.1348652" lon="12.0176927"><ele>274.66666666666663</ele><time>2026-05-02T12:03:26.704Z</time></trkpt><trkpt lat="43.1347369" lon="12.0178791"><ele>274.0</ele><time>2026-05-02T12:03:27.714Z</time></trkpt><trkpt lat="43.1346091" lon="12.0180669"><ele>274.0</ele><time>2026-05-02T12:03:28.711Z</time></trkpt><trkpt lat="43.134483" lon="12.0182529"><ele>274.0</ele><time>2026-05-02T12:03:29.706Z</time></trkpt><trkpt lat="43.1343619" lon="12.0184429"><ele>274.0</ele><time>2026-05-02T12:03:30.718Z</time></trkpt><trkpt lat="43.1342446" lon="12.0186338"><ele>274.0</ele><time>2026-05-02T12:03:31.716Z</time></trkpt><trkpt lat="43.1341325" lon="12.0188296"><ele>274.0</ele><time>2026-05-02T12:03:32.728Z</time></trkpt><trkpt lat="43.1340254" lon="12.0190294"><ele>274.0</ele><time>2026-05-02T12:03:33.711Z</time></trkpt><trkpt lat="43.1339227" lon="12.0192352"><ele>273.3333333333333</ele><time>2026-05-02T12:03:34.725Z</time></trkpt><trkpt lat="43.1338206" lon="12.0194425"><ele>272.6666666666667</ele><time>2026-05-02T12:03:35.722Z</time></trkpt><trkpt lat="43.1337167" lon="12.0196453"><ele>272.0</ele><time>2026-05-02T12:03:36.718Z</time></trkpt><trkpt lat="43.1336146" lon="12.0198403"><ele>272.0</ele><time>2026-05-02T12:03:37.724Z</time></trkpt><trkpt lat="43.1335374" lon="12.0200025"><ele>272.0</ele><time>2026-05-02T12:03:38.719Z</time></trkpt><trkpt lat="43.1334854" lon="12.0201121"><ele>272.0</ele><time>2026-05-02T12:03:39.723Z</time></trkpt><trkpt lat="43.133441" lon="12.0202065"><ele>272.0</ele><time>2026-05-02T12:03:40.724Z</time></trkpt><trkpt lat="43.1333703" lon="12.0203118"><ele>272.0</ele><time>2026-05-02T12:03:42.723Z</time></trkpt><trkpt lat="43.1332899" lon="12.0202963"><ele>272.6</ele><time>2026-05-02T12:03:44.713Z</time></trkpt><trkpt lat="43.13318" lon="12.020196"><ele>273.2</ele><time>2026-05-02T12:03:46.708Z</time></trkpt><trkpt lat="43.1331104" lon="12.0201483"><ele>273.8</ele><time>2026-05-02T12:03:47.722Z</time></trkpt><trkpt lat="43.1330358" lon="12.0200914"><ele>274.4</ele><time>2026-05-02T12:03:48.704Z</time></trkpt><trkpt lat="43.1329545" lon="12.0200163"><ele>275.0</ele><time>2026-05-02T12:03:49.713Z</time></trkpt><trkpt lat="43.1328703" lon="12.0199144"><ele>275.0</ele><time>2026-05-02T12:03:50.712Z</time></trkpt><trkpt lat="43.1327865" lon="12.0197764"><ele>275.0</ele><time>2026-05-02T12:03:51.709Z</time></trkpt><trkpt lat="43.1327118" lon="12.0196103"><ele>275.0</ele><time>2026-05-02T12:03:52.709Z</time></trkpt><trkpt lat="43.1326351" lon="12.0194405"><ele>275.0</ele><time>2026-05-02T12:03:53.71Z</time></trkpt><trkpt lat="43.1325505" lon="12.0192605"><ele>276.0</ele><time>2026-05-02T12:03:54.717Z</time></trkpt><trkpt lat="43.1324678" lon="12.0190829"><ele>277.0</ele><time>2026-05-02T12:03:55.705Z</time></trkpt><trkpt lat="43.1323861" lon="12.0189024"><ele>278.0</ele><time>2026-05-02T12:03:56.717Z</time></trkpt><trkpt lat="43.132308" lon="12.0187298"><ele>276.5</ele><time>2026-05-02T12:03:57.722Z</time></trkpt><trkpt lat="43.1322282" lon="12.0185645"><ele>275.0</ele><time>2026-05-02T12:03:58.707Z</time></trkpt><trkpt lat="43.1321498" lon="12.0184027"><ele>273.5</ele><time>2026-05-02T12:03:59.712Z</time></trkpt><trkpt lat="43.1320679" lon="12.0182521"><ele>272.0</ele><time>2026-05-02T12:04:00.706Z</time></trkpt><trkpt lat="43.1319925" lon="12.0180884"><ele>272.0</ele><time>2026-05-02T12:04:01.716Z</time></trkpt><trkpt lat="43.131915" lon="12.0179251"><ele>272.0</ele><time>2026-05-02T12:04:02.718Z</time></trkpt><trkpt lat="43.1318395" lon="12.0177587"><ele>272.0</ele><time>2026-05-02T12:04:03.717Z</time></trkpt><trkpt lat="43.1317704" lon="12.0175864"><ele>272.0</ele><time>2026-05-02T12:04:04.711Z</time></trkpt><trkpt lat="43.1317098" lon="12.017396"><ele>272.0</ele><time>2026-05-02T12:04:05.715Z</time></trkpt><trkpt lat="43.1316678" lon="12.0171946"><ele>272.0</ele><time>2026-05-02T12:04:06.724Z</time></trkpt><trkpt lat="43.1316375" lon="12.0169823"><ele>272.0</ele><time>2026-05-02T12:04:07.715Z</time></trkpt><trkpt lat="43.1316042" lon="12.0167674"><ele>272.33333333333337</ele><time>2026-05-02T12:04:08.722Z</time></trkpt><trkpt lat="43.1315708" lon="12.0165554"><ele>272.6666666666667</ele><time>2026-05-02T12:04:09.709Z</time></trkpt><trkpt lat="43.1315368" lon="12.0163445"><ele>273.0</ele><time>2026-05-02T12:04:10.719Z</time></trkpt><trkpt lat="43.1315047" lon="12.0161334"><ele>273.0</ele><time>2026-05-02T12:04:11.724Z</time></trkpt><trkpt lat="43.131473" lon="12.0159256"><ele>273.0</ele><time>2026-05-02T12:04:12.712Z</time></trkpt><trkpt lat="43.1314468" lon="12.0157317"><ele>273.0</ele><time>2026-05-02T12:04:13.703Z</time></trkpt><trkpt lat="43.1314267" lon="12.0155517"><ele>273.0</ele><time>2026-05-02T12:04:14.723Z</time></trkpt><trkpt lat="43.1314118" lon="12.0153765"><ele>273.25</ele><time>2026-05-02T12:04:15.705Z</time></trkpt><trkpt lat="43.131399" lon="12.0152003"><ele>273.5</ele><time>2026-05-02T12:04:16.718Z</time></trkpt><trkpt lat="43.131388" lon="12.0150202"><ele>273.75</ele><time>2026-05-02T12:04:17.713Z</time></trkpt><trkpt lat="43.131383" lon="12.0148362"><ele>274.0</ele><time>2026-05-02T12:04:18.727Z</time></trkpt><trkpt lat="43.1313747" lon="12.0146455"><ele>274.0</ele><time>2026-05-02T12:04:19.713Z</time></trkpt><trkpt lat="43.1313593" lon="12.0144457"><ele>274.0</ele><time>2026-05-02T12:04:20.728Z</time></trkpt><trkpt lat="43.1313448" lon="12.0142411"><ele>274.0</ele><time>2026-05-02T12:04:21.71Z</time></trkpt><trkpt lat="43.1313268" lon="12.0140279"><ele>274.0</ele><time>2026-05-02T12:04:22.724Z</time></trkpt><trkpt lat="43.1313046" lon="12.0138049"><ele>274.0</ele><time>2026-05-02T12:04:23.709Z</time></trkpt><trkpt lat="43.1312799" lon="12.0135786"><ele>274.0</ele><time>2026-05-02T12:04:24.719Z</time></trkpt><trkpt lat="43.1312548" lon="12.0133492"><ele>273.66666666666663</ele><time>2026-05-02T12:04:25.713Z</time></trkpt><trkpt lat="43.1312299" lon="12.0131179"><ele>273.3333333333333</ele><time>2026-05-02T12:04:26.718Z</time></trkpt><trkpt lat="43.1312049" lon="12.0128885"><ele>273.0</ele><time>2026-05-02T12:04:27.713Z</time></trkpt><trkpt lat="43.1311844" lon="12.0126633"><ele>273.75</ele><time>2026-05-02T12:04:28.715Z</time></trkpt><trkpt lat="43.131162" lon="12.0124524"><ele>274.5</ele><time>2026-05-02T12:04:29.706Z</time></trkpt><trkpt lat="43.1311417" lon="12.0122552"><ele>275.25</ele><time>2026-05-02T12:04:30.734Z</time></trkpt><trkpt lat="43.1311274" lon="12.0120711"><ele>276.0</ele><time>2026-05-02T12:04:31.712Z</time></trkpt><trkpt lat="43.1311117" lon="12.0119046"><ele>276.0</ele><time>2026-05-02T12:04:32.721Z</time></trkpt><trkpt lat="43.1310991" lon="12.011743"><ele>276.0</ele><time>2026-05-02T12:04:33.715Z</time></trkpt><trkpt lat="43.1310905" lon="12.0115858"><ele>276.0</ele><time>2026-05-02T12:04:34.716Z</time></trkpt><trkpt lat="43.131085" lon="12.0114246"><ele>276.0</ele><time>2026-05-02T12:04:35.702Z</time></trkpt><trkpt lat="43.1310912" lon="12.0112555"><ele>275.5</ele><time>2026-05-02T12:04:36.716Z</time></trkpt><trkpt lat="43.1311069" lon="12.0110875"><ele>275.0</ele><time>2026-05-02T12:04:37.709Z</time></trkpt><trkpt lat="43.1311137" lon="12.0109321"><ele>274.5</ele><time>2026-05-02T12:04:38.705Z</time></trkpt><trkpt lat="43.1311059" lon="12.010787"><ele>274.0</ele><time>2026-05-02T12:04:39.719Z</time></trkpt><trkpt lat="43.1310822" lon="12.0106338"><ele>273.5</ele><time>2026-05-02T12:04:40.724Z</time></trkpt><trkpt lat="43.131051" lon="12.0104681"><ele>273.0</ele><time>2026-05-02T12:04:41.707Z</time></trkpt><trkpt lat="43.1310155" lon="12.010297"><ele>272.5</ele><time>2026-05-02T12:04:42.707Z</time></trkpt><trkpt lat="43.1309819" lon="12.0101318"><ele>272.0</ele><time>2026-05-02T12:04:43.719Z</time></trkpt><trkpt lat="43.1309432" lon="12.0099853"><ele>272.0</ele><time>2026-05-02T12:04:44.706Z</time></trkpt><trkpt lat="43.1309059" lon="12.009852"><ele>272.0</ele><time>2026-05-02T12:04:45.708Z</time></trkpt><trkpt lat="43.1308727" lon="12.0097224"><ele>272.0</ele><time>2026-05-02T12:04:46.713Z</time></trkpt><trkpt lat="43.1308398" lon="12.0095868"><ele>272.0</ele><time>2026-05-02T12:04:47.714Z</time></trkpt><trkpt lat="43.1308028" lon="12.0094506"><ele>272.0</ele><time>2026-05-02T12:04:48.708Z</time></trkpt><trkpt lat="43.1307608" lon="12.0093259"><ele>272.1666666666667</ele><time>2026-05-02T12:04:49.706Z</time></trkpt><trkpt lat="43.1307162" lon="12.0092086"><ele>272.33333333333337</ele><time>2026-05-02T12:04:50.714Z</time></trkpt><trkpt lat="43.1306773" lon="12.0091007"><ele>272.5</ele><time>2026-05-02T12:04:51.711Z</time></trkpt><trkpt lat="43.1306361" lon="12.0089991"><ele>272.6666666666667</ele><time>2026-05-02T12:04:52.713Z</time></trkpt><trkpt lat="43.130596" lon="12.0089006"><ele>272.8333333333333</ele><time>2026-05-02T12:04:53.705Z</time></trkpt><trkpt lat="43.1305535" lon="12.0087992"><ele>273.0</ele><time>2026-05-02T12:04:54.728Z</time></trkpt><trkpt lat="43.1305077" lon="12.0086943"><ele>273.0</ele><time>2026-05-02T12:04:55.702Z</time></trkpt><trkpt lat="43.1304608" lon="12.0085807"><ele>273.0</ele><time>2026-05-02T12:04:56.712Z</time></trkpt><trkpt lat="43.1304112" lon="12.0084669"><ele>273.0</ele><time>2026-05-02T12:04:57.715Z</time></trkpt><trkpt lat="43.1303637" lon="12.0083477"><ele>273.0</ele><time>2026-05-02T12:04:58.714Z</time></trkpt><trkpt lat="43.1303151" lon="12.0082255"><ele>273.0</ele><time>2026-05-02T12:04:59.707Z</time></trkpt><trkpt lat="43.1302696" lon="12.0081037"><ele>273.0</ele><time>2026-05-02T12:05:00.719Z</time></trkpt><trkpt lat="43.1302264" lon="12.0079762"><ele>273.0</ele><time>2026-05-02T12:05:01.709Z</time></trkpt><trkpt lat="43.1301821" lon="12.0078465"><ele>273.0</ele><time>2026-05-02T12:05:02.725Z</time></trkpt><trkpt lat="43.1301336" lon="12.0077198"><ele>273.0</ele><time>2026-05-02T12:05:03.709Z</time></trkpt><trkpt lat="43.1300784" lon="12.0076007"><ele>273.0</ele><time>2026-05-02T12:05:04.728Z</time></trkpt><trkpt lat="43.1300192" lon="12.0075022"><ele>273.1666666666667</ele><time>2026-05-02T12:05:05.705Z</time></trkpt><trkpt lat="43.1299521" lon="12.0074253"><ele>273.3333333333333</ele><time>2026-05-02T12:05:06.712Z</time></trkpt><trkpt lat="43.1298766" lon="12.0073682"><ele>273.5</ele><time>2026-05-02T12:05:07.712Z</time></trkpt><trkpt lat="43.1297941" lon="12.0073275"><ele>273.66666666666663</ele><time>2026-05-02T12:05:08.717Z</time></trkpt><trkpt lat="43.1297104" lon="12.0073109"><ele>273.8333333333333</ele><time>2026-05-02T12:05:09.703Z</time></trkpt><trkpt lat="43.1296318" lon="12.0073251"><ele>274.0</ele><time>2026-05-02T12:05:10.695Z</time></trkpt><trkpt lat="43.1295609" lon="12.0073747"><ele>274.2</ele><time>2026-05-02T12:05:11.703Z</time></trkpt><trkpt lat="43.1294821" lon="12.0074448"><ele>274.4</ele><time>2026-05-02T12:05:12.702Z</time></trkpt><trkpt lat="43.129393" lon="12.0075239"><ele>274.6</ele><time>2026-05-02T12:05:13.717Z</time></trkpt><trkpt lat="43.1293029" lon="12.0075896"><ele>274.8</ele><time>2026-05-02T12:05:14.717Z</time></trkpt><trkpt lat="43.1292091" lon="12.0076448"><ele>275.0</ele><time>2026-05-02T12:05:15.716Z</time></trkpt><trkpt lat="43.1291142" lon="12.0076946"><ele>275.8</ele><time>2026-05-02T12:05:16.714Z</time></trkpt><trkpt lat="43.1290143" lon="12.0077411"><ele>276.6</ele><time>2026-05-02T12:05:17.716Z</time></trkpt><trkpt lat="43.1289088" lon="12.0077828"><ele>277.4</ele><time>2026-05-02T12:05:18.711Z</time></trkpt><trkpt lat="43.1288017" lon="12.0078128"><ele>278.2</ele><time>2026-05-02T12:05:19.714Z</time></trkpt><trkpt lat="43.1286936" lon="12.0078343"><ele>279.0</ele><time>2026-05-02T12:05:20.701Z</time></trkpt><trkpt lat="43.1285834" lon="12.0078582"><ele>279.0</ele><time>2026-05-02T12:05:21.716Z</time></trkpt><trkpt lat="43.1284748" lon="12.007874"><ele>279.0</ele><time>2026-05-02T12:05:22.716Z</time></trkpt><trkpt lat="43.1283628" lon="12.0078868"><ele>279.0</ele><time>2026-05-02T12:05:23.712Z</time></trkpt><trkpt lat="43.1282498" lon="12.0079047"><ele>279.0</ele><time>2026-05-02T12:05:24.709Z</time></trkpt><trkpt lat="43.1281351" lon="12.007925"><ele>279.0</ele><time>2026-05-02T12:05:25.713Z</time></trkpt><trkpt lat="43.1280184" lon="12.007945"><ele>279.0</ele><time>2026-05-02T12:05:26.7Z</time></trkpt><trkpt lat="43.1279005" lon="12.0079684"><ele>279.0</ele><time>2026-05-02T12:05:27.711Z</time></trkpt><trkpt lat="43.1277815" lon="12.0079931"><ele>279.0</ele><time>2026-05-02T12:05:28.708Z</time></trkpt><trkpt lat="43.1276594" lon="12.0080126"><ele>279.0</ele><time>2026-05-02T12:05:29.72Z</time></trkpt><trkpt lat="43.1275355" lon="12.0080277"><ele>279.0</ele><time>2026-05-02T12:05:30.707Z</time></trkpt><trkpt lat="43.1274129" lon="12.008032"><ele>279.0</ele><time>2026-05-02T12:05:31.711Z</time></trkpt><trkpt lat="43.1272967" lon="12.0080189"><ele>279.0</ele><time>2026-05-02T12:05:32.724Z</time></trkpt><trkpt lat="43.1271807" lon="12.0079877"><ele>280.25</ele><time>2026-05-02T12:05:33.713Z</time></trkpt><trkpt lat="43.1270599" lon="12.0079526"><ele>281.5</ele><time>2026-05-02T12:05:34.705Z</time></trkpt><trkpt lat="43.1269361" lon="12.0079119"><ele>282.75</ele><time>2026-05-02T12:05:35.709Z</time></trkpt><trkpt lat="43.126815" lon="12.0078649"><ele>284.0</ele><time>2026-05-02T12:05:36.71Z</time></trkpt><trkpt lat="43.126698" lon="12.0078164"><ele>284.0</ele><time>2026-05-02T12:05:37.707Z</time></trkpt><trkpt lat="43.1265751" lon="12.0077609"><ele>284.0</ele><time>2026-05-02T12:05:38.71Z</time></trkpt><trkpt lat="43.1264494" lon="12.0077007"><ele>284.0</ele><time>2026-05-02T12:05:39.702Z</time></trkpt><trkpt lat="43.1263219" lon="12.0076453"><ele>284.0</ele><time>2026-05-02T12:05:40.715Z</time></trkpt><trkpt lat="43.1261893" lon="12.0076049"><ele>285.0</ele><time>2026-05-02T12:05:41.713Z</time></trkpt><trkpt lat="43.1260581" lon="12.0075742"><ele>286.0</ele><time>2026-05-02T12:05:42.713Z</time></trkpt><trkpt lat="43.1259444" lon="12.0075292"><ele>287.0</ele><time>2026-05-02T12:05:43.712Z</time></trkpt><trkpt lat="43.1258413" lon="12.0074655"><ele>288.0</ele><time>2026-05-02T12:05:44.703Z</time></trkpt><trkpt lat="43.1257396" lon="12.007379"><ele>289.25</ele><time>2026-05-02T12:05:45.703Z</time></trkpt><trkpt lat="43.1256351" lon="12.0072806"><ele>290.5</ele><time>2026-05-02T12:05:46.7Z</time></trkpt><trkpt lat="43.1255273" lon="12.0071738"><ele>291.75</ele><time>2026-05-02T12:05:47.707Z</time></trkpt><trkpt lat="43.1254257" lon="12.0070859"><ele>293.0</ele><time>2026-05-02T12:05:48.721Z</time></trkpt><trkpt lat="43.1253348" lon="12.0070087"><ele>293.0</ele><time>2026-05-02T12:05:49.713Z</time></trkpt><trkpt lat="43.1252482" lon="12.0069621"><ele>293.0</ele><time>2026-05-02T12:05:50.699Z</time></trkpt><trkpt lat="43.1251706" lon="12.0069571"><ele>293.0</ele><time>2026-05-02T12:05:51.704Z</time></trkpt><trkpt lat="43.1250918" lon="12.0070004"><ele>293.0</ele><time>2026-05-02T12:05:52.718Z</time></trkpt><trkpt lat="43.1250066" lon="12.0070683"><ele>293.0</ele><time>2026-05-02T12:05:53.707Z</time></trkpt><trkpt lat="43.1249101" lon="12.0071511"><ele>293.75</ele><time>2026-05-02T12:05:54.726Z</time></trkpt><trkpt lat="43.1247997" lon="12.0072373"><ele>294.5</ele><time>2026-05-02T12:05:55.712Z</time></trkpt><trkpt lat="43.1246916" lon="12.007319"><ele>295.25</ele><time>2026-05-02T12:05:56.722Z</time></trkpt><trkpt lat="43.1245987" lon="12.0073939"><ele>296.0</ele><time>2026-05-02T12:05:57.719Z</time></trkpt><trkpt lat="43.1245186" lon="12.0074555"><ele>296.0</ele><time>2026-05-02T12:05:58.724Z</time></trkpt><trkpt lat="43.1244485" lon="12.0074907"><ele>296.0</ele><time>2026-05-02T12:05:59.707Z</time></trkpt><trkpt lat="43.124386" lon="12.0074692"><ele>296.0</ele><time>2026-05-02T12:06:00.708Z</time></trkpt><trkpt lat="43.1243319" lon="12.0074082"><ele>296.0</ele><time>2026-05-02T12:06:01.71Z</time></trkpt><trkpt lat="43.1242739" lon="12.0073289"><ele>296.0</ele><time>2026-05-02T12:06:02.705Z</time></trkpt><trkpt lat="43.1242062" lon="12.0072272"><ele>296.0</ele><time>2026-05-02T12:06:03.714Z</time></trkpt><trkpt lat="43.1241338" lon="12.0071191"><ele>296.0</ele><time>2026-05-02T12:06:04.715Z</time></trkpt><trkpt lat="43.1240579" lon="12.0070023"><ele>296.0</ele><time>2026-05-02T12:06:05.712Z</time></trkpt><trkpt lat="43.1239789" lon="12.0068832"><ele>296.0</ele><time>2026-05-02T12:06:06.716Z</time></trkpt><trkpt lat="43.1238986" lon="12.0067642"><ele>296.0</ele><time>2026-05-02T12:06:07.714Z</time></trkpt><trkpt lat="43.1238223" lon="12.0066403"><ele>296.25</ele><time>2026-05-02T12:06:08.711Z</time></trkpt><trkpt lat="43.1237431" lon="12.0065215"><ele>296.5</ele><time>2026-05-02T12:06:09.714Z</time></trkpt><trkpt lat="43.1236649" lon="12.0064014"><ele>296.75</ele><time>2026-05-02T12:06:10.72Z</time></trkpt><trkpt lat="43.1235903" lon="12.0062811"><ele>297.0</ele><time>2026-05-02T12:06:11.713Z</time></trkpt><trkpt lat="43.1235135" lon="12.0061694"><ele>297.0</ele><time>2026-05-02T12:06:12.712Z</time></trkpt><trkpt lat="43.1234373" lon="12.0060583"><ele>297.0</ele><time>2026-05-02T12:06:13.713Z</time></trkpt><trkpt lat="43.1233599" lon="12.0059512"><ele>297.0</ele><time>2026-05-02T12:06:14.714Z</time></trkpt><trkpt lat="43.1232771" lon="12.0058559"><ele>297.0</ele><time>2026-05-02T12:06:15.708Z</time></trkpt><trkpt lat="43.1231881" lon="12.0057853"><ele>297.0</ele><time>2026-05-02T12:06:16.713Z</time></trkpt><trkpt lat="43.1230993" lon="12.0057391"><ele>297.1666666666667</ele><time>2026-05-02T12:06:17.707Z</time></trkpt><trkpt lat="43.1230201" lon="12.0057122"><ele>297.3333333333333</ele><time>2026-05-02T12:06:18.721Z</time></trkpt><trkpt lat="43.1229482" lon="12.0057084"><ele>297.5</ele><time>2026-05-02T12:06:19.708Z</time></trkpt><trkpt lat="43.1228871" lon="12.0057395"><ele>297.66666666666663</ele><time>2026-05-02T12:06:20.702Z</time></trkpt><trkpt lat="43.1228081" lon="12.0058834"><ele>297.8333333333333</ele><time>2026-05-02T12:06:22.709Z</time></trkpt><trkpt lat="43.1227818" lon="12.0059884"><ele>298.0</ele><time>2026-05-02T12:06:23.714Z</time></trkpt><trkpt lat="43.1227549" lon="12.0060984"><ele>297.5</ele><time>2026-05-02T12:06:24.713Z</time></trkpt><trkpt lat="43.122725" lon="12.0062046"><ele>297.0</ele><time>2026-05-02T12:06:25.699Z</time></trkpt><trkpt lat="43.1226951" lon="12.0063125"><ele>296.5</ele><time>2026-05-02T12:06:26.711Z</time></trkpt><trkpt lat="43.1226639" lon="12.0064216"><ele>296.0</ele><time>2026-05-02T12:06:27.725Z</time></trkpt><trkpt lat="43.1226305" lon="12.0065331"><ele>295.5</ele><time>2026-05-02T12:06:28.711Z</time></trkpt><trkpt lat="43.1225973" lon="12.0066484"><ele>295.0</ele><time>2026-05-02T12:06:29.711Z</time></trkpt><trkpt lat="43.1225609" lon="12.0067704"><ele>294.8</ele><time>2026-05-02T12:06:30.704Z</time></trkpt><trkpt lat="43.1225222" lon="12.0069043"><ele>294.6</ele><time>2026-05-02T12:06:31.711Z</time></trkpt><trkpt lat="43.1224806" lon="12.0070445"><ele>294.4</ele><time>2026-05-02T12:06:32.709Z</time></trkpt><trkpt lat="43.1224404" lon="12.0071825"><ele>294.2</ele><time>2026-05-02T12:06:33.712Z</time></trkpt><trkpt lat="43.1223946" lon="12.0073262"><ele>294.0</ele><time>2026-05-02T12:06:34.703Z</time></trkpt><trkpt lat="43.1223498" lon="12.007479"><ele>293.75</ele><time>2026-05-02T12:06:35.709Z</time></trkpt><trkpt lat="43.1223068" lon="12.007638"><ele>293.5</ele><time>2026-05-02T12:06:36.709Z</time></trkpt><trkpt lat="43.1222587" lon="12.0078001"><ele>293.25</ele><time>2026-05-02T12:06:37.712Z</time></trkpt><trkpt lat="43.1222132" lon="12.00796"><ele>293.0</ele><time>2026-05-02T12:06:38.704Z</time></trkpt><trkpt lat="43.1221647" lon="12.0081199"><ele>293.0</ele><time>2026-05-02T12:06:39.707Z</time></trkpt><trkpt lat="43.1221129" lon="12.0082826"><ele>293.0</ele><time>2026-05-02T12:06:40.7Z</time></trkpt><trkpt lat="43.12206" lon="12.0084441"><ele>293.0</ele><time>2026-05-02T12:06:41.703Z</time></trkpt><trkpt lat="43.1220134" lon="12.0085902"><ele>293.0</ele><time>2026-05-02T12:06:42.717Z</time></trkpt><trkpt lat="43.1219717" lon="12.0087195"><ele>293.1666666666667</ele><time>2026-05-02T12:06:43.71Z</time></trkpt><trkpt lat="43.1219385" lon="12.0088301"><ele>293.33333333333337</ele><time>2026-05-02T12:06:44.704Z</time></trkpt><trkpt lat="43.1219091" lon="12.0089129"><ele>293.5</ele><time>2026-05-02T12:06:45.711Z</time></trkpt><trkpt lat="43.1218514" lon="12.0089686"><ele>293.6666666666667</ele><time>2026-05-02T12:06:47.711Z</time></trkpt><trkpt lat="43.1217262" lon="12.0089593"><ele>293.8333333333333</ele><time>2026-05-02T12:06:50.705Z</time></trkpt><trkpt lat="43.1216504" lon="12.0089621"><ele>294.0</ele><time>2026-05-02T12:06:51.712Z</time></trkpt><trkpt lat="43.121564" lon="12.0089709"><ele>294.2</ele><time>2026-05-02T12:06:52.719Z</time></trkpt><trkpt lat="43.1214723" lon="12.0089829"><ele>294.4</ele><time>2026-05-02T12:06:53.719Z</time></trkpt><trkpt lat="43.1213761" lon="12.0089779"><ele>294.6</ele><time>2026-05-02T12:06:54.699Z</time></trkpt><trkpt lat="43.1212822" lon="12.0089385"><ele>294.8</ele><time>2026-05-02T12:06:55.717Z</time></trkpt><trkpt lat="43.1211981" lon="12.0088694"><ele>295.0</ele><time>2026-05-02T12:06:56.71Z</time></trkpt><trkpt lat="43.1211278" lon="12.0087677"><ele>295.0</ele><time>2026-05-02T12:06:57.713Z</time></trkpt><trkpt lat="43.121062" lon="12.0086585"><ele>295.0</ele><time>2026-05-02T12:06:58.711Z</time></trkpt><trkpt lat="43.1209947" lon="12.0085468"><ele>295.0</ele><time>2026-05-02T12:06:59.714Z</time></trkpt><trkpt lat="43.1209316" lon="12.0084338"><ele>295.0</ele><time>2026-05-02T12:07:00.708Z</time></trkpt><trkpt lat="43.1208689" lon="12.0083249"><ele>295.0</ele><time>2026-05-02T12:07:01.726Z</time></trkpt><trkpt lat="43.120804" lon="12.0082356"><ele>295.0</ele><time>2026-05-02T12:07:02.712Z</time></trkpt><trkpt lat="43.1207325" lon="12.0081583"><ele>295.0</ele><time>2026-05-02T12:07:03.718Z</time></trkpt><trkpt lat="43.1206509" lon="12.0081004"><ele>295.0</ele><time>2026-05-02T12:07:04.701Z</time></trkpt><trkpt lat="43.1205584" lon="12.0080701"><ele>295.0</ele><time>2026-05-02T12:07:05.709Z</time></trkpt><trkpt lat="43.1204565" lon="12.0080913"><ele>295.0</ele><time>2026-05-02T12:07:06.721Z</time></trkpt><trkpt lat="43.1203577" lon="12.0081352"><ele>295.0</ele><time>2026-05-02T12:07:07.704Z</time></trkpt><trkpt lat="43.1202601" lon="12.0081874"><ele>295.0</ele><time>2026-05-02T12:07:08.718Z</time></trkpt><trkpt lat="43.1201656" lon="12.0082438"><ele>295.0</ele><time>2026-05-02T12:07:09.706Z</time></trkpt><trkpt lat="43.120062" lon="12.008298"><ele>295.0</ele><time>2026-05-02T12:07:10.709Z</time></trkpt><trkpt lat="43.1199526" lon="12.0083522"><ele>295.0</ele><time>2026-05-02T12:07:11.708Z</time></trkpt><trkpt lat="43.1198505" lon="12.008408"><ele>295.25</ele><time>2026-05-02T12:07:12.72Z</time></trkpt><trkpt lat="43.1197452" lon="12.0084611"><ele>295.5</ele><time>2026-05-02T12:07:13.714Z</time></trkpt><trkpt lat="43.1196395" lon="12.0085134"><ele>295.75</ele><time>2026-05-02T12:07:14.714Z</time></trkpt><trkpt lat="43.1195314" lon="12.0085672"><ele>296.0</ele><time>2026-05-02T12:07:15.714Z</time></trkpt><trkpt lat="43.1194243" lon="12.0086306"><ele>296.0</ele><time>2026-05-02T12:07:16.711Z</time></trkpt><trkpt lat="43.1193139" lon="12.0087107"><ele>296.0</ele><time>2026-05-02T12:07:17.72Z</time></trkpt><trkpt lat="43.1192078" lon="12.0087958"><ele>296.0</ele><time>2026-05-02T12:07:18.712Z</time></trkpt><trkpt lat="43.1191001" lon="12.0088806"><ele>296.0</ele><time>2026-05-02T12:07:19.705Z</time></trkpt><trkpt lat="43.1189903" lon="12.0089646"><ele>296.0</ele><time>2026-05-02T12:07:20.701Z</time></trkpt><trkpt lat="43.1188832" lon="12.0090411"><ele>296.0</ele><time>2026-05-02T12:07:21.716Z</time></trkpt><trkpt lat="43.118778" lon="12.0091082"><ele>296.0</ele><time>2026-05-02T12:07:22.7Z</time></trkpt><trkpt lat="43.1186862" lon="12.0091661"><ele>296.0</ele><time>2026-05-02T12:07:23.706Z</time></trkpt><trkpt lat="43.1186005" lon="12.0092035"><ele>296.0</ele><time>2026-05-02T12:07:24.714Z</time></trkpt><trkpt lat="43.1185174" lon="12.0092088"><ele>296.0</ele><time>2026-05-02T12:07:25.708Z</time></trkpt><trkpt lat="43.1184479" lon="12.0091718"><ele>296.0</ele><time>2026-05-02T12:07:26.722Z</time></trkpt><trkpt lat="43.118402" lon="12.0090975"><ele>296.0</ele><time>2026-05-02T12:07:27.705Z</time></trkpt><trkpt lat="43.1183702" lon="12.0090003"><ele>296.0</ele><time>2026-05-02T12:07:28.716Z</time></trkpt><trkpt lat="43.1183335" lon="12.0088849"><ele>296.0</ele><time>2026-05-02T12:07:29.715Z</time></trkpt><trkpt lat="43.1182861" lon="12.0087522"><ele>296.0</ele><time>2026-05-02T12:07:30.718Z</time></trkpt><trkpt lat="43.1182296" lon="12.0085988"><ele>296.0</ele><time>2026-05-02T12:07:31.708Z</time></trkpt><trkpt lat="43.1181662" lon="12.0084381"><ele>296.0</ele><time>2026-05-02T12:07:32.736Z</time></trkpt><trkpt lat="43.1180964" lon="12.0082722"><ele>296.0</ele><time>2026-05-02T12:07:33.709Z</time></trkpt><trkpt lat="43.1180271" lon="12.0081063"><ele>296.0</ele><time>2026-05-02T12:07:34.742Z</time></trkpt><trkpt lat="43.1179627" lon="12.0079572"><ele>296.0</ele><time>2026-05-02T12:07:35.705Z</time></trkpt><trkpt lat="43.1179078" lon="12.0078343"><ele>296.0</ele><time>2026-05-02T12:07:36.72Z</time></trkpt><trkpt lat="43.1178686" lon="12.0077244"><ele>296.0</ele><time>2026-05-02T12:07:37.719Z</time></trkpt><trkpt lat="43.1178444" lon="12.0076353"><ele>296.0</ele><time>2026-05-02T12:07:38.712Z</time></trkpt><trkpt lat="43.1177858" lon="12.007544"><ele>296.0</ele><time>2026-05-02T12:07:40.71Z</time></trkpt><trkpt lat="43.1176955" lon="12.0076162"><ele>296.0</ele><time>2026-05-02T12:07:42.721Z</time></trkpt><trkpt lat="43.1176316" lon="12.0076908"><ele>296.0</ele><time>2026-05-02T12:07:43.712Z</time></trkpt><trkpt lat="43.1176102" lon="12.0078"><ele>296.0</ele><time>2026-05-02T12:07:44.715Z</time></trkpt><trkpt lat="43.1175311" lon="12.0078551"><ele>296.0</ele><time>2026-05-02T12:07:45.714Z</time></trkpt><trkpt lat="43.1174163" lon="12.0078925"><ele>296.0</ele><time>2026-05-02T12:07:46.726Z</time></trkpt><trkpt lat="43.1173013" lon="12.0079261"><ele>295.75</ele><time>2026-05-02T12:07:47.715Z</time></trkpt><trkpt lat="43.1171723" lon="12.0079524"><ele>295.5</ele><time>2026-05-02T12:07:48.714Z</time></trkpt><trkpt lat="43.1170448" lon="12.0079698"><ele>295.25</ele><time>2026-05-02T12:07:49.713Z</time></trkpt><trkpt lat="43.1169153" lon="12.0079896"><ele>295.0</ele><time>2026-05-02T12:07:50.731Z</time></trkpt><trkpt lat="43.1167887" lon="12.0080046"><ele>295.0</ele><time>2026-05-02T12:07:51.717Z</time></trkpt><trkpt lat="43.1166621" lon="12.0080216"><ele>295.0</ele><time>2026-05-02T12:07:52.711Z</time></trkpt><trkpt lat="43.116535" lon="12.008049"><ele>295.0</ele><time>2026-05-02T12:07:53.712Z</time></trkpt><trkpt lat="43.1164083" lon="12.0080916"><ele>295.0</ele><time>2026-05-02T12:07:54.715Z</time></trkpt><trkpt lat="43.1162916" lon="12.0081481"><ele>295.0</ele><time>2026-05-02T12:07:55.719Z</time></trkpt><trkpt lat="43.1161837" lon="12.0082312"><ele>295.0</ele><time>2026-05-02T12:07:56.718Z</time></trkpt><trkpt lat="43.1160824" lon="12.0083373"><ele>295.0</ele><time>2026-05-02T12:07:57.721Z</time></trkpt><trkpt lat="43.1159867" lon="12.0084606"><ele>295.0</ele><time>2026-05-02T12:07:58.711Z</time></trkpt><trkpt lat="43.1158978" lon="12.0085873"><ele>294.5</ele><time>2026-05-02T12:07:59.709Z</time></trkpt><trkpt lat="43.1158148" lon="12.0087151"><ele>294.0</ele><time>2026-05-02T12:08:00.717Z</time></trkpt><trkpt lat="43.1157387" lon="12.0088419"><ele>293.5</ele><time>2026-05-02T12:08:01.708Z</time></trkpt><trkpt lat="43.1156697" lon="12.008968"><ele>293.0</ele><time>2026-05-02T12:08:02.713Z</time></trkpt><trkpt lat="43.1156022" lon="12.009095"><ele>294.0</ele><time>2026-05-02T12:08:03.705Z</time></trkpt><trkpt lat="43.1155291" lon="12.0092204"><ele>295.0</ele><time>2026-05-02T12:08:04.709Z</time></trkpt><trkpt lat="43.1154526" lon="12.009343"><ele>296.0</ele><time>2026-05-02T12:08:05.735Z</time></trkpt><trkpt lat="43.115375" lon="12.0094678"><ele>297.0</ele><time>2026-05-02T12:08:06.731Z</time></trkpt><trkpt lat="43.1152963" lon="12.0095868"><ele>297.0</ele><time>2026-05-02T12:08:07.709Z</time></trkpt><trkpt lat="43.1152235" lon="12.0096993"><ele>297.0</ele><time>2026-05-02T12:08:08.719Z</time></trkpt><trkpt lat="43.1151581" lon="12.0097942"><ele>297.0</ele><time>2026-05-02T12:08:09.717Z</time></trkpt><trkpt lat="43.1150973" lon="12.0098821"><ele>297.0</ele><time>2026-05-02T12:08:10.719Z</time></trkpt><trkpt lat="43.1150407" lon="12.0099632"><ele>297.0</ele><time>2026-05-02T12:08:11.724Z</time></trkpt><trkpt lat="43.1149904" lon="12.0100463"><ele>297.0</ele><time>2026-05-02T12:08:12.723Z</time></trkpt><trkpt lat="43.114945" lon="12.0101284"><ele>297.0</ele><time>2026-05-02T12:08:13.703Z</time></trkpt><trkpt lat="43.1148954" lon="12.0102129"><ele>297.0</ele><time>2026-05-02T12:08:14.712Z</time></trkpt><trkpt lat="43.1148371" lon="12.0103098"><ele>297.0</ele><time>2026-05-02T12:08:15.724Z</time></trkpt><trkpt lat="43.1147767" lon="12.0104165"><ele>297.0</ele><time>2026-05-02T12:08:16.708Z</time></trkpt><trkpt lat="43.1147053" lon="12.0105275"><ele>297.0</ele><time>2026-05-02T12:08:17.715Z</time></trkpt><trkpt lat="43.1146355" lon="12.0106465"><ele>297.0</ele><time>2026-05-02T12:08:18.719Z</time></trkpt><trkpt lat="43.1145651" lon="12.0107688"><ele>297.0</ele><time>2026-05-02T12:08:19.712Z</time></trkpt><trkpt lat="43.1144946" lon="12.0108908"><ele>297.0</ele><time>2026-05-02T12:08:20.728Z</time></trkpt><trkpt lat="43.1144261" lon="12.0110163"><ele>296.25</ele><time>2026-05-02T12:08:21.713Z</time></trkpt><trkpt lat="43.1143561" lon="12.0111494"><ele>295.5</ele><time>2026-05-02T12:08:22.714Z</time></trkpt><trkpt lat="43.1142808" lon="12.0112845"><ele>294.75</ele><time>2026-05-02T12:08:23.71Z</time></trkpt><trkpt lat="43.1142062" lon="12.0114209"><ele>294.0</ele><time>2026-05-02T12:08:24.739Z</time></trkpt><trkpt lat="43.1141287" lon="12.0115635"><ele>294.5</ele><time>2026-05-02T12:08:25.716Z</time></trkpt><trkpt lat="43.1140462" lon="12.0117105"><ele>295.0</ele><time>2026-05-02T12:08:26.702Z</time></trkpt><trkpt lat="43.1139611" lon="12.0118586"><ele>295.5</ele><time>2026-05-02T12:08:27.719Z</time></trkpt><trkpt lat="43.1138761" lon="12.0120049"><ele>296.0</ele><time>2026-05-02T12:08:28.708Z</time></trkpt><trkpt lat="43.1137874" lon="12.0121486"><ele>296.0</ele><time>2026-05-02T12:08:29.717Z</time></trkpt><trkpt lat="43.1136991" lon="12.0122934"><ele>296.0</ele><time>2026-05-02T12:08:30.716Z</time></trkpt><trkpt lat="43.1136083" lon="12.0124327"><ele>296.0</ele><time>2026-05-02T12:08:31.709Z</time></trkpt><trkpt lat="43.1135216" lon="12.012562"><ele>296.0</ele><time>2026-05-02T12:08:32.715Z</time></trkpt><trkpt lat="43.1134343" lon="12.0126867"><ele>296.75</ele><time>2026-05-02T12:08:33.72Z</time></trkpt><trkpt lat="43.1133463" lon="12.0128093"><ele>297.5</ele><time>2026-05-02T12:08:34.715Z</time></trkpt><trkpt lat="43.1132599" lon="12.0129445"><ele>298.25</ele><time>2026-05-02T12:08:35.717Z</time></trkpt><trkpt lat="43.1131792" lon="12.0130892"><ele>299.0</ele><time>2026-05-02T12:08:36.721Z</time></trkpt><trkpt lat="43.1131033" lon="12.0132473"><ele>299.5</ele><time>2026-05-02T12:08:37.714Z</time></trkpt><trkpt lat="43.1130367" lon="12.0134091"><ele>300.0</ele><time>2026-05-02T12:08:38.71Z</time></trkpt><trkpt lat="43.1129868" lon="12.0135687"><ele>300.5</ele><time>2026-05-02T12:08:39.719Z</time></trkpt><trkpt lat="43.1129462" lon="12.0137249"><ele>301.0</ele><time>2026-05-02T12:08:40.711Z</time></trkpt><trkpt lat="43.1129031" lon="12.0138448"><ele>301.0</ele><time>2026-05-02T12:08:41.717Z</time></trkpt><trkpt lat="43.1128399" lon="12.0139357"><ele>301.0</ele><time>2026-05-02T12:08:42.717Z</time></trkpt><trkpt lat="43.1127583" lon="12.0140067"><ele>301.0</ele><time>2026-05-02T12:08:43.709Z</time></trkpt><trkpt lat="43.1126688" lon="12.0140846"><ele>301.0</ele><time>2026-05-02T12:08:44.724Z</time></trkpt><trkpt lat="43.1125736" lon="12.0141773"><ele>301.0</ele><time>2026-05-02T12:08:45.716Z</time></trkpt><trkpt lat="43.1124727" lon="12.0142813"><ele>301.0</ele><time>2026-05-02T12:08:46.72Z</time></trkpt><trkpt lat="43.1123671" lon="12.0143943"><ele>301.0</ele><time>2026-05-02T12:08:47.713Z</time></trkpt><trkpt lat="43.1122606" lon="12.01452"><ele>301.0</ele><time>2026-05-02T12:08:48.734Z</time></trkpt><trkpt lat="43.1121523" lon="12.0146455"><ele>301.0</ele><time>2026-05-02T12:08:49.71Z</time></trkpt><trkpt lat="43.1120444" lon="12.0147743"><ele>301.0</ele><time>2026-05-02T12:08:50.712Z</time></trkpt><trkpt lat="43.1119333" lon="12.0149057"><ele>301.0</ele><time>2026-05-02T12:08:51.714Z</time></trkpt><trkpt lat="43.111824" lon="12.0150348"><ele>301.0</ele><time>2026-05-02T12:08:52.714Z</time></trkpt><trkpt lat="43.1117119" lon="12.0151523"><ele>301.0</ele><time>2026-05-02T12:08:53.715Z</time></trkpt><trkpt lat="43.1116086" lon="12.0152533"><ele>300.75</ele><time>2026-05-02T12:08:54.718Z</time></trkpt><trkpt lat="43.1115024" lon="12.015318"><ele>300.5</ele><time>2026-05-02T12:08:55.716Z</time></trkpt><trkpt lat="43.1113853" lon="12.0153644"><ele>300.25</ele><time>2026-05-02T12:08:56.713Z</time></trkpt><trkpt lat="43.111255" lon="12.0154019"><ele>300.0</ele><time>2026-05-02T12:08:57.719Z</time></trkpt><trkpt lat="43.1111219" lon="12.0154375"><ele>300.0</ele><time>2026-05-02T12:08:58.718Z</time></trkpt><trkpt lat="43.1109872" lon="12.0154771"><ele>300.0</ele><time>2026-05-02T12:08:59.715Z</time></trkpt><trkpt lat="43.1108512" lon="12.0155168"><ele>300.0</ele><time>2026-05-02T12:09:00.715Z</time></trkpt><trkpt lat="43.1107199" lon="12.0155564"><ele>300.0</ele><time>2026-05-02T12:09:01.71Z</time></trkpt><trkpt lat="43.1105903" lon="12.0156048"><ele>299.8</ele><time>2026-05-02T12:09:02.712Z</time></trkpt><trkpt lat="43.1104756" lon="12.0156636"><ele>299.6</ele><time>2026-05-02T12:09:03.702Z</time></trkpt><trkpt lat="43.1103792" lon="12.0157229"><ele>299.4</ele><time>2026-05-02T12:09:04.704Z</time></trkpt><trkpt lat="43.1103007" lon="12.0157775"><ele>299.2</ele><time>2026-05-02T12:09:05.709Z</time></trkpt><trkpt lat="43.11022" lon="12.015831"><ele>299.0</ele><time>2026-05-02T12:09:07.713Z</time></trkpt><trkpt lat="43.110153" lon="12.0158678"><ele>298.8</ele><time>2026-05-02T12:09:09.717Z</time></trkpt><trkpt lat="43.1100817" lon="12.0159094"><ele>298.59999999999997</ele><time>2026-05-02T12:09:10.711Z</time></trkpt><trkpt lat="43.109995" lon="12.0159589"><ele>298.4</ele><time>2026-05-02T12:09:11.719Z</time></trkpt><trkpt lat="43.1098974" lon="12.0160261"><ele>298.2</ele><time>2026-05-02T12:09:12.719Z</time></trkpt><trkpt lat="43.1097902" lon="12.0160799"><ele>298.0</ele><time>2026-05-02T12:09:13.709Z</time></trkpt><trkpt lat="43.1096727" lon="12.016101"><ele>298.5</ele><time>2026-05-02T12:09:14.715Z</time></trkpt><trkpt lat="43.1095488" lon="12.0160945"><ele>299.0</ele><time>2026-05-02T12:09:15.72Z</time></trkpt><trkpt lat="43.109424" lon="12.0160779"><ele>299.5</ele><time>2026-05-02T12:09:16.723Z</time></trkpt><trkpt lat="43.1092945" lon="12.0160628"><ele>300.0</ele><time>2026-05-02T12:09:17.708Z</time></trkpt><trkpt lat="43.1091582" lon="12.0160545"><ele>300.5</ele><time>2026-05-02T12:09:18.708Z</time></trkpt><trkpt lat="43.1090167" lon="12.0160431"><ele>301.0</ele><time>2026-05-02T12:09:19.709Z</time></trkpt><trkpt lat="43.1088684" lon="12.0160257"><ele>301.5</ele><time>2026-05-02T12:09:20.709Z</time></trkpt><trkpt lat="43.1087183" lon="12.016"><ele>302.0</ele><time>2026-05-02T12:09:21.715Z</time></trkpt><trkpt lat="43.1085737" lon="12.0159563"><ele>302.0</ele><time>2026-05-02T12:09:22.715Z</time></trkpt><trkpt lat="43.1084532" lon="12.0159003"><ele>302.0</ele><time>2026-05-02T12:09:23.722Z</time></trkpt><trkpt lat="43.108357" lon="12.0158457"><ele>302.0</ele><time>2026-05-02T12:09:24.716Z</time></trkpt><trkpt lat="43.1082789" lon="12.0157946"><ele>302.0</ele><time>2026-05-02T12:09:25.707Z</time></trkpt><trkpt lat="43.1082023" lon="12.0157309"><ele>302.0</ele><time>2026-05-02T12:09:26.724Z</time></trkpt><trkpt lat="43.108125" lon="12.0156522"><ele>302.2</ele><time>2026-05-02T12:09:27.709Z</time></trkpt><trkpt lat="43.1080377" lon="12.0155635"><ele>302.4</ele><time>2026-05-02T12:09:28.712Z</time></trkpt><trkpt lat="43.1079413" lon="12.0154793"><ele>302.6</ele><time>2026-05-02T12:09:29.721Z</time></trkpt><trkpt lat="43.107853" lon="12.0153995"><ele>302.8</ele><time>2026-05-02T12:09:30.712Z</time></trkpt><trkpt lat="43.1077851" lon="12.0153373"><ele>303.0</ele><time>2026-05-02T12:09:31.711Z</time></trkpt><trkpt lat="43.1076844" lon="12.0152515"><ele>303.0</ele><time>2026-05-02T12:09:33.711Z</time></trkpt><trkpt lat="43.1075852" lon="12.0151818"><ele>303.0</ele><time>2026-05-02T12:09:35.714Z</time></trkpt><trkpt lat="43.1074834" lon="12.0151276"><ele>303.0</ele><time>2026-05-02T12:09:37.717Z</time></trkpt><trkpt lat="43.1074105" lon="12.015107"><ele>303.0</ele><time>2026-05-02T12:09:39.709Z</time></trkpt><trkpt lat="43.1073318" lon="12.0150922"><ele>303.0</ele><time>2026-05-02T12:09:53.722Z</time></trkpt><trkpt lat="43.1072364" lon="12.0150949"><ele>302.8</ele><time>2026-05-02T12:09:55.711Z</time></trkpt><trkpt lat="43.1071629" lon="12.0150991"><ele>302.6</ele><time>2026-05-02T12:10:12.725Z</time></trkpt><trkpt lat="43.1070528" lon="12.0151129"><ele>302.4</ele><time>2026-05-02T12:10:14.728Z</time></trkpt><trkpt lat="43.1069681" lon="12.0151209"><ele>302.2</ele><time>2026-05-02T12:10:15.71Z</time></trkpt><trkpt lat="43.1068651" lon="12.0151238"><ele>302.0</ele><time>2026-05-02T12:10:16.724Z</time></trkpt><trkpt lat="43.1067531" lon="12.0151254"><ele>302.0</ele><time>2026-05-02T12:10:17.715Z</time></trkpt><trkpt lat="43.1066476" lon="12.0151259"><ele>302.0</ele><time>2026-05-02T12:10:18.734Z</time></trkpt><trkpt lat="43.1065466" lon="12.0151294"><ele>302.0</ele><time>2026-05-02T12:10:19.733Z</time></trkpt><trkpt lat="43.1064381" lon="12.0151387"><ele>302.0</ele><time>2026-05-02T12:10:20.73Z</time></trkpt><trkpt lat="43.1063238" lon="12.0151526"><ele>302.0</ele><time>2026-05-02T12:10:21.723Z</time></trkpt><trkpt lat="43.1062109" lon="12.0151654"><ele>301.6</ele><time>2026-05-02T12:10:22.744Z</time></trkpt><trkpt lat="43.1060944" lon="12.0151748"><ele>301.2</ele><time>2026-05-02T12:10:23.712Z</time></trkpt><trkpt lat="43.105976" lon="12.0151808"><ele>300.8</ele><time>2026-05-02T12:10:24.729Z</time></trkpt><trkpt lat="43.1058647" lon="12.0151868"><ele>300.4</ele><time>2026-05-02T12:10:25.718Z</time></trkpt><trkpt lat="43.1057619" lon="12.0151924"><ele>300.0</ele><time>2026-05-02T12:10:26.719Z</time></trkpt><trkpt lat="43.1056626" lon="12.015197"><ele>300.0</ele><time>2026-05-02T12:10:27.716Z</time></trkpt><trkpt lat="43.1055597" lon="12.0151906"><ele>300.0</ele><time>2026-05-02T12:10:28.703Z</time></trkpt><trkpt lat="43.105454" lon="12.01517"><ele>300.0</ele><time>2026-05-02T12:10:29.709Z</time></trkpt><trkpt lat="43.1053489" lon="12.0151373"><ele>300.0</ele><time>2026-05-02T12:10:30.709Z</time></trkpt><trkpt lat="43.1052425" lon="12.0151045"><ele>300.0</ele><time>2026-05-02T12:10:31.721Z</time></trkpt><trkpt lat="43.1051371" lon="12.0150667"><ele>300.0</ele><time>2026-05-02T12:10:32.716Z</time></trkpt><trkpt lat="43.1050314" lon="12.0150292"><ele>300.0</ele><time>2026-05-02T12:10:33.715Z</time></trkpt><trkpt lat="43.1049274" lon="12.0149938"><ele>300.0</ele><time>2026-05-02T12:10:34.702Z</time></trkpt><trkpt lat="43.1048218" lon="12.014961"><ele>300.0</ele><time>2026-05-02T12:10:35.711Z</time></trkpt><trkpt lat="43.104716" lon="12.0149224"><ele>300.0</ele><time>2026-05-02T12:10:36.718Z</time></trkpt><trkpt lat="43.1046121" lon="12.0148954"><ele>298.8</ele><time>2026-05-02T12:10:37.71Z</time></trkpt><trkpt lat="43.1045173" lon="12.0148639"><ele>297.6</ele><time>2026-05-02T12:10:38.74Z</time></trkpt><trkpt lat="43.104426" lon="12.0148361"><ele>296.4</ele><time>2026-05-02T12:10:39.706Z</time></trkpt><trkpt lat="43.1043337" lon="12.0148294"><ele>295.2</ele><time>2026-05-02T12:10:40.725Z</time></trkpt><trkpt lat="43.1042464" lon="12.014847"><ele>294.0</ele><time>2026-05-02T12:10:41.712Z</time></trkpt><trkpt lat="43.1041604" lon="12.0148731"><ele>294.4</ele><time>2026-05-02T12:10:42.713Z</time></trkpt><trkpt lat="43.1040604" lon="12.014899"><ele>294.79999999999995</ele><time>2026-05-02T12:10:43.709Z</time></trkpt><trkpt lat="43.1039505" lon="12.0149226"><ele>295.20000000000005</ele><time>2026-05-02T12:10:44.721Z</time></trkpt><trkpt lat="43.1038356" lon="12.0149466"><ele>295.6</ele><time>2026-05-02T12:10:45.717Z</time></trkpt><trkpt lat="43.1037226" lon="12.0149708"><ele>296.0</ele><time>2026-05-02T12:10:46.719Z</time></trkpt><trkpt lat="43.1036159" lon="12.0149975"><ele>296.0</ele><time>2026-05-02T12:10:47.708Z</time></trkpt><trkpt lat="43.1035176" lon="12.0150197"><ele>296.0</ele><time>2026-05-02T12:10:48.712Z</time></trkpt><trkpt lat="43.1034262" lon="12.0150363"><ele>296.0</ele><time>2026-05-02T12:10:49.712Z</time></trkpt><trkpt lat="43.1033392" lon="12.0150508"><ele>296.0</ele><time>2026-05-02T12:10:50.726Z</time></trkpt><trkpt lat="43.1032616" lon="12.0150679"><ele>296.0</ele><time>2026-05-02T12:10:51.713Z</time></trkpt><trkpt lat="43.1031899" lon="12.0150787"><ele>296.0</ele><time>2026-05-02T12:10:52.717Z</time></trkpt><trkpt lat="43.1031168" lon="12.0150716"><ele>294.8</ele><time>2026-05-02T12:10:53.71Z</time></trkpt><trkpt lat="43.103031" lon="12.0150653"><ele>293.6</ele><time>2026-05-02T12:10:54.714Z</time></trkpt><trkpt lat="43.1029403" lon="12.0150571"><ele>292.4</ele><time>2026-05-02T12:10:55.703Z</time></trkpt><trkpt lat="43.1028485" lon="12.0150483"><ele>291.2</ele><time>2026-05-02T12:10:56.719Z</time></trkpt><trkpt lat="43.1027533" lon="12.0150452"><ele>290.0</ele><time>2026-05-02T12:10:57.716Z</time></trkpt><trkpt lat="43.1026521" lon="12.0150561"><ele>290.0</ele><time>2026-05-02T12:10:58.708Z</time></trkpt><trkpt lat="43.1025465" lon="12.0150679"><ele>290.0</ele><time>2026-05-02T12:10:59.709Z</time></trkpt><trkpt lat="43.1024476" lon="12.0150834"><ele>290.0</ele><time>2026-05-02T12:11:00.712Z</time></trkpt><trkpt lat="43.102352" lon="12.0150974"><ele>290.0</ele><time>2026-05-02T12:11:01.717Z</time></trkpt><trkpt lat="43.1022589" lon="12.0151122"><ele>290.0</ele><time>2026-05-02T12:11:02.711Z</time></trkpt><trkpt lat="43.1021679" lon="12.0151393"><ele>289.0</ele><time>2026-05-02T12:11:03.717Z</time></trkpt><trkpt lat="43.1020847" lon="12.0151783"><ele>288.0</ele><time>2026-05-02T12:11:04.716Z</time></trkpt><trkpt lat="43.1020054" lon="12.0152079"><ele>287.0</ele><time>2026-05-02T12:11:05.711Z</time></trkpt><trkpt lat="43.1019265" lon="12.0152226"><ele>286.0</ele><time>2026-05-02T12:11:06.711Z</time></trkpt><trkpt lat="43.1018533" lon="12.0152349"><ele>285.0</ele><time>2026-05-02T12:11:07.707Z</time></trkpt><trkpt lat="43.1017884" lon="12.0152505"><ele>284.0</ele><time>2026-05-02T12:11:08.71Z</time></trkpt><trkpt lat="43.1017225" lon="12.0152642"><ele>284.0</ele><time>2026-05-02T12:11:09.716Z</time></trkpt><trkpt lat="43.1016576" lon="12.0152836"><ele>284.0</ele><time>2026-05-02T12:11:10.706Z</time></trkpt><trkpt lat="43.1015934" lon="12.0153107"><ele>284.0</ele><time>2026-05-02T12:11:11.71Z</time></trkpt><trkpt lat="43.1015014" lon="12.0153564"><ele>284.0</ele><time>2026-05-02T12:11:13.71Z</time></trkpt><trkpt lat="43.1014131" lon="12.0154054"><ele>284.0</ele><time>2026-05-02T12:11:15.726Z</time></trkpt><trkpt lat="43.1013271" lon="12.015446"><ele>284.0</ele><time>2026-05-02T12:11:17.703Z</time></trkpt><trkpt lat="43.1012502" lon="12.0154864"><ele>282.6666666666667</ele><time>2026-05-02T12:11:19.714Z</time></trkpt><trkpt lat="43.1011749" lon="12.0155257"><ele>281.33333333333337</ele><time>2026-05-02T12:11:22.717Z</time></trkpt><trkpt lat="43.1011054" lon="12.015528"><ele>280.0</ele><time>2026-05-02T12:11:25.705Z</time></trkpt><trkpt lat="43.1010423" lon="12.0154516"><ele>278.6666666666667</ele><time>2026-05-02T12:11:29.721Z</time></trkpt><trkpt lat="43.1009968" lon="12.0153787"><ele>277.3333333333333</ele><time>2026-05-02T12:11:31.71Z</time></trkpt><trkpt lat="43.1009407" lon="12.0153051"><ele>276.0</ele><time>2026-05-02T12:11:33.711Z</time></trkpt><trkpt lat="43.1008673" lon="12.0152047"><ele>276.0</ele><time>2026-05-02T12:11:35.698Z</time></trkpt><trkpt lat="43.1008031" lon="12.0150925"><ele>276.0</ele><time>2026-05-02T12:11:37.701Z</time></trkpt><trkpt lat="43.1007385" lon="12.0149913"><ele>276.0</ele><time>2026-05-02T12:11:39.707Z</time></trkpt><trkpt lat="43.10067" lon="12.0148891"><ele>276.0</ele><time>2026-05-02T12:11:41.717Z</time></trkpt><trkpt lat="43.1006048" lon="12.014779"><ele>276.0</ele><time>2026-05-02T12:11:43.71Z</time></trkpt><trkpt lat="43.100562" lon="12.0147011"><ele>276.0</ele><time>2026-05-02T12:11:45.711Z</time></trkpt><trkpt lat="43.1005241" lon="12.0146311"><ele>276.0</ele><time>2026-05-02T12:11:48.736Z</time></trkpt><trkpt lat="43.1004827" lon="12.0145495"><ele>276.0</ele><time>2026-05-02T12:11:52.71Z</time></trkpt><trkpt lat="43.1004582" lon="12.0144665"><ele>276.0</ele><time>2026-05-02T12:13:10.697Z</time></trkpt><trkpt lat="43.1004408" lon="12.0143794"><ele>276.0</ele><time>2026-05-02T12:13:15.714Z</time></trkpt><trkpt lat="43.1004158" lon="12.0142796"><ele>276.0</ele><time>2026-05-02T12:13:27.709Z</time></trkpt><trkpt lat="43.1003671" lon="12.0142136"><ele>276.0</ele><time>2026-05-02T12:13:59.705Z</time></trkpt><trkpt lat="43.1003398" lon="12.0141256"><ele>276.0</ele><time>2026-05-02T12:14:02.71Z</time></trkpt><trkpt lat="43.1003209" lon="12.0140308"><ele>276.0</ele><time>2026-05-02T12:14:08.731Z</time></trkpt><trkpt lat="43.1002878" lon="12.0138986"><ele>276.0</ele><time>2026-05-02T12:14:11.711Z</time></trkpt><trkpt lat="43.1002613" lon="12.0138138"><ele>276.0</ele><time>2026-05-02T12:17:05.713Z</time></trkpt><trkpt lat="43.1002349" lon="12.0137263"><ele>276.0</ele><time>2026-05-02T12:17:07.713Z</time></trkpt><trkpt lat="43.1002072" lon="12.0136475"><ele>276.0</ele><time>2026-05-02T12:17:09.715Z</time></trkpt><trkpt lat="43.1001859" lon="12.0135606"><ele>276.0</ele><time>2026-05-02T12:17:11.716Z</time></trkpt><trkpt lat="43.1001533" lon="12.0134287"><ele>276.5</ele><time>2026-05-02T12:17:13.72Z</time></trkpt><trkpt lat="43.1001051" lon="12.0133038"><ele>277.0</ele><time>2026-05-02T12:17:15.714Z</time></trkpt><trkpt lat="43.100045" lon="12.0132297"><ele>277.5</ele><time>2026-05-02T12:17:17.717Z</time></trkpt><trkpt lat="43.0999785" lon="12.0131841"><ele>278.0</ele><time>2026-05-02T12:17:19.713Z</time></trkpt><trkpt lat="43.0998996" lon="12.013146"><ele>278.5</ele><time>2026-05-02T12:17:21.726Z</time></trkpt><trkpt lat="43.09984" lon="12.0130887"><ele>279.0</ele><time>2026-05-02T12:17:23.709Z</time></trkpt><trkpt lat="43.0997627" lon="12.0130259"><ele>279.0</ele><time>2026-05-02T12:17:26.712Z</time></trkpt><trkpt lat="43.0996829" lon="12.0129555"><ele>279.0</ele><time>2026-05-02T12:17:29.712Z</time></trkpt><trkpt lat="43.0996105" lon="12.0128958"><ele>279.0</ele><time>2026-05-02T12:17:32.72Z</time></trkpt><trkpt lat="43.0995426" lon="12.0128309"><ele>279.0</ele><time>2026-05-02T12:17:34.742Z</time></trkpt><trkpt lat="43.0994631" lon="12.0127604"><ele>279.0</ele><time>2026-05-02T12:17:36.721Z</time></trkpt><trkpt lat="43.0993639" lon="12.0126907"><ele>279.0</ele><time>2026-05-02T12:17:38.716Z</time></trkpt><trkpt lat="43.0992657" lon="12.0126183"><ele>279.0</ele><time>2026-05-02T12:17:40.733Z</time></trkpt><trkpt lat="43.0991642" lon="12.0125492"><ele>279.0</ele><time>2026-05-02T12:17:42.725Z</time></trkpt><trkpt lat="43.0990453" lon="12.0124729"><ele>279.0</ele><time>2026-05-02T12:17:44.71Z</time></trkpt><trkpt lat="43.0989819" lon="12.0124252"><ele>279.0</ele><time>2026-05-02T12:17:45.717Z</time></trkpt><trkpt lat="43.0989153" lon="12.0123726"><ele>281.0</ele><time>2026-05-02T12:17:46.72Z</time></trkpt><trkpt lat="43.0988357" lon="12.0123118"><ele>283.0</ele><time>2026-05-02T12:17:47.707Z</time></trkpt><trkpt lat="43.0987446" lon="12.0122368"><ele>285.0</ele><time>2026-05-02T12:17:48.701Z</time></trkpt><trkpt lat="43.0986482" lon="12.0121683"><ele>287.0</ele><time>2026-05-02T12:17:49.715Z</time></trkpt><trkpt lat="43.0985607" lon="12.0121035"><ele>289.0</ele><time>2026-05-02T12:17:50.72Z</time></trkpt><trkpt lat="43.0984908" lon="12.0120441"><ele>289.0</ele><time>2026-05-02T12:17:51.718Z</time></trkpt><trkpt lat="43.0984403" lon="12.0119857"><ele>289.0</ele><time>2026-05-02T12:17:52.708Z</time></trkpt><trkpt lat="43.0983524" lon="12.0118616"><ele>289.0</ele><time>2026-05-02T12:17:54.72Z</time></trkpt><trkpt lat="43.0983009" lon="12.0117833"><ele>289.0</ele><time>2026-05-02T12:17:55.721Z</time></trkpt><trkpt lat="43.0982452" lon="12.0116737"><ele>289.0</ele><time>2026-05-02T12:17:56.714Z</time></trkpt><trkpt lat="43.0981873" lon="12.0115492"><ele>289.0</ele><time>2026-05-02T12:17:57.709Z</time></trkpt><trkpt lat="43.0981423" lon="12.0114128"><ele>289.0</ele><time>2026-05-02T12:17:58.72Z</time></trkpt><trkpt lat="43.0981092" lon="12.0112621"><ele>289.0</ele><time>2026-05-02T12:17:59.704Z</time></trkpt><trkpt lat="43.0980765" lon="12.011089"><ele>289.0</ele><time>2026-05-02T12:18:00.731Z</time></trkpt><trkpt lat="43.0980401" lon="12.0108918"><ele>291.0</ele><time>2026-05-02T12:18:01.727Z</time></trkpt><trkpt lat="43.0980014" lon="12.0106643"><ele>293.0</ele><time>2026-05-02T12:18:02.717Z</time></trkpt><trkpt lat="43.097959" lon="12.0104363"><ele>295.0</ele><time>2026-05-02T12:18:03.708Z</time></trkpt><trkpt lat="43.0979206" lon="12.0102154"><ele>295.0</ele><time>2026-05-02T12:18:04.713Z</time></trkpt><trkpt lat="43.0978887" lon="12.0100032"><ele>295.0</ele><time>2026-05-02T12:18:05.711Z</time></trkpt><trkpt lat="43.0978614" lon="12.0097926"><ele>295.0</ele><time>2026-05-02T12:18:06.715Z</time></trkpt><trkpt lat="43.0978367" lon="12.0095764"><ele>297.66666666666663</ele><time>2026-05-02T12:18:07.706Z</time></trkpt><trkpt lat="43.097799" lon="12.0093457"><ele>300.3333333333333</ele><time>2026-05-02T12:18:08.731Z</time></trkpt><trkpt lat="43.0977587" lon="12.0091149"><ele>303.0</ele><time>2026-05-02T12:18:09.71Z</time></trkpt><trkpt lat="43.0977108" lon="12.0089002"><ele>304.25</ele><time>2026-05-02T12:18:10.731Z</time></trkpt><trkpt lat="43.0976705" lon="12.0087063"><ele>305.5</ele><time>2026-05-02T12:18:11.711Z</time></trkpt><trkpt lat="43.0976344" lon="12.0085206"><ele>306.75</ele><time>2026-05-02T12:18:12.705Z</time></trkpt><trkpt lat="43.0975979" lon="12.0083364"><ele>308.0</ele><time>2026-05-02T12:18:13.714Z</time></trkpt><trkpt lat="43.0975599" lon="12.0081551"><ele>308.75</ele><time>2026-05-02T12:18:14.709Z</time></trkpt><trkpt lat="43.0975228" lon="12.00797"><ele>309.5</ele><time>2026-05-02T12:18:15.717Z</time></trkpt><trkpt lat="43.0974865" lon="12.0077831"><ele>310.25</ele><time>2026-05-02T12:18:16.706Z</time></trkpt><trkpt lat="43.0974534" lon="12.0075971"><ele>311.0</ele><time>2026-05-02T12:18:17.7Z</time></trkpt><trkpt lat="43.0974223" lon="12.007422"><ele>312.25</ele><time>2026-05-02T12:18:18.725Z</time></trkpt><trkpt lat="43.0973964" lon="12.0072624"><ele>313.5</ele><time>2026-05-02T12:18:19.715Z</time></trkpt><trkpt lat="43.09737" lon="12.0071117"><ele>314.75</ele><time>2026-05-02T12:18:20.7Z</time></trkpt><trkpt lat="43.0973456" lon="12.0069641"><ele>316.0</ele><time>2026-05-02T12:18:21.708Z</time></trkpt><trkpt lat="43.0973196" lon="12.0068159"><ele>316.0</ele><time>2026-05-02T12:18:22.714Z</time></trkpt><trkpt lat="43.0972942" lon="12.0066694"><ele>316.0</ele><time>2026-05-02T12:18:23.712Z</time></trkpt><trkpt lat="43.0972656" lon="12.0065316"><ele>316.0</ele><time>2026-05-02T12:18:24.722Z</time></trkpt><trkpt lat="43.0972346" lon="12.0064024"><ele>316.0</ele><time>2026-05-02T12:18:25.705Z</time></trkpt><trkpt lat="43.0972034" lon="12.0062778"><ele>316.0</ele><time>2026-05-02T12:18:26.703Z</time></trkpt><trkpt lat="43.097172" lon="12.0061547"><ele>316.3333333333333</ele><time>2026-05-02T12:18:27.704Z</time></trkpt><trkpt lat="43.0971463" lon="12.0060353"><ele>316.66666666666663</ele><time>2026-05-02T12:18:28.707Z</time></trkpt><trkpt lat="43.0971257" lon="12.0059215"><ele>317.0</ele><time>2026-05-02T12:18:29.719Z</time></trkpt><trkpt lat="43.0971037" lon="12.0058113"><ele>317.3333333333333</ele><time>2026-05-02T12:18:30.716Z</time></trkpt><trkpt lat="43.0970826" lon="12.0057207"><ele>317.6666666666667</ele><time>2026-05-02T12:18:31.7Z</time></trkpt><trkpt lat="43.0970783" lon="12.0055801"><ele>318.0</ele><time>2026-05-02T12:18:33.702Z</time></trkpt><trkpt lat="43.0970722" lon="12.0054907"><ele>317.2</ele><time>2026-05-02T12:18:35.71Z</time></trkpt><trkpt lat="43.0970327" lon="12.0053567"><ele>316.4</ele><time>2026-05-02T12:18:39.71Z</time></trkpt><trkpt lat="43.0969677" lon="12.0052152"><ele>315.59999999999997</ele><time>2026-05-02T12:18:41.714Z</time></trkpt><trkpt lat="43.0969261" lon="12.0051343"><ele>314.8</ele><time>2026-05-02T12:18:42.725Z</time></trkpt><trkpt lat="43.0968782" lon="12.0050515"><ele>314.0</ele><time>2026-05-02T12:18:43.719Z</time></trkpt><trkpt lat="43.0968166" lon="12.0049716"><ele>312.2</ele><time>2026-05-02T12:18:44.732Z</time></trkpt><trkpt lat="43.0967458" lon="12.0048884"><ele>310.4</ele><time>2026-05-02T12:18:45.717Z</time></trkpt><trkpt lat="43.0966742" lon="12.0048004"><ele>308.6</ele><time>2026-05-02T12:18:46.735Z</time></trkpt><trkpt lat="43.0966142" lon="12.0047266"><ele>306.8</ele><time>2026-05-02T12:18:47.715Z</time></trkpt><trkpt lat="43.096534" lon="12.0046362"><ele>305.0</ele><time>2026-05-02T12:18:49.708Z</time></trkpt><trkpt lat="43.0964587" lon="12.0045733"><ele>303.8</ele><time>2026-05-02T12:18:51.693Z</time></trkpt><trkpt lat="43.0963316" lon="12.0045528"><ele>302.6</ele><time>2026-05-02T12:18:53.721Z</time></trkpt><trkpt lat="43.0962631" lon="12.0045823"><ele>301.4</ele><time>2026-05-02T12:18:54.721Z</time></trkpt><trkpt lat="43.0961874" lon="12.0046189"><ele>300.2</ele><time>2026-05-02T12:18:55.707Z</time></trkpt><trkpt lat="43.0961023" lon="12.0046699"><ele>299.0</ele><time>2026-05-02T12:18:56.715Z</time></trkpt><trkpt lat="43.0960245" lon="12.0047219"><ele>299.0</ele><time>2026-05-02T12:18:57.711Z</time></trkpt><trkpt lat="43.0959592" lon="12.0047744"><ele>299.0</ele><time>2026-05-02T12:18:58.72Z</time></trkpt><trkpt lat="43.0959048" lon="12.0048199"><ele>299.0</ele><time>2026-05-02T12:18:59.705Z</time></trkpt><trkpt lat="43.0958285" lon="12.0048642"><ele>299.0</ele><time>2026-05-02T12:19:01.713Z</time></trkpt><trkpt lat="43.0957417" lon="12.0048978"><ele>299.0</ele><time>2026-05-02T12:19:04.708Z</time></trkpt><trkpt lat="43.0956791" lon="12.0048864"><ele>299.0</ele><time>2026-05-02T12:19:06.702Z</time></trkpt><trkpt lat="43.0956171" lon="12.0048348"><ele>299.0</ele><time>2026-05-02T12:19:08.702Z</time></trkpt><trkpt lat="43.0955171" lon="12.0047548"><ele>297.1666666666667</ele><time>2026-05-02T12:19:10.712Z</time></trkpt><trkpt lat="43.0954055" lon="12.0046725"><ele>295.33333333333337</ele><time>2026-05-02T12:19:12.72Z</time></trkpt><trkpt lat="43.0953484" lon="12.004617"><ele>293.5</ele><time>2026-05-02T12:19:13.734Z</time></trkpt><trkpt lat="43.0952873" lon="12.0045601"><ele>291.6666666666667</ele><time>2026-05-02T12:19:14.72Z</time></trkpt><trkpt lat="43.0952238" lon="12.0045041"><ele>289.8333333333333</ele><time>2026-05-02T12:19:15.707Z</time></trkpt><trkpt lat="43.0951559" lon="12.0044435"><ele>288.0</ele><time>2026-05-02T12:19:16.699Z</time></trkpt><trkpt lat="43.095081" lon="12.0043823"><ele>288.0</ele><time>2026-05-02T12:19:17.714Z</time></trkpt><trkpt lat="43.0950021" lon="12.0043238"><ele>288.0</ele><time>2026-05-02T12:19:18.715Z</time></trkpt><trkpt lat="43.0949203" lon="12.0042643"><ele>288.0</ele><time>2026-05-02T12:19:19.706Z</time></trkpt><trkpt lat="43.0948359" lon="12.0041995"><ele>288.0</ele><time>2026-05-02T12:19:20.718Z</time></trkpt><trkpt lat="43.0947554" lon="12.0041321"><ele>288.0</ele><time>2026-05-02T12:19:21.709Z</time></trkpt><trkpt lat="43.0946708" lon="12.0040669"><ele>287.0</ele><time>2026-05-02T12:19:22.711Z</time></trkpt><trkpt lat="43.0945843" lon="12.0040045"><ele>286.0</ele><time>2026-05-02T12:19:23.714Z</time></trkpt><trkpt lat="43.094497" lon="12.0039418"><ele>285.0</ele><time>2026-05-02T12:19:24.708Z</time></trkpt><trkpt lat="43.094411" lon="12.0038748"><ele>284.0</ele><time>2026-05-02T12:19:25.703Z</time></trkpt><trkpt lat="43.0943298" lon="12.0038142"><ele>283.0</ele><time>2026-05-02T12:19:26.716Z</time></trkpt><trkpt lat="43.0942563" lon="12.0037581"><ele>283.0</ele><time>2026-05-02T12:19:27.714Z</time></trkpt><trkpt lat="43.094187" lon="12.0037034"><ele>283.0</ele><time>2026-05-02T12:19:28.712Z</time></trkpt><trkpt lat="43.0941205" lon="12.0036511"><ele>283.0</ele><time>2026-05-02T12:19:29.707Z</time></trkpt><trkpt lat="43.0940527" lon="12.003597"><ele>283.0</ele><time>2026-05-02T12:19:30.709Z</time></trkpt><trkpt lat="43.0939799" lon="12.0035359"><ele>283.0</ele><time>2026-05-02T12:19:31.716Z</time></trkpt><trkpt lat="43.0939045" lon="12.0034737"><ele>283.0</ele><time>2026-05-02T12:19:32.71Z</time></trkpt><trkpt lat="43.0938245" lon="12.0034064"><ele>283.2</ele><time>2026-05-02T12:19:33.706Z</time></trkpt><trkpt lat="43.0937395" lon="12.0033378"><ele>283.4</ele><time>2026-05-02T12:19:34.709Z</time></trkpt><trkpt lat="43.0936533" lon="12.0032646"><ele>283.59999999999997</ele><time>2026-05-02T12:19:35.705Z</time></trkpt><trkpt lat="43.0935678" lon="12.0031894"><ele>283.8</ele><time>2026-05-02T12:19:36.71Z</time></trkpt><trkpt lat="43.093487" lon="12.0031179"><ele>284.0</ele><time>2026-05-02T12:19:37.702Z</time></trkpt><trkpt lat="43.0934129" lon="12.0030528"><ele>285.0</ele><time>2026-05-02T12:19:38.713Z</time></trkpt><trkpt lat="43.0933404" lon="12.0029899"><ele>286.0</ele><time>2026-05-02T12:19:39.716Z</time></trkpt><trkpt lat="43.0932685" lon="12.0029271"><ele>287.0</ele><time>2026-05-02T12:19:40.722Z</time></trkpt><trkpt lat="43.0931944" lon="12.0028723"><ele>288.0</ele><time>2026-05-02T12:19:41.715Z</time></trkpt><trkpt lat="43.0931315" lon="12.0028273"><ele>289.0</ele><time>2026-05-02T12:19:42.733Z</time></trkpt><trkpt lat="43.0930362" lon="12.0027546"><ele>290.0</ele><time>2026-05-02T12:19:44.729Z</time></trkpt><trkpt lat="43.0929524" lon="12.0027219"><ele>290.6666666666667</ele><time>2026-05-02T12:19:46.709Z</time></trkpt><trkpt lat="43.0928789" lon="12.0026745"><ele>291.33333333333337</ele><time>2026-05-02T12:19:48.719Z</time></trkpt><trkpt lat="43.0928155" lon="12.0026023"><ele>292.0</ele><time>2026-05-02T12:19:50.716Z</time></trkpt><trkpt lat="43.0927545" lon="12.0025448"><ele>292.6666666666667</ele><time>2026-05-02T12:19:57.71Z</time></trkpt><trkpt lat="43.0926935" lon="12.0024904"><ele>293.3333333333333</ele><time>2026-05-02T12:20:01.714Z</time></trkpt><trkpt lat="43.0926389" lon="12.0024345"><ele>294.0</ele><time>2026-05-02T12:20:05.707Z</time></trkpt><trkpt lat="43.0925802" lon="12.0023725"><ele>294.8333333333333</ele><time>2026-05-02T12:20:08.707Z</time></trkpt><trkpt lat="43.0925209" lon="12.0023163"><ele>295.6666666666667</ele><time>2026-05-02T12:20:10.706Z</time></trkpt><trkpt lat="43.092439" lon="12.002241"><ele>296.5</ele><time>2026-05-02T12:20:12.705Z</time></trkpt><trkpt lat="43.0923677" lon="12.0021711"><ele>297.33333333333337</ele><time>2026-05-02T12:20:14.717Z</time></trkpt><trkpt lat="43.0923106" lon="12.0021342"><ele>298.1666666666667</ele><time>2026-05-02T12:20:16.705Z</time></trkpt><trkpt lat="43.0922402" lon="12.0020842"><ele>299.0</ele><time>2026-05-02T12:20:19.706Z</time></trkpt><trkpt lat="43.0921779" lon="12.0020214"><ele>299.0</ele><time>2026-05-02T12:20:22.715Z</time></trkpt><trkpt lat="43.0921201" lon="12.0019702"><ele>299.0</ele><time>2026-05-02T12:20:24.716Z</time></trkpt><trkpt lat="43.0920378" lon="12.0019148"><ele>299.0</ele><time>2026-05-02T12:20:27.698Z</time></trkpt><trkpt lat="43.0919767" lon="12.0018756"><ele>299.0</ele><time>2026-05-02T12:20:29.714Z</time></trkpt><trkpt lat="43.0919125" lon="12.0018463"><ele>299.0</ele><time>2026-05-02T12:20:31.709Z</time></trkpt><trkpt lat="43.0918388" lon="12.0018202"><ele>299.0</ele><time>2026-05-02T12:20:33.71Z</time></trkpt><trkpt lat="43.0917533" lon="12.0018068"><ele>299.0</ele><time>2026-05-02T12:20:36.713Z</time></trkpt><trkpt lat="43.0916631" lon="12.0017907"><ele>299.0</ele><time>2026-05-02T12:20:39.702Z</time></trkpt><trkpt lat="43.0916045" lon="12.0017581"><ele>299.0</ele><time>2026-05-02T12:20:41.706Z</time></trkpt><trkpt lat="43.0915026" lon="12.0017067"><ele>299.0</ele><time>2026-05-02T12:20:44.706Z</time></trkpt><trkpt lat="43.0914366" lon="12.0016854"><ele>299.0</ele><time>2026-05-02T12:20:45.709Z</time></trkpt><trkpt lat="43.0913697" lon="12.0016529"><ele>299.0</ele><time>2026-05-02T12:20:46.704Z</time></trkpt><trkpt lat="43.0913055" lon="12.0016205"><ele>298.8</ele><time>2026-05-02T12:20:47.701Z</time></trkpt><trkpt lat="43.091197" lon="12.0015563"><ele>298.59999999999997</ele><time>2026-05-02T12:20:49.698Z</time></trkpt><trkpt lat="43.0911" lon="12.0015277"><ele>298.4</ele><time>2026-05-02T12:20:51.694Z</time></trkpt><trkpt lat="43.0910019" lon="12.0015895"><ele>298.2</ele><time>2026-05-02T12:20:53.705Z</time></trkpt><trkpt lat="43.0909582" lon="12.0016526"><ele>298.0</ele><time>2026-05-02T12:20:54.699Z</time></trkpt><trkpt lat="43.0909151" lon="12.0017394"><ele>297.0</ele><time>2026-05-02T12:20:55.712Z</time></trkpt><trkpt lat="43.0908716" lon="12.0018265"><ele>296.0</ele><time>2026-05-02T12:20:56.71Z</time></trkpt><trkpt lat="43.0908184" lon="12.0019083"><ele>295.0</ele><time>2026-05-02T12:20:57.716Z</time></trkpt><trkpt lat="43.0907632" lon="12.001987"><ele>294.0</ele><time>2026-05-02T12:20:58.711Z</time></trkpt><trkpt lat="43.0907116" lon="12.0020546"><ele>293.0</ele><time>2026-05-02T12:20:59.703Z</time></trkpt><trkpt lat="43.0906654" lon="12.002124"><ele>292.0</ele><time>2026-05-02T12:21:00.726Z</time></trkpt><trkpt lat="43.0906216" lon="12.0021902"><ele>291.0</ele><time>2026-05-02T12:21:01.708Z</time></trkpt><trkpt lat="43.0905768" lon="12.0022591"><ele>290.6666666666667</ele><time>2026-05-02T12:21:02.711Z</time></trkpt><trkpt lat="43.0905336" lon="12.0023301"><ele>290.3333333333333</ele><time>2026-05-02T12:21:03.713Z</time></trkpt><trkpt lat="43.0904889" lon="12.0024021"><ele>290.0</ele><time>2026-05-02T12:21:04.71Z</time></trkpt><trkpt lat="43.0904431" lon="12.0024747"><ele>289.66666666666663</ele><time>2026-05-02T12:21:05.718Z</time></trkpt><trkpt lat="43.0903846" lon="12.0025403"><ele>289.3333333333333</ele><time>2026-05-02T12:21:06.713Z</time></trkpt><trkpt lat="43.0903001" lon="12.0026035"><ele>289.0</ele><time>2026-05-02T12:21:08.708Z</time></trkpt><trkpt lat="43.0901982" lon="12.0026232"><ele>289.66666666666663</ele><time>2026-05-02T12:21:14.705Z</time></trkpt><trkpt lat="43.0901343" lon="12.0026216"><ele>290.3333333333333</ele><time>2026-05-02T12:21:15.702Z</time></trkpt><trkpt lat="43.0900711" lon="12.0026135"><ele>291.0</ele><time>2026-05-02T12:21:16.709Z</time></trkpt><trkpt lat="43.0900066" lon="12.0026056"><ele>291.6666666666667</ele><time>2026-05-02T12:21:17.711Z</time></trkpt><trkpt lat="43.0899326" lon="12.0025936"><ele>292.33333333333337</ele><time>2026-05-02T12:21:18.706Z</time></trkpt><trkpt lat="43.0898393" lon="12.0025735"><ele>293.0</ele><time>2026-05-02T12:21:19.709Z</time></trkpt><trkpt lat="43.0897244" lon="12.0025508"><ele>293.0</ele><time>2026-05-02T12:21:20.705Z</time></trkpt><trkpt lat="43.0896087" lon="12.002528"><ele>293.0</ele><time>2026-05-02T12:21:21.706Z</time></trkpt><trkpt lat="43.0894914" lon="12.0025025"><ele>293.0</ele><time>2026-05-02T12:21:22.708Z</time></trkpt><trkpt lat="43.089377" lon="12.0024724"><ele>293.0</ele><time>2026-05-02T12:21:23.709Z</time></trkpt><trkpt lat="43.0892621" lon="12.0024497"><ele>293.0</ele><time>2026-05-02T12:21:24.708Z</time></trkpt><trkpt lat="43.0891452" lon="12.0024228"><ele>293.0</ele><time>2026-05-02T12:21:25.703Z</time></trkpt><trkpt lat="43.0890244" lon="12.0024087"><ele>293.0</ele><time>2026-05-02T12:21:26.713Z</time></trkpt><trkpt lat="43.0888988" lon="12.0023973"><ele>293.0</ele><time>2026-05-02T12:21:27.711Z</time></trkpt><trkpt lat="43.0887812" lon="12.0023975"><ele>293.5</ele><time>2026-05-02T12:21:28.714Z</time></trkpt><trkpt lat="43.0886601" lon="12.0024064"><ele>294.0</ele><time>2026-05-02T12:21:29.698Z</time></trkpt><trkpt lat="43.0885392" lon="12.0024229"><ele>294.5</ele><time>2026-05-02T12:21:30.713Z</time></trkpt><trkpt lat="43.0884196" lon="12.0024404"><ele>295.0</ele><time>2026-05-02T12:21:31.703Z</time></trkpt><trkpt lat="43.088299" lon="12.0024579"><ele>296.5</ele><time>2026-05-02T12:21:32.705Z</time></trkpt><trkpt lat="43.0881728" lon="12.0024687"><ele>298.0</ele><time>2026-05-02T12:21:33.712Z</time></trkpt><trkpt lat="43.0880433" lon="12.0024917"><ele>299.5</ele><time>2026-05-02T12:21:34.72Z</time></trkpt><trkpt lat="43.0879138" lon="12.0025143"><ele>301.0</ele><time>2026-05-02T12:21:35.705Z</time></trkpt><trkpt lat="43.087784" lon="12.0025366"><ele>302.75</ele><time>2026-05-02T12:21:36.726Z</time></trkpt><trkpt lat="43.0876526" lon="12.0025549"><ele>304.5</ele><time>2026-05-02T12:21:37.7Z</time></trkpt><trkpt lat="43.0875246" lon="12.0025725"><ele>306.25</ele><time>2026-05-02T12:21:38.71Z</time></trkpt><trkpt lat="43.0873986" lon="12.0025931"><ele>308.0</ele><time>2026-05-02T12:21:39.705Z</time></trkpt><trkpt lat="43.0872699" lon="12.0026095"><ele>308.8</ele><time>2026-05-02T12:21:40.714Z</time></trkpt><trkpt lat="43.0871538" lon="12.0026212"><ele>309.6</ele><time>2026-05-02T12:21:41.713Z</time></trkpt><trkpt lat="43.0870534" lon="12.0026206"><ele>310.4</ele><time>2026-05-02T12:21:42.709Z</time></trkpt><trkpt lat="43.086959" lon="12.002603"><ele>311.2</ele><time>2026-05-02T12:21:43.711Z</time></trkpt><trkpt lat="43.0868586" lon="12.0025688"><ele>312.0</ele><time>2026-05-02T12:21:44.712Z</time></trkpt><trkpt lat="43.0867508" lon="12.0025279"><ele>311.25</ele><time>2026-05-02T12:21:45.707Z</time></trkpt><trkpt lat="43.0866332" lon="12.0024843"><ele>310.5</ele><time>2026-05-02T12:21:46.725Z</time></trkpt><trkpt lat="43.0865089" lon="12.002445"><ele>309.75</ele><time>2026-05-02T12:21:47.709Z</time></trkpt><trkpt lat="43.0863838" lon="12.0024083"><ele>309.0</ele><time>2026-05-02T12:21:48.714Z</time></trkpt><trkpt lat="43.08626" lon="12.002367"><ele>309.0</ele><time>2026-05-02T12:21:49.699Z</time></trkpt><trkpt lat="43.0861383" lon="12.0023227"><ele>309.0</ele><time>2026-05-02T12:21:50.724Z</time></trkpt><trkpt lat="43.0860307" lon="12.0022905"><ele>309.0</ele><time>2026-05-02T12:21:51.711Z</time></trkpt><trkpt lat="43.0859223" lon="12.0022608"><ele>309.0</ele><time>2026-05-02T12:21:52.722Z</time></trkpt><trkpt lat="43.0858078" lon="12.0022453"><ele>310.75</ele><time>2026-05-02T12:21:53.704Z</time></trkpt><trkpt lat="43.0856882" lon="12.0022534"><ele>312.5</ele><time>2026-05-02T12:21:54.729Z</time></trkpt><trkpt lat="43.0855691" lon="12.0022777"><ele>314.25</ele><time>2026-05-02T12:21:55.712Z</time></trkpt><trkpt lat="43.08545" lon="12.0023084"><ele>316.0</ele><time>2026-05-02T12:21:56.711Z</time></trkpt><trkpt lat="43.0853275" lon="12.0023301"><ele>316.0</ele><time>2026-05-02T12:21:57.71Z</time></trkpt><trkpt lat="43.0851959" lon="12.0023491"><ele>316.0</ele><time>2026-05-02T12:21:58.709Z</time></trkpt><trkpt lat="43.0850635" lon="12.0023702"><ele>316.0</ele><time>2026-05-02T12:21:59.705Z</time></trkpt><trkpt lat="43.0849311" lon="12.0023906"><ele>316.0</ele><time>2026-05-02T12:22:00.69Z</time></trkpt><trkpt lat="43.0848005" lon="12.0024104"><ele>318.25</ele><time>2026-05-02T12:22:01.697Z</time></trkpt><trkpt lat="43.0846721" lon="12.0024253"><ele>320.5</ele><time>2026-05-02T12:22:02.711Z</time></trkpt><trkpt lat="43.0845449" lon="12.0024414"><ele>322.75</ele><time>2026-05-02T12:22:03.711Z</time></trkpt><trkpt lat="43.0844138" lon="12.0024554"><ele>325.0</ele><time>2026-05-02T12:22:04.695Z</time></trkpt><trkpt lat="43.0842855" lon="12.002466"><ele>325.0</ele><time>2026-05-02T12:22:05.713Z</time></trkpt><trkpt lat="43.0841706" lon="12.0024785"><ele>325.0</ele><time>2026-05-02T12:22:06.7Z</time></trkpt><trkpt lat="43.0840572" lon="12.0024899"><ele>325.0</ele><time>2026-05-02T12:22:07.703Z</time></trkpt><trkpt lat="43.0839564" lon="12.0025097"><ele>325.0</ele><time>2026-05-02T12:22:08.707Z</time></trkpt><trkpt lat="43.0838633" lon="12.0025251"><ele>325.0</ele><time>2026-05-02T12:22:09.707Z</time></trkpt><trkpt lat="43.0837797" lon="12.0025407"><ele>326.3333333333333</ele><time>2026-05-02T12:22:10.69Z</time></trkpt><trkpt lat="43.0837155" lon="12.0025599"><ele>327.66666666666663</ele><time>2026-05-02T12:22:11.704Z</time></trkpt><trkpt lat="43.083635" lon="12.0025906"><ele>329.0</ele><time>2026-05-02T12:22:13.711Z</time></trkpt><trkpt lat="43.0835724" lon="12.0026273"><ele>330.3333333333333</ele><time>2026-05-02T12:22:16.704Z</time></trkpt><trkpt lat="43.0835136" lon="12.0027054"><ele>331.6666666666667</ele><time>2026-05-02T12:22:19.712Z</time></trkpt><trkpt lat="43.0835076" lon="12.0028789"><ele>333.0</ele><time>2026-05-02T12:22:21.693Z</time></trkpt><trkpt lat="43.0835018" lon="12.0029885"><ele>333.0</ele><time>2026-05-02T12:22:22.708Z</time></trkpt><trkpt lat="43.0834931" lon="12.0031131"><ele>333.0</ele><time>2026-05-02T12:22:23.719Z</time></trkpt><trkpt lat="43.0834689" lon="12.0032546"><ele>333.0</ele><time>2026-05-02T12:22:24.703Z</time></trkpt><trkpt lat="43.0834241" lon="12.0034008"><ele>333.0</ele><time>2026-05-02T12:22:25.709Z</time></trkpt><trkpt lat="43.0833714" lon="12.0035535"><ele>333.0</ele><time>2026-05-02T12:22:26.717Z</time></trkpt><trkpt lat="43.083318" lon="12.0037145"><ele>333.25</ele><time>2026-05-02T12:22:27.699Z</time></trkpt><trkpt lat="43.083276" lon="12.0038818"><ele>333.5</ele><time>2026-05-02T12:22:28.709Z</time></trkpt><trkpt lat="43.0832559" lon="12.0040508"><ele>333.75</ele><time>2026-05-02T12:22:29.71Z</time></trkpt><trkpt lat="43.0832543" lon="12.0042067"><ele>334.0</ele><time>2026-05-02T12:22:30.702Z</time></trkpt><trkpt lat="43.0832641" lon="12.004329"><ele>333.66666666666663</ele><time>2026-05-02T12:22:31.695Z</time></trkpt><trkpt lat="43.0832625" lon="12.0044248"><ele>333.3333333333333</ele><time>2026-05-02T12:22:32.696Z</time></trkpt><trkpt lat="43.0832205" lon="12.0045573"><ele>333.0</ele><time>2026-05-02T12:22:34.701Z</time></trkpt><trkpt lat="43.0831382" lon="12.0046796"><ele>332.6666666666667</ele><time>2026-05-02T12:22:36.699Z</time></trkpt><trkpt lat="43.083095" lon="12.0047558"><ele>332.33333333333337</ele><time>2026-05-02T12:22:37.689Z</time></trkpt><trkpt lat="43.0830476" lon="12.0048334"><ele>332.0</ele><time>2026-05-02T12:22:38.711Z</time></trkpt><trkpt lat="43.0829978" lon="12.004917"><ele>332.33333333333337</ele><time>2026-05-02T12:22:39.706Z</time></trkpt><trkpt lat="43.0829529" lon="12.0050139"><ele>332.6666666666667</ele><time>2026-05-02T12:22:40.705Z</time></trkpt><trkpt lat="43.0829027" lon="12.0051138"><ele>333.0</ele><time>2026-05-02T12:22:41.702Z</time></trkpt><trkpt lat="43.0828442" lon="12.0052063"><ele>333.3333333333333</ele><time>2026-05-02T12:22:42.701Z</time></trkpt><trkpt lat="43.0827779" lon="12.0052817"><ele>333.66666666666663</ele><time>2026-05-02T12:22:43.702Z</time></trkpt><trkpt lat="43.0827025" lon="12.0053526"><ele>334.0</ele><time>2026-05-02T12:22:44.713Z</time></trkpt><trkpt lat="43.0826335" lon="12.0054401"><ele>334.0</ele><time>2026-05-02T12:22:45.706Z</time></trkpt><trkpt lat="43.0825622" lon="12.0055408"><ele>334.0</ele><time>2026-05-02T12:22:46.708Z</time></trkpt><trkpt lat="43.0824943" lon="12.0056499"><ele>334.0</ele><time>2026-05-02T12:22:47.696Z</time></trkpt><trkpt lat="43.0824263" lon="12.00576"><ele>334.0</ele><time>2026-05-02T12:22:48.704Z</time></trkpt><trkpt lat="43.0823658" lon="12.0058747"><ele>334.0</ele><time>2026-05-02T12:22:49.7Z</time></trkpt><trkpt lat="43.0823107" lon="12.0059934"><ele>331.8333333333333</ele><time>2026-05-02T12:22:50.708Z</time></trkpt><trkpt lat="43.082246" lon="12.0061085"><ele>329.66666666666663</ele><time>2026-05-02T12:22:51.698Z</time></trkpt><trkpt lat="43.0821825" lon="12.0062093"><ele>327.5</ele><time>2026-05-02T12:22:52.703Z</time></trkpt><trkpt lat="43.0821271" lon="12.0062991"><ele>325.3333333333333</ele><time>2026-05-02T12:22:53.709Z</time></trkpt><trkpt lat="43.0820851" lon="12.0063673"><ele>323.1666666666667</ele><time>2026-05-02T12:22:54.731Z</time></trkpt><trkpt lat="43.0820363" lon="12.0064469"><ele>321.0</ele><time>2026-05-02T12:23:03.703Z</time></trkpt><trkpt lat="43.0819854" lon="12.006512"><ele>321.0</ele><time>2026-05-02T12:23:05.706Z</time></trkpt><trkpt lat="43.0818664" lon="12.0065941"><ele>321.0</ele><time>2026-05-02T12:23:07.703Z</time></trkpt><trkpt lat="43.0817873" lon="12.0066096"><ele>321.0</ele><time>2026-05-02T12:23:08.703Z</time></trkpt><trkpt lat="43.0817189" lon="12.0066056"><ele>321.0</ele><time>2026-05-02T12:23:09.708Z</time></trkpt><trkpt lat="43.0816053" lon="12.0065904"><ele>321.0</ele><time>2026-05-02T12:23:11.7Z</time></trkpt><trkpt lat="43.0815316" lon="12.006533"><ele>318.3333333333333</ele><time>2026-05-02T12:23:13.712Z</time></trkpt><trkpt lat="43.0814941" lon="12.0064025"><ele>315.6666666666667</ele><time>2026-05-02T12:23:15.695Z</time></trkpt><trkpt lat="43.0814768" lon="12.0062657"><ele>313.0</ele><time>2026-05-02T12:23:17.704Z</time></trkpt><trkpt lat="43.0814665" lon="12.0061685"><ele>310.33333333333337</ele><time>2026-05-02T12:23:19.704Z</time></trkpt><trkpt lat="43.0814634" lon="12.0060756"><ele>307.6666666666667</ele><time>2026-05-02T12:23:21.701Z</time></trkpt><trkpt lat="43.0814582" lon="12.0059615"><ele>305.0</ele><time>2026-05-02T12:23:23.702Z</time></trkpt><trkpt lat="43.081462" lon="12.0058364"><ele>305.0</ele><time>2026-05-02T12:23:25.712Z</time></trkpt><trkpt lat="43.0814819" lon="12.0057442"><ele>305.0</ele><time>2026-05-02T12:23:27.709Z</time></trkpt><trkpt lat="43.0814265" lon="12.0057962"><ele>305.0</ele><time>2026-05-02T12:23:34.716Z</time></trkpt><trkpt lat="43.0814392" lon="12.005911"><ele>305.0</ele><time>2026-05-02T12:23:36.699Z</time></trkpt><trkpt lat="43.0814493" lon="12.0059969"><ele>305.0</ele><time>2026-05-02T12:23:37.716Z</time></trkpt><trkpt lat="43.0814529" lon="12.006091"><ele>305.0</ele><time>2026-05-02T12:23:38.702Z</time></trkpt><trkpt lat="43.0814606" lon="12.0061902"><ele>305.0</ele><time>2026-05-02T12:23:39.707Z</time></trkpt><trkpt lat="43.0814705" lon="12.0062988"><ele>305.0</ele><time>2026-05-02T12:23:40.706Z</time></trkpt><trkpt lat="43.0814832" lon="12.0064091"><ele>305.0</ele><time>2026-05-02T12:23:41.703Z</time></trkpt><trkpt lat="43.0815041" lon="12.0065092"><ele>305.0</ele><time>2026-05-02T12:23:42.692Z</time></trkpt><trkpt lat="43.0815366" lon="12.0065833"><ele>305.0</ele><time>2026-05-02T12:23:43.705Z</time></trkpt><trkpt lat="43.0816377" lon="12.0066235"><ele>305.0</ele><time>2026-05-02T12:23:45.711Z</time></trkpt><trkpt lat="43.0817081" lon="12.0066229"><ele>305.0</ele><time>2026-05-02T12:23:46.704Z</time></trkpt><trkpt lat="43.0817897" lon="12.006615"><ele>308.2</ele><time>2026-05-02T12:23:47.712Z</time></trkpt><trkpt lat="43.0818745" lon="12.0065889"><ele>311.4</ele><time>2026-05-02T12:23:48.714Z</time></trkpt><trkpt lat="43.0819579" lon="12.0065349"><ele>314.6</ele><time>2026-05-02T12:23:49.708Z</time></trkpt><trkpt lat="43.0820276" lon="12.0064656"><ele>317.8</ele><time>2026-05-02T12:23:50.712Z</time></trkpt><trkpt lat="43.0820937" lon="12.0063693"><ele>321.0</ele><time>2026-05-02T12:23:51.715Z</time></trkpt><trkpt lat="43.0821494" lon="12.0062632"><ele>321.0</ele><time>2026-05-02T12:23:52.704Z</time></trkpt><trkpt lat="43.0822133" lon="12.0061501"><ele>321.0</ele><time>2026-05-02T12:23:53.703Z</time></trkpt><trkpt lat="43.0822863" lon="12.006029"><ele>321.0</ele><time>2026-05-02T12:23:54.711Z</time></trkpt><trkpt lat="43.0823606" lon="12.0059001"><ele>321.0</ele><time>2026-05-02T12:23:55.706Z</time></trkpt><trkpt lat="43.0824314" lon="12.0057698"><ele>323.6</ele><time>2026-05-02T12:23:56.71Z</time></trkpt><trkpt lat="43.0825002" lon="12.00564"><ele>326.20000000000005</ele><time>2026-05-02T12:23:57.702Z</time></trkpt><trkpt lat="43.0825788" lon="12.0055153"><ele>328.79999999999995</ele><time>2026-05-02T12:23:58.716Z</time></trkpt><trkpt lat="43.0826552" lon="12.0054138"><ele>331.4</ele><time>2026-05-02T12:23:59.702Z</time></trkpt><trkpt lat="43.0827251" lon="12.0053373"><ele>334.0</ele><time>2026-05-02T12:24:00.713Z</time></trkpt><trkpt lat="43.0827991" lon="12.0052712"><ele>334.0</ele><time>2026-05-02T12:24:01.711Z</time></trkpt><trkpt lat="43.0828798" lon="12.0051912"><ele>334.0</ele><time>2026-05-02T12:24:02.71Z</time></trkpt><trkpt lat="43.0829526" lon="12.0050893"><ele>334.0</ele><time>2026-05-02T12:24:03.7Z</time></trkpt><trkpt lat="43.0830175" lon="12.0049699"><ele>334.0</ele><time>2026-05-02T12:24:04.704Z</time></trkpt><trkpt lat="43.0830848" lon="12.0048514"><ele>334.0</ele><time>2026-05-02T12:24:05.702Z</time></trkpt><trkpt lat="43.0831497" lon="12.0047525"><ele>334.0</ele><time>2026-05-02T12:24:06.706Z</time></trkpt><trkpt lat="43.0831986" lon="12.0046681"><ele>334.0</ele><time>2026-05-02T12:24:07.709Z</time></trkpt><trkpt lat="43.0832647" lon="12.0045504"><ele>334.0</ele><time>2026-05-02T12:24:09.7Z</time></trkpt><trkpt lat="43.0832885" lon="12.0043874"><ele>334.0</ele><time>2026-05-02T12:24:11.703Z</time></trkpt><trkpt lat="43.0832891" lon="12.0042521"><ele>334.0</ele><time>2026-05-02T12:24:12.706Z</time></trkpt><trkpt lat="43.0832883" lon="12.0040878"><ele>334.0</ele><time>2026-05-02T12:24:13.713Z</time></trkpt><trkpt lat="43.0833072" lon="12.0039136"><ele>334.0</ele><time>2026-05-02T12:24:14.701Z</time></trkpt><trkpt lat="43.0833454" lon="12.003737"><ele>334.0</ele><time>2026-05-02T12:24:15.706Z</time></trkpt><trkpt lat="43.0834011" lon="12.0035607"><ele>334.0</ele><time>2026-05-02T12:24:16.71Z</time></trkpt><trkpt lat="43.0834605" lon="12.0033774"><ele>333.66666666666663</ele><time>2026-05-02T12:24:17.706Z</time></trkpt><trkpt lat="43.0835121" lon="12.003183"><ele>333.3333333333333</ele><time>2026-05-02T12:24:18.708Z</time></trkpt><trkpt lat="43.083545" lon="12.0029679"><ele>333.0</ele><time>2026-05-02T12:24:19.704Z</time></trkpt><trkpt lat="43.0835537" lon="12.002751"><ele>333.0</ele><time>2026-05-02T12:24:20.704Z</time></trkpt><trkpt lat="43.0835442" lon="12.002529"><ele>333.0</ele><time>2026-05-02T12:24:21.716Z</time></trkpt><trkpt lat="43.0835334" lon="12.0023059"><ele>333.0</ele><time>2026-05-02T12:24:22.698Z</time></trkpt><trkpt lat="43.0835115" lon="12.002083"><ele>332.6666666666667</ele><time>2026-05-02T12:24:23.714Z</time></trkpt><trkpt lat="43.0834639" lon="12.0018657"><ele>332.33333333333337</ele><time>2026-05-02T12:24:24.708Z</time></trkpt><trkpt lat="43.0833956" lon="12.0016677"><ele>332.0</ele><time>2026-05-02T12:24:25.703Z</time></trkpt><trkpt lat="43.0833272" lon="12.0014858"><ele>332.0</ele><time>2026-05-02T12:24:26.717Z</time></trkpt><trkpt lat="43.0832651" lon="12.0013272"><ele>332.0</ele><time>2026-05-02T12:24:27.705Z</time></trkpt><trkpt lat="43.0832193" lon="12.001169"><ele>332.0</ele><time>2026-05-02T12:24:28.703Z</time></trkpt><trkpt lat="43.0831901" lon="12.0010115"><ele>332.0</ele><time>2026-05-02T12:24:29.705Z</time></trkpt><trkpt lat="43.0831813" lon="12.000828"><ele>332.6666666666667</ele><time>2026-05-02T12:24:30.696Z</time></trkpt><trkpt lat="43.0831945" lon="12.0006149"><ele>333.3333333333333</ele><time>2026-05-02T12:24:31.703Z</time></trkpt><trkpt lat="43.0832202" lon="12.0003823"><ele>334.0</ele><time>2026-05-02T12:24:32.702Z</time></trkpt><trkpt lat="43.0832455" lon="12.0001307"><ele>333.3333333333333</ele><time>2026-05-02T12:24:33.7Z</time></trkpt><trkpt lat="43.0832662" lon="11.9998726"><ele>332.6666666666667</ele><time>2026-05-02T12:24:34.694Z</time></trkpt><trkpt lat="43.0832862" lon="11.9996178"><ele>332.0</ele><time>2026-05-02T12:24:35.703Z</time></trkpt><trkpt lat="43.0833051" lon="11.999367"><ele>332.6666666666667</ele><time>2026-05-02T12:24:36.689Z</time></trkpt><trkpt lat="43.0833263" lon="11.9991193"><ele>333.3333333333333</ele><time>2026-05-02T12:24:37.708Z</time></trkpt><trkpt lat="43.0833507" lon="11.99887"><ele>334.0</ele><time>2026-05-02T12:24:38.695Z</time></trkpt><trkpt lat="43.0833917" lon="11.9986344"><ele>334.0</ele><time>2026-05-02T12:24:39.701Z</time></trkpt><trkpt lat="43.0834661" lon="11.9984092"><ele>334.0</ele><time>2026-05-02T12:24:40.708Z</time></trkpt><trkpt lat="43.0835628" lon="11.9981898"><ele>334.0</ele><time>2026-05-02T12:24:41.7Z</time></trkpt><trkpt lat="43.0836646" lon="11.997967"><ele>335.66666666666663</ele><time>2026-05-02T12:24:42.696Z</time></trkpt><trkpt lat="43.0837635" lon="11.9977381"><ele>337.3333333333333</ele><time>2026-05-02T12:24:43.708Z</time></trkpt><trkpt lat="43.0838575" lon="11.9975001"><ele>339.0</ele><time>2026-05-02T12:24:44.708Z</time></trkpt><trkpt lat="43.0839501" lon="11.9972662"><ele>339.0</ele><time>2026-05-02T12:24:45.718Z</time></trkpt><trkpt lat="43.0840429" lon="11.9970369"><ele>339.0</ele><time>2026-05-02T12:24:46.706Z</time></trkpt><trkpt lat="43.0841341" lon="11.9968153"><ele>339.0</ele><time>2026-05-02T12:24:47.708Z</time></trkpt><trkpt lat="43.0842271" lon="11.996592"><ele>339.0</ele><time>2026-05-02T12:24:48.708Z</time></trkpt><trkpt lat="43.0843252" lon="11.9963679"><ele>339.0</ele><time>2026-05-02T12:24:49.704Z</time></trkpt><trkpt lat="43.0844292" lon="11.9961449"><ele>339.0</ele><time>2026-05-02T12:24:50.703Z</time></trkpt><trkpt lat="43.0845404" lon="11.99593"><ele>339.3333333333333</ele><time>2026-05-02T12:24:51.716Z</time></trkpt><trkpt lat="43.0846604" lon="11.9957169"><ele>339.66666666666663</ele><time>2026-05-02T12:24:52.706Z</time></trkpt><trkpt lat="43.0847798" lon="11.9955073"><ele>340.0</ele><time>2026-05-02T12:24:53.707Z</time></trkpt><trkpt lat="43.0849029" lon="11.9953032"><ele>340.66666666666663</ele><time>2026-05-02T12:24:54.708Z</time></trkpt><trkpt lat="43.0850233" lon="11.9950985"><ele>341.3333333333333</ele><time>2026-05-02T12:24:55.713Z</time></trkpt><trkpt lat="43.0851385" lon="11.9948863"><ele>342.0</ele><time>2026-05-02T12:24:56.708Z</time></trkpt><trkpt lat="43.0852485" lon="11.994666"><ele>341.6666666666667</ele><time>2026-05-02T12:24:57.701Z</time></trkpt><trkpt lat="43.0853573" lon="11.9944445"><ele>341.33333333333337</ele><time>2026-05-02T12:24:58.705Z</time></trkpt><trkpt lat="43.085462" lon="11.9942174"><ele>341.0</ele><time>2026-05-02T12:24:59.713Z</time></trkpt><trkpt lat="43.0855638" lon="11.9939873"><ele>341.0</ele><time>2026-05-02T12:25:00.706Z</time></trkpt><trkpt lat="43.0856645" lon="11.9937559"><ele>341.0</ele><time>2026-05-02T12:25:01.714Z</time></trkpt><trkpt lat="43.0857622" lon="11.9935247"><ele>341.0</ele><time>2026-05-02T12:25:02.712Z</time></trkpt><trkpt lat="43.0858602" lon="11.9932944"><ele>342.0</ele><time>2026-05-02T12:25:03.703Z</time></trkpt><trkpt lat="43.0859611" lon="11.9930644"><ele>343.0</ele><time>2026-05-02T12:25:04.714Z</time></trkpt><trkpt lat="43.0860665" lon="11.9928322"><ele>344.0</ele><time>2026-05-02T12:25:05.704Z</time></trkpt><trkpt lat="43.0861705" lon="11.992595"><ele>343.0</ele><time>2026-05-02T12:25:06.704Z</time></trkpt><trkpt lat="43.0862756" lon="11.9923567"><ele>342.0</ele><time>2026-05-02T12:25:07.706Z</time></trkpt><trkpt lat="43.0863793" lon="11.9921161"><ele>341.0</ele><time>2026-05-02T12:25:08.706Z</time></trkpt><trkpt lat="43.0864815" lon="11.9918776"><ele>341.0</ele><time>2026-05-02T12:25:09.706Z</time></trkpt><trkpt lat="43.0865821" lon="11.9916381"><ele>341.0</ele><time>2026-05-02T12:25:10.711Z</time></trkpt><trkpt lat="43.0866808" lon="11.9913961"><ele>341.0</ele><time>2026-05-02T12:25:11.707Z</time></trkpt><trkpt lat="43.0867752" lon="11.9911503"><ele>341.0</ele><time>2026-05-02T12:25:12.705Z</time></trkpt><trkpt lat="43.086862" lon="11.990901"><ele>341.0</ele><time>2026-05-02T12:25:13.704Z</time></trkpt><trkpt lat="43.0869369" lon="11.9906478"><ele>341.0</ele><time>2026-05-02T12:25:14.699Z</time></trkpt><trkpt lat="43.0870023" lon="11.9903901"><ele>339.6666666666667</ele><time>2026-05-02T12:25:15.705Z</time></trkpt><trkpt lat="43.0870485" lon="11.9901233"><ele>338.3333333333333</ele><time>2026-05-02T12:25:16.701Z</time></trkpt><trkpt lat="43.0870826" lon="11.989858"><ele>337.0</ele><time>2026-05-02T12:25:17.71Z</time></trkpt><trkpt lat="43.0871082" lon="11.9895884"><ele>336.66666666666663</ele><time>2026-05-02T12:25:18.71Z</time></trkpt><trkpt lat="43.0871134" lon="11.9893232"><ele>336.3333333333333</ele><time>2026-05-02T12:25:19.706Z</time></trkpt><trkpt lat="43.087103" lon="11.9890582"><ele>336.0</ele><time>2026-05-02T12:25:20.71Z</time></trkpt><trkpt lat="43.0870878" lon="11.9887905"><ele>336.0</ele><time>2026-05-02T12:25:21.701Z</time></trkpt><trkpt lat="43.0870737" lon="11.9885251"><ele>336.0</ele><time>2026-05-02T12:25:22.707Z</time></trkpt><trkpt lat="43.087061" lon="11.9882608"><ele>336.0</ele><time>2026-05-02T12:25:23.701Z</time></trkpt><trkpt lat="43.0870474" lon="11.9879931"><ele>335.3333333333333</ele><time>2026-05-02T12:25:24.705Z</time></trkpt><trkpt lat="43.0870302" lon="11.9877244"><ele>334.66666666666663</ele><time>2026-05-02T12:25:25.701Z</time></trkpt><trkpt lat="43.0870119" lon="11.9874596"><ele>334.0</ele><time>2026-05-02T12:25:26.703Z</time></trkpt><trkpt lat="43.0869932" lon="11.9871948"><ele>333.3333333333333</ele><time>2026-05-02T12:25:27.701Z</time></trkpt><trkpt lat="43.0869716" lon="11.986929"><ele>332.6666666666667</ele><time>2026-05-02T12:25:28.705Z</time></trkpt><trkpt lat="43.0869515" lon="11.9866462"><ele>332.0</ele><time>2026-05-02T12:25:29.707Z</time></trkpt><trkpt lat="43.0869276" lon="11.9863487"><ele>332.0</ele><time>2026-05-02T12:25:30.697Z</time></trkpt><trkpt lat="43.086907" lon="11.9860353"><ele>332.0</ele><time>2026-05-02T12:25:31.7Z</time></trkpt><trkpt lat="43.0868904" lon="11.9857208"><ele>332.5</ele><time>2026-05-02T12:25:32.703Z</time></trkpt><trkpt lat="43.0868711" lon="11.9854098"><ele>333.0</ele><time>2026-05-02T12:25:33.702Z</time></trkpt><trkpt lat="43.0868542" lon="11.9850972"><ele>335.5</ele><time>2026-05-02T12:25:34.698Z</time></trkpt><trkpt lat="43.086835" lon="11.9847855"><ele>338.0</ele><time>2026-05-02T12:25:35.699Z</time></trkpt><trkpt lat="43.0868155" lon="11.9844807"><ele>338.0</ele><time>2026-05-02T12:25:36.704Z</time></trkpt><trkpt lat="43.0867879" lon="11.9841803"><ele>338.0</ele><time>2026-05-02T12:25:37.71Z</time></trkpt><trkpt lat="43.086748" lon="11.9838898"><ele>338.0</ele><time>2026-05-02T12:25:38.709Z</time></trkpt><trkpt lat="43.0866999" lon="11.9836027"><ele>339.0</ele><time>2026-05-02T12:25:39.699Z</time></trkpt><trkpt lat="43.0866542" lon="11.9833098"><ele>340.0</ele><time>2026-05-02T12:25:40.702Z</time></trkpt><trkpt lat="43.0866085" lon="11.9830252"><ele>341.0</ele><time>2026-05-02T12:25:41.708Z</time></trkpt><trkpt lat="43.0865638" lon="11.9827399"><ele>342.33333333333337</ele><time>2026-05-02T12:25:42.712Z</time></trkpt><trkpt lat="43.0865182" lon="11.9824555"><ele>343.6666666666667</ele><time>2026-05-02T12:25:43.692Z</time></trkpt><trkpt lat="43.0864757" lon="11.9821784"><ele>345.0</ele><time>2026-05-02T12:25:44.702Z</time></trkpt><trkpt lat="43.0864341" lon="11.9819083"><ele>346.6666666666667</ele><time>2026-05-02T12:25:45.697Z</time></trkpt><trkpt lat="43.086391" lon="11.9816484"><ele>348.33333333333337</ele><time>2026-05-02T12:25:46.713Z</time></trkpt><trkpt lat="43.0863479" lon="11.981404"><ele>350.0</ele><time>2026-05-02T12:25:47.702Z</time></trkpt><trkpt lat="43.0863039" lon="11.9811691"><ele>350.0</ele><time>2026-05-02T12:25:48.705Z</time></trkpt><trkpt lat="43.0862536" lon="11.9809423"><ele>350.0</ele><time>2026-05-02T12:25:49.706Z</time></trkpt><trkpt lat="43.0862023" lon="11.9807205"><ele>350.0</ele><time>2026-05-02T12:25:50.711Z</time></trkpt><trkpt lat="43.0861613" lon="11.9804979"><ele>352.33333333333337</ele><time>2026-05-02T12:25:51.718Z</time></trkpt><trkpt lat="43.0861225" lon="11.9802645"><ele>354.6666666666667</ele><time>2026-05-02T12:25:52.7Z</time></trkpt><trkpt lat="43.0860861" lon="11.9800302"><ele>357.0</ele><time>2026-05-02T12:25:53.71Z</time></trkpt><trkpt lat="43.0860533" lon="11.979789"><ele>358.6666666666667</ele><time>2026-05-02T12:25:54.711Z</time></trkpt><trkpt lat="43.086021" lon="11.9795589"><ele>360.33333333333337</ele><time>2026-05-02T12:25:55.711Z</time></trkpt><trkpt lat="43.0859855" lon="11.9793412"><ele>362.0</ele><time>2026-05-02T12:25:56.704Z</time></trkpt><trkpt lat="43.0859476" lon="11.9791345"><ele>362.0</ele><time>2026-05-02T12:25:57.697Z</time></trkpt><trkpt lat="43.0858909" lon="11.9789342"><ele>362.0</ele><time>2026-05-02T12:25:58.709Z</time></trkpt><trkpt lat="43.0858134" lon="11.9787326"><ele>362.0</ele><time>2026-05-02T12:25:59.71Z</time></trkpt><trkpt lat="43.0857119" lon="11.9785368"><ele>362.6666666666667</ele><time>2026-05-02T12:26:00.7Z</time></trkpt><trkpt lat="43.0855984" lon="11.978341"><ele>363.3333333333333</ele><time>2026-05-02T12:26:01.716Z</time></trkpt><trkpt lat="43.0854824" lon="11.9781409"><ele>364.0</ele><time>2026-05-02T12:26:02.713Z</time></trkpt><trkpt lat="43.0853629" lon="11.9779343"><ele>364.0</ele><time>2026-05-02T12:26:03.706Z</time></trkpt><trkpt lat="43.0852418" lon="11.9777219"><ele>364.0</ele><time>2026-05-02T12:26:04.715Z</time></trkpt><trkpt lat="43.0851194" lon="11.9774997"><ele>364.0</ele><time>2026-05-02T12:26:05.71Z</time></trkpt><trkpt lat="43.0850049" lon="11.9772712"><ele>364.0</ele><time>2026-05-02T12:26:06.694Z</time></trkpt><trkpt lat="43.0848953" lon="11.9770406"><ele>364.0</ele><time>2026-05-02T12:26:07.707Z</time></trkpt><trkpt lat="43.084788" lon="11.9768223"><ele>364.0</ele><time>2026-05-02T12:26:08.69Z</time></trkpt><trkpt lat="43.084692" lon="11.9766212"><ele>362.0</ele><time>2026-05-02T12:26:09.697Z</time></trkpt><trkpt lat="43.0846003" lon="11.9764393"><ele>360.0</ele><time>2026-05-02T12:26:10.695Z</time></trkpt><trkpt lat="43.084518" lon="11.9762774"><ele>358.0</ele><time>2026-05-02T12:26:11.701Z</time></trkpt><trkpt lat="43.0844455" lon="11.9761196"><ele>356.0</ele><time>2026-05-02T12:26:12.701Z</time></trkpt><trkpt lat="43.0843823" lon="11.9759757"><ele>356.0</ele><time>2026-05-02T12:26:13.71Z</time></trkpt><trkpt lat="43.084333" lon="11.9758558"><ele>356.0</ele><time>2026-05-02T12:26:14.71Z</time></trkpt><trkpt lat="43.0842924" lon="11.9757659"><ele>356.0</ele><time>2026-05-02T12:26:15.7Z</time></trkpt><trkpt lat="43.0842489" lon="11.9756828"><ele>356.0</ele><time>2026-05-02T12:26:17.712Z</time></trkpt><trkpt lat="43.0841823" lon="11.975649"><ele>356.0</ele><time>2026-05-02T12:26:30.701Z</time></trkpt><trkpt lat="43.0840991" lon="11.9757192"><ele>356.0</ele><time>2026-05-02T12:26:32.709Z</time></trkpt><trkpt lat="43.0840533" lon="11.9757882"><ele>354.0</ele><time>2026-05-02T12:26:33.699Z</time></trkpt><trkpt lat="43.0840082" lon="11.9758829"><ele>352.0</ele><time>2026-05-02T12:26:34.7Z</time></trkpt><trkpt lat="43.0839551" lon="11.9759909"><ele>350.0</ele><time>2026-05-02T12:26:35.709Z</time></trkpt><trkpt lat="43.0838911" lon="11.9761131"><ele>348.0</ele><time>2026-05-02T12:26:36.701Z</time></trkpt><trkpt lat="43.0838191" lon="11.9762371"><ele>346.0</ele><time>2026-05-02T12:26:37.703Z</time></trkpt><trkpt lat="43.0837375" lon="11.9763732"><ele>346.0</ele><time>2026-05-02T12:26:38.707Z</time></trkpt><trkpt lat="43.0836544" lon="11.9765111"><ele>346.0</ele><time>2026-05-02T12:26:39.715Z</time></trkpt><trkpt lat="43.0835697" lon="11.9766586"><ele>346.0</ele><time>2026-05-02T12:26:40.703Z</time></trkpt><trkpt lat="43.0834844" lon="11.9768118"><ele>346.0</ele><time>2026-05-02T12:26:41.703Z</time></trkpt><trkpt lat="43.0833926" lon="11.9769642"><ele>346.0</ele><time>2026-05-02T12:26:42.703Z</time></trkpt><trkpt lat="43.0833022" lon="11.9771247"><ele>346.0</ele><time>2026-05-02T12:26:43.714Z</time></trkpt><trkpt lat="43.0832053" lon="11.9772885"><ele>346.0</ele><time>2026-05-02T12:26:44.703Z</time></trkpt><trkpt lat="43.0831008" lon="11.9774412"><ele>349.66666666666663</ele><time>2026-05-02T12:26:45.708Z</time></trkpt><trkpt lat="43.082974" lon="11.9775772"><ele>353.3333333333333</ele><time>2026-05-02T12:26:46.713Z</time></trkpt><trkpt lat="43.0828257" lon="11.9776686"><ele>357.0</ele><time>2026-05-02T12:26:47.708Z</time></trkpt><trkpt lat="43.0826632" lon="11.9777288"><ele>357.0</ele><time>2026-05-02T12:26:48.714Z</time></trkpt><trkpt lat="43.0824889" lon="11.9777804"><ele>357.0</ele><time>2026-05-02T12:26:49.708Z</time></trkpt><trkpt lat="43.0823117" lon="11.9778308"><ele>357.0</ele><time>2026-05-02T12:26:50.698Z</time></trkpt><trkpt lat="43.0821319" lon="11.9778892"><ele>357.0</ele><time>2026-05-02T12:26:51.707Z</time></trkpt><trkpt lat="43.0819546" lon="11.9779506"><ele>357.0</ele><time>2026-05-02T12:26:52.709Z</time></trkpt><trkpt lat="43.0817728" lon="11.9780006"><ele>357.0</ele><time>2026-05-02T12:26:53.703Z</time></trkpt><trkpt lat="43.0815848" lon="11.9780446"><ele>356.6666666666667</ele><time>2026-05-02T12:26:54.705Z</time></trkpt><trkpt lat="43.0813962" lon="11.9780794"><ele>356.33333333333337</ele><time>2026-05-02T12:26:55.7Z</time></trkpt><trkpt lat="43.0811994" lon="11.9781076"><ele>356.0</ele><time>2026-05-02T12:26:56.71Z</time></trkpt><trkpt lat="43.0809976" lon="11.9781401"><ele>356.0</ele><time>2026-05-02T12:26:57.708Z</time></trkpt><trkpt lat="43.0807945" lon="11.9781741"><ele>356.0</ele><time>2026-05-02T12:26:58.701Z</time></trkpt><trkpt lat="43.0806067" lon="11.9781954"><ele>356.0</ele><time>2026-05-02T12:26:59.703Z</time></trkpt><trkpt lat="43.0804274" lon="11.9782032"><ele>356.33333333333337</ele><time>2026-05-02T12:27:00.705Z</time></trkpt><trkpt lat="43.0802506" lon="11.9781919"><ele>356.6666666666667</ele><time>2026-05-02T12:27:01.699Z</time></trkpt><trkpt lat="43.0800718" lon="11.9781616"><ele>357.0</ele><time>2026-05-02T12:27:02.698Z</time></trkpt><trkpt lat="43.0798969" lon="11.978119"><ele>358.3333333333333</ele><time>2026-05-02T12:27:03.692Z</time></trkpt><trkpt lat="43.0797165" lon="11.9780695"><ele>359.66666666666663</ele><time>2026-05-02T12:27:04.698Z</time></trkpt><trkpt lat="43.0795319" lon="11.9780151"><ele>361.0</ele><time>2026-05-02T12:27:05.704Z</time></trkpt><trkpt lat="43.0793492" lon="11.9779629"><ele>361.0</ele><time>2026-05-02T12:27:06.709Z</time></trkpt><trkpt lat="43.0791712" lon="11.9779099"><ele>361.0</ele><time>2026-05-02T12:27:07.707Z</time></trkpt><trkpt lat="43.0789949" lon="11.9778504"><ele>361.0</ele><time>2026-05-02T12:27:08.701Z</time></trkpt><trkpt lat="43.0788156" lon="11.9777756"><ele>362.0</ele><time>2026-05-02T12:27:09.705Z</time></trkpt><trkpt lat="43.0786411" lon="11.9776735"><ele>363.0</ele><time>2026-05-02T12:27:10.708Z</time></trkpt><trkpt lat="43.07848" lon="11.9775282"><ele>364.0</ele><time>2026-05-02T12:27:11.701Z</time></trkpt><trkpt lat="43.078335" lon="11.9773545"><ele>365.66666666666663</ele><time>2026-05-02T12:27:12.7Z</time></trkpt><trkpt lat="43.0781911" lon="11.9771827"><ele>367.3333333333333</ele><time>2026-05-02T12:27:13.704Z</time></trkpt><trkpt lat="43.0780291" lon="11.977034"><ele>369.0</ele><time>2026-05-02T12:27:14.707Z</time></trkpt><trkpt lat="43.0778527" lon="11.9768921"><ele>369.0</ele><time>2026-05-02T12:27:15.703Z</time></trkpt><trkpt lat="43.0776741" lon="11.9767528"><ele>369.0</ele><time>2026-05-02T12:27:16.704Z</time></trkpt><trkpt lat="43.077495" lon="11.9766202"><ele>369.0</ele><time>2026-05-02T12:27:17.706Z</time></trkpt><trkpt lat="43.0773273" lon="11.9764848"><ele>367.6666666666667</ele><time>2026-05-02T12:27:18.705Z</time></trkpt><trkpt lat="43.0771661" lon="11.9763642"><ele>366.33333333333337</ele><time>2026-05-02T12:27:19.706Z</time></trkpt><trkpt lat="43.0769982" lon="11.9762643"><ele>365.0</ele><time>2026-05-02T12:27:20.715Z</time></trkpt><trkpt lat="43.0768128" lon="11.9761791"><ele>365.0</ele><time>2026-05-02T12:27:21.699Z</time></trkpt><trkpt lat="43.0766151" lon="11.9761011"><ele>365.0</ele><time>2026-05-02T12:27:22.711Z</time></trkpt><trkpt lat="43.0764138" lon="11.9760133"><ele>365.0</ele><time>2026-05-02T12:27:23.7Z</time></trkpt><trkpt lat="43.0762126" lon="11.9759312"><ele>362.33333333333337</ele><time>2026-05-02T12:27:24.713Z</time></trkpt><trkpt lat="43.0760126" lon="11.9758432"><ele>359.6666666666667</ele><time>2026-05-02T12:27:25.71Z</time></trkpt><trkpt lat="43.0758154" lon="11.975756"><ele>357.0</ele><time>2026-05-02T12:27:26.704Z</time></trkpt><trkpt lat="43.0756218" lon="11.9756629"><ele>355.3333333333333</ele><time>2026-05-02T12:27:27.696Z</time></trkpt><trkpt lat="43.075439" lon="11.975579"><ele>353.66666666666663</ele><time>2026-05-02T12:27:28.691Z</time></trkpt><trkpt lat="43.0752681" lon="11.9755019"><ele>352.0</ele><time>2026-05-02T12:27:29.693Z</time></trkpt><trkpt lat="43.0750961" lon="11.9754499"><ele>353.0</ele><time>2026-05-02T12:27:30.716Z</time></trkpt><trkpt lat="43.074925" lon="11.9754453"><ele>354.0</ele><time>2026-05-02T12:27:31.711Z</time></trkpt><trkpt lat="43.0747561" lon="11.975516"><ele>355.0</ele><time>2026-05-02T12:27:32.706Z</time></trkpt><trkpt lat="43.0746057" lon="11.9756514"><ele>355.0</ele><time>2026-05-02T12:27:33.702Z</time></trkpt><trkpt lat="43.0744652" lon="11.9758416"><ele>355.0</ele><time>2026-05-02T12:27:34.697Z</time></trkpt><trkpt lat="43.074318" lon="11.9760746"><ele>355.0</ele><time>2026-05-02T12:27:35.709Z</time></trkpt><trkpt lat="43.0741522" lon="11.9763193"><ele>353.0</ele><time>2026-05-02T12:27:36.709Z</time></trkpt><trkpt lat="43.0739767" lon="11.9765564"><ele>351.0</ele><time>2026-05-02T12:27:37.71Z</time></trkpt><trkpt lat="43.0738081" lon="11.9767749"><ele>349.0</ele><time>2026-05-02T12:27:38.71Z</time></trkpt><trkpt lat="43.0736537" lon="11.9769831"><ele>347.0</ele><time>2026-05-02T12:27:39.696Z</time></trkpt><trkpt lat="43.0735081" lon="11.9771842"><ele>345.0</ele><time>2026-05-02T12:27:40.71Z</time></trkpt><trkpt lat="43.0733705" lon="11.9773755"><ele>343.6666666666667</ele><time>2026-05-02T12:27:41.704Z</time></trkpt><trkpt lat="43.07323" lon="11.9775596"><ele>342.33333333333337</ele><time>2026-05-02T12:27:42.715Z</time></trkpt><trkpt lat="43.0730881" lon="11.9777445"><ele>341.0</ele><time>2026-05-02T12:27:43.7Z</time></trkpt><trkpt lat="43.0729482" lon="11.9779336"><ele>341.0</ele><time>2026-05-02T12:27:44.708Z</time></trkpt><trkpt lat="43.0728094" lon="11.9781252"><ele>341.0</ele><time>2026-05-02T12:27:45.706Z</time></trkpt><trkpt lat="43.0726708" lon="11.9783097"><ele>341.0</ele><time>2026-05-02T12:27:46.704Z</time></trkpt><trkpt lat="43.0725428" lon="11.9784647"><ele>339.0</ele><time>2026-05-02T12:27:47.716Z</time></trkpt><trkpt lat="43.0724154" lon="11.9785996"><ele>337.0</ele><time>2026-05-02T12:27:48.702Z</time></trkpt><trkpt lat="43.0722709" lon="11.9787053"><ele>335.0</ele><time>2026-05-02T12:27:49.703Z</time></trkpt><trkpt lat="43.0721068" lon="11.9787864"><ele>335.0</ele><time>2026-05-02T12:27:50.709Z</time></trkpt><trkpt lat="43.0719364" lon="11.9788599"><ele>335.0</ele><time>2026-05-02T12:27:51.708Z</time></trkpt><trkpt lat="43.0717636" lon="11.9789414"><ele>335.0</ele><time>2026-05-02T12:27:52.701Z</time></trkpt><trkpt lat="43.0715848" lon="11.9790293"><ele>334.6666666666667</ele><time>2026-05-02T12:27:53.705Z</time></trkpt><trkpt lat="43.0714106" lon="11.9791156"><ele>334.3333333333333</ele><time>2026-05-02T12:27:54.699Z</time></trkpt><trkpt lat="43.0712471" lon="11.9791967"><ele>334.0</ele><time>2026-05-02T12:27:55.712Z</time></trkpt><trkpt lat="43.0711035" lon="11.9792713"><ele>333.5</ele><time>2026-05-02T12:27:56.707Z</time></trkpt><trkpt lat="43.0709722" lon="11.9793363"><ele>333.0</ele><time>2026-05-02T12:27:57.713Z</time></trkpt><trkpt lat="43.0708549" lon="11.9793986"><ele>332.5</ele><time>2026-05-02T12:27:58.696Z</time></trkpt><trkpt lat="43.0707639" lon="11.9794852"><ele>332.0</ele><time>2026-05-02T12:27:59.707Z</time></trkpt><trkpt lat="43.0706965" lon="11.9795836"><ele>332.0</ele><time>2026-05-02T12:28:00.706Z</time></trkpt><trkpt lat="43.0706568" lon="11.9796994"><ele>332.0</ele><time>2026-05-02T12:28:01.705Z</time></trkpt><trkpt lat="43.0706394" lon="11.9798379"><ele>332.0</ele><time>2026-05-02T12:28:02.704Z</time></trkpt><trkpt lat="43.0706361" lon="11.9799919"><ele>332.0</ele><time>2026-05-02T12:28:03.713Z</time></trkpt><trkpt lat="43.070648" lon="11.9801703"><ele>332.0</ele><time>2026-05-02T12:28:04.709Z</time></trkpt><trkpt lat="43.070662" lon="11.9803597"><ele>332.0</ele><time>2026-05-02T12:28:05.72Z</time></trkpt><trkpt lat="43.0706802" lon="11.9805603"><ele>332.0</ele><time>2026-05-02T12:28:06.723Z</time></trkpt><trkpt lat="43.0706989" lon="11.9807713"><ele>332.0</ele><time>2026-05-02T12:28:07.705Z</time></trkpt><trkpt lat="43.0707181" lon="11.9809853"><ele>332.0</ele><time>2026-05-02T12:28:08.72Z</time></trkpt><trkpt lat="43.0707389" lon="11.9812008"><ele>332.0</ele><time>2026-05-02T12:28:09.697Z</time></trkpt><trkpt lat="43.070757" lon="11.9814195"><ele>332.0</ele><time>2026-05-02T12:28:10.712Z</time></trkpt><trkpt lat="43.0707645" lon="11.9816503"><ele>331.0</ele><time>2026-05-02T12:28:11.69Z</time></trkpt><trkpt lat="43.070754" lon="11.9818866"><ele>330.0</ele><time>2026-05-02T12:28:12.713Z</time></trkpt><trkpt lat="43.0707296" lon="11.9821214"><ele>329.0</ele><time>2026-05-02T12:28:13.701Z</time></trkpt><trkpt lat="43.0706909" lon="11.9823601"><ele>327.6666666666667</ele><time>2026-05-02T12:28:14.708Z</time></trkpt><trkpt lat="43.0706404" lon="11.982608"><ele>326.3333333333333</ele><time>2026-05-02T12:28:15.716Z</time></trkpt><trkpt lat="43.0705847" lon="11.9828671"><ele>325.0</ele><time>2026-05-02T12:28:16.701Z</time></trkpt><trkpt lat="43.0705345" lon="11.9831317"><ele>324.66666666666663</ele><time>2026-05-02T12:28:17.703Z</time></trkpt><trkpt lat="43.0704865" lon="11.9834007"><ele>324.3333333333333</ele><time>2026-05-02T12:28:18.715Z</time></trkpt><trkpt lat="43.0704398" lon="11.9836687"><ele>324.0</ele><time>2026-05-02T12:28:19.707Z</time></trkpt><trkpt lat="43.070392" lon="11.9839215"><ele>324.0</ele><time>2026-05-02T12:28:20.703Z</time></trkpt><trkpt lat="43.0703512" lon="11.984154"><ele>324.0</ele><time>2026-05-02T12:28:21.703Z</time></trkpt><trkpt lat="43.0703136" lon="11.9843716"><ele>324.0</ele><time>2026-05-02T12:28:22.702Z</time></trkpt><trkpt lat="43.0702765" lon="11.9845818"><ele>324.6666666666667</ele><time>2026-05-02T12:28:23.701Z</time></trkpt><trkpt lat="43.0702314" lon="11.9848009"><ele>325.33333333333337</ele><time>2026-05-02T12:28:24.702Z</time></trkpt><trkpt lat="43.070177" lon="11.9850224"><ele>326.0</ele><time>2026-05-02T12:28:25.702Z</time></trkpt><trkpt lat="43.0701098" lon="11.9852434"><ele>326.6666666666667</ele><time>2026-05-02T12:28:26.706Z</time></trkpt><trkpt lat="43.0700328" lon="11.9854677"><ele>327.3333333333333</ele><time>2026-05-02T12:28:27.71Z</time></trkpt><trkpt lat="43.0699463" lon="11.9856911"><ele>328.0</ele><time>2026-05-02T12:28:28.702Z</time></trkpt><trkpt lat="43.0698557" lon="11.9859235"><ele>326.3333333333333</ele><time>2026-05-02T12:28:29.707Z</time></trkpt><trkpt lat="43.0697624" lon="11.9861668"><ele>324.6666666666667</ele><time>2026-05-02T12:28:30.705Z</time></trkpt><trkpt lat="43.0696661" lon="11.986411"><ele>323.0</ele><time>2026-05-02T12:28:31.706Z</time></trkpt><trkpt lat="43.0695635" lon="11.9866633"><ele>323.6666666666667</ele><time>2026-05-02T12:28:32.713Z</time></trkpt><trkpt lat="43.0694569" lon="11.9869213"><ele>324.3333333333333</ele><time>2026-05-02T12:28:33.709Z</time></trkpt><trkpt lat="43.0693462" lon="11.9871922"><ele>325.0</ele><time>2026-05-02T12:28:34.706Z</time></trkpt><trkpt lat="43.0692318" lon="11.9874672"><ele>325.0</ele><time>2026-05-02T12:28:35.724Z</time></trkpt><trkpt lat="43.06911" lon="11.9877428"><ele>325.0</ele><time>2026-05-02T12:28:36.702Z</time></trkpt><trkpt lat="43.0689681" lon="11.9880261"><ele>325.0</ele><time>2026-05-02T12:28:37.698Z</time></trkpt><trkpt lat="43.0688041" lon="11.9883087"><ele>325.0</ele><time>2026-05-02T12:28:38.699Z</time></trkpt><trkpt lat="43.0686308" lon="11.9885862"><ele>327.0</ele><time>2026-05-02T12:28:39.702Z</time></trkpt><trkpt lat="43.0684577" lon="11.9888642"><ele>329.0</ele><time>2026-05-02T12:28:40.717Z</time></trkpt><trkpt lat="43.0682915" lon="11.9891372"><ele>329.0</ele><time>2026-05-02T12:28:41.698Z</time></trkpt><trkpt lat="43.0681329" lon="11.9894031"><ele>329.0</ele><time>2026-05-02T12:28:42.701Z</time></trkpt><trkpt lat="43.0679921" lon="11.9896748"><ele>329.0</ele><time>2026-05-02T12:28:43.705Z</time></trkpt><trkpt lat="43.0678644" lon="11.9899503"><ele>329.0</ele><time>2026-05-02T12:28:44.705Z</time></trkpt><trkpt lat="43.0677443" lon="11.9902099"><ele>330.6666666666667</ele><time>2026-05-02T12:28:45.701Z</time></trkpt><trkpt lat="43.06763" lon="11.9904347"><ele>332.3333333333333</ele><time>2026-05-02T12:28:46.7Z</time></trkpt><trkpt lat="43.0675138" lon="11.9906363"><ele>334.0</ele><time>2026-05-02T12:28:47.699Z</time></trkpt><trkpt lat="43.06739" lon="11.9908214"><ele>338.0</ele><time>2026-05-02T12:28:48.71Z</time></trkpt><trkpt lat="43.0672458" lon="11.9909825"><ele>342.0</ele><time>2026-05-02T12:28:49.694Z</time></trkpt><trkpt lat="43.0670924" lon="11.9911272"><ele>346.0</ele><time>2026-05-02T12:28:50.715Z</time></trkpt><trkpt lat="43.0669417" lon="11.9912687"><ele>346.0</ele><time>2026-05-02T12:28:51.713Z</time></trkpt><trkpt lat="43.0667981" lon="11.9914103"><ele>346.0</ele><time>2026-05-02T12:28:52.705Z</time></trkpt><trkpt lat="43.0666598" lon="11.991553"><ele>346.0</ele><time>2026-05-02T12:28:53.705Z</time></trkpt><trkpt lat="43.0665267" lon="11.9916912"><ele>344.0</ele><time>2026-05-02T12:28:54.712Z</time></trkpt><trkpt lat="43.0664013" lon="11.9918291"><ele>342.0</ele><time>2026-05-02T12:28:55.723Z</time></trkpt><trkpt lat="43.0662857" lon="11.99198"><ele>340.0</ele><time>2026-05-02T12:28:56.714Z</time></trkpt><trkpt lat="43.0661817" lon="11.9921519"><ele>340.0</ele><time>2026-05-02T12:28:57.715Z</time></trkpt><trkpt lat="43.0660939" lon="11.9923315"><ele>340.0</ele><time>2026-05-02T12:28:58.703Z</time></trkpt><trkpt lat="43.0660306" lon="11.9925145"><ele>340.0</ele><time>2026-05-02T12:28:59.706Z</time></trkpt><trkpt lat="43.0659784" lon="11.9926874"><ele>340.0</ele><time>2026-05-02T12:29:00.692Z</time></trkpt><trkpt lat="43.0659241" lon="11.9928525"><ele>340.25</ele><time>2026-05-02T12:29:01.716Z</time></trkpt><trkpt lat="43.0658674" lon="11.9930142"><ele>340.5</ele><time>2026-05-02T12:29:02.711Z</time></trkpt><trkpt lat="43.0658079" lon="11.9931814"><ele>340.75</ele><time>2026-05-02T12:29:03.708Z</time></trkpt><trkpt lat="43.0657493" lon="11.9933403"><ele>341.0</ele><time>2026-05-02T12:29:04.7Z</time></trkpt><trkpt lat="43.0656878" lon="11.9934873"><ele>341.0</ele><time>2026-05-02T12:29:05.699Z</time></trkpt><trkpt lat="43.0656264" lon="11.9936165"><ele>341.0</ele><time>2026-05-02T12:29:06.709Z</time></trkpt><trkpt lat="43.0655504" lon="11.9937369"><ele>341.0</ele><time>2026-05-02T12:29:07.702Z</time></trkpt><trkpt lat="43.0654598" lon="11.9938496"><ele>341.0</ele><time>2026-05-02T12:29:08.689Z</time></trkpt><trkpt lat="43.0653552" lon="11.9939623"><ele>341.0</ele><time>2026-05-02T12:29:09.713Z</time></trkpt><trkpt lat="43.0652478" lon="11.9940827"><ele>341.0</ele><time>2026-05-02T12:29:10.695Z</time></trkpt><trkpt lat="43.0651342" lon="11.9942145"><ele>341.0</ele><time>2026-05-02T12:29:11.699Z</time></trkpt><trkpt lat="43.0650216" lon="11.9943497"><ele>341.0</ele><time>2026-05-02T12:29:12.694Z</time></trkpt><trkpt lat="43.0649066" lon="11.9944915"><ele>343.33333333333337</ele><time>2026-05-02T12:29:13.697Z</time></trkpt><trkpt lat="43.064787" lon="11.9946378"><ele>345.6666666666667</ele><time>2026-05-02T12:29:14.7Z</time></trkpt><trkpt lat="43.0646687" lon="11.9947871"><ele>348.0</ele><time>2026-05-02T12:29:15.701Z</time></trkpt><trkpt lat="43.0645494" lon="11.9949315"><ele>348.0</ele><time>2026-05-02T12:29:16.695Z</time></trkpt><trkpt lat="43.0644269" lon="11.9950679"><ele>348.0</ele><time>2026-05-02T12:29:17.694Z</time></trkpt><trkpt lat="43.0643092" lon="11.995169"><ele>348.0</ele><time>2026-05-02T12:29:18.705Z</time></trkpt><trkpt lat="43.0641736" lon="11.9952473"><ele>348.0</ele><time>2026-05-02T12:29:19.705Z</time></trkpt><trkpt lat="43.0640354" lon="11.9952905"><ele>348.0</ele><time>2026-05-02T12:29:20.706Z</time></trkpt><trkpt lat="43.0638657" lon="11.9953115"><ele>348.0</ele><time>2026-05-02T12:29:21.698Z</time></trkpt><trkpt lat="43.0636667" lon="11.9953074"><ele>348.0</ele><time>2026-05-02T12:29:22.705Z</time></trkpt><trkpt lat="43.0634571" lon="11.9953135"><ele>348.3333333333333</ele><time>2026-05-02T12:29:23.703Z</time></trkpt><trkpt lat="43.0632462" lon="11.995311"><ele>348.66666666666663</ele><time>2026-05-02T12:29:24.707Z</time></trkpt><trkpt lat="43.0630497" lon="11.9953215"><ele>349.0</ele><time>2026-05-02T12:29:25.701Z</time></trkpt><trkpt lat="43.0628715" lon="11.9953358"><ele>349.0</ele><time>2026-05-02T12:29:26.699Z</time></trkpt><trkpt lat="43.0627047" lon="11.9953739"><ele>349.0</ele><time>2026-05-02T12:29:27.708Z</time></trkpt><trkpt lat="43.0625421" lon="11.9954537"><ele>349.0</ele><time>2026-05-02T12:29:28.698Z</time></trkpt><trkpt lat="43.0623822" lon="11.9955762"><ele>350.0</ele><time>2026-05-02T12:29:29.699Z</time></trkpt><trkpt lat="43.0622263" lon="11.9957316"><ele>351.0</ele><time>2026-05-02T12:29:30.709Z</time></trkpt><trkpt lat="43.0620725" lon="11.9958958"><ele>352.0</ele><time>2026-05-02T12:29:31.703Z</time></trkpt><trkpt lat="43.0619178" lon="11.9960652"><ele>349.66666666666663</ele><time>2026-05-02T12:29:32.694Z</time></trkpt><trkpt lat="43.0617618" lon="11.9962317"><ele>347.3333333333333</ele><time>2026-05-02T12:29:33.707Z</time></trkpt><trkpt lat="43.0616094" lon="11.9964014"><ele>345.0</ele><time>2026-05-02T12:29:34.704Z</time></trkpt><trkpt lat="43.0614654" lon="11.9965656"><ele>345.6666666666667</ele><time>2026-05-02T12:29:35.704Z</time></trkpt><trkpt lat="43.061322" lon="11.9967179"><ele>346.33333333333337</ele><time>2026-05-02T12:29:36.709Z</time></trkpt><trkpt lat="43.0611895" lon="11.9968612"><ele>347.0</ele><time>2026-05-02T12:29:37.722Z</time></trkpt><trkpt lat="43.0610674" lon="11.997013"><ele>347.0</ele><time>2026-05-02T12:29:38.709Z</time></trkpt><trkpt lat="43.0609548" lon="11.9971762"><ele>347.0</ele><time>2026-05-02T12:29:39.7Z</time></trkpt><trkpt lat="43.0608551" lon="11.9973384"><ele>347.0</ele><time>2026-05-02T12:29:40.704Z</time></trkpt><trkpt lat="43.0607664" lon="11.9974885"><ele>348.5</ele><time>2026-05-02T12:29:41.691Z</time></trkpt><trkpt lat="43.0606755" lon="11.9976304"><ele>350.0</ele><time>2026-05-02T12:29:42.703Z</time></trkpt><trkpt lat="43.0605815" lon="11.9977597"><ele>351.5</ele><time>2026-05-02T12:29:43.697Z</time></trkpt><trkpt lat="43.0605009" lon="11.9978665"><ele>353.0</ele><time>2026-05-02T12:29:44.712Z</time></trkpt><trkpt lat="43.0604316" lon="11.997953"><ele>353.0</ele><time>2026-05-02T12:29:45.711Z</time></trkpt><trkpt lat="43.0603716" lon="11.9980177"><ele>353.0</ele><time>2026-05-02T12:29:46.708Z</time></trkpt><trkpt lat="43.0602951" lon="11.9980247"><ele>353.0</ele><time>2026-05-02T12:29:48.708Z</time></trkpt><trkpt lat="43.0602904" lon="11.9979238"><ele>353.0</ele><time>2026-05-02T12:29:50.696Z</time></trkpt><trkpt lat="43.0603196" lon="11.9978363"><ele>353.0</ele><time>2026-05-02T12:29:51.706Z</time></trkpt><trkpt lat="43.0603817" lon="11.9977924"><ele>353.0</ele><time>2026-05-02T12:29:52.697Z</time></trkpt><trkpt lat="43.0603974" lon="11.9976708"><ele>350.0</ele><time>2026-05-02T12:29:53.708Z</time></trkpt><trkpt lat="43.060398" lon="11.9974927"><ele>347.0</ele><time>2026-05-02T12:29:54.696Z</time></trkpt><trkpt lat="43.060396" lon="11.9973082"><ele>344.0</ele><time>2026-05-02T12:29:55.702Z</time></trkpt><trkpt lat="43.0603995" lon="11.9971119"><ele>341.0</ele><time>2026-05-02T12:29:56.701Z</time></trkpt><trkpt lat="43.0604077" lon="11.9968903"><ele>338.0</ele><time>2026-05-02T12:29:57.688Z</time></trkpt><trkpt lat="43.060416" lon="11.9966669"><ele>335.0</ele><time>2026-05-02T12:29:58.707Z</time></trkpt><trkpt lat="43.0604285" lon="11.9964591"><ele>332.0</ele><time>2026-05-02T12:29:59.696Z</time></trkpt><trkpt lat="43.0604412" lon="11.9962629"><ele>332.0</ele><time>2026-05-02T12:30:00.698Z</time></trkpt><trkpt lat="43.0604471" lon="11.9960649"><ele>332.0</ele><time>2026-05-02T12:30:01.692Z</time></trkpt><trkpt lat="43.0604551" lon="11.9958632"><ele>332.0</ele><time>2026-05-02T12:30:02.702Z</time></trkpt><trkpt lat="43.0604649" lon="11.9956692"><ele>332.0</ele><time>2026-05-02T12:30:03.705Z</time></trkpt><trkpt lat="43.0604754" lon="11.9954909"><ele>330.5</ele><time>2026-05-02T12:30:04.698Z</time></trkpt><trkpt lat="43.0604855" lon="11.9953242"><ele>329.0</ele><time>2026-05-02T12:30:05.699Z</time></trkpt><trkpt lat="43.0604997" lon="11.9951633"><ele>327.5</ele><time>2026-05-02T12:30:06.698Z</time></trkpt><trkpt lat="43.0605021" lon="11.9950105"><ele>326.0</ele><time>2026-05-02T12:30:07.695Z</time></trkpt><trkpt lat="43.0604888" lon="11.9948494"><ele>325.25</ele><time>2026-05-02T12:30:08.693Z</time></trkpt><trkpt lat="43.0604481" lon="11.994694"><ele>324.5</ele><time>2026-05-02T12:30:09.695Z</time></trkpt><trkpt lat="43.0603935" lon="11.9945228"><ele>323.75</ele><time>2026-05-02T12:30:10.702Z</time></trkpt><trkpt lat="43.0603375" lon="11.9943506"><ele>323.0</ele><time>2026-05-02T12:30:11.705Z</time></trkpt><trkpt lat="43.060284" lon="11.9941826"><ele>322.25</ele><time>2026-05-02T12:30:12.706Z</time></trkpt><trkpt lat="43.0602309" lon="11.9940213"><ele>321.5</ele><time>2026-05-02T12:30:13.697Z</time></trkpt><trkpt lat="43.0601801" lon="11.9938632"><ele>320.75</ele><time>2026-05-02T12:30:14.702Z</time></trkpt><trkpt lat="43.0601333" lon="11.9937097"><ele>320.0</ele><time>2026-05-02T12:30:15.69Z</time></trkpt><trkpt lat="43.0600908" lon="11.9935507"><ele>320.0</ele><time>2026-05-02T12:30:16.709Z</time></trkpt><trkpt lat="43.0600616" lon="11.9933872"><ele>320.0</ele><time>2026-05-02T12:30:17.704Z</time></trkpt><trkpt lat="43.0600348" lon="11.9932265"><ele>320.0</ele><time>2026-05-02T12:30:18.698Z</time></trkpt><trkpt lat="43.0600075" lon="11.9930626"><ele>320.0</ele><time>2026-05-02T12:30:19.702Z</time></trkpt><trkpt lat="43.0599769" lon="11.9928954"><ele>315.0</ele><time>2026-05-02T12:30:20.703Z</time></trkpt><trkpt lat="43.0599431" lon="11.9927204"><ele>310.0</ele><time>2026-05-02T12:30:21.697Z</time></trkpt><trkpt lat="43.0598988" lon="11.9925375"><ele>305.0</ele><time>2026-05-02T12:30:22.697Z</time></trkpt><trkpt lat="43.0598468" lon="11.9923459"><ele>300.0</ele><time>2026-05-02T12:30:23.705Z</time></trkpt><trkpt lat="43.0597849" lon="11.9921466"><ele>299.6666666666667</ele><time>2026-05-02T12:30:24.698Z</time></trkpt><trkpt lat="43.059715" lon="11.9919509"><ele>299.33333333333337</ele><time>2026-05-02T12:30:25.708Z</time></trkpt><trkpt lat="43.059641" lon="11.9917562"><ele>299.0</ele><time>2026-05-02T12:30:26.704Z</time></trkpt><trkpt lat="43.0595701" lon="11.9915638"><ele>298.0</ele><time>2026-05-02T12:30:27.7Z</time></trkpt><trkpt lat="43.0595048" lon="11.991374"><ele>297.0</ele><time>2026-05-02T12:30:28.702Z</time></trkpt><trkpt lat="43.0594427" lon="11.9911846"><ele>296.0</ele><time>2026-05-02T12:30:29.699Z</time></trkpt><trkpt lat="43.0593797" lon="11.9910002"><ele>295.6666666666667</ele><time>2026-05-02T12:30:30.712Z</time></trkpt><trkpt lat="43.0593114" lon="11.9908203"><ele>295.3333333333333</ele><time>2026-05-02T12:30:31.708Z</time></trkpt><trkpt lat="43.059241" lon="11.9906384"><ele>295.0</ele><time>2026-05-02T12:30:32.698Z</time></trkpt><trkpt lat="43.0591636" lon="11.9904541"><ele>292.0</ele><time>2026-05-02T12:30:33.713Z</time></trkpt><trkpt lat="43.0590734" lon="11.9902779"><ele>289.0</ele><time>2026-05-02T12:30:34.708Z</time></trkpt><trkpt lat="43.0589701" lon="11.9901135"><ele>286.0</ele><time>2026-05-02T12:30:35.705Z</time></trkpt><trkpt lat="43.0588585" lon="11.9899518"><ele>286.0</ele><time>2026-05-02T12:30:36.693Z</time></trkpt><trkpt lat="43.0587376" lon="11.9897859"><ele>286.0</ele><time>2026-05-02T12:30:37.714Z</time></trkpt><trkpt lat="43.0586112" lon="11.9896147"><ele>286.0</ele><time>2026-05-02T12:30:38.702Z</time></trkpt><trkpt lat="43.0584905" lon="11.9894435"><ele>286.0</ele><time>2026-05-02T12:30:39.701Z</time></trkpt><trkpt lat="43.0583852" lon="11.9892818"><ele>286.0</ele><time>2026-05-02T12:30:40.7Z</time></trkpt><trkpt lat="43.0582936" lon="11.9891337"><ele>286.0</ele><time>2026-05-02T12:30:41.7Z</time></trkpt><trkpt lat="43.0582119" lon="11.9889882"><ele>286.0</ele><time>2026-05-02T12:30:42.708Z</time></trkpt><trkpt lat="43.0581515" lon="11.988841"><ele>285.40000000000003</ele><time>2026-05-02T12:30:43.694Z</time></trkpt><trkpt lat="43.0581061" lon="11.9886999"><ele>284.8</ele><time>2026-05-02T12:30:44.704Z</time></trkpt><trkpt lat="43.0580693" lon="11.9885683"><ele>284.20000000000005</ele><time>2026-05-02T12:30:45.703Z</time></trkpt><trkpt lat="43.0580526" lon="11.9884443"><ele>283.6</ele><time>2026-05-02T12:30:46.69Z</time></trkpt><trkpt lat="43.058061" lon="11.9883315"><ele>283.0</ele><time>2026-05-02T12:30:47.698Z</time></trkpt><trkpt lat="43.0580994" lon="11.9882312"><ele>283.0</ele><time>2026-05-02T12:30:48.688Z</time></trkpt><trkpt lat="43.0581596" lon="11.9881395"><ele>283.0</ele><time>2026-05-02T12:30:49.711Z</time></trkpt><trkpt lat="43.0582471" lon="11.988056"><ele>283.0</ele><time>2026-05-02T12:30:50.705Z</time></trkpt><trkpt lat="43.0583513" lon="11.9879832"><ele>283.0</ele><time>2026-05-02T12:30:51.693Z</time></trkpt><trkpt lat="43.0584552" lon="11.9879211"><ele>283.0</ele><time>2026-05-02T12:30:52.701Z</time></trkpt><trkpt lat="43.058543" lon="11.9878699"><ele>282.6</ele><time>2026-05-02T12:30:53.701Z</time></trkpt><trkpt lat="43.0586115" lon="11.9878014"><ele>282.20000000000005</ele><time>2026-05-02T12:30:54.719Z</time></trkpt><trkpt lat="43.0586496" lon="11.9877129"><ele>281.8</ele><time>2026-05-02T12:30:55.709Z</time></trkpt><trkpt lat="43.0586498" lon="11.9876068"><ele>281.40000000000003</ele><time>2026-05-02T12:30:56.707Z</time></trkpt><trkpt lat="43.0586162" lon="11.9874719"><ele>281.0</ele><time>2026-05-02T12:30:57.701Z</time></trkpt><trkpt lat="43.0585559" lon="11.9873067"><ele>281.0</ele><time>2026-05-02T12:30:58.707Z</time></trkpt><trkpt lat="43.0584876" lon="11.9871118"><ele>281.0</ele><time>2026-05-02T12:30:59.699Z</time></trkpt><trkpt lat="43.0584127" lon="11.9868962"><ele>281.0</ele><time>2026-05-02T12:31:00.7Z</time></trkpt><trkpt lat="43.0583375" lon="11.986671"><ele>277.0</ele><time>2026-05-02T12:31:01.704Z</time></trkpt><trkpt lat="43.0582679" lon="11.9864572"><ele>273.0</ele><time>2026-05-02T12:31:02.707Z</time></trkpt><trkpt lat="43.0582043" lon="11.9862612"><ele>269.0</ele><time>2026-05-02T12:31:03.71Z</time></trkpt><trkpt lat="43.0581433" lon="11.9860631"><ele>269.0</ele><time>2026-05-02T12:31:04.7Z</time></trkpt><trkpt lat="43.0580779" lon="11.9858608"><ele>269.0</ele><time>2026-05-02T12:31:05.712Z</time></trkpt><trkpt lat="43.0580229" lon="11.9856607"><ele>269.0</ele><time>2026-05-02T12:31:06.706Z</time></trkpt><trkpt lat="43.0579628" lon="11.985473"><ele>266.6666666666667</ele><time>2026-05-02T12:31:07.71Z</time></trkpt><trkpt lat="43.0579062" lon="11.9852828"><ele>264.3333333333333</ele><time>2026-05-02T12:31:08.693Z</time></trkpt><trkpt lat="43.0578523" lon="11.9850809"><ele>262.0</ele><time>2026-05-02T12:31:09.693Z</time></trkpt><trkpt lat="43.0578128" lon="11.9848582"><ele>260.66666666666663</ele><time>2026-05-02T12:31:10.72Z</time></trkpt><trkpt lat="43.0577845" lon="11.9846391"><ele>259.3333333333333</ele><time>2026-05-02T12:31:11.707Z</time></trkpt><trkpt lat="43.0577722" lon="11.984403"><ele>258.0</ele><time>2026-05-02T12:31:12.715Z</time></trkpt><trkpt lat="43.0577709" lon="11.984168"><ele>256.6666666666667</ele><time>2026-05-02T12:31:13.711Z</time></trkpt><trkpt lat="43.0577803" lon="11.9839246"><ele>255.33333333333334</ele><time>2026-05-02T12:31:14.699Z</time></trkpt><trkpt lat="43.0577968" lon="11.9836724"><ele>254.0</ele><time>2026-05-02T12:31:15.704Z</time></trkpt><trkpt lat="43.0578181" lon="11.9834226"><ele>253.66666666666669</ele><time>2026-05-02T12:31:16.705Z</time></trkpt><trkpt lat="43.057839" lon="11.9831781"><ele>253.33333333333331</ele><time>2026-05-02T12:31:17.714Z</time></trkpt><trkpt lat="43.0578652" lon="11.9829387"><ele>253.0</ele><time>2026-05-02T12:31:18.705Z</time></trkpt><trkpt lat="43.0578879" lon="11.9826991"><ele>252.33333333333331</ele><time>2026-05-02T12:31:19.716Z</time></trkpt><trkpt lat="43.0579097" lon="11.9824612"><ele>251.66666666666669</ele><time>2026-05-02T12:31:20.704Z</time></trkpt><trkpt lat="43.0579328" lon="11.9822265"><ele>251.0</ele><time>2026-05-02T12:31:21.697Z</time></trkpt><trkpt lat="43.057953" lon="11.9819873"><ele>251.0</ele><time>2026-05-02T12:31:22.716Z</time></trkpt><trkpt lat="43.0579661" lon="11.9817448"><ele>251.0</ele><time>2026-05-02T12:31:23.706Z</time></trkpt><trkpt lat="43.0579799" lon="11.981506"><ele>251.0</ele><time>2026-05-02T12:31:24.708Z</time></trkpt><trkpt lat="43.0579849" lon="11.9812749"><ele>250.66666666666669</ele><time>2026-05-02T12:31:25.709Z</time></trkpt><trkpt lat="43.0579888" lon="11.9810476"><ele>250.33333333333331</ele><time>2026-05-02T12:31:26.707Z</time></trkpt><trkpt lat="43.0579941" lon="11.9808365"><ele>250.0</ele><time>2026-05-02T12:31:27.705Z</time></trkpt><trkpt lat="43.0580001" lon="11.9806436"><ele>250.0</ele><time>2026-05-02T12:31:28.716Z</time></trkpt><trkpt lat="43.0580118" lon="11.9804659"><ele>250.0</ele><time>2026-05-02T12:31:29.709Z</time></trkpt><trkpt lat="43.0580314" lon="11.9803036"><ele>250.0</ele><time>2026-05-02T12:31:30.714Z</time></trkpt><trkpt lat="43.0580758" lon="11.9801493"><ele>250.0</ele><time>2026-05-02T12:31:31.699Z</time></trkpt><trkpt lat="43.0581424" lon="11.9799907"><ele>249.75</ele><time>2026-05-02T12:31:32.706Z</time></trkpt><trkpt lat="43.0582298" lon="11.9798278"><ele>249.5</ele><time>2026-05-02T12:31:33.701Z</time></trkpt><trkpt lat="43.0583276" lon="11.9796759"><ele>249.25</ele><time>2026-05-02T12:31:34.719Z</time></trkpt><trkpt lat="43.0584318" lon="11.9795315"><ele>249.0</ele><time>2026-05-02T12:31:35.7Z</time></trkpt><trkpt lat="43.0585423" lon="11.979394"><ele>250.33333333333331</ele><time>2026-05-02T12:31:36.704Z</time></trkpt><trkpt lat="43.0586629" lon="11.9792739"><ele>251.66666666666666</ele><time>2026-05-02T12:31:37.717Z</time></trkpt><trkpt lat="43.0587949" lon="11.9791667"><ele>253.0</ele><time>2026-05-02T12:31:38.707Z</time></trkpt><trkpt lat="43.0589401" lon="11.9790642"><ele>253.0</ele><time>2026-05-02T12:31:39.699Z</time></trkpt><trkpt lat="43.0590895" lon="11.9789626"><ele>253.0</ele><time>2026-05-02T12:31:40.713Z</time></trkpt><trkpt lat="43.0592347" lon="11.9788564"><ele>253.0</ele><time>2026-05-02T12:31:41.704Z</time></trkpt><trkpt lat="43.0593776" lon="11.9787475"><ele>255.33333333333331</ele><time>2026-05-02T12:31:42.703Z</time></trkpt><trkpt lat="43.0595211" lon="11.978641"><ele>257.6666666666667</ele><time>2026-05-02T12:31:43.709Z</time></trkpt><trkpt lat="43.0596622" lon="11.9785398"><ele>260.0</ele><time>2026-05-02T12:31:44.687Z</time></trkpt><trkpt lat="43.0597989" lon="11.978433"><ele>260.25</ele><time>2026-05-02T12:31:45.698Z</time></trkpt><trkpt lat="43.0599328" lon="11.9783304"><ele>260.5</ele><time>2026-05-02T12:31:46.704Z</time></trkpt><trkpt lat="43.0600609" lon="11.978229"><ele>260.75</ele><time>2026-05-02T12:31:47.709Z</time></trkpt><trkpt lat="43.0601743" lon="11.9781347"><ele>261.0</ele><time>2026-05-02T12:31:48.704Z</time></trkpt><trkpt lat="43.0602879" lon="11.9780451"><ele>261.0</ele><time>2026-05-02T12:31:49.706Z</time></trkpt><trkpt lat="43.0604137" lon="11.9779493"><ele>261.0</ele><time>2026-05-02T12:31:50.706Z</time></trkpt><trkpt lat="43.060543" lon="11.9778446"><ele>261.0</ele><time>2026-05-02T12:31:51.697Z</time></trkpt><trkpt lat="43.0606712" lon="11.9777368"><ele>261.0</ele><time>2026-05-02T12:31:52.694Z</time></trkpt><trkpt lat="43.0607891" lon="11.9776287"><ele>261.0</ele><time>2026-05-02T12:31:53.7Z</time></trkpt><trkpt lat="43.0609054" lon="11.9775316"><ele>261.0</ele><time>2026-05-02T12:31:54.695Z</time></trkpt><trkpt lat="43.0610214" lon="11.9774361"><ele>261.0</ele><time>2026-05-02T12:31:55.708Z</time></trkpt><trkpt lat="43.0611418" lon="11.9773307"><ele>261.0</ele><time>2026-05-02T12:31:56.708Z</time></trkpt><trkpt lat="43.0612667" lon="11.9772201"><ele>261.0</ele><time>2026-05-02T12:31:57.715Z</time></trkpt><trkpt lat="43.0613865" lon="11.9771134"><ele>261.0</ele><time>2026-05-02T12:31:58.705Z</time></trkpt><trkpt lat="43.0615003" lon="11.9770094"><ele>261.0</ele><time>2026-05-02T12:31:59.714Z</time></trkpt><trkpt lat="43.0616183" lon="11.9769043"><ele>261.0</ele><time>2026-05-02T12:32:00.707Z</time></trkpt><trkpt lat="43.06174" lon="11.9768124"><ele>260.5</ele><time>2026-05-02T12:32:01.707Z</time></trkpt><trkpt lat="43.0618663" lon="11.9767359"><ele>260.0</ele><time>2026-05-02T12:32:02.701Z</time></trkpt><trkpt lat="43.061996" lon="11.9766682"><ele>259.5</ele><time>2026-05-02T12:32:03.706Z</time></trkpt><trkpt lat="43.0621265" lon="11.9766148"><ele>259.0</ele><time>2026-05-02T12:32:04.706Z</time></trkpt><trkpt lat="43.0622502" lon="11.9765754"><ele>259.0</ele><time>2026-05-02T12:32:05.698Z</time></trkpt><trkpt lat="43.0623786" lon="11.9765342"><ele>259.0</ele><time>2026-05-02T12:32:06.692Z</time></trkpt><trkpt lat="43.0625095" lon="11.9764883"><ele>259.0</ele><time>2026-05-02T12:32:07.694Z</time></trkpt><trkpt lat="43.0626357" lon="11.976447"><ele>259.0</ele><time>2026-05-02T12:32:08.703Z</time></trkpt><trkpt lat="43.062756" lon="11.9764054"><ele>259.0</ele><time>2026-05-02T12:32:09.709Z</time></trkpt><trkpt lat="43.0628778" lon="11.9763613"><ele>259.0</ele><time>2026-05-02T12:32:10.71Z</time></trkpt><trkpt lat="43.0629972" lon="11.9763182"><ele>259.0</ele><time>2026-05-02T12:32:11.694Z</time></trkpt><trkpt lat="43.06311" lon="11.9762845"><ele>259.0</ele><time>2026-05-02T12:32:12.693Z</time></trkpt><trkpt lat="43.0632157" lon="11.9762636"><ele>258.8</ele><time>2026-05-02T12:32:13.703Z</time></trkpt><trkpt lat="43.063315" lon="11.9762285"><ele>258.59999999999997</ele><time>2026-05-02T12:32:14.71Z</time></trkpt><trkpt lat="43.0634047" lon="11.9761784"><ele>258.4</ele><time>2026-05-02T12:32:15.704Z</time></trkpt><trkpt lat="43.0634859" lon="11.97611"><ele>258.2</ele><time>2026-05-02T12:32:16.698Z</time></trkpt><trkpt lat="43.0635497" lon="11.9760273"><ele>258.0</ele><time>2026-05-02T12:32:17.701Z</time></trkpt><trkpt lat="43.0636017" lon="11.9759263"><ele>256.8</ele><time>2026-05-02T12:32:18.7Z</time></trkpt><trkpt lat="43.0636255" lon="11.975815"><ele>255.60000000000002</ele><time>2026-05-02T12:32:19.706Z</time></trkpt><trkpt lat="43.0636376" lon="11.9756897"><ele>254.39999999999998</ele><time>2026-05-02T12:32:20.708Z</time></trkpt><trkpt lat="43.0636373" lon="11.9755422"><ele>253.2</ele><time>2026-05-02T12:32:21.688Z</time></trkpt><trkpt lat="43.0636334" lon="11.9753831"><ele>252.0</ele><time>2026-05-02T12:32:22.714Z</time></trkpt><trkpt lat="43.0636432" lon="11.9752104"><ele>252.0</ele><time>2026-05-02T12:32:23.705Z</time></trkpt><trkpt lat="43.063671" lon="11.9750341"><ele>252.0</ele><time>2026-05-02T12:32:24.705Z</time></trkpt><trkpt lat="43.0637098" lon="11.9748539"><ele>252.0</ele><time>2026-05-02T12:32:25.705Z</time></trkpt><trkpt lat="43.0637604" lon="11.9746729"><ele>252.0</ele><time>2026-05-02T12:32:26.701Z</time></trkpt><trkpt lat="43.0638275" lon="11.9744911"><ele>251.33333333333331</ele><time>2026-05-02T12:32:27.704Z</time></trkpt><trkpt lat="43.0639051" lon="11.9743125"><ele>250.66666666666666</ele><time>2026-05-02T12:32:28.709Z</time></trkpt><trkpt lat="43.0639869" lon="11.9741365"><ele>250.0</ele><time>2026-05-02T12:32:29.706Z</time></trkpt><trkpt lat="43.0640661" lon="11.9739542"><ele>251.66666666666666</ele><time>2026-05-02T12:32:30.73Z</time></trkpt><trkpt lat="43.0641456" lon="11.9737652"><ele>253.33333333333331</ele><time>2026-05-02T12:32:31.697Z</time></trkpt><trkpt lat="43.0642303" lon="11.9735693"><ele>255.0</ele><time>2026-05-02T12:32:32.716Z</time></trkpt><trkpt lat="43.0643157" lon="11.9733707"><ele>254.0</ele><time>2026-05-02T12:32:33.698Z</time></trkpt><trkpt lat="43.0643995" lon="11.9731667"><ele>253.0</ele><time>2026-05-02T12:32:34.716Z</time></trkpt><trkpt lat="43.0644761" lon="11.972966"><ele>252.0</ele><time>2026-05-02T12:32:35.709Z</time></trkpt><trkpt lat="43.0645491" lon="11.9727666"><ele>252.0</ele><time>2026-05-02T12:32:36.705Z</time></trkpt><trkpt lat="43.0646179" lon="11.9725605"><ele>252.0</ele><time>2026-05-02T12:32:37.706Z</time></trkpt><trkpt lat="43.0646745" lon="11.972347"><ele>252.0</ele><time>2026-05-02T12:32:38.709Z</time></trkpt><trkpt lat="43.0647232" lon="11.9721274"><ele>251.0</ele><time>2026-05-02T12:32:39.706Z</time></trkpt><trkpt lat="43.064773" lon="11.9719089"><ele>250.0</ele><time>2026-05-02T12:32:40.704Z</time></trkpt><trkpt lat="43.0648279" lon="11.9716931"><ele>249.0</ele><time>2026-05-02T12:32:41.711Z</time></trkpt><trkpt lat="43.0648851" lon="11.9714767"><ele>249.33333333333331</ele><time>2026-05-02T12:32:42.717Z</time></trkpt><trkpt lat="43.0649463" lon="11.9712619"><ele>249.66666666666666</ele><time>2026-05-02T12:32:43.695Z</time></trkpt><trkpt lat="43.0650175" lon="11.971051"><ele>250.0</ele><time>2026-05-02T12:32:44.711Z</time></trkpt><trkpt lat="43.0651001" lon="11.970846"><ele>250.0</ele><time>2026-05-02T12:32:45.704Z</time></trkpt><trkpt lat="43.0651857" lon="11.9706406"><ele>250.0</ele><time>2026-05-02T12:32:46.7Z</time></trkpt><trkpt lat="43.0652752" lon="11.9704352"><ele>250.0</ele><time>2026-05-02T12:32:47.719Z</time></trkpt><trkpt lat="43.065365" lon="11.9702335"><ele>250.0</ele><time>2026-05-02T12:32:48.735Z</time></trkpt><trkpt lat="43.0654528" lon="11.9700357"><ele>250.0</ele><time>2026-05-02T12:32:49.702Z</time></trkpt><trkpt lat="43.0655437" lon="11.9698383"><ele>250.0</ele><time>2026-05-02T12:32:50.72Z</time></trkpt><trkpt lat="43.065636" lon="11.9696395"><ele>249.66666666666666</ele><time>2026-05-02T12:32:51.708Z</time></trkpt><trkpt lat="43.0657294" lon="11.969439"><ele>249.33333333333331</ele><time>2026-05-02T12:32:52.705Z</time></trkpt><trkpt lat="43.0658232" lon="11.969236"><ele>249.0</ele><time>2026-05-02T12:32:53.701Z</time></trkpt><trkpt lat="43.0659193" lon="11.9690317"><ele>249.66666666666669</ele><time>2026-05-02T12:32:54.725Z</time></trkpt><trkpt lat="43.0660105" lon="11.9688303"><ele>250.33333333333334</ele><time>2026-05-02T12:32:55.701Z</time></trkpt><trkpt lat="43.0660967" lon="11.9686327"><ele>251.0</ele><time>2026-05-02T12:32:56.712Z</time></trkpt><trkpt lat="43.0661727" lon="11.9684508"><ele>250.75</ele><time>2026-05-02T12:32:57.707Z</time></trkpt><trkpt lat="43.0662443" lon="11.9682818"><ele>250.5</ele><time>2026-05-02T12:32:58.717Z</time></trkpt><trkpt lat="43.0663164" lon="11.9681184"><ele>250.25</ele><time>2026-05-02T12:32:59.703Z</time></trkpt><trkpt lat="43.0663902" lon="11.9679552"><ele>250.0</ele><time>2026-05-02T12:33:00.706Z</time></trkpt><trkpt lat="43.0664663" lon="11.9677878"><ele>250.0</ele><time>2026-05-02T12:33:01.718Z</time></trkpt><trkpt lat="43.0665425" lon="11.9676184"><ele>250.0</ele><time>2026-05-02T12:33:02.719Z</time></trkpt><trkpt lat="43.0666209" lon="11.9674486"><ele>250.0</ele><time>2026-05-02T12:33:03.7Z</time></trkpt><trkpt lat="43.066701" lon="11.9672809"><ele>250.0</ele><time>2026-05-02T12:33:04.708Z</time></trkpt><trkpt lat="43.0667741" lon="11.9671165"><ele>250.25</ele><time>2026-05-02T12:33:05.704Z</time></trkpt><trkpt lat="43.0668476" lon="11.9669495"><ele>250.5</ele><time>2026-05-02T12:33:06.702Z</time></trkpt><trkpt lat="43.0669209" lon="11.9667867"><ele>250.75</ele><time>2026-05-02T12:33:07.705Z</time></trkpt><trkpt lat="43.0669939" lon="11.9666259"><ele>251.0</ele><time>2026-05-02T12:33:08.704Z</time></trkpt><trkpt lat="43.0670675" lon="11.966469"><ele>251.0</ele><time>2026-05-02T12:33:09.693Z</time></trkpt><trkpt lat="43.067134" lon="11.966317"><ele>251.0</ele><time>2026-05-02T12:33:10.715Z</time></trkpt><trkpt lat="43.0672001" lon="11.9661635"><ele>251.0</ele><time>2026-05-02T12:33:11.707Z</time></trkpt><trkpt lat="43.0672691" lon="11.9660035"><ele>251.0</ele><time>2026-05-02T12:33:12.725Z</time></trkpt><trkpt lat="43.067342" lon="11.9658389"><ele>251.66666666666669</ele><time>2026-05-02T12:33:13.701Z</time></trkpt><trkpt lat="43.0674187" lon="11.9656731"><ele>252.33333333333331</ele><time>2026-05-02T12:33:14.731Z</time></trkpt><trkpt lat="43.0674985" lon="11.9654934"><ele>253.0</ele><time>2026-05-02T12:33:15.703Z</time></trkpt><trkpt lat="43.0675849" lon="11.9653058"><ele>253.0</ele><time>2026-05-02T12:33:16.702Z</time></trkpt><trkpt lat="43.0676743" lon="11.9651098"><ele>253.0</ele><time>2026-05-02T12:33:17.705Z</time></trkpt><trkpt lat="43.0677631" lon="11.9649116"><ele>253.0</ele><time>2026-05-02T12:33:18.702Z</time></trkpt><trkpt lat="43.0678542" lon="11.9647092"><ele>252.33333333333331</ele><time>2026-05-02T12:33:19.7Z</time></trkpt><trkpt lat="43.067946" lon="11.964507"><ele>251.66666666666669</ele><time>2026-05-02T12:33:20.698Z</time></trkpt><trkpt lat="43.0680416" lon="11.964299"><ele>251.0</ele><time>2026-05-02T12:33:21.706Z</time></trkpt><trkpt lat="43.0681371" lon="11.9640882"><ele>250.33333333333334</ele><time>2026-05-02T12:33:22.7Z</time></trkpt><trkpt lat="43.0682326" lon="11.9638859"><ele>249.66666666666669</ele><time>2026-05-02T12:33:23.694Z</time></trkpt><trkpt lat="43.068328" lon="11.9636898"><ele>249.0</ele><time>2026-05-02T12:33:24.7Z</time></trkpt><trkpt lat="43.0684196" lon="11.9634932"><ele>249.33333333333331</ele><time>2026-05-02T12:33:25.711Z</time></trkpt><trkpt lat="43.0685027" lon="11.963304"><ele>249.66666666666666</ele><time>2026-05-02T12:33:26.705Z</time></trkpt><trkpt lat="43.0685791" lon="11.9631056"><ele>250.0</ele><time>2026-05-02T12:33:27.697Z</time></trkpt><trkpt lat="43.068643" lon="11.9628952"><ele>250.0</ele><time>2026-05-02T12:33:28.696Z</time></trkpt><trkpt lat="43.0686924" lon="11.9626615"><ele>250.0</ele><time>2026-05-02T12:33:29.703Z</time></trkpt><trkpt lat="43.0687254" lon="11.9624211"><ele>250.0</ele><time>2026-05-02T12:33:30.701Z</time></trkpt><trkpt lat="43.0687567" lon="11.9621764"><ele>249.66666666666666</ele><time>2026-05-02T12:33:31.702Z</time></trkpt><trkpt lat="43.0687922" lon="11.9619324"><ele>249.33333333333331</ele><time>2026-05-02T12:33:32.705Z</time></trkpt><trkpt lat="43.0688302" lon="11.9616858"><ele>249.0</ele><time>2026-05-02T12:33:33.701Z</time></trkpt><trkpt lat="43.0688711" lon="11.9614397"><ele>249.0</ele><time>2026-05-02T12:33:34.703Z</time></trkpt><trkpt lat="43.0689121" lon="11.9611829"><ele>249.0</ele><time>2026-05-02T12:33:35.707Z</time></trkpt><trkpt lat="43.0689534" lon="11.9609097"><ele>249.0</ele><time>2026-05-02T12:33:36.713Z</time></trkpt><trkpt lat="43.0689996" lon="11.9606229"><ele>249.0</ele><time>2026-05-02T12:33:37.701Z</time></trkpt><trkpt lat="43.0690471" lon="11.9603339"><ele>249.0</ele><time>2026-05-02T12:33:38.706Z</time></trkpt><trkpt lat="43.0690936" lon="11.9600509"><ele>249.0</ele><time>2026-05-02T12:33:39.704Z</time></trkpt><trkpt lat="43.0691388" lon="11.9597775"><ele>249.0</ele><time>2026-05-02T12:33:40.723Z</time></trkpt><trkpt lat="43.0691833" lon="11.9595081"><ele>249.0</ele><time>2026-05-02T12:33:41.704Z</time></trkpt><trkpt lat="43.0692291" lon="11.9592392"><ele>249.0</ele><time>2026-05-02T12:33:42.73Z</time></trkpt><trkpt lat="43.0692748" lon="11.9589651"><ele>248.66666666666669</ele><time>2026-05-02T12:33:43.71Z</time></trkpt><trkpt lat="43.0693185" lon="11.9586878"><ele>248.33333333333334</ele><time>2026-05-02T12:33:44.713Z</time></trkpt><trkpt lat="43.0693642" lon="11.9584065"><ele>248.0</ele><time>2026-05-02T12:33:45.726Z</time></trkpt><trkpt lat="43.069411" lon="11.9581292"><ele>248.0</ele><time>2026-05-02T12:33:46.716Z</time></trkpt><trkpt lat="43.0694593" lon="11.957854"><ele>248.0</ele><time>2026-05-02T12:33:47.707Z</time></trkpt><trkpt lat="43.0695045" lon="11.9575796"><ele>248.0</ele><time>2026-05-02T12:33:48.717Z</time></trkpt><trkpt lat="43.0695497" lon="11.9573072"><ele>248.0</ele><time>2026-05-02T12:33:49.707Z</time></trkpt><trkpt lat="43.069593" lon="11.9570378"><ele>248.0</ele><time>2026-05-02T12:33:50.724Z</time></trkpt><trkpt lat="43.0696335" lon="11.9567714"><ele>248.0</ele><time>2026-05-02T12:33:51.71Z</time></trkpt><trkpt lat="43.0696757" lon="11.9565032"><ele>248.0</ele><time>2026-05-02T12:33:52.715Z</time></trkpt><trkpt lat="43.0697237" lon="11.9562287"><ele>248.0</ele><time>2026-05-02T12:33:53.707Z</time></trkpt><trkpt lat="43.0697698" lon="11.9559565"><ele>248.0</ele><time>2026-05-02T12:33:54.701Z</time></trkpt><trkpt lat="43.0698133" lon="11.9556877"><ele>248.0</ele><time>2026-05-02T12:33:55.7Z</time></trkpt><trkpt lat="43.0698561" lon="11.955427"><ele>248.0</ele><time>2026-05-02T12:33:56.716Z</time></trkpt><trkpt lat="43.0698955" lon="11.9551819"><ele>248.0</ele><time>2026-05-02T12:33:57.702Z</time></trkpt><trkpt lat="43.0699348" lon="11.954947"><ele>248.33333333333334</ele><time>2026-05-02T12:33:58.715Z</time></trkpt><trkpt lat="43.0699735" lon="11.9547067"><ele>248.66666666666669</ele><time>2026-05-02T12:33:59.731Z</time></trkpt><trkpt lat="43.0700122" lon="11.9544682"><ele>249.0</ele><time>2026-05-02T12:34:00.719Z</time></trkpt><trkpt lat="43.07005" lon="11.9542435"><ele>249.33333333333331</ele><time>2026-05-02T12:34:01.709Z</time></trkpt><trkpt lat="43.0700855" lon="11.9540251"><ele>249.66666666666666</ele><time>2026-05-02T12:34:02.724Z</time></trkpt><trkpt lat="43.0701212" lon="11.9538101"><ele>250.0</ele><time>2026-05-02T12:34:03.698Z</time></trkpt><trkpt lat="43.0701573" lon="11.9536037"><ele>250.0</ele><time>2026-05-02T12:34:04.714Z</time></trkpt><trkpt lat="43.0701924" lon="11.9533929"><ele>250.0</ele><time>2026-05-02T12:34:05.692Z</time></trkpt><trkpt lat="43.0702279" lon="11.9531855"><ele>250.0</ele><time>2026-05-02T12:34:06.71Z</time></trkpt><trkpt lat="43.0702587" lon="11.9529926"><ele>250.0</ele><time>2026-05-02T12:34:07.705Z</time></trkpt><trkpt lat="43.0702806" lon="11.9528017"><ele>250.0</ele><time>2026-05-02T12:34:08.71Z</time></trkpt><trkpt lat="43.0702894" lon="11.9525924"><ele>250.0</ele><time>2026-05-02T12:34:09.704Z</time></trkpt><trkpt lat="43.0702831" lon="11.9523676"><ele>250.0</ele><time>2026-05-02T12:34:10.727Z</time></trkpt><trkpt lat="43.0702567" lon="11.9521355"><ele>250.0</ele><time>2026-05-02T12:34:11.708Z</time></trkpt><trkpt lat="43.0702165" lon="11.9519048"><ele>250.0</ele><time>2026-05-02T12:34:12.713Z</time></trkpt><trkpt lat="43.0701687" lon="11.9516779"><ele>250.33333333333331</ele><time>2026-05-02T12:34:13.708Z</time></trkpt><trkpt lat="43.0701166" lon="11.9514656"><ele>250.66666666666669</ele><time>2026-05-02T12:34:14.725Z</time></trkpt><trkpt lat="43.0700707" lon="11.9512667"><ele>251.0</ele><time>2026-05-02T12:34:15.698Z</time></trkpt><trkpt lat="43.070017" lon="11.9510812"><ele>251.0</ele><time>2026-05-02T12:34:16.704Z</time></trkpt><trkpt lat="43.0699621" lon="11.950885"><ele>251.0</ele><time>2026-05-02T12:34:17.708Z</time></trkpt><trkpt lat="43.0699025" lon="11.9506807"><ele>251.0</ele><time>2026-05-02T12:34:18.718Z</time></trkpt><trkpt lat="43.069837" lon="11.9504571"><ele>251.0</ele><time>2026-05-02T12:34:19.704Z</time></trkpt><trkpt lat="43.0697653" lon="11.9502206"><ele>251.0</ele><time>2026-05-02T12:34:20.71Z</time></trkpt><trkpt lat="43.0696976" lon="11.9499862"><ele>251.0</ele><time>2026-05-02T12:34:21.707Z</time></trkpt><trkpt lat="43.0696296" lon="11.9497554"><ele>251.0</ele><time>2026-05-02T12:34:22.711Z</time></trkpt><trkpt lat="43.0695603" lon="11.949526"><ele>251.0</ele><time>2026-05-02T12:34:23.709Z</time></trkpt><trkpt lat="43.0694941" lon="11.9492993"><ele>251.0</ele><time>2026-05-02T12:34:24.715Z</time></trkpt><trkpt lat="43.0694314" lon="11.9490754"><ele>251.0</ele><time>2026-05-02T12:34:25.709Z</time></trkpt><trkpt lat="43.0693704" lon="11.9488671"><ele>251.0</ele><time>2026-05-02T12:34:26.706Z</time></trkpt><trkpt lat="43.0693133" lon="11.9486807"><ele>251.0</ele><time>2026-05-02T12:34:27.715Z</time></trkpt><trkpt lat="43.0692624" lon="11.9485075"><ele>251.0</ele><time>2026-05-02T12:34:28.716Z</time></trkpt><trkpt lat="43.0692175" lon="11.9483413"><ele>251.0</ele><time>2026-05-02T12:34:29.702Z</time></trkpt><trkpt lat="43.0691843" lon="11.9481805"><ele>251.0</ele><time>2026-05-02T12:34:30.705Z</time></trkpt><trkpt lat="43.0691607" lon="11.9480132"><ele>251.0</ele><time>2026-05-02T12:34:31.701Z</time></trkpt><trkpt lat="43.069146" lon="11.9478363"><ele>251.0</ele><time>2026-05-02T12:34:32.711Z</time></trkpt><trkpt lat="43.0691407" lon="11.9476518"><ele>251.0</ele><time>2026-05-02T12:34:33.704Z</time></trkpt><trkpt lat="43.0691344" lon="11.9474584"><ele>251.0</ele><time>2026-05-02T12:34:34.704Z</time></trkpt><trkpt lat="43.069114" lon="11.9472521"><ele>251.0</ele><time>2026-05-02T12:34:35.704Z</time></trkpt><trkpt lat="43.0690768" lon="11.9470373"><ele>251.33333333333334</ele><time>2026-05-02T12:34:36.713Z</time></trkpt><trkpt lat="43.0690212" lon="11.9468287"><ele>251.66666666666669</ele><time>2026-05-02T12:34:37.696Z</time></trkpt><trkpt lat="43.068967" lon="11.946631"><ele>252.0</ele><time>2026-05-02T12:34:38.709Z</time></trkpt><trkpt lat="43.0689176" lon="11.9464568"><ele>253.0</ele><time>2026-05-02T12:34:39.702Z</time></trkpt><trkpt lat="43.0688892" lon="11.946311"><ele>254.0</ele><time>2026-05-02T12:34:40.716Z</time></trkpt><trkpt lat="43.0688742" lon="11.946198"><ele>255.0</ele><time>2026-05-02T12:34:41.703Z</time></trkpt><trkpt lat="43.0688831" lon="11.9461085"><ele>256.0</ele><time>2026-05-02T12:34:42.707Z</time></trkpt><trkpt lat="43.0689852" lon="11.9460204"><ele>257.0</ele><time>2026-05-02T12:34:44.704Z</time></trkpt><trkpt lat="43.0690582" lon="11.9460283"><ele>257.33333333333337</ele><time>2026-05-02T12:34:45.701Z</time></trkpt><trkpt lat="43.0691377" lon="11.9460565"><ele>257.6666666666667</ele><time>2026-05-02T12:34:46.7Z</time></trkpt><trkpt lat="43.0692221" lon="11.94607"><ele>258.0</ele><time>2026-05-02T12:34:47.701Z</time></trkpt><trkpt lat="43.0693001" lon="11.94606"><ele>258.3333333333333</ele><time>2026-05-02T12:34:48.718Z</time></trkpt><trkpt lat="43.0693717" lon="11.9460161"><ele>258.66666666666663</ele><time>2026-05-02T12:34:49.704Z</time></trkpt><trkpt lat="43.0694323" lon="11.9459454"><ele>259.0</ele><time>2026-05-02T12:34:50.703Z</time></trkpt><trkpt lat="43.0694835" lon="11.945854"><ele>261.16666666666663</ele><time>2026-05-02T12:34:51.7Z</time></trkpt><trkpt lat="43.0695303" lon="11.9457554"><ele>263.3333333333333</ele><time>2026-05-02T12:34:52.703Z</time></trkpt><trkpt lat="43.069578" lon="11.9456573"><ele>265.5</ele><time>2026-05-02T12:34:53.701Z</time></trkpt><trkpt lat="43.0696159" lon="11.94556"><ele>267.6666666666667</ele><time>2026-05-02T12:34:54.713Z</time></trkpt><trkpt lat="43.0696483" lon="11.9454675"><ele>269.83333333333337</ele><time>2026-05-02T12:34:55.693Z</time></trkpt><trkpt lat="43.0696546" lon="11.9453786"><ele>272.0</ele><time>2026-05-02T12:34:56.696Z</time></trkpt><trkpt lat="43.069613" lon="11.9452555"><ele>272.0</ele><time>2026-05-02T12:34:58.69Z</time></trkpt><trkpt lat="43.0695071" lon="11.9452033"><ele>272.0</ele><time>2026-05-02T12:35:00.706Z</time></trkpt><trkpt lat="43.0694066" lon="11.9451215"><ele>272.0</ele><time>2026-05-02T12:35:02.708Z</time></trkpt><trkpt lat="43.069381" lon="11.9450387"><ele>272.0</ele><time>2026-05-02T12:35:03.711Z</time></trkpt><trkpt lat="43.069381" lon="11.9449393"><ele>272.0</ele><time>2026-05-02T12:35:04.698Z</time></trkpt><trkpt lat="43.0694016" lon="11.9448383"><ele>272.0</ele><time>2026-05-02T12:35:05.699Z</time></trkpt><trkpt lat="43.0694403" lon="11.9447485"><ele>273.83333333333337</ele><time>2026-05-02T12:35:06.705Z</time></trkpt><trkpt lat="43.0694897" lon="11.9446722"><ele>275.6666666666667</ele><time>2026-05-02T12:35:07.698Z</time></trkpt><trkpt lat="43.0695454" lon="11.9446066"><ele>277.5</ele><time>2026-05-02T12:35:08.697Z</time></trkpt><trkpt lat="43.0695991" lon="11.9445343"><ele>279.3333333333333</ele><time>2026-05-02T12:35:09.711Z</time></trkpt><trkpt lat="43.0696362" lon="11.9444589"><ele>281.16666666666663</ele><time>2026-05-02T12:35:10.706Z</time></trkpt><trkpt lat="43.0696405" lon="11.9443165"><ele>283.0</ele><time>2026-05-02T12:35:12.703Z</time></trkpt><trkpt lat="43.0696367" lon="11.9442043"><ele>283.6</ele><time>2026-05-02T12:35:13.7Z</time></trkpt><trkpt lat="43.069624" lon="11.9440739"><ele>284.20000000000005</ele><time>2026-05-02T12:35:14.689Z</time></trkpt><trkpt lat="43.0696086" lon="11.9439423"><ele>284.8</ele><time>2026-05-02T12:35:15.694Z</time></trkpt><trkpt lat="43.0695985" lon="11.9438072"><ele>285.40000000000003</ele><time>2026-05-02T12:35:16.699Z</time></trkpt><trkpt lat="43.0695985" lon="11.9436779"><ele>286.0</ele><time>2026-05-02T12:35:17.704Z</time></trkpt><trkpt lat="43.0696099" lon="11.9435628"><ele>286.0</ele><time>2026-05-02T12:35:18.701Z</time></trkpt><trkpt lat="43.0696355" lon="11.9434491"><ele>286.0</ele><time>2026-05-02T12:35:19.697Z</time></trkpt><trkpt lat="43.0696749" lon="11.9433347"><ele>286.0</ele><time>2026-05-02T12:35:20.697Z</time></trkpt><trkpt lat="43.0697172" lon="11.9432245"><ele>286.0</ele><time>2026-05-02T12:35:21.701Z</time></trkpt><trkpt lat="43.0697612" lon="11.9431123"><ele>286.0</ele><time>2026-05-02T12:35:22.691Z</time></trkpt><trkpt lat="43.0698032" lon="11.9430114"><ele>286.0</ele><time>2026-05-02T12:35:23.692Z</time></trkpt><trkpt lat="43.069832" lon="11.9429266"><ele>286.5</ele><time>2026-05-02T12:35:24.705Z</time></trkpt><trkpt lat="43.0698813" lon="11.9427708"><ele>287.0</ele><time>2026-05-02T12:35:26.717Z</time></trkpt><trkpt lat="43.0699125" lon="11.9426821"><ele>287.5</ele><time>2026-05-02T12:35:27.71Z</time></trkpt><trkpt lat="43.0699543" lon="11.9425871"><ele>288.0</ele><time>2026-05-02T12:35:28.724Z</time></trkpt><trkpt lat="43.0700035" lon="11.9425023"><ele>288.5</ele><time>2026-05-02T12:35:29.709Z</time></trkpt><trkpt lat="43.0700705" lon="11.9424403"><ele>289.0</ele><time>2026-05-02T12:35:30.699Z</time></trkpt><trkpt lat="43.0701491" lon="11.9423942"><ele>289.8</ele><time>2026-05-02T12:35:31.7Z</time></trkpt><trkpt lat="43.0702312" lon="11.9423439"><ele>290.59999999999997</ele><time>2026-05-02T12:35:32.693Z</time></trkpt><trkpt lat="43.070318" lon="11.942296"><ele>291.4</ele><time>2026-05-02T12:35:33.697Z</time></trkpt><trkpt lat="43.0704096" lon="11.9422473"><ele>292.2</ele><time>2026-05-02T12:35:34.701Z</time></trkpt><trkpt lat="43.0705061" lon="11.9421936"><ele>293.0</ele><time>2026-05-02T12:35:35.694Z</time></trkpt><trkpt lat="43.0706079" lon="11.9421388"><ele>293.0</ele><time>2026-05-02T12:35:36.696Z</time></trkpt><trkpt lat="43.0707083" lon="11.942083"><ele>293.0</ele><time>2026-05-02T12:35:37.696Z</time></trkpt><trkpt lat="43.0707979" lon="11.9420382"><ele>293.0</ele><time>2026-05-02T12:35:38.705Z</time></trkpt><trkpt lat="43.0708685" lon="11.941994"><ele>293.0</ele><time>2026-05-02T12:35:39.693Z</time></trkpt><trkpt lat="43.0709482" lon="11.9419383"><ele>293.0</ele><time>2026-05-02T12:35:41.705Z</time></trkpt><trkpt lat="43.0709415" lon="11.9418357"><ele>293.0</ele><time>2026-05-02T12:35:44.692Z</time></trkpt><trkpt lat="43.0708946" lon="11.9417636"><ele>292.4</ele><time>2026-05-02T12:35:45.705Z</time></trkpt><trkpt lat="43.0708275" lon="11.9416851"><ele>291.8</ele><time>2026-05-02T12:35:46.692Z</time></trkpt><trkpt lat="43.0707441" lon="11.9415949"><ele>291.2</ele><time>2026-05-02T12:35:47.695Z</time></trkpt><trkpt lat="43.0706526" lon="11.9414963"><ele>290.6</ele><time>2026-05-02T12:35:48.699Z</time></trkpt><trkpt lat="43.0705483" lon="11.9413944"><ele>290.0</ele><time>2026-05-02T12:35:49.697Z</time></trkpt><trkpt lat="43.0704294" lon="11.941292"><ele>290.0</ele><time>2026-05-02T12:35:50.693Z</time></trkpt><trkpt lat="43.0702989" lon="11.9411872"><ele>290.0</ele><time>2026-05-02T12:35:51.705Z</time></trkpt><trkpt lat="43.0701606" lon="11.9410787"><ele>290.0</ele><time>2026-05-02T12:35:52.697Z</time></trkpt><trkpt lat="43.0700162" lon="11.94097"><ele>289.0</ele><time>2026-05-02T12:35:53.687Z</time></trkpt><trkpt lat="43.0698644" lon="11.9408612"><ele>288.0</ele><time>2026-05-02T12:35:54.693Z</time></trkpt><trkpt lat="43.0697088" lon="11.9407619"><ele>287.0</ele><time>2026-05-02T12:35:55.689Z</time></trkpt><trkpt lat="43.0695467" lon="11.9406759"><ele>287.0</ele><time>2026-05-02T12:35:56.692Z</time></trkpt><trkpt lat="43.069374" lon="11.9406165"><ele>287.0</ele><time>2026-05-02T12:35:57.697Z</time></trkpt><trkpt lat="43.0691943" lon="11.940578"><ele>287.0</ele><time>2026-05-02T12:35:58.695Z</time></trkpt><trkpt lat="43.0690172" lon="11.9405536"><ele>288.0</ele><time>2026-05-02T12:35:59.692Z</time></trkpt><trkpt lat="43.0688475" lon="11.9405224"><ele>289.0</ele><time>2026-05-02T12:36:00.692Z</time></trkpt><trkpt lat="43.0686818" lon="11.9404992"><ele>290.0</ele><time>2026-05-02T12:36:01.701Z</time></trkpt><trkpt lat="43.0685264" lon="11.9404925"><ele>290.0</ele><time>2026-05-02T12:36:02.695Z</time></trkpt><trkpt lat="43.0683839" lon="11.9405202"><ele>290.0</ele><time>2026-05-02T12:36:03.704Z</time></trkpt><trkpt lat="43.0682556" lon="11.9405687"><ele>290.0</ele><time>2026-05-02T12:36:04.694Z</time></trkpt><trkpt lat="43.0681327" lon="11.9406183"><ele>290.0</ele><time>2026-05-02T12:36:05.69Z</time></trkpt><trkpt lat="43.0680152" lon="11.9406691"><ele>291.0</ele><time>2026-05-02T12:36:06.696Z</time></trkpt><trkpt lat="43.0678986" lon="11.9407158"><ele>292.0</ele><time>2026-05-02T12:36:07.702Z</time></trkpt><trkpt lat="43.0677756" lon="11.9407602"><ele>293.0</ele><time>2026-05-02T12:36:08.686Z</time></trkpt><trkpt lat="43.0676563" lon="11.9407948"><ele>294.0</ele><time>2026-05-02T12:36:09.691Z</time></trkpt><trkpt lat="43.0675371" lon="11.9408247"><ele>291.75</ele><time>2026-05-02T12:36:10.697Z</time></trkpt><trkpt lat="43.0674159" lon="11.9408575"><ele>289.5</ele><time>2026-05-02T12:36:11.699Z</time></trkpt><trkpt lat="43.0672843" lon="11.9408898"><ele>287.25</ele><time>2026-05-02T12:36:12.709Z</time></trkpt><trkpt lat="43.0671374" lon="11.9409227"><ele>285.0</ele><time>2026-05-02T12:36:13.698Z</time></trkpt><trkpt lat="43.0669875" lon="11.9409533"><ele>285.0</ele><time>2026-05-02T12:36:14.693Z</time></trkpt><trkpt lat="43.0668382" lon="11.9409848"><ele>285.0</ele><time>2026-05-02T12:36:15.698Z</time></trkpt><trkpt lat="43.0666815" lon="11.9410035"><ele>285.0</ele><time>2026-05-02T12:36:16.695Z</time></trkpt><trkpt lat="43.0665202" lon="11.9410265"><ele>287.3333333333333</ele><time>2026-05-02T12:36:17.704Z</time></trkpt><trkpt lat="43.0663537" lon="11.9410587"><ele>289.66666666666663</ele><time>2026-05-02T12:36:18.707Z</time></trkpt><trkpt lat="43.0661775" lon="11.9410908"><ele>292.0</ele><time>2026-05-02T12:36:19.702Z</time></trkpt><trkpt lat="43.066004" lon="11.9411333"><ele>292.0</ele><time>2026-05-02T12:36:20.719Z</time></trkpt><trkpt lat="43.0658227" lon="11.9411706"><ele>292.0</ele><time>2026-05-02T12:36:21.705Z</time></trkpt><trkpt lat="43.0656362" lon="11.9412022"><ele>292.0</ele><time>2026-05-02T12:36:22.707Z</time></trkpt><trkpt lat="43.0654438" lon="11.941235"><ele>291.3333333333333</ele><time>2026-05-02T12:36:23.708Z</time></trkpt><trkpt lat="43.0652528" lon="11.9412729"><ele>290.6666666666667</ele><time>2026-05-02T12:36:24.708Z</time></trkpt><trkpt lat="43.0650683" lon="11.9413188"><ele>290.0</ele><time>2026-05-02T12:36:25.715Z</time></trkpt><trkpt lat="43.0648919" lon="11.9413827"><ele>290.0</ele><time>2026-05-02T12:36:26.694Z</time></trkpt><trkpt lat="43.0647327" lon="11.9414805"><ele>290.0</ele><time>2026-05-02T12:36:27.715Z</time></trkpt><trkpt lat="43.0645991" lon="11.9416224"><ele>290.0</ele><time>2026-05-02T12:36:28.713Z</time></trkpt><trkpt lat="43.0644941" lon="11.9418224"><ele>291.33333333333337</ele><time>2026-05-02T12:36:29.706Z</time></trkpt><trkpt lat="43.0643966" lon="11.9420444"><ele>292.6666666666667</ele><time>2026-05-02T12:36:30.706Z</time></trkpt><trkpt lat="43.0642943" lon="11.9422741"><ele>294.0</ele><time>2026-05-02T12:36:31.697Z</time></trkpt><trkpt lat="43.0641793" lon="11.9425037"><ele>292.6666666666667</ele><time>2026-05-02T12:36:32.7Z</time></trkpt><trkpt lat="43.0640557" lon="11.9427247"><ele>291.33333333333337</ele><time>2026-05-02T12:36:33.688Z</time></trkpt><trkpt lat="43.0639276" lon="11.9429401"><ele>290.0</ele><time>2026-05-02T12:36:34.7Z</time></trkpt><trkpt lat="43.0638053" lon="11.9431339"><ele>290.0</ele><time>2026-05-02T12:36:35.709Z</time></trkpt><trkpt lat="43.0636872" lon="11.9433128"><ele>290.0</ele><time>2026-05-02T12:36:36.706Z</time></trkpt><trkpt lat="43.0635689" lon="11.9434739"><ele>290.0</ele><time>2026-05-02T12:36:37.706Z</time></trkpt><trkpt lat="43.063447" lon="11.9436175"><ele>291.33333333333337</ele><time>2026-05-02T12:36:38.707Z</time></trkpt><trkpt lat="43.0633163" lon="11.9437422"><ele>292.6666666666667</ele><time>2026-05-02T12:36:39.703Z</time></trkpt><trkpt lat="43.0631814" lon="11.9438457"><ele>294.0</ele><time>2026-05-02T12:36:40.709Z</time></trkpt><trkpt lat="43.0630451" lon="11.9439257"><ele>294.0</ele><time>2026-05-02T12:36:41.701Z</time></trkpt><trkpt lat="43.062911" lon="11.9439694"><ele>294.0</ele><time>2026-05-02T12:36:42.706Z</time></trkpt><trkpt lat="43.0627755" lon="11.9439667"><ele>294.0</ele><time>2026-05-02T12:36:43.713Z</time></trkpt><trkpt lat="43.062639" lon="11.9438886"><ele>294.0</ele><time>2026-05-02T12:36:44.718Z</time></trkpt><trkpt lat="43.0625246" lon="11.9437436"><ele>293.6666666666667</ele><time>2026-05-02T12:36:45.693Z</time></trkpt><trkpt lat="43.0624082" lon="11.9435747"><ele>293.33333333333337</ele><time>2026-05-02T12:36:46.702Z</time></trkpt><trkpt lat="43.06229" lon="11.9434051"><ele>293.0</ele><time>2026-05-02T12:36:47.705Z</time></trkpt><trkpt lat="43.0621725" lon="11.9432334"><ele>293.0</ele><time>2026-05-02T12:36:48.702Z</time></trkpt><trkpt lat="43.0620488" lon="11.9430755"><ele>293.0</ele><time>2026-05-02T12:36:49.708Z</time></trkpt><trkpt lat="43.0619138" lon="11.9429349"><ele>293.0</ele><time>2026-05-02T12:36:50.706Z</time></trkpt><trkpt lat="43.0617687" lon="11.9428136"><ele>293.0</ele><time>2026-05-02T12:36:51.704Z</time></trkpt><trkpt lat="43.0616184" lon="11.9426936"><ele>293.0</ele><time>2026-05-02T12:36:52.704Z</time></trkpt><trkpt lat="43.0614698" lon="11.9425702"><ele>293.0</ele><time>2026-05-02T12:36:53.707Z</time></trkpt><trkpt lat="43.0613295" lon="11.9424481"><ele>292.0</ele><time>2026-05-02T12:36:54.714Z</time></trkpt><trkpt lat="43.0612038" lon="11.9423263"><ele>291.0</ele><time>2026-05-02T12:36:55.705Z</time></trkpt><trkpt lat="43.0610789" lon="11.9422213"><ele>290.0</ele><time>2026-05-02T12:36:56.699Z</time></trkpt><trkpt lat="43.0609407" lon="11.9421531"><ele>289.0</ele><time>2026-05-02T12:36:57.708Z</time></trkpt><trkpt lat="43.0607895" lon="11.942131"><ele>286.3333333333333</ele><time>2026-05-02T12:36:58.716Z</time></trkpt><trkpt lat="43.0606265" lon="11.9421438"><ele>283.6666666666667</ele><time>2026-05-02T12:36:59.704Z</time></trkpt><trkpt lat="43.0604666" lon="11.9421368"><ele>281.0</ele><time>2026-05-02T12:37:00.712Z</time></trkpt><trkpt lat="43.0602984" lon="11.9421114"><ele>281.0</ele><time>2026-05-02T12:37:01.7Z</time></trkpt><trkpt lat="43.0601255" lon="11.9420648"><ele>281.0</ele><time>2026-05-02T12:37:02.709Z</time></trkpt><trkpt lat="43.0599601" lon="11.9420098"><ele>281.0</ele><time>2026-05-02T12:37:03.713Z</time></trkpt><trkpt lat="43.0597973" lon="11.9419385"><ele>279.33333333333337</ele><time>2026-05-02T12:37:04.711Z</time></trkpt><trkpt lat="43.0596365" lon="11.9418437"><ele>277.6666666666667</ele><time>2026-05-02T12:37:05.695Z</time></trkpt><trkpt lat="43.0594793" lon="11.9417165"><ele>276.0</ele><time>2026-05-02T12:37:06.699Z</time></trkpt><trkpt lat="43.0593233" lon="11.9415881"><ele>276.0</ele><time>2026-05-02T12:37:07.695Z</time></trkpt><trkpt lat="43.0591572" lon="11.9414633"><ele>276.0</ele><time>2026-05-02T12:37:08.705Z</time></trkpt><trkpt lat="43.0589904" lon="11.9413373"><ele>276.0</ele><time>2026-05-02T12:37:09.696Z</time></trkpt><trkpt lat="43.0588215" lon="11.9412105"><ele>276.3333333333333</ele><time>2026-05-02T12:37:10.701Z</time></trkpt><trkpt lat="43.0586494" lon="11.9410852"><ele>276.66666666666663</ele><time>2026-05-02T12:37:11.695Z</time></trkpt><trkpt lat="43.0584753" lon="11.9409593"><ele>277.0</ele><time>2026-05-02T12:37:12.703Z</time></trkpt><trkpt lat="43.0582979" lon="11.940836"><ele>274.66666666666663</ele><time>2026-05-02T12:37:13.703Z</time></trkpt><trkpt lat="43.0581196" lon="11.9407122"><ele>272.3333333333333</ele><time>2026-05-02T12:37:14.698Z</time></trkpt><trkpt lat="43.05794" lon="11.9405888"><ele>270.0</ele><time>2026-05-02T12:37:15.692Z</time></trkpt><trkpt lat="43.0577417" lon="11.9404603"><ele>270.0</ele><time>2026-05-02T12:37:16.702Z</time></trkpt><trkpt lat="43.0575184" lon="11.94032"><ele>270.0</ele><time>2026-05-02T12:37:17.708Z</time></trkpt><trkpt lat="43.0572947" lon="11.9401697"><ele>265.5</ele><time>2026-05-02T12:37:18.71Z</time></trkpt><trkpt lat="43.0570841" lon="11.9400235"><ele>261.0</ele><time>2026-05-02T12:37:19.708Z</time></trkpt><trkpt lat="43.0568737" lon="11.9398761"><ele>261.0</ele><time>2026-05-02T12:37:20.711Z</time></trkpt><trkpt lat="43.056662" lon="11.9397386"><ele>261.0</ele><time>2026-05-02T12:37:21.701Z</time></trkpt><trkpt lat="43.0564403" lon="11.9396108"><ele>261.5</ele><time>2026-05-02T12:37:22.705Z</time></trkpt><trkpt lat="43.0562064" lon="11.9395004"><ele>262.0</ele><time>2026-05-02T12:37:23.706Z</time></trkpt><trkpt lat="43.0559616" lon="11.9394122"><ele>260.5</ele><time>2026-05-02T12:37:24.703Z</time></trkpt><trkpt lat="43.0557199" lon="11.9393373"><ele>259.0</ele><time>2026-05-02T12:37:25.699Z</time></trkpt><trkpt lat="43.0554867" lon="11.9392737"><ele>257.3333333333333</ele><time>2026-05-02T12:37:26.701Z</time></trkpt><trkpt lat="43.0552713" lon="11.9392137"><ele>255.66666666666669</ele><time>2026-05-02T12:37:27.705Z</time></trkpt><trkpt lat="43.055069" lon="11.9391575"><ele>254.0</ele><time>2026-05-02T12:37:28.693Z</time></trkpt><trkpt lat="43.0548735" lon="11.9391057"><ele>253.0</ele><time>2026-05-02T12:37:29.71Z</time></trkpt><trkpt lat="43.0546927" lon="11.9390443"><ele>252.0</ele><time>2026-05-02T12:37:30.687Z</time></trkpt><trkpt lat="43.0545236" lon="11.9389688"><ele>251.0</ele><time>2026-05-02T12:37:31.71Z</time></trkpt><trkpt lat="43.054363" lon="11.9388634"><ele>251.0</ele><time>2026-05-02T12:37:32.714Z</time></trkpt><trkpt lat="43.0542115" lon="11.9387219"><ele>251.0</ele><time>2026-05-02T12:37:33.718Z</time></trkpt><trkpt lat="43.054069" lon="11.9385547"><ele>251.0</ele><time>2026-05-02T12:37:34.713Z</time></trkpt><trkpt lat="43.0539258" lon="11.9383738"><ele>250.0</ele><time>2026-05-02T12:37:35.72Z</time></trkpt><trkpt lat="43.053774" lon="11.9381884"><ele>249.0</ele><time>2026-05-02T12:37:36.708Z</time></trkpt><trkpt lat="43.0536209" lon="11.9380042"><ele>248.0</ele><time>2026-05-02T12:37:37.703Z</time></trkpt><trkpt lat="43.0534718" lon="11.9378248"><ele>248.0</ele><time>2026-05-02T12:37:38.724Z</time></trkpt><trkpt lat="43.0533272" lon="11.9376482"><ele>248.0</ele><time>2026-05-02T12:37:39.704Z</time></trkpt><trkpt lat="43.0531841" lon="11.9374782"><ele>248.0</ele><time>2026-05-02T12:37:40.706Z</time></trkpt><trkpt lat="43.0530424" lon="11.9373122"><ele>249.0</ele><time>2026-05-02T12:37:41.702Z</time></trkpt><trkpt lat="43.0528971" lon="11.9371439"><ele>250.0</ele><time>2026-05-02T12:37:42.707Z</time></trkpt><trkpt lat="43.0527465" lon="11.936968"><ele>251.0</ele><time>2026-05-02T12:37:43.7Z</time></trkpt><trkpt lat="43.0525889" lon="11.9367853"><ele>250.0</ele><time>2026-05-02T12:37:44.715Z</time></trkpt><trkpt lat="43.0524242" lon="11.9365884"><ele>249.0</ele><time>2026-05-02T12:37:45.719Z</time></trkpt><trkpt lat="43.0522575" lon="11.9363796"><ele>248.0</ele><time>2026-05-02T12:37:46.72Z</time></trkpt><trkpt lat="43.0520838" lon="11.9361693"><ele>248.0</ele><time>2026-05-02T12:37:47.713Z</time></trkpt><trkpt lat="43.0519077" lon="11.9359608"><ele>248.0</ele><time>2026-05-02T12:37:48.698Z</time></trkpt><trkpt lat="43.0517311" lon="11.9357522"><ele>249.0</ele><time>2026-05-02T12:37:49.712Z</time></trkpt><trkpt lat="43.0515593" lon="11.9355436"><ele>250.0</ele><time>2026-05-02T12:37:50.704Z</time></trkpt><trkpt lat="43.0513904" lon="11.9353411"><ele>250.0</ele><time>2026-05-02T12:37:51.703Z</time></trkpt><trkpt lat="43.0512222" lon="11.9351366"><ele>250.0</ele><time>2026-05-02T12:37:52.707Z</time></trkpt><trkpt lat="43.0510561" lon="11.9349408"><ele>250.0</ele><time>2026-05-02T12:37:53.705Z</time></trkpt><trkpt lat="43.0508937" lon="11.9347464"><ele>249.66666666666666</ele><time>2026-05-02T12:37:54.704Z</time></trkpt><trkpt lat="43.0507354" lon="11.9345605"><ele>249.33333333333331</ele><time>2026-05-02T12:37:55.694Z</time></trkpt><trkpt lat="43.0505814" lon="11.9343684"><ele>249.0</ele><time>2026-05-02T12:37:56.716Z</time></trkpt><trkpt lat="43.0504351" lon="11.9341699"><ele>248.66666666666669</ele><time>2026-05-02T12:37:57.704Z</time></trkpt><trkpt lat="43.0503038" lon="11.9339562"><ele>248.33333333333334</ele><time>2026-05-02T12:37:58.702Z</time></trkpt><trkpt lat="43.0501859" lon="11.9337421"><ele>248.0</ele><time>2026-05-02T12:37:59.697Z</time></trkpt><trkpt lat="43.0500782" lon="11.9335201"><ele>248.0</ele><time>2026-05-02T12:38:00.712Z</time></trkpt><trkpt lat="43.0499814" lon="11.9332882"><ele>248.0</ele><time>2026-05-02T12:38:01.703Z</time></trkpt><trkpt lat="43.0498957" lon="11.9330422"><ele>248.0</ele><time>2026-05-02T12:38:02.702Z</time></trkpt><trkpt lat="43.0498179" lon="11.9327903"><ele>248.0</ele><time>2026-05-02T12:38:03.692Z</time></trkpt><trkpt lat="43.0497421" lon="11.932529"><ele>248.0</ele><time>2026-05-02T12:38:04.706Z</time></trkpt><trkpt lat="43.0496631" lon="11.9322531"><ele>248.0</ele><time>2026-05-02T12:38:05.707Z</time></trkpt><trkpt lat="43.0495828" lon="11.9319569"><ele>248.5</ele><time>2026-05-02T12:38:06.702Z</time></trkpt><trkpt lat="43.0495004" lon="11.9316661"><ele>249.0</ele><time>2026-05-02T12:38:07.712Z</time></trkpt><trkpt lat="43.0494182" lon="11.9313751"><ele>249.0</ele><time>2026-05-02T12:38:08.704Z</time></trkpt><trkpt lat="43.049336" lon="11.9310851"><ele>249.0</ele><time>2026-05-02T12:38:09.699Z</time></trkpt><trkpt lat="43.0492528" lon="11.9308036"><ele>249.0</ele><time>2026-05-02T12:38:10.705Z</time></trkpt><trkpt lat="43.0491736" lon="11.9305221"><ele>249.0</ele><time>2026-05-02T12:38:11.709Z</time></trkpt><trkpt lat="43.049096" lon="11.9302423"><ele>249.0</ele><time>2026-05-02T12:38:12.711Z</time></trkpt><trkpt lat="43.0490158" lon="11.929968"><ele>249.0</ele><time>2026-05-02T12:38:13.705Z</time></trkpt><trkpt lat="43.0489346" lon="11.929701"><ele>249.33333333333331</ele><time>2026-05-02T12:38:14.706Z</time></trkpt><trkpt lat="43.0488541" lon="11.9294302"><ele>249.66666666666666</ele><time>2026-05-02T12:38:15.72Z</time></trkpt><trkpt lat="43.0487683" lon="11.9291592"><ele>250.0</ele><time>2026-05-02T12:38:16.698Z</time></trkpt><trkpt lat="43.0486857" lon="11.9288853"><ele>250.0</ele><time>2026-05-02T12:38:17.706Z</time></trkpt><trkpt lat="43.0486087" lon="11.928609"><ele>250.0</ele><time>2026-05-02T12:38:18.699Z</time></trkpt><trkpt lat="43.0485327" lon="11.9283272"><ele>250.0</ele><time>2026-05-02T12:38:19.71Z</time></trkpt><trkpt lat="43.0484551" lon="11.9280559"><ele>249.66666666666666</ele><time>2026-05-02T12:38:20.706Z</time></trkpt><trkpt lat="43.0483771" lon="11.9277838"><ele>249.33333333333331</ele><time>2026-05-02T12:38:21.706Z</time></trkpt><trkpt lat="43.0482997" lon="11.9275217"><ele>249.0</ele><time>2026-05-02T12:38:22.704Z</time></trkpt><trkpt lat="43.0482259" lon="11.927263"><ele>249.0</ele><time>2026-05-02T12:38:23.698Z</time></trkpt><trkpt lat="43.0481508" lon="11.9270129"><ele>249.0</ele><time>2026-05-02T12:38:24.704Z</time></trkpt><trkpt lat="43.0480866" lon="11.9267765"><ele>249.0</ele><time>2026-05-02T12:38:25.699Z</time></trkpt><trkpt lat="43.048024" lon="11.9265622"><ele>249.25</ele><time>2026-05-02T12:38:26.7Z</time></trkpt><trkpt lat="43.0479662" lon="11.9263716"><ele>249.5</ele><time>2026-05-02T12:38:27.709Z</time></trkpt><trkpt lat="43.0479151" lon="11.926199"><ele>249.75</ele><time>2026-05-02T12:38:28.697Z</time></trkpt><trkpt lat="43.0478682" lon="11.9260327"><ele>250.0</ele><time>2026-05-02T12:38:29.7Z</time></trkpt><trkpt lat="43.0478188" lon="11.9258779"><ele>250.4</ele><time>2026-05-02T12:38:30.703Z</time></trkpt><trkpt lat="43.0477777" lon="11.9257282"><ele>250.8</ele><time>2026-05-02T12:38:31.71Z</time></trkpt><trkpt lat="43.0477389" lon="11.9255949"><ele>251.2</ele><time>2026-05-02T12:38:32.708Z</time></trkpt><trkpt lat="43.0477083" lon="11.9254794"><ele>251.6</ele><time>2026-05-02T12:38:33.701Z</time></trkpt><trkpt lat="43.0476822" lon="11.925391"><ele>252.0</ele><time>2026-05-02T12:38:34.699Z</time></trkpt><trkpt lat="43.0476703" lon="11.9252913"><ele>252.0</ele><time>2026-05-02T12:38:49.702Z</time></trkpt><trkpt lat="43.0476387" lon="11.9251905"><ele>252.0</ele><time>2026-05-02T12:38:51.7Z</time></trkpt><trkpt lat="43.0476008" lon="11.9250821"><ele>252.0</ele><time>2026-05-02T12:38:53.709Z</time></trkpt><trkpt lat="43.0475562" lon="11.9249405"><ele>252.0</ele><time>2026-05-02T12:38:55.705Z</time></trkpt><trkpt lat="43.0475283" lon="11.9248514"><ele>252.0</ele><time>2026-05-02T12:38:56.707Z</time></trkpt><trkpt lat="43.047499" lon="11.9247639"><ele>252.0</ele><time>2026-05-02T12:38:57.713Z</time></trkpt><trkpt lat="43.0474697" lon="11.9246495"><ele>251.5</ele><time>2026-05-02T12:38:58.703Z</time></trkpt><trkpt lat="43.0474325" lon="11.9245082"><ele>251.0</ele><time>2026-05-02T12:38:59.704Z</time></trkpt><trkpt lat="43.0473862" lon="11.9243503"><ele>250.5</ele><time>2026-05-02T12:39:00.711Z</time></trkpt><trkpt lat="43.0473393" lon="11.9241738"><ele>250.0</ele><time>2026-05-02T12:39:01.709Z</time></trkpt><trkpt lat="43.0472858" lon="11.9239866"><ele>250.0</ele><time>2026-05-02T12:39:02.712Z</time></trkpt><trkpt lat="43.0472301" lon="11.9237888"><ele>250.0</ele><time>2026-05-02T12:39:03.703Z</time></trkpt><trkpt lat="43.0471648" lon="11.9235806"><ele>250.0</ele><time>2026-05-02T12:39:04.72Z</time></trkpt><trkpt lat="43.0470996" lon="11.9233609"><ele>250.66666666666666</ele><time>2026-05-02T12:39:05.713Z</time></trkpt><trkpt lat="43.0470332" lon="11.9231338"><ele>251.33333333333331</ele><time>2026-05-02T12:39:06.702Z</time></trkpt><trkpt lat="43.0469666" lon="11.9229081"><ele>252.0</ele><time>2026-05-02T12:39:07.707Z</time></trkpt><trkpt lat="43.046898" lon="11.9226838"><ele>252.66666666666669</ele><time>2026-05-02T12:39:08.708Z</time></trkpt><trkpt lat="43.0468308" lon="11.9224599"><ele>253.33333333333334</ele><time>2026-05-02T12:39:09.707Z</time></trkpt><trkpt lat="43.0467633" lon="11.9222371"><ele>254.0</ele><time>2026-05-02T12:39:10.699Z</time></trkpt><trkpt lat="43.0467013" lon="11.9220132"><ele>254.0</ele><time>2026-05-02T12:39:11.697Z</time></trkpt><trkpt lat="43.0466387" lon="11.9217916"><ele>254.0</ele><time>2026-05-02T12:39:12.691Z</time></trkpt><trkpt lat="43.0465763" lon="11.9215702"><ele>254.0</ele><time>2026-05-02T12:39:13.705Z</time></trkpt><trkpt lat="43.046515" lon="11.9213514"><ele>253.33333333333334</ele><time>2026-05-02T12:39:14.703Z</time></trkpt><trkpt lat="43.0464488" lon="11.9211276"><ele>252.66666666666669</ele><time>2026-05-02T12:39:15.71Z</time></trkpt><trkpt lat="43.0463832" lon="11.9209026"><ele>252.0</ele><time>2026-05-02T12:39:16.701Z</time></trkpt><trkpt lat="43.0463179" lon="11.9206744"><ele>252.0</ele><time>2026-05-02T12:39:17.707Z</time></trkpt><trkpt lat="43.0462546" lon="11.920445"><ele>252.0</ele><time>2026-05-02T12:39:18.712Z</time></trkpt><trkpt lat="43.0461909" lon="11.920219"><ele>252.0</ele><time>2026-05-02T12:39:19.701Z</time></trkpt><trkpt lat="43.046129" lon="11.9199969"><ele>252.33333333333331</ele><time>2026-05-02T12:39:20.706Z</time></trkpt><trkpt lat="43.046065" lon="11.9197769"><ele>252.66666666666666</ele><time>2026-05-02T12:39:21.7Z</time></trkpt><trkpt lat="43.0459964" lon="11.9195543"><ele>253.0</ele><time>2026-05-02T12:39:22.709Z</time></trkpt><trkpt lat="43.0459219" lon="11.9193294"><ele>252.0</ele><time>2026-05-02T12:39:23.701Z</time></trkpt><trkpt lat="43.0458492" lon="11.9190999"><ele>251.0</ele><time>2026-05-02T12:39:24.704Z</time></trkpt><trkpt lat="43.0457791" lon="11.9188683"><ele>250.0</ele><time>2026-05-02T12:39:25.706Z</time></trkpt><trkpt lat="43.0457125" lon="11.9186318"><ele>250.33333333333331</ele><time>2026-05-02T12:39:26.701Z</time></trkpt><trkpt lat="43.0456441" lon="11.9183872"><ele>250.66666666666669</ele><time>2026-05-02T12:39:27.702Z</time></trkpt><trkpt lat="43.0455733" lon="11.9181437"><ele>251.0</ele><time>2026-05-02T12:39:28.697Z</time></trkpt><trkpt lat="43.0455001" lon="11.9178977"><ele>251.0</ele><time>2026-05-02T12:39:29.703Z</time></trkpt><trkpt lat="43.0454273" lon="11.9176466"><ele>251.0</ele><time>2026-05-02T12:39:30.711Z</time></trkpt><trkpt lat="43.0453555" lon="11.9173907"><ele>251.0</ele><time>2026-05-02T12:39:31.702Z</time></trkpt><trkpt lat="43.0452823" lon="11.9171284"><ele>250.66666666666669</ele><time>2026-05-02T12:39:32.711Z</time></trkpt><trkpt lat="43.0452091" lon="11.9168671"><ele>250.33333333333331</ele><time>2026-05-02T12:39:33.704Z</time></trkpt><trkpt lat="43.0451336" lon="11.9166034"><ele>250.0</ele><time>2026-05-02T12:39:34.706Z</time></trkpt><trkpt lat="43.0450568" lon="11.9163367"><ele>250.0</ele><time>2026-05-02T12:39:35.72Z</time></trkpt><trkpt lat="43.0449816" lon="11.9160684"><ele>250.0</ele><time>2026-05-02T12:39:36.716Z</time></trkpt><trkpt lat="43.0449038" lon="11.9158063"><ele>250.0</ele><time>2026-05-02T12:39:37.705Z</time></trkpt><trkpt lat="43.0448137" lon="11.9155561"><ele>250.66666666666666</ele><time>2026-05-02T12:39:38.71Z</time></trkpt><trkpt lat="43.0446973" lon="11.9153297"><ele>251.33333333333331</ele><time>2026-05-02T12:39:39.71Z</time></trkpt><trkpt lat="43.0445563" lon="11.9151237"><ele>252.0</ele><time>2026-05-02T12:39:40.705Z</time></trkpt><trkpt lat="43.0443992" lon="11.9149315"><ele>253.0</ele><time>2026-05-02T12:39:41.713Z</time></trkpt><trkpt lat="43.0442504" lon="11.9147262"><ele>254.0</ele><time>2026-05-02T12:39:42.711Z</time></trkpt><trkpt lat="43.0441084" lon="11.9145185"><ele>255.0</ele><time>2026-05-02T12:39:43.699Z</time></trkpt><trkpt lat="43.0439774" lon="11.9143205"><ele>260.6666666666667</ele><time>2026-05-02T12:39:44.705Z</time></trkpt><trkpt lat="43.0438537" lon="11.9141391"><ele>266.33333333333337</ele><time>2026-05-02T12:39:45.706Z</time></trkpt><trkpt lat="43.0437205" lon="11.9139867"><ele>272.0</ele><time>2026-05-02T12:39:46.714Z</time></trkpt><trkpt lat="43.0435683" lon="11.9138694"><ele>272.0</ele><time>2026-05-02T12:39:47.695Z</time></trkpt><trkpt lat="43.0433995" lon="11.9137764"><ele>272.0</ele><time>2026-05-02T12:39:48.708Z</time></trkpt><trkpt lat="43.0432312" lon="11.9136871"><ele>272.0</ele><time>2026-05-02T12:39:49.698Z</time></trkpt><trkpt lat="43.0430686" lon="11.9135887"><ele>272.6666666666667</ele><time>2026-05-02T12:39:50.71Z</time></trkpt><trkpt lat="43.0429097" lon="11.9134849"><ele>273.3333333333333</ele><time>2026-05-02T12:39:51.699Z</time></trkpt><trkpt lat="43.042756" lon="11.913381"><ele>274.0</ele><time>2026-05-02T12:39:52.704Z</time></trkpt><trkpt lat="43.0426006" lon="11.9132795"><ele>275.66666666666663</ele><time>2026-05-02T12:39:53.713Z</time></trkpt><trkpt lat="43.042447" lon="11.9131776"><ele>277.3333333333333</ele><time>2026-05-02T12:39:54.704Z</time></trkpt><trkpt lat="43.0422947" lon="11.9130589"><ele>279.0</ele><time>2026-05-02T12:39:55.709Z</time></trkpt><trkpt lat="43.0421414" lon="11.912924"><ele>279.0</ele><time>2026-05-02T12:39:56.695Z</time></trkpt><trkpt lat="43.0419917" lon="11.9127809"><ele>279.0</ele><time>2026-05-02T12:39:57.706Z</time></trkpt><trkpt lat="43.0418387" lon="11.9126471"><ele>279.0</ele><time>2026-05-02T12:39:58.691Z</time></trkpt><trkpt lat="43.0416844" lon="11.9125188"><ele>282.0</ele><time>2026-05-02T12:39:59.704Z</time></trkpt><trkpt lat="43.0415332" lon="11.9123895"><ele>285.0</ele><time>2026-05-02T12:40:00.696Z</time></trkpt><trkpt lat="43.0413896" lon="11.9122671"><ele>288.0</ele><time>2026-05-02T12:40:01.701Z</time></trkpt><trkpt lat="43.0412471" lon="11.9121489"><ele>288.0</ele><time>2026-05-02T12:40:02.703Z</time></trkpt><trkpt lat="43.0411086" lon="11.9120233"><ele>288.0</ele><time>2026-05-02T12:40:03.705Z</time></trkpt><trkpt lat="43.0409731" lon="11.9118942"><ele>288.0</ele><time>2026-05-02T12:40:04.705Z</time></trkpt><trkpt lat="43.0408341" lon="11.9117591"><ele>287.0</ele><time>2026-05-02T12:40:05.698Z</time></trkpt><trkpt lat="43.0406915" lon="11.9116209"><ele>286.0</ele><time>2026-05-02T12:40:06.7Z</time></trkpt><trkpt lat="43.0405442" lon="11.9114798"><ele>285.0</ele><time>2026-05-02T12:40:07.7Z</time></trkpt><trkpt lat="43.040391" lon="11.9113386"><ele>285.0</ele><time>2026-05-02T12:40:08.704Z</time></trkpt><trkpt lat="43.0402347" lon="11.9111919"><ele>285.0</ele><time>2026-05-02T12:40:09.713Z</time></trkpt><trkpt lat="43.0400769" lon="11.911041"><ele>285.0</ele><time>2026-05-02T12:40:10.7Z</time></trkpt><trkpt lat="43.0399147" lon="11.9108839"><ele>287.0</ele><time>2026-05-02T12:40:11.708Z</time></trkpt><trkpt lat="43.0397461" lon="11.9107282"><ele>289.0</ele><time>2026-05-02T12:40:12.707Z</time></trkpt><trkpt lat="43.0395718" lon="11.9105757"><ele>291.0</ele><time>2026-05-02T12:40:13.7Z</time></trkpt><trkpt lat="43.0393997" lon="11.9104327"><ele>291.0</ele><time>2026-05-02T12:40:14.703Z</time></trkpt><trkpt lat="43.0392367" lon="11.9102939"><ele>291.0</ele><time>2026-05-02T12:40:15.707Z</time></trkpt><trkpt lat="43.0390876" lon="11.9101451"><ele>291.0</ele><time>2026-05-02T12:40:16.7Z</time></trkpt><trkpt lat="43.0389484" lon="11.9099751"><ele>291.6666666666667</ele><time>2026-05-02T12:40:17.699Z</time></trkpt><trkpt lat="43.0388206" lon="11.9097917"><ele>292.33333333333337</ele><time>2026-05-02T12:40:18.707Z</time></trkpt><trkpt lat="43.0386996" lon="11.9096084"><ele>293.0</ele><time>2026-05-02T12:40:19.694Z</time></trkpt><trkpt lat="43.0385735" lon="11.9094363"><ele>293.0</ele><time>2026-05-02T12:40:20.7Z</time></trkpt><trkpt lat="43.0384398" lon="11.9092809"><ele>293.0</ele><time>2026-05-02T12:40:21.701Z</time></trkpt><trkpt lat="43.0382988" lon="11.9091247"><ele>293.0</ele><time>2026-05-02T12:40:22.707Z</time></trkpt><trkpt lat="43.0381479" lon="11.9089688"><ele>290.6666666666667</ele><time>2026-05-02T12:40:23.706Z</time></trkpt><trkpt lat="43.0379927" lon="11.9088205"><ele>288.3333333333333</ele><time>2026-05-02T12:40:24.709Z</time></trkpt><trkpt lat="43.0378268" lon="11.9086889"><ele>286.0</ele><time>2026-05-02T12:40:25.702Z</time></trkpt><trkpt lat="43.0376471" lon="11.9085935"><ele>285.0</ele><time>2026-05-02T12:40:26.702Z</time></trkpt><trkpt lat="43.0374547" lon="11.9085354"><ele>284.0</ele><time>2026-05-02T12:40:27.708Z</time></trkpt><trkpt lat="43.0372539" lon="11.9085147"><ele>283.0</ele><time>2026-05-02T12:40:28.711Z</time></trkpt><trkpt lat="43.0370594" lon="11.9084969"><ele>283.0</ele><time>2026-05-02T12:40:29.7Z</time></trkpt><trkpt lat="43.0368696" lon="11.9084851"><ele>283.0</ele><time>2026-05-02T12:40:30.704Z</time></trkpt><trkpt lat="43.0366856" lon="11.9084774"><ele>283.0</ele><time>2026-05-02T12:40:31.713Z</time></trkpt><trkpt lat="43.0365077" lon="11.9084726"><ele>283.66666666666663</ele><time>2026-05-02T12:40:32.701Z</time></trkpt><trkpt lat="43.0363327" lon="11.9084643"><ele>284.3333333333333</ele><time>2026-05-02T12:40:33.702Z</time></trkpt><trkpt lat="43.0361555" lon="11.9084524"><ele>285.0</ele><time>2026-05-02T12:40:34.698Z</time></trkpt><trkpt lat="43.0359851" lon="11.9084394"><ele>285.0</ele><time>2026-05-02T12:40:35.707Z</time></trkpt><trkpt lat="43.0358154" lon="11.9084229"><ele>285.0</ele><time>2026-05-02T12:40:36.698Z</time></trkpt><trkpt lat="43.0356431" lon="11.9083982"><ele>285.0</ele><time>2026-05-02T12:40:37.711Z</time></trkpt><trkpt lat="43.0354733" lon="11.9083749"><ele>286.0</ele><time>2026-05-02T12:40:38.696Z</time></trkpt><trkpt lat="43.0353179" lon="11.9083269"><ele>287.0</ele><time>2026-05-02T12:40:39.702Z</time></trkpt><trkpt lat="43.0351755" lon="11.9082601"><ele>288.0</ele><time>2026-05-02T12:40:40.703Z</time></trkpt><trkpt lat="43.0350446" lon="11.9081676"><ele>283.5</ele><time>2026-05-02T12:40:41.696Z</time></trkpt><trkpt lat="43.0347874" lon="11.9079381"><ele>279.0</ele><time>2026-05-02T12:40:43.692Z</time></trkpt><trkpt lat="43.0346546" lon="11.9078147"><ele>279.0</ele><time>2026-05-02T12:40:44.697Z</time></trkpt><trkpt lat="43.0345169" lon="11.9076839"><ele>279.0</ele><time>2026-05-02T12:40:45.714Z</time></trkpt><trkpt lat="43.0343818" lon="11.9075492"><ele>279.0</ele><time>2026-05-02T12:40:46.696Z</time></trkpt><trkpt lat="43.0342614" lon="11.9073935"><ele>279.0</ele><time>2026-05-02T12:40:47.709Z</time></trkpt><trkpt lat="43.0341707" lon="11.9072224"><ele>279.0</ele><time>2026-05-02T12:40:48.707Z</time></trkpt><trkpt lat="43.0340902" lon="11.9070556"><ele>279.0</ele><time>2026-05-02T12:40:49.715Z</time></trkpt><trkpt lat="43.0340093" lon="11.9068892"><ele>279.0</ele><time>2026-05-02T12:40:50.697Z</time></trkpt><trkpt lat="43.0339331" lon="11.906724"><ele>277.25</ele><time>2026-05-02T12:40:51.7Z</time></trkpt><trkpt lat="43.0338679" lon="11.9065654"><ele>275.5</ele><time>2026-05-02T12:40:52.708Z</time></trkpt><trkpt lat="43.0338173" lon="11.9063974"><ele>273.75</ele><time>2026-05-02T12:40:53.702Z</time></trkpt><trkpt lat="43.0337899" lon="11.9062099"><ele>272.0</ele><time>2026-05-02T12:40:54.705Z</time></trkpt><trkpt lat="43.0337892" lon="11.9060143"><ele>275.6666666666667</ele><time>2026-05-02T12:40:55.701Z</time></trkpt><trkpt lat="43.0338073" lon="11.9058145"><ele>279.3333333333333</ele><time>2026-05-02T12:40:56.7Z</time></trkpt><trkpt lat="43.0338413" lon="11.9056045"><ele>283.0</ele><time>2026-05-02T12:40:57.699Z</time></trkpt><trkpt lat="43.0338844" lon="11.9053863"><ele>283.0</ele><time>2026-05-02T12:40:58.694Z</time></trkpt><trkpt lat="43.0339334" lon="11.9051638"><ele>283.0</ele><time>2026-05-02T12:40:59.699Z</time></trkpt><trkpt lat="43.0339899" lon="11.9049349"><ele>283.0</ele><time>2026-05-02T12:41:00.701Z</time></trkpt><trkpt lat="43.0340379" lon="11.9047128"><ele>283.0</ele><time>2026-05-02T12:41:01.699Z</time></trkpt><trkpt lat="43.0340734" lon="11.9045046"><ele>283.0</ele><time>2026-05-02T12:41:02.704Z</time></trkpt><trkpt lat="43.0340892" lon="11.9043051"><ele>283.0</ele><time>2026-05-02T12:41:03.698Z</time></trkpt><trkpt lat="43.034083" lon="11.9041104"><ele>283.0</ele><time>2026-05-02T12:41:04.702Z</time></trkpt><trkpt lat="43.0340494" lon="11.9039163"><ele>283.0</ele><time>2026-05-02T12:41:05.698Z</time></trkpt><trkpt lat="43.0340029" lon="11.9037053"><ele>283.0</ele><time>2026-05-02T12:41:06.703Z</time></trkpt><trkpt lat="43.0339576" lon="11.9034823"><ele>283.0</ele><time>2026-05-02T12:41:07.704Z</time></trkpt><trkpt lat="43.0339092" lon="11.9032475"><ele>284.3333333333333</ele><time>2026-05-02T12:41:08.713Z</time></trkpt><trkpt lat="43.0338579" lon="11.9030058"><ele>285.6666666666667</ele><time>2026-05-02T12:41:09.699Z</time></trkpt><trkpt lat="43.0338072" lon="11.9027563"><ele>287.0</ele><time>2026-05-02T12:41:10.71Z</time></trkpt><trkpt lat="43.0337453" lon="11.9025098"><ele>289.33333333333337</ele><time>2026-05-02T12:41:11.705Z</time></trkpt><trkpt lat="43.0336727" lon="11.9022831"><ele>291.6666666666667</ele><time>2026-05-02T12:41:12.702Z</time></trkpt><trkpt lat="43.0335989" lon="11.9020774"><ele>294.0</ele><time>2026-05-02T12:41:13.708Z</time></trkpt><trkpt lat="43.0335314" lon="11.9018889"><ele>295.75</ele><time>2026-05-02T12:41:14.707Z</time></trkpt><trkpt lat="43.03348" lon="11.9017074"><ele>297.5</ele><time>2026-05-02T12:41:15.693Z</time></trkpt><trkpt lat="43.0334595" lon="11.9015107"><ele>299.25</ele><time>2026-05-02T12:41:16.695Z</time></trkpt><trkpt lat="43.0334745" lon="11.9013054"><ele>301.0</ele><time>2026-05-02T12:41:17.698Z</time></trkpt><trkpt lat="43.0335142" lon="11.9010887"><ele>301.0</ele><time>2026-05-02T12:41:18.698Z</time></trkpt><trkpt lat="43.0335516" lon="11.9008489"><ele>301.0</ele><time>2026-05-02T12:41:19.696Z</time></trkpt><trkpt lat="43.0335791" lon="11.9005955"><ele>301.0</ele><time>2026-05-02T12:41:20.71Z</time></trkpt><trkpt lat="43.0335992" lon="11.9003395"><ele>301.0</ele><time>2026-05-02T12:41:21.709Z</time></trkpt><trkpt lat="43.0336038" lon="11.9000947"><ele>301.0</ele><time>2026-05-02T12:41:22.697Z</time></trkpt><trkpt lat="43.0335834" lon="11.8998663"><ele>301.0</ele><time>2026-05-02T12:41:23.7Z</time></trkpt><trkpt lat="43.0335341" lon="11.8996563"><ele>301.0</ele><time>2026-05-02T12:41:24.702Z</time></trkpt><trkpt lat="43.0334587" lon="11.8994638"><ele>301.0</ele><time>2026-05-02T12:41:25.697Z</time></trkpt><trkpt lat="43.0333422" lon="11.8993131"><ele>301.0</ele><time>2026-05-02T12:41:26.704Z</time></trkpt><trkpt lat="43.0332067" lon="11.8991889"><ele>301.3333333333333</ele><time>2026-05-02T12:41:27.701Z</time></trkpt><trkpt lat="43.0330569" lon="11.8990972"><ele>301.6666666666667</ele><time>2026-05-02T12:41:28.699Z</time></trkpt><trkpt lat="43.0329" lon="11.8990135"><ele>302.0</ele><time>2026-05-02T12:41:29.696Z</time></trkpt><trkpt lat="43.0327367" lon="11.8989267"><ele>302.0</ele><time>2026-05-02T12:41:30.693Z</time></trkpt><trkpt lat="43.0325755" lon="11.8988336"><ele>302.0</ele><time>2026-05-02T12:41:31.699Z</time></trkpt><trkpt lat="43.0324056" lon="11.8987392"><ele>302.0</ele><time>2026-05-02T12:41:32.695Z</time></trkpt><trkpt lat="43.0322362" lon="11.8986429"><ele>302.0</ele><time>2026-05-02T12:41:33.713Z</time></trkpt><trkpt lat="43.0320678" lon="11.8985639"><ele>302.0</ele><time>2026-05-02T12:41:34.699Z</time></trkpt><trkpt lat="43.0319019" lon="11.8984714"><ele>302.0</ele><time>2026-05-02T12:41:35.709Z</time></trkpt><trkpt lat="43.0317428" lon="11.8983665"><ele>303.0</ele><time>2026-05-02T12:41:36.698Z</time></trkpt><trkpt lat="43.0315872" lon="11.8982543"><ele>304.0</ele><time>2026-05-02T12:41:37.708Z</time></trkpt><trkpt lat="43.0314357" lon="11.8981315"><ele>305.0</ele><time>2026-05-02T12:41:38.701Z</time></trkpt><trkpt lat="43.0312956" lon="11.8980009"><ele>305.0</ele><time>2026-05-02T12:41:39.705Z</time></trkpt><trkpt lat="43.0311611" lon="11.8978655"><ele>305.0</ele><time>2026-05-02T12:41:40.702Z</time></trkpt><trkpt lat="43.0310218" lon="11.8977464"><ele>305.0</ele><time>2026-05-02T12:41:41.707Z</time></trkpt><trkpt lat="43.0308718" lon="11.8976532"><ele>304.0</ele><time>2026-05-02T12:41:42.706Z</time></trkpt><trkpt lat="43.0307082" lon="11.8975967"><ele>303.0</ele><time>2026-05-02T12:41:43.707Z</time></trkpt><trkpt lat="43.0305365" lon="11.8975674"><ele>302.0</ele><time>2026-05-02T12:41:44.693Z</time></trkpt><trkpt lat="43.0303545" lon="11.8975579"><ele>302.0</ele><time>2026-05-02T12:41:45.699Z</time></trkpt><trkpt lat="43.0301686" lon="11.8975433"><ele>302.0</ele><time>2026-05-02T12:41:46.704Z</time></trkpt><trkpt lat="43.0299788" lon="11.897514"><ele>302.0</ele><time>2026-05-02T12:41:47.699Z</time></trkpt><trkpt lat="43.0297858" lon="11.8974644"><ele>299.6666666666667</ele><time>2026-05-02T12:41:48.703Z</time></trkpt><trkpt lat="43.029592" lon="11.897399"><ele>297.3333333333333</ele><time>2026-05-02T12:41:49.698Z</time></trkpt><trkpt lat="43.0294107" lon="11.8973218"><ele>295.0</ele><time>2026-05-02T12:41:50.709Z</time></trkpt><trkpt lat="43.0292286" lon="11.897246"><ele>294.3333333333333</ele><time>2026-05-02T12:41:51.71Z</time></trkpt><trkpt lat="43.0290568" lon="11.8971477"><ele>293.6666666666667</ele><time>2026-05-02T12:41:52.705Z</time></trkpt><trkpt lat="43.0288961" lon="11.8970417"><ele>293.0</ele><time>2026-05-02T12:41:53.705Z</time></trkpt><trkpt lat="43.0287462" lon="11.8969173"><ele>293.0</ele><time>2026-05-02T12:41:54.705Z</time></trkpt><trkpt lat="43.0286094" lon="11.8967616"><ele>293.0</ele><time>2026-05-02T12:41:55.701Z</time></trkpt><trkpt lat="43.0284724" lon="11.8965953"><ele>293.0</ele><time>2026-05-02T12:41:56.706Z</time></trkpt><trkpt lat="43.0283386" lon="11.896421"><ele>293.33333333333337</ele><time>2026-05-02T12:41:57.716Z</time></trkpt><trkpt lat="43.0282088" lon="11.89624"><ele>293.6666666666667</ele><time>2026-05-02T12:41:58.698Z</time></trkpt><trkpt lat="43.0280823" lon="11.8960614"><ele>294.0</ele><time>2026-05-02T12:41:59.707Z</time></trkpt><trkpt lat="43.0279652" lon="11.895879"><ele>299.6666666666667</ele><time>2026-05-02T12:42:00.704Z</time></trkpt><trkpt lat="43.0278603" lon="11.8956873"><ele>305.33333333333337</ele><time>2026-05-02T12:42:01.705Z</time></trkpt><trkpt lat="43.0277671" lon="11.8954774"><ele>311.0</ele><time>2026-05-02T12:42:02.701Z</time></trkpt><trkpt lat="43.0276902" lon="11.8952496"><ele>316.0</ele><time>2026-05-02T12:42:03.704Z</time></trkpt><trkpt lat="43.0276215" lon="11.8950113"><ele>321.0</ele><time>2026-05-02T12:42:04.702Z</time></trkpt><trkpt lat="43.0275535" lon="11.8947818"><ele>326.0</ele><time>2026-05-02T12:42:05.701Z</time></trkpt><trkpt lat="43.0274863" lon="11.8945723"><ele>328.33333333333337</ele><time>2026-05-02T12:42:06.694Z</time></trkpt><trkpt lat="43.0274053" lon="11.8943964"><ele>330.6666666666667</ele><time>2026-05-02T12:42:07.679Z</time></trkpt><trkpt lat="43.0273053" lon="11.8942275"><ele>333.0</ele><time>2026-05-02T12:42:08.7Z</time></trkpt><trkpt lat="43.0271878" lon="11.8940735"><ele>335.0</ele><time>2026-05-02T12:42:09.702Z</time></trkpt><trkpt lat="43.0270661" lon="11.8939248"><ele>337.0</ele><time>2026-05-02T12:42:10.709Z</time></trkpt><trkpt lat="43.026944" lon="11.8937758"><ele>339.0</ele><time>2026-05-02T12:42:11.71Z</time></trkpt><trkpt lat="43.0268202" lon="11.8936325"><ele>339.0</ele><time>2026-05-02T12:42:12.697Z</time></trkpt><trkpt lat="43.0266875" lon="11.8934892"><ele>339.0</ele><time>2026-05-02T12:42:13.705Z</time></trkpt><trkpt lat="43.0265459" lon="11.8933397"><ele>339.0</ele><time>2026-05-02T12:42:14.702Z</time></trkpt><trkpt lat="43.0264028" lon="11.8931862"><ele>339.0</ele><time>2026-05-02T12:42:15.705Z</time></trkpt><trkpt lat="43.0262544" lon="11.8930314"><ele>339.0</ele><time>2026-05-02T12:42:16.7Z</time></trkpt><trkpt lat="43.0261039" lon="11.8928911"><ele>339.0</ele><time>2026-05-02T12:42:17.709Z</time></trkpt><trkpt lat="43.0259587" lon="11.8927716"><ele>339.0</ele><time>2026-05-02T12:42:18.699Z</time></trkpt><trkpt lat="43.025828" lon="11.8926712"><ele>339.0</ele><time>2026-05-02T12:42:19.713Z</time></trkpt><trkpt lat="43.0257092" lon="11.8925861"><ele>339.0</ele><time>2026-05-02T12:42:20.702Z</time></trkpt><trkpt lat="43.0255948" lon="11.8925107"><ele>339.0</ele><time>2026-05-02T12:42:21.709Z</time></trkpt><trkpt lat="43.0254724" lon="11.8924535"><ele>340.6666666666667</ele><time>2026-05-02T12:42:22.709Z</time></trkpt><trkpt lat="43.0253316" lon="11.89242"><ele>342.33333333333337</ele><time>2026-05-02T12:42:23.694Z</time></trkpt><trkpt lat="43.0251804" lon="11.8924048"><ele>344.0</ele><time>2026-05-02T12:42:24.702Z</time></trkpt><trkpt lat="43.0250256" lon="11.8923935"><ele>346.6666666666667</ele><time>2026-05-02T12:42:25.69Z</time></trkpt><trkpt lat="43.0248646" lon="11.8923798"><ele>349.3333333333333</ele><time>2026-05-02T12:42:26.701Z</time></trkpt><trkpt lat="43.0247085" lon="11.8923634"><ele>352.0</ele><time>2026-05-02T12:42:27.708Z</time></trkpt><trkpt lat="43.0245598" lon="11.8923306"><ele>352.0</ele><time>2026-05-02T12:42:28.698Z</time></trkpt><trkpt lat="43.0244184" lon="11.8922718"><ele>352.0</ele><time>2026-05-02T12:42:29.699Z</time></trkpt><trkpt lat="43.0242798" lon="11.8921985"><ele>352.0</ele><time>2026-05-02T12:42:30.705Z</time></trkpt><trkpt lat="43.0241423" lon="11.8921231"><ele>352.0</ele><time>2026-05-02T12:42:31.699Z</time></trkpt><trkpt lat="43.0240052" lon="11.8920509"><ele>352.20000000000005</ele><time>2026-05-02T12:42:32.694Z</time></trkpt><trkpt lat="43.0238802" lon="11.8919779"><ele>352.4</ele><time>2026-05-02T12:42:33.7Z</time></trkpt><trkpt lat="43.0237719" lon="11.8919255"><ele>352.6</ele><time>2026-05-02T12:42:34.702Z</time></trkpt><trkpt lat="43.0236863" lon="11.8918879"><ele>352.79999999999995</ele><time>2026-05-02T12:42:35.697Z</time></trkpt><trkpt lat="43.0235846" lon="11.8918375"><ele>353.0</ele><time>2026-05-02T12:42:37.711Z</time></trkpt><trkpt lat="43.0235703" lon="11.8917353"><ele>353.0</ele><time>2026-05-02T12:42:39.707Z</time></trkpt><trkpt lat="43.0236409" lon="11.8915697"><ele>353.0</ele><time>2026-05-02T12:42:41.708Z</time></trkpt><trkpt lat="43.0236927" lon="11.891465"><ele>353.0</ele><time>2026-05-02T12:42:42.696Z</time></trkpt><trkpt lat="43.0237529" lon="11.8913466"><ele>353.0</ele><time>2026-05-02T12:42:43.706Z</time></trkpt><trkpt lat="43.0238166" lon="11.8912095"><ele>353.0</ele><time>2026-05-02T12:42:44.706Z</time></trkpt><trkpt lat="43.0238842" lon="11.8910615"><ele>353.0</ele><time>2026-05-02T12:42:45.699Z</time></trkpt><trkpt lat="43.0239567" lon="11.890918"><ele>353.0</ele><time>2026-05-02T12:42:46.706Z</time></trkpt><trkpt lat="43.0240247" lon="11.8907794"><ele>353.0</ele><time>2026-05-02T12:42:47.703Z</time></trkpt><trkpt lat="43.0240815" lon="11.8906538"><ele>353.1666666666667</ele><time>2026-05-02T12:42:48.711Z</time></trkpt><trkpt lat="43.0241358" lon="11.8905452"><ele>353.33333333333337</ele><time>2026-05-02T12:42:49.703Z</time></trkpt><trkpt lat="43.0241832" lon="11.8904542"><ele>353.5</ele><time>2026-05-02T12:42:50.707Z</time></trkpt><trkpt lat="43.0242178" lon="11.8903609"><ele>353.6666666666667</ele><time>2026-05-02T12:42:51.703Z</time></trkpt><trkpt lat="43.0242299" lon="11.890273"><ele>353.8333333333333</ele><time>2026-05-02T12:42:52.698Z</time></trkpt><trkpt lat="43.0242182" lon="11.890152"><ele>354.0</ele><time>2026-05-02T12:42:54.702Z</time></trkpt><trkpt lat="43.0242314" lon="11.8900389"><ele>354.0</ele><time>2026-05-02T12:42:57.711Z</time></trkpt><trkpt lat="43.0242458" lon="11.8899399"><ele>354.0</ele><time>2026-05-02T12:43:03.704Z</time></trkpt><trkpt lat="43.0242903" lon="11.8898537"><ele>354.0</ele><time>2026-05-02T12:43:09.7Z</time></trkpt><trkpt lat="43.0242587" lon="11.8899324"><ele>354.0</ele><time>2026-05-02T12:43:24.697Z</time></trkpt><trkpt lat="43.0242241" lon="11.8898594"><ele>354.0</ele><time>2026-05-02T12:46:44.697Z</time></trkpt><trkpt lat="43.0242387" lon="11.8899912"><ele>354.0</ele><time>2026-05-02T12:50:15.706Z</time></trkpt><trkpt lat="43.0242749" lon="11.8900965"><ele>354.0</ele><time>2026-05-02T12:50:17.702Z</time></trkpt><trkpt lat="43.0243736" lon="11.8900158"><ele>354.0</ele><time>2026-05-02T12:50:19.698Z</time></trkpt><trkpt lat="43.0244317" lon="11.8899069"><ele>354.0</ele><time>2026-05-02T12:50:20.704Z</time></trkpt><trkpt lat="43.0245006" lon="11.8897731"><ele>354.0</ele><time>2026-05-02T12:50:21.697Z</time></trkpt><trkpt lat="43.0245774" lon="11.8896121"><ele>354.0</ele><time>2026-05-02T12:50:22.7Z</time></trkpt><trkpt lat="43.0246693" lon="11.8894311"><ele>354.0</ele><time>2026-05-02T12:50:23.698Z</time></trkpt><trkpt lat="43.0247719" lon="11.8892391"><ele>354.0</ele><time>2026-05-02T12:50:24.69Z</time></trkpt><trkpt lat="43.0248718" lon="11.8890272"><ele>353.0</ele><time>2026-05-02T12:50:25.703Z</time></trkpt><trkpt lat="43.0249748" lon="11.8888053"><ele>352.0</ele><time>2026-05-02T12:50:26.704Z</time></trkpt><trkpt lat="43.0250907" lon="11.8885781"><ele>351.0</ele><time>2026-05-02T12:50:27.698Z</time></trkpt><trkpt lat="43.025211" lon="11.8883525"><ele>351.0</ele><time>2026-05-02T12:50:28.69Z</time></trkpt><trkpt lat="43.0253379" lon="11.8881342"><ele>351.0</ele><time>2026-05-02T12:50:29.698Z</time></trkpt><trkpt lat="43.0254597" lon="11.8879184"><ele>351.0</ele><time>2026-05-02T12:50:30.704Z</time></trkpt><trkpt lat="43.0255741" lon="11.8877092"><ele>351.6666666666667</ele><time>2026-05-02T12:50:31.696Z</time></trkpt><trkpt lat="43.0256761" lon="11.8875123"><ele>352.33333333333337</ele><time>2026-05-02T12:50:32.697Z</time></trkpt><trkpt lat="43.0257706" lon="11.8873256"><ele>353.0</ele><time>2026-05-02T12:50:33.693Z</time></trkpt><trkpt lat="43.0258642" lon="11.8871448"><ele>355.0</ele><time>2026-05-02T12:50:34.691Z</time></trkpt><trkpt lat="43.0259674" lon="11.8869624"><ele>357.0</ele><time>2026-05-02T12:50:35.697Z</time></trkpt><trkpt lat="43.0260838" lon="11.8867918"><ele>359.0</ele><time>2026-05-02T12:50:36.707Z</time></trkpt><trkpt lat="43.0262035" lon="11.886627"><ele>360.33333333333337</ele><time>2026-05-02T12:50:37.698Z</time></trkpt><trkpt lat="43.0263103" lon="11.8864557"><ele>361.6666666666667</ele><time>2026-05-02T12:50:38.698Z</time></trkpt><trkpt lat="43.0264032" lon="11.8862745"><ele>363.0</ele><time>2026-05-02T12:50:39.695Z</time></trkpt><trkpt lat="43.0264783" lon="11.8860861"><ele>368.0</ele><time>2026-05-02T12:50:40.703Z</time></trkpt><trkpt lat="43.0265386" lon="11.8858927"><ele>373.0</ele><time>2026-05-02T12:50:41.696Z</time></trkpt><trkpt lat="43.0265848" lon="11.8856949"><ele>378.0</ele><time>2026-05-02T12:50:42.694Z</time></trkpt><trkpt lat="43.0266208" lon="11.8854962"><ele>374.75</ele><time>2026-05-02T12:50:43.693Z</time></trkpt><trkpt lat="43.0266516" lon="11.8852998"><ele>371.5</ele><time>2026-05-02T12:50:44.702Z</time></trkpt><trkpt lat="43.0266854" lon="11.885105"><ele>368.25</ele><time>2026-05-02T12:50:45.693Z</time></trkpt><trkpt lat="43.0267124" lon="11.884914"><ele>365.0</ele><time>2026-05-02T12:50:46.699Z</time></trkpt><trkpt lat="43.0267212" lon="11.884712"><ele>365.0</ele><time>2026-05-02T12:50:47.701Z</time></trkpt><trkpt lat="43.0267311" lon="11.8845037"><ele>365.0</ele><time>2026-05-02T12:50:48.701Z</time></trkpt><trkpt lat="43.0267564" lon="11.8842848"><ele>365.0</ele><time>2026-05-02T12:50:49.701Z</time></trkpt><trkpt lat="43.0268063" lon="11.8840659"><ele>365.0</ele><time>2026-05-02T12:50:50.702Z</time></trkpt><trkpt lat="43.0268895" lon="11.8838747"><ele>365.0</ele><time>2026-05-02T12:50:51.698Z</time></trkpt><trkpt lat="43.0269995" lon="11.8837247"><ele>365.0</ele><time>2026-05-02T12:50:52.695Z</time></trkpt><trkpt lat="43.0271286" lon="11.8836031"><ele>365.0</ele><time>2026-05-02T12:50:53.683Z</time></trkpt><trkpt lat="43.0272745" lon="11.8834944"><ele>365.0</ele><time>2026-05-02T12:50:54.695Z</time></trkpt><trkpt lat="43.0274313" lon="11.8833897"><ele>365.0</ele><time>2026-05-02T12:50:55.693Z</time></trkpt><trkpt lat="43.0275858" lon="11.8832776"><ele>366.33333333333337</ele><time>2026-05-02T12:50:56.697Z</time></trkpt><trkpt lat="43.0277228" lon="11.8831429"><ele>367.6666666666667</ele><time>2026-05-02T12:50:57.691Z</time></trkpt><trkpt lat="43.0278379" lon="11.8829775"><ele>369.0</ele><time>2026-05-02T12:50:58.7Z</time></trkpt><trkpt lat="43.0279468" lon="11.88278"><ele>371.3333333333333</ele><time>2026-05-02T12:50:59.697Z</time></trkpt><trkpt lat="43.0280312" lon="11.8825611"><ele>373.66666666666663</ele><time>2026-05-02T12:51:00.7Z</time></trkpt><trkpt lat="43.0280922" lon="11.882327"><ele>376.0</ele><time>2026-05-02T12:51:01.693Z</time></trkpt><trkpt lat="43.0281226" lon="11.8820776"><ele>376.0</ele><time>2026-05-02T12:51:02.703Z</time></trkpt><trkpt lat="43.0281328" lon="11.8818222"><ele>376.0</ele><time>2026-05-02T12:51:03.696Z</time></trkpt><trkpt lat="43.0281371" lon="11.8815677"><ele>376.0</ele><time>2026-05-02T12:51:04.697Z</time></trkpt><trkpt lat="43.0281435" lon="11.8813198"><ele>373.3333333333333</ele><time>2026-05-02T12:51:05.695Z</time></trkpt><trkpt lat="43.0281554" lon="11.8810653"><ele>370.6666666666667</ele><time>2026-05-02T12:51:06.698Z</time></trkpt><trkpt lat="43.0281669" lon="11.8808115"><ele>368.0</ele><time>2026-05-02T12:51:07.692Z</time></trkpt><trkpt lat="43.0281772" lon="11.8805593"><ele>365.0</ele><time>2026-05-02T12:51:08.7Z</time></trkpt><trkpt lat="43.0281832" lon="11.8802983"><ele>362.0</ele><time>2026-05-02T12:51:09.692Z</time></trkpt><trkpt lat="43.0281849" lon="11.8800345"><ele>359.0</ele><time>2026-05-02T12:51:10.689Z</time></trkpt><trkpt lat="43.0281713" lon="11.879765"><ele>358.0</ele><time>2026-05-02T12:51:11.687Z</time></trkpt><trkpt lat="43.0281627" lon="11.8794841"><ele>357.0</ele><time>2026-05-02T12:51:12.689Z</time></trkpt><trkpt lat="43.02816" lon="11.8791931"><ele>356.0</ele><time>2026-05-02T12:51:13.7Z</time></trkpt><trkpt lat="43.0281678" lon="11.8789083"><ele>354.6666666666667</ele><time>2026-05-02T12:51:14.695Z</time></trkpt><trkpt lat="43.0281711" lon="11.8786113"><ele>353.3333333333333</ele><time>2026-05-02T12:51:15.7Z</time></trkpt><trkpt lat="43.0281672" lon="11.87832"><ele>352.0</ele><time>2026-05-02T12:51:16.697Z</time></trkpt><trkpt lat="43.0281611" lon="11.8780327"><ele>351.3333333333333</ele><time>2026-05-02T12:51:17.704Z</time></trkpt><trkpt lat="43.0281484" lon="11.8777494"><ele>350.6666666666667</ele><time>2026-05-02T12:51:18.693Z</time></trkpt><trkpt lat="43.0281365" lon="11.8774617"><ele>350.0</ele><time>2026-05-02T12:51:19.694Z</time></trkpt><trkpt lat="43.02813" lon="11.877178"><ele>350.0</ele><time>2026-05-02T12:51:20.702Z</time></trkpt><trkpt lat="43.0281165" lon="11.8768923"><ele>350.0</ele><time>2026-05-02T12:51:21.7Z</time></trkpt><trkpt lat="43.028105" lon="11.8766021"><ele>350.0</ele><time>2026-05-02T12:51:22.687Z</time></trkpt><trkpt lat="43.0280881" lon="11.8763238"><ele>349.33333333333337</ele><time>2026-05-02T12:51:23.698Z</time></trkpt><trkpt lat="43.0280667" lon="11.876042"><ele>348.6666666666667</ele><time>2026-05-02T12:51:24.69Z</time></trkpt><trkpt lat="43.0280413" lon="11.8757638"><ele>348.0</ele><time>2026-05-02T12:51:25.703Z</time></trkpt><trkpt lat="43.0280108" lon="11.8754808"><ele>346.3333333333333</ele><time>2026-05-02T12:51:26.697Z</time></trkpt><trkpt lat="43.027978" lon="11.8752044"><ele>344.66666666666663</ele><time>2026-05-02T12:51:27.685Z</time></trkpt><trkpt lat="43.0279413" lon="11.8749254"><ele>343.0</ele><time>2026-05-02T12:51:28.698Z</time></trkpt><trkpt lat="43.0279016" lon="11.8746556"><ele>342.3333333333333</ele><time>2026-05-02T12:51:29.695Z</time></trkpt><trkpt lat="43.0278623" lon="11.8743919"><ele>341.6666666666667</ele><time>2026-05-02T12:51:30.699Z</time></trkpt><trkpt lat="43.0278256" lon="11.8741266"><ele>341.0</ele><time>2026-05-02T12:51:31.712Z</time></trkpt><trkpt lat="43.0277852" lon="11.8738649"><ele>341.0</ele><time>2026-05-02T12:51:32.693Z</time></trkpt><trkpt lat="43.0277426" lon="11.8736037"><ele>341.0</ele><time>2026-05-02T12:51:33.701Z</time></trkpt><trkpt lat="43.0277" lon="11.8733415"><ele>341.0</ele><time>2026-05-02T12:51:34.691Z</time></trkpt><trkpt lat="43.0276602" lon="11.8730814"><ele>342.33333333333337</ele><time>2026-05-02T12:51:35.698Z</time></trkpt><trkpt lat="43.0276233" lon="11.872826"><ele>343.6666666666667</ele><time>2026-05-02T12:51:36.696Z</time></trkpt><trkpt lat="43.0275995" lon="11.8725752"><ele>345.0</ele><time>2026-05-02T12:51:37.695Z</time></trkpt><trkpt lat="43.0275887" lon="11.8723321"><ele>346.0</ele><time>2026-05-02T12:51:38.701Z</time></trkpt><trkpt lat="43.0275887" lon="11.8721012"><ele>347.0</ele><time>2026-05-02T12:51:39.702Z</time></trkpt><trkpt lat="43.0276057" lon="11.8718677"><ele>348.0</ele><time>2026-05-02T12:51:40.698Z</time></trkpt><trkpt lat="43.0276305" lon="11.8716335"><ele>348.3333333333333</ele><time>2026-05-02T12:51:41.703Z</time></trkpt><trkpt lat="43.0276531" lon="11.8713952"><ele>348.66666666666663</ele><time>2026-05-02T12:51:42.697Z</time></trkpt><trkpt lat="43.0276726" lon="11.8711554"><ele>349.0</ele><time>2026-05-02T12:51:43.698Z</time></trkpt><trkpt lat="43.0276925" lon="11.8709166"><ele>349.3333333333333</ele><time>2026-05-02T12:51:44.7Z</time></trkpt><trkpt lat="43.0277263" lon="11.8706822"><ele>349.6666666666667</ele><time>2026-05-02T12:51:45.689Z</time></trkpt><trkpt lat="43.0277726" lon="11.8704602"><ele>350.0</ele><time>2026-05-02T12:51:46.705Z</time></trkpt><trkpt lat="43.027829" lon="11.8702443"><ele>349.6666666666667</ele><time>2026-05-02T12:51:47.695Z</time></trkpt><trkpt lat="43.0278875" lon="11.8700256"><ele>349.3333333333333</ele><time>2026-05-02T12:51:48.692Z</time></trkpt><trkpt lat="43.027943" lon="11.8698106"><ele>349.0</ele><time>2026-05-02T12:51:49.702Z</time></trkpt><trkpt lat="43.028001" lon="11.8695973"><ele>349.0</ele><time>2026-05-02T12:51:50.696Z</time></trkpt><trkpt lat="43.0280582" lon="11.8693835"><ele>349.0</ele><time>2026-05-02T12:51:51.711Z</time></trkpt><trkpt lat="43.0281187" lon="11.8691697"><ele>349.0</ele><time>2026-05-02T12:51:52.692Z</time></trkpt><trkpt lat="43.0281736" lon="11.8689469"><ele>348.3333333333333</ele><time>2026-05-02T12:51:53.707Z</time></trkpt><trkpt lat="43.0282208" lon="11.8687135"><ele>347.6666666666667</ele><time>2026-05-02T12:51:54.703Z</time></trkpt><trkpt lat="43.028253" lon="11.8684798"><ele>347.0</ele><time>2026-05-02T12:51:55.693Z</time></trkpt><trkpt lat="43.0282822" lon="11.8682431"><ele>348.33333333333337</ele><time>2026-05-02T12:51:56.703Z</time></trkpt><trkpt lat="43.0283107" lon="11.8680066"><ele>349.6666666666667</ele><time>2026-05-02T12:51:57.692Z</time></trkpt><trkpt lat="43.0283398" lon="11.867772"><ele>351.0</ele><time>2026-05-02T12:51:58.703Z</time></trkpt><trkpt lat="43.0283716" lon="11.8675326"><ele>351.0</ele><time>2026-05-02T12:51:59.702Z</time></trkpt><trkpt lat="43.0284044" lon="11.8672882"><ele>351.0</ele><time>2026-05-02T12:52:00.7Z</time></trkpt><trkpt lat="43.028437" lon="11.8670393"><ele>351.0</ele><time>2026-05-02T12:52:01.696Z</time></trkpt><trkpt lat="43.0284756" lon="11.8667876"><ele>350.6666666666667</ele><time>2026-05-02T12:52:02.7Z</time></trkpt><trkpt lat="43.0285174" lon="11.8665361"><ele>350.33333333333337</ele><time>2026-05-02T12:52:03.69Z</time></trkpt><trkpt lat="43.0285592" lon="11.8662901"><ele>350.0</ele><time>2026-05-02T12:52:04.704Z</time></trkpt><trkpt lat="43.0286031" lon="11.8660464"><ele>350.0</ele><time>2026-05-02T12:52:05.704Z</time></trkpt><trkpt lat="43.0286537" lon="11.8658098"><ele>350.0</ele><time>2026-05-02T12:52:06.705Z</time></trkpt><trkpt lat="43.0287025" lon="11.8655797"><ele>350.0</ele><time>2026-05-02T12:52:07.703Z</time></trkpt><trkpt lat="43.0287506" lon="11.8653526"><ele>350.0</ele><time>2026-05-02T12:52:08.704Z</time></trkpt><trkpt lat="43.0287978" lon="11.8651325"><ele>350.0</ele><time>2026-05-02T12:52:09.71Z</time></trkpt><trkpt lat="43.0288416" lon="11.8649154"><ele>350.0</ele><time>2026-05-02T12:52:10.704Z</time></trkpt><trkpt lat="43.0288811" lon="11.8647142"><ele>350.25</ele><time>2026-05-02T12:52:11.702Z</time></trkpt><trkpt lat="43.0289143" lon="11.8645367"><ele>350.5</ele><time>2026-05-02T12:52:12.701Z</time></trkpt><trkpt lat="43.028946" lon="11.864372"><ele>350.75</ele><time>2026-05-02T12:52:13.703Z</time></trkpt><trkpt lat="43.0289768" lon="11.8642088"><ele>351.0</ele><time>2026-05-02T12:52:14.7Z</time></trkpt><trkpt lat="43.0290087" lon="11.8640427"><ele>351.25</ele><time>2026-05-02T12:52:15.695Z</time></trkpt><trkpt lat="43.0290445" lon="11.8638752"><ele>351.5</ele><time>2026-05-02T12:52:16.695Z</time></trkpt><trkpt lat="43.0290766" lon="11.8637027"><ele>351.75</ele><time>2026-05-02T12:52:17.708Z</time></trkpt><trkpt lat="43.0291109" lon="11.8635324"><ele>352.0</ele><time>2026-05-02T12:52:18.696Z</time></trkpt><trkpt lat="43.0291429" lon="11.8633675"><ele>352.0</ele><time>2026-05-02T12:52:19.697Z</time></trkpt><trkpt lat="43.0291747" lon="11.8632189"><ele>352.0</ele><time>2026-05-02T12:52:20.699Z</time></trkpt><trkpt lat="43.0292057" lon="11.8630756"><ele>352.0</ele><time>2026-05-02T12:52:21.706Z</time></trkpt><trkpt lat="43.0292346" lon="11.8629336"><ele>352.0</ele><time>2026-05-02T12:52:22.701Z</time></trkpt><trkpt lat="43.0292606" lon="11.8628018"><ele>352.0</ele><time>2026-05-02T12:52:23.71Z</time></trkpt><trkpt lat="43.0292841" lon="11.8627037"><ele>352.0</ele><time>2026-05-02T12:52:24.702Z</time></trkpt><trkpt lat="43.0293021" lon="11.8626201"><ele>352.0</ele><time>2026-05-02T12:52:25.693Z</time></trkpt><trkpt lat="43.0293296" lon="11.8624937"><ele>352.0</ele><time>2026-05-02T12:52:27.7Z</time></trkpt><trkpt lat="43.0292991" lon="11.8623896"><ele>352.0</ele><time>2026-05-02T12:52:30.697Z</time></trkpt><trkpt lat="43.0292156" lon="11.8623682"><ele>352.0</ele><time>2026-05-02T12:52:32.703Z</time></trkpt><trkpt lat="43.0291023" lon="11.8623267"><ele>352.0</ele><time>2026-05-02T12:52:34.695Z</time></trkpt><trkpt lat="43.0290357" lon="11.8622993"><ele>350.8333333333333</ele><time>2026-05-02T12:52:35.7Z</time></trkpt><trkpt lat="43.0289651" lon="11.8622741"><ele>349.66666666666663</ele><time>2026-05-02T12:52:36.7Z</time></trkpt><trkpt lat="43.0288863" lon="11.8622424"><ele>348.5</ele><time>2026-05-02T12:52:37.69Z</time></trkpt><trkpt lat="43.0288046" lon="11.8622153"><ele>347.3333333333333</ele><time>2026-05-02T12:52:38.699Z</time></trkpt><trkpt lat="43.0287233" lon="11.8621818"><ele>346.1666666666667</ele><time>2026-05-02T12:52:39.703Z</time></trkpt><trkpt lat="43.0286462" lon="11.862149"><ele>345.0</ele><time>2026-05-02T12:52:40.698Z</time></trkpt><trkpt lat="43.0285692" lon="11.8621197"><ele>345.0</ele><time>2026-05-02T12:52:41.701Z</time></trkpt><trkpt lat="43.028487" lon="11.8620921"><ele>345.0</ele><time>2026-05-02T12:52:42.683Z</time></trkpt><trkpt lat="43.028412" lon="11.8620573"><ele>345.0</ele><time>2026-05-02T12:52:43.708Z</time></trkpt><trkpt lat="43.0283345" lon="11.8620198"><ele>345.0</ele><time>2026-05-02T12:52:44.693Z</time></trkpt><trkpt lat="43.028257" lon="11.8619735"><ele>345.0</ele><time>2026-05-02T12:52:45.696Z</time></trkpt><trkpt lat="43.0281731" lon="11.8619172"><ele>345.0</ele><time>2026-05-02T12:52:46.685Z</time></trkpt><trkpt lat="43.028084" lon="11.8618469"><ele>343.75</ele><time>2026-05-02T12:52:47.705Z</time></trkpt><trkpt lat="43.027991" lon="11.8617738"><ele>342.5</ele><time>2026-05-02T12:52:48.684Z</time></trkpt><trkpt lat="43.0278904" lon="11.8616901"><ele>341.25</ele><time>2026-05-02T12:52:49.703Z</time></trkpt><trkpt lat="43.027785" lon="11.8616062"><ele>340.0</ele><time>2026-05-02T12:52:50.699Z</time></trkpt><trkpt lat="43.0276764" lon="11.8615162"><ele>340.0</ele><time>2026-05-02T12:52:51.694Z</time></trkpt><trkpt lat="43.0275653" lon="11.8614266"><ele>340.0</ele><time>2026-05-02T12:52:52.693Z</time></trkpt><trkpt lat="43.0274581" lon="11.8613393"><ele>340.0</ele><time>2026-05-02T12:52:53.688Z</time></trkpt><trkpt lat="43.0273617" lon="11.8612572"><ele>340.0</ele><time>2026-05-02T12:52:54.7Z</time></trkpt><trkpt lat="43.0272735" lon="11.8611747"><ele>339.6</ele><time>2026-05-02T12:52:55.698Z</time></trkpt><trkpt lat="43.0271838" lon="11.8610948"><ele>339.2</ele><time>2026-05-02T12:52:56.695Z</time></trkpt><trkpt lat="43.0270919" lon="11.8610197"><ele>338.79999999999995</ele><time>2026-05-02T12:52:57.689Z</time></trkpt><trkpt lat="43.0270036" lon="11.8609402"><ele>338.4</ele><time>2026-05-02T12:52:58.707Z</time></trkpt><trkpt lat="43.0269131" lon="11.8608616"><ele>338.0</ele><time>2026-05-02T12:52:59.71Z</time></trkpt><trkpt lat="43.0268254" lon="11.8607778"><ele>338.0</ele><time>2026-05-02T12:53:00.703Z</time></trkpt><trkpt lat="43.0267357" lon="11.8606952"><ele>338.0</ele><time>2026-05-02T12:53:01.698Z</time></trkpt><trkpt lat="43.0266426" lon="11.8606127"><ele>338.0</ele><time>2026-05-02T12:53:02.694Z</time></trkpt><trkpt lat="43.0265456" lon="11.8605314"><ele>338.0</ele><time>2026-05-02T12:53:03.692Z</time></trkpt><trkpt lat="43.0264511" lon="11.8604528"><ele>338.0</ele><time>2026-05-02T12:53:04.697Z</time></trkpt><trkpt lat="43.0263541" lon="11.8603695"><ele>339.5</ele><time>2026-05-02T12:53:05.694Z</time></trkpt><trkpt lat="43.0262551" lon="11.8602829"><ele>341.0</ele><time>2026-05-02T12:53:06.694Z</time></trkpt><trkpt lat="43.0261572" lon="11.8601929"><ele>342.5</ele><time>2026-05-02T12:53:07.693Z</time></trkpt><trkpt lat="43.0260603" lon="11.8600986"><ele>344.0</ele><time>2026-05-02T12:53:08.705Z</time></trkpt><trkpt lat="43.025965" lon="11.8600163"><ele>345.75</ele><time>2026-05-02T12:53:09.695Z</time></trkpt><trkpt lat="43.025876" lon="11.8599307"><ele>347.5</ele><time>2026-05-02T12:53:10.697Z</time></trkpt><trkpt lat="43.0257798" lon="11.8598399"><ele>349.25</ele><time>2026-05-02T12:53:11.694Z</time></trkpt><trkpt lat="43.0256806" lon="11.8597478"><ele>351.0</ele><time>2026-05-02T12:53:12.698Z</time></trkpt><trkpt lat="43.0255806" lon="11.8596525"><ele>351.75</ele><time>2026-05-02T12:53:13.696Z</time></trkpt><trkpt lat="43.0254795" lon="11.8595592"><ele>352.5</ele><time>2026-05-02T12:53:14.693Z</time></trkpt><trkpt lat="43.0253827" lon="11.8594701"><ele>353.25</ele><time>2026-05-02T12:53:15.706Z</time></trkpt><trkpt lat="43.025291" lon="11.8593882"><ele>354.0</ele><time>2026-05-02T12:53:16.701Z</time></trkpt><trkpt lat="43.0252028" lon="11.8593149"><ele>354.4</ele><time>2026-05-02T12:53:17.698Z</time></trkpt><trkpt lat="43.0251212" lon="11.8592499"><ele>354.79999999999995</ele><time>2026-05-02T12:53:18.703Z</time></trkpt><trkpt lat="43.0250368" lon="11.8591935"><ele>355.20000000000005</ele><time>2026-05-02T12:53:19.697Z</time></trkpt><trkpt lat="43.0249517" lon="11.8591342"><ele>355.6</ele><time>2026-05-02T12:53:20.689Z</time></trkpt><trkpt lat="43.0248563" lon="11.8590605"><ele>356.0</ele><time>2026-05-02T12:53:21.707Z</time></trkpt><trkpt lat="43.0247543" lon="11.8589943"><ele>356.25</ele><time>2026-05-02T12:53:22.698Z</time></trkpt><trkpt lat="43.0246473" lon="11.8589272"><ele>356.5</ele><time>2026-05-02T12:53:23.695Z</time></trkpt><trkpt lat="43.0245323" lon="11.8588809"><ele>356.75</ele><time>2026-05-02T12:53:24.698Z</time></trkpt><trkpt lat="43.0244132" lon="11.858854"><ele>357.0</ele><time>2026-05-02T12:53:25.692Z</time></trkpt><trkpt lat="43.0242937" lon="11.85885"><ele>357.0</ele><time>2026-05-02T12:53:26.695Z</time></trkpt><trkpt lat="43.0241748" lon="11.8588615"><ele>357.0</ele><time>2026-05-02T12:53:27.698Z</time></trkpt><trkpt lat="43.024067" lon="11.8588814"><ele>357.0</ele><time>2026-05-02T12:53:28.701Z</time></trkpt><trkpt lat="43.0239762" lon="11.8589093"><ele>357.0</ele><time>2026-05-02T12:53:29.704Z</time></trkpt><trkpt lat="43.0239069" lon="11.8589433"><ele>357.0</ele><time>2026-05-02T12:53:30.706Z</time></trkpt><trkpt lat="43.0238463" lon="11.8589764"><ele>357.8333333333333</ele><time>2026-05-02T12:53:31.694Z</time></trkpt><trkpt lat="43.0237768" lon="11.8590448"><ele>358.6666666666667</ele><time>2026-05-02T12:53:33.703Z</time></trkpt><trkpt lat="43.0236971" lon="11.8591098"><ele>359.5</ele><time>2026-05-02T12:53:36.711Z</time></trkpt><trkpt lat="43.0236347" lon="11.8591562"><ele>360.33333333333337</ele><time>2026-05-02T12:53:39.698Z</time></trkpt><trkpt lat="43.0235718" lon="11.8592051"><ele>361.1666666666667</ele><time>2026-05-02T12:53:42.7Z</time></trkpt><trkpt lat="43.0234901" lon="11.859261"><ele>362.0</ele><time>2026-05-02T12:53:44.704Z</time></trkpt><trkpt lat="43.0233821" lon="11.8593348"><ele>362.0</ele><time>2026-05-02T12:53:46.7Z</time></trkpt><trkpt lat="43.0233195" lon="11.8593805"><ele>362.0</ele><time>2026-05-02T12:53:47.7Z</time></trkpt><trkpt lat="43.023249" lon="11.859434"><ele>362.0</ele><time>2026-05-02T12:53:48.707Z</time></trkpt><trkpt lat="43.0231816" lon="11.8594809"><ele>362.0</ele><time>2026-05-02T12:53:49.699Z</time></trkpt><trkpt lat="43.0231097" lon="11.8595351"><ele>362.0</ele><time>2026-05-02T12:53:50.689Z</time></trkpt><trkpt lat="43.0230361" lon="11.8595866"><ele>362.0</ele><time>2026-05-02T12:53:51.705Z</time></trkpt><trkpt lat="43.022966" lon="11.8596437"><ele>363.6666666666667</ele><time>2026-05-02T12:53:52.697Z</time></trkpt><trkpt lat="43.0228884" lon="11.8596957"><ele>365.33333333333337</ele><time>2026-05-02T12:53:53.702Z</time></trkpt><trkpt lat="43.0228106" lon="11.8597279"><ele>367.0</ele><time>2026-05-02T12:53:54.7Z</time></trkpt><trkpt lat="43.0227279" lon="11.8597472"><ele>368.6666666666667</ele><time>2026-05-02T12:53:55.701Z</time></trkpt><trkpt lat="43.0226471" lon="11.8597196"><ele>370.3333333333333</ele><time>2026-05-02T12:53:56.702Z</time></trkpt><trkpt lat="43.0225726" lon="11.8596632"><ele>372.0</ele><time>2026-05-02T12:53:57.691Z</time></trkpt><trkpt lat="43.0225186" lon="11.8595859"><ele>372.5</ele><time>2026-05-02T12:53:58.692Z</time></trkpt><trkpt lat="43.0224738" lon="11.8594959"><ele>373.0</ele><time>2026-05-02T12:53:59.695Z</time></trkpt><trkpt lat="43.022433" lon="11.859395"><ele>373.5</ele><time>2026-05-02T12:54:00.701Z</time></trkpt><trkpt lat="43.0223896" lon="11.8592948"><ele>374.0</ele><time>2026-05-02T12:54:01.704Z</time></trkpt><trkpt lat="43.02234" lon="11.8592064"><ele>374.5</ele><time>2026-05-02T12:54:02.7Z</time></trkpt><trkpt lat="43.0222881" lon="11.8591524"><ele>375.0</ele><time>2026-05-02T12:54:03.689Z</time></trkpt><trkpt lat="43.0222012" lon="11.8591303"><ele>375.0</ele><time>2026-05-02T12:54:05.693Z</time></trkpt><trkpt lat="43.0221341" lon="11.8591879"><ele>375.0</ele><time>2026-05-02T12:54:07.693Z</time></trkpt><trkpt lat="43.0220534" lon="11.8592476"><ele>375.0</ele><time>2026-05-02T12:54:09.695Z</time></trkpt><trkpt lat="43.0219547" lon="11.8592157"><ele>375.0</ele><time>2026-05-02T12:54:11.695Z</time></trkpt><trkpt lat="43.0218981" lon="11.8591748"><ele>375.0</ele><time>2026-05-02T12:54:12.695Z</time></trkpt><trkpt lat="43.0218282" lon="11.8591206"><ele>375.0</ele><time>2026-05-02T12:54:13.692Z</time></trkpt><trkpt lat="43.0217559" lon="11.8590615"><ele>375.0</ele><time>2026-05-02T12:54:14.692Z</time></trkpt><trkpt lat="43.0216669" lon="11.8590055"><ele>375.0</ele><time>2026-05-02T12:54:15.691Z</time></trkpt><trkpt lat="43.0215757" lon="11.8589411"><ele>375.0</ele><time>2026-05-02T12:54:16.69Z</time></trkpt><trkpt lat="43.0214818" lon="11.8588731"><ele>375.0</ele><time>2026-05-02T12:54:17.7Z</time></trkpt><trkpt lat="43.0213891" lon="11.8588127"><ele>375.0</ele><time>2026-05-02T12:54:18.691Z</time></trkpt><trkpt lat="43.0212935" lon="11.8587534"><ele>372.4</ele><time>2026-05-02T12:54:19.686Z</time></trkpt><trkpt lat="43.0212018" lon="11.8586946"><ele>369.8</ele><time>2026-05-02T12:54:20.695Z</time></trkpt><trkpt lat="43.0211112" lon="11.8586402"><ele>367.20000000000005</ele><time>2026-05-02T12:54:21.687Z</time></trkpt><trkpt lat="43.0210143" lon="11.8585922"><ele>364.6</ele><time>2026-05-02T12:54:22.698Z</time></trkpt><trkpt lat="43.0209183" lon="11.8585488"><ele>362.0</ele><time>2026-05-02T12:54:23.685Z</time></trkpt><trkpt lat="43.0208241" lon="11.8585076"><ele>361.8</ele><time>2026-05-02T12:54:24.704Z</time></trkpt><trkpt lat="43.020727" lon="11.8584708"><ele>361.6</ele><time>2026-05-02T12:54:25.695Z</time></trkpt><trkpt lat="43.0206198" lon="11.8584363"><ele>361.40000000000003</ele><time>2026-05-02T12:54:26.691Z</time></trkpt><trkpt lat="43.0205132" lon="11.8584001"><ele>361.20000000000005</ele><time>2026-05-02T12:54:27.686Z</time></trkpt><trkpt lat="43.0204144" lon="11.8583596"><ele>361.0</ele><time>2026-05-02T12:54:28.72Z</time></trkpt><trkpt lat="43.0203128" lon="11.858311"><ele>361.8</ele><time>2026-05-02T12:54:29.698Z</time></trkpt><trkpt lat="43.0202266" lon="11.8582562"><ele>362.6</ele><time>2026-05-02T12:54:30.713Z</time></trkpt><trkpt lat="43.0201568" lon="11.8581725"><ele>363.4</ele><time>2026-05-02T12:54:31.699Z</time></trkpt><trkpt lat="43.0201068" lon="11.8580802"><ele>364.2</ele><time>2026-05-02T12:54:32.707Z</time></trkpt><trkpt lat="43.020075" lon="11.8579688"><ele>365.0</ele><time>2026-05-02T12:54:33.692Z</time></trkpt><trkpt lat="43.0200481" lon="11.8578506"><ele>365.0</ele><time>2026-05-02T12:54:34.699Z</time></trkpt><trkpt lat="43.0200252" lon="11.8577265"><ele>365.0</ele><time>2026-05-02T12:54:35.694Z</time></trkpt><trkpt lat="43.0200027" lon="11.8575895"><ele>365.0</ele><time>2026-05-02T12:54:36.7Z</time></trkpt><trkpt lat="43.019978" lon="11.8574595"><ele>365.0</ele><time>2026-05-02T12:54:37.691Z</time></trkpt><trkpt lat="43.0199555" lon="11.8573314"><ele>365.0</ele><time>2026-05-02T12:54:38.702Z</time></trkpt><trkpt lat="43.0199315" lon="11.857206"><ele>366.4</ele><time>2026-05-02T12:54:39.685Z</time></trkpt><trkpt lat="43.0199011" lon="11.8570857"><ele>367.8</ele><time>2026-05-02T12:54:40.693Z</time></trkpt><trkpt lat="43.0198606" lon="11.8569784"><ele>369.20000000000005</ele><time>2026-05-02T12:54:41.69Z</time></trkpt><trkpt lat="43.019802" lon="11.8568858"><ele>370.6</ele><time>2026-05-02T12:54:42.702Z</time></trkpt><trkpt lat="43.0197343" lon="11.8568028"><ele>372.0</ele><time>2026-05-02T12:54:43.692Z</time></trkpt><trkpt lat="43.019668" lon="11.8567128"><ele>373.5</ele><time>2026-05-02T12:54:44.693Z</time></trkpt><trkpt lat="43.0196135" lon="11.856619"><ele>375.0</ele><time>2026-05-02T12:54:45.69Z</time></trkpt><trkpt lat="43.0195725" lon="11.8565169"><ele>376.5</ele><time>2026-05-02T12:54:46.699Z</time></trkpt><trkpt lat="43.0195599" lon="11.8564004"><ele>378.0</ele><time>2026-05-02T12:54:47.696Z</time></trkpt><trkpt lat="43.0195525" lon="11.8562835"><ele>379.5</ele><time>2026-05-02T12:54:48.699Z</time></trkpt><trkpt lat="43.0195522" lon="11.856158"><ele>381.0</ele><time>2026-05-02T12:54:49.685Z</time></trkpt><trkpt lat="43.0195569" lon="11.8560334"><ele>382.20000000000005</ele><time>2026-05-02T12:54:50.697Z</time></trkpt><trkpt lat="43.0195648" lon="11.8559049"><ele>383.40000000000003</ele><time>2026-05-02T12:54:51.695Z</time></trkpt><trkpt lat="43.0195815" lon="11.8557666"><ele>384.6</ele><time>2026-05-02T12:54:52.686Z</time></trkpt><trkpt lat="43.0196118" lon="11.8556342"><ele>385.8</ele><time>2026-05-02T12:54:53.693Z</time></trkpt><trkpt lat="43.0196442" lon="11.8555037"><ele>387.0</ele><time>2026-05-02T12:54:54.704Z</time></trkpt><trkpt lat="43.0196737" lon="11.8553773"><ele>387.0</ele><time>2026-05-02T12:54:55.69Z</time></trkpt><trkpt lat="43.0197085" lon="11.8552542"><ele>387.0</ele><time>2026-05-02T12:54:56.7Z</time></trkpt><trkpt lat="43.0197562" lon="11.8551426"><ele>387.0</ele><time>2026-05-02T12:54:57.696Z</time></trkpt><trkpt lat="43.0198129" lon="11.8550468"><ele>387.0</ele><time>2026-05-02T12:54:58.701Z</time></trkpt><trkpt lat="43.0198762" lon="11.8549488"><ele>387.0</ele><time>2026-05-02T12:54:59.692Z</time></trkpt><trkpt lat="43.019948" lon="11.854848"><ele>389.0</ele><time>2026-05-02T12:55:00.704Z</time></trkpt><trkpt lat="43.020023" lon="11.8547598"><ele>391.0</ele><time>2026-05-02T12:55:01.695Z</time></trkpt><trkpt lat="43.020093" lon="11.8546612"><ele>393.0</ele><time>2026-05-02T12:55:02.699Z</time></trkpt><trkpt lat="43.0201393" lon="11.8545518"><ele>395.0</ele><time>2026-05-02T12:55:03.698Z</time></trkpt><trkpt lat="43.0201542" lon="11.8544451"><ele>397.0</ele><time>2026-05-02T12:55:04.7Z</time></trkpt><trkpt lat="43.0201309" lon="11.85434"><ele>397.50000000000006</ele><time>2026-05-02T12:55:05.7Z</time></trkpt><trkpt lat="43.0200896" lon="11.8542616"><ele>398.0</ele><time>2026-05-02T12:55:06.699Z</time></trkpt><trkpt lat="43.0200295" lon="11.8542018"><ele>398.5</ele><time>2026-05-02T12:55:07.715Z</time></trkpt><trkpt lat="43.0199547" lon="11.8541661"><ele>399.0</ele><time>2026-05-02T12:55:08.693Z</time></trkpt><trkpt lat="43.0198706" lon="11.8541303"><ele>399.50000000000006</ele><time>2026-05-02T12:55:09.701Z</time></trkpt><trkpt lat="43.0197985" lon="11.8540801"><ele>400.0</ele><time>2026-05-02T12:55:10.707Z</time></trkpt><trkpt lat="43.0197431" lon="11.8540027"><ele>400.00000000000006</ele><time>2026-05-02T12:55:11.69Z</time></trkpt><trkpt lat="43.0197133" lon="11.8538987"><ele>400.0</ele><time>2026-05-02T12:55:12.7Z</time></trkpt><trkpt lat="43.0197086" lon="11.8537968"><ele>400.0</ele><time>2026-05-02T12:55:13.688Z</time></trkpt><trkpt lat="43.0197186" lon="11.853695"><ele>400.0</ele><time>2026-05-02T12:55:14.69Z</time></trkpt><trkpt lat="43.0197213" lon="11.8535892"><ele>400.00000000000006</ele><time>2026-05-02T12:55:15.698Z</time></trkpt><trkpt lat="43.0197219" lon="11.853476"><ele>400.0</ele><time>2026-05-02T12:55:16.695Z</time></trkpt><trkpt lat="43.0197157" lon="11.8533596"><ele>401.2</ele><time>2026-05-02T12:55:17.684Z</time></trkpt><trkpt lat="43.0197065" lon="11.8532301"><ele>402.4</ele><time>2026-05-02T12:55:18.703Z</time></trkpt><trkpt lat="43.0197003" lon="11.8530994"><ele>403.6</ele><time>2026-05-02T12:55:19.692Z</time></trkpt><trkpt lat="43.0196942" lon="11.8529794"><ele>404.8</ele><time>2026-05-02T12:55:20.707Z</time></trkpt><trkpt lat="43.0196913" lon="11.8528553"><ele>406.0</ele><time>2026-05-02T12:55:21.679Z</time></trkpt><trkpt lat="43.0196957" lon="11.8527276"><ele>407.0</ele><time>2026-05-02T12:55:22.699Z</time></trkpt><trkpt lat="43.0196986" lon="11.8525919"><ele>408.0</ele><time>2026-05-02T12:55:23.689Z</time></trkpt><trkpt lat="43.0197036" lon="11.8524482"><ele>409.0</ele><time>2026-05-02T12:55:24.715Z</time></trkpt><trkpt lat="43.0196996" lon="11.8522962"><ele>410.0</ele><time>2026-05-02T12:55:25.691Z</time></trkpt><trkpt lat="43.0196958" lon="11.8521373"><ele>411.0</ele><time>2026-05-02T12:55:26.698Z</time></trkpt><trkpt lat="43.0196971" lon="11.8519807"><ele>411.0</ele><time>2026-05-02T12:55:27.68Z</time></trkpt><trkpt lat="43.0196974" lon="11.8518236"><ele>411.0</ele><time>2026-05-02T12:55:28.699Z</time></trkpt><trkpt lat="43.0197001" lon="11.8516663"><ele>411.0</ele><time>2026-05-02T12:55:29.689Z</time></trkpt><trkpt lat="43.0197023" lon="11.8515136"><ele>411.0</ele><time>2026-05-02T12:55:30.698Z</time></trkpt><trkpt lat="43.0197019" lon="11.8513641"><ele>412.25</ele><time>2026-05-02T12:55:31.697Z</time></trkpt><trkpt lat="43.0197003" lon="11.8512018"><ele>413.5</ele><time>2026-05-02T12:55:32.693Z</time></trkpt><trkpt lat="43.0196963" lon="11.8510443"><ele>414.75</ele><time>2026-05-02T12:55:33.702Z</time></trkpt><trkpt lat="43.0196867" lon="11.8508821"><ele>416.0</ele><time>2026-05-02T12:55:34.699Z</time></trkpt><trkpt lat="43.0196636" lon="11.8507106"><ele>417.6</ele><time>2026-05-02T12:55:35.695Z</time></trkpt><trkpt lat="43.0196452" lon="11.8505468"><ele>419.20000000000005</ele><time>2026-05-02T12:55:36.701Z</time></trkpt><trkpt lat="43.0196281" lon="11.8503883"><ele>420.79999999999995</ele><time>2026-05-02T12:55:37.685Z</time></trkpt><trkpt lat="43.0196318" lon="11.8502397"><ele>422.4</ele><time>2026-05-02T12:55:38.696Z</time></trkpt><trkpt lat="43.0196481" lon="11.8501113"><ele>424.0</ele><time>2026-05-02T12:55:39.7Z</time></trkpt><trkpt lat="43.0196639" lon="11.8500162"><ele>425.00000000000006</ele><time>2026-05-02T12:55:40.698Z</time></trkpt><trkpt lat="43.0196544" lon="11.8499205"><ele>426.0</ele><time>2026-05-02T12:55:41.7Z</time></trkpt><trkpt lat="43.0196199" lon="11.8498324"><ele>427.0</ele><time>2026-05-02T12:55:42.703Z</time></trkpt><trkpt lat="43.0195752" lon="11.849756"><ele>428.0</ele><time>2026-05-02T12:55:43.701Z</time></trkpt><trkpt lat="43.0195243" lon="11.8496752"><ele>429.00000000000006</ele><time>2026-05-02T12:55:44.688Z</time></trkpt><trkpt lat="43.019473" lon="11.8495845"><ele>430.0</ele><time>2026-05-02T12:55:45.705Z</time></trkpt><trkpt lat="43.0194145" lon="11.849487"><ele>430.0</ele><time>2026-05-02T12:55:46.684Z</time></trkpt><trkpt lat="43.0193662" lon="11.8493726"><ele>430.0</ele><time>2026-05-02T12:55:47.698Z</time></trkpt><trkpt lat="43.0193158" lon="11.8492518"><ele>430.0</ele><time>2026-05-02T12:55:48.718Z</time></trkpt><trkpt lat="43.019257" lon="11.8491259"><ele>430.0</ele><time>2026-05-02T12:55:49.703Z</time></trkpt><trkpt lat="43.0191944" lon="11.8489939"><ele>430.0</ele><time>2026-05-02T12:55:50.698Z</time></trkpt><trkpt lat="43.0191332" lon="11.8488572"><ele>429.4</ele><time>2026-05-02T12:55:51.684Z</time></trkpt><trkpt lat="43.0190731" lon="11.8487267"><ele>428.8</ele><time>2026-05-02T12:55:52.7Z</time></trkpt><trkpt lat="43.0190102" lon="11.8485978"><ele>428.20000000000005</ele><time>2026-05-02T12:55:53.685Z</time></trkpt><trkpt lat="43.0189542" lon="11.848469"><ele>427.6</ele><time>2026-05-02T12:55:54.692Z</time></trkpt><trkpt lat="43.0188938" lon="11.8483423"><ele>427.0</ele><time>2026-05-02T12:55:55.696Z</time></trkpt><trkpt lat="43.0188325" lon="11.8482206"><ele>428.20000000000005</ele><time>2026-05-02T12:55:56.697Z</time></trkpt><trkpt lat="43.0187664" lon="11.8481109"><ele>429.40000000000003</ele><time>2026-05-02T12:55:57.702Z</time></trkpt><trkpt lat="43.0187084" lon="11.8480004"><ele>430.59999999999997</ele><time>2026-05-02T12:55:58.701Z</time></trkpt><trkpt lat="43.0186412" lon="11.8478863"><ele>431.79999999999995</ele><time>2026-05-02T12:55:59.699Z</time></trkpt><trkpt lat="43.0185756" lon="11.8477685"><ele>433.0</ele><time>2026-05-02T12:56:00.696Z</time></trkpt><trkpt lat="43.0185208" lon="11.847645"><ele>435.0</ele><time>2026-05-02T12:56:01.701Z</time></trkpt><trkpt lat="43.0184796" lon="11.847517"><ele>436.99999999999994</ele><time>2026-05-02T12:56:02.707Z</time></trkpt><trkpt lat="43.0184425" lon="11.8473889"><ele>438.99999999999994</ele><time>2026-05-02T12:56:03.687Z</time></trkpt><trkpt lat="43.0184087" lon="11.8472496"><ele>441.0</ele><time>2026-05-02T12:56:04.687Z</time></trkpt><trkpt lat="43.0183764" lon="11.8471088"><ele>443.0</ele><time>2026-05-02T12:56:05.706Z</time></trkpt><trkpt lat="43.0183412" lon="11.8469674"><ele>442.2</ele><time>2026-05-02T12:56:06.677Z</time></trkpt><trkpt lat="43.0182974" lon="11.8468359"><ele>441.4</ele><time>2026-05-02T12:56:07.715Z</time></trkpt><trkpt lat="43.018243" lon="11.8467038"><ele>440.59999999999997</ele><time>2026-05-02T12:56:08.692Z</time></trkpt><trkpt lat="43.0181941" lon="11.8465698"><ele>439.79999999999995</ele><time>2026-05-02T12:56:09.688Z</time></trkpt><trkpt lat="43.0181453" lon="11.8464229"><ele>439.0</ele><time>2026-05-02T12:56:10.695Z</time></trkpt><trkpt lat="43.0180928" lon="11.8462845"><ele>439.0</ele><time>2026-05-02T12:56:11.699Z</time></trkpt><trkpt lat="43.0180362" lon="11.8461374"><ele>439.0</ele><time>2026-05-02T12:56:12.701Z</time></trkpt><trkpt lat="43.0179801" lon="11.8460215"><ele>439.0</ele><time>2026-05-02T12:56:13.694Z</time></trkpt><trkpt lat="43.0179307" lon="11.8459241"><ele>439.0</ele><time>2026-05-02T12:56:14.701Z</time></trkpt><trkpt lat="43.017888" lon="11.845833"><ele>439.0</ele><time>2026-05-02T12:56:15.696Z</time></trkpt><trkpt lat="43.0178505" lon="11.8457539"><ele>440.00000000000006</ele><time>2026-05-02T12:56:16.698Z</time></trkpt><trkpt lat="43.0177893" lon="11.8456272"><ele>441.0</ele><time>2026-05-02T12:56:18.708Z</time></trkpt><trkpt lat="43.0177301" lon="11.8455215"><ele>442.0</ele><time>2026-05-02T12:56:20.696Z</time></trkpt><trkpt lat="43.0176864" lon="11.845446"><ele>443.0</ele><time>2026-05-02T12:56:22.696Z</time></trkpt><trkpt lat="43.0176407" lon="11.8453595"><ele>444.00000000000006</ele><time>2026-05-02T12:56:25.709Z</time></trkpt><trkpt lat="43.0175924" lon="11.8452713"><ele>445.0</ele><time>2026-05-02T12:56:28.696Z</time></trkpt><trkpt lat="43.0175421" lon="11.8451896"><ele>445.4</ele><time>2026-05-02T12:56:30.714Z</time></trkpt><trkpt lat="43.0174766" lon="11.8450825"><ele>445.8</ele><time>2026-05-02T12:56:32.713Z</time></trkpt><trkpt lat="43.0174023" lon="11.8449953"><ele>446.20000000000005</ele><time>2026-05-02T12:56:34.709Z</time></trkpt><trkpt lat="43.017309" lon="11.8448863"><ele>446.6</ele><time>2026-05-02T12:56:36.702Z</time></trkpt><trkpt lat="43.0172497" lon="11.8448232"><ele>447.0</ele><time>2026-05-02T12:56:37.704Z</time></trkpt><trkpt lat="43.0171839" lon="11.8447535"><ele>447.0</ele><time>2026-05-02T12:56:38.709Z</time></trkpt><trkpt lat="43.0171147" lon="11.8446729"><ele>447.00000000000006</ele><time>2026-05-02T12:56:39.71Z</time></trkpt><trkpt lat="43.0170432" lon="11.8445868"><ele>447.00000000000006</ele><time>2026-05-02T12:56:40.68Z</time></trkpt><trkpt lat="43.0169692" lon="11.8445034"><ele>447.0</ele><time>2026-05-02T12:56:41.7Z</time></trkpt><trkpt lat="43.0168919" lon="11.8444183"><ele>447.0</ele><time>2026-05-02T12:56:42.706Z</time></trkpt><trkpt lat="43.0168129" lon="11.844329"><ele>449.0</ele><time>2026-05-02T12:56:43.698Z</time></trkpt><trkpt lat="43.0167331" lon="11.8442379"><ele>451.00000000000006</ele><time>2026-05-02T12:56:44.699Z</time></trkpt><trkpt lat="43.0166521" lon="11.8441459"><ele>453.00000000000006</ele><time>2026-05-02T12:56:45.701Z</time></trkpt><trkpt lat="43.0165702" lon="11.8440505"><ele>455.0</ele><time>2026-05-02T12:56:46.697Z</time></trkpt><trkpt lat="43.0164851" lon="11.8439541"><ele>457.0</ele><time>2026-05-02T12:56:47.701Z</time></trkpt><trkpt lat="43.0163939" lon="11.8438531"><ele>457.25</ele><time>2026-05-02T12:56:48.697Z</time></trkpt><trkpt lat="43.0163006" lon="11.843749"><ele>457.5</ele><time>2026-05-02T12:56:49.714Z</time></trkpt><trkpt lat="43.0162085" lon="11.8436438"><ele>457.75</ele><time>2026-05-02T12:56:50.709Z</time></trkpt><trkpt lat="43.0161163" lon="11.8435356"><ele>458.0</ele><time>2026-05-02T12:56:51.689Z</time></trkpt><trkpt lat="43.0160266" lon="11.8434247"><ele>460.25</ele><time>2026-05-02T12:56:52.713Z</time></trkpt><trkpt lat="43.0159356" lon="11.8433171"><ele>462.5</ele><time>2026-05-02T12:56:53.689Z</time></trkpt><trkpt lat="43.0158417" lon="11.8432075"><ele>464.75</ele><time>2026-05-02T12:56:54.713Z</time></trkpt><trkpt lat="43.0157446" lon="11.8430977"><ele>467.0</ele><time>2026-05-02T12:56:55.702Z</time></trkpt><trkpt lat="43.0156511" lon="11.8429882"><ele>467.5</ele><time>2026-05-02T12:56:56.693Z</time></trkpt><trkpt lat="43.0155582" lon="11.8428799"><ele>468.0</ele><time>2026-05-02T12:56:57.692Z</time></trkpt><trkpt lat="43.0154648" lon="11.8427719"><ele>468.5</ele><time>2026-05-02T12:56:58.699Z</time></trkpt><trkpt lat="43.0153683" lon="11.8426627"><ele>469.0</ele><time>2026-05-02T12:56:59.705Z</time></trkpt><trkpt lat="43.0152717" lon="11.8425467"><ele>472.25</ele><time>2026-05-02T12:57:00.696Z</time></trkpt><trkpt lat="43.0151738" lon="11.8424334"><ele>475.5</ele><time>2026-05-02T12:57:01.692Z</time></trkpt><trkpt lat="43.0150753" lon="11.8423157"><ele>478.75</ele><time>2026-05-02T12:57:02.694Z</time></trkpt><trkpt lat="43.014978" lon="11.8421967"><ele>482.0</ele><time>2026-05-02T12:57:03.691Z</time></trkpt><trkpt lat="43.0148775" lon="11.8420814"><ele>482.5</ele><time>2026-05-02T12:57:04.7Z</time></trkpt><trkpt lat="43.0147789" lon="11.8419625"><ele>483.0</ele><time>2026-05-02T12:57:05.697Z</time></trkpt><trkpt lat="43.0146787" lon="11.8418486"><ele>483.5</ele><time>2026-05-02T12:57:06.698Z</time></trkpt><trkpt lat="43.0145788" lon="11.841732"><ele>484.0</ele><time>2026-05-02T12:57:07.686Z</time></trkpt><trkpt lat="43.0144766" lon="11.8416105"><ele>485.75</ele><time>2026-05-02T12:57:08.697Z</time></trkpt><trkpt lat="43.0143755" lon="11.8414932"><ele>487.5</ele><time>2026-05-02T12:57:09.693Z</time></trkpt><trkpt lat="43.0142824" lon="11.8413816"><ele>489.25</ele><time>2026-05-02T12:57:10.691Z</time></trkpt><trkpt lat="43.014194" lon="11.8412742"><ele>491.0</ele><time>2026-05-02T12:57:11.701Z</time></trkpt><trkpt lat="43.0140978" lon="11.8411778"><ele>491.0</ele><time>2026-05-02T12:57:12.691Z</time></trkpt><trkpt lat="43.0140034" lon="11.8410831"><ele>491.0</ele><time>2026-05-02T12:57:13.694Z</time></trkpt><trkpt lat="43.0139178" lon="11.8409836"><ele>491.0</ele><time>2026-05-02T12:57:14.694Z</time></trkpt><trkpt lat="43.013839" lon="11.840885"><ele>491.0</ele><time>2026-05-02T12:57:15.701Z</time></trkpt><trkpt lat="43.0137693" lon="11.8408007"><ele>491.0</ele><time>2026-05-02T12:57:16.699Z</time></trkpt><trkpt lat="43.0137085" lon="11.8407327"><ele>492.8</ele><time>2026-05-02T12:57:17.698Z</time></trkpt><trkpt lat="43.0136455" lon="11.840671"><ele>494.6</ele><time>2026-05-02T12:57:18.691Z</time></trkpt><trkpt lat="43.0135683" lon="11.8406094"><ele>496.4</ele><time>2026-05-02T12:57:19.683Z</time></trkpt><trkpt lat="43.0134788" lon="11.8405415"><ele>498.2</ele><time>2026-05-02T12:57:20.706Z</time></trkpt><trkpt lat="43.0133668" lon="11.8404745"><ele>500.0</ele><time>2026-05-02T12:57:21.702Z</time></trkpt><trkpt lat="43.0132433" lon="11.8403982"><ele>501.66666666666663</ele><time>2026-05-02T12:57:22.699Z</time></trkpt><trkpt lat="43.0131072" lon="11.8403117"><ele>503.33333333333337</ele><time>2026-05-02T12:57:23.713Z</time></trkpt><trkpt lat="43.0129725" lon="11.8402325"><ele>505.0</ele><time>2026-05-02T12:57:24.699Z</time></trkpt><trkpt lat="43.0128325" lon="11.8401417"><ele>508.33333333333337</ele><time>2026-05-02T12:57:25.695Z</time></trkpt><trkpt lat="43.0126929" lon="11.8400509"><ele>511.66666666666663</ele><time>2026-05-02T12:57:26.714Z</time></trkpt><trkpt lat="43.0125576" lon="11.8399685"><ele>515.0</ele><time>2026-05-02T12:57:27.702Z</time></trkpt><trkpt lat="43.0124236" lon="11.8398862"><ele>516.0</ele><time>2026-05-02T12:57:28.699Z</time></trkpt><trkpt lat="43.0122908" lon="11.8398172"><ele>517.0</ele><time>2026-05-02T12:57:29.708Z</time></trkpt><trkpt lat="43.0121561" lon="11.8397826"><ele>518.0</ele><time>2026-05-02T12:57:30.702Z</time></trkpt><trkpt lat="43.0120247" lon="11.8397904"><ele>519.0</ele><time>2026-05-02T12:57:31.691Z</time></trkpt><trkpt lat="43.0119018" lon="11.8398227"><ele>519.0</ele><time>2026-05-02T12:57:32.706Z</time></trkpt><trkpt lat="43.0118011" lon="11.8398698"><ele>519.0</ele><time>2026-05-02T12:57:33.693Z</time></trkpt><trkpt lat="43.0117329" lon="11.8398997"><ele>519.0</ele><time>2026-05-02T12:57:34.697Z</time></trkpt><trkpt lat="43.0116481" lon="11.8399208"><ele>519.0</ele><time>2026-05-02T12:57:36.7Z</time></trkpt><trkpt lat="43.0116318" lon="11.8398291"><ele>519.0</ele><time>2026-05-02T13:02:37.695Z</time></trkpt><trkpt lat="43.0116153" lon="11.839724"><ele>519.0</ele><time>2026-05-02T13:02:40.683Z</time></trkpt><trkpt lat="43.0115832" lon="11.8396152"><ele>520.1666666666666</ele><time>2026-05-02T13:02:42.694Z</time></trkpt><trkpt lat="43.0115433" lon="11.8395099"><ele>521.3333333333334</ele><time>2026-05-02T13:02:44.699Z</time></trkpt><trkpt lat="43.0115188" lon="11.8394303"><ele>522.5</ele><time>2026-05-02T13:02:47.698Z</time></trkpt><trkpt lat="43.0115116" lon="11.8393413"><ele>523.6666666666667</ele><time>2026-05-02T13:02:53.694Z</time></trkpt><trkpt lat="43.0114985" lon="11.8392444"><ele>524.8333333333334</ele><time>2026-05-02T13:02:56.696Z</time></trkpt><trkpt lat="43.011476" lon="11.8390918"><ele>526.0</ele><time>2026-05-02T13:02:58.692Z</time></trkpt><trkpt lat="43.0114633" lon="11.8389973"><ele>527.0</ele><time>2026-05-02T13:02:59.696Z</time></trkpt><trkpt lat="43.011445" lon="11.8388948"><ele>528.0</ele><time>2026-05-02T13:03:00.694Z</time></trkpt><trkpt lat="43.0114237" lon="11.8387987"><ele>529.0</ele><time>2026-05-02T13:03:01.697Z</time></trkpt><trkpt lat="43.0113954" lon="11.8387018"><ele>530.0</ele><time>2026-05-02T13:03:02.69Z</time></trkpt><trkpt lat="43.0113402" lon="11.8385795"><ele>531.0</ele><time>2026-05-02T13:03:04.695Z</time></trkpt><trkpt lat="43.0112748" lon="11.838479"><ele>532.0</ele><time>2026-05-02T13:03:07.701Z</time></trkpt><trkpt lat="43.0111925" lon="11.8383906"><ele>533.6666666666667</ele><time>2026-05-02T13:03:09.7Z</time></trkpt><trkpt lat="43.011151" lon="11.8383237"><ele>535.3333333333334</ele><time>2026-05-02T13:03:10.688Z</time></trkpt><trkpt lat="43.0111114" lon="11.8382395"><ele>537.0</ele><time>2026-05-02T13:03:11.69Z</time></trkpt><trkpt lat="43.0110696" lon="11.8381379"><ele>538.6666666666666</ele><time>2026-05-02T13:03:12.71Z</time></trkpt><trkpt lat="43.0110261" lon="11.8380364"><ele>540.3333333333333</ele><time>2026-05-02T13:03:13.69Z</time></trkpt><trkpt lat="43.0109863" lon="11.8379292"><ele>542.0</ele><time>2026-05-02T13:03:14.699Z</time></trkpt><trkpt lat="43.0109404" lon="11.8378239"><ele>542.0</ele><time>2026-05-02T13:03:15.693Z</time></trkpt><trkpt lat="43.0108934" lon="11.8377212"><ele>542.0</ele><time>2026-05-02T13:03:16.684Z</time></trkpt><trkpt lat="43.0108429" lon="11.8376126"><ele>542.0</ele><time>2026-05-02T13:03:17.693Z</time></trkpt><trkpt lat="43.0107876" lon="11.8375071"><ele>542.0</ele><time>2026-05-02T13:03:18.706Z</time></trkpt><trkpt lat="43.0107239" lon="11.8374038"><ele>542.0</ele><time>2026-05-02T13:03:19.697Z</time></trkpt><trkpt lat="43.0106528" lon="11.8373101"><ele>544.0</ele><time>2026-05-02T13:03:20.695Z</time></trkpt><trkpt lat="43.0105758" lon="11.8372309"><ele>546.0</ele><time>2026-05-02T13:03:21.678Z</time></trkpt><trkpt lat="43.0105036" lon="11.8371472"><ele>548.0</ele><time>2026-05-02T13:03:22.7Z</time></trkpt><trkpt lat="43.0104423" lon="11.8370539"><ele>550.0</ele><time>2026-05-02T13:03:23.704Z</time></trkpt><trkpt lat="43.0103976" lon="11.8369575"><ele>552.0</ele><time>2026-05-02T13:03:24.709Z</time></trkpt><trkpt lat="43.0103695" lon="11.8368586"><ele>554.0</ele><time>2026-05-02T13:03:25.703Z</time></trkpt><trkpt lat="43.01036" lon="11.8367567"><ele>555.1428571428571</ele><time>2026-05-02T13:03:26.704Z</time></trkpt><trkpt lat="43.0103638" lon="11.8366535"><ele>556.2857142857142</ele><time>2026-05-02T13:03:27.701Z</time></trkpt><trkpt lat="43.0103877" lon="11.836556"><ele>557.4285714285714</ele><time>2026-05-02T13:03:28.702Z</time></trkpt><trkpt lat="43.0104333" lon="11.8364724"><ele>558.5714285714286</ele><time>2026-05-02T13:03:29.697Z</time></trkpt><trkpt lat="43.0104913" lon="11.8364243"><ele>559.7142857142858</ele><time>2026-05-02T13:03:30.701Z</time></trkpt><trkpt lat="43.0105612" lon="11.8364104"><ele>560.8571428571429</ele><time>2026-05-02T13:03:31.701Z</time></trkpt><trkpt lat="43.010633" lon="11.8364033"><ele>562.0</ele><time>2026-05-02T13:03:32.698Z</time></trkpt><trkpt lat="43.0107014" lon="11.8363833"><ele>562.0</ele><time>2026-05-02T13:03:33.686Z</time></trkpt><trkpt lat="43.0108071" lon="11.8363144"><ele>562.0</ele><time>2026-05-02T13:03:35.689Z</time></trkpt><trkpt lat="43.0107916" lon="11.8361838"><ele>562.0</ele><time>2026-05-02T13:03:37.693Z</time></trkpt><trkpt lat="43.0106707" lon="11.8361011"><ele>562.0</ele><time>2026-05-02T13:03:39.692Z</time></trkpt><trkpt lat="43.0105975" lon="11.8360817"><ele>562.0</ele><time>2026-05-02T13:03:40.688Z</time></trkpt><trkpt lat="43.0105236" lon="11.8360596"><ele>562.0</ele><time>2026-05-02T13:03:41.691Z</time></trkpt><trkpt lat="43.0104546" lon="11.8360345"><ele>562.0</ele><time>2026-05-02T13:03:42.695Z</time></trkpt><trkpt lat="43.0103806" lon="11.8360059"><ele>562.0</ele><time>2026-05-02T13:03:43.698Z</time></trkpt><trkpt lat="43.0102989" lon="11.8359808"><ele>562.0</ele><time>2026-05-02T13:03:44.71Z</time></trkpt><trkpt lat="43.0102163" lon="11.8359448"><ele>562.0</ele><time>2026-05-02T13:03:45.697Z</time></trkpt><trkpt lat="43.0101419" lon="11.8358878"><ele>562.0</ele><time>2026-05-02T13:03:46.693Z</time></trkpt><trkpt lat="43.01008" lon="11.8358084"><ele>564.0</ele><time>2026-05-02T13:03:47.688Z</time></trkpt><trkpt lat="43.0100286" lon="11.8357144"><ele>566.0</ele><time>2026-05-02T13:03:48.714Z</time></trkpt><trkpt lat="43.0099905" lon="11.8356077"><ele>568.0</ele><time>2026-05-02T13:03:49.683Z</time></trkpt><trkpt lat="43.0099692" lon="11.835503"><ele>570.0</ele><time>2026-05-02T13:03:50.694Z</time></trkpt><trkpt lat="43.0099615" lon="11.8354023"><ele>572.0</ele><time>2026-05-02T13:03:51.695Z</time></trkpt><trkpt lat="43.0099739" lon="11.8353003"><ele>574.0</ele><time>2026-05-02T13:03:52.695Z</time></trkpt><trkpt lat="43.0099929" lon="11.8351886"><ele>575.6</ele><time>2026-05-02T13:03:53.692Z</time></trkpt><trkpt lat="43.0100098" lon="11.8350694"><ele>577.2</ele><time>2026-05-02T13:03:54.686Z</time></trkpt><trkpt lat="43.0100181" lon="11.8349467"><ele>578.8000000000001</ele><time>2026-05-02T13:03:55.698Z</time></trkpt><trkpt lat="43.0100136" lon="11.8348263"><ele>580.4</ele><time>2026-05-02T13:03:56.708Z</time></trkpt><trkpt lat="43.0100089" lon="11.8346971"><ele>582.0</ele><time>2026-05-02T13:03:57.693Z</time></trkpt><trkpt lat="43.0100008" lon="11.8345748"><ele>582.0</ele><time>2026-05-02T13:03:58.688Z</time></trkpt><trkpt lat="43.0099986" lon="11.8344628"><ele>582.0</ele><time>2026-05-02T13:03:59.702Z</time></trkpt><trkpt lat="43.010007" lon="11.8343478"><ele>582.0</ele><time>2026-05-02T13:04:00.7Z</time></trkpt><trkpt lat="43.0100159" lon="11.8342212"><ele>582.0</ele><time>2026-05-02T13:04:01.699Z</time></trkpt><trkpt lat="43.0100277" lon="11.8340839"><ele>582.0</ele><time>2026-05-02T13:04:02.705Z</time></trkpt><trkpt lat="43.0100526" lon="11.8339384"><ele>582.4</ele><time>2026-05-02T13:04:03.69Z</time></trkpt><trkpt lat="43.0100794" lon="11.833792"><ele>582.8000000000001</ele><time>2026-05-02T13:04:04.696Z</time></trkpt><trkpt lat="43.0101089" lon="11.8336474"><ele>583.2</ele><time>2026-05-02T13:04:05.701Z</time></trkpt><trkpt lat="43.0101347" lon="11.8335143"><ele>583.6</ele><time>2026-05-02T13:04:06.695Z</time></trkpt><trkpt lat="43.0101446" lon="11.8333961"><ele>584.0</ele><time>2026-05-02T13:04:07.698Z</time></trkpt><trkpt lat="43.0101474" lon="11.8332984"><ele>584.1666666666666</ele><time>2026-05-02T13:04:08.698Z</time></trkpt><trkpt lat="43.0101355" lon="11.8331999"><ele>584.3333333333333</ele><time>2026-05-02T13:04:09.702Z</time></trkpt><trkpt lat="43.0101192" lon="11.8330921"><ele>584.5</ele><time>2026-05-02T13:04:10.696Z</time></trkpt><trkpt lat="43.010098" lon="11.8329911"><ele>584.6666666666666</ele><time>2026-05-02T13:04:11.682Z</time></trkpt><trkpt lat="43.0100543" lon="11.832915"><ele>584.8333333333334</ele><time>2026-05-02T13:04:12.686Z</time></trkpt><trkpt lat="43.0100035" lon="11.8328439"><ele>585.0</ele><time>2026-05-02T13:04:13.694Z</time></trkpt><trkpt lat="43.0099096" lon="11.8327766"><ele>586.1666666666666</ele><time>2026-05-02T13:04:15.68Z</time></trkpt><trkpt lat="43.0098225" lon="11.8327546"><ele>587.3333333333334</ele><time>2026-05-02T13:04:17.697Z</time></trkpt><trkpt lat="43.0097275" lon="11.8327265"><ele>588.5</ele><time>2026-05-02T13:04:19.708Z</time></trkpt><trkpt lat="43.0096091" lon="11.8326922"><ele>589.6666666666667</ele><time>2026-05-02T13:04:21.703Z</time></trkpt><trkpt lat="43.0095432" lon="11.8326693"><ele>590.8333333333334</ele><time>2026-05-02T13:04:22.697Z</time></trkpt><trkpt lat="43.0094767" lon="11.8326413"><ele>592.0</ele><time>2026-05-02T13:04:23.711Z</time></trkpt><trkpt lat="43.0094108" lon="11.8326024"><ele>592.6666666666667</ele><time>2026-05-02T13:04:24.702Z</time></trkpt><trkpt lat="43.0093434" lon="11.8325458"><ele>593.3333333333334</ele><time>2026-05-02T13:04:25.703Z</time></trkpt><trkpt lat="43.0092808" lon="11.8324688"><ele>594.0</ele><time>2026-05-02T13:04:26.698Z</time></trkpt><trkpt lat="43.0092262" lon="11.8323784"><ele>594.6666666666666</ele><time>2026-05-02T13:04:27.697Z</time></trkpt><trkpt lat="43.0091764" lon="11.8322777"><ele>595.3333333333333</ele><time>2026-05-02T13:04:28.705Z</time></trkpt><trkpt lat="43.009123" lon="11.8321728"><ele>596.0</ele><time>2026-05-02T13:04:29.7Z</time></trkpt><trkpt lat="43.0090752" lon="11.8320525"><ele>598.4</ele><time>2026-05-02T13:04:30.693Z</time></trkpt><trkpt lat="43.0090317" lon="11.8319285"><ele>600.8</ele><time>2026-05-02T13:04:31.703Z</time></trkpt><trkpt lat="43.0089812" lon="11.8318063"><ele>603.1999999999999</ele><time>2026-05-02T13:04:32.7Z</time></trkpt><trkpt lat="43.008925" lon="11.8317141"><ele>605.6</ele><time>2026-05-02T13:04:33.694Z</time></trkpt><trkpt lat="43.0088617" lon="11.8316525"><ele>608.0</ele><time>2026-05-02T13:04:34.692Z</time></trkpt><trkpt lat="43.0087836" lon="11.8316238"><ele>608.0</ele><time>2026-05-02T13:04:35.701Z</time></trkpt><trkpt lat="43.0086948" lon="11.8316049"><ele>608.0</ele><time>2026-05-02T13:04:36.707Z</time></trkpt><trkpt lat="43.008599" lon="11.831583"><ele>608.0</ele><time>2026-05-02T13:04:37.689Z</time></trkpt><trkpt lat="43.0085091" lon="11.8315442"><ele>608.0</ele><time>2026-05-02T13:04:38.693Z</time></trkpt><trkpt lat="43.0084441" lon="11.8314768"><ele>608.0</ele><time>2026-05-02T13:04:39.705Z</time></trkpt><trkpt lat="43.0084045" lon="11.8313907"><ele>608.0</ele><time>2026-05-02T13:04:40.703Z</time></trkpt><trkpt lat="43.0083801" lon="11.83128"><ele>608.0</ele><time>2026-05-02T13:04:41.696Z</time></trkpt><trkpt lat="43.00835" lon="11.831157"><ele>608.0</ele><time>2026-05-02T13:04:42.696Z</time></trkpt><trkpt lat="43.0083148" lon="11.8310246"><ele>608.0</ele><time>2026-05-02T13:04:43.685Z</time></trkpt><trkpt lat="43.0082727" lon="11.8308887"><ele>608.0</ele><time>2026-05-02T13:04:44.686Z</time></trkpt><trkpt lat="43.0082278" lon="11.8307555"><ele>608.0</ele><time>2026-05-02T13:04:45.693Z</time></trkpt><trkpt lat="43.008185" lon="11.83062"><ele>611.1999999999999</ele><time>2026-05-02T13:04:46.711Z</time></trkpt><trkpt lat="43.0081436" lon="11.8304915"><ele>614.4</ele><time>2026-05-02T13:04:47.695Z</time></trkpt><trkpt lat="43.008099" lon="11.830353"><ele>617.5999999999999</ele><time>2026-05-02T13:04:48.712Z</time></trkpt><trkpt lat="43.0080533" lon="11.8302105"><ele>620.8</ele><time>2026-05-02T13:04:49.701Z</time></trkpt><trkpt lat="43.0080063" lon="11.8300591"><ele>624.0</ele><time>2026-05-02T13:04:50.711Z</time></trkpt><trkpt lat="43.0079597" lon="11.8299014"><ele>624.5</ele><time>2026-05-02T13:04:51.703Z</time></trkpt><trkpt lat="43.0079159" lon="11.8297444"><ele>625.0</ele><time>2026-05-02T13:04:52.706Z</time></trkpt><trkpt lat="43.0078806" lon="11.8295934"><ele>625.5</ele><time>2026-05-02T13:04:53.706Z</time></trkpt><trkpt lat="43.0078592" lon="11.8294478"><ele>626.0</ele><time>2026-05-02T13:04:54.708Z</time></trkpt><trkpt lat="43.0078557" lon="11.8293081"><ele>626.8</ele><time>2026-05-02T13:04:55.697Z</time></trkpt><trkpt lat="43.0078563" lon="11.8291613"><ele>627.6</ele><time>2026-05-02T13:04:56.705Z</time></trkpt><trkpt lat="43.0078518" lon="11.8290129"><ele>628.4</ele><time>2026-05-02T13:04:57.704Z</time></trkpt><trkpt lat="43.0078654" lon="11.8288868"><ele>629.2</ele><time>2026-05-02T13:04:58.704Z</time></trkpt><trkpt lat="43.0079084" lon="11.8287892"><ele>630.0</ele><time>2026-05-02T13:04:59.706Z</time></trkpt><trkpt lat="43.0079803" lon="11.8287156"><ele>630.0</ele><time>2026-05-02T13:05:00.699Z</time></trkpt><trkpt lat="43.0080654" lon="11.8286392"><ele>630.0</ele><time>2026-05-02T13:05:01.693Z</time></trkpt><trkpt lat="43.0081354" lon="11.8285497"><ele>630.0</ele><time>2026-05-02T13:05:02.692Z</time></trkpt><trkpt lat="43.0081871" lon="11.8284428"><ele>630.0</ele><time>2026-05-02T13:05:03.694Z</time></trkpt><trkpt lat="43.0082291" lon="11.8283237"><ele>630.0</ele><time>2026-05-02T13:05:04.692Z</time></trkpt><trkpt lat="43.0082429" lon="11.8282242"><ele>631.5</ele><time>2026-05-02T13:05:05.683Z</time></trkpt><trkpt lat="43.0082372" lon="11.8280478"><ele>633.0</ele><time>2026-05-02T13:05:07.683Z</time></trkpt><trkpt lat="43.0082303" lon="11.8279553"><ele>634.5</ele><time>2026-05-02T13:05:08.696Z</time></trkpt><trkpt lat="43.0082134" lon="11.8278673"><ele>636.0</ele><time>2026-05-02T13:05:09.699Z</time></trkpt><trkpt lat="43.0081765" lon="11.827787"><ele>637.5</ele><time>2026-05-02T13:05:10.697Z</time></trkpt><trkpt lat="43.0081142" lon="11.8277095"><ele>639.0</ele><time>2026-05-02T13:05:11.688Z</time></trkpt><trkpt lat="43.0080424" lon="11.8276154"><ele>639.0</ele><time>2026-05-02T13:05:12.692Z</time></trkpt><trkpt lat="43.0079631" lon="11.827502"><ele>639.0</ele><time>2026-05-02T13:05:13.684Z</time></trkpt><trkpt lat="43.0078885" lon="11.8273716"><ele>639.0</ele><time>2026-05-02T13:05:14.701Z</time></trkpt><trkpt lat="43.0078349" lon="11.8272232"><ele>639.0</ele><time>2026-05-02T13:05:15.694Z</time></trkpt><trkpt lat="43.0078069" lon="11.8270562"><ele>639.0</ele><time>2026-05-02T13:05:16.703Z</time></trkpt><trkpt lat="43.0077966" lon="11.8268774"><ele>639.0</ele><time>2026-05-02T13:05:17.698Z</time></trkpt><trkpt lat="43.0077927" lon="11.8267044"><ele>639.0</ele><time>2026-05-02T13:05:18.686Z</time></trkpt><trkpt lat="43.0077873" lon="11.8265527"><ele>639.0</ele><time>2026-05-02T13:05:19.7Z</time></trkpt><trkpt lat="43.007774" lon="11.8264208"><ele>638.6</ele><time>2026-05-02T13:05:20.701Z</time></trkpt><trkpt lat="43.0077488" lon="11.826296"><ele>638.2</ele><time>2026-05-02T13:05:21.695Z</time></trkpt><trkpt lat="43.0077102" lon="11.8261675"><ele>637.8000000000001</ele><time>2026-05-02T13:05:22.701Z</time></trkpt><trkpt lat="43.0076673" lon="11.8260401"><ele>637.4</ele><time>2026-05-02T13:05:23.696Z</time></trkpt><trkpt lat="43.0076322" lon="11.8258892"><ele>637.0</ele><time>2026-05-02T13:05:24.707Z</time></trkpt><trkpt lat="43.0076278" lon="11.8257193"><ele>636.2</ele><time>2026-05-02T13:05:25.69Z</time></trkpt><trkpt lat="43.0076464" lon="11.8255477"><ele>635.4000000000001</ele><time>2026-05-02T13:05:26.699Z</time></trkpt><trkpt lat="43.0076665" lon="11.8253999"><ele>634.5999999999999</ele><time>2026-05-02T13:05:27.695Z</time></trkpt><trkpt lat="43.0076832" lon="11.825275"><ele>633.8</ele><time>2026-05-02T13:05:28.698Z</time></trkpt><trkpt lat="43.0076761" lon="11.825178"><ele>633.0</ele><time>2026-05-02T13:05:29.72Z</time></trkpt><trkpt lat="43.007559" lon="11.8251103"><ele>632.25</ele><time>2026-05-02T13:05:31.686Z</time></trkpt><trkpt lat="43.0074868" lon="11.8251208"><ele>631.5</ele><time>2026-05-02T13:05:32.693Z</time></trkpt><trkpt lat="43.0074137" lon="11.825157"><ele>630.75</ele><time>2026-05-02T13:05:33.691Z</time></trkpt><trkpt lat="43.0073518" lon="11.8251792"><ele>630.0</ele><time>2026-05-02T13:05:34.694Z</time></trkpt><trkpt lat="43.0079084" lon="11.8287892"><ele>630.0</ele><time>2026-05-02T13:04:59.706Z</time></trkpt><trkpt lat="43.0079803" lon="11.8287156"><ele>630.0</ele><time>2026-05-02T13:05:00.699Z</time></trkpt><trkpt lat="43.0080654" lon="11.8286392"><ele>630.0</ele><time>2026-05-02T13:05:01.693Z</time></trkpt><trkpt lat="43.0081354" lon="11.8285497"><ele>630.0</ele><time>2026-05-02T13:05:02.692Z</time></trkpt><trkpt lat="43.0081871" lon="11.8284428"><ele>630.0</ele><time>2026-05-02T13:05:03.694Z</time></trkpt><trkpt lat="43.0082291" lon="11.8283237"><ele>631.6666666666666</ele><time>2026-05-02T13:05:04.692Z</time></trkpt><trkpt lat="43.0082429" lon="11.8282242"><ele>633.3333333333334</ele><time>2026-05-02T13:05:05.683Z</time></trkpt><trkpt lat="43.0082372" lon="11.8280478"><ele>635.0</ele><time>2026-05-02T13:05:07.683Z</time></trkpt><trkpt lat="43.0082303" lon="11.8279553"><ele>636.6666666666667</ele><time>2026-05-02T13:05:08.696Z</time></trkpt><trkpt lat="43.0082134" lon="11.8278673"><ele>638.3333333333334</ele><time>2026-05-02T13:05:09.699Z</time></trkpt><trkpt lat="43.0081765" lon="11.827787"><ele>640.0</ele><time>2026-05-02T13:05:10.697Z</time></trkpt><trkpt lat="43.0081142" lon="11.8277095"><ele>639.75</ele><time>2026-05-02T13:05:11.688Z</time></trkpt><trkpt lat="43.0080424" lon="11.8276154"><ele>639.5</ele><time>2026-05-02T13:05:12.692Z</time></trkpt><trkpt lat="43.0079631" lon="11.827502"><ele>639.25</ele><time>2026-05-02T13:05:13.684Z</time></trkpt><trkpt lat="43.0078885" lon="11.8273716"><ele>639.0</ele><time>2026-05-02T13:05:14.701Z</time></trkpt><trkpt lat="43.0078349" lon="11.8272232"><ele>639.0</ele><time>2026-05-02T13:05:15.694Z</time></trkpt><trkpt lat="43.0078069" lon="11.8270562"><ele>639.0</ele><time>2026-05-02T13:05:16.703Z</time></trkpt><trkpt lat="43.0077966" lon="11.8268774"><ele>639.0</ele><time>2026-05-02T13:05:17.698Z</time></trkpt><trkpt lat="43.0077927" lon="11.8267044"><ele>639.0</ele><time>2026-05-02T13:05:18.686Z</time></trkpt><trkpt lat="43.0077873" lon="11.8265527"><ele>638.6</ele><time>2026-05-02T13:05:19.7Z</time></trkpt><trkpt lat="43.007774" lon="11.8264208"><ele>638.2</ele><time>2026-05-02T13:05:20.701Z</time></trkpt><trkpt lat="43.0077488" lon="11.826296"><ele>637.8000000000001</ele><time>2026-05-02T13:05:21.695Z</time></trkpt><trkpt lat="43.0077102" lon="11.8261675"><ele>637.4</ele><time>2026-05-02T13:05:22.701Z</time></trkpt><trkpt lat="43.0076673" lon="11.8260401"><ele>637.0</ele><time>2026-05-02T13:05:23.696Z</time></trkpt><trkpt lat="43.0076322" lon="11.8258892"><ele>636.0</ele><time>2026-05-02T13:05:24.707Z</time></trkpt><trkpt lat="43.0076278" lon="11.8257193"><ele>635.0</ele><time>2026-05-02T13:05:25.69Z</time></trkpt><trkpt lat="43.0076464" lon="11.8255477"><ele>634.0</ele><time>2026-05-02T13:05:26.699Z</time></trkpt><trkpt lat="43.0076665" lon="11.8253999"><ele>633.0</ele><time>2026-05-02T13:05:27.695Z</time></trkpt><trkpt lat="43.0076832" lon="11.825275"><ele>633.0</ele><time>2026-05-02T13:05:28.698Z</time></trkpt><trkpt lat="43.0076761" lon="11.825178"><ele>633.0</ele><time>2026-05-02T13:05:29.72Z</time></trkpt><trkpt lat="43.007559" lon="11.8251103"><ele>633.0</ele><time>2026-05-02T13:05:31.686Z</time></trkpt><trkpt lat="43.0074868" lon="11.8251208"><ele>633.0</ele><time>2026-05-02T13:05:32.693Z</time></trkpt><trkpt lat="43.0074137" lon="11.825157"><ele>633.0</ele><time>2026-05-02T13:05:33.691Z</time></trkpt><trkpt lat="43.0073518" lon="11.8251792"><ele>633.0</ele><time>2026-05-02T13:05:34.694Z</time></trkpt><trkpt lat="43.0073063" lon="11.8251092"><ele>635.6666666666666</ele><time>2026-05-02T13:05:36.683Z</time></trkpt><trkpt lat="43.007318" lon="11.8248566"><ele>638.3333333333333</ele><time>2026-05-02T13:05:38.692Z</time></trkpt><trkpt lat="43.0073308" lon="11.8246642"><ele>641.0</ele><time>2026-05-02T13:05:39.694Z</time></trkpt><trkpt lat="43.0073835" lon="11.8244824"><ele>641.0</ele><time>2026-05-02T13:05:40.691Z</time></trkpt><trkpt lat="43.0074458" lon="11.8243305"><ele>641.0</ele><time>2026-05-02T13:05:41.69Z</time></trkpt><trkpt lat="43.0075101" lon="11.8241852"><ele>641.0</ele><time>2026-05-02T13:05:42.682Z</time></trkpt><trkpt lat="43.0075971" lon="11.8240577"><ele>641.0</ele><time>2026-05-02T13:05:43.68Z</time></trkpt><trkpt lat="43.0076889" lon="11.8239491"><ele>641.1999999999999</ele><time>2026-05-02T13:05:44.716Z</time></trkpt><trkpt lat="43.0077789" lon="11.8238467"><ele>641.4</ele><time>2026-05-02T13:05:45.686Z</time></trkpt><trkpt lat="43.0078564" lon="11.8237465"><ele>641.6</ele><time>2026-05-02T13:05:46.682Z</time></trkpt><trkpt lat="43.0079222" lon="11.8236423"><ele>641.8</ele><time>2026-05-02T13:05:47.688Z</time></trkpt><trkpt lat="43.007968" lon="11.8235207"><ele>642.0</ele><time>2026-05-02T13:05:48.688Z</time></trkpt><trkpt lat="43.0080002" lon="11.8234012"><ele>642.0</ele><time>2026-05-02T13:05:49.684Z</time></trkpt><trkpt lat="43.0080321" lon="11.8233125"><ele>642.0</ele><time>2026-05-02T13:05:50.68Z</time></trkpt><trkpt lat="43.0081093" lon="11.8232397"><ele>642.0</ele><time>2026-05-02T13:05:52.699Z</time></trkpt><trkpt lat="43.00825" lon="11.823299"><ele>642.0</ele><time>2026-05-02T13:05:54.677Z</time></trkpt><trkpt lat="43.0083565" lon="11.823372"><ele>642.0</ele><time>2026-05-02T13:05:55.692Z</time></trkpt><trkpt lat="43.0084608" lon="11.8234483"><ele>639.6</ele><time>2026-05-02T13:05:56.694Z</time></trkpt><trkpt lat="43.0085582" lon="11.8235436"><ele>637.2</ele><time>2026-05-02T13:05:57.684Z</time></trkpt><trkpt lat="43.008644" lon="11.8236459"><ele>634.8</ele><time>2026-05-02T13:05:58.686Z</time></trkpt><trkpt lat="43.0087287" lon="11.8237303"><ele>632.4</ele><time>2026-05-02T13:05:59.695Z</time></trkpt><trkpt lat="43.0088198" lon="11.8237791"><ele>630.0</ele><time>2026-05-02T13:06:00.7Z</time></trkpt><trkpt lat="43.0089044" lon="11.8237952"><ele>630.0</ele><time>2026-05-02T13:06:01.69Z</time></trkpt><trkpt lat="43.0089937" lon="11.8237929"><ele>630.0</ele><time>2026-05-02T13:06:02.696Z</time></trkpt><trkpt lat="43.0090935" lon="11.8237575"><ele>630.0</ele><time>2026-05-02T13:06:03.693Z</time></trkpt><trkpt lat="43.0091959" lon="11.8237174"><ele>630.0</ele><time>2026-05-02T13:06:04.696Z</time></trkpt><trkpt lat="43.0092964" lon="11.8236937"><ele>630.0</ele><time>2026-05-02T13:06:05.69Z</time></trkpt><trkpt lat="43.0093773" lon="11.8237091"><ele>629.2</ele><time>2026-05-02T13:06:06.696Z</time></trkpt><trkpt lat="43.0094368" lon="11.8237486"><ele>628.4</ele><time>2026-05-02T13:06:07.684Z</time></trkpt><trkpt lat="43.009505" lon="11.8237844"><ele>627.6</ele><time>2026-05-02T13:06:08.696Z</time></trkpt><trkpt lat="43.0095912" lon="11.8238341"><ele>626.8</ele><time>2026-05-02T13:06:09.682Z</time></trkpt><trkpt lat="43.0096956" lon="11.8238934"><ele>626.0</ele><time>2026-05-02T13:06:10.692Z</time></trkpt><trkpt lat="43.0098065" lon="11.8239243"><ele>626.0</ele><time>2026-05-02T13:06:11.682Z</time></trkpt><trkpt lat="43.0099232" lon="11.8239237"><ele>626.0</ele><time>2026-05-02T13:06:12.687Z</time></trkpt><trkpt lat="43.0100442" lon="11.8239415"><ele>626.0</ele><time>2026-05-02T13:06:13.691Z</time></trkpt><trkpt lat="43.010168" lon="11.8239703"><ele>626.0</ele><time>2026-05-02T13:06:14.685Z</time></trkpt><trkpt lat="43.0102997" lon="11.8240041"><ele>625.6</ele><time>2026-05-02T13:06:15.689Z</time></trkpt><trkpt lat="43.0104233" lon="11.8240212"><ele>625.2</ele><time>2026-05-02T13:06:16.69Z</time></trkpt><trkpt lat="43.0105328" lon="11.824054"><ele>624.8</ele><time>2026-05-02T13:06:17.682Z</time></trkpt><trkpt lat="43.010629" lon="11.8241068"><ele>624.4</ele><time>2026-05-02T13:06:18.681Z</time></trkpt><trkpt lat="43.0107169" lon="11.8241872"><ele>624.0</ele><time>2026-05-02T13:06:19.688Z</time></trkpt><trkpt lat="43.0107977" lon="11.8242656"><ele>624.3333333333334</ele><time>2026-05-02T13:06:20.695Z</time></trkpt><trkpt lat="43.0108751" lon="11.8243042"><ele>624.6666666666666</ele><time>2026-05-02T13:06:21.694Z</time></trkpt><trkpt lat="43.0109771" lon="11.824233"><ele>625.0</ele><time>2026-05-02T13:06:23.694Z</time></trkpt><trkpt lat="43.0110022" lon="11.8241429"><ele>625.3333333333333</ele><time>2026-05-02T13:06:24.691Z</time></trkpt><trkpt lat="43.0110143" lon="11.8240351"><ele>625.6666666666666</ele><time>2026-05-02T13:06:25.693Z</time></trkpt><trkpt lat="43.0110089" lon="11.8239185"><ele>626.0</ele><time>2026-05-02T13:06:26.685Z</time></trkpt><trkpt lat="43.0109823" lon="11.8237906"><ele>626.0</ele><time>2026-05-02T13:06:27.686Z</time></trkpt><trkpt lat="43.0109463" lon="11.8236689"><ele>626.0</ele><time>2026-05-02T13:06:28.689Z</time></trkpt><trkpt lat="43.0109238" lon="11.8235325"><ele>626.0</ele><time>2026-05-02T13:06:29.678Z</time></trkpt><trkpt lat="43.0109157" lon="11.8234089"><ele>626.0</ele><time>2026-05-02T13:06:30.693Z</time></trkpt><trkpt lat="43.0109281" lon="11.8232893"><ele>626.0</ele><time>2026-05-02T13:06:31.694Z</time></trkpt><trkpt lat="43.0109652" lon="11.8231778"><ele>628.6</ele><time>2026-05-02T13:06:32.698Z</time></trkpt><trkpt lat="43.0110297" lon="11.8230734"><ele>631.2</ele><time>2026-05-02T13:06:33.675Z</time></trkpt><trkpt lat="43.0111066" lon="11.8229799"><ele>633.8</ele><time>2026-05-02T13:06:34.686Z</time></trkpt><trkpt lat="43.0111877" lon="11.8228857"><ele>636.4</ele><time>2026-05-02T13:06:35.688Z</time></trkpt><trkpt lat="43.0112718" lon="11.8227891"><ele>639.0</ele><time>2026-05-02T13:06:36.693Z</time></trkpt><trkpt lat="43.0113576" lon="11.8227103"><ele>639.0</ele><time>2026-05-02T13:06:37.696Z</time></trkpt><trkpt lat="43.0114505" lon="11.8226748"><ele>639.0</ele><time>2026-05-02T13:06:38.691Z</time></trkpt><trkpt lat="43.011529" lon="11.8226732"><ele>639.0</ele><time>2026-05-02T13:06:39.688Z</time></trkpt><trkpt lat="43.0115954" lon="11.8227096"><ele>639.0</ele><time>2026-05-02T13:06:40.682Z</time></trkpt><trkpt lat="43.0116766" lon="11.8227488"><ele>639.0</ele><time>2026-05-02T13:06:41.689Z</time></trkpt><trkpt lat="43.0117635" lon="11.8227708"><ele>639.0</ele><time>2026-05-02T13:06:42.692Z</time></trkpt><trkpt lat="43.0118595" lon="11.8227837"><ele>639.5</ele><time>2026-05-02T13:06:43.685Z</time></trkpt><trkpt lat="43.0119567" lon="11.8227937"><ele>640.0</ele><time>2026-05-02T13:06:44.678Z</time></trkpt><trkpt lat="43.0120544" lon="11.8227868"><ele>640.5</ele><time>2026-05-02T13:06:45.682Z</time></trkpt><trkpt lat="43.0121341" lon="11.8227463"><ele>641.0</ele><time>2026-05-02T13:06:46.688Z</time></trkpt><trkpt lat="43.0122084" lon="11.8226959"><ele>641.5</ele><time>2026-05-02T13:06:47.685Z</time></trkpt><trkpt lat="43.0122777" lon="11.8226331"><ele>642.0</ele><time>2026-05-02T13:06:48.686Z</time></trkpt><trkpt lat="43.0123567" lon="11.8225867"><ele>642.0</ele><time>2026-05-02T13:06:49.693Z</time></trkpt><trkpt lat="43.0124275" lon="11.8225309"><ele>642.0</ele><time>2026-05-02T13:06:50.685Z</time></trkpt><trkpt lat="43.012504" lon="11.822449"><ele>642.0</ele><time>2026-05-02T13:06:51.687Z</time></trkpt><trkpt lat="43.0125761" lon="11.8223753"><ele>642.0</ele><time>2026-05-02T13:06:52.689Z</time></trkpt><trkpt lat="43.0126569" lon="11.8223096"><ele>642.0</ele><time>2026-05-02T13:06:53.688Z</time></trkpt><trkpt lat="43.012744" lon="11.8222588"><ele>641.1666666666666</ele><time>2026-05-02T13:06:54.69Z</time></trkpt><trkpt lat="43.0128235" lon="11.8222383"><ele>640.3333333333334</ele><time>2026-05-02T13:06:55.69Z</time></trkpt><trkpt lat="43.0128882" lon="11.8222451"><ele>639.5</ele><time>2026-05-02T13:06:56.687Z</time></trkpt><trkpt lat="43.0129713" lon="11.8222619"><ele>638.6666666666667</ele><time>2026-05-02T13:06:58.679Z</time></trkpt><trkpt lat="43.013046" lon="11.822228"><ele>637.8333333333334</ele><time>2026-05-02T13:07:07.698Z</time></trkpt><trkpt lat="43.0130997" lon="11.8221428"><ele>637.0</ele><time>2026-05-02T13:07:09.688Z</time></trkpt><trkpt lat="43.0131939" lon="11.8220347"><ele>637.0</ele><time>2026-05-02T13:07:11.681Z</time></trkpt><trkpt lat="43.0132699" lon="11.8219152"><ele>637.0</ele><time>2026-05-02T13:07:13.685Z</time></trkpt><trkpt lat="43.0132544" lon="11.8217854"><ele>637.0</ele><time>2026-05-02T13:07:15.7Z</time></trkpt><trkpt lat="43.0132087" lon="11.8216919"><ele>637.0</ele><time>2026-05-02T13:07:16.688Z</time></trkpt><trkpt lat="43.0131549" lon="11.8215885"><ele>637.0</ele><time>2026-05-02T13:07:17.689Z</time></trkpt><trkpt lat="43.0131094" lon="11.8214827"><ele>639.1666666666667</ele><time>2026-05-02T13:07:18.686Z</time></trkpt><trkpt lat="43.0130859" lon="11.8213812"><ele>641.3333333333334</ele><time>2026-05-02T13:07:19.688Z</time></trkpt><trkpt lat="43.0130759" lon="11.821291"><ele>643.5</ele><time>2026-05-02T13:07:20.691Z</time></trkpt><trkpt lat="43.013083" lon="11.821186"><ele>645.6666666666666</ele><time>2026-05-02T13:07:21.695Z</time></trkpt><trkpt lat="43.013087" lon="11.8210531"><ele>647.8333333333333</ele><time>2026-05-02T13:07:22.696Z</time></trkpt><trkpt lat="43.0130978" lon="11.8209139"><ele>650.0</ele><time>2026-05-02T13:07:23.695Z</time></trkpt><trkpt lat="43.0131333" lon="11.8207851"><ele>653.0</ele><time>2026-05-02T13:07:24.698Z</time></trkpt><trkpt lat="43.0131845" lon="11.8206742"><ele>656.0</ele><time>2026-05-02T13:07:25.694Z</time></trkpt><trkpt lat="43.0132235" lon="11.8205736"><ele>659.0</ele><time>2026-05-02T13:07:26.683Z</time></trkpt><trkpt lat="43.0132154" lon="11.8204311"><ele>662.0</ele><time>2026-05-02T13:07:28.689Z</time></trkpt><trkpt lat="43.0130787" lon="11.8203448"><ele>665.0</ele><time>2026-05-02T13:07:30.692Z</time></trkpt><trkpt lat="43.0129605" lon="11.8203013"><ele>665.0</ele><time>2026-05-02T13:07:31.675Z</time></trkpt><trkpt lat="43.0128425" lon="11.8202504"><ele>665.0</ele><time>2026-05-02T13:07:32.691Z</time></trkpt><trkpt lat="43.0127243" lon="11.8201906"><ele>665.0</ele><time>2026-05-02T13:07:33.682Z</time></trkpt><trkpt lat="43.0125929" lon="11.8200909"><ele>665.0</ele><time>2026-05-02T13:07:34.694Z</time></trkpt><trkpt lat="43.012461" lon="11.8199872"><ele>672.0</ele><time>2026-05-02T13:07:35.686Z</time></trkpt><trkpt lat="43.0123225" lon="11.819892"><ele>679.0</ele><time>2026-05-02T13:07:36.695Z</time></trkpt><trkpt lat="43.0121811" lon="11.8198035"><ele>686.0</ele><time>2026-05-02T13:07:37.686Z</time></trkpt><trkpt lat="43.0120587" lon="11.8197257"><ele>693.0</ele><time>2026-05-02T13:07:38.7Z</time></trkpt><trkpt lat="43.0119834" lon="11.8196633"><ele>693.0</ele><time>2026-05-02T13:07:39.683Z</time></trkpt><trkpt lat="43.0119636" lon="11.8195435"><ele>693.0</ele><time>2026-05-02T13:07:41.693Z</time></trkpt><trkpt lat="43.0120579" lon="11.8193754"><ele>693.0</ele><time>2026-05-02T13:07:43.698Z</time></trkpt><trkpt lat="43.0121233" lon="11.819238"><ele>693.0</ele><time>2026-05-02T13:07:44.677Z</time></trkpt><trkpt lat="43.0121919" lon="11.8190933"><ele>695.8</ele><time>2026-05-02T13:07:45.692Z</time></trkpt><trkpt lat="43.0122581" lon="11.8189542"><ele>698.5999999999999</ele><time>2026-05-02T13:07:46.693Z</time></trkpt><trkpt lat="43.0123162" lon="11.8188156"><ele>701.4000000000001</ele><time>2026-05-02T13:07:47.693Z</time></trkpt><trkpt lat="43.0123568" lon="11.818682"><ele>704.2</ele><time>2026-05-02T13:07:48.696Z</time></trkpt><trkpt lat="43.0123554" lon="11.8185852"><ele>707.0</ele><time>2026-05-02T13:07:49.685Z</time></trkpt><trkpt lat="43.012316" lon="11.8185143"><ele>708.6666666666666</ele><time>2026-05-02T13:07:50.698Z</time></trkpt><trkpt lat="43.0122419" lon="11.8184502"><ele>710.3333333333333</ele><time>2026-05-02T13:07:51.688Z</time></trkpt><trkpt lat="43.0121807" lon="11.8183742"><ele>712.0</ele><time>2026-05-02T13:07:52.677Z</time></trkpt><trkpt lat="43.0121184" lon="11.8182898"><ele>713.6666666666666</ele><time>2026-05-02T13:07:53.691Z</time></trkpt><trkpt lat="43.0120903" lon="11.8181957"><ele>715.3333333333334</ele><time>2026-05-02T13:07:54.691Z</time></trkpt><trkpt lat="43.0120879" lon="11.8181042"><ele>717.0</ele><time>2026-05-02T13:07:55.688Z</time></trkpt><trkpt lat="43.0121086" lon="11.8180096"><ele>717.0</ele><time>2026-05-02T13:07:56.694Z</time></trkpt><trkpt lat="43.0121282" lon="11.8179079"><ele>717.0</ele><time>2026-05-02T13:07:57.694Z</time></trkpt><trkpt lat="43.0121318" lon="11.8177977"><ele>717.0</ele><time>2026-05-02T13:07:58.678Z</time></trkpt><trkpt lat="43.0121247" lon="11.8176848"><ele>717.0</ele><time>2026-05-02T13:07:59.687Z</time></trkpt><trkpt lat="43.0121084" lon="11.8175859"><ele>717.0</ele><time>2026-05-02T13:08:00.701Z</time></trkpt><trkpt lat="43.0121003" lon="11.8174828"><ele>717.0</ele><time>2026-05-02T13:08:02.691Z</time></trkpt><trkpt lat="43.0120775" lon="11.8173999"><ele>718.6</ele><time>2026-05-02T13:08:05.682Z</time></trkpt><trkpt lat="43.0120641" lon="11.8173116"><ele>720.2</ele><time>2026-05-02T13:08:07.694Z</time></trkpt><trkpt lat="43.0120657" lon="11.8171343"><ele>721.8</ele><time>2026-05-02T13:08:09.686Z</time></trkpt><trkpt lat="43.0120828" lon="11.8170302"><ele>723.4</ele><time>2026-05-02T13:08:10.689Z</time></trkpt><trkpt lat="43.0121217" lon="11.8169104"><ele>725.0</ele><time>2026-05-02T13:08:11.688Z</time></trkpt><trkpt lat="43.0121728" lon="11.8167927"><ele>726.6</ele><time>2026-05-02T13:08:12.69Z</time></trkpt><trkpt lat="43.012217" lon="11.8166907"><ele>728.2</ele><time>2026-05-02T13:08:13.68Z</time></trkpt><trkpt lat="43.0122388" lon="11.8165908"><ele>729.8</ele><time>2026-05-02T13:08:14.689Z</time></trkpt><trkpt lat="43.0122532" lon="11.8164989"><ele>731.4</ele><time>2026-05-02T13:08:15.684Z</time></trkpt><trkpt lat="43.0122043" lon="11.8163475"><ele>733.0</ele><time>2026-05-02T13:08:17.692Z</time></trkpt><trkpt lat="43.0121197" lon="11.8162426"><ele>733.0</ele><time>2026-05-02T13:08:18.703Z</time></trkpt><trkpt lat="43.0120268" lon="11.816128"><ele>733.0</ele><time>2026-05-02T13:08:19.695Z</time></trkpt><trkpt lat="43.0119263" lon="11.8159999"><ele>733.0</ele><time>2026-05-02T13:08:20.691Z</time></trkpt><trkpt lat="43.0118312" lon="11.8158544"><ele>733.0</ele><time>2026-05-02T13:08:21.697Z</time></trkpt><trkpt lat="43.0117432" lon="11.8157038"><ele>737.4</ele><time>2026-05-02T13:08:22.688Z</time></trkpt><trkpt lat="43.0116521" lon="11.8155673"><ele>741.8</ele><time>2026-05-02T13:08:23.693Z</time></trkpt><trkpt lat="43.0115693" lon="11.8154659"><ele>746.2</ele><time>2026-05-02T13:08:24.705Z</time></trkpt><trkpt lat="43.0115185" lon="11.8153956"><ele>750.6</ele><time>2026-05-02T13:08:25.683Z</time></trkpt><trkpt lat="43.011492" lon="11.8153086"><ele>755.0</ele><time>2026-05-02T13:08:26.69Z</time></trkpt><trkpt lat="43.0114972" lon="11.8151841"><ele>757.25</ele><time>2026-05-02T13:08:27.69Z</time></trkpt><trkpt lat="43.0115138" lon="11.8150316"><ele>759.5</ele><time>2026-05-02T13:08:28.679Z</time></trkpt><trkpt lat="43.0115164" lon="11.8148617"><ele>761.75</ele><time>2026-05-02T13:08:29.694Z</time></trkpt><trkpt lat="43.0115173" lon="11.8146788"><ele>764.0</ele><time>2026-05-02T13:08:30.691Z</time></trkpt><trkpt lat="43.0115186" lon="11.8144929"><ele>765.4000000000001</ele><time>2026-05-02T13:08:31.7Z</time></trkpt><trkpt lat="43.0115108" lon="11.8143143"><ele>766.8</ele><time>2026-05-02T13:08:32.699Z</time></trkpt><trkpt lat="43.0115094" lon="11.8141527"><ele>768.2</ele><time>2026-05-02T13:08:33.689Z</time></trkpt><trkpt lat="43.0115198" lon="11.8140366"><ele>769.5999999999999</ele><time>2026-05-02T13:08:34.69Z</time></trkpt><trkpt lat="43.011529" lon="11.8138828"><ele>771.0</ele><time>2026-05-02T13:08:36.696Z</time></trkpt><trkpt lat="43.0114949" lon="11.8136997"><ele>771.0</ele><time>2026-05-02T13:08:38.683Z</time></trkpt><trkpt lat="43.0114604" lon="11.8135992"><ele>771.0</ele><time>2026-05-02T13:08:39.694Z</time></trkpt><trkpt lat="43.0114085" lon="11.8134899"><ele>771.0</ele><time>2026-05-02T13:08:40.701Z</time></trkpt><trkpt lat="43.0113407" lon="11.8133779"><ele>771.0</ele><time>2026-05-02T13:08:41.696Z</time></trkpt><trkpt lat="43.0112681" lon="11.8132664"><ele>771.0</ele><time>2026-05-02T13:08:42.692Z</time></trkpt><trkpt lat="43.0112042" lon="11.8131516"><ele>770.6666666666666</ele><time>2026-05-02T13:08:43.693Z</time></trkpt><trkpt lat="43.0111497" lon="11.8130414"><ele>770.3333333333333</ele><time>2026-05-02T13:08:44.69Z</time></trkpt><trkpt lat="43.0111201" lon="11.8129452"><ele>770.0</ele><time>2026-05-02T13:08:45.677Z</time></trkpt><trkpt lat="43.0111151" lon="11.8128476"><ele>769.6666666666666</ele><time>2026-05-02T13:08:46.695Z</time></trkpt><trkpt lat="43.0111329" lon="11.8127507"><ele>769.3333333333333</ele><time>2026-05-02T13:08:47.681Z</time></trkpt><trkpt lat="43.0111777" lon="11.8126495"><ele>769.0</ele><time>2026-05-02T13:08:48.692Z</time></trkpt><trkpt lat="43.0112434" lon="11.8125502"><ele>769.6666666666666</ele><time>2026-05-02T13:08:49.679Z</time></trkpt><trkpt lat="43.0113095" lon="11.8124576"><ele>770.3333333333333</ele><time>2026-05-02T13:08:50.683Z</time></trkpt><trkpt lat="43.0113649" lon="11.8123615"><ele>771.0</ele><time>2026-05-02T13:08:51.681Z</time></trkpt><trkpt lat="43.0113937" lon="11.8122572"><ele>771.6666666666667</ele><time>2026-05-02T13:08:52.687Z</time></trkpt><trkpt lat="43.0114082" lon="11.8121498"><ele>772.3333333333334</ele><time>2026-05-02T13:08:53.678Z</time></trkpt><trkpt lat="43.011402" lon="11.8120421"><ele>773.0</ele><time>2026-05-02T13:08:54.684Z</time></trkpt><trkpt lat="43.0114247" lon="11.8119342"><ele>773.0000000000001</ele><time>2026-05-02T13:08:55.673Z</time></trkpt><trkpt lat="43.0114713" lon="11.811838"><ele>773.0</ele><time>2026-05-02T13:08:56.693Z</time></trkpt><trkpt lat="43.0115272" lon="11.8117552"><ele>773.0</ele><time>2026-05-02T13:08:57.688Z</time></trkpt><trkpt lat="43.0115884" lon="11.811676"><ele>773.0</ele><time>2026-05-02T13:08:58.684Z</time></trkpt><trkpt lat="43.0116601" lon="11.8115877"><ele>773.0000000000001</ele><time>2026-05-02T13:08:59.687Z</time></trkpt><trkpt lat="43.0117304" lon="11.811491"><ele>773.0</ele><time>2026-05-02T13:09:00.696Z</time></trkpt><trkpt lat="43.0118062" lon="11.8113706"><ele>770.2</ele><time>2026-05-02T13:09:01.68Z</time></trkpt><trkpt lat="43.0118953" lon="11.8112438"><ele>767.4</ele><time>2026-05-02T13:09:02.689Z</time></trkpt><trkpt lat="43.0119714" lon="11.8111352"><ele>764.6</ele><time>2026-05-02T13:09:03.685Z</time></trkpt><trkpt lat="43.0120426" lon="11.8110398"><ele>761.8000000000001</ele><time>2026-05-02T13:09:04.688Z</time></trkpt><trkpt lat="43.0120968" lon="11.8109926"><ele>759.0</ele><time>2026-05-02T13:09:05.683Z</time></trkpt><trkpt lat="43.0121634" lon="11.8109598"><ele>759.0</ele><time>2026-05-02T13:09:06.685Z</time></trkpt><trkpt lat="43.0122267" lon="11.8109324"><ele>759.0</ele><time>2026-05-02T13:09:07.687Z</time></trkpt><trkpt lat="43.01231" lon="11.8109108"><ele>759.0</ele><time>2026-05-02T13:09:08.688Z</time></trkpt><trkpt lat="43.0124135" lon="11.8108864"><ele>759.0</ele><time>2026-05-02T13:09:09.676Z</time></trkpt><trkpt lat="43.0125255" lon="11.8108618"><ele>759.0</ele><time>2026-05-02T13:09:10.691Z</time></trkpt><trkpt lat="43.0126436" lon="11.8108364"><ele>757.0</ele><time>2026-05-02T13:09:11.696Z</time></trkpt><trkpt lat="43.0127647" lon="11.810802"><ele>755.0</ele><time>2026-05-02T13:09:12.687Z</time></trkpt><trkpt lat="43.0128809" lon="11.8107543"><ele>753.0</ele><time>2026-05-02T13:09:13.673Z</time></trkpt><trkpt lat="43.0129989" lon="11.8106709"><ele>751.0</ele><time>2026-05-02T13:09:14.688Z</time></trkpt><trkpt lat="43.0131214" lon="11.8105802"><ele>751.0</ele><time>2026-05-02T13:09:15.685Z</time></trkpt><trkpt lat="43.0132218" lon="11.8104822"><ele>751.0</ele><time>2026-05-02T13:09:16.681Z</time></trkpt><trkpt lat="43.0133059" lon="11.8103823"><ele>751.0</ele><time>2026-05-02T13:09:17.681Z</time></trkpt><trkpt lat="43.0133855" lon="11.8102701"><ele>751.0</ele><time>2026-05-02T13:09:18.684Z</time></trkpt><trkpt lat="43.0134384" lon="11.8101179"><ele>748.5</ele><time>2026-05-02T13:09:19.69Z</time></trkpt><trkpt lat="43.013478" lon="11.8099404"><ele>746.0</ele><time>2026-05-02T13:09:20.68Z</time></trkpt><trkpt lat="43.0135083" lon="11.8097723"><ele>743.5</ele><time>2026-05-02T13:09:21.684Z</time></trkpt><trkpt lat="43.0135304" lon="11.8096305"><ele>741.0</ele><time>2026-05-02T13:09:22.683Z</time></trkpt><trkpt lat="43.0135395" lon="11.809502"><ele>741.0</ele><time>2026-05-02T13:09:23.684Z</time></trkpt><trkpt lat="43.0135273" lon="11.809373"><ele>741.0</ele><time>2026-05-02T13:09:24.678Z</time></trkpt><trkpt lat="43.0134832" lon="11.809194"><ele>741.0</ele><time>2026-05-02T13:09:25.686Z</time></trkpt><trkpt lat="43.0134097" lon="11.8089919"><ele>741.0</ele><time>2026-05-02T13:09:26.698Z</time></trkpt><trkpt lat="43.0133343" lon="11.8087987"><ele>742.3333333333334</ele><time>2026-05-02T13:09:27.694Z</time></trkpt><trkpt lat="43.0132361" lon="11.8086051"><ele>743.6666666666667</ele><time>2026-05-02T13:09:28.699Z</time></trkpt><trkpt lat="43.0131364" lon="11.8084175"><ele>745.0</ele><time>2026-05-02T13:09:29.67Z</time></trkpt><trkpt lat="43.0130414" lon="11.8082336"><ele>745.0</ele><time>2026-05-02T13:09:30.677Z</time></trkpt><trkpt lat="43.0129577" lon="11.8080772"><ele>745.0</ele><time>2026-05-02T13:09:31.68Z</time></trkpt><trkpt lat="43.0128788" lon="11.8079369"><ele>745.0</ele><time>2026-05-02T13:09:32.691Z</time></trkpt><trkpt lat="43.0128062" lon="11.8078237"><ele>745.0</ele><time>2026-05-02T13:09:33.679Z</time></trkpt><trkpt lat="43.0127655" lon="11.8077313"><ele>743.75</ele><time>2026-05-02T13:09:34.687Z</time></trkpt><trkpt lat="43.0127624" lon="11.8076218"><ele>742.5</ele><time>2026-05-02T13:09:35.693Z</time></trkpt><trkpt lat="43.0127709" lon="11.8074615"><ele>741.25</ele><time>2026-05-02T13:09:36.68Z</time></trkpt><trkpt lat="43.0127788" lon="11.8072625"><ele>740.0</ele><time>2026-05-02T13:09:37.681Z</time></trkpt><trkpt lat="43.0128096" lon="11.8070408"><ele>738.6666666666666</ele><time>2026-05-02T13:09:38.683Z</time></trkpt><trkpt lat="43.0128635" lon="11.8068123"><ele>737.3333333333334</ele><time>2026-05-02T13:09:39.692Z</time></trkpt><trkpt lat="43.0129054" lon="11.8065867"><ele>736.0</ele><time>2026-05-02T13:09:40.696Z</time></trkpt><trkpt lat="43.0129348" lon="11.8063812"><ele>736.0</ele><time>2026-05-02T13:09:41.702Z</time></trkpt><trkpt lat="43.0129554" lon="11.8062121"><ele>736.0</ele><time>2026-05-02T13:09:42.69Z</time></trkpt><trkpt lat="43.0129535" lon="11.8060609"><ele>736.0</ele><time>2026-05-02T13:09:43.691Z</time></trkpt><trkpt lat="43.0129266" lon="11.8059482"><ele>736.0</ele><time>2026-05-02T13:09:44.692Z</time></trkpt><trkpt lat="43.0128868" lon="11.8058517"><ele>736.0</ele><time>2026-05-02T13:09:46.69Z</time></trkpt><trkpt lat="43.012882" lon="11.8057385"><ele>734.5</ele><time>2026-05-02T13:09:49.687Z</time></trkpt><trkpt lat="43.0128815" lon="11.8056474"><ele>733.0</ele><time>2026-05-02T13:09:55.696Z</time></trkpt><trkpt lat="43.0129277" lon="11.8055669"><ele>731.5</ele><time>2026-05-02T13:09:57.698Z</time></trkpt><trkpt lat="43.012993" lon="11.8055316"><ele>730.0</ele><time>2026-05-02T13:09:58.684Z</time></trkpt><trkpt lat="43.0130839" lon="11.8055094"><ele>728.5</ele><time>2026-05-02T13:09:59.691Z</time></trkpt><trkpt lat="43.0131816" lon="11.8055016"><ele>727.0</ele><time>2026-05-02T13:10:00.678Z</time></trkpt><trkpt lat="43.0132736" lon="11.8054824"><ele>724.5</ele><time>2026-05-02T13:10:01.686Z</time></trkpt><trkpt lat="43.0133654" lon="11.8054235"><ele>722.0</ele><time>2026-05-02T13:10:02.693Z</time></trkpt><trkpt lat="43.0134583" lon="11.8053259"><ele>719.5</ele><time>2026-05-02T13:10:03.693Z</time></trkpt><trkpt lat="43.01356" lon="11.8052041"><ele>717.0</ele><time>2026-05-02T13:10:04.691Z</time></trkpt><trkpt lat="43.0136573" lon="11.8050763"><ele>715.8333333333334</ele><time>2026-05-02T13:10:05.691Z</time></trkpt><trkpt lat="43.0137478" lon="11.8049625"><ele>714.6666666666666</ele><time>2026-05-02T13:10:06.692Z</time></trkpt><trkpt lat="43.0138232" lon="11.8048791"><ele>713.5</ele><time>2026-05-02T13:10:07.691Z</time></trkpt><trkpt lat="43.0138852" lon="11.8048037"><ele>712.3333333333333</ele><time>2026-05-02T13:10:08.683Z</time></trkpt><trkpt lat="43.0139362" lon="11.8047456"><ele>711.1666666666666</ele><time>2026-05-02T13:10:09.69Z</time></trkpt><trkpt lat="43.0139891" lon="11.8046695"><ele>710.0</ele><time>2026-05-02T13:10:11.694Z</time></trkpt><trkpt lat="43.0139002" lon="11.804733"><ele>710.0</ele><time>2026-05-02T13:10:18.685Z</time></trkpt><trkpt lat="43.0138351" lon="11.8048378"><ele>710.0</ele><time>2026-05-02T13:10:19.693Z</time></trkpt><trkpt lat="43.0137529" lon="11.8049626"><ele>710.0</ele><time>2026-05-02T13:10:20.699Z</time></trkpt><trkpt lat="43.0136395" lon="11.8051122"><ele>710.0</ele><time>2026-05-02T13:10:21.705Z</time></trkpt><trkpt lat="43.0135132" lon="11.8052583"><ele>711.4</ele><time>2026-05-02T13:10:22.699Z</time></trkpt><trkpt lat="43.0134036" lon="11.8053712"><ele>712.8</ele><time>2026-05-02T13:10:23.69Z</time></trkpt><trkpt lat="43.0133117" lon="11.8054423"><ele>714.2</ele><time>2026-05-02T13:10:24.699Z</time></trkpt><trkpt lat="43.0132191" lon="11.8054878"><ele>715.6</ele><time>2026-05-02T13:10:25.69Z</time></trkpt><trkpt lat="43.0131173" lon="11.805513"><ele>717.0</ele><time>2026-05-02T13:10:26.695Z</time></trkpt><trkpt lat="43.0130046" lon="11.8055438"><ele>719.0</ele><time>2026-05-02T13:10:27.682Z</time></trkpt><trkpt lat="43.0128999" lon="11.8055746"><ele>721.0</ele><time>2026-05-02T13:10:28.689Z</time></trkpt><trkpt lat="43.0128019" lon="11.8055913"><ele>723.0</ele><time>2026-05-02T13:10:29.682Z</time></trkpt><trkpt lat="43.0126947" lon="11.8055815"><ele>725.0</ele><time>2026-05-02T13:10:30.695Z</time></trkpt><trkpt lat="43.0125624" lon="11.8055487"><ele>727.0</ele><time>2026-05-02T13:10:31.682Z</time></trkpt><trkpt lat="43.0124118" lon="11.8054885"><ele>729.25</ele><time>2026-05-02T13:10:32.699Z</time></trkpt><trkpt lat="43.0122771" lon="11.8054474"><ele>731.5</ele><time>2026-05-02T13:10:33.691Z</time></trkpt><trkpt lat="43.0121497" lon="11.8054158"><ele>733.75</ele><time>2026-05-02T13:10:34.697Z</time></trkpt><trkpt lat="43.0120294" lon="11.8053409"><ele>736.0</ele><time>2026-05-02T13:10:35.686Z</time></trkpt><trkpt lat="43.0118942" lon="11.8052027"><ele>737.3333333333334</ele><time>2026-05-02T13:10:36.694Z</time></trkpt><trkpt lat="43.0117415" lon="11.8050428"><ele>738.6666666666666</ele><time>2026-05-02T13:10:37.698Z</time></trkpt><trkpt lat="43.011593" lon="11.804882"><ele>740.0</ele><time>2026-05-02T13:10:38.692Z</time></trkpt><trkpt lat="43.0114703" lon="11.8047416"><ele>740.0</ele><time>2026-05-02T13:10:39.703Z</time></trkpt><trkpt lat="43.0113756" lon="11.8046343"><ele>740.0</ele><time>2026-05-02T13:10:40.691Z</time></trkpt><trkpt lat="43.0112998" lon="11.8045489"><ele>740.0</ele><time>2026-05-02T13:10:41.687Z</time></trkpt><trkpt lat="43.0112391" lon="11.8044852"><ele>740.0</ele><time>2026-05-02T13:10:42.699Z</time></trkpt><trkpt lat="43.0111543" lon="11.8045167"><ele>740.0</ele><time>2026-05-02T13:10:44.687Z</time></trkpt><trkpt lat="43.0111294" lon="11.8046066"><ele>740.0</ele><time>2026-05-02T13:10:45.686Z</time></trkpt><trkpt lat="43.0111064" lon="11.8047103"><ele>740.0</ele><time>2026-05-02T13:10:46.691Z</time></trkpt><trkpt lat="43.0110872" lon="11.8048433"><ele>740.0</ele><time>2026-05-02T13:10:47.69Z</time></trkpt><trkpt lat="43.0110598" lon="11.8050231"><ele>740.0</ele><time>2026-05-02T13:10:48.685Z</time></trkpt><trkpt lat="43.0110213" lon="11.8051975"><ele>740.0</ele><time>2026-05-02T13:10:49.696Z</time></trkpt><trkpt lat="43.0109748" lon="11.805326"><ele>742.5</ele><time>2026-05-02T13:10:50.694Z</time></trkpt><trkpt lat="43.0109053" lon="11.8054107"><ele>745.0</ele><time>2026-05-02T13:10:51.702Z</time></trkpt><trkpt lat="43.0108034" lon="11.8054697"><ele>747.5</ele><time>2026-05-02T13:10:52.693Z</time></trkpt><trkpt lat="43.0106727" lon="11.8055075"><ele>750.0</ele><time>2026-05-02T13:10:53.685Z</time></trkpt><trkpt lat="43.0105137" lon="11.805549"><ele>752.6666666666666</ele><time>2026-05-02T13:10:54.694Z</time></trkpt><trkpt lat="43.010329" lon="11.8055954"><ele>755.3333333333333</ele><time>2026-05-02T13:10:55.688Z</time></trkpt><trkpt lat="43.0101273" lon="11.8056437"><ele>758.0</ele><time>2026-05-02T13:10:56.682Z</time></trkpt><trkpt lat="43.0099317" lon="11.8056855"><ele>758.6666666666666</ele><time>2026-05-02T13:10:57.691Z</time></trkpt><trkpt lat="43.0097532" lon="11.8057134"><ele>759.3333333333334</ele><time>2026-05-02T13:10:58.685Z</time></trkpt><trkpt lat="43.009588" lon="11.8057482"><ele>760.0</ele><time>2026-05-02T13:10:59.695Z</time></trkpt><trkpt lat="43.0094397" lon="11.8057768"><ele>760.0</ele><time>2026-05-02T13:11:00.69Z</time></trkpt><trkpt lat="43.0093399" lon="11.805806"><ele>760.0</ele><time>2026-05-02T13:11:01.688Z</time></trkpt><trkpt lat="43.0092721" lon="11.8058365"><ele>760.0</ele><time>2026-05-02T13:11:02.684Z</time></trkpt><trkpt lat="43.0091921" lon="11.8058939"><ele>760.0</ele><time>2026-05-02T13:11:04.683Z</time></trkpt><trkpt lat="43.0092562" lon="11.8058253"><ele>760.0</ele><time>2026-05-02T13:11:14.687Z</time></trkpt><trkpt lat="43.0093317" lon="11.8057514"><ele>760.0</ele><time>2026-05-02T13:11:16.701Z</time></trkpt><trkpt lat="43.0093771" lon="11.805671"><ele>760.0</ele><time>2026-05-02T13:11:25.693Z</time></trkpt><trkpt lat="43.0093853" lon="11.8055806"><ele>760.0</ele><time>2026-05-02T13:11:28.689Z</time></trkpt><trkpt lat="43.0093463" lon="11.8054708"><ele>760.0</ele><time>2026-05-02T13:11:31.697Z</time></trkpt><trkpt lat="43.0093173" lon="11.8053733"><ele>760.0</ele><time>2026-05-02T13:11:32.689Z</time></trkpt><trkpt lat="43.0092835" lon="11.8052421"><ele>760.0</ele><time>2026-05-02T13:11:33.698Z</time></trkpt><trkpt lat="43.0092433" lon="11.8050804"><ele>759.0</ele><time>2026-05-02T13:11:34.706Z</time></trkpt><trkpt lat="43.0092029" lon="11.8049159"><ele>758.0</ele><time>2026-05-02T13:11:35.691Z</time></trkpt><trkpt lat="43.0091739" lon="11.8047568"><ele>757.0</ele><time>2026-05-02T13:11:36.695Z</time></trkpt><trkpt lat="43.0091666" lon="11.8046055"><ele>756.0</ele><time>2026-05-02T13:11:37.693Z</time></trkpt><trkpt lat="43.0091828" lon="11.8044722"><ele>753.75</ele><time>2026-05-02T13:11:38.698Z</time></trkpt><trkpt lat="43.0091887" lon="11.8043217"><ele>751.5</ele><time>2026-05-02T13:11:39.689Z</time></trkpt><trkpt lat="43.0091786" lon="11.8041517"><ele>749.25</ele><time>2026-05-02T13:11:40.696Z</time></trkpt><trkpt lat="43.0091543" lon="11.8039758"><ele>747.0</ele><time>2026-05-02T13:11:41.688Z</time></trkpt><trkpt lat="43.0091155" lon="11.8037784"><ele>745.75</ele><time>2026-05-02T13:11:42.693Z</time></trkpt><trkpt lat="43.009071" lon="11.8035729"><ele>744.5</ele><time>2026-05-02T13:11:43.7Z</time></trkpt><trkpt lat="43.0090286" lon="11.803376"><ele>743.25</ele><time>2026-05-02T13:11:44.696Z</time></trkpt><trkpt lat="43.0089872" lon="11.8032014"><ele>742.0</ele><time>2026-05-02T13:11:45.705Z</time></trkpt><trkpt lat="43.0089514" lon="11.8030426"><ele>741.0</ele><time>2026-05-02T13:11:46.688Z</time></trkpt><trkpt lat="43.008916" lon="11.8028921"><ele>740.0</ele><time>2026-05-02T13:11:47.699Z</time></trkpt><trkpt lat="43.008886" lon="11.8027507"><ele>739.0</ele><time>2026-05-02T13:11:48.693Z</time></trkpt><trkpt lat="43.0088506" lon="11.8026134"><ele>738.0</ele><time>2026-05-02T13:11:49.693Z</time></trkpt><trkpt lat="43.008814" lon="11.8024807"><ele>737.0</ele><time>2026-05-02T13:11:50.701Z</time></trkpt><trkpt lat="43.0087774" lon="11.8023322"><ele>735.5</ele><time>2026-05-02T13:11:51.686Z</time></trkpt><trkpt lat="43.0087326" lon="11.8021697"><ele>734.0</ele><time>2026-05-02T13:11:52.687Z</time></trkpt><trkpt lat="43.0086854" lon="11.8020096"><ele>732.5</ele><time>2026-05-02T13:11:53.685Z</time></trkpt><trkpt lat="43.0086386" lon="11.8018483"><ele>731.0</ele><time>2026-05-02T13:11:54.686Z</time></trkpt><trkpt lat="43.0085892" lon="11.8016831"><ele>729.25</ele><time>2026-05-02T13:11:55.68Z</time></trkpt><trkpt lat="43.0085418" lon="11.8015234"><ele>727.5</ele><time>2026-05-02T13:11:56.701Z</time></trkpt><trkpt lat="43.0084988" lon="11.8013675"><ele>725.75</ele><time>2026-05-02T13:11:57.687Z</time></trkpt><trkpt lat="43.0084536" lon="11.8012193"><ele>724.0</ele><time>2026-05-02T13:11:58.692Z</time></trkpt><trkpt lat="43.0084124" lon="11.8010774"><ele>722.8000000000001</ele><time>2026-05-02T13:11:59.69Z</time></trkpt><trkpt lat="43.0083787" lon="11.8009407"><ele>721.6</ele><time>2026-05-02T13:12:00.704Z</time></trkpt><trkpt lat="43.0083511" lon="11.8008036"><ele>720.4</ele><time>2026-05-02T13:12:01.694Z</time></trkpt><trkpt lat="43.0083354" lon="11.8006704"><ele>719.2</ele><time>2026-05-02T13:12:02.698Z</time></trkpt><trkpt lat="43.0083239" lon="11.8005319"><ele>718.0</ele><time>2026-05-02T13:12:03.702Z</time></trkpt><trkpt lat="43.0083286" lon="11.8003802"><ele>718.0</ele><time>2026-05-02T13:12:04.692Z</time></trkpt><trkpt lat="43.0083423" lon="11.8002126"><ele>718.0</ele><time>2026-05-02T13:12:05.693Z</time></trkpt><trkpt lat="43.0083659" lon="11.8000185"><ele>718.0</ele><time>2026-05-02T13:12:06.695Z</time></trkpt><trkpt lat="43.0083929" lon="11.7998186"><ele>718.0</ele><time>2026-05-02T13:12:07.689Z</time></trkpt><trkpt lat="43.0084301" lon="11.7996347"><ele>715.0</ele><time>2026-05-02T13:12:08.691Z</time></trkpt><trkpt lat="43.0084699" lon="11.7994647"><ele>712.0</ele><time>2026-05-02T13:12:09.686Z</time></trkpt><trkpt lat="43.0085207" lon="11.7993203"><ele>709.0</ele><time>2026-05-02T13:12:10.692Z</time></trkpt><trkpt lat="43.0085875" lon="11.7992297"><ele>706.0</ele><time>2026-05-02T13:12:11.685Z</time></trkpt><trkpt lat="43.0086764" lon="11.7991579"><ele>703.0</ele><time>2026-05-02T13:12:12.699Z</time></trkpt><trkpt lat="43.008776" lon="11.7990851"><ele>701.75</ele><time>2026-05-02T13:12:13.684Z</time></trkpt><trkpt lat="43.0088924" lon="11.7990028"><ele>700.5</ele><time>2026-05-02T13:12:14.697Z</time></trkpt><trkpt lat="43.0090151" lon="11.7989201"><ele>699.25</ele><time>2026-05-02T13:12:15.692Z</time></trkpt><trkpt lat="43.0091396" lon="11.7988401"><ele>698.0</ele><time>2026-05-02T13:12:16.702Z</time></trkpt><trkpt lat="43.0092595" lon="11.7987561"><ele>698.0</ele><time>2026-05-02T13:12:17.694Z</time></trkpt><trkpt lat="43.0093747" lon="11.7986801"><ele>698.0</ele><time>2026-05-02T13:12:18.695Z</time></trkpt><trkpt lat="43.0094749" lon="11.7985998"><ele>698.0</ele><time>2026-05-02T13:12:19.692Z</time></trkpt><trkpt lat="43.009575" lon="11.7985381"><ele>698.0</ele><time>2026-05-02T13:12:20.702Z</time></trkpt><trkpt lat="43.0096838" lon="11.79848"><ele>693.2</ele><time>2026-05-02T13:12:21.705Z</time></trkpt><trkpt lat="43.0097828" lon="11.7984138"><ele>688.4</ele><time>2026-05-02T13:12:22.695Z</time></trkpt><trkpt lat="43.0098709" lon="11.7983606"><ele>683.6</ele><time>2026-05-02T13:12:23.7Z</time></trkpt><trkpt lat="43.009942" lon="11.7983094"><ele>678.8000000000001</ele><time>2026-05-02T13:12:24.699Z</time></trkpt><trkpt lat="43.0100025" lon="11.7982582"><ele>674.0</ele><time>2026-05-02T13:12:25.697Z</time></trkpt><trkpt lat="43.010068" lon="11.7981315"><ele>674.0</ele><time>2026-05-02T13:12:27.692Z</time></trkpt><trkpt lat="43.0100597" lon="11.7979927"><ele>674.0</ele><time>2026-05-02T13:12:29.694Z</time></trkpt><trkpt lat="43.0100293" lon="11.7979152"><ele>674.0</ele><time>2026-05-02T13:12:30.688Z</time></trkpt><trkpt lat="43.009982" lon="11.7978392"><ele>674.0</ele><time>2026-05-02T13:12:31.692Z</time></trkpt><trkpt lat="43.009927" lon="11.7977708"><ele>674.0</ele><time>2026-05-02T13:12:32.695Z</time></trkpt><trkpt lat="43.0098698" lon="11.7977039"><ele>674.0</ele><time>2026-05-02T13:12:33.702Z</time></trkpt><trkpt lat="43.0098143" lon="11.7976307"><ele>669.0</ele><time>2026-05-02T13:12:34.683Z</time></trkpt><trkpt lat="43.0097641" lon="11.7975388"><ele>664.0</ele><time>2026-05-02T13:12:35.689Z</time></trkpt><trkpt lat="43.0097129" lon="11.7974427"><ele>659.0</ele><time>2026-05-02T13:12:36.692Z</time></trkpt><trkpt lat="43.0096628" lon="11.797329"><ele>654.0</ele><time>2026-05-02T13:12:37.688Z</time></trkpt><trkpt lat="43.009609" lon="11.7972073"><ele>649.0</ele><time>2026-05-02T13:12:38.688Z</time></trkpt><trkpt lat="43.0095413" lon="11.7970797"><ele>649.0</ele><time>2026-05-02T13:12:39.683Z</time></trkpt><trkpt lat="43.0094716" lon="11.7969453"><ele>649.0</ele><time>2026-05-02T13:12:40.703Z</time></trkpt><trkpt lat="43.0094066" lon="11.796802"><ele>649.0</ele><time>2026-05-02T13:12:41.69Z</time></trkpt><trkpt lat="43.0093426" lon="11.7966516"><ele>649.0</ele><time>2026-05-02T13:12:42.684Z</time></trkpt><trkpt lat="43.0092801" lon="11.7965001"><ele>645.5</ele><time>2026-05-02T13:12:43.696Z</time></trkpt><trkpt lat="43.0092228" lon="11.79635"><ele>642.0</ele><time>2026-05-02T13:12:44.698Z</time></trkpt><trkpt lat="43.0091657" lon="11.7962089"><ele>638.5</ele><time>2026-05-02T13:12:45.699Z</time></trkpt><trkpt lat="43.0091063" lon="11.7960844"><ele>635.0</ele><time>2026-05-02T13:12:46.685Z</time></trkpt><trkpt lat="43.0090395" lon="11.7959741"><ele>631.4</ele><time>2026-05-02T13:12:47.671Z</time></trkpt><trkpt lat="43.0089618" lon="11.7958831"><ele>627.8</ele><time>2026-05-02T13:12:48.709Z</time></trkpt><trkpt lat="43.0088751" lon="11.7958052"><ele>624.2</ele><time>2026-05-02T13:12:49.667Z</time></trkpt><trkpt lat="43.0087941" lon="11.7957156"><ele>620.6</ele><time>2026-05-02T13:12:50.709Z</time></trkpt><trkpt lat="43.0087314" lon="11.7956186"><ele>617.0</ele><time>2026-05-02T13:12:51.679Z</time></trkpt><trkpt lat="43.0086823" lon="11.7955372"><ele>617.0</ele><time>2026-05-02T13:12:52.682Z</time></trkpt><trkpt lat="43.0086553" lon="11.7954488"><ele>617.0</ele><time>2026-05-02T13:12:53.681Z</time></trkpt><trkpt lat="43.0086478" lon="11.7953558"><ele>617.0</ele><time>2026-05-02T13:12:54.689Z</time></trkpt><trkpt lat="43.0086657" lon="11.7952529"><ele>617.0</ele><time>2026-05-02T13:12:55.683Z</time></trkpt><trkpt lat="43.0086893" lon="11.7951576"><ele>617.0</ele><time>2026-05-02T13:12:56.682Z</time></trkpt><trkpt lat="43.0087284" lon="11.7950717"><ele>617.0</ele><time>2026-05-02T13:12:57.685Z</time></trkpt><trkpt lat="43.0087908" lon="11.7949677"><ele>615.0</ele><time>2026-05-02T13:12:58.68Z</time></trkpt><trkpt lat="43.0088701" lon="11.794852"><ele>613.0</ele><time>2026-05-02T13:12:59.693Z</time></trkpt><trkpt lat="43.0089321" lon="11.7947458"><ele>611.0</ele><time>2026-05-02T13:13:00.682Z</time></trkpt><trkpt lat="43.0089881" lon="11.7946653"><ele>609.0</ele><time>2026-05-02T13:13:01.695Z</time></trkpt><trkpt lat="43.0090489" lon="11.7945657"><ele>607.0</ele><time>2026-05-02T13:13:03.689Z</time></trkpt><trkpt lat="43.0090984" lon="11.7944989"><ele>607.0</ele><time>2026-05-02T13:13:05.697Z</time></trkpt><trkpt lat="43.0091288" lon="11.7944097"><ele>607.0</ele><time>2026-05-02T13:13:21.668Z</time></trkpt><trkpt lat="43.0091022" lon="11.7943101"><ele>607.0</ele><time>2026-05-02T13:13:24.695Z</time></trkpt><trkpt lat="43.0090587" lon="11.7942467"><ele>607.0</ele><time>2026-05-02T13:13:25.696Z</time></trkpt><trkpt lat="43.0089987" lon="11.7941848"><ele>607.0</ele><time>2026-05-02T13:13:26.699Z</time></trkpt><trkpt lat="43.0089063" lon="11.7941328"><ele>607.0</ele><time>2026-05-02T13:13:27.686Z</time></trkpt><trkpt lat="43.0088093" lon="11.7940765"><ele>605.0</ele><time>2026-05-02T13:13:28.693Z</time></trkpt><trkpt lat="43.0087237" lon="11.7940253"><ele>603.0</ele><time>2026-05-02T13:13:29.686Z</time></trkpt><trkpt lat="43.0086656" lon="11.7939704"><ele>601.0</ele><time>2026-05-02T13:13:30.697Z</time></trkpt><trkpt lat="43.0086125" lon="11.7938513"><ele>599.0</ele><time>2026-05-02T13:13:32.697Z</time></trkpt><trkpt lat="43.0086165" lon="11.7937015"><ele>597.0</ele><time>2026-05-02T13:13:34.7Z</time></trkpt><trkpt lat="43.0086358" lon="11.7936178"><ele>595.0</ele><time>2026-05-02T13:13:35.697Z</time></trkpt><trkpt lat="43.0086774" lon="11.7935342"><ele>591.8</ele><time>2026-05-02T13:13:36.69Z</time></trkpt><trkpt lat="43.0087442" lon="11.7934448"><ele>588.6</ele><time>2026-05-02T13:13:37.69Z</time></trkpt><trkpt lat="43.0088287" lon="11.7933449"><ele>585.4</ele><time>2026-05-02T13:13:38.682Z</time></trkpt><trkpt lat="43.0089118" lon="11.7932446"><ele>582.2</ele><time>2026-05-02T13:13:39.687Z</time></trkpt><trkpt lat="43.0089842" lon="11.7931451"><ele>579.0</ele><time>2026-05-02T13:13:40.702Z</time></trkpt><trkpt lat="43.0090626" lon="11.7930543"><ele>579.0</ele><time>2026-05-02T13:13:41.693Z</time></trkpt><trkpt lat="43.0091221" lon="11.7929696"><ele>579.0</ele><time>2026-05-02T13:13:42.701Z</time></trkpt><trkpt lat="43.009166" lon="11.7929058"><ele>579.0</ele><time>2026-05-02T13:13:43.694Z</time></trkpt><trkpt lat="43.0092201" lon="11.7927686"><ele>579.0</ele><time>2026-05-02T13:13:45.702Z</time></trkpt><trkpt lat="43.0092102" lon="11.7926142"><ele>579.0</ele><time>2026-05-02T13:13:47.691Z</time></trkpt><trkpt lat="43.0091918" lon="11.7925118"><ele>575.4</ele><time>2026-05-02T13:13:48.695Z</time></trkpt><trkpt lat="43.0091612" lon="11.792389"><ele>571.8</ele><time>2026-05-02T13:13:49.688Z</time></trkpt><trkpt lat="43.0091284" lon="11.7922537"><ele>568.2</ele><time>2026-05-02T13:13:50.676Z</time></trkpt><trkpt lat="43.0090946" lon="11.7921381"><ele>564.6</ele><time>2026-05-02T13:13:51.69Z</time></trkpt><trkpt lat="43.009066" lon="11.7920445"><ele>561.0</ele><time>2026-05-02T13:13:52.685Z</time></trkpt><trkpt lat="43.0089952" lon="11.7919264"><ele>560.4</ele><time>2026-05-02T13:13:54.699Z</time></trkpt><trkpt lat="43.0089323" lon="11.7918903"><ele>559.8</ele><time>2026-05-02T13:13:55.692Z</time></trkpt><trkpt lat="43.0088398" lon="11.7918596"><ele>559.1999999999999</ele><time>2026-05-02T13:13:56.695Z</time></trkpt><trkpt lat="43.0087394" lon="11.7918346"><ele>558.6</ele><time>2026-05-02T13:13:57.687Z</time></trkpt><trkpt lat="43.0086571" lon="11.7918116"><ele>558.0</ele><time>2026-05-02T13:13:58.688Z</time></trkpt><trkpt lat="43.0085609" lon="11.791773"><ele>555.0</ele><time>2026-05-02T13:14:00.691Z</time></trkpt><trkpt lat="43.0085452" lon="11.7916667"><ele>552.0</ele><time>2026-05-02T13:14:02.695Z</time></trkpt><trkpt lat="43.0086314" lon="11.7915667"><ele>549.0</ele><time>2026-05-02T13:14:04.697Z</time></trkpt><trkpt lat="43.0087093" lon="11.7915096"><ele>546.0</ele><time>2026-05-02T13:14:05.703Z</time></trkpt><trkpt lat="43.0087949" lon="11.7914429"><ele>543.0</ele><time>2026-05-02T13:14:06.698Z</time></trkpt><trkpt lat="43.0088732" lon="11.7913851"><ele>543.0</ele><time>2026-05-02T13:14:07.701Z</time></trkpt><trkpt lat="43.0089352" lon="11.7913268"><ele>543.0</ele><time>2026-05-02T13:14:08.69Z</time></trkpt><trkpt lat="43.0089676" lon="11.7912285"><ele>543.0</ele><time>2026-05-02T13:14:10.689Z</time></trkpt><trkpt lat="43.0089171" lon="11.7911082"><ele>543.0</ele><time>2026-05-02T13:14:12.69Z</time></trkpt><trkpt lat="43.0088661" lon="11.7910508"><ele>543.0</ele><time>2026-05-02T13:14:13.693Z</time></trkpt><trkpt lat="43.0088" lon="11.7909845"><ele>543.0</ele><time>2026-05-02T13:14:14.689Z</time></trkpt><trkpt lat="43.0087287" lon="11.7909114"><ele>541.1999999999999</ele><time>2026-05-02T13:14:15.699Z</time></trkpt><trkpt lat="43.0086665" lon="11.7908213"><ele>539.4</ele><time>2026-05-02T13:14:16.703Z</time></trkpt><trkpt lat="43.0086199" lon="11.790717"><ele>537.5999999999999</ele><time>2026-05-02T13:14:17.692Z</time></trkpt><trkpt lat="43.0085911" lon="11.7905976"><ele>535.8</ele><time>2026-05-02T13:14:18.685Z</time></trkpt><trkpt lat="43.008564" lon="11.7904778"><ele>534.0</ele><time>2026-05-02T13:14:19.692Z</time></trkpt><trkpt lat="43.0085413" lon="11.790364"><ele>534.0</ele><time>2026-05-02T13:14:20.685Z</time></trkpt><trkpt lat="43.0085264" lon="11.7902633"><ele>534.0</ele><time>2026-05-02T13:14:21.687Z</time></trkpt><trkpt lat="43.0085178" lon="11.790174"><ele>534.0</ele><time>2026-05-02T13:14:22.697Z</time></trkpt><trkpt lat="43.0085094" lon="11.790025"><ele>534.0</ele><time>2026-05-02T13:14:24.685Z</time></trkpt><trkpt lat="43.0085337" lon="11.7899397"><ele>534.0</ele><time>2026-05-02T13:14:26.694Z</time></trkpt><trkpt lat="43.0086103" lon="11.789946"><ele>534.0</ele><time>2026-05-02T13:14:28.692Z</time></trkpt><trkpt lat="43.0087003" lon="11.7899752"><ele>531.6</ele><time>2026-05-02T13:14:30.697Z</time></trkpt><trkpt lat="43.0087673" lon="11.7899093"><ele>529.2</ele><time>2026-05-02T13:14:31.688Z</time></trkpt><trkpt lat="43.0088296" lon="11.7898056"><ele>526.8000000000001</ele><time>2026-05-02T13:14:32.693Z</time></trkpt><trkpt lat="43.0088775" lon="11.7896911"><ele>524.4</ele><time>2026-05-02T13:14:33.68Z</time></trkpt><trkpt lat="43.0089208" lon="11.7895584"><ele>522.0</ele><time>2026-05-02T13:14:34.686Z</time></trkpt><trkpt lat="43.0089518" lon="11.7894043"><ele>519.25</ele><time>2026-05-02T13:14:35.686Z</time></trkpt><trkpt lat="43.0089855" lon="11.7892482"><ele>516.5</ele><time>2026-05-02T13:14:36.705Z</time></trkpt><trkpt lat="43.0090269" lon="11.7890798"><ele>513.75</ele><time>2026-05-02T13:14:37.683Z</time></trkpt><trkpt lat="43.0090816" lon="11.7889009"><ele>511.0</ele><time>2026-05-02T13:14:38.697Z</time></trkpt><trkpt lat="43.0091382" lon="11.7887275"><ele>510.5</ele><time>2026-05-02T13:14:39.693Z</time></trkpt><trkpt lat="43.0092076" lon="11.7885606"><ele>510.0</ele><time>2026-05-02T13:14:40.687Z</time></trkpt><trkpt lat="43.0092881" lon="11.7884002"><ele>509.5</ele><time>2026-05-02T13:14:41.686Z</time></trkpt><trkpt lat="43.0093734" lon="11.7882449"><ele>509.0</ele><time>2026-05-02T13:14:42.691Z</time></trkpt><trkpt lat="43.0094701" lon="11.7880923"><ele>509.0</ele><time>2026-05-02T13:14:43.699Z</time></trkpt><trkpt lat="43.0095738" lon="11.7879485"><ele>509.0</ele><time>2026-05-02T13:14:44.694Z</time></trkpt><trkpt lat="43.0096689" lon="11.7878128"><ele>509.0</ele><time>2026-05-02T13:14:45.685Z</time></trkpt><trkpt lat="43.0097554" lon="11.787679"><ele>509.0</ele><time>2026-05-02T13:14:46.685Z</time></trkpt><trkpt lat="43.0098401" lon="11.7875452"><ele>509.75</ele><time>2026-05-02T13:14:47.688Z</time></trkpt><trkpt lat="43.0099281" lon="11.7874123"><ele>510.5</ele><time>2026-05-02T13:14:48.705Z</time></trkpt><trkpt lat="43.0100252" lon="11.7872859"><ele>511.25</ele><time>2026-05-02T13:14:49.702Z</time></trkpt><trkpt lat="43.0101289" lon="11.7871588"><ele>512.0</ele><time>2026-05-02T13:14:50.696Z</time></trkpt><trkpt lat="43.0102484" lon="11.787029"><ele>512.0</ele><time>2026-05-02T13:14:51.701Z</time></trkpt><trkpt lat="43.0103775" lon="11.7868969"><ele>512.0</ele><time>2026-05-02T13:14:52.702Z</time></trkpt><trkpt lat="43.0105052" lon="11.7867643"><ele>512.0</ele><time>2026-05-02T13:14:53.707Z</time></trkpt><trkpt lat="43.010631" lon="11.7866291"><ele>512.3333333333333</ele><time>2026-05-02T13:14:54.719Z</time></trkpt><trkpt lat="43.0107557" lon="11.7864975"><ele>512.6666666666666</ele><time>2026-05-02T13:14:55.694Z</time></trkpt><trkpt lat="43.0108814" lon="11.7863652"><ele>513.0</ele><time>2026-05-02T13:14:56.702Z</time></trkpt><trkpt lat="43.0109959" lon="11.786239"><ele>513.0</ele><time>2026-05-02T13:14:57.694Z</time></trkpt><trkpt lat="43.0111034" lon="11.7861184"><ele>513.0</ele><time>2026-05-02T13:14:58.689Z</time></trkpt><trkpt lat="43.0112079" lon="11.7860035"><ele>513.0</ele><time>2026-05-02T13:14:59.696Z</time></trkpt><trkpt lat="43.0113009" lon="11.7859086"><ele>513.0</ele><time>2026-05-02T13:15:00.698Z</time></trkpt><trkpt lat="43.0113827" lon="11.7858169"><ele>512.1666666666666</ele><time>2026-05-02T13:15:01.704Z</time></trkpt><trkpt lat="43.0114572" lon="11.7857254"><ele>511.33333333333337</ele><time>2026-05-02T13:15:02.693Z</time></trkpt><trkpt lat="43.0115179" lon="11.785646"><ele>510.5</ele><time>2026-05-02T13:15:03.694Z</time></trkpt><trkpt lat="43.0115928" lon="11.7855064"><ele>509.6666666666667</ele><time>2026-05-02T13:15:05.685Z</time></trkpt><trkpt lat="43.0116235" lon="11.7854249"><ele>508.83333333333337</ele><time>2026-05-02T13:15:06.687Z</time></trkpt><trkpt lat="43.011652" lon="11.7853479"><ele>508.0</ele><time>2026-05-02T13:15:07.693Z</time></trkpt><trkpt lat="43.0117038" lon="11.7852139"><ele>510.00000000000006</ele><time>2026-05-02T13:15:09.702Z</time></trkpt><trkpt lat="43.0117515" lon="11.7851002"><ele>512.0</ele><time>2026-05-02T13:15:11.692Z</time></trkpt><trkpt lat="43.0117907" lon="11.785017"><ele>514.0</ele><time>2026-05-02T13:15:14.695Z</time></trkpt><trkpt lat="43.0117181" lon="11.7850854"><ele>516.0</ele><time>2026-05-02T13:15:19.69Z</time></trkpt><trkpt lat="43.0117008" lon="11.7851733"><ele>518.0</ele><time>2026-05-02T13:15:20.689Z</time></trkpt><trkpt lat="43.0117078" lon="11.7852733"><ele>520.0</ele><time>2026-05-02T13:15:21.697Z</time></trkpt><trkpt lat="43.011664" lon="11.7853777"><ele>517.6</ele><time>2026-05-02T13:15:22.697Z</time></trkpt><trkpt lat="43.0116073" lon="11.7854931"><ele>515.2</ele><time>2026-05-02T13:15:23.697Z</time></trkpt><trkpt lat="43.0115475" lon="11.7856081"><ele>512.8</ele><time>2026-05-02T13:15:24.688Z</time></trkpt><trkpt lat="43.0114826" lon="11.7857117"><ele>510.4</ele><time>2026-05-02T13:15:25.695Z</time></trkpt><trkpt lat="43.0114243" lon="11.7857868"><ele>508.0</ele><time>2026-05-02T13:15:26.687Z</time></trkpt><trkpt lat="43.0113652" lon="11.7858614"><ele>508.0</ele><time>2026-05-02T13:15:28.698Z</time></trkpt><trkpt lat="43.0114419" lon="11.785909"><ele>507.99999999999994</ele><time>2026-05-02T13:15:31.693Z</time></trkpt><trkpt lat="43.0115658" lon="11.785879"><ele>507.99999999999994</ele><time>2026-05-02T13:15:33.688Z</time></trkpt><trkpt lat="43.0116508" lon="11.7858408"><ele>508.0</ele><time>2026-05-02T13:15:34.675Z</time></trkpt><trkpt lat="43.0117498" lon="11.7858003"><ele>508.0</ele><time>2026-05-02T13:15:35.696Z</time></trkpt><trkpt lat="43.0118569" lon="11.7857502"><ele>511.0</ele><time>2026-05-02T13:15:36.697Z</time></trkpt><trkpt lat="43.0119762" lon="11.7856996"><ele>514.0</ele><time>2026-05-02T13:15:37.688Z</time></trkpt><trkpt lat="43.012102" lon="11.7856498"><ele>517.0</ele><time>2026-05-02T13:15:38.693Z</time></trkpt><trkpt lat="43.0122331" lon="11.7856003"><ele>520.0</ele><time>2026-05-02T13:15:39.692Z</time></trkpt><trkpt lat="43.0123745" lon="11.7855505"><ele>523.25</ele><time>2026-05-02T13:15:40.696Z</time></trkpt><trkpt lat="43.0125124" lon="11.7854955"><ele>526.5</ele><time>2026-05-02T13:15:41.685Z</time></trkpt><trkpt lat="43.0126434" lon="11.7854447"><ele>529.75</ele><time>2026-05-02T13:15:42.701Z</time></trkpt><trkpt lat="43.0127769" lon="11.7853961"><ele>533.0</ele><time>2026-05-02T13:15:43.688Z</time></trkpt><trkpt lat="43.0128979" lon="11.785337"><ele>533.0</ele><time>2026-05-02T13:15:44.683Z</time></trkpt><trkpt lat="43.0130176" lon="11.785252"><ele>533.0</ele><time>2026-05-02T13:15:45.699Z</time></trkpt><trkpt lat="43.0131452" lon="11.7851282"><ele>533.0</ele><time>2026-05-02T13:15:46.688Z</time></trkpt><trkpt lat="43.0132812" lon="11.7849758"><ele>535.3333333333333</ele><time>2026-05-02T13:15:47.691Z</time></trkpt><trkpt lat="43.0134386" lon="11.7848086"><ele>537.6666666666666</ele><time>2026-05-02T13:15:48.701Z</time></trkpt><trkpt lat="43.0136154" lon="11.7846317"><ele>540.0</ele><time>2026-05-02T13:15:49.697Z</time></trkpt><trkpt lat="43.0137811" lon="11.7844671"><ele>539.0</ele><time>2026-05-02T13:15:50.698Z</time></trkpt><trkpt lat="43.0139246" lon="11.7843156"><ele>538.0</ele><time>2026-05-02T13:15:51.693Z</time></trkpt><trkpt lat="43.0140458" lon="11.7841913"><ele>537.0</ele><time>2026-05-02T13:15:52.709Z</time></trkpt><trkpt lat="43.0141613" lon="11.7840738"><ele>540.0</ele><time>2026-05-02T13:15:53.689Z</time></trkpt><trkpt lat="43.0142741" lon="11.7839605"><ele>543.0</ele><time>2026-05-02T13:15:54.698Z</time></trkpt><trkpt lat="43.0143908" lon="11.783856"><ele>546.0</ele><time>2026-05-02T13:15:55.687Z</time></trkpt><trkpt lat="43.0144919" lon="11.783778"><ele>549.0</ele><time>2026-05-02T13:15:56.701Z</time></trkpt><trkpt lat="43.0145848" lon="11.7837176"><ele>549.0</ele><time>2026-05-02T13:15:57.697Z</time></trkpt><trkpt lat="43.0146969" lon="11.7836504"><ele>549.0</ele><time>2026-05-02T13:15:58.713Z</time></trkpt><trkpt lat="43.0148236" lon="11.7835658"><ele>549.0</ele><time>2026-05-02T13:15:59.697Z</time></trkpt><trkpt lat="43.0149743" lon="11.7834688"><ele>549.0</ele><time>2026-05-02T13:16:00.697Z</time></trkpt><trkpt lat="43.0151348" lon="11.7833716"><ele>549.3333333333334</ele><time>2026-05-02T13:16:01.702Z</time></trkpt><trkpt lat="43.0152896" lon="11.7832854"><ele>549.6666666666667</ele><time>2026-05-02T13:16:02.707Z</time></trkpt><trkpt lat="43.0154417" lon="11.7832009"><ele>550.0</ele><time>2026-05-02T13:16:03.696Z</time></trkpt><trkpt lat="43.0155886" lon="11.783113"><ele>550.0</ele><time>2026-05-02T13:16:04.701Z</time></trkpt><trkpt lat="43.0157259" lon="11.7830316"><ele>550.0</ele><time>2026-05-02T13:16:05.698Z</time></trkpt><trkpt lat="43.01585" lon="11.7829673"><ele>550.0</ele><time>2026-05-02T13:16:06.695Z</time></trkpt><trkpt lat="43.0159642" lon="11.7829139"><ele>550.0</ele><time>2026-05-02T13:16:07.699Z</time></trkpt><trkpt lat="43.0160811" lon="11.7828669"><ele>550.25</ele><time>2026-05-02T13:16:08.698Z</time></trkpt><trkpt lat="43.016201" lon="11.7828217"><ele>550.5</ele><time>2026-05-02T13:16:09.673Z</time></trkpt><trkpt lat="43.0163225" lon="11.7827727"><ele>550.75</ele><time>2026-05-02T13:16:10.697Z</time></trkpt><trkpt lat="43.0164429" lon="11.7827195"><ele>551.0</ele><time>2026-05-02T13:16:11.696Z</time></trkpt><trkpt lat="43.016561" lon="11.7826616"><ele>552.5</ele><time>2026-05-02T13:16:12.694Z</time></trkpt><trkpt lat="43.0166831" lon="11.7826057"><ele>554.0</ele><time>2026-05-02T13:16:13.696Z</time></trkpt><trkpt lat="43.0168126" lon="11.7825411"><ele>555.5</ele><time>2026-05-02T13:16:14.685Z</time></trkpt><trkpt lat="43.0169536" lon="11.7824759"><ele>557.0</ele><time>2026-05-02T13:16:15.681Z</time></trkpt><trkpt lat="43.0171092" lon="11.7824077"><ele>557.0</ele><time>2026-05-02T13:16:16.681Z</time></trkpt><trkpt lat="43.0172753" lon="11.7823333"><ele>557.0</ele><time>2026-05-02T13:16:17.684Z</time></trkpt><trkpt lat="43.0174404" lon="11.7822534"><ele>557.0</ele><time>2026-05-02T13:16:18.695Z</time></trkpt><trkpt lat="43.0175994" lon="11.7821726"><ele>561.3333333333333</ele><time>2026-05-02T13:16:19.7Z</time></trkpt><trkpt lat="43.0177465" lon="11.7820861"><ele>565.6666666666666</ele><time>2026-05-02T13:16:20.688Z</time></trkpt><trkpt lat="43.0178899" lon="11.7819977"><ele>570.0</ele><time>2026-05-02T13:16:21.685Z</time></trkpt><trkpt lat="43.0180272" lon="11.7818938"><ele>570.75</ele><time>2026-05-02T13:16:22.676Z</time></trkpt><trkpt lat="43.0181574" lon="11.7817754"><ele>571.5</ele><time>2026-05-02T13:16:23.688Z</time></trkpt><trkpt lat="43.0182717" lon="11.7816432"><ele>572.25</ele><time>2026-05-02T13:16:24.684Z</time></trkpt><trkpt lat="43.0183594" lon="11.781506"><ele>573.0</ele><time>2026-05-02T13:16:25.69Z</time></trkpt><trkpt lat="43.0184294" lon="11.7813791"><ele>573.0</ele><time>2026-05-02T13:16:26.707Z</time></trkpt><trkpt lat="43.0185007" lon="11.7812694"><ele>573.0</ele><time>2026-05-02T13:16:27.695Z</time></trkpt><trkpt lat="43.018577" lon="11.781167"><ele>573.0</ele><time>2026-05-02T13:16:28.694Z</time></trkpt><trkpt lat="43.0186386" lon="11.7810836"><ele>573.0</ele><time>2026-05-02T13:16:29.695Z</time></trkpt><trkpt lat="43.0186951" lon="11.7809963"><ele>573.0</ele><time>2026-05-02T13:16:31.686Z</time></trkpt><trkpt lat="43.0186364" lon="11.7809328"><ele>569.5</ele><time>2026-05-02T13:16:34.689Z</time></trkpt><trkpt lat="43.018518" lon="11.7809238"><ele>566.0</ele><time>2026-05-02T13:16:36.689Z</time></trkpt><trkpt lat="43.0184414" lon="11.7808321"><ele>562.5</ele><time>2026-05-02T13:16:37.685Z</time></trkpt><trkpt lat="43.018381" lon="11.780688"><ele>559.0</ele><time>2026-05-02T13:16:38.687Z</time></trkpt><trkpt lat="43.0183174" lon="11.7805482"><ele>555.0</ele><time>2026-05-02T13:16:39.684Z</time></trkpt><trkpt lat="43.0182497" lon="11.7804058"><ele>551.0</ele><time>2026-05-02T13:16:40.69Z</time></trkpt><trkpt lat="43.0181867" lon="11.7802566"><ele>547.0</ele><time>2026-05-02T13:16:41.681Z</time></trkpt><trkpt lat="43.0181262" lon="11.7801129"><ele>543.0</ele><time>2026-05-02T13:16:42.693Z</time></trkpt><trkpt lat="43.0180576" lon="11.7799787"><ele>541.75</ele><time>2026-05-02T13:16:43.693Z</time></trkpt><trkpt lat="43.0179791" lon="11.7798479"><ele>540.5</ele><time>2026-05-02T13:16:44.692Z</time></trkpt><trkpt lat="43.0178948" lon="11.7797098"><ele>539.25</ele><time>2026-05-02T13:16:45.684Z</time></trkpt><trkpt lat="43.0178117" lon="11.7795663"><ele>538.0</ele><time>2026-05-02T13:16:46.688Z</time></trkpt><trkpt lat="43.0177301" lon="11.7794251"><ele>537.25</ele><time>2026-05-02T13:16:47.689Z</time></trkpt><trkpt lat="43.0176532" lon="11.7792889"><ele>536.5</ele><time>2026-05-02T13:16:48.69Z</time></trkpt><trkpt lat="43.0175744" lon="11.779149"><ele>535.75</ele><time>2026-05-02T13:16:49.692Z</time></trkpt><trkpt lat="43.0174919" lon="11.7789982"><ele>535.0</ele><time>2026-05-02T13:16:50.686Z</time></trkpt><trkpt lat="43.0174068" lon="11.778849"><ele>532.5</ele><time>2026-05-02T13:16:51.689Z</time></trkpt><trkpt lat="43.0173231" lon="11.7787046"><ele>530.0</ele><time>2026-05-02T13:16:52.688Z</time></trkpt><trkpt lat="43.0172457" lon="11.7785692"><ele>527.5</ele><time>2026-05-02T13:16:53.692Z</time></trkpt><trkpt lat="43.0171709" lon="11.7784409"><ele>525.0</ele><time>2026-05-02T13:16:54.692Z</time></trkpt><trkpt lat="43.0170987" lon="11.7783149"><ele>524.0</ele><time>2026-05-02T13:16:55.699Z</time></trkpt><trkpt lat="43.0170385" lon="11.7781684"><ele>523.0</ele><time>2026-05-02T13:16:56.693Z</time></trkpt><trkpt lat="43.0169824" lon="11.7780023"><ele>522.0</ele><time>2026-05-02T13:16:57.697Z</time></trkpt><trkpt lat="43.0169273" lon="11.7778345"><ele>521.0</ele><time>2026-05-02T13:16:58.691Z</time></trkpt><trkpt lat="43.0168751" lon="11.7776704"><ele>520.0</ele><time>2026-05-02T13:16:59.692Z</time></trkpt><trkpt lat="43.0168218" lon="11.7775169"><ele>519.0</ele><time>2026-05-02T13:17:00.678Z</time></trkpt><trkpt lat="43.0167671" lon="11.7773668"><ele>518.0</ele><time>2026-05-02T13:17:01.691Z</time></trkpt><trkpt lat="43.0167084" lon="11.7772222"><ele>517.0</ele><time>2026-05-02T13:17:02.693Z</time></trkpt><trkpt lat="43.0166459" lon="11.777079"><ele>515.4</ele><time>2026-05-02T13:17:03.688Z</time></trkpt><trkpt lat="43.0165873" lon="11.776939"><ele>513.8000000000001</ele><time>2026-05-02T13:17:04.698Z</time></trkpt><trkpt lat="43.0165298" lon="11.7768072"><ele>512.2</ele><time>2026-05-02T13:17:05.698Z</time></trkpt><trkpt lat="43.016481" lon="11.776685"><ele>510.6</ele><time>2026-05-02T13:17:06.688Z</time></trkpt><trkpt lat="43.0164444" lon="11.7765616"><ele>509.0</ele><time>2026-05-02T13:17:07.692Z</time></trkpt><trkpt lat="43.0164365" lon="11.7764398"><ele>508.0</ele><time>2026-05-02T13:17:08.696Z</time></trkpt><trkpt lat="43.0164533" lon="11.7763169"><ele>507.0</ele><time>2026-05-02T13:17:09.681Z</time></trkpt><trkpt lat="43.0164786" lon="11.7761901"><ele>506.0</ele><time>2026-05-02T13:17:10.693Z</time></trkpt><trkpt lat="43.0165" lon="11.7760724"><ele>505.0</ele><time>2026-05-02T13:17:11.696Z</time></trkpt><trkpt lat="43.0165061" lon="11.7759536"><ele>504.0</ele><time>2026-05-02T13:17:12.693Z</time></trkpt><trkpt lat="43.0164926" lon="11.7758281"><ele>503.4</ele><time>2026-05-02T13:17:13.693Z</time></trkpt><trkpt lat="43.0164607" lon="11.7756997"><ele>502.79999999999995</ele><time>2026-05-02T13:17:14.69Z</time></trkpt><trkpt lat="43.0164191" lon="11.7755682"><ele>502.20000000000005</ele><time>2026-05-02T13:17:15.694Z</time></trkpt><trkpt lat="43.0163761" lon="11.7754307"><ele>501.6</ele><time>2026-05-02T13:17:16.694Z</time></trkpt><trkpt lat="43.0163321" lon="11.7753059"><ele>501.0</ele><time>2026-05-02T13:17:17.701Z</time></trkpt><trkpt lat="43.0162869" lon="11.7751966"><ele>499.4</ele><time>2026-05-02T13:17:18.702Z</time></trkpt><trkpt lat="43.0162283" lon="11.7750999"><ele>497.8</ele><time>2026-05-02T13:17:19.701Z</time></trkpt><trkpt lat="43.0161605" lon="11.7750262"><ele>496.19999999999993</ele><time>2026-05-02T13:17:20.692Z</time></trkpt><trkpt lat="43.0160903" lon="11.7749495"><ele>494.59999999999997</ele><time>2026-05-02T13:17:21.684Z</time></trkpt><trkpt lat="43.0160223" lon="11.7748606"><ele>493.0</ele><time>2026-05-02T13:17:22.701Z</time></trkpt><trkpt lat="43.015969" lon="11.7747463"><ele>493.0</ele><time>2026-05-02T13:17:23.691Z</time></trkpt><trkpt lat="43.0159068" lon="11.7746216"><ele>492.99999999999994</ele><time>2026-05-02T13:17:24.7Z</time></trkpt><trkpt lat="43.0158472" lon="11.7744938"><ele>492.99999999999994</ele><time>2026-05-02T13:17:25.701Z</time></trkpt><trkpt lat="43.0157897" lon="11.7743688"><ele>493.0</ele><time>2026-05-02T13:17:26.691Z</time></trkpt><trkpt lat="43.0157288" lon="11.7742464"><ele>493.0</ele><time>2026-05-02T13:17:27.7Z</time></trkpt><trkpt lat="43.0156748" lon="11.774119"><ele>489.0</ele><time>2026-05-02T13:17:28.692Z</time></trkpt><trkpt lat="43.0156245" lon="11.7739863"><ele>484.99999999999994</ele><time>2026-05-02T13:17:29.686Z</time></trkpt><trkpt lat="43.0155745" lon="11.7738482"><ele>480.99999999999994</ele><time>2026-05-02T13:17:30.692Z</time></trkpt><trkpt lat="43.0155272" lon="11.7737089"><ele>477.0</ele><time>2026-05-02T13:17:31.691Z</time></trkpt><trkpt lat="43.0154813" lon="11.7735671"><ele>473.0</ele><time>2026-05-02T13:17:32.7Z</time></trkpt><trkpt lat="43.0154335" lon="11.7734207"><ele>471.59999999999997</ele><time>2026-05-02T13:17:33.699Z</time></trkpt><trkpt lat="43.0153854" lon="11.773284"><ele>470.19999999999993</ele><time>2026-05-02T13:17:34.701Z</time></trkpt><trkpt lat="43.0153324" lon="11.7731603"><ele>468.8</ele><time>2026-05-02T13:17:35.692Z</time></trkpt><trkpt lat="43.0152761" lon="11.7730459"><ele>467.4</ele><time>2026-05-02T13:17:36.696Z</time></trkpt><trkpt lat="43.0152214" lon="11.7729399"><ele>466.0</ele><time>2026-05-02T13:17:37.686Z</time></trkpt><trkpt lat="43.0151791" lon="11.7728388"><ele>466.00000000000006</ele><time>2026-05-02T13:17:38.696Z</time></trkpt><trkpt lat="43.0151438" lon="11.772747"><ele>466.0</ele><time>2026-05-02T13:17:39.698Z</time></trkpt><trkpt lat="43.015113" lon="11.7726643"><ele>466.0</ele><time>2026-05-02T13:17:40.694Z</time></trkpt><trkpt lat="43.0150658" lon="11.7725061"><ele>466.0</ele><time>2026-05-02T13:17:42.705Z</time></trkpt><trkpt lat="43.0150535" lon="11.7724212"><ele>466.00000000000006</ele><time>2026-05-02T13:17:43.695Z</time></trkpt><trkpt lat="43.0150588" lon="11.7723308"><ele>466.0</ele><time>2026-05-02T13:17:44.696Z</time></trkpt><trkpt lat="43.0150772" lon="11.7722297"><ele>465.1666666666667</ele><time>2026-05-02T13:17:45.697Z</time></trkpt><trkpt lat="43.0150886" lon="11.7721186"><ele>464.33333333333337</ele><time>2026-05-02T13:17:46.695Z</time></trkpt><trkpt lat="43.0150828" lon="11.7720051"><ele>463.5</ele><time>2026-05-02T13:17:47.692Z</time></trkpt><trkpt lat="43.0150622" lon="11.7718993"><ele>462.66666666666663</ele><time>2026-05-02T13:17:48.698Z</time></trkpt><trkpt lat="43.0150261" lon="11.771789"><ele>461.8333333333333</ele><time>2026-05-02T13:17:49.699Z</time></trkpt><trkpt lat="43.0149924" lon="11.7716844"><ele>461.0</ele><time>2026-05-02T13:17:50.704Z</time></trkpt><trkpt lat="43.0149629" lon="11.7715864"><ele>459.8333333333333</ele><time>2026-05-02T13:17:51.695Z</time></trkpt><trkpt lat="43.0149324" lon="11.7714546"><ele>458.66666666666663</ele><time>2026-05-02T13:17:53.691Z</time></trkpt><trkpt lat="43.0149549" lon="11.7713147"><ele>457.5</ele><time>2026-05-02T13:17:55.684Z</time></trkpt><trkpt lat="43.014987" lon="11.7712296"><ele>456.33333333333337</ele><time>2026-05-02T13:17:56.703Z</time></trkpt><trkpt lat="43.0150313" lon="11.771136"><ele>455.1666666666667</ele><time>2026-05-02T13:17:57.685Z</time></trkpt><trkpt lat="43.0150783" lon="11.771043"><ele>454.0</ele><time>2026-05-02T13:17:58.689Z</time></trkpt><trkpt lat="43.0151046" lon="11.7709546"><ele>452.00000000000006</ele><time>2026-05-02T13:17:59.69Z</time></trkpt><trkpt lat="43.0150926" lon="11.7708261"><ele>450.0</ele><time>2026-05-02T13:18:01.69Z</time></trkpt><trkpt lat="43.0150269" lon="11.7707676"><ele>448.0</ele><time>2026-05-02T13:18:03.691Z</time></trkpt><trkpt lat="43.0149143" lon="11.7708273"><ele>446.0</ele><time>2026-05-02T13:18:05.687Z</time></trkpt><trkpt lat="43.0148488" lon="11.7708798"><ele>444.00000000000006</ele><time>2026-05-02T13:18:06.687Z</time></trkpt><trkpt lat="43.0147783" lon="11.7709099"><ele>442.0</ele><time>2026-05-02T13:18:07.692Z</time></trkpt><trkpt lat="43.014706" lon="11.7709132"><ele>440.7142857142857</ele><time>2026-05-02T13:18:08.699Z</time></trkpt><trkpt lat="43.0146352" lon="11.7709029"><ele>439.42857142857144</ele><time>2026-05-02T13:18:09.692Z</time></trkpt><trkpt lat="43.0145768" lon="11.7708699"><ele>438.1428571428571</ele><time>2026-05-02T13:18:10.693Z</time></trkpt><trkpt lat="43.0144986" lon="11.7707707"><ele>436.8571428571429</ele><time>2026-05-02T13:18:12.691Z</time></trkpt><trkpt lat="43.0144691" lon="11.7706822"><ele>435.57142857142856</ele><time>2026-05-02T13:18:13.691Z</time></trkpt><trkpt lat="43.0144379" lon="11.770596"><ele>434.2857142857143</ele><time>2026-05-02T13:18:14.698Z</time></trkpt><trkpt lat="43.014405" lon="11.7705166"><ele>433.0</ele><time>2026-05-02T13:18:15.69Z</time></trkpt><trkpt lat="43.0143814" lon="11.7704285"><ele>433.00000000000006</ele><time>2026-05-02T13:18:16.686Z</time></trkpt><trkpt lat="43.0143729" lon="11.7703154"><ele>433.0</ele><time>2026-05-02T13:18:17.688Z</time></trkpt><trkpt lat="43.0143651" lon="11.770193"><ele>433.0</ele><time>2026-05-02T13:18:18.687Z</time></trkpt><trkpt lat="43.0143503" lon="11.7700853"><ele>433.0</ele><time>2026-05-02T13:18:19.686Z</time></trkpt><trkpt lat="43.0143288" lon="11.7699958"><ele>433.00000000000006</ele><time>2026-05-02T13:18:20.697Z</time></trkpt><trkpt lat="43.0142571" lon="11.7698686"><ele>433.0</ele><time>2026-05-02T13:18:22.698Z</time></trkpt><trkpt lat="43.0142087" lon="11.7698118"><ele>429.6666666666667</ele><time>2026-05-02T13:18:23.686Z</time></trkpt><trkpt lat="43.0141512" lon="11.7697355"><ele>426.33333333333337</ele><time>2026-05-02T13:18:24.692Z</time></trkpt><trkpt lat="43.0141028" lon="11.7696382"><ele>423.0</ele><time>2026-05-02T13:18:25.69Z</time></trkpt><trkpt lat="43.0140672" lon="11.7695353"><ele>419.66666666666663</ele><time>2026-05-02T13:18:26.692Z</time></trkpt><trkpt lat="43.0140266" lon="11.7694322"><ele>416.3333333333333</ele><time>2026-05-02T13:18:27.682Z</time></trkpt><trkpt lat="43.013976" lon="11.7693434"><ele>413.0</ele><time>2026-05-02T13:18:28.689Z</time></trkpt><trkpt lat="43.0139127" lon="11.7692563"><ele>411.59999999999997</ele><time>2026-05-02T13:18:29.694Z</time></trkpt><trkpt lat="43.013844" lon="11.7691792"><ele>410.2</ele><time>2026-05-02T13:18:30.697Z</time></trkpt><trkpt lat="43.0137762" lon="11.769112"><ele>408.8</ele><time>2026-05-02T13:18:31.693Z</time></trkpt><trkpt lat="43.0137241" lon="11.7690258"><ele>407.4</ele><time>2026-05-02T13:18:32.699Z</time></trkpt><trkpt lat="43.0136787" lon="11.7689037"><ele>406.0</ele><time>2026-05-02T13:18:33.697Z</time></trkpt><trkpt lat="43.0136385" lon="11.7687615"><ele>406.0</ele><time>2026-05-02T13:18:34.697Z</time></trkpt><trkpt lat="43.0135964" lon="11.7686225"><ele>406.0</ele><time>2026-05-02T13:18:35.694Z</time></trkpt><trkpt lat="43.0135643" lon="11.7684938"><ele>406.0</ele><time>2026-05-02T13:18:36.698Z</time></trkpt><trkpt lat="43.0135341" lon="11.7683653"><ele>406.0</ele><time>2026-05-02T13:18:37.698Z</time></trkpt><trkpt lat="43.0135036" lon="11.7682419"><ele>406.0</ele><time>2026-05-02T13:18:38.712Z</time></trkpt><trkpt lat="43.0134753" lon="11.7681183"><ele>404.8</ele><time>2026-05-02T13:18:39.69Z</time></trkpt><trkpt lat="43.0134436" lon="11.7679979"><ele>403.6</ele><time>2026-05-02T13:18:40.694Z</time></trkpt><trkpt lat="43.0134045" lon="11.7678877"><ele>402.4</ele><time>2026-05-02T13:18:41.695Z</time></trkpt><trkpt lat="43.0133561" lon="11.7677754"><ele>401.2</ele><time>2026-05-02T13:18:42.701Z</time></trkpt><trkpt lat="43.0132898" lon="11.767655"><ele>400.0</ele><time>2026-05-02T13:18:43.695Z</time></trkpt><trkpt lat="43.0132204" lon="11.7675284"><ele>397.8</ele><time>2026-05-02T13:18:44.701Z</time></trkpt><trkpt lat="43.0131598" lon="11.7674214"><ele>395.6</ele><time>2026-05-02T13:18:45.693Z</time></trkpt><trkpt lat="43.0130895" lon="11.7673452"><ele>393.4</ele><time>2026-05-02T13:18:46.7Z</time></trkpt><trkpt lat="43.0130056" lon="11.767294"><ele>391.2</ele><time>2026-05-02T13:18:47.701Z</time></trkpt><trkpt lat="43.0129255" lon="11.7672429"><ele>389.0</ele><time>2026-05-02T13:18:48.701Z</time></trkpt><trkpt lat="43.0128583" lon="11.7671788"><ele>388.99999999999994</ele><time>2026-05-02T13:18:49.69Z</time></trkpt><trkpt lat="43.0128026" lon="11.7671064"><ele>389.0</ele><time>2026-05-02T13:18:50.698Z</time></trkpt><trkpt lat="43.0127484" lon="11.7670221"><ele>389.0</ele><time>2026-05-02T13:18:51.689Z</time></trkpt><trkpt lat="43.0127056" lon="11.7669241"><ele>389.0</ele><time>2026-05-02T13:18:52.704Z</time></trkpt><trkpt lat="43.0126778" lon="11.7668229"><ele>388.99999999999994</ele><time>2026-05-02T13:18:53.706Z</time></trkpt><trkpt lat="43.012653" lon="11.7667318"><ele>389.0</ele><time>2026-05-02T13:18:54.711Z</time></trkpt><trkpt lat="43.0125897" lon="11.7665917"><ele>388.8333333333333</ele><time>2026-05-02T13:18:56.698Z</time></trkpt><trkpt lat="43.0125328" lon="11.7665407"><ele>388.66666666666663</ele><time>2026-05-02T13:18:57.693Z</time></trkpt><trkpt lat="43.0124662" lon="11.7664987"><ele>388.5</ele><time>2026-05-02T13:18:58.699Z</time></trkpt><trkpt lat="43.0123891" lon="11.7664612"><ele>388.33333333333337</ele><time>2026-05-02T13:18:59.692Z</time></trkpt><trkpt lat="43.0123196" lon="11.766416"><ele>388.1666666666667</ele><time>2026-05-02T13:19:00.695Z</time></trkpt><trkpt lat="43.0122602" lon="11.7662543"><ele>388.0</ele><time>2026-05-02T13:19:02.675Z</time></trkpt><trkpt lat="43.0122435" lon="11.7661435"><ele>386.4</ele><time>2026-05-02T13:19:03.68Z</time></trkpt><trkpt lat="43.0122227" lon="11.7660295"><ele>384.79999999999995</ele><time>2026-05-02T13:19:04.686Z</time></trkpt><trkpt lat="43.012177" lon="11.7659218"><ele>383.2</ele><time>2026-05-02T13:19:05.695Z</time></trkpt><trkpt lat="43.0121109" lon="11.765803"><ele>381.6</ele><time>2026-05-02T13:19:06.691Z</time></trkpt><trkpt lat="43.012031" lon="11.7656913"><ele>380.0</ele><time>2026-05-02T13:19:07.69Z</time></trkpt><trkpt lat="43.0119484" lon="11.7655985"><ele>379.2</ele><time>2026-05-02T13:19:08.693Z</time></trkpt><trkpt lat="43.0118703" lon="11.7655202"><ele>378.4</ele><time>2026-05-02T13:19:09.692Z</time></trkpt><trkpt lat="43.0117972" lon="11.765438"><ele>377.6</ele><time>2026-05-02T13:19:10.699Z</time></trkpt><trkpt lat="43.0117194" lon="11.7653461"><ele>376.8</ele><time>2026-05-02T13:19:11.696Z</time></trkpt><trkpt lat="43.0116349" lon="11.7652468"><ele>376.0</ele><time>2026-05-02T13:19:12.693Z</time></trkpt><trkpt lat="43.0115521" lon="11.7651437"><ele>374.6</ele><time>2026-05-02T13:19:13.698Z</time></trkpt><trkpt lat="43.0114687" lon="11.765038"><ele>373.20000000000005</ele><time>2026-05-02T13:19:14.694Z</time></trkpt><trkpt lat="43.0113897" lon="11.764926"><ele>371.79999999999995</ele><time>2026-05-02T13:19:15.686Z</time></trkpt><trkpt lat="43.0113191" lon="11.7648153"><ele>370.4</ele><time>2026-05-02T13:19:16.696Z</time></trkpt><trkpt lat="43.0112514" lon="11.7646971"><ele>369.0</ele><time>2026-05-02T13:19:17.691Z</time></trkpt><trkpt lat="43.0111887" lon="11.7645842"><ele>369.0</ele><time>2026-05-02T13:19:18.686Z</time></trkpt><trkpt lat="43.0111313" lon="11.7644956"><ele>369.0</ele><time>2026-05-02T13:19:19.692Z</time></trkpt><trkpt lat="43.0110791" lon="11.764421"><ele>369.0</ele><time>2026-05-02T13:19:20.676Z</time></trkpt><trkpt lat="43.0110348" lon="11.7643404"><ele>369.0</ele><time>2026-05-02T13:19:21.693Z</time></trkpt><trkpt lat="43.0110007" lon="11.7642544"><ele>369.0</ele><time>2026-05-02T13:19:22.692Z</time></trkpt><trkpt lat="43.0109738" lon="11.7641556"><ele>369.0</ele><time>2026-05-02T13:19:23.686Z</time></trkpt><trkpt lat="43.0109333" lon="11.764047"><ele>368.5</ele><time>2026-05-02T13:19:24.698Z</time></trkpt><trkpt lat="43.0108811" lon="11.7639263"><ele>368.0</ele><time>2026-05-02T13:19:25.698Z</time></trkpt><trkpt lat="43.0108114" lon="11.7637962"><ele>367.5</ele><time>2026-05-02T13:19:26.698Z</time></trkpt><trkpt lat="43.0107382" lon="11.7636572"><ele>367.0</ele><time>2026-05-02T13:19:27.688Z</time></trkpt><trkpt lat="43.0106619" lon="11.7635181"><ele>366.20000000000005</ele><time>2026-05-02T13:19:28.683Z</time></trkpt><trkpt lat="43.0105923" lon="11.7633788"><ele>365.4</ele><time>2026-05-02T13:19:29.692Z</time></trkpt><trkpt lat="43.0105251" lon="11.7632436"><ele>364.6</ele><time>2026-05-02T13:19:30.698Z</time></trkpt><trkpt lat="43.010472" lon="11.7631164"><ele>363.79999999999995</ele><time>2026-05-02T13:19:31.687Z</time></trkpt><trkpt lat="43.0104495" lon="11.7630099"><ele>363.0</ele><time>2026-05-02T13:19:32.698Z</time></trkpt><trkpt lat="43.0104493" lon="11.7629233"><ele>363.0</ele><time>2026-05-02T13:19:33.692Z</time></trkpt><trkpt lat="43.0104705" lon="11.7628338"><ele>363.0</ele><time>2026-05-02T13:19:34.675Z</time></trkpt><trkpt lat="43.0105133" lon="11.7627538"><ele>363.0</ele><time>2026-05-02T13:19:35.682Z</time></trkpt><trkpt lat="43.0105815" lon="11.762689"><ele>363.0</ele><time>2026-05-02T13:19:36.687Z</time></trkpt><trkpt lat="43.0106689" lon="11.7626421"><ele>363.0</ele><time>2026-05-02T13:19:37.683Z</time></trkpt><trkpt lat="43.0107488" lon="11.762612"><ele>363.0</ele><time>2026-05-02T13:19:38.692Z</time></trkpt><trkpt lat="43.0108155" lon="11.7625976"><ele>363.5</ele><time>2026-05-02T13:19:39.68Z</time></trkpt><trkpt lat="43.0109084" lon="11.7625595"><ele>364.0</ele><time>2026-05-02T13:19:41.697Z</time></trkpt><trkpt lat="43.0109521" lon="11.7624935"><ele>364.5</ele><time>2026-05-02T13:30:36.673Z</time></trkpt><trkpt lat="43.0109448" lon="11.7623978"><ele>365.0</ele><time>2026-05-02T13:30:38.69Z</time></trkpt><trkpt lat="43.0108935" lon="11.7623147"><ele>365.5</ele><time>2026-05-02T13:30:39.681Z</time></trkpt><trkpt lat="43.0108246" lon="11.7622177"><ele>366.0</ele><time>2026-05-02T13:30:40.692Z</time></trkpt><trkpt lat="43.0107463" lon="11.7621158"><ele>365.6</ele><time>2026-05-02T13:30:41.684Z</time></trkpt><trkpt lat="43.0106768" lon="11.7620318"><ele>365.20000000000005</ele><time>2026-05-02T13:30:42.687Z</time></trkpt><trkpt lat="43.0106171" lon="11.7619563"><ele>364.79999999999995</ele><time>2026-05-02T13:30:43.693Z</time></trkpt><trkpt lat="43.0105527" lon="11.7618692"><ele>364.4</ele><time>2026-05-02T13:30:44.673Z</time></trkpt><trkpt lat="43.0104784" lon="11.761771"><ele>364.0</ele><time>2026-05-02T13:30:45.689Z</time></trkpt><trkpt lat="43.0104007" lon="11.761661"><ele>364.0</ele><time>2026-05-02T13:30:46.687Z</time></trkpt><trkpt lat="43.0103189" lon="11.7615457"><ele>364.0</ele><time>2026-05-02T13:30:47.682Z</time></trkpt><trkpt lat="43.0102257" lon="11.7614243"><ele>364.0</ele><time>2026-05-02T13:30:48.685Z</time></trkpt><trkpt lat="43.0101242" lon="11.7612865"><ele>364.0</ele><time>2026-05-02T13:30:49.692Z</time></trkpt><trkpt lat="43.0100161" lon="11.7611381"><ele>361.3333333333333</ele><time>2026-05-02T13:30:50.681Z</time></trkpt><trkpt lat="43.0099044" lon="11.7609836"><ele>358.6666666666667</ele><time>2026-05-02T13:30:51.702Z</time></trkpt><trkpt lat="43.0097836" lon="11.7608224"><ele>356.0</ele><time>2026-05-02T13:30:52.686Z</time></trkpt><trkpt lat="43.009664" lon="11.7606513"><ele>356.0</ele><time>2026-05-02T13:30:53.693Z</time></trkpt><trkpt lat="43.0095455" lon="11.7604853"><ele>356.0</ele><time>2026-05-02T13:30:54.683Z</time></trkpt><trkpt lat="43.0094277" lon="11.7603233"><ele>356.0</ele><time>2026-05-02T13:30:55.681Z</time></trkpt><trkpt lat="43.0093133" lon="11.7601682"><ele>355.0</ele><time>2026-05-02T13:30:56.696Z</time></trkpt><trkpt lat="43.0091994" lon="11.7600101"><ele>354.0</ele><time>2026-05-02T13:30:57.688Z</time></trkpt><trkpt lat="43.0090839" lon="11.7598515"><ele>353.0</ele><time>2026-05-02T13:30:58.693Z</time></trkpt><trkpt lat="43.0089709" lon="11.7596879"><ele>351.6666666666667</ele><time>2026-05-02T13:30:59.691Z</time></trkpt><trkpt lat="43.0088581" lon="11.7595255"><ele>350.3333333333333</ele><time>2026-05-02T13:31:00.671Z</time></trkpt><trkpt lat="43.0087486" lon="11.759358"><ele>349.0</ele><time>2026-05-02T13:31:01.677Z</time></trkpt><trkpt lat="43.0086417" lon="11.7591836"><ele>349.0</ele><time>2026-05-02T13:31:02.685Z</time></trkpt><trkpt lat="43.0085453" lon="11.7590011"><ele>349.0</ele><time>2026-05-02T13:31:03.686Z</time></trkpt><trkpt lat="43.0084583" lon="11.7588046"><ele>349.0</ele><time>2026-05-02T13:31:04.676Z</time></trkpt><trkpt lat="43.0083753" lon="11.758597"><ele>348.66666666666663</ele><time>2026-05-02T13:31:05.686Z</time></trkpt><trkpt lat="43.0082967" lon="11.758372"><ele>348.3333333333333</ele><time>2026-05-02T13:31:06.695Z</time></trkpt><trkpt lat="43.0082255" lon="11.7581375"><ele>348.0</ele><time>2026-05-02T13:31:07.688Z</time></trkpt><trkpt lat="43.0081696" lon="11.7578928"><ele>348.0</ele><time>2026-05-02T13:31:08.689Z</time></trkpt><trkpt lat="43.0081282" lon="11.7576442"><ele>348.0</ele><time>2026-05-02T13:31:09.698Z</time></trkpt><trkpt lat="43.0081018" lon="11.7573935"><ele>348.0</ele><time>2026-05-02T13:31:10.688Z</time></trkpt><trkpt lat="43.0080873" lon="11.7571393"><ele>348.0</ele><time>2026-05-02T13:31:11.681Z</time></trkpt><trkpt lat="43.0080869" lon="11.7568798"><ele>348.0</ele><time>2026-05-02T13:31:12.696Z</time></trkpt><trkpt lat="43.0080899" lon="11.7566212"><ele>348.0</ele><time>2026-05-02T13:31:13.678Z</time></trkpt><trkpt lat="43.0080919" lon="11.7563535"><ele>348.0</ele><time>2026-05-02T13:31:14.696Z</time></trkpt><trkpt lat="43.0080932" lon="11.756081"><ele>348.0</ele><time>2026-05-02T13:31:15.688Z</time></trkpt><trkpt lat="43.0080943" lon="11.7558008"><ele>348.0</ele><time>2026-05-02T13:31:16.686Z</time></trkpt><trkpt lat="43.0080977" lon="11.7555174"><ele>347.3333333333333</ele><time>2026-05-02T13:31:17.695Z</time></trkpt><trkpt lat="43.0081018" lon="11.755232"><ele>346.66666666666663</ele><time>2026-05-02T13:31:18.69Z</time></trkpt><trkpt lat="43.0081046" lon="11.7549587"><ele>346.0</ele><time>2026-05-02T13:31:19.686Z</time></trkpt><trkpt lat="43.0081087" lon="11.7546891"><ele>345.0</ele><time>2026-05-02T13:31:20.688Z</time></trkpt><trkpt lat="43.0081126" lon="11.7544151"><ele>344.0</ele><time>2026-05-02T13:31:21.686Z</time></trkpt><trkpt lat="43.0081111" lon="11.75414"><ele>343.0</ele><time>2026-05-02T13:31:22.693Z</time></trkpt><trkpt lat="43.0080936" lon="11.7538611"><ele>341.3333333333333</ele><time>2026-05-02T13:31:23.683Z</time></trkpt><trkpt lat="43.0080493" lon="11.7535873"><ele>339.6666666666667</ele><time>2026-05-02T13:31:24.688Z</time></trkpt><trkpt lat="43.0079806" lon="11.7533231"><ele>338.0</ele><time>2026-05-02T13:31:25.678Z</time></trkpt><trkpt lat="43.0078861" lon="11.7530708"><ele>338.0</ele><time>2026-05-02T13:31:26.686Z</time></trkpt><trkpt lat="43.0077774" lon="11.7528247"><ele>338.0</ele><time>2026-05-02T13:31:27.677Z</time></trkpt><trkpt lat="43.0076623" lon="11.7525844"><ele>338.0</ele><time>2026-05-02T13:31:28.686Z</time></trkpt><trkpt lat="43.0075528" lon="11.7523444"><ele>337.0</ele><time>2026-05-02T13:31:29.687Z</time></trkpt><trkpt lat="43.0074519" lon="11.7521079"><ele>336.0</ele><time>2026-05-02T13:31:30.691Z</time></trkpt><trkpt lat="43.0073661" lon="11.7518582"><ele>335.0</ele><time>2026-05-02T13:31:31.682Z</time></trkpt><trkpt lat="43.0072998" lon="11.7515948"><ele>335.33333333333337</ele><time>2026-05-02T13:31:32.684Z</time></trkpt><trkpt lat="43.0072617" lon="11.7513205"><ele>335.6666666666667</ele><time>2026-05-02T13:31:33.682Z</time></trkpt><trkpt lat="43.0072438" lon="11.7510247"><ele>336.0</ele><time>2026-05-02T13:31:34.697Z</time></trkpt><trkpt lat="43.0072404" lon="11.7507198"><ele>336.0</ele><time>2026-05-02T13:31:35.679Z</time></trkpt><trkpt lat="43.0072468" lon="11.7504095"><ele>336.0</ele><time>2026-05-02T13:31:36.692Z</time></trkpt><trkpt lat="43.0072533" lon="11.7500969"><ele>335.0</ele><time>2026-05-02T13:31:37.682Z</time></trkpt><trkpt lat="43.0072587" lon="11.7497818"><ele>334.0</ele><time>2026-05-02T13:31:38.683Z</time></trkpt><trkpt lat="43.0072591" lon="11.7494717"><ele>332.5</ele><time>2026-05-02T13:31:39.688Z</time></trkpt><trkpt lat="43.0072589" lon="11.7491611"><ele>331.0</ele><time>2026-05-02T13:31:40.691Z</time></trkpt><trkpt lat="43.0072603" lon="11.7488533"><ele>331.0</ele><time>2026-05-02T13:31:41.702Z</time></trkpt><trkpt lat="43.0072632" lon="11.7485494"><ele>331.0</ele><time>2026-05-02T13:31:42.689Z</time></trkpt><trkpt lat="43.0072651" lon="11.7482491"><ele>331.0</ele><time>2026-05-02T13:31:43.675Z</time></trkpt><trkpt lat="43.0072666" lon="11.7479472"><ele>328.3333333333333</ele><time>2026-05-02T13:31:44.686Z</time></trkpt><trkpt lat="43.0072682" lon="11.7476453"><ele>325.6666666666667</ele><time>2026-05-02T13:31:45.69Z</time></trkpt><trkpt lat="43.0072733" lon="11.7473442"><ele>323.0</ele><time>2026-05-02T13:31:46.692Z</time></trkpt><trkpt lat="43.0072777" lon="11.7470374"><ele>322.6666666666667</ele><time>2026-05-02T13:31:47.693Z</time></trkpt><trkpt lat="43.0072817" lon="11.7467325"><ele>322.3333333333333</ele><time>2026-05-02T13:31:48.689Z</time></trkpt><trkpt lat="43.0072863" lon="11.746433"><ele>322.0</ele><time>2026-05-02T13:31:49.677Z</time></trkpt><trkpt lat="43.007288" lon="11.7461466"><ele>320.66666666666663</ele><time>2026-05-02T13:31:50.677Z</time></trkpt><trkpt lat="43.0072899" lon="11.7458625"><ele>319.3333333333333</ele><time>2026-05-02T13:31:51.689Z</time></trkpt><trkpt lat="43.0072923" lon="11.7455741"><ele>318.0</ele><time>2026-05-02T13:31:52.692Z</time></trkpt><trkpt lat="43.0072958" lon="11.7452843"><ele>315.3333333333333</ele><time>2026-05-02T13:31:53.694Z</time></trkpt><trkpt lat="43.0072971" lon="11.7449972"><ele>312.66666666666663</ele><time>2026-05-02T13:31:54.684Z</time></trkpt><trkpt lat="43.0072972" lon="11.7447099"><ele>310.0</ele><time>2026-05-02T13:31:55.674Z</time></trkpt><trkpt lat="43.0073001" lon="11.7444214"><ele>308.66666666666663</ele><time>2026-05-02T13:31:56.686Z</time></trkpt><trkpt lat="43.0073034" lon="11.7441322"><ele>307.3333333333333</ele><time>2026-05-02T13:31:57.672Z</time></trkpt><trkpt lat="43.0073072" lon="11.7438407"><ele>306.0</ele><time>2026-05-02T13:31:58.693Z</time></trkpt><trkpt lat="43.0073112" lon="11.7435486"><ele>305.6666666666667</ele><time>2026-05-02T13:31:59.686Z</time></trkpt><trkpt lat="43.0073152" lon="11.7432513"><ele>305.33333333333337</ele><time>2026-05-02T13:32:00.69Z</time></trkpt><trkpt lat="43.007319" lon="11.7429517"><ele>305.0</ele><time>2026-05-02T13:32:01.684Z</time></trkpt><trkpt lat="43.007321" lon="11.7426504"><ele>304.33333333333337</ele><time>2026-05-02T13:32:02.685Z</time></trkpt><trkpt lat="43.0073246" lon="11.7423522"><ele>303.6666666666667</ele><time>2026-05-02T13:32:03.676Z</time></trkpt><trkpt lat="43.0073275" lon="11.7420552"><ele>303.0</ele><time>2026-05-02T13:32:04.678Z</time></trkpt><trkpt lat="43.0073303" lon="11.741758"><ele>303.0</ele><time>2026-05-02T13:32:05.68Z</time></trkpt><trkpt lat="43.0073328" lon="11.7414628"><ele>303.0</ele><time>2026-05-02T13:32:06.695Z</time></trkpt><trkpt lat="43.0073337" lon="11.7411682"><ele>303.0</ele><time>2026-05-02T13:32:07.688Z</time></trkpt><trkpt lat="43.0073324" lon="11.7408765"><ele>303.0</ele><time>2026-05-02T13:32:08.689Z</time></trkpt><trkpt lat="43.0073317" lon="11.7405825"><ele>303.0</ele><time>2026-05-02T13:32:09.681Z</time></trkpt><trkpt lat="43.0073365" lon="11.7402911"><ele>303.0</ele><time>2026-05-02T13:32:10.689Z</time></trkpt><trkpt lat="43.0073436" lon="11.7399983"><ele>302.3333333333333</ele><time>2026-05-02T13:32:11.69Z</time></trkpt><trkpt lat="43.0073479" lon="11.7397064"><ele>301.66666666666663</ele><time>2026-05-02T13:32:12.685Z</time></trkpt><trkpt lat="43.0073498" lon="11.7394122"><ele>301.0</ele><time>2026-05-02T13:32:13.685Z</time></trkpt><trkpt lat="43.0073518" lon="11.7391186"><ele>301.0</ele><time>2026-05-02T13:32:14.684Z</time></trkpt><trkpt lat="43.0073518" lon="11.7388207"><ele>301.0</ele><time>2026-05-02T13:32:15.687Z</time></trkpt><trkpt lat="43.0073533" lon="11.7385182"><ele>301.0</ele><time>2026-05-02T13:32:16.685Z</time></trkpt><trkpt lat="43.0073568" lon="11.7382089"><ele>301.5</ele><time>2026-05-02T13:32:17.686Z</time></trkpt><trkpt lat="43.0073587" lon="11.7378994"><ele>302.0</ele><time>2026-05-02T13:32:18.688Z</time></trkpt><trkpt lat="43.0073632" lon="11.7375828"><ele>302.5</ele><time>2026-05-02T13:32:19.687Z</time></trkpt><trkpt lat="43.0073663" lon="11.7372726"><ele>303.0</ele><time>2026-05-02T13:32:20.69Z</time></trkpt><trkpt lat="43.0073711" lon="11.7369681"><ele>304.0</ele><time>2026-05-02T13:32:21.679Z</time></trkpt><trkpt lat="43.0073793" lon="11.7366612"><ele>305.0</ele><time>2026-05-02T13:32:22.686Z</time></trkpt><trkpt lat="43.0073826" lon="11.7363588"><ele>306.0</ele><time>2026-05-02T13:32:23.687Z</time></trkpt><trkpt lat="43.0073845" lon="11.7360593"><ele>308.0</ele><time>2026-05-02T13:32:24.68Z</time></trkpt><trkpt lat="43.0073871" lon="11.735757"><ele>310.0</ele><time>2026-05-02T13:32:25.681Z</time></trkpt><trkpt lat="43.0073924" lon="11.7354531"><ele>312.0</ele><time>2026-05-02T13:32:26.688Z</time></trkpt><trkpt lat="43.0073979" lon="11.7351581"><ele>312.6666666666667</ele><time>2026-05-02T13:32:27.688Z</time></trkpt><trkpt lat="43.0074001" lon="11.7348702"><ele>313.33333333333337</ele><time>2026-05-02T13:32:28.689Z</time></trkpt><trkpt lat="43.0074012" lon="11.7345891"><ele>314.0</ele><time>2026-05-02T13:32:29.68Z</time></trkpt><trkpt lat="43.0073969" lon="11.7343107"><ele>314.0</ele><time>2026-05-02T13:32:30.7Z</time></trkpt><trkpt lat="43.0073789" lon="11.7340348"><ele>314.0</ele><time>2026-05-02T13:32:31.696Z</time></trkpt><trkpt lat="43.0073464" lon="11.7337576"><ele>314.0</ele><time>2026-05-02T13:32:32.67Z</time></trkpt><trkpt lat="43.007298" lon="11.733492"><ele>314.0</ele><time>2026-05-02T13:32:33.685Z</time></trkpt><trkpt lat="43.0072404" lon="11.73324"><ele>314.0</ele><time>2026-05-02T13:32:34.703Z</time></trkpt><trkpt lat="43.0071776" lon="11.7330067"><ele>314.0</ele><time>2026-05-02T13:32:35.687Z</time></trkpt><trkpt lat="43.0071058" lon="11.7327868"><ele>312.33333333333337</ele><time>2026-05-02T13:32:36.703Z</time></trkpt><trkpt lat="43.0070305" lon="11.7325782"><ele>310.6666666666667</ele><time>2026-05-02T13:32:37.689Z</time></trkpt><trkpt lat="43.006948" lon="11.7323807"><ele>309.0</ele><time>2026-05-02T13:32:38.688Z</time></trkpt><trkpt lat="43.0068604" lon="11.732188"><ele>309.0</ele><time>2026-05-02T13:32:39.683Z</time></trkpt><trkpt lat="43.006767" lon="11.7320026"><ele>309.0</ele><time>2026-05-02T13:32:40.691Z</time></trkpt><trkpt lat="43.006675" lon="11.7318348"><ele>309.0</ele><time>2026-05-02T13:32:41.681Z</time></trkpt><trkpt lat="43.0065821" lon="11.731677"><ele>309.3333333333333</ele><time>2026-05-02T13:32:42.693Z</time></trkpt><trkpt lat="43.0064848" lon="11.7315242"><ele>309.66666666666663</ele><time>2026-05-02T13:32:43.69Z</time></trkpt><trkpt lat="43.0063769" lon="11.7313791"><ele>310.0</ele><time>2026-05-02T13:32:44.692Z</time></trkpt><trkpt lat="43.0062634" lon="11.7312395"><ele>310.0</ele><time>2026-05-02T13:32:45.684Z</time></trkpt><trkpt lat="43.0061444" lon="11.7311029"><ele>310.0</ele><time>2026-05-02T13:32:46.693Z</time></trkpt><trkpt lat="43.0060261" lon="11.7309767"><ele>310.0</ele><time>2026-05-02T13:32:47.684Z</time></trkpt><trkpt lat="43.0059123" lon="11.7308636"><ele>310.0</ele><time>2026-05-02T13:32:48.689Z</time></trkpt><trkpt lat="43.0058004" lon="11.7307708"><ele>310.0</ele><time>2026-05-02T13:32:49.675Z</time></trkpt><trkpt lat="43.0056894" lon="11.7306853"><ele>310.0</ele><time>2026-05-02T13:32:50.687Z</time></trkpt><trkpt lat="43.0055705" lon="11.7306006"><ele>310.0</ele><time>2026-05-02T13:32:51.684Z</time></trkpt><trkpt lat="43.00544" lon="11.7305174"><ele>310.0</ele><time>2026-05-02T13:32:52.702Z</time></trkpt><trkpt lat="43.0052992" lon="11.7304377"><ele>310.0</ele><time>2026-05-02T13:32:53.685Z</time></trkpt><trkpt lat="43.005151" lon="11.7303586"><ele>310.0</ele><time>2026-05-02T13:32:54.698Z</time></trkpt><trkpt lat="43.0049937" lon="11.730281"><ele>310.0</ele><time>2026-05-02T13:32:55.688Z</time></trkpt><trkpt lat="43.0048286" lon="11.7301994"><ele>309.66666666666663</ele><time>2026-05-02T13:32:56.695Z</time></trkpt><trkpt lat="43.0046571" lon="11.7301202"><ele>309.3333333333333</ele><time>2026-05-02T13:32:57.682Z</time></trkpt><trkpt lat="43.0044834" lon="11.730036"><ele>309.0</ele><time>2026-05-02T13:32:58.693Z</time></trkpt><trkpt lat="43.004308" lon="11.7299484"><ele>309.3333333333333</ele><time>2026-05-02T13:32:59.674Z</time></trkpt><trkpt lat="43.0041328" lon="11.7298677"><ele>309.66666666666663</ele><time>2026-05-02T13:33:00.694Z</time></trkpt><trkpt lat="43.0039553" lon="11.7297863"><ele>310.0</ele><time>2026-05-02T13:33:01.686Z</time></trkpt><trkpt lat="43.0037784" lon="11.729705"><ele>310.0</ele><time>2026-05-02T13:33:02.68Z</time></trkpt><trkpt lat="43.0035988" lon="11.7296185"><ele>310.0</ele><time>2026-05-02T13:33:03.674Z</time></trkpt><trkpt lat="43.0034191" lon="11.7295291"><ele>310.0</ele><time>2026-05-02T13:33:04.687Z</time></trkpt><trkpt lat="43.0032433" lon="11.7294237"><ele>310.66666666666663</ele><time>2026-05-02T13:33:05.691Z</time></trkpt><trkpt lat="43.0030679" lon="11.7293103"><ele>311.3333333333333</ele><time>2026-05-02T13:33:06.701Z</time></trkpt><trkpt lat="43.0028937" lon="11.7291865"><ele>312.0</ele><time>2026-05-02T13:33:07.68Z</time></trkpt><trkpt lat="43.0027257" lon="11.7290595"><ele>312.0</ele><time>2026-05-02T13:33:08.676Z</time></trkpt><trkpt lat="43.0025661" lon="11.728941"><ele>312.0</ele><time>2026-05-02T13:33:09.671Z</time></trkpt><trkpt lat="43.0024098" lon="11.7288229"><ele>312.0</ele><time>2026-05-02T13:33:10.682Z</time></trkpt><trkpt lat="43.0022569" lon="11.7287083"><ele>312.3333333333333</ele><time>2026-05-02T13:33:11.676Z</time></trkpt><trkpt lat="43.0021093" lon="11.7285988"><ele>312.66666666666663</ele><time>2026-05-02T13:33:12.688Z</time></trkpt><trkpt lat="43.0019701" lon="11.7284939"><ele>313.0</ele><time>2026-05-02T13:33:13.678Z</time></trkpt><trkpt lat="43.00183" lon="11.7283901"><ele>313.25</ele><time>2026-05-02T13:33:14.679Z</time></trkpt><trkpt lat="43.0016957" lon="11.7282867"><ele>313.5</ele><time>2026-05-02T13:33:15.682Z</time></trkpt><trkpt lat="43.0015772" lon="11.7282001"><ele>313.75</ele><time>2026-05-02T13:33:16.684Z</time></trkpt><trkpt lat="43.0014791" lon="11.7281292"><ele>314.0</ele><time>2026-05-02T13:33:17.677Z</time></trkpt><trkpt lat="43.0013939" lon="11.7280697"><ele>314.0</ele><time>2026-05-02T13:33:18.681Z</time></trkpt><trkpt lat="43.0013216" lon="11.7280157"><ele>314.0</ele><time>2026-05-02T13:33:19.675Z</time></trkpt><trkpt lat="43.0012577" lon="11.7279663"><ele>314.0</ele><time>2026-05-02T13:33:20.684Z</time></trkpt><trkpt lat="43.0011992" lon="11.727921"><ele>314.0</ele><time>2026-05-02T13:33:21.684Z</time></trkpt><trkpt lat="43.0011334" lon="11.727863"><ele>314.0</ele><time>2026-05-02T13:33:23.684Z</time></trkpt><trkpt lat="43.0011222" lon="11.7277533"><ele>314.0</ele><time>2026-05-02T13:33:26.67Z</time></trkpt><trkpt lat="43.0011728" lon="11.7276789"><ele>314.0</ele><time>2026-05-02T13:33:29.683Z</time></trkpt><trkpt lat="43.0012295" lon="11.7276335"><ele>314.0</ele><time>2026-05-02T13:33:34.678Z</time></trkpt><trkpt lat="43.0013029" lon="11.7275939"><ele>314.0</ele><time>2026-05-02T13:33:39.688Z</time></trkpt><trkpt lat="43.0013655" lon="11.7275618"><ele>314.0</ele><time>2026-05-02T13:33:41.691Z</time></trkpt><trkpt lat="43.0014322" lon="11.7275272"><ele>314.0</ele><time>2026-05-02T13:33:42.713Z</time></trkpt><trkpt lat="43.0015125" lon="11.7274847"><ele>314.0</ele><time>2026-05-02T13:33:43.678Z</time></trkpt><trkpt lat="43.0015986" lon="11.7274324"><ele>313.59999999999997</ele><time>2026-05-02T13:33:44.701Z</time></trkpt><trkpt lat="43.0016855" lon="11.7273599"><ele>313.2</ele><time>2026-05-02T13:33:45.691Z</time></trkpt><trkpt lat="43.0017666" lon="11.7272736"><ele>312.79999999999995</ele><time>2026-05-02T13:33:46.68Z</time></trkpt><trkpt lat="43.0018381" lon="11.7271661"><ele>312.4</ele><time>2026-05-02T13:33:47.686Z</time></trkpt><trkpt lat="43.0019" lon="11.7270433"><ele>312.0</ele><time>2026-05-02T13:33:48.694Z</time></trkpt><trkpt lat="43.0019554" lon="11.7269085"><ele>312.0</ele><time>2026-05-02T13:33:49.686Z</time></trkpt><trkpt lat="43.0020065" lon="11.7267756"><ele>312.0</ele><time>2026-05-02T13:33:50.699Z</time></trkpt><trkpt lat="43.0020567" lon="11.7266479"><ele>312.0</ele><time>2026-05-02T13:33:51.69Z</time></trkpt><trkpt lat="43.0021125" lon="11.7265446"><ele>312.0</ele><time>2026-05-02T13:33:52.682Z</time></trkpt><trkpt lat="43.0021879" lon="11.7264627"><ele>312.0</ele><time>2026-05-02T13:33:53.684Z</time></trkpt><trkpt lat="43.0022787" lon="11.7264063"><ele>312.0</ele><time>2026-05-02T13:33:54.687Z</time></trkpt><trkpt lat="43.0023835" lon="11.7263614"><ele>312.0</ele><time>2026-05-02T13:33:55.685Z</time></trkpt><trkpt lat="43.0024979" lon="11.726321"><ele>312.0</ele><time>2026-05-02T13:33:56.683Z</time></trkpt><trkpt lat="43.0026117" lon="11.7262669"><ele>312.0</ele><time>2026-05-02T13:33:57.681Z</time></trkpt><trkpt lat="43.0027206" lon="11.7261884"><ele>312.0</ele><time>2026-05-02T13:33:58.684Z</time></trkpt><trkpt lat="43.0028307" lon="11.7261047"><ele>312.0</ele><time>2026-05-02T13:33:59.68Z</time></trkpt><trkpt lat="43.0029458" lon="11.7260392"><ele>312.0</ele><time>2026-05-02T13:34:00.69Z</time></trkpt><trkpt lat="43.0030606" lon="11.7259945"><ele>312.0</ele><time>2026-05-02T13:34:01.685Z</time></trkpt><trkpt lat="43.0031723" lon="11.7259605"><ele>312.4</ele><time>2026-05-02T13:34:02.692Z</time></trkpt><trkpt lat="43.0032803" lon="11.7259199"><ele>312.79999999999995</ele><time>2026-05-02T13:34:03.686Z</time></trkpt><trkpt lat="43.0033815" lon="11.7258613"><ele>313.2</ele><time>2026-05-02T13:34:04.697Z</time></trkpt><trkpt lat="43.0034701" lon="11.7257858"><ele>313.59999999999997</ele><time>2026-05-02T13:34:05.701Z</time></trkpt><trkpt lat="43.003539" lon="11.7256942"><ele>314.0</ele><time>2026-05-02T13:34:06.695Z</time></trkpt><trkpt lat="43.0035898" lon="11.7255793"><ele>314.4</ele><time>2026-05-02T13:34:07.694Z</time></trkpt><trkpt lat="43.0036151" lon="11.7254528"><ele>314.79999999999995</ele><time>2026-05-02T13:34:08.702Z</time></trkpt><trkpt lat="43.0036177" lon="11.7253166"><ele>315.20000000000005</ele><time>2026-05-02T13:34:09.68Z</time></trkpt><trkpt lat="43.0036063" lon="11.7251767"><ele>315.6</ele><time>2026-05-02T13:34:10.693Z</time></trkpt><trkpt lat="43.0036096" lon="11.7250328"><ele>316.0</ele><time>2026-05-02T13:34:11.682Z</time></trkpt><trkpt lat="43.0036345" lon="11.724889"><ele>317.0</ele><time>2026-05-02T13:34:12.691Z</time></trkpt><trkpt lat="43.0036803" lon="11.7247525"><ele>318.0</ele><time>2026-05-02T13:34:13.691Z</time></trkpt><trkpt lat="43.0037446" lon="11.7246255"><ele>319.0</ele><time>2026-05-02T13:34:14.688Z</time></trkpt><trkpt lat="43.0038137" lon="11.7245023"><ele>320.0</ele><time>2026-05-02T13:34:15.683Z</time></trkpt><trkpt lat="43.0038891" lon="11.7243859"><ele>321.0</ele><time>2026-05-02T13:34:16.691Z</time></trkpt><trkpt lat="43.003967" lon="11.7242778"><ele>322.0</ele><time>2026-05-02T13:34:17.675Z</time></trkpt><trkpt lat="43.0040485" lon="11.7241848"><ele>323.0</ele><time>2026-05-02T13:34:18.68Z</time></trkpt><trkpt lat="43.0041316" lon="11.7241096"><ele>324.0</ele><time>2026-05-02T13:34:19.681Z</time></trkpt><trkpt lat="43.0042212" lon="11.7240615"><ele>325.0</ele><time>2026-05-02T13:34:20.683Z</time></trkpt><trkpt lat="43.0043075" lon="11.724046"><ele>326.0</ele><time>2026-05-02T13:34:21.683Z</time></trkpt><trkpt lat="43.0043788" lon="11.7240299"><ele>327.0</ele><time>2026-05-02T13:34:22.685Z</time></trkpt><trkpt lat="43.0044679" lon="11.7239283"><ele>328.0</ele><time>2026-05-02T13:34:24.691Z</time></trkpt><trkpt lat="43.0044706" lon="11.7237992"><ele>329.0</ele><time>2026-05-02T13:34:25.684Z</time></trkpt><trkpt lat="43.0044435" lon="11.7236499"><ele>330.0</ele><time>2026-05-02T13:34:26.688Z</time></trkpt><trkpt lat="43.0044077" lon="11.7235004"><ele>330.0</ele><time>2026-05-02T13:34:27.687Z</time></trkpt><trkpt lat="43.0043796" lon="11.7233622"><ele>330.0</ele><time>2026-05-02T13:34:28.676Z</time></trkpt><trkpt lat="43.0043584" lon="11.7232532"><ele>330.0</ele><time>2026-05-02T13:34:29.686Z</time></trkpt><trkpt lat="43.0043212" lon="11.7230937"><ele>330.0</ele><time>2026-05-02T13:34:31.677Z</time></trkpt><trkpt lat="43.0042783" lon="11.7230063"><ele>330.0</ele><time>2026-05-02T13:34:32.689Z</time></trkpt><trkpt lat="43.0042247" lon="11.7229121"><ele>330.0</ele><time>2026-05-02T13:34:33.68Z</time></trkpt><trkpt lat="43.0041736" lon="11.7228051"><ele>330.0</ele><time>2026-05-02T13:34:34.686Z</time></trkpt><trkpt lat="43.0041335" lon="11.7226847"><ele>330.0</ele><time>2026-05-02T13:34:35.678Z</time></trkpt><trkpt lat="43.0041217" lon="11.7225514"><ele>330.0</ele><time>2026-05-02T13:34:36.691Z</time></trkpt><trkpt lat="43.0041384" lon="11.7224101"><ele>330.0</ele><time>2026-05-02T13:34:37.687Z</time></trkpt><trkpt lat="43.0041681" lon="11.7222682"><ele>329.6666666666667</ele><time>2026-05-02T13:34:38.678Z</time></trkpt><trkpt lat="43.0041953" lon="11.7221311"><ele>329.3333333333333</ele><time>2026-05-02T13:34:39.683Z</time></trkpt><trkpt lat="43.0042207" lon="11.7220057"><ele>329.0</ele><time>2026-05-02T13:34:40.685Z</time></trkpt><trkpt lat="43.004244" lon="11.7218992"><ele>328.66666666666663</ele><time>2026-05-02T13:34:41.694Z</time></trkpt><trkpt lat="43.0042642" lon="11.7217982"><ele>328.3333333333333</ele><time>2026-05-02T13:34:42.679Z</time></trkpt><trkpt lat="43.0042883" lon="11.7216919"><ele>328.0</ele><time>2026-05-02T13:34:43.686Z</time></trkpt><trkpt lat="43.0043125" lon="11.7215818"><ele>328.0</ele><time>2026-05-02T13:34:44.688Z</time></trkpt><trkpt lat="43.0043352" lon="11.7214716"><ele>328.0</ele><time>2026-05-02T13:34:45.685Z</time></trkpt><trkpt lat="43.0043582" lon="11.721362"><ele>328.0</ele><time>2026-05-02T13:34:46.679Z</time></trkpt><trkpt lat="43.0043804" lon="11.7212534"><ele>328.0</ele><time>2026-05-02T13:34:47.682Z</time></trkpt><trkpt lat="43.0044026" lon="11.721143"><ele>328.0</ele><time>2026-05-02T13:34:48.69Z</time></trkpt><trkpt lat="43.0044267" lon="11.7210299"><ele>328.0</ele><time>2026-05-02T13:34:49.699Z</time></trkpt><trkpt lat="43.004452" lon="11.7209165"><ele>328.2</ele><time>2026-05-02T13:34:50.691Z</time></trkpt><trkpt lat="43.0044809" lon="11.720797"><ele>328.4</ele><time>2026-05-02T13:34:51.681Z</time></trkpt><trkpt lat="43.0045118" lon="11.7206704"><ele>328.59999999999997</ele><time>2026-05-02T13:34:52.682Z</time></trkpt><trkpt lat="43.0045407" lon="11.7205383"><ele>328.79999999999995</ele><time>2026-05-02T13:34:53.685Z</time></trkpt><trkpt lat="43.0045683" lon="11.7204063"><ele>329.0</ele><time>2026-05-02T13:34:54.691Z</time></trkpt><trkpt lat="43.0045955" lon="11.7202748"><ele>329.0</ele><time>2026-05-02T13:34:55.682Z</time></trkpt><trkpt lat="43.0046201" lon="11.7201438"><ele>329.0</ele><time>2026-05-02T13:34:56.686Z</time></trkpt><trkpt lat="43.0046435" lon="11.7200229"><ele>329.0</ele><time>2026-05-02T13:34:57.687Z</time></trkpt><trkpt lat="43.0046629" lon="11.7199104"><ele>329.0</ele><time>2026-05-02T13:34:58.687Z</time></trkpt><trkpt lat="43.0046824" lon="11.7198046"><ele>329.0</ele><time>2026-05-02T13:34:59.678Z</time></trkpt><trkpt lat="43.0047016" lon="11.7196881"><ele>329.0</ele><time>2026-05-02T13:35:00.69Z</time></trkpt><trkpt lat="43.0047248" lon="11.719558"><ele>329.0</ele><time>2026-05-02T13:35:01.681Z</time></trkpt><trkpt lat="43.0047485" lon="11.7194197"><ele>329.0</ele><time>2026-05-02T13:35:02.684Z</time></trkpt><trkpt lat="43.0047736" lon="11.7192725"><ele>329.0</ele><time>2026-05-02T13:35:03.698Z</time></trkpt><trkpt lat="43.004798" lon="11.7191235"><ele>329.0</ele><time>2026-05-02T13:35:04.685Z</time></trkpt><trkpt lat="43.0048237" lon="11.7189772"><ele>329.0</ele><time>2026-05-02T13:35:05.677Z</time></trkpt><trkpt lat="43.0048458" lon="11.7188361"><ele>328.2</ele><time>2026-05-02T13:35:06.688Z</time></trkpt><trkpt lat="43.0048661" lon="11.7187006"><ele>327.4</ele><time>2026-05-02T13:35:07.697Z</time></trkpt><trkpt lat="43.0048804" lon="11.7185708"><ele>326.6</ele><time>2026-05-02T13:35:08.71Z</time></trkpt><trkpt lat="43.0048861" lon="11.7184398"><ele>325.8</ele><time>2026-05-02T13:35:09.692Z</time></trkpt><trkpt lat="43.0048823" lon="11.7182966"><ele>325.0</ele><time>2026-05-02T13:35:10.688Z</time></trkpt><trkpt lat="43.0048722" lon="11.718143"><ele>323.4</ele><time>2026-05-02T13:35:11.694Z</time></trkpt><trkpt lat="43.0048646" lon="11.7179863"><ele>321.8</ele><time>2026-05-02T13:35:12.698Z</time></trkpt><trkpt lat="43.0048513" lon="11.7178345"><ele>320.2</ele><time>2026-05-02T13:35:13.68Z</time></trkpt><trkpt lat="43.0048337" lon="11.7176933"><ele>318.6</ele><time>2026-05-02T13:35:14.698Z</time></trkpt><trkpt lat="43.0048074" lon="11.7175565"><ele>317.0</ele><time>2026-05-02T13:35:15.69Z</time></trkpt><trkpt lat="43.0047714" lon="11.7174098"><ele>316.0</ele><time>2026-05-02T13:35:16.695Z</time></trkpt><trkpt lat="43.004727" lon="11.7172542"><ele>315.0</ele><time>2026-05-02T13:35:17.696Z</time></trkpt><trkpt lat="43.0046803" lon="11.7170919"><ele>314.0</ele><time>2026-05-02T13:35:18.694Z</time></trkpt><trkpt lat="43.0046306" lon="11.7169267"><ele>313.0</ele><time>2026-05-02T13:35:19.688Z</time></trkpt><trkpt lat="43.0045796" lon="11.7167588"><ele>312.25</ele><time>2026-05-02T13:35:20.69Z</time></trkpt><trkpt lat="43.0045258" lon="11.7165967"><ele>311.5</ele><time>2026-05-02T13:35:21.686Z</time></trkpt><trkpt lat="43.0044703" lon="11.716442"><ele>310.75</ele><time>2026-05-02T13:35:22.692Z</time></trkpt><trkpt lat="43.0044253" lon="11.7162877"><ele>310.0</ele><time>2026-05-02T13:35:23.687Z</time></trkpt><trkpt lat="43.0043839" lon="11.7161352"><ele>309.25</ele><time>2026-05-02T13:35:24.69Z</time></trkpt><trkpt lat="43.0043323" lon="11.7159886"><ele>308.5</ele><time>2026-05-02T13:35:25.693Z</time></trkpt><trkpt lat="43.0042706" lon="11.715849"><ele>307.75</ele><time>2026-05-02T13:35:26.695Z</time></trkpt><trkpt lat="43.0041917" lon="11.7157288"><ele>307.0</ele><time>2026-05-02T13:35:27.678Z</time></trkpt><trkpt lat="43.0041201" lon="11.7156069"><ele>307.8</ele><time>2026-05-02T13:35:28.67Z</time></trkpt><trkpt lat="43.0040648" lon="11.7154759"><ele>308.6</ele><time>2026-05-02T13:35:29.689Z</time></trkpt><trkpt lat="43.0040441" lon="11.7153275"><ele>309.40000000000003</ele><time>2026-05-02T13:35:30.672Z</time></trkpt><trkpt lat="43.0040508" lon="11.7151825"><ele>310.2</ele><time>2026-05-02T13:35:31.686Z</time></trkpt><trkpt lat="43.0040739" lon="11.715037"><ele>311.0</ele><time>2026-05-02T13:35:32.691Z</time></trkpt><trkpt lat="43.0041052" lon="11.7148854"><ele>311.0</ele><time>2026-05-02T13:35:33.691Z</time></trkpt><trkpt lat="43.0041407" lon="11.7147345"><ele>311.0</ele><time>2026-05-02T13:35:34.685Z</time></trkpt><trkpt lat="43.0041803" lon="11.714582"><ele>311.0</ele><time>2026-05-02T13:35:35.68Z</time></trkpt><trkpt lat="43.0042279" lon="11.7144373"><ele>311.0</ele><time>2026-05-02T13:35:36.694Z</time></trkpt><trkpt lat="43.0042742" lon="11.7142844"><ele>312.25</ele><time>2026-05-02T13:35:37.697Z</time></trkpt><trkpt lat="43.004323" lon="11.7141357"><ele>313.5</ele><time>2026-05-02T13:35:38.692Z</time></trkpt><trkpt lat="43.0043736" lon="11.7139862"><ele>314.75</ele><time>2026-05-02T13:35:39.686Z</time></trkpt><trkpt lat="43.0044245" lon="11.7138347"><ele>316.0</ele><time>2026-05-02T13:35:40.693Z</time></trkpt><trkpt lat="43.0044765" lon="11.7136846"><ele>316.5</ele><time>2026-05-02T13:35:41.684Z</time></trkpt><trkpt lat="43.0045263" lon="11.7135301"><ele>317.0</ele><time>2026-05-02T13:35:42.693Z</time></trkpt><trkpt lat="43.004574" lon="11.7133708"><ele>317.5</ele><time>2026-05-02T13:35:43.691Z</time></trkpt><trkpt lat="43.0046212" lon="11.7132178"><ele>318.0</ele><time>2026-05-02T13:35:44.694Z</time></trkpt><trkpt lat="43.004672" lon="11.7130625"><ele>318.0</ele><time>2026-05-02T13:35:45.681Z</time></trkpt><trkpt lat="43.004728" lon="11.7129066"><ele>318.0</ele><time>2026-05-02T13:35:46.695Z</time></trkpt><trkpt lat="43.0047854" lon="11.7127473"><ele>318.0</ele><time>2026-05-02T13:35:47.684Z</time></trkpt><trkpt lat="43.0048413" lon="11.7125865"><ele>318.0</ele><time>2026-05-02T13:35:48.697Z</time></trkpt><trkpt lat="43.0048923" lon="11.7124223"><ele>318.25</ele><time>2026-05-02T13:35:49.685Z</time></trkpt><trkpt lat="43.0049406" lon="11.7122558"><ele>318.5</ele><time>2026-05-02T13:35:50.691Z</time></trkpt><trkpt lat="43.0049741" lon="11.7120868"><ele>318.75</ele><time>2026-05-02T13:35:51.67Z</time></trkpt><trkpt lat="43.0049841" lon="11.7119213"><ele>319.0</ele><time>2026-05-02T13:35:52.684Z</time></trkpt><trkpt lat="43.0049793" lon="11.7117599"><ele>319.4</ele><time>2026-05-02T13:35:53.675Z</time></trkpt><trkpt lat="43.0049712" lon="11.7116038"><ele>319.79999999999995</ele><time>2026-05-02T13:35:54.695Z</time></trkpt><trkpt lat="43.0049617" lon="11.7114491"><ele>320.20000000000005</ele><time>2026-05-02T13:35:55.692Z</time></trkpt><trkpt lat="43.004966" lon="11.7113043"><ele>320.6</ele><time>2026-05-02T13:35:56.695Z</time></trkpt><trkpt lat="43.0049858" lon="11.7111647"><ele>321.0</ele><time>2026-05-02T13:35:57.695Z</time></trkpt><trkpt lat="43.0050214" lon="11.7110254"><ele>323.8</ele><time>2026-05-02T13:35:58.691Z</time></trkpt><trkpt lat="43.0050681" lon="11.7108914"><ele>326.6</ele><time>2026-05-02T13:35:59.69Z</time></trkpt><trkpt lat="43.0051109" lon="11.7107577"><ele>329.4</ele><time>2026-05-02T13:36:00.675Z</time></trkpt><trkpt lat="43.005131" lon="11.7106231"><ele>332.2</ele><time>2026-05-02T13:36:01.678Z</time></trkpt><trkpt lat="43.0051249" lon="11.7104852"><ele>335.0</ele><time>2026-05-02T13:36:02.687Z</time></trkpt><trkpt lat="43.0050978" lon="11.7103609"><ele>335.0</ele><time>2026-05-02T13:36:03.692Z</time></trkpt><trkpt lat="43.0050676" lon="11.7102525"><ele>335.0</ele><time>2026-05-02T13:36:04.692Z</time></trkpt><trkpt lat="43.0050276" lon="11.7101695"><ele>335.0</ele><time>2026-05-02T13:36:05.686Z</time></trkpt><trkpt lat="43.0049729" lon="11.7101061"><ele>335.0</ele><time>2026-05-02T13:36:06.69Z</time></trkpt><trkpt lat="43.0049097" lon="11.7100366"><ele>335.0</ele><time>2026-05-02T13:36:07.681Z</time></trkpt><trkpt lat="43.0048359" lon="11.7099675"><ele>335.0</ele><time>2026-05-02T13:36:08.682Z</time></trkpt><trkpt lat="43.0047539" lon="11.7099052"><ele>333.8</ele><time>2026-05-02T13:36:09.692Z</time></trkpt><trkpt lat="43.0046683" lon="11.7098432"><ele>332.6</ele><time>2026-05-02T13:36:10.686Z</time></trkpt><trkpt lat="43.0045825" lon="11.7097787"><ele>331.4</ele><time>2026-05-02T13:36:11.682Z</time></trkpt><trkpt lat="43.0044994" lon="11.7097066"><ele>330.2</ele><time>2026-05-02T13:36:12.689Z</time></trkpt><trkpt lat="43.0044138" lon="11.7096331"><ele>329.0</ele><time>2026-05-02T13:36:13.686Z</time></trkpt><trkpt lat="43.0043276" lon="11.7095594"><ele>329.0</ele><time>2026-05-02T13:36:14.706Z</time></trkpt><trkpt lat="43.004237" lon="11.7094854"><ele>329.0</ele><time>2026-05-02T13:36:15.691Z</time></trkpt><trkpt lat="43.0041439" lon="11.7094088"><ele>329.0</ele><time>2026-05-02T13:36:16.683Z</time></trkpt><trkpt lat="43.0040492" lon="11.7093276"><ele>329.0</ele><time>2026-05-02T13:36:17.682Z</time></trkpt><trkpt lat="43.0039529" lon="11.7092456"><ele>329.0</ele><time>2026-05-02T13:36:18.689Z</time></trkpt><trkpt lat="43.0038563" lon="11.7091607"><ele>328.25</ele><time>2026-05-02T13:36:19.688Z</time></trkpt><trkpt lat="43.0037552" lon="11.709078"><ele>327.5</ele><time>2026-05-02T13:36:20.68Z</time></trkpt><trkpt lat="43.0036607" lon="11.7089866"><ele>326.75</ele><time>2026-05-02T13:36:21.702Z</time></trkpt><trkpt lat="43.003576" lon="11.708876"><ele>326.0</ele><time>2026-05-02T13:36:22.686Z</time></trkpt><trkpt lat="43.0035122" lon="11.7087474"><ele>326.0</ele><time>2026-05-02T13:36:23.695Z</time></trkpt><trkpt lat="43.003468" lon="11.7085953"><ele>326.0</ele><time>2026-05-02T13:36:24.688Z</time></trkpt><trkpt lat="43.0034342" lon="11.7084387"><ele>326.0</ele><time>2026-05-02T13:36:25.681Z</time></trkpt><trkpt lat="43.0034052" lon="11.7082847"><ele>326.0</ele><time>2026-05-02T13:36:26.689Z</time></trkpt><trkpt lat="43.0033801" lon="11.7081337"><ele>326.4</ele><time>2026-05-02T13:36:27.689Z</time></trkpt><trkpt lat="43.0033621" lon="11.7079851"><ele>326.8</ele><time>2026-05-02T13:36:28.691Z</time></trkpt><trkpt lat="43.0033512" lon="11.7078348"><ele>327.2</ele><time>2026-05-02T13:36:29.688Z</time></trkpt><trkpt lat="43.0033509" lon="11.7076838"><ele>327.59999999999997</ele><time>2026-05-02T13:36:30.678Z</time></trkpt><trkpt lat="43.0033594" lon="11.7075307"><ele>328.0</ele><time>2026-05-02T13:36:31.685Z</time></trkpt><trkpt lat="43.0033723" lon="11.7073798"><ele>328.5</ele><time>2026-05-02T13:36:32.69Z</time></trkpt><trkpt lat="43.0033861" lon="11.7072296"><ele>329.0</ele><time>2026-05-02T13:36:33.688Z</time></trkpt><trkpt lat="43.0034031" lon="11.7070671"><ele>329.5</ele><time>2026-05-02T13:36:34.677Z</time></trkpt><trkpt lat="43.0034175" lon="11.706906"><ele>330.0</ele><time>2026-05-02T13:36:35.68Z</time></trkpt><trkpt lat="43.0034323" lon="11.7067365"><ele>329.2</ele><time>2026-05-02T13:36:36.682Z</time></trkpt><trkpt lat="43.0034434" lon="11.706577"><ele>328.4</ele><time>2026-05-02T13:36:37.681Z</time></trkpt><trkpt lat="43.0034566" lon="11.7064334"><ele>327.6</ele><time>2026-05-02T13:36:38.693Z</time></trkpt><trkpt lat="43.0034698" lon="11.7062956"><ele>326.8</ele><time>2026-05-02T13:36:39.673Z</time></trkpt><trkpt lat="43.0034839" lon="11.7061588"><ele>326.0</ele><time>2026-05-02T13:36:40.69Z</time></trkpt><trkpt lat="43.0034957" lon="11.7060221"><ele>326.0</ele><time>2026-05-02T13:36:41.689Z</time></trkpt><trkpt lat="43.003507" lon="11.7058848"><ele>326.0</ele><time>2026-05-02T13:36:42.681Z</time></trkpt><trkpt lat="43.0035221" lon="11.7057484"><ele>326.0</ele><time>2026-05-02T13:36:43.681Z</time></trkpt><trkpt lat="43.0035376" lon="11.7056158"><ele>326.0</ele><time>2026-05-02T13:36:44.693Z</time></trkpt><trkpt lat="43.0035548" lon="11.7054832"><ele>326.0</ele><time>2026-05-02T13:36:45.689Z</time></trkpt><trkpt lat="43.0035706" lon="11.7053398"><ele>325.6</ele><time>2026-05-02T13:36:46.695Z</time></trkpt><trkpt lat="43.0035834" lon="11.7051917"><ele>325.20000000000005</ele><time>2026-05-02T13:36:47.69Z</time></trkpt><trkpt lat="43.0035957" lon="11.7050408"><ele>324.79999999999995</ele><time>2026-05-02T13:36:48.707Z</time></trkpt><trkpt lat="43.0036114" lon="11.7048896"><ele>324.4</ele><time>2026-05-02T13:36:49.688Z</time></trkpt><trkpt lat="43.0036247" lon="11.7047304"><ele>324.0</ele><time>2026-05-02T13:36:50.685Z</time></trkpt><trkpt lat="43.0036386" lon="11.704568"><ele>323.75</ele><time>2026-05-02T13:36:51.678Z</time></trkpt><trkpt lat="43.0036543" lon="11.7044058"><ele>323.5</ele><time>2026-05-02T13:36:52.692Z</time></trkpt><trkpt lat="43.0036701" lon="11.7042446"><ele>323.25</ele><time>2026-05-02T13:36:53.69Z</time></trkpt><trkpt lat="43.0036877" lon="11.704081"><ele>323.0</ele><time>2026-05-02T13:36:54.69Z</time></trkpt><trkpt lat="43.0037036" lon="11.7039193"><ele>323.0</ele><time>2026-05-02T13:36:55.682Z</time></trkpt><trkpt lat="43.003718" lon="11.7037583"><ele>323.0</ele><time>2026-05-02T13:36:56.69Z</time></trkpt><trkpt lat="43.0037317" lon="11.7035939"><ele>323.0</ele><time>2026-05-02T13:36:57.684Z</time></trkpt><trkpt lat="43.0037448" lon="11.7034268"><ele>323.0</ele><time>2026-05-02T13:36:58.693Z</time></trkpt><trkpt lat="43.0037589" lon="11.7032574"><ele>322.5</ele><time>2026-05-02T13:36:59.69Z</time></trkpt><trkpt lat="43.0037734" lon="11.7030866"><ele>322.0</ele><time>2026-05-02T13:37:00.693Z</time></trkpt><trkpt lat="43.0037884" lon="11.702915"><ele>321.5</ele><time>2026-05-02T13:37:01.68Z</time></trkpt><trkpt lat="43.0038107" lon="11.7027479"><ele>321.0</ele><time>2026-05-02T13:37:02.686Z</time></trkpt><trkpt lat="43.003849" lon="11.7025914"><ele>320.25</ele><time>2026-05-02T13:37:03.677Z</time></trkpt><trkpt lat="43.0039073" lon="11.7024525"><ele>319.5</ele><time>2026-05-02T13:37:04.691Z</time></trkpt><trkpt lat="43.0039872" lon="11.7023299"><ele>318.75</ele><time>2026-05-02T13:37:05.685Z</time></trkpt><trkpt lat="43.0040795" lon="11.7022154"><ele>318.0</ele><time>2026-05-02T13:37:06.685Z</time></trkpt><trkpt lat="43.0041844" lon="11.7021116"><ele>317.5</ele><time>2026-05-02T13:37:07.682Z</time></trkpt><trkpt lat="43.0042857" lon="11.7020085"><ele>317.0</ele><time>2026-05-02T13:37:08.687Z</time></trkpt><trkpt lat="43.004386" lon="11.7019044"><ele>316.5</ele><time>2026-05-02T13:37:09.684Z</time></trkpt><trkpt lat="43.0044877" lon="11.7017988"><ele>316.0</ele><time>2026-05-02T13:37:10.697Z</time></trkpt><trkpt lat="43.0045906" lon="11.701698"><ele>316.0</ele><time>2026-05-02T13:37:11.682Z</time></trkpt><trkpt lat="43.0046966" lon="11.701605"><ele>316.0</ele><time>2026-05-02T13:37:12.684Z</time></trkpt><trkpt lat="43.0048059" lon="11.7015159"><ele>316.0</ele><time>2026-05-02T13:37:13.679Z</time></trkpt><trkpt lat="43.0049207" lon="11.7014303"><ele>316.0</ele><time>2026-05-02T13:37:14.683Z</time></trkpt><trkpt lat="43.0050374" lon="11.7013475"><ele>315.75</ele><time>2026-05-02T13:37:15.689Z</time></trkpt><trkpt lat="43.0051575" lon="11.7012722"><ele>315.5</ele><time>2026-05-02T13:37:16.702Z</time></trkpt><trkpt lat="43.0052798" lon="11.7012089"><ele>315.25</ele><time>2026-05-02T13:37:17.684Z</time></trkpt><trkpt lat="43.0054082" lon="11.7011655"><ele>315.0</ele><time>2026-05-02T13:37:18.686Z</time></trkpt><trkpt lat="43.0055419" lon="11.7011284"><ele>315.0</ele><time>2026-05-02T13:37:19.69Z</time></trkpt><trkpt lat="43.0056739" lon="11.7010978"><ele>315.0</ele><time>2026-05-02T13:37:20.686Z</time></trkpt><trkpt lat="43.0058009" lon="11.7010652"><ele>315.0</ele><time>2026-05-02T13:37:21.685Z</time></trkpt><trkpt lat="43.0059219" lon="11.70103"><ele>315.0</ele><time>2026-05-02T13:37:22.68Z</time></trkpt><trkpt lat="43.0060329" lon="11.7009785"><ele>316.0</ele><time>2026-05-02T13:37:23.678Z</time></trkpt><trkpt lat="43.0061384" lon="11.7008972"><ele>317.0</ele><time>2026-05-02T13:37:24.69Z</time></trkpt><trkpt lat="43.0062439" lon="11.7007928"><ele>318.0</ele><time>2026-05-02T13:37:25.68Z</time></trkpt><trkpt lat="43.0063442" lon="11.7006747"><ele>319.0</ele><time>2026-05-02T13:37:26.682Z</time></trkpt><trkpt lat="43.0064467" lon="11.7005529"><ele>319.0</ele><time>2026-05-02T13:37:27.684Z</time></trkpt><trkpt lat="43.0065459" lon="11.7004322"><ele>319.0</ele><time>2026-05-02T13:37:28.682Z</time></trkpt><trkpt lat="43.0066497" lon="11.7003104"><ele>319.0</ele><time>2026-05-02T13:37:29.68Z</time></trkpt><trkpt lat="43.0067561" lon="11.7001925"><ele>319.0</ele><time>2026-05-02T13:37:30.69Z</time></trkpt><trkpt lat="43.0068581" lon="11.7000808"><ele>318.4</ele><time>2026-05-02T13:37:31.681Z</time></trkpt><trkpt lat="43.0069491" lon="11.699987"><ele>317.79999999999995</ele><time>2026-05-02T13:37:32.689Z</time></trkpt><trkpt lat="43.0070312" lon="11.6998989"><ele>317.20000000000005</ele><time>2026-05-02T13:37:33.687Z</time></trkpt><trkpt lat="43.0071008" lon="11.6998112"><ele>316.6</ele><time>2026-05-02T13:37:34.678Z</time></trkpt><trkpt lat="43.0071594" lon="11.6997127"><ele>316.0</ele><time>2026-05-02T13:37:35.683Z</time></trkpt><trkpt lat="43.0071938" lon="11.6995912"><ele>316.0</ele><time>2026-05-02T13:37:36.674Z</time></trkpt><trkpt lat="43.0071978" lon="11.6994553"><ele>316.0</ele><time>2026-05-02T13:37:37.688Z</time></trkpt><trkpt lat="43.0071648" lon="11.6993149"><ele>316.0</ele><time>2026-05-02T13:37:38.691Z</time></trkpt><trkpt lat="43.0071163" lon="11.6991781"><ele>316.0</ele><time>2026-05-02T13:37:39.682Z</time></trkpt><trkpt lat="43.0070583" lon="11.6990411"><ele>316.0</ele><time>2026-05-02T13:37:40.678Z</time></trkpt><trkpt lat="43.0069999" lon="11.6988923"><ele>315.0</ele><time>2026-05-02T13:37:41.686Z</time></trkpt><trkpt lat="43.0069404" lon="11.6987368"><ele>314.0</ele><time>2026-05-02T13:37:42.678Z</time></trkpt><trkpt lat="43.0068825" lon="11.6985788"><ele>313.0</ele><time>2026-05-02T13:37:43.678Z</time></trkpt><trkpt lat="43.0068241" lon="11.6984244"><ele>312.0</ele><time>2026-05-02T13:37:44.683Z</time></trkpt><trkpt lat="43.0067675" lon="11.6982744"><ele>311.5</ele><time>2026-05-02T13:37:45.681Z</time></trkpt><trkpt lat="43.0067137" lon="11.6981225"><ele>311.0</ele><time>2026-05-02T13:37:46.682Z</time></trkpt><trkpt lat="43.0066655" lon="11.6979679"><ele>310.5</ele><time>2026-05-02T13:37:47.685Z</time></trkpt><trkpt lat="43.0066188" lon="11.6978173"><ele>310.0</ele><time>2026-05-02T13:37:48.678Z</time></trkpt><trkpt lat="43.0065747" lon="11.6976563"><ele>309.5</ele><time>2026-05-02T13:37:49.681Z</time></trkpt><trkpt lat="43.0065377" lon="11.6974984"><ele>309.0</ele><time>2026-05-02T13:37:50.686Z</time></trkpt><trkpt lat="43.0065052" lon="11.697341"><ele>308.5</ele><time>2026-05-02T13:37:51.682Z</time></trkpt><trkpt lat="43.0064776" lon="11.6971925"><ele>308.0</ele><time>2026-05-02T13:37:52.682Z</time></trkpt><trkpt lat="43.0064525" lon="11.6970538"><ele>308.0</ele><time>2026-05-02T13:37:53.685Z</time></trkpt><trkpt lat="43.0064328" lon="11.6969224"><ele>308.0</ele><time>2026-05-02T13:37:54.678Z</time></trkpt><trkpt lat="43.0064106" lon="11.6968041"><ele>308.0</ele><time>2026-05-02T13:37:55.674Z</time></trkpt><trkpt lat="43.0063733" lon="11.6967045"><ele>308.0</ele><time>2026-05-02T13:37:56.683Z</time></trkpt><trkpt lat="43.0063107" lon="11.6966293"><ele>308.0</ele><time>2026-05-02T13:37:57.684Z</time></trkpt><trkpt lat="43.0062263" lon="11.6965716"><ele>308.0</ele><time>2026-05-02T13:37:58.676Z</time></trkpt><trkpt lat="43.0061279" lon="11.696528"><ele>307.75</ele><time>2026-05-02T13:37:59.68Z</time></trkpt><trkpt lat="43.0060222" lon="11.6964933"><ele>307.5</ele><time>2026-05-02T13:38:00.676Z</time></trkpt><trkpt lat="43.0059119" lon="11.696444"><ele>307.25</ele><time>2026-05-02T13:38:01.678Z</time></trkpt><trkpt lat="43.0058037" lon="11.6963777"><ele>307.0</ele><time>2026-05-02T13:38:02.678Z</time></trkpt><trkpt lat="43.00569" lon="11.6963049"><ele>308.5</ele><time>2026-05-02T13:38:03.683Z</time></trkpt><trkpt lat="43.0055821" lon="11.6962224"><ele>310.0</ele><time>2026-05-02T13:38:04.688Z</time></trkpt><trkpt lat="43.0054789" lon="11.6961288"><ele>311.5</ele><time>2026-05-02T13:38:05.681Z</time></trkpt><trkpt lat="43.005381" lon="11.6960292"><ele>313.0</ele><time>2026-05-02T13:38:06.693Z</time></trkpt><trkpt lat="43.0052897" lon="11.6959253"><ele>313.2</ele><time>2026-05-02T13:38:07.679Z</time></trkpt><trkpt lat="43.0051964" lon="11.6958297"><ele>313.4</ele><time>2026-05-02T13:38:08.692Z</time></trkpt><trkpt lat="43.0051018" lon="11.6957453"><ele>313.59999999999997</ele><time>2026-05-02T13:38:09.683Z</time></trkpt><trkpt lat="43.0050072" lon="11.6956693"><ele>313.8</ele><time>2026-05-02T13:38:10.686Z</time></trkpt><trkpt lat="43.0049124" lon="11.6956012"><ele>314.0</ele><time>2026-05-02T13:38:11.684Z</time></trkpt><trkpt lat="43.004815" lon="11.6955545"><ele>315.2</ele><time>2026-05-02T13:38:12.686Z</time></trkpt><trkpt lat="43.0047191" lon="11.6955168"><ele>316.4</ele><time>2026-05-02T13:38:13.678Z</time></trkpt><trkpt lat="43.0046215" lon="11.6954907"><ele>317.6</ele><time>2026-05-02T13:38:14.687Z</time></trkpt><trkpt lat="43.0045252" lon="11.695484"><ele>318.8</ele><time>2026-05-02T13:38:15.678Z</time></trkpt><trkpt lat="43.0044304" lon="11.6955105"><ele>320.0</ele><time>2026-05-02T13:38:16.682Z</time></trkpt><trkpt lat="43.0043374" lon="11.6955444"><ele>320.0</ele><time>2026-05-02T13:38:17.682Z</time></trkpt><trkpt lat="43.0042406" lon="11.6955804"><ele>320.0</ele><time>2026-05-02T13:38:18.678Z</time></trkpt><trkpt lat="43.0041381" lon="11.6956166"><ele>320.0</ele><time>2026-05-02T13:38:19.694Z</time></trkpt><trkpt lat="43.0040307" lon="11.6956556"><ele>320.0</ele><time>2026-05-02T13:38:20.683Z</time></trkpt><trkpt lat="43.0039222" lon="11.695693"><ele>320.0</ele><time>2026-05-02T13:38:21.676Z</time></trkpt><trkpt lat="43.0038084" lon="11.6957204"><ele>319.4</ele><time>2026-05-02T13:38:22.677Z</time></trkpt><trkpt lat="43.003705" lon="11.6957389"><ele>318.8</ele><time>2026-05-02T13:38:23.681Z</time></trkpt><trkpt lat="43.0036058" lon="11.695751"><ele>318.2</ele><time>2026-05-02T13:38:24.686Z</time></trkpt><trkpt lat="43.003509" lon="11.6957634"><ele>317.6</ele><time>2026-05-02T13:38:25.679Z</time></trkpt><trkpt lat="43.0034095" lon="11.6957758"><ele>317.0</ele><time>2026-05-02T13:38:26.688Z</time></trkpt><trkpt lat="43.0033014" lon="11.6957764"><ele>315.6</ele><time>2026-05-02T13:38:27.692Z</time></trkpt><trkpt lat="43.0031854" lon="11.6957739"><ele>314.2</ele><time>2026-05-02T13:38:28.69Z</time></trkpt><trkpt lat="43.0030739" lon="11.6957614"><ele>312.8</ele><time>2026-05-02T13:38:29.687Z</time></trkpt><trkpt lat="43.002968" lon="11.6957402"><ele>311.4</ele><time>2026-05-02T13:38:30.688Z</time></trkpt><trkpt lat="43.0028707" lon="11.6957092"><ele>310.0</ele><time>2026-05-02T13:38:31.677Z</time></trkpt><trkpt lat="43.0027713" lon="11.6956524"><ele>310.0</ele><time>2026-05-02T13:38:32.691Z</time></trkpt><trkpt lat="43.0026757" lon="11.6955733"><ele>310.0</ele><time>2026-05-02T13:38:33.675Z</time></trkpt><trkpt lat="43.0025866" lon="11.6954884"><ele>310.0</ele><time>2026-05-02T13:38:34.687Z</time></trkpt><trkpt lat="43.0025024" lon="11.6953982"><ele>310.0</ele><time>2026-05-02T13:38:35.685Z</time></trkpt><trkpt lat="43.0024217" lon="11.6953181"><ele>310.0</ele><time>2026-05-02T13:38:36.688Z</time></trkpt><trkpt lat="43.0023442" lon="11.6952411"><ele>308.4</ele><time>2026-05-02T13:38:37.67Z</time></trkpt><trkpt lat="43.002263" lon="11.6951623"><ele>306.8</ele><time>2026-05-02T13:38:38.688Z</time></trkpt><trkpt lat="43.0021711" lon="11.695076"><ele>305.2</ele><time>2026-05-02T13:38:39.678Z</time></trkpt><trkpt lat="43.0020704" lon="11.6949951"><ele>303.6</ele><time>2026-05-02T13:38:40.69Z</time></trkpt><trkpt lat="43.0019671" lon="11.694925"><ele>302.0</ele><time>2026-05-02T13:38:41.679Z</time></trkpt><trkpt lat="43.0018585" lon="11.6948765"><ele>302.0</ele><time>2026-05-02T13:38:42.678Z</time></trkpt><trkpt lat="43.001748" lon="11.6948344"><ele>302.0</ele><time>2026-05-02T13:38:43.69Z</time></trkpt><trkpt lat="43.0016374" lon="11.6947928"><ele>302.0</ele><time>2026-05-02T13:38:44.695Z</time></trkpt><trkpt lat="43.0015251" lon="11.6947522"><ele>302.0</ele><time>2026-05-02T13:38:45.684Z</time></trkpt><trkpt lat="43.0014125" lon="11.6947241"><ele>302.4</ele><time>2026-05-02T13:38:46.688Z</time></trkpt><trkpt lat="43.0013037" lon="11.694711"><ele>302.79999999999995</ele><time>2026-05-02T13:38:47.675Z</time></trkpt><trkpt lat="43.0011943" lon="11.6947051"><ele>303.2</ele><time>2026-05-02T13:38:48.683Z</time></trkpt><trkpt lat="43.0010844" lon="11.6946987"><ele>303.59999999999997</ele><time>2026-05-02T13:38:49.678Z</time></trkpt><trkpt lat="43.0009727" lon="11.6946994"><ele>304.0</ele><time>2026-05-02T13:38:50.673Z</time></trkpt><trkpt lat="43.0008617" lon="11.6947024"><ele>304.75</ele><time>2026-05-02T13:38:51.681Z</time></trkpt><trkpt lat="43.0007459" lon="11.6946923"><ele>305.5</ele><time>2026-05-02T13:38:52.696Z</time></trkpt><trkpt lat="43.0006301" lon="11.6946658"><ele>306.25</ele><time>2026-05-02T13:38:53.681Z</time></trkpt><trkpt lat="43.0005098" lon="11.6946248"><ele>307.0</ele><time>2026-05-02T13:38:54.686Z</time></trkpt><trkpt lat="43.0003885" lon="11.694581"><ele>307.0</ele><time>2026-05-02T13:38:55.681Z</time></trkpt><trkpt lat="43.0002665" lon="11.6945345"><ele>307.0</ele><time>2026-05-02T13:38:56.685Z</time></trkpt><trkpt lat="43.0001437" lon="11.6944893"><ele>307.0</ele><time>2026-05-02T13:38:57.689Z</time></trkpt><trkpt lat="43.0000222" lon="11.694445"><ele>307.0</ele><time>2026-05-02T13:38:58.681Z</time></trkpt><trkpt lat="42.9999034" lon="11.6943945"><ele>308.25</ele><time>2026-05-02T13:38:59.684Z</time></trkpt><trkpt lat="42.9997858" lon="11.6943347"><ele>309.5</ele><time>2026-05-02T13:39:00.688Z</time></trkpt><trkpt lat="42.9996721" lon="11.6942652"><ele>310.75</ele><time>2026-05-02T13:39:01.684Z</time></trkpt><trkpt lat="42.9995708" lon="11.6941685"><ele>312.0</ele><time>2026-05-02T13:39:02.672Z</time></trkpt><trkpt lat="42.9994847" lon="11.6940457"><ele>312.0</ele><time>2026-05-02T13:39:03.69Z</time></trkpt><trkpt lat="42.9994017" lon="11.6939169"><ele>312.0</ele><time>2026-05-02T13:39:04.675Z</time></trkpt><trkpt lat="42.9993118" lon="11.6937924"><ele>312.0</ele><time>2026-05-02T13:39:05.68Z</time></trkpt><trkpt lat="42.9992212" lon="11.6936764"><ele>312.0</ele><time>2026-05-02T13:39:06.692Z</time></trkpt><trkpt lat="42.9991234" lon="11.6935691"><ele>312.75</ele><time>2026-05-02T13:39:07.688Z</time></trkpt><trkpt lat="42.9990192" lon="11.6934753"><ele>313.5</ele><time>2026-05-02T13:39:08.687Z</time></trkpt><trkpt lat="42.9989112" lon="11.6933908"><ele>314.25</ele><time>2026-05-02T13:39:09.686Z</time></trkpt><trkpt lat="42.9987985" lon="11.6933256"><ele>315.0</ele><time>2026-05-02T13:39:10.679Z</time></trkpt><trkpt lat="42.9986793" lon="11.6932749"><ele>315.0</ele><time>2026-05-02T13:39:11.684Z</time></trkpt><trkpt lat="42.9985494" lon="11.6932306"><ele>315.0</ele><time>2026-05-02T13:39:12.689Z</time></trkpt><trkpt lat="42.9984167" lon="11.6931925"><ele>315.0</ele><time>2026-05-02T13:39:13.693Z</time></trkpt><trkpt lat="42.9982877" lon="11.693155"><ele>315.0</ele><time>2026-05-02T13:39:14.685Z</time></trkpt><trkpt lat="42.9981628" lon="11.693121"><ele>315.25</ele><time>2026-05-02T13:39:15.686Z</time></trkpt><trkpt lat="42.9980419" lon="11.6931123"><ele>315.5</ele><time>2026-05-02T13:39:16.695Z</time></trkpt><trkpt lat="42.9979269" lon="11.6931472"><ele>315.75</ele><time>2026-05-02T13:39:17.686Z</time></trkpt><trkpt lat="42.9978234" lon="11.6932186"><ele>316.0</ele><time>2026-05-02T13:39:18.67Z</time></trkpt><trkpt lat="42.997733" lon="11.6933137"><ele>316.0</ele><time>2026-05-02T13:39:19.678Z</time></trkpt><trkpt lat="42.9976536" lon="11.6934328"><ele>316.0</ele><time>2026-05-02T13:39:20.674Z</time></trkpt><trkpt lat="42.9975719" lon="11.6935551"><ele>316.0</ele><time>2026-05-02T13:39:21.674Z</time></trkpt><trkpt lat="42.9974892" lon="11.6936805"><ele>316.0</ele><time>2026-05-02T13:39:22.68Z</time></trkpt><trkpt lat="42.9973993" lon="11.693805"><ele>318.75</ele><time>2026-05-02T13:39:23.681Z</time></trkpt><trkpt lat="42.9973085" lon="11.6939246"><ele>321.5</ele><time>2026-05-02T13:39:24.686Z</time></trkpt><trkpt lat="42.9972166" lon="11.6940408"><ele>324.25</ele><time>2026-05-02T13:39:25.682Z</time></trkpt><trkpt lat="42.9971247" lon="11.6941519"><ele>327.0</ele><time>2026-05-02T13:39:26.681Z</time></trkpt><trkpt lat="42.9970276" lon="11.6942497"><ele>327.0</ele><time>2026-05-02T13:39:27.675Z</time></trkpt><trkpt lat="42.9969194" lon="11.6943371"><ele>327.0</ele><time>2026-05-02T13:39:28.687Z</time></trkpt><trkpt lat="42.9968085" lon="11.694418"><ele>327.0</ele><time>2026-05-02T13:39:29.687Z</time></trkpt><trkpt lat="42.9967063" lon="11.6944963"><ele>327.0</ele><time>2026-05-02T13:39:30.686Z</time></trkpt><trkpt lat="42.9966171" lon="11.6945646"><ele>327.3333333333333</ele><time>2026-05-02T13:39:31.691Z</time></trkpt><trkpt lat="42.9965244" lon="11.6946131"><ele>327.6666666666667</ele><time>2026-05-02T13:39:32.668Z</time></trkpt><trkpt lat="42.9964343" lon="11.6946258"><ele>328.0</ele><time>2026-05-02T13:39:33.674Z</time></trkpt><trkpt lat="42.9963526" lon="11.6946011"><ele>328.33333333333337</ele><time>2026-05-02T13:39:34.666Z</time></trkpt><trkpt lat="42.9962868" lon="11.6945419"><ele>328.6666666666667</ele><time>2026-05-02T13:39:35.676Z</time></trkpt><trkpt lat="42.9962416" lon="11.6944592"><ele>329.0</ele><time>2026-05-02T13:39:36.689Z</time></trkpt><trkpt lat="42.9962049" lon="11.6943802"><ele>329.4</ele><time>2026-05-02T13:39:37.681Z</time></trkpt><trkpt lat="42.9961629" lon="11.6942639"><ele>329.79999999999995</ele><time>2026-05-02T13:39:39.683Z</time></trkpt><trkpt lat="42.9961216" lon="11.6941686"><ele>330.20000000000005</ele><time>2026-05-02T13:39:42.676Z</time></trkpt><trkpt lat="42.9960675" lon="11.6940771"><ele>330.6</ele><time>2026-05-02T13:40:16.685Z</time></trkpt><trkpt lat="42.9959877" lon="11.6939555"><ele>331.0</ele><time>2026-05-02T13:40:18.69Z</time></trkpt><trkpt lat="42.9959381" lon="11.6938768"><ele>331.0</ele><time>2026-05-02T13:40:19.681Z</time></trkpt><trkpt lat="42.9958657" lon="11.6938065"><ele>331.0</ele><time>2026-05-02T13:40:20.691Z</time></trkpt><trkpt lat="42.9957731" lon="11.6937556"><ele>331.0</ele><time>2026-05-02T13:40:21.684Z</time></trkpt><trkpt lat="42.9956715" lon="11.6937343"><ele>331.0</ele><time>2026-05-02T13:40:22.688Z</time></trkpt><trkpt lat="42.9955583" lon="11.693711"><ele>331.0</ele><time>2026-05-02T13:40:23.685Z</time></trkpt><trkpt lat="42.99543" lon="11.6936654"><ele>329.75</ele><time>2026-05-02T13:40:24.694Z</time></trkpt><trkpt lat="42.995298" lon="11.6935908"><ele>328.5</ele><time>2026-05-02T13:40:25.684Z</time></trkpt><trkpt lat="42.9951675" lon="11.6935016"><ele>327.25</ele><time>2026-05-02T13:40:26.703Z</time></trkpt><trkpt lat="42.995044" lon="11.6934111"><ele>326.0</ele><time>2026-05-02T13:40:27.676Z</time></trkpt><trkpt lat="42.9949303" lon="11.69333"><ele>324.0</ele><time>2026-05-02T13:40:28.692Z</time></trkpt><trkpt lat="42.9948217" lon="11.6932568"><ele>322.0</ele><time>2026-05-02T13:40:29.695Z</time></trkpt><trkpt lat="42.9947138" lon="11.6931912"><ele>320.0</ele><time>2026-05-02T13:40:30.695Z</time></trkpt><trkpt lat="42.994609" lon="11.6931226"><ele>318.0</ele><time>2026-05-02T13:40:31.7Z</time></trkpt><trkpt lat="42.9945112" lon="11.6930376"><ele>318.0</ele><time>2026-05-02T13:40:32.686Z</time></trkpt><trkpt lat="42.9944135" lon="11.6929256"><ele>318.0</ele><time>2026-05-02T13:40:33.682Z</time></trkpt><trkpt lat="42.9943235" lon="11.6927773"><ele>318.0</ele><time>2026-05-02T13:40:34.684Z</time></trkpt><trkpt lat="42.9942389" lon="11.6926221"><ele>318.0</ele><time>2026-05-02T13:40:35.697Z</time></trkpt><trkpt lat="42.994157" lon="11.692461"><ele>316.25</ele><time>2026-05-02T13:40:36.69Z</time></trkpt><trkpt lat="42.9940767" lon="11.6922954"><ele>314.5</ele><time>2026-05-02T13:40:37.677Z</time></trkpt><trkpt lat="42.9940038" lon="11.692148"><ele>312.75</ele><time>2026-05-02T13:40:38.691Z</time></trkpt><trkpt lat="42.9939347" lon="11.6920113"><ele>311.0</ele><time>2026-05-02T13:40:39.683Z</time></trkpt><trkpt lat="42.9938592" lon="11.6918971"><ele>310.0</ele><time>2026-05-02T13:40:40.687Z</time></trkpt><trkpt lat="42.9937698" lon="11.6918057"><ele>309.0</ele><time>2026-05-02T13:40:41.681Z</time></trkpt><trkpt lat="42.9936582" lon="11.6917315"><ele>308.0</ele><time>2026-05-02T13:40:42.698Z</time></trkpt><trkpt lat="42.9935257" lon="11.6916753"><ele>307.0</ele><time>2026-05-02T13:40:43.685Z</time></trkpt><trkpt lat="42.9933871" lon="11.6916227"><ele>308.0</ele><time>2026-05-02T13:40:44.687Z</time></trkpt><trkpt lat="42.9932415" lon="11.6915742"><ele>309.0</ele><time>2026-05-02T13:40:45.679Z</time></trkpt><trkpt lat="42.9930917" lon="11.6915215"><ele>310.0</ele><time>2026-05-02T13:40:46.688Z</time></trkpt><trkpt lat="42.992937" lon="11.691463"><ele>310.0</ele><time>2026-05-02T13:40:47.682Z</time></trkpt><trkpt lat="42.9927818" lon="11.6914043"><ele>310.0</ele><time>2026-05-02T13:40:48.682Z</time></trkpt><trkpt lat="42.9926277" lon="11.6913435"><ele>310.0</ele><time>2026-05-02T13:40:49.686Z</time></trkpt><trkpt lat="42.99248" lon="11.691288"><ele>309.8</ele><time>2026-05-02T13:40:50.686Z</time></trkpt><trkpt lat="42.9923478" lon="11.6912352"><ele>309.6</ele><time>2026-05-02T13:40:51.688Z</time></trkpt><trkpt lat="42.9922366" lon="11.6911935"><ele>309.4</ele><time>2026-05-02T13:40:52.692Z</time></trkpt><trkpt lat="42.9921459" lon="11.6911602"><ele>309.2</ele><time>2026-05-02T13:40:53.681Z</time></trkpt><trkpt lat="42.9920727" lon="11.6911204"><ele>309.0</ele><time>2026-05-02T13:40:54.691Z</time></trkpt><trkpt lat="42.9920013" lon="11.6910891"><ele>309.0</ele><time>2026-05-02T13:40:55.687Z</time></trkpt><trkpt lat="42.9919356" lon="11.6910634"><ele>309.0</ele><time>2026-05-02T13:40:56.691Z</time></trkpt><trkpt lat="42.9918421" lon="11.6910225"><ele>309.0</ele><time>2026-05-02T13:40:58.696Z</time></trkpt><trkpt lat="42.9917636" lon="11.6909936"><ele>309.0</ele><time>2026-05-02T13:41:00.682Z</time></trkpt><trkpt lat="42.9916754" lon="11.6909598"><ele>309.0</ele><time>2026-05-02T13:41:03.681Z</time></trkpt><trkpt lat="42.9916005" lon="11.6909334"><ele>309.0</ele><time>2026-05-02T13:41:06.681Z</time></trkpt><trkpt lat="42.9915195" lon="11.6908926"><ele>309.1666666666667</ele><time>2026-05-02T13:41:09.692Z</time></trkpt><trkpt lat="42.9914189" lon="11.6908442"><ele>309.3333333333333</ele><time>2026-05-02T13:41:11.68Z</time></trkpt><trkpt lat="42.9913547" lon="11.6908159"><ele>309.5</ele><time>2026-05-02T13:41:12.676Z</time></trkpt><trkpt lat="42.9912909" lon="11.6907915"><ele>309.66666666666663</ele><time>2026-05-02T13:41:13.677Z</time></trkpt><trkpt lat="42.9912249" lon="11.6907693"><ele>309.8333333333333</ele><time>2026-05-02T13:41:14.686Z</time></trkpt><trkpt lat="42.9911483" lon="11.6907445"><ele>310.0</ele><time>2026-05-02T13:41:15.68Z</time></trkpt><trkpt lat="42.9910593" lon="11.6907138"><ele>310.0</ele><time>2026-05-02T13:41:16.68Z</time></trkpt><trkpt lat="42.9909625" lon="11.6906791"><ele>310.0</ele><time>2026-05-02T13:41:17.676Z</time></trkpt><trkpt lat="42.9908618" lon="11.6906435"><ele>310.0</ele><time>2026-05-02T13:41:18.689Z</time></trkpt><trkpt lat="42.9907556" lon="11.6906008"><ele>310.0</ele><time>2026-05-02T13:41:19.693Z</time></trkpt><trkpt lat="42.990652" lon="11.6905538"><ele>310.0</ele><time>2026-05-02T13:41:20.687Z</time></trkpt><trkpt lat="42.9905466" lon="11.6905104"><ele>310.2</ele><time>2026-05-02T13:41:21.681Z</time></trkpt><trkpt lat="42.9904391" lon="11.6904693"><ele>310.4</ele><time>2026-05-02T13:41:22.692Z</time></trkpt><trkpt lat="42.9903291" lon="11.6904288"><ele>310.6</ele><time>2026-05-02T13:41:23.684Z</time></trkpt><trkpt lat="42.9902175" lon="11.6903906"><ele>310.8</ele><time>2026-05-02T13:41:24.688Z</time></trkpt><trkpt lat="42.9901119" lon="11.6903543"><ele>311.0</ele><time>2026-05-02T13:41:25.683Z</time></trkpt><trkpt lat="42.990016" lon="11.6903211"><ele>310.83333333333337</ele><time>2026-05-02T13:41:26.675Z</time></trkpt><trkpt lat="42.9899282" lon="11.6902879"><ele>310.6666666666667</ele><time>2026-05-02T13:41:27.67Z</time></trkpt><trkpt lat="42.9898519" lon="11.6902569"><ele>310.5</ele><time>2026-05-02T13:41:28.676Z</time></trkpt><trkpt lat="42.9897678" lon="11.6901842"><ele>310.3333333333333</ele><time>2026-05-02T13:41:30.687Z</time></trkpt><trkpt lat="42.9897801" lon="11.6900844"><ele>310.16666666666663</ele><time>2026-05-02T13:41:32.672Z</time></trkpt><trkpt lat="42.9898291" lon="11.6900182"><ele>310.0</ele><time>2026-05-02T13:41:33.686Z</time></trkpt><trkpt lat="42.989905" lon="11.6899356"><ele>310.0</ele><time>2026-05-02T13:41:34.689Z</time></trkpt><trkpt lat="42.9899997" lon="11.6898068"><ele>310.0</ele><time>2026-05-02T13:41:35.693Z</time></trkpt><trkpt lat="42.990108" lon="11.6896437"><ele>310.0</ele><time>2026-05-02T13:41:36.682Z</time></trkpt><trkpt lat="42.9902321" lon="11.6894653"><ele>309.66666666666663</ele><time>2026-05-02T13:41:37.684Z</time></trkpt><trkpt lat="42.9903672" lon="11.68928"><ele>309.3333333333333</ele><time>2026-05-02T13:41:38.693Z</time></trkpt><trkpt lat="42.9904911" lon="11.6891082"><ele>309.0</ele><time>2026-05-02T13:41:39.686Z</time></trkpt><trkpt lat="42.9905953" lon="11.6889377"><ele>309.0</ele><time>2026-05-02T13:41:40.691Z</time></trkpt><trkpt lat="42.9906626" lon="11.6887507"><ele>309.0</ele><time>2026-05-02T13:41:41.677Z</time></trkpt><trkpt lat="42.990688" lon="11.6885283"><ele>309.0</ele><time>2026-05-02T13:41:42.675Z</time></trkpt><trkpt lat="42.9906931" lon="11.6882683"><ele>308.6666666666667</ele><time>2026-05-02T13:41:43.691Z</time></trkpt><trkpt lat="42.9906991" lon="11.688005"><ele>308.33333333333337</ele><time>2026-05-02T13:41:44.674Z</time></trkpt><trkpt lat="42.9907209" lon="11.6877648"><ele>308.0</ele><time>2026-05-02T13:41:45.691Z</time></trkpt><trkpt lat="42.9907679" lon="11.6875514"><ele>307.33333333333337</ele><time>2026-05-02T13:41:46.678Z</time></trkpt><trkpt lat="42.9908487" lon="11.6873701"><ele>306.6666666666667</ele><time>2026-05-02T13:41:47.687Z</time></trkpt><trkpt lat="42.9909673" lon="11.687235"><ele>306.0</ele><time>2026-05-02T13:41:48.679Z</time></trkpt><trkpt lat="42.991114" lon="11.6871522"><ele>306.0</ele><time>2026-05-02T13:41:49.669Z</time></trkpt><trkpt lat="42.9913012" lon="11.6870935"><ele>306.0</ele><time>2026-05-02T13:41:50.67Z</time></trkpt><trkpt lat="42.9915203" lon="11.6870468"><ele>306.0</ele><time>2026-05-02T13:41:51.676Z</time></trkpt><trkpt lat="42.9917614" lon="11.6869968"><ele>306.5</ele><time>2026-05-02T13:41:52.675Z</time></trkpt><trkpt lat="42.992018" lon="11.6869358"><ele>307.0</ele><time>2026-05-02T13:41:53.683Z</time></trkpt><trkpt lat="42.9922839" lon="11.6868708"><ele>307.5</ele><time>2026-05-02T13:41:54.685Z</time></trkpt><trkpt lat="42.9925505" lon="11.6868054"><ele>308.0</ele><time>2026-05-02T13:41:55.686Z</time></trkpt><trkpt lat="42.9928086" lon="11.686735"><ele>308.0</ele><time>2026-05-02T13:41:56.68Z</time></trkpt><trkpt lat="42.9930516" lon="11.6866723"><ele>308.0</ele><time>2026-05-02T13:41:57.687Z</time></trkpt><trkpt lat="42.9932814" lon="11.6866083"><ele>306.5</ele><time>2026-05-02T13:41:58.684Z</time></trkpt><trkpt lat="42.9935013" lon="11.6865137"><ele>305.0</ele><time>2026-05-02T13:41:59.678Z</time></trkpt><trkpt lat="42.9937354" lon="11.6863649"><ele>305.0</ele><time>2026-05-02T13:42:00.689Z</time></trkpt><trkpt lat="42.9939814" lon="11.6861931"><ele>305.0</ele><time>2026-05-02T13:42:01.675Z</time></trkpt><trkpt lat="42.9942351" lon="11.686007"><ele>304.5</ele><time>2026-05-02T13:42:02.676Z</time></trkpt><trkpt lat="42.9944889" lon="11.6858152"><ele>304.0</ele><time>2026-05-02T13:42:03.682Z</time></trkpt><trkpt lat="42.9947435" lon="11.6856157"><ele>304.0</ele><time>2026-05-02T13:42:04.68Z</time></trkpt><trkpt lat="42.9950005" lon="11.685412"><ele>304.0</ele><time>2026-05-02T13:42:05.689Z</time></trkpt><trkpt lat="42.9952515" lon="11.6852216"><ele>304.5</ele><time>2026-05-02T13:42:06.69Z</time></trkpt><trkpt lat="42.9954888" lon="11.6850489"><ele>305.0</ele><time>2026-05-02T13:42:07.693Z</time></trkpt><trkpt lat="42.9957082" lon="11.6848847"><ele>305.6666666666667</ele><time>2026-05-02T13:42:08.7Z</time></trkpt><trkpt lat="42.9959099" lon="11.6847335"><ele>306.3333333333333</ele><time>2026-05-02T13:42:09.686Z</time></trkpt><trkpt lat="42.9960887" lon="11.6845827"><ele>307.0</ele><time>2026-05-02T13:42:10.696Z</time></trkpt><trkpt lat="42.9962428" lon="11.6844255"><ele>307.0</ele><time>2026-05-02T13:42:11.67Z</time></trkpt><trkpt lat="42.9963741" lon="11.6842485"><ele>307.0</ele><time>2026-05-02T13:42:12.689Z</time></trkpt><trkpt lat="42.9964697" lon="11.6840695"><ele>307.0</ele><time>2026-05-02T13:42:13.67Z</time></trkpt><trkpt lat="42.9965533" lon="11.6838947"><ele>307.0</ele><time>2026-05-02T13:42:14.674Z</time></trkpt><trkpt lat="42.9966544" lon="11.6837417"><ele>307.0</ele><time>2026-05-02T13:42:15.675Z</time></trkpt><trkpt lat="42.9967825" lon="11.6836358"><ele>307.0</ele><time>2026-05-02T13:42:16.682Z</time></trkpt><trkpt lat="42.9969214" lon="11.6835759"><ele>307.0</ele><time>2026-05-02T13:42:17.689Z</time></trkpt><trkpt lat="42.9970773" lon="11.6835494"><ele>308.0</ele><time>2026-05-02T13:42:18.697Z</time></trkpt><trkpt lat="42.997256" lon="11.6835503"><ele>309.0</ele><time>2026-05-02T13:42:19.676Z</time></trkpt><trkpt lat="42.9974482" lon="11.6835688"><ele>310.0</ele><time>2026-05-02T13:42:20.675Z</time></trkpt><trkpt lat="42.9976505" lon="11.6835958"><ele>310.3333333333333</ele><time>2026-05-02T13:42:21.689Z</time></trkpt><trkpt lat="42.9978611" lon="11.6836133"><ele>310.6666666666667</ele><time>2026-05-02T13:42:22.686Z</time></trkpt><trkpt lat="42.9980759" lon="11.6836291"><ele>311.0</ele><time>2026-05-02T13:42:23.672Z</time></trkpt><trkpt lat="42.998288" lon="11.6836382"><ele>311.6666666666667</ele><time>2026-05-02T13:42:24.681Z</time></trkpt><trkpt lat="42.9984855" lon="11.683644"><ele>312.3333333333333</ele><time>2026-05-02T13:42:25.685Z</time></trkpt><trkpt lat="42.9986489" lon="11.6836483"><ele>313.0</ele><time>2026-05-02T13:42:26.684Z</time></trkpt><trkpt lat="42.9987769" lon="11.6836535"><ele>313.0</ele><time>2026-05-02T13:42:27.677Z</time></trkpt><trkpt lat="42.9988948" lon="11.6836541"><ele>313.0</ele><time>2026-05-02T13:42:28.694Z</time></trkpt><trkpt lat="42.9990016" lon="11.6836599"><ele>313.0</ele><time>2026-05-02T13:42:29.689Z</time></trkpt><trkpt lat="42.9990993" lon="11.6836641"><ele>313.0</ele><time>2026-05-02T13:42:30.676Z</time></trkpt><trkpt lat="42.9991942" lon="11.6836632"><ele>313.0</ele><time>2026-05-02T13:42:31.678Z</time></trkpt><trkpt lat="42.999293" lon="11.6836673"><ele>313.4</ele><time>2026-05-02T13:42:32.68Z</time></trkpt><trkpt lat="42.9993925" lon="11.6836668"><ele>313.8</ele><time>2026-05-02T13:42:33.677Z</time></trkpt><trkpt lat="42.9994831" lon="11.6836657"><ele>314.2</ele><time>2026-05-02T13:42:34.691Z</time></trkpt><trkpt lat="42.9995663" lon="11.6836666"><ele>314.6</ele><time>2026-05-02T13:42:35.682Z</time></trkpt><trkpt lat="42.9996381" lon="11.6836642"><ele>315.0</ele><time>2026-05-02T13:42:36.68Z</time></trkpt><trkpt lat="42.9997363" lon="11.6836057"><ele>316.0</ele><time>2026-05-02T13:42:38.68Z</time></trkpt><trkpt lat="42.9997419" lon="11.6834705"><ele>317.0</ele><time>2026-05-02T13:42:40.67Z</time></trkpt><trkpt lat="42.9997214" lon="11.6833868"><ele>318.0</ele><time>2026-05-02T13:42:41.677Z</time></trkpt><trkpt lat="42.9997059" lon="11.6832881"><ele>319.0</ele><time>2026-05-02T13:42:42.681Z</time></trkpt><trkpt lat="42.9996894" lon="11.6831813"><ele>320.0</ele><time>2026-05-02T13:42:43.682Z</time></trkpt><trkpt lat="42.9996726" lon="11.6830664"><ele>321.0</ele><time>2026-05-02T13:42:44.686Z</time></trkpt><trkpt lat="42.9996604" lon="11.6829477"><ele>321.0</ele><time>2026-05-02T13:42:45.688Z</time></trkpt><trkpt lat="42.9996503" lon="11.6828186"><ele>321.0</ele><time>2026-05-02T13:42:46.712Z</time></trkpt><trkpt lat="42.9996359" lon="11.6826767"><ele>321.0</ele><time>2026-05-02T13:42:47.69Z</time></trkpt><trkpt lat="42.999621" lon="11.6825239"><ele>321.0</ele><time>2026-05-02T13:42:48.68Z</time></trkpt><trkpt lat="42.9996053" lon="11.6823677"><ele>321.0</ele><time>2026-05-02T13:42:49.686Z</time></trkpt><trkpt lat="42.9995895" lon="11.6822123"><ele>321.1666666666667</ele><time>2026-05-02T13:42:50.681Z</time></trkpt><trkpt lat="42.9995762" lon="11.682096"><ele>321.3333333333333</ele><time>2026-05-02T13:42:51.678Z</time></trkpt><trkpt lat="42.9995522" lon="11.681974"><ele>321.5</ele><time>2026-05-02T13:42:53.675Z</time></trkpt><trkpt lat="42.99953" lon="11.6818918"><ele>321.66666666666663</ele><time>2026-05-02T13:42:57.676Z</time></trkpt><trkpt lat="42.9995071" lon="11.6818105"><ele>321.8333333333333</ele><time>2026-05-02T13:43:20.694Z</time></trkpt><trkpt lat="42.9994307" lon="11.6816656"><ele>322.0</ele><time>2026-05-02T13:43:22.682Z</time></trkpt><trkpt lat="42.9993782" lon="11.681582"><ele>322.25</ele><time>2026-05-02T13:43:23.688Z</time></trkpt><trkpt lat="42.99931" lon="11.6814853"><ele>322.5</ele><time>2026-05-02T13:43:24.681Z</time></trkpt><trkpt lat="42.999232" lon="11.6813806"><ele>322.75</ele><time>2026-05-02T13:43:25.676Z</time></trkpt><trkpt lat="42.9991508" lon="11.6812661"><ele>323.0</ele><time>2026-05-02T13:43:26.693Z</time></trkpt><trkpt lat="42.9990582" lon="11.6811476"><ele>325.75</ele><time>2026-05-02T13:43:27.685Z</time></trkpt><trkpt lat="42.998966" lon="11.6810274"><ele>328.5</ele><time>2026-05-02T13:43:28.677Z</time></trkpt><trkpt lat="42.998887" lon="11.680898"><ele>331.25</ele><time>2026-05-02T13:43:29.684Z</time></trkpt><trkpt lat="42.9988293" lon="11.680776"><ele>334.0</ele><time>2026-05-02T13:43:30.681Z</time></trkpt><trkpt lat="42.9987847" lon="11.6806525"><ele>334.0</ele><time>2026-05-02T13:43:31.682Z</time></trkpt><trkpt lat="42.9987565" lon="11.6805124"><ele>334.0</ele><time>2026-05-02T13:43:32.695Z</time></trkpt><trkpt lat="42.9987415" lon="11.680366"><ele>334.0</ele><time>2026-05-02T13:43:33.674Z</time></trkpt><trkpt lat="42.9987326" lon="11.6802138"><ele>334.0</ele><time>2026-05-02T13:43:34.691Z</time></trkpt><trkpt lat="42.9987256" lon="11.6800568"><ele>334.0</ele><time>2026-05-02T13:43:35.677Z</time></trkpt><trkpt lat="42.9987176" lon="11.6798989"><ele>334.75</ele><time>2026-05-02T13:43:36.687Z</time></trkpt><trkpt lat="42.9987052" lon="11.6797346"><ele>335.5</ele><time>2026-05-02T13:43:37.676Z</time></trkpt><trkpt lat="42.998694" lon="11.6795664"><ele>336.25</ele><time>2026-05-02T13:43:38.686Z</time></trkpt><trkpt lat="42.9986795" lon="11.6793943"><ele>337.0</ele><time>2026-05-02T13:43:39.694Z</time></trkpt><trkpt lat="42.9986635" lon="11.6792166"><ele>338.25</ele><time>2026-05-02T13:43:40.695Z</time></trkpt><trkpt lat="42.9986483" lon="11.6790399"><ele>339.5</ele><time>2026-05-02T13:43:41.69Z</time></trkpt><trkpt lat="42.9986404" lon="11.6788565"><ele>340.75</ele><time>2026-05-02T13:43:42.688Z</time></trkpt><trkpt lat="42.9986285" lon="11.678682"><ele>342.0</ele><time>2026-05-02T13:43:43.68Z</time></trkpt><trkpt lat="42.9986112" lon="11.6785155"><ele>342.75</ele><time>2026-05-02T13:43:44.665Z</time></trkpt><trkpt lat="42.9985896" lon="11.6783489"><ele>343.5</ele><time>2026-05-02T13:43:45.68Z</time></trkpt><trkpt lat="42.99855" lon="11.678198"><ele>344.25</ele><time>2026-05-02T13:43:46.683Z</time></trkpt><trkpt lat="42.99849" lon="11.6780618"><ele>345.0</ele><time>2026-05-02T13:43:47.668Z</time></trkpt><trkpt lat="42.998414" lon="11.6779398"><ele>347.75</ele><time>2026-05-02T13:43:48.693Z</time></trkpt><trkpt lat="42.9983284" lon="11.6778275"><ele>350.5</ele><time>2026-05-02T13:43:49.67Z</time></trkpt><trkpt lat="42.9982368" lon="11.6777191"><ele>353.25</ele><time>2026-05-02T13:43:50.678Z</time></trkpt><trkpt lat="42.9981502" lon="11.6776035"><ele>356.0</ele><time>2026-05-02T13:43:51.678Z</time></trkpt><trkpt lat="42.9980619" lon="11.6774976"><ele>357.0</ele><time>2026-05-02T13:43:52.682Z</time></trkpt><trkpt lat="42.9979624" lon="11.6774181"><ele>358.0</ele><time>2026-05-02T13:43:53.69Z</time></trkpt><trkpt lat="42.997853" lon="11.6773761"><ele>359.0</ele><time>2026-05-02T13:43:54.688Z</time></trkpt><trkpt lat="42.9977371" lon="11.6773624"><ele>360.0</ele><time>2026-05-02T13:43:55.677Z</time></trkpt><trkpt lat="42.9976187" lon="11.677365"><ele>362.25</ele><time>2026-05-02T13:43:56.689Z</time></trkpt><trkpt lat="42.9974967" lon="11.6773617"><ele>364.5</ele><time>2026-05-02T13:43:57.692Z</time></trkpt><trkpt lat="42.9973783" lon="11.6773358"><ele>366.75</ele><time>2026-05-02T13:43:58.688Z</time></trkpt><trkpt lat="42.997268" lon="11.6772789"><ele>369.0</ele><time>2026-05-02T13:43:59.679Z</time></trkpt><trkpt lat="42.9971649" lon="11.6771947"><ele>369.0</ele><time>2026-05-02T13:44:00.689Z</time></trkpt><trkpt lat="42.9970705" lon="11.6770868"><ele>369.0</ele><time>2026-05-02T13:44:01.682Z</time></trkpt><trkpt lat="42.996981" lon="11.6769653"><ele>369.0</ele><time>2026-05-02T13:44:02.69Z</time></trkpt><trkpt lat="42.9968971" lon="11.6768417"><ele>369.0</ele><time>2026-05-02T13:44:03.686Z</time></trkpt><trkpt lat="42.9968304" lon="11.6767065"><ele>369.25</ele><time>2026-05-02T13:44:04.683Z</time></trkpt><trkpt lat="42.9967819" lon="11.6765661"><ele>369.5</ele><time>2026-05-02T13:44:05.675Z</time></trkpt><trkpt lat="42.9967329" lon="11.6764232"><ele>369.75</ele><time>2026-05-02T13:44:06.682Z</time></trkpt><trkpt lat="42.9966797" lon="11.6762814"><ele>370.0</ele><time>2026-05-02T13:44:07.687Z</time></trkpt><trkpt lat="42.996626" lon="11.6761428"><ele>373.0</ele><time>2026-05-02T13:44:08.69Z</time></trkpt><trkpt lat="42.9965732" lon="11.6760035"><ele>376.0</ele><time>2026-05-02T13:44:09.678Z</time></trkpt><trkpt lat="42.9965193" lon="11.675863"><ele>379.0</ele><time>2026-05-02T13:44:10.689Z</time></trkpt><trkpt lat="42.9964641" lon="11.6757248"><ele>382.0</ele><time>2026-05-02T13:44:11.683Z</time></trkpt><trkpt lat="42.9964099" lon="11.6755876"><ele>382.0</ele><time>2026-05-02T13:44:12.696Z</time></trkpt><trkpt lat="42.9963565" lon="11.6754547"><ele>382.0</ele><time>2026-05-02T13:44:13.685Z</time></trkpt><trkpt lat="42.9963032" lon="11.6753262"><ele>382.0</ele><time>2026-05-02T13:44:14.676Z</time></trkpt><trkpt lat="42.9962506" lon="11.6752008"><ele>382.0</ele><time>2026-05-02T13:44:15.672Z</time></trkpt><trkpt lat="42.9961984" lon="11.6750772"><ele>382.0</ele><time>2026-05-02T13:44:16.685Z</time></trkpt><trkpt lat="42.9961481" lon="11.6749526"><ele>381.6</ele><time>2026-05-02T13:44:17.691Z</time></trkpt><trkpt lat="42.9960973" lon="11.6748285"><ele>381.20000000000005</ele><time>2026-05-02T13:44:18.694Z</time></trkpt><trkpt lat="42.9960473" lon="11.6747078"><ele>380.8</ele><time>2026-05-02T13:44:19.68Z</time></trkpt><trkpt lat="42.9960003" lon="11.6745939"><ele>380.4</ele><time>2026-05-02T13:44:20.681Z</time></trkpt><trkpt lat="42.9959559" lon="11.6744826"><ele>380.0</ele><time>2026-05-02T13:44:21.684Z</time></trkpt><trkpt lat="42.99591" lon="11.6743754"><ele>379.6</ele><time>2026-05-02T13:44:22.691Z</time></trkpt><trkpt lat="42.9958671" lon="11.6742678"><ele>379.2</ele><time>2026-05-02T13:44:23.682Z</time></trkpt><trkpt lat="42.9958254" lon="11.674156"><ele>378.79999999999995</ele><time>2026-05-02T13:44:24.687Z</time></trkpt><trkpt lat="42.995789" lon="11.6740337"><ele>378.4</ele><time>2026-05-02T13:44:25.683Z</time></trkpt><trkpt lat="42.9957473" lon="11.6739012"><ele>378.0</ele><time>2026-05-02T13:44:26.698Z</time></trkpt><trkpt lat="42.9957004" lon="11.6737662"><ele>380.25</ele><time>2026-05-02T13:44:27.68Z</time></trkpt><trkpt lat="42.995648" lon="11.6736226"><ele>382.5</ele><time>2026-05-02T13:44:28.7Z</time></trkpt><trkpt lat="42.9955953" lon="11.6734742"><ele>384.75</ele><time>2026-05-02T13:44:29.69Z</time></trkpt><trkpt lat="42.9955443" lon="11.6733228"><ele>387.0</ele><time>2026-05-02T13:44:30.685Z</time></trkpt><trkpt lat="42.9954946" lon="11.6731713"><ele>387.0</ele><time>2026-05-02T13:44:31.688Z</time></trkpt><trkpt lat="42.9954519" lon="11.6730134"><ele>387.0</ele><time>2026-05-02T13:44:32.685Z</time></trkpt><trkpt lat="42.9954162" lon="11.6728533"><ele>387.0</ele><time>2026-05-02T13:44:33.682Z</time></trkpt><trkpt lat="42.9953845" lon="11.6726898"><ele>387.0</ele><time>2026-05-02T13:44:34.681Z</time></trkpt><trkpt lat="42.9953617" lon="11.6725305"><ele>387.0</ele><time>2026-05-02T13:44:35.679Z</time></trkpt><trkpt lat="42.9953438" lon="11.6723789"><ele>387.0</ele><time>2026-05-02T13:44:36.691Z</time></trkpt><trkpt lat="42.9953287" lon="11.6722378"><ele>387.0</ele><time>2026-05-02T13:44:37.674Z</time></trkpt><trkpt lat="42.9953112" lon="11.6721156"><ele>387.0</ele><time>2026-05-02T13:44:38.692Z</time></trkpt><trkpt lat="42.9952951" lon="11.6720083"><ele>387.0</ele><time>2026-05-02T13:44:39.686Z</time></trkpt><trkpt lat="42.9952836" lon="11.6719054"><ele>386.8333333333333</ele><time>2026-05-02T13:44:40.683Z</time></trkpt><trkpt lat="42.9952718" lon="11.6718067"><ele>386.66666666666663</ele><time>2026-05-02T13:44:41.685Z</time></trkpt><trkpt lat="42.99526" lon="11.6717148"><ele>386.5</ele><time>2026-05-02T13:44:42.691Z</time></trkpt><trkpt lat="42.9952488" lon="11.6716297"><ele>386.3333333333333</ele><time>2026-05-02T13:44:43.695Z</time></trkpt><trkpt lat="42.9952243" lon="11.6714759"><ele>386.16666666666663</ele><time>2026-05-02T13:44:45.696Z</time></trkpt><trkpt lat="42.9952027" lon="11.6713465"><ele>386.0</ele><time>2026-05-02T13:44:47.681Z</time></trkpt><trkpt lat="42.9951803" lon="11.6712442"><ele>385.99999999999994</ele><time>2026-05-02T13:44:49.687Z</time></trkpt><trkpt lat="42.9951614" lon="11.67114"><ele>386.0</ele><time>2026-05-02T13:44:51.687Z</time></trkpt><trkpt lat="42.9951378" lon="11.6710275"><ele>386.0</ele><time>2026-05-02T13:44:53.682Z</time></trkpt><trkpt lat="42.9951129" lon="11.6709438"><ele>386.0</ele><time>2026-05-02T13:44:55.686Z</time></trkpt><trkpt lat="42.9950695" lon="11.6708616"><ele>385.99999999999994</ele><time>2026-05-02T13:44:58.695Z</time></trkpt><trkpt lat="42.9950213" lon="11.6707984"><ele>386.0</ele><time>2026-05-02T13:45:00.685Z</time></trkpt><trkpt lat="42.9949361" lon="11.6706798"><ele>386.99999999999994</ele><time>2026-05-02T13:45:02.683Z</time></trkpt><trkpt lat="42.9948807" lon="11.6706102"><ele>388.0</ele><time>2026-05-02T13:45:03.685Z</time></trkpt><trkpt lat="42.9948202" lon="11.6705402"><ele>389.0</ele><time>2026-05-02T13:45:04.691Z</time></trkpt><trkpt lat="42.9947558" lon="11.6704674"><ele>390.0</ele><time>2026-05-02T13:45:05.688Z</time></trkpt><trkpt lat="42.9946889" lon="11.6703915"><ele>390.99999999999994</ele><time>2026-05-02T13:45:06.692Z</time></trkpt><trkpt lat="42.9946228" lon="11.6703126"><ele>392.0</ele><time>2026-05-02T13:45:07.688Z</time></trkpt><trkpt lat="42.9945579" lon="11.6702314"><ele>392.0</ele><time>2026-05-02T13:45:08.69Z</time></trkpt><trkpt lat="42.9944894" lon="11.6701462"><ele>392.0</ele><time>2026-05-02T13:45:09.684Z</time></trkpt><trkpt lat="42.9944182" lon="11.6700575"><ele>392.0</ele><time>2026-05-02T13:45:10.683Z</time></trkpt><trkpt lat="42.9943456" lon="11.6699678"><ele>392.0</ele><time>2026-05-02T13:45:11.674Z</time></trkpt><trkpt lat="42.9942723" lon="11.669869"><ele>392.0</ele><time>2026-05-02T13:45:12.688Z</time></trkpt><trkpt lat="42.994199" lon="11.669766"><ele>392.0</ele><time>2026-05-02T13:45:13.686Z</time></trkpt><trkpt lat="42.9941272" lon="11.6696575"><ele>392.0</ele><time>2026-05-02T13:45:14.69Z</time></trkpt><trkpt lat="42.9940518" lon="11.669544"><ele>392.0</ele><time>2026-05-02T13:45:15.682Z</time></trkpt><trkpt lat="42.9939732" lon="11.6694324"><ele>392.0</ele><time>2026-05-02T13:45:16.683Z</time></trkpt><trkpt lat="42.9938909" lon="11.6693265"><ele>392.0</ele><time>2026-05-02T13:45:17.673Z</time></trkpt><trkpt lat="42.9938009" lon="11.6692268"><ele>392.0</ele><time>2026-05-02T13:45:18.681Z</time></trkpt><trkpt lat="42.9937013" lon="11.6691375"><ele>392.0</ele><time>2026-05-02T13:45:19.685Z</time></trkpt><trkpt lat="42.9935891" lon="11.6690572"><ele>392.0</ele><time>2026-05-02T13:45:20.694Z</time></trkpt><trkpt lat="42.993473" lon="11.6689828"><ele>392.0</ele><time>2026-05-02T13:45:21.682Z</time></trkpt><trkpt lat="42.9933627" lon="11.668907"><ele>390.75</ele><time>2026-05-02T13:45:22.69Z</time></trkpt><trkpt lat="42.9932495" lon="11.668839"><ele>389.5</ele><time>2026-05-02T13:45:23.69Z</time></trkpt><trkpt lat="42.9931374" lon="11.6687751"><ele>388.25</ele><time>2026-05-02T13:45:24.699Z</time></trkpt><trkpt lat="42.9930274" lon="11.6687073"><ele>387.0</ele><time>2026-05-02T13:45:25.685Z</time></trkpt><trkpt lat="42.9929185" lon="11.6686429"><ele>386.5</ele><time>2026-05-02T13:45:26.688Z</time></trkpt><trkpt lat="42.9928089" lon="11.6685786"><ele>386.0</ele><time>2026-05-02T13:45:27.68Z</time></trkpt><trkpt lat="42.9926955" lon="11.6685176"><ele>385.5</ele><time>2026-05-02T13:45:28.686Z</time></trkpt><trkpt lat="42.9925783" lon="11.6684576"><ele>385.0</ele><time>2026-05-02T13:45:29.68Z</time></trkpt><trkpt lat="42.9924616" lon="11.6683964"><ele>386.25</ele><time>2026-05-02T13:45:30.681Z</time></trkpt><trkpt lat="42.9923435" lon="11.6683344"><ele>387.5</ele><time>2026-05-02T13:45:31.685Z</time></trkpt><trkpt lat="42.9922228" lon="11.6682726"><ele>388.75</ele><time>2026-05-02T13:45:32.69Z</time></trkpt><trkpt lat="42.9921031" lon="11.6682021"><ele>390.0</ele><time>2026-05-02T13:45:33.685Z</time></trkpt><trkpt lat="42.9919824" lon="11.6681327"><ele>390.0</ele><time>2026-05-02T13:45:34.691Z</time></trkpt><trkpt lat="42.9918616" lon="11.6680625"><ele>390.0</ele><time>2026-05-02T13:45:35.686Z</time></trkpt><trkpt lat="42.9917405" lon="11.6679907"><ele>390.0</ele><time>2026-05-02T13:45:36.675Z</time></trkpt><trkpt lat="42.9916196" lon="11.6679292"><ele>390.0</ele><time>2026-05-02T13:45:37.681Z</time></trkpt><trkpt lat="42.9914965" lon="11.6678857"><ele>391.75</ele><time>2026-05-02T13:45:38.681Z</time></trkpt><trkpt lat="42.9913745" lon="11.6678562"><ele>393.5</ele><time>2026-05-02T13:45:39.68Z</time></trkpt><trkpt lat="42.991256" lon="11.667829"><ele>395.25</ele><time>2026-05-02T13:45:40.684Z</time></trkpt><trkpt lat="42.9911448" lon="11.6677905"><ele>397.0</ele><time>2026-05-02T13:45:41.69Z</time></trkpt><trkpt lat="42.9910437" lon="11.6677391"><ele>397.20000000000005</ele><time>2026-05-02T13:45:42.684Z</time></trkpt><trkpt lat="42.9909572" lon="11.6676637"><ele>397.4</ele><time>2026-05-02T13:45:43.683Z</time></trkpt><trkpt lat="42.9908851" lon="11.6675717"><ele>397.6</ele><time>2026-05-02T13:45:44.687Z</time></trkpt><trkpt lat="42.9908378" lon="11.667464"><ele>397.79999999999995</ele><time>2026-05-02T13:45:45.681Z</time></trkpt><trkpt lat="42.990819" lon="11.6673359"><ele>398.0</ele><time>2026-05-02T13:45:46.683Z</time></trkpt><trkpt lat="42.9908045" lon="11.6672022"><ele>400.2</ele><time>2026-05-02T13:45:47.679Z</time></trkpt><trkpt lat="42.9907901" lon="11.6670672"><ele>402.4</ele><time>2026-05-02T13:45:48.689Z</time></trkpt><trkpt lat="42.9907598" lon="11.666936"><ele>404.59999999999997</ele><time>2026-05-02T13:45:49.679Z</time></trkpt><trkpt lat="42.9907139" lon="11.6668205"><ele>406.79999999999995</ele><time>2026-05-02T13:45:50.7Z</time></trkpt><trkpt lat="42.9906454" lon="11.6667225"><ele>409.0</ele><time>2026-05-02T13:45:51.688Z</time></trkpt><trkpt lat="42.9905748" lon="11.6666336"><ele>410.0</ele><time>2026-05-02T13:45:52.686Z</time></trkpt><trkpt lat="42.9904966" lon="11.6665466"><ele>411.0</ele><time>2026-05-02T13:45:53.681Z</time></trkpt><trkpt lat="42.9904121" lon="11.6664665"><ele>412.0</ele><time>2026-05-02T13:45:54.686Z</time></trkpt><trkpt lat="42.990332" lon="11.6663902"><ele>413.0</ele><time>2026-05-02T13:45:55.677Z</time></trkpt><trkpt lat="42.99026" lon="11.6663008"><ele>414.0</ele><time>2026-05-02T13:45:56.684Z</time></trkpt><trkpt lat="42.9902167" lon="11.6661883"><ele>413.6</ele><time>2026-05-02T13:45:57.68Z</time></trkpt><trkpt lat="42.9902034" lon="11.6660617"><ele>413.2</ele><time>2026-05-02T13:45:58.682Z</time></trkpt><trkpt lat="42.9902107" lon="11.6659271"><ele>412.8</ele><time>2026-05-02T13:45:59.688Z</time></trkpt><trkpt lat="42.9902148" lon="11.6657779"><ele>412.40000000000003</ele><time>2026-05-02T13:46:00.676Z</time></trkpt><trkpt lat="42.9902046" lon="11.6656271"><ele>412.0</ele><time>2026-05-02T13:46:01.677Z</time></trkpt><trkpt lat="42.990174" lon="11.6654845"><ele>412.0</ele><time>2026-05-02T13:46:02.696Z</time></trkpt><trkpt lat="42.9901312" lon="11.6653529"><ele>412.0</ele><time>2026-05-02T13:46:03.69Z</time></trkpt><trkpt lat="42.9900812" lon="11.6652247"><ele>412.0</ele><time>2026-05-02T13:46:04.682Z</time></trkpt><trkpt lat="42.9900184" lon="11.6650977"><ele>412.0</ele><time>2026-05-02T13:46:05.671Z</time></trkpt><trkpt lat="42.9899525" lon="11.6649604"><ele>412.0</ele><time>2026-05-02T13:46:06.69Z</time></trkpt><trkpt lat="42.9898878" lon="11.6648215"><ele>413.75</ele><time>2026-05-02T13:46:07.675Z</time></trkpt><trkpt lat="42.9898246" lon="11.6646816"><ele>415.5</ele><time>2026-05-02T13:46:08.687Z</time></trkpt><trkpt lat="42.9897628" lon="11.6645403"><ele>417.25</ele><time>2026-05-02T13:46:09.682Z</time></trkpt><trkpt lat="42.9896989" lon="11.6643993"><ele>419.0</ele><time>2026-05-02T13:46:10.674Z</time></trkpt><trkpt lat="42.9896385" lon="11.6642499"><ele>419.0</ele><time>2026-05-02T13:46:11.68Z</time></trkpt><trkpt lat="42.9895844" lon="11.6640876"><ele>419.0</ele><time>2026-05-02T13:46:12.68Z</time></trkpt><trkpt lat="42.9895434" lon="11.6639113"><ele>419.0</ele><time>2026-05-02T13:46:13.678Z</time></trkpt><trkpt lat="42.9895138" lon="11.6637284"><ele>419.0</ele><time>2026-05-02T13:46:14.676Z</time></trkpt><trkpt lat="42.9894914" lon="11.6635448"><ele>418.25</ele><time>2026-05-02T13:46:15.675Z</time></trkpt><trkpt lat="42.9894735" lon="11.6633566"><ele>417.5</ele><time>2026-05-02T13:46:16.685Z</time></trkpt><trkpt lat="42.9894544" lon="11.663171"><ele>416.75</ele><time>2026-05-02T13:46:17.674Z</time></trkpt><trkpt lat="42.9894364" lon="11.6629856"><ele>416.0</ele><time>2026-05-02T13:46:18.679Z</time></trkpt><trkpt lat="42.9894161" lon="11.6628023"><ele>416.25</ele><time>2026-05-02T13:46:19.678Z</time></trkpt><trkpt lat="42.9893937" lon="11.6626198"><ele>416.5</ele><time>2026-05-02T13:46:20.683Z</time></trkpt><trkpt lat="42.9893678" lon="11.6624344"><ele>416.75</ele><time>2026-05-02T13:46:21.688Z</time></trkpt><trkpt lat="42.9893427" lon="11.6622464"><ele>417.0</ele><time>2026-05-02T13:46:22.686Z</time></trkpt><trkpt lat="42.9893172" lon="11.662059"><ele>415.75</ele><time>2026-05-02T13:46:23.692Z</time></trkpt><trkpt lat="42.9892927" lon="11.6618693"><ele>414.5</ele><time>2026-05-02T13:46:24.679Z</time></trkpt><trkpt lat="42.9892668" lon="11.6616778"><ele>413.25</ele><time>2026-05-02T13:46:25.691Z</time></trkpt><trkpt lat="42.9892339" lon="11.661491"><ele>412.0</ele><time>2026-05-02T13:46:26.685Z</time></trkpt><trkpt lat="42.9892033" lon="11.6612981"><ele>415.0</ele><time>2026-05-02T13:46:27.69Z</time></trkpt><trkpt lat="42.9891693" lon="11.6611068"><ele>418.0</ele><time>2026-05-02T13:46:28.689Z</time></trkpt><trkpt lat="42.9891348" lon="11.6609215"><ele>421.0</ele><time>2026-05-02T13:46:29.673Z</time></trkpt><trkpt lat="42.9890958" lon="11.6607352"><ele>424.0</ele><time>2026-05-02T13:46:30.689Z</time></trkpt><trkpt lat="42.9890562" lon="11.6605522"><ele>424.0</ele><time>2026-05-02T13:46:31.677Z</time></trkpt><trkpt lat="42.9890195" lon="11.6603728"><ele>424.0</ele><time>2026-05-02T13:46:32.679Z</time></trkpt><trkpt lat="42.9889803" lon="11.6602021"><ele>424.0</ele><time>2026-05-02T13:46:33.671Z</time></trkpt><trkpt lat="42.9889311" lon="11.6600415"><ele>424.0</ele><time>2026-05-02T13:46:34.693Z</time></trkpt><trkpt lat="42.9888752" lon="11.6598872"><ele>425.25</ele><time>2026-05-02T13:46:35.69Z</time></trkpt><trkpt lat="42.9888106" lon="11.6597384"><ele>426.5</ele><time>2026-05-02T13:46:36.688Z</time></trkpt><trkpt lat="42.9887319" lon="11.6595931"><ele>427.75</ele><time>2026-05-02T13:46:37.677Z</time></trkpt><trkpt lat="42.988653" lon="11.6594425"><ele>429.0</ele><time>2026-05-02T13:46:38.681Z</time></trkpt><trkpt lat="42.988575" lon="11.6592903"><ele>429.25</ele><time>2026-05-02T13:46:39.684Z</time></trkpt><trkpt lat="42.9885021" lon="11.6591275"><ele>429.5</ele><time>2026-05-02T13:46:40.68Z</time></trkpt><trkpt lat="42.9884349" lon="11.6589644"><ele>429.75</ele><time>2026-05-02T13:46:41.689Z</time></trkpt><trkpt lat="42.98837" lon="11.6587983"><ele>430.0</ele><time>2026-05-02T13:46:42.699Z</time></trkpt><trkpt lat="42.9883026" lon="11.6586257"><ele>430.0</ele><time>2026-05-02T13:46:43.686Z</time></trkpt><trkpt lat="42.9882354" lon="11.6584523"><ele>430.0</ele><time>2026-05-02T13:46:44.692Z</time></trkpt><trkpt lat="42.9881636" lon="11.6582779"><ele>430.0</ele><time>2026-05-02T13:46:45.68Z</time></trkpt><trkpt lat="42.9880912" lon="11.6581002"><ele>430.0</ele><time>2026-05-02T13:46:46.671Z</time></trkpt><trkpt lat="42.9880212" lon="11.6579233"><ele>430.0</ele><time>2026-05-02T13:46:47.683Z</time></trkpt><trkpt lat="42.9879507" lon="11.6577442"><ele>430.0</ele><time>2026-05-02T13:46:48.685Z</time></trkpt><trkpt lat="42.9878825" lon="11.6575657"><ele>430.0</ele><time>2026-05-02T13:46:49.67Z</time></trkpt><trkpt lat="42.9878153" lon="11.6573919"><ele>430.0</ele><time>2026-05-02T13:46:50.683Z</time></trkpt><trkpt lat="42.987751" lon="11.6572234"><ele>430.0</ele><time>2026-05-02T13:46:51.683Z</time></trkpt><trkpt lat="42.9876882" lon="11.6570617"><ele>430.0</ele><time>2026-05-02T13:46:52.687Z</time></trkpt><trkpt lat="42.9876314" lon="11.6569142"><ele>430.0</ele><time>2026-05-02T13:46:53.689Z</time></trkpt><trkpt lat="42.9875843" lon="11.6567837"><ele>430.0</ele><time>2026-05-02T13:46:54.674Z</time></trkpt><trkpt lat="42.987541" lon="11.6566691"><ele>430.0</ele><time>2026-05-02T13:46:55.676Z</time></trkpt><trkpt lat="42.9875111" lon="11.6565537"><ele>430.0</ele><time>2026-05-02T13:46:56.673Z</time></trkpt><trkpt lat="42.9874949" lon="11.6564289"><ele>430.0</ele><time>2026-05-02T13:46:57.684Z</time></trkpt><trkpt lat="42.9874844" lon="11.6562895"><ele>430.0</ele><time>2026-05-02T13:46:58.692Z</time></trkpt><trkpt lat="42.9874801" lon="11.6561363"><ele>430.0</ele><time>2026-05-02T13:46:59.684Z</time></trkpt><trkpt lat="42.9874824" lon="11.6559814"><ele>430.0</ele><time>2026-05-02T13:47:00.683Z</time></trkpt><trkpt lat="42.9874913" lon="11.6558164"><ele>430.0</ele><time>2026-05-02T13:47:01.677Z</time></trkpt><trkpt lat="42.987507" lon="11.6556479"><ele>430.0</ele><time>2026-05-02T13:47:02.679Z</time></trkpt><trkpt lat="42.9875249" lon="11.6554714"><ele>430.0</ele><time>2026-05-02T13:47:03.675Z</time></trkpt><trkpt lat="42.9875535" lon="11.6552952"><ele>429.25</ele><time>2026-05-02T13:47:04.679Z</time></trkpt><trkpt lat="42.98759" lon="11.6551209"><ele>428.5</ele><time>2026-05-02T13:47:05.689Z</time></trkpt><trkpt lat="42.9876346" lon="11.6549458"><ele>427.75</ele><time>2026-05-02T13:47:06.688Z</time></trkpt><trkpt lat="42.9876822" lon="11.6547748"><ele>427.0</ele><time>2026-05-02T13:47:07.686Z</time></trkpt><trkpt lat="42.9877304" lon="11.6546049"><ele>427.5</ele><time>2026-05-02T13:47:08.691Z</time></trkpt><trkpt lat="42.9877819" lon="11.6544322"><ele>428.0</ele><time>2026-05-02T13:47:09.667Z</time></trkpt><trkpt lat="42.9878348" lon="11.6542542"><ele>428.5</ele><time>2026-05-02T13:47:10.685Z</time></trkpt><trkpt lat="42.9878842" lon="11.6540772"><ele>429.0</ele><time>2026-05-02T13:47:11.689Z</time></trkpt><trkpt lat="42.9879345" lon="11.6539035"><ele>429.0</ele><time>2026-05-02T13:47:12.696Z</time></trkpt><trkpt lat="42.987989" lon="11.6537341"><ele>429.0</ele><time>2026-05-02T13:47:13.685Z</time></trkpt><trkpt lat="42.9880419" lon="11.6535637"><ele>429.0</ele><time>2026-05-02T13:47:14.673Z</time></trkpt><trkpt lat="42.988091" lon="11.6533883"><ele>429.0</ele><time>2026-05-02T13:47:15.674Z</time></trkpt><trkpt lat="42.988139" lon="11.653212"><ele>429.0</ele><time>2026-05-02T13:47:16.685Z</time></trkpt><trkpt lat="42.9881836" lon="11.6530348"><ele>429.0</ele><time>2026-05-02T13:47:17.671Z</time></trkpt><trkpt lat="42.9882324" lon="11.6528549"><ele>429.0</ele><time>2026-05-02T13:47:18.69Z</time></trkpt><trkpt lat="42.9882815" lon="11.6526772"><ele>429.0</ele><time>2026-05-02T13:47:19.682Z</time></trkpt><trkpt lat="42.9883351" lon="11.6524975"><ele>429.0</ele><time>2026-05-02T13:47:20.686Z</time></trkpt><trkpt lat="42.988387" lon="11.6523192"><ele>429.0</ele><time>2026-05-02T13:47:21.682Z</time></trkpt><trkpt lat="42.9884366" lon="11.6521392"><ele>429.0</ele><time>2026-05-02T13:47:22.684Z</time></trkpt><trkpt lat="42.9884847" lon="11.6519579"><ele>429.0</ele><time>2026-05-02T13:47:23.683Z</time></trkpt><trkpt lat="42.9885335" lon="11.6517754"><ele>429.0</ele><time>2026-05-02T13:47:24.691Z</time></trkpt><trkpt lat="42.988586" lon="11.6515957"><ele>429.0</ele><time>2026-05-02T13:47:25.68Z</time></trkpt><trkpt lat="42.9886476" lon="11.6514236"><ele>429.0</ele><time>2026-05-02T13:47:26.672Z</time></trkpt><trkpt lat="42.9887113" lon="11.6512582"><ele>429.0</ele><time>2026-05-02T13:47:27.684Z</time></trkpt><trkpt lat="42.9887699" lon="11.651081"><ele>428.33333333333337</ele><time>2026-05-02T13:47:28.692Z</time></trkpt><trkpt lat="42.9888164" lon="11.6508877"><ele>427.6666666666667</ele><time>2026-05-02T13:47:29.684Z</time></trkpt><trkpt lat="42.9888473" lon="11.6506844"><ele>427.0</ele><time>2026-05-02T13:47:30.688Z</time></trkpt><trkpt lat="42.9888659" lon="11.650474"><ele>426.6666666666667</ele><time>2026-05-02T13:47:31.676Z</time></trkpt><trkpt lat="42.9888745" lon="11.6502642"><ele>426.33333333333337</ele><time>2026-05-02T13:47:32.677Z</time></trkpt><trkpt lat="42.9888763" lon="11.6500556"><ele>426.0</ele><time>2026-05-02T13:47:33.685Z</time></trkpt><trkpt lat="42.9888775" lon="11.6498472"><ele>426.0</ele><time>2026-05-02T13:47:34.683Z</time></trkpt><trkpt lat="42.9888798" lon="11.6496393"><ele>426.0</ele><time>2026-05-02T13:47:35.674Z</time></trkpt><trkpt lat="42.9888844" lon="11.6494384"><ele>426.0</ele><time>2026-05-02T13:47:36.685Z</time></trkpt><trkpt lat="42.988888" lon="11.6492576"><ele>426.0</ele><time>2026-05-02T13:47:37.687Z</time></trkpt><trkpt lat="42.9888937" lon="11.6490723"><ele>426.25</ele><time>2026-05-02T13:47:38.683Z</time></trkpt><trkpt lat="42.9888976" lon="11.6488874"><ele>426.5</ele><time>2026-05-02T13:47:39.681Z</time></trkpt><trkpt lat="42.988899" lon="11.6486959"><ele>426.75</ele><time>2026-05-02T13:47:40.686Z</time></trkpt><trkpt lat="42.9888881" lon="11.6485105"><ele>427.0</ele><time>2026-05-02T13:47:41.683Z</time></trkpt><trkpt lat="42.988864" lon="11.6483238"><ele>427.0</ele><time>2026-05-02T13:47:42.687Z</time></trkpt><trkpt lat="42.9888266" lon="11.6481382"><ele>427.0</ele><time>2026-05-02T13:47:43.68Z</time></trkpt><trkpt lat="42.9887773" lon="11.6479543"><ele>427.0</ele><time>2026-05-02T13:47:44.682Z</time></trkpt><trkpt lat="42.9887186" lon="11.6477677"><ele>427.0</ele><time>2026-05-02T13:47:45.684Z</time></trkpt><trkpt lat="42.9886602" lon="11.64758"><ele>427.25</ele><time>2026-05-02T13:47:46.684Z</time></trkpt><trkpt lat="42.9886074" lon="11.6473921"><ele>427.5</ele><time>2026-05-02T13:47:47.684Z</time></trkpt><trkpt lat="42.9885597" lon="11.647217"><ele>427.75</ele><time>2026-05-02T13:47:48.683Z</time></trkpt><trkpt lat="42.9885116" lon="11.6470582"><ele>428.0</ele><time>2026-05-02T13:47:49.682Z</time></trkpt><trkpt lat="42.988457" lon="11.6469102"><ele>428.0</ele><time>2026-05-02T13:47:50.69Z</time></trkpt><trkpt lat="42.9883894" lon="11.6467624"><ele>428.0</ele><time>2026-05-02T13:47:51.68Z</time></trkpt><trkpt lat="42.9883134" lon="11.6466153"><ele>428.0</ele><time>2026-05-02T13:47:52.686Z</time></trkpt><trkpt lat="42.9882472" lon="11.6464631"><ele>428.0</ele><time>2026-05-02T13:47:53.678Z</time></trkpt><trkpt lat="42.9881979" lon="11.646305"><ele>430.0</ele><time>2026-05-02T13:47:54.697Z</time></trkpt><trkpt lat="42.9881673" lon="11.6461469"><ele>432.0</ele><time>2026-05-02T13:47:55.677Z</time></trkpt><trkpt lat="42.9881498" lon="11.6459814"><ele>434.0</ele><time>2026-05-02T13:47:56.689Z</time></trkpt><trkpt lat="42.9881309" lon="11.6458093"><ele>436.0</ele><time>2026-05-02T13:47:57.678Z</time></trkpt><trkpt lat="42.9880976" lon="11.6456384"><ele>436.5</ele><time>2026-05-02T13:47:58.684Z</time></trkpt><trkpt lat="42.9880522" lon="11.6454722"><ele>437.0</ele><time>2026-05-02T13:47:59.688Z</time></trkpt><trkpt lat="42.9879939" lon="11.6453182"><ele>437.5</ele><time>2026-05-02T13:48:00.692Z</time></trkpt><trkpt lat="42.9879228" lon="11.6451766"><ele>438.0</ele><time>2026-05-02T13:48:01.687Z</time></trkpt><trkpt lat="42.9878364" lon="11.6450369"><ele>436.75</ele><time>2026-05-02T13:48:02.671Z</time></trkpt><trkpt lat="42.9877477" lon="11.6449095"><ele>435.5</ele><time>2026-05-02T13:48:03.671Z</time></trkpt><trkpt lat="42.9876599" lon="11.6447831"><ele>434.25</ele><time>2026-05-02T13:48:04.698Z</time></trkpt><trkpt lat="42.9875724" lon="11.6446607"><ele>433.0</ele><time>2026-05-02T13:48:05.682Z</time></trkpt><trkpt lat="42.9874831" lon="11.6445333"><ele>432.25</ele><time>2026-05-02T13:48:06.686Z</time></trkpt><trkpt lat="42.9873892" lon="11.6443971"><ele>431.5</ele><time>2026-05-02T13:48:07.685Z</time></trkpt><trkpt lat="42.9872908" lon="11.6442561"><ele>430.75</ele><time>2026-05-02T13:48:08.693Z</time></trkpt><trkpt lat="42.9871908" lon="11.6441139"><ele>430.0</ele><time>2026-05-02T13:48:09.687Z</time></trkpt><trkpt lat="42.9870983" lon="11.6439604"><ele>430.0</ele><time>2026-05-02T13:48:10.688Z</time></trkpt><trkpt lat="42.987009" lon="11.6438113"><ele>430.0</ele><time>2026-05-02T13:48:11.689Z</time></trkpt><trkpt lat="42.9869196" lon="11.6436676"><ele>430.0</ele><time>2026-05-02T13:48:12.693Z</time></trkpt><trkpt lat="42.9868365" lon="11.6435262"><ele>430.0</ele><time>2026-05-02T13:48:13.68Z</time></trkpt><trkpt lat="42.9867529" lon="11.64339"><ele>428.25</ele><time>2026-05-02T13:48:14.684Z</time></trkpt><trkpt lat="42.9866691" lon="11.6432533"><ele>426.5</ele><time>2026-05-02T13:48:15.68Z</time></trkpt><trkpt lat="42.9865875" lon="11.6431206"><ele>424.75</ele><time>2026-05-02T13:48:16.68Z</time></trkpt><trkpt lat="42.986506" lon="11.6429847"><ele>423.0</ele><time>2026-05-02T13:48:17.69Z</time></trkpt><trkpt lat="42.9864194" lon="11.6428569"><ele>422.25</ele><time>2026-05-02T13:48:18.698Z</time></trkpt><trkpt lat="42.9863191" lon="11.6427503"><ele>421.5</ele><time>2026-05-02T13:48:19.682Z</time></trkpt><trkpt lat="42.986211" lon="11.6426629"><ele>420.75</ele><time>2026-05-02T13:48:20.678Z</time></trkpt><trkpt lat="42.9860992" lon="11.6425793"><ele>420.0</ele><time>2026-05-02T13:48:21.686Z</time></trkpt><trkpt lat="42.9859848" lon="11.6424878"><ele>420.0</ele><time>2026-05-02T13:48:22.684Z</time></trkpt><trkpt lat="42.9858738" lon="11.6423863"><ele>420.0</ele><time>2026-05-02T13:48:23.677Z</time></trkpt><trkpt lat="42.9857741" lon="11.6422651"><ele>420.0</ele><time>2026-05-02T13:48:24.686Z</time></trkpt><trkpt lat="42.9856836" lon="11.6421359"><ele>420.0</ele><time>2026-05-02T13:48:25.684Z</time></trkpt><trkpt lat="42.9855984" lon="11.6420022"><ele>419.0</ele><time>2026-05-02T13:48:26.683Z</time></trkpt><trkpt lat="42.9855141" lon="11.6418674"><ele>418.0</ele><time>2026-05-02T13:48:27.683Z</time></trkpt><trkpt lat="42.9854277" lon="11.6417379"><ele>417.0</ele><time>2026-05-02T13:48:28.68Z</time></trkpt><trkpt lat="42.985342" lon="11.6416102"><ele>416.0</ele><time>2026-05-02T13:48:29.68Z</time></trkpt><trkpt lat="42.9852532" lon="11.6414869"><ele>416.0</ele><time>2026-05-02T13:48:30.686Z</time></trkpt><trkpt lat="42.9851642" lon="11.6413658"><ele>416.0</ele><time>2026-05-02T13:48:31.67Z</time></trkpt><trkpt lat="42.9850773" lon="11.641233"><ele>416.0</ele><time>2026-05-02T13:48:32.673Z</time></trkpt><trkpt lat="42.9849893" lon="11.6411051"><ele>416.0</ele><time>2026-05-02T13:48:33.678Z</time></trkpt><trkpt lat="42.9849056" lon="11.6409718"><ele>416.0</ele><time>2026-05-02T13:48:34.68Z</time></trkpt><trkpt lat="42.9848251" lon="11.6408334"><ele>416.0</ele><time>2026-05-02T13:48:35.674Z</time></trkpt><trkpt lat="42.9847453" lon="11.6406926"><ele>416.0</ele><time>2026-05-02T13:48:36.685Z</time></trkpt><trkpt lat="42.9846596" lon="11.6405566"><ele>416.0</ele><time>2026-05-02T13:48:37.675Z</time></trkpt><trkpt lat="42.9845643" lon="11.6404316"><ele>416.0</ele><time>2026-05-02T13:48:38.674Z</time></trkpt><trkpt lat="42.9844641" lon="11.6403083"><ele>416.0</ele><time>2026-05-02T13:48:39.681Z</time></trkpt><trkpt lat="42.9843637" lon="11.6401843"><ele>416.0</ele><time>2026-05-02T13:48:40.681Z</time></trkpt><trkpt lat="42.98427" lon="11.6400464"><ele>416.0</ele><time>2026-05-02T13:48:41.678Z</time></trkpt><trkpt lat="42.9841811" lon="11.6399083"><ele>416.75</ele><time>2026-05-02T13:48:42.68Z</time></trkpt><trkpt lat="42.9840914" lon="11.6397805"><ele>417.5</ele><time>2026-05-02T13:48:43.692Z</time></trkpt><trkpt lat="42.9840056" lon="11.6396668"><ele>418.25</ele><time>2026-05-02T13:48:44.672Z</time></trkpt><trkpt lat="42.9839251" lon="11.6395681"><ele>419.0</ele><time>2026-05-02T13:48:45.683Z</time></trkpt><trkpt lat="42.9838499" lon="11.6394817"><ele>418.0</ele><time>2026-05-02T13:48:46.665Z</time></trkpt><trkpt lat="42.983777" lon="11.6394106"><ele>417.0</ele><time>2026-05-02T13:48:47.673Z</time></trkpt><trkpt lat="42.9836979" lon="11.6393611"><ele>416.0</ele><time>2026-05-02T13:48:48.681Z</time></trkpt><trkpt lat="42.9836073" lon="11.6393296"><ele>415.0</ele><time>2026-05-02T13:48:49.674Z</time></trkpt><trkpt lat="42.983503" lon="11.6393166"><ele>414.0</ele><time>2026-05-02T13:48:50.691Z</time></trkpt><trkpt lat="42.9833911" lon="11.6393109"><ele>415.75</ele><time>2026-05-02T13:48:51.678Z</time></trkpt><trkpt lat="42.9832768" lon="11.639309"><ele>417.5</ele><time>2026-05-02T13:48:52.691Z</time></trkpt><trkpt lat="42.9831662" lon="11.6393335"><ele>419.25</ele><time>2026-05-02T13:48:53.678Z</time></trkpt><trkpt lat="42.9830523" lon="11.6393846"><ele>421.0</ele><time>2026-05-02T13:48:54.7Z</time></trkpt><trkpt lat="42.9829385" lon="11.6394586"><ele>420.5</ele><time>2026-05-02T13:48:55.676Z</time></trkpt><trkpt lat="42.98283" lon="11.6395568"><ele>420.0</ele><time>2026-05-02T13:48:56.689Z</time></trkpt><trkpt lat="42.9827242" lon="11.6396621"><ele>419.5</ele><time>2026-05-02T13:48:57.686Z</time></trkpt><trkpt lat="42.9826148" lon="11.6397732"><ele>419.0</ele><time>2026-05-02T13:48:58.693Z</time></trkpt><trkpt lat="42.9825101" lon="11.6398797"><ele>419.79999999999995</ele><time>2026-05-02T13:48:59.682Z</time></trkpt><trkpt lat="42.9824125" lon="11.6399849"><ele>420.59999999999997</ele><time>2026-05-02T13:49:00.681Z</time></trkpt><trkpt lat="42.9823215" lon="11.6400803"><ele>421.4</ele><time>2026-05-02T13:49:01.679Z</time></trkpt><trkpt lat="42.9822441" lon="11.6401609"><ele>422.2</ele><time>2026-05-02T13:49:02.683Z</time></trkpt><trkpt lat="42.9821715" lon="11.640228"><ele>423.0</ele><time>2026-05-02T13:49:03.691Z</time></trkpt><trkpt lat="42.982107" lon="11.6402719"><ele>423.0</ele><time>2026-05-02T13:49:04.686Z</time></trkpt><trkpt lat="42.982041" lon="11.640301"><ele>423.0</ele><time>2026-05-02T13:49:05.674Z</time></trkpt><trkpt lat="42.9819689" lon="11.6403096"><ele>423.0</ele><time>2026-05-02T13:49:06.684Z</time></trkpt><trkpt lat="42.981893" lon="11.6402953"><ele>423.0</ele><time>2026-05-02T13:49:07.685Z</time></trkpt><trkpt lat="42.981816" lon="11.6402392"><ele>423.0</ele><time>2026-05-02T13:49:08.688Z</time></trkpt><trkpt lat="42.9817314" lon="11.6401597"><ele>423.0</ele><time>2026-05-02T13:49:09.672Z</time></trkpt><trkpt lat="42.9816451" lon="11.6400647"><ele>422.75</ele><time>2026-05-02T13:49:10.677Z</time></trkpt><trkpt lat="42.9815543" lon="11.6399582"><ele>422.5</ele><time>2026-05-02T13:49:11.68Z</time></trkpt><trkpt lat="42.9814583" lon="11.6398436"><ele>422.25</ele><time>2026-05-02T13:49:12.68Z</time></trkpt><trkpt lat="42.981361" lon="11.6397273"><ele>422.0</ele><time>2026-05-02T13:49:13.684Z</time></trkpt><trkpt lat="42.9812651" lon="11.639608"><ele>422.0</ele><time>2026-05-02T13:49:14.68Z</time></trkpt><trkpt lat="42.9811681" lon="11.6394873"><ele>422.0</ele><time>2026-05-02T13:49:15.688Z</time></trkpt><trkpt lat="42.9810768" lon="11.6393703"><ele>422.0</ele><time>2026-05-02T13:49:16.699Z</time></trkpt><trkpt lat="42.9809947" lon="11.6392643"><ele>422.0</ele><time>2026-05-02T13:49:17.679Z</time></trkpt><trkpt lat="42.9809182" lon="11.6391782"><ele>422.40000000000003</ele><time>2026-05-02T13:49:18.691Z</time></trkpt><trkpt lat="42.9808467" lon="11.6390998"><ele>422.8</ele><time>2026-05-02T13:49:19.678Z</time></trkpt><trkpt lat="42.9807663" lon="11.6390341"><ele>423.2</ele><time>2026-05-02T13:49:20.684Z</time></trkpt><trkpt lat="42.9806697" lon="11.6389971"><ele>423.6</ele><time>2026-05-02T13:49:21.682Z</time></trkpt><trkpt lat="42.9805684" lon="11.6389926"><ele>424.0</ele><time>2026-05-02T13:49:22.678Z</time></trkpt><trkpt lat="42.9804693" lon="11.6390347"><ele>424.0</ele><time>2026-05-02T13:49:23.671Z</time></trkpt><trkpt lat="42.980385" lon="11.6391073"><ele>424.0</ele><time>2026-05-02T13:49:24.68Z</time></trkpt><trkpt lat="42.9803212" lon="11.639203"><ele>424.0</ele><time>2026-05-02T13:49:25.684Z</time></trkpt><trkpt lat="42.9802734" lon="11.6393284"><ele>424.0</ele><time>2026-05-02T13:49:26.674Z</time></trkpt><trkpt lat="42.9802508" lon="11.6394681"><ele>424.0</ele><time>2026-05-02T13:49:27.68Z</time></trkpt><trkpt lat="42.9802553" lon="11.6396241"><ele>421.5</ele><time>2026-05-02T13:49:28.683Z</time></trkpt><trkpt lat="42.9802744" lon="11.6397904"><ele>419.0</ele><time>2026-05-02T13:49:29.682Z</time></trkpt><trkpt lat="42.980299" lon="11.639968"><ele>416.5</ele><time>2026-05-02T13:49:30.68Z</time></trkpt><trkpt lat="42.9803269" lon="11.640149"><ele>414.0</ele><time>2026-05-02T13:49:31.684Z</time></trkpt><trkpt lat="42.9803486" lon="11.6403268"><ele>412.75</ele><time>2026-05-02T13:49:32.682Z</time></trkpt><trkpt lat="42.9803637" lon="11.6405029"><ele>411.5</ele><time>2026-05-02T13:49:33.683Z</time></trkpt><trkpt lat="42.9803764" lon="11.640668"><ele>410.25</ele><time>2026-05-02T13:49:34.687Z</time></trkpt><trkpt lat="42.9803784" lon="11.6408245"><ele>409.0</ele><time>2026-05-02T13:49:35.685Z</time></trkpt><trkpt lat="42.9803601" lon="11.6409864"><ele>408.0</ele><time>2026-05-02T13:49:36.69Z</time></trkpt><trkpt lat="42.9803229" lon="11.6411553"><ele>407.0</ele><time>2026-05-02T13:49:37.688Z</time></trkpt><trkpt lat="42.9802782" lon="11.6413293"><ele>406.0</ele><time>2026-05-02T13:49:38.69Z</time></trkpt><trkpt lat="42.9802299" lon="11.641511"><ele>405.0</ele><time>2026-05-02T13:49:39.677Z</time></trkpt><trkpt lat="42.9801761" lon="11.6416947"><ele>405.0</ele><time>2026-05-02T13:49:40.687Z</time></trkpt><trkpt lat="42.9801217" lon="11.6418774"><ele>405.0</ele><time>2026-05-02T13:49:41.678Z</time></trkpt><trkpt lat="42.9800714" lon="11.6420489"><ele>405.0</ele><time>2026-05-02T13:49:42.69Z</time></trkpt><trkpt lat="42.9800298" lon="11.6422025"><ele>405.0</ele><time>2026-05-02T13:49:43.689Z</time></trkpt><trkpt lat="42.9799829" lon="11.6423499"><ele>403.5</ele><time>2026-05-02T13:49:44.693Z</time></trkpt><trkpt lat="42.9799247" lon="11.6424916"><ele>402.0</ele><time>2026-05-02T13:49:45.682Z</time></trkpt><trkpt lat="42.9798517" lon="11.6426318"><ele>400.5</ele><time>2026-05-02T13:49:46.682Z</time></trkpt><trkpt lat="42.9797572" lon="11.6427601"><ele>399.0</ele><time>2026-05-02T13:49:47.683Z</time></trkpt><trkpt lat="42.9796537" lon="11.6428844"><ele>397.75</ele><time>2026-05-02T13:49:48.683Z</time></trkpt><trkpt lat="42.9795502" lon="11.6430048"><ele>396.5</ele><time>2026-05-02T13:49:49.687Z</time></trkpt><trkpt lat="42.9794442" lon="11.643124"><ele>395.25</ele><time>2026-05-02T13:49:50.689Z</time></trkpt><trkpt lat="42.9793366" lon="11.6432304"><ele>394.0</ele><time>2026-05-02T13:49:51.679Z</time></trkpt><trkpt lat="42.979231" lon="11.6433159"><ele>394.4</ele><time>2026-05-02T13:49:52.678Z</time></trkpt><trkpt lat="42.9791329" lon="11.6433658"><ele>394.79999999999995</ele><time>2026-05-02T13:49:53.685Z</time></trkpt><trkpt lat="42.9790375" lon="11.6433732"><ele>395.20000000000005</ele><time>2026-05-02T13:49:54.676Z</time></trkpt><trkpt lat="42.9789429" lon="11.6433417"><ele>395.6</ele><time>2026-05-02T13:49:55.691Z</time></trkpt><trkpt lat="42.9788515" lon="11.6432854"><ele>396.0</ele><time>2026-05-02T13:49:56.679Z</time></trkpt><trkpt lat="42.9787514" lon="11.6432113"><ele>396.0</ele><time>2026-05-02T13:49:57.682Z</time></trkpt><trkpt lat="42.9786511" lon="11.643129"><ele>396.0</ele><time>2026-05-02T13:49:58.68Z</time></trkpt><trkpt lat="42.978545" lon="11.6430438"><ele>396.0</ele><time>2026-05-02T13:49:59.694Z</time></trkpt><trkpt lat="42.978432" lon="11.6429597"><ele>396.0</ele><time>2026-05-02T13:50:00.686Z</time></trkpt><trkpt lat="42.9783135" lon="11.6428695"><ele>396.75</ele><time>2026-05-02T13:50:01.678Z</time></trkpt><trkpt lat="42.9781966" lon="11.6427873"><ele>397.5</ele><time>2026-05-02T13:50:02.676Z</time></trkpt><trkpt lat="42.9780754" lon="11.6427066"><ele>398.25</ele><time>2026-05-02T13:50:03.674Z</time></trkpt><trkpt lat="42.9779555" lon="11.6426232"><ele>399.0</ele><time>2026-05-02T13:50:04.677Z</time></trkpt><trkpt lat="42.977832" lon="11.6425461"><ele>399.0</ele><time>2026-05-02T13:50:05.679Z</time></trkpt><trkpt lat="42.9777058" lon="11.6424656"><ele>399.0</ele><time>2026-05-02T13:50:06.69Z</time></trkpt><trkpt lat="42.9775829" lon="11.6423839"><ele>399.0</ele><time>2026-05-02T13:50:07.685Z</time></trkpt><trkpt lat="42.9774616" lon="11.6423034"><ele>399.0</ele><time>2026-05-02T13:50:08.676Z</time></trkpt><trkpt lat="42.9773406" lon="11.6422281"><ele>399.75</ele><time>2026-05-02T13:50:09.677Z</time></trkpt><trkpt lat="42.9772221" lon="11.6421551"><ele>400.5</ele><time>2026-05-02T13:50:10.678Z</time></trkpt><trkpt lat="42.9771052" lon="11.642081"><ele>401.25</ele><time>2026-05-02T13:50:11.681Z</time></trkpt><trkpt lat="42.9769882" lon="11.6420085"><ele>402.0</ele><time>2026-05-02T13:50:12.688Z</time></trkpt><trkpt lat="42.9768768" lon="11.6419337"><ele>402.0</ele><time>2026-05-02T13:50:13.679Z</time></trkpt><trkpt lat="42.976766" lon="11.641857"><ele>402.0</ele><time>2026-05-02T13:50:14.684Z</time></trkpt><trkpt lat="42.9766582" lon="11.641775"><ele>402.0</ele><time>2026-05-02T13:50:15.683Z</time></trkpt><trkpt lat="42.9765549" lon="11.6416824"><ele>402.0</ele><time>2026-05-02T13:50:16.685Z</time></trkpt><trkpt lat="42.9764533" lon="11.6415682"><ele>400.5</ele><time>2026-05-02T13:50:17.683Z</time></trkpt><trkpt lat="42.976357" lon="11.6414468"><ele>399.0</ele><time>2026-05-02T13:50:18.679Z</time></trkpt><trkpt lat="42.9762611" lon="11.6413284"><ele>397.5</ele><time>2026-05-02T13:50:19.684Z</time></trkpt><trkpt lat="42.9761599" lon="11.6412216"><ele>396.0</ele><time>2026-05-02T13:50:20.68Z</time></trkpt><trkpt lat="42.9760539" lon="11.6411314"><ele>398.75</ele><time>2026-05-02T13:50:21.681Z</time></trkpt><trkpt lat="42.97594" lon="11.6410633"><ele>401.5</ele><time>2026-05-02T13:50:22.683Z</time></trkpt><trkpt lat="42.9758198" lon="11.6410197"><ele>404.25</ele><time>2026-05-02T13:50:23.682Z</time></trkpt><trkpt lat="42.9756977" lon="11.6409882"><ele>407.0</ele><time>2026-05-02T13:50:24.682Z</time></trkpt><trkpt lat="42.9755706" lon="11.6409563"><ele>407.0</ele><time>2026-05-02T13:50:25.683Z</time></trkpt><trkpt lat="42.9754439" lon="11.6409116"><ele>407.0</ele><time>2026-05-02T13:50:26.682Z</time></trkpt><trkpt lat="42.9753186" lon="11.640859"><ele>407.0</ele><time>2026-05-02T13:50:27.684Z</time></trkpt><trkpt lat="42.9751995" lon="11.6407847"><ele>407.0</ele><time>2026-05-02T13:50:28.683Z</time></trkpt><trkpt lat="42.9750769" lon="11.6407158"><ele>406.5</ele><time>2026-05-02T13:50:29.676Z</time></trkpt><trkpt lat="42.9749543" lon="11.6406537"><ele>406.0</ele><time>2026-05-02T13:50:30.676Z</time></trkpt><trkpt lat="42.9748321" lon="11.6406055"><ele>405.5</ele><time>2026-05-02T13:50:31.677Z</time></trkpt><trkpt lat="42.9747018" lon="11.640576"><ele>405.0</ele><time>2026-05-02T13:50:32.689Z</time></trkpt><trkpt lat="42.9745693" lon="11.6405664"><ele>405.0</ele><time>2026-05-02T13:50:33.676Z</time></trkpt><trkpt lat="42.9744312" lon="11.6405683"><ele>405.0</ele><time>2026-05-02T13:50:34.69Z</time></trkpt><trkpt lat="42.9742927" lon="11.640569"><ele>405.0</ele><time>2026-05-02T13:50:35.672Z</time></trkpt><trkpt lat="42.9741581" lon="11.6405653"><ele>405.0</ele><time>2026-05-02T13:50:36.668Z</time></trkpt><trkpt lat="42.97402" lon="11.6405606"><ele>405.75</ele><time>2026-05-02T13:50:37.681Z</time></trkpt><trkpt lat="42.973887" lon="11.640558"><ele>406.5</ele><time>2026-05-02T13:50:38.677Z</time></trkpt><trkpt lat="42.9737537" lon="11.6405595"><ele>407.25</ele><time>2026-05-02T13:50:39.673Z</time></trkpt><trkpt lat="42.9736218" lon="11.6405539"><ele>408.0</ele><time>2026-05-02T13:50:40.675Z</time></trkpt><trkpt lat="42.9734975" lon="11.6405475"><ele>408.0</ele><time>2026-05-02T13:50:41.668Z</time></trkpt><trkpt lat="42.9733791" lon="11.6405323"><ele>408.0</ele><time>2026-05-02T13:50:42.677Z</time></trkpt><trkpt lat="42.973259" lon="11.6405156"><ele>408.0</ele><time>2026-05-02T13:50:43.671Z</time></trkpt><trkpt lat="42.9731307" lon="11.6404862"><ele>408.0</ele><time>2026-05-02T13:50:44.685Z</time></trkpt><trkpt lat="42.9729979" lon="11.6404522"><ele>408.5</ele><time>2026-05-02T13:50:45.678Z</time></trkpt><trkpt lat="42.9728536" lon="11.640413"><ele>409.0</ele><time>2026-05-02T13:50:46.68Z</time></trkpt><trkpt lat="42.9727153" lon="11.640379"><ele>409.5</ele><time>2026-05-02T13:50:47.676Z</time></trkpt><trkpt lat="42.9725964" lon="11.6403428"><ele>410.0</ele><time>2026-05-02T13:50:48.669Z</time></trkpt><trkpt lat="42.9725029" lon="11.6403134"><ele>412.2</ele><time>2026-05-02T13:50:49.674Z</time></trkpt><trkpt lat="42.9724341" lon="11.64029"><ele>414.4</ele><time>2026-05-02T13:50:50.671Z</time></trkpt><trkpt lat="42.9723645" lon="11.6402321"><ele>416.6</ele><time>2026-05-02T13:50:52.672Z</time></trkpt><trkpt lat="42.9723795" lon="11.640129"><ele>418.8</ele><time>2026-05-02T13:50:54.673Z</time></trkpt><trkpt lat="42.9724729" lon="11.6400064"><ele>421.0</ele><time>2026-05-02T13:50:56.69Z</time></trkpt><trkpt lat="42.9725539" lon="11.6399417"><ele>421.75</ele><time>2026-05-02T13:50:57.676Z</time></trkpt><trkpt lat="42.9726601" lon="11.6398883"><ele>422.5</ele><time>2026-05-02T13:50:58.684Z</time></trkpt><trkpt lat="42.9727829" lon="11.6398413"><ele>423.25</ele><time>2026-05-02T13:50:59.686Z</time></trkpt><trkpt lat="42.9729125" lon="11.6397966"><ele>424.0</ele><time>2026-05-02T13:51:00.68Z</time></trkpt><trkpt lat="42.9730454" lon="11.6397706"><ele>424.0</ele><time>2026-05-02T13:51:01.685Z</time></trkpt><trkpt lat="42.9731797" lon="11.6397749"><ele>424.0</ele><time>2026-05-02T13:51:02.676Z</time></trkpt><trkpt lat="42.9733145" lon="11.6397807"><ele>424.0</ele><time>2026-05-02T13:51:03.683Z</time></trkpt><trkpt lat="42.9734525" lon="11.6397876"><ele>424.0</ele><time>2026-05-02T13:51:04.679Z</time></trkpt><trkpt lat="42.9735966" lon="11.6397919"><ele>424.5</ele><time>2026-05-02T13:51:05.668Z</time></trkpt><trkpt lat="42.9737415" lon="11.6398002"><ele>425.0</ele><time>2026-05-02T13:51:06.678Z</time></trkpt><trkpt lat="42.9738787" lon="11.6398088"><ele>425.5</ele><time>2026-05-02T13:51:07.676Z</time></trkpt><trkpt lat="42.9740128" lon="11.6398157"><ele>426.0</ele><time>2026-05-02T13:51:08.681Z</time></trkpt><trkpt lat="42.9741464" lon="11.6398061"><ele>425.8</ele><time>2026-05-02T13:51:09.684Z</time></trkpt><trkpt lat="42.9742743" lon="11.6397843"><ele>425.6</ele><time>2026-05-02T13:51:10.679Z</time></trkpt><trkpt lat="42.97439" lon="11.639765"><ele>425.4</ele><time>2026-05-02T13:51:11.665Z</time></trkpt><trkpt lat="42.9744811" lon="11.6397473"><ele>425.2</ele><time>2026-05-02T13:51:12.692Z</time></trkpt><trkpt lat="42.9745453" lon="11.639707"><ele>425.0</ele><time>2026-05-02T13:51:13.678Z</time></trkpt><trkpt lat="42.9745794" lon="11.6395604"><ele>424.99999999999994</ele><time>2026-05-02T13:51:15.674Z</time></trkpt><trkpt lat="42.9745609" lon="11.6394745"><ele>425.0</ele><time>2026-05-02T13:51:16.67Z</time></trkpt><trkpt lat="42.9745395" lon="11.6393747"><ele>425.0</ele><time>2026-05-02T13:51:17.681Z</time></trkpt><trkpt lat="42.9745009" lon="11.6392712"><ele>425.0</ele><time>2026-05-02T13:51:18.685Z</time></trkpt><trkpt lat="42.9744421" lon="11.6391985"><ele>424.99999999999994</ele><time>2026-05-02T13:51:19.68Z</time></trkpt><trkpt lat="42.9743661" lon="11.6391646"><ele>425.0</ele><time>2026-05-02T13:51:20.673Z</time></trkpt><trkpt lat="42.9742797" lon="11.6391593"><ele>429.75</ele><time>2026-05-02T13:51:21.666Z</time></trkpt><trkpt lat="42.9741866" lon="11.6391579"><ele>434.5</ele><time>2026-05-02T13:51:22.673Z</time></trkpt><trkpt lat="42.9740681" lon="11.6391338"><ele>439.25</ele><time>2026-05-02T13:51:23.675Z</time></trkpt><trkpt lat="42.9739451" lon="11.6390697"><ele>444.0</ele><time>2026-05-02T13:51:24.679Z</time></trkpt><trkpt lat="42.9738195" lon="11.6389811"><ele>444.0</ele><time>2026-05-02T13:51:25.678Z</time></trkpt><trkpt lat="42.9737025" lon="11.6388753"><ele>444.0</ele><time>2026-05-02T13:51:26.666Z</time></trkpt><trkpt lat="42.9735849" lon="11.6387737"><ele>444.0</ele><time>2026-05-02T13:51:27.667Z</time></trkpt><trkpt lat="42.9734504" lon="11.6386928"><ele>444.0</ele><time>2026-05-02T13:51:28.673Z</time></trkpt><trkpt lat="42.9732915" lon="11.6386215"><ele>450.33333333333337</ele><time>2026-05-02T13:51:29.675Z</time></trkpt><trkpt lat="42.973123" lon="11.6385629"><ele>456.6666666666667</ele><time>2026-05-02T13:51:30.671Z</time></trkpt><trkpt lat="42.97298" lon="11.6385209"><ele>463.0</ele><time>2026-05-02T13:51:31.676Z</time></trkpt><trkpt lat="42.9728531" lon="11.6384617"><ele>463.0</ele><time>2026-05-02T13:51:32.672Z</time></trkpt><trkpt lat="42.972721" lon="11.6383705"><ele>463.0</ele><time>2026-05-02T13:51:33.672Z</time></trkpt><trkpt lat="42.9725832" lon="11.6382544"><ele>463.0</ele><time>2026-05-02T13:51:34.662Z</time></trkpt><trkpt lat="42.9724508" lon="11.6381372"><ele>461.0</ele><time>2026-05-02T13:51:35.673Z</time></trkpt><trkpt lat="42.9723254" lon="11.6380047"><ele>459.0</ele><time>2026-05-02T13:51:36.669Z</time></trkpt><trkpt lat="42.9721908" lon="11.6378672"><ele>457.0</ele><time>2026-05-02T13:51:37.665Z</time></trkpt><trkpt lat="42.972059" lon="11.6377283"><ele>465.33333333333337</ele><time>2026-05-02T13:51:38.674Z</time></trkpt><trkpt lat="42.9719272" lon="11.6375824"><ele>473.66666666666663</ele><time>2026-05-02T13:51:39.663Z</time></trkpt><trkpt lat="42.9718081" lon="11.637437"><ele>482.0</ele><time>2026-05-02T13:51:40.672Z</time></trkpt><trkpt lat="42.9717112" lon="11.6373057"><ele>482.40000000000003</ele><time>2026-05-02T13:51:41.67Z</time></trkpt><trkpt lat="42.971649" lon="11.6371915"><ele>482.80000000000007</ele><time>2026-05-02T13:51:42.68Z</time></trkpt><trkpt lat="42.9716121" lon="11.637057"><ele>483.2</ele><time>2026-05-02T13:51:43.68Z</time></trkpt><trkpt lat="42.9715856" lon="11.6369139"><ele>483.6</ele><time>2026-05-02T13:51:44.666Z</time></trkpt><trkpt lat="42.9715601" lon="11.6367619"><ele>484.0</ele><time>2026-05-02T13:51:45.684Z</time></trkpt><trkpt lat="42.9715306" lon="11.6366042"><ele>484.0</ele><time>2026-05-02T13:51:46.676Z</time></trkpt><trkpt lat="42.9714773" lon="11.6364601"><ele>484.0</ele><time>2026-05-02T13:51:47.663Z</time></trkpt><trkpt lat="42.9714182" lon="11.6363263"><ele>484.0</ele><time>2026-05-02T13:51:48.681Z</time></trkpt><trkpt lat="42.9713268" lon="11.6361995"><ele>484.0</ele><time>2026-05-02T13:51:49.678Z</time></trkpt><trkpt lat="42.9712219" lon="11.6360969"><ele>485.33333333333337</ele><time>2026-05-02T13:51:50.672Z</time></trkpt><trkpt lat="42.9711413" lon="11.6360053"><ele>486.6666666666667</ele><time>2026-05-02T13:51:51.668Z</time></trkpt><trkpt lat="42.9710939" lon="11.6359158"><ele>488.0</ele><time>2026-05-02T13:51:52.674Z</time></trkpt><trkpt lat="42.971077" lon="11.6358"><ele>489.33333333333337</ele><time>2026-05-02T13:51:53.677Z</time></trkpt><trkpt lat="42.9710968" lon="11.6356856"><ele>490.6666666666667</ele><time>2026-05-02T13:51:54.672Z</time></trkpt><trkpt lat="42.9711315" lon="11.6355726"><ele>492.0</ele><time>2026-05-02T13:51:55.676Z</time></trkpt><trkpt lat="42.9711688" lon="11.6354742"><ele>492.0</ele><time>2026-05-02T13:51:56.677Z</time></trkpt><trkpt lat="42.9711672" lon="11.6353184"><ele>492.0</ele><time>2026-05-02T13:51:57.669Z</time></trkpt><trkpt lat="42.9711572" lon="11.6351157"><ele>492.0</ele><time>2026-05-02T13:51:58.678Z</time></trkpt><trkpt lat="42.9711493" lon="11.6348972"><ele>492.0</ele><time>2026-05-02T13:51:59.681Z</time></trkpt><trkpt lat="42.9711402" lon="11.6346939"><ele>494.25</ele><time>2026-05-02T13:52:00.682Z</time></trkpt><trkpt lat="42.9711202" lon="11.6345267"><ele>496.5</ele><time>2026-05-02T13:52:01.673Z</time></trkpt><trkpt lat="42.9710644" lon="11.6343682"><ele>498.75</ele><time>2026-05-02T13:52:02.686Z</time></trkpt><trkpt lat="42.9709861" lon="11.6342134"><ele>501.0</ele><time>2026-05-02T13:52:03.682Z</time></trkpt><trkpt lat="42.9709022" lon="11.634051"><ele>501.0</ele><time>2026-05-02T13:52:04.666Z</time></trkpt><trkpt lat="42.9708354" lon="11.6338952"><ele>501.0</ele><time>2026-05-02T13:52:05.68Z</time></trkpt><trkpt lat="42.9707832" lon="11.6337571"><ele>501.0</ele><time>2026-05-02T13:52:06.682Z</time></trkpt><trkpt lat="42.9707389" lon="11.6336328"><ele>501.0</ele><time>2026-05-02T13:52:07.68Z</time></trkpt><trkpt lat="42.9707119" lon="11.6334771"><ele>501.0</ele><time>2026-05-02T13:52:08.684Z</time></trkpt><trkpt lat="42.970702" lon="11.6332955"><ele>501.0</ele><time>2026-05-02T13:52:09.666Z</time></trkpt><trkpt lat="42.9706959" lon="11.6331166"><ele>501.0</ele><time>2026-05-02T13:52:10.685Z</time></trkpt><trkpt lat="42.9706894" lon="11.6329665"><ele>501.0</ele><time>2026-05-02T13:52:11.678Z</time></trkpt><trkpt lat="42.9706796" lon="11.6328362"><ele>502.5</ele><time>2026-05-02T13:52:12.671Z</time></trkpt><trkpt lat="42.9706397" lon="11.6327019"><ele>504.0</ele><time>2026-05-02T13:52:13.669Z</time></trkpt><trkpt lat="42.9705604" lon="11.6325479"><ele>505.5</ele><time>2026-05-02T13:52:14.676Z</time></trkpt><trkpt lat="42.9704629" lon="11.6323791"><ele>507.0</ele><time>2026-05-02T13:52:15.679Z</time></trkpt><trkpt lat="42.9703851" lon="11.6322245"><ele>507.0</ele><time>2026-05-02T13:52:16.696Z</time></trkpt><trkpt lat="42.9703392" lon="11.6320585"><ele>507.0</ele><time>2026-05-02T13:52:17.672Z</time></trkpt><trkpt lat="42.9703091" lon="11.6318627"><ele>507.0</ele><time>2026-05-02T13:52:18.684Z</time></trkpt><trkpt lat="42.97028" lon="11.6316666"><ele>507.0</ele><time>2026-05-02T13:52:19.667Z</time></trkpt><trkpt lat="42.9702492" lon="11.6314815"><ele>508.66666666666663</ele><time>2026-05-02T13:52:20.68Z</time></trkpt><trkpt lat="42.9702365" lon="11.6312848"><ele>510.3333333333333</ele><time>2026-05-02T13:52:21.676Z</time></trkpt><trkpt lat="42.9702405" lon="11.6310461"><ele>512.0</ele><time>2026-05-02T13:52:22.679Z</time></trkpt><trkpt lat="42.970246" lon="11.6307718"><ele>513.0</ele><time>2026-05-02T13:52:23.684Z</time></trkpt><trkpt lat="42.9702505" lon="11.6305195"><ele>514.0</ele><time>2026-05-02T13:52:24.678Z</time></trkpt><trkpt lat="42.9702493" lon="11.6303205"><ele>515.0</ele><time>2026-05-02T13:52:25.674Z</time></trkpt><trkpt lat="42.9702495" lon="11.6301435"><ele>516.8</ele><time>2026-05-02T13:52:26.665Z</time></trkpt><trkpt lat="42.9702525" lon="11.6300009"><ele>518.6</ele><time>2026-05-02T13:52:27.673Z</time></trkpt><trkpt lat="42.9702564" lon="11.6299071"><ele>520.4</ele><time>2026-05-02T13:52:28.677Z</time></trkpt><trkpt lat="42.970238" lon="11.6297522"><ele>522.2</ele><time>2026-05-02T13:52:30.679Z</time></trkpt><trkpt lat="42.9701916" lon="11.6295959"><ele>524.0</ele><time>2026-05-02T13:52:32.682Z</time></trkpt><trkpt lat="42.9701662" lon="11.6294324"><ele>525.1666666666666</ele><time>2026-05-02T13:52:34.673Z</time></trkpt><trkpt lat="42.9701282" lon="11.6292786"><ele>526.3333333333333</ele><time>2026-05-02T13:52:36.674Z</time></trkpt><trkpt lat="42.9700976" lon="11.6291991"><ele>527.5</ele><time>2026-05-02T13:52:37.679Z</time></trkpt><trkpt lat="42.9700696" lon="11.6291197"><ele>528.6666666666666</ele><time>2026-05-02T13:52:38.681Z</time></trkpt><trkpt lat="42.9700269" lon="11.6290132"><ele>529.8333333333334</ele><time>2026-05-02T13:52:40.679Z</time></trkpt><trkpt lat="42.9699864" lon="11.6291069"><ele>531.0</ele><time>2026-05-02T13:52:43.667Z</time></trkpt><trkpt lat="42.9700616" lon="11.6292058"><ele>531.0</ele><time>2026-05-02T13:52:45.677Z</time></trkpt><trkpt lat="42.9701061" lon="11.6292996"><ele>531.0</ele><time>2026-05-02T13:52:46.659Z</time></trkpt><trkpt lat="42.9701355" lon="11.6294239"><ele>531.0</ele><time>2026-05-02T13:52:47.664Z</time></trkpt><trkpt lat="42.9701535" lon="11.6295543"><ele>531.0</ele><time>2026-05-02T13:52:48.68Z</time></trkpt><trkpt lat="42.9701679" lon="11.6296746"><ele>531.0</ele><time>2026-05-02T13:52:49.678Z</time></trkpt><trkpt lat="42.9701871" lon="11.6297782"><ele>531.0</ele><time>2026-05-02T13:52:50.671Z</time></trkpt><trkpt lat="42.9702268" lon="11.6298599"><ele>529.6</ele><time>2026-05-02T13:52:51.676Z</time></trkpt><trkpt lat="42.970285" lon="11.6299172"><ele>528.2</ele><time>2026-05-02T13:52:52.674Z</time></trkpt><trkpt lat="42.9703561" lon="11.6299647"><ele>526.8</ele><time>2026-05-02T13:52:53.667Z</time></trkpt><trkpt lat="42.9704565" lon="11.6299982"><ele>525.4</ele><time>2026-05-02T13:52:54.664Z</time></trkpt><trkpt lat="42.9705718" lon="11.630017"><ele>524.0</ele><time>2026-05-02T13:52:55.672Z</time></trkpt><trkpt lat="42.9706806" lon="11.6300181"><ele>524.0</ele><time>2026-05-02T13:52:56.677Z</time></trkpt><trkpt lat="42.9707756" lon="11.6299687"><ele>524.0</ele><time>2026-05-02T13:52:57.675Z</time></trkpt><trkpt lat="42.9708284" lon="11.6299005"><ele>524.0</ele><time>2026-05-02T13:52:58.677Z</time></trkpt><trkpt lat="42.9708628" lon="11.6298208"><ele>524.0</ele><time>2026-05-02T13:52:59.671Z</time></trkpt><trkpt lat="42.9708795" lon="11.6297008"><ele>524.0</ele><time>2026-05-02T13:53:00.681Z</time></trkpt><trkpt lat="42.9708775" lon="11.6295603"><ele>524.0</ele><time>2026-05-02T13:53:01.671Z</time></trkpt><trkpt lat="42.9708737" lon="11.6293994"><ele>532.2</ele><time>2026-05-02T13:53:02.67Z</time></trkpt><trkpt lat="42.9708798" lon="11.6292395"><ele>540.4</ele><time>2026-05-02T13:53:03.678Z</time></trkpt><trkpt lat="42.9708922" lon="11.6291123"><ele>548.6</ele><time>2026-05-02T13:53:04.671Z</time></trkpt><trkpt lat="42.9709197" lon="11.6290045"><ele>556.8</ele><time>2026-05-02T13:53:05.682Z</time></trkpt><trkpt lat="42.9709439" lon="11.6288815"><ele>565.0</ele><time>2026-05-02T13:53:06.664Z</time></trkpt><trkpt lat="42.9709608" lon="11.6287376"><ele>567.0</ele><time>2026-05-02T13:53:07.678Z</time></trkpt><trkpt lat="42.9709642" lon="11.6285393"><ele>569.0</ele><time>2026-05-02T13:53:08.666Z</time></trkpt><trkpt lat="42.9709602" lon="11.6283154"><ele>571.0</ele><time>2026-05-02T13:53:09.678Z</time></trkpt><trkpt lat="42.970943" lon="11.6281027"><ele>571.0</ele><time>2026-05-02T13:53:10.674Z</time></trkpt><trkpt lat="42.9709051" lon="11.6279105"><ele>571.0</ele><time>2026-05-02T13:53:11.676Z</time></trkpt><trkpt lat="42.9708441" lon="11.6277207"><ele>571.0</ele><time>2026-05-02T13:53:12.676Z</time></trkpt><trkpt lat="42.9707771" lon="11.627536"><ele>571.0</ele><time>2026-05-02T13:53:13.672Z</time></trkpt><trkpt lat="42.9707366" lon="11.6273468"><ele>565.0</ele><time>2026-05-02T13:53:14.679Z</time></trkpt><trkpt lat="42.9707142" lon="11.6271436"><ele>559.0</ele><time>2026-05-02T13:53:15.681Z</time></trkpt><trkpt lat="42.9707069" lon="11.6269314"><ele>553.0</ele><time>2026-05-02T13:53:16.681Z</time></trkpt><trkpt lat="42.9707118" lon="11.6267189"><ele>553.0</ele><time>2026-05-02T13:53:17.676Z</time></trkpt><trkpt lat="42.9707234" lon="11.6265158"><ele>553.0</ele><time>2026-05-02T13:53:18.678Z</time></trkpt><trkpt lat="42.9707211" lon="11.6263278"><ele>553.0</ele><time>2026-05-02T13:53:19.672Z</time></trkpt><trkpt lat="42.9707032" lon="11.6261523"><ele>553.0</ele><time>2026-05-02T13:53:20.678Z</time></trkpt><trkpt lat="42.9706733" lon="11.6260038"><ele>556.6</ele><time>2026-05-02T13:53:21.675Z</time></trkpt><trkpt lat="42.970624" lon="11.6258737"><ele>560.1999999999999</ele><time>2026-05-02T13:53:22.664Z</time></trkpt><trkpt lat="42.9705555" lon="11.6257553"><ele>563.8</ele><time>2026-05-02T13:53:23.674Z</time></trkpt><trkpt lat="42.9704914" lon="11.6256435"><ele>567.4</ele><time>2026-05-02T13:53:24.675Z</time></trkpt><trkpt lat="42.9704442" lon="11.6255261"><ele>571.0</ele><time>2026-05-02T13:53:25.674Z</time></trkpt><trkpt lat="42.9704149" lon="11.625386"><ele>572.5</ele><time>2026-05-02T13:53:26.678Z</time></trkpt><trkpt lat="42.9704042" lon="11.6252328"><ele>574.0</ele><time>2026-05-02T13:53:27.671Z</time></trkpt><trkpt lat="42.9703884" lon="11.6250664"><ele>575.5</ele><time>2026-05-02T13:53:28.687Z</time></trkpt><trkpt lat="42.9703399" lon="11.6248654"><ele>577.0</ele><time>2026-05-02T13:53:29.684Z</time></trkpt><trkpt lat="42.9702634" lon="11.6246525"><ele>577.3333333333334</ele><time>2026-05-02T13:53:30.678Z</time></trkpt><trkpt lat="42.970177" lon="11.6244609"><ele>577.6666666666666</ele><time>2026-05-02T13:53:31.678Z</time></trkpt><trkpt lat="42.9700835" lon="11.6242929"><ele>578.0</ele><time>2026-05-02T13:53:32.669Z</time></trkpt><trkpt lat="42.9699996" lon="11.6241241"><ele>575.3333333333333</ele><time>2026-05-02T13:53:33.678Z</time></trkpt><trkpt lat="42.9699375" lon="11.6239585"><ele>572.6666666666666</ele><time>2026-05-02T13:53:34.676Z</time></trkpt><trkpt lat="42.9698919" lon="11.6237475"><ele>570.0</ele><time>2026-05-02T13:53:35.676Z</time></trkpt><trkpt lat="42.9698621" lon="11.6235026"><ele>570.0</ele><time>2026-05-02T13:53:36.679Z</time></trkpt><trkpt lat="42.9698386" lon="11.623265"><ele>570.0</ele><time>2026-05-02T13:53:37.677Z</time></trkpt><trkpt lat="42.9698232" lon="11.623052"><ele>570.0</ele><time>2026-05-02T13:53:38.671Z</time></trkpt><trkpt lat="42.9698072" lon="11.6228573"><ele>571.8</ele><time>2026-05-02T13:53:39.675Z</time></trkpt><trkpt lat="42.9697916" lon="11.6227002"><ele>573.6</ele><time>2026-05-02T13:53:40.683Z</time></trkpt><trkpt lat="42.9697703" lon="11.6225696"><ele>575.4</ele><time>2026-05-02T13:53:41.673Z</time></trkpt><trkpt lat="42.9697473" lon="11.6224463"><ele>577.2</ele><time>2026-05-02T13:53:42.678Z</time></trkpt><trkpt lat="42.9697105" lon="11.6223498"><ele>579.0</ele><time>2026-05-02T13:53:43.669Z</time></trkpt><trkpt lat="42.9696434" lon="11.6222751"><ele>579.0</ele><time>2026-05-02T13:53:44.677Z</time></trkpt><trkpt lat="42.9695265" lon="11.6222525"><ele>579.0</ele><time>2026-05-02T13:53:45.667Z</time></trkpt><trkpt lat="42.9694125" lon="11.6222557"><ele>579.0</ele><time>2026-05-02T13:53:46.68Z</time></trkpt><trkpt lat="42.9693072" lon="11.622285"><ele>579.0</ele><time>2026-05-02T13:53:47.669Z</time></trkpt><trkpt lat="42.9692154" lon="11.6222815"><ele>579.0</ele><time>2026-05-02T13:53:48.682Z</time></trkpt><trkpt lat="42.9691363" lon="11.6222216"><ele>578.8</ele><time>2026-05-02T13:53:49.668Z</time></trkpt><trkpt lat="42.9691001" lon="11.6221158"><ele>578.5999999999999</ele><time>2026-05-02T13:53:50.669Z</time></trkpt><trkpt lat="42.9691079" lon="11.6220001"><ele>578.4</ele><time>2026-05-02T13:53:51.673Z</time></trkpt><trkpt lat="42.9691462" lon="11.6218604"><ele>578.1999999999999</ele><time>2026-05-02T13:53:52.686Z</time></trkpt><trkpt lat="42.9692077" lon="11.6217082"><ele>578.0</ele><time>2026-05-02T13:53:53.673Z</time></trkpt><trkpt lat="42.9692558" lon="11.6215813"><ele>580.6</ele><time>2026-05-02T13:53:54.68Z</time></trkpt><trkpt lat="42.969285" lon="11.6214784"><ele>583.1999999999999</ele><time>2026-05-02T13:53:55.677Z</time></trkpt><trkpt lat="42.9692521" lon="11.6213872"><ele>585.8</ele><time>2026-05-02T13:53:56.676Z</time></trkpt><trkpt lat="42.9691747" lon="11.6212948"><ele>588.4</ele><time>2026-05-02T13:53:57.67Z</time></trkpt><trkpt lat="42.9691045" lon="11.6211702"><ele>591.0</ele><time>2026-05-02T13:53:58.685Z</time></trkpt><trkpt lat="42.969045" lon="11.6210098"><ele>594.5</ele><time>2026-05-02T13:53:59.675Z</time></trkpt><trkpt lat="42.9689932" lon="11.6208457"><ele>598.0</ele><time>2026-05-02T13:54:00.673Z</time></trkpt><trkpt lat="42.9689601" lon="11.6206809"><ele>601.5</ele><time>2026-05-02T13:54:01.679Z</time></trkpt><trkpt lat="42.9689383" lon="11.6205392"><ele>605.0</ele><time>2026-05-02T13:54:02.676Z</time></trkpt><trkpt lat="42.9689564" lon="11.6204117"><ele>608.5</ele><time>2026-05-02T13:54:03.663Z</time></trkpt><trkpt lat="42.9690314" lon="11.6202945"><ele>612.0</ele><time>2026-05-02T13:54:04.67Z</time></trkpt><trkpt lat="42.9691286" lon="11.6201888"><ele>615.5</ele><time>2026-05-02T13:54:05.677Z</time></trkpt><trkpt lat="42.9692481" lon="11.6200604"><ele>619.0</ele><time>2026-05-02T13:54:06.678Z</time></trkpt><trkpt lat="42.9693808" lon="11.6199176"><ele>619.4</ele><time>2026-05-02T13:54:07.684Z</time></trkpt><trkpt lat="42.9694914" lon="11.619788"><ele>619.8</ele><time>2026-05-02T13:54:08.676Z</time></trkpt><trkpt lat="42.9695628" lon="11.619691"><ele>620.2</ele><time>2026-05-02T13:54:09.674Z</time></trkpt><trkpt lat="42.9696065" lon="11.6196063"><ele>620.6</ele><time>2026-05-02T13:54:10.67Z</time></trkpt><trkpt lat="42.9696086" lon="11.6194991"><ele>621.0</ele><time>2026-05-02T13:54:11.677Z</time></trkpt><trkpt lat="42.9695672" lon="11.6193761"><ele>624.0</ele><time>2026-05-02T13:54:12.671Z</time></trkpt><trkpt lat="42.9695129" lon="11.6192202"><ele>627.0</ele><time>2026-05-02T13:54:13.674Z</time></trkpt><trkpt lat="42.969448" lon="11.6190427"><ele>630.0</ele><time>2026-05-02T13:54:14.667Z</time></trkpt><trkpt lat="42.9693749" lon="11.6188565"><ele>633.0</ele><time>2026-05-02T13:54:15.67Z</time></trkpt><trkpt lat="42.9693045" lon="11.618671"><ele>635.75</ele><time>2026-05-02T13:54:16.672Z</time></trkpt><trkpt lat="42.9692407" lon="11.6185015"><ele>638.5</ele><time>2026-05-02T13:54:17.669Z</time></trkpt><trkpt lat="42.9691602" lon="11.6183489"><ele>641.25</ele><time>2026-05-02T13:54:18.668Z</time></trkpt><trkpt lat="42.9690605" lon="11.6182134"><ele>644.0</ele><time>2026-05-02T13:54:19.667Z</time></trkpt><trkpt lat="42.968929" lon="11.6180809"><ele>644.0</ele><time>2026-05-02T13:54:20.671Z</time></trkpt><trkpt lat="42.9687851" lon="11.6179664"><ele>644.0</ele><time>2026-05-02T13:54:21.677Z</time></trkpt><trkpt lat="42.9686408" lon="11.6178608"><ele>644.0</ele><time>2026-05-02T13:54:22.664Z</time></trkpt><trkpt lat="42.9685056" lon="11.6177641"><ele>648.0</ele><time>2026-05-02T13:54:23.666Z</time></trkpt><trkpt lat="42.9683827" lon="11.617675"><ele>652.0</ele><time>2026-05-02T13:54:24.664Z</time></trkpt><trkpt lat="42.9682696" lon="11.617588"><ele>656.0</ele><time>2026-05-02T13:54:25.67Z</time></trkpt><trkpt lat="42.9681636" lon="11.6174936"><ele>660.0</ele><time>2026-05-02T13:54:26.664Z</time></trkpt><trkpt lat="42.9680769" lon="11.6173682"><ele>660.0</ele><time>2026-05-02T13:54:27.672Z</time></trkpt><trkpt lat="42.9680025" lon="11.6171984"><ele>660.0</ele><time>2026-05-02T13:54:28.658Z</time></trkpt><trkpt lat="42.9679328" lon="11.6170145"><ele>660.0</ele><time>2026-05-02T13:54:29.678Z</time></trkpt><trkpt lat="42.9678849" lon="11.6168605"><ele>660.0</ele><time>2026-05-02T13:54:30.67Z</time></trkpt><trkpt lat="42.9678675" lon="11.6167559"><ele>661.2</ele><time>2026-05-02T13:54:31.658Z</time></trkpt><trkpt lat="42.967878" lon="11.6166642"><ele>662.4</ele><time>2026-05-02T13:54:34.665Z</time></trkpt><trkpt lat="42.967803" lon="11.6165897"><ele>663.5999999999999</ele><time>2026-05-02T13:54:37.67Z</time></trkpt><trkpt lat="42.967717" lon="11.6165284"><ele>664.8</ele><time>2026-05-02T13:54:39.683Z</time></trkpt><trkpt lat="42.9677248" lon="11.6163685"><ele>666.0</ele><time>2026-05-02T13:54:41.674Z</time></trkpt><trkpt lat="42.9677461" lon="11.6162527"><ele>667.1999999999999</ele><time>2026-05-02T13:54:42.669Z</time></trkpt><trkpt lat="42.9677617" lon="11.616116"><ele>668.4</ele><time>2026-05-02T13:54:43.673Z</time></trkpt><trkpt lat="42.9677502" lon="11.6159607"><ele>669.6</ele><time>2026-05-02T13:54:44.668Z</time></trkpt><trkpt lat="42.9677253" lon="11.6158142"><ele>670.8</ele><time>2026-05-02T13:54:45.673Z</time></trkpt><trkpt lat="42.9676869" lon="11.6156802"><ele>672.0</ele><time>2026-05-02T13:54:46.68Z</time></trkpt><trkpt lat="42.9676627" lon="11.6155077"><ele>673.6666666666666</ele><time>2026-05-02T13:54:47.681Z</time></trkpt><trkpt lat="42.9676536" lon="11.6152762"><ele>675.3333333333333</ele><time>2026-05-02T13:54:48.671Z</time></trkpt><trkpt lat="42.9676544" lon="11.615026"><ele>677.0</ele><time>2026-05-02T13:54:49.669Z</time></trkpt><trkpt lat="42.9676878" lon="11.6147804"><ele>677.0</ele><time>2026-05-02T13:54:50.672Z</time></trkpt><trkpt lat="42.9677616" lon="11.6145483"><ele>677.0</ele><time>2026-05-02T13:54:51.669Z</time></trkpt><trkpt lat="42.9678845" lon="11.6143587"><ele>677.0</ele><time>2026-05-02T13:54:52.672Z</time></trkpt><trkpt lat="42.9680399" lon="11.6142212"><ele>676.6666666666666</ele><time>2026-05-02T13:54:53.679Z</time></trkpt><trkpt lat="42.9682091" lon="11.6141149"><ele>676.3333333333334</ele><time>2026-05-02T13:54:54.673Z</time></trkpt><trkpt lat="42.9683502" lon="11.6140184"><ele>676.0</ele><time>2026-05-02T13:54:55.666Z</time></trkpt><trkpt lat="42.9684404" lon="11.6138806"><ele>676.0</ele><time>2026-05-02T13:54:56.673Z</time></trkpt><trkpt lat="42.968479" lon="11.6137147"><ele>676.0</ele><time>2026-05-02T13:54:57.669Z</time></trkpt><trkpt lat="42.9684897" lon="11.6135376"><ele>676.0</ele><time>2026-05-02T13:54:58.679Z</time></trkpt><trkpt lat="42.968484" lon="11.6133268"><ele>676.0</ele><time>2026-05-02T13:54:59.682Z</time></trkpt><trkpt lat="42.9684911" lon="11.6130909"><ele>673.6666666666667</ele><time>2026-05-02T13:55:00.679Z</time></trkpt><trkpt lat="42.9685066" lon="11.612838"><ele>671.3333333333334</ele><time>2026-05-02T13:55:01.68Z</time></trkpt><trkpt lat="42.9685222" lon="11.6126034"><ele>669.0</ele><time>2026-05-02T13:55:02.669Z</time></trkpt><trkpt lat="42.9685489" lon="11.6123676"><ele>668.3333333333334</ele><time>2026-05-02T13:55:03.669Z</time></trkpt><trkpt lat="42.9685778" lon="11.6121249"><ele>667.6666666666667</ele><time>2026-05-02T13:55:04.68Z</time></trkpt><trkpt lat="42.9686086" lon="11.6118893"><ele>667.0</ele><time>2026-05-02T13:55:05.68Z</time></trkpt><trkpt lat="42.9686396" lon="11.6116524"><ele>667.0</ele><time>2026-05-02T13:55:06.672Z</time></trkpt><trkpt lat="42.9686664" lon="11.6114077"><ele>667.0</ele><time>2026-05-02T13:55:07.679Z</time></trkpt><trkpt lat="42.9686984" lon="11.6111598"><ele>667.0</ele><time>2026-05-02T13:55:08.7Z</time></trkpt><trkpt lat="42.9687284" lon="11.6109235"><ele>668.3333333333334</ele><time>2026-05-02T13:55:09.683Z</time></trkpt><trkpt lat="42.9687636" lon="11.6107032"><ele>669.6666666666666</ele><time>2026-05-02T13:55:10.675Z</time></trkpt><trkpt lat="42.9687978" lon="11.6104862"><ele>671.0</ele><time>2026-05-02T13:55:11.685Z</time></trkpt><trkpt lat="42.9688317" lon="11.6102669"><ele>673.0</ele><time>2026-05-02T13:55:12.688Z</time></trkpt><trkpt lat="42.968861" lon="11.6100479"><ele>675.0</ele><time>2026-05-02T13:55:13.679Z</time></trkpt><trkpt lat="42.9688878" lon="11.6098312"><ele>677.0</ele><time>2026-05-02T13:55:14.683Z</time></trkpt><trkpt lat="42.9689077" lon="11.6096156"><ele>676.0</ele><time>2026-05-02T13:55:15.673Z</time></trkpt><trkpt lat="42.9689199" lon="11.6094028"><ele>675.0</ele><time>2026-05-02T13:55:16.689Z</time></trkpt><trkpt lat="42.9689308" lon="11.6091832"><ele>674.0</ele><time>2026-05-02T13:55:17.682Z</time></trkpt><trkpt lat="42.9689376" lon="11.6089592"><ele>674.0</ele><time>2026-05-02T13:55:18.693Z</time></trkpt><trkpt lat="42.9689315" lon="11.6087279"><ele>674.0</ele><time>2026-05-02T13:55:19.679Z</time></trkpt><trkpt lat="42.9689205" lon="11.6084937"><ele>674.0</ele><time>2026-05-02T13:55:20.677Z</time></trkpt><trkpt lat="42.9689089" lon="11.6082528"><ele>674.0</ele><time>2026-05-02T13:55:21.671Z</time></trkpt><trkpt lat="42.9689064" lon="11.6080109"><ele>674.0</ele><time>2026-05-02T13:55:22.69Z</time></trkpt><trkpt lat="42.9689024" lon="11.6077702"><ele>674.0</ele><time>2026-05-02T13:55:23.681Z</time></trkpt><trkpt lat="42.9689001" lon="11.6075375"><ele>673.0</ele><time>2026-05-02T13:55:24.681Z</time></trkpt><trkpt lat="42.9688961" lon="11.6073116"><ele>672.0</ele><time>2026-05-02T13:55:25.688Z</time></trkpt><trkpt lat="42.9688971" lon="11.607098"><ele>671.0</ele><time>2026-05-02T13:55:26.68Z</time></trkpt><trkpt lat="42.9689012" lon="11.6068976"><ele>670.0</ele><time>2026-05-02T13:55:27.677Z</time></trkpt><trkpt lat="42.9689168" lon="11.6067054"><ele>669.0</ele><time>2026-05-02T13:55:28.687Z</time></trkpt><trkpt lat="42.9689506" lon="11.6065229"><ele>668.0</ele><time>2026-05-02T13:55:29.683Z</time></trkpt><trkpt lat="42.9690036" lon="11.6063555"><ele>667.0</ele><time>2026-05-02T13:55:30.693Z</time></trkpt><trkpt lat="42.969066" lon="11.6061997"><ele>665.25</ele><time>2026-05-02T13:55:31.67Z</time></trkpt><trkpt lat="42.9691434" lon="11.60606"><ele>663.5</ele><time>2026-05-02T13:55:32.669Z</time></trkpt><trkpt lat="42.9692293" lon="11.6059377"><ele>661.75</ele><time>2026-05-02T13:55:33.671Z</time></trkpt><trkpt lat="42.9693226" lon="11.6058296"><ele>660.0</ele><time>2026-05-02T13:55:34.68Z</time></trkpt><trkpt lat="42.9694269" lon="11.6057353"><ele>659.5</ele><time>2026-05-02T13:55:35.676Z</time></trkpt><trkpt lat="42.9695393" lon="11.6056412"><ele>659.0</ele><time>2026-05-02T13:55:36.679Z</time></trkpt><trkpt lat="42.9696635" lon="11.605539"><ele>658.5</ele><time>2026-05-02T13:55:37.672Z</time></trkpt><trkpt lat="42.9697934" lon="11.6054309"><ele>658.0</ele><time>2026-05-02T13:55:38.681Z</time></trkpt><trkpt lat="42.9699279" lon="11.6053152"><ele>653.3333333333334</ele><time>2026-05-02T13:55:39.673Z</time></trkpt><trkpt lat="42.970063" lon="11.605182"><ele>648.6666666666666</ele><time>2026-05-02T13:55:40.692Z</time></trkpt><trkpt lat="42.9701952" lon="11.6050401"><ele>644.0</ele><time>2026-05-02T13:55:41.691Z</time></trkpt><trkpt lat="42.9703353" lon="11.6048934"><ele>644.0</ele><time>2026-05-02T13:55:42.673Z</time></trkpt><trkpt lat="42.9704842" lon="11.604742"><ele>644.0</ele><time>2026-05-02T13:55:43.674Z</time></trkpt><trkpt lat="42.9706328" lon="11.6045908"><ele>644.0</ele><time>2026-05-02T13:55:44.676Z</time></trkpt><trkpt lat="42.9707765" lon="11.6044466"><ele>639.6666666666666</ele><time>2026-05-02T13:55:45.682Z</time></trkpt><trkpt lat="42.9709134" lon="11.6043077"><ele>635.3333333333334</ele><time>2026-05-02T13:55:46.675Z</time></trkpt><trkpt lat="42.9710438" lon="11.6041773"><ele>631.0</ele><time>2026-05-02T13:55:47.678Z</time></trkpt><trkpt lat="42.9711671" lon="11.6040537"><ele>631.0</ele><time>2026-05-02T13:55:48.679Z</time></trkpt><trkpt lat="42.9712855" lon="11.6039263"><ele>631.0</ele><time>2026-05-02T13:55:49.676Z</time></trkpt><trkpt lat="42.9713938" lon="11.6037907"><ele>631.0</ele><time>2026-05-02T13:55:50.678Z</time></trkpt><trkpt lat="42.9714851" lon="11.6036324"><ele>631.0</ele><time>2026-05-02T13:55:51.673Z</time></trkpt><trkpt lat="42.971549" lon="11.6034555"><ele>630.75</ele><time>2026-05-02T13:55:52.681Z</time></trkpt><trkpt lat="42.971585" lon="11.6032765"><ele>630.5</ele><time>2026-05-02T13:55:53.681Z</time></trkpt><trkpt lat="42.9716027" lon="11.6030935"><ele>630.25</ele><time>2026-05-02T13:55:54.672Z</time></trkpt><trkpt lat="42.9716364" lon="11.6029177"><ele>630.0</ele><time>2026-05-02T13:55:55.67Z</time></trkpt><trkpt lat="42.971698" lon="11.6027459"><ele>630.0</ele><time>2026-05-02T13:55:56.672Z</time></trkpt><trkpt lat="42.9717982" lon="11.6025914"><ele>630.0</ele><time>2026-05-02T13:55:57.68Z</time></trkpt><trkpt lat="42.9719254" lon="11.6024817"><ele>630.0</ele><time>2026-05-02T13:55:58.668Z</time></trkpt><trkpt lat="42.9720606" lon="11.6024318"><ele>630.0</ele><time>2026-05-02T13:55:59.667Z</time></trkpt><trkpt lat="42.9722085" lon="11.6024242"><ele>630.0</ele><time>2026-05-02T13:56:00.668Z</time></trkpt><trkpt lat="42.9723626" lon="11.6024269"><ele>630.0</ele><time>2026-05-02T13:56:01.675Z</time></trkpt><trkpt lat="42.9725206" lon="11.6024157"><ele>630.0</ele><time>2026-05-02T13:56:02.665Z</time></trkpt><trkpt lat="42.9726835" lon="11.6023814"><ele>626.6666666666666</ele><time>2026-05-02T13:56:03.671Z</time></trkpt><trkpt lat="42.9728474" lon="11.6023323"><ele>623.3333333333333</ele><time>2026-05-02T13:56:04.679Z</time></trkpt><trkpt lat="42.9730014" lon="11.6022615"><ele>620.0</ele><time>2026-05-02T13:56:05.67Z</time></trkpt><trkpt lat="42.9731419" lon="11.602164"><ele>620.0</ele><time>2026-05-02T13:56:06.678Z</time></trkpt><trkpt lat="42.9732689" lon="11.6020422"><ele>620.0</ele><time>2026-05-02T13:56:07.683Z</time></trkpt><trkpt lat="42.9733819" lon="11.6018879"><ele>620.0</ele><time>2026-05-02T13:56:08.69Z</time></trkpt><trkpt lat="42.9734908" lon="11.6017083"><ele>617.3333333333333</ele><time>2026-05-02T13:56:09.665Z</time></trkpt><trkpt lat="42.9735861" lon="11.6015194"><ele>614.6666666666666</ele><time>2026-05-02T13:56:10.677Z</time></trkpt><trkpt lat="42.9736738" lon="11.6013341"><ele>612.0</ele><time>2026-05-02T13:56:11.674Z</time></trkpt><trkpt lat="42.9737614" lon="11.6011517"><ele>612.0</ele><time>2026-05-02T13:56:12.661Z</time></trkpt><trkpt lat="42.9738525" lon="11.6009966"><ele>612.0</ele><time>2026-05-02T13:56:13.674Z</time></trkpt><trkpt lat="42.9739686" lon="11.6008665"><ele>612.0</ele><time>2026-05-02T13:56:14.665Z</time></trkpt><trkpt lat="42.974106" lon="11.6007665"><ele>606.6666666666666</ele><time>2026-05-02T13:56:15.675Z</time></trkpt><trkpt lat="42.9742505" lon="11.6006715"><ele>601.3333333333333</ele><time>2026-05-02T13:56:16.672Z</time></trkpt><trkpt lat="42.974396" lon="11.6005832"><ele>596.0</ele><time>2026-05-02T13:56:17.68Z</time></trkpt><trkpt lat="42.9745363" lon="11.6004943"><ele>596.0</ele><time>2026-05-02T13:56:18.673Z</time></trkpt><trkpt lat="42.9746677" lon="11.6003842"><ele>596.0</ele><time>2026-05-02T13:56:19.672Z</time></trkpt><trkpt lat="42.9747911" lon="11.6002555"><ele>596.0</ele><time>2026-05-02T13:56:20.671Z</time></trkpt><trkpt lat="42.9749057" lon="11.600103"><ele>597.75</ele><time>2026-05-02T13:56:21.664Z</time></trkpt><trkpt lat="42.9750035" lon="11.5999466"><ele>599.5</ele><time>2026-05-02T13:56:22.686Z</time></trkpt><trkpt lat="42.9750841" lon="11.5997832"><ele>601.25</ele><time>2026-05-02T13:56:23.672Z</time></trkpt><trkpt lat="42.9751382" lon="11.5996132"><ele>603.0</ele><time>2026-05-02T13:56:24.68Z</time></trkpt><trkpt lat="42.9751629" lon="11.5994215"><ele>596.0</ele><time>2026-05-02T13:56:25.664Z</time></trkpt><trkpt lat="42.9751577" lon="11.5992225"><ele>589.0</ele><time>2026-05-02T13:56:26.658Z</time></trkpt><trkpt lat="42.9751262" lon="11.5990079"><ele>582.0</ele><time>2026-05-02T13:56:27.682Z</time></trkpt><trkpt lat="42.9750859" lon="11.5988039"><ele>581.0</ele><time>2026-05-02T13:56:28.665Z</time></trkpt><trkpt lat="42.9750417" lon="11.5986101"><ele>580.0</ele><time>2026-05-02T13:56:29.663Z</time></trkpt><trkpt lat="42.9750005" lon="11.5984218"><ele>579.0</ele><time>2026-05-02T13:56:30.678Z</time></trkpt><trkpt lat="42.9749661" lon="11.5982442"><ele>578.0</ele><time>2026-05-02T13:56:31.663Z</time></trkpt><trkpt lat="42.9749402" lon="11.5980863"><ele>577.0</ele><time>2026-05-02T13:56:32.687Z</time></trkpt><trkpt lat="42.974944" lon="11.5979457"><ele>576.0</ele><time>2026-05-02T13:56:33.674Z</time></trkpt><trkpt lat="42.9749859" lon="11.5978218"><ele>575.0</ele><time>2026-05-02T13:56:34.67Z</time></trkpt><trkpt lat="42.9750738" lon="11.5977264"><ele>574.0</ele><time>2026-05-02T13:56:35.672Z</time></trkpt><trkpt lat="42.9751835" lon="11.5976879"><ele>573.0</ele><time>2026-05-02T13:56:36.684Z</time></trkpt><trkpt lat="42.975278" lon="11.5977347"><ele>574.25</ele><time>2026-05-02T13:56:37.666Z</time></trkpt><trkpt lat="42.9753536" lon="11.5978571"><ele>575.5</ele><time>2026-05-02T13:56:38.677Z</time></trkpt><trkpt lat="42.9753921" lon="11.5980099"><ele>576.75</ele><time>2026-05-02T13:56:39.675Z</time></trkpt><trkpt lat="42.9754057" lon="11.5981811"><ele>578.0</ele><time>2026-05-02T13:56:40.68Z</time></trkpt><trkpt lat="42.9754137" lon="11.598357"><ele>578.0</ele><time>2026-05-02T13:56:41.678Z</time></trkpt><trkpt lat="42.9754517" lon="11.59851"><ele>578.0</ele><time>2026-05-02T13:56:42.683Z</time></trkpt><trkpt lat="42.9755305" lon="11.5986415"><ele>578.0</ele><time>2026-05-02T13:56:43.678Z</time></trkpt><trkpt lat="42.9756312" lon="11.5987591"><ele>578.0</ele><time>2026-05-02T13:56:44.672Z</time></trkpt><trkpt lat="42.9757411" lon="11.5988723"><ele>579.0</ele><time>2026-05-02T13:56:45.684Z</time></trkpt><trkpt lat="42.9758483" lon="11.5989834"><ele>580.0</ele><time>2026-05-02T13:56:46.685Z</time></trkpt><trkpt lat="42.9759495" lon="11.5990881"><ele>581.0</ele><time>2026-05-02T13:56:47.688Z</time></trkpt><trkpt lat="42.9760508" lon="11.5992015"><ele>582.0</ele><time>2026-05-02T13:56:48.675Z</time></trkpt><trkpt lat="42.9761583" lon="11.5993042"><ele>579.25</ele><time>2026-05-02T13:56:49.691Z</time></trkpt><trkpt lat="42.9762778" lon="11.5993821"><ele>576.5</ele><time>2026-05-02T13:56:50.686Z</time></trkpt><trkpt lat="42.9764095" lon="11.5994231"><ele>573.75</ele><time>2026-05-02T13:56:51.684Z</time></trkpt><trkpt lat="42.9765502" lon="11.5994469"><ele>571.0</ele><time>2026-05-02T13:56:52.674Z</time></trkpt><trkpt lat="42.9766962" lon="11.5994671"><ele>570.75</ele><time>2026-05-02T13:56:53.687Z</time></trkpt><trkpt lat="42.9768478" lon="11.5994853"><ele>570.5</ele><time>2026-05-02T13:56:54.679Z</time></trkpt><trkpt lat="42.9769999" lon="11.5995042"><ele>570.25</ele><time>2026-05-02T13:56:55.691Z</time></trkpt><trkpt lat="42.977143" lon="11.5995262"><ele>570.0</ele><time>2026-05-02T13:56:56.686Z</time></trkpt><trkpt lat="42.9772706" lon="11.5995435"><ele>570.0</ele><time>2026-05-02T13:56:57.678Z</time></trkpt><trkpt lat="42.9773785" lon="11.5995536"><ele>570.0</ele><time>2026-05-02T13:56:58.678Z</time></trkpt><trkpt lat="42.9774702" lon="11.5995627"><ele>570.0</ele><time>2026-05-02T13:56:59.684Z</time></trkpt><trkpt lat="42.9775457" lon="11.5995739"><ele>570.0</ele><time>2026-05-02T13:57:00.688Z</time></trkpt><trkpt lat="42.9776153" lon="11.599575"><ele>570.0</ele><time>2026-05-02T13:57:01.678Z</time></trkpt><trkpt lat="42.9776828" lon="11.5995659"><ele>570.0</ele><time>2026-05-02T13:57:02.677Z</time></trkpt><trkpt lat="42.9777733" lon="11.599512"><ele>567.4</ele><time>2026-05-02T13:57:04.676Z</time></trkpt><trkpt lat="42.9778074" lon="11.5993901"><ele>564.8</ele><time>2026-05-02T13:57:06.68Z</time></trkpt><trkpt lat="42.9777982" lon="11.5992853"><ele>562.2</ele><time>2026-05-02T13:57:07.674Z</time></trkpt><trkpt lat="42.9777619" lon="11.5991664"><ele>559.6</ele><time>2026-05-02T13:57:08.676Z</time></trkpt><trkpt lat="42.9777134" lon="11.5990349"><ele>557.0</ele><time>2026-05-02T13:57:09.676Z</time></trkpt><trkpt lat="42.9776594" lon="11.5988859"><ele>557.0</ele><time>2026-05-02T13:57:10.676Z</time></trkpt><trkpt lat="42.9776076" lon="11.5987275"><ele>557.0</ele><time>2026-05-02T13:57:11.67Z</time></trkpt><trkpt lat="42.9775466" lon="11.5985803"><ele>557.0</ele><time>2026-05-02T13:57:12.668Z</time></trkpt><trkpt lat="42.9774902" lon="11.5984524"><ele>557.0</ele><time>2026-05-02T13:57:13.674Z</time></trkpt><trkpt lat="42.9774334" lon="11.5983345"><ele>557.5</ele><time>2026-05-02T13:57:14.684Z</time></trkpt><trkpt lat="42.9773692" lon="11.5982278"><ele>558.0</ele><time>2026-05-02T13:57:15.665Z</time></trkpt><trkpt lat="42.9772935" lon="11.598117"><ele>558.5</ele><time>2026-05-02T13:57:16.688Z</time></trkpt><trkpt lat="42.9772078" lon="11.5979943"><ele>559.0</ele><time>2026-05-02T13:57:17.677Z</time></trkpt><trkpt lat="42.9771158" lon="11.5978616"><ele>556.25</ele><time>2026-05-02T13:57:18.675Z</time></trkpt><trkpt lat="42.9770117" lon="11.5977236"><ele>553.5</ele><time>2026-05-02T13:57:19.668Z</time></trkpt><trkpt lat="42.9769028" lon="11.5975872"><ele>550.75</ele><time>2026-05-02T13:57:20.673Z</time></trkpt><trkpt lat="42.9767943" lon="11.5974546"><ele>548.0</ele><time>2026-05-02T13:57:21.668Z</time></trkpt><trkpt lat="42.976696" lon="11.5973297"><ele>548.25</ele><time>2026-05-02T13:57:22.672Z</time></trkpt><trkpt lat="42.9766068" lon="11.5971981"><ele>548.5</ele><time>2026-05-02T13:57:23.673Z</time></trkpt><trkpt lat="42.9765192" lon="11.5970632"><ele>548.75</ele><time>2026-05-02T13:57:24.668Z</time></trkpt><trkpt lat="42.9764311" lon="11.5969199"><ele>549.0</ele><time>2026-05-02T13:57:25.672Z</time></trkpt><trkpt lat="42.9763407" lon="11.5967737"><ele>549.0</ele><time>2026-05-02T13:57:26.669Z</time></trkpt><trkpt lat="42.9762498" lon="11.596619"><ele>549.0</ele><time>2026-05-02T13:57:27.673Z</time></trkpt><trkpt lat="42.9761552" lon="11.5964576"><ele>549.0</ele><time>2026-05-02T13:57:28.684Z</time></trkpt><trkpt lat="42.9760637" lon="11.5962828"><ele>550.3333333333334</ele><time>2026-05-02T13:57:29.676Z</time></trkpt><trkpt lat="42.9759782" lon="11.5960995"><ele>551.6666666666667</ele><time>2026-05-02T13:57:30.679Z</time></trkpt><trkpt lat="42.9758972" lon="11.5959206"><ele>553.0</ele><time>2026-05-02T13:57:31.676Z</time></trkpt><trkpt lat="42.9758218" lon="11.5957569"><ele>553.0</ele><time>2026-05-02T13:57:32.672Z</time></trkpt><trkpt lat="42.9757641" lon="11.5955926"><ele>553.0</ele><time>2026-05-02T13:57:33.703Z</time></trkpt><trkpt lat="42.9757299" lon="11.5954269"><ele>553.0</ele><time>2026-05-02T13:57:34.681Z</time></trkpt><trkpt lat="42.9757172" lon="11.5952708"><ele>553.0</ele><time>2026-05-02T13:57:35.685Z</time></trkpt><trkpt lat="42.9757182" lon="11.595121"><ele>552.0</ele><time>2026-05-02T13:57:36.677Z</time></trkpt><trkpt lat="42.975719" lon="11.5949621"><ele>551.0</ele><time>2026-05-02T13:57:37.673Z</time></trkpt><trkpt lat="42.9757123" lon="11.5947887"><ele>550.0</ele><time>2026-05-02T13:57:38.678Z</time></trkpt><trkpt lat="42.9757027" lon="11.5946069"><ele>549.0</ele><time>2026-05-02T13:57:39.675Z</time></trkpt><trkpt lat="42.9756947" lon="11.5944295"><ele>547.4</ele><time>2026-05-02T13:57:40.679Z</time></trkpt><trkpt lat="42.9756796" lon="11.5942671"><ele>545.8</ele><time>2026-05-02T13:57:41.682Z</time></trkpt><trkpt lat="42.9756499" lon="11.5941246"><ele>544.2</ele><time>2026-05-02T13:57:42.682Z</time></trkpt><trkpt lat="42.9755908" lon="11.5940103"><ele>542.6</ele><time>2026-05-02T13:57:43.68Z</time></trkpt><trkpt lat="42.9755202" lon="11.5939188"><ele>541.0</ele><time>2026-05-02T13:57:44.671Z</time></trkpt><trkpt lat="42.9754341" lon="11.5938524"><ele>541.0</ele><time>2026-05-02T13:57:45.678Z</time></trkpt><trkpt lat="42.9753331" lon="11.5937983"><ele>541.0</ele><time>2026-05-02T13:57:46.666Z</time></trkpt><trkpt lat="42.9752144" lon="11.5937608"><ele>541.0</ele><time>2026-05-02T13:57:47.672Z</time></trkpt><trkpt lat="42.9750802" lon="11.5937469"><ele>541.0</ele><time>2026-05-02T13:57:48.672Z</time></trkpt><trkpt lat="42.9749385" lon="11.5937368"><ele>542.25</ele><time>2026-05-02T13:57:49.672Z</time></trkpt><trkpt lat="42.9748006" lon="11.5937224"><ele>543.5</ele><time>2026-05-02T13:57:50.67Z</time></trkpt><trkpt lat="42.9746718" lon="11.5936892"><ele>544.75</ele><time>2026-05-02T13:57:51.673Z</time></trkpt><trkpt lat="42.9745695" lon="11.5936126"><ele>546.0</ele><time>2026-05-02T13:57:52.674Z</time></trkpt><trkpt lat="42.9745082" lon="11.5934935"><ele>542.75</ele><time>2026-05-02T13:57:53.675Z</time></trkpt><trkpt lat="42.9744937" lon="11.5933446"><ele>539.5</ele><time>2026-05-02T13:57:54.678Z</time></trkpt><trkpt lat="42.97451" lon="11.5931749"><ele>536.25</ele><time>2026-05-02T13:57:55.679Z</time></trkpt><trkpt lat="42.9745279" lon="11.5929954"><ele>533.0</ele><time>2026-05-02T13:57:56.673Z</time></trkpt><trkpt lat="42.9745336" lon="11.5928094"><ele>531.75</ele><time>2026-05-02T13:57:57.68Z</time></trkpt><trkpt lat="42.974523" lon="11.5926226"><ele>530.5</ele><time>2026-05-02T13:57:58.665Z</time></trkpt><trkpt lat="42.9744718" lon="11.5924335"><ele>529.25</ele><time>2026-05-02T13:57:59.675Z</time></trkpt><trkpt lat="42.9743849" lon="11.5922598"><ele>528.0</ele><time>2026-05-02T13:58:00.68Z</time></trkpt><trkpt lat="42.9742738" lon="11.5920913"><ele>530.3333333333334</ele><time>2026-05-02T13:58:01.688Z</time></trkpt><trkpt lat="42.9741661" lon="11.5919309"><ele>532.6666666666667</ele><time>2026-05-02T13:58:02.676Z</time></trkpt><trkpt lat="42.9740642" lon="11.5917575"><ele>535.0</ele><time>2026-05-02T13:58:03.669Z</time></trkpt><trkpt lat="42.9739636" lon="11.5915837"><ele>535.0</ele><time>2026-05-02T13:58:04.669Z</time></trkpt><trkpt lat="42.9738771" lon="11.5914079"><ele>535.0</ele><time>2026-05-02T13:58:05.664Z</time></trkpt><trkpt lat="42.9738053" lon="11.591244"><ele>535.0</ele><time>2026-05-02T13:58:06.673Z</time></trkpt><trkpt lat="42.9737563" lon="11.5911067"><ele>535.0</ele><time>2026-05-02T13:58:07.668Z</time></trkpt><trkpt lat="42.9737252" lon="11.5909964"><ele>533.1666666666667</ele><time>2026-05-02T13:58:08.667Z</time></trkpt><trkpt lat="42.9737052" lon="11.5909037"><ele>531.3333333333334</ele><time>2026-05-02T13:58:09.69Z</time></trkpt><trkpt lat="42.9736732" lon="11.5907664"><ele>529.5</ele><time>2026-05-02T13:58:11.68Z</time></trkpt><trkpt lat="42.9736418" lon="11.5906486"><ele>527.6666666666666</ele><time>2026-05-02T13:58:13.681Z</time></trkpt><trkpt lat="42.9736223" lon="11.5905656"><ele>525.8333333333333</ele><time>2026-05-02T13:58:15.672Z</time></trkpt><trkpt lat="42.9735902" lon="11.5904535"><ele>524.0</ele><time>2026-05-02T13:58:18.672Z</time></trkpt><trkpt lat="42.9735604" lon="11.590338"><ele>523.5</ele><time>2026-05-02T13:58:21.678Z</time></trkpt><trkpt lat="42.9735416" lon="11.5902473"><ele>523.0</ele><time>2026-05-02T13:58:24.678Z</time></trkpt><trkpt lat="42.9734952" lon="11.5901368"><ele>522.5</ele><time>2026-05-02T14:22:42.668Z</time></trkpt><trkpt lat="42.9734606" lon="11.5900583"><ele>522.0</ele><time>2026-05-02T14:22:43.667Z</time></trkpt><trkpt lat="42.9734243" lon="11.5899632"><ele>521.5</ele><time>2026-05-02T14:22:44.676Z</time></trkpt><trkpt lat="42.9733758" lon="11.5898448"><ele>521.0</ele><time>2026-05-02T14:22:45.666Z</time></trkpt><trkpt lat="42.9733245" lon="11.589718"><ele>522.0</ele><time>2026-05-02T14:22:46.669Z</time></trkpt><trkpt lat="42.9732706" lon="11.5895752"><ele>523.0</ele><time>2026-05-02T14:22:47.66Z</time></trkpt><trkpt lat="42.9732146" lon="11.5894268"><ele>524.0</ele><time>2026-05-02T14:22:48.667Z</time></trkpt><trkpt lat="42.9731626" lon="11.5892783"><ele>525.0</ele><time>2026-05-02T14:22:49.676Z</time></trkpt><trkpt lat="42.9731218" lon="11.5891308"><ele>525.0</ele><time>2026-05-02T14:22:50.669Z</time></trkpt><trkpt lat="42.9730875" lon="11.5889907"><ele>525.0</ele><time>2026-05-02T14:22:51.679Z</time></trkpt><trkpt lat="42.9730564" lon="11.5888565"><ele>525.0</ele><time>2026-05-02T14:22:52.66Z</time></trkpt><trkpt lat="42.9730158" lon="11.5887348"><ele>525.0</ele><time>2026-05-02T14:22:53.662Z</time></trkpt><trkpt lat="42.9729691" lon="11.5886192"><ele>525.0</ele><time>2026-05-02T14:22:54.671Z</time></trkpt><trkpt lat="42.9729007" lon="11.5885276"><ele>523.8</ele><time>2026-05-02T14:22:55.669Z</time></trkpt><trkpt lat="42.9728196" lon="11.5884449"><ele>522.6</ele><time>2026-05-02T14:22:56.663Z</time></trkpt><trkpt lat="42.9727285" lon="11.5883679"><ele>521.4</ele><time>2026-05-02T14:22:57.665Z</time></trkpt><trkpt lat="42.972636" lon="11.5882837"><ele>520.2</ele><time>2026-05-02T14:22:58.667Z</time></trkpt><trkpt lat="42.9725477" lon="11.5881907"><ele>519.0</ele><time>2026-05-02T14:22:59.669Z</time></trkpt><trkpt lat="42.9724674" lon="11.5880842"><ele>519.0</ele><time>2026-05-02T14:23:00.669Z</time></trkpt><trkpt lat="42.9724042" lon="11.5879551"><ele>519.0</ele><time>2026-05-02T14:23:01.669Z</time></trkpt><trkpt lat="42.9723534" lon="11.5878192"><ele>519.0</ele><time>2026-05-02T14:23:02.66Z</time></trkpt><trkpt lat="42.9723053" lon="11.5876791"><ele>519.0</ele><time>2026-05-02T14:23:03.672Z</time></trkpt><trkpt lat="42.9722646" lon="11.5875403"><ele>519.0</ele><time>2026-05-02T14:23:04.664Z</time></trkpt><trkpt lat="42.9722297" lon="11.5874028"><ele>517.0</ele><time>2026-05-02T14:23:05.671Z</time></trkpt><trkpt lat="42.9721891" lon="11.587268"><ele>515.0</ele><time>2026-05-02T14:23:06.666Z</time></trkpt><trkpt lat="42.9721354" lon="11.5871346"><ele>513.0</ele><time>2026-05-02T14:23:07.673Z</time></trkpt><trkpt lat="42.9720682" lon="11.5870155"><ele>511.0</ele><time>2026-05-02T14:23:08.67Z</time></trkpt><trkpt lat="42.9719961" lon="11.5868869"><ele>509.0</ele><time>2026-05-02T14:23:09.672Z</time></trkpt><trkpt lat="42.9719264" lon="11.5867535"><ele>507.6</ele><time>2026-05-02T14:23:10.673Z</time></trkpt><trkpt lat="42.971863" lon="11.5866258"><ele>506.2</ele><time>2026-05-02T14:23:11.659Z</time></trkpt><trkpt lat="42.9718066" lon="11.5865039"><ele>504.80000000000007</ele><time>2026-05-02T14:23:12.675Z</time></trkpt><trkpt lat="42.9717637" lon="11.5863866"><ele>503.40000000000003</ele><time>2026-05-02T14:23:13.667Z</time></trkpt><trkpt lat="42.9717253" lon="11.5862796"><ele>502.0</ele><time>2026-05-02T14:23:14.666Z</time></trkpt><trkpt lat="42.9716865" lon="11.5861702"><ele>502.0</ele><time>2026-05-02T14:23:15.674Z</time></trkpt><trkpt lat="42.971647" lon="11.5860634"><ele>502.00000000000006</ele><time>2026-05-02T14:23:16.672Z</time></trkpt><trkpt lat="42.9716058" lon="11.5859531"><ele>502.00000000000006</ele><time>2026-05-02T14:23:17.666Z</time></trkpt><trkpt lat="42.9715639" lon="11.5858379"><ele>502.0</ele><time>2026-05-02T14:23:18.665Z</time></trkpt><trkpt lat="42.9715204" lon="11.5857106"><ele>502.0</ele><time>2026-05-02T14:23:19.673Z</time></trkpt><trkpt lat="42.971467" lon="11.5855836"><ele>502.0</ele><time>2026-05-02T14:23:20.667Z</time></trkpt><trkpt lat="42.9713947" lon="11.5854447"><ele>502.0</ele><time>2026-05-02T14:23:21.667Z</time></trkpt><trkpt lat="42.9713035" lon="11.5853225"><ele>502.0</ele><time>2026-05-02T14:23:22.673Z</time></trkpt><trkpt lat="42.971205" lon="11.5852042"><ele>502.0</ele><time>2026-05-02T14:23:23.675Z</time></trkpt><trkpt lat="42.971104" lon="11.5850852"><ele>501.25</ele><time>2026-05-02T14:23:24.67Z</time></trkpt><trkpt lat="42.9710049" lon="11.5849732"><ele>500.5</ele><time>2026-05-02T14:23:25.667Z</time></trkpt><trkpt lat="42.9709072" lon="11.5848705"><ele>499.75</ele><time>2026-05-02T14:23:26.672Z</time></trkpt><trkpt lat="42.9708278" lon="11.5847513"><ele>499.0</ele><time>2026-05-02T14:23:27.669Z</time></trkpt><trkpt lat="42.9707808" lon="11.5846145"><ele>497.0</ele><time>2026-05-02T14:23:28.66Z</time></trkpt><trkpt lat="42.9707729" lon="11.5844662"><ele>495.0</ele><time>2026-05-02T14:23:29.677Z</time></trkpt><trkpt lat="42.9708094" lon="11.5843011"><ele>493.0</ele><time>2026-05-02T14:23:30.671Z</time></trkpt><trkpt lat="42.9708627" lon="11.5841407"><ele>491.0</ele><time>2026-05-02T14:23:31.663Z</time></trkpt><trkpt lat="42.9709108" lon="11.583978"><ele>489.25</ele><time>2026-05-02T14:23:32.664Z</time></trkpt><trkpt lat="42.9709274" lon="11.5838062"><ele>487.5</ele><time>2026-05-02T14:23:33.664Z</time></trkpt><trkpt lat="42.9708988" lon="11.5836535"><ele>485.75</ele><time>2026-05-02T14:23:34.659Z</time></trkpt><trkpt lat="42.9708333" lon="11.5835117"><ele>484.0</ele><time>2026-05-02T14:23:35.666Z</time></trkpt><trkpt lat="42.9707364" lon="11.5833875"><ele>483.75</ele><time>2026-05-02T14:23:36.667Z</time></trkpt><trkpt lat="42.9706224" lon="11.583272"><ele>483.5</ele><time>2026-05-02T14:23:37.676Z</time></trkpt><trkpt lat="42.970498" lon="11.5831707"><ele>483.25</ele><time>2026-05-02T14:23:38.672Z</time></trkpt><trkpt lat="42.9703791" lon="11.5830706"><ele>483.0</ele><time>2026-05-02T14:23:39.665Z</time></trkpt><trkpt lat="42.9702663" lon="11.5829968"><ele>483.0</ele><time>2026-05-02T14:23:40.667Z</time></trkpt><trkpt lat="42.9701478" lon="11.5829615"><ele>483.0</ele><time>2026-05-02T14:23:41.664Z</time></trkpt><trkpt lat="42.9700157" lon="11.5829842"><ele>483.0</ele><time>2026-05-02T14:23:42.662Z</time></trkpt><trkpt lat="42.9698812" lon="11.583044"><ele>483.0</ele><time>2026-05-02T14:23:43.674Z</time></trkpt><trkpt lat="42.9697626" lon="11.5831426"><ele>482.75</ele><time>2026-05-02T14:23:44.665Z</time></trkpt><trkpt lat="42.9696711" lon="11.5832931"><ele>482.5</ele><time>2026-05-02T14:23:45.669Z</time></trkpt><trkpt lat="42.9695931" lon="11.5834674"><ele>482.25</ele><time>2026-05-02T14:23:46.669Z</time></trkpt><trkpt lat="42.9695126" lon="11.5836368"><ele>482.0</ele><time>2026-05-02T14:23:47.673Z</time></trkpt><trkpt lat="42.9694211" lon="11.5837775"><ele>481.5</ele><time>2026-05-02T14:23:48.669Z</time></trkpt><trkpt lat="42.9693217" lon="11.5838728"><ele>481.0</ele><time>2026-05-02T14:23:49.681Z</time></trkpt><trkpt lat="42.9692059" lon="11.5839076"><ele>480.5</ele><time>2026-05-02T14:23:50.68Z</time></trkpt><trkpt lat="42.969096" lon="11.5838741"><ele>480.0</ele><time>2026-05-02T14:23:51.674Z</time></trkpt><trkpt lat="42.9689992" lon="11.5837871"><ele>480.0</ele><time>2026-05-02T14:23:52.67Z</time></trkpt><trkpt lat="42.9689087" lon="11.5836999"><ele>480.0</ele><time>2026-05-02T14:23:53.678Z</time></trkpt><trkpt lat="42.968801" lon="11.5836377"><ele>480.0</ele><time>2026-05-02T14:23:54.672Z</time></trkpt><trkpt lat="42.9686895" lon="11.5836422"><ele>480.0</ele><time>2026-05-02T14:23:55.665Z</time></trkpt><trkpt lat="42.968579" lon="11.5837001"><ele>480.0</ele><time>2026-05-02T14:23:56.666Z</time></trkpt><trkpt lat="42.9684704" lon="11.5838119"><ele>480.0</ele><time>2026-05-02T14:23:57.669Z</time></trkpt><trkpt lat="42.9683634" lon="11.5839354"><ele>480.0</ele><time>2026-05-02T14:23:58.667Z</time></trkpt><trkpt lat="42.9682597" lon="11.5840281"><ele>480.0</ele><time>2026-05-02T14:23:59.68Z</time></trkpt><trkpt lat="42.9681454" lon="11.5840793"><ele>478.25</ele><time>2026-05-02T14:24:00.673Z</time></trkpt><trkpt lat="42.9680309" lon="11.5840721"><ele>476.5</ele><time>2026-05-02T14:24:01.672Z</time></trkpt><trkpt lat="42.9679292" lon="11.5840047"><ele>474.75</ele><time>2026-05-02T14:24:02.658Z</time></trkpt><trkpt lat="42.9678451" lon="11.5839069"><ele>473.0</ele><time>2026-05-02T14:24:03.671Z</time></trkpt><trkpt lat="42.9677777" lon="11.583778"><ele>471.2</ele><time>2026-05-02T14:24:04.667Z</time></trkpt><trkpt lat="42.9677318" lon="11.5836371"><ele>469.4</ele><time>2026-05-02T14:24:05.667Z</time></trkpt><trkpt lat="42.9677373" lon="11.5834896"><ele>467.59999999999997</ele><time>2026-05-02T14:24:06.661Z</time></trkpt><trkpt lat="42.9677853" lon="11.5833573"><ele>465.79999999999995</ele><time>2026-05-02T14:24:07.661Z</time></trkpt><trkpt lat="42.9678615" lon="11.5832323"><ele>464.0</ele><time>2026-05-02T14:24:08.677Z</time></trkpt><trkpt lat="42.9679579" lon="11.5831168"><ele>464.0</ele><time>2026-05-02T14:24:09.667Z</time></trkpt><trkpt lat="42.9680694" lon="11.5830312"><ele>464.0</ele><time>2026-05-02T14:24:10.668Z</time></trkpt><trkpt lat="42.9681998" lon="11.582994"><ele>464.0</ele><time>2026-05-02T14:24:11.668Z</time></trkpt><trkpt lat="42.9683277" lon="11.5829839"><ele>464.0</ele><time>2026-05-02T14:24:12.654Z</time></trkpt><trkpt lat="42.9684445" lon="11.5829621"><ele>464.5</ele><time>2026-05-02T14:24:13.666Z</time></trkpt><trkpt lat="42.9685389" lon="11.5828932"><ele>465.0</ele><time>2026-05-02T14:24:14.661Z</time></trkpt><trkpt lat="42.9686065" lon="11.5827737"><ele>465.5</ele><time>2026-05-02T14:24:15.663Z</time></trkpt><trkpt lat="42.9686378" lon="11.5826112"><ele>466.0</ele><time>2026-05-02T14:24:16.652Z</time></trkpt><trkpt lat="42.9686328" lon="11.5824213"><ele>466.0</ele><time>2026-05-02T14:24:17.664Z</time></trkpt><trkpt lat="42.9686117" lon="11.5822223"><ele>466.0</ele><time>2026-05-02T14:24:18.669Z</time></trkpt><trkpt lat="42.9686007" lon="11.5820272"><ele>466.0</ele><time>2026-05-02T14:24:19.662Z</time></trkpt><trkpt lat="42.9686015" lon="11.5818394"><ele>466.0</ele><time>2026-05-02T14:24:20.664Z</time></trkpt><trkpt lat="42.9686167" lon="11.5816473"><ele>463.75</ele><time>2026-05-02T14:24:21.67Z</time></trkpt><trkpt lat="42.9686546" lon="11.5814601"><ele>461.5</ele><time>2026-05-02T14:24:22.672Z</time></trkpt><trkpt lat="42.9687127" lon="11.5812699"><ele>459.25</ele><time>2026-05-02T14:24:23.674Z</time></trkpt><trkpt lat="42.9687953" lon="11.5810914"><ele>457.0</ele><time>2026-05-02T14:24:24.67Z</time></trkpt><trkpt lat="42.9689026" lon="11.5809398"><ele>454.6666666666667</ele><time>2026-05-02T14:24:25.673Z</time></trkpt><trkpt lat="42.9690234" lon="11.5808067"><ele>452.33333333333337</ele><time>2026-05-02T14:24:26.659Z</time></trkpt><trkpt lat="42.969152" lon="11.5806813"><ele>450.0</ele><time>2026-05-02T14:24:27.668Z</time></trkpt><trkpt lat="42.9692812" lon="11.580547"><ele>450.0</ele><time>2026-05-02T14:24:28.669Z</time></trkpt><trkpt lat="42.9694094" lon="11.5804057"><ele>450.0</ele><time>2026-05-02T14:24:29.656Z</time></trkpt><trkpt lat="42.9695383" lon="11.5802633"><ele>450.0</ele><time>2026-05-02T14:24:30.659Z</time></trkpt><trkpt lat="42.9696613" lon="11.5801199"><ele>447.0</ele><time>2026-05-02T14:24:31.675Z</time></trkpt><trkpt lat="42.9697844" lon="11.5799841"><ele>444.0</ele><time>2026-05-02T14:24:32.666Z</time></trkpt><trkpt lat="42.9699005" lon="11.5798661"><ele>441.0</ele><time>2026-05-02T14:24:33.67Z</time></trkpt><trkpt lat="42.9700181" lon="11.5797629"><ele>438.0</ele><time>2026-05-02T14:24:34.671Z</time></trkpt><trkpt lat="42.9701499" lon="11.5797053"><ele>437.5</ele><time>2026-05-02T14:24:35.671Z</time></trkpt><trkpt lat="42.9702875" lon="11.5797037"><ele>437.0</ele><time>2026-05-02T14:24:36.669Z</time></trkpt><trkpt lat="42.9704295" lon="11.5797442"><ele>436.5</ele><time>2026-05-02T14:24:37.664Z</time></trkpt><trkpt lat="42.9705729" lon="11.5797846"><ele>436.0</ele><time>2026-05-02T14:24:38.67Z</time></trkpt><trkpt lat="42.9707195" lon="11.5797752"><ele>435.33333333333337</ele><time>2026-05-02T14:24:39.666Z</time></trkpt><trkpt lat="42.9708608" lon="11.5797026"><ele>434.66666666666663</ele><time>2026-05-02T14:24:40.676Z</time></trkpt><trkpt lat="42.9709968" lon="11.5796074"><ele>434.0</ele><time>2026-05-02T14:24:41.675Z</time></trkpt><trkpt lat="42.97113" lon="11.5795083"><ele>431.25</ele><time>2026-05-02T14:24:42.662Z</time></trkpt><trkpt lat="42.9712662" lon="11.5794396"><ele>428.5</ele><time>2026-05-02T14:24:43.673Z</time></trkpt><trkpt lat="42.9714016" lon="11.5793966"><ele>425.75</ele><time>2026-05-02T14:24:44.672Z</time></trkpt><trkpt lat="42.9715359" lon="11.5793646"><ele>423.0</ele><time>2026-05-02T14:24:45.678Z</time></trkpt><trkpt lat="42.9716741" lon="11.5793362"><ele>421.5</ele><time>2026-05-02T14:24:46.679Z</time></trkpt><trkpt lat="42.9718145" lon="11.5793041"><ele>420.0</ele><time>2026-05-02T14:24:47.672Z</time></trkpt><trkpt lat="42.9719527" lon="11.5792782"><ele>418.5</ele><time>2026-05-02T14:24:48.667Z</time></trkpt><trkpt lat="42.9720803" lon="11.579273"><ele>417.0</ele><time>2026-05-02T14:24:49.665Z</time></trkpt><trkpt lat="42.9722079" lon="11.5793021"><ele>417.0</ele><time>2026-05-02T14:24:50.669Z</time></trkpt><trkpt lat="42.9723181" lon="11.5793604"><ele>417.0</ele><time>2026-05-02T14:24:51.676Z</time></trkpt><trkpt lat="42.9724212" lon="11.5794255"><ele>417.0</ele><time>2026-05-02T14:24:52.661Z</time></trkpt><trkpt lat="42.9725225" lon="11.5794598"><ele>417.0</ele><time>2026-05-02T14:24:53.674Z</time></trkpt><trkpt lat="42.9726176" lon="11.5794436"><ele>417.0</ele><time>2026-05-02T14:24:54.666Z</time></trkpt><trkpt lat="42.9727011" lon="11.5793536"><ele>417.0</ele><time>2026-05-02T14:24:55.676Z</time></trkpt><trkpt lat="42.9727509" lon="11.579227"><ele>417.0</ele><time>2026-05-02T14:24:56.667Z</time></trkpt><trkpt lat="42.9727568" lon="11.5790855"><ele>417.0</ele><time>2026-05-02T14:24:57.661Z</time></trkpt><trkpt lat="42.9727078" lon="11.5789604"><ele>417.0</ele><time>2026-05-02T14:24:58.668Z</time></trkpt><trkpt lat="42.9726186" lon="11.5788957"><ele>417.0</ele><time>2026-05-02T14:24:59.672Z</time></trkpt><trkpt lat="42.9725105" lon="11.5788437"><ele>417.0</ele><time>2026-05-02T14:25:00.675Z</time></trkpt><trkpt lat="42.9723909" lon="11.5788097"><ele>417.0</ele><time>2026-05-02T14:25:01.681Z</time></trkpt><trkpt lat="42.9722612" lon="11.5787636"><ele>417.0</ele><time>2026-05-02T14:25:02.665Z</time></trkpt><trkpt lat="42.9721439" lon="11.5786854"><ele>417.0</ele><time>2026-05-02T14:25:03.677Z</time></trkpt><trkpt lat="42.9720411" lon="11.5785653"><ele>415.25</ele><time>2026-05-02T14:25:04.67Z</time></trkpt><trkpt lat="42.9719396" lon="11.5784262"><ele>413.5</ele><time>2026-05-02T14:25:05.679Z</time></trkpt><trkpt lat="42.9718475" lon="11.5782724"><ele>411.75</ele><time>2026-05-02T14:25:06.662Z</time></trkpt><trkpt lat="42.9717392" lon="11.5781417"><ele>410.0</ele><time>2026-05-02T14:25:07.667Z</time></trkpt><trkpt lat="42.9716124" lon="11.5780354"><ele>410.0</ele><time>2026-05-02T14:25:08.67Z</time></trkpt><trkpt lat="42.9714866" lon="11.5779438"><ele>410.0</ele><time>2026-05-02T14:25:09.666Z</time></trkpt><trkpt lat="42.9713806" lon="11.5778358"><ele>410.0</ele><time>2026-05-02T14:25:10.665Z</time></trkpt><trkpt lat="42.9713004" lon="11.577682"><ele>410.0</ele><time>2026-05-02T14:25:11.672Z</time></trkpt><trkpt lat="42.9712327" lon="11.5775083"><ele>408.5</ele><time>2026-05-02T14:25:12.666Z</time></trkpt><trkpt lat="42.9711587" lon="11.5773385"><ele>407.0</ele><time>2026-05-02T14:25:13.668Z</time></trkpt><trkpt lat="42.9710641" lon="11.5772005"><ele>405.5</ele><time>2026-05-02T14:25:14.666Z</time></trkpt><trkpt lat="42.9709529" lon="11.5770925"><ele>404.0</ele><time>2026-05-02T14:25:15.678Z</time></trkpt><trkpt lat="42.9708267" lon="11.5770449"><ele>404.0</ele><time>2026-05-02T14:25:16.67Z</time></trkpt><trkpt lat="42.9706915" lon="11.5770691"><ele>404.0</ele><time>2026-05-02T14:25:17.674Z</time></trkpt><trkpt lat="42.9705675" lon="11.5771115"><ele>404.0</ele><time>2026-05-02T14:25:18.668Z</time></trkpt><trkpt lat="42.9704546" lon="11.5771194"><ele>404.0</ele><time>2026-05-02T14:25:19.668Z</time></trkpt><trkpt lat="42.970357" lon="11.5770688"><ele>402.2</ele><time>2026-05-02T14:25:20.669Z</time></trkpt><trkpt lat="42.9702877" lon="11.5769495"><ele>400.4</ele><time>2026-05-02T14:25:21.669Z</time></trkpt><trkpt lat="42.9702604" lon="11.5768182"><ele>398.6</ele><time>2026-05-02T14:25:22.673Z</time></trkpt><trkpt lat="42.9702875" lon="11.576684"><ele>396.8</ele><time>2026-05-02T14:25:23.675Z</time></trkpt><trkpt lat="42.9703472" lon="11.5765524"><ele>395.0</ele><time>2026-05-02T14:25:24.666Z</time></trkpt><trkpt lat="42.9704325" lon="11.5764498"><ele>395.0</ele><time>2026-05-02T14:25:25.665Z</time></trkpt><trkpt lat="42.9705322" lon="11.5763821"><ele>395.0</ele><time>2026-05-02T14:25:26.666Z</time></trkpt><trkpt lat="42.9706472" lon="11.576347"><ele>395.0</ele><time>2026-05-02T14:25:27.672Z</time></trkpt><trkpt lat="42.9707657" lon="11.576361"><ele>395.0</ele><time>2026-05-02T14:25:28.665Z</time></trkpt><trkpt lat="42.9708788" lon="11.5764256"><ele>393.0</ele><time>2026-05-02T14:25:29.671Z</time></trkpt><trkpt lat="42.9709906" lon="11.5765175"><ele>391.0</ele><time>2026-05-02T14:25:30.657Z</time></trkpt><trkpt lat="42.9711021" lon="11.576622"><ele>389.0</ele><time>2026-05-02T14:25:31.667Z</time></trkpt><trkpt lat="42.9712116" lon="11.5767352"><ele>387.0</ele><time>2026-05-02T14:25:32.667Z</time></trkpt><trkpt lat="42.9713201" lon="11.5768473"><ele>387.0</ele><time>2026-05-02T14:25:33.667Z</time></trkpt><trkpt lat="42.9714349" lon="11.5769255"><ele>387.0</ele><time>2026-05-02T14:25:34.665Z</time></trkpt><trkpt lat="42.9715463" lon="11.5769529"><ele>387.0</ele><time>2026-05-02T14:25:35.675Z</time></trkpt><trkpt lat="42.9716501" lon="11.5769189"><ele>387.0</ele><time>2026-05-02T14:25:36.665Z</time></trkpt><trkpt lat="42.9717237" lon="11.5768284"><ele>387.0</ele><time>2026-05-02T14:25:37.662Z</time></trkpt><trkpt lat="42.971772" lon="11.5767074"><ele>387.0</ele><time>2026-05-02T14:25:38.669Z</time></trkpt><trkpt lat="42.9717855" lon="11.5765644"><ele>387.0</ele><time>2026-05-02T14:25:39.66Z</time></trkpt><trkpt lat="42.9717464" lon="11.576414"><ele>387.0</ele><time>2026-05-02T14:25:40.665Z</time></trkpt><trkpt lat="42.9716685" lon="11.5762692"><ele>387.0</ele><time>2026-05-02T14:25:41.67Z</time></trkpt><trkpt lat="42.9715778" lon="11.5761403"><ele>384.75</ele><time>2026-05-02T14:25:42.672Z</time></trkpt><trkpt lat="42.9714773" lon="11.5760234"><ele>382.5</ele><time>2026-05-02T14:25:43.668Z</time></trkpt><trkpt lat="42.9713873" lon="11.575895"><ele>380.25</ele><time>2026-05-02T14:25:44.661Z</time></trkpt><trkpt lat="42.9713118" lon="11.5757394"><ele>378.0</ele><time>2026-05-02T14:25:45.67Z</time></trkpt><trkpt lat="42.9712564" lon="11.5755647"><ele>378.0</ele><time>2026-05-02T14:25:46.662Z</time></trkpt><trkpt lat="42.9712166" lon="11.5753867"><ele>378.0</ele><time>2026-05-02T14:25:47.66Z</time></trkpt><trkpt lat="42.9711787" lon="11.5752239"><ele>378.0</ele><time>2026-05-02T14:25:48.669Z</time></trkpt><trkpt lat="42.9711358" lon="11.5750774"><ele>378.0</ele><time>2026-05-02T14:25:49.671Z</time></trkpt><trkpt lat="42.971068" lon="11.5749623"><ele>377.0</ele><time>2026-05-02T14:25:50.656Z</time></trkpt><trkpt lat="42.9709682" lon="11.5748977"><ele>376.0</ele><time>2026-05-02T14:25:51.663Z</time></trkpt><trkpt lat="42.9708491" lon="11.5748688"><ele>375.0</ele><time>2026-05-02T14:25:52.659Z</time></trkpt><trkpt lat="42.9707197" lon="11.5748827"><ele>374.0</ele><time>2026-05-02T14:25:53.663Z</time></trkpt><trkpt lat="42.9705854" lon="11.5749245"><ele>374.0</ele><time>2026-05-02T14:25:54.663Z</time></trkpt><trkpt lat="42.970461" lon="11.5750044"><ele>374.0</ele><time>2026-05-02T14:25:55.676Z</time></trkpt><trkpt lat="42.9703427" lon="11.5750829"><ele>374.0</ele><time>2026-05-02T14:25:56.656Z</time></trkpt><trkpt lat="42.9702307" lon="11.5751284"><ele>374.0</ele><time>2026-05-02T14:25:57.668Z</time></trkpt><trkpt lat="42.9701187" lon="11.5751358"><ele>373.0</ele><time>2026-05-02T14:25:58.664Z</time></trkpt><trkpt lat="42.9700064" lon="11.5751023"><ele>372.0</ele><time>2026-05-02T14:25:59.667Z</time></trkpt><trkpt lat="42.9698911" lon="11.5750359"><ele>371.0</ele><time>2026-05-02T14:26:00.667Z</time></trkpt><trkpt lat="42.969771" lon="11.5749643"><ele>370.0</ele><time>2026-05-02T14:26:01.671Z</time></trkpt><trkpt lat="42.9696541" lon="11.5748969"><ele>370.0</ele><time>2026-05-02T14:26:02.676Z</time></trkpt><trkpt lat="42.9695551" lon="11.5748345"><ele>370.0</ele><time>2026-05-02T14:26:03.675Z</time></trkpt><trkpt lat="42.9694797" lon="11.5747616"><ele>370.0</ele><time>2026-05-02T14:26:04.659Z</time></trkpt><trkpt lat="42.9694339" lon="11.5746707"><ele>370.0</ele><time>2026-05-02T14:26:05.666Z</time></trkpt><trkpt lat="42.969424" lon="11.5745567"><ele>370.0</ele><time>2026-05-02T14:26:06.667Z</time></trkpt><trkpt lat="42.9694561" lon="11.5744466"><ele>367.6</ele><time>2026-05-02T14:26:07.665Z</time></trkpt><trkpt lat="42.9695216" lon="11.5743488"><ele>365.2</ele><time>2026-05-02T14:26:08.661Z</time></trkpt><trkpt lat="42.9696165" lon="11.5742809"><ele>362.79999999999995</ele><time>2026-05-02T14:26:09.668Z</time></trkpt><trkpt lat="42.9697237" lon="11.5742249"><ele>360.4</ele><time>2026-05-02T14:26:10.671Z</time></trkpt><trkpt lat="42.9698434" lon="11.5741704"><ele>358.0</ele><time>2026-05-02T14:26:11.665Z</time></trkpt><trkpt lat="42.9699521" lon="11.5741044"><ele>358.59999999999997</ele><time>2026-05-02T14:26:12.665Z</time></trkpt><trkpt lat="42.9700519" lon="11.5740302"><ele>359.2</ele><time>2026-05-02T14:26:13.681Z</time></trkpt><trkpt lat="42.9701301" lon="11.573949"><ele>359.8</ele><time>2026-05-02T14:26:14.669Z</time></trkpt><trkpt lat="42.9701819" lon="11.5738606"><ele>360.4</ele><time>2026-05-02T14:26:15.674Z</time></trkpt><trkpt lat="42.9702257" lon="11.5737622"><ele>361.0</ele><time>2026-05-02T14:26:16.658Z</time></trkpt><trkpt lat="42.970279" lon="11.5736711"><ele>358.8</ele><time>2026-05-02T14:26:17.666Z</time></trkpt><trkpt lat="42.9703561" lon="11.5735938"><ele>356.6</ele><time>2026-05-02T14:26:18.665Z</time></trkpt><trkpt lat="42.9704554" lon="11.573541"><ele>354.4</ele><time>2026-05-02T14:26:19.657Z</time></trkpt><trkpt lat="42.9705649" lon="11.5735028"><ele>352.2</ele><time>2026-05-02T14:26:20.656Z</time></trkpt><trkpt lat="42.9706752" lon="11.5734619"><ele>350.0</ele><time>2026-05-02T14:26:21.668Z</time></trkpt><trkpt lat="42.9707801" lon="11.5734032"><ele>350.25</ele><time>2026-05-02T14:26:22.657Z</time></trkpt><trkpt lat="42.9708687" lon="11.5733199"><ele>350.5</ele><time>2026-05-02T14:26:23.659Z</time></trkpt><trkpt lat="42.9709336" lon="11.5731968"><ele>350.75</ele><time>2026-05-02T14:26:24.67Z</time></trkpt><trkpt lat="42.9709726" lon="11.5730387"><ele>351.0</ele><time>2026-05-02T14:26:25.658Z</time></trkpt><trkpt lat="42.9709809" lon="11.5728676"><ele>349.25</ele><time>2026-05-02T14:26:26.661Z</time></trkpt><trkpt lat="42.9709805" lon="11.572685"><ele>347.5</ele><time>2026-05-02T14:26:27.658Z</time></trkpt><trkpt lat="42.9709827" lon="11.5725006"><ele>345.75</ele><time>2026-05-02T14:26:28.668Z</time></trkpt><trkpt lat="42.9709987" lon="11.5723071"><ele>344.0</ele><time>2026-05-02T14:26:29.668Z</time></trkpt><trkpt lat="42.9710332" lon="11.5721268"><ele>342.25</ele><time>2026-05-02T14:26:30.662Z</time></trkpt><trkpt lat="42.9710753" lon="11.5719402"><ele>340.5</ele><time>2026-05-02T14:26:31.673Z</time></trkpt><trkpt lat="42.9711216" lon="11.571757"><ele>338.75</ele><time>2026-05-02T14:26:32.662Z</time></trkpt><trkpt lat="42.9711695" lon="11.5715659"><ele>337.0</ele><time>2026-05-02T14:26:33.667Z</time></trkpt><trkpt lat="42.9712307" lon="11.5713664"><ele>335.0</ele><time>2026-05-02T14:26:34.663Z</time></trkpt><trkpt lat="42.9712939" lon="11.5711556"><ele>333.0</ele><time>2026-05-02T14:26:35.678Z</time></trkpt><trkpt lat="42.9713571" lon="11.570938"><ele>331.0</ele><time>2026-05-02T14:26:36.663Z</time></trkpt><trkpt lat="42.9714199" lon="11.5707214"><ele>331.0</ele><time>2026-05-02T14:26:37.666Z</time></trkpt><trkpt lat="42.9714832" lon="11.570511"><ele>331.0</ele><time>2026-05-02T14:26:38.661Z</time></trkpt><trkpt lat="42.9715448" lon="11.5703138"><ele>331.0</ele><time>2026-05-02T14:26:39.667Z</time></trkpt><trkpt lat="42.9716138" lon="11.5701273"><ele>328.5</ele><time>2026-05-02T14:26:40.669Z</time></trkpt><trkpt lat="42.971697" lon="11.5699636"><ele>326.0</ele><time>2026-05-02T14:26:41.671Z</time></trkpt><trkpt lat="42.971793" lon="11.569818"><ele>323.5</ele><time>2026-05-02T14:26:42.667Z</time></trkpt><trkpt lat="42.9719028" lon="11.5696807"><ele>321.0</ele><time>2026-05-02T14:26:43.668Z</time></trkpt><trkpt lat="42.9720155" lon="11.5695464"><ele>321.25</ele><time>2026-05-02T14:26:44.673Z</time></trkpt><trkpt lat="42.9721246" lon="11.5694063"><ele>321.5</ele><time>2026-05-02T14:26:45.673Z</time></trkpt><trkpt lat="42.9722121" lon="11.5692534"><ele>321.75</ele><time>2026-05-02T14:26:46.66Z</time></trkpt><trkpt lat="42.9722841" lon="11.5690846"><ele>322.0</ele><time>2026-05-02T14:26:47.661Z</time></trkpt><trkpt lat="42.9723364" lon="11.5688956"><ele>322.0</ele><time>2026-05-02T14:26:48.668Z</time></trkpt><trkpt lat="42.9723622" lon="11.5686995"><ele>322.0</ele><time>2026-05-02T14:26:49.668Z</time></trkpt><trkpt lat="42.9723812" lon="11.5685025"><ele>322.0</ele><time>2026-05-02T14:26:50.673Z</time></trkpt><trkpt lat="42.9724164" lon="11.5683121"><ele>322.0</ele><time>2026-05-02T14:26:51.67Z</time></trkpt><trkpt lat="42.9724722" lon="11.5681403"><ele>320.75</ele><time>2026-05-02T14:26:52.666Z</time></trkpt><trkpt lat="42.9725578" lon="11.568005"><ele>319.5</ele><time>2026-05-02T14:26:53.661Z</time></trkpt><trkpt lat="42.9726605" lon="11.5678822"><ele>318.25</ele><time>2026-05-02T14:26:54.666Z</time></trkpt><trkpt lat="42.9727817" lon="11.5677813"><ele>317.0</ele><time>2026-05-02T14:26:55.668Z</time></trkpt><trkpt lat="42.9729207" lon="11.5677046"><ele>317.0</ele><time>2026-05-02T14:26:56.675Z</time></trkpt><trkpt lat="42.9730612" lon="11.5676241"><ele>317.0</ele><time>2026-05-02T14:26:57.667Z</time></trkpt><trkpt lat="42.9732062" lon="11.5675419"><ele>317.0</ele><time>2026-05-02T14:26:58.683Z</time></trkpt><trkpt lat="42.9733439" lon="11.5674472"><ele>313.75</ele><time>2026-05-02T14:26:59.676Z</time></trkpt><trkpt lat="42.9734766" lon="11.5673474"><ele>310.5</ele><time>2026-05-02T14:27:00.675Z</time></trkpt><trkpt lat="42.9736088" lon="11.5672658"><ele>307.25</ele><time>2026-05-02T14:27:01.677Z</time></trkpt><trkpt lat="42.9737385" lon="11.5671963"><ele>304.0</ele><time>2026-05-02T14:27:02.677Z</time></trkpt><trkpt lat="42.9738645" lon="11.5671406"><ele>304.0</ele><time>2026-05-02T14:27:03.672Z</time></trkpt><trkpt lat="42.9739798" lon="11.567069"><ele>304.0</ele><time>2026-05-02T14:27:04.67Z</time></trkpt><trkpt lat="42.9740722" lon="11.5669694"><ele>304.0</ele><time>2026-05-02T14:27:05.666Z</time></trkpt><trkpt lat="42.9741295" lon="11.5668269"><ele>304.0</ele><time>2026-05-02T14:27:06.68Z</time></trkpt><trkpt lat="42.974158" lon="11.5666526"><ele>305.0</ele><time>2026-05-02T14:27:07.665Z</time></trkpt><trkpt lat="42.9741726" lon="11.5664658"><ele>306.0</ele><time>2026-05-02T14:27:08.671Z</time></trkpt><trkpt lat="42.9741986" lon="11.5662694"><ele>307.0</ele><time>2026-05-02T14:27:09.673Z</time></trkpt><trkpt lat="42.9742379" lon="11.5660682"><ele>308.0</ele><time>2026-05-02T14:27:10.668Z</time></trkpt><trkpt lat="42.9742884" lon="11.5658714"><ele>305.0</ele><time>2026-05-02T14:27:11.676Z</time></trkpt><trkpt lat="42.9743411" lon="11.5656736"><ele>302.0</ele><time>2026-05-02T14:27:12.675Z</time></trkpt><trkpt lat="42.9744022" lon="11.5654864"><ele>299.0</ele><time>2026-05-02T14:27:13.67Z</time></trkpt><trkpt lat="42.9744677" lon="11.5653142"><ele>296.0</ele><time>2026-05-02T14:27:14.665Z</time></trkpt><trkpt lat="42.974547" lon="11.5651674"><ele>296.0</ele><time>2026-05-02T14:27:15.662Z</time></trkpt><trkpt lat="42.974635" lon="11.565034"><ele>296.0</ele><time>2026-05-02T14:27:16.667Z</time></trkpt><trkpt lat="42.974736" lon="11.5649112"><ele>296.0</ele><time>2026-05-02T14:27:17.688Z</time></trkpt><trkpt lat="42.9748524" lon="11.5647944"><ele>296.0</ele><time>2026-05-02T14:27:18.674Z</time></trkpt><trkpt lat="42.9749734" lon="11.5646732"><ele>292.0</ele><time>2026-05-02T14:27:19.664Z</time></trkpt><trkpt lat="42.9750865" lon="11.5645464"><ele>288.0</ele><time>2026-05-02T14:27:20.676Z</time></trkpt><trkpt lat="42.9751908" lon="11.564411"><ele>284.0</ele><time>2026-05-02T14:27:21.66Z</time></trkpt><trkpt lat="42.9752806" lon="11.5642611"><ele>280.0</ele><time>2026-05-02T14:27:22.659Z</time></trkpt><trkpt lat="42.975351" lon="11.5640816"><ele>280.0</ele><time>2026-05-02T14:27:23.672Z</time></trkpt><trkpt lat="42.9753966" lon="11.5638826"><ele>280.0</ele><time>2026-05-02T14:27:24.673Z</time></trkpt><trkpt lat="42.975436" lon="11.5636812"><ele>280.0</ele><time>2026-05-02T14:27:25.663Z</time></trkpt><trkpt lat="42.9754819" lon="11.563502"><ele>280.0</ele><time>2026-05-02T14:27:26.675Z</time></trkpt><trkpt lat="42.9755211" lon="11.5633363"><ele>281.4</ele><time>2026-05-02T14:27:27.658Z</time></trkpt><trkpt lat="42.9755408" lon="11.5631827"><ele>282.8</ele><time>2026-05-02T14:27:28.671Z</time></trkpt><trkpt lat="42.9755227" lon="11.5630471"><ele>284.2</ele><time>2026-05-02T14:27:29.663Z</time></trkpt><trkpt lat="42.9754527" lon="11.5629253"><ele>285.6</ele><time>2026-05-02T14:27:30.672Z</time></trkpt><trkpt lat="42.9753474" lon="11.5628537"><ele>287.0</ele><time>2026-05-02T14:27:31.675Z</time></trkpt><trkpt lat="42.9752072" lon="11.562833"><ele>287.0</ele><time>2026-05-02T14:27:32.669Z</time></trkpt><trkpt lat="42.9750569" lon="11.5628309"><ele>287.0</ele><time>2026-05-02T14:27:33.676Z</time></trkpt><trkpt lat="42.974916" lon="11.5628428"><ele>287.0</ele><time>2026-05-02T14:27:34.682Z</time></trkpt><trkpt lat="42.9747768" lon="11.5628316"><ele>287.0</ele><time>2026-05-02T14:27:35.675Z</time></trkpt><trkpt lat="42.974652" lon="11.5627778"><ele>287.5</ele><time>2026-05-02T14:27:36.675Z</time></trkpt><trkpt lat="42.9745335" lon="11.5626844"><ele>288.0</ele><time>2026-05-02T14:27:37.66Z</time></trkpt><trkpt lat="42.9744271" lon="11.5625619"><ele>288.5</ele><time>2026-05-02T14:27:38.67Z</time></trkpt><trkpt lat="42.974337" lon="11.5624315"><ele>289.0</ele><time>2026-05-02T14:27:39.664Z</time></trkpt><trkpt lat="42.9742782" lon="11.5622948"><ele>289.0</ele><time>2026-05-02T14:27:40.671Z</time></trkpt><trkpt lat="42.9742483" lon="11.5621435"><ele>289.0</ele><time>2026-05-02T14:27:41.668Z</time></trkpt><trkpt lat="42.9742408" lon="11.5619945"><ele>289.0</ele><time>2026-05-02T14:27:42.669Z</time></trkpt><trkpt lat="42.9742379" lon="11.5618343"><ele>289.0</ele><time>2026-05-02T14:27:43.668Z</time></trkpt><trkpt lat="42.9742365" lon="11.5616493"><ele>287.5</ele><time>2026-05-02T14:27:44.668Z</time></trkpt><trkpt lat="42.9742231" lon="11.5614598"><ele>286.0</ele><time>2026-05-02T14:27:45.665Z</time></trkpt><trkpt lat="42.9742049" lon="11.5612649"><ele>284.5</ele><time>2026-05-02T14:27:46.673Z</time></trkpt><trkpt lat="42.9741919" lon="11.5610783"><ele>283.0</ele><time>2026-05-02T14:27:47.665Z</time></trkpt><trkpt lat="42.9741749" lon="11.5609156"><ele>283.0</ele><time>2026-05-02T14:27:48.672Z</time></trkpt><trkpt lat="42.9741366" lon="11.5607706"><ele>283.0</ele><time>2026-05-02T14:27:49.67Z</time></trkpt><trkpt lat="42.974058" lon="11.5606617"><ele>283.0</ele><time>2026-05-02T14:27:50.666Z</time></trkpt><trkpt lat="42.973939" lon="11.5605981"><ele>283.0</ele><time>2026-05-02T14:27:51.667Z</time></trkpt><trkpt lat="42.9738038" lon="11.5605796"><ele>283.0</ele><time>2026-05-02T14:27:52.673Z</time></trkpt><trkpt lat="42.9736669" lon="11.5605954"><ele>283.0</ele><time>2026-05-02T14:27:53.666Z</time></trkpt><trkpt lat="42.9735463" lon="11.5606029"><ele>283.0</ele><time>2026-05-02T14:27:54.672Z</time></trkpt><trkpt lat="42.9734355" lon="11.5605867"><ele>283.0</ele><time>2026-05-02T14:27:55.67Z</time></trkpt><trkpt lat="42.9733452" lon="11.5605217"><ele>283.6</ele><time>2026-05-02T14:27:56.654Z</time></trkpt><trkpt lat="42.9732856" lon="11.5604206"><ele>284.20000000000005</ele><time>2026-05-02T14:27:57.656Z</time></trkpt><trkpt lat="42.9732738" lon="11.5602979"><ele>284.8</ele><time>2026-05-02T14:27:58.665Z</time></trkpt><trkpt lat="42.9733206" lon="11.5601879"><ele>285.40000000000003</ele><time>2026-05-02T14:27:59.671Z</time></trkpt><trkpt lat="42.9733932" lon="11.5600853"><ele>286.0</ele><time>2026-05-02T14:28:00.667Z</time></trkpt><trkpt lat="42.9734848" lon="11.5599726"><ele>283.75</ele><time>2026-05-02T14:28:01.663Z</time></trkpt><trkpt lat="42.97358" lon="11.5598497"><ele>281.5</ele><time>2026-05-02T14:28:02.661Z</time></trkpt><trkpt lat="42.9736785" lon="11.5597208"><ele>279.25</ele><time>2026-05-02T14:28:03.662Z</time></trkpt><trkpt lat="42.9737868" lon="11.5596062"><ele>277.0</ele><time>2026-05-02T14:28:04.654Z</time></trkpt><trkpt lat="42.9738938" lon="11.559505"><ele>277.0</ele><time>2026-05-02T14:28:05.666Z</time></trkpt><trkpt lat="42.9740061" lon="11.559434"><ele>277.0</ele><time>2026-05-02T14:28:06.674Z</time></trkpt><trkpt lat="42.9741147" lon="11.5593746"><ele>277.0</ele><time>2026-05-02T14:28:07.66Z</time></trkpt><trkpt lat="42.9742167" lon="11.5593052"><ele>277.0</ele><time>2026-05-02T14:28:08.655Z</time></trkpt><trkpt lat="42.9743024" lon="11.5591991"><ele>274.8</ele><time>2026-05-02T14:28:09.665Z</time></trkpt><trkpt lat="42.9743632" lon="11.5590667"><ele>272.6</ele><time>2026-05-02T14:28:10.66Z</time></trkpt><trkpt lat="42.974411" lon="11.5589248"><ele>270.40000000000003</ele><time>2026-05-02T14:28:11.658Z</time></trkpt><trkpt lat="42.9744755" lon="11.5588098"><ele>268.2</ele><time>2026-05-02T14:28:12.66Z</time></trkpt><trkpt lat="42.9745662" lon="11.5587369"><ele>266.0</ele><time>2026-05-02T14:28:13.664Z</time></trkpt><trkpt lat="42.9746662" lon="11.558725"><ele>266.0</ele><time>2026-05-02T14:28:14.66Z</time></trkpt><trkpt lat="42.9747793" lon="11.5587749"><ele>266.0</ele><time>2026-05-02T14:28:15.657Z</time></trkpt><trkpt lat="42.9748811" lon="11.5588529"><ele>266.0</ele><time>2026-05-02T14:28:16.659Z</time></trkpt><trkpt lat="42.9749791" lon="11.5589224"><ele>266.0</ele><time>2026-05-02T14:28:17.66Z</time></trkpt><trkpt lat="42.9750797" lon="11.558957"><ele>264.8</ele><time>2026-05-02T14:28:18.663Z</time></trkpt><trkpt lat="42.9751767" lon="11.55895"><ele>263.6</ele><time>2026-05-02T14:28:19.665Z</time></trkpt><trkpt lat="42.9752794" lon="11.5589016"><ele>262.4</ele><time>2026-05-02T14:28:20.666Z</time></trkpt><trkpt lat="42.97538" lon="11.5588211"><ele>261.2</ele><time>2026-05-02T14:28:21.667Z</time></trkpt><trkpt lat="42.9754817" lon="11.5587351"><ele>260.0</ele><time>2026-05-02T14:28:22.656Z</time></trkpt><trkpt lat="42.9755983" lon="11.5586705"><ele>261.0</ele><time>2026-05-02T14:28:23.66Z</time></trkpt><trkpt lat="42.9757286" lon="11.5586357"><ele>262.0</ele><time>2026-05-02T14:28:24.666Z</time></trkpt><trkpt lat="42.9758644" lon="11.5586397"><ele>263.0</ele><time>2026-05-02T14:28:25.654Z</time></trkpt><trkpt lat="42.9760034" lon="11.558662"><ele>264.0</ele><time>2026-05-02T14:28:26.661Z</time></trkpt><trkpt lat="42.9761461" lon="11.5586778"><ele>264.0</ele><time>2026-05-02T14:28:27.668Z</time></trkpt><trkpt lat="42.9762901" lon="11.558699"><ele>264.0</ele><time>2026-05-02T14:28:28.664Z</time></trkpt><trkpt lat="42.9764373" lon="11.5586934"><ele>264.0</ele><time>2026-05-02T14:28:29.654Z</time></trkpt><trkpt lat="42.976579" lon="11.5586629"><ele>264.0</ele><time>2026-05-02T14:28:30.693Z</time></trkpt><trkpt lat="42.9767084" lon="11.5585945"><ele>261.25</ele><time>2026-05-02T14:28:31.667Z</time></trkpt><trkpt lat="42.9768167" lon="11.5584973"><ele>258.5</ele><time>2026-05-02T14:28:32.663Z</time></trkpt><trkpt lat="42.9769258" lon="11.5583994"><ele>255.75</ele><time>2026-05-02T14:28:33.658Z</time></trkpt><trkpt lat="42.9770364" lon="11.5583462"><ele>253.0</ele><time>2026-05-02T14:28:34.661Z</time></trkpt><trkpt lat="42.9771479" lon="11.5583322"><ele>253.0</ele><time>2026-05-02T14:28:35.665Z</time></trkpt><trkpt lat="42.9772581" lon="11.5583521"><ele>253.0</ele><time>2026-05-02T14:28:36.664Z</time></trkpt><trkpt lat="42.9773609" lon="11.5583934"><ele>253.0</ele><time>2026-05-02T14:28:37.657Z</time></trkpt><trkpt lat="42.9774655" lon="11.5584284"><ele>253.0</ele><time>2026-05-02T14:28:38.666Z</time></trkpt><trkpt lat="42.9775672" lon="11.5584332"><ele>253.0</ele><time>2026-05-02T14:28:39.656Z</time></trkpt><trkpt lat="42.9776633" lon="11.5583836"><ele>250.25</ele><time>2026-05-02T14:28:40.664Z</time></trkpt><trkpt lat="42.977749" lon="11.5582777"><ele>247.5</ele><time>2026-05-02T14:28:41.667Z</time></trkpt><trkpt lat="42.9778403" lon="11.5581461"><ele>244.75</ele><time>2026-05-02T14:28:42.662Z</time></trkpt><trkpt lat="42.9779226" lon="11.5580156"><ele>242.0</ele><time>2026-05-02T14:28:43.661Z</time></trkpt><trkpt lat="42.9780086" lon="11.557891"><ele>243.0</ele><time>2026-05-02T14:28:44.668Z</time></trkpt><trkpt lat="42.9780933" lon="11.5577692"><ele>244.0</ele><time>2026-05-02T14:28:45.665Z</time></trkpt><trkpt lat="42.9781768" lon="11.5576347"><ele>245.0</ele><time>2026-05-02T14:28:46.681Z</time></trkpt><trkpt lat="42.9782604" lon="11.5574861"><ele>246.0</ele><time>2026-05-02T14:28:47.67Z</time></trkpt><trkpt lat="42.9783321" lon="11.5573236"><ele>242.25</ele><time>2026-05-02T14:28:48.674Z</time></trkpt><trkpt lat="42.9783986" lon="11.5571538"><ele>238.5</ele><time>2026-05-02T14:28:49.669Z</time></trkpt><trkpt lat="42.9784721" lon="11.556984"><ele>234.75</ele><time>2026-05-02T14:28:50.667Z</time></trkpt><trkpt lat="42.9785484" lon="11.5568194"><ele>231.0</ele><time>2026-05-02T14:28:51.666Z</time></trkpt><trkpt lat="42.9786203" lon="11.5566705"><ele>231.0</ele><time>2026-05-02T14:28:52.668Z</time></trkpt><trkpt lat="42.9786949" lon="11.5565243"><ele>231.0</ele><time>2026-05-02T14:28:53.657Z</time></trkpt><trkpt lat="42.9787733" lon="11.556406"><ele>231.0</ele><time>2026-05-02T14:28:54.656Z</time></trkpt><trkpt lat="42.9788636" lon="11.5563063"><ele>231.0</ele><time>2026-05-02T14:28:55.664Z</time></trkpt><trkpt lat="42.9789678" lon="11.5562236"><ele>232.0</ele><time>2026-05-02T14:28:56.667Z</time></trkpt><trkpt lat="42.979071" lon="11.5561459"><ele>233.0</ele><time>2026-05-02T14:28:57.67Z</time></trkpt><trkpt lat="42.9791673" lon="11.55605"><ele>234.0</ele><time>2026-05-02T14:28:58.672Z</time></trkpt><trkpt lat="42.9792439" lon="11.555929"><ele>235.0</ele><time>2026-05-02T14:28:59.67Z</time></trkpt><trkpt lat="42.9792903" lon="11.5557787"><ele>234.0</ele><time>2026-05-02T14:29:00.67Z</time></trkpt><trkpt lat="42.9792986" lon="11.5556053"><ele>233.0</ele><time>2026-05-02T14:29:01.668Z</time></trkpt><trkpt lat="42.9792638" lon="11.5554286"><ele>232.0</ele><time>2026-05-02T14:29:02.683Z</time></trkpt><trkpt lat="42.9792127" lon="11.5552516"><ele>231.0</ele><time>2026-05-02T14:29:03.668Z</time></trkpt><trkpt lat="42.9791664" lon="11.5550616"><ele>231.0</ele><time>2026-05-02T14:29:04.669Z</time></trkpt><trkpt lat="42.9791276" lon="11.5548626"><ele>231.0</ele><time>2026-05-02T14:29:05.665Z</time></trkpt><trkpt lat="42.979099" lon="11.5546487"><ele>231.0</ele><time>2026-05-02T14:29:06.676Z</time></trkpt><trkpt lat="42.9790807" lon="11.5544384"><ele>230.33333333333331</ele><time>2026-05-02T14:29:07.671Z</time></trkpt><trkpt lat="42.9790569" lon="11.5542215"><ele>229.66666666666666</ele><time>2026-05-02T14:29:08.68Z</time></trkpt><trkpt lat="42.979034" lon="11.5540085"><ele>229.0</ele><time>2026-05-02T14:29:09.673Z</time></trkpt><trkpt lat="42.9790097" lon="11.5538017"><ele>228.0</ele><time>2026-05-02T14:29:10.666Z</time></trkpt><trkpt lat="42.9789887" lon="11.5535975"><ele>227.0</ele><time>2026-05-02T14:29:11.675Z</time></trkpt><trkpt lat="42.9789518" lon="11.5533996"><ele>226.0</ele><time>2026-05-02T14:29:12.665Z</time></trkpt><trkpt lat="42.978908" lon="11.5532169"><ele>225.0</ele><time>2026-05-02T14:29:13.665Z</time></trkpt><trkpt lat="42.9788525" lon="11.5530514"><ele>225.0</ele><time>2026-05-02T14:29:14.662Z</time></trkpt><trkpt lat="42.9787781" lon="11.5529087"><ele>225.0</ele><time>2026-05-02T14:29:15.674Z</time></trkpt><trkpt lat="42.9786921" lon="11.552802"><ele>225.0</ele><time>2026-05-02T14:29:16.672Z</time></trkpt><trkpt lat="42.9785795" lon="11.5527687"><ele>225.0</ele><time>2026-05-02T14:29:17.665Z</time></trkpt><trkpt lat="42.9784526" lon="11.5528126"><ele>226.5</ele><time>2026-05-02T14:29:18.676Z</time></trkpt><trkpt lat="42.9783321" lon="11.5529089"><ele>228.0</ele><time>2026-05-02T14:29:19.666Z</time></trkpt><trkpt lat="42.9782166" lon="11.5530181"><ele>229.5</ele><time>2026-05-02T14:29:20.671Z</time></trkpt><trkpt lat="42.9780898" lon="11.553119"><ele>231.0</ele><time>2026-05-02T14:29:21.655Z</time></trkpt><trkpt lat="42.9779543" lon="11.5531847"><ele>231.0</ele><time>2026-05-02T14:29:22.664Z</time></trkpt><trkpt lat="42.9778238" lon="11.553207"><ele>231.0</ele><time>2026-05-02T14:29:23.664Z</time></trkpt><trkpt lat="42.9776934" lon="11.5532019"><ele>231.0</ele><time>2026-05-02T14:29:24.677Z</time></trkpt><trkpt lat="42.9775707" lon="11.5531735"><ele>231.0</ele><time>2026-05-02T14:29:25.665Z</time></trkpt><trkpt lat="42.9774614" lon="11.5531133"><ele>230.8</ele><time>2026-05-02T14:29:26.667Z</time></trkpt><trkpt lat="42.9773775" lon="11.5530116"><ele>230.60000000000002</ele><time>2026-05-02T14:29:27.67Z</time></trkpt><trkpt lat="42.9773166" lon="11.5528963"><ele>230.4</ele><time>2026-05-02T14:29:28.664Z</time></trkpt><trkpt lat="42.9772797" lon="11.5527675"><ele>230.2</ele><time>2026-05-02T14:29:29.67Z</time></trkpt><trkpt lat="42.9772407" lon="11.5526538"><ele>230.0</ele><time>2026-05-02T14:29:30.672Z</time></trkpt><trkpt lat="42.9771854" lon="11.5525522"><ele>225.75</ele><time>2026-05-02T14:29:31.663Z</time></trkpt><trkpt lat="42.9771023" lon="11.5524757"><ele>221.5</ele><time>2026-05-02T14:29:32.661Z</time></trkpt><trkpt lat="42.9769905" lon="11.5524404"><ele>217.25</ele><time>2026-05-02T14:29:33.663Z</time></trkpt><trkpt lat="42.976868" lon="11.5524298"><ele>213.0</ele><time>2026-05-02T14:29:34.663Z</time></trkpt><trkpt lat="42.976741" lon="11.5524342"><ele>214.0</ele><time>2026-05-02T14:29:35.668Z</time></trkpt><trkpt lat="42.976616" lon="11.5524083"><ele>215.0</ele><time>2026-05-02T14:29:36.658Z</time></trkpt><trkpt lat="42.9764927" lon="11.5523562"><ele>216.0</ele><time>2026-05-02T14:29:37.661Z</time></trkpt><trkpt lat="42.9763686" lon="11.5522866"><ele>217.0</ele><time>2026-05-02T14:29:38.665Z</time></trkpt><trkpt lat="42.9762413" lon="11.5522182"><ele>217.0</ele><time>2026-05-02T14:29:39.672Z</time></trkpt><trkpt lat="42.9761251" lon="11.5521662"><ele>217.0</ele><time>2026-05-02T14:29:40.666Z</time></trkpt><trkpt lat="42.9760151" lon="11.5521135"><ele>217.0</ele><time>2026-05-02T14:29:41.66Z</time></trkpt><trkpt lat="42.9759154" lon="11.5520622"><ele>217.0</ele><time>2026-05-02T14:29:42.663Z</time></trkpt><trkpt lat="42.9758228" lon="11.5519894"><ele>216.6</ele><time>2026-05-02T14:29:43.659Z</time></trkpt><trkpt lat="42.975748" lon="11.551895"><ele>216.2</ele><time>2026-05-02T14:29:44.672Z</time></trkpt><trkpt lat="42.9757111" lon="11.5517736"><ele>215.8</ele><time>2026-05-02T14:29:45.671Z</time></trkpt><trkpt lat="42.9757096" lon="11.551656"><ele>215.4</ele><time>2026-05-02T14:29:46.67Z</time></trkpt><trkpt lat="42.9757478" lon="11.5515223"><ele>215.0</ele><time>2026-05-02T14:29:47.671Z</time></trkpt><trkpt lat="42.9758167" lon="11.5513836"><ele>212.25</ele><time>2026-05-02T14:29:48.672Z</time></trkpt><trkpt lat="42.9758882" lon="11.551233"><ele>209.5</ele><time>2026-05-02T14:29:49.668Z</time></trkpt><trkpt lat="42.9759537" lon="11.5510614"><ele>206.75</ele><time>2026-05-02T14:29:50.659Z</time></trkpt><trkpt lat="42.9759837" lon="11.5508726"><ele>204.0</ele><time>2026-05-02T14:29:51.662Z</time></trkpt><trkpt lat="42.9759986" lon="11.5506815"><ele>202.0</ele><time>2026-05-02T14:29:52.668Z</time></trkpt><trkpt lat="42.9760155" lon="11.5505"><ele>200.0</ele><time>2026-05-02T14:29:53.662Z</time></trkpt><trkpt lat="42.9760552" lon="11.5503438"><ele>198.0</ele><time>2026-05-02T14:29:54.659Z</time></trkpt><trkpt lat="42.976116" lon="11.5501986"><ele>196.0</ele><time>2026-05-02T14:29:55.656Z</time></trkpt><trkpt lat="42.976191" lon="11.5500627"><ele>195.25</ele><time>2026-05-02T14:29:56.667Z</time></trkpt><trkpt lat="42.97627" lon="11.549927"><ele>194.5</ele><time>2026-05-02T14:29:57.67Z</time></trkpt><trkpt lat="42.9763458" lon="11.54979"><ele>193.75</ele><time>2026-05-02T14:29:58.664Z</time></trkpt><trkpt lat="42.9764139" lon="11.5496512"><ele>193.0</ele><time>2026-05-02T14:29:59.663Z</time></trkpt><trkpt lat="42.9764643" lon="11.5495202"><ele>191.0</ele><time>2026-05-02T14:30:00.667Z</time></trkpt><trkpt lat="42.9764901" lon="11.5493973"><ele>189.0</ele><time>2026-05-02T14:30:01.659Z</time></trkpt><trkpt lat="42.9764844" lon="11.549274"><ele>187.0</ele><time>2026-05-02T14:30:02.661Z</time></trkpt><trkpt lat="42.97644" lon="11.5491639"><ele>185.0</ele><time>2026-05-02T14:30:03.658Z</time></trkpt><trkpt lat="42.9763695" lon="11.5490746"><ele>183.0</ele><time>2026-05-02T14:30:04.664Z</time></trkpt><trkpt lat="42.9762847" lon="11.5489884"><ele>183.0</ele><time>2026-05-02T14:30:05.66Z</time></trkpt><trkpt lat="42.9761953" lon="11.5488792"><ele>183.0</ele><time>2026-05-02T14:30:06.663Z</time></trkpt><trkpt lat="42.9761042" lon="11.5487556"><ele>183.0</ele><time>2026-05-02T14:30:07.674Z</time></trkpt><trkpt lat="42.9760267" lon="11.548608"><ele>183.0</ele><time>2026-05-02T14:30:08.676Z</time></trkpt><trkpt lat="42.9759599" lon="11.5484569"><ele>184.75</ele><time>2026-05-02T14:30:09.66Z</time></trkpt><trkpt lat="42.9758869" lon="11.548324"><ele>186.5</ele><time>2026-05-02T14:30:10.662Z</time></trkpt><trkpt lat="42.9758103" lon="11.5482036"><ele>188.25</ele><time>2026-05-02T14:30:11.669Z</time></trkpt><trkpt lat="42.9757286" lon="11.5481016"><ele>190.0</ele><time>2026-05-02T14:30:12.675Z</time></trkpt><trkpt lat="42.9756644" lon="11.5479928"><ele>190.0</ele><time>2026-05-02T14:30:13.668Z</time></trkpt><trkpt lat="42.975623" lon="11.5478819"><ele>190.0</ele><time>2026-05-02T14:30:14.666Z</time></trkpt><trkpt lat="42.9756208" lon="11.5477679"><ele>190.0</ele><time>2026-05-02T14:30:15.671Z</time></trkpt><trkpt lat="42.9756426" lon="11.5476737"><ele>190.0</ele><time>2026-05-02T14:30:16.663Z</time></trkpt><trkpt lat="42.9756965" lon="11.547587"><ele>190.0</ele><time>2026-05-02T14:30:17.662Z</time></trkpt><trkpt lat="42.9757653" lon="11.5474878"><ele>190.0</ele><time>2026-05-02T14:30:18.673Z</time></trkpt><trkpt lat="42.9758389" lon="11.547378"><ele>185.0</ele><time>2026-05-02T14:30:19.666Z</time></trkpt><trkpt lat="42.9759255" lon="11.5472524"><ele>180.0</ele><time>2026-05-02T14:30:20.666Z</time></trkpt><trkpt lat="42.9760185" lon="11.5471281"><ele>175.0</ele><time>2026-05-02T14:30:21.656Z</time></trkpt><trkpt lat="42.9761207" lon="11.5470003"><ele>170.0</ele><time>2026-05-02T14:30:22.663Z</time></trkpt><trkpt lat="42.9762177" lon="11.5468826"><ele>170.0</ele><time>2026-05-02T14:30:23.67Z</time></trkpt><trkpt lat="42.9762964" lon="11.546778"><ele>170.0</ele><time>2026-05-02T14:30:24.674Z</time></trkpt><trkpt lat="42.9763639" lon="11.5466853"><ele>170.0</ele><time>2026-05-02T14:30:25.664Z</time></trkpt><trkpt lat="42.9764279" lon="11.546606"><ele>170.0</ele><time>2026-05-02T14:30:26.672Z</time></trkpt><trkpt lat="42.9764969" lon="11.5465554"><ele>170.0</ele><time>2026-05-02T14:30:27.669Z</time></trkpt><trkpt lat="42.9765706" lon="11.5465528"><ele>170.0</ele><time>2026-05-02T14:30:28.656Z</time></trkpt><trkpt lat="42.9766347" lon="11.5465983"><ele>170.6</ele><time>2026-05-02T14:30:29.666Z</time></trkpt><trkpt lat="42.9766889" lon="11.5466784"><ele>171.2</ele><time>2026-05-02T14:30:30.665Z</time></trkpt><trkpt lat="42.9767525" lon="11.5467677"><ele>171.8</ele><time>2026-05-02T14:30:31.669Z</time></trkpt><trkpt lat="42.9768146" lon="11.5468664"><ele>172.4</ele><time>2026-05-02T14:30:32.673Z</time></trkpt><trkpt lat="42.976887" lon="11.5469593"><ele>173.0</ele><time>2026-05-02T14:30:33.669Z</time></trkpt><trkpt lat="42.9769514" lon="11.5470469"><ele>173.0</ele><time>2026-05-02T14:30:34.66Z</time></trkpt><trkpt lat="42.9770171" lon="11.5471147"><ele>173.0</ele><time>2026-05-02T14:30:35.663Z</time></trkpt><trkpt lat="42.9770853" lon="11.5471511"><ele>173.0</ele><time>2026-05-02T14:30:36.663Z</time></trkpt><trkpt lat="42.97715" lon="11.5471429"><ele>173.0</ele><time>2026-05-02T14:30:37.657Z</time></trkpt><trkpt lat="42.9772378" lon="11.5470432"><ele>173.0</ele><time>2026-05-02T14:30:39.671Z</time></trkpt><trkpt lat="42.9772727" lon="11.5469192"><ele>173.0</ele><time>2026-05-02T14:30:41.658Z</time></trkpt><trkpt lat="42.9772213" lon="11.5467731"><ele>174.66666666666666</ele><time>2026-05-02T14:30:43.679Z</time></trkpt><trkpt lat="42.9771729" lon="11.5467174"><ele>176.33333333333331</ele><time>2026-05-02T14:30:44.666Z</time></trkpt><trkpt lat="42.9771304" lon="11.5466304"><ele>178.0</ele><time>2026-05-02T14:30:46.66Z</time></trkpt><trkpt lat="42.9772184" lon="11.5466313"><ele>179.66666666666666</ele><time>2026-05-02T14:30:49.662Z</time></trkpt><trkpt lat="42.9772756" lon="11.5467106"><ele>181.33333333333334</ele><time>2026-05-02T14:30:50.671Z</time></trkpt><trkpt lat="42.9773515" lon="11.5468043"><ele>183.0</ele><time>2026-05-02T14:30:51.669Z</time></trkpt><trkpt lat="42.9774365" lon="11.5468947"><ele>182.25</ele><time>2026-05-02T14:30:52.682Z</time></trkpt><trkpt lat="42.9775247" lon="11.5470059"><ele>181.5</ele><time>2026-05-02T14:30:53.659Z</time></trkpt><trkpt lat="42.9776202" lon="11.5471123"><ele>180.75</ele><time>2026-05-02T14:30:54.679Z</time></trkpt><trkpt lat="42.9777189" lon="11.5471923"><ele>180.0</ele><time>2026-05-02T14:30:55.659Z</time></trkpt><trkpt lat="42.9778154" lon="11.5472442"><ele>180.0</ele><time>2026-05-02T14:30:56.665Z</time></trkpt><trkpt lat="42.9779097" lon="11.5472862"><ele>180.0</ele><time>2026-05-02T14:30:57.675Z</time></trkpt><trkpt lat="42.9779985" lon="11.5473176"><ele>180.0</ele><time>2026-05-02T14:30:58.665Z</time></trkpt><trkpt lat="42.9780759" lon="11.5473444"><ele>180.0</ele><time>2026-05-02T14:30:59.656Z</time></trkpt><trkpt lat="42.9781475" lon="11.547366"><ele>180.0</ele><time>2026-05-02T14:31:00.664Z</time></trkpt><trkpt lat="42.9782166" lon="11.5473665"><ele>180.0</ele><time>2026-05-02T14:31:01.667Z</time></trkpt><trkpt lat="42.9782865" lon="11.5473416"><ele>180.0</ele><time>2026-05-02T14:31:02.667Z</time></trkpt><trkpt lat="42.9783505" lon="11.5472864"><ele>180.0</ele><time>2026-05-02T14:31:03.667Z</time></trkpt><trkpt lat="42.9783922" lon="11.5472145"><ele>180.0</ele><time>2026-05-02T14:31:04.663Z</time></trkpt><trkpt lat="42.9784176" lon="11.5471285"><ele>180.0</ele><time>2026-05-02T14:31:05.665Z</time></trkpt><trkpt lat="42.9783833" lon="11.5469626"><ele>180.0</ele><time>2026-05-02T14:31:07.659Z</time></trkpt><trkpt lat="42.978339" lon="11.5468909"><ele>180.0</ele><time>2026-05-02T14:31:08.674Z</time></trkpt><trkpt lat="42.9782685" lon="11.5468526"><ele>181.66666666666666</ele><time>2026-05-02T14:31:09.666Z</time></trkpt><trkpt lat="42.9781835" lon="11.5468336"><ele>183.33333333333334</ele><time>2026-05-02T14:31:10.657Z</time></trkpt><trkpt lat="42.9781024" lon="11.5468208"><ele>185.0</ele><time>2026-05-02T14:31:11.665Z</time></trkpt><trkpt lat="42.9780325" lon="11.5468148"><ele>186.66666666666669</ele><time>2026-05-02T14:31:12.67Z</time></trkpt><trkpt lat="42.9779693" lon="11.5467999"><ele>188.33333333333334</ele><time>2026-05-02T14:31:13.674Z</time></trkpt><trkpt lat="42.977868" lon="11.5467302"><ele>190.0</ele><time>2026-05-02T14:31:15.662Z</time></trkpt><trkpt lat="42.9778241" lon="11.5465821"><ele>190.0</ele><time>2026-05-02T14:31:17.667Z</time></trkpt><trkpt lat="42.9778105" lon="11.546491"><ele>190.0</ele><time>2026-05-02T14:31:18.686Z</time></trkpt><trkpt lat="42.9778193" lon="11.5463749"><ele>190.0</ele><time>2026-05-02T14:31:19.665Z</time></trkpt><trkpt lat="42.9778603" lon="11.5462609"><ele>190.0</ele><time>2026-05-02T14:31:20.666Z</time></trkpt><trkpt lat="42.9779239" lon="11.5461561"><ele>190.0</ele><time>2026-05-02T14:31:21.669Z</time></trkpt><trkpt lat="42.9780089" lon="11.5460673"><ele>192.0</ele><time>2026-05-02T14:31:22.678Z</time></trkpt><trkpt lat="42.9781232" lon="11.545982"><ele>194.0</ele><time>2026-05-02T14:31:23.661Z</time></trkpt><trkpt lat="42.9782534" lon="11.5458609"><ele>196.0</ele><time>2026-05-02T14:31:24.677Z</time></trkpt><trkpt lat="42.978415" lon="11.5457177"><ele>196.0</ele><time>2026-05-02T14:31:25.667Z</time></trkpt><trkpt lat="42.9785821" lon="11.5455467"><ele>196.0</ele><time>2026-05-02T14:31:26.667Z</time></trkpt><trkpt lat="42.9787396" lon="11.545353"><ele>196.0</ele><time>2026-05-02T14:31:27.671Z</time></trkpt><trkpt lat="42.9788779" lon="11.5451701"><ele>199.33333333333331</ele><time>2026-05-02T14:31:28.671Z</time></trkpt><trkpt lat="42.9790032" lon="11.54504"><ele>202.66666666666669</ele><time>2026-05-02T14:31:29.662Z</time></trkpt><trkpt lat="42.9791477" lon="11.544994"><ele>206.0</ele><time>2026-05-02T14:31:30.673Z</time></trkpt><trkpt lat="42.9793137" lon="11.5449921"><ele>206.0</ele><time>2026-05-02T14:31:31.667Z</time></trkpt><trkpt lat="42.9795076" lon="11.5450083"><ele>206.0</ele><time>2026-05-02T14:31:32.658Z</time></trkpt><trkpt lat="42.9796924" lon="11.5450099"><ele>206.0</ele><time>2026-05-02T14:31:33.667Z</time></trkpt><trkpt lat="42.9798457" lon="11.5449805"><ele>206.0</ele><time>2026-05-02T14:31:34.667Z</time></trkpt><trkpt lat="42.9799659" lon="11.5448966"><ele>206.0</ele><time>2026-05-02T14:31:35.678Z</time></trkpt><trkpt lat="42.9800895" lon="11.5447427"><ele>206.0</ele><time>2026-05-02T14:31:36.656Z</time></trkpt><trkpt lat="42.9802049" lon="11.5445249"><ele>209.75</ele><time>2026-05-02T14:31:37.665Z</time></trkpt><trkpt lat="42.980313" lon="11.5443176"><ele>213.5</ele><time>2026-05-02T14:31:38.669Z</time></trkpt><trkpt lat="42.9804148" lon="11.5441963"><ele>217.25</ele><time>2026-05-02T14:31:39.657Z</time></trkpt><trkpt lat="42.9805236" lon="11.5441681"><ele>221.0</ele><time>2026-05-02T14:31:40.659Z</time></trkpt><trkpt lat="42.980644" lon="11.5442089"><ele>221.0</ele><time>2026-05-02T14:31:41.653Z</time></trkpt><trkpt lat="42.9807649" lon="11.5442535"><ele>221.0</ele><time>2026-05-02T14:31:42.667Z</time></trkpt><trkpt lat="42.9808922" lon="11.5442665"><ele>221.0</ele><time>2026-05-02T14:31:43.667Z</time></trkpt><trkpt lat="42.9810281" lon="11.5441804"><ele>221.0</ele><time>2026-05-02T14:31:44.672Z</time></trkpt><trkpt lat="42.9811749" lon="11.5439625"><ele>219.0</ele><time>2026-05-02T14:31:45.667Z</time></trkpt><trkpt lat="42.9813194" lon="11.5437581"><ele>217.0</ele><time>2026-05-02T14:31:46.666Z</time></trkpt><trkpt lat="42.9814752" lon="11.5436144"><ele>215.0</ele><time>2026-05-02T14:31:47.667Z</time></trkpt><trkpt lat="42.9816533" lon="11.5435052"><ele>219.33333333333334</ele><time>2026-05-02T14:31:48.666Z</time></trkpt><trkpt lat="42.9818636" lon="11.5434199"><ele>223.66666666666669</ele><time>2026-05-02T14:31:49.667Z</time></trkpt><trkpt lat="42.9820342" lon="11.5433367"><ele>228.0</ele><time>2026-05-02T14:31:50.662Z</time></trkpt><trkpt lat="42.982161" lon="11.5432378"><ele>228.0</ele><time>2026-05-02T14:31:51.664Z</time></trkpt><trkpt lat="42.9822704" lon="11.5430838"><ele>228.0</ele><time>2026-05-02T14:31:52.668Z</time></trkpt><trkpt lat="42.9823766" lon="11.5428656"><ele>228.0</ele><time>2026-05-02T14:31:53.661Z</time></trkpt><trkpt lat="42.9824773" lon="11.5426889"><ele>231.25</ele><time>2026-05-02T14:31:54.665Z</time></trkpt><trkpt lat="42.9825877" lon="11.5425858"><ele>234.5</ele><time>2026-05-02T14:31:55.667Z</time></trkpt><trkpt lat="42.9827093" lon="11.5425265"><ele>237.75</ele><time>2026-05-02T14:31:56.664Z</time></trkpt><trkpt lat="42.9828753" lon="11.5425257"><ele>241.0</ele><time>2026-05-02T14:31:57.663Z</time></trkpt><trkpt lat="42.9830873" lon="11.5425837"><ele>241.0</ele><time>2026-05-02T14:31:58.65Z</time></trkpt><trkpt lat="42.9833233" lon="11.5426462"><ele>241.0</ele><time>2026-05-02T14:31:59.657Z</time></trkpt><trkpt lat="42.9835187" lon="11.5426906"><ele>241.0</ele><time>2026-05-02T14:32:00.667Z</time></trkpt><trkpt lat="42.9836777" lon="11.5427467"><ele>241.75</ele><time>2026-05-02T14:32:01.668Z</time></trkpt><trkpt lat="42.9837984" lon="11.5427566"><ele>242.5</ele><time>2026-05-02T14:32:02.662Z</time></trkpt><trkpt lat="42.9838937" lon="11.5426925"><ele>243.25</ele><time>2026-05-02T14:32:03.676Z</time></trkpt><trkpt lat="42.9839917" lon="11.542551"><ele>244.0</ele><time>2026-05-02T14:32:04.666Z</time></trkpt><trkpt lat="42.9840786" lon="11.5423239"><ele>244.0</ele><time>2026-05-02T14:32:05.669Z</time></trkpt><trkpt lat="42.9841717" lon="11.5420496"><ele>244.0</ele><time>2026-05-02T14:32:06.664Z</time></trkpt><trkpt lat="42.9842804" lon="11.5417785"><ele>244.0</ele><time>2026-05-02T14:32:07.662Z</time></trkpt><trkpt lat="42.9843863" lon="11.5415267"><ele>243.75</ele><time>2026-05-02T14:32:08.67Z</time></trkpt><trkpt lat="42.9844794" lon="11.5413085"><ele>243.5</ele><time>2026-05-02T14:32:09.667Z</time></trkpt><trkpt lat="42.9845545" lon="11.5411286"><ele>243.25</ele><time>2026-05-02T14:32:10.664Z</time></trkpt><trkpt lat="42.9845943" lon="11.5409854"><ele>243.0</ele><time>2026-05-02T14:32:11.664Z</time></trkpt><trkpt lat="42.9845951" lon="11.5408694"><ele>245.0</ele><time>2026-05-02T14:32:12.665Z</time></trkpt><trkpt lat="42.9845454" lon="11.5407469"><ele>247.0</ele><time>2026-05-02T14:32:13.664Z</time></trkpt><trkpt lat="42.9844263" lon="11.5406679"><ele>249.0</ele><time>2026-05-02T14:32:14.668Z</time></trkpt><trkpt lat="42.9842691" lon="11.540624"><ele>251.0</ele><time>2026-05-02T14:32:15.658Z</time></trkpt><trkpt lat="42.9840792" lon="11.5406256"><ele>253.0</ele><time>2026-05-02T14:32:16.664Z</time></trkpt><trkpt lat="42.9838694" lon="11.5406292"><ele>255.0</ele><time>2026-05-02T14:32:17.656Z</time></trkpt><trkpt lat="42.9836645" lon="11.5406251"><ele>257.0</ele><time>2026-05-02T14:32:18.671Z</time></trkpt><trkpt lat="42.9834535" lon="11.5406047"><ele>258.6666666666667</ele><time>2026-05-02T14:32:19.667Z</time></trkpt><trkpt lat="42.9832398" lon="11.5405905"><ele>260.3333333333333</ele><time>2026-05-02T14:32:20.665Z</time></trkpt><trkpt lat="42.9830316" lon="11.5405787"><ele>262.0</ele><time>2026-05-02T14:32:21.679Z</time></trkpt><trkpt lat="42.9828361" lon="11.5405764"><ele>262.0</ele><time>2026-05-02T14:32:22.669Z</time></trkpt><trkpt lat="42.9826627" lon="11.5405758"><ele>262.0</ele><time>2026-05-02T14:32:23.666Z</time></trkpt><trkpt lat="42.9825093" lon="11.5405626"><ele>262.0</ele><time>2026-05-02T14:32:24.672Z</time></trkpt><trkpt lat="42.9823829" lon="11.5405267"><ele>262.4</ele><time>2026-05-02T14:32:25.666Z</time></trkpt><trkpt lat="42.9822944" lon="11.5404483"><ele>262.79999999999995</ele><time>2026-05-02T14:32:26.657Z</time></trkpt><trkpt lat="42.9822358" lon="11.5403398"><ele>263.2</ele><time>2026-05-02T14:32:27.669Z</time></trkpt><trkpt lat="42.9822162" lon="11.5402201"><ele>263.59999999999997</ele><time>2026-05-02T14:32:28.672Z</time></trkpt><trkpt lat="42.9822489" lon="11.5401029"><ele>264.0</ele><time>2026-05-02T14:32:29.661Z</time></trkpt><trkpt lat="42.9823265" lon="11.5400069"><ele>266.0</ele><time>2026-05-02T14:32:30.67Z</time></trkpt><trkpt lat="42.9824438" lon="11.5399361"><ele>268.0</ele><time>2026-05-02T14:32:31.665Z</time></trkpt><trkpt lat="42.9825799" lon="11.5398865"><ele>270.0</ele><time>2026-05-02T14:32:32.658Z</time></trkpt><trkpt lat="42.9827271" lon="11.5398289"><ele>272.0</ele><time>2026-05-02T14:32:33.675Z</time></trkpt><trkpt lat="42.9828767" lon="11.5397617"><ele>272.0</ele><time>2026-05-02T14:32:34.673Z</time></trkpt><trkpt lat="42.9830167" lon="11.5396692"><ele>272.0</ele><time>2026-05-02T14:32:35.672Z</time></trkpt><trkpt lat="42.9831463" lon="11.5395423"><ele>272.0</ele><time>2026-05-02T14:32:36.669Z</time></trkpt><trkpt lat="42.9832596" lon="11.5393894"><ele>275.33333333333337</ele><time>2026-05-02T14:32:37.655Z</time></trkpt><trkpt lat="42.9833699" lon="11.5392449"><ele>278.6666666666667</ele><time>2026-05-02T14:32:38.653Z</time></trkpt><trkpt lat="42.9834901" lon="11.5391211"><ele>282.0</ele><time>2026-05-02T14:32:39.66Z</time></trkpt><trkpt lat="42.9836288" lon="11.5390242"><ele>282.0</ele><time>2026-05-02T14:32:40.654Z</time></trkpt><trkpt lat="42.983774" lon="11.5389566"><ele>282.0</ele><time>2026-05-02T14:32:41.658Z</time></trkpt><trkpt lat="42.9839221" lon="11.5388909"><ele>282.0</ele><time>2026-05-02T14:32:42.665Z</time></trkpt><trkpt lat="42.984079" lon="11.5387962"><ele>285.0</ele><time>2026-05-02T14:32:43.662Z</time></trkpt><trkpt lat="42.9842412" lon="11.5386678"><ele>288.0</ele><time>2026-05-02T14:32:44.665Z</time></trkpt><trkpt lat="42.9844027" lon="11.5385249"><ele>291.0</ele><time>2026-05-02T14:32:45.66Z</time></trkpt><trkpt lat="42.9845643" lon="11.5383681"><ele>291.0</ele><time>2026-05-02T14:32:46.655Z</time></trkpt><trkpt lat="42.9847262" lon="11.5382042"><ele>291.0</ele><time>2026-05-02T14:32:47.651Z</time></trkpt><trkpt lat="42.9848884" lon="11.5380496"><ele>291.0</ele><time>2026-05-02T14:32:48.661Z</time></trkpt><trkpt lat="42.9850451" lon="11.5379005"><ele>295.0</ele><time>2026-05-02T14:32:49.655Z</time></trkpt><trkpt lat="42.9851961" lon="11.5377578"><ele>299.0</ele><time>2026-05-02T14:32:50.657Z</time></trkpt><trkpt lat="42.9853363" lon="11.5376122"><ele>303.0</ele><time>2026-05-02T14:32:51.652Z</time></trkpt><trkpt lat="42.9854767" lon="11.5374766"><ele>303.0</ele><time>2026-05-02T14:32:52.663Z</time></trkpt><trkpt lat="42.9856182" lon="11.5373526"><ele>303.0</ele><time>2026-05-02T14:32:53.663Z</time></trkpt><trkpt lat="42.985768" lon="11.5372415"><ele>303.0</ele><time>2026-05-02T14:32:54.664Z</time></trkpt><trkpt lat="42.9859184" lon="11.5371502"><ele>301.0</ele><time>2026-05-02T14:32:55.66Z</time></trkpt><trkpt lat="42.9860691" lon="11.5370791"><ele>299.0</ele><time>2026-05-02T14:32:56.665Z</time></trkpt><trkpt lat="42.9862035" lon="11.5369895"><ele>297.0</ele><time>2026-05-02T14:32:57.659Z</time></trkpt><trkpt lat="42.9863191" lon="11.5368716"><ele>302.0</ele><time>2026-05-02T14:32:58.666Z</time></trkpt><trkpt lat="42.986423" lon="11.5367534"><ele>307.0</ele><time>2026-05-02T14:32:59.659Z</time></trkpt><trkpt lat="42.9865222" lon="11.5366724"><ele>312.0</ele><time>2026-05-02T14:33:00.661Z</time></trkpt><trkpt lat="42.9866282" lon="11.5366412"><ele>317.0</ele><time>2026-05-02T14:33:01.662Z</time></trkpt><trkpt lat="42.9867219" lon="11.5366828"><ele>317.4</ele><time>2026-05-02T14:33:02.665Z</time></trkpt><trkpt lat="42.9868154" lon="11.5367646"><ele>317.79999999999995</ele><time>2026-05-02T14:33:03.648Z</time></trkpt><trkpt lat="42.9868691" lon="11.5368664"><ele>318.2</ele><time>2026-05-02T14:33:04.658Z</time></trkpt><trkpt lat="42.9869465" lon="11.5369007"><ele>318.59999999999997</ele><time>2026-05-02T14:33:05.652Z</time></trkpt><trkpt lat="42.987089" lon="11.5368065"><ele>319.0</ele><time>2026-05-02T14:33:06.659Z</time></trkpt><trkpt lat="42.9872359" lon="11.5367001"><ele>319.0</ele><time>2026-05-02T14:33:07.662Z</time></trkpt><trkpt lat="42.9873675" lon="11.5365955"><ele>319.0</ele><time>2026-05-02T14:33:08.652Z</time></trkpt><trkpt lat="42.9874903" lon="11.5365082"><ele>319.0</ele><time>2026-05-02T14:33:09.662Z</time></trkpt><trkpt lat="42.9876087" lon="11.536425"><ele>319.0</ele><time>2026-05-02T14:33:10.664Z</time></trkpt><trkpt lat="42.9877152" lon="11.536338"><ele>318.25</ele><time>2026-05-02T14:33:11.661Z</time></trkpt><trkpt lat="42.9878052" lon="11.5362182"><ele>317.5</ele><time>2026-05-02T14:33:12.655Z</time></trkpt><trkpt lat="42.9878574" lon="11.5360642"><ele>316.75</ele><time>2026-05-02T14:33:13.658Z</time></trkpt><trkpt lat="42.9878648" lon="11.5358827"><ele>316.0</ele><time>2026-05-02T14:33:14.661Z</time></trkpt><trkpt lat="42.987835" lon="11.5356947"><ele>316.0</ele><time>2026-05-02T14:33:15.661Z</time></trkpt><trkpt lat="42.9877894" lon="11.5355139"><ele>316.0</ele><time>2026-05-02T14:33:16.656Z</time></trkpt><trkpt lat="42.9877478" lon="11.535327"><ele>316.0</ele><time>2026-05-02T14:33:17.655Z</time></trkpt><trkpt lat="42.9877138" lon="11.5351424"><ele>316.0</ele><time>2026-05-02T14:33:18.663Z</time></trkpt><trkpt lat="42.9876894" lon="11.5349481"><ele>320.66666666666663</ele><time>2026-05-02T14:33:19.659Z</time></trkpt><trkpt lat="42.9876632" lon="11.5347323"><ele>325.3333333333333</ele><time>2026-05-02T14:33:20.663Z</time></trkpt><trkpt lat="42.9876421" lon="11.5345001"><ele>330.0</ele><time>2026-05-02T14:33:21.664Z</time></trkpt><trkpt lat="42.9876167" lon="11.5342554"><ele>334.0</ele><time>2026-05-02T14:33:22.651Z</time></trkpt><trkpt lat="42.9875926" lon="11.5340113"><ele>338.0</ele><time>2026-05-02T14:33:23.659Z</time></trkpt><trkpt lat="42.9875704" lon="11.5337853"><ele>342.0</ele><time>2026-05-02T14:33:24.658Z</time></trkpt><trkpt lat="42.9875638" lon="11.5335962"><ele>344.25</ele><time>2026-05-02T14:33:25.66Z</time></trkpt><trkpt lat="42.9875911" lon="11.5334374"><ele>346.5</ele><time>2026-05-02T14:33:26.663Z</time></trkpt><trkpt lat="42.9876641" lon="11.5332958"><ele>348.75</ele><time>2026-05-02T14:33:27.667Z</time></trkpt><trkpt lat="42.9877617" lon="11.5331443"><ele>351.0</ele><time>2026-05-02T14:33:28.66Z</time></trkpt><trkpt lat="42.987863" lon="11.5329985"><ele>351.0</ele><time>2026-05-02T14:33:29.666Z</time></trkpt><trkpt lat="42.9879579" lon="11.5328448"><ele>351.0</ele><time>2026-05-02T14:33:30.673Z</time></trkpt><trkpt lat="42.9880393" lon="11.5326966"><ele>351.0</ele><time>2026-05-02T14:33:31.667Z</time></trkpt><trkpt lat="42.9881163" lon="11.5325649"><ele>351.0</ele><time>2026-05-02T14:33:32.672Z</time></trkpt><trkpt lat="42.988189" lon="11.5324499"><ele>351.0</ele><time>2026-05-02T14:33:33.663Z</time></trkpt><trkpt lat="42.9882642" lon="11.53234"><ele>351.0</ele><time>2026-05-02T14:33:34.668Z</time></trkpt><trkpt lat="42.988356" lon="11.5322358"><ele>351.0</ele><time>2026-05-02T14:33:35.663Z</time></trkpt><trkpt lat="42.9884797" lon="11.5321439"><ele>351.0</ele><time>2026-05-02T14:33:36.666Z</time></trkpt><trkpt lat="42.988625" lon="11.5320696"><ele>352.3333333333333</ele><time>2026-05-02T14:33:37.667Z</time></trkpt><trkpt lat="42.9887832" lon="11.5320076"><ele>353.66666666666663</ele><time>2026-05-02T14:33:38.656Z</time></trkpt><trkpt lat="42.9889408" lon="11.531939"><ele>355.0</ele><time>2026-05-02T14:33:39.657Z</time></trkpt><trkpt lat="42.9890947" lon="11.5318667"><ele>354.66666666666663</ele><time>2026-05-02T14:33:40.664Z</time></trkpt><trkpt lat="42.9892433" lon="11.5317816"><ele>354.3333333333333</ele><time>2026-05-02T14:33:41.66Z</time></trkpt><trkpt lat="42.9893946" lon="11.5316565"><ele>354.0</ele><time>2026-05-02T14:33:42.663Z</time></trkpt><trkpt lat="42.9895413" lon="11.5314807"><ele>354.0</ele><time>2026-05-02T14:33:43.667Z</time></trkpt><trkpt lat="42.9896694" lon="11.5312905"><ele>354.0</ele><time>2026-05-02T14:33:44.675Z</time></trkpt><trkpt lat="42.9897697" lon="11.5310849"><ele>354.0</ele><time>2026-05-02T14:33:45.671Z</time></trkpt><trkpt lat="42.9898461" lon="11.530847"><ele>357.0</ele><time>2026-05-02T14:33:46.671Z</time></trkpt><trkpt lat="42.9898914" lon="11.5305894"><ele>360.0</ele><time>2026-05-02T14:33:47.67Z</time></trkpt><trkpt lat="42.9899106" lon="11.5303235"><ele>363.0</ele><time>2026-05-02T14:33:48.675Z</time></trkpt><trkpt lat="42.9899249" lon="11.5300766"><ele>363.0</ele><time>2026-05-02T14:33:49.663Z</time></trkpt><trkpt lat="42.9899417" lon="11.5298447"><ele>363.0</ele><time>2026-05-02T14:33:50.653Z</time></trkpt><trkpt lat="42.9899644" lon="11.5296173"><ele>363.0</ele><time>2026-05-02T14:33:51.649Z</time></trkpt><trkpt lat="42.9900036" lon="11.529395"><ele>364.5</ele><time>2026-05-02T14:33:52.657Z</time></trkpt><trkpt lat="42.9900543" lon="11.5291912"><ele>366.0</ele><time>2026-05-02T14:33:53.661Z</time></trkpt><trkpt lat="42.9901109" lon="11.5290087"><ele>367.5</ele><time>2026-05-02T14:33:54.66Z</time></trkpt><trkpt lat="42.9901814" lon="11.5288403"><ele>369.0</ele><time>2026-05-02T14:33:55.668Z</time></trkpt><trkpt lat="42.9902721" lon="11.5286677"><ele>369.0</ele><time>2026-05-02T14:33:56.67Z</time></trkpt><trkpt lat="42.9903755" lon="11.5284893"><ele>369.0</ele><time>2026-05-02T14:33:57.657Z</time></trkpt><trkpt lat="42.9904782" lon="11.5282902"><ele>369.0</ele><time>2026-05-02T14:33:58.662Z</time></trkpt><trkpt lat="42.9905696" lon="11.5280757"><ele>365.3333333333333</ele><time>2026-05-02T14:33:59.668Z</time></trkpt><trkpt lat="42.9906588" lon="11.5278636"><ele>361.66666666666663</ele><time>2026-05-02T14:34:00.671Z</time></trkpt><trkpt lat="42.990746" lon="11.5276615"><ele>358.0</ele><time>2026-05-02T14:34:01.673Z</time></trkpt><trkpt lat="42.99084" lon="11.5274776"><ele>357.0</ele><time>2026-05-02T14:34:02.663Z</time></trkpt><trkpt lat="42.9909493" lon="11.5273091"><ele>356.0</ele><time>2026-05-02T14:34:03.676Z</time></trkpt><trkpt lat="42.9910775" lon="11.527167"><ele>355.0</ele><time>2026-05-02T14:34:04.665Z</time></trkpt><trkpt lat="42.9912162" lon="11.5270544"><ele>355.0</ele><time>2026-05-02T14:34:05.655Z</time></trkpt><trkpt lat="42.9913582" lon="11.5269562"><ele>355.0</ele><time>2026-05-02T14:34:06.66Z</time></trkpt><trkpt lat="42.9915124" lon="11.5268724"><ele>355.0</ele><time>2026-05-02T14:34:07.655Z</time></trkpt><trkpt lat="42.991665" lon="11.5267979"><ele>356.3333333333333</ele><time>2026-05-02T14:34:08.663Z</time></trkpt><trkpt lat="42.9918162" lon="11.52673"><ele>357.6666666666667</ele><time>2026-05-02T14:34:09.665Z</time></trkpt><trkpt lat="42.9919605" lon="11.5266684"><ele>359.0</ele><time>2026-05-02T14:34:10.661Z</time></trkpt><trkpt lat="42.9921013" lon="11.526601"><ele>359.0</ele><time>2026-05-02T14:34:11.659Z</time></trkpt><trkpt lat="42.9922427" lon="11.5265414"><ele>359.0</ele><time>2026-05-02T14:34:12.664Z</time></trkpt><trkpt lat="42.9923782" lon="11.5264803"><ele>359.0</ele><time>2026-05-02T14:34:13.661Z</time></trkpt><trkpt lat="42.9925025" lon="11.526395"><ele>359.0</ele><time>2026-05-02T14:34:14.653Z</time></trkpt><trkpt lat="42.9926009" lon="11.5262716"><ele>363.0</ele><time>2026-05-02T14:34:15.656Z</time></trkpt><trkpt lat="42.9926644" lon="11.526113"><ele>367.0</ele><time>2026-05-02T14:34:16.657Z</time></trkpt><trkpt lat="42.9926889" lon="11.5259362"><ele>371.0</ele><time>2026-05-02T14:34:17.661Z</time></trkpt><trkpt lat="42.9926723" lon="11.5257546"><ele>375.0</ele><time>2026-05-02T14:34:18.659Z</time></trkpt><trkpt lat="42.9926111" lon="11.5255853"><ele>375.0</ele><time>2026-05-02T14:34:19.663Z</time></trkpt><trkpt lat="42.9925309" lon="11.5254431"><ele>375.0</ele><time>2026-05-02T14:34:20.671Z</time></trkpt><trkpt lat="42.9924447" lon="11.5253262"><ele>375.0</ele><time>2026-05-02T14:34:21.659Z</time></trkpt><trkpt lat="42.9923697" lon="11.5252073"><ele>375.0</ele><time>2026-05-02T14:34:22.66Z</time></trkpt><trkpt lat="42.9923115" lon="11.5250798"><ele>372.0</ele><time>2026-05-02T14:34:23.653Z</time></trkpt><trkpt lat="42.9922743" lon="11.5249338"><ele>369.0</ele><time>2026-05-02T14:34:24.652Z</time></trkpt><trkpt lat="42.9922609" lon="11.5247652"><ele>366.0</ele><time>2026-05-02T14:34:25.662Z</time></trkpt><trkpt lat="42.9922726" lon="11.5246053"><ele>363.0</ele><time>2026-05-02T14:34:26.661Z</time></trkpt><trkpt lat="42.9923169" lon="11.5244618"><ele>361.0</ele><time>2026-05-02T14:34:27.657Z</time></trkpt><trkpt lat="42.9924006" lon="11.5243274"><ele>359.0</ele><time>2026-05-02T14:34:28.658Z</time></trkpt><trkpt lat="42.9925085" lon="11.5242082"><ele>357.0</ele><time>2026-05-02T14:34:29.659Z</time></trkpt><trkpt lat="42.9926183" lon="11.5240856"><ele>355.0</ele><time>2026-05-02T14:34:30.658Z</time></trkpt><trkpt lat="42.9927123" lon="11.5239692"><ele>356.5</ele><time>2026-05-02T14:34:31.648Z</time></trkpt><trkpt lat="42.9927932" lon="11.5238701"><ele>358.0</ele><time>2026-05-02T14:34:32.659Z</time></trkpt><trkpt lat="42.9928553" lon="11.5237779"><ele>359.5</ele><time>2026-05-02T14:34:33.66Z</time></trkpt><trkpt lat="42.9928988" lon="11.5236852"><ele>361.0</ele><time>2026-05-02T14:34:34.662Z</time></trkpt><trkpt lat="42.99294" lon="11.5235938"><ele>362.5</ele><time>2026-05-02T14:34:35.65Z</time></trkpt><trkpt lat="42.9929868" lon="11.5234901"><ele>364.0</ele><time>2026-05-02T14:34:36.664Z</time></trkpt><trkpt lat="42.9930446" lon="11.5233659"><ele>364.0</ele><time>2026-05-02T14:34:37.661Z</time></trkpt><trkpt lat="42.9931067" lon="11.5232194"><ele>364.0</ele><time>2026-05-02T14:34:38.663Z</time></trkpt><trkpt lat="42.9931677" lon="11.5230547"><ele>364.0</ele><time>2026-05-02T14:34:39.66Z</time></trkpt><trkpt lat="42.9932263" lon="11.522876"><ele>364.0</ele><time>2026-05-02T14:34:40.661Z</time></trkpt><trkpt lat="42.9932855" lon="11.522695"><ele>364.5</ele><time>2026-05-02T14:34:41.67Z</time></trkpt><trkpt lat="42.9933473" lon="11.5225088"><ele>365.0</ele><time>2026-05-02T14:34:42.666Z</time></trkpt><trkpt lat="42.9933979" lon="11.5223329"><ele>365.5</ele><time>2026-05-02T14:34:43.667Z</time></trkpt><trkpt lat="42.9934359" lon="11.5221801"><ele>366.0</ele><time>2026-05-02T14:34:44.666Z</time></trkpt><trkpt lat="42.9934651" lon="11.5220384"><ele>366.0</ele><time>2026-05-02T14:34:45.659Z</time></trkpt><trkpt lat="42.9934954" lon="11.5219104"><ele>366.0</ele><time>2026-05-02T14:34:46.657Z</time></trkpt><trkpt lat="42.9935292" lon="11.5217906"><ele>366.0</ele><time>2026-05-02T14:34:47.664Z</time></trkpt><trkpt lat="42.9935645" lon="11.5216776"><ele>366.0</ele><time>2026-05-02T14:34:48.672Z</time></trkpt><trkpt lat="42.9935979" lon="11.5215637"><ele>366.0</ele><time>2026-05-02T14:34:49.665Z</time></trkpt><trkpt lat="42.9936383" lon="11.5214461"><ele>366.0</ele><time>2026-05-02T14:34:50.658Z</time></trkpt><trkpt lat="42.993681" lon="11.5213334"><ele>366.0</ele><time>2026-05-02T14:34:51.666Z</time></trkpt><trkpt lat="42.9937272" lon="11.5212375"><ele>366.0</ele><time>2026-05-02T14:34:52.675Z</time></trkpt><trkpt lat="42.9937793" lon="11.5211438"><ele>366.0</ele><time>2026-05-02T14:34:53.663Z</time></trkpt><trkpt lat="42.9938442" lon="11.521051"><ele>366.0</ele><time>2026-05-02T14:34:54.672Z</time></trkpt><trkpt lat="42.9939276" lon="11.5209428"><ele>364.0</ele><time>2026-05-02T14:34:55.665Z</time></trkpt><trkpt lat="42.9940171" lon="11.520827"><ele>362.0</ele><time>2026-05-02T14:34:56.658Z</time></trkpt><trkpt lat="42.9941142" lon="11.5206973"><ele>360.0</ele><time>2026-05-02T14:34:57.67Z</time></trkpt><trkpt lat="42.9942159" lon="11.5205576"><ele>358.0</ele><time>2026-05-02T14:34:58.655Z</time></trkpt><trkpt lat="42.9943184" lon="11.5204169"><ele>355.5</ele><time>2026-05-02T14:34:59.673Z</time></trkpt><trkpt lat="42.9944135" lon="11.5202818"><ele>353.0</ele><time>2026-05-02T14:35:00.651Z</time></trkpt><trkpt lat="42.9945015" lon="11.5201686"><ele>350.5</ele><time>2026-05-02T14:35:01.665Z</time></trkpt><trkpt lat="42.9945875" lon="11.5200793"><ele>348.0</ele><time>2026-05-02T14:35:02.654Z</time></trkpt><trkpt lat="42.9946705" lon="11.5200037"><ele>348.0</ele><time>2026-05-02T14:35:03.656Z</time></trkpt><trkpt lat="42.9947421" lon="11.5199425"><ele>348.0</ele><time>2026-05-02T14:35:04.659Z</time></trkpt><trkpt lat="42.9947951" lon="11.5198859"><ele>348.0</ele><time>2026-05-02T14:35:05.657Z</time></trkpt><trkpt lat="42.9948451" lon="11.5197731"><ele>348.0</ele><time>2026-05-02T14:35:07.66Z</time></trkpt><trkpt lat="42.994818" lon="11.5196495"><ele>348.0</ele><time>2026-05-02T14:35:09.658Z</time></trkpt><trkpt lat="42.9947553" lon="11.51954"><ele>348.0</ele><time>2026-05-02T14:35:11.649Z</time></trkpt><trkpt lat="42.994674" lon="11.5194106"><ele>347.5</ele><time>2026-05-02T14:35:13.666Z</time></trkpt><trkpt lat="42.9946305" lon="11.5193221"><ele>347.0</ele><time>2026-05-02T14:35:14.653Z</time></trkpt><trkpt lat="42.9945868" lon="11.5192246"><ele>346.5</ele><time>2026-05-02T14:35:15.658Z</time></trkpt><trkpt lat="42.9945417" lon="11.5191173"><ele>346.0</ele><time>2026-05-02T14:35:16.655Z</time></trkpt><trkpt lat="42.9944998" lon="11.5190092"><ele>345.5</ele><time>2026-05-02T14:35:17.669Z</time></trkpt><trkpt lat="42.9944596" lon="11.5188913"><ele>345.0</ele><time>2026-05-02T14:35:18.659Z</time></trkpt><trkpt lat="42.9944266" lon="11.5187739"><ele>347.0</ele><time>2026-05-02T14:35:19.671Z</time></trkpt><trkpt lat="42.9943925" lon="11.5186606"><ele>349.0</ele><time>2026-05-02T14:35:20.664Z</time></trkpt><trkpt lat="42.9943557" lon="11.518553"><ele>351.0</ele><time>2026-05-02T14:35:21.66Z</time></trkpt><trkpt lat="42.9943272" lon="11.51846"><ele>353.0</ele><time>2026-05-02T14:35:22.657Z</time></trkpt><trkpt lat="42.9942889" lon="11.5183337"><ele>355.0</ele><time>2026-05-02T14:35:24.667Z</time></trkpt><trkpt lat="42.9942557" lon="11.518248"><ele>357.0</ele><time>2026-05-02T14:35:26.657Z</time></trkpt><trkpt lat="42.9942105" lon="11.518159"><ele>357.20000000000005</ele><time>2026-05-02T14:35:28.665Z</time></trkpt><trkpt lat="42.9941271" lon="11.5180142"><ele>357.4</ele><time>2026-05-02T14:35:30.662Z</time></trkpt><trkpt lat="42.9940787" lon="11.517914"><ele>357.6</ele><time>2026-05-02T14:35:31.649Z</time></trkpt><trkpt lat="42.9940204" lon="11.5178145"><ele>357.79999999999995</ele><time>2026-05-02T14:35:32.66Z</time></trkpt><trkpt lat="42.9939527" lon="11.5177197"><ele>358.0</ele><time>2026-05-02T14:35:33.66Z</time></trkpt><trkpt lat="42.9938768" lon="11.517633"><ele>359.0</ele><time>2026-05-02T14:35:34.659Z</time></trkpt><trkpt lat="42.9937935" lon="11.5175747"><ele>360.0</ele><time>2026-05-02T14:35:35.655Z</time></trkpt><trkpt lat="42.9937201" lon="11.5175291"><ele>361.0</ele><time>2026-05-02T14:35:36.656Z</time></trkpt><trkpt lat="42.993657" lon="11.5174862"><ele>362.0</ele><time>2026-05-02T14:35:37.664Z</time></trkpt><trkpt lat="42.9936025" lon="11.5174428"><ele>363.0</ele><time>2026-05-02T14:35:38.656Z</time></trkpt><trkpt lat="42.9935084" lon="11.5173605"><ele>364.0</ele><time>2026-05-02T14:35:40.656Z</time></trkpt><trkpt lat="42.9934493" lon="11.5173066"><ele>364.0</ele><time>2026-05-02T14:35:41.661Z</time></trkpt><trkpt lat="42.9933901" lon="11.5172547"><ele>364.0</ele><time>2026-05-02T14:35:42.659Z</time></trkpt><trkpt lat="42.9933075" lon="11.5171748"><ele>364.0</ele><time>2026-05-02T14:35:44.661Z</time></trkpt><trkpt lat="42.9932557" lon="11.5171121"><ele>364.0</ele><time>2026-05-02T14:35:46.652Z</time></trkpt><trkpt lat="42.9932089" lon="11.5170389"><ele>364.0</ele><time>2026-05-02T14:35:49.661Z</time></trkpt><trkpt lat="42.9931432" lon="11.5169552"><ele>364.0</ele><time>2026-05-02T14:35:52.653Z</time></trkpt><trkpt lat="42.9930689" lon="11.5168655"><ele>360.4</ele><time>2026-05-02T14:35:55.648Z</time></trkpt><trkpt lat="42.9930164" lon="11.5167838"><ele>356.79999999999995</ele><time>2026-05-02T14:35:57.643Z</time></trkpt><trkpt lat="42.9929809" lon="11.5166625"><ele>353.20000000000005</ele><time>2026-05-02T14:35:59.663Z</time></trkpt><trkpt lat="42.9929434" lon="11.5164972"><ele>349.6</ele><time>2026-05-02T14:36:01.66Z</time></trkpt><trkpt lat="42.9929214" lon="11.5164132"><ele>346.0</ele><time>2026-05-02T14:36:02.657Z</time></trkpt><trkpt lat="42.9928442" lon="11.5162928"><ele>346.0</ele><time>2026-05-02T14:36:04.658Z</time></trkpt><trkpt lat="42.9927317" lon="11.5162968"><ele>346.0</ele><time>2026-05-02T14:36:06.672Z</time></trkpt><trkpt lat="42.992675" lon="11.5163532"><ele>346.0</ele><time>2026-05-02T14:36:07.651Z</time></trkpt><trkpt lat="42.9926111" lon="11.5164118"><ele>346.0</ele><time>2026-05-02T14:36:08.653Z</time></trkpt><trkpt lat="42.9925414" lon="11.5164616"><ele>346.0</ele><time>2026-05-02T14:36:09.661Z</time></trkpt><trkpt lat="42.9924727" lon="11.5165003"><ele>346.0</ele><time>2026-05-02T14:36:10.661Z</time></trkpt><trkpt lat="42.9923991" lon="11.5165258"><ele>342.66666666666663</ele><time>2026-05-02T14:36:11.655Z</time></trkpt><trkpt lat="42.9923215" lon="11.5165263"><ele>339.3333333333333</ele><time>2026-05-02T14:36:12.653Z</time></trkpt><trkpt lat="42.9922487" lon="11.5164997"><ele>336.0</ele><time>2026-05-02T14:36:13.652Z</time></trkpt><trkpt lat="42.9921727" lon="11.5164693"><ele>332.6666666666667</ele><time>2026-05-02T14:36:14.655Z</time></trkpt><trkpt lat="42.9921011" lon="11.5164372"><ele>329.33333333333337</ele><time>2026-05-02T14:36:15.658Z</time></trkpt><trkpt lat="42.9920078" lon="11.5163444"><ele>326.0</ele><time>2026-05-02T14:36:17.657Z</time></trkpt><trkpt lat="42.9919788" lon="11.516194"><ele>324.5</ele><time>2026-05-02T14:36:19.66Z</time></trkpt><trkpt lat="42.9919762" lon="11.5160787"><ele>323.0</ele><time>2026-05-02T14:36:21.655Z</time></trkpt><trkpt lat="42.9919624" lon="11.5159816"><ele>321.5</ele><time>2026-05-02T14:36:24.659Z</time></trkpt><trkpt lat="42.9919331" lon="11.5158706"><ele>320.0</ele><time>2026-05-02T14:36:27.658Z</time></trkpt><trkpt lat="42.9919071" lon="11.5157603"><ele>318.5</ele><time>2026-05-02T14:36:29.657Z</time></trkpt><trkpt lat="42.9918835" lon="11.5156771"><ele>317.0</ele><time>2026-05-02T14:36:30.66Z</time></trkpt><trkpt lat="42.9918497" lon="11.5155793"><ele>317.0</ele><time>2026-05-02T14:36:31.667Z</time></trkpt><trkpt lat="42.9918133" lon="11.5154724"><ele>317.0</ele><time>2026-05-02T14:36:32.66Z</time></trkpt><trkpt lat="42.9917818" lon="11.5153628"><ele>317.0</ele><time>2026-05-02T14:36:33.671Z</time></trkpt><trkpt lat="42.9917416" lon="11.5152535"><ele>317.0</ele><time>2026-05-02T14:36:34.668Z</time></trkpt><trkpt lat="42.9916968" lon="11.5151338"><ele>317.0</ele><time>2026-05-02T14:36:35.659Z</time></trkpt><trkpt lat="42.9916515" lon="11.5150053"><ele>313.8</ele><time>2026-05-02T14:36:36.659Z</time></trkpt><trkpt lat="42.9916016" lon="11.514879"><ele>310.6</ele><time>2026-05-02T14:36:37.661Z</time></trkpt><trkpt lat="42.9915448" lon="11.5147554"><ele>307.40000000000003</ele><time>2026-05-02T14:36:38.66Z</time></trkpt><trkpt lat="42.9914872" lon="11.5146463"><ele>304.2</ele><time>2026-05-02T14:36:39.651Z</time></trkpt><trkpt lat="42.9914279" lon="11.5145477"><ele>301.0</ele><time>2026-05-02T14:36:40.657Z</time></trkpt><trkpt lat="42.9913668" lon="11.5144547"><ele>299.0</ele><time>2026-05-02T14:36:41.65Z</time></trkpt><trkpt lat="42.9913136" lon="11.514364"><ele>297.0</ele><time>2026-05-02T14:36:42.652Z</time></trkpt><trkpt lat="42.9912595" lon="11.514275"><ele>295.0</ele><time>2026-05-02T14:36:43.647Z</time></trkpt><trkpt lat="42.9912144" lon="11.5141861"><ele>293.0</ele><time>2026-05-02T14:36:44.663Z</time></trkpt><trkpt lat="42.9911728" lon="11.514096"><ele>291.0</ele><time>2026-05-02T14:36:45.663Z</time></trkpt><trkpt lat="42.9911223" lon="11.5140049"><ele>289.0</ele><time>2026-05-02T14:36:46.652Z</time></trkpt><trkpt lat="42.9910738" lon="11.5139237"><ele>289.0</ele><time>2026-05-02T14:36:47.65Z</time></trkpt><trkpt lat="42.9910149" lon="11.5138435"><ele>289.0</ele><time>2026-05-02T14:36:48.649Z</time></trkpt><trkpt lat="42.9909465" lon="11.5137809"><ele>289.0</ele><time>2026-05-02T14:36:49.651Z</time></trkpt><trkpt lat="42.9908707" lon="11.5137414"><ele>289.0</ele><time>2026-05-02T14:36:50.651Z</time></trkpt><trkpt lat="42.9907919" lon="11.5137162"><ele>289.0</ele><time>2026-05-02T14:36:51.662Z</time></trkpt><trkpt lat="42.9907126" lon="11.5136769"><ele>289.0</ele><time>2026-05-02T14:36:52.665Z</time></trkpt><trkpt lat="42.9906393" lon="11.5136254"><ele>288.16666666666663</ele><time>2026-05-02T14:36:53.66Z</time></trkpt><trkpt lat="42.9905742" lon="11.5135494"><ele>287.3333333333333</ele><time>2026-05-02T14:36:54.674Z</time></trkpt><trkpt lat="42.9905266" lon="11.513441"><ele>286.5</ele><time>2026-05-02T14:36:55.65Z</time></trkpt><trkpt lat="42.990487" lon="11.5133426"><ele>285.6666666666667</ele><time>2026-05-02T14:36:56.665Z</time></trkpt><trkpt lat="42.9904558" lon="11.5132467"><ele>284.83333333333337</ele><time>2026-05-02T14:36:57.654Z</time></trkpt><trkpt lat="42.9904295" lon="11.5131463"><ele>284.0</ele><time>2026-05-02T14:36:58.664Z</time></trkpt><trkpt lat="42.9903893" lon="11.5130571"><ele>284.0</ele><time>2026-05-02T14:36:59.666Z</time></trkpt><trkpt lat="42.9903303" lon="11.5129776"><ele>284.0</ele><time>2026-05-02T14:37:00.661Z</time></trkpt><trkpt lat="42.9902632" lon="11.5129196"><ele>284.0</ele><time>2026-05-02T14:37:01.664Z</time></trkpt><trkpt lat="42.9901923" lon="11.5128758"><ele>284.0</ele><time>2026-05-02T14:37:02.654Z</time></trkpt><trkpt lat="42.9901179" lon="11.5128604"><ele>284.0</ele><time>2026-05-02T14:37:03.661Z</time></trkpt><trkpt lat="42.9900438" lon="11.5128727"><ele>284.0</ele><time>2026-05-02T14:37:04.666Z</time></trkpt><trkpt lat="42.9899805" lon="11.5129021"><ele>282.8</ele><time>2026-05-02T14:37:05.668Z</time></trkpt><trkpt lat="42.9898933" lon="11.5129913"><ele>281.59999999999997</ele><time>2026-05-02T14:37:07.656Z</time></trkpt><trkpt lat="42.9898297" lon="11.513026"><ele>280.4</ele><time>2026-05-02T14:37:10.66Z</time></trkpt><trkpt lat="42.9899082" lon="11.5129996"><ele>279.2</ele><time>2026-05-02T14:40:24.658Z</time></trkpt><trkpt lat="42.9899679" lon="11.5129225"><ele>278.0</ele><time>2026-05-02T14:40:26.661Z</time></trkpt><trkpt lat="42.990085" lon="11.5128763"><ele>277.5</ele><time>2026-05-02T14:40:28.667Z</time></trkpt><trkpt lat="42.9901598" lon="11.5128787"><ele>277.0</ele><time>2026-05-02T14:40:29.652Z</time></trkpt><trkpt lat="42.9902325" lon="11.51291"><ele>276.5</ele><time>2026-05-02T14:40:30.644Z</time></trkpt><trkpt lat="42.9903051" lon="11.5129591"><ele>276.0</ele><time>2026-05-02T14:40:31.658Z</time></trkpt><trkpt lat="42.9903725" lon="11.5130415"><ele>275.5</ele><time>2026-05-02T14:40:32.673Z</time></trkpt><trkpt lat="42.9904292" lon="11.5131422"><ele>275.0</ele><time>2026-05-02T14:40:33.666Z</time></trkpt><trkpt lat="42.9904686" lon="11.5132533"><ele>276.8</ele><time>2026-05-02T14:40:34.661Z</time></trkpt><trkpt lat="42.9905035" lon="11.5133736"><ele>278.6</ele><time>2026-05-02T14:40:35.663Z</time></trkpt><trkpt lat="42.9905484" lon="11.5134892"><ele>280.4</ele><time>2026-05-02T14:40:36.668Z</time></trkpt><trkpt lat="42.9905958" lon="11.5135979"><ele>282.2</ele><time>2026-05-02T14:40:37.668Z</time></trkpt><trkpt lat="42.9906597" lon="11.5136702"><ele>284.0</ele><time>2026-05-02T14:40:38.659Z</time></trkpt><trkpt lat="42.9907365" lon="11.5137185"><ele>285.0</ele><time>2026-05-02T14:40:39.667Z</time></trkpt><trkpt lat="42.9908223" lon="11.5137507"><ele>286.0</ele><time>2026-05-02T14:40:40.729Z</time></trkpt><trkpt lat="42.990911" lon="11.5137782"><ele>287.0</ele><time>2026-05-02T14:40:41.658Z</time></trkpt><trkpt lat="42.9909976" lon="11.5138313"><ele>288.0</ele><time>2026-05-02T14:40:42.662Z</time></trkpt><trkpt lat="42.9910736" lon="11.5139083"><ele>289.0</ele><time>2026-05-02T14:40:43.656Z</time></trkpt><trkpt lat="42.9911359" lon="11.5140112"><ele>289.0</ele><time>2026-05-02T14:40:44.656Z</time></trkpt><trkpt lat="42.9911955" lon="11.5141225"><ele>289.0</ele><time>2026-05-02T14:40:45.661Z</time></trkpt><trkpt lat="42.9912521" lon="11.5142464"><ele>289.0</ele><time>2026-05-02T14:40:46.666Z</time></trkpt><trkpt lat="42.9913176" lon="11.5143698"><ele>289.0</ele><time>2026-05-02T14:40:47.662Z</time></trkpt><trkpt lat="42.9913906" lon="11.5144902"><ele>289.0</ele><time>2026-05-02T14:40:48.662Z</time></trkpt><trkpt lat="42.9914649" lon="11.5146114"><ele>292.0</ele><time>2026-05-02T14:40:49.666Z</time></trkpt><trkpt lat="42.9915347" lon="11.514736"><ele>295.0</ele><time>2026-05-02T14:40:50.663Z</time></trkpt><trkpt lat="42.9916011" lon="11.5148736"><ele>298.0</ele><time>2026-05-02T14:40:51.662Z</time></trkpt><trkpt lat="42.9916635" lon="11.5150176"><ele>301.0</ele><time>2026-05-02T14:40:52.66Z</time></trkpt><trkpt lat="42.9917177" lon="11.5151582"><ele>302.0</ele><time>2026-05-02T14:40:53.67Z</time></trkpt><trkpt lat="42.9917698" lon="11.5153037"><ele>303.0</ele><time>2026-05-02T14:40:54.656Z</time></trkpt><trkpt lat="42.9918179" lon="11.5154485"><ele>304.0</ele><time>2026-05-02T14:40:55.668Z</time></trkpt><trkpt lat="42.9918634" lon="11.5155892"><ele>305.0</ele><time>2026-05-02T14:40:56.661Z</time></trkpt><trkpt lat="42.9919043" lon="11.5157276"><ele>307.4</ele><time>2026-05-02T14:40:57.66Z</time></trkpt><trkpt lat="42.9919365" lon="11.5158668"><ele>309.8</ele><time>2026-05-02T14:40:58.661Z</time></trkpt><trkpt lat="42.9919633" lon="11.5159979"><ele>312.2</ele><time>2026-05-02T14:40:59.675Z</time></trkpt><trkpt lat="42.9919749" lon="11.5161113"><ele>314.6</ele><time>2026-05-02T14:41:00.653Z</time></trkpt><trkpt lat="42.9919899" lon="11.5162471"><ele>317.0</ele><time>2026-05-02T14:41:02.658Z</time></trkpt><trkpt lat="42.9920364" lon="11.5161638"><ele>317.0</ele><time>2026-05-02T14:41:22.661Z</time></trkpt><trkpt lat="42.9920905" lon="11.51603"><ele>317.0</ele><time>2026-05-02T14:41:25.665Z</time></trkpt><trkpt lat="42.9921664" lon="11.5158848"><ele>317.0</ele><time>2026-05-02T14:41:27.662Z</time></trkpt><trkpt lat="42.99221" lon="11.5157967"><ele>317.0</ele><time>2026-05-02T14:41:28.647Z</time></trkpt><trkpt lat="42.9922633" lon="11.5157041"><ele>317.0</ele><time>2026-05-02T14:41:29.676Z</time></trkpt><trkpt lat="42.992324" lon="11.515617"><ele>317.0</ele><time>2026-05-02T14:41:30.676Z</time></trkpt><trkpt lat="42.9923836" lon="11.5155353"><ele>317.0</ele><time>2026-05-02T14:41:31.65Z</time></trkpt><trkpt lat="42.9924382" lon="11.5154561"><ele>317.0</ele><time>2026-05-02T14:41:32.661Z</time></trkpt><trkpt lat="42.9924927" lon="11.5153817"><ele>317.0</ele><time>2026-05-02T14:41:33.661Z</time></trkpt><trkpt lat="42.992542" lon="11.515308"><ele>317.0</ele><time>2026-05-02T14:41:34.665Z</time></trkpt><trkpt lat="42.9925857" lon="11.5152337"><ele>317.0</ele><time>2026-05-02T14:41:35.652Z</time></trkpt><trkpt lat="42.9926312" lon="11.5151677"><ele>317.0</ele><time>2026-05-02T14:41:36.658Z</time></trkpt><trkpt lat="42.9926749" lon="11.5150972"><ele>317.0</ele><time>2026-05-02T14:41:37.659Z</time></trkpt><trkpt lat="42.992721" lon="11.5150239"><ele>317.0</ele><time>2026-05-02T14:41:38.659Z</time></trkpt><trkpt lat="42.9927726" lon="11.5149584"><ele>317.0</ele><time>2026-05-02T14:41:39.662Z</time></trkpt><trkpt lat="42.9928292" lon="11.5149007"><ele>317.0</ele><time>2026-05-02T14:41:40.661Z</time></trkpt><trkpt lat="42.9928917" lon="11.5148597"><ele>317.0</ele><time>2026-05-02T14:41:41.661Z</time></trkpt><trkpt lat="42.9929566" lon="11.5148057"><ele>317.0</ele><time>2026-05-02T14:41:42.659Z</time></trkpt><trkpt lat="42.9930133" lon="11.5147354"><ele>317.0</ele><time>2026-05-02T14:41:43.666Z</time></trkpt><trkpt lat="42.9930571" lon="11.5146516"><ele>317.0</ele><time>2026-05-02T14:41:44.647Z</time></trkpt><trkpt lat="42.9930957" lon="11.5145619"><ele>317.0</ele><time>2026-05-02T14:41:45.662Z</time></trkpt><trkpt lat="42.9931265" lon="11.5144764"><ele>317.0</ele><time>2026-05-02T14:41:46.654Z</time></trkpt><trkpt lat="42.993152" lon="11.5143903"><ele>317.0</ele><time>2026-05-02T14:41:47.667Z</time></trkpt><trkpt lat="42.9931642" lon="11.5142916"><ele>317.0</ele><time>2026-05-02T14:41:48.66Z</time></trkpt><trkpt lat="42.9931532" lon="11.5141876"><ele>317.0</ele><time>2026-05-02T14:41:49.663Z</time></trkpt><trkpt lat="42.99313" lon="11.5140808"><ele>313.6666666666667</ele><time>2026-05-02T14:41:50.658Z</time></trkpt><trkpt lat="42.9931054" lon="11.5139768"><ele>310.33333333333337</ele><time>2026-05-02T14:41:51.654Z</time></trkpt><trkpt lat="42.9930856" lon="11.5138706"><ele>307.0</ele><time>2026-05-02T14:41:52.674Z</time></trkpt><trkpt lat="42.9930666" lon="11.5137549"><ele>303.6666666666667</ele><time>2026-05-02T14:41:53.662Z</time></trkpt><trkpt lat="42.993042" lon="11.513644"><ele>300.3333333333333</ele><time>2026-05-02T14:41:54.646Z</time></trkpt><trkpt lat="42.9930221" lon="11.5135486"><ele>297.0</ele><time>2026-05-02T14:41:55.675Z</time></trkpt><trkpt lat="42.9929935" lon="11.5134676"><ele>294.2</ele><time>2026-05-02T14:41:56.664Z</time></trkpt><trkpt lat="42.9929069" lon="11.5133449"><ele>291.4</ele><time>2026-05-02T14:41:58.648Z</time></trkpt><trkpt lat="42.9928279" lon="11.5132939"><ele>288.6</ele><time>2026-05-02T14:41:59.653Z</time></trkpt><trkpt lat="42.9927257" lon="11.513244"><ele>285.8</ele><time>2026-05-02T14:42:00.667Z</time></trkpt><trkpt lat="42.9926095" lon="11.5132009"><ele>283.0</ele><time>2026-05-02T14:42:01.66Z</time></trkpt><trkpt lat="42.9924855" lon="11.5131545"><ele>283.0</ele><time>2026-05-02T14:42:02.65Z</time></trkpt><trkpt lat="42.9923541" lon="11.5131007"><ele>283.0</ele><time>2026-05-02T14:42:03.658Z</time></trkpt><trkpt lat="42.9922336" lon="11.5130271"><ele>283.0</ele><time>2026-05-02T14:42:04.661Z</time></trkpt><trkpt lat="42.9921315" lon="11.5129323"><ele>283.0</ele><time>2026-05-02T14:42:05.661Z</time></trkpt><trkpt lat="42.9920483" lon="11.5128209"><ele>282.4</ele><time>2026-05-02T14:42:06.665Z</time></trkpt><trkpt lat="42.9919943" lon="11.5126923"><ele>281.8</ele><time>2026-05-02T14:42:07.659Z</time></trkpt><trkpt lat="42.9919627" lon="11.5125519"><ele>281.2</ele><time>2026-05-02T14:42:08.657Z</time></trkpt><trkpt lat="42.9919169" lon="11.5124246"><ele>280.6</ele><time>2026-05-02T14:42:09.66Z</time></trkpt><trkpt lat="42.9918295" lon="11.5123363"><ele>280.0</ele><time>2026-05-02T14:42:10.649Z</time></trkpt><trkpt lat="42.9917335" lon="11.5122716"><ele>278.8</ele><time>2026-05-02T14:42:11.655Z</time></trkpt><trkpt lat="42.9916296" lon="11.5122274"><ele>277.6</ele><time>2026-05-02T14:42:12.652Z</time></trkpt><trkpt lat="42.9915391" lon="11.5122045"><ele>276.4</ele><time>2026-05-02T14:42:13.663Z</time></trkpt><trkpt lat="42.9914567" lon="11.5121889"><ele>275.2</ele><time>2026-05-02T14:42:14.649Z</time></trkpt><trkpt lat="42.9913708" lon="11.5121651"><ele>274.0</ele><time>2026-05-02T14:42:15.653Z</time></trkpt><trkpt lat="42.9912763" lon="11.5121358"><ele>274.0</ele><time>2026-05-02T14:42:16.663Z</time></trkpt><trkpt lat="42.9911731" lon="11.5121034"><ele>274.0</ele><time>2026-05-02T14:42:17.656Z</time></trkpt><trkpt lat="42.9910609" lon="11.5120728"><ele>274.0</ele><time>2026-05-02T14:42:18.665Z</time></trkpt><trkpt lat="42.9909387" lon="11.5120347"><ele>274.0</ele><time>2026-05-02T14:42:19.652Z</time></trkpt><trkpt lat="42.9908104" lon="11.5119876"><ele>277.0</ele><time>2026-05-02T14:42:20.657Z</time></trkpt><trkpt lat="42.9906748" lon="11.5119398"><ele>280.0</ele><time>2026-05-02T14:42:21.651Z</time></trkpt><trkpt lat="42.9905307" lon="11.5118963"><ele>283.0</ele><time>2026-05-02T14:42:22.656Z</time></trkpt><trkpt lat="42.9903857" lon="11.5118445"><ele>286.0</ele><time>2026-05-02T14:42:23.659Z</time></trkpt><trkpt lat="42.9902335" lon="11.5118009"><ele>286.0</ele><time>2026-05-02T14:42:24.661Z</time></trkpt><trkpt lat="42.990086" lon="11.5117592"><ele>286.0</ele><time>2026-05-02T14:42:25.659Z</time></trkpt><trkpt lat="42.9899548" lon="11.5117253"><ele>286.0</ele><time>2026-05-02T14:42:26.661Z</time></trkpt><trkpt lat="42.989845" lon="11.5116866"><ele>286.0</ele><time>2026-05-02T14:42:27.656Z</time></trkpt><trkpt lat="42.989756" lon="11.5116358"><ele>286.0</ele><time>2026-05-02T14:42:28.655Z</time></trkpt><trkpt lat="42.9896905" lon="11.5115611"><ele>286.0</ele><time>2026-05-02T14:42:29.659Z</time></trkpt><trkpt lat="42.989646" lon="11.5114614"><ele>286.0</ele><time>2026-05-02T14:42:30.677Z</time></trkpt><trkpt lat="42.9896193" lon="11.5113615"><ele>286.0</ele><time>2026-05-02T14:42:31.66Z</time></trkpt><trkpt lat="42.9896118" lon="11.5112698"><ele>286.0</ele><time>2026-05-02T14:42:32.664Z</time></trkpt><trkpt lat="42.989614" lon="11.5111745"><ele>286.0</ele><time>2026-05-02T14:42:33.651Z</time></trkpt><trkpt lat="42.9895979" lon="11.5110787"><ele>287.6</ele><time>2026-05-02T14:42:34.658Z</time></trkpt><trkpt lat="42.9895697" lon="11.5109779"><ele>289.20000000000005</ele><time>2026-05-02T14:42:35.669Z</time></trkpt><trkpt lat="42.989539" lon="11.510843"><ele>290.79999999999995</ele><time>2026-05-02T14:42:36.661Z</time></trkpt><trkpt lat="42.9895101" lon="11.5106924"><ele>292.4</ele><time>2026-05-02T14:42:37.657Z</time></trkpt><trkpt lat="42.989482" lon="11.5105331"><ele>294.0</ele><time>2026-05-02T14:42:38.674Z</time></trkpt><trkpt lat="42.9894553" lon="11.5103791"><ele>295.4</ele><time>2026-05-02T14:42:39.664Z</time></trkpt><trkpt lat="42.9894274" lon="11.5102317"><ele>296.79999999999995</ele><time>2026-05-02T14:42:40.673Z</time></trkpt><trkpt lat="42.9894062" lon="11.5100894"><ele>298.20000000000005</ele><time>2026-05-02T14:42:41.67Z</time></trkpt><trkpt lat="42.9893918" lon="11.5099512"><ele>299.6</ele><time>2026-05-02T14:42:42.668Z</time></trkpt><trkpt lat="42.9893825" lon="11.5098118"><ele>301.0</ele><time>2026-05-02T14:42:43.666Z</time></trkpt><trkpt lat="42.9893844" lon="11.5096609"><ele>299.5</ele><time>2026-05-02T14:42:44.676Z</time></trkpt><trkpt lat="42.9893933" lon="11.509506"><ele>298.0</ele><time>2026-05-02T14:42:45.661Z</time></trkpt><trkpt lat="42.9894102" lon="11.5093432"><ele>296.5</ele><time>2026-05-02T14:42:46.662Z</time></trkpt><trkpt lat="42.9894307" lon="11.5091717"><ele>295.0</ele><time>2026-05-02T14:42:47.667Z</time></trkpt><trkpt lat="42.9894507" lon="11.5089974"><ele>295.0</ele><time>2026-05-02T14:42:48.677Z</time></trkpt><trkpt lat="42.9894706" lon="11.5088228"><ele>295.0</ele><time>2026-05-02T14:42:49.665Z</time></trkpt><trkpt lat="42.9894898" lon="11.5086463"><ele>295.0</ele><time>2026-05-02T14:42:50.664Z</time></trkpt><trkpt lat="42.989507" lon="11.5084691"><ele>295.0</ele><time>2026-05-02T14:42:51.653Z</time></trkpt><trkpt lat="42.9895221" lon="11.5082999"><ele>291.75</ele><time>2026-05-02T14:42:52.674Z</time></trkpt><trkpt lat="42.9895382" lon="11.508134"><ele>288.5</ele><time>2026-05-02T14:42:53.658Z</time></trkpt><trkpt lat="42.9895613" lon="11.5079749"><ele>285.25</ele><time>2026-05-02T14:42:54.676Z</time></trkpt><trkpt lat="42.989597" lon="11.5078261"><ele>282.0</ele><time>2026-05-02T14:42:55.659Z</time></trkpt><trkpt lat="42.9896427" lon="11.5076764"><ele>279.8</ele><time>2026-05-02T14:42:56.664Z</time></trkpt><trkpt lat="42.9896988" lon="11.5075438"><ele>277.6</ele><time>2026-05-02T14:42:57.658Z</time></trkpt><trkpt lat="42.9897577" lon="11.5074294"><ele>275.40000000000003</ele><time>2026-05-02T14:42:58.673Z</time></trkpt><trkpt lat="42.9898263" lon="11.5073255"><ele>273.2</ele><time>2026-05-02T14:42:59.668Z</time></trkpt><trkpt lat="42.9899058" lon="11.5072288"><ele>271.0</ele><time>2026-05-02T14:43:00.672Z</time></trkpt><trkpt lat="42.9899864" lon="11.5071316"><ele>275.0</ele><time>2026-05-02T14:43:01.659Z</time></trkpt><trkpt lat="42.9900512" lon="11.5070265"><ele>279.0</ele><time>2026-05-02T14:43:02.669Z</time></trkpt><trkpt lat="42.990088" lon="11.5068915"><ele>283.0</ele><time>2026-05-02T14:43:03.67Z</time></trkpt><trkpt lat="42.9901057" lon="11.5067384"><ele>287.0</ele><time>2026-05-02T14:43:04.658Z</time></trkpt><trkpt lat="42.9901149" lon="11.5065737"><ele>291.0</ele><time>2026-05-02T14:43:05.655Z</time></trkpt><trkpt lat="42.9901311" lon="11.5064107"><ele>291.0</ele><time>2026-05-02T14:43:06.677Z</time></trkpt><trkpt lat="42.990158" lon="11.5062668"><ele>291.0</ele><time>2026-05-02T14:43:07.669Z</time></trkpt><trkpt lat="42.9901985" lon="11.5061388"><ele>291.0</ele><time>2026-05-02T14:43:08.664Z</time></trkpt><trkpt lat="42.9902447" lon="11.506029"><ele>291.0</ele><time>2026-05-02T14:43:09.654Z</time></trkpt><trkpt lat="42.9903053" lon="11.5059257"><ele>291.0</ele><time>2026-05-02T14:43:10.653Z</time></trkpt><trkpt lat="42.9903703" lon="11.5058174"><ele>289.25</ele><time>2026-05-02T14:43:11.641Z</time></trkpt><trkpt lat="42.9904411" lon="11.5056926"><ele>287.5</ele><time>2026-05-02T14:43:12.653Z</time></trkpt><trkpt lat="42.9905111" lon="11.5055438"><ele>285.75</ele><time>2026-05-02T14:43:13.649Z</time></trkpt><trkpt lat="42.9905784" lon="11.5053832"><ele>284.0</ele><time>2026-05-02T14:43:14.66Z</time></trkpt><trkpt lat="42.990645" lon="11.5052133"><ele>286.25</ele><time>2026-05-02T14:43:15.668Z</time></trkpt><trkpt lat="42.9907164" lon="11.5050363"><ele>288.5</ele><time>2026-05-02T14:43:16.656Z</time></trkpt><trkpt lat="42.990788" lon="11.5048598"><ele>290.75</ele><time>2026-05-02T14:43:17.656Z</time></trkpt><trkpt lat="42.9908581" lon="11.5046809"><ele>293.0</ele><time>2026-05-02T14:43:18.653Z</time></trkpt><trkpt lat="42.9909238" lon="11.504504"><ele>293.0</ele><time>2026-05-02T14:43:19.649Z</time></trkpt><trkpt lat="42.9909856" lon="11.5043313"><ele>293.0</ele><time>2026-05-02T14:43:20.651Z</time></trkpt><trkpt lat="42.9910481" lon="11.5041613"><ele>293.0</ele><time>2026-05-02T14:43:21.659Z</time></trkpt><trkpt lat="42.9911217" lon="11.5039993"><ele>293.0</ele><time>2026-05-02T14:43:22.652Z</time></trkpt><trkpt lat="42.9912014" lon="11.5038466"><ele>290.0</ele><time>2026-05-02T14:43:23.656Z</time></trkpt><trkpt lat="42.9912826" lon="11.5036931"><ele>287.0</ele><time>2026-05-02T14:43:24.656Z</time></trkpt><trkpt lat="42.9913611" lon="11.5035408"><ele>284.0</ele><time>2026-05-02T14:43:25.655Z</time></trkpt><trkpt lat="42.9914311" lon="11.5033801"><ele>281.0</ele><time>2026-05-02T14:43:26.661Z</time></trkpt><trkpt lat="42.9914962" lon="11.5032147"><ele>281.0</ele><time>2026-05-02T14:43:27.663Z</time></trkpt><trkpt lat="42.9915586" lon="11.5030415"><ele>281.0</ele><time>2026-05-02T14:43:28.661Z</time></trkpt><trkpt lat="42.9916168" lon="11.5028641"><ele>281.0</ele><time>2026-05-02T14:43:29.66Z</time></trkpt><trkpt lat="42.9916799" lon="11.5026785"><ele>281.0</ele><time>2026-05-02T14:43:30.674Z</time></trkpt><trkpt lat="42.9917484" lon="11.5024956"><ele>283.33333333333337</ele><time>2026-05-02T14:43:31.669Z</time></trkpt><trkpt lat="42.991817" lon="11.5023095"><ele>285.6666666666667</ele><time>2026-05-02T14:43:32.659Z</time></trkpt><trkpt lat="42.9918837" lon="11.5021214"><ele>288.0</ele><time>2026-05-02T14:43:33.656Z</time></trkpt><trkpt lat="42.9919475" lon="11.5019395"><ele>288.0</ele><time>2026-05-02T14:43:34.659Z</time></trkpt><trkpt lat="42.99201" lon="11.5017619"><ele>288.0</ele><time>2026-05-02T14:43:35.671Z</time></trkpt><trkpt lat="42.9920601" lon="11.5015929"><ele>288.0</ele><time>2026-05-02T14:43:36.674Z</time></trkpt><trkpt lat="42.9920884" lon="11.5014421"><ele>288.0</ele><time>2026-05-02T14:43:37.663Z</time></trkpt><trkpt lat="42.9920967" lon="11.501304"><ele>287.6</ele><time>2026-05-02T14:43:38.666Z</time></trkpt><trkpt lat="42.9920769" lon="11.5011854"><ele>287.20000000000005</ele><time>2026-05-02T14:43:39.662Z</time></trkpt><trkpt lat="42.9920146" lon="11.5010844"><ele>286.8</ele><time>2026-05-02T14:43:40.672Z</time></trkpt><trkpt lat="42.9919279" lon="11.5010093"><ele>286.40000000000003</ele><time>2026-05-02T14:43:41.662Z</time></trkpt><trkpt lat="42.9918297" lon="11.5009476"><ele>286.0</ele><time>2026-05-02T14:43:42.662Z</time></trkpt><trkpt lat="42.9917226" lon="11.5008849"><ele>282.5</ele><time>2026-05-02T14:43:43.664Z</time></trkpt><trkpt lat="42.9916219" lon="11.5008119"><ele>279.0</ele><time>2026-05-02T14:43:44.674Z</time></trkpt><trkpt lat="42.9915258" lon="11.5007202"><ele>275.5</ele><time>2026-05-02T14:43:45.647Z</time></trkpt><trkpt lat="42.9914287" lon="11.5006083"><ele>272.0</ele><time>2026-05-02T14:43:46.659Z</time></trkpt><trkpt lat="42.9913346" lon="11.5004869"><ele>275.25</ele><time>2026-05-02T14:43:47.657Z</time></trkpt><trkpt lat="42.991237" lon="11.5003517"><ele>278.5</ele><time>2026-05-02T14:43:48.657Z</time></trkpt><trkpt lat="42.991138" lon="11.5002052"><ele>281.75</ele><time>2026-05-02T14:43:49.656Z</time></trkpt><trkpt lat="42.9910376" lon="11.5000592"><ele>285.0</ele><time>2026-05-02T14:43:50.668Z</time></trkpt><trkpt lat="42.9909353" lon="11.4999176"><ele>285.5</ele><time>2026-05-02T14:43:51.655Z</time></trkpt><trkpt lat="42.9908343" lon="11.4997754"><ele>286.0</ele><time>2026-05-02T14:43:52.655Z</time></trkpt><trkpt lat="42.9907302" lon="11.4996345"><ele>286.5</ele><time>2026-05-02T14:43:53.66Z</time></trkpt><trkpt lat="42.9906303" lon="11.4994915"><ele>287.0</ele><time>2026-05-02T14:43:54.662Z</time></trkpt><trkpt lat="42.9905357" lon="11.4993504"><ele>287.0</ele><time>2026-05-02T14:43:55.672Z</time></trkpt><trkpt lat="42.9904466" lon="11.4992092"><ele>287.0</ele><time>2026-05-02T14:43:56.666Z</time></trkpt><trkpt lat="42.9903598" lon="11.4990707"><ele>287.0</ele><time>2026-05-02T14:43:57.668Z</time></trkpt><trkpt lat="42.9902721" lon="11.4989377"><ele>287.0</ele><time>2026-05-02T14:43:58.662Z</time></trkpt><trkpt lat="42.9901887" lon="11.4988086"><ele>288.8</ele><time>2026-05-02T14:43:59.656Z</time></trkpt><trkpt lat="42.9901245" lon="11.4986865"><ele>290.6</ele><time>2026-05-02T14:44:00.665Z</time></trkpt><trkpt lat="42.9900798" lon="11.4985601"><ele>292.40000000000003</ele><time>2026-05-02T14:44:01.663Z</time></trkpt><trkpt lat="42.9900526" lon="11.4984217"><ele>294.2</ele><time>2026-05-02T14:44:02.649Z</time></trkpt><trkpt lat="42.9900388" lon="11.4982677"><ele>296.0</ele><time>2026-05-02T14:44:03.658Z</time></trkpt><trkpt lat="42.9900428" lon="11.4981024"><ele>296.0</ele><time>2026-05-02T14:44:04.673Z</time></trkpt><trkpt lat="42.9900517" lon="11.4979389"><ele>296.0</ele><time>2026-05-02T14:44:05.664Z</time></trkpt><trkpt lat="42.9900675" lon="11.4977711"><ele>296.0</ele><time>2026-05-02T14:44:06.671Z</time></trkpt><trkpt lat="42.9900813" lon="11.4976064"><ele>296.0</ele><time>2026-05-02T14:44:07.67Z</time></trkpt><trkpt lat="42.9900981" lon="11.4974453"><ele>296.5</ele><time>2026-05-02T14:44:08.676Z</time></trkpt><trkpt lat="42.9901241" lon="11.4972802"><ele>297.0</ele><time>2026-05-02T14:44:09.666Z</time></trkpt><trkpt lat="42.9901673" lon="11.4971104"><ele>297.5</ele><time>2026-05-02T14:44:10.675Z</time></trkpt><trkpt lat="42.9902201" lon="11.4969436"><ele>298.0</ele><time>2026-05-02T14:44:11.67Z</time></trkpt><trkpt lat="42.9902717" lon="11.4967858"><ele>296.8</ele><time>2026-05-02T14:44:12.667Z</time></trkpt><trkpt lat="42.9903237" lon="11.4966409"><ele>295.6</ele><time>2026-05-02T14:44:13.661Z</time></trkpt><trkpt lat="42.9903662" lon="11.4965048"><ele>294.4</ele><time>2026-05-02T14:44:14.666Z</time></trkpt><trkpt lat="42.9904078" lon="11.496375"><ele>293.2</ele><time>2026-05-02T14:44:15.664Z</time></trkpt><trkpt lat="42.9904471" lon="11.4962527"><ele>292.0</ele><time>2026-05-02T14:44:16.658Z</time></trkpt><trkpt lat="42.990483" lon="11.4961423"><ele>290.5</ele><time>2026-05-02T14:44:17.658Z</time></trkpt><trkpt lat="42.9905191" lon="11.4960383"><ele>289.0</ele><time>2026-05-02T14:44:18.662Z</time></trkpt><trkpt lat="42.9905537" lon="11.4959434"><ele>287.5</ele><time>2026-05-02T14:44:19.662Z</time></trkpt><trkpt lat="42.9905821" lon="11.4958494"><ele>286.0</ele><time>2026-05-02T14:44:20.659Z</time></trkpt><trkpt lat="42.9906117" lon="11.4957516"><ele>284.5</ele><time>2026-05-02T14:44:21.659Z</time></trkpt><trkpt lat="42.99064" lon="11.4956495"><ele>283.0</ele><time>2026-05-02T14:44:22.671Z</time></trkpt><trkpt lat="42.9906691" lon="11.4955433"><ele>283.0</ele><time>2026-05-02T14:44:23.665Z</time></trkpt><trkpt lat="42.9906991" lon="11.495424"><ele>283.0</ele><time>2026-05-02T14:44:24.675Z</time></trkpt><trkpt lat="42.9907277" lon="11.4952951"><ele>283.0</ele><time>2026-05-02T14:44:25.672Z</time></trkpt><trkpt lat="42.99076" lon="11.4951611"><ele>283.0</ele><time>2026-05-02T14:44:26.67Z</time></trkpt><trkpt lat="42.9907925" lon="11.4950185"><ele>283.0</ele><time>2026-05-02T14:44:27.67Z</time></trkpt><trkpt lat="42.9908275" lon="11.4948677"><ele>285.75</ele><time>2026-05-02T14:44:28.665Z</time></trkpt><trkpt lat="42.9908684" lon="11.494705"><ele>288.5</ele><time>2026-05-02T14:44:29.665Z</time></trkpt><trkpt lat="42.9909051" lon="11.4945326"><ele>291.25</ele><time>2026-05-02T14:44:30.664Z</time></trkpt><trkpt lat="42.9909386" lon="11.494357"><ele>294.0</ele><time>2026-05-02T14:44:31.664Z</time></trkpt><trkpt lat="42.9909744" lon="11.4941834"><ele>294.0</ele><time>2026-05-02T14:44:32.671Z</time></trkpt><trkpt lat="42.9910119" lon="11.4940107"><ele>294.0</ele><time>2026-05-02T14:44:33.663Z</time></trkpt><trkpt lat="42.9910517" lon="11.4938312"><ele>294.0</ele><time>2026-05-02T14:44:34.662Z</time></trkpt><trkpt lat="42.991093" lon="11.4936468"><ele>294.0</ele><time>2026-05-02T14:44:35.662Z</time></trkpt><trkpt lat="42.9911342" lon="11.4934567"><ele>293.6666666666667</ele><time>2026-05-02T14:44:36.664Z</time></trkpt><trkpt lat="42.991174" lon="11.4932629"><ele>293.33333333333337</ele><time>2026-05-02T14:44:37.665Z</time></trkpt><trkpt lat="42.9912119" lon="11.4930636"><ele>293.0</ele><time>2026-05-02T14:44:38.677Z</time></trkpt><trkpt lat="42.99125" lon="11.4928624"><ele>293.0</ele><time>2026-05-02T14:44:39.654Z</time></trkpt><trkpt lat="42.9912906" lon="11.4926628"><ele>293.0</ele><time>2026-05-02T14:44:40.665Z</time></trkpt><trkpt lat="42.9913304" lon="11.4924587"><ele>293.0</ele><time>2026-05-02T14:44:41.661Z</time></trkpt><trkpt lat="42.9913673" lon="11.4922492"><ele>293.0</ele><time>2026-05-02T14:44:42.66Z</time></trkpt><trkpt lat="42.9913997" lon="11.4920392"><ele>293.0</ele><time>2026-05-02T14:44:43.661Z</time></trkpt><trkpt lat="42.9914348" lon="11.4918325"><ele>293.0</ele><time>2026-05-02T14:44:44.669Z</time></trkpt><trkpt lat="42.9914733" lon="11.4916285"><ele>293.0</ele><time>2026-05-02T14:44:45.657Z</time></trkpt><trkpt lat="42.9915089" lon="11.4914266"><ele>293.0</ele><time>2026-05-02T14:44:46.663Z</time></trkpt><trkpt lat="42.9915459" lon="11.491224"><ele>293.0</ele><time>2026-05-02T14:44:47.667Z</time></trkpt><trkpt lat="42.99158" lon="11.4910269"><ele>293.25</ele><time>2026-05-02T14:44:48.662Z</time></trkpt><trkpt lat="42.9916143" lon="11.4908325"><ele>293.5</ele><time>2026-05-02T14:44:49.664Z</time></trkpt><trkpt lat="42.9916447" lon="11.4906409"><ele>293.75</ele><time>2026-05-02T14:44:50.662Z</time></trkpt><trkpt lat="42.9916766" lon="11.4904489"><ele>294.0</ele><time>2026-05-02T14:44:51.671Z</time></trkpt><trkpt lat="42.9917068" lon="11.4902558"><ele>298.25</ele><time>2026-05-02T14:44:52.662Z</time></trkpt><trkpt lat="42.9917367" lon="11.4900665"><ele>302.5</ele><time>2026-05-02T14:44:53.661Z</time></trkpt><trkpt lat="42.9917672" lon="11.4898751"><ele>306.75</ele><time>2026-05-02T14:44:54.661Z</time></trkpt><trkpt lat="42.9918014" lon="11.4896763"><ele>311.0</ele><time>2026-05-02T14:44:55.655Z</time></trkpt><trkpt lat="42.9918386" lon="11.4894764"><ele>311.0</ele><time>2026-05-02T14:44:56.659Z</time></trkpt><trkpt lat="42.9918731" lon="11.4892888"><ele>311.0</ele><time>2026-05-02T14:44:57.665Z</time></trkpt><trkpt lat="42.9918992" lon="11.4891064"><ele>311.0</ele><time>2026-05-02T14:44:58.658Z</time></trkpt><trkpt lat="42.9919154" lon="11.4889308"><ele>311.0</ele><time>2026-05-02T14:44:59.669Z</time></trkpt><trkpt lat="42.9919307" lon="11.4887531"><ele>310.5</ele><time>2026-05-02T14:45:00.668Z</time></trkpt><trkpt lat="42.9919481" lon="11.488571"><ele>310.0</ele><time>2026-05-02T14:45:01.665Z</time></trkpt><trkpt lat="42.9919642" lon="11.4884007"><ele>309.5</ele><time>2026-05-02T14:45:02.659Z</time></trkpt><trkpt lat="42.9919817" lon="11.4882304"><ele>309.0</ele><time>2026-05-02T14:45:03.655Z</time></trkpt><trkpt lat="42.9920032" lon="11.4880639"><ele>307.75</ele><time>2026-05-02T14:45:04.659Z</time></trkpt><trkpt lat="42.9920236" lon="11.4878994"><ele>306.5</ele><time>2026-05-02T14:45:05.667Z</time></trkpt><trkpt lat="42.992044" lon="11.4877431"><ele>305.25</ele><time>2026-05-02T14:45:06.661Z</time></trkpt><trkpt lat="42.9920632" lon="11.4875936"><ele>304.0</ele><time>2026-05-02T14:45:07.658Z</time></trkpt><trkpt lat="42.9920771" lon="11.4874498"><ele>304.0</ele><time>2026-05-02T14:45:08.66Z</time></trkpt><trkpt lat="42.9920915" lon="11.4873137"><ele>304.0</ele><time>2026-05-02T14:45:09.661Z</time></trkpt><trkpt lat="42.9921045" lon="11.4871799"><ele>304.0</ele><time>2026-05-02T14:45:10.666Z</time></trkpt><trkpt lat="42.9921306" lon="11.4870475"><ele>304.0</ele><time>2026-05-02T14:45:11.665Z</time></trkpt><trkpt lat="42.9921763" lon="11.4869162"><ele>304.0</ele><time>2026-05-02T14:45:12.667Z</time></trkpt><trkpt lat="42.9922459" lon="11.4867792"><ele>303.25</ele><time>2026-05-02T14:45:13.659Z</time></trkpt><trkpt lat="42.9923323" lon="11.48665"><ele>302.5</ele><time>2026-05-02T14:45:14.676Z</time></trkpt><trkpt lat="42.9924241" lon="11.486515"><ele>301.75</ele><time>2026-05-02T14:45:15.664Z</time></trkpt><trkpt lat="42.9925177" lon="11.4863769"><ele>301.0</ele><time>2026-05-02T14:45:16.663Z</time></trkpt><trkpt lat="42.9926116" lon="11.4862391"><ele>301.0</ele><time>2026-05-02T14:45:17.669Z</time></trkpt><trkpt lat="42.9926983" lon="11.4861134"><ele>301.0</ele><time>2026-05-02T14:45:18.658Z</time></trkpt><trkpt lat="42.9927797" lon="11.4860023"><ele>301.0</ele><time>2026-05-02T14:45:19.667Z</time></trkpt><trkpt lat="42.9928579" lon="11.485917"><ele>301.0</ele><time>2026-05-02T14:45:20.653Z</time></trkpt><trkpt lat="42.9929294" lon="11.4858527"><ele>301.0</ele><time>2026-05-02T14:45:21.664Z</time></trkpt><trkpt lat="42.9930196" lon="11.4858064"><ele>301.0</ele><time>2026-05-02T14:45:23.654Z</time></trkpt><trkpt lat="42.9930823" lon="11.485789"><ele>301.0</ele><time>2026-05-02T14:45:26.655Z</time></trkpt><trkpt lat="42.9931735" lon="11.4857829"><ele>301.0</ele><time>2026-05-02T14:45:28.665Z</time></trkpt><trkpt lat="42.9933124" lon="11.4857762"><ele>301.0</ele><time>2026-05-02T14:45:30.659Z</time></trkpt><trkpt lat="42.993396" lon="11.4857735"><ele>301.0</ele><time>2026-05-02T14:45:31.661Z</time></trkpt><trkpt lat="42.9934777" lon="11.4857691"><ele>301.66666666666663</ele><time>2026-05-02T14:45:32.661Z</time></trkpt><trkpt lat="42.9935638" lon="11.4857663"><ele>302.3333333333333</ele><time>2026-05-02T14:45:33.652Z</time></trkpt><trkpt lat="42.9936467" lon="11.4857679"><ele>303.0</ele><time>2026-05-02T14:45:34.657Z</time></trkpt><trkpt lat="42.993733" lon="11.4857727"><ele>303.6666666666667</ele><time>2026-05-02T14:45:35.67Z</time></trkpt><trkpt lat="42.9938137" lon="11.4857751"><ele>304.33333333333337</ele><time>2026-05-02T14:45:36.661Z</time></trkpt><trkpt lat="42.9938914" lon="11.4857723"><ele>305.0</ele><time>2026-05-02T14:45:37.668Z</time></trkpt><trkpt lat="42.9939709" lon="11.4857688"><ele>305.0</ele><time>2026-05-02T14:45:38.666Z</time></trkpt><trkpt lat="42.9940558" lon="11.4857576"><ele>305.0</ele><time>2026-05-02T14:45:39.657Z</time></trkpt><trkpt lat="42.9941439" lon="11.4857364"><ele>305.0</ele><time>2026-05-02T14:45:40.67Z</time></trkpt><trkpt lat="42.9942381" lon="11.4857044"><ele>305.0</ele><time>2026-05-02T14:45:41.664Z</time></trkpt><trkpt lat="42.9943408" lon="11.48565"><ele>305.0</ele><time>2026-05-02T14:45:42.658Z</time></trkpt><trkpt lat="42.9944459" lon="11.485586"><ele>304.5</ele><time>2026-05-02T14:45:43.663Z</time></trkpt><trkpt lat="42.9945486" lon="11.4855223"><ele>304.0</ele><time>2026-05-02T14:45:44.652Z</time></trkpt><trkpt lat="42.9946467" lon="11.4854728"><ele>303.5</ele><time>2026-05-02T14:45:45.66Z</time></trkpt><trkpt lat="42.9947302" lon="11.4854291"><ele>303.0</ele><time>2026-05-02T14:45:46.66Z</time></trkpt><trkpt lat="42.9947976" lon="11.485392"><ele>302.5</ele><time>2026-05-02T14:45:47.652Z</time></trkpt><trkpt lat="42.9948582" lon="11.4853682"><ele>302.0</ele><time>2026-05-02T14:45:48.67Z</time></trkpt><trkpt lat="42.9949265" lon="11.4853499"><ele>302.0</ele><time>2026-05-02T14:45:50.651Z</time></trkpt><trkpt lat="42.9948643" lon="11.4853357"><ele>302.0</ele><time>2026-05-02T14:46:10.649Z</time></trkpt><trkpt lat="42.994762" lon="11.4853933"><ele>302.0</ele><time>2026-05-02T14:46:12.647Z</time></trkpt><trkpt lat="42.9946647" lon="11.4854503"><ele>302.0</ele><time>2026-05-02T14:46:14.657Z</time></trkpt><trkpt lat="42.9945815" lon="11.4855007"><ele>302.0</ele><time>2026-05-02T14:46:16.653Z</time></trkpt><trkpt lat="42.9944628" lon="11.4855726"><ele>302.0</ele><time>2026-05-02T14:46:18.67Z</time></trkpt><trkpt lat="42.9943839" lon="11.4856227"><ele>302.0</ele><time>2026-05-02T14:46:19.651Z</time></trkpt><trkpt lat="42.994299" lon="11.4856704"><ele>302.0</ele><time>2026-05-02T14:46:20.664Z</time></trkpt><trkpt lat="42.9942077" lon="11.4857088"><ele>302.0</ele><time>2026-05-02T14:46:21.66Z</time></trkpt><trkpt lat="42.9941165" lon="11.485743"><ele>302.0</ele><time>2026-05-02T14:46:22.659Z</time></trkpt><trkpt lat="42.9940228" lon="11.4857592"><ele>302.75</ele><time>2026-05-02T14:46:23.665Z</time></trkpt><trkpt lat="42.9939193" lon="11.4857656"><ele>303.5</ele><time>2026-05-02T14:46:24.649Z</time></trkpt><trkpt lat="42.9938054" lon="11.4857725"><ele>304.25</ele><time>2026-05-02T14:46:25.668Z</time></trkpt><trkpt lat="42.99368" lon="11.4857691"><ele>305.0</ele><time>2026-05-02T14:46:26.652Z</time></trkpt><trkpt lat="42.9935509" lon="11.4857722"><ele>305.0</ele><time>2026-05-02T14:46:27.67Z</time></trkpt><trkpt lat="42.9934326" lon="11.4857684"><ele>305.0</ele><time>2026-05-02T14:46:28.666Z</time></trkpt><trkpt lat="42.9933384" lon="11.4857611"><ele>305.0</ele><time>2026-05-02T14:46:29.656Z</time></trkpt><trkpt lat="42.9932557" lon="11.4857583"><ele>305.0</ele><time>2026-05-02T14:46:30.659Z</time></trkpt><trkpt lat="42.9931806" lon="11.4857562"><ele>305.0</ele><time>2026-05-02T14:46:31.658Z</time></trkpt><trkpt lat="42.9930998" lon="11.4857643"><ele>304.2</ele><time>2026-05-02T14:46:32.677Z</time></trkpt><trkpt lat="42.9930179" lon="11.4857893"><ele>303.4</ele><time>2026-05-02T14:46:33.668Z</time></trkpt><trkpt lat="42.992932" lon="11.4858328"><ele>302.6</ele><time>2026-05-02T14:46:34.669Z</time></trkpt><trkpt lat="42.9928467" lon="11.4859109"><ele>301.8</ele><time>2026-05-02T14:46:35.659Z</time></trkpt><trkpt lat="42.9927631" lon="11.4860085"><ele>301.0</ele><time>2026-05-02T14:46:36.653Z</time></trkpt><trkpt lat="42.9926775" lon="11.4861268"><ele>301.0</ele><time>2026-05-02T14:46:37.665Z</time></trkpt><trkpt lat="42.9925882" lon="11.4862578"><ele>301.0</ele><time>2026-05-02T14:46:38.667Z</time></trkpt><trkpt lat="42.9924963" lon="11.4863941"><ele>301.0</ele><time>2026-05-02T14:46:39.659Z</time></trkpt><trkpt lat="42.9924058" lon="11.4865345"><ele>301.0</ele><time>2026-05-02T14:46:40.657Z</time></trkpt><trkpt lat="42.9923176" lon="11.4866639"><ele>301.6</ele><time>2026-05-02T14:46:41.672Z</time></trkpt><trkpt lat="42.9922379" lon="11.4867832"><ele>302.20000000000005</ele><time>2026-05-02T14:46:42.672Z</time></trkpt><trkpt lat="42.992181" lon="11.4868977"><ele>302.79999999999995</ele><time>2026-05-02T14:46:43.657Z</time></trkpt><trkpt lat="42.9921417" lon="11.4870011"><ele>303.4</ele><time>2026-05-02T14:46:44.658Z</time></trkpt><trkpt lat="42.9921199" lon="11.4870924"><ele>304.0</ele><time>2026-05-02T14:46:45.662Z</time></trkpt><trkpt lat="42.992105" lon="11.4872533"><ele>304.0</ele><time>2026-05-02T14:46:47.655Z</time></trkpt><trkpt lat="42.9920233" lon="11.4872762"><ele>304.0</ele><time>2026-05-02T14:46:50.666Z</time></trkpt><trkpt lat="42.9919345" lon="11.4872415"><ele>304.0</ele><time>2026-05-02T14:46:51.658Z</time></trkpt><trkpt lat="42.9918346" lon="11.487199"><ele>304.0</ele><time>2026-05-02T14:46:52.662Z</time></trkpt><trkpt lat="42.9917119" lon="11.4871531"><ele>304.0</ele><time>2026-05-02T14:46:53.667Z</time></trkpt><trkpt lat="42.9915771" lon="11.4871099"><ele>299.25</ele><time>2026-05-02T14:46:54.653Z</time></trkpt><trkpt lat="42.9914359" lon="11.4870618"><ele>294.5</ele><time>2026-05-02T14:46:55.659Z</time></trkpt><trkpt lat="42.9912898" lon="11.4870113"><ele>289.75</ele><time>2026-05-02T14:46:56.662Z</time></trkpt><trkpt lat="42.9911412" lon="11.4869599"><ele>285.0</ele><time>2026-05-02T14:46:57.657Z</time></trkpt><trkpt lat="42.9909868" lon="11.4869018"><ele>282.6666666666667</ele><time>2026-05-02T14:46:58.673Z</time></trkpt><trkpt lat="42.9908286" lon="11.4868421"><ele>280.33333333333337</ele><time>2026-05-02T14:46:59.658Z</time></trkpt><trkpt lat="42.9906667" lon="11.4867824"><ele>278.0</ele><time>2026-05-02T14:47:00.668Z</time></trkpt><trkpt lat="42.9905048" lon="11.4867204"><ele>278.0</ele><time>2026-05-02T14:47:01.672Z</time></trkpt><trkpt lat="42.9903457" lon="11.4866549"><ele>278.0</ele><time>2026-05-02T14:47:02.659Z</time></trkpt><trkpt lat="42.9901879" lon="11.4865885"><ele>278.0</ele><time>2026-05-02T14:47:03.657Z</time></trkpt><trkpt lat="42.9900316" lon="11.4865274"><ele>275.6666666666667</ele><time>2026-05-02T14:47:04.661Z</time></trkpt><trkpt lat="42.9898763" lon="11.4864756"><ele>273.3333333333333</ele><time>2026-05-02T14:47:05.667Z</time></trkpt><trkpt lat="42.9897304" lon="11.4864171"><ele>271.0</ele><time>2026-05-02T14:47:06.663Z</time></trkpt><trkpt lat="42.989595" lon="11.4863651"><ele>271.0</ele><time>2026-05-02T14:47:07.667Z</time></trkpt><trkpt lat="42.9894693" lon="11.4863211"><ele>271.0</ele><time>2026-05-02T14:47:08.664Z</time></trkpt><trkpt lat="42.9893515" lon="11.4862806"><ele>271.0</ele><time>2026-05-02T14:47:09.667Z</time></trkpt><trkpt lat="42.9892401" lon="11.4862454"><ele>271.0</ele><time>2026-05-02T14:47:10.679Z</time></trkpt><trkpt lat="42.9891405" lon="11.4862163"><ele>270.3333333333333</ele><time>2026-05-02T14:47:11.657Z</time></trkpt><trkpt lat="42.9890555" lon="11.4861831"><ele>269.66666666666663</ele><time>2026-05-02T14:47:12.661Z</time></trkpt><trkpt lat="42.9889787" lon="11.4861547"><ele>269.0</ele><time>2026-05-02T14:47:13.664Z</time></trkpt><trkpt lat="42.9889036" lon="11.4861269"><ele>268.3333333333333</ele><time>2026-05-02T14:47:14.669Z</time></trkpt><trkpt lat="42.9888159" lon="11.4860934"><ele>267.6666666666667</ele><time>2026-05-02T14:47:15.66Z</time></trkpt><trkpt lat="42.9887147" lon="11.4860595"><ele>267.0</ele><time>2026-05-02T14:47:16.659Z</time></trkpt><trkpt lat="42.9886073" lon="11.4860252"><ele>267.0</ele><time>2026-05-02T14:47:17.672Z</time></trkpt><trkpt lat="42.988497" lon="11.4859844"><ele>267.0</ele><time>2026-05-02T14:47:18.68Z</time></trkpt><trkpt lat="42.9883854" lon="11.4859479"><ele>267.0</ele><time>2026-05-02T14:47:19.66Z</time></trkpt><trkpt lat="42.9882715" lon="11.4859108"><ele>267.0</ele><time>2026-05-02T14:47:20.662Z</time></trkpt><trkpt lat="42.9881519" lon="11.48587"><ele>267.5</ele><time>2026-05-02T14:47:21.665Z</time></trkpt><trkpt lat="42.9880304" lon="11.4858245"><ele>268.0</ele><time>2026-05-02T14:47:22.663Z</time></trkpt><trkpt lat="42.9879116" lon="11.4857809"><ele>268.5</ele><time>2026-05-02T14:47:23.67Z</time></trkpt><trkpt lat="42.9877869" lon="11.485735"><ele>269.0</ele><time>2026-05-02T14:47:24.658Z</time></trkpt><trkpt lat="42.9876666" lon="11.4856921"><ele>269.0</ele><time>2026-05-02T14:47:25.656Z</time></trkpt><trkpt lat="42.9875473" lon="11.4856529"><ele>269.0</ele><time>2026-05-02T14:47:26.672Z</time></trkpt><trkpt lat="42.987432" lon="11.4856166"><ele>269.0</ele><time>2026-05-02T14:47:27.666Z</time></trkpt><trkpt lat="42.9873283" lon="11.4855765"><ele>269.0</ele><time>2026-05-02T14:47:28.674Z</time></trkpt><trkpt lat="42.9872414" lon="11.4855251"><ele>269.0</ele><time>2026-05-02T14:47:29.662Z</time></trkpt><trkpt lat="42.987168" lon="11.4854697"><ele>269.0</ele><time>2026-05-02T14:47:30.66Z</time></trkpt><trkpt lat="42.9871009" lon="11.485396"><ele>269.0</ele><time>2026-05-02T14:47:31.666Z</time></trkpt><trkpt lat="42.9870283" lon="11.4853064"><ele>269.0</ele><time>2026-05-02T14:47:32.675Z</time></trkpt><trkpt lat="42.986955" lon="11.4852127"><ele>269.0</ele><time>2026-05-02T14:47:33.666Z</time></trkpt><trkpt lat="42.9868855" lon="11.4851321"><ele>269.0</ele><time>2026-05-02T14:47:34.655Z</time></trkpt><trkpt lat="42.9868174" lon="11.4850553"><ele>269.0</ele><time>2026-05-02T14:47:35.668Z</time></trkpt><trkpt lat="42.9867442" lon="11.4849984"><ele>269.0</ele><time>2026-05-02T14:47:36.655Z</time></trkpt><trkpt lat="42.9866695" lon="11.484975"><ele>269.0</ele><time>2026-05-02T14:47:37.665Z</time></trkpt><trkpt lat="42.9865856" lon="11.4849759"><ele>269.0</ele><time>2026-05-02T14:47:38.676Z</time></trkpt><trkpt lat="42.9864912" lon="11.484986"><ele>269.0</ele><time>2026-05-02T14:47:39.653Z</time></trkpt><trkpt lat="42.9863914" lon="11.4849958"><ele>269.0</ele><time>2026-05-02T14:47:40.668Z</time></trkpt><trkpt lat="42.986282" lon="11.4849996"><ele>268.75</ele><time>2026-05-02T14:47:41.646Z</time></trkpt><trkpt lat="42.9861689" lon="11.4850003"><ele>268.5</ele><time>2026-05-02T14:47:42.663Z</time></trkpt><trkpt lat="42.9860525" lon="11.4850012"><ele>268.25</ele><time>2026-05-02T14:47:43.66Z</time></trkpt><trkpt lat="42.9859331" lon="11.4849991"><ele>268.0</ele><time>2026-05-02T14:47:44.666Z</time></trkpt><trkpt lat="42.9858173" lon="11.4849826"><ele>267.6</ele><time>2026-05-02T14:47:45.661Z</time></trkpt><trkpt lat="42.9857077" lon="11.484954"><ele>267.20000000000005</ele><time>2026-05-02T14:47:46.663Z</time></trkpt><trkpt lat="42.9856074" lon="11.4849081"><ele>266.8</ele><time>2026-05-02T14:47:47.658Z</time></trkpt><trkpt lat="42.985523" lon="11.4848532"><ele>266.40000000000003</ele><time>2026-05-02T14:47:48.661Z</time></trkpt><trkpt lat="42.9854498" lon="11.4848128"><ele>266.0</ele><time>2026-05-02T14:47:49.672Z</time></trkpt><trkpt lat="42.9853833" lon="11.484792"><ele>266.0</ele><time>2026-05-02T14:47:50.658Z</time></trkpt><trkpt lat="42.9853114" lon="11.4847915"><ele>266.0</ele><time>2026-05-02T14:47:51.65Z</time></trkpt><trkpt lat="42.9852342" lon="11.4848123"><ele>266.0</ele><time>2026-05-02T14:47:52.664Z</time></trkpt><trkpt lat="42.9851629" lon="11.4848474"><ele>266.0</ele><time>2026-05-02T14:47:53.661Z</time></trkpt><trkpt lat="42.9850612" lon="11.4849058"><ele>266.0</ele><time>2026-05-02T14:47:55.657Z</time></trkpt><trkpt lat="42.9849902" lon="11.4849312"><ele>266.0</ele><time>2026-05-02T14:47:57.66Z</time></trkpt><trkpt lat="42.9849091" lon="11.4848292"><ele>266.0</ele><time>2026-05-02T14:48:00.67Z</time></trkpt><trkpt lat="42.9848533" lon="11.4847657"><ele>266.0</ele><time>2026-05-02T14:48:01.667Z</time></trkpt><trkpt lat="42.9847846" lon="11.4846912"><ele>266.0</ele><time>2026-05-02T14:48:02.671Z</time></trkpt><trkpt lat="42.9847068" lon="11.4846157"><ele>266.0</ele><time>2026-05-02T14:48:03.665Z</time></trkpt><trkpt lat="42.9846244" lon="11.4845255"><ele>266.0</ele><time>2026-05-02T14:48:04.662Z</time></trkpt><trkpt lat="42.9845364" lon="11.48442"><ele>265.5</ele><time>2026-05-02T14:48:05.659Z</time></trkpt><trkpt lat="42.9844423" lon="11.4843143"><ele>265.0</ele><time>2026-05-02T14:48:06.669Z</time></trkpt><trkpt lat="42.9843355" lon="11.4842267"><ele>264.5</ele><time>2026-05-02T14:48:07.667Z</time></trkpt><trkpt lat="42.9842247" lon="11.4841741"><ele>264.0</ele><time>2026-05-02T14:48:08.654Z</time></trkpt><trkpt lat="42.9841018" lon="11.4841512"><ele>264.0</ele><time>2026-05-02T14:48:09.671Z</time></trkpt><trkpt lat="42.9839746" lon="11.4841487"><ele>264.0</ele><time>2026-05-02T14:48:10.661Z</time></trkpt><trkpt lat="42.9838447" lon="11.4841478"><ele>264.0</ele><time>2026-05-02T14:48:11.673Z</time></trkpt><trkpt lat="42.9837197" lon="11.4841408"><ele>264.0</ele><time>2026-05-02T14:48:12.671Z</time></trkpt><trkpt lat="42.9836033" lon="11.4841118"><ele>264.0</ele><time>2026-05-02T14:48:13.655Z</time></trkpt><trkpt lat="42.983485" lon="11.4840636"><ele>264.0</ele><time>2026-05-02T14:48:14.65Z</time></trkpt><trkpt lat="42.9833611" lon="11.484004"><ele>264.0</ele><time>2026-05-02T14:48:15.668Z</time></trkpt><trkpt lat="42.9832245" lon="11.4839586"><ele>264.0</ele><time>2026-05-02T14:48:16.673Z</time></trkpt><trkpt lat="42.9830851" lon="11.4839329"><ele>264.25</ele><time>2026-05-02T14:48:17.662Z</time></trkpt><trkpt lat="42.9829544" lon="11.4839185"><ele>264.5</ele><time>2026-05-02T14:48:18.664Z</time></trkpt><trkpt lat="42.9828329" lon="11.4838946"><ele>264.75</ele><time>2026-05-02T14:48:19.664Z</time></trkpt><trkpt lat="42.9827133" lon="11.4838488"><ele>265.0</ele><time>2026-05-02T14:48:20.661Z</time></trkpt><trkpt lat="42.9825916" lon="11.4837749"><ele>264.0</ele><time>2026-05-02T14:48:21.664Z</time></trkpt><trkpt lat="42.9824651" lon="11.483691"><ele>263.0</ele><time>2026-05-02T14:48:22.668Z</time></trkpt><trkpt lat="42.9823318" lon="11.4836091"><ele>262.0</ele><time>2026-05-02T14:48:23.664Z</time></trkpt><trkpt lat="42.9822064" lon="11.4835128"><ele>261.0</ele><time>2026-05-02T14:48:24.678Z</time></trkpt><trkpt lat="42.9820804" lon="11.4834011"><ele>261.0</ele><time>2026-05-02T14:48:25.668Z</time></trkpt><trkpt lat="42.9819471" lon="11.483288"><ele>261.0</ele><time>2026-05-02T14:48:26.676Z</time></trkpt><trkpt lat="42.9818071" lon="11.4831633"><ele>261.0</ele><time>2026-05-02T14:48:27.657Z</time></trkpt><trkpt lat="42.9816591" lon="11.4830336"><ele>257.3333333333333</ele><time>2026-05-02T14:48:28.663Z</time></trkpt><trkpt lat="42.9815196" lon="11.482906"><ele>253.66666666666666</ele><time>2026-05-02T14:48:29.666Z</time></trkpt><trkpt lat="42.9813834" lon="11.4827781"><ele>250.0</ele><time>2026-05-02T14:48:30.667Z</time></trkpt><trkpt lat="42.981248" lon="11.4826471"><ele>250.0</ele><time>2026-05-02T14:48:31.665Z</time></trkpt><trkpt lat="42.9811066" lon="11.4825095"><ele>250.0</ele><time>2026-05-02T14:48:32.672Z</time></trkpt><trkpt lat="42.9809642" lon="11.482378"><ele>250.0</ele><time>2026-05-02T14:48:33.659Z</time></trkpt><trkpt lat="42.9808262" lon="11.4822516"><ele>248.0</ele><time>2026-05-02T14:48:34.656Z</time></trkpt><trkpt lat="42.9806873" lon="11.4821351"><ele>246.0</ele><time>2026-05-02T14:48:35.663Z</time></trkpt><trkpt lat="42.9805472" lon="11.4820254"><ele>244.0</ele><time>2026-05-02T14:48:36.657Z</time></trkpt><trkpt lat="42.9804024" lon="11.4819206"><ele>243.0</ele><time>2026-05-02T14:48:37.659Z</time></trkpt><trkpt lat="42.9802558" lon="11.4818174"><ele>242.0</ele><time>2026-05-02T14:48:38.658Z</time></trkpt><trkpt lat="42.9801066" lon="11.4817277"><ele>241.0</ele><time>2026-05-02T14:48:39.674Z</time></trkpt><trkpt lat="42.9799589" lon="11.481657"><ele>239.5</ele><time>2026-05-02T14:48:40.656Z</time></trkpt><trkpt lat="42.9798115" lon="11.4816049"><ele>238.0</ele><time>2026-05-02T14:48:41.654Z</time></trkpt><trkpt lat="42.9796682" lon="11.4815653"><ele>236.5</ele><time>2026-05-02T14:48:42.662Z</time></trkpt><trkpt lat="42.9795328" lon="11.4815174"><ele>235.0</ele><time>2026-05-02T14:48:43.655Z</time></trkpt><trkpt lat="42.979395" lon="11.4814593"><ele>235.0</ele><time>2026-05-02T14:48:44.666Z</time></trkpt><trkpt lat="42.9792498" lon="11.481385"><ele>235.0</ele><time>2026-05-02T14:48:45.661Z</time></trkpt><trkpt lat="42.9791011" lon="11.481305"><ele>235.0</ele><time>2026-05-02T14:48:46.671Z</time></trkpt><trkpt lat="42.9789486" lon="11.4812315"><ele>232.0</ele><time>2026-05-02T14:48:47.663Z</time></trkpt><trkpt lat="42.9788005" lon="11.4811562"><ele>229.0</ele><time>2026-05-02T14:48:48.668Z</time></trkpt><trkpt lat="42.9786627" lon="11.4810895"><ele>226.0</ele><time>2026-05-02T14:48:49.661Z</time></trkpt><trkpt lat="42.9785281" lon="11.4810144"><ele>226.0</ele><time>2026-05-02T14:48:50.675Z</time></trkpt><trkpt lat="42.9783899" lon="11.48094"><ele>226.0</ele><time>2026-05-02T14:48:51.669Z</time></trkpt><trkpt lat="42.9782556" lon="11.4808694"><ele>226.0</ele><time>2026-05-02T14:48:52.668Z</time></trkpt><trkpt lat="42.9781318" lon="11.4808044"><ele>226.0</ele><time>2026-05-02T14:48:53.664Z</time></trkpt><trkpt lat="42.9780075" lon="11.4807543"><ele>224.75</ele><time>2026-05-02T14:48:54.661Z</time></trkpt><trkpt lat="42.9778836" lon="11.4807144"><ele>223.5</ele><time>2026-05-02T14:48:55.663Z</time></trkpt><trkpt lat="42.9777574" lon="11.4806846"><ele>222.25</ele><time>2026-05-02T14:48:56.662Z</time></trkpt><trkpt lat="42.9776335" lon="11.4806693"><ele>221.0</ele><time>2026-05-02T14:48:57.658Z</time></trkpt><trkpt lat="42.9774959" lon="11.4806604"><ele>220.33333333333334</ele><time>2026-05-02T14:48:58.657Z</time></trkpt><trkpt lat="42.9773508" lon="11.4806557"><ele>219.66666666666669</ele><time>2026-05-02T14:48:59.663Z</time></trkpt><trkpt lat="42.9771956" lon="11.4806568"><ele>219.0</ele><time>2026-05-02T14:49:00.668Z</time></trkpt><trkpt lat="42.9770369" lon="11.4806602"><ele>219.0</ele><time>2026-05-02T14:49:01.668Z</time></trkpt><trkpt lat="42.9768783" lon="11.4806621"><ele>219.0</ele><time>2026-05-02T14:49:02.664Z</time></trkpt><trkpt lat="42.9767239" lon="11.4806689"><ele>219.0</ele><time>2026-05-02T14:49:03.663Z</time></trkpt><trkpt lat="42.9765794" lon="11.4806777"><ele>218.25</ele><time>2026-05-02T14:49:04.671Z</time></trkpt><trkpt lat="42.9764424" lon="11.4806837"><ele>217.5</ele><time>2026-05-02T14:49:05.667Z</time></trkpt><trkpt lat="42.9763143" lon="11.4806867"><ele>216.75</ele><time>2026-05-02T14:49:06.67Z</time></trkpt><trkpt lat="42.9761944" lon="11.4806876"><ele>216.0</ele><time>2026-05-02T14:49:07.658Z</time></trkpt><trkpt lat="42.9760796" lon="11.4806896"><ele>216.0</ele><time>2026-05-02T14:49:08.659Z</time></trkpt><trkpt lat="42.9759767" lon="11.4806976"><ele>216.00000000000003</ele><time>2026-05-02T14:49:09.66Z</time></trkpt><trkpt lat="42.9758918" lon="11.4806989"><ele>216.00000000000003</ele><time>2026-05-02T14:49:10.672Z</time></trkpt><trkpt lat="42.9758206" lon="11.4806805"><ele>216.0</ele><time>2026-05-02T14:49:11.667Z</time></trkpt><trkpt lat="42.975764" lon="11.4806385"><ele>216.0</ele><time>2026-05-02T14:49:12.666Z</time></trkpt><trkpt lat="42.9756994" lon="11.4804888"><ele>213.60000000000002</ele><time>2026-05-02T14:49:14.669Z</time></trkpt><trkpt lat="42.9756947" lon="11.4803831"><ele>211.20000000000002</ele><time>2026-05-02T14:49:15.661Z</time></trkpt><trkpt lat="42.9757065" lon="11.4802624"><ele>208.8</ele><time>2026-05-02T14:49:16.669Z</time></trkpt><trkpt lat="42.9757374" lon="11.4801168"><ele>206.39999999999998</ele><time>2026-05-02T14:49:17.659Z</time></trkpt><trkpt lat="42.9757813" lon="11.4799609"><ele>204.0</ele><time>2026-05-02T14:49:18.657Z</time></trkpt><trkpt lat="42.9758332" lon="11.4797978"><ele>204.5</ele><time>2026-05-02T14:49:19.658Z</time></trkpt><trkpt lat="42.9759002" lon="11.4796358"><ele>205.0</ele><time>2026-05-02T14:49:20.657Z</time></trkpt><trkpt lat="42.9759854" lon="11.479482"><ele>205.5</ele><time>2026-05-02T14:49:21.663Z</time></trkpt><trkpt lat="42.9760943" lon="11.4793555"><ele>206.0</ele><time>2026-05-02T14:49:22.659Z</time></trkpt><trkpt lat="42.9762179" lon="11.4792452"><ele>206.0</ele><time>2026-05-02T14:49:23.659Z</time></trkpt><trkpt lat="42.9763444" lon="11.4791591"><ele>206.0</ele><time>2026-05-02T14:49:24.655Z</time></trkpt><trkpt lat="42.9764598" lon="11.4791115"><ele>206.0</ele><time>2026-05-02T14:49:25.667Z</time></trkpt><trkpt lat="42.9765463" lon="11.4790677"><ele>206.0</ele><time>2026-05-02T14:49:26.654Z</time></trkpt><trkpt lat="42.9765977" lon="11.4790146"><ele>206.0</ele><time>2026-05-02T14:49:27.665Z</time></trkpt><trkpt lat="42.9766217" lon="11.4788773"><ele>206.0</ele><time>2026-05-02T14:49:29.664Z</time></trkpt><trkpt lat="42.9765776" lon="11.4787997"><ele>206.0</ele><time>2026-05-02T14:49:30.656Z</time></trkpt><trkpt lat="42.9765072" lon="11.4787192"><ele>206.0</ele><time>2026-05-02T14:49:31.656Z</time></trkpt><trkpt lat="42.9764206" lon="11.4786387"><ele>206.0</ele><time>2026-05-02T14:49:32.669Z</time></trkpt><trkpt lat="42.9763253" lon="11.4785525"><ele>206.0</ele><time>2026-05-02T14:49:33.654Z</time></trkpt><trkpt lat="42.9762298" lon="11.478471"><ele>206.33333333333334</ele><time>2026-05-02T14:49:34.654Z</time></trkpt><trkpt lat="42.9761541" lon="11.4783869"><ele>206.66666666666669</ele><time>2026-05-02T14:49:35.66Z</time></trkpt><trkpt lat="42.9761126" lon="11.4782944"><ele>207.0</ele><time>2026-05-02T14:49:36.656Z</time></trkpt><trkpt lat="42.9760868" lon="11.4782142"><ele>207.33333333333331</ele><time>2026-05-02T14:49:37.658Z</time></trkpt><trkpt lat="42.9760662" lon="11.478098"><ele>207.66666666666666</ele><time>2026-05-02T14:49:39.647Z</time></trkpt><trkpt lat="42.9760387" lon="11.4779689"><ele>208.0</ele><time>2026-05-02T14:49:41.663Z</time></trkpt><trkpt lat="42.9760298" lon="11.477797"><ele>208.4</ele><time>2026-05-02T14:49:43.664Z</time></trkpt><trkpt lat="42.9760418" lon="11.4776986"><ele>208.8</ele><time>2026-05-02T14:49:44.671Z</time></trkpt><trkpt lat="42.9760555" lon="11.4775717"><ele>209.2</ele><time>2026-05-02T14:49:45.655Z</time></trkpt><trkpt lat="42.9760681" lon="11.4774073"><ele>209.6</ele><time>2026-05-02T14:49:46.669Z</time></trkpt><trkpt lat="42.976076" lon="11.4772472"><ele>210.0</ele><time>2026-05-02T14:49:47.652Z</time></trkpt><trkpt lat="42.9760862" lon="11.4770881"><ele>210.0</ele><time>2026-05-02T14:49:48.683Z</time></trkpt><trkpt lat="42.9760997" lon="11.4769462"><ele>210.0</ele><time>2026-05-02T14:49:49.658Z</time></trkpt><trkpt lat="42.9760999" lon="11.4768167"><ele>210.0</ele><time>2026-05-02T14:49:50.663Z</time></trkpt><trkpt lat="42.9760842" lon="11.4766911"><ele>210.0</ele><time>2026-05-02T14:49:51.656Z</time></trkpt><trkpt lat="42.9760416" lon="11.4765709"><ele>210.0</ele><time>2026-05-02T14:49:52.661Z</time></trkpt><trkpt lat="42.9759766" lon="11.4764363"><ele>210.0</ele><time>2026-05-02T14:49:53.653Z</time></trkpt><trkpt lat="42.9759092" lon="11.4762872"><ele>210.0</ele><time>2026-05-02T14:49:54.659Z</time></trkpt><trkpt lat="42.9758454" lon="11.4761409"><ele>210.0</ele><time>2026-05-02T14:49:55.655Z</time></trkpt><trkpt lat="42.975793" lon="11.4759956"><ele>210.0</ele><time>2026-05-02T14:49:56.655Z</time></trkpt><trkpt lat="42.9757556" lon="11.4758488"><ele>209.4</ele><time>2026-05-02T14:49:57.676Z</time></trkpt><trkpt lat="42.9757435" lon="11.4757175"><ele>208.8</ele><time>2026-05-02T14:49:58.672Z</time></trkpt><trkpt lat="42.9757619" lon="11.4755814"><ele>208.2</ele><time>2026-05-02T14:49:59.656Z</time></trkpt><trkpt lat="42.9757971" lon="11.4754281"><ele>207.6</ele><time>2026-05-02T14:50:00.656Z</time></trkpt><trkpt lat="42.9758395" lon="11.4752733"><ele>207.0</ele><time>2026-05-02T14:50:01.652Z</time></trkpt><trkpt lat="42.9758737" lon="11.4751339"><ele>206.2</ele><time>2026-05-02T14:50:02.658Z</time></trkpt><trkpt lat="42.9758967" lon="11.4750178"><ele>205.39999999999998</ele><time>2026-05-02T14:50:03.664Z</time></trkpt><trkpt lat="42.9759083" lon="11.4749262"><ele>204.60000000000002</ele><time>2026-05-02T14:50:04.655Z</time></trkpt><trkpt lat="42.9758552" lon="11.4747724"><ele>203.8</ele><time>2026-05-02T14:50:06.659Z</time></trkpt><trkpt lat="42.9757833" lon="11.4747346"><ele>203.0</ele><time>2026-05-02T14:50:07.664Z</time></trkpt><trkpt lat="42.975689" lon="11.4746994"><ele>203.0</ele><time>2026-05-02T14:50:08.665Z</time></trkpt><trkpt lat="42.9755805" lon="11.4746486"><ele>203.0</ele><time>2026-05-02T14:50:09.656Z</time></trkpt><trkpt lat="42.9754537" lon="11.4746022"><ele>203.0</ele><time>2026-05-02T14:50:10.677Z</time></trkpt><trkpt lat="42.9753201" lon="11.474554"><ele>203.0</ele><time>2026-05-02T14:50:11.658Z</time></trkpt><trkpt lat="42.9751817" lon="11.4745028"><ele>201.0</ele><time>2026-05-02T14:50:12.668Z</time></trkpt><trkpt lat="42.9750393" lon="11.474454"><ele>199.0</ele><time>2026-05-02T14:50:13.654Z</time></trkpt><trkpt lat="42.9748938" lon="11.4744082"><ele>197.0</ele><time>2026-05-02T14:50:14.67Z</time></trkpt><trkpt lat="42.9747505" lon="11.4743624"><ele>195.0</ele><time>2026-05-02T14:50:15.656Z</time></trkpt><trkpt lat="42.9746101" lon="11.4743139"><ele>195.0</ele><time>2026-05-02T14:50:16.661Z</time></trkpt><trkpt lat="42.9744786" lon="11.4742634"><ele>195.0</ele><time>2026-05-02T14:50:17.648Z</time></trkpt><trkpt lat="42.9743584" lon="11.4742196"><ele>195.0</ele><time>2026-05-02T14:50:18.664Z</time></trkpt><trkpt lat="42.9742515" lon="11.4741803"><ele>195.0</ele><time>2026-05-02T14:50:19.659Z</time></trkpt><trkpt lat="42.9741575" lon="11.4741447"><ele>195.66666666666666</ele><time>2026-05-02T14:50:20.648Z</time></trkpt><trkpt lat="42.974071" lon="11.4741142"><ele>196.33333333333331</ele><time>2026-05-02T14:50:21.666Z</time></trkpt><trkpt lat="42.9739917" lon="11.4740808"><ele>197.0</ele><time>2026-05-02T14:50:22.666Z</time></trkpt><trkpt lat="42.9739287" lon="11.4740527"><ele>197.66666666666666</ele><time>2026-05-02T14:50:23.662Z</time></trkpt><trkpt lat="42.9738445" lon="11.4740303"><ele>198.33333333333331</ele><time>2026-05-02T14:50:25.664Z</time></trkpt><trkpt lat="42.9737552" lon="11.4740075"><ele>199.0</ele><time>2026-05-02T14:52:05.672Z</time></trkpt><trkpt lat="42.973673" lon="11.4739637"><ele>199.0</ele><time>2026-05-02T14:52:07.672Z</time></trkpt><trkpt lat="42.9735466" lon="11.4739194"><ele>199.0</ele><time>2026-05-02T14:52:09.656Z</time></trkpt><trkpt lat="42.9734712" lon="11.4738871"><ele>199.0</ele><time>2026-05-02T14:52:10.658Z</time></trkpt><trkpt lat="42.9733831" lon="11.4738579"><ele>199.0</ele><time>2026-05-02T14:52:11.665Z</time></trkpt><trkpt lat="42.9732789" lon="11.4738126"><ele>199.0</ele><time>2026-05-02T14:52:12.642Z</time></trkpt><trkpt lat="42.973165" lon="11.4737733"><ele>198.33333333333331</ele><time>2026-05-02T14:52:13.669Z</time></trkpt><trkpt lat="42.9730609" lon="11.4737278"><ele>197.66666666666666</ele><time>2026-05-02T14:52:14.691Z</time></trkpt><trkpt lat="42.9729698" lon="11.4736908"><ele>197.0</ele><time>2026-05-02T14:52:15.653Z</time></trkpt><trkpt lat="42.9728847" lon="11.473657"><ele>196.33333333333331</ele><time>2026-05-02T14:52:16.663Z</time></trkpt><trkpt lat="42.9728084" lon="11.4736221"><ele>195.66666666666666</ele><time>2026-05-02T14:52:17.664Z</time></trkpt><trkpt lat="42.9727384" lon="11.4735872"><ele>195.0</ele><time>2026-05-02T14:52:18.672Z</time></trkpt><trkpt lat="42.9726749" lon="11.4735475"><ele>195.0</ele><time>2026-05-02T14:52:19.667Z</time></trkpt><trkpt lat="42.9726172" lon="11.4734917"><ele>195.0</ele><time>2026-05-02T14:52:20.676Z</time></trkpt><trkpt lat="42.9725614" lon="11.473404"><ele>195.0</ele><time>2026-05-02T14:52:21.663Z</time></trkpt><trkpt lat="42.972503" lon="11.4732911"><ele>195.0</ele><time>2026-05-02T14:52:22.673Z</time></trkpt><trkpt lat="42.9724427" lon="11.473151"><ele>195.0</ele><time>2026-05-02T14:52:23.666Z</time></trkpt><trkpt lat="42.9723843" lon="11.4730044"><ele>192.75</ele><time>2026-05-02T14:52:24.662Z</time></trkpt><trkpt lat="42.9723256" lon="11.4728627"><ele>190.5</ele><time>2026-05-02T14:52:25.659Z</time></trkpt><trkpt lat="42.972266" lon="11.4727235"><ele>188.25</ele><time>2026-05-02T14:52:26.666Z</time></trkpt><trkpt lat="42.9722088" lon="11.4725911"><ele>186.0</ele><time>2026-05-02T14:52:27.667Z</time></trkpt><trkpt lat="42.9721572" lon="11.4724703"><ele>186.0</ele><time>2026-05-02T14:52:28.672Z</time></trkpt><trkpt lat="42.9721109" lon="11.4723632"><ele>186.0</ele><time>2026-05-02T14:52:29.662Z</time></trkpt><trkpt lat="42.9720658" lon="11.4722523"><ele>186.0</ele><time>2026-05-02T14:52:30.674Z</time></trkpt><trkpt lat="42.9720057" lon="11.4721235"><ele>186.0</ele><time>2026-05-02T14:52:31.666Z</time></trkpt><trkpt lat="42.9719377" lon="11.4719696"><ele>186.0</ele><time>2026-05-02T14:52:32.678Z</time></trkpt><trkpt lat="42.9718651" lon="11.4718134"><ele>184.75</ele><time>2026-05-02T14:52:33.66Z</time></trkpt><trkpt lat="42.9717929" lon="11.4716525"><ele>183.5</ele><time>2026-05-02T14:52:34.656Z</time></trkpt><trkpt lat="42.971715" lon="11.4714946"><ele>182.25</ele><time>2026-05-02T14:52:35.659Z</time></trkpt><trkpt lat="42.9716342" lon="11.4713386"><ele>181.0</ele><time>2026-05-02T14:52:36.672Z</time></trkpt><trkpt lat="42.9715525" lon="11.4711845"><ele>179.5</ele><time>2026-05-02T14:52:37.669Z</time></trkpt><trkpt lat="42.9714721" lon="11.471036"><ele>178.0</ele><time>2026-05-02T14:52:38.67Z</time></trkpt><trkpt lat="42.9713918" lon="11.4708941"><ele>176.5</ele><time>2026-05-02T14:52:39.655Z</time></trkpt><trkpt lat="42.9713137" lon="11.4707512"><ele>175.0</ele><time>2026-05-02T14:52:40.66Z</time></trkpt><trkpt lat="42.971238" lon="11.4706143"><ele>175.0</ele><time>2026-05-02T14:52:41.661Z</time></trkpt><trkpt lat="42.9711583" lon="11.4704793"><ele>175.0</ele><time>2026-05-02T14:52:42.662Z</time></trkpt><trkpt lat="42.971076" lon="11.470343"><ele>175.0</ele><time>2026-05-02T14:52:43.658Z</time></trkpt><trkpt lat="42.9709918" lon="11.470212"><ele>175.0</ele><time>2026-05-02T14:52:44.665Z</time></trkpt><trkpt lat="42.9709073" lon="11.4700851"><ele>175.25</ele><time>2026-05-02T14:52:45.655Z</time></trkpt><trkpt lat="42.9708258" lon="11.4699651"><ele>175.5</ele><time>2026-05-02T14:52:46.676Z</time></trkpt><trkpt lat="42.9707503" lon="11.4698456"><ele>175.75</ele><time>2026-05-02T14:52:47.661Z</time></trkpt><trkpt lat="42.9706825" lon="11.4697163"><ele>176.0</ele><time>2026-05-02T14:52:48.671Z</time></trkpt><trkpt lat="42.9706267" lon="11.4695705"><ele>174.4</ele><time>2026-05-02T14:52:49.653Z</time></trkpt><trkpt lat="42.9705796" lon="11.4694249"><ele>172.8</ele><time>2026-05-02T14:52:50.667Z</time></trkpt><trkpt lat="42.9705306" lon="11.469307"><ele>171.20000000000002</ele><time>2026-05-02T14:52:51.659Z</time></trkpt><trkpt lat="42.9704791" lon="11.4692087"><ele>169.60000000000002</ele><time>2026-05-02T14:52:52.66Z</time></trkpt><trkpt lat="42.9704065" lon="11.4691382"><ele>168.0</ele><time>2026-05-02T14:52:53.662Z</time></trkpt><trkpt lat="42.9703112" lon="11.4690852"><ele>168.0</ele><time>2026-05-02T14:52:54.663Z</time></trkpt><trkpt lat="42.9701981" lon="11.4690404"><ele>168.0</ele><time>2026-05-02T14:52:55.661Z</time></trkpt><trkpt lat="42.9700748" lon="11.4689926"><ele>168.0</ele><time>2026-05-02T14:52:56.672Z</time></trkpt><trkpt lat="42.969951" lon="11.4689446"><ele>168.0</ele><time>2026-05-02T14:52:57.665Z</time></trkpt><trkpt lat="42.969828" lon="11.4688881"><ele>168.5</ele><time>2026-05-02T14:52:58.668Z</time></trkpt><trkpt lat="42.9697067" lon="11.4688267"><ele>169.0</ele><time>2026-05-02T14:52:59.66Z</time></trkpt><trkpt lat="42.9695964" lon="11.468763"><ele>169.5</ele><time>2026-05-02T14:53:00.672Z</time></trkpt><trkpt lat="42.9695008" lon="11.4686958"><ele>170.0</ele><time>2026-05-02T14:53:01.667Z</time></trkpt><trkpt lat="42.9694138" lon="11.4686307"><ele>170.0</ele><time>2026-05-02T14:53:02.659Z</time></trkpt><trkpt lat="42.9693349" lon="11.4685787"><ele>170.0</ele><time>2026-05-02T14:53:03.66Z</time></trkpt><trkpt lat="42.9692623" lon="11.4685528"><ele>170.0</ele><time>2026-05-02T14:53:04.658Z</time></trkpt><trkpt lat="42.9691986" lon="11.4685587"><ele>170.0</ele><time>2026-05-02T14:53:05.664Z</time></trkpt><trkpt lat="42.9691281" lon="11.4685989"><ele>170.0</ele><time>2026-05-02T14:53:06.667Z</time></trkpt><trkpt lat="42.969057" lon="11.4686316"><ele>170.0</ele><time>2026-05-02T14:53:07.664Z</time></trkpt><trkpt lat="42.9689463" lon="11.4685647"><ele>169.5</ele><time>2026-05-02T14:53:09.662Z</time></trkpt><trkpt lat="42.9689156" lon="11.4684766"><ele>169.0</ele><time>2026-05-02T14:53:10.657Z</time></trkpt><trkpt lat="42.9689057" lon="11.4683617"><ele>168.5</ele><time>2026-05-02T14:53:11.66Z</time></trkpt><trkpt lat="42.9688915" lon="11.4682345"><ele>168.0</ele><time>2026-05-02T14:53:12.655Z</time></trkpt><trkpt lat="42.9688565" lon="11.4681195"><ele>167.5</ele><time>2026-05-02T14:53:13.67Z</time></trkpt><trkpt lat="42.9687997" lon="11.4679984"><ele>167.0</ele><time>2026-05-02T14:53:14.664Z</time></trkpt><trkpt lat="42.9687203" lon="11.4678741"><ele>166.5</ele><time>2026-05-02T14:53:15.665Z</time></trkpt><trkpt lat="42.9686297" lon="11.4677456"><ele>166.0</ele><time>2026-05-02T14:53:16.66Z</time></trkpt><trkpt lat="42.9685366" lon="11.46761"><ele>165.5</ele><time>2026-05-02T14:53:17.662Z</time></trkpt><trkpt lat="42.9684497" lon="11.4674728"><ele>165.0</ele><time>2026-05-02T14:53:18.672Z</time></trkpt><trkpt lat="42.9683731" lon="11.4673421"><ele>161.25</ele><time>2026-05-02T14:53:19.654Z</time></trkpt><trkpt lat="42.9682914" lon="11.4672158"><ele>157.5</ele><time>2026-05-02T14:53:20.654Z</time></trkpt><trkpt lat="42.9682126" lon="11.4670936"><ele>153.75</ele><time>2026-05-02T14:53:21.67Z</time></trkpt><trkpt lat="42.9681273" lon="11.4669828"><ele>150.0</ele><time>2026-05-02T14:53:22.658Z</time></trkpt><trkpt lat="42.9680339" lon="11.4668813"><ele>150.0</ele><time>2026-05-02T14:53:23.652Z</time></trkpt><trkpt lat="42.9679275" lon="11.4667953"><ele>150.0</ele><time>2026-05-02T14:53:24.655Z</time></trkpt><trkpt lat="42.9678067" lon="11.4667212"><ele>150.0</ele><time>2026-05-02T14:53:25.656Z</time></trkpt><trkpt lat="42.9676794" lon="11.466651"><ele>150.0</ele><time>2026-05-02T14:53:26.66Z</time></trkpt><trkpt lat="42.9675473" lon="11.4665757"><ele>146.75</ele><time>2026-05-02T14:53:27.658Z</time></trkpt><trkpt lat="42.9674158" lon="11.4665029"><ele>143.5</ele><time>2026-05-02T14:53:28.666Z</time></trkpt><trkpt lat="42.9672825" lon="11.4664243"><ele>140.25</ele><time>2026-05-02T14:53:29.668Z</time></trkpt><trkpt lat="42.9671521" lon="11.4663423"><ele>137.0</ele><time>2026-05-02T14:53:30.658Z</time></trkpt><trkpt lat="42.9670251" lon="11.4662642"><ele>135.75</ele><time>2026-05-02T14:53:31.662Z</time></trkpt><trkpt lat="42.9669017" lon="11.4661902"><ele>134.5</ele><time>2026-05-02T14:53:32.663Z</time></trkpt><trkpt lat="42.9667766" lon="11.4661176"><ele>133.25</ele><time>2026-05-02T14:53:33.655Z</time></trkpt><trkpt lat="42.9666516" lon="11.4660451"><ele>132.0</ele><time>2026-05-02T14:53:34.67Z</time></trkpt><trkpt lat="42.9665276" lon="11.4659686"><ele>131.0</ele><time>2026-05-02T14:53:35.671Z</time></trkpt><trkpt lat="42.9664076" lon="11.4658948"><ele>130.0</ele><time>2026-05-02T14:53:36.663Z</time></trkpt><trkpt lat="42.9662922" lon="11.4658351"><ele>129.0</ele><time>2026-05-02T14:53:37.656Z</time></trkpt><trkpt lat="42.9661788" lon="11.4657896"><ele>128.0</ele><time>2026-05-02T14:53:38.661Z</time></trkpt><trkpt lat="42.9660681" lon="11.4657706"><ele>128.0</ele><time>2026-05-02T14:53:39.659Z</time></trkpt><trkpt lat="42.9659592" lon="11.4657763"><ele>128.0</ele><time>2026-05-02T14:53:40.661Z</time></trkpt><trkpt lat="42.9658601" lon="11.4657848"><ele>128.0</ele><time>2026-05-02T14:53:41.651Z</time></trkpt><trkpt lat="42.9657683" lon="11.46579"><ele>128.0</ele><time>2026-05-02T14:53:42.66Z</time></trkpt><trkpt lat="42.9656679" lon="11.4657953"><ele>128.0</ele><time>2026-05-02T14:53:43.663Z</time></trkpt><trkpt lat="42.9655626" lon="11.4658051"><ele>127.5</ele><time>2026-05-02T14:53:44.68Z</time></trkpt><trkpt lat="42.9654517" lon="11.4658083"><ele>127.0</ele><time>2026-05-02T14:53:45.655Z</time></trkpt><trkpt lat="42.9653355" lon="11.4657887"><ele>126.5</ele><time>2026-05-02T14:53:46.665Z</time></trkpt><trkpt lat="42.9652247" lon="11.4657334"><ele>126.0</ele><time>2026-05-02T14:53:47.663Z</time></trkpt><trkpt lat="42.9651392" lon="11.4656458"><ele>126.0</ele><time>2026-05-02T14:53:48.664Z</time></trkpt><trkpt lat="42.9650772" lon="11.4655461"><ele>126.0</ele><time>2026-05-02T14:53:49.66Z</time></trkpt><trkpt lat="42.9650383" lon="11.4654183"><ele>126.0</ele><time>2026-05-02T14:53:50.661Z</time></trkpt><trkpt lat="42.9649966" lon="11.4652725"><ele>126.0</ele><time>2026-05-02T14:53:51.663Z</time></trkpt><trkpt lat="42.9649529" lon="11.4651051"><ele>126.0</ele><time>2026-05-02T14:53:52.665Z</time></trkpt><trkpt lat="42.964919" lon="11.4649252"><ele>125.5</ele><time>2026-05-02T14:53:53.662Z</time></trkpt><trkpt lat="42.9648969" lon="11.4647403"><ele>125.0</ele><time>2026-05-02T14:53:54.656Z</time></trkpt><trkpt lat="42.9648816" lon="11.4645413"><ele>124.5</ele><time>2026-05-02T14:53:55.659Z</time></trkpt><trkpt lat="42.9648733" lon="11.46433"><ele>124.0</ele><time>2026-05-02T14:53:56.676Z</time></trkpt><trkpt lat="42.9648604" lon="11.4640923"><ele>123.66666666666667</ele><time>2026-05-02T14:53:57.669Z</time></trkpt><trkpt lat="42.9648521" lon="11.4638342"><ele>123.33333333333334</ele><time>2026-05-02T14:53:58.666Z</time></trkpt><trkpt lat="42.9648393" lon="11.4635615"><ele>123.0</ele><time>2026-05-02T14:53:59.667Z</time></trkpt><trkpt lat="42.9648302" lon="11.4632791"><ele>123.0</ele><time>2026-05-02T14:54:00.666Z</time></trkpt><trkpt lat="42.9648192" lon="11.4629936"><ele>123.0</ele><time>2026-05-02T14:54:01.663Z</time></trkpt><trkpt lat="42.9648047" lon="11.4627104"><ele>123.0</ele><time>2026-05-02T14:54:02.649Z</time></trkpt><trkpt lat="42.9647936" lon="11.4624304"><ele>123.66666666666666</ele><time>2026-05-02T14:54:03.657Z</time></trkpt><trkpt lat="42.9647824" lon="11.4621558"><ele>124.33333333333333</ele><time>2026-05-02T14:54:04.658Z</time></trkpt><trkpt lat="42.9647709" lon="11.4618849"><ele>125.0</ele><time>2026-05-02T14:54:05.656Z</time></trkpt><trkpt lat="42.9647596" lon="11.4616281"><ele>125.0</ele><time>2026-05-02T14:54:06.669Z</time></trkpt><trkpt lat="42.9647499" lon="11.4613833"><ele>125.0</ele><time>2026-05-02T14:54:07.663Z</time></trkpt><trkpt lat="42.9647406" lon="11.4611498"><ele>125.0</ele><time>2026-05-02T14:54:08.674Z</time></trkpt><trkpt lat="42.9647372" lon="11.4609148"><ele>125.0</ele><time>2026-05-02T14:54:09.659Z</time></trkpt><trkpt lat="42.9647439" lon="11.4606796"><ele>125.0</ele><time>2026-05-02T14:54:10.673Z</time></trkpt><trkpt lat="42.9647579" lon="11.4604355"><ele>125.0</ele><time>2026-05-02T14:54:11.653Z</time></trkpt><trkpt lat="42.9647745" lon="11.4601844"><ele>125.0</ele><time>2026-05-02T14:54:12.673Z</time></trkpt><trkpt lat="42.9647868" lon="11.4599284"><ele>125.0</ele><time>2026-05-02T14:54:13.665Z</time></trkpt><trkpt lat="42.9647887" lon="11.4597002"><ele>125.0</ele><time>2026-05-02T14:54:14.669Z</time></trkpt><trkpt lat="42.9647908" lon="11.4595101"><ele>125.0</ele><time>2026-05-02T14:54:15.655Z</time></trkpt><trkpt lat="42.9647885" lon="11.459342"><ele>125.0</ele><time>2026-05-02T14:54:16.663Z</time></trkpt><trkpt lat="42.9647872" lon="11.4591915"><ele>125.0</ele><time>2026-05-02T14:54:17.668Z</time></trkpt><trkpt lat="42.9647854" lon="11.4590512"><ele>125.0</ele><time>2026-05-02T14:54:18.677Z</time></trkpt><trkpt lat="42.9647817" lon="11.4589137"><ele>125.0</ele><time>2026-05-02T14:54:19.671Z</time></trkpt><trkpt lat="42.9647789" lon="11.4587752"><ele>125.25</ele><time>2026-05-02T14:54:20.661Z</time></trkpt><trkpt lat="42.964776" lon="11.4586153"><ele>125.5</ele><time>2026-05-02T14:54:21.651Z</time></trkpt><trkpt lat="42.9647721" lon="11.4584398"><ele>125.75</ele><time>2026-05-02T14:54:22.661Z</time></trkpt><trkpt lat="42.9647679" lon="11.4582584"><ele>126.0</ele><time>2026-05-02T14:54:23.668Z</time></trkpt><trkpt lat="42.9647628" lon="11.4580874"><ele>125.75</ele><time>2026-05-02T14:54:24.658Z</time></trkpt><trkpt lat="42.9647587" lon="11.4579241"><ele>125.5</ele><time>2026-05-02T14:54:25.666Z</time></trkpt><trkpt lat="42.9647558" lon="11.4577508"><ele>125.25</ele><time>2026-05-02T14:54:26.668Z</time></trkpt><trkpt lat="42.9647494" lon="11.457573"><ele>125.0</ele><time>2026-05-02T14:54:27.656Z</time></trkpt><trkpt lat="42.9647447" lon="11.4573855"><ele>125.0</ele><time>2026-05-02T14:54:28.667Z</time></trkpt><trkpt lat="42.9647395" lon="11.4571981"><ele>125.0</ele><time>2026-05-02T14:54:29.654Z</time></trkpt><trkpt lat="42.9647316" lon="11.457012"><ele>125.0</ele><time>2026-05-02T14:54:30.665Z</time></trkpt><trkpt lat="42.964727" lon="11.4568247"><ele>125.0</ele><time>2026-05-02T14:54:31.663Z</time></trkpt><trkpt lat="42.9647234" lon="11.4566374"><ele>124.5</ele><time>2026-05-02T14:54:32.662Z</time></trkpt><trkpt lat="42.9647235" lon="11.4564641"><ele>124.0</ele><time>2026-05-02T14:54:33.654Z</time></trkpt><trkpt lat="42.9647306" lon="11.4563002"><ele>123.5</ele><time>2026-05-02T14:54:34.662Z</time></trkpt><trkpt lat="42.964755" lon="11.4561401"><ele>123.0</ele><time>2026-05-02T14:54:35.658Z</time></trkpt><trkpt lat="42.9648014" lon="11.4559916"><ele>122.60000000000001</ele><time>2026-05-02T14:54:36.667Z</time></trkpt><trkpt lat="42.9648532" lon="11.4558588"><ele>122.20000000000002</ele><time>2026-05-02T14:54:37.663Z</time></trkpt><trkpt lat="42.9648926" lon="11.4557345"><ele>121.8</ele><time>2026-05-02T14:54:38.66Z</time></trkpt><trkpt lat="42.9649107" lon="11.4556001"><ele>121.4</ele><time>2026-05-02T14:54:39.658Z</time></trkpt><trkpt lat="42.9648978" lon="11.455454"><ele>121.0</ele><time>2026-05-02T14:54:40.664Z</time></trkpt><trkpt lat="42.9648618" lon="11.4552918"><ele>120.75</ele><time>2026-05-02T14:54:41.659Z</time></trkpt><trkpt lat="42.9648196" lon="11.4551179"><ele>120.5</ele><time>2026-05-02T14:54:42.665Z</time></trkpt><trkpt lat="42.9647815" lon="11.454924"><ele>120.25</ele><time>2026-05-02T14:54:43.653Z</time></trkpt><trkpt lat="42.9647597" lon="11.454729"><ele>120.0</ele><time>2026-05-02T14:54:44.649Z</time></trkpt><trkpt lat="42.9647524" lon="11.4545179"><ele>119.66666666666666</ele><time>2026-05-02T14:54:45.662Z</time></trkpt><trkpt lat="42.9647602" lon="11.4542928"><ele>119.33333333333333</ele><time>2026-05-02T14:54:46.661Z</time></trkpt><trkpt lat="42.9647718" lon="11.4540653"><ele>119.0</ele><time>2026-05-02T14:54:47.655Z</time></trkpt><trkpt lat="42.9647815" lon="11.4538437"><ele>118.5</ele><time>2026-05-02T14:54:48.65Z</time></trkpt><trkpt lat="42.9647916" lon="11.4536278"><ele>118.0</ele><time>2026-05-02T14:54:49.656Z</time></trkpt><trkpt lat="42.9648006" lon="11.4534246"><ele>117.5</ele><time>2026-05-02T14:54:50.65Z</time></trkpt><trkpt lat="42.964809" lon="11.4532345"><ele>117.0</ele><time>2026-05-02T14:54:51.657Z</time></trkpt><trkpt lat="42.9648157" lon="11.4530509"><ele>117.0</ele><time>2026-05-02T14:54:52.668Z</time></trkpt><trkpt lat="42.9648286" lon="11.4528726"><ele>117.0</ele><time>2026-05-02T14:54:53.667Z</time></trkpt><trkpt lat="42.9648491" lon="11.4527091"><ele>117.0</ele><time>2026-05-02T14:54:54.656Z</time></trkpt><trkpt lat="42.9648794" lon="11.4525524"><ele>117.0</ele><time>2026-05-02T14:54:55.66Z</time></trkpt><trkpt lat="42.9649327" lon="11.452417"><ele>117.0</ele><time>2026-05-02T14:54:56.667Z</time></trkpt><trkpt lat="42.9650027" lon="11.4522951"><ele>117.0</ele><time>2026-05-02T14:54:57.651Z</time></trkpt><trkpt lat="42.965078" lon="11.4521795"><ele>117.0</ele><time>2026-05-02T14:54:58.66Z</time></trkpt><trkpt lat="42.9651597" lon="11.4520579"><ele>117.0</ele><time>2026-05-02T14:54:59.666Z</time></trkpt><trkpt lat="42.9652422" lon="11.4519387"><ele>119.0</ele><time>2026-05-02T14:55:00.655Z</time></trkpt><trkpt lat="42.9653318" lon="11.4518083"><ele>121.0</ele><time>2026-05-02T14:55:01.658Z</time></trkpt><trkpt lat="42.9654278" lon="11.4516751"><ele>123.0</ele><time>2026-05-02T14:55:02.662Z</time></trkpt><trkpt lat="42.9655287" lon="11.4515365"><ele>125.0</ele><time>2026-05-02T14:55:03.655Z</time></trkpt><trkpt lat="42.9656311" lon="11.4513917"><ele>125.5</ele><time>2026-05-02T14:55:04.664Z</time></trkpt><trkpt lat="42.9657375" lon="11.4512482"><ele>126.0</ele><time>2026-05-02T14:55:05.654Z</time></trkpt><trkpt lat="42.9658488" lon="11.4511151"><ele>126.5</ele><time>2026-05-02T14:55:06.664Z</time></trkpt><trkpt lat="42.9659608" lon="11.4509867"><ele>127.0</ele><time>2026-05-02T14:55:07.652Z</time></trkpt><trkpt lat="42.9660752" lon="11.4508569"><ele>127.0</ele><time>2026-05-02T14:55:08.651Z</time></trkpt><trkpt lat="42.9661858" lon="11.4507266"><ele>127.0</ele><time>2026-05-02T14:55:09.66Z</time></trkpt><trkpt lat="42.9662957" lon="11.4505909"><ele>127.0</ele><time>2026-05-02T14:55:10.656Z</time></trkpt><trkpt lat="42.9664008" lon="11.4504525"><ele>127.0</ele><time>2026-05-02T14:55:11.657Z</time></trkpt><trkpt lat="42.9664946" lon="11.4503056"><ele>125.0</ele><time>2026-05-02T14:55:12.661Z</time></trkpt><trkpt lat="42.9665771" lon="11.450143"><ele>123.0</ele><time>2026-05-02T14:55:13.654Z</time></trkpt><trkpt lat="42.96665" lon="11.4499702"><ele>121.0</ele><time>2026-05-02T14:55:14.653Z</time></trkpt><trkpt lat="42.9667183" lon="11.4498033"><ele>119.0</ele><time>2026-05-02T14:55:15.658Z</time></trkpt><trkpt lat="42.9667823" lon="11.4496501"><ele>122.75</ele><time>2026-05-02T14:55:16.651Z</time></trkpt><trkpt lat="42.9668424" lon="11.4494952"><ele>126.5</ele><time>2026-05-02T14:55:17.655Z</time></trkpt><trkpt lat="42.9668926" lon="11.4493363"><ele>130.25</ele><time>2026-05-02T14:55:18.663Z</time></trkpt><trkpt lat="42.9669217" lon="11.4491738"><ele>134.0</ele><time>2026-05-02T14:55:19.647Z</time></trkpt><trkpt lat="42.9669232" lon="11.4489975"><ele>134.0</ele><time>2026-05-02T14:55:20.656Z</time></trkpt><trkpt lat="42.9669048" lon="11.4488134"><ele>134.0</ele><time>2026-05-02T14:55:21.657Z</time></trkpt><trkpt lat="42.9668744" lon="11.4486308"><ele>134.0</ele><time>2026-05-02T14:55:22.655Z</time></trkpt><trkpt lat="42.9668462" lon="11.4484508"><ele>134.0</ele><time>2026-05-02T14:55:23.648Z</time></trkpt><trkpt lat="42.9668226" lon="11.448285"><ele>133.4</ele><time>2026-05-02T14:55:24.663Z</time></trkpt><trkpt lat="42.966801" lon="11.4481348"><ele>132.8</ele><time>2026-05-02T14:55:25.66Z</time></trkpt><trkpt lat="42.9667828" lon="11.4480005"><ele>132.2</ele><time>2026-05-02T14:55:26.652Z</time></trkpt><trkpt lat="42.9667705" lon="11.4478841"><ele>131.6</ele><time>2026-05-02T14:55:27.646Z</time></trkpt><trkpt lat="42.9667601" lon="11.4477827"><ele>131.0</ele><time>2026-05-02T14:55:28.655Z</time></trkpt><trkpt lat="42.9667451" lon="11.4476634"><ele>132.6</ele><time>2026-05-02T14:55:30.65Z</time></trkpt><trkpt lat="42.9667223" lon="11.4475597"><ele>134.2</ele><time>2026-05-02T14:56:03.651Z</time></trkpt><trkpt lat="42.9666588" lon="11.4475781"><ele>135.8</ele><time>2026-05-02T14:56:19.656Z</time></trkpt><trkpt lat="42.9665995" lon="11.4476635"><ele>137.4</ele><time>2026-05-02T14:56:22.661Z</time></trkpt><trkpt lat="42.9665158" lon="11.4477567"><ele>139.0</ele><time>2026-05-02T14:56:24.657Z</time></trkpt><trkpt lat="42.9664006" lon="11.4478183"><ele>135.2</ele><time>2026-05-02T14:56:26.657Z</time></trkpt><trkpt lat="42.9662866" lon="11.4478252"><ele>131.4</ele><time>2026-05-02T14:56:28.666Z</time></trkpt><trkpt lat="42.9661817" lon="11.4477669"><ele>127.6</ele><time>2026-05-02T14:56:30.67Z</time></trkpt><trkpt lat="42.9660713" lon="11.4476733"><ele>123.8</ele><time>2026-05-02T14:56:32.665Z</time></trkpt><trkpt lat="42.9660095" lon="11.4476268"><ele>120.0</ele><time>2026-05-02T14:56:33.655Z</time></trkpt><trkpt lat="42.9659409" lon="11.447591"><ele>120.0</ele><time>2026-05-02T14:56:34.66Z</time></trkpt><trkpt lat="42.9658754" lon="11.4475413"><ele>120.0</ele><time>2026-05-02T14:56:35.655Z</time></trkpt><trkpt lat="42.9658106" lon="11.4474895"><ele>120.0</ele><time>2026-05-02T14:56:36.661Z</time></trkpt><trkpt lat="42.9657456" lon="11.4474451"><ele>120.0</ele><time>2026-05-02T14:56:37.659Z</time></trkpt><trkpt lat="42.9656854" lon="11.4473969"><ele>120.0</ele><time>2026-05-02T14:56:38.668Z</time></trkpt><trkpt lat="42.9656246" lon="11.4473532"><ele>120.0</ele><time>2026-05-02T14:56:39.66Z</time></trkpt><trkpt lat="42.9655624" lon="11.4473009"><ele>120.0</ele><time>2026-05-02T14:56:40.673Z</time></trkpt><trkpt lat="42.9655041" lon="11.4472393"><ele>118.33333333333333</ele><time>2026-05-02T14:56:41.661Z</time></trkpt><trkpt lat="42.9654438" lon="11.4471965"><ele>116.66666666666666</ele><time>2026-05-02T14:56:42.663Z</time></trkpt><trkpt lat="42.9653859" lon="11.4471557"><ele>115.0</ele><time>2026-05-02T14:56:43.653Z</time></trkpt><trkpt lat="42.9653203" lon="11.4471124"><ele>113.33333333333333</ele><time>2026-05-02T14:56:44.668Z</time></trkpt><trkpt lat="42.9652498" lon="11.4470631"><ele>111.66666666666666</ele><time>2026-05-02T14:56:45.658Z</time></trkpt><trkpt lat="42.9651733" lon="11.4470086"><ele>110.0</ele><time>2026-05-02T14:56:46.674Z</time></trkpt><trkpt lat="42.9651001" lon="11.4469512"><ele>109.99999999999999</ele><time>2026-05-02T14:56:47.668Z</time></trkpt><trkpt lat="42.9650353" lon="11.4468959"><ele>110.0</ele><time>2026-05-02T14:56:48.669Z</time></trkpt><trkpt lat="42.9649697" lon="11.4468389"><ele>110.0</ele><time>2026-05-02T14:56:49.667Z</time></trkpt><trkpt lat="42.9649067" lon="11.4467838"><ele>110.0</ele><time>2026-05-02T14:56:50.667Z</time></trkpt><trkpt lat="42.964824" lon="11.4467236"><ele>109.99999999999999</ele><time>2026-05-02T14:56:52.673Z</time></trkpt><trkpt lat="42.9648979" lon="11.4468282"><ele>110.0</ele><time>2026-05-02T14:57:05.663Z</time></trkpt><trkpt lat="42.9649614" lon="11.4468942"><ele>109.99999999999999</ele><time>2026-05-02T14:57:06.652Z</time></trkpt><trkpt lat="42.9650284" lon="11.4469673"><ele>110.0</ele><time>2026-05-02T14:57:07.656Z</time></trkpt><trkpt lat="42.9651029" lon="11.4470431"><ele>110.0</ele><time>2026-05-02T14:57:08.658Z</time></trkpt><trkpt lat="42.9651794" lon="11.4471066"><ele>110.0</ele><time>2026-05-02T14:57:09.669Z</time></trkpt><trkpt lat="42.9652553" lon="11.4471699"><ele>109.99999999999999</ele><time>2026-05-02T14:57:10.661Z</time></trkpt><trkpt lat="42.9653332" lon="11.4472296"><ele>110.0</ele><time>2026-05-02T14:57:11.662Z</time></trkpt><trkpt lat="42.9654119" lon="11.447291"><ele>109.99999999999999</ele><time>2026-05-02T14:57:12.664Z</time></trkpt><trkpt lat="42.9654891" lon="11.4473566"><ele>110.0</ele><time>2026-05-02T14:57:13.668Z</time></trkpt><trkpt lat="42.9655647" lon="11.4474186"><ele>110.0</ele><time>2026-05-02T14:57:14.655Z</time></trkpt><trkpt lat="42.9656392" lon="11.4474776"><ele>110.0</ele><time>2026-05-02T14:57:15.646Z</time></trkpt><trkpt lat="42.9657105" lon="11.4475363"><ele>109.99999999999999</ele><time>2026-05-02T14:57:16.655Z</time></trkpt><trkpt lat="42.9657757" lon="11.447591"><ele>110.0</ele><time>2026-05-02T14:57:17.646Z</time></trkpt><trkpt lat="42.9658419" lon="11.44764"><ele>111.66666666666666</ele><time>2026-05-02T14:57:18.652Z</time></trkpt><trkpt lat="42.9659025" lon="11.4476812"><ele>113.33333333333333</ele><time>2026-05-02T14:57:19.665Z</time></trkpt><trkpt lat="42.9659801" lon="11.4477214"><ele>115.0</ele><time>2026-05-02T14:57:30.658Z</time></trkpt><trkpt lat="42.9660397" lon="11.4477508"><ele>116.66666666666666</ele><time>2026-05-02T14:57:33.656Z</time></trkpt><trkpt lat="42.966159" lon="11.4478321"><ele>118.33333333333333</ele><time>2026-05-02T14:57:35.655Z</time></trkpt><trkpt lat="42.9662311" lon="11.4478754"><ele>120.0</ele><time>2026-05-02T14:57:36.653Z</time></trkpt><trkpt lat="42.9663067" lon="11.4479091"><ele>120.0</ele><time>2026-05-02T14:57:37.662Z</time></trkpt><trkpt lat="42.9663829" lon="11.4479172"><ele>120.0</ele><time>2026-05-02T14:57:38.66Z</time></trkpt><trkpt lat="42.9664585" lon="11.447896"><ele>120.0</ele><time>2026-05-02T14:57:39.663Z</time></trkpt><trkpt lat="42.9665321" lon="11.4478543"><ele>120.0</ele><time>2026-05-02T14:57:40.661Z</time></trkpt><trkpt lat="42.9665968" lon="11.4477996"><ele>120.0</ele><time>2026-05-02T14:57:41.663Z</time></trkpt><trkpt lat="42.9666505" lon="11.4477462"><ele>120.0</ele><time>2026-05-02T14:57:42.657Z</time></trkpt><trkpt lat="42.9667133" lon="11.4476313"><ele>120.0</ele><time>2026-05-02T14:57:44.661Z</time></trkpt><trkpt lat="42.9667164" lon="11.4474932"><ele>120.0</ele><time>2026-05-02T14:57:46.651Z</time></trkpt><trkpt lat="42.9667071" lon="11.4473927"><ele>120.0</ele><time>2026-05-02T14:57:47.646Z</time></trkpt><trkpt lat="42.9666985" lon="11.4472765"><ele>120.0</ele><time>2026-05-02T14:57:48.66Z</time></trkpt><trkpt lat="42.9666879" lon="11.4471495"><ele>120.0</ele><time>2026-05-02T14:57:49.659Z</time></trkpt><trkpt lat="42.9666761" lon="11.447015"><ele>120.5</ele><time>2026-05-02T14:57:50.661Z</time></trkpt><trkpt lat="42.9666656" lon="11.4467369"><ele>121.0</ele><time>2026-05-02T14:57:52.66Z</time></trkpt><trkpt lat="42.9666673" lon="11.4465954"><ele>121.5</ele><time>2026-05-02T14:57:53.656Z</time></trkpt><trkpt lat="42.9666728" lon="11.4464568"><ele>122.0</ele><time>2026-05-02T14:57:54.658Z</time></trkpt><trkpt lat="42.9666808" lon="11.4463133"><ele>126.0</ele><time>2026-05-02T14:57:55.663Z</time></trkpt><trkpt lat="42.9666962" lon="11.4461618"><ele>130.0</ele><time>2026-05-02T14:57:56.658Z</time></trkpt><trkpt lat="42.9667173" lon="11.4460044"><ele>134.0</ele><time>2026-05-02T14:57:57.646Z</time></trkpt><trkpt lat="42.9667479" lon="11.4458541"><ele>138.0</ele><time>2026-05-02T14:57:58.656Z</time></trkpt><trkpt lat="42.966783" lon="11.4457014"><ele>138.0</ele><time>2026-05-02T14:57:59.645Z</time></trkpt><trkpt lat="42.9668144" lon="11.4455547"><ele>138.0</ele><time>2026-05-02T14:58:00.657Z</time></trkpt><trkpt lat="42.9668465" lon="11.4454066"><ele>138.0</ele><time>2026-05-02T14:58:01.649Z</time></trkpt><trkpt lat="42.9668773" lon="11.4452559"><ele>138.0</ele><time>2026-05-02T14:58:02.649Z</time></trkpt><trkpt lat="42.9669037" lon="11.445104"><ele>135.4</ele><time>2026-05-02T14:58:03.645Z</time></trkpt><trkpt lat="42.9669281" lon="11.4449496"><ele>132.8</ele><time>2026-05-02T14:58:04.652Z</time></trkpt><trkpt lat="42.9669417" lon="11.444801"><ele>130.2</ele><time>2026-05-02T14:58:05.641Z</time></trkpt><trkpt lat="42.9669538" lon="11.444649"><ele>127.6</ele><time>2026-05-02T14:58:06.656Z</time></trkpt><trkpt lat="42.9669651" lon="11.4444977"><ele>125.0</ele><time>2026-05-02T14:58:07.646Z</time></trkpt><trkpt lat="42.9669741" lon="11.4443474"><ele>124.4</ele><time>2026-05-02T14:58:08.654Z</time></trkpt><trkpt lat="42.9669875" lon="11.4442026"><ele>123.8</ele><time>2026-05-02T14:58:09.653Z</time></trkpt><trkpt lat="42.9670054" lon="11.4440571"><ele>123.19999999999999</ele><time>2026-05-02T14:58:10.658Z</time></trkpt><trkpt lat="42.9670219" lon="11.4439086"><ele>122.6</ele><time>2026-05-02T14:58:11.661Z</time></trkpt><trkpt lat="42.9670338" lon="11.4437552"><ele>122.0</ele><time>2026-05-02T14:58:12.667Z</time></trkpt><trkpt lat="42.967054" lon="11.4435953"><ele>123.0</ele><time>2026-05-02T14:58:13.647Z</time></trkpt><trkpt lat="42.9670721" lon="11.4434347"><ele>124.0</ele><time>2026-05-02T14:58:14.654Z</time></trkpt><trkpt lat="42.9670899" lon="11.4432729"><ele>125.0</ele><time>2026-05-02T14:58:15.658Z</time></trkpt><trkpt lat="42.9671062" lon="11.4431087"><ele>126.0</ele><time>2026-05-02T14:58:16.652Z</time></trkpt><trkpt lat="42.9671227" lon="11.4429388"><ele>126.0</ele><time>2026-05-02T14:58:17.656Z</time></trkpt><trkpt lat="42.9671358" lon="11.4427694"><ele>126.0</ele><time>2026-05-02T14:58:18.655Z</time></trkpt><trkpt lat="42.9671478" lon="11.4425951"><ele>126.0</ele><time>2026-05-02T14:58:19.666Z</time></trkpt><trkpt lat="42.9671621" lon="11.4424252"><ele>126.0</ele><time>2026-05-02T14:58:20.666Z</time></trkpt><trkpt lat="42.9671842" lon="11.4422592"><ele>124.75</ele><time>2026-05-02T14:58:21.657Z</time></trkpt><trkpt lat="42.9672078" lon="11.4420934"><ele>123.5</ele><time>2026-05-02T14:58:22.667Z</time></trkpt><trkpt lat="42.9672306" lon="11.4419312"><ele>122.25</ele><time>2026-05-02T14:58:23.662Z</time></trkpt><trkpt lat="42.9672621" lon="11.4417686"><ele>121.0</ele><time>2026-05-02T14:58:24.663Z</time></trkpt><trkpt lat="42.9673103" lon="11.4416091"><ele>121.0</ele><time>2026-05-02T14:58:25.65Z</time></trkpt><trkpt lat="42.9673651" lon="11.4414656"><ele>121.0</ele><time>2026-05-02T14:58:26.669Z</time></trkpt><trkpt lat="42.9674204" lon="11.4413236"><ele>121.0</ele><time>2026-05-02T14:58:27.659Z</time></trkpt><trkpt lat="42.9674607" lon="11.4411854"><ele>121.0</ele><time>2026-05-02T14:58:28.655Z</time></trkpt><trkpt lat="42.9674733" lon="11.4410387"><ele>120.4</ele><time>2026-05-02T14:58:29.655Z</time></trkpt><trkpt lat="42.9674628" lon="11.4408906"><ele>119.8</ele><time>2026-05-02T14:58:30.649Z</time></trkpt><trkpt lat="42.9674388" lon="11.4407529"><ele>119.20000000000002</ele><time>2026-05-02T14:58:31.646Z</time></trkpt><trkpt lat="42.9674183" lon="11.4406245"><ele>118.60000000000001</ele><time>2026-05-02T14:58:32.673Z</time></trkpt><trkpt lat="42.9674057" lon="11.4405057"><ele>118.0</ele><time>2026-05-02T14:58:33.651Z</time></trkpt><trkpt lat="42.9674012" lon="11.4403943"><ele>118.0</ele><time>2026-05-02T14:58:34.662Z</time></trkpt><trkpt lat="42.9674069" lon="11.4402781"><ele>118.00000000000001</ele><time>2026-05-02T14:58:35.668Z</time></trkpt><trkpt lat="42.9674199" lon="11.4401524"><ele>118.00000000000001</ele><time>2026-05-02T14:58:36.657Z</time></trkpt><trkpt lat="42.9674329" lon="11.4400115"><ele>118.0</ele><time>2026-05-02T14:58:37.653Z</time></trkpt><trkpt lat="42.9674447" lon="11.4398608"><ele>118.0</ele><time>2026-05-02T14:58:38.66Z</time></trkpt><trkpt lat="42.967463" lon="11.4396982"><ele>118.5</ele><time>2026-05-02T14:58:39.657Z</time></trkpt><trkpt lat="42.9674764" lon="11.4395387"><ele>119.0</ele><time>2026-05-02T14:58:40.666Z</time></trkpt><trkpt lat="42.9674842" lon="11.4393715"><ele>119.5</ele><time>2026-05-02T14:58:41.659Z</time></trkpt><trkpt lat="42.9674896" lon="11.4392056"><ele>120.0</ele><time>2026-05-02T14:58:42.668Z</time></trkpt><trkpt lat="42.9674963" lon="11.4390402"><ele>120.0</ele><time>2026-05-02T14:58:43.647Z</time></trkpt><trkpt lat="42.9674957" lon="11.4388776"><ele>120.0</ele><time>2026-05-02T14:58:44.665Z</time></trkpt><trkpt lat="42.9674929" lon="11.4387123"><ele>120.0</ele><time>2026-05-02T14:58:45.656Z</time></trkpt><trkpt lat="42.9674904" lon="11.438544"><ele>120.0</ele><time>2026-05-02T14:58:46.657Z</time></trkpt><trkpt lat="42.9674909" lon="11.4383758"><ele>119.5</ele><time>2026-05-02T14:58:47.664Z</time></trkpt><trkpt lat="42.9674937" lon="11.438207"><ele>119.0</ele><time>2026-05-02T14:58:48.648Z</time></trkpt><trkpt lat="42.967505" lon="11.438034"><ele>118.5</ele><time>2026-05-02T14:58:49.664Z</time></trkpt><trkpt lat="42.9675253" lon="11.4378582"><ele>118.0</ele><time>2026-05-02T14:58:50.65Z</time></trkpt><trkpt lat="42.9675466" lon="11.4376847"><ele>122.5</ele><time>2026-05-02T14:58:51.657Z</time></trkpt><trkpt lat="42.9675644" lon="11.4375051"><ele>127.0</ele><time>2026-05-02T14:58:52.666Z</time></trkpt><trkpt lat="42.9675798" lon="11.4373282"><ele>131.5</ele><time>2026-05-02T14:58:53.653Z</time></trkpt><trkpt lat="42.9675777" lon="11.4371522"><ele>136.0</ele><time>2026-05-02T14:58:54.657Z</time></trkpt><trkpt lat="42.9675492" lon="11.4369782"><ele>132.0</ele><time>2026-05-02T14:58:55.646Z</time></trkpt><trkpt lat="42.9675048" lon="11.4367992"><ele>128.0</ele><time>2026-05-02T14:58:56.674Z</time></trkpt><trkpt lat="42.9674707" lon="11.4366289"><ele>124.0</ele><time>2026-05-02T14:58:57.666Z</time></trkpt><trkpt lat="42.9674542" lon="11.4364574"><ele>120.0</ele><time>2026-05-02T14:58:58.653Z</time></trkpt><trkpt lat="42.9674376" lon="11.4363003"><ele>120.0</ele><time>2026-05-02T14:58:59.668Z</time></trkpt><trkpt lat="42.9674174" lon="11.4361497"><ele>120.0</ele><time>2026-05-02T14:59:00.659Z</time></trkpt><trkpt lat="42.9673743" lon="11.436005"><ele>120.0</ele><time>2026-05-02T14:59:01.653Z</time></trkpt><trkpt lat="42.9673033" lon="11.4358665"><ele>120.0</ele><time>2026-05-02T14:59:02.652Z</time></trkpt><trkpt lat="42.9672202" lon="11.4357349"><ele>120.0</ele><time>2026-05-02T14:59:03.658Z</time></trkpt><trkpt lat="42.967145" lon="11.4356042"><ele>120.0</ele><time>2026-05-02T14:59:04.652Z</time></trkpt><trkpt lat="42.9670862" lon="11.4354747"><ele>120.0</ele><time>2026-05-02T14:59:05.665Z</time></trkpt><trkpt lat="42.9670462" lon="11.4353648"><ele>120.0</ele><time>2026-05-02T14:59:06.66Z</time></trkpt><trkpt lat="42.9670234" lon="11.4352805"><ele>120.0</ele><time>2026-05-02T14:59:07.656Z</time></trkpt><trkpt lat="42.9669905" lon="11.4351581"><ele>120.66666666666667</ele><time>2026-05-02T14:59:09.654Z</time></trkpt><trkpt lat="42.9669554" lon="11.4350812"><ele>121.33333333333334</ele><time>2026-05-02T14:59:12.652Z</time></trkpt><trkpt lat="42.9669073" lon="11.4349968"><ele>122.0</ele><time>2026-05-02T14:59:33.654Z</time></trkpt><trkpt lat="42.9668578" lon="11.4349414"><ele>122.66666666666667</ele><time>2026-05-02T14:59:35.66Z</time></trkpt><trkpt lat="42.9667776" lon="11.4348643"><ele>123.33333333333334</ele><time>2026-05-02T14:59:37.661Z</time></trkpt><trkpt lat="42.9666686" lon="11.4347677"><ele>124.0</ele><time>2026-05-02T14:59:39.662Z</time></trkpt><trkpt lat="42.9666107" lon="11.4347044"><ele>122.66666666666667</ele><time>2026-05-02T14:59:40.657Z</time></trkpt><trkpt lat="42.9665564" lon="11.434629"><ele>121.33333333333334</ele><time>2026-05-02T14:59:41.667Z</time></trkpt><trkpt lat="42.9665049" lon="11.4345395"><ele>120.0</ele><time>2026-05-02T14:59:42.665Z</time></trkpt><trkpt lat="42.9664601" lon="11.4344318"><ele>118.66666666666666</ele><time>2026-05-02T14:59:43.658Z</time></trkpt><trkpt lat="42.9664273" lon="11.4343078"><ele>117.33333333333333</ele><time>2026-05-02T14:59:44.659Z</time></trkpt><trkpt lat="42.9664074" lon="11.4341728"><ele>116.0</ele><time>2026-05-02T14:59:45.661Z</time></trkpt><trkpt lat="42.9663947" lon="11.4340366"><ele>116.0</ele><time>2026-05-02T14:59:46.67Z</time></trkpt><trkpt lat="42.9663921" lon="11.4338895"><ele>116.0</ele><time>2026-05-02T14:59:47.667Z</time></trkpt><trkpt lat="42.9663995" lon="11.4337382"><ele>116.0</ele><time>2026-05-02T14:59:48.669Z</time></trkpt><trkpt lat="42.9664139" lon="11.4335932"><ele>116.0</ele><time>2026-05-02T14:59:49.661Z</time></trkpt><trkpt lat="42.966427" lon="11.4334605"><ele>116.0</ele><time>2026-05-02T14:59:50.657Z</time></trkpt><trkpt lat="42.9664399" lon="11.4333262"><ele>115.25</ele><time>2026-05-02T14:59:51.663Z</time></trkpt><trkpt lat="42.966453" lon="11.4331797"><ele>114.5</ele><time>2026-05-02T14:59:52.665Z</time></trkpt><trkpt lat="42.9664671" lon="11.4330267"><ele>113.75</ele><time>2026-05-02T14:59:53.669Z</time></trkpt><trkpt lat="42.9664832" lon="11.4328674"><ele>113.0</ele><time>2026-05-02T14:59:54.673Z</time></trkpt><trkpt lat="42.9665016" lon="11.4327035"><ele>112.75</ele><time>2026-05-02T14:59:55.654Z</time></trkpt><trkpt lat="42.9665213" lon="11.432534"><ele>112.5</ele><time>2026-05-02T14:59:56.67Z</time></trkpt><trkpt lat="42.9665397" lon="11.4323662"><ele>112.25</ele><time>2026-05-02T14:59:57.662Z</time></trkpt><trkpt lat="42.9665593" lon="11.4321999"><ele>112.0</ele><time>2026-05-02T14:59:58.661Z</time></trkpt><trkpt lat="42.966579" lon="11.4320284"><ele>112.0</ele><time>2026-05-02T14:59:59.651Z</time></trkpt><trkpt lat="42.966599" lon="11.4318582"><ele>112.0</ele><time>2026-05-02T15:00:00.666Z</time></trkpt><trkpt lat="42.9666156" lon="11.4316905"><ele>112.0</ele><time>2026-05-02T15:00:01.662Z</time></trkpt><trkpt lat="42.9666129" lon="11.4315233"><ele>112.0</ele><time>2026-05-02T15:00:02.665Z</time></trkpt><trkpt lat="42.9665943" lon="11.4313588"><ele>112.5</ele><time>2026-05-02T15:00:03.651Z</time></trkpt><trkpt lat="42.9665615" lon="11.4311916"><ele>113.0</ele><time>2026-05-02T15:00:04.662Z</time></trkpt><trkpt lat="42.9665297" lon="11.4310245"><ele>113.5</ele><time>2026-05-02T15:00:05.655Z</time></trkpt><trkpt lat="42.9664996" lon="11.4308653"><ele>114.0</ele><time>2026-05-02T15:00:06.662Z</time></trkpt><trkpt lat="42.9664728" lon="11.4307191"><ele>114.0</ele><time>2026-05-02T15:00:07.672Z</time></trkpt><trkpt lat="42.9664565" lon="11.4305901"><ele>114.0</ele><time>2026-05-02T15:00:08.663Z</time></trkpt><trkpt lat="42.9664439" lon="11.430469"><ele>114.0</ele><time>2026-05-02T15:00:09.661Z</time></trkpt><trkpt lat="42.966429" lon="11.4303475"><ele>114.0</ele><time>2026-05-02T15:00:10.664Z</time></trkpt><trkpt lat="42.9664087" lon="11.4302149"><ele>114.0</ele><time>2026-05-02T15:00:11.654Z</time></trkpt><trkpt lat="42.966392" lon="11.4300726"><ele>114.0</ele><time>2026-05-02T15:00:12.661Z</time></trkpt><trkpt lat="42.9663738" lon="11.4299266"><ele>114.0</ele><time>2026-05-02T15:00:13.662Z</time></trkpt><trkpt lat="42.9663641" lon="11.4297669"><ele>114.0</ele><time>2026-05-02T15:00:14.65Z</time></trkpt><trkpt lat="42.966363" lon="11.4296033"><ele>114.0</ele><time>2026-05-02T15:00:15.656Z</time></trkpt><trkpt lat="42.9663749" lon="11.4294386"><ele>114.2</ele><time>2026-05-02T15:00:16.651Z</time></trkpt><trkpt lat="42.966396" lon="11.4292799"><ele>114.4</ele><time>2026-05-02T15:00:17.657Z</time></trkpt><trkpt lat="42.9664186" lon="11.4291288"><ele>114.6</ele><time>2026-05-02T15:00:18.67Z</time></trkpt><trkpt lat="42.9664404" lon="11.4289816"><ele>114.8</ele><time>2026-05-02T15:00:19.665Z</time></trkpt><trkpt lat="42.9664665" lon="11.4288405"><ele>115.0</ele><time>2026-05-02T15:00:20.663Z</time></trkpt><trkpt lat="42.9664853" lon="11.4287115"><ele>115.00000000000001</ele><time>2026-05-02T15:00:21.659Z</time></trkpt><trkpt lat="42.9664806" lon="11.4285938"><ele>115.0</ele><time>2026-05-02T15:00:22.665Z</time></trkpt><trkpt lat="42.9664564" lon="11.4285003"><ele>115.0</ele><time>2026-05-02T15:00:23.661Z</time></trkpt><trkpt lat="42.9664337" lon="11.4284159"><ele>115.0</ele><time>2026-05-02T15:00:24.658Z</time></trkpt><trkpt lat="42.9664066" lon="11.4283186"><ele>115.00000000000001</ele><time>2026-05-02T15:00:25.653Z</time></trkpt><trkpt lat="42.9663721" lon="11.4282097"><ele>115.0</ele><time>2026-05-02T15:00:26.659Z</time></trkpt><trkpt lat="42.9663397" lon="11.4280794"><ele>115.25</ele><time>2026-05-02T15:00:27.666Z</time></trkpt><trkpt lat="42.9663018" lon="11.4279343"><ele>115.5</ele><time>2026-05-02T15:00:28.655Z</time></trkpt><trkpt lat="42.9662607" lon="11.4277816"><ele>115.75</ele><time>2026-05-02T15:00:29.661Z</time></trkpt><trkpt lat="42.966221" lon="11.4276263"><ele>116.0</ele><time>2026-05-02T15:00:30.658Z</time></trkpt><trkpt lat="42.9661779" lon="11.4274625"><ele>116.0</ele><time>2026-05-02T15:00:31.656Z</time></trkpt><trkpt lat="42.9661301" lon="11.4272976"><ele>116.0</ele><time>2026-05-02T15:00:32.668Z</time></trkpt><trkpt lat="42.9660888" lon="11.4271398"><ele>116.0</ele><time>2026-05-02T15:00:33.652Z</time></trkpt><trkpt lat="42.9660598" lon="11.4269975"><ele>116.0</ele><time>2026-05-02T15:00:34.653Z</time></trkpt><trkpt lat="42.9660201" lon="11.4268675"><ele>115.4</ele><time>2026-05-02T15:00:35.669Z</time></trkpt><trkpt lat="42.9659604" lon="11.4267609"><ele>114.8</ele><time>2026-05-02T15:00:36.653Z</time></trkpt><trkpt lat="42.9658904" lon="11.4266649"><ele>114.20000000000002</ele><time>2026-05-02T15:00:37.652Z</time></trkpt><trkpt lat="42.9658137" lon="11.4265807"><ele>113.60000000000001</ele><time>2026-05-02T15:00:38.67Z</time></trkpt><trkpt lat="42.9657225" lon="11.4265054"><ele>113.0</ele><time>2026-05-02T15:00:39.663Z</time></trkpt><trkpt lat="42.965607" lon="11.4264365"><ele>112.0</ele><time>2026-05-02T15:00:40.655Z</time></trkpt><trkpt lat="42.9654807" lon="11.4263675"><ele>111.0</ele><time>2026-05-02T15:00:41.659Z</time></trkpt><trkpt lat="42.965352" lon="11.4262838"><ele>110.0</ele><time>2026-05-02T15:00:42.66Z</time></trkpt><trkpt lat="42.9652368" lon="11.4261878"><ele>109.0</ele><time>2026-05-02T15:00:43.655Z</time></trkpt><trkpt lat="42.9651495" lon="11.4261064"><ele>109.0</ele><time>2026-05-02T15:00:44.664Z</time></trkpt><trkpt lat="42.9651032" lon="11.4260439"><ele>109.0</ele><time>2026-05-02T15:00:45.651Z</time></trkpt><trkpt lat="42.9650434" lon="11.4259639"><ele>109.0</ele><time>2026-05-02T15:00:47.659Z</time></trkpt><trkpt lat="42.9649262" lon="11.4258907"><ele>109.0</ele><time>2026-05-02T15:00:49.654Z</time></trkpt><trkpt lat="42.9648373" lon="11.4258569"><ele>109.0</ele><time>2026-05-02T15:00:50.666Z</time></trkpt><trkpt lat="42.9647373" lon="11.4258257"><ele>107.75</ele><time>2026-05-02T15:00:51.667Z</time></trkpt><trkpt lat="42.9646269" lon="11.4257968"><ele>106.5</ele><time>2026-05-02T15:00:52.656Z</time></trkpt><trkpt lat="42.9645065" lon="11.4257724"><ele>105.25</ele><time>2026-05-02T15:00:53.648Z</time></trkpt><trkpt lat="42.9643776" lon="11.4257524"><ele>104.0</ele><time>2026-05-02T15:00:54.669Z</time></trkpt><trkpt lat="42.9642413" lon="11.425733"><ele>103.75</ele><time>2026-05-02T15:00:55.651Z</time></trkpt><trkpt lat="42.9640962" lon="11.4257251"><ele>103.5</ele><time>2026-05-02T15:00:56.666Z</time></trkpt><trkpt lat="42.9639462" lon="11.4257161"><ele>103.25</ele><time>2026-05-02T15:00:57.668Z</time></trkpt><trkpt lat="42.9637926" lon="11.4257053"><ele>103.0</ele><time>2026-05-02T15:00:58.659Z</time></trkpt><trkpt lat="42.963632" lon="11.4256984"><ele>103.0</ele><time>2026-05-02T15:00:59.662Z</time></trkpt><trkpt lat="42.9634651" lon="11.4256913"><ele>103.0</ele><time>2026-05-02T15:01:00.665Z</time></trkpt><trkpt lat="42.9632926" lon="11.4256847"><ele>103.0</ele><time>2026-05-02T15:01:01.661Z</time></trkpt><trkpt lat="42.9631134" lon="11.4256797"><ele>102.66666666666667</ele><time>2026-05-02T15:01:02.673Z</time></trkpt><trkpt lat="42.9629305" lon="11.4256739"><ele>102.33333333333334</ele><time>2026-05-02T15:01:03.647Z</time></trkpt><trkpt lat="42.9627455" lon="11.4256701"><ele>102.0</ele><time>2026-05-02T15:01:04.652Z</time></trkpt><trkpt lat="42.9625587" lon="11.4256651"><ele>101.33333333333334</ele><time>2026-05-02T15:01:05.647Z</time></trkpt><trkpt lat="42.9623668" lon="11.4256598"><ele>100.66666666666667</ele><time>2026-05-02T15:01:06.666Z</time></trkpt><trkpt lat="42.9621766" lon="11.4256512"><ele>100.0</ele><time>2026-05-02T15:01:07.67Z</time></trkpt><trkpt lat="42.9619886" lon="11.4256421"><ele>100.0</ele><time>2026-05-02T15:01:08.661Z</time></trkpt><trkpt lat="42.9618017" lon="11.42564"><ele>100.0</ele><time>2026-05-02T15:01:09.67Z</time></trkpt><trkpt lat="42.9616144" lon="11.4256377"><ele>100.0</ele><time>2026-05-02T15:01:10.663Z</time></trkpt><trkpt lat="42.9614287" lon="11.425631"><ele>100.33333333333334</ele><time>2026-05-02T15:01:11.666Z</time></trkpt><trkpt lat="42.9612451" lon="11.425623"><ele>100.66666666666666</ele><time>2026-05-02T15:01:12.666Z</time></trkpt><trkpt lat="42.9610631" lon="11.425616"><ele>101.0</ele><time>2026-05-02T15:01:13.662Z</time></trkpt><trkpt lat="42.9608841" lon="11.4256047"><ele>101.0</ele><time>2026-05-02T15:01:14.664Z</time></trkpt><trkpt lat="42.960705" lon="11.4256005"><ele>101.0</ele><time>2026-05-02T15:01:15.657Z</time></trkpt><trkpt lat="42.9605281" lon="11.4255942"><ele>101.0</ele><time>2026-05-02T15:01:16.664Z</time></trkpt><trkpt lat="42.9603494" lon="11.4255886"><ele>101.0</ele><time>2026-05-02T15:01:17.658Z</time></trkpt><trkpt lat="42.9601715" lon="11.4255757"><ele>101.0</ele><time>2026-05-02T15:01:18.664Z</time></trkpt><trkpt lat="42.9599914" lon="11.4255663"><ele>101.0</ele><time>2026-05-02T15:01:19.659Z</time></trkpt><trkpt lat="42.9598099" lon="11.4255593"><ele>101.33333333333333</ele><time>2026-05-02T15:01:20.666Z</time></trkpt><trkpt lat="42.9596289" lon="11.4255538"><ele>101.66666666666666</ele><time>2026-05-02T15:01:21.658Z</time></trkpt><trkpt lat="42.9594532" lon="11.4255542"><ele>102.0</ele><time>2026-05-02T15:01:22.657Z</time></trkpt><trkpt lat="42.9592818" lon="11.4255542"><ele>102.0</ele><time>2026-05-02T15:01:23.654Z</time></trkpt><trkpt lat="42.9591137" lon="11.4255451"><ele>102.0</ele><time>2026-05-02T15:01:24.656Z</time></trkpt><trkpt lat="42.9589518" lon="11.4255365"><ele>102.0</ele><time>2026-05-02T15:01:25.657Z</time></trkpt><trkpt lat="42.9588081" lon="11.4255273"><ele>102.0</ele><time>2026-05-02T15:01:26.659Z</time></trkpt><trkpt lat="42.9586919" lon="11.4255239"><ele>102.0</ele><time>2026-05-02T15:01:27.656Z</time></trkpt><trkpt lat="42.9585876" lon="11.4255222"><ele>102.0</ele><time>2026-05-02T15:01:28.661Z</time></trkpt><trkpt lat="42.9584843" lon="11.4255131"><ele>102.0</ele><time>2026-05-02T15:01:29.65Z</time></trkpt><trkpt lat="42.958369" lon="11.4255095"><ele>102.0</ele><time>2026-05-02T15:01:30.653Z</time></trkpt><trkpt lat="42.9582432" lon="11.4255008"><ele>103.25</ele><time>2026-05-02T15:01:31.668Z</time></trkpt><trkpt lat="42.9581101" lon="11.4254848"><ele>104.5</ele><time>2026-05-02T15:01:32.657Z</time></trkpt><trkpt lat="42.9579713" lon="11.4254788"><ele>105.75</ele><time>2026-05-02T15:01:33.672Z</time></trkpt><trkpt lat="42.957831" lon="11.4254751"><ele>107.0</ele><time>2026-05-02T15:01:34.66Z</time></trkpt><trkpt lat="42.9576852" lon="11.4254746"><ele>107.33333333333333</ele><time>2026-05-02T15:01:35.657Z</time></trkpt><trkpt lat="42.9575374" lon="11.4254785"><ele>107.66666666666666</ele><time>2026-05-02T15:01:36.66Z</time></trkpt><trkpt lat="42.9573838" lon="11.4254902"><ele>108.0</ele><time>2026-05-02T15:01:37.668Z</time></trkpt><trkpt lat="42.9572263" lon="11.4255133"><ele>110.33333333333334</ele><time>2026-05-02T15:01:38.662Z</time></trkpt><trkpt lat="42.9570656" lon="11.4255547"><ele>112.66666666666667</ele><time>2026-05-02T15:01:39.668Z</time></trkpt><trkpt lat="42.9568982" lon="11.4256152"><ele>115.0</ele><time>2026-05-02T15:01:40.652Z</time></trkpt><trkpt lat="42.9567223" lon="11.4256908"><ele>117.0</ele><time>2026-05-02T15:01:41.657Z</time></trkpt><trkpt lat="42.9565312" lon="11.4257763"><ele>119.0</ele><time>2026-05-02T15:01:42.657Z</time></trkpt><trkpt lat="42.9563348" lon="11.425859"><ele>121.0</ele><time>2026-05-02T15:01:43.659Z</time></trkpt><trkpt lat="42.9561292" lon="11.4259371"><ele>121.0</ele><time>2026-05-02T15:01:44.652Z</time></trkpt><trkpt lat="42.9559193" lon="11.4259843"><ele>121.0</ele><time>2026-05-02T15:01:45.657Z</time></trkpt><trkpt lat="42.955702" lon="11.4260044"><ele>121.0</ele><time>2026-05-02T15:01:46.653Z</time></trkpt><trkpt lat="42.9554947" lon="11.4260087"><ele>123.33333333333334</ele><time>2026-05-02T15:01:47.656Z</time></trkpt><trkpt lat="42.9553122" lon="11.4259869"><ele>125.66666666666666</ele><time>2026-05-02T15:01:48.646Z</time></trkpt><trkpt lat="42.9551533" lon="11.4259292"><ele>128.0</ele><time>2026-05-02T15:01:49.65Z</time></trkpt><trkpt lat="42.9550002" lon="11.4258289"><ele>129.33333333333331</ele><time>2026-05-02T15:01:50.655Z</time></trkpt><trkpt lat="42.9548477" lon="11.4256937"><ele>130.66666666666666</ele><time>2026-05-02T15:01:51.663Z</time></trkpt><trkpt lat="42.9546934" lon="11.4255507"><ele>132.0</ele><time>2026-05-02T15:01:52.657Z</time></trkpt><trkpt lat="42.9545404" lon="11.4254104"><ele>132.0</ele><time>2026-05-02T15:01:53.66Z</time></trkpt><trkpt lat="42.9543882" lon="11.4252996"><ele>132.0</ele><time>2026-05-02T15:01:54.644Z</time></trkpt><trkpt lat="42.9542318" lon="11.4252112"><ele>132.0</ele><time>2026-05-02T15:01:55.654Z</time></trkpt><trkpt lat="42.9540621" lon="11.4251551"><ele>133.66666666666666</ele><time>2026-05-02T15:01:56.663Z</time></trkpt><trkpt lat="42.9538811" lon="11.4251352"><ele>135.33333333333331</ele><time>2026-05-02T15:01:57.65Z</time></trkpt><trkpt lat="42.9537059" lon="11.4251218"><ele>137.0</ele><time>2026-05-02T15:01:58.651Z</time></trkpt><trkpt lat="42.9535492" lon="11.4251045"><ele>137.0</ele><time>2026-05-02T15:01:59.654Z</time></trkpt><trkpt lat="42.9534068" lon="11.4250628"><ele>137.0</ele><time>2026-05-02T15:02:00.661Z</time></trkpt><trkpt lat="42.9532841" lon="11.424978"><ele>137.0</ele><time>2026-05-02T15:02:01.651Z</time></trkpt><trkpt lat="42.9531845" lon="11.4248446"><ele>137.0</ele><time>2026-05-02T15:02:02.657Z</time></trkpt><trkpt lat="42.9531203" lon="11.4246979"><ele>138.25</ele><time>2026-05-02T15:02:03.657Z</time></trkpt><trkpt lat="42.9530926" lon="11.4245318"><ele>139.5</ele><time>2026-05-02T15:02:04.658Z</time></trkpt><trkpt lat="42.9530857" lon="11.4243526"><ele>140.75</ele><time>2026-05-02T15:02:05.653Z</time></trkpt><trkpt lat="42.9531073" lon="11.4241747"><ele>142.0</ele><time>2026-05-02T15:02:06.665Z</time></trkpt><trkpt lat="42.953154" lon="11.4239869"><ele>142.33333333333334</ele><time>2026-05-02T15:02:07.653Z</time></trkpt><trkpt lat="42.9532089" lon="11.4237884"><ele>142.66666666666666</ele><time>2026-05-02T15:02:08.659Z</time></trkpt><trkpt lat="42.9532565" lon="11.4235875"><ele>143.0</ele><time>2026-05-02T15:02:09.665Z</time></trkpt><trkpt lat="42.9532992" lon="11.4233814"><ele>143.0</ele><time>2026-05-02T15:02:10.662Z</time></trkpt><trkpt lat="42.9533435" lon="11.423158"><ele>143.0</ele><time>2026-05-02T15:02:11.655Z</time></trkpt><trkpt lat="42.9533919" lon="11.4229255"><ele>143.0</ele><time>2026-05-02T15:02:12.667Z</time></trkpt><trkpt lat="42.9534381" lon="11.4226897"><ele>141.66666666666666</ele><time>2026-05-02T15:02:13.666Z</time></trkpt><trkpt lat="42.9534842" lon="11.4224538"><ele>140.33333333333334</ele><time>2026-05-02T15:02:14.665Z</time></trkpt><trkpt lat="42.953532" lon="11.4222199"><ele>139.0</ele><time>2026-05-02T15:02:15.662Z</time></trkpt><trkpt lat="42.9535796" lon="11.4219858"><ele>138.66666666666669</ele><time>2026-05-02T15:02:16.663Z</time></trkpt><trkpt lat="42.9536255" lon="11.4217521"><ele>138.33333333333334</ele><time>2026-05-02T15:02:17.655Z</time></trkpt><trkpt lat="42.9536696" lon="11.4215094"><ele>138.0</ele><time>2026-05-02T15:02:18.663Z</time></trkpt><trkpt lat="42.9537147" lon="11.4212626"><ele>137.33333333333334</ele><time>2026-05-02T15:02:19.662Z</time></trkpt><trkpt lat="42.9537632" lon="11.4210091"><ele>136.66666666666669</ele><time>2026-05-02T15:02:20.682Z</time></trkpt><trkpt lat="42.9538147" lon="11.4207606"><ele>136.0</ele><time>2026-05-02T15:02:21.673Z</time></trkpt><trkpt lat="42.9538668" lon="11.4205138"><ele>134.66666666666669</ele><time>2026-05-02T15:02:22.678Z</time></trkpt><trkpt lat="42.9539141" lon="11.4202836"><ele>133.33333333333334</ele><time>2026-05-02T15:02:23.665Z</time></trkpt><trkpt lat="42.9539625" lon="11.4200579"><ele>132.0</ele><time>2026-05-02T15:02:24.66Z</time></trkpt><trkpt lat="42.9540057" lon="11.4198466"><ele>131.25</ele><time>2026-05-02T15:02:25.652Z</time></trkpt><trkpt lat="42.9540486" lon="11.4196388"><ele>130.5</ele><time>2026-05-02T15:02:26.66Z</time></trkpt><trkpt lat="42.9540877" lon="11.4194436"><ele>129.75</ele><time>2026-05-02T15:02:27.652Z</time></trkpt><trkpt lat="42.9541228" lon="11.4192565"><ele>129.0</ele><time>2026-05-02T15:02:28.656Z</time></trkpt><trkpt lat="42.9541556" lon="11.4190817"><ele>129.0</ele><time>2026-05-02T15:02:29.649Z</time></trkpt><trkpt lat="42.9541911" lon="11.4189124"><ele>129.0</ele><time>2026-05-02T15:02:30.659Z</time></trkpt><trkpt lat="42.9542279" lon="11.41874"><ele>129.0</ele><time>2026-05-02T15:02:31.659Z</time></trkpt><trkpt lat="42.954266" lon="11.4185496"><ele>129.0</ele><time>2026-05-02T15:02:32.659Z</time></trkpt><trkpt lat="42.9543073" lon="11.418344"><ele>128.0</ele><time>2026-05-02T15:02:33.653Z</time></trkpt><trkpt lat="42.9543505" lon="11.4181269"><ele>127.0</ele><time>2026-05-02T15:02:34.659Z</time></trkpt><trkpt lat="42.9543966" lon="11.4179003"><ele>126.0</ele><time>2026-05-02T15:02:35.664Z</time></trkpt><trkpt lat="42.9544487" lon="11.4176568"><ele>125.66666666666666</ele><time>2026-05-02T15:02:36.665Z</time></trkpt><trkpt lat="42.9545018" lon="11.4173987"><ele>125.33333333333333</ele><time>2026-05-02T15:02:37.654Z</time></trkpt><trkpt lat="42.9545548" lon="11.4171377"><ele>125.0</ele><time>2026-05-02T15:02:38.67Z</time></trkpt><trkpt lat="42.9546096" lon="11.4168783"><ele>124.33333333333333</ele><time>2026-05-02T15:02:39.656Z</time></trkpt><trkpt lat="42.9546609" lon="11.4166198"><ele>123.66666666666666</ele><time>2026-05-02T15:02:40.657Z</time></trkpt><trkpt lat="42.9547143" lon="11.4163586"><ele>123.0</ele><time>2026-05-02T15:02:41.66Z</time></trkpt><trkpt lat="42.9547641" lon="11.4161031"><ele>122.33333333333334</ele><time>2026-05-02T15:02:42.66Z</time></trkpt><trkpt lat="42.9548161" lon="11.4158504"><ele>121.66666666666667</ele><time>2026-05-02T15:02:43.656Z</time></trkpt><trkpt lat="42.954869" lon="11.4155968"><ele>121.0</ele><time>2026-05-02T15:02:44.664Z</time></trkpt><trkpt lat="42.9549224" lon="11.4153455"><ele>121.0</ele><time>2026-05-02T15:02:45.658Z</time></trkpt><trkpt lat="42.954973" lon="11.4150918"><ele>121.0</ele><time>2026-05-02T15:02:46.656Z</time></trkpt><trkpt lat="42.955023" lon="11.414834"><ele>121.0</ele><time>2026-05-02T15:02:47.652Z</time></trkpt><trkpt lat="42.9550731" lon="11.41457"><ele>119.0</ele><time>2026-05-02T15:02:48.669Z</time></trkpt><trkpt lat="42.9551285" lon="11.414304"><ele>117.0</ele><time>2026-05-02T15:02:49.66Z</time></trkpt><trkpt lat="42.9551835" lon="11.4140348"><ele>115.0</ele><time>2026-05-02T15:02:50.676Z</time></trkpt><trkpt lat="42.9552405" lon="11.4137533"><ele>114.66666666666667</ele><time>2026-05-02T15:02:51.662Z</time></trkpt><trkpt lat="42.9552942" lon="11.4134721"><ele>114.33333333333334</ele><time>2026-05-02T15:02:52.659Z</time></trkpt><trkpt lat="42.9553491" lon="11.4131927"><ele>114.0</ele><time>2026-05-02T15:02:53.657Z</time></trkpt><trkpt lat="42.9554038" lon="11.4129119"><ele>113.66666666666666</ele><time>2026-05-02T15:02:54.656Z</time></trkpt><trkpt lat="42.9554615" lon="11.4126284"><ele>113.33333333333333</ele><time>2026-05-02T15:02:55.653Z</time></trkpt><trkpt lat="42.9555156" lon="11.4123511"><ele>113.0</ele><time>2026-05-02T15:02:56.662Z</time></trkpt><trkpt lat="42.9555707" lon="11.4120753"><ele>114.0</ele><time>2026-05-02T15:02:57.651Z</time></trkpt><trkpt lat="42.9556282" lon="11.4118026"><ele>115.0</ele><time>2026-05-02T15:02:58.661Z</time></trkpt><trkpt lat="42.9556815" lon="11.411537"><ele>116.0</ele><time>2026-05-02T15:02:59.658Z</time></trkpt><trkpt lat="42.9557345" lon="11.4112689"><ele>116.33333333333333</ele><time>2026-05-02T15:03:00.652Z</time></trkpt><trkpt lat="42.9557857" lon="11.4110022"><ele>116.66666666666666</ele><time>2026-05-02T15:03:01.656Z</time></trkpt><trkpt lat="42.9558395" lon="11.4107351"><ele>117.0</ele><time>2026-05-02T15:03:02.661Z</time></trkpt><trkpt lat="42.955896" lon="11.4104641"><ele>115.0</ele><time>2026-05-02T15:03:03.667Z</time></trkpt><trkpt lat="42.9559495" lon="11.410199"><ele>113.0</ele><time>2026-05-02T15:03:04.659Z</time></trkpt><trkpt lat="42.9560002" lon="11.409936"><ele>111.0</ele><time>2026-05-02T15:03:05.664Z</time></trkpt><trkpt lat="42.9560515" lon="11.4096789"><ele>111.0</ele><time>2026-05-02T15:03:06.663Z</time></trkpt><trkpt lat="42.9561034" lon="11.4094211"><ele>111.0</ele><time>2026-05-02T15:03:07.656Z</time></trkpt><trkpt lat="42.9561548" lon="11.4091783"><ele>111.0</ele><time>2026-05-02T15:03:08.648Z</time></trkpt><trkpt lat="42.9562003" lon="11.4089509"><ele>112.0</ele><time>2026-05-02T15:03:09.663Z</time></trkpt><trkpt lat="42.9562415" lon="11.4087425"><ele>113.0</ele><time>2026-05-02T15:03:10.657Z</time></trkpt><trkpt lat="42.95628" lon="11.4085449"><ele>114.0</ele><time>2026-05-02T15:03:11.649Z</time></trkpt><trkpt lat="42.9563209" lon="11.4083505"><ele>114.0</ele><time>2026-05-02T15:03:12.649Z</time></trkpt><trkpt lat="42.9563602" lon="11.4081633"><ele>114.0</ele><time>2026-05-02T15:03:13.657Z</time></trkpt><trkpt lat="42.9563983" lon="11.4079715"><ele>114.0</ele><time>2026-05-02T15:03:14.648Z</time></trkpt><trkpt lat="42.9564369" lon="11.4077715"><ele>114.0</ele><time>2026-05-02T15:03:15.666Z</time></trkpt><trkpt lat="42.9564777" lon="11.4075648"><ele>113.66666666666666</ele><time>2026-05-02T15:03:16.662Z</time></trkpt><trkpt lat="42.956519" lon="11.4073596"><ele>113.33333333333333</ele><time>2026-05-02T15:03:17.668Z</time></trkpt><trkpt lat="42.9565593" lon="11.4071547"><ele>113.0</ele><time>2026-05-02T15:03:18.663Z</time></trkpt><trkpt lat="42.9565998" lon="11.4069469"><ele>112.33333333333333</ele><time>2026-05-02T15:03:19.658Z</time></trkpt><trkpt lat="42.9566452" lon="11.4067323"><ele>111.66666666666666</ele><time>2026-05-02T15:03:20.661Z</time></trkpt><trkpt lat="42.9566919" lon="11.4065211"><ele>111.0</ele><time>2026-05-02T15:03:21.654Z</time></trkpt><trkpt lat="42.9567404" lon="11.4062992"><ele>110.0</ele><time>2026-05-02T15:03:22.649Z</time></trkpt><trkpt lat="42.9567961" lon="11.4060774"><ele>109.0</ele><time>2026-05-02T15:03:23.664Z</time></trkpt><trkpt lat="42.9568577" lon="11.4058503"><ele>108.0</ele><time>2026-05-02T15:03:24.652Z</time></trkpt><trkpt lat="42.9569205" lon="11.4056161"><ele>107.66666666666666</ele><time>2026-05-02T15:03:25.67Z</time></trkpt><trkpt lat="42.9569851" lon="11.40538"><ele>107.33333333333333</ele><time>2026-05-02T15:03:26.658Z</time></trkpt><trkpt lat="42.9570541" lon="11.4051338"><ele>107.0</ele><time>2026-05-02T15:03:27.665Z</time></trkpt><trkpt lat="42.9571251" lon="11.4048854"><ele>105.0</ele><time>2026-05-02T15:03:28.66Z</time></trkpt><trkpt lat="42.9571914" lon="11.404636"><ele>103.0</ele><time>2026-05-02T15:03:29.663Z</time></trkpt><trkpt lat="42.9572575" lon="11.4043911"><ele>101.0</ele><time>2026-05-02T15:03:30.662Z</time></trkpt><trkpt lat="42.9573064" lon="11.4041543"><ele>101.0</ele><time>2026-05-02T15:03:31.647Z</time></trkpt><trkpt lat="42.9573439" lon="11.4039186"><ele>101.0</ele><time>2026-05-02T15:03:32.665Z</time></trkpt><trkpt lat="42.9573681" lon="11.4036803"><ele>101.0</ele><time>2026-05-02T15:03:33.669Z</time></trkpt><trkpt lat="42.9573797" lon="11.4034387"><ele>99.33333333333333</ele><time>2026-05-02T15:03:34.666Z</time></trkpt><trkpt lat="42.9573832" lon="11.4032059"><ele>97.66666666666666</ele><time>2026-05-02T15:03:35.662Z</time></trkpt><trkpt lat="42.9573837" lon="11.4029701"><ele>96.0</ele><time>2026-05-02T15:03:36.654Z</time></trkpt><trkpt lat="42.9573879" lon="11.4027294"><ele>95.66666666666667</ele><time>2026-05-02T15:03:37.663Z</time></trkpt><trkpt lat="42.9573913" lon="11.4024885"><ele>95.33333333333334</ele><time>2026-05-02T15:03:38.653Z</time></trkpt><trkpt lat="42.9573954" lon="11.4022522"><ele>95.0</ele><time>2026-05-02T15:03:39.667Z</time></trkpt><trkpt lat="42.957397" lon="11.4020065"><ele>94.33333333333334</ele><time>2026-05-02T15:03:40.67Z</time></trkpt><trkpt lat="42.957397" lon="11.4017549"><ele>93.66666666666667</ele><time>2026-05-02T15:03:41.658Z</time></trkpt><trkpt lat="42.9573975" lon="11.4014998"><ele>93.0</ele><time>2026-05-02T15:03:42.659Z</time></trkpt><trkpt lat="42.9573974" lon="11.4012397"><ele>93.0</ele><time>2026-05-02T15:03:43.661Z</time></trkpt><trkpt lat="42.9573974" lon="11.4009787"><ele>93.0</ele><time>2026-05-02T15:03:44.664Z</time></trkpt><trkpt lat="42.9573994" lon="11.4007365"><ele>93.0</ele><time>2026-05-02T15:03:45.666Z</time></trkpt><trkpt lat="42.9574045" lon="11.4005029"><ele>94.33333333333334</ele><time>2026-05-02T15:03:46.666Z</time></trkpt><trkpt lat="42.9574101" lon="11.4002682"><ele>95.66666666666667</ele><time>2026-05-02T15:03:47.651Z</time></trkpt><trkpt lat="42.9574136" lon="11.4000322"><ele>97.0</ele><time>2026-05-02T15:03:48.665Z</time></trkpt><trkpt lat="42.9574116" lon="11.3997923"><ele>98.33333333333334</ele><time>2026-05-02T15:03:49.664Z</time></trkpt><trkpt lat="42.9574043" lon="11.3995516"><ele>99.66666666666666</ele><time>2026-05-02T15:03:50.663Z</time></trkpt><trkpt lat="42.9573949" lon="11.3993088"><ele>101.0</ele><time>2026-05-02T15:03:51.665Z</time></trkpt><trkpt lat="42.9573814" lon="11.3990677"><ele>101.0</ele><time>2026-05-02T15:03:52.663Z</time></trkpt><trkpt lat="42.9573682" lon="11.3988222"><ele>101.0</ele><time>2026-05-02T15:03:53.658Z</time></trkpt><trkpt lat="42.9573564" lon="11.3985771"><ele>101.0</ele><time>2026-05-02T15:03:54.654Z</time></trkpt><trkpt lat="42.9573443" lon="11.398334"><ele>101.0</ele><time>2026-05-02T15:03:55.656Z</time></trkpt><trkpt lat="42.9573345" lon="11.3980921"><ele>101.0</ele><time>2026-05-02T15:03:56.647Z</time></trkpt><trkpt lat="42.9573257" lon="11.3978486"><ele>101.0</ele><time>2026-05-02T15:03:57.65Z</time></trkpt><trkpt lat="42.9573163" lon="11.3976021"><ele>101.66666666666666</ele><time>2026-05-02T15:03:58.661Z</time></trkpt><trkpt lat="42.9573136" lon="11.3973549"><ele>102.33333333333334</ele><time>2026-05-02T15:03:59.669Z</time></trkpt><trkpt lat="42.95732" lon="11.3971046"><ele>103.0</ele><time>2026-05-02T15:04:00.669Z</time></trkpt><trkpt lat="42.9573334" lon="11.3968695"><ele>104.0</ele><time>2026-05-02T15:04:01.664Z</time></trkpt><trkpt lat="42.9573508" lon="11.3966535"><ele>105.0</ele><time>2026-05-02T15:04:02.67Z</time></trkpt><trkpt lat="42.9573686" lon="11.3964453"><ele>106.0</ele><time>2026-05-02T15:04:03.653Z</time></trkpt><trkpt lat="42.9573868" lon="11.3962429"><ele>106.5</ele><time>2026-05-02T15:04:04.651Z</time></trkpt><trkpt lat="42.9574037" lon="11.39604"><ele>107.0</ele><time>2026-05-02T15:04:05.661Z</time></trkpt><trkpt lat="42.9574177" lon="11.3958403"><ele>107.5</ele><time>2026-05-02T15:04:06.655Z</time></trkpt><trkpt lat="42.9574341" lon="11.395641"><ele>108.0</ele><time>2026-05-02T15:04:07.65Z</time></trkpt><trkpt lat="42.9574548" lon="11.3954258"><ele>108.66666666666666</ele><time>2026-05-02T15:04:08.657Z</time></trkpt><trkpt lat="42.9574727" lon="11.3952074"><ele>109.33333333333333</ele><time>2026-05-02T15:04:09.654Z</time></trkpt><trkpt lat="42.9574882" lon="11.3949845"><ele>110.0</ele><time>2026-05-02T15:04:10.657Z</time></trkpt><trkpt lat="42.9575088" lon="11.3947504"><ele>109.66666666666666</ele><time>2026-05-02T15:04:11.649Z</time></trkpt><trkpt lat="42.9575285" lon="11.3945112"><ele>109.33333333333334</ele><time>2026-05-02T15:04:12.661Z</time></trkpt><trkpt lat="42.9575506" lon="11.3942678"><ele>109.0</ele><time>2026-05-02T15:04:13.667Z</time></trkpt><trkpt lat="42.9575715" lon="11.3940235"><ele>107.66666666666667</ele><time>2026-05-02T15:04:14.664Z</time></trkpt><trkpt lat="42.9575945" lon="11.3937799"><ele>106.33333333333334</ele><time>2026-05-02T15:04:15.657Z</time></trkpt><trkpt lat="42.9576137" lon="11.3935377"><ele>105.0</ele><time>2026-05-02T15:04:16.668Z</time></trkpt><trkpt lat="42.9576357" lon="11.3932896"><ele>105.0</ele><time>2026-05-02T15:04:17.659Z</time></trkpt><trkpt lat="42.9576553" lon="11.3930437"><ele>105.0</ele><time>2026-05-02T15:04:18.673Z</time></trkpt><trkpt lat="42.9576749" lon="11.3927955"><ele>105.0</ele><time>2026-05-02T15:04:19.666Z</time></trkpt><trkpt lat="42.9576952" lon="11.3925464"><ele>105.33333333333334</ele><time>2026-05-02T15:04:20.663Z</time></trkpt><trkpt lat="42.9577169" lon="11.3922948"><ele>105.66666666666667</ele><time>2026-05-02T15:04:21.657Z</time></trkpt><trkpt lat="42.9577394" lon="11.3920385"><ele>106.0</ele><time>2026-05-02T15:04:22.663Z</time></trkpt><trkpt lat="42.9577596" lon="11.3917841"><ele>106.33333333333334</ele><time>2026-05-02T15:04:23.678Z</time></trkpt><trkpt lat="42.9577796" lon="11.3915371"><ele>106.66666666666666</ele><time>2026-05-02T15:04:24.666Z</time></trkpt><trkpt lat="42.9577994" lon="11.3913061"><ele>107.0</ele><time>2026-05-02T15:04:25.652Z</time></trkpt><trkpt lat="42.9578184" lon="11.3910716"><ele>106.66666666666666</ele><time>2026-05-02T15:04:26.669Z</time></trkpt><trkpt lat="42.9578385" lon="11.3908397"><ele>106.33333333333334</ele><time>2026-05-02T15:04:27.67Z</time></trkpt><trkpt lat="42.9578587" lon="11.3906096"><ele>106.0</ele><time>2026-05-02T15:04:28.658Z</time></trkpt><trkpt lat="42.9578772" lon="11.3903804"><ele>106.0</ele><time>2026-05-02T15:04:29.662Z</time></trkpt><trkpt lat="42.9578984" lon="11.3901439"><ele>106.0</ele><time>2026-05-02T15:04:30.668Z</time></trkpt><trkpt lat="42.9579173" lon="11.3899049"><ele>106.0</ele><time>2026-05-02T15:04:31.659Z</time></trkpt><trkpt lat="42.9579272" lon="11.3896599"><ele>105.66666666666667</ele><time>2026-05-02T15:04:32.658Z</time></trkpt><trkpt lat="42.957922" lon="11.3894133"><ele>105.33333333333334</ele><time>2026-05-02T15:04:33.668Z</time></trkpt><trkpt lat="42.9579009" lon="11.3891655"><ele>105.0</ele><time>2026-05-02T15:04:34.667Z</time></trkpt><trkpt lat="42.9578718" lon="11.3889169"><ele>103.66666666666666</ele><time>2026-05-02T15:04:35.664Z</time></trkpt><trkpt lat="42.9578433" lon="11.3886745"><ele>102.33333333333333</ele><time>2026-05-02T15:04:36.665Z</time></trkpt><trkpt lat="42.9578189" lon="11.388447"><ele>101.0</ele><time>2026-05-02T15:04:37.664Z</time></trkpt><trkpt lat="42.9577952" lon="11.3882277"><ele>100.0</ele><time>2026-05-02T15:04:38.66Z</time></trkpt><trkpt lat="42.9577706" lon="11.3880017"><ele>99.0</ele><time>2026-05-02T15:04:39.667Z</time></trkpt><trkpt lat="42.957746" lon="11.3877774"><ele>98.0</ele><time>2026-05-02T15:04:40.65Z</time></trkpt><trkpt lat="42.9577193" lon="11.3875526"><ele>98.0</ele><time>2026-05-02T15:04:41.652Z</time></trkpt><trkpt lat="42.9576981" lon="11.3873273"><ele>98.0</ele><time>2026-05-02T15:04:42.649Z</time></trkpt><trkpt lat="42.9576743" lon="11.3871079"><ele>98.0</ele><time>2026-05-02T15:04:43.653Z</time></trkpt><trkpt lat="42.9576476" lon="11.3868932"><ele>98.66666666666666</ele><time>2026-05-02T15:04:44.654Z</time></trkpt><trkpt lat="42.9576236" lon="11.3866788"><ele>99.33333333333334</ele><time>2026-05-02T15:04:45.653Z</time></trkpt><trkpt lat="42.9576002" lon="11.3864707"><ele>100.0</ele><time>2026-05-02T15:04:46.655Z</time></trkpt><trkpt lat="42.9575798" lon="11.3862849"><ele>101.0</ele><time>2026-05-02T15:04:47.651Z</time></trkpt><trkpt lat="42.9575636" lon="11.3861148"><ele>102.0</ele><time>2026-05-02T15:04:48.654Z</time></trkpt><trkpt lat="42.957549" lon="11.385954"><ele>103.0</ele><time>2026-05-02T15:04:49.665Z</time></trkpt><trkpt lat="42.9575336" lon="11.3858031"><ele>104.0</ele><time>2026-05-02T15:04:50.649Z</time></trkpt><trkpt lat="42.9575176" lon="11.3856605"><ele>103.99999999999999</ele><time>2026-05-02T15:04:51.66Z</time></trkpt><trkpt lat="42.9575079" lon="11.385532"><ele>104.0</ele><time>2026-05-02T15:04:52.664Z</time></trkpt><trkpt lat="42.957513" lon="11.3854141"><ele>104.0</ele><time>2026-05-02T15:04:53.658Z</time></trkpt><trkpt lat="42.9575348" lon="11.3853028"><ele>104.0</ele><time>2026-05-02T15:04:54.656Z</time></trkpt><trkpt lat="42.9575629" lon="11.3851931"><ele>103.99999999999999</ele><time>2026-05-02T15:04:55.654Z</time></trkpt><trkpt lat="42.9575772" lon="11.3850701"><ele>104.0</ele><time>2026-05-02T15:04:56.664Z</time></trkpt><trkpt lat="42.9575592" lon="11.3849493"><ele>104.2</ele><time>2026-05-02T15:04:57.666Z</time></trkpt><trkpt lat="42.9575143" lon="11.3848441"><ele>104.4</ele><time>2026-05-02T15:04:58.653Z</time></trkpt><trkpt lat="42.9574582" lon="11.3847394"><ele>104.6</ele><time>2026-05-02T15:04:59.651Z</time></trkpt><trkpt lat="42.9574133" lon="11.3846144"><ele>104.8</ele><time>2026-05-02T15:05:00.656Z</time></trkpt><trkpt lat="42.9573804" lon="11.384474"><ele>105.0</ele><time>2026-05-02T15:05:01.655Z</time></trkpt><trkpt lat="42.9573593" lon="11.3843112"><ele>105.0</ele><time>2026-05-02T15:05:02.656Z</time></trkpt><trkpt lat="42.9573401" lon="11.3841419"><ele>105.0</ele><time>2026-05-02T15:05:03.657Z</time></trkpt><trkpt lat="42.9573201" lon="11.3839623"><ele>105.0</ele><time>2026-05-02T15:05:04.659Z</time></trkpt><trkpt lat="42.9572981" lon="11.3837746"><ele>105.0</ele><time>2026-05-02T15:05:05.656Z</time></trkpt><trkpt lat="42.9572733" lon="11.3835672"><ele>105.0</ele><time>2026-05-02T15:05:06.657Z</time></trkpt><trkpt lat="42.9572517" lon="11.3833499"><ele>105.0</ele><time>2026-05-02T15:05:07.662Z</time></trkpt><trkpt lat="42.9572251" lon="11.3831257"><ele>105.0</ele><time>2026-05-02T15:05:08.659Z</time></trkpt><trkpt lat="42.9572017" lon="11.3828895"><ele>104.66666666666666</ele><time>2026-05-02T15:05:09.66Z</time></trkpt><trkpt lat="42.9571813" lon="11.3826636"><ele>104.33333333333333</ele><time>2026-05-02T15:05:10.659Z</time></trkpt><trkpt lat="42.9571613" lon="11.3824483"><ele>104.0</ele><time>2026-05-02T15:05:11.662Z</time></trkpt><trkpt lat="42.9571402" lon="11.3822334"><ele>103.33333333333333</ele><time>2026-05-02T15:05:12.656Z</time></trkpt><trkpt lat="42.9571179" lon="11.3820151"><ele>102.66666666666666</ele><time>2026-05-02T15:05:13.658Z</time></trkpt><trkpt lat="42.957094" lon="11.3817921"><ele>102.0</ele><time>2026-05-02T15:05:14.658Z</time></trkpt><trkpt lat="42.9570706" lon="11.3815555"><ele>101.66666666666666</ele><time>2026-05-02T15:05:15.658Z</time></trkpt><trkpt lat="42.9570417" lon="11.3813193"><ele>101.33333333333333</ele><time>2026-05-02T15:05:16.658Z</time></trkpt><trkpt lat="42.9570173" lon="11.3810778"><ele>101.0</ele><time>2026-05-02T15:05:17.659Z</time></trkpt><trkpt lat="42.9569904" lon="11.3808322"><ele>101.0</ele><time>2026-05-02T15:05:18.681Z</time></trkpt><trkpt lat="42.9569667" lon="11.3805825"><ele>101.0</ele><time>2026-05-02T15:05:19.664Z</time></trkpt><trkpt lat="42.9569396" lon="11.3803301"><ele>101.0</ele><time>2026-05-02T15:05:20.664Z</time></trkpt><trkpt lat="42.9569118" lon="11.380079"><ele>101.0</ele><time>2026-05-02T15:05:21.662Z</time></trkpt><trkpt lat="42.956883" lon="11.3798293"><ele>101.0</ele><time>2026-05-02T15:05:22.666Z</time></trkpt><trkpt lat="42.9568536" lon="11.3795768"><ele>101.0</ele><time>2026-05-02T15:05:23.659Z</time></trkpt><trkpt lat="42.9568231" lon="11.3793256"><ele>101.0</ele><time>2026-05-02T15:05:24.659Z</time></trkpt><trkpt lat="42.9567954" lon="11.3790746"><ele>101.0</ele><time>2026-05-02T15:05:25.667Z</time></trkpt><trkpt lat="42.9567704" lon="11.3788242"><ele>101.0</ele><time>2026-05-02T15:05:26.66Z</time></trkpt><trkpt lat="42.9567441" lon="11.3785781"><ele>100.66666666666666</ele><time>2026-05-02T15:05:27.654Z</time></trkpt><trkpt lat="42.9567147" lon="11.378334"><ele>100.33333333333334</ele><time>2026-05-02T15:05:28.662Z</time></trkpt><trkpt lat="42.9566842" lon="11.3780917"><ele>100.0</ele><time>2026-05-02T15:05:29.672Z</time></trkpt><trkpt lat="42.9566577" lon="11.3778518"><ele>99.66666666666667</ele><time>2026-05-02T15:05:30.657Z</time></trkpt><trkpt lat="42.9566338" lon="11.3776134"><ele>99.33333333333334</ele><time>2026-05-02T15:05:31.66Z</time></trkpt><trkpt lat="42.9566096" lon="11.3773798"><ele>99.0</ele><time>2026-05-02T15:05:32.661Z</time></trkpt><trkpt lat="42.9565857" lon="11.3771462"><ele>99.0</ele><time>2026-05-02T15:05:33.656Z</time></trkpt><trkpt lat="42.9565584" lon="11.3769121"><ele>99.0</ele><time>2026-05-02T15:05:34.664Z</time></trkpt><trkpt lat="42.9565343" lon="11.3766786"><ele>99.0</ele><time>2026-05-02T15:05:35.655Z</time></trkpt><trkpt lat="42.9565096" lon="11.3764431"><ele>100.33333333333334</ele><time>2026-05-02T15:05:36.655Z</time></trkpt><trkpt lat="42.9564896" lon="11.3762068"><ele>101.66666666666667</ele><time>2026-05-02T15:05:37.665Z</time></trkpt><trkpt lat="42.9564654" lon="11.3759727"><ele>103.0</ele><time>2026-05-02T15:05:38.668Z</time></trkpt><trkpt lat="42.9564404" lon="11.3757342"><ele>103.0</ele><time>2026-05-02T15:05:39.655Z</time></trkpt><trkpt lat="42.9564138" lon="11.3754967"><ele>103.0</ele><time>2026-05-02T15:05:40.66Z</time></trkpt><trkpt lat="42.956388" lon="11.3752565"><ele>103.0</ele><time>2026-05-02T15:05:41.657Z</time></trkpt><trkpt lat="42.9563652" lon="11.3750183"><ele>103.0</ele><time>2026-05-02T15:05:42.651Z</time></trkpt><trkpt lat="42.9563459" lon="11.374784"><ele>103.0</ele><time>2026-05-02T15:05:43.651Z</time></trkpt><trkpt lat="42.9563282" lon="11.3745511"><ele>103.0</ele><time>2026-05-02T15:05:44.654Z</time></trkpt><trkpt lat="42.956318" lon="11.3743159"><ele>102.0</ele><time>2026-05-02T15:05:45.662Z</time></trkpt><trkpt lat="42.9563126" lon="11.3740817"><ele>101.0</ele><time>2026-05-02T15:05:46.658Z</time></trkpt><trkpt lat="42.9563081" lon="11.3738388"><ele>100.0</ele><time>2026-05-02T15:05:47.649Z</time></trkpt><trkpt lat="42.9563017" lon="11.3735972"><ele>99.66666666666667</ele><time>2026-05-02T15:05:48.665Z</time></trkpt><trkpt lat="42.956296" lon="11.3733509"><ele>99.33333333333334</ele><time>2026-05-02T15:05:49.661Z</time></trkpt><trkpt lat="42.9562932" lon="11.3731003"><ele>99.0</ele><time>2026-05-02T15:05:50.661Z</time></trkpt><trkpt lat="42.9562895" lon="11.3728547"><ele>99.0</ele><time>2026-05-02T15:05:51.655Z</time></trkpt><trkpt lat="42.9562847" lon="11.3726132"><ele>99.0</ele><time>2026-05-02T15:05:52.656Z</time></trkpt><trkpt lat="42.9562838" lon="11.372371"><ele>99.0</ele><time>2026-05-02T15:05:53.651Z</time></trkpt><trkpt lat="42.9562794" lon="11.3721358"><ele>98.66666666666666</ele><time>2026-05-02T15:05:54.663Z</time></trkpt><trkpt lat="42.9562755" lon="11.3719026"><ele>98.33333333333333</ele><time>2026-05-02T15:05:55.655Z</time></trkpt><trkpt lat="42.9562729" lon="11.3716648"><ele>98.0</ele><time>2026-05-02T15:05:56.657Z</time></trkpt><trkpt lat="42.9562678" lon="11.3714293"><ele>98.0</ele><time>2026-05-02T15:05:57.662Z</time></trkpt><trkpt lat="42.9562611" lon="11.3711887"><ele>98.0</ele><time>2026-05-02T15:05:58.657Z</time></trkpt><trkpt lat="42.9562525" lon="11.3709509"><ele>98.0</ele><time>2026-05-02T15:05:59.651Z</time></trkpt><trkpt lat="42.9562481" lon="11.3707024"><ele>97.66666666666666</ele><time>2026-05-02T15:06:00.662Z</time></trkpt><trkpt lat="42.9562449" lon="11.3704537"><ele>97.33333333333334</ele><time>2026-05-02T15:06:01.662Z</time></trkpt><trkpt lat="42.9562391" lon="11.3702108"><ele>97.0</ele><time>2026-05-02T15:06:02.664Z</time></trkpt><trkpt lat="42.9562321" lon="11.3699672"><ele>97.0</ele><time>2026-05-02T15:06:03.663Z</time></trkpt><trkpt lat="42.9562276" lon="11.3697216"><ele>97.0</ele><time>2026-05-02T15:06:04.652Z</time></trkpt><trkpt lat="42.9562256" lon="11.3694754"><ele>97.0</ele><time>2026-05-02T15:06:05.658Z</time></trkpt><trkpt lat="42.9562213" lon="11.3692312"><ele>97.33333333333334</ele><time>2026-05-02T15:06:06.664Z</time></trkpt><trkpt lat="42.9562167" lon="11.3689839"><ele>97.66666666666666</ele><time>2026-05-02T15:06:07.652Z</time></trkpt><trkpt lat="42.9562132" lon="11.3687348"><ele>98.0</ele><time>2026-05-02T15:06:08.661Z</time></trkpt><trkpt lat="42.9562076" lon="11.3684895"><ele>98.0</ele><time>2026-05-02T15:06:09.652Z</time></trkpt><trkpt lat="42.9562014" lon="11.3682429"><ele>98.0</ele><time>2026-05-02T15:06:10.652Z</time></trkpt><trkpt lat="42.9561927" lon="11.367999"><ele>98.0</ele><time>2026-05-02T15:06:11.658Z</time></trkpt><trkpt lat="42.9561882" lon="11.3677503"><ele>97.33333333333333</ele><time>2026-05-02T15:06:12.666Z</time></trkpt><trkpt lat="42.9561812" lon="11.3675036"><ele>96.66666666666666</ele><time>2026-05-02T15:06:13.662Z</time></trkpt><trkpt lat="42.956174" lon="11.3672549"><ele>96.0</ele><time>2026-05-02T15:06:14.662Z</time></trkpt><trkpt lat="42.9561687" lon="11.3670025"><ele>95.66666666666667</ele><time>2026-05-02T15:06:15.652Z</time></trkpt><trkpt lat="42.9561627" lon="11.3667561"><ele>95.33333333333334</ele><time>2026-05-02T15:06:16.667Z</time></trkpt><trkpt lat="42.9561563" lon="11.3665108"><ele>95.0</ele><time>2026-05-02T15:06:17.652Z</time></trkpt><trkpt lat="42.9561489" lon="11.366264"><ele>94.66666666666667</ele><time>2026-05-02T15:06:18.658Z</time></trkpt><trkpt lat="42.9561427" lon="11.3660205"><ele>94.33333333333333</ele><time>2026-05-02T15:06:19.658Z</time></trkpt><trkpt lat="42.9561377" lon="11.365776"><ele>94.0</ele><time>2026-05-02T15:06:20.645Z</time></trkpt><trkpt lat="42.9561336" lon="11.3655296"><ele>93.66666666666666</ele><time>2026-05-02T15:06:21.661Z</time></trkpt><trkpt lat="42.956129" lon="11.3652839"><ele>93.33333333333333</ele><time>2026-05-02T15:06:22.655Z</time></trkpt><trkpt lat="42.9561234" lon="11.3650384"><ele>93.0</ele><time>2026-05-02T15:06:23.652Z</time></trkpt><trkpt lat="42.9561172" lon="11.3647918"><ele>93.33333333333333</ele><time>2026-05-02T15:06:24.664Z</time></trkpt><trkpt lat="42.9561104" lon="11.3645419"><ele>93.66666666666666</ele><time>2026-05-02T15:06:25.661Z</time></trkpt><trkpt lat="42.9561039" lon="11.3642867"><ele>94.0</ele><time>2026-05-02T15:06:26.653Z</time></trkpt><trkpt lat="42.9560985" lon="11.3640344"><ele>94.0</ele><time>2026-05-02T15:06:27.653Z</time></trkpt><trkpt lat="42.9560913" lon="11.3637812"><ele>94.0</ele><time>2026-05-02T15:06:28.647Z</time></trkpt><trkpt lat="42.9560878" lon="11.3635257"><ele>94.0</ele><time>2026-05-02T15:06:29.668Z</time></trkpt><trkpt lat="42.9560828" lon="11.3632678"><ele>93.33333333333333</ele><time>2026-05-02T15:06:30.657Z</time></trkpt><trkpt lat="42.9560752" lon="11.3630094"><ele>92.66666666666667</ele><time>2026-05-02T15:06:31.653Z</time></trkpt><trkpt lat="42.9560694" lon="11.3627508"><ele>92.0</ele><time>2026-05-02T15:06:32.663Z</time></trkpt><trkpt lat="42.956062" lon="11.3624967"><ele>92.0</ele><time>2026-05-02T15:06:33.66Z</time></trkpt><trkpt lat="42.9560548" lon="11.3622439"><ele>92.0</ele><time>2026-05-02T15:06:34.659Z</time></trkpt><trkpt lat="42.9560495" lon="11.3619902"><ele>92.0</ele><time>2026-05-02T15:06:35.654Z</time></trkpt><trkpt lat="42.9560444" lon="11.3617341"><ele>92.0</ele><time>2026-05-02T15:06:36.662Z</time></trkpt><trkpt lat="42.9560382" lon="11.3614859"><ele>92.0</ele><time>2026-05-02T15:06:37.646Z</time></trkpt><trkpt lat="42.9560312" lon="11.3612371"><ele>92.0</ele><time>2026-05-02T15:06:38.659Z</time></trkpt><trkpt lat="42.9560268" lon="11.3609883"><ele>92.0</ele><time>2026-05-02T15:06:39.65Z</time></trkpt><trkpt lat="42.9560233" lon="11.3607376"><ele>92.0</ele><time>2026-05-02T15:06:40.672Z</time></trkpt><trkpt lat="42.9560133" lon="11.3604967"><ele>92.0</ele><time>2026-05-02T15:06:41.656Z</time></trkpt><trkpt lat="42.9560091" lon="11.3602681"><ele>91.66666666666667</ele><time>2026-05-02T15:06:42.658Z</time></trkpt><trkpt lat="42.9560048" lon="11.36005"><ele>91.33333333333333</ele><time>2026-05-02T15:06:43.658Z</time></trkpt><trkpt lat="42.9560035" lon="11.3598445"><ele>91.0</ele><time>2026-05-02T15:06:44.65Z</time></trkpt><trkpt lat="42.9560033" lon="11.3596485"><ele>91.0</ele><time>2026-05-02T15:06:45.647Z</time></trkpt><trkpt lat="42.9560019" lon="11.3594523"><ele>91.0</ele><time>2026-05-02T15:06:46.662Z</time></trkpt><trkpt lat="42.9559886" lon="11.3592636"><ele>91.0</ele><time>2026-05-02T15:06:47.65Z</time></trkpt><trkpt lat="42.9559586" lon="11.359067"><ele>91.0</ele><time>2026-05-02T15:06:48.659Z</time></trkpt><trkpt lat="42.9559104" lon="11.3588563"><ele>89.66666666666666</ele><time>2026-05-02T15:06:49.655Z</time></trkpt><trkpt lat="42.9558458" lon="11.3586409"><ele>88.33333333333333</ele><time>2026-05-02T15:06:50.661Z</time></trkpt><trkpt lat="42.9557716" lon="11.3584229"><ele>87.0</ele><time>2026-05-02T15:06:51.663Z</time></trkpt><trkpt lat="42.9556895" lon="11.3582022"><ele>87.0</ele><time>2026-05-02T15:06:52.663Z</time></trkpt><trkpt lat="42.955605" lon="11.3579728"><ele>87.0</ele><time>2026-05-02T15:06:53.664Z</time></trkpt><trkpt lat="42.9555227" lon="11.3577342"><ele>87.0</ele><time>2026-05-02T15:06:54.663Z</time></trkpt><trkpt lat="42.955438" lon="11.3574925"><ele>87.0</ele><time>2026-05-02T15:06:55.66Z</time></trkpt><trkpt lat="42.9553511" lon="11.3572452"><ele>87.0</ele><time>2026-05-02T15:06:56.666Z</time></trkpt><trkpt lat="42.9552621" lon="11.3569924"><ele>87.0</ele><time>2026-05-02T15:06:57.672Z</time></trkpt><trkpt lat="42.9551729" lon="11.3567367"><ele>87.33333333333333</ele><time>2026-05-02T15:06:58.657Z</time></trkpt><trkpt lat="42.955084" lon="11.356475"><ele>87.66666666666666</ele><time>2026-05-02T15:06:59.662Z</time></trkpt><trkpt lat="42.9549926" lon="11.3562163"><ele>88.0</ele><time>2026-05-02T15:07:00.665Z</time></trkpt><trkpt lat="42.9549012" lon="11.3559583"><ele>85.33333333333333</ele><time>2026-05-02T15:07:01.658Z</time></trkpt><trkpt lat="42.9548114" lon="11.3557026"><ele>82.66666666666667</ele><time>2026-05-02T15:07:02.66Z</time></trkpt><trkpt lat="42.954725" lon="11.3554482"><ele>80.0</ele><time>2026-05-02T15:07:03.656Z</time></trkpt><trkpt lat="42.9546359" lon="11.3551936"><ele>80.0</ele><time>2026-05-02T15:07:04.663Z</time></trkpt><trkpt lat="42.9545465" lon="11.3549517"><ele>80.0</ele><time>2026-05-02T15:07:05.659Z</time></trkpt><trkpt lat="42.9544612" lon="11.3547237"><ele>80.0</ele><time>2026-05-02T15:07:06.653Z</time></trkpt><trkpt lat="42.9543812" lon="11.3545055"><ele>81.0</ele><time>2026-05-02T15:07:07.664Z</time></trkpt><trkpt lat="42.9543058" lon="11.3543016"><ele>82.0</ele><time>2026-05-02T15:07:08.646Z</time></trkpt><trkpt lat="42.9542322" lon="11.3541078"><ele>83.0</ele><time>2026-05-02T15:07:09.662Z</time></trkpt><trkpt lat="42.9541634" lon="11.3539177"><ele>80.33333333333334</ele><time>2026-05-02T15:07:10.655Z</time></trkpt><trkpt lat="42.9541026" lon="11.3537216"><ele>77.66666666666667</ele><time>2026-05-02T15:07:11.665Z</time></trkpt><trkpt lat="42.954053" lon="11.3535136"><ele>75.0</ele><time>2026-05-02T15:07:12.659Z</time></trkpt><trkpt lat="42.9540125" lon="11.3532944"><ele>75.0</ele><time>2026-05-02T15:07:13.658Z</time></trkpt><trkpt lat="42.9539806" lon="11.3530661"><ele>75.0</ele><time>2026-05-02T15:07:14.652Z</time></trkpt><trkpt lat="42.953957" lon="11.3528267"><ele>75.0</ele><time>2026-05-02T15:07:15.661Z</time></trkpt><trkpt lat="42.9539362" lon="11.3525819"><ele>73.66666666666667</ele><time>2026-05-02T15:07:16.658Z</time></trkpt><trkpt lat="42.9539184" lon="11.3523326"><ele>72.33333333333334</ele><time>2026-05-02T15:07:17.664Z</time></trkpt><trkpt lat="42.9539018" lon="11.3520791"><ele>71.0</ele><time>2026-05-02T15:07:18.658Z</time></trkpt><trkpt lat="42.9538849" lon="11.3518214"><ele>70.0</ele><time>2026-05-02T15:07:19.657Z</time></trkpt><trkpt lat="42.9538697" lon="11.3515685"><ele>69.0</ele><time>2026-05-02T15:07:20.646Z</time></trkpt><trkpt lat="42.9538532" lon="11.3513193"><ele>68.0</ele><time>2026-05-02T15:07:21.672Z</time></trkpt><trkpt lat="42.9538372" lon="11.3510733"><ele>67.33333333333334</ele><time>2026-05-02T15:07:22.654Z</time></trkpt><trkpt lat="42.9538242" lon="11.3508369"><ele>66.66666666666667</ele><time>2026-05-02T15:07:23.664Z</time></trkpt><trkpt lat="42.953808" lon="11.3506196"><ele>66.0</ele><time>2026-05-02T15:07:24.652Z</time></trkpt><trkpt lat="42.9537961" lon="11.3504077"><ele>65.33333333333333</ele><time>2026-05-02T15:07:25.652Z</time></trkpt><trkpt lat="42.9537801" lon="11.3501955"><ele>64.66666666666666</ele><time>2026-05-02T15:07:26.66Z</time></trkpt><trkpt lat="42.9537659" lon="11.3499807"><ele>64.0</ele><time>2026-05-02T15:07:27.662Z</time></trkpt><trkpt lat="42.953753" lon="11.3497647"><ele>64.33333333333333</ele><time>2026-05-02T15:07:28.658Z</time></trkpt><trkpt lat="42.953743" lon="11.3495494"><ele>64.66666666666667</ele><time>2026-05-02T15:07:29.661Z</time></trkpt><trkpt lat="42.9537288" lon="11.3493296"><ele>65.0</ele><time>2026-05-02T15:07:30.657Z</time></trkpt><trkpt lat="42.9537129" lon="11.3491121"><ele>65.0</ele><time>2026-05-02T15:07:31.663Z</time></trkpt><trkpt lat="42.9536978" lon="11.3488916"><ele>65.0</ele><time>2026-05-02T15:07:32.667Z</time></trkpt><trkpt lat="42.9536829" lon="11.3486677"><ele>65.0</ele><time>2026-05-02T15:07:33.648Z</time></trkpt><trkpt lat="42.9536673" lon="11.3484393"><ele>65.66666666666667</ele><time>2026-05-02T15:07:34.661Z</time></trkpt><trkpt lat="42.9536531" lon="11.3482102"><ele>66.33333333333333</ele><time>2026-05-02T15:07:35.659Z</time></trkpt><trkpt lat="42.9536385" lon="11.3479699"><ele>67.0</ele><time>2026-05-02T15:07:36.661Z</time></trkpt><trkpt lat="42.9536247" lon="11.3477282"><ele>67.33333333333333</ele><time>2026-05-02T15:07:37.657Z</time></trkpt><trkpt lat="42.9536089" lon="11.3474953"><ele>67.66666666666667</ele><time>2026-05-02T15:07:38.675Z</time></trkpt><trkpt lat="42.953595" lon="11.3472681"><ele>68.0</ele><time>2026-05-02T15:07:39.653Z</time></trkpt><trkpt lat="42.9535796" lon="11.3470387"><ele>67.33333333333334</ele><time>2026-05-02T15:07:40.666Z</time></trkpt><trkpt lat="42.9535623" lon="11.3468043"><ele>66.66666666666667</ele><time>2026-05-02T15:07:41.657Z</time></trkpt><trkpt lat="42.9535464" lon="11.3465652"><ele>66.0</ele><time>2026-05-02T15:07:42.662Z</time></trkpt><trkpt lat="42.9535311" lon="11.3463291"><ele>66.0</ele><time>2026-05-02T15:07:43.663Z</time></trkpt><trkpt lat="42.9535162" lon="11.3460918"><ele>66.0</ele><time>2026-05-02T15:07:44.672Z</time></trkpt><trkpt lat="42.9535035" lon="11.3458509"><ele>66.0</ele><time>2026-05-02T15:07:45.65Z</time></trkpt><trkpt lat="42.9534908" lon="11.3456126"><ele>66.66666666666667</ele><time>2026-05-02T15:07:46.672Z</time></trkpt><trkpt lat="42.9534761" lon="11.3453733"><ele>67.33333333333334</ele><time>2026-05-02T15:07:47.663Z</time></trkpt><trkpt lat="42.9534591" lon="11.3451307"><ele>68.0</ele><time>2026-05-02T15:07:48.665Z</time></trkpt><trkpt lat="42.9534443" lon="11.344894"><ele>67.33333333333334</ele><time>2026-05-02T15:07:49.656Z</time></trkpt><trkpt lat="42.953429" lon="11.3446589"><ele>66.66666666666667</ele><time>2026-05-02T15:07:50.668Z</time></trkpt><trkpt lat="42.9534139" lon="11.3444249"><ele>66.0</ele><time>2026-05-02T15:07:51.669Z</time></trkpt><trkpt lat="42.953399" lon="11.3441907"><ele>66.0</ele><time>2026-05-02T15:07:52.666Z</time></trkpt><trkpt lat="42.9533823" lon="11.3439548"><ele>66.0</ele><time>2026-05-02T15:07:53.656Z</time></trkpt><trkpt lat="42.9533667" lon="11.3437211"><ele>66.0</ele><time>2026-05-02T15:07:54.658Z</time></trkpt><trkpt lat="42.9533503" lon="11.3434931"><ele>66.0</ele><time>2026-05-02T15:07:55.665Z</time></trkpt><trkpt lat="42.9533348" lon="11.3432619"><ele>66.0</ele><time>2026-05-02T15:07:56.659Z</time></trkpt><trkpt lat="42.9533182" lon="11.3430275"><ele>66.0</ele><time>2026-05-02T15:07:57.664Z</time></trkpt><trkpt lat="42.9533037" lon="11.3427886"><ele>66.0</ele><time>2026-05-02T15:07:58.664Z</time></trkpt><trkpt lat="42.9532878" lon="11.3425518"><ele>66.0</ele><time>2026-05-02T15:07:59.646Z</time></trkpt><trkpt lat="42.9532723" lon="11.3423158"><ele>66.0</ele><time>2026-05-02T15:08:00.66Z</time></trkpt><trkpt lat="42.9532561" lon="11.3420836"><ele>66.0</ele><time>2026-05-02T15:08:01.655Z</time></trkpt><trkpt lat="42.9532422" lon="11.3418518"><ele>66.0</ele><time>2026-05-02T15:08:02.664Z</time></trkpt><trkpt lat="42.9532301" lon="11.3416194"><ele>66.0</ele><time>2026-05-02T15:08:03.656Z</time></trkpt><trkpt lat="42.9532151" lon="11.3413868"><ele>66.33333333333333</ele><time>2026-05-02T15:08:04.674Z</time></trkpt><trkpt lat="42.9531977" lon="11.3411525"><ele>66.66666666666666</ele><time>2026-05-02T15:08:05.66Z</time></trkpt><trkpt lat="42.9531812" lon="11.3409173"><ele>67.0</ele><time>2026-05-02T15:08:06.651Z</time></trkpt><trkpt lat="42.9531673" lon="11.3406817"><ele>66.33333333333333</ele><time>2026-05-02T15:08:07.663Z</time></trkpt><trkpt lat="42.9531542" lon="11.3404426"><ele>65.66666666666667</ele><time>2026-05-02T15:08:08.669Z</time></trkpt><trkpt lat="42.9531405" lon="11.340208"><ele>65.0</ele><time>2026-05-02T15:08:09.661Z</time></trkpt><trkpt lat="42.9531264" lon="11.3399703"><ele>65.0</ele><time>2026-05-02T15:08:10.666Z</time></trkpt><trkpt lat="42.953111" lon="11.3397334"><ele>65.0</ele><time>2026-05-02T15:08:11.664Z</time></trkpt><trkpt lat="42.9530963" lon="11.3394917"><ele>65.0</ele><time>2026-05-02T15:08:12.668Z</time></trkpt><trkpt lat="42.9530801" lon="11.3392442"><ele>65.0</ele><time>2026-05-02T15:08:13.659Z</time></trkpt><trkpt lat="42.9530662" lon="11.3389949"><ele>65.0</ele><time>2026-05-02T15:08:14.666Z</time></trkpt><trkpt lat="42.9530512" lon="11.3387569"><ele>65.0</ele><time>2026-05-02T15:08:15.658Z</time></trkpt><trkpt lat="42.9530365" lon="11.3385335"><ele>65.33333333333334</ele><time>2026-05-02T15:08:16.655Z</time></trkpt><trkpt lat="42.9530216" lon="11.3383148"><ele>65.66666666666667</ele><time>2026-05-02T15:08:17.674Z</time></trkpt><trkpt lat="42.9530077" lon="11.3380873"><ele>66.0</ele><time>2026-05-02T15:08:18.671Z</time></trkpt><trkpt lat="42.952991" lon="11.3378555"><ele>66.0</ele><time>2026-05-02T15:08:19.656Z</time></trkpt><trkpt lat="42.9529761" lon="11.3376136"><ele>66.0</ele><time>2026-05-02T15:08:20.663Z</time></trkpt><trkpt lat="42.9529607" lon="11.3373641"><ele>66.0</ele><time>2026-05-02T15:08:21.655Z</time></trkpt><trkpt lat="42.9529458" lon="11.3371049"><ele>65.66666666666667</ele><time>2026-05-02T15:08:22.665Z</time></trkpt><trkpt lat="42.9529292" lon="11.3368384"><ele>65.33333333333334</ele><time>2026-05-02T15:08:23.664Z</time></trkpt><trkpt lat="42.9529076" lon="11.3365717"><ele>65.0</ele><time>2026-05-02T15:08:24.663Z</time></trkpt><trkpt lat="42.9528859" lon="11.3363022"><ele>65.0</ele><time>2026-05-02T15:08:25.669Z</time></trkpt><trkpt lat="42.952871" lon="11.3360313"><ele>65.0</ele><time>2026-05-02T15:08:26.66Z</time></trkpt><trkpt lat="42.9528545" lon="11.3357712"><ele>65.0</ele><time>2026-05-02T15:08:27.645Z</time></trkpt><trkpt lat="42.9528364" lon="11.3355105"><ele>65.0</ele><time>2026-05-02T15:08:28.662Z</time></trkpt><trkpt lat="42.9528189" lon="11.3352492"><ele>65.0</ele><time>2026-05-02T15:08:29.658Z</time></trkpt><trkpt lat="42.9528025" lon="11.334991"><ele>65.0</ele><time>2026-05-02T15:08:30.664Z</time></trkpt><trkpt lat="42.9527857" lon="11.3347321"><ele>65.33333333333334</ele><time>2026-05-02T15:08:31.668Z</time></trkpt><trkpt lat="42.9527693" lon="11.3344712"><ele>65.66666666666667</ele><time>2026-05-02T15:08:32.662Z</time></trkpt><trkpt lat="42.9527523" lon="11.3342143"><ele>66.0</ele><time>2026-05-02T15:08:33.659Z</time></trkpt><trkpt lat="42.9527351" lon="11.333956"><ele>66.0</ele><time>2026-05-02T15:08:34.663Z</time></trkpt><trkpt lat="42.9527197" lon="11.3336982"><ele>66.0</ele><time>2026-05-02T15:08:35.654Z</time></trkpt><trkpt lat="42.9527037" lon="11.3334412"><ele>66.0</ele><time>2026-05-02T15:08:36.667Z</time></trkpt><trkpt lat="42.9526854" lon="11.333188"><ele>66.0</ele><time>2026-05-02T15:08:37.668Z</time></trkpt><trkpt lat="42.9526663" lon="11.3329312"><ele>66.0</ele><time>2026-05-02T15:08:38.658Z</time></trkpt><trkpt lat="42.9526499" lon="11.3326719"><ele>66.0</ele><time>2026-05-02T15:08:39.655Z</time></trkpt><trkpt lat="42.9526337" lon="11.3324104"><ele>66.33333333333333</ele><time>2026-05-02T15:08:40.66Z</time></trkpt><trkpt lat="42.9526168" lon="11.3321484"><ele>66.66666666666666</ele><time>2026-05-02T15:08:41.661Z</time></trkpt><trkpt lat="42.9525997" lon="11.3318877"><ele>67.0</ele><time>2026-05-02T15:08:42.663Z</time></trkpt><trkpt lat="42.9525838" lon="11.3316295"><ele>68.0</ele><time>2026-05-02T15:08:43.652Z</time></trkpt><trkpt lat="42.9525692" lon="11.331375"><ele>69.0</ele><time>2026-05-02T15:08:44.666Z</time></trkpt><trkpt lat="42.9525535" lon="11.3311274"><ele>70.0</ele><time>2026-05-02T15:08:45.668Z</time></trkpt><trkpt lat="42.9525375" lon="11.3308843"><ele>70.0</ele><time>2026-05-02T15:08:46.671Z</time></trkpt><trkpt lat="42.952519" lon="11.3306445"><ele>70.0</ele><time>2026-05-02T15:08:47.659Z</time></trkpt><trkpt lat="42.9525043" lon="11.3304063"><ele>70.0</ele><time>2026-05-02T15:08:48.66Z</time></trkpt><trkpt lat="42.9524903" lon="11.3301696"><ele>70.33333333333333</ele><time>2026-05-02T15:08:49.644Z</time></trkpt><trkpt lat="42.9524748" lon="11.329932"><ele>70.66666666666667</ele><time>2026-05-02T15:08:50.661Z</time></trkpt><trkpt lat="42.9524592" lon="11.329691"><ele>71.0</ele><time>2026-05-02T15:08:51.666Z</time></trkpt><trkpt lat="42.9524478" lon="11.3294469"><ele>71.66666666666667</ele><time>2026-05-02T15:08:52.665Z</time></trkpt><trkpt lat="42.9524345" lon="11.3292063"><ele>72.33333333333333</ele><time>2026-05-02T15:08:53.667Z</time></trkpt><trkpt lat="42.9524204" lon="11.3289586"><ele>73.0</ele><time>2026-05-02T15:08:54.66Z</time></trkpt><trkpt lat="42.9524051" lon="11.3287026"><ele>73.66666666666666</ele><time>2026-05-02T15:08:55.654Z</time></trkpt><trkpt lat="42.9523858" lon="11.3284468"><ele>74.33333333333333</ele><time>2026-05-02T15:08:56.666Z</time></trkpt><trkpt lat="42.9523671" lon="11.3281833"><ele>75.0</ele><time>2026-05-02T15:08:57.659Z</time></trkpt><trkpt lat="42.952352" lon="11.3279125"><ele>75.66666666666667</ele><time>2026-05-02T15:08:58.664Z</time></trkpt><trkpt lat="42.9523399" lon="11.3276415"><ele>76.33333333333334</ele><time>2026-05-02T15:08:59.662Z</time></trkpt><trkpt lat="42.9523246" lon="11.3273734"><ele>77.0</ele><time>2026-05-02T15:09:00.661Z</time></trkpt><trkpt lat="42.9523025" lon="11.3271106"><ele>77.66666666666667</ele><time>2026-05-02T15:09:01.663Z</time></trkpt><trkpt lat="42.9522783" lon="11.3268495"><ele>78.33333333333333</ele><time>2026-05-02T15:09:02.647Z</time></trkpt><trkpt lat="42.952247" lon="11.3265982"><ele>79.0</ele><time>2026-05-02T15:09:03.658Z</time></trkpt><trkpt lat="42.9522069" lon="11.3263459"><ele>79.0</ele><time>2026-05-02T15:09:04.667Z</time></trkpt><trkpt lat="42.952155" lon="11.326101"><ele>79.0</ele><time>2026-05-02T15:09:05.668Z</time></trkpt><trkpt lat="42.9520899" lon="11.3258607"><ele>79.0</ele><time>2026-05-02T15:09:06.661Z</time></trkpt><trkpt lat="42.9520154" lon="11.3256235"><ele>79.0</ele><time>2026-05-02T15:09:07.657Z</time></trkpt><trkpt lat="42.9519375" lon="11.3253884"><ele>79.0</ele><time>2026-05-02T15:09:08.663Z</time></trkpt><trkpt lat="42.9518583" lon="11.3251612"><ele>79.0</ele><time>2026-05-02T15:09:09.656Z</time></trkpt><trkpt lat="42.9517811" lon="11.324932"><ele>79.0</ele><time>2026-05-02T15:09:10.668Z</time></trkpt><trkpt lat="42.9517083" lon="11.3247126"><ele>79.0</ele><time>2026-05-02T15:09:11.664Z</time></trkpt><trkpt lat="42.951637" lon="11.3244964"><ele>79.0</ele><time>2026-05-02T15:09:12.658Z</time></trkpt><trkpt lat="42.9515651" lon="11.324284"><ele>79.0</ele><time>2026-05-02T15:09:13.656Z</time></trkpt><trkpt lat="42.951497" lon="11.3240639"><ele>79.0</ele><time>2026-05-02T15:09:14.658Z</time></trkpt><trkpt lat="42.9514225" lon="11.3238444"><ele>79.0</ele><time>2026-05-02T15:09:15.661Z</time></trkpt><trkpt lat="42.951348" lon="11.3236276"><ele>79.66666666666666</ele><time>2026-05-02T15:09:16.657Z</time></trkpt><trkpt lat="42.9512734" lon="11.3234137"><ele>80.33333333333333</ele><time>2026-05-02T15:09:17.666Z</time></trkpt><trkpt lat="42.9511989" lon="11.323195"><ele>81.0</ele><time>2026-05-02T15:09:18.652Z</time></trkpt><trkpt lat="42.9511238" lon="11.3229686"><ele>81.33333333333333</ele><time>2026-05-02T15:09:19.654Z</time></trkpt><trkpt lat="42.9510475" lon="11.3227378"><ele>81.66666666666666</ele><time>2026-05-02T15:09:20.659Z</time></trkpt><trkpt lat="42.9509685" lon="11.322499"><ele>82.0</ele><time>2026-05-02T15:09:21.665Z</time></trkpt><trkpt lat="42.9508881" lon="11.322263"><ele>81.66666666666666</ele><time>2026-05-02T15:09:22.67Z</time></trkpt><trkpt lat="42.9508079" lon="11.3220332"><ele>81.33333333333333</ele><time>2026-05-02T15:09:23.659Z</time></trkpt><trkpt lat="42.9507303" lon="11.3218092"><ele>81.0</ele><time>2026-05-02T15:09:24.666Z</time></trkpt><trkpt lat="42.9506543" lon="11.3215835"><ele>81.0</ele><time>2026-05-02T15:09:25.659Z</time></trkpt><trkpt lat="42.9505795" lon="11.3213608"><ele>81.0</ele><time>2026-05-02T15:09:26.66Z</time></trkpt><trkpt lat="42.950508" lon="11.3211333"><ele>81.0</ele><time>2026-05-02T15:09:27.646Z</time></trkpt><trkpt lat="42.9504384" lon="11.3209114"><ele>81.0</ele><time>2026-05-02T15:09:28.647Z</time></trkpt><trkpt lat="42.9503647" lon="11.3206936"><ele>81.0</ele><time>2026-05-02T15:09:29.651Z</time></trkpt><trkpt lat="42.9502887" lon="11.3204698"><ele>81.0</ele><time>2026-05-02T15:09:30.654Z</time></trkpt><trkpt lat="42.9502128" lon="11.3202416"><ele>81.66666666666667</ele><time>2026-05-02T15:09:31.659Z</time></trkpt><trkpt lat="42.9501413" lon="11.3200104"><ele>82.33333333333334</ele><time>2026-05-02T15:09:32.649Z</time></trkpt><trkpt lat="42.9500691" lon="11.3197879"><ele>83.0</ele><time>2026-05-02T15:09:33.655Z</time></trkpt><trkpt lat="42.9500014" lon="11.3195839"><ele>83.0</ele><time>2026-05-02T15:09:34.666Z</time></trkpt><trkpt lat="42.949937" lon="11.3193903"><ele>83.0</ele><time>2026-05-02T15:09:35.65Z</time></trkpt><trkpt lat="42.9498749" lon="11.3192139"><ele>83.0</ele><time>2026-05-02T15:09:36.675Z</time></trkpt><trkpt lat="42.9498173" lon="11.319046"><ele>83.0</ele><time>2026-05-02T15:09:37.654Z</time></trkpt><trkpt lat="42.9497619" lon="11.3188922"><ele>83.75</ele><time>2026-05-02T15:09:38.649Z</time></trkpt><trkpt lat="42.9497071" lon="11.3187379"><ele>84.5</ele><time>2026-05-02T15:09:39.659Z</time></trkpt><trkpt lat="42.9496447" lon="11.3185645"><ele>85.25</ele><time>2026-05-02T15:09:40.66Z</time></trkpt><trkpt lat="42.9495664" lon="11.3183745"><ele>86.0</ele><time>2026-05-02T15:09:41.667Z</time></trkpt><trkpt lat="42.9494709" lon="11.3181667"><ele>85.0</ele><time>2026-05-02T15:09:42.668Z</time></trkpt><trkpt lat="42.9493557" lon="11.3179554"><ele>84.0</ele><time>2026-05-02T15:09:43.656Z</time></trkpt><trkpt lat="42.9492223" lon="11.3177389"><ele>83.0</ele><time>2026-05-02T15:09:44.666Z</time></trkpt><trkpt lat="42.9490783" lon="11.3175248"><ele>83.0</ele><time>2026-05-02T15:09:45.676Z</time></trkpt><trkpt lat="42.9489245" lon="11.317317"><ele>83.0</ele><time>2026-05-02T15:09:46.662Z</time></trkpt><trkpt lat="42.9487699" lon="11.3171174"><ele>83.0</ele><time>2026-05-02T15:09:47.667Z</time></trkpt><trkpt lat="42.9486254" lon="11.3169341"><ele>83.33333333333334</ele><time>2026-05-02T15:09:48.664Z</time></trkpt><trkpt lat="42.9484894" lon="11.3167587"><ele>83.66666666666667</ele><time>2026-05-02T15:09:49.662Z</time></trkpt><trkpt lat="42.948359" lon="11.3165853"><ele>84.0</ele><time>2026-05-02T15:09:50.66Z</time></trkpt><trkpt lat="42.9482334" lon="11.3164095"><ele>86.0</ele><time>2026-05-02T15:09:51.661Z</time></trkpt><trkpt lat="42.9481105" lon="11.3162261"><ele>88.0</ele><time>2026-05-02T15:09:52.668Z</time></trkpt><trkpt lat="42.947994" lon="11.3160346"><ele>90.0</ele><time>2026-05-02T15:09:53.667Z</time></trkpt><trkpt lat="42.9478845" lon="11.3158305"><ele>90.0</ele><time>2026-05-02T15:09:54.681Z</time></trkpt><trkpt lat="42.9477843" lon="11.3156058"><ele>90.0</ele><time>2026-05-02T15:09:55.655Z</time></trkpt><trkpt lat="42.9476962" lon="11.3153617"><ele>90.0</ele><time>2026-05-02T15:09:56.658Z</time></trkpt><trkpt lat="42.9476205" lon="11.3151002"><ele>90.0</ele><time>2026-05-02T15:09:57.652Z</time></trkpt><trkpt lat="42.9475545" lon="11.3148301"><ele>90.0</ele><time>2026-05-02T15:09:58.664Z</time></trkpt><trkpt lat="42.9474973" lon="11.314551"><ele>90.0</ele><time>2026-05-02T15:09:59.651Z</time></trkpt><trkpt lat="42.9474524" lon="11.3142661"><ele>90.0</ele><time>2026-05-02T15:10:00.658Z</time></trkpt><trkpt lat="42.9474131" lon="11.3139727"><ele>90.0</ele><time>2026-05-02T15:10:01.663Z</time></trkpt><trkpt lat="42.9473711" lon="11.313687"><ele>90.0</ele><time>2026-05-02T15:10:02.654Z</time></trkpt><trkpt lat="42.9473312" lon="11.3134021"><ele>90.0</ele><time>2026-05-02T15:10:03.661Z</time></trkpt><trkpt lat="42.9472927" lon="11.3131129"><ele>90.0</ele><time>2026-05-02T15:10:04.661Z</time></trkpt><trkpt lat="42.9472543" lon="11.3128252"><ele>90.0</ele><time>2026-05-02T15:10:05.652Z</time></trkpt><trkpt lat="42.9472101" lon="11.3125376"><ele>89.33333333333333</ele><time>2026-05-02T15:10:06.661Z</time></trkpt><trkpt lat="42.9471469" lon="11.3122595"><ele>88.66666666666666</ele><time>2026-05-02T15:10:07.664Z</time></trkpt><trkpt lat="42.9470632" lon="11.3119802"><ele>88.0</ele><time>2026-05-02T15:10:08.659Z</time></trkpt><trkpt lat="42.9469616" lon="11.3117095"><ele>88.0</ele><time>2026-05-02T15:10:09.663Z</time></trkpt><trkpt lat="42.9468405" lon="11.3114469"><ele>88.0</ele><time>2026-05-02T15:10:10.652Z</time></trkpt><trkpt lat="42.9466986" lon="11.3112008"><ele>93.0</ele><time>2026-05-02T15:10:11.665Z</time></trkpt><trkpt lat="42.9465275" lon="11.3109501"><ele>98.0</ele><time>2026-05-02T15:10:12.663Z</time></trkpt><trkpt lat="42.946351" lon="11.3107038"><ele>99.0</ele><time>2026-05-02T15:10:13.651Z</time></trkpt><trkpt lat="42.9461865" lon="11.3104826"><ele>100.0</ele><time>2026-05-02T15:10:14.654Z</time></trkpt><trkpt lat="42.9460356" lon="11.3102712"><ele>101.0</ele><time>2026-05-02T15:10:15.659Z</time></trkpt><trkpt lat="42.9458996" lon="11.3100651"><ele>100.66666666666666</ele><time>2026-05-02T15:10:16.655Z</time></trkpt><trkpt lat="42.9457767" lon="11.3098621"><ele>100.33333333333334</ele><time>2026-05-02T15:10:17.653Z</time></trkpt><trkpt lat="42.9456638" lon="11.309661"><ele>100.0</ele><time>2026-05-02T15:10:18.657Z</time></trkpt><trkpt lat="42.9455586" lon="11.309451"><ele>100.0</ele><time>2026-05-02T15:10:19.654Z</time></trkpt><trkpt lat="42.9454561" lon="11.3092264"><ele>100.0</ele><time>2026-05-02T15:10:20.66Z</time></trkpt><trkpt lat="42.9453614" lon="11.3089886"><ele>100.0</ele><time>2026-05-02T15:10:21.666Z</time></trkpt><trkpt lat="42.9452762" lon="11.308729"><ele>99.33333333333334</ele><time>2026-05-02T15:10:22.659Z</time></trkpt><trkpt lat="42.9452008" lon="11.308458"><ele>98.66666666666666</ele><time>2026-05-02T15:10:23.65Z</time></trkpt><trkpt lat="42.9451328" lon="11.3081849"><ele>98.0</ele><time>2026-05-02T15:10:24.661Z</time></trkpt><trkpt lat="42.9450824" lon="11.307895"><ele>97.0</ele><time>2026-05-02T15:10:25.653Z</time></trkpt><trkpt lat="42.9450469" lon="11.3075942"><ele>96.0</ele><time>2026-05-02T15:10:26.664Z</time></trkpt><trkpt lat="42.9450218" lon="11.3072994"><ele>95.0</ele><time>2026-05-02T15:10:27.656Z</time></trkpt><trkpt lat="42.9450031" lon="11.3070016"><ele>94.66666666666667</ele><time>2026-05-02T15:10:28.651Z</time></trkpt><trkpt lat="42.9449803" lon="11.3067081"><ele>94.33333333333333</ele><time>2026-05-02T15:10:29.647Z</time></trkpt><trkpt lat="42.9449568" lon="11.3064101"><ele>94.0</ele><time>2026-05-02T15:10:30.666Z</time></trkpt><trkpt lat="42.9449311" lon="11.3061125"><ele>93.33333333333333</ele><time>2026-05-02T15:10:31.659Z</time></trkpt><trkpt lat="42.9449084" lon="11.3058117"><ele>92.66666666666667</ele><time>2026-05-02T15:10:32.66Z</time></trkpt><trkpt lat="42.9448848" lon="11.3055151"><ele>92.0</ele><time>2026-05-02T15:10:33.661Z</time></trkpt><trkpt lat="42.9448625" lon="11.3052174"><ele>91.66666666666667</ele><time>2026-05-02T15:10:34.672Z</time></trkpt><trkpt lat="42.9448404" lon="11.3049256"><ele>91.33333333333333</ele><time>2026-05-02T15:10:35.652Z</time></trkpt><trkpt lat="42.944819" lon="11.3046366"><ele>91.0</ele><time>2026-05-02T15:10:36.652Z</time></trkpt><trkpt lat="42.9447959" lon="11.3043505"><ele>90.0</ele><time>2026-05-02T15:10:37.648Z</time></trkpt><trkpt lat="42.9447734" lon="11.3040681"><ele>89.0</ele><time>2026-05-02T15:10:38.656Z</time></trkpt><trkpt lat="42.9447485" lon="11.3037865"><ele>88.0</ele><time>2026-05-02T15:10:39.652Z</time></trkpt><trkpt lat="42.944719" lon="11.3035105"><ele>87.66666666666666</ele><time>2026-05-02T15:10:40.671Z</time></trkpt><trkpt lat="42.9446872" lon="11.3032287"><ele>87.33333333333333</ele><time>2026-05-02T15:10:41.648Z</time></trkpt><trkpt lat="42.9446544" lon="11.3029419"><ele>87.0</ele><time>2026-05-02T15:10:42.658Z</time></trkpt><trkpt lat="42.9446207" lon="11.3026495"><ele>86.33333333333333</ele><time>2026-05-02T15:10:43.667Z</time></trkpt><trkpt lat="42.9445881" lon="11.3023557"><ele>85.66666666666666</ele><time>2026-05-02T15:10:44.654Z</time></trkpt><trkpt lat="42.9445565" lon="11.3020676"><ele>85.0</ele><time>2026-05-02T15:10:45.652Z</time></trkpt><trkpt lat="42.9445222" lon="11.3017882"><ele>84.33333333333333</ele><time>2026-05-02T15:10:46.655Z</time></trkpt><trkpt lat="42.9444885" lon="11.3015102"><ele>83.66666666666667</ele><time>2026-05-02T15:10:47.647Z</time></trkpt><trkpt lat="42.9444572" lon="11.3012325"><ele>83.0</ele><time>2026-05-02T15:10:48.66Z</time></trkpt><trkpt lat="42.9444277" lon="11.3009497"><ele>82.66666666666667</ele><time>2026-05-02T15:10:49.657Z</time></trkpt><trkpt lat="42.944405" lon="11.3006584"><ele>82.33333333333333</ele><time>2026-05-02T15:10:50.666Z</time></trkpt><trkpt lat="42.9443803" lon="11.3003633"><ele>82.0</ele><time>2026-05-02T15:10:51.657Z</time></trkpt><trkpt lat="42.9443482" lon="11.3000671"><ele>81.0</ele><time>2026-05-02T15:10:52.654Z</time></trkpt><trkpt lat="42.9443125" lon="11.2997815"><ele>80.0</ele><time>2026-05-02T15:10:53.648Z</time></trkpt><trkpt lat="42.9442746" lon="11.2995103"><ele>79.0</ele><time>2026-05-02T15:10:54.658Z</time></trkpt><trkpt lat="42.9442279" lon="11.2992591"><ele>78.33333333333333</ele><time>2026-05-02T15:10:55.649Z</time></trkpt><trkpt lat="42.9441697" lon="11.2990154"><ele>77.66666666666667</ele><time>2026-05-02T15:10:56.664Z</time></trkpt><trkpt lat="42.9440923" lon="11.2987811"><ele>77.0</ele><time>2026-05-02T15:10:57.654Z</time></trkpt><trkpt lat="42.943989" lon="11.2985534"><ele>76.33333333333334</ele><time>2026-05-02T15:10:58.665Z</time></trkpt><trkpt lat="42.9438647" lon="11.2983373"><ele>75.66666666666667</ele><time>2026-05-02T15:10:59.656Z</time></trkpt><trkpt lat="42.9437218" lon="11.2981327"><ele>75.0</ele><time>2026-05-02T15:11:00.66Z</time></trkpt><trkpt lat="42.9435635" lon="11.2979413"><ele>74.66666666666667</ele><time>2026-05-02T15:11:01.657Z</time></trkpt><trkpt lat="42.9434069" lon="11.2977495"><ele>74.33333333333334</ele><time>2026-05-02T15:11:02.663Z</time></trkpt><trkpt lat="42.9432598" lon="11.2975562"><ele>74.0</ele><time>2026-05-02T15:11:03.652Z</time></trkpt><trkpt lat="42.9431207" lon="11.297369"><ele>73.0</ele><time>2026-05-02T15:11:04.644Z</time></trkpt><trkpt lat="42.9429916" lon="11.2971754"><ele>72.0</ele><time>2026-05-02T15:11:05.666Z</time></trkpt><trkpt lat="42.9428795" lon="11.2969638"><ele>71.0</ele><time>2026-05-02T15:11:06.668Z</time></trkpt><trkpt lat="42.9427874" lon="11.2967282"><ele>71.0</ele><time>2026-05-02T15:11:07.656Z</time></trkpt><trkpt lat="42.9427175" lon="11.2964614"><ele>71.0</ele><time>2026-05-02T15:11:08.658Z</time></trkpt><trkpt lat="42.9426729" lon="11.296184"><ele>71.0</ele><time>2026-05-02T15:11:09.661Z</time></trkpt><trkpt lat="42.9426508" lon="11.295901"><ele>71.66666666666667</ele><time>2026-05-02T15:11:10.658Z</time></trkpt><trkpt lat="42.9426318" lon="11.2956365"><ele>72.33333333333333</ele><time>2026-05-02T15:11:11.662Z</time></trkpt><trkpt lat="42.94261" lon="11.2954115"><ele>73.0</ele><time>2026-05-02T15:11:12.658Z</time></trkpt><trkpt lat="42.9425899" lon="11.2952019"><ele>73.66666666666666</ele><time>2026-05-02T15:11:13.66Z</time></trkpt><trkpt lat="42.942554" lon="11.2950013"><ele>74.33333333333333</ele><time>2026-05-02T15:11:14.665Z</time></trkpt><trkpt lat="42.942489" lon="11.2948064"><ele>75.0</ele><time>2026-05-02T15:11:15.653Z</time></trkpt><trkpt lat="42.9423915" lon="11.2946192"><ele>76.66666666666667</ele><time>2026-05-02T15:11:16.649Z</time></trkpt><trkpt lat="42.9422698" lon="11.2944387"><ele>78.33333333333334</ele><time>2026-05-02T15:11:17.652Z</time></trkpt><trkpt lat="42.9421434" lon="11.2942611"><ele>80.0</ele><time>2026-05-02T15:11:18.647Z</time></trkpt><trkpt lat="42.9420165" lon="11.2940725"><ele>79.66666666666667</ele><time>2026-05-02T15:11:19.654Z</time></trkpt><trkpt lat="42.9418862" lon="11.293879"><ele>79.33333333333333</ele><time>2026-05-02T15:11:20.651Z</time></trkpt><trkpt lat="42.9417599" lon="11.2936819"><ele>79.0</ele><time>2026-05-02T15:11:21.661Z</time></trkpt><trkpt lat="42.9416377" lon="11.2934859"><ele>79.0</ele><time>2026-05-02T15:11:22.645Z</time></trkpt><trkpt lat="42.9415179" lon="11.2932951"><ele>79.0</ele><time>2026-05-02T15:11:23.658Z</time></trkpt><trkpt lat="42.9414026" lon="11.2931081"><ele>79.0</ele><time>2026-05-02T15:11:24.646Z</time></trkpt><trkpt lat="42.9412945" lon="11.2929227"><ele>79.66666666666666</ele><time>2026-05-02T15:11:25.651Z</time></trkpt><trkpt lat="42.9411972" lon="11.2927441"><ele>80.33333333333333</ele><time>2026-05-02T15:11:26.659Z</time></trkpt><trkpt lat="42.9411079" lon="11.2925524"><ele>81.0</ele><time>2026-05-02T15:11:27.652Z</time></trkpt><trkpt lat="42.941032" lon="11.2923445"><ele>80.33333333333333</ele><time>2026-05-02T15:11:28.65Z</time></trkpt><trkpt lat="42.9409764" lon="11.2921113"><ele>79.66666666666666</ele><time>2026-05-02T15:11:29.657Z</time></trkpt><trkpt lat="42.940939" lon="11.2918571"><ele>79.0</ele><time>2026-05-02T15:11:30.668Z</time></trkpt><trkpt lat="42.9409149" lon="11.2916014"><ele>78.33333333333333</ele><time>2026-05-02T15:11:31.654Z</time></trkpt><trkpt lat="42.9408981" lon="11.2913305"><ele>77.66666666666667</ele><time>2026-05-02T15:11:32.652Z</time></trkpt><trkpt lat="42.9408808" lon="11.2910535"><ele>77.0</ele><time>2026-05-02T15:11:33.663Z</time></trkpt><trkpt lat="42.9408637" lon="11.2907722"><ele>76.66666666666667</ele><time>2026-05-02T15:11:34.671Z</time></trkpt><trkpt lat="42.9408497" lon="11.2904907"><ele>76.33333333333333</ele><time>2026-05-02T15:11:35.664Z</time></trkpt><trkpt lat="42.9408322" lon="11.2902089"><ele>76.0</ele><time>2026-05-02T15:11:36.666Z</time></trkpt><trkpt lat="42.9408143" lon="11.2899251"><ele>75.33333333333333</ele><time>2026-05-02T15:11:37.658Z</time></trkpt><trkpt lat="42.9407957" lon="11.2896418"><ele>74.66666666666667</ele><time>2026-05-02T15:11:38.664Z</time></trkpt><trkpt lat="42.9407747" lon="11.2893545"><ele>74.0</ele><time>2026-05-02T15:11:39.66Z</time></trkpt><trkpt lat="42.9407463" lon="11.2890723"><ele>74.0</ele><time>2026-05-02T15:11:40.668Z</time></trkpt><trkpt lat="42.9407004" lon="11.2887992"><ele>74.0</ele><time>2026-05-02T15:11:41.664Z</time></trkpt><trkpt lat="42.9406377" lon="11.288529"><ele>74.0</ele><time>2026-05-02T15:11:42.652Z</time></trkpt><trkpt lat="42.9405605" lon="11.2882724"><ele>74.0</ele><time>2026-05-02T15:11:43.657Z</time></trkpt><trkpt lat="42.9404761" lon="11.2880306"><ele>74.0</ele><time>2026-05-02T15:11:44.673Z</time></trkpt><trkpt lat="42.9403843" lon="11.2878224"><ele>74.0</ele><time>2026-05-02T15:11:45.661Z</time></trkpt><trkpt lat="42.9402999" lon="11.2876158"><ele>74.0</ele><time>2026-05-02T15:11:46.647Z</time></trkpt><trkpt lat="42.9402214" lon="11.2874019"><ele>74.0</ele><time>2026-05-02T15:11:47.648Z</time></trkpt><trkpt lat="42.9401416" lon="11.287188"><ele>74.0</ele><time>2026-05-02T15:11:48.668Z</time></trkpt><trkpt lat="42.9400601" lon="11.2869798"><ele>73.0</ele><time>2026-05-02T15:11:49.665Z</time></trkpt><trkpt lat="42.9399786" lon="11.2867771"><ele>72.0</ele><time>2026-05-02T15:11:50.668Z</time></trkpt><trkpt lat="42.9399015" lon="11.2865769"><ele>71.0</ele><time>2026-05-02T15:11:51.657Z</time></trkpt><trkpt lat="42.9398231" lon="11.2863866"><ele>70.75</ele><time>2026-05-02T15:11:52.659Z</time></trkpt><trkpt lat="42.9397512" lon="11.2862053"><ele>70.5</ele><time>2026-05-02T15:11:53.657Z</time></trkpt><trkpt lat="42.939686" lon="11.2860352"><ele>70.25</ele><time>2026-05-02T15:11:54.661Z</time></trkpt><trkpt lat="42.9396253" lon="11.285869"><ele>70.0</ele><time>2026-05-02T15:11:55.66Z</time></trkpt><trkpt lat="42.9395687" lon="11.285708"><ele>70.0</ele><time>2026-05-02T15:11:56.652Z</time></trkpt><trkpt lat="42.9395105" lon="11.2855302"><ele>70.0</ele><time>2026-05-02T15:11:57.662Z</time></trkpt><trkpt lat="42.939445" lon="11.2853267"><ele>70.0</ele><time>2026-05-02T15:11:58.655Z</time></trkpt><trkpt lat="42.939378" lon="11.2850975"><ele>70.0</ele><time>2026-05-02T15:11:59.665Z</time></trkpt><trkpt lat="42.9393226" lon="11.2848526"><ele>70.0</ele><time>2026-05-02T15:12:00.647Z</time></trkpt><trkpt lat="42.9392788" lon="11.2846033"><ele>70.0</ele><time>2026-05-02T15:12:01.654Z</time></trkpt><trkpt lat="42.9392293" lon="11.2843553"><ele>69.66666666666666</ele><time>2026-05-02T15:12:02.661Z</time></trkpt><trkpt lat="42.9391619" lon="11.2841309"><ele>69.33333333333333</ele><time>2026-05-02T15:12:03.655Z</time></trkpt><trkpt lat="42.939081" lon="11.2839297"><ele>69.0</ele><time>2026-05-02T15:12:04.652Z</time></trkpt><trkpt lat="42.9389874" lon="11.2837462"><ele>70.0</ele><time>2026-05-02T15:12:05.656Z</time></trkpt><trkpt lat="42.9388958" lon="11.2835869"><ele>71.0</ele><time>2026-05-02T15:12:06.646Z</time></trkpt><trkpt lat="42.9388103" lon="11.2834507"><ele>72.0</ele><time>2026-05-02T15:12:07.657Z</time></trkpt><trkpt lat="42.9387316" lon="11.2833236"><ele>73.0</ele><time>2026-05-02T15:12:08.65Z</time></trkpt><trkpt lat="42.9386585" lon="11.2831964"><ele>73.25</ele><time>2026-05-02T15:12:09.655Z</time></trkpt><trkpt lat="42.9385835" lon="11.2830762"><ele>73.5</ele><time>2026-05-02T15:12:10.659Z</time></trkpt><trkpt lat="42.9385003" lon="11.2829528"><ele>73.75</ele><time>2026-05-02T15:12:11.652Z</time></trkpt><trkpt lat="42.938414" lon="11.2828174"><ele>74.0</ele><time>2026-05-02T15:12:12.666Z</time></trkpt><trkpt lat="42.9383228" lon="11.2826774"><ele>74.0</ele><time>2026-05-02T15:12:13.653Z</time></trkpt><trkpt lat="42.9382229" lon="11.2825419"><ele>74.0</ele><time>2026-05-02T15:12:14.661Z</time></trkpt><trkpt lat="42.9381151" lon="11.2824013"><ele>74.0</ele><time>2026-05-02T15:12:15.649Z</time></trkpt><trkpt lat="42.9380005" lon="11.2822594"><ele>74.0</ele><time>2026-05-02T15:12:16.647Z</time></trkpt><trkpt lat="42.9378793" lon="11.2821127"><ele>73.66666666666667</ele><time>2026-05-02T15:12:17.65Z</time></trkpt><trkpt lat="42.9377509" lon="11.2819562"><ele>73.33333333333333</ele><time>2026-05-02T15:12:18.655Z</time></trkpt><trkpt lat="42.9376184" lon="11.2818016"><ele>73.0</ele><time>2026-05-02T15:12:19.647Z</time></trkpt><trkpt lat="42.9374857" lon="11.2816414"><ele>72.33333333333333</ele><time>2026-05-02T15:12:20.659Z</time></trkpt><trkpt lat="42.9373601" lon="11.2814835"><ele>71.66666666666667</ele><time>2026-05-02T15:12:21.653Z</time></trkpt><trkpt lat="42.9372457" lon="11.2813297"><ele>71.0</ele><time>2026-05-02T15:12:22.658Z</time></trkpt><trkpt lat="42.9371402" lon="11.2811783"><ele>70.25</ele><time>2026-05-02T15:12:23.655Z</time></trkpt><trkpt lat="42.9370377" lon="11.2810267"><ele>69.5</ele><time>2026-05-02T15:12:24.643Z</time></trkpt><trkpt lat="42.9369369" lon="11.2808805"><ele>68.75</ele><time>2026-05-02T15:12:25.65Z</time></trkpt><trkpt lat="42.9368446" lon="11.2807311"><ele>68.0</ele><time>2026-05-02T15:12:26.653Z</time></trkpt><trkpt lat="42.9367559" lon="11.2805821"><ele>68.25</ele><time>2026-05-02T15:12:27.646Z</time></trkpt><trkpt lat="42.9366831" lon="11.2804222"><ele>68.5</ele><time>2026-05-02T15:12:28.651Z</time></trkpt><trkpt lat="42.9366161" lon="11.2802482"><ele>68.75</ele><time>2026-05-02T15:12:29.645Z</time></trkpt><trkpt lat="42.9365663" lon="11.2800531"><ele>69.0</ele><time>2026-05-02T15:12:30.656Z</time></trkpt><trkpt lat="42.9365271" lon="11.2798463"><ele>66.66666666666667</ele><time>2026-05-02T15:12:31.651Z</time></trkpt><trkpt lat="42.9364961" lon="11.2796259"><ele>64.33333333333334</ele><time>2026-05-02T15:12:32.656Z</time></trkpt><trkpt lat="42.9364668" lon="11.2793918"><ele>62.0</ele><time>2026-05-02T15:12:33.653Z</time></trkpt><trkpt lat="42.9364328" lon="11.2791499"><ele>60.333333333333336</ele><time>2026-05-02T15:12:34.661Z</time></trkpt><trkpt lat="42.936401" lon="11.2788992"><ele>58.66666666666667</ele><time>2026-05-02T15:12:35.649Z</time></trkpt><trkpt lat="42.9363712" lon="11.2786514"><ele>57.0</ele><time>2026-05-02T15:12:36.658Z</time></trkpt><trkpt lat="42.9363365" lon="11.2784292"><ele>57.0</ele><time>2026-05-02T15:12:37.662Z</time></trkpt><trkpt lat="42.9362973" lon="11.2782323"><ele>57.0</ele><time>2026-05-02T15:12:38.66Z</time></trkpt><trkpt lat="42.936266" lon="11.278045"><ele>57.0</ele><time>2026-05-02T15:12:39.652Z</time></trkpt><trkpt lat="42.9362388" lon="11.2778682"><ele>57.0</ele><time>2026-05-02T15:12:40.652Z</time></trkpt><trkpt lat="42.9362166" lon="11.2777071"><ele>57.0</ele><time>2026-05-02T15:12:41.652Z</time></trkpt><trkpt lat="42.9361993" lon="11.2775547"><ele>57.0</ele><time>2026-05-02T15:12:42.657Z</time></trkpt><trkpt lat="42.936179" lon="11.277403"><ele>57.0</ele><time>2026-05-02T15:12:43.659Z</time></trkpt><trkpt lat="42.9361573" lon="11.2772435"><ele>57.0</ele><time>2026-05-02T15:12:44.662Z</time></trkpt><trkpt lat="42.9361319" lon="11.2770793"><ele>57.0</ele><time>2026-05-02T15:12:45.669Z</time></trkpt><trkpt lat="42.9361066" lon="11.2769141"><ele>57.0</ele><time>2026-05-02T15:12:46.656Z</time></trkpt><trkpt lat="42.9360775" lon="11.2767658"><ele>57.0</ele><time>2026-05-02T15:12:47.647Z</time></trkpt><trkpt lat="42.9360563" lon="11.2766229"><ele>57.0</ele><time>2026-05-02T15:12:48.645Z</time></trkpt><trkpt lat="42.936033" lon="11.276493"><ele>57.0</ele><time>2026-05-02T15:12:49.657Z</time></trkpt><trkpt lat="42.9360176" lon="11.2763642"><ele>56.666666666666664</ele><time>2026-05-02T15:12:50.658Z</time></trkpt><trkpt lat="42.9360138" lon="11.2762468"><ele>56.33333333333333</ele><time>2026-05-02T15:12:51.653Z</time></trkpt><trkpt lat="42.9360276" lon="11.2761326"><ele>56.0</ele><time>2026-05-02T15:12:52.655Z</time></trkpt><trkpt lat="42.9360716" lon="11.2760316"><ele>55.666666666666664</ele><time>2026-05-02T15:12:53.637Z</time></trkpt><trkpt lat="42.9361124" lon="11.2759267"><ele>55.33333333333333</ele><time>2026-05-02T15:12:54.65Z</time></trkpt><trkpt lat="42.9361244" lon="11.2758065"><ele>55.0</ele><time>2026-05-02T15:12:55.646Z</time></trkpt><trkpt lat="42.9361096" lon="11.2756912"><ele>55.166666666666664</ele><time>2026-05-02T15:12:56.657Z</time></trkpt><trkpt lat="42.9360634" lon="11.2756006"><ele>55.33333333333333</ele><time>2026-05-02T15:12:57.648Z</time></trkpt><trkpt lat="42.9359983" lon="11.2755648"><ele>55.5</ele><time>2026-05-02T15:12:58.646Z</time></trkpt><trkpt lat="42.9359264" lon="11.275552"><ele>55.66666666666667</ele><time>2026-05-02T15:12:59.653Z</time></trkpt><trkpt lat="42.935841" lon="11.2755666"><ele>55.833333333333336</ele><time>2026-05-02T15:13:00.649Z</time></trkpt><trkpt lat="42.9357463" lon="11.2756008"><ele>56.0</ele><time>2026-05-02T15:13:01.647Z</time></trkpt><trkpt lat="42.9356398" lon="11.2756275"><ele>56.0</ele><time>2026-05-02T15:13:02.651Z</time></trkpt><trkpt lat="42.9355276" lon="11.2756076"><ele>56.0</ele><time>2026-05-02T15:13:03.659Z</time></trkpt><trkpt lat="42.9354047" lon="11.2755623"><ele>56.0</ele><time>2026-05-02T15:13:04.649Z</time></trkpt><trkpt lat="42.9352849" lon="11.2754822"><ele>56.0</ele><time>2026-05-02T15:13:05.643Z</time></trkpt><trkpt lat="42.9351723" lon="11.2753843"><ele>56.5</ele><time>2026-05-02T15:13:06.656Z</time></trkpt><trkpt lat="42.9350725" lon="11.2752633"><ele>57.0</ele><time>2026-05-02T15:13:07.659Z</time></trkpt><trkpt lat="42.9349669" lon="11.2751403"><ele>57.5</ele><time>2026-05-02T15:13:08.65Z</time></trkpt><trkpt lat="42.9348632" lon="11.2750082"><ele>58.0</ele><time>2026-05-02T15:13:09.661Z</time></trkpt><trkpt lat="42.934758" lon="11.2748808"><ele>60.0</ele><time>2026-05-02T15:13:10.643Z</time></trkpt><trkpt lat="42.9346497" lon="11.2747497"><ele>62.0</ele><time>2026-05-02T15:13:11.647Z</time></trkpt><trkpt lat="42.9345256" lon="11.2746297"><ele>64.0</ele><time>2026-05-02T15:13:12.654Z</time></trkpt><trkpt lat="42.9343806" lon="11.2745358"><ele>64.0</ele><time>2026-05-02T15:13:13.647Z</time></trkpt><trkpt lat="42.9342303" lon="11.2744419"><ele>64.0</ele><time>2026-05-02T15:13:14.661Z</time></trkpt><trkpt lat="42.9340777" lon="11.2743528"><ele>64.0</ele><time>2026-05-02T15:13:15.64Z</time></trkpt><trkpt lat="42.9339343" lon="11.2742766"><ele>63.800000000000004</ele><time>2026-05-02T15:13:16.643Z</time></trkpt><trkpt lat="42.9338109" lon="11.2742064"><ele>63.60000000000001</ele><time>2026-05-02T15:13:17.661Z</time></trkpt><trkpt lat="42.9337052" lon="11.2741545"><ele>63.4</ele><time>2026-05-02T15:13:18.653Z</time></trkpt><trkpt lat="42.9336129" lon="11.2741051"><ele>63.2</ele><time>2026-05-02T15:13:19.648Z</time></trkpt><trkpt lat="42.9335243" lon="11.2740577"><ele>63.0</ele><time>2026-05-02T15:13:20.645Z</time></trkpt><trkpt lat="42.9334422" lon="11.2740116"><ele>62.833333333333336</ele><time>2026-05-02T15:13:21.656Z</time></trkpt><trkpt lat="42.9333671" lon="11.2739532"><ele>62.66666666666667</ele><time>2026-05-02T15:13:22.648Z</time></trkpt><trkpt lat="42.9333007" lon="11.2738832"><ele>62.5</ele><time>2026-05-02T15:13:23.655Z</time></trkpt><trkpt lat="42.933252" lon="11.273799"><ele>62.333333333333336</ele><time>2026-05-02T15:13:24.65Z</time></trkpt><trkpt lat="42.9332148" lon="11.2737139"><ele>62.16666666666667</ele><time>2026-05-02T15:13:25.644Z</time></trkpt><trkpt lat="42.9331611" lon="11.2735844"><ele>62.0</ele><time>2026-05-02T15:13:27.664Z</time></trkpt><trkpt lat="42.9331205" lon="11.2734609"><ele>62.0</ele><time>2026-05-02T15:13:29.655Z</time></trkpt><trkpt lat="42.9330834" lon="11.2733581"><ele>62.0</ele><time>2026-05-02T15:13:31.651Z</time></trkpt><trkpt lat="42.9330303" lon="11.2732238"><ele>62.0</ele><time>2026-05-02T15:13:33.664Z</time></trkpt><trkpt lat="42.9330013" lon="11.2731414"><ele>62.0</ele><time>2026-05-02T15:13:34.661Z</time></trkpt><trkpt lat="42.9329405" lon="11.2729983"><ele>62.0</ele><time>2026-05-02T15:13:36.661Z</time></trkpt><trkpt lat="42.9328632" lon="11.2728679"><ele>62.00000000000001</ele><time>2026-05-02T15:13:38.652Z</time></trkpt><trkpt lat="42.9328" lon="11.2727276"><ele>62.0</ele><time>2026-05-02T15:13:40.638Z</time></trkpt><trkpt lat="42.9327668" lon="11.2726488"><ele>62.0</ele><time>2026-05-02T15:13:41.652Z</time></trkpt><trkpt lat="42.9327313" lon="11.2725617"><ele>62.0</ele><time>2026-05-02T15:13:42.655Z</time></trkpt><trkpt lat="42.9326913" lon="11.2724816"><ele>62.00000000000001</ele><time>2026-05-02T15:13:43.647Z</time></trkpt><trkpt lat="42.9326478" lon="11.2723897"><ele>62.0</ele><time>2026-05-02T15:13:44.649Z</time></trkpt><trkpt lat="42.9326068" lon="11.2722949"><ele>62.333333333333336</ele><time>2026-05-02T15:13:45.654Z</time></trkpt><trkpt lat="42.9325628" lon="11.2721929"><ele>62.66666666666667</ele><time>2026-05-02T15:13:46.655Z</time></trkpt><trkpt lat="42.9325214" lon="11.2720893"><ele>63.0</ele><time>2026-05-02T15:13:47.65Z</time></trkpt><trkpt lat="42.9324769" lon="11.2719986"><ele>63.33333333333333</ele><time>2026-05-02T15:13:48.654Z</time></trkpt><trkpt lat="42.9324384" lon="11.2719192"><ele>63.666666666666664</ele><time>2026-05-02T15:13:49.659Z</time></trkpt><trkpt lat="42.9323871" lon="11.2718056"><ele>64.0</ele><time>2026-05-02T15:13:51.638Z</time></trkpt><trkpt lat="42.9323574" lon="11.2717156"><ele>64.0</ele><time>2026-05-02T15:13:54.652Z</time></trkpt><trkpt lat="42.9324286" lon="11.2716237"><ele>64.0</ele><time>2026-05-02T15:13:57.642Z</time></trkpt><trkpt lat="42.9325206" lon="11.2715457"><ele>64.0</ele><time>2026-05-02T15:13:59.651Z</time></trkpt><trkpt lat="42.9326196" lon="11.2714683"><ele>64.0</ele><time>2026-05-02T15:14:01.644Z</time></trkpt><trkpt lat="42.9326866" lon="11.2714174"><ele>64.0</ele><time>2026-05-02T15:14:04.65Z</time></trkpt><trkpt lat="42.9326992" lon="11.2713122"><ele>64.16666666666666</ele><time>2026-05-02T15:14:07.647Z</time></trkpt><trkpt lat="42.9326393" lon="11.2711462"><ele>64.33333333333333</ele><time>2026-05-02T15:14:09.652Z</time></trkpt><trkpt lat="42.9326005" lon="11.2710695"><ele>64.5</ele><time>2026-05-02T15:14:10.652Z</time></trkpt><trkpt lat="42.9325666" lon="11.2709817"><ele>64.66666666666667</ele><time>2026-05-02T15:14:11.663Z</time></trkpt><trkpt lat="42.9325267" lon="11.2708802"><ele>64.83333333333334</ele><time>2026-05-02T15:14:12.662Z</time></trkpt><trkpt lat="42.9324828" lon="11.270779"><ele>65.0</ele><time>2026-05-02T15:14:13.645Z</time></trkpt><trkpt lat="42.9324428" lon="11.2706828"><ele>65.28571428571429</ele><time>2026-05-02T15:14:14.649Z</time></trkpt><trkpt lat="42.9324073" lon="11.2706045"><ele>65.57142857142857</ele><time>2026-05-02T15:14:15.638Z</time></trkpt><trkpt lat="42.9323688" lon="11.2705222"><ele>65.85714285714286</ele><time>2026-05-02T15:14:16.641Z</time></trkpt><trkpt lat="42.9323288" lon="11.2704507"><ele>66.14285714285714</ele><time>2026-05-02T15:14:17.648Z</time></trkpt><trkpt lat="42.9322716" lon="11.2703612"><ele>66.42857142857143</ele><time>2026-05-02T15:14:19.643Z</time></trkpt><trkpt lat="42.9322348" lon="11.2702853"><ele>66.71428571428572</ele><time>2026-05-02T15:14:21.645Z</time></trkpt><trkpt lat="42.9322535" lon="11.2701836"><ele>67.0</ele><time>2026-05-02T15:14:23.646Z</time></trkpt><trkpt lat="42.9323261" lon="11.2701317"><ele>67.0</ele><time>2026-05-02T15:14:25.64Z</time></trkpt><trkpt lat="42.9324277" lon="11.2700716"><ele>67.0</ele><time>2026-05-02T15:14:27.642Z</time></trkpt><trkpt lat="42.932517" lon="11.269994"><ele>67.0</ele><time>2026-05-02T15:14:29.648Z</time></trkpt><trkpt lat="42.9325841" lon="11.2699432"><ele>67.0</ele><time>2026-05-02T15:14:31.646Z</time></trkpt><trkpt lat="42.9326725" lon="11.2699063"><ele>67.0</ele><time>2026-05-02T15:14:34.658Z</time></trkpt><trkpt lat="42.9327724" lon="11.2698787"><ele>66.66666666666666</ele><time>2026-05-02T15:14:36.642Z</time></trkpt><trkpt lat="42.9328328" lon="11.2698468"><ele>66.33333333333333</ele><time>2026-05-02T15:14:37.652Z</time></trkpt><trkpt lat="42.9328884" lon="11.2698061"><ele>66.0</ele><time>2026-05-02T15:14:38.649Z</time></trkpt><trkpt lat="42.9329491" lon="11.269752"><ele>65.66666666666667</ele><time>2026-05-02T15:14:39.657Z</time></trkpt><trkpt lat="42.9330227" lon="11.2696938"><ele>65.33333333333334</ele><time>2026-05-02T15:14:40.643Z</time></trkpt><trkpt lat="42.9331068" lon="11.2696258"><ele>65.0</ele><time>2026-05-02T15:14:41.648Z</time></trkpt><trkpt lat="42.9331953" lon="11.2695603"><ele>65.0</ele><time>2026-05-02T15:14:42.649Z</time></trkpt><trkpt lat="42.9332878" lon="11.2694798"><ele>65.0</ele><time>2026-05-02T15:14:43.657Z</time></trkpt><trkpt lat="42.9333821" lon="11.2693954"><ele>65.0</ele><time>2026-05-02T15:14:44.657Z</time></trkpt><trkpt lat="42.9334833" lon="11.2693091"><ele>65.0</ele><time>2026-05-02T15:14:45.654Z</time></trkpt><trkpt lat="42.9335853" lon="11.2692218"><ele>65.0</ele><time>2026-05-02T15:14:46.659Z</time></trkpt><trkpt lat="42.9336701" lon="11.2691489"><ele>65.0</ele><time>2026-05-02T15:14:47.641Z</time></trkpt><trkpt lat="42.9337298" lon="11.2691124"><ele>65.0</ele><time>2026-05-02T15:14:48.647Z</time></trkpt><trkpt lat="42.9337916" lon="11.2690698"><ele>65.0</ele><time>2026-05-02T15:14:50.646Z</time></trkpt><trkpt lat="42.9337959" lon="11.2689443"><ele>65.0</ele><time>2026-05-02T15:14:53.648Z</time></trkpt><trkpt lat="42.9337607" lon="11.2688527"><ele>65.0</ele><time>2026-05-02T15:14:54.653Z</time></trkpt><trkpt lat="42.9337192" lon="11.268749"><ele>64.6</ele><time>2026-05-02T15:14:55.649Z</time></trkpt><trkpt lat="42.9336913" lon="11.2686282"><ele>64.2</ele><time>2026-05-02T15:14:56.666Z</time></trkpt><trkpt lat="42.9336908" lon="11.2684866"><ele>63.8</ele><time>2026-05-02T15:14:57.659Z</time></trkpt><trkpt lat="42.9337265" lon="11.2683453"><ele>63.4</ele><time>2026-05-02T15:14:58.657Z</time></trkpt><trkpt lat="42.9338021" lon="11.2682099"><ele>63.0</ele><time>2026-05-02T15:14:59.654Z</time></trkpt><trkpt lat="42.9338905" lon="11.2680801"><ele>63.0</ele><time>2026-05-02T15:15:00.668Z</time></trkpt><trkpt lat="42.9340031" lon="11.2679648"><ele>63.0</ele><time>2026-05-02T15:15:01.654Z</time></trkpt><trkpt lat="42.9341286" lon="11.2678559"><ele>63.0</ele><time>2026-05-02T15:15:02.653Z</time></trkpt><trkpt lat="42.9342611" lon="11.2677482"><ele>63.0</ele><time>2026-05-02T15:15:03.65Z</time></trkpt><trkpt lat="42.9344034" lon="11.2676301"><ele>63.0</ele><time>2026-05-02T15:15:04.648Z</time></trkpt><trkpt lat="42.9345565" lon="11.2674995"><ele>63.0</ele><time>2026-05-02T15:15:05.65Z</time></trkpt><trkpt lat="42.9347214" lon="11.2673661"><ele>63.0</ele><time>2026-05-02T15:15:06.664Z</time></trkpt><trkpt lat="42.934886" lon="11.2672391"><ele>63.0</ele><time>2026-05-02T15:15:07.647Z</time></trkpt><trkpt lat="42.9350393" lon="11.2671196"><ele>63.0</ele><time>2026-05-02T15:15:08.647Z</time></trkpt><trkpt lat="42.9351704" lon="11.2670212"><ele>63.0</ele><time>2026-05-02T15:15:09.662Z</time></trkpt><trkpt lat="42.9352877" lon="11.2669522"><ele>63.599999999999994</ele><time>2026-05-02T15:15:10.659Z</time></trkpt><trkpt lat="42.9354003" lon="11.2669167"><ele>64.19999999999999</ele><time>2026-05-02T15:15:11.655Z</time></trkpt><trkpt lat="42.9355007" lon="11.2669376"><ele>64.8</ele><time>2026-05-02T15:15:12.646Z</time></trkpt><trkpt lat="42.9355821" lon="11.2670219"><ele>65.39999999999999</ele><time>2026-05-02T15:15:13.65Z</time></trkpt><trkpt lat="42.9356572" lon="11.2671252"><ele>66.0</ele><time>2026-05-02T15:15:14.653Z</time></trkpt><trkpt lat="42.9357383" lon="11.2671956"><ele>66.0</ele><time>2026-05-02T15:15:15.646Z</time></trkpt><trkpt lat="42.9358293" lon="11.2672189"><ele>66.0</ele><time>2026-05-02T15:15:16.647Z</time></trkpt><trkpt lat="42.9359195" lon="11.2671849"><ele>66.0</ele><time>2026-05-02T15:15:17.651Z</time></trkpt><trkpt lat="42.9360074" lon="11.2671146"><ele>66.0</ele><time>2026-05-02T15:15:18.66Z</time></trkpt><trkpt lat="42.9361141" lon="11.2670553"><ele>66.0</ele><time>2026-05-02T15:15:19.648Z</time></trkpt><trkpt lat="42.9362337" lon="11.2670155"><ele>67.0</ele><time>2026-05-02T15:15:20.651Z</time></trkpt><trkpt lat="42.93636" lon="11.2669598"><ele>68.0</ele><time>2026-05-02T15:15:21.65Z</time></trkpt><trkpt lat="42.9364813" lon="11.2668812"><ele>69.0</ele><time>2026-05-02T15:15:22.656Z</time></trkpt><trkpt lat="42.9365837" lon="11.2667838"><ele>70.0</ele><time>2026-05-02T15:15:23.648Z</time></trkpt><trkpt lat="42.9366754" lon="11.2666631"><ele>70.5</ele><time>2026-05-02T15:15:24.662Z</time></trkpt><trkpt lat="42.9367573" lon="11.2665145"><ele>71.0</ele><time>2026-05-02T15:15:25.651Z</time></trkpt><trkpt lat="42.9368137" lon="11.26636"><ele>71.5</ele><time>2026-05-02T15:15:26.658Z</time></trkpt><trkpt lat="42.936863" lon="11.2661875"><ele>72.0</ele><time>2026-05-02T15:15:27.648Z</time></trkpt><trkpt lat="42.9369122" lon="11.2660114"><ele>72.25</ele><time>2026-05-02T15:15:28.656Z</time></trkpt><trkpt lat="42.9369545" lon="11.2658304"><ele>72.5</ele><time>2026-05-02T15:15:29.648Z</time></trkpt><trkpt lat="42.9370025" lon="11.2656401"><ele>72.75</ele><time>2026-05-02T15:15:30.655Z</time></trkpt><trkpt lat="42.9370531" lon="11.2654452"><ele>73.0</ele><time>2026-05-02T15:15:31.647Z</time></trkpt><trkpt lat="42.9371045" lon="11.2652452"><ele>74.0</ele><time>2026-05-02T15:15:32.654Z</time></trkpt><trkpt lat="42.9371541" lon="11.2650402"><ele>75.0</ele><time>2026-05-02T15:15:33.659Z</time></trkpt><trkpt lat="42.9371998" lon="11.2648366"><ele>76.0</ele><time>2026-05-02T15:15:34.65Z</time></trkpt><trkpt lat="42.9372489" lon="11.2646337"><ele>76.66666666666666</ele><time>2026-05-02T15:15:35.655Z</time></trkpt><trkpt lat="42.9373053" lon="11.2644278"><ele>77.33333333333333</ele><time>2026-05-02T15:15:36.644Z</time></trkpt><trkpt lat="42.9373718" lon="11.2642318"><ele>78.0</ele><time>2026-05-02T15:15:37.656Z</time></trkpt><trkpt lat="42.9374507" lon="11.2640539"><ele>78.0</ele><time>2026-05-02T15:15:38.649Z</time></trkpt><trkpt lat="42.9375623" lon="11.263918"><ele>78.0</ele><time>2026-05-02T15:15:39.654Z</time></trkpt><trkpt lat="42.9377097" lon="11.2638176"><ele>78.0</ele><time>2026-05-02T15:15:40.647Z</time></trkpt><trkpt lat="42.9378304" lon="11.2637467"><ele>78.0</ele><time>2026-05-02T15:15:41.651Z</time></trkpt><trkpt lat="42.9379078" lon="11.2637191"><ele>78.0</ele><time>2026-05-02T15:15:42.652Z</time></trkpt><trkpt lat="42.9379749" lon="11.2636788"><ele>78.0</ele><time>2026-05-02T15:15:44.646Z</time></trkpt><trkpt lat="42.9380513" lon="11.2636538"><ele>78.0</ele><time>2026-05-02T15:15:47.65Z</time></trkpt><trkpt lat="42.9380928" lon="11.2637332"><ele>78.0</ele><time>2026-05-02T15:15:50.651Z</time></trkpt><trkpt lat="42.9381074" lon="11.2638172"><ele>78.0</ele><time>2026-05-02T15:15:52.655Z</time></trkpt><trkpt lat="42.9381372" lon="11.2639066"><ele>78.0</ele><time>2026-05-02T15:15:55.644Z</time></trkpt><trkpt lat="42.9381553" lon="11.2640263"><ele>78.0</ele><time>2026-05-02T15:16:43.661Z</time></trkpt><trkpt lat="42.938207" lon="11.2641656"><ele>78.14285714285715</ele><time>2026-05-02T15:16:45.652Z</time></trkpt><trkpt lat="42.9382376" lon="11.2642437"><ele>78.28571428571428</ele><time>2026-05-02T15:16:46.643Z</time></trkpt><trkpt lat="42.9382711" lon="11.2643389"><ele>78.42857142857143</ele><time>2026-05-02T15:16:47.659Z</time></trkpt><trkpt lat="42.9382977" lon="11.2644427"><ele>78.57142857142858</ele><time>2026-05-02T15:16:48.645Z</time></trkpt><trkpt lat="42.9383173" lon="11.2645415"><ele>78.71428571428572</ele><time>2026-05-02T15:16:49.651Z</time></trkpt><trkpt lat="42.9383332" lon="11.2646262"><ele>78.85714285714286</ele><time>2026-05-02T15:16:50.653Z</time></trkpt><trkpt lat="42.9383506" lon="11.2647131"><ele>79.0</ele><time>2026-05-02T15:16:51.657Z</time></trkpt><trkpt lat="42.9383816" lon="11.2648028"><ele>78.8</ele><time>2026-05-02T15:16:52.656Z</time></trkpt><trkpt lat="42.9384266" lon="11.2649007"><ele>78.60000000000001</ele><time>2026-05-02T15:16:53.655Z</time></trkpt><trkpt lat="42.9384808" lon="11.2650101"><ele>78.4</ele><time>2026-05-02T15:16:54.655Z</time></trkpt><trkpt lat="42.938533" lon="11.2651262"><ele>78.2</ele><time>2026-05-02T15:16:55.642Z</time></trkpt><trkpt lat="42.9385861" lon="11.2652453"><ele>78.0</ele><time>2026-05-02T15:16:56.656Z</time></trkpt><trkpt lat="42.938639" lon="11.2653663"><ele>78.0</ele><time>2026-05-02T15:16:57.65Z</time></trkpt><trkpt lat="42.938685" lon="11.2654898"><ele>78.0</ele><time>2026-05-02T15:16:58.644Z</time></trkpt><trkpt lat="42.9387318" lon="11.2656087"><ele>78.0</ele><time>2026-05-02T15:16:59.643Z</time></trkpt><trkpt lat="42.9387754" lon="11.2657147"><ele>78.0</ele><time>2026-05-02T15:17:00.65Z</time></trkpt><trkpt lat="42.9388203" lon="11.2658099"><ele>78.0</ele><time>2026-05-02T15:17:01.653Z</time></trkpt><trkpt lat="42.9388713" lon="11.2659042"><ele>77.66666666666667</ele><time>2026-05-02T15:17:02.649Z</time></trkpt><trkpt lat="42.9389356" lon="11.2659724"><ele>77.33333333333333</ele><time>2026-05-02T15:17:03.654Z</time></trkpt><trkpt lat="42.9390038" lon="11.26601"><ele>77.0</ele><time>2026-05-02T15:17:04.656Z</time></trkpt><trkpt lat="42.9390774" lon="11.2660123"><ele>76.66666666666666</ele><time>2026-05-02T15:17:05.663Z</time></trkpt><trkpt lat="42.9391485" lon="11.2660161"><ele>76.33333333333333</ele><time>2026-05-02T15:17:06.662Z</time></trkpt><trkpt lat="42.9392279" lon="11.2660039"><ele>76.0</ele><time>2026-05-02T15:17:07.653Z</time></trkpt><trkpt lat="42.9393136" lon="11.2659952"><ele>74.2</ele><time>2026-05-02T15:17:08.655Z</time></trkpt><trkpt lat="42.9394068" lon="11.2659828"><ele>72.39999999999999</ele><time>2026-05-02T15:17:09.655Z</time></trkpt><trkpt lat="42.9395032" lon="11.2659587"><ele>70.6</ele><time>2026-05-02T15:17:10.666Z</time></trkpt><trkpt lat="42.939594" lon="11.2659415"><ele>68.8</ele><time>2026-05-02T15:17:11.661Z</time></trkpt><trkpt lat="42.939681" lon="11.2659448"><ele>67.0</ele><time>2026-05-02T15:17:12.663Z</time></trkpt><trkpt lat="42.9397652" lon="11.2659671"><ele>67.0</ele><time>2026-05-02T15:17:13.652Z</time></trkpt><trkpt lat="42.9398482" lon="11.2659917"><ele>67.0</ele><time>2026-05-02T15:17:14.65Z</time></trkpt><trkpt lat="42.9399351" lon="11.2659933"><ele>67.0</ele><time>2026-05-02T15:17:15.66Z</time></trkpt><trkpt lat="42.9400213" lon="11.2659835"><ele>67.0</ele><time>2026-05-02T15:17:16.653Z</time></trkpt><trkpt lat="42.9401051" lon="11.2659781"><ele>67.0</ele><time>2026-05-02T15:17:17.661Z</time></trkpt><trkpt lat="42.9401902" lon="11.265971"><ele>67.0</ele><time>2026-05-02T15:17:18.656Z</time></trkpt><trkpt lat="42.9402661" lon="11.2659492"><ele>66.66666666666666</ele><time>2026-05-02T15:17:19.645Z</time></trkpt><trkpt lat="42.940341" lon="11.2659046"><ele>66.33333333333333</ele><time>2026-05-02T15:17:20.652Z</time></trkpt><trkpt lat="42.9404103" lon="11.2658295"><ele>66.0</ele><time>2026-05-02T15:17:21.649Z</time></trkpt><trkpt lat="42.940479" lon="11.2657561"><ele>65.66666666666667</ele><time>2026-05-02T15:17:22.658Z</time></trkpt><trkpt lat="42.9405468" lon="11.2656858"><ele>65.33333333333334</ele><time>2026-05-02T15:17:23.65Z</time></trkpt><trkpt lat="42.9406066" lon="11.2656421"><ele>65.0</ele><time>2026-05-02T15:17:24.661Z</time></trkpt><trkpt lat="42.9406702" lon="11.2656157"><ele>64.6</ele><time>2026-05-02T15:17:25.65Z</time></trkpt><trkpt lat="42.9407385" lon="11.265583"><ele>64.2</ele><time>2026-05-02T15:17:26.648Z</time></trkpt><trkpt lat="42.9408349" lon="11.2655648"><ele>63.8</ele><time>2026-05-02T15:17:27.651Z</time></trkpt><trkpt lat="42.9409455" lon="11.2655492"><ele>63.4</ele><time>2026-05-02T15:17:28.646Z</time></trkpt><trkpt lat="42.9410513" lon="11.2655369"><ele>63.0</ele><time>2026-05-02T15:17:29.637Z</time></trkpt><trkpt lat="42.9411518" lon="11.2655262"><ele>62.833333333333336</ele><time>2026-05-02T15:17:30.655Z</time></trkpt><trkpt lat="42.9412467" lon="11.2655162"><ele>62.66666666666667</ele><time>2026-05-02T15:17:31.65Z</time></trkpt><trkpt lat="42.9413384" lon="11.2654981"><ele>62.5</ele><time>2026-05-02T15:17:32.65Z</time></trkpt><trkpt lat="42.9414189" lon="11.2654812"><ele>62.333333333333336</ele><time>2026-05-02T15:17:33.65Z</time></trkpt><trkpt lat="42.941499" lon="11.2654741"><ele>62.16666666666667</ele><time>2026-05-02T15:17:34.661Z</time></trkpt><trkpt lat="42.9415716" lon="11.265482"><ele>62.0</ele><time>2026-05-02T15:17:35.653Z</time></trkpt><trkpt lat="42.9416487" lon="11.2655004"><ele>62.00000000000001</ele><time>2026-05-02T15:17:36.661Z</time></trkpt><trkpt lat="42.9417249" lon="11.2655333"><ele>62.0</ele><time>2026-05-02T15:17:37.659Z</time></trkpt><trkpt lat="42.9418033" lon="11.2655799"><ele>62.0</ele><time>2026-05-02T15:17:38.651Z</time></trkpt><trkpt lat="42.9418751" lon="11.2656343"><ele>62.0</ele><time>2026-05-02T15:17:39.643Z</time></trkpt><trkpt lat="42.9419383" lon="11.2656936"><ele>62.00000000000001</ele><time>2026-05-02T15:17:40.65Z</time></trkpt><trkpt lat="42.9420346" lon="11.2657491"><ele>62.0</ele><time>2026-05-02T15:17:42.653Z</time></trkpt><trkpt lat="42.9421109" lon="11.2657504"><ele>62.00000000000001</ele><time>2026-05-02T15:17:44.647Z</time></trkpt><trkpt lat="42.94219" lon="11.2657498"><ele>62.0</ele><time>2026-05-02T15:17:47.658Z</time></trkpt><trkpt lat="42.9422543" lon="11.2657792"><ele>62.0</ele><time>2026-05-02T15:17:51.652Z</time></trkpt><trkpt lat="42.9422775" lon="11.2658638"><ele>62.0</ele><time>2026-05-02T15:17:55.655Z</time></trkpt><trkpt lat="42.9423237" lon="11.265928"><ele>62.00000000000001</ele><time>2026-05-02T15:17:58.656Z</time></trkpt><trkpt lat="42.9423725" lon="11.2659954"><ele>62.0</ele><time>2026-05-02T15:18:00.663Z</time></trkpt><trkpt lat="42.9424632" lon="11.2660918"><ele>61.833333333333336</ele><time>2026-05-02T15:18:02.657Z</time></trkpt><trkpt lat="42.9425674" lon="11.2661663"><ele>61.66666666666667</ele><time>2026-05-02T15:18:04.659Z</time></trkpt><trkpt lat="42.9426282" lon="11.2662057"><ele>61.5</ele><time>2026-05-02T15:18:05.652Z</time></trkpt><trkpt lat="42.9426889" lon="11.2662375"><ele>61.33333333333333</ele><time>2026-05-02T15:18:06.659Z</time></trkpt><trkpt lat="42.9427922" lon="11.2662196"><ele>61.166666666666664</ele><time>2026-05-02T15:18:08.654Z</time></trkpt><trkpt lat="42.9428134" lon="11.2661023"><ele>61.0</ele><time>2026-05-02T15:18:10.646Z</time></trkpt><trkpt lat="42.9428055" lon="11.2659456"><ele>60.99999999999999</ele><time>2026-05-02T15:18:12.659Z</time></trkpt><trkpt lat="42.9428" lon="11.2658521"><ele>61.0</ele><time>2026-05-02T15:18:13.659Z</time></trkpt><trkpt lat="42.9427979" lon="11.2657478"><ele>61.0</ele><time>2026-05-02T15:18:14.648Z</time></trkpt><trkpt lat="42.94281" lon="11.2656353"><ele>61.0</ele><time>2026-05-02T15:18:15.65Z</time></trkpt><trkpt lat="42.9428461" lon="11.2655322"><ele>60.99999999999999</ele><time>2026-05-02T15:18:16.657Z</time></trkpt><trkpt lat="42.9429089" lon="11.2654483"><ele>61.0</ele><time>2026-05-02T15:18:17.657Z</time></trkpt><trkpt lat="42.9429908" lon="11.265365"><ele>61.166666666666664</ele><time>2026-05-02T15:18:18.656Z</time></trkpt><trkpt lat="42.9430676" lon="11.2652908"><ele>61.33333333333333</ele><time>2026-05-02T15:18:19.65Z</time></trkpt><trkpt lat="42.9431505" lon="11.2652092"><ele>61.5</ele><time>2026-05-02T15:18:20.639Z</time></trkpt><trkpt lat="42.9432128" lon="11.2651379"><ele>61.66666666666667</ele><time>2026-05-02T15:18:21.656Z</time></trkpt><trkpt lat="42.9432691" lon="11.2650798"><ele>61.833333333333336</ele><time>2026-05-02T15:18:22.648Z</time></trkpt><trkpt lat="42.9433349" lon="11.2650146"><ele>62.0</ele><time>2026-05-02T15:18:23.654Z</time></trkpt><trkpt lat="42.9433987" lon="11.2649484"><ele>62.16666666666667</ele><time>2026-05-02T15:18:24.652Z</time></trkpt><trkpt lat="42.9434633" lon="11.264878"><ele>62.333333333333336</ele><time>2026-05-02T15:18:25.649Z</time></trkpt><trkpt lat="42.9435275" lon="11.2648058"><ele>62.5</ele><time>2026-05-02T15:18:26.657Z</time></trkpt><trkpt lat="42.9435887" lon="11.264741"><ele>62.66666666666667</ele><time>2026-05-02T15:18:27.659Z</time></trkpt><trkpt lat="42.9436507" lon="11.2646698"><ele>62.833333333333336</ele><time>2026-05-02T15:18:28.649Z</time></trkpt><trkpt lat="42.9437151" lon="11.2645948"><ele>63.0</ele><time>2026-05-02T15:18:29.653Z</time></trkpt><trkpt lat="42.9437784" lon="11.2645142"><ele>63.166666666666664</ele><time>2026-05-02T15:18:30.676Z</time></trkpt><trkpt lat="42.9438382" lon="11.2644393"><ele>63.33333333333333</ele><time>2026-05-02T15:18:31.656Z</time></trkpt><trkpt lat="42.9439052" lon="11.264361"><ele>63.5</ele><time>2026-05-02T15:18:32.66Z</time></trkpt><trkpt lat="42.9439758" lon="11.2642959"><ele>63.666666666666664</ele><time>2026-05-02T15:18:33.653Z</time></trkpt><trkpt lat="42.9440496" lon="11.2642463"><ele>63.83333333333333</ele><time>2026-05-02T15:18:34.65Z</time></trkpt><trkpt lat="42.9441269" lon="11.2642056"><ele>64.0</ele><time>2026-05-02T15:18:35.66Z</time></trkpt><trkpt lat="42.9442027" lon="11.2641787"><ele>65.0</ele><time>2026-05-02T15:18:36.651Z</time></trkpt><trkpt lat="42.9442765" lon="11.2641601"><ele>66.0</ele><time>2026-05-02T15:18:37.656Z</time></trkpt><trkpt lat="42.9443531" lon="11.2641482"><ele>67.0</ele><time>2026-05-02T15:18:38.661Z</time></trkpt><trkpt lat="42.9444334" lon="11.2641397"><ele>68.0</ele><time>2026-05-02T15:18:39.656Z</time></trkpt><trkpt lat="42.9445133" lon="11.2641342"><ele>69.0</ele><time>2026-05-02T15:18:40.66Z</time></trkpt><trkpt lat="42.9445952" lon="11.2641278"><ele>70.0</ele><time>2026-05-02T15:18:41.659Z</time></trkpt><trkpt lat="42.94468" lon="11.2641258"><ele>70.0</ele><time>2026-05-02T15:18:42.655Z</time></trkpt><trkpt lat="42.9447649" lon="11.2641302"><ele>70.0</ele><time>2026-05-02T15:18:43.652Z</time></trkpt><trkpt lat="42.9448488" lon="11.2641404"><ele>70.0</ele><time>2026-05-02T15:18:44.656Z</time></trkpt><trkpt lat="42.9449333" lon="11.2641602"><ele>70.0</ele><time>2026-05-02T15:18:45.65Z</time></trkpt><trkpt lat="42.9450149" lon="11.2641944"><ele>70.0</ele><time>2026-05-02T15:18:46.653Z</time></trkpt><trkpt lat="42.9450932" lon="11.2642331"><ele>70.0</ele><time>2026-05-02T15:18:47.655Z</time></trkpt><trkpt lat="42.9451691" lon="11.2642658"><ele>71.16666666666666</ele><time>2026-05-02T15:18:48.644Z</time></trkpt><trkpt lat="42.9452493" lon="11.2642943"><ele>72.33333333333333</ele><time>2026-05-02T15:18:49.647Z</time></trkpt><trkpt lat="42.9453326" lon="11.2643259"><ele>73.5</ele><time>2026-05-02T15:18:50.655Z</time></trkpt><trkpt lat="42.945419" lon="11.264366"><ele>74.66666666666667</ele><time>2026-05-02T15:18:51.644Z</time></trkpt><trkpt lat="42.9455018" lon="11.2644177"><ele>75.83333333333334</ele><time>2026-05-02T15:18:52.645Z</time></trkpt><trkpt lat="42.9455749" lon="11.2644747"><ele>77.0</ele><time>2026-05-02T15:18:53.654Z</time></trkpt><trkpt lat="42.9456469" lon="11.2645317"><ele>77.0</ele><time>2026-05-02T15:18:54.665Z</time></trkpt><trkpt lat="42.9457195" lon="11.2645977"><ele>77.0</ele><time>2026-05-02T15:18:55.655Z</time></trkpt><trkpt lat="42.9457942" lon="11.2646724"><ele>77.0</ele><time>2026-05-02T15:18:56.653Z</time></trkpt><trkpt lat="42.945873" lon="11.2647543"><ele>77.0</ele><time>2026-05-02T15:18:57.648Z</time></trkpt><trkpt lat="42.9459564" lon="11.2648301"><ele>77.0</ele><time>2026-05-02T15:18:58.648Z</time></trkpt><trkpt lat="42.9460452" lon="11.2648993"><ele>77.8</ele><time>2026-05-02T15:18:59.657Z</time></trkpt><trkpt lat="42.9461351" lon="11.2649705"><ele>78.6</ele><time>2026-05-02T15:19:00.661Z</time></trkpt><trkpt lat="42.9462194" lon="11.2650387"><ele>79.39999999999999</ele><time>2026-05-02T15:19:01.657Z</time></trkpt><trkpt lat="42.9463005" lon="11.2651065"><ele>80.2</ele><time>2026-05-02T15:19:02.654Z</time></trkpt><trkpt lat="42.9463782" lon="11.2651681"><ele>81.0</ele><time>2026-05-02T15:19:03.654Z</time></trkpt><trkpt lat="42.9464497" lon="11.2652263"><ele>81.0</ele><time>2026-05-02T15:19:04.655Z</time></trkpt><trkpt lat="42.9465161" lon="11.2652708"><ele>81.0</ele><time>2026-05-02T15:19:05.651Z</time></trkpt><trkpt lat="42.946609" lon="11.2652883"><ele>81.0</ele><time>2026-05-02T15:19:07.657Z</time></trkpt><trkpt lat="42.9466809" lon="11.2651897"><ele>81.0</ele><time>2026-05-02T15:19:09.65Z</time></trkpt><trkpt lat="42.9467109" lon="11.2650995"><ele>81.0</ele><time>2026-05-02T15:19:10.665Z</time></trkpt><trkpt lat="42.9467415" lon="11.2649933"><ele>81.0</ele><time>2026-05-02T15:19:11.65Z</time></trkpt><trkpt lat="42.9467811" lon="11.264872"><ele>80.6</ele><time>2026-05-02T15:19:12.664Z</time></trkpt><trkpt lat="42.9468309" lon="11.2647511"><ele>80.19999999999999</ele><time>2026-05-02T15:19:13.651Z</time></trkpt><trkpt lat="42.9468835" lon="11.2646261"><ele>79.80000000000001</ele><time>2026-05-02T15:19:14.641Z</time></trkpt><trkpt lat="42.9469417" lon="11.2644995"><ele>79.4</ele><time>2026-05-02T15:19:15.64Z</time></trkpt><trkpt lat="42.9469972" lon="11.2643681"><ele>79.0</ele><time>2026-05-02T15:19:16.65Z</time></trkpt><trkpt lat="42.9470523" lon="11.264231"><ele>79.0</ele><time>2026-05-02T15:19:17.655Z</time></trkpt><trkpt lat="42.9471074" lon="11.2640907"><ele>79.0</ele><time>2026-05-02T15:19:18.65Z</time></trkpt><trkpt lat="42.947164" lon="11.2639602"><ele>79.0</ele><time>2026-05-02T15:19:19.647Z</time></trkpt><trkpt lat="42.9472168" lon="11.2638447"><ele>79.0</ele><time>2026-05-02T15:19:20.644Z</time></trkpt><trkpt lat="42.9472678" lon="11.263733"><ele>79.0</ele><time>2026-05-02T15:19:21.655Z</time></trkpt><trkpt lat="42.9473126" lon="11.2636167"><ele>79.16666666666666</ele><time>2026-05-02T15:19:22.657Z</time></trkpt><trkpt lat="42.9473588" lon="11.2635034"><ele>79.33333333333333</ele><time>2026-05-02T15:19:23.649Z</time></trkpt><trkpt lat="42.9474039" lon="11.2633905"><ele>79.5</ele><time>2026-05-02T15:19:24.654Z</time></trkpt><trkpt lat="42.9474524" lon="11.2632928"><ele>79.66666666666667</ele><time>2026-05-02T15:19:25.649Z</time></trkpt><trkpt lat="42.9474948" lon="11.2632152"><ele>79.83333333333334</ele><time>2026-05-02T15:19:26.654Z</time></trkpt><trkpt lat="42.947544" lon="11.2631603"><ele>80.0</ele><time>2026-05-02T15:19:27.658Z</time></trkpt><trkpt lat="42.9476649" lon="11.2631593"><ele>80.16666666666667</ele><time>2026-05-02T15:19:29.648Z</time></trkpt><trkpt lat="42.9477268" lon="11.2631861"><ele>80.33333333333334</ele><time>2026-05-02T15:19:30.65Z</time></trkpt><trkpt lat="42.9477973" lon="11.263223"><ele>80.5</ele><time>2026-05-02T15:19:31.649Z</time></trkpt><trkpt lat="42.9478794" lon="11.2632582"><ele>80.66666666666667</ele><time>2026-05-02T15:19:32.665Z</time></trkpt><trkpt lat="42.9479709" lon="11.2632968"><ele>80.83333333333333</ele><time>2026-05-02T15:19:33.654Z</time></trkpt><trkpt lat="42.9480685" lon="11.2633393"><ele>81.0</ele><time>2026-05-02T15:19:34.652Z</time></trkpt><trkpt lat="42.94816" lon="11.2633944"><ele>81.0</ele><time>2026-05-02T15:19:35.651Z</time></trkpt><trkpt lat="42.948257" lon="11.2634374"><ele>81.0</ele><time>2026-05-02T15:19:36.648Z</time></trkpt><trkpt lat="42.9483505" lon="11.2634797"><ele>81.0</ele><time>2026-05-02T15:19:37.651Z</time></trkpt><trkpt lat="42.9484411" lon="11.2635069"><ele>81.0</ele><time>2026-05-02T15:19:38.656Z</time></trkpt><trkpt lat="42.948523" lon="11.2635177"><ele>81.0</ele><time>2026-05-02T15:19:39.654Z</time></trkpt><trkpt lat="42.9486015" lon="11.2635027"><ele>80.83333333333333</ele><time>2026-05-02T15:19:40.656Z</time></trkpt><trkpt lat="42.948664" lon="11.2634765"><ele>80.66666666666667</ele><time>2026-05-02T15:19:41.664Z</time></trkpt><trkpt lat="42.9487519" lon="11.2633986"><ele>80.5</ele><time>2026-05-02T15:19:43.664Z</time></trkpt><trkpt lat="42.9488266" lon="11.2633271"><ele>80.33333333333334</ele><time>2026-05-02T15:19:45.644Z</time></trkpt><trkpt lat="42.9488916" lon="11.2632654"><ele>80.16666666666667</ele><time>2026-05-02T15:19:47.65Z</time></trkpt><trkpt lat="42.9489529" lon="11.2632056"><ele>80.0</ele><time>2026-05-02T15:19:49.666Z</time></trkpt><trkpt lat="42.9490387" lon="11.2631236"><ele>80.0</ele><time>2026-05-02T15:19:51.648Z</time></trkpt><trkpt lat="42.9491354" lon="11.2630381"><ele>80.0</ele><time>2026-05-02T15:19:53.653Z</time></trkpt><trkpt lat="42.9492363" lon="11.2629446"><ele>80.0</ele><time>2026-05-02T15:19:55.658Z</time></trkpt><trkpt lat="42.9492909" lon="11.2628991"><ele>80.0</ele><time>2026-05-02T15:19:56.657Z</time></trkpt><trkpt lat="42.9493487" lon="11.2628514"><ele>80.0</ele><time>2026-05-02T15:19:57.653Z</time></trkpt><trkpt lat="42.9494068" lon="11.2628034"><ele>80.0</ele><time>2026-05-02T15:19:58.658Z</time></trkpt><trkpt lat="42.9494651" lon="11.2627497"><ele>80.0</ele><time>2026-05-02T15:19:59.661Z</time></trkpt><trkpt lat="42.9495265" lon="11.2626925"><ele>80.0</ele><time>2026-05-02T15:20:00.656Z</time></trkpt><trkpt lat="42.9495873" lon="11.2626317"><ele>80.0</ele><time>2026-05-02T15:20:01.645Z</time></trkpt><trkpt lat="42.949646" lon="11.2625705"><ele>80.0</ele><time>2026-05-02T15:20:02.654Z</time></trkpt><trkpt lat="42.9497031" lon="11.2625031"><ele>80.0</ele><time>2026-05-02T15:20:03.655Z</time></trkpt><trkpt lat="42.9497633" lon="11.2624228"><ele>80.0</ele><time>2026-05-02T15:20:04.655Z</time></trkpt><trkpt lat="42.9498218" lon="11.2623335"><ele>80.2</ele><time>2026-05-02T15:20:05.654Z</time></trkpt><trkpt lat="42.9498814" lon="11.2622455"><ele>80.4</ele><time>2026-05-02T15:20:06.65Z</time></trkpt><trkpt lat="42.9499421" lon="11.2621563"><ele>80.6</ele><time>2026-05-02T15:20:07.653Z</time></trkpt><trkpt lat="42.9500045" lon="11.2620604"><ele>80.8</ele><time>2026-05-02T15:20:08.656Z</time></trkpt><trkpt lat="42.9500715" lon="11.2619649"><ele>81.0</ele><time>2026-05-02T15:20:09.666Z</time></trkpt><trkpt lat="42.9501343" lon="11.2618698"><ele>81.0</ele><time>2026-05-02T15:20:10.651Z</time></trkpt><trkpt lat="42.9501951" lon="11.2617822"><ele>81.0</ele><time>2026-05-02T15:20:11.656Z</time></trkpt><trkpt lat="42.9502517" lon="11.2617067"><ele>81.0</ele><time>2026-05-02T15:20:12.652Z</time></trkpt><trkpt lat="42.9503043" lon="11.261641"><ele>81.0</ele><time>2026-05-02T15:20:13.654Z</time></trkpt><trkpt lat="42.9503967" lon="11.2615692"><ele>81.0</ele><time>2026-05-02T15:20:15.669Z</time></trkpt><trkpt lat="42.9504615" lon="11.261555"><ele>81.0</ele><time>2026-05-02T15:20:17.652Z</time></trkpt><trkpt lat="42.9505362" lon="11.2615124"><ele>81.33333333333333</ele><time>2026-05-02T15:20:19.683Z</time></trkpt><trkpt lat="42.9505835" lon="11.2614482"><ele>81.66666666666667</ele><time>2026-05-02T15:20:20.653Z</time></trkpt><trkpt lat="42.9506279" lon="11.2613748"><ele>82.0</ele><time>2026-05-02T15:20:21.658Z</time></trkpt><trkpt lat="42.9506802" lon="11.2612911"><ele>82.33333333333334</ele><time>2026-05-02T15:20:22.647Z</time></trkpt><trkpt lat="42.9507388" lon="11.2611982"><ele>82.66666666666667</ele><time>2026-05-02T15:20:23.65Z</time></trkpt><trkpt lat="42.9508041" lon="11.2610986"><ele>83.0</ele><time>2026-05-02T15:20:24.659Z</time></trkpt><trkpt lat="42.9508712" lon="11.2609976"><ele>82.80000000000001</ele><time>2026-05-02T15:20:25.649Z</time></trkpt><trkpt lat="42.9509281" lon="11.2609024"><ele>82.6</ele><time>2026-05-02T15:20:26.656Z</time></trkpt><trkpt lat="42.9509846" lon="11.2608196"><ele>82.4</ele><time>2026-05-02T15:20:27.66Z</time></trkpt><trkpt lat="42.9510459" lon="11.26072"><ele>82.19999999999999</ele><time>2026-05-02T15:20:28.646Z</time></trkpt><trkpt lat="42.9511215" lon="11.2606222"><ele>82.0</ele><time>2026-05-02T15:20:29.652Z</time></trkpt><trkpt lat="42.9512089" lon="11.2605343"><ele>82.0</ele><time>2026-05-02T15:20:30.66Z</time></trkpt><trkpt lat="42.9512978" lon="11.2604467"><ele>82.0</ele><time>2026-05-02T15:20:31.648Z</time></trkpt><trkpt lat="42.9513863" lon="11.2603538"><ele>82.0</ele><time>2026-05-02T15:20:32.645Z</time></trkpt><trkpt lat="42.9514732" lon="11.2602541"><ele>82.0</ele><time>2026-05-02T15:20:33.65Z</time></trkpt><trkpt lat="42.9515614" lon="11.2601559"><ele>82.0</ele><time>2026-05-02T15:20:34.663Z</time></trkpt><trkpt lat="42.9516562" lon="11.2600693"><ele>82.19999999999999</ele><time>2026-05-02T15:20:35.65Z</time></trkpt><trkpt lat="42.9517471" lon="11.2599805"><ele>82.4</ele><time>2026-05-02T15:20:36.664Z</time></trkpt><trkpt lat="42.9518354" lon="11.2598878"><ele>82.6</ele><time>2026-05-02T15:20:37.643Z</time></trkpt><trkpt lat="42.9519222" lon="11.259802"><ele>82.80000000000001</ele><time>2026-05-02T15:20:38.652Z</time></trkpt><trkpt lat="42.9520017" lon="11.2597264"><ele>83.0</ele><time>2026-05-02T15:20:39.645Z</time></trkpt><trkpt lat="42.9520727" lon="11.2596592"><ele>83.14285714285714</ele><time>2026-05-02T15:20:40.646Z</time></trkpt><trkpt lat="42.95214" lon="11.2596042"><ele>83.28571428571429</ele><time>2026-05-02T15:20:41.652Z</time></trkpt><trkpt lat="42.9522063" lon="11.2595689"><ele>83.42857142857143</ele><time>2026-05-02T15:20:42.65Z</time></trkpt><trkpt lat="42.9522697" lon="11.2595532"><ele>83.57142857142857</ele><time>2026-05-02T15:20:43.642Z</time></trkpt><trkpt lat="42.9523364" lon="11.259543"><ele>83.71428571428572</ele><time>2026-05-02T15:20:44.663Z</time></trkpt><trkpt lat="42.9524056" lon="11.259532"><ele>83.85714285714286</ele><time>2026-05-02T15:20:45.65Z</time></trkpt><trkpt lat="42.9524855" lon="11.2595254"><ele>84.0</ele><time>2026-05-02T15:20:46.653Z</time></trkpt><trkpt lat="42.9525718" lon="11.2595183"><ele>85.2</ele><time>2026-05-02T15:20:47.643Z</time></trkpt><trkpt lat="42.952661" lon="11.2594986"><ele>86.4</ele><time>2026-05-02T15:20:48.683Z</time></trkpt><trkpt lat="42.9527541" lon="11.2594719"><ele>87.6</ele><time>2026-05-02T15:20:49.652Z</time></trkpt><trkpt lat="42.9528471" lon="11.2594472"><ele>88.8</ele><time>2026-05-02T15:20:50.66Z</time></trkpt><trkpt lat="42.9529392" lon="11.2594196"><ele>90.0</ele><time>2026-05-02T15:20:51.661Z</time></trkpt><trkpt lat="42.9530371" lon="11.2593885"><ele>90.0</ele><time>2026-05-02T15:20:52.648Z</time></trkpt><trkpt lat="42.9531352" lon="11.2593581"><ele>90.0</ele><time>2026-05-02T15:20:53.652Z</time></trkpt><trkpt lat="42.9532369" lon="11.2593251"><ele>90.0</ele><time>2026-05-02T15:20:54.654Z</time></trkpt><trkpt lat="42.9533419" lon="11.2592948"><ele>90.0</ele><time>2026-05-02T15:20:55.66Z</time></trkpt><trkpt lat="42.9534486" lon="11.2592625"><ele>90.0</ele><time>2026-05-02T15:20:56.653Z</time></trkpt><trkpt lat="42.9535559" lon="11.2592312"><ele>90.8</ele><time>2026-05-02T15:20:57.649Z</time></trkpt><trkpt lat="42.9536591" lon="11.2591966"><ele>91.6</ele><time>2026-05-02T15:20:58.655Z</time></trkpt><trkpt lat="42.9537594" lon="11.259145"><ele>92.4</ele><time>2026-05-02T15:20:59.648Z</time></trkpt><trkpt lat="42.9538514" lon="11.2590691"><ele>93.2</ele><time>2026-05-02T15:21:00.652Z</time></trkpt><trkpt lat="42.9539423" lon="11.2589856"><ele>94.0</ele><time>2026-05-02T15:21:01.658Z</time></trkpt><trkpt lat="42.9540324" lon="11.2588986"><ele>94.5</ele><time>2026-05-02T15:21:02.668Z</time></trkpt><trkpt lat="42.9541219" lon="11.2588101"><ele>95.0</ele><time>2026-05-02T15:21:03.653Z</time></trkpt><trkpt lat="42.9542128" lon="11.2587198"><ele>95.5</ele><time>2026-05-02T15:21:04.662Z</time></trkpt><trkpt lat="42.9543082" lon="11.2586283"><ele>96.0</ele><time>2026-05-02T15:21:05.651Z</time></trkpt><trkpt lat="42.9544021" lon="11.258528"><ele>97.25</ele><time>2026-05-02T15:21:06.652Z</time></trkpt><trkpt lat="42.9544912" lon="11.258422"><ele>98.5</ele><time>2026-05-02T15:21:07.653Z</time></trkpt><trkpt lat="42.9545778" lon="11.2583091"><ele>99.75</ele><time>2026-05-02T15:21:08.662Z</time></trkpt><trkpt lat="42.9546609" lon="11.2581947"><ele>101.0</ele><time>2026-05-02T15:21:09.653Z</time></trkpt><trkpt lat="42.9547406" lon="11.258082"><ele>101.0</ele><time>2026-05-02T15:21:10.647Z</time></trkpt><trkpt lat="42.9548185" lon="11.2579753"><ele>101.0</ele><time>2026-05-02T15:21:11.667Z</time></trkpt><trkpt lat="42.954897" lon="11.2578737"><ele>101.0</ele><time>2026-05-02T15:21:12.661Z</time></trkpt><trkpt lat="42.954977" lon="11.2577679"><ele>101.0</ele><time>2026-05-02T15:21:13.658Z</time></trkpt><trkpt lat="42.9550523" lon="11.2576589"><ele>101.0</ele><time>2026-05-02T15:21:14.649Z</time></trkpt><trkpt lat="42.9551229" lon="11.257543"><ele>102.5</ele><time>2026-05-02T15:21:15.64Z</time></trkpt><trkpt lat="42.9551962" lon="11.2574288"><ele>104.0</ele><time>2026-05-02T15:21:16.661Z</time></trkpt><trkpt lat="42.9552787" lon="11.2573187"><ele>105.5</ele><time>2026-05-02T15:21:17.65Z</time></trkpt><trkpt lat="42.9553702" lon="11.2572185"><ele>107.0</ele><time>2026-05-02T15:21:18.671Z</time></trkpt><trkpt lat="42.9554647" lon="11.2571243"><ele>107.0</ele><time>2026-05-02T15:21:19.645Z</time></trkpt><trkpt lat="42.9555616" lon="11.2570285"><ele>107.0</ele><time>2026-05-02T15:21:20.644Z</time></trkpt><trkpt lat="42.9556589" lon="11.2569401"><ele>107.0</ele><time>2026-05-02T15:21:21.65Z</time></trkpt><trkpt lat="42.9557572" lon="11.2568504"><ele>107.0</ele><time>2026-05-02T15:21:22.651Z</time></trkpt><trkpt lat="42.9558507" lon="11.2567717"><ele>108.8</ele><time>2026-05-02T15:21:23.654Z</time></trkpt><trkpt lat="42.9559468" lon="11.256706"><ele>110.6</ele><time>2026-05-02T15:21:24.652Z</time></trkpt><trkpt lat="42.9560426" lon="11.2566592"><ele>112.39999999999999</ele><time>2026-05-02T15:21:25.646Z</time></trkpt><trkpt lat="42.9561393" lon="11.2566277"><ele>114.19999999999999</ele><time>2026-05-02T15:21:26.673Z</time></trkpt><trkpt lat="42.9562386" lon="11.2565976"><ele>116.0</ele><time>2026-05-02T15:21:27.656Z</time></trkpt><trkpt lat="42.9563406" lon="11.2565726"><ele>116.0</ele><time>2026-05-02T15:21:28.651Z</time></trkpt><trkpt lat="42.9564428" lon="11.2565509"><ele>116.0</ele><time>2026-05-02T15:21:29.653Z</time></trkpt><trkpt lat="42.9565482" lon="11.2565304"><ele>116.0</ele><time>2026-05-02T15:21:30.663Z</time></trkpt><trkpt lat="42.9566553" lon="11.2565089"><ele>116.0</ele><time>2026-05-02T15:21:31.654Z</time></trkpt><trkpt lat="42.9567631" lon="11.2564941"><ele>116.0</ele><time>2026-05-02T15:21:32.662Z</time></trkpt><trkpt lat="42.9568728" lon="11.2564915"><ele>117.4</ele><time>2026-05-02T15:21:33.657Z</time></trkpt><trkpt lat="42.9569846" lon="11.2564965"><ele>118.8</ele><time>2026-05-02T15:21:34.656Z</time></trkpt><trkpt lat="42.9570979" lon="11.2565142"><ele>120.20000000000002</ele><time>2026-05-02T15:21:35.644Z</time></trkpt><trkpt lat="42.9572059" lon="11.2565428"><ele>121.60000000000001</ele><time>2026-05-02T15:21:36.652Z</time></trkpt><trkpt lat="42.9573005" lon="11.2565878"><ele>123.0</ele><time>2026-05-02T15:21:37.644Z</time></trkpt><trkpt lat="42.9573848" lon="11.2566412"><ele>123.0</ele><time>2026-05-02T15:21:38.656Z</time></trkpt><trkpt lat="42.9574648" lon="11.2567094"><ele>123.00000000000001</ele><time>2026-05-02T15:21:39.645Z</time></trkpt><trkpt lat="42.9575525" lon="11.2567791"><ele>123.00000000000001</ele><time>2026-05-02T15:21:40.658Z</time></trkpt><trkpt lat="42.9576492" lon="11.2568333"><ele>123.0</ele><time>2026-05-02T15:21:41.653Z</time></trkpt><trkpt lat="42.9577532" lon="11.256883"><ele>123.0</ele><time>2026-05-02T15:21:42.662Z</time></trkpt><trkpt lat="42.9578612" lon="11.2569328"><ele>124.80000000000001</ele><time>2026-05-02T15:21:43.655Z</time></trkpt><trkpt lat="42.9579602" lon="11.2569916"><ele>126.60000000000001</ele><time>2026-05-02T15:21:44.648Z</time></trkpt><trkpt lat="42.9580639" lon="11.257042"><ele>128.39999999999998</ele><time>2026-05-02T15:21:45.646Z</time></trkpt><trkpt lat="42.9581702" lon="11.257077"><ele>130.2</ele><time>2026-05-02T15:21:46.66Z</time></trkpt><trkpt lat="42.9582799" lon="11.2570938"><ele>132.0</ele><time>2026-05-02T15:21:47.653Z</time></trkpt><trkpt lat="42.9583899" lon="11.2570946"><ele>133.0</ele><time>2026-05-02T15:21:48.652Z</time></trkpt><trkpt lat="42.9585023" lon="11.2570843"><ele>134.0</ele><time>2026-05-02T15:21:49.642Z</time></trkpt><trkpt lat="42.9586167" lon="11.257067"><ele>135.0</ele><time>2026-05-02T15:21:50.643Z</time></trkpt><trkpt lat="42.9587322" lon="11.2570462"><ele>136.0</ele><time>2026-05-02T15:21:51.659Z</time></trkpt><trkpt lat="42.9588451" lon="11.2570251"><ele>136.0</ele><time>2026-05-02T15:21:52.647Z</time></trkpt><trkpt lat="42.958948" lon="11.257003"><ele>136.0</ele><time>2026-05-02T15:21:53.648Z</time></trkpt><trkpt lat="42.9590407" lon="11.2569652"><ele>136.0</ele><time>2026-05-02T15:21:54.657Z</time></trkpt><trkpt lat="42.9591264" lon="11.2569101"><ele>136.0</ele><time>2026-05-02T15:21:55.647Z</time></trkpt><trkpt lat="42.9592022" lon="11.2568354"><ele>136.0</ele><time>2026-05-02T15:21:56.653Z</time></trkpt><trkpt lat="42.9592682" lon="11.256749"><ele>136.5</ele><time>2026-05-02T15:21:57.648Z</time></trkpt><trkpt lat="42.9593233" lon="11.2566722"><ele>137.0</ele><time>2026-05-02T15:21:58.664Z</time></trkpt><trkpt lat="42.9593666" lon="11.2565903"><ele>137.5</ele><time>2026-05-02T15:21:59.659Z</time></trkpt><trkpt lat="42.9594038" lon="11.2564992"><ele>138.0</ele><time>2026-05-02T15:22:00.665Z</time></trkpt><trkpt lat="42.9594412" lon="11.2564038"><ele>138.5</ele><time>2026-05-02T15:22:01.652Z</time></trkpt><trkpt lat="42.9594865" lon="11.2563169"><ele>139.0</ele><time>2026-05-02T15:22:02.659Z</time></trkpt><trkpt lat="42.9595398" lon="11.2562449"><ele>139.0</ele><time>2026-05-02T15:22:03.649Z</time></trkpt><trkpt lat="42.9596072" lon="11.2561823"><ele>139.0</ele><time>2026-05-02T15:22:04.658Z</time></trkpt><trkpt lat="42.9596819" lon="11.256135"><ele>139.0</ele><time>2026-05-02T15:22:05.654Z</time></trkpt><trkpt lat="42.9597565" lon="11.2561107"><ele>139.0</ele><time>2026-05-02T15:22:06.655Z</time></trkpt><trkpt lat="42.9598433" lon="11.2560912"><ele>139.0</ele><time>2026-05-02T15:22:07.645Z</time></trkpt><trkpt lat="42.9599391" lon="11.256066"><ele>139.0</ele><time>2026-05-02T15:22:08.655Z</time></trkpt><trkpt lat="42.9600446" lon="11.2560515"><ele>138.33333333333334</ele><time>2026-05-02T15:22:09.646Z</time></trkpt><trkpt lat="42.9601453" lon="11.2560434"><ele>137.66666666666669</ele><time>2026-05-02T15:22:10.667Z</time></trkpt><trkpt lat="42.9602385" lon="11.2560381"><ele>137.0</ele><time>2026-05-02T15:22:11.651Z</time></trkpt><trkpt lat="42.9603266" lon="11.2560409"><ele>136.33333333333334</ele><time>2026-05-02T15:22:12.655Z</time></trkpt><trkpt lat="42.9604076" lon="11.2560522"><ele>135.66666666666666</ele><time>2026-05-02T15:22:13.647Z</time></trkpt><trkpt lat="42.9604877" lon="11.2560383"><ele>135.0</ele><time>2026-05-02T15:22:14.66Z</time></trkpt><trkpt lat="42.9605645" lon="11.2559997"><ele>135.0</ele><time>2026-05-02T15:22:15.642Z</time></trkpt><trkpt lat="42.9606406" lon="11.2559321"><ele>135.0</ele><time>2026-05-02T15:22:16.648Z</time></trkpt><trkpt lat="42.9607253" lon="11.2558522"><ele>135.0</ele><time>2026-05-02T15:22:17.65Z</time></trkpt><trkpt lat="42.9608096" lon="11.2557811"><ele>135.0</ele><time>2026-05-02T15:22:18.643Z</time></trkpt><trkpt lat="42.9608871" lon="11.2557193"><ele>135.0</ele><time>2026-05-02T15:22:19.653Z</time></trkpt><trkpt lat="42.9609658" lon="11.2556715"><ele>134.5</ele><time>2026-05-02T15:22:20.65Z</time></trkpt><trkpt lat="42.9610472" lon="11.2556315"><ele>134.0</ele><time>2026-05-02T15:22:21.643Z</time></trkpt><trkpt lat="42.9611295" lon="11.2555943"><ele>133.5</ele><time>2026-05-02T15:22:22.652Z</time></trkpt><trkpt lat="42.9612155" lon="11.2555635"><ele>133.0</ele><time>2026-05-02T15:22:23.657Z</time></trkpt><trkpt lat="42.9613033" lon="11.2555422"><ele>132.5</ele><time>2026-05-02T15:22:24.657Z</time></trkpt><trkpt lat="42.9613936" lon="11.255535"><ele>132.0</ele><time>2026-05-02T15:22:25.657Z</time></trkpt><trkpt lat="42.9614911" lon="11.2555223"><ele>132.2</ele><time>2026-05-02T15:22:26.65Z</time></trkpt><trkpt lat="42.9615881" lon="11.2555064"><ele>132.39999999999998</ele><time>2026-05-02T15:22:27.653Z</time></trkpt><trkpt lat="42.9616808" lon="11.2554856"><ele>132.60000000000002</ele><time>2026-05-02T15:22:28.66Z</time></trkpt><trkpt lat="42.9617731" lon="11.2554719"><ele>132.8</ele><time>2026-05-02T15:22:29.645Z</time></trkpt><trkpt lat="42.9618653" lon="11.2554773"><ele>133.0</ele><time>2026-05-02T15:22:30.649Z</time></trkpt><trkpt lat="42.9619581" lon="11.2554962"><ele>133.0</ele><time>2026-05-02T15:22:31.65Z</time></trkpt><trkpt lat="42.9620532" lon="11.255543"><ele>133.0</ele><time>2026-05-02T15:22:32.643Z</time></trkpt><trkpt lat="42.9621486" lon="11.2555989"><ele>133.0</ele><time>2026-05-02T15:22:33.657Z</time></trkpt><trkpt lat="42.9622431" lon="11.2556503"><ele>133.0</ele><time>2026-05-02T15:22:34.643Z</time></trkpt><trkpt lat="42.9623332" lon="11.2556863"><ele>133.0</ele><time>2026-05-02T15:22:35.665Z</time></trkpt><trkpt lat="42.96242" lon="11.2556907"><ele>133.20000000000002</ele><time>2026-05-02T15:22:36.65Z</time></trkpt><trkpt lat="42.9624932" lon="11.2556659"><ele>133.4</ele><time>2026-05-02T15:22:37.65Z</time></trkpt><trkpt lat="42.9625635" lon="11.2555937"><ele>133.60000000000002</ele><time>2026-05-02T15:22:38.657Z</time></trkpt><trkpt lat="42.9626292" lon="11.2554995"><ele>133.8</ele><time>2026-05-02T15:22:39.649Z</time></trkpt><trkpt lat="42.9626826" lon="11.2553821"><ele>134.0</ele><time>2026-05-02T15:22:40.663Z</time></trkpt><trkpt lat="42.9627132" lon="11.25526"><ele>135.5</ele><time>2026-05-02T15:22:41.643Z</time></trkpt><trkpt lat="42.9627193" lon="11.2551394"><ele>137.0</ele><time>2026-05-02T15:22:42.647Z</time></trkpt><trkpt lat="42.9627057" lon="11.2550172"><ele>138.5</ele><time>2026-05-02T15:22:43.659Z</time></trkpt><trkpt lat="42.9626869" lon="11.2548995"><ele>140.0</ele><time>2026-05-02T15:22:44.661Z</time></trkpt><trkpt lat="42.9626792" lon="11.2547781"><ele>141.5</ele><time>2026-05-02T15:22:45.649Z</time></trkpt><trkpt lat="42.9626845" lon="11.2546663"><ele>143.0</ele><time>2026-05-02T15:22:46.649Z</time></trkpt><trkpt lat="42.9627016" lon="11.2545681"><ele>143.33333333333331</ele><time>2026-05-02T15:22:47.655Z</time></trkpt><trkpt lat="42.962736" lon="11.2544753"><ele>143.66666666666666</ele><time>2026-05-02T15:22:48.641Z</time></trkpt><trkpt lat="42.9627779" lon="11.2543894"><ele>144.0</ele><time>2026-05-02T15:22:49.649Z</time></trkpt><trkpt lat="42.9628201" lon="11.2542894"><ele>144.33333333333334</ele><time>2026-05-02T15:22:50.644Z</time></trkpt><trkpt lat="42.9628685" lon="11.2541807"><ele>144.66666666666669</ele><time>2026-05-02T15:22:51.642Z</time></trkpt><trkpt lat="42.9629324" lon="11.2540664"><ele>145.0</ele><time>2026-05-02T15:22:52.645Z</time></trkpt><trkpt lat="42.9630014" lon="11.2539586"><ele>145.0</ele><time>2026-05-02T15:22:53.652Z</time></trkpt><trkpt lat="42.9630803" lon="11.2538582"><ele>145.0</ele><time>2026-05-02T15:22:54.649Z</time></trkpt><trkpt lat="42.9631496" lon="11.2537561"><ele>145.0</ele><time>2026-05-02T15:22:55.65Z</time></trkpt><trkpt lat="42.9632111" lon="11.2536481"><ele>145.0</ele><time>2026-05-02T15:22:56.65Z</time></trkpt><trkpt lat="42.9632736" lon="11.2535434"><ele>145.0</ele><time>2026-05-02T15:22:57.641Z</time></trkpt><trkpt lat="42.9633367" lon="11.2534398"><ele>145.2</ele><time>2026-05-02T15:22:58.651Z</time></trkpt><trkpt lat="42.9633982" lon="11.2533253"><ele>145.4</ele><time>2026-05-02T15:22:59.645Z</time></trkpt><trkpt lat="42.9634589" lon="11.2532125"><ele>145.6</ele><time>2026-05-02T15:23:00.656Z</time></trkpt><trkpt lat="42.9635157" lon="11.2530997"><ele>145.8</ele><time>2026-05-02T15:23:01.646Z</time></trkpt><trkpt lat="42.9635738" lon="11.2529982"><ele>146.0</ele><time>2026-05-02T15:23:02.653Z</time></trkpt><trkpt lat="42.9636399" lon="11.2529136"><ele>146.0</ele><time>2026-05-02T15:23:03.648Z</time></trkpt><trkpt lat="42.9637175" lon="11.2528509"><ele>146.0</ele><time>2026-05-02T15:23:04.643Z</time></trkpt><trkpt lat="42.9638143" lon="11.2527941"><ele>146.0</ele><time>2026-05-02T15:23:05.636Z</time></trkpt><trkpt lat="42.9639138" lon="11.2527317"><ele>146.0</ele><time>2026-05-02T15:23:06.664Z</time></trkpt><trkpt lat="42.9640159" lon="11.2526603"><ele>146.0</ele><time>2026-05-02T15:23:07.647Z</time></trkpt><trkpt lat="42.9641223" lon="11.2526005"><ele>145.5</ele><time>2026-05-02T15:23:08.651Z</time></trkpt><trkpt lat="42.9642342" lon="11.2525434"><ele>145.0</ele><time>2026-05-02T15:23:09.643Z</time></trkpt><trkpt lat="42.9643506" lon="11.2524852"><ele>144.5</ele><time>2026-05-02T15:23:10.657Z</time></trkpt><trkpt lat="42.9644682" lon="11.2524212"><ele>144.0</ele><time>2026-05-02T15:23:11.648Z</time></trkpt><trkpt lat="42.9645859" lon="11.2523356"><ele>143.5</ele><time>2026-05-02T15:23:12.654Z</time></trkpt><trkpt lat="42.9647043" lon="11.252234"><ele>143.0</ele><time>2026-05-02T15:23:13.65Z</time></trkpt><trkpt lat="42.9648193" lon="11.252123"><ele>142.5</ele><time>2026-05-02T15:23:14.646Z</time></trkpt><trkpt lat="42.9649253" lon="11.2520122"><ele>142.0</ele><time>2026-05-02T15:23:15.655Z</time></trkpt><trkpt lat="42.9650249" lon="11.2518982"><ele>143.0</ele><time>2026-05-02T15:23:16.65Z</time></trkpt><trkpt lat="42.9651259" lon="11.2517811"><ele>144.0</ele><time>2026-05-02T15:23:17.647Z</time></trkpt><trkpt lat="42.9652229" lon="11.2516612"><ele>145.0</ele><time>2026-05-02T15:23:18.652Z</time></trkpt><trkpt lat="42.9653228" lon="11.2515395"><ele>146.0</ele><time>2026-05-02T15:23:19.646Z</time></trkpt><trkpt lat="42.9654268" lon="11.2514215"><ele>146.25</ele><time>2026-05-02T15:23:20.652Z</time></trkpt><trkpt lat="42.965533" lon="11.2513159"><ele>146.5</ele><time>2026-05-02T15:23:21.659Z</time></trkpt><trkpt lat="42.9656287" lon="11.2512202"><ele>146.75</ele><time>2026-05-02T15:23:22.652Z</time></trkpt><trkpt lat="42.9657218" lon="11.2511415"><ele>147.0</ele><time>2026-05-02T15:23:23.647Z</time></trkpt><trkpt lat="42.9658208" lon="11.2510791"><ele>147.0</ele><time>2026-05-02T15:23:24.655Z</time></trkpt><trkpt lat="42.9659224" lon="11.2510213"><ele>147.0</ele><time>2026-05-02T15:23:25.649Z</time></trkpt><trkpt lat="42.9660159" lon="11.2509581"><ele>147.0</ele><time>2026-05-02T15:23:26.651Z</time></trkpt><trkpt lat="42.9660963" lon="11.2509114"><ele>147.0</ele><time>2026-05-02T15:23:27.651Z</time></trkpt><trkpt lat="42.9661623" lon="11.2508636"><ele>147.0</ele><time>2026-05-02T15:23:28.66Z</time></trkpt><trkpt lat="42.9662056" lon="11.2507492"><ele>147.0</ele><time>2026-05-02T15:23:30.652Z</time></trkpt><trkpt lat="42.9661515" lon="11.2506253"><ele>147.0</ele><time>2026-05-02T15:23:32.662Z</time></trkpt><trkpt lat="42.9661092" lon="11.2505606"><ele>147.0</ele><time>2026-05-02T15:23:33.653Z</time></trkpt><trkpt lat="42.9660529" lon="11.2504399"><ele>147.0</ele><time>2026-05-02T15:23:35.647Z</time></trkpt><trkpt lat="42.9660117" lon="11.2503487"><ele>147.0</ele><time>2026-05-02T15:26:23.649Z</time></trkpt><trkpt lat="42.9659732" lon="11.2502482"><ele>147.0</ele><time>2026-05-02T15:26:25.642Z</time></trkpt><trkpt lat="42.9658818" lon="11.2501298"><ele>146.4</ele><time>2026-05-02T15:26:27.65Z</time></trkpt><trkpt lat="42.9657529" lon="11.250085"><ele>145.79999999999998</ele><time>2026-05-02T15:26:29.65Z</time></trkpt><trkpt lat="42.9656744" lon="11.2501018"><ele>145.2</ele><time>2026-05-02T15:26:30.658Z</time></trkpt><trkpt lat="42.9655865" lon="11.2501122"><ele>144.6</ele><time>2026-05-02T15:26:31.648Z</time></trkpt><trkpt lat="42.9654847" lon="11.2501121"><ele>144.0</ele><time>2026-05-02T15:26:32.653Z</time></trkpt><trkpt lat="42.9653707" lon="11.2501072"><ele>144.0</ele><time>2026-05-02T15:26:33.647Z</time></trkpt><trkpt lat="42.965248" lon="11.2501024"><ele>144.0</ele><time>2026-05-02T15:26:34.658Z</time></trkpt><trkpt lat="42.9651154" lon="11.2500977"><ele>144.0</ele><time>2026-05-02T15:26:35.647Z</time></trkpt><trkpt lat="42.9649824" lon="11.2500948"><ele>144.0</ele><time>2026-05-02T15:26:36.64Z</time></trkpt><trkpt lat="42.964853" lon="11.2500986"><ele>143.0</ele><time>2026-05-02T15:26:37.658Z</time></trkpt><trkpt lat="42.9647346" lon="11.2501021"><ele>142.0</ele><time>2026-05-02T15:26:38.651Z</time></trkpt><trkpt lat="42.9646237" lon="11.250101"><ele>141.0</ele><time>2026-05-02T15:26:39.664Z</time></trkpt><trkpt lat="42.9645177" lon="11.2501039"><ele>140.0</ele><time>2026-05-02T15:26:40.649Z</time></trkpt><trkpt lat="42.9644201" lon="11.2500943"><ele>139.0</ele><time>2026-05-02T15:26:41.65Z</time></trkpt><trkpt lat="42.9643209" lon="11.2500785"><ele>139.0</ele><time>2026-05-02T15:26:42.65Z</time></trkpt><trkpt lat="42.9642246" lon="11.2500465"><ele>139.0</ele><time>2026-05-02T15:26:43.647Z</time></trkpt><trkpt lat="42.9641374" lon="11.2500029"><ele>139.0</ele><time>2026-05-02T15:26:44.652Z</time></trkpt><trkpt lat="42.9640502" lon="11.2499476"><ele>139.0</ele><time>2026-05-02T15:26:45.663Z</time></trkpt><trkpt lat="42.9639492" lon="11.2498891"><ele>139.0</ele><time>2026-05-02T15:26:46.659Z</time></trkpt><trkpt lat="42.9638385" lon="11.2498218"><ele>136.75</ele><time>2026-05-02T15:26:47.664Z</time></trkpt><trkpt lat="42.9637265" lon="11.2497555"><ele>134.5</ele><time>2026-05-02T15:26:48.642Z</time></trkpt><trkpt lat="42.963622" lon="11.24969"><ele>132.25</ele><time>2026-05-02T15:26:49.671Z</time></trkpt><trkpt lat="42.9635186" lon="11.249638"><ele>130.0</ele><time>2026-05-02T15:26:50.645Z</time></trkpt><trkpt lat="42.9634172" lon="11.2495878"><ele>131.6</ele><time>2026-05-02T15:26:51.651Z</time></trkpt><trkpt lat="42.9633097" lon="11.2495466"><ele>133.2</ele><time>2026-05-02T15:26:52.651Z</time></trkpt><trkpt lat="42.9632029" lon="11.2495109"><ele>134.8</ele><time>2026-05-02T15:26:53.652Z</time></trkpt><trkpt lat="42.9630984" lon="11.2494898"><ele>136.4</ele><time>2026-05-02T15:26:54.656Z</time></trkpt><trkpt lat="42.9629898" lon="11.2494841"><ele>138.0</ele><time>2026-05-02T15:26:55.641Z</time></trkpt><trkpt lat="42.9628691" lon="11.2495071"><ele>138.0</ele><time>2026-05-02T15:26:56.651Z</time></trkpt><trkpt lat="42.9627445" lon="11.2495439"><ele>138.0</ele><time>2026-05-02T15:26:57.656Z</time></trkpt><trkpt lat="42.9626261" lon="11.2495795"><ele>138.0</ele><time>2026-05-02T15:26:58.655Z</time></trkpt><trkpt lat="42.9625186" lon="11.2496185"><ele>138.0</ele><time>2026-05-02T15:26:59.644Z</time></trkpt><trkpt lat="42.9624146" lon="11.249661"><ele>137.83333333333334</ele><time>2026-05-02T15:27:00.661Z</time></trkpt><trkpt lat="42.9623199" lon="11.2497073"><ele>137.66666666666666</ele><time>2026-05-02T15:27:01.651Z</time></trkpt><trkpt lat="42.9622311" lon="11.2497488"><ele>137.5</ele><time>2026-05-02T15:27:02.66Z</time></trkpt><trkpt lat="42.9621412" lon="11.249773"><ele>137.33333333333331</ele><time>2026-05-02T15:27:03.653Z</time></trkpt><trkpt lat="42.9620576" lon="11.2497573"><ele>137.16666666666666</ele><time>2026-05-02T15:27:04.647Z</time></trkpt><trkpt lat="42.9619864" lon="11.2497112"><ele>137.0</ele><time>2026-05-02T15:27:05.651Z</time></trkpt><trkpt lat="42.9619241" lon="11.2496512"><ele>137.0</ele><time>2026-05-02T15:27:06.643Z</time></trkpt><trkpt lat="42.9618435" lon="11.2495694"><ele>137.0</ele><time>2026-05-02T15:27:07.652Z</time></trkpt><trkpt lat="42.961756" lon="11.2494673"><ele>137.0</ele><time>2026-05-02T15:27:08.64Z</time></trkpt><trkpt lat="42.9616658" lon="11.2493596"><ele>137.0</ele><time>2026-05-02T15:27:09.644Z</time></trkpt><trkpt lat="42.9615775" lon="11.2492566"><ele>136.79999999999998</ele><time>2026-05-02T15:27:10.651Z</time></trkpt><trkpt lat="42.9614911" lon="11.24915"><ele>136.6</ele><time>2026-05-02T15:27:11.655Z</time></trkpt><trkpt lat="42.9614155" lon="11.249039"><ele>136.39999999999998</ele><time>2026-05-02T15:27:12.643Z</time></trkpt><trkpt lat="42.9613392" lon="11.2489326"><ele>136.2</ele><time>2026-05-02T15:27:13.64Z</time></trkpt><trkpt lat="42.9612697" lon="11.2488223"><ele>136.0</ele><time>2026-05-02T15:27:14.652Z</time></trkpt><trkpt lat="42.9612019" lon="11.2487115"><ele>134.0</ele><time>2026-05-02T15:27:15.65Z</time></trkpt><trkpt lat="42.9611332" lon="11.2486037"><ele>132.0</ele><time>2026-05-02T15:27:16.641Z</time></trkpt><trkpt lat="42.9610601" lon="11.2484954"><ele>130.0</ele><time>2026-05-02T15:27:17.654Z</time></trkpt><trkpt lat="42.9609913" lon="11.2483863"><ele>128.0</ele><time>2026-05-02T15:27:18.659Z</time></trkpt><trkpt lat="42.960931" lon="11.2482845"><ele>126.0</ele><time>2026-05-02T15:27:19.651Z</time></trkpt><trkpt lat="42.960871" lon="11.2481955"><ele>127.0</ele><time>2026-05-02T15:27:20.647Z</time></trkpt><trkpt lat="42.9607957" lon="11.2481196"><ele>128.0</ele><time>2026-05-02T15:27:21.657Z</time></trkpt><trkpt lat="42.9607085" lon="11.2480576"><ele>129.0</ele><time>2026-05-02T15:27:22.666Z</time></trkpt><trkpt lat="42.9606201" lon="11.2479873"><ele>130.0</ele><time>2026-05-02T15:27:23.66Z</time></trkpt><trkpt lat="42.9605363" lon="11.2479122"><ele>131.0</ele><time>2026-05-02T15:27:24.651Z</time></trkpt><trkpt lat="42.960454" lon="11.2478442"><ele>131.0</ele><time>2026-05-02T15:27:25.663Z</time></trkpt><trkpt lat="42.9603838" lon="11.2477812"><ele>131.0</ele><time>2026-05-02T15:27:26.635Z</time></trkpt><trkpt lat="42.9603136" lon="11.247736"><ele>131.0</ele><time>2026-05-02T15:27:27.658Z</time></trkpt><trkpt lat="42.9602465" lon="11.2476982"><ele>131.0</ele><time>2026-05-02T15:27:28.648Z</time></trkpt><trkpt lat="42.9601762" lon="11.2476637"><ele>131.0</ele><time>2026-05-02T15:27:29.65Z</time></trkpt><trkpt lat="42.9600943" lon="11.2476395"><ele>131.0</ele><time>2026-05-02T15:27:30.646Z</time></trkpt><trkpt lat="42.960006" lon="11.2476082"><ele>130.8</ele><time>2026-05-02T15:27:31.651Z</time></trkpt><trkpt lat="42.9599174" lon="11.2475732"><ele>130.6</ele><time>2026-05-02T15:27:32.654Z</time></trkpt><trkpt lat="42.9598275" lon="11.2475372"><ele>130.4</ele><time>2026-05-02T15:27:33.661Z</time></trkpt><trkpt lat="42.9597416" lon="11.247498"><ele>130.2</ele><time>2026-05-02T15:27:34.647Z</time></trkpt><trkpt lat="42.9596581" lon="11.2474603"><ele>130.0</ele><time>2026-05-02T15:27:35.652Z</time></trkpt><trkpt lat="42.9595717" lon="11.2474324"><ele>130.0</ele><time>2026-05-02T15:27:36.642Z</time></trkpt><trkpt lat="42.9594838" lon="11.2474117"><ele>130.0</ele><time>2026-05-02T15:27:37.644Z</time></trkpt><trkpt lat="42.9593953" lon="11.2473931"><ele>130.0</ele><time>2026-05-02T15:27:38.655Z</time></trkpt><trkpt lat="42.9593131" lon="11.2473773"><ele>130.0</ele><time>2026-05-02T15:27:39.665Z</time></trkpt><trkpt lat="42.9592358" lon="11.2473672"><ele>130.0</ele><time>2026-05-02T15:27:40.651Z</time></trkpt><trkpt lat="42.9591715" lon="11.2473532"><ele>130.0</ele><time>2026-05-02T15:27:41.655Z</time></trkpt><trkpt lat="42.9590652" lon="11.2473097"><ele>128.5</ele><time>2026-05-02T15:27:43.658Z</time></trkpt><trkpt lat="42.9589363" lon="11.2472618"><ele>127.0</ele><time>2026-05-02T15:27:45.65Z</time></trkpt><trkpt lat="42.9588568" lon="11.2472365"><ele>125.5</ele><time>2026-05-02T15:27:46.655Z</time></trkpt><trkpt lat="42.9587823" lon="11.2472191"><ele>124.0</ele><time>2026-05-02T15:27:47.654Z</time></trkpt><trkpt lat="42.9587131" lon="11.2472191"><ele>122.50000000000001</ele><time>2026-05-02T15:27:48.653Z</time></trkpt><trkpt lat="42.958643" lon="11.2472443"><ele>121.0</ele><time>2026-05-02T15:27:49.65Z</time></trkpt><trkpt lat="42.9585687" lon="11.2472861"><ele>121.00000000000001</ele><time>2026-05-02T15:27:50.657Z</time></trkpt><trkpt lat="42.9584943" lon="11.2473345"><ele>121.0</ele><time>2026-05-02T15:27:51.662Z</time></trkpt><trkpt lat="42.9584256" lon="11.2473835"><ele>121.0</ele><time>2026-05-02T15:27:52.663Z</time></trkpt><trkpt lat="42.9583562" lon="11.2474339"><ele>121.0</ele><time>2026-05-02T15:27:53.654Z</time></trkpt><trkpt lat="42.9582973" lon="11.2474781"><ele>121.00000000000001</ele><time>2026-05-02T15:27:54.662Z</time></trkpt><trkpt lat="42.9581921" lon="11.24752"><ele>121.0</ele><time>2026-05-02T15:27:56.652Z</time></trkpt><trkpt lat="42.9580698" lon="11.2475029"><ele>119.50000000000001</ele><time>2026-05-02T15:27:58.653Z</time></trkpt><trkpt lat="42.9579811" lon="11.2474188"><ele>118.0</ele><time>2026-05-02T15:28:00.655Z</time></trkpt><trkpt lat="42.9579146" lon="11.2473361"><ele>116.5</ele><time>2026-05-02T15:28:02.656Z</time></trkpt><trkpt lat="42.9578565" lon="11.2472632"><ele>115.0</ele><time>2026-05-02T15:28:04.66Z</time></trkpt><trkpt lat="42.9577954" lon="11.247202"><ele>113.50000000000001</ele><time>2026-05-02T15:28:06.645Z</time></trkpt><trkpt lat="42.9577399" lon="11.2471568"><ele>112.0</ele><time>2026-05-02T15:28:08.645Z</time></trkpt><trkpt lat="42.9576731" lon="11.2471165"><ele>111.19999999999999</ele><time>2026-05-02T15:28:10.648Z</time></trkpt><trkpt lat="42.9575873" lon="11.2470544"><ele>110.39999999999999</ele><time>2026-05-02T15:28:12.652Z</time></trkpt><trkpt lat="42.9574813" lon="11.2469727"><ele>109.60000000000001</ele><time>2026-05-02T15:28:14.649Z</time></trkpt><trkpt lat="42.9573889" lon="11.2469068"><ele>108.80000000000001</ele><time>2026-05-02T15:28:16.644Z</time></trkpt><trkpt lat="42.9573143" lon="11.2468632"><ele>108.0</ele><time>2026-05-02T15:28:18.644Z</time></trkpt><trkpt lat="42.9572275" lon="11.2468319"><ele>106.83333333333333</ele><time>2026-05-02T15:28:21.653Z</time></trkpt><trkpt lat="42.9571599" lon="11.2468458"><ele>105.66666666666666</ele><time>2026-05-02T15:28:23.648Z</time></trkpt><trkpt lat="42.9571115" lon="11.2469323"><ele>104.5</ele><time>2026-05-02T15:28:26.653Z</time></trkpt><trkpt lat="42.9571827" lon="11.2469453"><ele>103.33333333333333</ele><time>2026-05-02T15:28:30.654Z</time></trkpt><trkpt lat="42.9571958" lon="11.2468262"><ele>102.16666666666666</ele><time>2026-05-02T15:28:34.654Z</time></trkpt><trkpt lat="42.9571998" lon="11.246695"><ele>101.0</ele><time>2026-05-02T15:28:37.651Z</time></trkpt><trkpt lat="42.9571643" lon="11.2465362"><ele>99.99999999999999</ele><time>2026-05-02T15:28:39.648Z</time></trkpt><trkpt lat="42.9571085" lon="11.2464474"><ele>99.0</ele><time>2026-05-02T15:28:40.646Z</time></trkpt><trkpt lat="42.9570395" lon="11.2463703"><ele>98.0</ele><time>2026-05-02T15:28:41.657Z</time></trkpt><trkpt lat="42.9569596" lon="11.2463052"><ele>97.0</ele><time>2026-05-02T15:28:42.653Z</time></trkpt><trkpt lat="42.9568808" lon="11.2462429"><ele>96.0</ele><time>2026-05-02T15:28:43.643Z</time></trkpt><trkpt lat="42.9568025" lon="11.2461858"><ele>95.0</ele><time>2026-05-02T15:28:44.648Z</time></trkpt><trkpt lat="42.9567288" lon="11.2461253"><ele>94.5</ele><time>2026-05-02T15:28:45.65Z</time></trkpt><trkpt lat="42.9566515" lon="11.2460682"><ele>94.0</ele><time>2026-05-02T15:28:46.65Z</time></trkpt><trkpt lat="42.9565855" lon="11.2460043"><ele>93.5</ele><time>2026-05-02T15:28:47.64Z</time></trkpt><trkpt lat="42.9565309" lon="11.2459339"><ele>93.0</ele><time>2026-05-02T15:28:48.655Z</time></trkpt><trkpt lat="42.9565007" lon="11.2458456"><ele>92.5</ele><time>2026-05-02T15:28:49.651Z</time></trkpt><trkpt lat="42.9564968" lon="11.245754"><ele>92.0</ele><time>2026-05-02T15:28:50.644Z</time></trkpt><trkpt lat="42.956516" lon="11.2456307"><ele>90.8</ele><time>2026-05-02T15:28:51.649Z</time></trkpt><trkpt lat="42.9565598" lon="11.2454972"><ele>89.6</ele><time>2026-05-02T15:28:52.659Z</time></trkpt><trkpt lat="42.9566095" lon="11.2453776"><ele>88.39999999999999</ele><time>2026-05-02T15:28:53.647Z</time></trkpt><trkpt lat="42.9566472" lon="11.2452765"><ele>87.19999999999999</ele><time>2026-05-02T15:28:54.66Z</time></trkpt><trkpt lat="42.9566053" lon="11.2451312"><ele>86.0</ele><time>2026-05-02T15:28:56.659Z</time></trkpt><trkpt lat="42.9565464" lon="11.2450576"><ele>86.0</ele><time>2026-05-02T15:28:57.652Z</time></trkpt><trkpt lat="42.9564759" lon="11.2449673"><ele>86.0</ele><time>2026-05-02T15:28:58.661Z</time></trkpt><trkpt lat="42.9563926" lon="11.2448579"><ele>86.0</ele><time>2026-05-02T15:28:59.652Z</time></trkpt><trkpt lat="42.9563026" lon="11.244735"><ele>86.0</ele><time>2026-05-02T15:29:00.661Z</time></trkpt><trkpt lat="42.9562082" lon="11.24461"><ele>85.5</ele><time>2026-05-02T15:29:01.656Z</time></trkpt><trkpt lat="42.9561173" lon="11.2444987"><ele>85.0</ele><time>2026-05-02T15:29:02.655Z</time></trkpt><trkpt lat="42.9560484" lon="11.2444102"><ele>84.5</ele><time>2026-05-02T15:29:03.651Z</time></trkpt><trkpt lat="42.956004" lon="11.2443461"><ele>84.0</ele><time>2026-05-02T15:29:04.657Z</time></trkpt><trkpt lat="42.9560182" lon="11.2442355"><ele>83.5</ele><time>2026-05-02T15:29:06.662Z</time></trkpt><trkpt lat="42.9560698" lon="11.2441732"><ele>83.0</ele><time>2026-05-02T15:29:07.657Z</time></trkpt><trkpt lat="42.9561411" lon="11.2440942"><ele>83.0</ele><time>2026-05-02T15:29:08.648Z</time></trkpt><trkpt lat="42.9562219" lon="11.2440077"><ele>83.0</ele><time>2026-05-02T15:29:09.639Z</time></trkpt><trkpt lat="42.9562822" lon="11.2439174"><ele>83.0</ele><time>2026-05-02T15:29:10.649Z</time></trkpt><trkpt lat="42.9563125" lon="11.2438268"><ele>83.0</ele><time>2026-05-02T15:29:11.643Z</time></trkpt><trkpt lat="42.9563161" lon="11.2437396"><ele>83.0</ele><time>2026-05-02T15:29:12.652Z</time></trkpt><trkpt lat="42.956265" lon="11.2436265"><ele>83.0</ele><time>2026-05-02T15:29:14.654Z</time></trkpt><trkpt lat="42.9561987" lon="11.2435663"><ele>82.83333333333334</ele><time>2026-05-02T15:29:16.654Z</time></trkpt><trkpt lat="42.9561299" lon="11.2434821"><ele>82.66666666666667</ele><time>2026-05-02T15:29:18.648Z</time></trkpt><trkpt lat="42.9561098" lon="11.2433332"><ele>82.5</ele><time>2026-05-02T15:29:20.65Z</time></trkpt><trkpt lat="42.9561263" lon="11.2432471"><ele>82.33333333333333</ele><time>2026-05-02T15:29:21.645Z</time></trkpt><trkpt lat="42.9561538" lon="11.2431553"><ele>82.16666666666666</ele><time>2026-05-02T15:29:22.648Z</time></trkpt><trkpt lat="42.9561901" lon="11.2430517"><ele>82.0</ele><time>2026-05-02T15:29:23.643Z</time></trkpt><trkpt lat="42.956233" lon="11.2429365"><ele>82.0</ele><time>2026-05-02T15:29:24.653Z</time></trkpt><trkpt lat="42.9562734" lon="11.2428101"><ele>82.0</ele><time>2026-05-02T15:29:25.634Z</time></trkpt><trkpt lat="42.9563059" lon="11.2426759"><ele>82.0</ele><time>2026-05-02T15:29:26.657Z</time></trkpt><trkpt lat="42.9563423" lon="11.242534"><ele>82.0</ele><time>2026-05-02T15:29:27.646Z</time></trkpt><trkpt lat="42.9563778" lon="11.2423772"><ele>82.0</ele><time>2026-05-02T15:29:28.654Z</time></trkpt><trkpt lat="42.9564072" lon="11.24222"><ele>82.25</ele><time>2026-05-02T15:29:29.646Z</time></trkpt><trkpt lat="42.9564381" lon="11.242056"><ele>82.5</ele><time>2026-05-02T15:29:30.648Z</time></trkpt><trkpt lat="42.9564651" lon="11.2418876"><ele>82.75</ele><time>2026-05-02T15:29:31.645Z</time></trkpt><trkpt lat="42.9564873" lon="11.2417131"><ele>83.0</ele><time>2026-05-02T15:29:32.652Z</time></trkpt><trkpt lat="42.9565099" lon="11.2415389"><ele>83.5</ele><time>2026-05-02T15:29:33.651Z</time></trkpt><trkpt lat="42.9565318" lon="11.2413622"><ele>84.0</ele><time>2026-05-02T15:29:34.643Z</time></trkpt><trkpt lat="42.9565523" lon="11.2411879"><ele>84.5</ele><time>2026-05-02T15:29:35.64Z</time></trkpt><trkpt lat="42.9565762" lon="11.2410182"><ele>85.0</ele><time>2026-05-02T15:29:36.633Z</time></trkpt><trkpt lat="42.9566051" lon="11.2408448"><ele>85.0</ele><time>2026-05-02T15:29:37.653Z</time></trkpt><trkpt lat="42.9566391" lon="11.2406708"><ele>85.0</ele><time>2026-05-02T15:29:38.644Z</time></trkpt><trkpt lat="42.9566781" lon="11.2404918"><ele>85.0</ele><time>2026-05-02T15:29:39.643Z</time></trkpt><trkpt lat="42.9567128" lon="11.24031"><ele>85.0</ele><time>2026-05-02T15:29:40.65Z</time></trkpt><trkpt lat="42.9567488" lon="11.2401228"><ele>84.75</ele><time>2026-05-02T15:29:41.65Z</time></trkpt><trkpt lat="42.9567816" lon="11.2399335"><ele>84.5</ele><time>2026-05-02T15:29:42.647Z</time></trkpt><trkpt lat="42.9568167" lon="11.2397422"><ele>84.25</ele><time>2026-05-02T15:29:43.644Z</time></trkpt><trkpt lat="42.9568488" lon="11.2395509"><ele>84.0</ele><time>2026-05-02T15:29:44.648Z</time></trkpt><trkpt lat="42.9568826" lon="11.2393686"><ele>84.0</ele><time>2026-05-02T15:29:45.647Z</time></trkpt><trkpt lat="42.9569168" lon="11.2391858"><ele>84.0</ele><time>2026-05-02T15:29:46.649Z</time></trkpt><trkpt lat="42.95695" lon="11.2390065"><ele>84.0</ele><time>2026-05-02T15:29:47.635Z</time></trkpt><trkpt lat="42.9569854" lon="11.2388273"><ele>84.0</ele><time>2026-05-02T15:29:48.652Z</time></trkpt><trkpt lat="42.9570224" lon="11.2386436"><ele>84.25</ele><time>2026-05-02T15:29:49.64Z</time></trkpt><trkpt lat="42.9570601" lon="11.2384572"><ele>84.5</ele><time>2026-05-02T15:29:50.651Z</time></trkpt><trkpt lat="42.9570957" lon="11.238272"><ele>84.75</ele><time>2026-05-02T15:29:51.657Z</time></trkpt><trkpt lat="42.9571321" lon="11.2380834"><ele>85.0</ele><time>2026-05-02T15:29:52.652Z</time></trkpt><trkpt lat="42.9571677" lon="11.237894"><ele>85.0</ele><time>2026-05-02T15:29:53.653Z</time></trkpt><trkpt lat="42.957203" lon="11.237697"><ele>85.0</ele><time>2026-05-02T15:29:54.638Z</time></trkpt><trkpt lat="42.9572399" lon="11.23749"><ele>85.0</ele><time>2026-05-02T15:29:55.644Z</time></trkpt><trkpt lat="42.9572808" lon="11.2372774"><ele>85.66666666666666</ele><time>2026-05-02T15:29:56.648Z</time></trkpt><trkpt lat="42.9573214" lon="11.2370676"><ele>86.33333333333333</ele><time>2026-05-02T15:29:57.645Z</time></trkpt><trkpt lat="42.9573593" lon="11.2368668"><ele>87.0</ele><time>2026-05-02T15:29:58.664Z</time></trkpt><trkpt lat="42.9573964" lon="11.2366826"><ele>87.0</ele><time>2026-05-02T15:29:59.641Z</time></trkpt><trkpt lat="42.9574286" lon="11.2365154"><ele>87.0</ele><time>2026-05-02T15:30:00.652Z</time></trkpt><trkpt lat="42.9574577" lon="11.2363479"><ele>87.0</ele><time>2026-05-02T15:30:01.658Z</time></trkpt><trkpt lat="42.9574887" lon="11.2361888"><ele>87.0</ele><time>2026-05-02T15:30:02.655Z</time></trkpt><trkpt lat="42.9575157" lon="11.2360426"><ele>87.6</ele><time>2026-05-02T15:30:03.644Z</time></trkpt><trkpt lat="42.9575475" lon="11.2359037"><ele>88.19999999999999</ele><time>2026-05-02T15:30:04.639Z</time></trkpt><trkpt lat="42.9575769" lon="11.2357729"><ele>88.8</ele><time>2026-05-02T15:30:05.657Z</time></trkpt><trkpt lat="42.9576048" lon="11.2356633"><ele>89.4</ele><time>2026-05-02T15:30:06.65Z</time></trkpt><trkpt lat="42.9576422" lon="11.2355693"><ele>90.0</ele><time>2026-05-02T15:30:07.653Z</time></trkpt><trkpt lat="42.9576959" lon="11.2354849"><ele>90.16666666666667</ele><time>2026-05-02T15:30:08.642Z</time></trkpt><trkpt lat="42.9577626" lon="11.2354054"><ele>90.33333333333333</ele><time>2026-05-02T15:30:09.649Z</time></trkpt><trkpt lat="42.9578322" lon="11.235334"><ele>90.5</ele><time>2026-05-02T15:30:10.644Z</time></trkpt><trkpt lat="42.9578865" lon="11.2352627"><ele>90.66666666666666</ele><time>2026-05-02T15:30:11.643Z</time></trkpt><trkpt lat="42.9579153" lon="11.2351826"><ele>90.83333333333333</ele><time>2026-05-02T15:30:12.645Z</time></trkpt><trkpt lat="42.9578907" lon="11.2350329"><ele>91.0</ele><time>2026-05-02T15:30:14.645Z</time></trkpt><trkpt lat="42.9578015" lon="11.2349436"><ele>91.0</ele><time>2026-05-02T15:30:16.638Z</time></trkpt><trkpt lat="42.9578368" lon="11.234849"><ele>91.0</ele><time>2026-05-02T15:30:18.642Z</time></trkpt><trkpt lat="42.957901" lon="11.2347949"><ele>91.0</ele><time>2026-05-02T15:30:19.637Z</time></trkpt><trkpt lat="42.9579769" lon="11.2347303"><ele>91.0</ele><time>2026-05-02T15:30:20.648Z</time></trkpt><trkpt lat="42.9580535" lon="11.2346401"><ele>91.0</ele><time>2026-05-02T15:30:21.655Z</time></trkpt><trkpt lat="42.9581288" lon="11.2345133"><ele>91.0</ele><time>2026-05-02T15:30:22.667Z</time></trkpt><trkpt lat="42.9582013" lon="11.2343486"><ele>91.0</ele><time>2026-05-02T15:30:23.656Z</time></trkpt><trkpt lat="42.958273" lon="11.2341718"><ele>91.0</ele><time>2026-05-02T15:30:24.656Z</time></trkpt><trkpt lat="42.9583491" lon="11.2339907"><ele>91.0</ele><time>2026-05-02T15:30:25.644Z</time></trkpt><trkpt lat="42.9584201" lon="11.2338194"><ele>91.0</ele><time>2026-05-02T15:30:26.653Z</time></trkpt><trkpt lat="42.9584756" lon="11.2336747"><ele>91.0</ele><time>2026-05-02T15:30:27.647Z</time></trkpt><trkpt lat="42.9585255" lon="11.2335472"><ele>91.0</ele><time>2026-05-02T15:30:28.637Z</time></trkpt><trkpt lat="42.958568" lon="11.2334407"><ele>91.0</ele><time>2026-05-02T15:30:29.639Z</time></trkpt><trkpt lat="42.9585996" lon="11.2333569"><ele>91.0</ele><time>2026-05-02T15:30:30.654Z</time></trkpt><trkpt lat="42.9586362" lon="11.2332349"><ele>91.4</ele><time>2026-05-02T15:30:32.647Z</time></trkpt><trkpt lat="42.9586754" lon="11.2331208"><ele>91.8</ele><time>2026-05-02T15:30:34.67Z</time></trkpt><trkpt lat="42.958732" lon="11.2329924"><ele>92.2</ele><time>2026-05-02T15:30:36.652Z</time></trkpt><trkpt lat="42.9587856" lon="11.2328623"><ele>92.60000000000001</ele><time>2026-05-02T15:30:38.668Z</time></trkpt><trkpt lat="42.9588244" lon="11.2327827"><ele>93.0</ele><time>2026-05-02T15:30:39.648Z</time></trkpt><trkpt lat="42.9588749" lon="11.2326935"><ele>93.0</ele><time>2026-05-02T15:30:40.654Z</time></trkpt><trkpt lat="42.9589376" lon="11.2325935"><ele>93.0</ele><time>2026-05-02T15:30:41.641Z</time></trkpt><trkpt lat="42.9590099" lon="11.2324883"><ele>93.0</ele><time>2026-05-02T15:30:42.65Z</time></trkpt><trkpt lat="42.9590921" lon="11.2323855"><ele>93.0</ele><time>2026-05-02T15:30:43.659Z</time></trkpt><trkpt lat="42.9591761" lon="11.2322874"><ele>93.0</ele><time>2026-05-02T15:30:44.657Z</time></trkpt><trkpt lat="42.959258" lon="11.2321978"><ele>94.2</ele><time>2026-05-02T15:30:45.655Z</time></trkpt><trkpt lat="42.9593448" lon="11.2321204"><ele>95.4</ele><time>2026-05-02T15:30:46.652Z</time></trkpt><trkpt lat="42.9594374" lon="11.2320507"><ele>96.60000000000001</ele><time>2026-05-02T15:30:47.658Z</time></trkpt><trkpt lat="42.9595305" lon="11.2319803"><ele>97.80000000000001</ele><time>2026-05-02T15:30:48.65Z</time></trkpt><trkpt lat="42.9596178" lon="11.23192"><ele>99.0</ele><time>2026-05-02T15:30:49.658Z</time></trkpt><trkpt lat="42.9597078" lon="11.2318637"><ele>99.0</ele><time>2026-05-02T15:30:50.649Z</time></trkpt><trkpt lat="42.9598034" lon="11.2318105"><ele>99.0</ele><time>2026-05-02T15:30:51.649Z</time></trkpt><trkpt lat="42.9599037" lon="11.2317632"><ele>99.0</ele><time>2026-05-02T15:30:52.647Z</time></trkpt><trkpt lat="42.9600093" lon="11.2317276"><ele>99.0</ele><time>2026-05-02T15:30:53.664Z</time></trkpt><trkpt lat="42.9601158" lon="11.2316881"><ele>99.0</ele><time>2026-05-02T15:30:54.65Z</time></trkpt><trkpt lat="42.9602224" lon="11.2316461"><ele>100.25</ele><time>2026-05-02T15:30:55.633Z</time></trkpt><trkpt lat="42.9603306" lon="11.2315936"><ele>101.5</ele><time>2026-05-02T15:30:56.662Z</time></trkpt><trkpt lat="42.9604338" lon="11.2315302"><ele>102.75</ele><time>2026-05-02T15:30:57.641Z</time></trkpt><trkpt lat="42.9605363" lon="11.2314705"><ele>104.0</ele><time>2026-05-02T15:30:58.655Z</time></trkpt><trkpt lat="42.9606354" lon="11.2314013"><ele>104.0</ele><time>2026-05-02T15:30:59.641Z</time></trkpt><trkpt lat="42.9607296" lon="11.2313244"><ele>104.0</ele><time>2026-05-02T15:31:00.649Z</time></trkpt><trkpt lat="42.9608254" lon="11.2312457"><ele>104.0</ele><time>2026-05-02T15:31:01.641Z</time></trkpt><trkpt lat="42.9609215" lon="11.2311678"><ele>104.0</ele><time>2026-05-02T15:31:02.642Z</time></trkpt><trkpt lat="42.9610125" lon="11.2311091"><ele>104.0</ele><time>2026-05-02T15:31:03.643Z</time></trkpt><trkpt lat="42.9611021" lon="11.2310781"><ele>102.6</ele><time>2026-05-02T15:31:04.642Z</time></trkpt><trkpt lat="42.9611968" lon="11.2310595"><ele>101.2</ele><time>2026-05-02T15:31:05.634Z</time></trkpt><trkpt lat="42.9613077" lon="11.2310493"><ele>99.8</ele><time>2026-05-02T15:31:06.646Z</time></trkpt><trkpt lat="42.961426" lon="11.2310359"><ele>98.39999999999999</ele><time>2026-05-02T15:31:07.653Z</time></trkpt><trkpt lat="42.9615427" lon="11.2310188"><ele>97.0</ele><time>2026-05-02T15:31:08.642Z</time></trkpt><trkpt lat="42.9616561" lon="11.2310049"><ele>96.5</ele><time>2026-05-02T15:31:09.65Z</time></trkpt><trkpt lat="42.9617763" lon="11.2309767"><ele>96.0</ele><time>2026-05-02T15:31:10.636Z</time></trkpt><trkpt lat="42.961892" lon="11.2309497"><ele>95.5</ele><time>2026-05-02T15:31:11.633Z</time></trkpt><trkpt lat="42.9620077" lon="11.2309197"><ele>95.0</ele><time>2026-05-02T15:31:12.644Z</time></trkpt><trkpt lat="42.9621104" lon="11.2308944"><ele>95.0</ele><time>2026-05-02T15:31:13.659Z</time></trkpt><trkpt lat="42.9622026" lon="11.2308725"><ele>95.0</ele><time>2026-05-02T15:31:14.652Z</time></trkpt><trkpt lat="42.962286" lon="11.2308591"><ele>95.0</ele><time>2026-05-02T15:31:15.651Z</time></trkpt><trkpt lat="42.962376" lon="11.2308505"><ele>95.0</ele><time>2026-05-02T15:31:16.66Z</time></trkpt><trkpt lat="42.962479" lon="11.2308337"><ele>95.0</ele><time>2026-05-02T15:31:17.644Z</time></trkpt><trkpt lat="42.9625912" lon="11.2308153"><ele>95.2</ele><time>2026-05-02T15:31:18.65Z</time></trkpt><trkpt lat="42.9627036" lon="11.2308002"><ele>95.4</ele><time>2026-05-02T15:31:19.646Z</time></trkpt><trkpt lat="42.962816" lon="11.2307844"><ele>95.6</ele><time>2026-05-02T15:31:20.661Z</time></trkpt><trkpt lat="42.962927" lon="11.2307649"><ele>95.8</ele><time>2026-05-02T15:31:21.646Z</time></trkpt><trkpt lat="42.9630301" lon="11.2307527"><ele>96.0</ele><time>2026-05-02T15:31:22.649Z</time></trkpt><trkpt lat="42.9631229" lon="11.2307402"><ele>96.0</ele><time>2026-05-02T15:31:23.639Z</time></trkpt><trkpt lat="42.9632146" lon="11.2307236"><ele>96.0</ele><time>2026-05-02T15:31:24.638Z</time></trkpt><trkpt lat="42.9633079" lon="11.2307115"><ele>96.0</ele><time>2026-05-02T15:31:25.655Z</time></trkpt><trkpt lat="42.9634053" lon="11.2306976"><ele>96.0</ele><time>2026-05-02T15:31:26.651Z</time></trkpt><trkpt lat="42.9635073" lon="11.2306799"><ele>96.0</ele><time>2026-05-02T15:31:27.649Z</time></trkpt><trkpt lat="42.9636102" lon="11.2306538"><ele>97.19999999999999</ele><time>2026-05-02T15:31:28.66Z</time></trkpt><trkpt lat="42.9637093" lon="11.2306231"><ele>98.39999999999999</ele><time>2026-05-02T15:31:29.644Z</time></trkpt><trkpt lat="42.9638074" lon="11.2305889"><ele>99.6</ele><time>2026-05-02T15:31:30.654Z</time></trkpt><trkpt lat="42.9639081" lon="11.2305752"><ele>100.8</ele><time>2026-05-02T15:31:31.64Z</time></trkpt><trkpt lat="42.9640082" lon="11.2305735"><ele>102.0</ele><time>2026-05-02T15:31:32.649Z</time></trkpt><trkpt lat="42.9641127" lon="11.2305653"><ele>101.8</ele><time>2026-05-02T15:31:33.638Z</time></trkpt><trkpt lat="42.9642106" lon="11.2305391"><ele>101.6</ele><time>2026-05-02T15:31:34.641Z</time></trkpt><trkpt lat="42.9643153" lon="11.2304897"><ele>101.39999999999999</ele><time>2026-05-02T15:31:35.652Z</time></trkpt><trkpt lat="42.9644237" lon="11.2304219"><ele>101.19999999999999</ele><time>2026-05-02T15:31:36.652Z</time></trkpt><trkpt lat="42.9645321" lon="11.2303558"><ele>101.0</ele><time>2026-05-02T15:31:37.639Z</time></trkpt><trkpt lat="42.9646365" lon="11.2302936"><ele>101.0</ele><time>2026-05-02T15:31:38.65Z</time></trkpt><trkpt lat="42.9647377" lon="11.2302342"><ele>101.0</ele><time>2026-05-02T15:31:39.644Z</time></trkpt><trkpt lat="42.9648301" lon="11.2301822"><ele>101.0</ele><time>2026-05-02T15:31:40.662Z</time></trkpt><trkpt lat="42.9649214" lon="11.2301358"><ele>101.0</ele><time>2026-05-02T15:31:41.636Z</time></trkpt><trkpt lat="42.9650134" lon="11.2300925"><ele>101.0</ele><time>2026-05-02T15:31:42.641Z</time></trkpt><trkpt lat="42.9650983" lon="11.2300512"><ele>99.8</ele><time>2026-05-02T15:31:43.642Z</time></trkpt><trkpt lat="42.9651882" lon="11.230004"><ele>98.6</ele><time>2026-05-02T15:31:44.641Z</time></trkpt><trkpt lat="42.9652715" lon="11.2299553"><ele>97.4</ele><time>2026-05-02T15:31:45.648Z</time></trkpt><trkpt lat="42.9653559" lon="11.2299038"><ele>96.2</ele><time>2026-05-02T15:31:46.641Z</time></trkpt><trkpt lat="42.9654413" lon="11.2298569"><ele>95.0</ele><time>2026-05-02T15:31:47.645Z</time></trkpt><trkpt lat="42.9655272" lon="11.2298134"><ele>95.2</ele><time>2026-05-02T15:31:48.645Z</time></trkpt><trkpt lat="42.9656175" lon="11.2297675"><ele>95.4</ele><time>2026-05-02T15:31:49.647Z</time></trkpt><trkpt lat="42.9657137" lon="11.2297175"><ele>95.6</ele><time>2026-05-02T15:31:50.642Z</time></trkpt><trkpt lat="42.9658102" lon="11.229676"><ele>95.8</ele><time>2026-05-02T15:31:51.642Z</time></trkpt><trkpt lat="42.9658948" lon="11.2296302"><ele>96.0</ele><time>2026-05-02T15:31:52.647Z</time></trkpt><trkpt lat="42.9659732" lon="11.2295776"><ele>96.0</ele><time>2026-05-02T15:31:53.646Z</time></trkpt><trkpt lat="42.9660327" lon="11.2295102"><ele>96.0</ele><time>2026-05-02T15:31:54.651Z</time></trkpt><trkpt lat="42.966098" lon="11.2294316"><ele>96.0</ele><time>2026-05-02T15:31:55.646Z</time></trkpt><trkpt lat="42.966171" lon="11.2293472"><ele>96.0</ele><time>2026-05-02T15:31:56.652Z</time></trkpt><trkpt lat="42.9662434" lon="11.2292662"><ele>96.0</ele><time>2026-05-02T15:31:57.654Z</time></trkpt><trkpt lat="42.9663163" lon="11.2291899"><ele>96.0</ele><time>2026-05-02T15:31:58.643Z</time></trkpt><trkpt lat="42.9663805" lon="11.2291149"><ele>96.0</ele><time>2026-05-02T15:31:59.65Z</time></trkpt><trkpt lat="42.9664568" lon="11.2290428"><ele>96.0</ele><time>2026-05-02T15:32:00.642Z</time></trkpt><trkpt lat="42.966536" lon="11.2289691"><ele>96.0</ele><time>2026-05-02T15:32:01.644Z</time></trkpt><trkpt lat="42.9666175" lon="11.2289123"><ele>96.0</ele><time>2026-05-02T15:32:02.642Z</time></trkpt><trkpt lat="42.9666944" lon="11.228867"><ele>96.0</ele><time>2026-05-02T15:32:03.633Z</time></trkpt><trkpt lat="42.9667715" lon="11.2288116"><ele>96.0</ele><time>2026-05-02T15:32:04.651Z</time></trkpt><trkpt lat="42.9668455" lon="11.2287327"><ele>96.0</ele><time>2026-05-02T15:32:05.647Z</time></trkpt><trkpt lat="42.9669224" lon="11.2286322"><ele>96.0</ele><time>2026-05-02T15:32:06.649Z</time></trkpt><trkpt lat="42.9670022" lon="11.2285133"><ele>96.0</ele><time>2026-05-02T15:32:07.642Z</time></trkpt><trkpt lat="42.9670852" lon="11.2284021"><ele>96.0</ele><time>2026-05-02T15:32:08.643Z</time></trkpt><trkpt lat="42.9671718" lon="11.2282787"><ele>96.0</ele><time>2026-05-02T15:32:09.647Z</time></trkpt><trkpt lat="42.9672623" lon="11.2281425"><ele>96.0</ele><time>2026-05-02T15:32:10.646Z</time></trkpt><trkpt lat="42.9673544" lon="11.2280093"><ele>96.0</ele><time>2026-05-02T15:32:11.651Z</time></trkpt><trkpt lat="42.9674446" lon="11.2278901"><ele>96.0</ele><time>2026-05-02T15:32:12.653Z</time></trkpt><trkpt lat="42.9675289" lon="11.2277788"><ele>96.0</ele><time>2026-05-02T15:32:13.648Z</time></trkpt><trkpt lat="42.9676113" lon="11.2276551"><ele>96.0</ele><time>2026-05-02T15:32:14.658Z</time></trkpt><trkpt lat="42.9676909" lon="11.2275208"><ele>96.0</ele><time>2026-05-02T15:32:15.655Z</time></trkpt><trkpt lat="42.9677677" lon="11.2273811"><ele>96.0</ele><time>2026-05-02T15:32:16.655Z</time></trkpt><trkpt lat="42.967846" lon="11.2272389"><ele>96.75</ele><time>2026-05-02T15:32:17.642Z</time></trkpt><trkpt lat="42.9679216" lon="11.2271059"><ele>97.5</ele><time>2026-05-02T15:32:18.64Z</time></trkpt><trkpt lat="42.9680011" lon="11.2269723"><ele>98.25</ele><time>2026-05-02T15:32:19.638Z</time></trkpt><trkpt lat="42.9680776" lon="11.2268417"><ele>99.0</ele><time>2026-05-02T15:32:20.644Z</time></trkpt><trkpt lat="42.9681565" lon="11.2267113"><ele>99.0</ele><time>2026-05-02T15:32:21.637Z</time></trkpt><trkpt lat="42.9682331" lon="11.226586"><ele>99.0</ele><time>2026-05-02T15:32:22.65Z</time></trkpt><trkpt lat="42.9683061" lon="11.2264562"><ele>99.0</ele><time>2026-05-02T15:32:23.645Z</time></trkpt><trkpt lat="42.9683734" lon="11.2263346"><ele>99.0</ele><time>2026-05-02T15:32:24.655Z</time></trkpt><trkpt lat="42.9684358" lon="11.2262157"><ele>98.66666666666667</ele><time>2026-05-02T15:32:25.658Z</time></trkpt><trkpt lat="42.9684952" lon="11.2260979"><ele>98.33333333333334</ele><time>2026-05-02T15:32:26.65Z</time></trkpt><trkpt lat="42.9685524" lon="11.2259901"><ele>98.0</ele><time>2026-05-02T15:32:27.65Z</time></trkpt><trkpt lat="42.9686114" lon="11.2258948"><ele>97.66666666666667</ele><time>2026-05-02T15:32:28.653Z</time></trkpt><trkpt lat="42.9686673" lon="11.2258159"><ele>97.33333333333334</ele><time>2026-05-02T15:32:29.648Z</time></trkpt><trkpt lat="42.9687154" lon="11.2257436"><ele>97.0</ele><time>2026-05-02T15:32:30.654Z</time></trkpt><trkpt lat="42.968762" lon="11.2256585"><ele>98.0</ele><time>2026-05-02T15:32:31.64Z</time></trkpt><trkpt lat="42.9688134" lon="11.2255664"><ele>99.0</ele><time>2026-05-02T15:32:32.648Z</time></trkpt><trkpt lat="42.9688763" lon="11.2254631"><ele>100.0</ele><time>2026-05-02T15:32:33.654Z</time></trkpt><trkpt lat="42.9689478" lon="11.2253499"><ele>101.0</ele><time>2026-05-02T15:32:34.648Z</time></trkpt><trkpt lat="42.9690209" lon="11.2252332"><ele>102.0</ele><time>2026-05-02T15:32:35.627Z</time></trkpt><trkpt lat="42.9690926" lon="11.2251197"><ele>102.0</ele><time>2026-05-02T15:32:36.643Z</time></trkpt><trkpt lat="42.9691642" lon="11.2250129"><ele>102.0</ele><time>2026-05-02T15:32:37.65Z</time></trkpt><trkpt lat="42.9692395" lon="11.2248983"><ele>102.0</ele><time>2026-05-02T15:32:38.644Z</time></trkpt><trkpt lat="42.9693145" lon="11.224775"><ele>102.0</ele><time>2026-05-02T15:32:39.658Z</time></trkpt><trkpt lat="42.9693945" lon="11.2246478"><ele>102.0</ele><time>2026-05-02T15:32:40.652Z</time></trkpt><trkpt lat="42.9694774" lon="11.224512"><ele>102.0</ele><time>2026-05-02T15:32:41.64Z</time></trkpt><trkpt lat="42.9695597" lon="11.2243786"><ele>102.0</ele><time>2026-05-02T15:32:42.642Z</time></trkpt><trkpt lat="42.969637" lon="11.2242391"><ele>102.0</ele><time>2026-05-02T15:32:43.643Z</time></trkpt><trkpt lat="42.9697261" lon="11.2241033"><ele>101.5</ele><time>2026-05-02T15:32:44.659Z</time></trkpt><trkpt lat="42.9698129" lon="11.2239659"><ele>101.0</ele><time>2026-05-02T15:32:45.646Z</time></trkpt><trkpt lat="42.9698928" lon="11.2238289"><ele>100.5</ele><time>2026-05-02T15:32:46.655Z</time></trkpt><trkpt lat="42.9699758" lon="11.2236968"><ele>100.0</ele><time>2026-05-02T15:32:47.644Z</time></trkpt><trkpt lat="42.9700637" lon="11.2235606"><ele>100.0</ele><time>2026-05-02T15:32:48.649Z</time></trkpt><trkpt lat="42.9701497" lon="11.2234259"><ele>100.0</ele><time>2026-05-02T15:32:49.651Z</time></trkpt><trkpt lat="42.9702382" lon="11.223288"><ele>100.0</ele><time>2026-05-02T15:32:50.643Z</time></trkpt><trkpt lat="42.9703271" lon="11.2231547"><ele>100.0</ele><time>2026-05-02T15:32:51.655Z</time></trkpt><trkpt lat="42.9704149" lon="11.2230249"><ele>101.0</ele><time>2026-05-02T15:32:52.651Z</time></trkpt><trkpt lat="42.970507" lon="11.2228881"><ele>102.0</ele><time>2026-05-02T15:32:53.651Z</time></trkpt><trkpt lat="42.9706" lon="11.2227469"><ele>103.0</ele><time>2026-05-02T15:32:54.655Z</time></trkpt><trkpt lat="42.9706939" lon="11.2226056"><ele>104.0</ele><time>2026-05-02T15:32:55.643Z</time></trkpt><trkpt lat="42.9707853" lon="11.222467"><ele>104.0</ele><time>2026-05-02T15:32:56.641Z</time></trkpt><trkpt lat="42.9708726" lon="11.2223343"><ele>104.0</ele><time>2026-05-02T15:32:57.648Z</time></trkpt><trkpt lat="42.9709632" lon="11.2222056"><ele>104.0</ele><time>2026-05-02T15:32:58.642Z</time></trkpt><trkpt lat="42.971054" lon="11.2220775"><ele>104.0</ele><time>2026-05-02T15:32:59.649Z</time></trkpt><trkpt lat="42.9711409" lon="11.2219534"><ele>104.0</ele><time>2026-05-02T15:33:00.645Z</time></trkpt><trkpt lat="42.9712291" lon="11.2218267"><ele>104.0</ele><time>2026-05-02T15:33:01.644Z</time></trkpt><trkpt lat="42.9713198" lon="11.2216917"><ele>104.0</ele><time>2026-05-02T15:33:02.66Z</time></trkpt><trkpt lat="42.9714057" lon="11.2215525"><ele>104.0</ele><time>2026-05-02T15:33:03.65Z</time></trkpt><trkpt lat="42.9714876" lon="11.221415"><ele>104.0</ele><time>2026-05-02T15:33:04.65Z</time></trkpt><trkpt lat="42.9715647" lon="11.221277"><ele>104.0</ele><time>2026-05-02T15:33:05.639Z</time></trkpt><trkpt lat="42.9716412" lon="11.2211479"><ele>104.0</ele><time>2026-05-02T15:33:06.647Z</time></trkpt><trkpt lat="42.9717219" lon="11.221034"><ele>104.0</ele><time>2026-05-02T15:33:07.653Z</time></trkpt><trkpt lat="42.9718039" lon="11.2209157"><ele>104.0</ele><time>2026-05-02T15:33:08.652Z</time></trkpt><trkpt lat="42.9718927" lon="11.2207927"><ele>104.0</ele><time>2026-05-02T15:33:09.637Z</time></trkpt><trkpt lat="42.9719797" lon="11.2206644"><ele>104.0</ele><time>2026-05-02T15:33:10.649Z</time></trkpt><trkpt lat="42.9720666" lon="11.2205273"><ele>104.0</ele><time>2026-05-02T15:33:11.643Z</time></trkpt><trkpt lat="42.9721523" lon="11.2203911"><ele>105.0</ele><time>2026-05-02T15:33:12.654Z</time></trkpt><trkpt lat="42.972233" lon="11.220269"><ele>106.0</ele><time>2026-05-02T15:33:13.638Z</time></trkpt><trkpt lat="42.9723019" lon="11.2201647"><ele>107.0</ele><time>2026-05-02T15:33:14.656Z</time></trkpt><trkpt lat="42.9723603" lon="11.2200765"><ele>108.0</ele><time>2026-05-02T15:33:15.639Z</time></trkpt><trkpt lat="42.9724177" lon="11.2199898"><ele>109.0</ele><time>2026-05-02T15:33:16.65Z</time></trkpt><trkpt lat="42.9724752" lon="11.219903"><ele>109.00000000000001</ele><time>2026-05-02T15:33:17.643Z</time></trkpt><trkpt lat="42.9725328" lon="11.2198194"><ele>109.0</ele><time>2026-05-02T15:33:18.644Z</time></trkpt><trkpt lat="42.9725852" lon="11.2197412"><ele>109.0</ele><time>2026-05-02T15:33:19.635Z</time></trkpt><trkpt lat="42.9726361" lon="11.219672"><ele>109.0</ele><time>2026-05-02T15:33:20.655Z</time></trkpt><trkpt lat="42.9726855" lon="11.2196041"><ele>109.00000000000001</ele><time>2026-05-02T15:33:21.633Z</time></trkpt><trkpt lat="42.9727332" lon="11.2195456"><ele>109.0</ele><time>2026-05-02T15:33:22.664Z</time></trkpt><trkpt lat="42.9728269" lon="11.2194413"><ele>109.0</ele><time>2026-05-02T15:33:24.658Z</time></trkpt><trkpt lat="42.9729579" lon="11.2194055"><ele>109.0</ele><time>2026-05-02T15:33:26.647Z</time></trkpt><trkpt lat="42.9730394" lon="11.2193893"><ele>109.0</ele><time>2026-05-02T15:33:27.651Z</time></trkpt><trkpt lat="42.9731285" lon="11.219373"><ele>109.0</ele><time>2026-05-02T15:33:28.653Z</time></trkpt><trkpt lat="42.9732369" lon="11.2193439"><ele>109.0</ele><time>2026-05-02T15:33:29.649Z</time></trkpt><trkpt lat="42.9733546" lon="11.2193113"><ele>108.6</ele><time>2026-05-02T15:33:30.647Z</time></trkpt><trkpt lat="42.9734718" lon="11.2192792"><ele>108.2</ele><time>2026-05-02T15:33:31.651Z</time></trkpt><trkpt lat="42.9735814" lon="11.2192451"><ele>107.79999999999998</ele><time>2026-05-02T15:33:32.659Z</time></trkpt><trkpt lat="42.9736891" lon="11.2192086"><ele>107.39999999999999</ele><time>2026-05-02T15:33:33.647Z</time></trkpt><trkpt lat="42.9737924" lon="11.2191805"><ele>107.0</ele><time>2026-05-02T15:33:34.646Z</time></trkpt><trkpt lat="42.9738907" lon="11.2191622"><ele>107.0</ele><time>2026-05-02T15:33:35.645Z</time></trkpt><trkpt lat="42.9739916" lon="11.2191347"><ele>106.99999999999999</ele><time>2026-05-02T15:33:36.644Z</time></trkpt><trkpt lat="42.9740882" lon="11.2191112"><ele>106.99999999999999</ele><time>2026-05-02T15:33:37.652Z</time></trkpt><trkpt lat="42.9741827" lon="11.2190856"><ele>107.0</ele><time>2026-05-02T15:33:38.642Z</time></trkpt><trkpt lat="42.9742786" lon="11.2190606"><ele>107.0</ele><time>2026-05-02T15:33:39.64Z</time></trkpt><trkpt lat="42.9743781" lon="11.2190395"><ele>107.0</ele><time>2026-05-02T15:33:40.647Z</time></trkpt><trkpt lat="42.9744791" lon="11.219018"><ele>106.99999999999999</ele><time>2026-05-02T15:33:41.646Z</time></trkpt><trkpt lat="42.9745839" lon="11.2189924"><ele>106.99999999999999</ele><time>2026-05-02T15:33:42.643Z</time></trkpt><trkpt lat="42.9746923" lon="11.21897"><ele>107.0</ele><time>2026-05-02T15:33:43.642Z</time></trkpt><trkpt lat="42.9748015" lon="11.2189482"><ele>107.0</ele><time>2026-05-02T15:33:44.648Z</time></trkpt><trkpt lat="42.9749152" lon="11.2189211"><ele>107.5</ele><time>2026-05-02T15:33:45.66Z</time></trkpt><trkpt lat="42.9750374" lon="11.2188901"><ele>108.0</ele><time>2026-05-02T15:33:46.638Z</time></trkpt><trkpt lat="42.9751646" lon="11.2188543"><ele>108.5</ele><time>2026-05-02T15:33:47.654Z</time></trkpt><trkpt lat="42.975291" lon="11.2188209"><ele>109.0</ele><time>2026-05-02T15:33:48.642Z</time></trkpt><trkpt lat="42.9754231" lon="11.2187858"><ele>109.0</ele><time>2026-05-02T15:33:49.644Z</time></trkpt><trkpt lat="42.9755527" lon="11.2187509"><ele>109.0</ele><time>2026-05-02T15:33:50.64Z</time></trkpt><trkpt lat="42.9756676" lon="11.2187166"><ele>109.0</ele><time>2026-05-02T15:33:51.65Z</time></trkpt><trkpt lat="42.975744" lon="11.2186975"><ele>109.0</ele><time>2026-05-02T15:33:52.654Z</time></trkpt><trkpt lat="42.9758589" lon="11.2186692"><ele>109.0</ele><time>2026-05-02T15:33:54.662Z</time></trkpt><trkpt lat="42.9759503" lon="11.2186473"><ele>109.5</ele><time>2026-05-02T15:33:55.654Z</time></trkpt><trkpt lat="42.9760609" lon="11.2186265"><ele>110.0</ele><time>2026-05-02T15:33:56.644Z</time></trkpt><trkpt lat="42.9761772" lon="11.2186009"><ele>110.5</ele><time>2026-05-02T15:33:57.653Z</time></trkpt><trkpt lat="42.9763011" lon="11.2185673"><ele>111.0</ele><time>2026-05-02T15:33:58.655Z</time></trkpt><trkpt lat="42.9764323" lon="11.2185322"><ele>111.0</ele><time>2026-05-02T15:33:59.649Z</time></trkpt><trkpt lat="42.976569" lon="11.2184999"><ele>111.0</ele><time>2026-05-02T15:34:00.646Z</time></trkpt><trkpt lat="42.9767075" lon="11.2184654"><ele>111.0</ele><time>2026-05-02T15:34:01.655Z</time></trkpt><trkpt lat="42.9768491" lon="11.2184267"><ele>111.0</ele><time>2026-05-02T15:34:02.647Z</time></trkpt><trkpt lat="42.976991" lon="11.2183852"><ele>111.0</ele><time>2026-05-02T15:34:03.64Z</time></trkpt><trkpt lat="42.9771405" lon="11.2183419"><ele>111.0</ele><time>2026-05-02T15:34:04.648Z</time></trkpt><trkpt lat="42.9772895" lon="11.2183025"><ele>111.0</ele><time>2026-05-02T15:34:05.656Z</time></trkpt><trkpt lat="42.977431" lon="11.2182613"><ele>111.0</ele><time>2026-05-02T15:34:06.652Z</time></trkpt><trkpt lat="42.9775659" lon="11.2182219"><ele>111.0</ele><time>2026-05-02T15:34:07.642Z</time></trkpt><trkpt lat="42.9776951" lon="11.2181816"><ele>111.0</ele><time>2026-05-02T15:34:08.646Z</time></trkpt><trkpt lat="42.977826" lon="11.2181461"><ele>111.0</ele><time>2026-05-02T15:34:09.647Z</time></trkpt><trkpt lat="42.9779491" lon="11.218118"><ele>111.0</ele><time>2026-05-02T15:34:10.643Z</time></trkpt><trkpt lat="42.9780779" lon="11.2180865"><ele>111.66666666666666</ele><time>2026-05-02T15:34:11.65Z</time></trkpt><trkpt lat="42.9782228" lon="11.2180492"><ele>112.33333333333333</ele><time>2026-05-02T15:34:12.65Z</time></trkpt><trkpt lat="42.9783715" lon="11.2180143"><ele>113.0</ele><time>2026-05-02T15:34:13.656Z</time></trkpt><trkpt lat="42.9785227" lon="11.21798"><ele>113.0</ele><time>2026-05-02T15:34:14.64Z</time></trkpt><trkpt lat="42.9786807" lon="11.2179443"><ele>113.0</ele><time>2026-05-02T15:34:15.652Z</time></trkpt><trkpt lat="42.978835" lon="11.2179091"><ele>113.0</ele><time>2026-05-02T15:34:16.652Z</time></trkpt><trkpt lat="42.9789892" lon="11.2178764"><ele>113.0</ele><time>2026-05-02T15:34:17.644Z</time></trkpt><trkpt lat="42.9791377" lon="11.2178413"><ele>113.0</ele><time>2026-05-02T15:34:18.664Z</time></trkpt><trkpt lat="42.9792868" lon="11.2178048"><ele>113.0</ele><time>2026-05-02T15:34:19.647Z</time></trkpt><trkpt lat="42.9794355" lon="11.2177684"><ele>113.33333333333333</ele><time>2026-05-02T15:34:20.63Z</time></trkpt><trkpt lat="42.9795859" lon="11.2177295"><ele>113.66666666666666</ele><time>2026-05-02T15:34:21.661Z</time></trkpt><trkpt lat="42.9797383" lon="11.217692"><ele>114.0</ele><time>2026-05-02T15:34:22.646Z</time></trkpt><trkpt lat="42.9798893" lon="11.2176569"><ele>114.66666666666666</ele><time>2026-05-02T15:34:23.647Z</time></trkpt><trkpt lat="42.9800426" lon="11.2176182"><ele>115.33333333333333</ele><time>2026-05-02T15:34:24.639Z</time></trkpt><trkpt lat="42.9801964" lon="11.2175765"><ele>116.0</ele><time>2026-05-02T15:34:25.644Z</time></trkpt><trkpt lat="42.980341" lon="11.2175387"><ele>116.0</ele><time>2026-05-02T15:34:26.641Z</time></trkpt><trkpt lat="42.9804767" lon="11.2175037"><ele>116.0</ele><time>2026-05-02T15:34:27.65Z</time></trkpt><trkpt lat="42.9805963" lon="11.2174718"><ele>116.0</ele><time>2026-05-02T15:34:28.645Z</time></trkpt><trkpt lat="42.9807105" lon="11.2174431"><ele>116.0</ele><time>2026-05-02T15:34:29.632Z</time></trkpt><trkpt lat="42.9808281" lon="11.2174192"><ele>116.75</ele><time>2026-05-02T15:34:30.645Z</time></trkpt><trkpt lat="42.980951" lon="11.2173878"><ele>117.5</ele><time>2026-05-02T15:34:31.649Z</time></trkpt><trkpt lat="42.9810798" lon="11.2173573"><ele>118.25</ele><time>2026-05-02T15:34:32.65Z</time></trkpt><trkpt lat="42.9812161" lon="11.2173278"><ele>119.0</ele><time>2026-05-02T15:34:33.638Z</time></trkpt><trkpt lat="42.9813578" lon="11.2172924"><ele>119.0</ele><time>2026-05-02T15:34:34.643Z</time></trkpt><trkpt lat="42.9814976" lon="11.2172538"><ele>119.0</ele><time>2026-05-02T15:34:35.638Z</time></trkpt><trkpt lat="42.9816326" lon="11.2172204"><ele>119.0</ele><time>2026-05-02T15:34:36.655Z</time></trkpt><trkpt lat="42.9817708" lon="11.217184"><ele>119.0</ele><time>2026-05-02T15:34:37.644Z</time></trkpt><trkpt lat="42.9819126" lon="11.2171485"><ele>120.0</ele><time>2026-05-02T15:34:38.644Z</time></trkpt><trkpt lat="42.9820563" lon="11.2171136"><ele>121.0</ele><time>2026-05-02T15:34:39.633Z</time></trkpt><trkpt lat="42.982197" lon="11.217081"><ele>122.0</ele><time>2026-05-02T15:34:40.637Z</time></trkpt><trkpt lat="42.9823268" lon="11.2170518"><ele>123.0</ele><time>2026-05-02T15:34:41.641Z</time></trkpt><trkpt lat="42.9824467" lon="11.2170296"><ele>123.2</ele><time>2026-05-02T15:34:42.647Z</time></trkpt><trkpt lat="42.9825499" lon="11.2170194"><ele>123.4</ele><time>2026-05-02T15:34:43.638Z</time></trkpt><trkpt lat="42.982639" lon="11.2170041"><ele>123.60000000000001</ele><time>2026-05-02T15:34:44.657Z</time></trkpt><trkpt lat="42.9827313" lon="11.2169607"><ele>123.80000000000001</ele><time>2026-05-02T15:34:45.641Z</time></trkpt><trkpt lat="42.9828278" lon="11.2168962"><ele>124.0</ele><time>2026-05-02T15:34:46.64Z</time></trkpt><trkpt lat="42.9829288" lon="11.2168212"><ele>124.0</ele><time>2026-05-02T15:34:47.643Z</time></trkpt><trkpt lat="42.9830264" lon="11.2167497"><ele>124.0</ele><time>2026-05-02T15:34:48.648Z</time></trkpt><trkpt lat="42.9831216" lon="11.2166764"><ele>124.0</ele><time>2026-05-02T15:34:49.644Z</time></trkpt><trkpt lat="42.9832192" lon="11.2165978"><ele>124.0</ele><time>2026-05-02T15:34:50.65Z</time></trkpt><trkpt lat="42.9833194" lon="11.2165203"><ele>124.0</ele><time>2026-05-02T15:34:51.644Z</time></trkpt><trkpt lat="42.9834173" lon="11.2164479"><ele>123.6</ele><time>2026-05-02T15:34:52.649Z</time></trkpt><trkpt lat="42.9835125" lon="11.2163818"><ele>123.2</ele><time>2026-05-02T15:34:53.639Z</time></trkpt><trkpt lat="42.9836069" lon="11.2163061"><ele>122.79999999999998</ele><time>2026-05-02T15:34:54.652Z</time></trkpt><trkpt lat="42.9837057" lon="11.2162317"><ele>122.39999999999999</ele><time>2026-05-02T15:34:55.654Z</time></trkpt><trkpt lat="42.9837961" lon="11.2161594"><ele>122.0</ele><time>2026-05-02T15:34:56.649Z</time></trkpt><trkpt lat="42.9838759" lon="11.2160977"><ele>121.99999999999999</ele><time>2026-05-02T15:34:57.649Z</time></trkpt><trkpt lat="42.9839479" lon="11.2160442"><ele>122.0</ele><time>2026-05-02T15:34:58.647Z</time></trkpt><trkpt lat="42.9840113" lon="11.2159941"><ele>121.99999999999999</ele><time>2026-05-02T15:34:59.648Z</time></trkpt><trkpt lat="42.9840702" lon="11.2159489"><ele>121.99999999999999</ele><time>2026-05-02T15:35:00.648Z</time></trkpt><trkpt lat="42.984128" lon="11.2159059"><ele>122.0</ele><time>2026-05-02T15:35:01.65Z</time></trkpt><trkpt lat="42.9841865" lon="11.2158575"><ele>121.99999999999999</ele><time>2026-05-02T15:35:02.636Z</time></trkpt><trkpt lat="42.9842463" lon="11.2158071"><ele>121.99999999999999</ele><time>2026-05-02T15:35:03.647Z</time></trkpt><trkpt lat="42.9843053" lon="11.2157572"><ele>121.6</ele><time>2026-05-02T15:35:04.662Z</time></trkpt><trkpt lat="42.9843617" lon="11.2157108"><ele>121.19999999999999</ele><time>2026-05-02T15:35:05.654Z</time></trkpt><trkpt lat="42.9844611" lon="11.2156267"><ele>120.8</ele><time>2026-05-02T15:35:07.648Z</time></trkpt><trkpt lat="42.9845614" lon="11.2155433"><ele>120.4</ele><time>2026-05-02T15:35:09.642Z</time></trkpt><trkpt lat="42.9846738" lon="11.2154653"><ele>120.0</ele><time>2026-05-02T15:35:11.635Z</time></trkpt><trkpt lat="42.9847836" lon="11.2154086"><ele>120.0</ele><time>2026-05-02T15:35:13.639Z</time></trkpt><trkpt lat="42.9848627" lon="11.2154207"><ele>120.0</ele><time>2026-05-02T15:35:15.641Z</time></trkpt><trkpt lat="42.9849287" lon="11.2155012"><ele>120.0</ele><time>2026-05-02T15:35:17.65Z</time></trkpt><trkpt lat="42.9849747" lon="11.2156224"><ele>120.0</ele><time>2026-05-02T15:35:19.635Z</time></trkpt><trkpt lat="42.9850025" lon="11.2157455"><ele>120.0</ele><time>2026-05-02T15:35:21.64Z</time></trkpt><trkpt lat="42.985037" lon="11.2158789"><ele>120.75</ele><time>2026-05-02T15:35:23.649Z</time></trkpt><trkpt lat="42.9850768" lon="11.2160266"><ele>121.5</ele><time>2026-05-02T15:35:25.636Z</time></trkpt><trkpt lat="42.9851129" lon="11.2161748"><ele>122.25</ele><time>2026-05-02T15:35:27.643Z</time></trkpt><trkpt lat="42.9851677" lon="11.2163218"><ele>123.0</ele><time>2026-05-02T15:35:29.641Z</time></trkpt><trkpt lat="42.9852573" lon="11.2164499"><ele>122.16666666666667</ele><time>2026-05-02T15:35:31.64Z</time></trkpt><trkpt lat="42.9853162" lon="11.2164962"><ele>121.33333333333334</ele><time>2026-05-02T15:35:32.649Z</time></trkpt><trkpt lat="42.9854294" lon="11.2165724"><ele>120.5</ele><time>2026-05-02T15:35:34.659Z</time></trkpt><trkpt lat="42.9854923" lon="11.2166125"><ele>119.66666666666667</ele><time>2026-05-02T15:35:35.641Z</time></trkpt><trkpt lat="42.9855617" lon="11.2166459"><ele>118.83333333333334</ele><time>2026-05-02T15:35:36.646Z</time></trkpt><trkpt lat="42.9856284" lon="11.2166749"><ele>118.0</ele><time>2026-05-02T15:35:37.644Z</time></trkpt><trkpt lat="42.9856938" lon="11.2166955"><ele>118.0</ele><time>2026-05-02T15:35:38.648Z</time></trkpt><trkpt lat="42.9857581" lon="11.2167166"><ele>118.0</ele><time>2026-05-02T15:35:39.641Z</time></trkpt><trkpt lat="42.985824" lon="11.2167342"><ele>118.0</ele><time>2026-05-02T15:35:40.641Z</time></trkpt><trkpt lat="42.9858917" lon="11.2167536"><ele>118.0</ele><time>2026-05-02T15:35:41.649Z</time></trkpt><trkpt lat="42.9859552" lon="11.2167708"><ele>118.0</ele><time>2026-05-02T15:35:42.652Z</time></trkpt><trkpt lat="42.9860204" lon="11.2167896"><ele>118.0</ele><time>2026-05-02T15:35:43.644Z</time></trkpt><trkpt lat="42.9860897" lon="11.2168056"><ele>118.0</ele><time>2026-05-02T15:35:44.657Z</time></trkpt><trkpt lat="42.9861538" lon="11.2168237"><ele>118.0</ele><time>2026-05-02T15:35:45.638Z</time></trkpt><trkpt lat="42.9862262" lon="11.2168323"><ele>118.0</ele><time>2026-05-02T15:35:46.648Z</time></trkpt><trkpt lat="42.9862961" lon="11.2168404"><ele>118.0</ele><time>2026-05-02T15:35:47.655Z</time></trkpt><trkpt lat="42.9863696" lon="11.2168422"><ele>118.0</ele><time>2026-05-02T15:35:48.646Z</time></trkpt><trkpt lat="42.9864398" lon="11.2168421"><ele>118.0</ele><time>2026-05-02T15:35:49.654Z</time></trkpt><trkpt lat="42.9865068" lon="11.2168304"><ele>118.0</ele><time>2026-05-02T15:35:50.65Z</time></trkpt><trkpt lat="42.9865773" lon="11.2168116"><ele>118.0</ele><time>2026-05-02T15:35:51.648Z</time></trkpt><trkpt lat="42.9866467" lon="11.2167939"><ele>117.85714285714286</ele><time>2026-05-02T15:35:52.645Z</time></trkpt><trkpt lat="42.9867158" lon="11.2167786"><ele>117.71428571428572</ele><time>2026-05-02T15:35:53.656Z</time></trkpt><trkpt lat="42.986787" lon="11.2167601"><ele>117.57142857142858</ele><time>2026-05-02T15:35:54.653Z</time></trkpt><trkpt lat="42.9868558" lon="11.2167396"><ele>117.42857142857143</ele><time>2026-05-02T15:35:55.645Z</time></trkpt><trkpt lat="42.9869214" lon="11.2167224"><ele>117.2857142857143</ele><time>2026-05-02T15:35:56.648Z</time></trkpt><trkpt lat="42.9869869" lon="11.2167109"><ele>117.14285714285715</ele><time>2026-05-02T15:35:57.652Z</time></trkpt><trkpt lat="42.9870676" lon="11.216685"><ele>117.0</ele><time>2026-05-02T15:35:58.643Z</time></trkpt><trkpt lat="42.9871607" lon="11.2166631"><ele>117.0</ele><time>2026-05-02T15:35:59.641Z</time></trkpt><trkpt lat="42.9872645" lon="11.2166419"><ele>116.99999999999999</ele><time>2026-05-02T15:36:00.655Z</time></trkpt><trkpt lat="42.9873721" lon="11.2166213"><ele>116.99999999999999</ele><time>2026-05-02T15:36:01.653Z</time></trkpt><trkpt lat="42.9874851" lon="11.216601"><ele>117.0</ele><time>2026-05-02T15:36:02.65Z</time></trkpt><trkpt lat="42.9876033" lon="11.2165739"><ele>117.0</ele><time>2026-05-02T15:36:03.649Z</time></trkpt><trkpt lat="42.987723" lon="11.2165485"><ele>117.0</ele><time>2026-05-02T15:36:04.632Z</time></trkpt><trkpt lat="42.9878482" lon="11.2165273"><ele>117.0</ele><time>2026-05-02T15:36:05.652Z</time></trkpt><trkpt lat="42.9879762" lon="11.2165111"><ele>117.0</ele><time>2026-05-02T15:36:06.647Z</time></trkpt><trkpt lat="42.9881" lon="11.2165088"><ele>117.0</ele><time>2026-05-02T15:36:07.641Z</time></trkpt><trkpt lat="42.9882284" lon="11.2165094"><ele>117.0</ele><time>2026-05-02T15:36:08.657Z</time></trkpt><trkpt lat="42.9883622" lon="11.2165054"><ele>117.0</ele><time>2026-05-02T15:36:09.644Z</time></trkpt><trkpt lat="42.988495" lon="11.2164975"><ele>117.0</ele><time>2026-05-02T15:36:10.648Z</time></trkpt><trkpt lat="42.9886282" lon="11.2164922"><ele>117.0</ele><time>2026-05-02T15:36:11.643Z</time></trkpt><trkpt lat="42.9887544" lon="11.2164854"><ele>117.5</ele><time>2026-05-02T15:36:12.645Z</time></trkpt><trkpt lat="42.9888692" lon="11.2164692"><ele>118.0</ele><time>2026-05-02T15:36:13.657Z</time></trkpt><trkpt lat="42.9889797" lon="11.2164373"><ele>118.5</ele><time>2026-05-02T15:36:14.649Z</time></trkpt><trkpt lat="42.989088" lon="11.2163918"><ele>119.0</ele><time>2026-05-02T15:36:15.651Z</time></trkpt><trkpt lat="42.9891961" lon="11.2163358"><ele>119.0</ele><time>2026-05-02T15:36:16.648Z</time></trkpt><trkpt lat="42.9893059" lon="11.2162775"><ele>119.0</ele><time>2026-05-02T15:36:17.644Z</time></trkpt><trkpt lat="42.9894026" lon="11.2162288"><ele>119.0</ele><time>2026-05-02T15:36:18.651Z</time></trkpt><trkpt lat="42.9894773" lon="11.2161887"><ele>119.0</ele><time>2026-05-02T15:36:19.658Z</time></trkpt><trkpt lat="42.9895716" lon="11.2161427"><ele>119.0</ele><time>2026-05-02T15:36:21.652Z</time></trkpt><trkpt lat="42.9896296" lon="11.2160954"><ele>118.99999999999999</ele><time>2026-05-02T15:36:23.647Z</time></trkpt><trkpt lat="42.9896758" lon="11.2160022"><ele>119.0</ele><time>2026-05-02T15:36:25.646Z</time></trkpt><trkpt lat="42.9897099" lon="11.2159271"><ele>119.0</ele><time>2026-05-02T15:36:26.668Z</time></trkpt><trkpt lat="42.9897488" lon="11.215847"><ele>119.0</ele><time>2026-05-02T15:36:27.643Z</time></trkpt><trkpt lat="42.989794" lon="11.2157554"><ele>118.99999999999999</ele><time>2026-05-02T15:36:28.646Z</time></trkpt><trkpt lat="42.9898428" lon="11.2156527"><ele>119.0</ele><time>2026-05-02T15:36:29.639Z</time></trkpt><trkpt lat="42.9898925" lon="11.2155438"><ele>119.0</ele><time>2026-05-02T15:36:30.644Z</time></trkpt><trkpt lat="42.9899441" lon="11.2154278"><ele>119.0</ele><time>2026-05-02T15:36:31.63Z</time></trkpt><trkpt lat="42.9900027" lon="11.215308"><ele>119.0</ele><time>2026-05-02T15:36:32.652Z</time></trkpt><trkpt lat="42.9900707" lon="11.2151733"><ele>119.0</ele><time>2026-05-02T15:36:33.645Z</time></trkpt><trkpt lat="42.9901413" lon="11.2150344"><ele>119.0</ele><time>2026-05-02T15:36:34.652Z</time></trkpt><trkpt lat="42.9902153" lon="11.2148877"><ele>119.75</ele><time>2026-05-02T15:36:35.631Z</time></trkpt><trkpt lat="42.9902933" lon="11.2147302"><ele>120.5</ele><time>2026-05-02T15:36:36.631Z</time></trkpt><trkpt lat="42.9903735" lon="11.2145629"><ele>121.25</ele><time>2026-05-02T15:36:37.643Z</time></trkpt><trkpt lat="42.9904533" lon="11.2143911"><ele>122.0</ele><time>2026-05-02T15:36:38.645Z</time></trkpt><trkpt lat="42.9905397" lon="11.2142183"><ele>122.0</ele><time>2026-05-02T15:36:39.651Z</time></trkpt><trkpt lat="42.990624" lon="11.2140446"><ele>122.0</ele><time>2026-05-02T15:36:40.652Z</time></trkpt><trkpt lat="42.9907064" lon="11.2138686"><ele>122.0</ele><time>2026-05-02T15:36:41.651Z</time></trkpt><trkpt lat="42.9907874" lon="11.2136966"><ele>122.5</ele><time>2026-05-02T15:36:42.639Z</time></trkpt><trkpt lat="42.990868" lon="11.213537"><ele>123.0</ele><time>2026-05-02T15:36:43.647Z</time></trkpt><trkpt lat="42.9909433" lon="11.2133985"><ele>123.5</ele><time>2026-05-02T15:36:44.651Z</time></trkpt><trkpt lat="42.9910134" lon="11.2132723"><ele>124.0</ele><time>2026-05-02T15:36:45.645Z</time></trkpt><trkpt lat="42.9910731" lon="11.213141"><ele>124.25</ele><time>2026-05-02T15:36:46.648Z</time></trkpt><trkpt lat="42.9911206" lon="11.2129959"><ele>124.5</ele><time>2026-05-02T15:36:47.646Z</time></trkpt><trkpt lat="42.9911515" lon="11.2128402"><ele>124.75</ele><time>2026-05-02T15:36:48.646Z</time></trkpt><trkpt lat="42.9911694" lon="11.2126765"><ele>125.0</ele><time>2026-05-02T15:36:49.643Z</time></trkpt><trkpt lat="42.9911757" lon="11.212508"><ele>125.0</ele><time>2026-05-02T15:36:50.646Z</time></trkpt><trkpt lat="42.9911656" lon="11.2123385"><ele>125.0</ele><time>2026-05-02T15:36:51.654Z</time></trkpt><trkpt lat="42.9911382" lon="11.2121725"><ele>125.0</ele><time>2026-05-02T15:36:52.646Z</time></trkpt><trkpt lat="42.9911018" lon="11.2120102"><ele>125.0</ele><time>2026-05-02T15:36:53.65Z</time></trkpt><trkpt lat="42.9910643" lon="11.2118603"><ele>125.25</ele><time>2026-05-02T15:36:54.641Z</time></trkpt><trkpt lat="42.9910297" lon="11.2117178"><ele>125.5</ele><time>2026-05-02T15:36:55.65Z</time></trkpt><trkpt lat="42.9910082" lon="11.2115609"><ele>125.75</ele><time>2026-05-02T15:36:56.641Z</time></trkpt><trkpt lat="42.9910024" lon="11.2113912"><ele>126.0</ele><time>2026-05-02T15:36:57.648Z</time></trkpt><trkpt lat="42.9910122" lon="11.2112079"><ele>126.4</ele><time>2026-05-02T15:36:58.658Z</time></trkpt><trkpt lat="42.9910322" lon="11.2110348"><ele>126.8</ele><time>2026-05-02T15:36:59.654Z</time></trkpt><trkpt lat="42.9910534" lon="11.2108857"><ele>127.20000000000002</ele><time>2026-05-02T15:37:00.644Z</time></trkpt><trkpt lat="42.9910697" lon="11.2107583"><ele>127.60000000000001</ele><time>2026-05-02T15:37:01.638Z</time></trkpt><trkpt lat="42.9910883" lon="11.2106356"><ele>128.0</ele><time>2026-05-02T15:37:02.643Z</time></trkpt><trkpt lat="42.9911261" lon="11.2105074"><ele>129.0</ele><time>2026-05-02T15:37:03.657Z</time></trkpt><trkpt lat="42.9911868" lon="11.2103869"><ele>130.0</ele><time>2026-05-02T15:37:04.647Z</time></trkpt><trkpt lat="42.9912694" lon="11.210263"><ele>131.0</ele><time>2026-05-02T15:37:05.635Z</time></trkpt><trkpt lat="42.9913631" lon="11.2101307"><ele>132.0</ele><time>2026-05-02T15:37:06.652Z</time></trkpt><trkpt lat="42.9914628" lon="11.2099831"><ele>132.0</ele><time>2026-05-02T15:37:07.644Z</time></trkpt><trkpt lat="42.9915611" lon="11.2098305"><ele>132.0</ele><time>2026-05-02T15:37:08.643Z</time></trkpt><trkpt lat="42.991662" lon="11.2096843"><ele>132.0</ele><time>2026-05-02T15:37:09.651Z</time></trkpt><trkpt lat="42.9917574" lon="11.2095367"><ele>132.0</ele><time>2026-05-02T15:37:10.658Z</time></trkpt><trkpt lat="42.9918457" lon="11.2093988"><ele>131.79999999999998</ele><time>2026-05-02T15:37:11.647Z</time></trkpt><trkpt lat="42.9919266" lon="11.2092742"><ele>131.6</ele><time>2026-05-02T15:37:12.647Z</time></trkpt><trkpt lat="42.9919964" lon="11.2091624"><ele>131.39999999999998</ele><time>2026-05-02T15:37:13.648Z</time></trkpt><trkpt lat="42.9920413" lon="11.2090618"><ele>131.2</ele><time>2026-05-02T15:37:14.648Z</time></trkpt><trkpt lat="42.9920564" lon="11.2089615"><ele>131.0</ele><time>2026-05-02T15:37:15.653Z</time></trkpt><trkpt lat="42.9920395" lon="11.2088655"><ele>131.4</ele><time>2026-05-02T15:37:16.648Z</time></trkpt><trkpt lat="42.9919824" lon="11.2087884"><ele>131.8</ele><time>2026-05-02T15:37:17.644Z</time></trkpt><trkpt lat="42.9919017" lon="11.208711"><ele>132.20000000000002</ele><time>2026-05-02T15:37:18.65Z</time></trkpt><trkpt lat="42.9918091" lon="11.2086238"><ele>132.6</ele><time>2026-05-02T15:37:19.66Z</time></trkpt><trkpt lat="42.9917073" lon="11.2085207"><ele>133.0</ele><time>2026-05-02T15:37:20.654Z</time></trkpt><trkpt lat="42.9915961" lon="11.2084079"><ele>133.75</ele><time>2026-05-02T15:37:21.64Z</time></trkpt><trkpt lat="42.9914808" lon="11.2082819"><ele>134.5</ele><time>2026-05-02T15:37:22.663Z</time></trkpt><trkpt lat="42.991362" lon="11.2081553"><ele>135.25</ele><time>2026-05-02T15:37:23.652Z</time></trkpt><trkpt lat="42.9912429" lon="11.208029"><ele>136.0</ele><time>2026-05-02T15:37:24.657Z</time></trkpt><trkpt lat="42.991125" lon="11.2078966"><ele>136.0</ele><time>2026-05-02T15:37:25.647Z</time></trkpt><trkpt lat="42.9910098" lon="11.2077681"><ele>136.0</ele><time>2026-05-02T15:37:26.657Z</time></trkpt><trkpt lat="42.9908943" lon="11.2076364"><ele>136.0</ele><time>2026-05-02T15:37:27.645Z</time></trkpt><trkpt lat="42.9907809" lon="11.2075105"><ele>136.0</ele><time>2026-05-02T15:37:28.648Z</time></trkpt><trkpt lat="42.9906724" lon="11.2073846"><ele>136.75</ele><time>2026-05-02T15:37:29.649Z</time></trkpt><trkpt lat="42.9905625" lon="11.207263"><ele>137.5</ele><time>2026-05-02T15:37:30.643Z</time></trkpt><trkpt lat="42.9904497" lon="11.2071393"><ele>138.25</ele><time>2026-05-02T15:37:31.646Z</time></trkpt><trkpt lat="42.9903341" lon="11.2070167"><ele>139.0</ele><time>2026-05-02T15:37:32.641Z</time></trkpt><trkpt lat="42.9902207" lon="11.2068927"><ele>139.0</ele><time>2026-05-02T15:37:33.639Z</time></trkpt><trkpt lat="42.9901079" lon="11.2067648"><ele>139.0</ele><time>2026-05-02T15:37:34.65Z</time></trkpt><trkpt lat="42.9899889" lon="11.2066467"><ele>139.0</ele><time>2026-05-02T15:37:35.649Z</time></trkpt><trkpt lat="42.9898705" lon="11.2065276"><ele>139.0</ele><time>2026-05-02T15:37:36.646Z</time></trkpt><trkpt lat="42.9897523" lon="11.20641"><ele>139.25</ele><time>2026-05-02T15:37:37.646Z</time></trkpt><trkpt lat="42.9896369" lon="11.2062943"><ele>139.5</ele><time>2026-05-02T15:37:38.651Z</time></trkpt><trkpt lat="42.9895302" lon="11.2061818"><ele>139.75</ele><time>2026-05-02T15:37:39.645Z</time></trkpt><trkpt lat="42.9894359" lon="11.2060943"><ele>140.0</ele><time>2026-05-02T15:37:40.659Z</time></trkpt><trkpt lat="42.9893452" lon="11.2060582"><ele>140.0</ele><time>2026-05-02T15:37:41.645Z</time></trkpt><trkpt lat="42.989265" lon="11.2060519"><ele>140.0</ele><time>2026-05-02T15:37:42.648Z</time></trkpt><trkpt lat="42.9891821" lon="11.2060843"><ele>140.0</ele><time>2026-05-02T15:37:43.645Z</time></trkpt><trkpt lat="42.9890932" lon="11.2061357"><ele>140.0</ele><time>2026-05-02T15:37:44.639Z</time></trkpt><trkpt lat="42.9890013" lon="11.2061717"><ele>140.0</ele><time>2026-05-02T15:37:45.649Z</time></trkpt><trkpt lat="42.9888907" lon="11.2062079"><ele>141.5</ele><time>2026-05-02T15:37:46.639Z</time></trkpt><trkpt lat="42.9887696" lon="11.2062349"><ele>143.0</ele><time>2026-05-02T15:37:47.642Z</time></trkpt><trkpt lat="42.9886438" lon="11.2062548"><ele>144.5</ele><time>2026-05-02T15:37:48.639Z</time></trkpt><trkpt lat="42.988514" lon="11.2062807"><ele>146.0</ele><time>2026-05-02T15:37:49.648Z</time></trkpt><trkpt lat="42.9883825" lon="11.2063084"><ele>146.75</ele><time>2026-05-02T15:37:50.64Z</time></trkpt><trkpt lat="42.9882558" lon="11.2063325"><ele>147.5</ele><time>2026-05-02T15:37:51.645Z</time></trkpt><trkpt lat="42.9881374" lon="11.2063709"><ele>148.25</ele><time>2026-05-02T15:37:52.636Z</time></trkpt><trkpt lat="42.9880276" lon="11.2064191"><ele>149.0</ele><time>2026-05-02T15:37:53.642Z</time></trkpt><trkpt lat="42.9879314" lon="11.2064734"><ele>147.4</ele><time>2026-05-02T15:37:54.636Z</time></trkpt><trkpt lat="42.9878446" lon="11.2065237"><ele>145.8</ele><time>2026-05-02T15:37:55.65Z</time></trkpt><trkpt lat="42.9877635" lon="11.2065587"><ele>144.2</ele><time>2026-05-02T15:37:56.64Z</time></trkpt><trkpt lat="42.9876747" lon="11.2065769"><ele>142.6</ele><time>2026-05-02T15:37:57.639Z</time></trkpt><trkpt lat="42.9875847" lon="11.2065998"><ele>141.0</ele><time>2026-05-02T15:37:58.636Z</time></trkpt><trkpt lat="42.9874944" lon="11.2066259"><ele>140.8</ele><time>2026-05-02T15:37:59.644Z</time></trkpt><trkpt lat="42.9874005" lon="11.2066551"><ele>140.6</ele><time>2026-05-02T15:38:00.641Z</time></trkpt><trkpt lat="42.987303" lon="11.2066832"><ele>140.4</ele><time>2026-05-02T15:38:01.646Z</time></trkpt><trkpt lat="42.9872098" lon="11.2067113"><ele>140.2</ele><time>2026-05-02T15:38:02.641Z</time></trkpt><trkpt lat="42.9871292" lon="11.2067457"><ele>140.0</ele><time>2026-05-02T15:38:03.652Z</time></trkpt><trkpt lat="42.9870546" lon="11.2067855"><ele>140.0</ele><time>2026-05-02T15:38:04.635Z</time></trkpt><trkpt lat="42.9869735" lon="11.2068403"><ele>140.0</ele><time>2026-05-02T15:38:05.653Z</time></trkpt><trkpt lat="42.9868818" lon="11.2069102"><ele>140.0</ele><time>2026-05-02T15:38:06.644Z</time></trkpt><trkpt lat="42.9867842" lon="11.2069829"><ele>140.0</ele><time>2026-05-02T15:38:07.647Z</time></trkpt><trkpt lat="42.9866808" lon="11.2070649"><ele>140.0</ele><time>2026-05-02T15:38:08.642Z</time></trkpt><trkpt lat="42.9865796" lon="11.2071522"><ele>138.4</ele><time>2026-05-02T15:38:09.644Z</time></trkpt><trkpt lat="42.9864884" lon="11.2072355"><ele>136.8</ele><time>2026-05-02T15:38:10.653Z</time></trkpt><trkpt lat="42.9864001" lon="11.2073123"><ele>135.2</ele><time>2026-05-02T15:38:11.641Z</time></trkpt><trkpt lat="42.9863193" lon="11.2073684"><ele>133.6</ele><time>2026-05-02T15:38:12.633Z</time></trkpt><trkpt lat="42.9862369" lon="11.2073989"><ele>132.0</ele><time>2026-05-02T15:38:13.648Z</time></trkpt><trkpt lat="42.9861511" lon="11.2074014"><ele>132.0</ele><time>2026-05-02T15:38:14.648Z</time></trkpt><trkpt lat="42.9860694" lon="11.2073629"><ele>132.0</ele><time>2026-05-02T15:38:15.64Z</time></trkpt><trkpt lat="42.985994" lon="11.2073057"><ele>132.0</ele><time>2026-05-02T15:38:16.649Z</time></trkpt><trkpt lat="42.9859303" lon="11.2072154"><ele>132.0</ele><time>2026-05-02T15:38:17.639Z</time></trkpt><trkpt lat="42.9858755" lon="11.2071043"><ele>132.0</ele><time>2026-05-02T15:38:18.643Z</time></trkpt><trkpt lat="42.9858132" lon="11.2069895"><ele>132.0</ele><time>2026-05-02T15:38:19.638Z</time></trkpt><trkpt lat="42.9857429" lon="11.2068685"><ele>132.0</ele><time>2026-05-02T15:38:20.648Z</time></trkpt><trkpt lat="42.9856703" lon="11.2067462"><ele>132.0</ele><time>2026-05-02T15:38:21.641Z</time></trkpt><trkpt lat="42.9855962" lon="11.2066205"><ele>132.0</ele><time>2026-05-02T15:38:22.651Z</time></trkpt><trkpt lat="42.9855247" lon="11.2064936"><ele>132.0</ele><time>2026-05-02T15:38:23.643Z</time></trkpt><trkpt lat="42.9854502" lon="11.2063649"><ele>132.0</ele><time>2026-05-02T15:38:24.637Z</time></trkpt><trkpt lat="42.9853692" lon="11.2062362"><ele>132.0</ele><time>2026-05-02T15:38:25.643Z</time></trkpt><trkpt lat="42.9852877" lon="11.2061127"><ele>132.0</ele><time>2026-05-02T15:38:26.646Z</time></trkpt><trkpt lat="42.9852163" lon="11.2059969"><ele>132.0</ele><time>2026-05-02T15:38:27.638Z</time></trkpt><trkpt lat="42.9851499" lon="11.2059135"><ele>132.0</ele><time>2026-05-02T15:38:28.644Z</time></trkpt><trkpt lat="42.9850434" lon="11.2059027"><ele>132.0</ele><time>2026-05-02T15:38:30.652Z</time></trkpt><trkpt lat="42.9849896" lon="11.2059626"><ele>132.0</ele><time>2026-05-02T15:38:31.644Z</time></trkpt><trkpt lat="42.9849414" lon="11.2060472"><ele>132.0</ele><time>2026-05-02T15:38:32.662Z</time></trkpt><trkpt lat="42.984895" lon="11.2061352"><ele>132.0</ele><time>2026-05-02T15:38:33.643Z</time></trkpt><trkpt lat="42.9848543" lon="11.2062045"><ele>132.5</ele><time>2026-05-02T15:38:34.648Z</time></trkpt><trkpt lat="42.9847941" lon="11.2062522"><ele>133.0</ele><time>2026-05-02T15:38:36.65Z</time></trkpt><trkpt lat="42.9847571" lon="11.2063515"><ele>133.5</ele><time>2026-05-02T15:38:40.651Z</time></trkpt><trkpt lat="42.9847007" lon="11.2064038"><ele>134.0</ele><time>2026-05-02T15:38:42.649Z</time></trkpt><trkpt lat="42.9845694" lon="11.206349"><ele>134.5</ele><time>2026-05-02T15:38:44.644Z</time></trkpt><trkpt lat="42.9844879" lon="11.2062932"><ele>135.0</ele><time>2026-05-02T15:38:45.641Z</time></trkpt><trkpt lat="42.9843983" lon="11.2062287"><ele>135.0</ele><time>2026-05-02T15:38:46.635Z</time></trkpt><trkpt lat="42.9843044" lon="11.2061693"><ele>135.0</ele><time>2026-05-02T15:38:47.636Z</time></trkpt><trkpt lat="42.9842033" lon="11.2061104"><ele>135.0</ele><time>2026-05-02T15:38:48.655Z</time></trkpt><trkpt lat="42.9841" lon="11.2060534"><ele>135.0</ele><time>2026-05-02T15:38:49.641Z</time></trkpt><trkpt lat="42.9839963" lon="11.2059938"><ele>135.0</ele><time>2026-05-02T15:38:50.648Z</time></trkpt><trkpt lat="42.983893" lon="11.2059402"><ele>135.2</ele><time>2026-05-02T15:38:51.639Z</time></trkpt><trkpt lat="42.9837912" lon="11.2058936"><ele>135.4</ele><time>2026-05-02T15:38:52.647Z</time></trkpt><trkpt lat="42.9836938" lon="11.2058421"><ele>135.6</ele><time>2026-05-02T15:38:53.65Z</time></trkpt><trkpt lat="42.9835915" lon="11.2057898"><ele>135.8</ele><time>2026-05-02T15:38:54.651Z</time></trkpt><trkpt lat="42.9834868" lon="11.2057417"><ele>136.0</ele><time>2026-05-02T15:38:55.637Z</time></trkpt><trkpt lat="42.9833867" lon="11.2056951"><ele>136.6</ele><time>2026-05-02T15:38:56.653Z</time></trkpt><trkpt lat="42.9832982" lon="11.2056475"><ele>137.2</ele><time>2026-05-02T15:38:57.649Z</time></trkpt><trkpt lat="42.9832237" lon="11.2055861"><ele>137.8</ele><time>2026-05-02T15:38:58.663Z</time></trkpt><trkpt lat="42.9831605" lon="11.2054948"><ele>138.4</ele><time>2026-05-02T15:38:59.653Z</time></trkpt><trkpt lat="42.9831045" lon="11.2053787"><ele>139.0</ele><time>2026-05-02T15:39:00.654Z</time></trkpt><trkpt lat="42.9830461" lon="11.205251"><ele>139.0</ele><time>2026-05-02T15:39:01.638Z</time></trkpt><trkpt lat="42.9829849" lon="11.2051182"><ele>139.0</ele><time>2026-05-02T15:39:02.646Z</time></trkpt><trkpt lat="42.9829202" lon="11.204993"><ele>139.0</ele><time>2026-05-02T15:39:03.639Z</time></trkpt><trkpt lat="42.9828638" lon="11.2048727"><ele>139.0</ele><time>2026-05-02T15:39:04.634Z</time></trkpt><trkpt lat="42.9828115" lon="11.2047471"><ele>139.0</ele><time>2026-05-02T15:39:05.639Z</time></trkpt><trkpt lat="42.9827575" lon="11.2046357"><ele>139.5</ele><time>2026-05-02T15:39:06.665Z</time></trkpt><trkpt lat="42.9827103" lon="11.2045403"><ele>140.0</ele><time>2026-05-02T15:39:07.652Z</time></trkpt><trkpt lat="42.9826781" lon="11.2044652"><ele>140.5</ele><time>2026-05-02T15:39:08.649Z</time></trkpt><trkpt lat="42.98267" lon="11.2043339"><ele>141.0</ele><time>2026-05-02T15:39:10.638Z</time></trkpt><trkpt lat="42.9827006" lon="11.2042553"><ele>141.5</ele><time>2026-05-02T15:39:11.637Z</time></trkpt><trkpt lat="42.9827496" lon="11.2041798"><ele>142.0</ele><time>2026-05-02T15:39:12.649Z</time></trkpt><trkpt lat="42.9828013" lon="11.2040972"><ele>142.5</ele><time>2026-05-02T15:39:13.651Z</time></trkpt><trkpt lat="42.9828559" lon="11.2039915"><ele>143.0</ele><time>2026-05-02T15:39:14.649Z</time></trkpt><trkpt lat="42.9829192" lon="11.2038551"><ele>143.5</ele><time>2026-05-02T15:39:15.646Z</time></trkpt><trkpt lat="42.9829929" lon="11.2037043"><ele>144.0</ele><time>2026-05-02T15:39:16.649Z</time></trkpt><trkpt lat="42.9830654" lon="11.2035482"><ele>144.0</ele><time>2026-05-02T15:39:17.649Z</time></trkpt><trkpt lat="42.9831357" lon="11.2033844"><ele>144.0</ele><time>2026-05-02T15:39:18.657Z</time></trkpt><trkpt lat="42.98321" lon="11.2032142"><ele>144.0</ele><time>2026-05-02T15:39:19.636Z</time></trkpt><trkpt lat="42.9832891" lon="11.2030424"><ele>144.0</ele><time>2026-05-02T15:39:20.657Z</time></trkpt><trkpt lat="42.9833695" lon="11.202866"><ele>148.0</ele><time>2026-05-02T15:39:21.639Z</time></trkpt><trkpt lat="42.9834507" lon="11.2026915"><ele>152.0</ele><time>2026-05-02T15:39:22.665Z</time></trkpt><trkpt lat="42.9835302" lon="11.2025175"><ele>156.0</ele><time>2026-05-02T15:39:23.646Z</time></trkpt><trkpt lat="42.9836081" lon="11.2023416"><ele>158.66666666666666</ele><time>2026-05-02T15:39:24.634Z</time></trkpt><trkpt lat="42.9836901" lon="11.2021584"><ele>161.33333333333331</ele><time>2026-05-02T15:39:25.646Z</time></trkpt><trkpt lat="42.9837748" lon="11.20198"><ele>164.0</ele><time>2026-05-02T15:39:26.647Z</time></trkpt><trkpt lat="42.9838614" lon="11.2017951"><ele>164.0</ele><time>2026-05-02T15:39:27.65Z</time></trkpt><trkpt lat="42.9839445" lon="11.2016179"><ele>164.0</ele><time>2026-05-02T15:39:28.65Z</time></trkpt><trkpt lat="42.9840268" lon="11.2014436"><ele>164.0</ele><time>2026-05-02T15:39:29.647Z</time></trkpt><trkpt lat="42.9841059" lon="11.2012727"><ele>165.0</ele><time>2026-05-02T15:39:30.655Z</time></trkpt><trkpt lat="42.9841828" lon="11.201107"><ele>166.0</ele><time>2026-05-02T15:39:31.642Z</time></trkpt><trkpt lat="42.9842558" lon="11.2009525"><ele>167.0</ele><time>2026-05-02T15:39:32.652Z</time></trkpt><trkpt lat="42.9843223" lon="11.2008038"><ele>168.0</ele><time>2026-05-02T15:39:33.632Z</time></trkpt><trkpt lat="42.9843866" lon="11.2006548"><ele>168.4</ele><time>2026-05-02T15:39:34.634Z</time></trkpt><trkpt lat="42.9844449" lon="11.2005268"><ele>168.8</ele><time>2026-05-02T15:39:35.648Z</time></trkpt><trkpt lat="42.9845076" lon="11.2004287"><ele>169.2</ele><time>2026-05-02T15:39:36.647Z</time></trkpt><trkpt lat="42.9845842" lon="11.2003407"><ele>169.6</ele><time>2026-05-02T15:39:37.645Z</time></trkpt><trkpt lat="42.984686" lon="11.2002524"><ele>170.0</ele><time>2026-05-02T15:39:38.642Z</time></trkpt><trkpt lat="42.9848027" lon="11.2001561"><ele>170.0</ele><time>2026-05-02T15:39:39.642Z</time></trkpt><trkpt lat="42.9849286" lon="11.2000491"><ele>170.0</ele><time>2026-05-02T15:39:40.649Z</time></trkpt><trkpt lat="42.9850546" lon="11.1999397"><ele>170.0</ele><time>2026-05-02T15:39:41.647Z</time></trkpt><trkpt lat="42.9851766" lon="11.1998284"><ele>170.0</ele><time>2026-05-02T15:39:42.644Z</time></trkpt><trkpt lat="42.985295" lon="11.199721"><ele>171.25</ele><time>2026-05-02T15:39:43.647Z</time></trkpt><trkpt lat="42.9854008" lon="11.1996169"><ele>172.5</ele><time>2026-05-02T15:39:44.642Z</time></trkpt><trkpt lat="42.9854952" lon="11.1995057"><ele>173.75</ele><time>2026-05-02T15:39:45.641Z</time></trkpt><trkpt lat="42.9855723" lon="11.1993798"><ele>175.0</ele><time>2026-05-02T15:39:46.636Z</time></trkpt><trkpt lat="42.9856318" lon="11.1992381"><ele>175.0</ele><time>2026-05-02T15:39:47.645Z</time></trkpt><trkpt lat="42.9856827" lon="11.1990768"><ele>175.0</ele><time>2026-05-02T15:39:48.649Z</time></trkpt><trkpt lat="42.9857334" lon="11.1989021"><ele>175.0</ele><time>2026-05-02T15:39:49.65Z</time></trkpt><trkpt lat="42.985786" lon="11.1987239"><ele>175.0</ele><time>2026-05-02T15:39:50.66Z</time></trkpt><trkpt lat="42.9858385" lon="11.198536"><ele>179.66666666666669</ele><time>2026-05-02T15:39:51.657Z</time></trkpt><trkpt lat="42.9858906" lon="11.198344"><ele>184.33333333333334</ele><time>2026-05-02T15:39:52.648Z</time></trkpt><trkpt lat="42.9859439" lon="11.1981408"><ele>189.0</ele><time>2026-05-02T15:39:53.64Z</time></trkpt><trkpt lat="42.9859988" lon="11.1979267"><ele>191.0</ele><time>2026-05-02T15:39:54.656Z</time></trkpt><trkpt lat="42.9860552" lon="11.1977146"><ele>193.0</ele><time>2026-05-02T15:39:55.644Z</time></trkpt><trkpt lat="42.9861134" lon="11.1975093"><ele>195.0</ele><time>2026-05-02T15:39:56.652Z</time></trkpt><trkpt lat="42.986172" lon="11.1973119"><ele>196.25</ele><time>2026-05-02T15:39:57.648Z</time></trkpt><trkpt lat="42.9862271" lon="11.1971213"><ele>197.5</ele><time>2026-05-02T15:39:58.639Z</time></trkpt><trkpt lat="42.9862759" lon="11.1969353"><ele>198.75</ele><time>2026-05-02T15:39:59.64Z</time></trkpt><trkpt lat="42.9863182" lon="11.1967478"><ele>200.0</ele><time>2026-05-02T15:40:00.646Z</time></trkpt><trkpt lat="42.986364" lon="11.1965662"><ele>200.5</ele><time>2026-05-02T15:40:01.645Z</time></trkpt><trkpt lat="42.9864165" lon="11.1963825"><ele>201.0</ele><time>2026-05-02T15:40:02.639Z</time></trkpt><trkpt lat="42.9864668" lon="11.196213"><ele>201.5</ele><time>2026-05-02T15:40:03.649Z</time></trkpt><trkpt lat="42.9865107" lon="11.1960552"><ele>202.0</ele><time>2026-05-02T15:40:04.656Z</time></trkpt><trkpt lat="42.986547" lon="11.1959103"><ele>202.0</ele><time>2026-05-02T15:40:05.633Z</time></trkpt><trkpt lat="42.9865868" lon="11.1957594"><ele>202.0</ele><time>2026-05-02T15:40:06.656Z</time></trkpt><trkpt lat="42.9866312" lon="11.1955823"><ele>202.0</ele><time>2026-05-02T15:40:07.631Z</time></trkpt><trkpt lat="42.9866745" lon="11.1953839"><ele>202.0</ele><time>2026-05-02T15:40:08.653Z</time></trkpt><trkpt lat="42.9867164" lon="11.195187"><ele>202.5</ele><time>2026-05-02T15:40:09.647Z</time></trkpt><trkpt lat="42.9867605" lon="11.1949922"><ele>203.0</ele><time>2026-05-02T15:40:10.645Z</time></trkpt><trkpt lat="42.9868109" lon="11.1948006"><ele>203.5</ele><time>2026-05-02T15:40:11.654Z</time></trkpt><trkpt lat="42.9868629" lon="11.1946089"><ele>204.0</ele><time>2026-05-02T15:40:12.655Z</time></trkpt><trkpt lat="42.9869117" lon="11.194419"><ele>204.0</ele><time>2026-05-02T15:40:13.643Z</time></trkpt><trkpt lat="42.986958" lon="11.19422"><ele>204.0</ele><time>2026-05-02T15:40:14.641Z</time></trkpt><trkpt lat="42.9870042" lon="11.194028"><ele>204.0</ele><time>2026-05-02T15:40:15.656Z</time></trkpt><trkpt lat="42.9870515" lon="11.1938441"><ele>204.0</ele><time>2026-05-02T15:40:16.646Z</time></trkpt><trkpt lat="42.9870973" lon="11.193683"><ele>205.6</ele><time>2026-05-02T15:40:17.653Z</time></trkpt><trkpt lat="42.9871446" lon="11.1935481"><ele>207.2</ele><time>2026-05-02T15:40:18.652Z</time></trkpt><trkpt lat="42.9871906" lon="11.1934372"><ele>208.79999999999998</ele><time>2026-05-02T15:40:19.64Z</time></trkpt><trkpt lat="42.9872453" lon="11.1933251"><ele>210.39999999999998</ele><time>2026-05-02T15:40:20.649Z</time></trkpt><trkpt lat="42.9873077" lon="11.1931841"><ele>212.0</ele><time>2026-05-02T15:40:21.645Z</time></trkpt><trkpt lat="42.9873765" lon="11.1930274"><ele>213.0</ele><time>2026-05-02T15:40:22.64Z</time></trkpt><trkpt lat="42.9874497" lon="11.1928691"><ele>214.0</ele><time>2026-05-02T15:40:23.648Z</time></trkpt><trkpt lat="42.9875266" lon="11.1927038"><ele>215.0</ele><time>2026-05-02T15:40:24.648Z</time></trkpt><trkpt lat="42.9876114" lon="11.1925281"><ele>216.0</ele><time>2026-05-02T15:40:25.642Z</time></trkpt><trkpt lat="42.9876946" lon="11.1923577"><ele>218.25</ele><time>2026-05-02T15:40:26.654Z</time></trkpt><trkpt lat="42.9877731" lon="11.192195"><ele>220.5</ele><time>2026-05-02T15:40:27.635Z</time></trkpt><trkpt lat="42.9878449" lon="11.1920472"><ele>222.75</ele><time>2026-05-02T15:40:28.647Z</time></trkpt><trkpt lat="42.9879082" lon="11.1919129"><ele>225.0</ele><time>2026-05-02T15:40:29.651Z</time></trkpt><trkpt lat="42.9879632" lon="11.1918003"><ele>225.0</ele><time>2026-05-02T15:40:30.65Z</time></trkpt><trkpt lat="42.9880218" lon="11.1917136"><ele>225.0</ele><time>2026-05-02T15:40:31.651Z</time></trkpt><trkpt lat="42.9880976" lon="11.1916354"><ele>225.0</ele><time>2026-05-02T15:40:32.649Z</time></trkpt><trkpt lat="42.9881874" lon="11.1915657"><ele>225.0</ele><time>2026-05-02T15:40:33.635Z</time></trkpt><trkpt lat="42.988285" lon="11.1914898"><ele>225.0</ele><time>2026-05-02T15:40:34.631Z</time></trkpt><trkpt lat="42.9883865" lon="11.1914066"><ele>229.0</ele><time>2026-05-02T15:40:35.654Z</time></trkpt><trkpt lat="42.9884896" lon="11.1913154"><ele>233.0</ele><time>2026-05-02T15:40:36.65Z</time></trkpt><trkpt lat="42.9885934" lon="11.1912248"><ele>237.0</ele><time>2026-05-02T15:40:37.634Z</time></trkpt><trkpt lat="42.9887002" lon="11.1911309"><ele>241.0</ele><time>2026-05-02T15:40:38.651Z</time></trkpt><trkpt lat="42.9888091" lon="11.1910369"><ele>241.0</ele><time>2026-05-02T15:40:39.646Z</time></trkpt><trkpt lat="42.9889203" lon="11.190946"><ele>241.0</ele><time>2026-05-02T15:40:40.646Z</time></trkpt><trkpt lat="42.9890311" lon="11.1908492"><ele>241.0</ele><time>2026-05-02T15:40:41.649Z</time></trkpt><trkpt lat="42.9891397" lon="11.1907562"><ele>241.0</ele><time>2026-05-02T15:40:42.643Z</time></trkpt><trkpt lat="42.9892441" lon="11.1906675"><ele>246.75</ele><time>2026-05-02T15:40:43.648Z</time></trkpt><trkpt lat="42.9893502" lon="11.1905653"><ele>252.5</ele><time>2026-05-02T15:40:44.642Z</time></trkpt><trkpt lat="42.9894551" lon="11.1904687"><ele>258.25</ele><time>2026-05-02T15:40:45.648Z</time></trkpt><trkpt lat="42.9895479" lon="11.1903663"><ele>264.0</ele><time>2026-05-02T15:40:46.645Z</time></trkpt><trkpt lat="42.9896253" lon="11.1902504"><ele>264.0</ele><time>2026-05-02T15:40:47.638Z</time></trkpt><trkpt lat="42.9896913" lon="11.1901215"><ele>264.0</ele><time>2026-05-02T15:40:48.651Z</time></trkpt><trkpt lat="42.9897609" lon="11.1899811"><ele>264.0</ele><time>2026-05-02T15:40:49.643Z</time></trkpt><trkpt lat="42.9898405" lon="11.1898528"><ele>264.0</ele><time>2026-05-02T15:40:50.645Z</time></trkpt><trkpt lat="42.98992" lon="11.1897365"><ele>264.25</ele><time>2026-05-02T15:40:51.642Z</time></trkpt><trkpt lat="42.989997" lon="11.1896087"><ele>264.5</ele><time>2026-05-02T15:40:52.649Z</time></trkpt><trkpt lat="42.9900749" lon="11.1894955"><ele>264.75</ele><time>2026-05-02T15:40:53.655Z</time></trkpt><trkpt lat="42.9901666" lon="11.1894045"><ele>265.0</ele><time>2026-05-02T15:40:54.644Z</time></trkpt><trkpt lat="42.9902513" lon="11.1893159"><ele>268.0</ele><time>2026-05-02T15:40:55.645Z</time></trkpt><trkpt lat="42.9903155" lon="11.1892156"><ele>271.0</ele><time>2026-05-02T15:40:56.645Z</time></trkpt><trkpt lat="42.9903567" lon="11.1890895"><ele>274.0</ele><time>2026-05-02T15:40:57.654Z</time></trkpt><trkpt lat="42.9903916" lon="11.1889347"><ele>277.0</ele><time>2026-05-02T15:40:58.649Z</time></trkpt><trkpt lat="42.990433" lon="11.1887777"><ele>280.0</ele><time>2026-05-02T15:40:59.65Z</time></trkpt><trkpt lat="42.990479" lon="11.1886106"><ele>281.75</ele><time>2026-05-02T15:41:00.64Z</time></trkpt><trkpt lat="42.9905131" lon="11.1884446"><ele>283.5</ele><time>2026-05-02T15:41:01.662Z</time></trkpt><trkpt lat="42.9905317" lon="11.1882734"><ele>285.25</ele><time>2026-05-02T15:41:02.651Z</time></trkpt><trkpt lat="42.9905451" lon="11.1880976"><ele>287.0</ele><time>2026-05-02T15:41:03.646Z</time></trkpt><trkpt lat="42.9905455" lon="11.1879312"><ele>288.0</ele><time>2026-05-02T15:41:04.647Z</time></trkpt><trkpt lat="42.9905391" lon="11.1877742"><ele>289.0</ele><time>2026-05-02T15:41:05.65Z</time></trkpt><trkpt lat="42.990533" lon="11.1876308"><ele>290.0</ele><time>2026-05-02T15:41:06.648Z</time></trkpt><trkpt lat="42.9905438" lon="11.1875172"><ele>291.0</ele><time>2026-05-02T15:41:07.641Z</time></trkpt><trkpt lat="42.9906271" lon="11.1874408"><ele>292.0</ele><time>2026-05-02T15:41:09.642Z</time></trkpt><trkpt lat="42.9906902" lon="11.1874516"><ele>292.0</ele><time>2026-05-02T15:41:10.635Z</time></trkpt><trkpt lat="42.9907623" lon="11.1874599"><ele>292.0</ele><time>2026-05-02T15:41:11.65Z</time></trkpt><trkpt lat="42.9908398" lon="11.1874526"><ele>292.0</ele><time>2026-05-02T15:41:12.661Z</time></trkpt><trkpt lat="42.990915" lon="11.1874319"><ele>292.0</ele><time>2026-05-02T15:41:13.648Z</time></trkpt><trkpt lat="42.9910026" lon="11.1873976"><ele>292.0</ele><time>2026-05-02T15:41:14.652Z</time></trkpt><trkpt lat="42.9910993" lon="11.1873718"><ele>292.0</ele><time>2026-05-02T15:41:15.642Z</time></trkpt><trkpt lat="42.9912151" lon="11.1873555"><ele>296.0</ele><time>2026-05-02T15:41:16.644Z</time></trkpt><trkpt lat="42.9913373" lon="11.1873494"><ele>300.0</ele><time>2026-05-02T15:41:17.645Z</time></trkpt><trkpt lat="42.9914687" lon="11.1873423"><ele>304.0</ele><time>2026-05-02T15:41:18.65Z</time></trkpt><trkpt lat="42.9915849" lon="11.1873138"><ele>308.0</ele><time>2026-05-02T15:41:19.639Z</time></trkpt><trkpt lat="42.9916673" lon="11.1873049"><ele>308.5</ele><time>2026-05-02T15:41:20.649Z</time></trkpt><trkpt lat="42.9917437" lon="11.1873201"><ele>309.0</ele><time>2026-05-02T15:41:21.64Z</time></trkpt><trkpt lat="42.9918139" lon="11.1873527"><ele>309.5</ele><time>2026-05-02T15:41:22.645Z</time></trkpt><trkpt lat="42.9918798" lon="11.1873928"><ele>310.0</ele><time>2026-05-02T15:41:23.636Z</time></trkpt><trkpt lat="42.9919395" lon="11.1874253"><ele>310.5</ele><time>2026-05-02T15:41:24.646Z</time></trkpt><trkpt lat="42.9920494" lon="11.1874459"><ele>311.0</ele><time>2026-05-02T15:41:26.643Z</time></trkpt><trkpt lat="42.9921332" lon="11.1874189"><ele>311.0</ele><time>2026-05-02T15:41:27.636Z</time></trkpt><trkpt lat="42.9922535" lon="11.1873542"><ele>311.0</ele><time>2026-05-02T15:41:28.646Z</time></trkpt><trkpt lat="42.9923695" lon="11.1872955"><ele>311.0</ele><time>2026-05-02T15:41:29.637Z</time></trkpt><trkpt lat="42.9924804" lon="11.1872303"><ele>311.0</ele><time>2026-05-02T15:41:30.643Z</time></trkpt><trkpt lat="42.9925889" lon="11.1871649"><ele>312.5</ele><time>2026-05-02T15:41:31.642Z</time></trkpt><trkpt lat="42.9926977" lon="11.187099"><ele>314.0</ele><time>2026-05-02T15:41:32.645Z</time></trkpt><trkpt lat="42.9927941" lon="11.1870192"><ele>315.5</ele><time>2026-05-02T15:41:33.656Z</time></trkpt><trkpt lat="42.9928872" lon="11.1869252"><ele>317.0</ele><time>2026-05-02T15:41:34.644Z</time></trkpt><trkpt lat="42.9929855" lon="11.1868163"><ele>317.0</ele><time>2026-05-02T15:41:35.647Z</time></trkpt><trkpt lat="42.9930815" lon="11.1867041"><ele>317.0</ele><time>2026-05-02T15:41:36.643Z</time></trkpt><trkpt lat="42.9931783" lon="11.1865896"><ele>317.0</ele><time>2026-05-02T15:41:37.657Z</time></trkpt><trkpt lat="42.9932809" lon="11.1864727"><ele>317.0</ele><time>2026-05-02T15:41:38.633Z</time></trkpt><trkpt lat="42.9933841" lon="11.1863595"><ele>319.25</ele><time>2026-05-02T15:41:39.634Z</time></trkpt><trkpt lat="42.99348" lon="11.1862466"><ele>321.5</ele><time>2026-05-02T15:41:40.636Z</time></trkpt><trkpt lat="42.9935743" lon="11.1861403"><ele>323.75</ele><time>2026-05-02T15:41:41.64Z</time></trkpt><trkpt lat="42.9936711" lon="11.1860431"><ele>326.0</ele><time>2026-05-02T15:41:42.651Z</time></trkpt><trkpt lat="42.9937553" lon="11.1859576"><ele>326.0</ele><time>2026-05-02T15:41:43.64Z</time></trkpt><trkpt lat="42.9938217" lon="11.1858825"><ele>326.0</ele><time>2026-05-02T15:41:44.634Z</time></trkpt><trkpt lat="42.9938895" lon="11.1857829"><ele>326.0</ele><time>2026-05-02T15:41:46.651Z</time></trkpt><trkpt lat="42.9939764" lon="11.1856759"><ele>326.0</ele><time>2026-05-02T15:41:48.669Z</time></trkpt><trkpt lat="42.9940638" lon="11.1855822"><ele>326.0</ele><time>2026-05-02T15:41:50.651Z</time></trkpt><trkpt lat="42.9941614" lon="11.1854763"><ele>327.83333333333337</ele><time>2026-05-02T15:41:52.652Z</time></trkpt><trkpt lat="42.9942137" lon="11.1854198"><ele>329.6666666666667</ele><time>2026-05-02T15:41:53.648Z</time></trkpt><trkpt lat="42.9942714" lon="11.1853541"><ele>331.5</ele><time>2026-05-02T15:41:54.649Z</time></trkpt><trkpt lat="42.9943355" lon="11.1852847"><ele>333.3333333333333</ele><time>2026-05-02T15:41:55.65Z</time></trkpt><trkpt lat="42.9944039" lon="11.185214"><ele>335.16666666666663</ele><time>2026-05-02T15:41:56.656Z</time></trkpt><trkpt lat="42.9944754" lon="11.1851346"><ele>337.0</ele><time>2026-05-02T15:41:57.642Z</time></trkpt><trkpt lat="42.9945634" lon="11.1850501"><ele>337.0</ele><time>2026-05-02T15:41:58.644Z</time></trkpt><trkpt lat="42.9946512" lon="11.1849626"><ele>337.0</ele><time>2026-05-02T15:41:59.638Z</time></trkpt><trkpt lat="42.9947366" lon="11.1848671"><ele>337.0</ele><time>2026-05-02T15:42:00.647Z</time></trkpt><trkpt lat="42.9948217" lon="11.1847593"><ele>337.0</ele><time>2026-05-02T15:42:01.633Z</time></trkpt><trkpt lat="42.9949176" lon="11.1846554"><ele>336.20000000000005</ele><time>2026-05-02T15:42:02.651Z</time></trkpt><trkpt lat="42.995018" lon="11.1845544"><ele>335.4</ele><time>2026-05-02T15:42:03.648Z</time></trkpt><trkpt lat="42.9951103" lon="11.1844458"><ele>334.6</ele><time>2026-05-02T15:42:04.638Z</time></trkpt><trkpt lat="42.995191" lon="11.1843475"><ele>333.79999999999995</ele><time>2026-05-02T15:42:05.638Z</time></trkpt><trkpt lat="42.995252" lon="11.1842516"><ele>333.0</ele><time>2026-05-02T15:42:06.64Z</time></trkpt><trkpt lat="42.9952858" lon="11.1841422"><ele>333.0</ele><time>2026-05-02T15:42:07.651Z</time></trkpt><trkpt lat="42.9953032" lon="11.184015"><ele>333.0</ele><time>2026-05-02T15:42:08.636Z</time></trkpt><trkpt lat="42.9953134" lon="11.1838809"><ele>333.0</ele><time>2026-05-02T15:42:09.649Z</time></trkpt><trkpt lat="42.9953354" lon="11.1837437"><ele>333.0</ele><time>2026-05-02T15:42:10.632Z</time></trkpt><trkpt lat="42.9953514" lon="11.1836119"><ele>333.0</ele><time>2026-05-02T15:42:11.643Z</time></trkpt><trkpt lat="42.9953446" lon="11.1834852"><ele>334.59999999999997</ele><time>2026-05-02T15:42:12.632Z</time></trkpt><trkpt lat="42.9953386" lon="11.1833786"><ele>336.2</ele><time>2026-05-02T15:42:13.645Z</time></trkpt><trkpt lat="42.9953187" lon="11.1832689"><ele>337.8</ele><time>2026-05-02T15:42:14.699Z</time></trkpt><trkpt lat="42.9953111" lon="11.1831371"><ele>339.4</ele><time>2026-05-02T15:42:15.635Z</time></trkpt><trkpt lat="42.9953314" lon="11.1829875"><ele>341.0</ele><time>2026-05-02T15:42:16.641Z</time></trkpt><trkpt lat="42.9953904" lon="11.1828466"><ele>344.5</ele><time>2026-05-02T15:42:17.647Z</time></trkpt><trkpt lat="42.9954765" lon="11.1827161"><ele>348.0</ele><time>2026-05-02T15:42:18.645Z</time></trkpt><trkpt lat="42.9955759" lon="11.1826043"><ele>351.5</ele><time>2026-05-02T15:42:19.642Z</time></trkpt><trkpt lat="42.9956717" lon="11.182484"><ele>355.0</ele><time>2026-05-02T15:42:20.643Z</time></trkpt><trkpt lat="42.9957479" lon="11.1823765"><ele>356.2</ele><time>2026-05-02T15:42:21.637Z</time></trkpt><trkpt lat="42.9957986" lon="11.1822755"><ele>357.4</ele><time>2026-05-02T15:42:22.635Z</time></trkpt><trkpt lat="42.9958395" lon="11.1821585"><ele>358.6</ele><time>2026-05-02T15:42:23.646Z</time></trkpt><trkpt lat="42.9958626" lon="11.1820379"><ele>359.8</ele><time>2026-05-02T15:42:24.649Z</time></trkpt><trkpt lat="42.9958814" lon="11.1819007"><ele>361.0</ele><time>2026-05-02T15:42:25.639Z</time></trkpt><trkpt lat="42.9959166" lon="11.1817603"><ele>357.25</ele><time>2026-05-02T15:42:26.648Z</time></trkpt><trkpt lat="42.9959722" lon="11.1816191"><ele>353.5</ele><time>2026-05-02T15:42:27.644Z</time></trkpt><trkpt lat="42.996043" lon="11.181481"><ele>349.75</ele><time>2026-05-02T15:42:28.648Z</time></trkpt><trkpt lat="42.9961141" lon="11.1813449"><ele>346.0</ele><time>2026-05-02T15:42:29.651Z</time></trkpt><trkpt lat="42.9961706" lon="11.1812339"><ele>346.0</ele><time>2026-05-02T15:42:30.653Z</time></trkpt><trkpt lat="42.9962019" lon="11.1811253"><ele>346.0</ele><time>2026-05-02T15:42:31.637Z</time></trkpt><trkpt lat="42.9961997" lon="11.1810252"><ele>346.0</ele><time>2026-05-02T15:42:32.642Z</time></trkpt><trkpt lat="42.9961711" lon="11.1809302"><ele>346.0</ele><time>2026-05-02T15:42:33.645Z</time></trkpt><trkpt lat="42.9961207" lon="11.1808351"><ele>346.0</ele><time>2026-05-02T15:42:34.629Z</time></trkpt><trkpt lat="42.9960656" lon="11.1807242"><ele>346.0</ele><time>2026-05-02T15:42:35.637Z</time></trkpt><trkpt lat="42.9960368" lon="11.1805801"><ele>347.20000000000005</ele><time>2026-05-02T15:42:36.638Z</time></trkpt><trkpt lat="42.9960286" lon="11.1804155"><ele>348.40000000000003</ele><time>2026-05-02T15:42:37.638Z</time></trkpt><trkpt lat="42.9960273" lon="11.1802615"><ele>349.6</ele><time>2026-05-02T15:42:38.643Z</time></trkpt><trkpt lat="42.9960266" lon="11.180126"><ele>350.8</ele><time>2026-05-02T15:42:39.633Z</time></trkpt><trkpt lat="42.9960398" lon="11.18001"><ele>352.0</ele><time>2026-05-02T15:42:40.645Z</time></trkpt><trkpt lat="42.996079" lon="11.1799204"><ele>352.6</ele><time>2026-05-02T15:42:41.638Z</time></trkpt><trkpt lat="42.9961289" lon="11.179837"><ele>353.20000000000005</ele><time>2026-05-02T15:42:42.646Z</time></trkpt><trkpt lat="42.9961705" lon="11.179741"><ele>353.8</ele><time>2026-05-02T15:42:43.637Z</time></trkpt><trkpt lat="42.9961887" lon="11.1796074"><ele>354.4</ele><time>2026-05-02T15:42:44.652Z</time></trkpt><trkpt lat="42.9961972" lon="11.1794816"><ele>355.0</ele><time>2026-05-02T15:42:45.634Z</time></trkpt><trkpt lat="42.9962211" lon="11.1793473"><ele>355.0</ele><time>2026-05-02T15:42:46.652Z</time></trkpt><trkpt lat="42.9962838" lon="11.1792256"><ele>355.0</ele><time>2026-05-02T15:42:47.632Z</time></trkpt><trkpt lat="42.9963673" lon="11.1791116"><ele>355.0</ele><time>2026-05-02T15:42:48.658Z</time></trkpt><trkpt lat="42.9964572" lon="11.1790052"><ele>355.0</ele><time>2026-05-02T15:42:49.635Z</time></trkpt><trkpt lat="42.9965542" lon="11.1788814"><ele>356.0</ele><time>2026-05-02T15:42:50.643Z</time></trkpt><trkpt lat="42.9966572" lon="11.178751"><ele>357.0</ele><time>2026-05-02T15:42:51.652Z</time></trkpt><trkpt lat="42.996753" lon="11.1786278"><ele>358.0</ele><time>2026-05-02T15:42:52.641Z</time></trkpt><trkpt lat="42.9968468" lon="11.1785292"><ele>359.0</ele><time>2026-05-02T15:42:53.637Z</time></trkpt><trkpt lat="42.9969433" lon="11.1784469"><ele>359.0</ele><time>2026-05-02T15:42:54.651Z</time></trkpt><trkpt lat="42.9970421" lon="11.1783548"><ele>359.0</ele><time>2026-05-02T15:42:55.641Z</time></trkpt><trkpt lat="42.9971406" lon="11.1782538"><ele>359.0</ele><time>2026-05-02T15:42:56.651Z</time></trkpt><trkpt lat="42.9972478" lon="11.1781444"><ele>359.0</ele><time>2026-05-02T15:42:57.642Z</time></trkpt><trkpt lat="42.9973606" lon="11.1780302"><ele>360.0</ele><time>2026-05-02T15:42:58.641Z</time></trkpt><trkpt lat="42.9974754" lon="11.177914"><ele>361.0</ele><time>2026-05-02T15:42:59.635Z</time></trkpt><trkpt lat="42.9975938" lon="11.1777978"><ele>362.0</ele><time>2026-05-02T15:43:00.652Z</time></trkpt><trkpt lat="42.997702" lon="11.1776896"><ele>363.0</ele><time>2026-05-02T15:43:01.634Z</time></trkpt><trkpt lat="42.9978039" lon="11.1775884"><ele>363.0</ele><time>2026-05-02T15:43:02.634Z</time></trkpt><trkpt lat="42.9979002" lon="11.177486"><ele>363.0</ele><time>2026-05-02T15:43:03.636Z</time></trkpt><trkpt lat="42.9979931" lon="11.1773951"><ele>363.0</ele><time>2026-05-02T15:43:04.656Z</time></trkpt><trkpt lat="42.9980936" lon="11.1773062"><ele>363.0</ele><time>2026-05-02T15:43:05.633Z</time></trkpt><trkpt lat="42.9982024" lon="11.1772084"><ele>363.75</ele><time>2026-05-02T15:43:06.631Z</time></trkpt><trkpt lat="42.9983121" lon="11.1771063"><ele>364.5</ele><time>2026-05-02T15:43:07.645Z</time></trkpt><trkpt lat="42.9984172" lon="11.1770043"><ele>365.25</ele><time>2026-05-02T15:43:08.649Z</time></trkpt><trkpt lat="42.9985177" lon="11.1768975"><ele>366.0</ele><time>2026-05-02T15:43:09.65Z</time></trkpt><trkpt lat="42.9986027" lon="11.1767847"><ele>365.8</ele><time>2026-05-02T15:43:10.667Z</time></trkpt><trkpt lat="42.9986768" lon="11.176667"><ele>365.6</ele><time>2026-05-02T15:43:11.645Z</time></trkpt><trkpt lat="42.9987568" lon="11.1765462"><ele>365.4</ele><time>2026-05-02T15:43:12.635Z</time></trkpt><trkpt lat="42.998824" lon="11.1764268"><ele>365.2</ele><time>2026-05-02T15:43:13.632Z</time></trkpt><trkpt lat="42.9988831" lon="11.1763121"><ele>365.0</ele><time>2026-05-02T15:43:14.649Z</time></trkpt><trkpt lat="42.9989542" lon="11.1762377"><ele>365.0</ele><time>2026-05-02T15:43:15.639Z</time></trkpt><trkpt lat="42.9990364" lon="11.1762181"><ele>365.0</ele><time>2026-05-02T15:43:16.645Z</time></trkpt><trkpt lat="42.9991139" lon="11.1762537"><ele>365.0</ele><time>2026-05-02T15:43:17.642Z</time></trkpt><trkpt lat="42.9991894" lon="11.1763097"><ele>365.0</ele><time>2026-05-02T15:43:18.631Z</time></trkpt><trkpt lat="42.9992745" lon="11.1763294"><ele>365.0</ele><time>2026-05-02T15:43:19.637Z</time></trkpt><trkpt lat="42.9993678" lon="11.1763123"><ele>365.0</ele><time>2026-05-02T15:43:20.647Z</time></trkpt><trkpt lat="42.9994439" lon="11.1762785"><ele>365.1666666666667</ele><time>2026-05-02T15:43:21.65Z</time></trkpt><trkpt lat="42.9994888" lon="11.1762131"><ele>365.33333333333337</ele><time>2026-05-02T15:43:22.642Z</time></trkpt><trkpt lat="42.9995295" lon="11.1761105"><ele>365.5</ele><time>2026-05-02T15:43:23.64Z</time></trkpt><trkpt lat="42.9995767" lon="11.1759911"><ele>365.6666666666667</ele><time>2026-05-02T15:43:24.637Z</time></trkpt><trkpt lat="42.9996443" lon="11.1758932"><ele>365.8333333333333</ele><time>2026-05-02T15:43:25.645Z</time></trkpt><trkpt lat="42.9997256" lon="11.1758202"><ele>366.0</ele><time>2026-05-02T15:43:26.653Z</time></trkpt><trkpt lat="42.999818" lon="11.1757558"><ele>366.0</ele><time>2026-05-02T15:43:27.641Z</time></trkpt><trkpt lat="42.9999048" lon="11.1756947"><ele>366.0</ele><time>2026-05-02T15:43:28.633Z</time></trkpt><trkpt lat="42.9999982" lon="11.1756086"><ele>366.0</ele><time>2026-05-02T15:43:29.637Z</time></trkpt><trkpt lat="43.0000942" lon="11.1755135"><ele>366.0</ele><time>2026-05-02T15:43:30.646Z</time></trkpt><trkpt lat="43.0001867" lon="11.1754157"><ele>366.0</ele><time>2026-05-02T15:43:31.635Z</time></trkpt><trkpt lat="43.0002731" lon="11.1753234"><ele>367.4</ele><time>2026-05-02T15:43:32.636Z</time></trkpt><trkpt lat="43.0003499" lon="11.1752517"><ele>368.8</ele><time>2026-05-02T15:43:33.636Z</time></trkpt><trkpt lat="43.0004097" lon="11.175213"><ele>370.2</ele><time>2026-05-02T15:43:34.634Z</time></trkpt><trkpt lat="43.0004646" lon="11.1751261"><ele>371.59999999999997</ele><time>2026-05-02T15:46:17.634Z</time></trkpt><trkpt lat="43.0004619" lon="11.1749405"><ele>373.0</ele><time>2026-05-02T15:46:19.649Z</time></trkpt><trkpt lat="43.0004359" lon="11.1748184"><ele>374.79999999999995</ele><time>2026-05-02T15:46:20.648Z</time></trkpt><trkpt lat="43.0004079" lon="11.1746893"><ele>376.6</ele><time>2026-05-02T15:46:21.644Z</time></trkpt><trkpt lat="43.0003732" lon="11.1745532"><ele>378.4</ele><time>2026-05-02T15:46:22.64Z</time></trkpt><trkpt lat="43.0003434" lon="11.1744094"><ele>380.20000000000005</ele><time>2026-05-02T15:46:23.643Z</time></trkpt><trkpt lat="43.0003153" lon="11.1742764"><ele>382.0</ele><time>2026-05-02T15:46:24.65Z</time></trkpt><trkpt lat="43.0002934" lon="11.1741678"><ele>382.0</ele><time>2026-05-02T15:46:25.632Z</time></trkpt><trkpt lat="43.0002745" lon="11.1740778"><ele>382.0</ele><time>2026-05-02T15:46:26.641Z</time></trkpt><trkpt lat="43.0002608" lon="11.1739931"><ele>382.0</ele><time>2026-05-02T15:46:27.633Z</time></trkpt><trkpt lat="43.000245" lon="11.1738985"><ele>382.0</ele><time>2026-05-02T15:46:28.636Z</time></trkpt><trkpt lat="43.0002302" lon="11.1737989"><ele>382.0</ele><time>2026-05-02T15:46:29.639Z</time></trkpt><trkpt lat="43.0002321" lon="11.1736881"><ele>382.0</ele><time>2026-05-02T15:46:30.642Z</time></trkpt><trkpt lat="43.0002503" lon="11.1735789"><ele>382.0</ele><time>2026-05-02T15:46:31.638Z</time></trkpt><trkpt lat="43.0002748" lon="11.1734925"><ele>382.3333333333333</ele><time>2026-05-02T15:46:32.631Z</time></trkpt><trkpt lat="43.0003069" lon="11.1733952"><ele>382.66666666666663</ele><time>2026-05-02T15:46:34.648Z</time></trkpt><trkpt lat="43.0003614" lon="11.1733001"><ele>383.0</ele><time>2026-05-02T15:46:37.641Z</time></trkpt><trkpt lat="43.0004344" lon="11.1731726"><ele>383.3333333333333</ele><time>2026-05-02T15:46:40.641Z</time></trkpt><trkpt lat="43.0004765" lon="11.1730966"><ele>383.6666666666667</ele><time>2026-05-02T15:46:41.64Z</time></trkpt><trkpt lat="43.0005185" lon="11.1730046"><ele>384.0</ele><time>2026-05-02T15:46:42.641Z</time></trkpt><trkpt lat="43.000563" lon="11.1728957"><ele>382.0</ele><time>2026-05-02T15:46:43.639Z</time></trkpt><trkpt lat="43.0006026" lon="11.1727991"><ele>380.0</ele><time>2026-05-02T15:46:44.651Z</time></trkpt><trkpt lat="43.0006466" lon="11.1726959"><ele>378.0</ele><time>2026-05-02T15:46:45.633Z</time></trkpt><trkpt lat="43.0006974" lon="11.1725769"><ele>376.0</ele><time>2026-05-02T15:46:46.64Z</time></trkpt><trkpt lat="43.0007564" lon="11.1724448"><ele>374.0</ele><time>2026-05-02T15:46:47.645Z</time></trkpt><trkpt lat="43.0008149" lon="11.1723128"><ele>373.6</ele><time>2026-05-02T15:46:48.636Z</time></trkpt><trkpt lat="43.000877" lon="11.1721749"><ele>373.2</ele><time>2026-05-02T15:46:49.646Z</time></trkpt><trkpt lat="43.0009451" lon="11.1720351"><ele>372.8</ele><time>2026-05-02T15:46:50.634Z</time></trkpt><trkpt lat="43.0010017" lon="11.1719086"><ele>372.40000000000003</ele><time>2026-05-02T15:46:51.635Z</time></trkpt><trkpt lat="43.0010551" lon="11.1717947"><ele>372.0</ele><time>2026-05-02T15:46:52.643Z</time></trkpt><trkpt lat="43.0011044" lon="11.1716903"><ele>372.0</ele><time>2026-05-02T15:46:53.64Z</time></trkpt><trkpt lat="43.001149" lon="11.1715895"><ele>372.0</ele><time>2026-05-02T15:46:54.648Z</time></trkpt><trkpt lat="43.0012018" lon="11.1714804"><ele>372.0</ele><time>2026-05-02T15:46:55.64Z</time></trkpt><trkpt lat="43.0012565" lon="11.1713665"><ele>372.0</ele><time>2026-05-02T15:46:56.632Z</time></trkpt><trkpt lat="43.0013146" lon="11.1712371"><ele>372.0</ele><time>2026-05-02T15:46:57.636Z</time></trkpt><trkpt lat="43.0013777" lon="11.1710991"><ele>371.25</ele><time>2026-05-02T15:46:58.643Z</time></trkpt><trkpt lat="43.0014421" lon="11.1709561"><ele>370.5</ele><time>2026-05-02T15:46:59.628Z</time></trkpt><trkpt lat="43.0015054" lon="11.1708109"><ele>369.75</ele><time>2026-05-02T15:47:00.639Z</time></trkpt><trkpt lat="43.0015668" lon="11.1706623"><ele>369.0</ele><time>2026-05-02T15:47:01.639Z</time></trkpt><trkpt lat="43.0016253" lon="11.1705167"><ele>369.75</ele><time>2026-05-02T15:47:02.634Z</time></trkpt><trkpt lat="43.001675" lon="11.170371"><ele>370.5</ele><time>2026-05-02T15:47:03.636Z</time></trkpt><trkpt lat="43.0017179" lon="11.1702144"><ele>371.25</ele><time>2026-05-02T15:47:04.642Z</time></trkpt><trkpt lat="43.0017506" lon="11.1700476"><ele>372.0</ele><time>2026-05-02T15:47:05.655Z</time></trkpt><trkpt lat="43.0017618" lon="11.1698738"><ele>371.5</ele><time>2026-05-02T15:47:06.636Z</time></trkpt><trkpt lat="43.0017633" lon="11.1696955"><ele>371.0</ele><time>2026-05-02T15:47:07.632Z</time></trkpt><trkpt lat="43.0017464" lon="11.1695188"><ele>370.5</ele><time>2026-05-02T15:47:08.635Z</time></trkpt><trkpt lat="43.0017158" lon="11.169343"><ele>370.0</ele><time>2026-05-02T15:47:09.635Z</time></trkpt><trkpt lat="43.0016728" lon="11.1691921"><ele>369.6</ele><time>2026-05-02T15:47:10.634Z</time></trkpt><trkpt lat="43.0016313" lon="11.1690663"><ele>369.2</ele><time>2026-05-02T15:47:11.646Z</time></trkpt><trkpt lat="43.00159" lon="11.1689488"><ele>368.79999999999995</ele><time>2026-05-02T15:47:12.643Z</time></trkpt><trkpt lat="43.001548" lon="11.1688335"><ele>368.4</ele><time>2026-05-02T15:47:13.634Z</time></trkpt><trkpt lat="43.0015029" lon="11.1687219"><ele>368.0</ele><time>2026-05-02T15:47:14.64Z</time></trkpt><trkpt lat="43.001467" lon="11.1686064"><ele>368.0</ele><time>2026-05-02T15:47:15.635Z</time></trkpt><trkpt lat="43.0014431" lon="11.1684727"><ele>368.0</ele><time>2026-05-02T15:47:16.653Z</time></trkpt><trkpt lat="43.0014391" lon="11.1683234"><ele>368.0</ele><time>2026-05-02T15:47:17.643Z</time></trkpt><trkpt lat="43.0014496" lon="11.1681553"><ele>368.0</ele><time>2026-05-02T15:47:18.645Z</time></trkpt><trkpt lat="43.0014805" lon="11.1679776"><ele>366.5</ele><time>2026-05-02T15:47:19.635Z</time></trkpt><trkpt lat="43.0015179" lon="11.167801"><ele>365.0</ele><time>2026-05-02T15:47:20.645Z</time></trkpt><trkpt lat="43.0015554" lon="11.167625"><ele>363.5</ele><time>2026-05-02T15:47:21.643Z</time></trkpt><trkpt lat="43.0015936" lon="11.1674464"><ele>362.0</ele><time>2026-05-02T15:47:22.646Z</time></trkpt><trkpt lat="43.0016338" lon="11.1672655"><ele>364.0</ele><time>2026-05-02T15:47:23.632Z</time></trkpt><trkpt lat="43.0016711" lon="11.167078"><ele>366.0</ele><time>2026-05-02T15:47:24.644Z</time></trkpt><trkpt lat="43.0017075" lon="11.1668854"><ele>368.0</ele><time>2026-05-02T15:47:25.632Z</time></trkpt><trkpt lat="43.0017472" lon="11.1666857"><ele>370.0</ele><time>2026-05-02T15:47:26.643Z</time></trkpt><trkpt lat="43.0017905" lon="11.1664836"><ele>370.0</ele><time>2026-05-02T15:47:27.635Z</time></trkpt><trkpt lat="43.0018273" lon="11.1662931"><ele>370.0</ele><time>2026-05-02T15:47:28.622Z</time></trkpt><trkpt lat="43.0018664" lon="11.1661114"><ele>370.0</ele><time>2026-05-02T15:47:29.647Z</time></trkpt><trkpt lat="43.0019049" lon="11.1659366"><ele>370.0</ele><time>2026-05-02T15:47:30.645Z</time></trkpt><trkpt lat="43.0019359" lon="11.1657662"><ele>370.0</ele><time>2026-05-02T15:47:31.644Z</time></trkpt><trkpt lat="43.0019664" lon="11.1655952"><ele>370.0</ele><time>2026-05-02T15:47:32.636Z</time></trkpt><trkpt lat="43.0019968" lon="11.1654246"><ele>370.0</ele><time>2026-05-02T15:47:33.627Z</time></trkpt><trkpt lat="43.0020334" lon="11.1652484"><ele>370.0</ele><time>2026-05-02T15:47:34.631Z</time></trkpt><trkpt lat="43.0020713" lon="11.1650706"><ele>370.0</ele><time>2026-05-02T15:47:35.641Z</time></trkpt><trkpt lat="43.0021115" lon="11.164902"><ele>370.0</ele><time>2026-05-02T15:47:36.626Z</time></trkpt><trkpt lat="43.0021581" lon="11.1647412"><ele>370.0</ele><time>2026-05-02T15:47:37.635Z</time></trkpt><trkpt lat="43.0022179" lon="11.1645892"><ele>370.0</ele><time>2026-05-02T15:47:38.636Z</time></trkpt><trkpt lat="43.002289" lon="11.1644428"><ele>369.5</ele><time>2026-05-02T15:47:39.631Z</time></trkpt><trkpt lat="43.0023668" lon="11.1642987"><ele>369.0</ele><time>2026-05-02T15:47:40.636Z</time></trkpt><trkpt lat="43.0024437" lon="11.1641603"><ele>368.5</ele><time>2026-05-02T15:47:41.64Z</time></trkpt><trkpt lat="43.0025209" lon="11.1640095"><ele>368.0</ele><time>2026-05-02T15:47:42.629Z</time></trkpt><trkpt lat="43.0025925" lon="11.1638562"><ele>369.25</ele><time>2026-05-02T15:47:43.635Z</time></trkpt><trkpt lat="43.0026669" lon="11.1637"><ele>370.5</ele><time>2026-05-02T15:47:44.632Z</time></trkpt><trkpt lat="43.0027442" lon="11.1635429"><ele>371.75</ele><time>2026-05-02T15:47:45.631Z</time></trkpt><trkpt lat="43.0028166" lon="11.1634019"><ele>373.0</ele><time>2026-05-02T15:47:46.637Z</time></trkpt><trkpt lat="43.0028814" lon="11.1632713"><ele>371.2</ele><time>2026-05-02T15:47:47.634Z</time></trkpt><trkpt lat="43.002944" lon="11.1631471"><ele>369.4</ele><time>2026-05-02T15:47:48.631Z</time></trkpt><trkpt lat="43.0029978" lon="11.1630348"><ele>367.59999999999997</ele><time>2026-05-02T15:47:49.635Z</time></trkpt><trkpt lat="43.0030418" lon="11.162947"><ele>365.79999999999995</ele><time>2026-05-02T15:47:50.643Z</time></trkpt><trkpt lat="43.0031008" lon="11.1628371"><ele>364.0</ele><time>2026-05-02T15:47:52.633Z</time></trkpt><trkpt lat="43.0031288" lon="11.1627553"><ele>364.0</ele><time>2026-05-02T15:47:54.644Z</time></trkpt><trkpt lat="43.0030879" lon="11.162645"><ele>364.0</ele><time>2026-05-02T15:47:56.635Z</time></trkpt><trkpt lat="43.0029681" lon="11.1625617"><ele>364.0</ele><time>2026-05-02T15:47:58.623Z</time></trkpt><trkpt lat="43.0028965" lon="11.1625084"><ele>364.0</ele><time>2026-05-02T15:47:59.65Z</time></trkpt><trkpt lat="43.0028178" lon="11.1624524"><ele>364.0</ele><time>2026-05-02T15:48:00.645Z</time></trkpt><trkpt lat="43.0027377" lon="11.1623876"><ele>363.0</ele><time>2026-05-02T15:48:01.647Z</time></trkpt><trkpt lat="43.0026632" lon="11.1623166"><ele>362.0</ele><time>2026-05-02T15:48:02.645Z</time></trkpt><trkpt lat="43.002599" lon="11.1622548"><ele>361.0</ele><time>2026-05-02T15:48:03.645Z</time></trkpt><trkpt lat="43.0025522" lon="11.162191"><ele>360.0</ele><time>2026-05-02T15:48:04.644Z</time></trkpt><trkpt lat="43.0025172" lon="11.1621131"><ele>359.0</ele><time>2026-05-02T15:48:05.638Z</time></trkpt><trkpt lat="43.0024972" lon="11.1620205"><ele>358.0</ele><time>2026-05-02T15:48:06.638Z</time></trkpt><trkpt lat="43.0024848" lon="11.1619131"><ele>356.0</ele><time>2026-05-02T15:48:07.644Z</time></trkpt><trkpt lat="43.0024608" lon="11.1618056"><ele>354.0</ele><time>2026-05-02T15:48:08.644Z</time></trkpt><trkpt lat="43.0024357" lon="11.1617086"><ele>352.0</ele><time>2026-05-02T15:48:09.654Z</time></trkpt><trkpt lat="43.0024144" lon="11.1616217"><ele>350.0</ele><time>2026-05-02T15:48:10.644Z</time></trkpt><trkpt lat="43.0023922" lon="11.1615323"><ele>348.0</ele><time>2026-05-02T15:48:11.644Z</time></trkpt><trkpt lat="43.0023408" lon="11.1613807"><ele>346.0</ele><time>2026-05-02T15:48:13.644Z</time></trkpt><trkpt lat="43.0022716" lon="11.1612443"><ele>344.8</ele><time>2026-05-02T15:48:15.643Z</time></trkpt><trkpt lat="43.0021883" lon="11.1611344"><ele>343.6</ele><time>2026-05-02T15:48:17.644Z</time></trkpt><trkpt lat="43.0020928" lon="11.1610544"><ele>342.4</ele><time>2026-05-02T15:48:19.643Z</time></trkpt><trkpt lat="43.0019963" lon="11.1609825"><ele>341.2</ele><time>2026-05-02T15:48:21.641Z</time></trkpt><trkpt lat="43.001902" lon="11.1609103"><ele>340.0</ele><time>2026-05-02T15:48:23.652Z</time></trkpt><trkpt lat="43.0017909" lon="11.1608958"><ele>340.0</ele><time>2026-05-02T15:48:25.645Z</time></trkpt><trkpt lat="43.0016705" lon="11.1609239"><ele>340.0</ele><time>2026-05-02T15:48:27.646Z</time></trkpt><trkpt lat="43.0015469" lon="11.1608773"><ele>340.0</ele><time>2026-05-02T15:48:29.631Z</time></trkpt><trkpt lat="43.0014926" lon="11.1608145"><ele>340.0</ele><time>2026-05-02T15:48:30.633Z</time></trkpt><trkpt lat="43.0014087" lon="11.1606911"><ele>340.0</ele><time>2026-05-02T15:48:32.64Z</time></trkpt><trkpt lat="43.0013266" lon="11.1605577"><ele>335.6</ele><time>2026-05-02T15:48:34.641Z</time></trkpt><trkpt lat="43.0012475" lon="11.160438"><ele>331.2</ele><time>2026-05-02T15:48:36.644Z</time></trkpt><trkpt lat="43.0012062" lon="11.1602999"><ele>326.8</ele><time>2026-05-02T15:48:38.641Z</time></trkpt><trkpt lat="43.001236" lon="11.1601658"><ele>322.4</ele><time>2026-05-02T15:48:40.633Z</time></trkpt><trkpt lat="43.001316" lon="11.1600664"><ele>318.0</ele><time>2026-05-02T15:48:42.64Z</time></trkpt><trkpt lat="43.0013964" lon="11.1599634"><ele>316.4</ele><time>2026-05-02T15:48:44.642Z</time></trkpt><trkpt lat="43.00143" lon="11.1598116"><ele>314.8</ele><time>2026-05-02T15:48:46.64Z</time></trkpt><trkpt lat="43.0014031" lon="11.1596402"><ele>313.2</ele><time>2026-05-02T15:48:48.649Z</time></trkpt><trkpt lat="43.0013576" lon="11.1595513"><ele>311.6</ele><time>2026-05-02T15:48:49.636Z</time></trkpt><trkpt lat="43.0012941" lon="11.1594718"><ele>310.0</ele><time>2026-05-02T15:48:50.643Z</time></trkpt><trkpt lat="43.0012273" lon="11.159413"><ele>310.0</ele><time>2026-05-02T15:48:51.639Z</time></trkpt><trkpt lat="43.0011603" lon="11.1593899"><ele>310.0</ele><time>2026-05-02T15:48:52.645Z</time></trkpt><trkpt lat="43.0010958" lon="11.1593948"><ele>310.0</ele><time>2026-05-02T15:48:53.636Z</time></trkpt><trkpt lat="43.0010226" lon="11.159387"><ele>310.0</ele><time>2026-05-02T15:48:54.637Z</time></trkpt><trkpt lat="43.0009523" lon="11.1593338"><ele>310.0</ele><time>2026-05-02T15:48:55.641Z</time></trkpt><trkpt lat="43.0008798" lon="11.1592739"><ele>310.0</ele><time>2026-05-02T15:48:56.642Z</time></trkpt><trkpt lat="43.000814" lon="11.1592237"><ele>310.0</ele><time>2026-05-02T15:48:57.652Z</time></trkpt><trkpt lat="43.0007387" lon="11.1591908"><ele>307.8333333333333</ele><time>2026-05-02T15:48:58.641Z</time></trkpt><trkpt lat="43.0006631" lon="11.1591874"><ele>305.66666666666663</ele><time>2026-05-02T15:48:59.628Z</time></trkpt><trkpt lat="43.0005715" lon="11.1591809"><ele>303.5</ele><time>2026-05-02T15:49:00.65Z</time></trkpt><trkpt lat="43.0004755" lon="11.1591696"><ele>301.3333333333333</ele><time>2026-05-02T15:49:01.637Z</time></trkpt><trkpt lat="43.0003851" lon="11.159162"><ele>299.1666666666667</ele><time>2026-05-02T15:49:02.629Z</time></trkpt><trkpt lat="43.0002995" lon="11.1591574"><ele>297.0</ele><time>2026-05-02T15:49:03.643Z</time></trkpt><trkpt lat="43.0002222" lon="11.1591569"><ele>297.0</ele><time>2026-05-02T15:49:04.647Z</time></trkpt><trkpt lat="43.0001503" lon="11.1591524"><ele>297.0</ele><time>2026-05-02T15:49:05.634Z</time></trkpt><trkpt lat="43.0000867" lon="11.1591573"><ele>297.0</ele><time>2026-05-02T15:49:06.638Z</time></trkpt><trkpt lat="43.0000234" lon="11.1591604"><ele>297.0</ele><time>2026-05-02T15:49:07.632Z</time></trkpt><trkpt lat="42.9999096" lon="11.1591286"><ele>297.0</ele><time>2026-05-02T15:49:09.636Z</time></trkpt><trkpt lat="42.9998494" lon="11.1591021"><ele>297.0</ele><time>2026-05-02T15:49:10.634Z</time></trkpt><trkpt lat="42.9997858" lon="11.1590633"><ele>297.0</ele><time>2026-05-02T15:49:11.632Z</time></trkpt><trkpt lat="42.9997292" lon="11.1590151"><ele>294.8333333333333</ele><time>2026-05-02T15:49:12.638Z</time></trkpt><trkpt lat="42.9996658" lon="11.1589776"><ele>292.6666666666667</ele><time>2026-05-02T15:49:13.631Z</time></trkpt><trkpt lat="42.9995994" lon="11.1589447"><ele>290.5</ele><time>2026-05-02T15:49:14.637Z</time></trkpt><trkpt lat="42.9995274" lon="11.1589068"><ele>288.33333333333337</ele><time>2026-05-02T15:49:15.64Z</time></trkpt><trkpt lat="42.9994667" lon="11.1588455"><ele>286.1666666666667</ele><time>2026-05-02T15:49:16.64Z</time></trkpt><trkpt lat="42.9994175" lon="11.1587505"><ele>284.0</ele><time>2026-05-02T15:49:17.635Z</time></trkpt><trkpt lat="42.9993722" lon="11.158645"><ele>284.0</ele><time>2026-05-02T15:49:18.638Z</time></trkpt><trkpt lat="42.9993395" lon="11.1585411"><ele>284.0</ele><time>2026-05-02T15:49:19.621Z</time></trkpt><trkpt lat="42.9993169" lon="11.1584161"><ele>284.0</ele><time>2026-05-02T15:49:20.642Z</time></trkpt><trkpt lat="42.9993014" lon="11.1582681"><ele>284.0</ele><time>2026-05-02T15:49:21.64Z</time></trkpt><trkpt lat="42.9992862" lon="11.1581219"><ele>284.0</ele><time>2026-05-02T15:49:22.63Z</time></trkpt><trkpt lat="42.9992693" lon="11.1579877"><ele>281.5</ele><time>2026-05-02T15:49:23.643Z</time></trkpt><trkpt lat="42.999242" lon="11.1578805"><ele>279.0</ele><time>2026-05-02T15:49:24.643Z</time></trkpt><trkpt lat="42.9992061" lon="11.1577711"><ele>276.5</ele><time>2026-05-02T15:49:25.643Z</time></trkpt><trkpt lat="42.9991679" lon="11.1576663"><ele>274.0</ele><time>2026-05-02T15:49:26.635Z</time></trkpt><trkpt lat="42.9991308" lon="11.1575558"><ele>271.5</ele><time>2026-05-02T15:49:27.636Z</time></trkpt><trkpt lat="42.9990975" lon="11.1574444"><ele>269.0</ele><time>2026-05-02T15:49:28.637Z</time></trkpt><trkpt lat="42.9990605" lon="11.1573454"><ele>267.2857142857143</ele><time>2026-05-02T15:49:29.639Z</time></trkpt><trkpt lat="42.9990187" lon="11.1572604"><ele>265.5714285714286</ele><time>2026-05-02T15:49:30.643Z</time></trkpt><trkpt lat="42.9989745" lon="11.1571825"><ele>263.8571428571429</ele><time>2026-05-02T15:49:31.643Z</time></trkpt><trkpt lat="42.9989176" lon="11.1571237"><ele>262.14285714285717</ele><time>2026-05-02T15:49:32.628Z</time></trkpt><trkpt lat="42.9988623" lon="11.157074"><ele>260.42857142857144</ele><time>2026-05-02T15:49:33.632Z</time></trkpt><trkpt lat="42.9987988" lon="11.1570338"><ele>258.7142857142857</ele><time>2026-05-02T15:49:34.637Z</time></trkpt><trkpt lat="42.9987218" lon="11.1570071"><ele>257.0</ele><time>2026-05-02T15:49:35.639Z</time></trkpt><trkpt lat="42.9986445" lon="11.1569861"><ele>257.0</ele><time>2026-05-02T15:49:36.626Z</time></trkpt><trkpt lat="42.9985833" lon="11.1569474"><ele>257.0</ele><time>2026-05-02T15:49:37.63Z</time></trkpt><trkpt lat="42.9985208" lon="11.1569097"><ele>257.0</ele><time>2026-05-02T15:49:39.637Z</time></trkpt><trkpt lat="42.9984297" lon="11.1568388"><ele>257.0</ele><time>2026-05-02T15:56:52.638Z</time></trkpt><trkpt lat="42.9983788" lon="11.1567664"><ele>257.0</ele><time>2026-05-02T15:56:53.646Z</time></trkpt><trkpt lat="42.9983323" lon="11.1566651"><ele>257.0</ele><time>2026-05-02T15:56:54.647Z</time></trkpt><trkpt lat="42.99828" lon="11.1565483"><ele>255.25</ele><time>2026-05-02T15:56:55.67Z</time></trkpt><trkpt lat="42.998217" lon="11.1564018"><ele>253.5</ele><time>2026-05-02T15:56:56.65Z</time></trkpt><trkpt lat="42.9981448" lon="11.1562463"><ele>251.75</ele><time>2026-05-02T15:56:57.644Z</time></trkpt><trkpt lat="42.9980742" lon="11.1560826"><ele>250.0</ele><time>2026-05-02T15:56:58.641Z</time></trkpt><trkpt lat="42.9980012" lon="11.155917"><ele>250.0</ele><time>2026-05-02T15:56:59.648Z</time></trkpt><trkpt lat="42.9979314" lon="11.1557587"><ele>250.0</ele><time>2026-05-02T15:57:00.642Z</time></trkpt><trkpt lat="42.9978674" lon="11.1556006"><ele>250.0</ele><time>2026-05-02T15:57:01.641Z</time></trkpt><trkpt lat="42.9978145" lon="11.1554386"><ele>250.0</ele><time>2026-05-02T15:57:02.651Z</time></trkpt><trkpt lat="42.9977707" lon="11.1552652"><ele>248.75</ele><time>2026-05-02T15:57:03.632Z</time></trkpt><trkpt lat="42.9977348" lon="11.1550842"><ele>247.5</ele><time>2026-05-02T15:57:04.652Z</time></trkpt><trkpt lat="42.9977074" lon="11.1548947"><ele>246.25</ele><time>2026-05-02T15:57:05.636Z</time></trkpt><trkpt lat="42.997685" lon="11.1546962"><ele>245.0</ele><time>2026-05-02T15:57:06.642Z</time></trkpt><trkpt lat="42.9976664" lon="11.1544862"><ele>244.66666666666669</ele><time>2026-05-02T15:57:07.631Z</time></trkpt><trkpt lat="42.997648" lon="11.1542711"><ele>244.33333333333331</ele><time>2026-05-02T15:57:08.643Z</time></trkpt><trkpt lat="42.9976326" lon="11.1540502"><ele>244.0</ele><time>2026-05-02T15:57:09.638Z</time></trkpt><trkpt lat="42.9976187" lon="11.15383"><ele>243.66666666666666</ele><time>2026-05-02T15:57:10.638Z</time></trkpt><trkpt lat="42.9976046" lon="11.1536084"><ele>243.33333333333331</ele><time>2026-05-02T15:57:11.642Z</time></trkpt><trkpt lat="42.9975839" lon="11.1533888"><ele>243.0</ele><time>2026-05-02T15:57:12.634Z</time></trkpt><trkpt lat="42.9975559" lon="11.1531758"><ele>241.66666666666669</ele><time>2026-05-02T15:57:13.636Z</time></trkpt><trkpt lat="42.9975185" lon="11.1529585"><ele>240.33333333333334</ele><time>2026-05-02T15:57:14.616Z</time></trkpt><trkpt lat="42.9974826" lon="11.1527455"><ele>239.0</ele><time>2026-05-02T15:57:15.637Z</time></trkpt><trkpt lat="42.9974397" lon="11.1525167"><ele>240.66666666666669</ele><time>2026-05-02T15:57:16.633Z</time></trkpt><trkpt lat="42.9973616" lon="11.1522917"><ele>242.33333333333331</ele><time>2026-05-02T15:57:17.648Z</time></trkpt><trkpt lat="42.9972874" lon="11.1520825"><ele>244.0</ele><time>2026-05-02T15:57:18.626Z</time></trkpt><trkpt lat="42.997209" lon="11.1518775"><ele>244.0</ele><time>2026-05-02T15:57:19.64Z</time></trkpt><trkpt lat="42.9971297" lon="11.1516795"><ele>244.0</ele><time>2026-05-02T15:57:20.644Z</time></trkpt><trkpt lat="42.9970549" lon="11.1514801"><ele>244.0</ele><time>2026-05-02T15:57:21.63Z</time></trkpt><trkpt lat="42.9969864" lon="11.1512745"><ele>241.33333333333331</ele><time>2026-05-02T15:57:22.645Z</time></trkpt><trkpt lat="42.9969306" lon="11.1510619"><ele>238.66666666666669</ele><time>2026-05-02T15:57:23.646Z</time></trkpt><trkpt lat="42.9968864" lon="11.1508493"><ele>236.0</ele><time>2026-05-02T15:57:24.659Z</time></trkpt><trkpt lat="42.9968556" lon="11.1506207"><ele>234.33333333333334</ele><time>2026-05-02T15:57:25.644Z</time></trkpt><trkpt lat="42.9968389" lon="11.1503794"><ele>232.66666666666669</ele><time>2026-05-02T15:57:26.652Z</time></trkpt><trkpt lat="42.9968369" lon="11.1501316"><ele>231.0</ele><time>2026-05-02T15:57:27.643Z</time></trkpt><trkpt lat="42.9968361" lon="11.149891"><ele>231.0</ele><time>2026-05-02T15:57:28.636Z</time></trkpt><trkpt lat="42.9968358" lon="11.1496581"><ele>231.0</ele><time>2026-05-02T15:57:29.629Z</time></trkpt><trkpt lat="42.9968321" lon="11.1494429"><ele>231.0</ele><time>2026-05-02T15:57:30.642Z</time></trkpt><trkpt lat="42.9968271" lon="11.1492297"><ele>231.0</ele><time>2026-05-02T15:57:31.643Z</time></trkpt><trkpt lat="42.9968212" lon="11.1490078"><ele>231.0</ele><time>2026-05-02T15:57:32.643Z</time></trkpt><trkpt lat="42.9968151" lon="11.1487836"><ele>231.0</ele><time>2026-05-02T15:57:33.66Z</time></trkpt><trkpt lat="42.9968025" lon="11.1485629"><ele>231.0</ele><time>2026-05-02T15:57:34.654Z</time></trkpt><trkpt lat="42.9967788" lon="11.1483411"><ele>231.0</ele><time>2026-05-02T15:57:35.645Z</time></trkpt><trkpt lat="42.9967341" lon="11.1481233"><ele>231.0</ele><time>2026-05-02T15:57:36.646Z</time></trkpt><trkpt lat="42.9966613" lon="11.1479165"><ele>231.66666666666669</ele><time>2026-05-02T15:57:37.638Z</time></trkpt><trkpt lat="42.996562" lon="11.1477209"><ele>232.33333333333334</ele><time>2026-05-02T15:57:38.635Z</time></trkpt><trkpt lat="42.9964412" lon="11.1475486"><ele>233.0</ele><time>2026-05-02T15:57:39.639Z</time></trkpt><trkpt lat="42.9963034" lon="11.1473911"><ele>232.66666666666669</ele><time>2026-05-02T15:57:40.634Z</time></trkpt><trkpt lat="42.9961501" lon="11.1472686"><ele>232.33333333333331</ele><time>2026-05-02T15:57:41.644Z</time></trkpt><trkpt lat="42.9959916" lon="11.1471825"><ele>232.0</ele><time>2026-05-02T15:57:42.641Z</time></trkpt><trkpt lat="42.9958266" lon="11.147121"><ele>230.66666666666666</ele><time>2026-05-02T15:57:43.638Z</time></trkpt><trkpt lat="42.9956549" lon="11.1470744"><ele>229.33333333333331</ele><time>2026-05-02T15:57:44.64Z</time></trkpt><trkpt lat="42.9954846" lon="11.1470263"><ele>228.0</ele><time>2026-05-02T15:57:45.638Z</time></trkpt><trkpt lat="42.9953187" lon="11.1469756"><ele>228.0</ele><time>2026-05-02T15:57:46.641Z</time></trkpt><trkpt lat="42.9951532" lon="11.1469366"><ele>228.0</ele><time>2026-05-02T15:57:47.64Z</time></trkpt><trkpt lat="42.9949833" lon="11.1469159"><ele>228.0</ele><time>2026-05-02T15:57:48.65Z</time></trkpt><trkpt lat="42.9948149" lon="11.1469152"><ele>227.33333333333331</ele><time>2026-05-02T15:57:49.64Z</time></trkpt><trkpt lat="42.9946444" lon="11.1469168"><ele>226.66666666666666</ele><time>2026-05-02T15:57:50.632Z</time></trkpt><trkpt lat="42.9944743" lon="11.1469205"><ele>226.0</ele><time>2026-05-02T15:57:51.643Z</time></trkpt><trkpt lat="42.994302" lon="11.1469186"><ele>225.33333333333331</ele><time>2026-05-02T15:57:52.642Z</time></trkpt><trkpt lat="42.9941259" lon="11.1469178"><ele>224.66666666666669</ele><time>2026-05-02T15:57:53.637Z</time></trkpt><trkpt lat="42.9939499" lon="11.1469197"><ele>224.0</ele><time>2026-05-02T15:57:54.647Z</time></trkpt><trkpt lat="42.9937733" lon="11.1469064"><ele>224.0</ele><time>2026-05-02T15:57:55.646Z</time></trkpt><trkpt lat="42.993596" lon="11.1468734"><ele>224.0</ele><time>2026-05-02T15:57:56.645Z</time></trkpt><trkpt lat="42.993422" lon="11.1468119"><ele>224.0</ele><time>2026-05-02T15:57:57.648Z</time></trkpt><trkpt lat="42.9932568" lon="11.146719"><ele>222.66666666666669</ele><time>2026-05-02T15:57:58.644Z</time></trkpt><trkpt lat="42.9930977" lon="11.1465964"><ele>221.33333333333331</ele><time>2026-05-02T15:57:59.636Z</time></trkpt><trkpt lat="42.9929456" lon="11.1464516"><ele>220.0</ele><time>2026-05-02T15:58:00.638Z</time></trkpt><trkpt lat="42.9928052" lon="11.146285"><ele>218.0</ele><time>2026-05-02T15:58:01.648Z</time></trkpt><trkpt lat="42.9926707" lon="11.1461025"><ele>216.0</ele><time>2026-05-02T15:58:02.632Z</time></trkpt><trkpt lat="42.9925435" lon="11.1459182"><ele>214.0</ele><time>2026-05-02T15:58:03.64Z</time></trkpt><trkpt lat="42.992421" lon="11.1457323"><ele>211.66666666666666</ele><time>2026-05-02T15:58:04.64Z</time></trkpt><trkpt lat="42.992292" lon="11.1455514"><ele>209.33333333333331</ele><time>2026-05-02T15:58:05.641Z</time></trkpt><trkpt lat="42.9921647" lon="11.1453725"><ele>207.0</ele><time>2026-05-02T15:58:06.637Z</time></trkpt><trkpt lat="42.9920371" lon="11.1451904"><ele>207.0</ele><time>2026-05-02T15:58:07.631Z</time></trkpt><trkpt lat="42.9919128" lon="11.1450041"><ele>207.0</ele><time>2026-05-02T15:58:08.637Z</time></trkpt><trkpt lat="42.9917881" lon="11.144815"><ele>207.0</ele><time>2026-05-02T15:58:09.635Z</time></trkpt><trkpt lat="42.9916626" lon="11.1446282"><ele>207.66666666666669</ele><time>2026-05-02T15:58:10.638Z</time></trkpt><trkpt lat="42.9915357" lon="11.1444459"><ele>208.33333333333334</ele><time>2026-05-02T15:58:11.644Z</time></trkpt><trkpt lat="42.9914075" lon="11.1442708"><ele>209.0</ele><time>2026-05-02T15:58:12.645Z</time></trkpt><trkpt lat="42.9912794" lon="11.1441024"><ele>206.33333333333334</ele><time>2026-05-02T15:58:13.637Z</time></trkpt><trkpt lat="42.9911573" lon="11.143929"><ele>203.66666666666669</ele><time>2026-05-02T15:58:14.633Z</time></trkpt><trkpt lat="42.991039" lon="11.1437543"><ele>201.0</ele><time>2026-05-02T15:58:15.646Z</time></trkpt><trkpt lat="42.9909211" lon="11.1435789"><ele>202.33333333333331</ele><time>2026-05-02T15:58:16.644Z</time></trkpt><trkpt lat="42.9908035" lon="11.1434078"><ele>203.66666666666666</ele><time>2026-05-02T15:58:17.651Z</time></trkpt><trkpt lat="42.9906842" lon="11.1432349"><ele>205.0</ele><time>2026-05-02T15:58:18.645Z</time></trkpt><trkpt lat="42.9905639" lon="11.1430538"><ele>205.0</ele><time>2026-05-02T15:58:19.645Z</time></trkpt><trkpt lat="42.9904444" lon="11.1428706"><ele>205.0</ele><time>2026-05-02T15:58:20.638Z</time></trkpt><trkpt lat="42.9903189" lon="11.1426904"><ele>205.0</ele><time>2026-05-02T15:58:21.632Z</time></trkpt><trkpt lat="42.9901917" lon="11.1425083"><ele>205.33333333333331</ele><time>2026-05-02T15:58:22.65Z</time></trkpt><trkpt lat="42.9900689" lon="11.1423271"><ele>205.66666666666669</ele><time>2026-05-02T15:58:23.641Z</time></trkpt><trkpt lat="42.9899508" lon="11.1421359"><ele>206.0</ele><time>2026-05-02T15:58:24.646Z</time></trkpt><trkpt lat="42.9898379" lon="11.1419371"><ele>206.66666666666669</ele><time>2026-05-02T15:58:25.627Z</time></trkpt><trkpt lat="42.9897247" lon="11.1417406"><ele>207.33333333333331</ele><time>2026-05-02T15:58:26.645Z</time></trkpt><trkpt lat="42.9896087" lon="11.141545"><ele>208.0</ele><time>2026-05-02T15:58:27.643Z</time></trkpt><trkpt lat="42.9894899" lon="11.1413494"><ele>208.0</ele><time>2026-05-02T15:58:28.631Z</time></trkpt><trkpt lat="42.9893691" lon="11.1411525"><ele>208.0</ele><time>2026-05-02T15:58:29.633Z</time></trkpt><trkpt lat="42.9892485" lon="11.1409528"><ele>208.0</ele><time>2026-05-02T15:58:30.643Z</time></trkpt><trkpt lat="42.9891257" lon="11.1407564"><ele>204.33333333333331</ele><time>2026-05-02T15:58:31.627Z</time></trkpt><trkpt lat="42.9890069" lon="11.140555"><ele>200.66666666666669</ele><time>2026-05-02T15:58:32.646Z</time></trkpt><trkpt lat="42.9888951" lon="11.140368"><ele>197.0</ele><time>2026-05-02T15:58:33.635Z</time></trkpt><trkpt lat="42.9887949" lon="11.1402021"><ele>197.0</ele><time>2026-05-02T15:58:34.65Z</time></trkpt><trkpt lat="42.9887035" lon="11.1400412"><ele>197.0</ele><time>2026-05-02T15:58:35.636Z</time></trkpt><trkpt lat="42.9886193" lon="11.1398727"><ele>197.0</ele><time>2026-05-02T15:58:36.641Z</time></trkpt><trkpt lat="42.9885486" lon="11.1396854"><ele>194.66666666666669</ele><time>2026-05-02T15:58:37.652Z</time></trkpt><trkpt lat="42.9884923" lon="11.139479"><ele>192.33333333333334</ele><time>2026-05-02T15:58:38.65Z</time></trkpt><trkpt lat="42.9884578" lon="11.139257"><ele>190.0</ele><time>2026-05-02T15:58:39.64Z</time></trkpt><trkpt lat="42.9884525" lon="11.1390313"><ele>188.33333333333334</ele><time>2026-05-02T15:58:40.646Z</time></trkpt><trkpt lat="42.9884885" lon="11.1388094"><ele>186.66666666666666</ele><time>2026-05-02T15:58:41.641Z</time></trkpt><trkpt lat="42.9885506" lon="11.1385967"><ele>185.0</ele><time>2026-05-02T15:58:42.641Z</time></trkpt><trkpt lat="42.9886368" lon="11.1384016"><ele>185.0</ele><time>2026-05-02T15:58:43.645Z</time></trkpt><trkpt lat="42.9887384" lon="11.1382313"><ele>185.0</ele><time>2026-05-02T15:58:44.644Z</time></trkpt><trkpt lat="42.9888586" lon="11.1380683"><ele>185.0</ele><time>2026-05-02T15:58:45.641Z</time></trkpt><trkpt lat="42.9889747" lon="11.1379135"><ele>186.33333333333331</ele><time>2026-05-02T15:58:46.639Z</time></trkpt><trkpt lat="42.989079" lon="11.1377537"><ele>187.66666666666666</ele><time>2026-05-02T15:58:47.637Z</time></trkpt><trkpt lat="42.9891826" lon="11.1375939"><ele>189.0</ele><time>2026-05-02T15:58:48.634Z</time></trkpt><trkpt lat="42.9892796" lon="11.1374123"><ele>184.33333333333334</ele><time>2026-05-02T15:58:49.652Z</time></trkpt><trkpt lat="42.9893569" lon="11.1372172"><ele>179.66666666666669</ele><time>2026-05-02T15:58:50.647Z</time></trkpt><trkpt lat="42.9894141" lon="11.1370062"><ele>175.0</ele><time>2026-05-02T15:58:51.637Z</time></trkpt><trkpt lat="42.9894516" lon="11.1367928"><ele>175.0</ele><time>2026-05-02T15:58:52.645Z</time></trkpt><trkpt lat="42.9894756" lon="11.1365804"><ele>175.0</ele><time>2026-05-02T15:58:53.659Z</time></trkpt><trkpt lat="42.9894917" lon="11.1363794"><ele>175.0</ele><time>2026-05-02T15:58:54.643Z</time></trkpt><trkpt lat="42.989504" lon="11.1361997"><ele>175.0</ele><time>2026-05-02T15:58:55.642Z</time></trkpt><trkpt lat="42.9895064" lon="11.1360308"><ele>174.5</ele><time>2026-05-02T15:58:56.631Z</time></trkpt><trkpt lat="42.9894943" lon="11.1358648"><ele>174.0</ele><time>2026-05-02T15:58:57.628Z</time></trkpt><trkpt lat="42.9894646" lon="11.1357055"><ele>173.5</ele><time>2026-05-02T15:58:58.647Z</time></trkpt><trkpt lat="42.989422" lon="11.1355509"><ele>173.0</ele><time>2026-05-02T15:58:59.641Z</time></trkpt><trkpt lat="42.989359" lon="11.1354055"><ele>172.25</ele><time>2026-05-02T15:59:00.642Z</time></trkpt><trkpt lat="42.9892784" lon="11.1352501"><ele>171.5</ele><time>2026-05-02T15:59:01.635Z</time></trkpt><trkpt lat="42.9891865" lon="11.1351008"><ele>170.75</ele><time>2026-05-02T15:59:02.638Z</time></trkpt><trkpt lat="42.9890863" lon="11.1349541"><ele>170.0</ele><time>2026-05-02T15:59:03.646Z</time></trkpt><trkpt lat="42.9889824" lon="11.1348015"><ele>170.0</ele><time>2026-05-02T15:59:04.634Z</time></trkpt><trkpt lat="42.9888763" lon="11.1346436"><ele>170.0</ele><time>2026-05-02T15:59:05.644Z</time></trkpt><trkpt lat="42.9887672" lon="11.1344747"><ele>170.0</ele><time>2026-05-02T15:59:06.633Z</time></trkpt><trkpt lat="42.98865" lon="11.1342965"><ele>170.0</ele><time>2026-05-02T15:59:07.635Z</time></trkpt><trkpt lat="42.9885259" lon="11.1341099"><ele>170.0</ele><time>2026-05-02T15:59:08.631Z</time></trkpt><trkpt lat="42.988397" lon="11.1339081"><ele>170.0</ele><time>2026-05-02T15:59:09.64Z</time></trkpt><trkpt lat="42.9882603" lon="11.1337032"><ele>169.0</ele><time>2026-05-02T15:59:10.63Z</time></trkpt><trkpt lat="42.9881208" lon="11.1334954"><ele>168.0</ele><time>2026-05-02T15:59:11.632Z</time></trkpt><trkpt lat="42.9879842" lon="11.1332914"><ele>167.0</ele><time>2026-05-02T15:59:12.636Z</time></trkpt><trkpt lat="42.9878513" lon="11.1330984"><ele>164.66666666666666</ele><time>2026-05-02T15:59:13.633Z</time></trkpt><trkpt lat="42.9877102" lon="11.1329274"><ele>162.33333333333334</ele><time>2026-05-02T15:59:14.63Z</time></trkpt><trkpt lat="42.9875617" lon="11.1327712"><ele>160.0</ele><time>2026-05-02T15:59:15.635Z</time></trkpt><trkpt lat="42.9874131" lon="11.1326317"><ele>160.0</ele><time>2026-05-02T15:59:16.628Z</time></trkpt><trkpt lat="42.9872669" lon="11.1324933"><ele>160.0</ele><time>2026-05-02T15:59:17.634Z</time></trkpt><trkpt lat="42.9871176" lon="11.1323705"><ele>160.0</ele><time>2026-05-02T15:59:18.628Z</time></trkpt><trkpt lat="42.9869631" lon="11.1322556"><ele>157.66666666666669</ele><time>2026-05-02T15:59:19.635Z</time></trkpt><trkpt lat="42.9868083" lon="11.1321392"><ele>155.33333333333334</ele><time>2026-05-02T15:59:20.643Z</time></trkpt><trkpt lat="42.9866585" lon="11.1320155"><ele>153.0</ele><time>2026-05-02T15:59:21.628Z</time></trkpt><trkpt lat="42.9865076" lon="11.1318898"><ele>153.0</ele><time>2026-05-02T15:59:22.655Z</time></trkpt><trkpt lat="42.9863532" lon="11.131765"><ele>153.0</ele><time>2026-05-02T15:59:23.635Z</time></trkpt><trkpt lat="42.9861955" lon="11.1316328"><ele>153.0</ele><time>2026-05-02T15:59:24.633Z</time></trkpt><trkpt lat="42.9860359" lon="11.1315029"><ele>151.33333333333334</ele><time>2026-05-02T15:59:25.634Z</time></trkpt><trkpt lat="42.9858822" lon="11.1313707"><ele>149.66666666666669</ele><time>2026-05-02T15:59:26.643Z</time></trkpt><trkpt lat="42.9857302" lon="11.1312418"><ele>148.0</ele><time>2026-05-02T15:59:27.629Z</time></trkpt><trkpt lat="42.9855744" lon="11.1311192"><ele>148.0</ele><time>2026-05-02T15:59:28.638Z</time></trkpt><trkpt lat="42.9854272" lon="11.130995"><ele>148.0</ele><time>2026-05-02T15:59:29.646Z</time></trkpt><trkpt lat="42.9852856" lon="11.1308643"><ele>148.0</ele><time>2026-05-02T15:59:30.641Z</time></trkpt><trkpt lat="42.9851451" lon="11.1307331"><ele>146.33333333333334</ele><time>2026-05-02T15:59:31.638Z</time></trkpt><trkpt lat="42.9850056" lon="11.130607"><ele>144.66666666666666</ele><time>2026-05-02T15:59:32.628Z</time></trkpt><trkpt lat="42.9848641" lon="11.1304824"><ele>143.0</ele><time>2026-05-02T15:59:33.637Z</time></trkpt><trkpt lat="42.9847168" lon="11.1303618"><ele>143.0</ele><time>2026-05-02T15:59:34.643Z</time></trkpt><trkpt lat="42.9845732" lon="11.1302417"><ele>143.0</ele><time>2026-05-02T15:59:35.641Z</time></trkpt><trkpt lat="42.98444" lon="11.1301255"><ele>143.0</ele><time>2026-05-02T15:59:36.646Z</time></trkpt><trkpt lat="42.9843143" lon="11.130011"><ele>143.0</ele><time>2026-05-02T15:59:37.634Z</time></trkpt><trkpt lat="42.9841907" lon="11.1299021"><ele>143.0</ele><time>2026-05-02T15:59:38.644Z</time></trkpt><trkpt lat="42.9840752" lon="11.1297945"><ele>143.0</ele><time>2026-05-02T15:59:39.637Z</time></trkpt><trkpt lat="42.9839692" lon="11.1296808"><ele>143.0</ele><time>2026-05-02T15:59:40.64Z</time></trkpt><trkpt lat="42.9838689" lon="11.129556"><ele>139.75</ele><time>2026-05-02T15:59:41.639Z</time></trkpt><trkpt lat="42.9837791" lon="11.129416"><ele>136.5</ele><time>2026-05-02T15:59:42.651Z</time></trkpt><trkpt lat="42.9837134" lon="11.1292568"><ele>133.25</ele><time>2026-05-02T15:59:43.628Z</time></trkpt><trkpt lat="42.9836682" lon="11.1290843"><ele>130.0</ele><time>2026-05-02T15:59:44.645Z</time></trkpt><trkpt lat="42.9836367" lon="11.1288957"><ele>128.66666666666669</ele><time>2026-05-02T15:59:45.642Z</time></trkpt><trkpt lat="42.9836212" lon="11.1286938"><ele>127.33333333333334</ele><time>2026-05-02T15:59:46.645Z</time></trkpt><trkpt lat="42.9836184" lon="11.1284809"><ele>126.0</ele><time>2026-05-02T15:59:47.635Z</time></trkpt><trkpt lat="42.9836404" lon="11.1282514"><ele>124.66666666666666</ele><time>2026-05-02T15:59:48.641Z</time></trkpt><trkpt lat="42.9836757" lon="11.1280173"><ele>123.33333333333333</ele><time>2026-05-02T15:59:49.642Z</time></trkpt><trkpt lat="42.9837197" lon="11.1277765"><ele>122.0</ele><time>2026-05-02T15:59:50.646Z</time></trkpt><trkpt lat="42.9837666" lon="11.1275356"><ele>120.66666666666666</ele><time>2026-05-02T15:59:51.644Z</time></trkpt><trkpt lat="42.98381" lon="11.1272982"><ele>119.33333333333334</ele><time>2026-05-02T15:59:52.645Z</time></trkpt><trkpt lat="42.9838478" lon="11.1270772"><ele>118.0</ele><time>2026-05-02T15:59:53.632Z</time></trkpt><trkpt lat="42.9838797" lon="11.1268655"><ele>118.0</ele><time>2026-05-02T15:59:54.632Z</time></trkpt><trkpt lat="42.9838976" lon="11.1266484"><ele>118.0</ele><time>2026-05-02T15:59:55.633Z</time></trkpt><trkpt lat="42.9838919" lon="11.1264455"><ele>118.0</ele><time>2026-05-02T15:59:56.639Z</time></trkpt><trkpt lat="42.9838645" lon="11.1262664"><ele>118.0</ele><time>2026-05-02T15:59:57.64Z</time></trkpt><trkpt lat="42.9838243" lon="11.1261007"><ele>117.0</ele><time>2026-05-02T15:59:58.638Z</time></trkpt><trkpt lat="42.9837726" lon="11.1259464"><ele>116.0</ele><time>2026-05-02T15:59:59.63Z</time></trkpt><trkpt lat="42.983704" lon="11.1258009"><ele>115.0</ele><time>2026-05-02T16:00:00.635Z</time></trkpt><trkpt lat="42.9836232" lon="11.1256583"><ele>114.0</ele><time>2026-05-02T16:00:01.63Z</time></trkpt><trkpt lat="42.9835392" lon="11.1255145"><ele>113.25</ele><time>2026-05-02T16:00:02.643Z</time></trkpt><trkpt lat="42.9834485" lon="11.1253787"><ele>112.5</ele><time>2026-05-02T16:00:03.634Z</time></trkpt><trkpt lat="42.983358" lon="11.1252511"><ele>111.75</ele><time>2026-05-02T16:00:04.628Z</time></trkpt><trkpt lat="42.9832745" lon="11.1251293"><ele>111.0</ele><time>2026-05-02T16:00:05.646Z</time></trkpt><trkpt lat="42.9831984" lon="11.125022"><ele>110.5</ele><time>2026-05-02T16:00:06.644Z</time></trkpt><trkpt lat="42.9831378" lon="11.1249236"><ele>110.0</ele><time>2026-05-02T16:00:07.629Z</time></trkpt><trkpt lat="42.9830952" lon="11.1248532"><ele>109.5</ele><time>2026-05-02T16:00:08.631Z</time></trkpt><trkpt lat="42.9830677" lon="11.1247572"><ele>109.0</ele><time>2026-05-02T16:00:10.633Z</time></trkpt><trkpt lat="42.9831405" lon="11.1247138"><ele>108.5</ele><time>2026-05-02T16:00:13.65Z</time></trkpt><trkpt lat="42.9832127" lon="11.1248435"><ele>108.0</ele><time>2026-05-02T16:00:15.633Z</time></trkpt><trkpt lat="42.9832638" lon="11.1249366"><ele>108.0</ele><time>2026-05-02T16:00:16.64Z</time></trkpt><trkpt lat="42.983326" lon="11.1250519"><ele>108.0</ele><time>2026-05-02T16:00:17.626Z</time></trkpt><trkpt lat="42.983403" lon="11.1251778"><ele>108.0</ele><time>2026-05-02T16:00:18.644Z</time></trkpt><trkpt lat="42.9834956" lon="11.1253059"><ele>108.0</ele><time>2026-05-02T16:00:19.637Z</time></trkpt><trkpt lat="42.9835912" lon="11.1254386"><ele>108.60000000000001</ele><time>2026-05-02T16:00:20.641Z</time></trkpt><trkpt lat="42.9836747" lon="11.1255597"><ele>109.20000000000002</ele><time>2026-05-02T16:00:21.641Z</time></trkpt><trkpt lat="42.9837529" lon="11.1256585"><ele>109.8</ele><time>2026-05-02T16:00:22.645Z</time></trkpt><trkpt lat="42.9838427" lon="11.1257209"><ele>110.4</ele><time>2026-05-02T16:00:23.637Z</time></trkpt><trkpt lat="42.9839442" lon="11.125738"><ele>111.0</ele><time>2026-05-02T16:00:24.627Z</time></trkpt><trkpt lat="42.9840583" lon="11.1257275"><ele>111.0</ele><time>2026-05-02T16:00:25.634Z</time></trkpt><trkpt lat="42.9841681" lon="11.1256688"><ele>111.0</ele><time>2026-05-02T16:00:26.641Z</time></trkpt><trkpt lat="42.9842716" lon="11.1256105"><ele>111.0</ele><time>2026-05-02T16:00:27.632Z</time></trkpt><trkpt lat="42.9843787" lon="11.1255755"><ele>111.0</ele><time>2026-05-02T16:00:28.638Z</time></trkpt><trkpt lat="42.9844877" lon="11.1255665"><ele>111.0</ele><time>2026-05-02T16:00:29.641Z</time></trkpt><trkpt lat="42.9845936" lon="11.1256079"><ele>111.5</ele><time>2026-05-02T16:00:30.64Z</time></trkpt><trkpt lat="42.9846912" lon="11.1256856"><ele>112.0</ele><time>2026-05-02T16:00:31.635Z</time></trkpt><trkpt lat="42.984783" lon="11.1257865"><ele>112.5</ele><time>2026-05-02T16:00:32.641Z</time></trkpt><trkpt lat="42.9848756" lon="11.1258935"><ele>113.0</ele><time>2026-05-02T16:00:33.636Z</time></trkpt><trkpt lat="42.9849764" lon="11.1260005"><ele>113.5</ele><time>2026-05-02T16:00:34.643Z</time></trkpt><trkpt lat="42.9850779" lon="11.126113"><ele>114.0</ele><time>2026-05-02T16:00:35.642Z</time></trkpt><trkpt lat="42.9851772" lon="11.1262249"><ele>114.5</ele><time>2026-05-02T16:00:36.639Z</time></trkpt><trkpt lat="42.9852792" lon="11.1263287"><ele>115.0</ele><time>2026-05-02T16:00:37.653Z</time></trkpt><trkpt lat="42.9853822" lon="11.1264415"><ele>115.0</ele><time>2026-05-02T16:00:38.633Z</time></trkpt><trkpt lat="42.9854881" lon="11.1265493"><ele>115.0</ele><time>2026-05-02T16:00:39.637Z</time></trkpt><trkpt lat="42.9855932" lon="11.1266534"><ele>115.0</ele><time>2026-05-02T16:00:40.635Z</time></trkpt><trkpt lat="42.9856881" lon="11.1267405"><ele>115.0</ele><time>2026-05-02T16:00:41.632Z</time></trkpt><trkpt lat="42.9857738" lon="11.1268139"><ele>114.83333333333334</ele><time>2026-05-02T16:00:42.628Z</time></trkpt><trkpt lat="42.9858531" lon="11.1268822"><ele>114.66666666666667</ele><time>2026-05-02T16:00:43.64Z</time></trkpt><trkpt lat="42.9859263" lon="11.126946"><ele>114.5</ele><time>2026-05-02T16:00:44.638Z</time></trkpt><trkpt lat="42.9859992" lon="11.1270009"><ele>114.33333333333334</ele><time>2026-05-02T16:00:45.635Z</time></trkpt><trkpt lat="42.9860783" lon="11.1270499"><ele>114.16666666666667</ele><time>2026-05-02T16:00:46.624Z</time></trkpt><trkpt lat="42.9861618" lon="11.1270993"><ele>114.0</ele><time>2026-05-02T16:00:47.637Z</time></trkpt><trkpt lat="42.9862439" lon="11.1271551"><ele>114.0</ele><time>2026-05-02T16:00:48.637Z</time></trkpt><trkpt lat="42.9863241" lon="11.1272226"><ele>114.0</ele><time>2026-05-02T16:00:49.632Z</time></trkpt><trkpt lat="42.9864059" lon="11.1272842"><ele>114.0</ele><time>2026-05-02T16:00:50.651Z</time></trkpt><trkpt lat="42.9864784" lon="11.1273473"><ele>114.0</ele><time>2026-05-02T16:00:51.655Z</time></trkpt><trkpt lat="42.9865432" lon="11.1274054"><ele>114.0</ele><time>2026-05-02T16:00:52.63Z</time></trkpt><trkpt lat="42.986607" lon="11.1274594"><ele>114.0</ele><time>2026-05-02T16:00:53.631Z</time></trkpt><trkpt lat="42.9866663" lon="11.127508"><ele>114.5</ele><time>2026-05-02T16:00:54.648Z</time></trkpt><trkpt lat="42.9867266" lon="11.1275533"><ele>115.0</ele><time>2026-05-02T16:00:55.631Z</time></trkpt><trkpt lat="42.9867963" lon="11.1276028"><ele>115.5</ele><time>2026-05-02T16:00:56.633Z</time></trkpt><trkpt lat="42.9868676" lon="11.1276555"><ele>116.0</ele><time>2026-05-02T16:00:57.635Z</time></trkpt><trkpt lat="42.9869326" lon="11.1277117"><ele>116.5</ele><time>2026-05-02T16:00:58.639Z</time></trkpt><trkpt lat="42.9869932" lon="11.127769"><ele>117.0</ele><time>2026-05-02T16:00:59.626Z</time></trkpt><trkpt lat="42.9870639" lon="11.1278327"><ele>117.0</ele><time>2026-05-02T16:01:00.635Z</time></trkpt><trkpt lat="42.9871523" lon="11.1279176"><ele>117.0</ele><time>2026-05-02T16:01:01.624Z</time></trkpt><trkpt lat="42.9872598" lon="11.1280193"><ele>117.0</ele><time>2026-05-02T16:01:02.624Z</time></trkpt><trkpt lat="42.987402" lon="11.1281413"><ele>117.0</ele><time>2026-05-02T16:01:03.625Z</time></trkpt><trkpt lat="42.9875519" lon="11.1282638"><ele>119.0</ele><time>2026-05-02T16:01:04.622Z</time></trkpt><trkpt lat="42.9877082" lon="11.1284041"><ele>121.0</ele><time>2026-05-02T16:01:05.629Z</time></trkpt><trkpt lat="42.9878741" lon="11.1285525"><ele>123.0</ele><time>2026-05-02T16:01:06.632Z</time></trkpt><trkpt lat="42.9880361" lon="11.1287201"><ele>123.0</ele><time>2026-05-02T16:01:07.629Z</time></trkpt><trkpt lat="42.9881833" lon="11.1289018"><ele>123.0</ele><time>2026-05-02T16:01:08.634Z</time></trkpt><trkpt lat="42.9883295" lon="11.1290665"><ele>123.0</ele><time>2026-05-02T16:01:09.633Z</time></trkpt><trkpt lat="42.9884789" lon="11.1292199"><ele>123.66666666666666</ele><time>2026-05-02T16:01:10.642Z</time></trkpt><trkpt lat="42.9886176" lon="11.1293696"><ele>124.33333333333333</ele><time>2026-05-02T16:01:11.654Z</time></trkpt><trkpt lat="42.9887614" lon="11.1295215"><ele>125.0</ele><time>2026-05-02T16:01:12.634Z</time></trkpt><trkpt lat="42.9889171" lon="11.1296696"><ele>125.0</ele><time>2026-05-02T16:01:13.629Z</time></trkpt><trkpt lat="42.9890736" lon="11.1298123"><ele>125.0</ele><time>2026-05-02T16:01:14.64Z</time></trkpt><trkpt lat="42.9892192" lon="11.1299387"><ele>125.0</ele><time>2026-05-02T16:01:15.625Z</time></trkpt><trkpt lat="42.9893577" lon="11.1300478"><ele>125.66666666666666</ele><time>2026-05-02T16:01:16.643Z</time></trkpt><trkpt lat="42.9894919" lon="11.1301497"><ele>126.33333333333334</ele><time>2026-05-02T16:01:17.627Z</time></trkpt><trkpt lat="42.9896203" lon="11.1302564"><ele>127.0</ele><time>2026-05-02T16:01:18.643Z</time></trkpt><trkpt lat="42.9897519" lon="11.1303525"><ele>127.0</ele><time>2026-05-02T16:01:19.639Z</time></trkpt><trkpt lat="42.9898784" lon="11.1304539"><ele>127.0</ele><time>2026-05-02T16:01:20.641Z</time></trkpt><trkpt lat="42.9899978" lon="11.1305504"><ele>127.0</ele><time>2026-05-02T16:01:21.631Z</time></trkpt><trkpt lat="42.9901231" lon="11.1306482"><ele>127.0</ele><time>2026-05-02T16:01:22.647Z</time></trkpt><trkpt lat="42.9902461" lon="11.1307456"><ele>127.0</ele><time>2026-05-02T16:01:23.641Z</time></trkpt><trkpt lat="42.9903564" lon="11.130814"><ele>126.99999999999999</ele><time>2026-05-02T16:01:24.644Z</time></trkpt><trkpt lat="42.9904509" lon="11.130861"><ele>126.99999999999999</ele><time>2026-05-02T16:01:25.63Z</time></trkpt><trkpt lat="42.9905372" lon="11.1308927"><ele>127.0</ele><time>2026-05-02T16:01:26.634Z</time></trkpt><trkpt lat="42.9906008" lon="11.1309163"><ele>127.0</ele><time>2026-05-02T16:01:27.628Z</time></trkpt><trkpt lat="42.990712" lon="11.1309636"><ele>127.00000000000001</ele><time>2026-05-02T16:01:29.634Z</time></trkpt><trkpt lat="42.9907774" lon="11.1309951"><ele>127.0</ele><time>2026-05-02T16:01:30.642Z</time></trkpt><trkpt lat="42.9908521" lon="11.131038"><ele>127.0</ele><time>2026-05-02T16:01:31.627Z</time></trkpt><trkpt lat="42.9909255" lon="11.1310987"><ele>127.0</ele><time>2026-05-02T16:01:32.633Z</time></trkpt><trkpt lat="42.9910059" lon="11.1311703"><ele>127.00000000000001</ele><time>2026-05-02T16:01:33.635Z</time></trkpt><trkpt lat="42.991098" lon="11.1312506"><ele>127.0</ele><time>2026-05-02T16:01:34.637Z</time></trkpt><trkpt lat="42.9911972" lon="11.1313278"><ele>127.19999999999999</ele><time>2026-05-02T16:01:35.646Z</time></trkpt><trkpt lat="42.9912972" lon="11.1314013"><ele>127.39999999999999</ele><time>2026-05-02T16:01:36.63Z</time></trkpt><trkpt lat="42.9913867" lon="11.1314686"><ele>127.60000000000001</ele><time>2026-05-02T16:01:37.634Z</time></trkpt><trkpt lat="42.99147" lon="11.1315277"><ele>127.80000000000001</ele><time>2026-05-02T16:01:38.64Z</time></trkpt><trkpt lat="42.9915477" lon="11.1315806"><ele>128.0</ele><time>2026-05-02T16:01:39.637Z</time></trkpt><trkpt lat="42.99162" lon="11.1316512"><ele>127.16666666666666</ele><time>2026-05-02T16:01:40.641Z</time></trkpt><trkpt lat="42.9916821" lon="11.1317292"><ele>126.33333333333333</ele><time>2026-05-02T16:01:41.636Z</time></trkpt><trkpt lat="42.9917336" lon="11.1318241"><ele>125.5</ele><time>2026-05-02T16:01:42.641Z</time></trkpt><trkpt lat="42.9917743" lon="11.1319261"><ele>124.66666666666666</ele><time>2026-05-02T16:01:43.639Z</time></trkpt><trkpt lat="42.9917911" lon="11.1320404"><ele>123.83333333333333</ele><time>2026-05-02T16:01:44.626Z</time></trkpt><trkpt lat="42.9917899" lon="11.1321435"><ele>123.0</ele><time>2026-05-02T16:01:45.628Z</time></trkpt><trkpt lat="42.9917903" lon="11.1322343"><ele>123.0</ele><time>2026-05-02T16:01:46.637Z</time></trkpt><trkpt lat="42.9918081" lon="11.1323233"><ele>123.00000000000001</ele><time>2026-05-02T16:01:47.636Z</time></trkpt><trkpt lat="42.9918686" lon="11.1324781"><ele>123.00000000000001</ele><time>2026-05-02T16:01:49.632Z</time></trkpt><trkpt lat="42.9919193" lon="11.132556"><ele>123.0</ele><time>2026-05-02T16:01:50.639Z</time></trkpt><trkpt lat="42.9919801" lon="11.1326396"><ele>123.0</ele><time>2026-05-02T16:01:51.638Z</time></trkpt><trkpt lat="42.9920464" lon="11.1327255"><ele>123.4</ele><time>2026-05-02T16:01:52.63Z</time></trkpt><trkpt lat="42.992123" lon="11.1328024"><ele>123.80000000000001</ele><time>2026-05-02T16:01:53.646Z</time></trkpt><trkpt lat="42.9922075" lon="11.1328746"><ele>124.2</ele><time>2026-05-02T16:01:54.642Z</time></trkpt><trkpt lat="42.9922903" lon="11.132957"><ele>124.6</ele><time>2026-05-02T16:01:55.63Z</time></trkpt><trkpt lat="42.9923757" lon="11.1330414"><ele>125.0</ele><time>2026-05-02T16:01:56.623Z</time></trkpt><trkpt lat="42.9924532" lon="11.1331268"><ele>124.6</ele><time>2026-05-02T16:01:57.635Z</time></trkpt><trkpt lat="42.9925232" lon="11.1332125"><ele>124.2</ele><time>2026-05-02T16:01:58.621Z</time></trkpt><trkpt lat="42.9925873" lon="11.1333056"><ele>123.80000000000001</ele><time>2026-05-02T16:01:59.634Z</time></trkpt><trkpt lat="42.9926441" lon="11.1334096"><ele>123.4</ele><time>2026-05-02T16:02:00.651Z</time></trkpt><trkpt lat="42.9926868" lon="11.1335351"><ele>123.0</ele><time>2026-05-02T16:02:01.635Z</time></trkpt><trkpt lat="42.9927296" lon="11.1336617"><ele>123.0</ele><time>2026-05-02T16:02:02.631Z</time></trkpt><trkpt lat="42.9927746" lon="11.1337862"><ele>123.00000000000001</ele><time>2026-05-02T16:02:03.637Z</time></trkpt><trkpt lat="42.9928297" lon="11.1339075"><ele>123.00000000000001</ele><time>2026-05-02T16:02:04.638Z</time></trkpt><trkpt lat="42.9928933" lon="11.1340152"><ele>123.0</ele><time>2026-05-02T16:02:05.63Z</time></trkpt><trkpt lat="42.9929754" lon="11.134089"><ele>123.0</ele><time>2026-05-02T16:02:06.628Z</time></trkpt><trkpt lat="42.9930694" lon="11.1341442"><ele>124.5</ele><time>2026-05-02T16:02:07.63Z</time></trkpt><trkpt lat="42.99317" lon="11.1341815"><ele>126.0</ele><time>2026-05-02T16:02:08.628Z</time></trkpt><trkpt lat="42.9932839" lon="11.1342178"><ele>127.5</ele><time>2026-05-02T16:02:09.634Z</time></trkpt><trkpt lat="42.9934002" lon="11.1342605"><ele>129.0</ele><time>2026-05-02T16:02:10.634Z</time></trkpt><trkpt lat="42.993521" lon="11.1343151"><ele>129.0</ele><time>2026-05-02T16:02:11.634Z</time></trkpt><trkpt lat="42.9936468" lon="11.1343483"><ele>129.0</ele><time>2026-05-02T16:02:12.625Z</time></trkpt><trkpt lat="42.9937589" lon="11.1343771"><ele>129.0</ele><time>2026-05-02T16:02:13.63Z</time></trkpt><trkpt lat="42.9938488" lon="11.1343897"><ele>129.0</ele><time>2026-05-02T16:02:14.631Z</time></trkpt><trkpt lat="42.9939298" lon="11.1343859"><ele>129.0</ele><time>2026-05-02T16:02:15.628Z</time></trkpt><trkpt lat="42.9939986" lon="11.1343749"><ele>128.99999999999997</ele><time>2026-05-02T16:02:16.623Z</time></trkpt><trkpt lat="42.9940649" lon="11.1343573"><ele>129.0</ele><time>2026-05-02T16:02:17.625Z</time></trkpt><trkpt lat="42.9941262" lon="11.1343334"><ele>129.0</ele><time>2026-05-02T16:02:18.642Z</time></trkpt><trkpt lat="42.9941918" lon="11.1343022"><ele>129.0</ele><time>2026-05-02T16:02:19.627Z</time></trkpt><trkpt lat="42.9942591" lon="11.1342447"><ele>129.0</ele><time>2026-05-02T16:02:20.636Z</time></trkpt><trkpt lat="42.9943299" lon="11.1341803"><ele>128.99999999999997</ele><time>2026-05-02T16:02:21.633Z</time></trkpt><trkpt lat="42.9943974" lon="11.1341187"><ele>129.0</ele><time>2026-05-02T16:02:22.632Z</time></trkpt><trkpt lat="42.9944572" lon="11.1340627"><ele>129.16666666666666</ele><time>2026-05-02T16:02:23.628Z</time></trkpt><trkpt lat="42.9945098" lon="11.1340126"><ele>129.33333333333334</ele><time>2026-05-02T16:02:24.631Z</time></trkpt><trkpt lat="42.9945805" lon="11.1339224"><ele>129.5</ele><time>2026-05-02T16:02:26.634Z</time></trkpt><trkpt lat="42.9946242" lon="11.1338388"><ele>129.66666666666669</ele><time>2026-05-02T16:02:28.642Z</time></trkpt><trkpt lat="42.9946385" lon="11.1337324"><ele>129.83333333333334</ele><time>2026-05-02T16:02:30.632Z</time></trkpt><trkpt lat="42.9945922" lon="11.1336357"><ele>130.0</ele><time>2026-05-02T16:02:32.642Z</time></trkpt><trkpt lat="42.994515" lon="11.1335008"><ele>130.0</ele><time>2026-05-02T16:02:34.637Z</time></trkpt><trkpt lat="42.9944776" lon="11.1334215"><ele>130.0</ele><time>2026-05-02T16:02:35.644Z</time></trkpt><trkpt lat="42.9944546" lon="11.1333328"><ele>130.0</ele><time>2026-05-02T16:02:36.649Z</time></trkpt><trkpt lat="42.9944896" lon="11.133185"><ele>130.0</ele><time>2026-05-02T16:02:38.645Z</time></trkpt><trkpt lat="42.9945492" lon="11.1330756"><ele>130.0</ele><time>2026-05-02T16:02:40.641Z</time></trkpt><trkpt lat="42.9945998" lon="11.1329867"><ele>130.0</ele><time>2026-05-02T16:02:42.635Z</time></trkpt><trkpt lat="42.9946504" lon="11.132897"><ele>130.16666666666669</ele><time>2026-05-02T16:02:45.627Z</time></trkpt><trkpt lat="42.9947081" lon="11.1327607"><ele>130.33333333333334</ele><time>2026-05-02T16:02:48.646Z</time></trkpt><trkpt lat="42.9947426" lon="11.1326852"><ele>130.5</ele><time>2026-05-02T16:02:49.634Z</time></trkpt><trkpt lat="42.9947856" lon="11.1325987"><ele>130.66666666666666</ele><time>2026-05-02T16:02:50.638Z</time></trkpt><trkpt lat="42.9948448" lon="11.1325125"><ele>130.83333333333331</ele><time>2026-05-02T16:02:51.637Z</time></trkpt><trkpt lat="42.9949161" lon="11.1324418"><ele>131.0</ele><time>2026-05-02T16:02:52.631Z</time></trkpt><trkpt lat="42.9949989" lon="11.1323851"><ele>132.8</ele><time>2026-05-02T16:02:53.635Z</time></trkpt><trkpt lat="42.9950855" lon="11.1323445"><ele>134.6</ele><time>2026-05-02T16:02:54.647Z</time></trkpt><trkpt lat="42.9951785" lon="11.1322992"><ele>136.4</ele><time>2026-05-02T16:02:55.645Z</time></trkpt><trkpt lat="42.9952685" lon="11.1322604"><ele>138.2</ele><time>2026-05-02T16:02:56.642Z</time></trkpt><trkpt lat="42.9953541" lon="11.1322083"><ele>140.0</ele><time>2026-05-02T16:02:57.637Z</time></trkpt><trkpt lat="42.9954319" lon="11.1321378"><ele>140.0</ele><time>2026-05-02T16:02:58.637Z</time></trkpt><trkpt lat="42.9955115" lon="11.132054"><ele>140.0</ele><time>2026-05-02T16:02:59.628Z</time></trkpt><trkpt lat="42.9955931" lon="11.1319783"><ele>140.0</ele><time>2026-05-02T16:03:00.647Z</time></trkpt><trkpt lat="42.9956666" lon="11.1319063"><ele>140.0</ele><time>2026-05-02T16:03:01.636Z</time></trkpt><trkpt lat="42.9957287" lon="11.1318247"><ele>140.0</ele><time>2026-05-02T16:03:02.64Z</time></trkpt><trkpt lat="42.995777" lon="11.1317257"><ele>140.0</ele><time>2026-05-02T16:03:03.64Z</time></trkpt><trkpt lat="42.9958188" lon="11.1316054"><ele>140.0</ele><time>2026-05-02T16:03:04.634Z</time></trkpt><trkpt lat="42.9958655" lon="11.1314692"><ele>140.0</ele><time>2026-05-02T16:03:05.641Z</time></trkpt><trkpt lat="42.9959127" lon="11.1313376"><ele>140.0</ele><time>2026-05-02T16:03:06.645Z</time></trkpt><trkpt lat="42.9959567" lon="11.131208"><ele>140.0</ele><time>2026-05-02T16:03:07.64Z</time></trkpt><trkpt lat="42.995993" lon="11.1310735"><ele>143.4</ele><time>2026-05-02T16:03:08.637Z</time></trkpt><trkpt lat="42.9960284" lon="11.1309311"><ele>146.8</ele><time>2026-05-02T16:03:09.635Z</time></trkpt><trkpt lat="42.9960744" lon="11.1307999"><ele>150.2</ele><time>2026-05-02T16:03:10.638Z</time></trkpt><trkpt lat="42.996132" lon="11.1306836"><ele>153.6</ele><time>2026-05-02T16:03:11.64Z</time></trkpt><trkpt lat="42.9962103" lon="11.1305981"><ele>157.0</ele><time>2026-05-02T16:03:12.639Z</time></trkpt><trkpt lat="42.996308" lon="11.1305454"><ele>159.2</ele><time>2026-05-02T16:03:13.638Z</time></trkpt><trkpt lat="42.9964043" lon="11.1305055"><ele>161.39999999999998</ele><time>2026-05-02T16:03:14.638Z</time></trkpt><trkpt lat="42.9965013" lon="11.1304702"><ele>163.60000000000002</ele><time>2026-05-02T16:03:15.636Z</time></trkpt><trkpt lat="42.9966009" lon="11.1304382"><ele>165.8</ele><time>2026-05-02T16:03:16.641Z</time></trkpt><trkpt lat="42.996692" lon="11.1303759"><ele>168.0</ele><time>2026-05-02T16:03:17.643Z</time></trkpt><trkpt lat="42.9967651" lon="11.1302903"><ele>169.4</ele><time>2026-05-02T16:03:18.646Z</time></trkpt><trkpt lat="42.9968377" lon="11.1301991"><ele>170.8</ele><time>2026-05-02T16:03:19.649Z</time></trkpt><trkpt lat="42.9969036" lon="11.1301119"><ele>172.2</ele><time>2026-05-02T16:03:20.653Z</time></trkpt><trkpt lat="42.9969486" lon="11.1300364"><ele>173.6</ele><time>2026-05-02T16:03:21.631Z</time></trkpt><trkpt lat="42.9969375" lon="11.1298774"><ele>175.0</ele><time>2026-05-02T16:03:23.629Z</time></trkpt><trkpt lat="42.9968844" lon="11.1297994"><ele>174.66666666666669</ele><time>2026-05-02T16:03:24.638Z</time></trkpt><trkpt lat="42.9968165" lon="11.1297291"><ele>174.33333333333334</ele><time>2026-05-02T16:03:25.642Z</time></trkpt><trkpt lat="42.9967446" lon="11.1296638"><ele>174.0</ele><time>2026-05-02T16:03:26.645Z</time></trkpt><trkpt lat="42.9966786" lon="11.1296004"><ele>173.66666666666666</ele><time>2026-05-02T16:03:27.632Z</time></trkpt><trkpt lat="42.9966163" lon="11.1294887"><ele>173.33333333333331</ele><time>2026-05-02T16:03:29.628Z</time></trkpt><trkpt lat="42.9966266" lon="11.1293671"><ele>173.0</ele><time>2026-05-02T16:03:31.64Z</time></trkpt><trkpt lat="42.9967166" lon="11.1292513"><ele>175.4</ele><time>2026-05-02T16:03:33.646Z</time></trkpt><trkpt lat="42.9967919" lon="11.1291846"><ele>177.8</ele><time>2026-05-02T16:03:34.641Z</time></trkpt><trkpt lat="42.996874" lon="11.1291236"><ele>180.2</ele><time>2026-05-02T16:03:35.64Z</time></trkpt><trkpt lat="42.9969655" lon="11.1290698"><ele>182.6</ele><time>2026-05-02T16:03:36.642Z</time></trkpt><trkpt lat="42.9970581" lon="11.1290146"><ele>185.0</ele><time>2026-05-02T16:03:37.64Z</time></trkpt><trkpt lat="42.99714" lon="11.1289513"><ele>185.83333333333331</ele><time>2026-05-02T16:03:38.633Z</time></trkpt><trkpt lat="42.9972097" lon="11.1288904"><ele>186.66666666666666</ele><time>2026-05-02T16:03:39.638Z</time></trkpt><trkpt lat="42.997258" lon="11.1288142"><ele>187.5</ele><time>2026-05-02T16:03:40.636Z</time></trkpt><trkpt lat="42.9972856" lon="11.1287164"><ele>188.33333333333334</ele><time>2026-05-02T16:03:41.641Z</time></trkpt><trkpt lat="42.9973063" lon="11.128619"><ele>189.16666666666669</ele><time>2026-05-02T16:03:42.643Z</time></trkpt><trkpt lat="42.9973287" lon="11.1285203"><ele>190.0</ele><time>2026-05-02T16:03:43.634Z</time></trkpt><trkpt lat="42.9973575" lon="11.1284211"><ele>190.0</ele><time>2026-05-02T16:03:44.635Z</time></trkpt><trkpt lat="42.9973981" lon="11.1283321"><ele>190.0</ele><time>2026-05-02T16:03:45.647Z</time></trkpt><trkpt lat="42.9974468" lon="11.1282396"><ele>190.0</ele><time>2026-05-02T16:03:46.639Z</time></trkpt><trkpt lat="42.9974945" lon="11.1281555"><ele>190.0</ele><time>2026-05-02T16:03:47.638Z</time></trkpt><trkpt lat="42.9975406" lon="11.1280771"><ele>190.0</ele><time>2026-05-02T16:03:48.64Z</time></trkpt><trkpt lat="42.9975742" lon="11.1280026"><ele>190.0</ele><time>2026-05-02T16:03:49.632Z</time></trkpt><trkpt lat="42.997591" lon="11.127884"><ele>193.8</ele><time>2026-05-02T16:03:51.634Z</time></trkpt><trkpt lat="42.9976034" lon="11.127768"><ele>197.6</ele><time>2026-05-02T16:03:53.641Z</time></trkpt><trkpt lat="42.9976166" lon="11.1276199"><ele>201.39999999999998</ele><time>2026-05-02T16:03:55.635Z</time></trkpt><trkpt lat="42.9976764" lon="11.1274973"><ele>205.2</ele><time>2026-05-02T16:03:57.631Z</time></trkpt><trkpt lat="42.9978063" lon="11.1274911"><ele>209.0</ele><time>2026-05-02T16:03:59.636Z</time></trkpt><trkpt lat="42.9978801" lon="11.1275162"><ele>209.00000000000003</ele><time>2026-05-02T16:04:00.629Z</time></trkpt><trkpt lat="42.9979563" lon="11.1275499"><ele>209.0</ele><time>2026-05-02T16:04:01.633Z</time></trkpt><trkpt lat="42.998041" lon="11.1275765"><ele>209.0</ele><time>2026-05-02T16:04:02.629Z</time></trkpt><trkpt lat="42.9981314" lon="11.1275989"><ele>209.0</ele><time>2026-05-02T16:04:03.634Z</time></trkpt><trkpt lat="42.9982148" lon="11.1276394"><ele>209.00000000000003</ele><time>2026-05-02T16:04:04.637Z</time></trkpt><trkpt lat="42.9982841" lon="11.1276868"><ele>209.0</ele><time>2026-05-02T16:04:05.639Z</time></trkpt><trkpt lat="42.9983454" lon="11.127722"><ele>211.0</ele><time>2026-05-02T16:04:06.64Z</time></trkpt><trkpt lat="42.9984093" lon="11.1277318"><ele>213.0</ele><time>2026-05-02T16:04:07.632Z</time></trkpt><trkpt lat="42.9985344" lon="11.1276703"><ele>214.99999999999997</ele><time>2026-05-02T16:04:09.631Z</time></trkpt><trkpt lat="42.9986031" lon="11.1276018"><ele>217.0</ele><time>2026-05-02T16:04:10.641Z</time></trkpt><trkpt lat="42.9986805" lon="11.1275181"><ele>219.0</ele><time>2026-05-02T16:04:11.632Z</time></trkpt><trkpt lat="42.9987635" lon="11.1274458"><ele>220.39999999999998</ele><time>2026-05-02T16:04:12.638Z</time></trkpt><trkpt lat="42.9988487" lon="11.1273771"><ele>221.79999999999998</ele><time>2026-05-02T16:04:13.632Z</time></trkpt><trkpt lat="42.9989333" lon="11.1273201"><ele>223.20000000000002</ele><time>2026-05-02T16:04:14.63Z</time></trkpt><trkpt lat="42.9990123" lon="11.1272686"><ele>224.60000000000002</ele><time>2026-05-02T16:04:15.627Z</time></trkpt><trkpt lat="42.9990984" lon="11.1272195"><ele>226.0</ele><time>2026-05-02T16:04:16.637Z</time></trkpt><trkpt lat="42.9991939" lon="11.1271648"><ele>227.0</ele><time>2026-05-02T16:04:17.631Z</time></trkpt><trkpt lat="42.999287" lon="11.1271096"><ele>228.00000000000003</ele><time>2026-05-02T16:04:18.64Z</time></trkpt><trkpt lat="42.9993765" lon="11.1270578"><ele>229.00000000000003</ele><time>2026-05-02T16:04:19.64Z</time></trkpt><trkpt lat="42.9994609" lon="11.1270206"><ele>230.0</ele><time>2026-05-02T16:04:20.639Z</time></trkpt><trkpt lat="42.9995432" lon="11.1269874"><ele>231.0</ele><time>2026-05-02T16:04:21.653Z</time></trkpt><trkpt lat="42.9996265" lon="11.1269552"><ele>231.0</ele><time>2026-05-02T16:04:22.652Z</time></trkpt><trkpt lat="42.9997114" lon="11.1269025"><ele>231.00000000000003</ele><time>2026-05-02T16:04:23.639Z</time></trkpt><trkpt lat="42.9997901" lon="11.126824"><ele>231.00000000000003</ele><time>2026-05-02T16:04:24.656Z</time></trkpt><trkpt lat="42.999867" lon="11.1267287"><ele>231.0</ele><time>2026-05-02T16:04:25.632Z</time></trkpt><trkpt lat="42.9999339" lon="11.1266238"><ele>231.0</ele><time>2026-05-02T16:04:26.647Z</time></trkpt><trkpt lat="43.0000028" lon="11.1265206"><ele>232.4</ele><time>2026-05-02T16:04:27.638Z</time></trkpt><trkpt lat="43.0000715" lon="11.1264139"><ele>233.8</ele><time>2026-05-02T16:04:28.639Z</time></trkpt><trkpt lat="43.0001345" lon="11.1263"><ele>235.20000000000002</ele><time>2026-05-02T16:04:29.644Z</time></trkpt><trkpt lat="43.0001849" lon="11.1261808"><ele>236.60000000000002</ele><time>2026-05-02T16:04:30.645Z</time></trkpt><trkpt lat="43.00023" lon="11.1260657"><ele>238.0</ele><time>2026-05-02T16:04:31.64Z</time></trkpt><trkpt lat="43.0002708" lon="11.1259467"><ele>237.99999999999997</ele><time>2026-05-02T16:04:32.642Z</time></trkpt><trkpt lat="43.0003062" lon="11.1258295"><ele>238.0</ele><time>2026-05-02T16:04:33.637Z</time></trkpt><trkpt lat="43.00034" lon="11.1257219"><ele>238.0</ele><time>2026-05-02T16:04:34.634Z</time></trkpt><trkpt lat="43.0003855" lon="11.1256195"><ele>238.0</ele><time>2026-05-02T16:04:35.642Z</time></trkpt><trkpt lat="43.0004387" lon="11.1255283"><ele>237.99999999999997</ele><time>2026-05-02T16:04:36.633Z</time></trkpt><trkpt lat="43.0005019" lon="11.125448"><ele>238.0</ele><time>2026-05-02T16:04:37.646Z</time></trkpt><trkpt lat="43.0005814" lon="11.1253664"><ele>238.2</ele><time>2026-05-02T16:04:38.633Z</time></trkpt><trkpt lat="43.0006705" lon="11.125279"><ele>238.4</ele><time>2026-05-02T16:04:39.639Z</time></trkpt><trkpt lat="43.0007561" lon="11.1251845"><ele>238.59999999999997</ele><time>2026-05-02T16:04:40.643Z</time></trkpt><trkpt lat="43.0008381" lon="11.1250838"><ele>238.79999999999998</ele><time>2026-05-02T16:04:41.642Z</time></trkpt><trkpt lat="43.0009169" lon="11.1249937"><ele>239.0</ele><time>2026-05-02T16:04:42.647Z</time></trkpt><trkpt lat="43.0009847" lon="11.1249208"><ele>240.33333333333334</ele><time>2026-05-02T16:04:43.644Z</time></trkpt><trkpt lat="43.0010337" lon="11.1248576"><ele>241.66666666666669</ele><time>2026-05-02T16:04:44.647Z</time></trkpt><trkpt lat="43.0010733" lon="11.1247253"><ele>243.0</ele><time>2026-05-02T16:04:46.634Z</time></trkpt><trkpt lat="43.0010352" lon="11.1245802"><ele>244.33333333333331</ele><time>2026-05-02T16:04:48.645Z</time></trkpt><trkpt lat="43.0010266" lon="11.1244938"><ele>245.66666666666666</ele><time>2026-05-02T16:04:49.629Z</time></trkpt><trkpt lat="43.0010395" lon="11.1243816"><ele>247.0</ele><time>2026-05-02T16:04:50.637Z</time></trkpt><trkpt lat="43.00106" lon="11.1242667"><ele>246.99999999999997</ele><time>2026-05-02T16:04:51.634Z</time></trkpt><trkpt lat="43.0010911" lon="11.1241539"><ele>247.0</ele><time>2026-05-02T16:04:52.627Z</time></trkpt><trkpt lat="43.0011322" lon="11.1240471"><ele>247.0</ele><time>2026-05-02T16:04:53.637Z</time></trkpt><trkpt lat="43.0011794" lon="11.1239471"><ele>247.0</ele><time>2026-05-02T16:04:54.639Z</time></trkpt><trkpt lat="43.0012269" lon="11.1238514"><ele>246.99999999999997</ele><time>2026-05-02T16:04:55.631Z</time></trkpt><trkpt lat="43.0012779" lon="11.123765"><ele>247.0</ele><time>2026-05-02T16:04:56.636Z</time></trkpt><trkpt lat="43.0013281" lon="11.1236803"><ele>247.16666666666666</ele><time>2026-05-02T16:04:57.636Z</time></trkpt><trkpt lat="43.0013712" lon="11.1235882"><ele>247.33333333333331</ele><time>2026-05-02T16:04:58.64Z</time></trkpt><trkpt lat="43.0014058" lon="11.1235019"><ele>247.5</ele><time>2026-05-02T16:04:59.64Z</time></trkpt><trkpt lat="43.0014431" lon="11.1234223"><ele>247.66666666666669</ele><time>2026-05-02T16:05:00.639Z</time></trkpt><trkpt lat="43.0014891" lon="11.1233386"><ele>247.83333333333334</ele><time>2026-05-02T16:05:01.641Z</time></trkpt><trkpt lat="43.0015425" lon="11.1232497"><ele>248.0</ele><time>2026-05-02T16:05:02.637Z</time></trkpt><trkpt lat="43.0015988" lon="11.1231625"><ele>247.66666666666669</ele><time>2026-05-02T16:05:03.627Z</time></trkpt><trkpt lat="43.0016513" lon="11.1230718"><ele>247.33333333333334</ele><time>2026-05-02T16:05:04.633Z</time></trkpt><trkpt lat="43.0016973" lon="11.1229791"><ele>247.0</ele><time>2026-05-02T16:05:05.636Z</time></trkpt><trkpt lat="43.0017402" lon="11.1228858"><ele>246.66666666666669</ele><time>2026-05-02T16:05:06.652Z</time></trkpt><trkpt lat="43.0017768" lon="11.1227853"><ele>246.33333333333334</ele><time>2026-05-02T16:05:07.635Z</time></trkpt><trkpt lat="43.0017982" lon="11.1226702"><ele>246.0</ele><time>2026-05-02T16:05:08.632Z</time></trkpt><trkpt lat="43.001815" lon="11.1225605"><ele>247.8571428571429</ele><time>2026-05-02T16:05:09.637Z</time></trkpt><trkpt lat="43.0018434" lon="11.1224659"><ele>249.71428571428572</ele><time>2026-05-02T16:05:10.642Z</time></trkpt><trkpt lat="43.0018762" lon="11.1223869"><ele>251.57142857142858</ele><time>2026-05-02T16:05:11.648Z</time></trkpt><trkpt lat="43.0019228" lon="11.1223277"><ele>253.42857142857144</ele><time>2026-05-02T16:05:12.641Z</time></trkpt><trkpt lat="43.0019827" lon="11.1222851"><ele>255.28571428571428</ele><time>2026-05-02T16:05:13.637Z</time></trkpt><trkpt lat="43.0020529" lon="11.1222482"><ele>257.14285714285717</ele><time>2026-05-02T16:05:14.636Z</time></trkpt><trkpt lat="43.0021262" lon="11.1222041"><ele>259.0</ele><time>2026-05-02T16:05:15.64Z</time></trkpt><trkpt lat="43.0021934" lon="11.1221579"><ele>259.0</ele><time>2026-05-02T16:05:16.644Z</time></trkpt><trkpt lat="43.0022555" lon="11.1220904"><ele>259.0</ele><time>2026-05-02T16:05:17.637Z</time></trkpt><trkpt lat="43.0023" lon="11.1219969"><ele>259.0</ele><time>2026-05-02T16:05:18.623Z</time></trkpt><trkpt lat="43.0023433" lon="11.1219022"><ele>259.0</ele><time>2026-05-02T16:05:19.63Z</time></trkpt><trkpt lat="43.002386" lon="11.1218052"><ele>259.0</ele><time>2026-05-02T16:05:20.644Z</time></trkpt><trkpt lat="43.0024322" lon="11.1217084"><ele>259.0</ele><time>2026-05-02T16:05:21.644Z</time></trkpt><trkpt lat="43.0024799" lon="11.1216296"><ele>260.66666666666663</ele><time>2026-05-02T16:05:22.646Z</time></trkpt><trkpt lat="43.0025355" lon="11.1215704"><ele>262.3333333333333</ele><time>2026-05-02T16:05:23.637Z</time></trkpt><trkpt lat="43.0025994" lon="11.1215074"><ele>264.0</ele><time>2026-05-02T16:05:24.644Z</time></trkpt><trkpt lat="43.002665" lon="11.1214453"><ele>265.6666666666667</ele><time>2026-05-02T16:05:25.638Z</time></trkpt><trkpt lat="43.0027303" lon="11.1213876"><ele>267.33333333333337</ele><time>2026-05-02T16:05:26.646Z</time></trkpt><trkpt lat="43.0028039" lon="11.1213269"><ele>269.0</ele><time>2026-05-02T16:05:27.639Z</time></trkpt><trkpt lat="43.0028757" lon="11.1212653"><ele>269.0</ele><time>2026-05-02T16:05:28.646Z</time></trkpt><trkpt lat="43.0029481" lon="11.1212085"><ele>269.0</ele><time>2026-05-02T16:05:29.631Z</time></trkpt><trkpt lat="43.0030212" lon="11.1211642"><ele>269.0</ele><time>2026-05-02T16:05:30.64Z</time></trkpt><trkpt lat="43.0031003" lon="11.121138"><ele>269.0</ele><time>2026-05-02T16:05:31.639Z</time></trkpt><trkpt lat="43.0031827" lon="11.1211208"><ele>269.0</ele><time>2026-05-02T16:05:32.651Z</time></trkpt><trkpt lat="43.0032656" lon="11.1210994"><ele>269.0</ele><time>2026-05-02T16:05:33.628Z</time></trkpt><trkpt lat="43.0033525" lon="11.1210755"><ele>271.1666666666667</ele><time>2026-05-02T16:05:34.64Z</time></trkpt><trkpt lat="43.0034414" lon="11.1210468"><ele>273.33333333333337</ele><time>2026-05-02T16:05:35.637Z</time></trkpt><trkpt lat="43.0035274" lon="11.1210168"><ele>275.5</ele><time>2026-05-02T16:05:36.649Z</time></trkpt><trkpt lat="43.0036107" lon="11.1209939"><ele>277.6666666666667</ele><time>2026-05-02T16:05:37.631Z</time></trkpt><trkpt lat="43.0036962" lon="11.1209769"><ele>279.8333333333333</ele><time>2026-05-02T16:05:38.641Z</time></trkpt><trkpt lat="43.0037819" lon="11.1209762"><ele>282.0</ele><time>2026-05-02T16:05:39.628Z</time></trkpt><trkpt lat="43.0038719" lon="11.1209743"><ele>282.0</ele><time>2026-05-02T16:05:40.632Z</time></trkpt><trkpt lat="43.0039593" lon="11.1209776"><ele>282.0</ele><time>2026-05-02T16:05:41.632Z</time></trkpt><trkpt lat="43.0040438" lon="11.1209869"><ele>282.0</ele><time>2026-05-02T16:05:42.623Z</time></trkpt><trkpt lat="43.0041273" lon="11.1209961"><ele>282.0</ele><time>2026-05-02T16:05:43.627Z</time></trkpt><trkpt lat="43.004215" lon="11.1209998"><ele>282.0</ele><time>2026-05-02T16:05:44.638Z</time></trkpt><trkpt lat="43.004303" lon="11.1209951"><ele>282.0</ele><time>2026-05-02T16:05:45.634Z</time></trkpt><trkpt lat="43.0043911" lon="11.1209822"><ele>283.5</ele><time>2026-05-02T16:05:46.626Z</time></trkpt><trkpt lat="43.0044649" lon="11.1209815"><ele>285.0</ele><time>2026-05-02T16:05:47.633Z</time></trkpt><trkpt lat="43.0045302" lon="11.1210022"><ele>286.5</ele><time>2026-05-02T16:05:48.631Z</time></trkpt><trkpt lat="43.0046043" lon="11.1211185"><ele>288.0</ele><time>2026-05-02T16:05:50.647Z</time></trkpt><trkpt lat="43.0046164" lon="11.1212109"><ele>289.5</ele><time>2026-05-02T16:05:51.642Z</time></trkpt><trkpt lat="43.0046516" lon="11.1213737"><ele>291.0</ele><time>2026-05-02T16:05:53.638Z</time></trkpt><trkpt lat="43.0046734" lon="11.1214628"><ele>291.0</ele><time>2026-05-02T16:05:54.641Z</time></trkpt><trkpt lat="43.0046954" lon="11.1215632"><ele>291.0</ele><time>2026-05-02T16:05:55.647Z</time></trkpt><trkpt lat="43.0047183" lon="11.1216625"><ele>291.0</ele><time>2026-05-02T16:05:56.637Z</time></trkpt><trkpt lat="43.0047397" lon="11.1217545"><ele>291.0</ele><time>2026-05-02T16:05:57.636Z</time></trkpt><trkpt lat="43.0047586" lon="11.1218507"><ele>291.0</ele><time>2026-05-02T16:05:58.644Z</time></trkpt><trkpt lat="43.0047765" lon="11.1219361"><ele>291.0</ele><time>2026-05-02T16:05:59.655Z</time></trkpt><trkpt lat="43.004839" lon="11.122014"><ele>291.0</ele><time>2026-05-02T16:06:01.632Z</time></trkpt><trkpt lat="43.0049403" lon="11.1219864"><ele>293.2</ele><time>2026-05-02T16:06:03.63Z</time></trkpt><trkpt lat="43.0050582" lon="11.1219249"><ele>295.40000000000003</ele><time>2026-05-02T16:06:05.642Z</time></trkpt><trkpt lat="43.0051357" lon="11.1218729"><ele>297.6</ele><time>2026-05-02T16:06:06.653Z</time></trkpt><trkpt lat="43.0052164" lon="11.1218214"><ele>299.8</ele><time>2026-05-02T16:06:07.646Z</time></trkpt><trkpt lat="43.0053017" lon="11.1217749"><ele>302.0</ele><time>2026-05-02T16:06:08.645Z</time></trkpt><trkpt lat="43.0053934" lon="11.1217399"><ele>302.0</ele><time>2026-05-02T16:06:09.643Z</time></trkpt><trkpt lat="43.0054891" lon="11.1216999"><ele>302.0</ele><time>2026-05-02T16:06:10.634Z</time></trkpt><trkpt lat="43.0055846" lon="11.1216524"><ele>302.0</ele><time>2026-05-02T16:06:11.632Z</time></trkpt><trkpt lat="43.0056762" lon="11.121614"><ele>302.0</ele><time>2026-05-02T16:06:12.634Z</time></trkpt><trkpt lat="43.0057659" lon="11.1215775"><ele>302.0</ele><time>2026-05-02T16:06:13.634Z</time></trkpt><trkpt lat="43.0058543" lon="11.1215417"><ele>303.4</ele><time>2026-05-02T16:06:14.645Z</time></trkpt><trkpt lat="43.0059418" lon="11.1215046"><ele>304.79999999999995</ele><time>2026-05-02T16:06:15.635Z</time></trkpt><trkpt lat="43.0060296" lon="11.1214836"><ele>306.2</ele><time>2026-05-02T16:06:16.631Z</time></trkpt><trkpt lat="43.006124" lon="11.1214771"><ele>307.59999999999997</ele><time>2026-05-02T16:06:17.637Z</time></trkpt><trkpt lat="43.0062165" lon="11.121471"><ele>309.0</ele><time>2026-05-02T16:06:18.645Z</time></trkpt><trkpt lat="43.0063059" lon="11.12145"><ele>309.0</ele><time>2026-05-02T16:06:19.636Z</time></trkpt><trkpt lat="43.0063808" lon="11.1214088"><ele>309.0</ele><time>2026-05-02T16:06:20.639Z</time></trkpt><trkpt lat="43.0064515" lon="11.1213575"><ele>309.0</ele><time>2026-05-02T16:06:21.636Z</time></trkpt><trkpt lat="43.006524" lon="11.1213046"><ele>309.0</ele><time>2026-05-02T16:06:22.632Z</time></trkpt><trkpt lat="43.0066027" lon="11.1212782"><ele>309.0</ele><time>2026-05-02T16:06:23.649Z</time></trkpt><trkpt lat="43.0066781" lon="11.1212746"><ele>309.0</ele><time>2026-05-02T16:06:24.638Z</time></trkpt><trkpt lat="43.0067561" lon="11.1212922"><ele>311.0</ele><time>2026-05-02T16:06:25.643Z</time></trkpt><trkpt lat="43.0068354" lon="11.121325"><ele>313.0</ele><time>2026-05-02T16:06:26.634Z</time></trkpt><trkpt lat="43.0069107" lon="11.1213509"><ele>315.0</ele><time>2026-05-02T16:06:27.638Z</time></trkpt><trkpt lat="43.0069929" lon="11.1213788"><ele>317.0</ele><time>2026-05-02T16:06:28.645Z</time></trkpt><trkpt lat="43.0070779" lon="11.1214023"><ele>319.0</ele><time>2026-05-02T16:06:29.628Z</time></trkpt><trkpt lat="43.007168" lon="11.1214032"><ele>321.0</ele><time>2026-05-02T16:06:30.642Z</time></trkpt><trkpt lat="43.0072594" lon="11.1214059"><ele>321.0</ele><time>2026-05-02T16:06:31.632Z</time></trkpt><trkpt lat="43.0073594" lon="11.1214087"><ele>321.0</ele><time>2026-05-02T16:06:32.637Z</time></trkpt><trkpt lat="43.0074567" lon="11.1214126"><ele>321.0</ele><time>2026-05-02T16:06:33.631Z</time></trkpt><trkpt lat="43.0075518" lon="11.1213841"><ele>321.0</ele><time>2026-05-02T16:06:34.641Z</time></trkpt><trkpt lat="43.0076273" lon="11.1213513"><ele>321.0</ele><time>2026-05-02T16:06:35.636Z</time></trkpt><trkpt lat="43.0076911" lon="11.1213012"><ele>321.0</ele><time>2026-05-02T16:06:36.638Z</time></trkpt><trkpt lat="43.0077444" lon="11.1212254"><ele>321.5</ele><time>2026-05-02T16:06:37.64Z</time></trkpt><trkpt lat="43.0077844" lon="11.1211327"><ele>322.0</ele><time>2026-05-02T16:06:38.633Z</time></trkpt><trkpt lat="43.0078157" lon="11.1210343"><ele>322.5</ele><time>2026-05-02T16:06:39.631Z</time></trkpt><trkpt lat="43.0078416" lon="11.1209303"><ele>323.0</ele><time>2026-05-02T16:06:40.638Z</time></trkpt><trkpt lat="43.0078677" lon="11.1208262"><ele>323.5</ele><time>2026-05-02T16:06:41.628Z</time></trkpt><trkpt lat="43.0078943" lon="11.1207147"><ele>324.0</ele><time>2026-05-02T16:06:42.635Z</time></trkpt><trkpt lat="43.0079254" lon="11.1205954"><ele>325.5</ele><time>2026-05-02T16:06:43.626Z</time></trkpt><trkpt lat="43.0079579" lon="11.1204824"><ele>327.0</ele><time>2026-05-02T16:06:44.635Z</time></trkpt><trkpt lat="43.0079836" lon="11.120378"><ele>328.5</ele><time>2026-05-02T16:06:45.624Z</time></trkpt><trkpt lat="43.0080163" lon="11.1202751"><ele>330.0</ele><time>2026-05-02T16:06:46.638Z</time></trkpt><trkpt lat="43.0080587" lon="11.1201807"><ele>331.5</ele><time>2026-05-02T16:06:47.632Z</time></trkpt><trkpt lat="43.0081138" lon="11.1200952"><ele>333.0</ele><time>2026-05-02T16:06:48.639Z</time></trkpt><trkpt lat="43.0081753" lon="11.1200086"><ele>333.0</ele><time>2026-05-02T16:06:49.636Z</time></trkpt><trkpt lat="43.0082434" lon="11.1199268"><ele>333.0</ele><time>2026-05-02T16:06:50.634Z</time></trkpt><trkpt lat="43.0083169" lon="11.1198469"><ele>333.0</ele><time>2026-05-02T16:06:51.638Z</time></trkpt><trkpt lat="43.0083891" lon="11.1197669"><ele>333.0</ele><time>2026-05-02T16:06:52.625Z</time></trkpt><trkpt lat="43.0084557" lon="11.1196936"><ele>333.0</ele><time>2026-05-02T16:06:53.63Z</time></trkpt><trkpt lat="43.0085155" lon="11.1196032"><ele>335.2</ele><time>2026-05-02T16:06:54.639Z</time></trkpt><trkpt lat="43.0085677" lon="11.1194899"><ele>337.4</ele><time>2026-05-02T16:06:55.636Z</time></trkpt><trkpt lat="43.0086102" lon="11.1193668"><ele>339.59999999999997</ele><time>2026-05-02T16:06:56.644Z</time></trkpt><trkpt lat="43.0086397" lon="11.119233"><ele>341.79999999999995</ele><time>2026-05-02T16:06:57.645Z</time></trkpt><trkpt lat="43.008642" lon="11.1191054"><ele>344.0</ele><time>2026-05-02T16:06:58.65Z</time></trkpt><trkpt lat="43.0086354" lon="11.1189895"><ele>344.83333333333337</ele><time>2026-05-02T16:06:59.626Z</time></trkpt><trkpt lat="43.0086197" lon="11.1188781"><ele>345.6666666666667</ele><time>2026-05-02T16:07:00.648Z</time></trkpt><trkpt lat="43.0086041" lon="11.1187714"><ele>346.5</ele><time>2026-05-02T16:07:01.639Z</time></trkpt><trkpt lat="43.008598" lon="11.118664"><ele>347.3333333333333</ele><time>2026-05-02T16:07:02.633Z</time></trkpt><trkpt lat="43.0086092" lon="11.1185647"><ele>348.16666666666663</ele><time>2026-05-02T16:07:03.643Z</time></trkpt><trkpt lat="43.008635" lon="11.1184665"><ele>349.0</ele><time>2026-05-02T16:07:04.626Z</time></trkpt><trkpt lat="43.0086751" lon="11.118364"><ele>349.0</ele><time>2026-05-02T16:07:05.63Z</time></trkpt><trkpt lat="43.0087112" lon="11.1182678"><ele>349.0</ele><time>2026-05-02T16:07:06.628Z</time></trkpt><trkpt lat="43.0087527" lon="11.118178"><ele>349.0</ele><time>2026-05-02T16:07:07.637Z</time></trkpt><trkpt lat="43.0088021" lon="11.118073"><ele>349.0</ele><time>2026-05-02T16:07:08.633Z</time></trkpt><trkpt lat="43.00886" lon="11.1179516"><ele>349.0</ele><time>2026-05-02T16:07:09.629Z</time></trkpt><trkpt lat="43.0089157" lon="11.1178341"><ele>349.4</ele><time>2026-05-02T16:07:10.633Z</time></trkpt><trkpt lat="43.0089588" lon="11.1177107"><ele>349.79999999999995</ele><time>2026-05-02T16:07:11.642Z</time></trkpt><trkpt lat="43.0090026" lon="11.1176114"><ele>350.20000000000005</ele><time>2026-05-02T16:07:12.63Z</time></trkpt><trkpt lat="43.0090473" lon="11.1174998"><ele>350.6</ele><time>2026-05-02T16:07:13.638Z</time></trkpt><trkpt lat="43.0090918" lon="11.1173752"><ele>351.0</ele><time>2026-05-02T16:07:14.638Z</time></trkpt><trkpt lat="43.0091307" lon="11.1172382"><ele>351.0</ele><time>2026-05-02T16:07:15.628Z</time></trkpt><trkpt lat="43.0091512" lon="11.1171015"><ele>351.0</ele><time>2026-05-02T16:07:16.643Z</time></trkpt><trkpt lat="43.009158" lon="11.116958"><ele>351.0</ele><time>2026-05-02T16:07:17.63Z</time></trkpt><trkpt lat="43.0091504" lon="11.1168137"><ele>351.0</ele><time>2026-05-02T16:07:18.643Z</time></trkpt><trkpt lat="43.0091416" lon="11.1166604"><ele>351.0</ele><time>2026-05-02T16:07:19.636Z</time></trkpt><trkpt lat="43.0091291" lon="11.1165098"><ele>351.0</ele><time>2026-05-02T16:07:20.647Z</time></trkpt><trkpt lat="43.0091187" lon="11.116361"><ele>351.0</ele><time>2026-05-02T16:07:21.629Z</time></trkpt><trkpt lat="43.0091081" lon="11.1162114"><ele>351.0</ele><time>2026-05-02T16:07:22.642Z</time></trkpt><trkpt lat="43.0091001" lon="11.116074"><ele>351.0</ele><time>2026-05-02T16:07:23.625Z</time></trkpt><trkpt lat="43.009094" lon="11.1159439"><ele>351.0</ele><time>2026-05-02T16:07:24.626Z</time></trkpt><trkpt lat="43.0090971" lon="11.1158269"><ele>351.3333333333333</ele><time>2026-05-02T16:07:25.639Z</time></trkpt><trkpt lat="43.0091085" lon="11.1157238"><ele>351.6666666666667</ele><time>2026-05-02T16:07:26.632Z</time></trkpt><trkpt lat="43.0091456" lon="11.1156298"><ele>352.0</ele><time>2026-05-02T16:07:27.624Z</time></trkpt><trkpt lat="43.0091985" lon="11.1155463"><ele>352.33333333333337</ele><time>2026-05-02T16:07:28.639Z</time></trkpt><trkpt lat="43.0092629" lon="11.1154695"><ele>352.6666666666667</ele><time>2026-05-02T16:07:29.633Z</time></trkpt><trkpt lat="43.0093327" lon="11.1153935"><ele>353.0</ele><time>2026-05-02T16:07:30.636Z</time></trkpt><trkpt lat="43.0094025" lon="11.1153162"><ele>354.33333333333337</ele><time>2026-05-02T16:07:31.64Z</time></trkpt><trkpt lat="43.0094783" lon="11.1152449"><ele>355.6666666666667</ele><time>2026-05-02T16:07:32.637Z</time></trkpt><trkpt lat="43.0095518" lon="11.115184"><ele>357.0</ele><time>2026-05-02T16:07:33.633Z</time></trkpt><trkpt lat="43.0096118" lon="11.1151296"><ele>358.3333333333333</ele><time>2026-05-02T16:07:34.632Z</time></trkpt><trkpt lat="43.009659" lon="11.1150614"><ele>359.66666666666663</ele><time>2026-05-02T16:07:35.641Z</time></trkpt><trkpt lat="43.0096837" lon="11.1149713"><ele>361.0</ele><time>2026-05-02T16:07:36.638Z</time></trkpt><trkpt lat="43.0096842" lon="11.1148691"><ele>362.0</ele><time>2026-05-02T16:07:37.632Z</time></trkpt><trkpt lat="43.009649" lon="11.1147656"><ele>363.0</ele><time>2026-05-02T16:07:38.635Z</time></trkpt><trkpt lat="43.0095887" lon="11.1146875"><ele>364.0</ele><time>2026-05-02T16:07:39.643Z</time></trkpt><trkpt lat="43.0095225" lon="11.1146188"><ele>365.0</ele><time>2026-05-02T16:07:40.633Z</time></trkpt><trkpt lat="43.0094597" lon="11.1145402"><ele>366.0</ele><time>2026-05-02T16:07:41.636Z</time></trkpt><trkpt lat="43.0094005" lon="11.1144479"><ele>367.0</ele><time>2026-05-02T16:07:42.63Z</time></trkpt><trkpt lat="43.0093358" lon="11.1143502"><ele>367.0</ele><time>2026-05-02T16:07:43.641Z</time></trkpt><trkpt lat="43.0092695" lon="11.1142675"><ele>367.0</ele><time>2026-05-02T16:07:44.64Z</time></trkpt><trkpt lat="43.0092038" lon="11.1141727"><ele>367.0</ele><time>2026-05-02T16:07:45.641Z</time></trkpt><trkpt lat="43.0091372" lon="11.1140662"><ele>367.0</ele><time>2026-05-02T16:07:46.64Z</time></trkpt><trkpt lat="43.0090722" lon="11.113957"><ele>367.0</ele><time>2026-05-02T16:07:47.636Z</time></trkpt><trkpt lat="43.0090002" lon="11.113839"><ele>367.25</ele><time>2026-05-02T16:07:48.629Z</time></trkpt><trkpt lat="43.0089236" lon="11.113722"><ele>367.5</ele><time>2026-05-02T16:07:49.635Z</time></trkpt><trkpt lat="43.0088485" lon="11.1136051"><ele>367.75</ele><time>2026-05-02T16:07:50.642Z</time></trkpt><trkpt lat="43.0087779" lon="11.1134847"><ele>368.0</ele><time>2026-05-02T16:07:51.624Z</time></trkpt><trkpt lat="43.0087212" lon="11.1133558"><ele>369.0</ele><time>2026-05-02T16:07:52.635Z</time></trkpt><trkpt lat="43.0086793" lon="11.1132323"><ele>370.0</ele><time>2026-05-02T16:07:53.633Z</time></trkpt><trkpt lat="43.0086575" lon="11.113115"><ele>371.0</ele><time>2026-05-02T16:07:54.64Z</time></trkpt><trkpt lat="43.0086583" lon="11.1130136"><ele>372.0</ele><time>2026-05-02T16:07:55.637Z</time></trkpt><trkpt lat="43.0087214" lon="11.1128791"><ele>373.0</ele><time>2026-05-02T16:07:57.627Z</time></trkpt><trkpt lat="43.0088183" lon="11.1127809"><ele>373.0</ele><time>2026-05-02T16:07:59.633Z</time></trkpt><trkpt lat="43.0088823" lon="11.1127344"><ele>373.0</ele><time>2026-05-02T16:08:00.645Z</time></trkpt><trkpt lat="43.0089542" lon="11.1126972"><ele>373.0</ele><time>2026-05-02T16:08:01.636Z</time></trkpt><trkpt lat="43.0090281" lon="11.1126535"><ele>373.0</ele><time>2026-05-02T16:08:02.636Z</time></trkpt><trkpt lat="43.0091046" lon="11.112604"><ele>373.0</ele><time>2026-05-02T16:08:03.637Z</time></trkpt><trkpt lat="43.0091805" lon="11.1125567"><ele>373.0</ele><time>2026-05-02T16:08:04.638Z</time></trkpt><trkpt lat="43.0092623" lon="11.1125228"><ele>374.3333333333333</ele><time>2026-05-02T16:08:05.635Z</time></trkpt><trkpt lat="43.0093437" lon="11.1124945"><ele>375.66666666666663</ele><time>2026-05-02T16:08:06.645Z</time></trkpt><trkpt lat="43.0094213" lon="11.112452"><ele>377.0</ele><time>2026-05-02T16:08:07.641Z</time></trkpt><trkpt lat="43.0094923" lon="11.1123805"><ele>378.3333333333333</ele><time>2026-05-02T16:08:08.655Z</time></trkpt><trkpt lat="43.0095651" lon="11.1122961"><ele>379.6666666666667</ele><time>2026-05-02T16:08:09.639Z</time></trkpt><trkpt lat="43.0096373" lon="11.1122077"><ele>381.0</ele><time>2026-05-02T16:08:10.642Z</time></trkpt><trkpt lat="43.0097178" lon="11.1121227"><ele>381.8</ele><time>2026-05-02T16:08:11.633Z</time></trkpt><trkpt lat="43.0098096" lon="11.1120456"><ele>382.6</ele><time>2026-05-02T16:08:12.643Z</time></trkpt><trkpt lat="43.0099048" lon="11.1120087"><ele>383.4</ele><time>2026-05-02T16:08:13.642Z</time></trkpt><trkpt lat="43.01" lon="11.1120106"><ele>384.2</ele><time>2026-05-02T16:08:14.64Z</time></trkpt><trkpt lat="43.0100906" lon="11.1120221"><ele>385.0</ele><time>2026-05-02T16:08:15.631Z</time></trkpt><trkpt lat="43.0101745" lon="11.1120216"><ele>387.0</ele><time>2026-05-02T16:08:16.629Z</time></trkpt><trkpt lat="43.0102568" lon="11.1120045"><ele>389.0</ele><time>2026-05-02T16:08:17.636Z</time></trkpt><trkpt lat="43.010346" lon="11.1119754"><ele>391.0</ele><time>2026-05-02T16:08:18.639Z</time></trkpt><trkpt lat="43.0104398" lon="11.1119471"><ele>393.0</ele><time>2026-05-02T16:08:19.62Z</time></trkpt><trkpt lat="43.0105347" lon="11.111918"><ele>395.0</ele><time>2026-05-02T16:08:20.629Z</time></trkpt><trkpt lat="43.0106377" lon="11.111891"><ele>395.0</ele><time>2026-05-02T16:08:21.645Z</time></trkpt><trkpt lat="43.0107445" lon="11.1118535"><ele>395.0</ele><time>2026-05-02T16:08:22.641Z</time></trkpt><trkpt lat="43.0108436" lon="11.1118049"><ele>395.0</ele><time>2026-05-02T16:08:23.622Z</time></trkpt><trkpt lat="43.010933" lon="11.1117364"><ele>395.0</ele><time>2026-05-02T16:08:24.636Z</time></trkpt><trkpt lat="43.0110082" lon="11.1116465"><ele>395.0</ele><time>2026-05-02T16:08:25.638Z</time></trkpt><trkpt lat="43.0110825" lon="11.1115476"><ele>395.6</ele><time>2026-05-02T16:08:26.624Z</time></trkpt><trkpt lat="43.0111649" lon="11.1114688"><ele>396.2</ele><time>2026-05-02T16:08:27.631Z</time></trkpt><trkpt lat="43.0112469" lon="11.111414"><ele>396.79999999999995</ele><time>2026-05-02T16:08:28.638Z</time></trkpt><trkpt lat="43.0113483" lon="11.1113762"><ele>397.4</ele><time>2026-05-02T16:08:29.633Z</time></trkpt><trkpt lat="43.0114672" lon="11.1113388"><ele>398.0</ele><time>2026-05-02T16:08:30.639Z</time></trkpt><trkpt lat="43.0115894" lon="11.1113144"><ele>399.25</ele><time>2026-05-02T16:08:31.639Z</time></trkpt><trkpt lat="43.0117167" lon="11.1112874"><ele>400.5</ele><time>2026-05-02T16:08:32.64Z</time></trkpt><trkpt lat="43.0118435" lon="11.1112577"><ele>401.75</ele><time>2026-05-02T16:08:33.646Z</time></trkpt><trkpt lat="43.0119701" lon="11.1112207"><ele>403.0</ele><time>2026-05-02T16:08:34.636Z</time></trkpt><trkpt lat="43.0120884" lon="11.1111722"><ele>403.0</ele><time>2026-05-02T16:08:35.638Z</time></trkpt><trkpt lat="43.0121968" lon="11.1111167"><ele>403.0</ele><time>2026-05-02T16:08:36.643Z</time></trkpt><trkpt lat="43.0123004" lon="11.1110605"><ele>403.0</ele><time>2026-05-02T16:08:37.631Z</time></trkpt><trkpt lat="43.0124064" lon="11.1110125"><ele>403.0</ele><time>2026-05-02T16:08:38.648Z</time></trkpt><trkpt lat="43.0125175" lon="11.1109836"><ele>404.75</ele><time>2026-05-02T16:08:39.639Z</time></trkpt><trkpt lat="43.0126344" lon="11.1109807"><ele>406.5</ele><time>2026-05-02T16:08:40.645Z</time></trkpt><trkpt lat="43.0127531" lon="11.1109964"><ele>408.25</ele><time>2026-05-02T16:08:41.641Z</time></trkpt><trkpt lat="43.0128669" lon="11.1109872"><ele>410.0</ele><time>2026-05-02T16:08:42.631Z</time></trkpt><trkpt lat="43.0129646" lon="11.1109509"><ele>410.0</ele><time>2026-05-02T16:08:43.629Z</time></trkpt><trkpt lat="43.0130235" lon="11.1108702"><ele>410.0</ele><time>2026-05-02T16:08:44.638Z</time></trkpt><trkpt lat="43.0130591" lon="11.1107668"><ele>410.0</ele><time>2026-05-02T16:08:45.638Z</time></trkpt><trkpt lat="43.0130917" lon="11.1106526"><ele>410.0</ele><time>2026-05-02T16:08:46.628Z</time></trkpt><trkpt lat="43.0131323" lon="11.1105336"><ele>410.0</ele><time>2026-05-02T16:08:47.635Z</time></trkpt><trkpt lat="43.013182" lon="11.1104049"><ele>410.8</ele><time>2026-05-02T16:08:48.637Z</time></trkpt><trkpt lat="43.0132298" lon="11.1102736"><ele>411.6</ele><time>2026-05-02T16:08:49.635Z</time></trkpt><trkpt lat="43.0132779" lon="11.1101405"><ele>412.4</ele><time>2026-05-02T16:08:50.641Z</time></trkpt><trkpt lat="43.0133162" lon="11.1100114"><ele>413.2</ele><time>2026-05-02T16:08:51.625Z</time></trkpt><trkpt lat="43.0133444" lon="11.1098917"><ele>414.0</ele><time>2026-05-02T16:08:52.649Z</time></trkpt><trkpt lat="43.0133763" lon="11.1097796"><ele>417.0</ele><time>2026-05-02T16:08:53.628Z</time></trkpt><trkpt lat="43.0134126" lon="11.1096759"><ele>420.0</ele><time>2026-05-02T16:08:54.63Z</time></trkpt><trkpt lat="43.0134679" lon="11.1095901"><ele>423.0</ele><time>2026-05-02T16:08:55.639Z</time></trkpt><trkpt lat="43.0135386" lon="11.1095216"><ele>426.0</ele><time>2026-05-02T16:08:56.638Z</time></trkpt><trkpt lat="43.0136201" lon="11.1094719"><ele>429.0</ele><time>2026-05-02T16:08:57.634Z</time></trkpt><trkpt lat="43.0137065" lon="11.1094316"><ele>432.0</ele><time>2026-05-02T16:08:58.629Z</time></trkpt><trkpt lat="43.0137873" lon="11.1093883"><ele>432.0</ele><time>2026-05-02T16:08:59.637Z</time></trkpt><trkpt lat="43.0138698" lon="11.1093311"><ele>432.00000000000006</ele><time>2026-05-02T16:09:00.635Z</time></trkpt><trkpt lat="43.0139574" lon="11.1092678"><ele>432.00000000000006</ele><time>2026-05-02T16:09:01.636Z</time></trkpt><trkpt lat="43.014045" lon="11.1092055"><ele>432.0</ele><time>2026-05-02T16:09:02.634Z</time></trkpt><trkpt lat="43.0141244" lon="11.1091315"><ele>432.0</ele><time>2026-05-02T16:09:03.642Z</time></trkpt><trkpt lat="43.0142073" lon="11.1090596"><ele>433.8</ele><time>2026-05-02T16:09:04.641Z</time></trkpt><trkpt lat="43.0142999" lon="11.1089932"><ele>435.6</ele><time>2026-05-02T16:09:05.639Z</time></trkpt><trkpt lat="43.0143958" lon="11.1089298"><ele>437.40000000000003</ele><time>2026-05-02T16:09:06.638Z</time></trkpt><trkpt lat="43.0144906" lon="11.1088686"><ele>439.20000000000005</ele><time>2026-05-02T16:09:07.633Z</time></trkpt><trkpt lat="43.0145855" lon="11.1088073"><ele>441.0</ele><time>2026-05-02T16:09:08.65Z</time></trkpt><trkpt lat="43.0146814" lon="11.1087528"><ele>441.0</ele><time>2026-05-02T16:09:09.645Z</time></trkpt><trkpt lat="43.0147775" lon="11.1086961"><ele>441.0</ele><time>2026-05-02T16:09:10.649Z</time></trkpt><trkpt lat="43.0148744" lon="11.1086416"><ele>441.0</ele><time>2026-05-02T16:09:11.637Z</time></trkpt><trkpt lat="43.0149698" lon="11.1085844"><ele>441.0</ele><time>2026-05-02T16:09:12.641Z</time></trkpt><trkpt lat="43.0150623" lon="11.1085251"><ele>441.0</ele><time>2026-05-02T16:09:13.633Z</time></trkpt><trkpt lat="43.0151605" lon="11.1084708"><ele>443.4</ele><time>2026-05-02T16:09:14.636Z</time></trkpt><trkpt lat="43.0152619" lon="11.1084265"><ele>445.8</ele><time>2026-05-02T16:09:15.638Z</time></trkpt><trkpt lat="43.0153652" lon="11.1083976"><ele>448.19999999999993</ele><time>2026-05-02T16:09:16.643Z</time></trkpt><trkpt lat="43.0154698" lon="11.1084033"><ele>450.59999999999997</ele><time>2026-05-02T16:09:17.639Z</time></trkpt><trkpt lat="43.0155771" lon="11.1084329"><ele>453.0</ele><time>2026-05-02T16:09:18.638Z</time></trkpt><trkpt lat="43.0156819" lon="11.1084745"><ele>453.0</ele><time>2026-05-02T16:09:19.631Z</time></trkpt><trkpt lat="43.0157877" lon="11.1085054"><ele>452.99999999999994</ele><time>2026-05-02T16:09:20.641Z</time></trkpt><trkpt lat="43.0158953" lon="11.1085135"><ele>452.99999999999994</ele><time>2026-05-02T16:09:21.63Z</time></trkpt><trkpt lat="43.0159964" lon="11.1084911"><ele>453.0</ele><time>2026-05-02T16:09:22.629Z</time></trkpt><trkpt lat="43.0160922" lon="11.1084498"><ele>453.0</ele><time>2026-05-02T16:09:23.633Z</time></trkpt><trkpt lat="43.0161832" lon="11.1083958"><ele>454.59999999999997</ele><time>2026-05-02T16:09:24.64Z</time></trkpt><trkpt lat="43.0162758" lon="11.1083386"><ele>456.19999999999993</ele><time>2026-05-02T16:09:25.634Z</time></trkpt><trkpt lat="43.0163724" lon="11.1083063"><ele>457.8</ele><time>2026-05-02T16:09:26.649Z</time></trkpt><trkpt lat="43.0164772" lon="11.1082946"><ele>459.4</ele><time>2026-05-02T16:09:27.637Z</time></trkpt><trkpt lat="43.0165899" lon="11.1083117"><ele>461.0</ele><time>2026-05-02T16:09:28.637Z</time></trkpt><trkpt lat="43.0167031" lon="11.1083461"><ele>462.75</ele><time>2026-05-02T16:09:29.639Z</time></trkpt><trkpt lat="43.0168131" lon="11.108379"><ele>464.5</ele><time>2026-05-02T16:09:30.634Z</time></trkpt><trkpt lat="43.0169281" lon="11.1084018"><ele>466.25</ele><time>2026-05-02T16:09:31.647Z</time></trkpt><trkpt lat="43.0170414" lon="11.1084156"><ele>468.0</ele><time>2026-05-02T16:09:32.633Z</time></trkpt><trkpt lat="43.0171594" lon="11.1084289"><ele>468.0</ele><time>2026-05-02T16:09:33.635Z</time></trkpt><trkpt lat="43.0172775" lon="11.1084339"><ele>468.0</ele><time>2026-05-02T16:09:34.631Z</time></trkpt><trkpt lat="43.0173955" lon="11.1084299"><ele>468.0</ele><time>2026-05-02T16:09:35.642Z</time></trkpt><trkpt lat="43.0175163" lon="11.1084206"><ele>468.0</ele><time>2026-05-02T16:09:36.643Z</time></trkpt><trkpt lat="43.017636" lon="11.1084008"><ele>470.0</ele><time>2026-05-02T16:09:37.633Z</time></trkpt><trkpt lat="43.017753" lon="11.1083946"><ele>472.0</ele><time>2026-05-02T16:09:38.635Z</time></trkpt><trkpt lat="43.0178642" lon="11.1084051"><ele>474.0</ele><time>2026-05-02T16:09:39.636Z</time></trkpt><trkpt lat="43.0179776" lon="11.1084141"><ele>476.0</ele><time>2026-05-02T16:09:40.657Z</time></trkpt><trkpt lat="43.0180851" lon="11.1084184"><ele>476.0</ele><time>2026-05-02T16:09:41.632Z</time></trkpt><trkpt lat="43.0181865" lon="11.1084051"><ele>476.0</ele><time>2026-05-02T16:09:42.636Z</time></trkpt><trkpt lat="43.0182849" lon="11.1083637"><ele>476.0</ele><time>2026-05-02T16:09:43.634Z</time></trkpt><trkpt lat="43.0183835" lon="11.1082932"><ele>476.0</ele><time>2026-05-02T16:09:44.631Z</time></trkpt><trkpt lat="43.0184881" lon="11.1082055"><ele>476.0</ele><time>2026-05-02T16:09:45.623Z</time></trkpt><trkpt lat="43.0185947" lon="11.1081163"><ele>476.75</ele><time>2026-05-02T16:09:46.651Z</time></trkpt><trkpt lat="43.0187033" lon="11.1080208"><ele>477.5</ele><time>2026-05-02T16:09:47.631Z</time></trkpt><trkpt lat="43.0188113" lon="11.1079229"><ele>478.25</ele><time>2026-05-02T16:09:48.632Z</time></trkpt><trkpt lat="43.0189101" lon="11.1078277"><ele>479.0</ele><time>2026-05-02T16:09:49.646Z</time></trkpt><trkpt lat="43.0190104" lon="11.1077358"><ele>479.0</ele><time>2026-05-02T16:09:50.633Z</time></trkpt><trkpt lat="43.0191084" lon="11.1076302"><ele>479.0</ele><time>2026-05-02T16:09:51.657Z</time></trkpt><trkpt lat="43.0191917" lon="11.1075385"><ele>479.0</ele><time>2026-05-02T16:09:52.633Z</time></trkpt><trkpt lat="43.0192548" lon="11.1074641"><ele>479.0</ele><time>2026-05-02T16:09:53.629Z</time></trkpt><trkpt lat="43.019305" lon="11.1074024"><ele>479.0</ele><time>2026-05-02T16:09:54.638Z</time></trkpt><trkpt lat="43.0193649" lon="11.1073394"><ele>481.16666666666663</ele><time>2026-05-02T16:09:56.633Z</time></trkpt><trkpt lat="43.0194377" lon="11.1072535"><ele>483.3333333333333</ele><time>2026-05-02T16:09:59.633Z</time></trkpt><trkpt lat="43.0195031" lon="11.10719"><ele>485.5</ele><time>2026-05-02T16:10:03.635Z</time></trkpt><trkpt lat="43.0195702" lon="11.1071455"><ele>487.66666666666663</ele><time>2026-05-02T16:10:06.636Z</time></trkpt><trkpt lat="43.0196432" lon="11.1070932"><ele>489.8333333333333</ele><time>2026-05-02T16:10:10.626Z</time></trkpt><trkpt lat="43.0197172" lon="11.1070352"><ele>492.0</ele><time>2026-05-02T16:10:13.629Z</time></trkpt><trkpt lat="43.0198129" lon="11.106962"><ele>492.0</ele><time>2026-05-02T16:10:15.633Z</time></trkpt><trkpt lat="43.0199344" lon="11.1068781"><ele>492.00000000000006</ele><time>2026-05-02T16:10:17.632Z</time></trkpt><trkpt lat="43.0200099" lon="11.1068259"><ele>492.00000000000006</ele><time>2026-05-02T16:10:18.638Z</time></trkpt><trkpt lat="43.0200878" lon="11.1067754"><ele>492.0</ele><time>2026-05-02T16:10:19.652Z</time></trkpt><trkpt lat="43.020167" lon="11.1067342"><ele>492.0</ele><time>2026-05-02T16:10:20.633Z</time></trkpt><trkpt lat="43.0202472" lon="11.1066976"><ele>494.6666666666667</ele><time>2026-05-02T16:10:21.63Z</time></trkpt><trkpt lat="43.0203279" lon="11.1066805"><ele>497.33333333333337</ele><time>2026-05-02T16:10:22.618Z</time></trkpt><trkpt lat="43.0204123" lon="11.1066765"><ele>500.0</ele><time>2026-05-02T16:10:23.634Z</time></trkpt><trkpt lat="43.0204881" lon="11.1066877"><ele>502.6666666666667</ele><time>2026-05-02T16:10:24.644Z</time></trkpt><trkpt lat="43.0205634" lon="11.1067032"><ele>505.33333333333337</ele><time>2026-05-02T16:10:25.637Z</time></trkpt><trkpt lat="43.0206442" lon="11.1067102"><ele>508.0</ele><time>2026-05-02T16:10:26.639Z</time></trkpt><trkpt lat="43.0207287" lon="11.106714"><ele>508.00000000000006</ele><time>2026-05-02T16:10:27.618Z</time></trkpt><trkpt lat="43.0208139" lon="11.1067231"><ele>508.0</ele><time>2026-05-02T16:10:28.64Z</time></trkpt><trkpt lat="43.0208988" lon="11.1067211"><ele>508.0</ele><time>2026-05-02T16:10:29.642Z</time></trkpt><trkpt lat="43.0209825" lon="11.1067151"><ele>508.0</ele><time>2026-05-02T16:10:30.634Z</time></trkpt><trkpt lat="43.0210634" lon="11.1067039"><ele>508.00000000000006</ele><time>2026-05-02T16:10:31.642Z</time></trkpt><trkpt lat="43.021144" lon="11.1066741"><ele>508.0</ele><time>2026-05-02T16:10:32.649Z</time></trkpt><trkpt lat="43.0212193" lon="11.1066133"><ele>510.59999999999997</ele><time>2026-05-02T16:10:33.636Z</time></trkpt><trkpt lat="43.0212868" lon="11.1065238"><ele>513.1999999999999</ele><time>2026-05-02T16:10:34.636Z</time></trkpt><trkpt lat="43.0213516" lon="11.1064246"><ele>515.8</ele><time>2026-05-02T16:10:35.629Z</time></trkpt><trkpt lat="43.0214157" lon="11.1063251"><ele>518.4</ele><time>2026-05-02T16:10:36.642Z</time></trkpt><trkpt lat="43.0214846" lon="11.106224"><ele>521.0</ele><time>2026-05-02T16:10:37.632Z</time></trkpt><trkpt lat="43.0215562" lon="11.1061278"><ele>521.0</ele><time>2026-05-02T16:10:38.638Z</time></trkpt><trkpt lat="43.0216229" lon="11.1060322"><ele>521.0</ele><time>2026-05-02T16:10:39.632Z</time></trkpt><trkpt lat="43.021696" lon="11.1059395"><ele>521.0</ele><time>2026-05-02T16:10:40.636Z</time></trkpt><trkpt lat="43.0217734" lon="11.1058468"><ele>521.0</ele><time>2026-05-02T16:10:41.626Z</time></trkpt><trkpt lat="43.0218588" lon="11.1057526"><ele>521.0</ele><time>2026-05-02T16:10:42.63Z</time></trkpt><trkpt lat="43.0219454" lon="11.1056511"><ele>522.0</ele><time>2026-05-02T16:10:43.627Z</time></trkpt><trkpt lat="43.0220357" lon="11.1055455"><ele>523.0</ele><time>2026-05-02T16:10:44.635Z</time></trkpt><trkpt lat="43.0221317" lon="11.1054447"><ele>524.0</ele><time>2026-05-02T16:10:45.641Z</time></trkpt><trkpt lat="43.0222329" lon="11.1053523"><ele>525.0</ele><time>2026-05-02T16:10:46.635Z</time></trkpt><trkpt lat="43.0223381" lon="11.1052942"><ele>525.0</ele><time>2026-05-02T16:10:47.626Z</time></trkpt><trkpt lat="43.0224508" lon="11.1052791"><ele>525.0</ele><time>2026-05-02T16:10:48.628Z</time></trkpt><trkpt lat="43.0225538" lon="11.10529"><ele>525.0</ele><time>2026-05-02T16:10:49.623Z</time></trkpt><trkpt lat="43.0226282" lon="11.1052815"><ele>525.0</ele><time>2026-05-02T16:10:50.624Z</time></trkpt><trkpt lat="43.022688" lon="11.1051744"><ele>525.0</ele><time>2026-05-02T16:10:52.625Z</time></trkpt><trkpt lat="43.0226792" lon="11.1050732"><ele>526.8333333333334</ele><time>2026-05-02T16:10:53.628Z</time></trkpt><trkpt lat="43.02266" lon="11.104988"><ele>528.6666666666666</ele><time>2026-05-02T16:10:54.625Z</time></trkpt><trkpt lat="43.0226873" lon="11.1049002"><ele>530.5</ele><time>2026-05-02T16:10:56.628Z</time></trkpt><trkpt lat="43.0227992" lon="11.1049004"><ele>532.3333333333333</ele><time>2026-05-02T16:10:58.638Z</time></trkpt><trkpt lat="43.0228836" lon="11.1049202"><ele>534.1666666666666</ele><time>2026-05-02T16:10:59.63Z</time></trkpt><trkpt lat="43.022978" lon="11.1049422"><ele>536.0</ele><time>2026-05-02T16:11:00.637Z</time></trkpt><trkpt lat="43.0230765" lon="11.1049595"><ele>536.0</ele><time>2026-05-02T16:11:01.619Z</time></trkpt><trkpt lat="43.0231793" lon="11.1049588"><ele>536.0</ele><time>2026-05-02T16:11:02.624Z</time></trkpt><trkpt lat="43.0232705" lon="11.1049616"><ele>536.0</ele><time>2026-05-02T16:11:03.629Z</time></trkpt><trkpt lat="43.0233409" lon="11.1049663"><ele>536.0</ele><time>2026-05-02T16:11:04.626Z</time></trkpt><trkpt lat="43.0234236" lon="11.1050621"><ele>536.0</ele><time>2026-05-02T16:11:06.629Z</time></trkpt><trkpt lat="43.0234613" lon="11.1051576"><ele>537.5</ele><time>2026-05-02T16:11:07.628Z</time></trkpt><trkpt lat="43.0235009" lon="11.1052894"><ele>539.0</ele><time>2026-05-02T16:11:08.629Z</time></trkpt><trkpt lat="43.0235366" lon="11.1054067"><ele>540.5</ele><time>2026-05-02T16:11:09.633Z</time></trkpt><trkpt lat="43.0235709" lon="11.1055126"><ele>542.0</ele><time>2026-05-02T16:11:10.634Z</time></trkpt><trkpt lat="43.0236002" lon="11.1056061"><ele>543.5</ele><time>2026-05-02T16:11:11.711Z</time></trkpt><trkpt lat="43.0236328" lon="11.1057078"><ele>545.0</ele><time>2026-05-02T16:11:12.641Z</time></trkpt><trkpt lat="43.0236686" lon="11.1058175"><ele>545.0</ele><time>2026-05-02T16:11:13.639Z</time></trkpt><trkpt lat="43.0237082" lon="11.1059375"><ele>545.0</ele><time>2026-05-02T16:11:14.638Z</time></trkpt><trkpt lat="43.0237531" lon="11.1060665"><ele>545.0</ele><time>2026-05-02T16:11:15.632Z</time></trkpt><trkpt lat="43.0238049" lon="11.1062038"><ele>545.0</ele><time>2026-05-02T16:11:16.625Z</time></trkpt><trkpt lat="43.0238622" lon="11.1063406"><ele>545.0</ele><time>2026-05-02T16:11:17.623Z</time></trkpt><trkpt lat="43.0239146" lon="11.1064669"><ele>545.0</ele><time>2026-05-02T16:11:18.631Z</time></trkpt><trkpt lat="43.0239576" lon="11.1065615"><ele>545.0</ele><time>2026-05-02T16:11:19.627Z</time></trkpt><trkpt lat="43.0240054" lon="11.1066727"><ele>545.0</ele><time>2026-05-02T16:11:21.637Z</time></trkpt><trkpt lat="43.0240463" lon="11.1067721"><ele>545.0</ele><time>2026-05-02T16:11:24.63Z</time></trkpt><trkpt lat="43.0241277" lon="11.1067458"><ele>545.0</ele><time>2026-05-02T16:11:28.635Z</time></trkpt><trkpt lat="43.0242231" lon="11.1066616"><ele>546.0</ele><time>2026-05-02T16:11:30.636Z</time></trkpt><trkpt lat="43.024276" lon="11.1066054"><ele>547.0</ele><time>2026-05-02T16:11:31.626Z</time></trkpt><trkpt lat="43.0243287" lon="11.1065523"><ele>548.0</ele><time>2026-05-02T16:11:32.636Z</time></trkpt><trkpt lat="43.0244183" lon="11.1064773"><ele>549.0</ele><time>2026-05-02T16:11:34.631Z</time></trkpt><trkpt lat="43.0244736" lon="11.106425"><ele>550.0</ele><time>2026-05-02T16:11:36.626Z</time></trkpt><trkpt lat="43.0245412" lon="11.1063592"><ele>551.0</ele><time>2026-05-02T16:11:38.637Z</time></trkpt><trkpt lat="43.0245938" lon="11.1062878"><ele>552.2</ele><time>2026-05-02T16:11:40.621Z</time></trkpt><trkpt lat="43.0246561" lon="11.1061852"><ele>553.4000000000001</ele><time>2026-05-02T16:11:42.643Z</time></trkpt><trkpt lat="43.0247324" lon="11.1060639"><ele>554.6</ele><time>2026-05-02T16:11:44.629Z</time></trkpt><trkpt lat="43.0247675" lon="11.1059728"><ele>555.8000000000001</ele><time>2026-05-02T16:11:46.626Z</time></trkpt><trkpt lat="43.0247944" lon="11.1058674"><ele>557.0</ele><time>2026-05-02T16:11:48.625Z</time></trkpt><trkpt lat="43.0248056" lon="11.1057286"><ele>558.0</ele><time>2026-05-02T16:11:50.63Z</time></trkpt><trkpt lat="43.0247891" lon="11.1055683"><ele>559.0</ele><time>2026-05-02T16:11:52.635Z</time></trkpt><trkpt lat="43.0247963" lon="11.1054196"><ele>560.0</ele><time>2026-05-02T16:11:54.627Z</time></trkpt><trkpt lat="43.0248149" lon="11.1053005"><ele>561.0</ele><time>2026-05-02T16:11:56.619Z</time></trkpt><trkpt lat="43.0248006" lon="11.1052094"><ele>562.0</ele><time>2026-05-02T16:11:59.633Z</time></trkpt><trkpt lat="43.0247367" lon="11.1051459"><ele>562.0</ele><time>2026-05-02T16:12:02.63Z</time></trkpt><trkpt lat="43.0246631" lon="11.1050733"><ele>562.0</ele><time>2026-05-02T16:12:05.623Z</time></trkpt><trkpt lat="43.0246129" lon="11.1050211"><ele>562.0</ele><time>2026-05-02T16:12:07.63Z</time></trkpt><trkpt lat="43.0245766" lon="11.1049429"><ele>562.0</ele><time>2026-05-02T16:12:09.622Z</time></trkpt><trkpt lat="43.0245763" lon="11.1048471"><ele>562.0</ele><time>2026-05-02T16:12:12.629Z</time></trkpt><trkpt lat="43.0246248" lon="11.1047684"><ele>562.0</ele><time>2026-05-02T16:12:15.619Z</time></trkpt><trkpt lat="43.0246994" lon="11.1047013"><ele>563.0</ele><time>2026-05-02T16:12:17.633Z</time></trkpt><trkpt lat="43.0247888" lon="11.1046342"><ele>564.0</ele><time>2026-05-02T16:12:19.631Z</time></trkpt><trkpt lat="43.0248348" lon="11.1045423"><ele>565.0</ele><time>2026-05-02T16:12:21.621Z</time></trkpt><trkpt lat="43.0248169" lon="11.1044467"><ele>566.0</ele><time>2026-05-02T16:12:23.621Z</time></trkpt><trkpt lat="43.0248069" lon="11.1043321"><ele>567.0</ele><time>2026-05-02T16:12:24.624Z</time></trkpt><trkpt lat="43.0248014" lon="11.1042421"><ele>568.0</ele><time>2026-05-02T16:12:25.625Z</time></trkpt><trkpt lat="43.024797" lon="11.1040896"><ele>567.3333333333334</ele><time>2026-05-02T16:12:27.633Z</time></trkpt><trkpt lat="43.0248073" lon="11.1039645"><ele>566.6666666666667</ele><time>2026-05-02T16:12:29.629Z</time></trkpt><trkpt lat="43.0248121" lon="11.1038324"><ele>566.0</ele><time>2026-05-02T16:12:31.626Z</time></trkpt><trkpt lat="43.0248054" lon="11.1037257"><ele>565.3333333333334</ele><time>2026-05-02T16:12:33.629Z</time></trkpt><trkpt lat="43.0248181" lon="11.1036315"><ele>564.6666666666666</ele><time>2026-05-02T16:12:36.633Z</time></trkpt><trkpt lat="43.0248744" lon="11.1035705"><ele>564.0</ele><time>2026-05-02T16:12:39.622Z</time></trkpt><trkpt lat="43.0249558" lon="11.1036196"><ele>567.6666666666666</ele><time>2026-05-02T16:12:42.633Z</time></trkpt><trkpt lat="43.024999" lon="11.1037194"><ele>571.3333333333334</ele><time>2026-05-02T16:12:45.634Z</time></trkpt><trkpt lat="43.0250491" lon="11.1037734"><ele>575.0</ele><time>2026-05-02T16:12:47.636Z</time></trkpt><trkpt lat="43.0251345" lon="11.1038473"><ele>578.6666666666667</ele><time>2026-05-02T16:12:49.628Z</time></trkpt><trkpt lat="43.0251953" lon="11.1038774"><ele>582.3333333333334</ele><time>2026-05-02T16:12:50.625Z</time></trkpt><trkpt lat="43.0252567" lon="11.1039008"><ele>586.0</ele><time>2026-05-02T16:12:51.638Z</time></trkpt><trkpt lat="43.0253424" lon="11.1038426"><ele>586.0</ele><time>2026-05-02T16:12:53.627Z</time></trkpt><trkpt lat="43.0254014" lon="11.1037764"><ele>586.0</ele><time>2026-05-02T16:12:55.633Z</time></trkpt><trkpt lat="43.0254229" lon="11.103693"><ele>586.0</ele><time>2026-05-02T16:12:57.622Z</time></trkpt><trkpt lat="43.0253872" lon="11.1035304"><ele>586.0</ele><time>2026-05-02T16:12:59.646Z</time></trkpt><trkpt lat="43.0253825" lon="11.1034407"><ele>586.0</ele><time>2026-05-02T16:13:00.639Z</time></trkpt><trkpt lat="43.0253926" lon="11.1032826"><ele>586.0</ele><time>2026-05-02T16:13:02.634Z</time></trkpt><trkpt lat="43.0254013" lon="11.1030966"><ele>586.0</ele><time>2026-05-02T16:13:04.637Z</time></trkpt><trkpt lat="43.0253953" lon="11.1029818"><ele>586.0</ele><time>2026-05-02T16:13:05.639Z</time></trkpt><trkpt lat="43.0253889" lon="11.102847"><ele>586.0</ele><time>2026-05-02T16:13:06.627Z</time></trkpt><trkpt lat="43.0253841" lon="11.102714"><ele>586.0</ele><time>2026-05-02T16:13:07.628Z</time></trkpt><trkpt lat="43.0253809" lon="11.1025757"><ele>586.0</ele><time>2026-05-02T16:13:08.623Z</time></trkpt><trkpt lat="43.0253809" lon="11.1024446"><ele>585.8</ele><time>2026-05-02T16:13:09.63Z</time></trkpt><trkpt lat="43.0253896" lon="11.1023237"><ele>585.6</ele><time>2026-05-02T16:13:10.635Z</time></trkpt><trkpt lat="43.0254058" lon="11.1021997"><ele>585.4</ele><time>2026-05-02T16:13:11.631Z</time></trkpt><trkpt lat="43.0254258" lon="11.1020659"><ele>585.2</ele><time>2026-05-02T16:13:12.621Z</time></trkpt><trkpt lat="43.0254396" lon="11.1019222"><ele>585.0</ele><time>2026-05-02T16:13:13.628Z</time></trkpt><trkpt lat="43.0254435" lon="11.1017819"><ele>585.0</ele><time>2026-05-02T16:13:14.627Z</time></trkpt><trkpt lat="43.025439" lon="11.1016468"><ele>585.0</ele><time>2026-05-02T16:13:15.645Z</time></trkpt><trkpt lat="43.025439" lon="11.1015085"><ele>585.0</ele><time>2026-05-02T16:13:16.618Z</time></trkpt><trkpt lat="43.025443" lon="11.1013692"><ele>585.0</ele><time>2026-05-02T16:13:17.623Z</time></trkpt><trkpt lat="43.0254424" lon="11.1012207"><ele>585.0</ele><time>2026-05-02T16:13:18.634Z</time></trkpt><trkpt lat="43.0254394" lon="11.1010653"><ele>586.0</ele><time>2026-05-02T16:13:19.628Z</time></trkpt><trkpt lat="43.0254092" lon="11.1008968"><ele>587.0</ele><time>2026-05-02T16:13:20.619Z</time></trkpt><trkpt lat="43.0253611" lon="11.1007364"><ele>588.0</ele><time>2026-05-02T16:13:21.624Z</time></trkpt><trkpt lat="43.0253009" lon="11.1005851"><ele>589.0</ele><time>2026-05-02T16:13:22.633Z</time></trkpt><trkpt lat="43.0252472" lon="11.1004388"><ele>589.25</ele><time>2026-05-02T16:13:23.633Z</time></trkpt><trkpt lat="43.0251962" lon="11.1002895"><ele>589.5</ele><time>2026-05-02T16:13:24.624Z</time></trkpt><trkpt lat="43.0251613" lon="11.1001264"><ele>589.75</ele><time>2026-05-02T16:13:25.61Z</time></trkpt><trkpt lat="43.0251447" lon="11.0999763"><ele>590.0</ele><time>2026-05-02T16:13:26.606Z</time></trkpt><trkpt lat="43.0251292" lon="11.0998421"><ele>590.4</ele><time>2026-05-02T16:13:27.638Z</time></trkpt><trkpt lat="43.0251154" lon="11.0997192"><ele>590.8</ele><time>2026-05-02T16:13:28.621Z</time></trkpt><trkpt lat="43.0251323" lon="11.0995858"><ele>591.2</ele><time>2026-05-02T16:13:29.627Z</time></trkpt><trkpt lat="43.0251891" lon="11.0994583"><ele>591.6</ele><time>2026-05-02T16:13:30.634Z</time></trkpt><trkpt lat="43.0252532" lon="11.0993203"><ele>592.0</ele><time>2026-05-02T16:13:31.617Z</time></trkpt><trkpt lat="43.0252999" lon="11.0991661"><ele>592.2</ele><time>2026-05-02T16:13:32.621Z</time></trkpt><trkpt lat="43.0253558" lon="11.099049"><ele>592.4000000000001</ele><time>2026-05-02T16:13:33.623Z</time></trkpt><trkpt lat="43.0253858" lon="11.0989216"><ele>592.5999999999999</ele><time>2026-05-02T16:13:34.637Z</time></trkpt><trkpt lat="43.0254093" lon="11.098782"><ele>592.8</ele><time>2026-05-02T16:13:35.615Z</time></trkpt><trkpt lat="43.025433" lon="11.0986655"><ele>593.0</ele><time>2026-05-02T16:13:36.641Z</time></trkpt><trkpt lat="43.0254635" lon="11.0984994"><ele>593.0</ele><time>2026-05-02T16:13:38.633Z</time></trkpt><trkpt lat="43.0254591" lon="11.0984085"><ele>593.0</ele><time>2026-05-02T16:13:39.629Z</time></trkpt><trkpt lat="43.0254767" lon="11.0983182"><ele>593.0</ele><time>2026-05-02T16:13:40.634Z</time></trkpt><trkpt lat="43.0255011" lon="11.0982135"><ele>593.0</ele><time>2026-05-02T16:13:41.625Z</time></trkpt><trkpt lat="43.025528" lon="11.0980751"><ele>593.0</ele><time>2026-05-02T16:13:42.635Z</time></trkpt><trkpt lat="43.0255852" lon="11.0979443"><ele>593.0</ele><time>2026-05-02T16:13:43.632Z</time></trkpt><trkpt lat="43.0256443" lon="11.0978192"><ele>590.75</ele><time>2026-05-02T16:13:44.633Z</time></trkpt><trkpt lat="43.0257046" lon="11.0976884"><ele>588.5</ele><time>2026-05-02T16:13:45.629Z</time></trkpt><trkpt lat="43.0257513" lon="11.0975456"><ele>586.25</ele><time>2026-05-02T16:13:46.615Z</time></trkpt><trkpt lat="43.0257575" lon="11.0973945"><ele>584.0</ele><time>2026-05-02T16:13:47.629Z</time></trkpt><trkpt lat="43.0257369" lon="11.0972387"><ele>582.8</ele><time>2026-05-02T16:13:48.633Z</time></trkpt><trkpt lat="43.0257055" lon="11.0970904"><ele>581.5999999999999</ele><time>2026-05-02T16:13:49.626Z</time></trkpt><trkpt lat="43.0256833" lon="11.0969442"><ele>580.4</ele><time>2026-05-02T16:13:50.627Z</time></trkpt><trkpt lat="43.0256567" lon="11.0968172"><ele>579.1999999999999</ele><time>2026-05-02T16:13:51.62Z</time></trkpt><trkpt lat="43.0256319" lon="11.0966942"><ele>578.0</ele><time>2026-05-02T16:13:52.656Z</time></trkpt><trkpt lat="43.0256062" lon="11.096579"><ele>577.8</ele><time>2026-05-02T16:13:53.627Z</time></trkpt><trkpt lat="43.0255978" lon="11.0964376"><ele>577.5999999999999</ele><time>2026-05-02T16:13:54.627Z</time></trkpt><trkpt lat="43.0256007" lon="11.0963043"><ele>577.4000000000001</ele><time>2026-05-02T16:13:55.632Z</time></trkpt><trkpt lat="43.0256256" lon="11.0961833"><ele>577.2</ele><time>2026-05-02T16:13:56.63Z</time></trkpt><trkpt lat="43.0256733" lon="11.0960765"><ele>577.0</ele><time>2026-05-02T16:13:57.623Z</time></trkpt><trkpt lat="43.0257483" lon="11.0959803"><ele>580.6</ele><time>2026-05-02T16:13:58.641Z</time></trkpt><trkpt lat="43.0258294" lon="11.0959177"><ele>584.2</ele><time>2026-05-02T16:13:59.626Z</time></trkpt><trkpt lat="43.0259235" lon="11.0958783"><ele>587.8</ele><time>2026-05-02T16:14:00.642Z</time></trkpt><trkpt lat="43.0260213" lon="11.0958503"><ele>591.4</ele><time>2026-05-02T16:14:01.622Z</time></trkpt><trkpt lat="43.0261259" lon="11.0958135"><ele>595.0</ele><time>2026-05-02T16:14:02.635Z</time></trkpt><trkpt lat="43.0262343" lon="11.0957647"><ele>593.2</ele><time>2026-05-02T16:14:03.629Z</time></trkpt><trkpt lat="43.0263434" lon="11.0957238"><ele>591.4</ele><time>2026-05-02T16:14:04.631Z</time></trkpt><trkpt lat="43.0264487" lon="11.0956788"><ele>589.6</ele><time>2026-05-02T16:14:05.636Z</time></trkpt><trkpt lat="43.0265448" lon="11.0956219"><ele>587.8</ele><time>2026-05-02T16:14:06.63Z</time></trkpt><trkpt lat="43.0266383" lon="11.0955836"><ele>586.0</ele><time>2026-05-02T16:14:07.64Z</time></trkpt><trkpt lat="43.0267332" lon="11.0955485"><ele>590.2</ele><time>2026-05-02T16:14:08.628Z</time></trkpt><trkpt lat="43.0268318" lon="11.0954927"><ele>594.4000000000001</ele><time>2026-05-02T16:14:09.632Z</time></trkpt><trkpt lat="43.0269233" lon="11.0954215"><ele>598.6</ele><time>2026-05-02T16:14:10.63Z</time></trkpt><trkpt lat="43.0270227" lon="11.0953432"><ele>602.8000000000001</ele><time>2026-05-02T16:14:11.629Z</time></trkpt><trkpt lat="43.0271255" lon="11.0952713"><ele>607.0</ele><time>2026-05-02T16:14:12.638Z</time></trkpt><trkpt lat="43.0272271" lon="11.0951987"><ele>607.0</ele><time>2026-05-02T16:14:13.624Z</time></trkpt><trkpt lat="43.0273132" lon="11.095123"><ele>607.0</ele><time>2026-05-02T16:14:14.632Z</time></trkpt><trkpt lat="43.0273853" lon="11.0950625"><ele>607.0</ele><time>2026-05-02T16:14:15.62Z</time></trkpt><trkpt lat="43.0274525" lon="11.0949977"><ele>607.0</ele><time>2026-05-02T16:14:17.627Z</time></trkpt><trkpt lat="43.0274514" lon="11.0948987"><ele>607.0</ele><time>2026-05-02T16:14:19.629Z</time></trkpt><trkpt lat="43.0274388" lon="11.0947294"><ele>606.8000000000001</ele><time>2026-05-02T16:14:21.628Z</time></trkpt><trkpt lat="43.0274488" lon="11.0945674"><ele>606.6</ele><time>2026-05-02T16:14:23.635Z</time></trkpt><trkpt lat="43.0275022" lon="11.0944624"><ele>606.4000000000001</ele><time>2026-05-02T16:14:25.626Z</time></trkpt><trkpt lat="43.0275497" lon="11.0943718"><ele>606.2</ele><time>2026-05-02T16:14:27.634Z</time></trkpt><trkpt lat="43.0276036" lon="11.0942414"><ele>606.0</ele><time>2026-05-02T16:14:29.645Z</time></trkpt><trkpt lat="43.0276676" lon="11.0940918"><ele>606.4285714285714</ele><time>2026-05-02T16:14:31.636Z</time></trkpt><trkpt lat="43.0277074" lon="11.0940125"><ele>606.8571428571429</ele><time>2026-05-02T16:14:32.631Z</time></trkpt><trkpt lat="43.0277473" lon="11.0939285"><ele>607.2857142857142</ele><time>2026-05-02T16:14:33.634Z</time></trkpt><trkpt lat="43.0277891" lon="11.0938467"><ele>607.7142857142858</ele><time>2026-05-02T16:14:34.627Z</time></trkpt><trkpt lat="43.0278274" lon="11.0937635"><ele>608.1428571428571</ele><time>2026-05-02T16:14:35.633Z</time></trkpt><trkpt lat="43.0278611" lon="11.0936886"><ele>608.5714285714286</ele><time>2026-05-02T16:14:36.636Z</time></trkpt><trkpt lat="43.0279014" lon="11.0936116"><ele>609.0</ele><time>2026-05-02T16:14:37.623Z</time></trkpt><trkpt lat="43.0279409" lon="11.0935304"><ele>609.0</ele><time>2026-05-02T16:14:38.612Z</time></trkpt><trkpt lat="43.0279778" lon="11.0934407"><ele>609.0</ele><time>2026-05-02T16:14:39.621Z</time></trkpt><trkpt lat="43.0280164" lon="11.0933426"><ele>609.0</ele><time>2026-05-02T16:14:40.639Z</time></trkpt><trkpt lat="43.0280519" lon="11.0932493"><ele>609.0</ele><time>2026-05-02T16:14:41.634Z</time></trkpt><trkpt lat="43.02809" lon="11.0931717"><ele>609.0</ele><time>2026-05-02T16:14:42.636Z</time></trkpt><trkpt lat="43.0281515" lon="11.0930333"><ele>609.0</ele><time>2026-05-02T16:14:44.628Z</time></trkpt><trkpt lat="43.0282137" lon="11.0928807"><ele>608.6666666666666</ele><time>2026-05-02T16:14:46.627Z</time></trkpt><trkpt lat="43.0282535" lon="11.0928019"><ele>608.3333333333334</ele><time>2026-05-02T16:14:47.631Z</time></trkpt><trkpt lat="43.0283111" lon="11.0926959"><ele>608.0</ele><time>2026-05-02T16:14:49.625Z</time></trkpt><trkpt lat="43.0283653" lon="11.0926043"><ele>607.6666666666667</ele><time>2026-05-02T16:14:52.657Z</time></trkpt><trkpt lat="43.028421" lon="11.092522"><ele>607.3333333333334</ele><time>2026-05-02T16:14:56.63Z</time></trkpt><trkpt lat="43.0284721" lon="11.092436"><ele>607.0</ele><time>2026-05-02T16:14:59.643Z</time></trkpt><trkpt lat="43.0285066" lon="11.0923599"><ele>607.8333333333334</ele><time>2026-05-02T16:15:01.626Z</time></trkpt><trkpt lat="43.0285513" lon="11.0922514"><ele>608.6666666666667</ele><time>2026-05-02T16:15:03.639Z</time></trkpt><trkpt lat="43.028608" lon="11.0921357"><ele>609.5</ele><time>2026-05-02T16:15:05.63Z</time></trkpt><trkpt lat="43.0286482" lon="11.0920328"><ele>610.3333333333334</ele><time>2026-05-02T16:15:07.629Z</time></trkpt><trkpt lat="43.028698" lon="11.0919426"><ele>611.1666666666666</ele><time>2026-05-02T16:15:09.64Z</time></trkpt><trkpt lat="43.0287505" lon="11.0918606"><ele>612.0</ele><time>2026-05-02T16:15:11.629Z</time></trkpt><trkpt lat="43.0287969" lon="11.0917964"><ele>612.0</ele><time>2026-05-02T16:15:13.634Z</time></trkpt><trkpt lat="43.0288388" lon="11.0917105"><ele>612.0</ele><time>2026-05-02T16:15:16.64Z</time></trkpt><trkpt lat="43.0288828" lon="11.0916451"><ele>612.0</ele><time>2026-05-02T16:15:18.624Z</time></trkpt><trkpt lat="43.0289323" lon="11.0915406"><ele>612.0</ele><time>2026-05-02T16:15:21.63Z</time></trkpt><trkpt lat="43.0289616" lon="11.0914643"><ele>612.0</ele><time>2026-05-02T16:15:23.642Z</time></trkpt><trkpt lat="43.0289852" lon="11.0913794"><ele>612.0</ele><time>2026-05-02T16:15:25.637Z</time></trkpt><trkpt lat="43.0290118" lon="11.0913013"><ele>612.0</ele><time>2026-05-02T16:15:27.627Z</time></trkpt><trkpt lat="43.0290447" lon="11.091197"><ele>610.6</ele><time>2026-05-02T16:15:30.637Z</time></trkpt><trkpt lat="43.0290849" lon="11.091067"><ele>609.2</ele><time>2026-05-02T16:15:33.631Z</time></trkpt><trkpt lat="43.0291539" lon="11.0909215"><ele>607.8</ele><time>2026-05-02T16:15:35.63Z</time></trkpt><trkpt lat="43.0292068" lon="11.0908472"><ele>606.4</ele><time>2026-05-02T16:15:36.625Z</time></trkpt><trkpt lat="43.0292588" lon="11.090784"><ele>605.0</ele><time>2026-05-02T16:15:37.632Z</time></trkpt><trkpt lat="43.0293407" lon="11.0906859"><ele>602.6666666666666</ele><time>2026-05-02T16:15:39.638Z</time></trkpt><trkpt lat="43.0293606" lon="11.090538"><ele>600.3333333333333</ele><time>2026-05-02T16:15:41.644Z</time></trkpt><trkpt lat="43.0293556" lon="11.0904472"><ele>598.0</ele><time>2026-05-02T16:15:42.643Z</time></trkpt><trkpt lat="43.0293564" lon="11.0903404"><ele>595.6666666666666</ele><time>2026-05-02T16:15:43.638Z</time></trkpt><trkpt lat="43.0293671" lon="11.090222"><ele>593.3333333333334</ele><time>2026-05-02T16:15:44.625Z</time></trkpt><trkpt lat="43.0293846" lon="11.0901054"><ele>591.0</ele><time>2026-05-02T16:15:45.638Z</time></trkpt><trkpt lat="43.0294144" lon="11.0899843"><ele>588.1666666666666</ele><time>2026-05-02T16:15:46.634Z</time></trkpt><trkpt lat="43.0294391" lon="11.0898694"><ele>585.3333333333334</ele><time>2026-05-02T16:15:47.649Z</time></trkpt><trkpt lat="43.0294637" lon="11.0897552"><ele>582.5</ele><time>2026-05-02T16:15:48.624Z</time></trkpt><trkpt lat="43.0294889" lon="11.0896399"><ele>579.6666666666667</ele><time>2026-05-02T16:15:49.626Z</time></trkpt><trkpt lat="43.0295086" lon="11.089522"><ele>576.8333333333334</ele><time>2026-05-02T16:15:50.625Z</time></trkpt><trkpt lat="43.0295203" lon="11.0893919"><ele>574.0</ele><time>2026-05-02T16:15:51.629Z</time></trkpt><trkpt lat="43.0295184" lon="11.0892744"><ele>574.0</ele><time>2026-05-02T16:15:52.624Z</time></trkpt><trkpt lat="43.0295194" lon="11.0891592"><ele>574.0</ele><time>2026-05-02T16:15:53.632Z</time></trkpt><trkpt lat="43.0295222" lon="11.0890512"><ele>574.0</ele><time>2026-05-02T16:15:54.631Z</time></trkpt><trkpt lat="43.0295289" lon="11.0889402"><ele>574.0</ele><time>2026-05-02T16:15:55.627Z</time></trkpt><trkpt lat="43.0295423" lon="11.0888217"><ele>574.0</ele><time>2026-05-02T16:15:56.632Z</time></trkpt><trkpt lat="43.0295622" lon="11.088708"><ele>574.0</ele><time>2026-05-02T16:15:57.631Z</time></trkpt><trkpt lat="43.0295664" lon="11.0886037"><ele>573.5714285714286</ele><time>2026-05-02T16:15:58.623Z</time></trkpt><trkpt lat="43.0295525" lon="11.0884986"><ele>573.1428571428571</ele><time>2026-05-02T16:15:59.627Z</time></trkpt><trkpt lat="43.0295206" lon="11.0884108"><ele>572.7142857142858</ele><time>2026-05-02T16:16:00.636Z</time></trkpt><trkpt lat="43.0294684" lon="11.0883426"><ele>572.2857142857142</ele><time>2026-05-02T16:16:01.63Z</time></trkpt><trkpt lat="43.0294112" lon="11.0882903"><ele>571.8571428571429</ele><time>2026-05-02T16:16:02.623Z</time></trkpt><trkpt lat="43.0293528" lon="11.0882402"><ele>571.4285714285714</ele><time>2026-05-02T16:16:03.621Z</time></trkpt><trkpt lat="43.0293002" lon="11.088189"><ele>571.0</ele><time>2026-05-02T16:16:04.628Z</time></trkpt><trkpt lat="43.0292605" lon="11.0880462"><ele>569.3333333333334</ele><time>2026-05-02T16:16:06.639Z</time></trkpt><trkpt lat="43.0293154" lon="11.0879201"><ele>567.6666666666667</ele><time>2026-05-02T16:16:08.638Z</time></trkpt><trkpt lat="43.0294216" lon="11.0878517"><ele>566.0</ele><time>2026-05-02T16:16:10.63Z</time></trkpt><trkpt lat="43.0294881" lon="11.0878351"><ele>564.3333333333334</ele><time>2026-05-02T16:16:11.629Z</time></trkpt><trkpt lat="43.0295644" lon="11.0878222"><ele>562.6666666666666</ele><time>2026-05-02T16:16:12.627Z</time></trkpt><trkpt lat="43.0296427" lon="11.0878135"><ele>561.0</ele><time>2026-05-02T16:16:13.627Z</time></trkpt><trkpt lat="43.0297199" lon="11.0878209"><ele>561.0</ele><time>2026-05-02T16:16:14.627Z</time></trkpt><trkpt lat="43.0297928" lon="11.0878617"><ele>561.0</ele><time>2026-05-02T16:16:15.621Z</time></trkpt><trkpt lat="43.0298585" lon="11.0879156"><ele>561.0</ele><time>2026-05-02T16:16:16.616Z</time></trkpt><trkpt lat="43.0299228" lon="11.0879594"><ele>561.0</ele><time>2026-05-02T16:16:17.629Z</time></trkpt><trkpt lat="43.030009" lon="11.0879279"><ele>561.0</ele><time>2026-05-02T16:16:19.623Z</time></trkpt><trkpt lat="43.0300002" lon="11.0877806"><ele>561.0</ele><time>2026-05-02T16:16:21.622Z</time></trkpt><trkpt lat="43.0299719" lon="11.0876912"><ele>561.0</ele><time>2026-05-02T16:16:22.634Z</time></trkpt><trkpt lat="43.0299505" lon="11.0875811"><ele>561.0</ele><time>2026-05-02T16:16:23.622Z</time></trkpt><trkpt lat="43.0299173" lon="11.0874705"><ele>561.0</ele><time>2026-05-02T16:16:24.636Z</time></trkpt><trkpt lat="43.0298842" lon="11.087361"><ele>561.0</ele><time>2026-05-02T16:16:25.636Z</time></trkpt><trkpt lat="43.0298549" lon="11.0872527"><ele>561.0</ele><time>2026-05-02T16:16:26.625Z</time></trkpt><trkpt lat="43.0298179" lon="11.0871514"><ele>561.0</ele><time>2026-05-02T16:16:27.634Z</time></trkpt><trkpt lat="43.0297619" lon="11.0870625"><ele>556.6</ele><time>2026-05-02T16:16:28.635Z</time></trkpt><trkpt lat="43.0296987" lon="11.0869924"><ele>552.2</ele><time>2026-05-02T16:16:29.635Z</time></trkpt><trkpt lat="43.0296448" lon="11.0869002"><ele>547.8</ele><time>2026-05-02T16:16:30.636Z</time></trkpt><trkpt lat="43.0295996" lon="11.0867816"><ele>543.4</ele><time>2026-05-02T16:16:31.637Z</time></trkpt><trkpt lat="43.0295563" lon="11.0866533"><ele>539.0</ele><time>2026-05-02T16:16:32.631Z</time></trkpt><trkpt lat="43.0295035" lon="11.0865214"><ele>536.8333333333333</ele><time>2026-05-02T16:16:33.627Z</time></trkpt><trkpt lat="43.0294419" lon="11.0864022"><ele>534.6666666666666</ele><time>2026-05-02T16:16:34.637Z</time></trkpt><trkpt lat="43.0293864" lon="11.0862968"><ele>532.5</ele><time>2026-05-02T16:16:35.625Z</time></trkpt><trkpt lat="43.0293395" lon="11.0862029"><ele>530.3333333333334</ele><time>2026-05-02T16:16:36.64Z</time></trkpt><trkpt lat="43.0293089" lon="11.0861198"><ele>528.1666666666667</ele><time>2026-05-02T16:16:37.621Z</time></trkpt><trkpt lat="43.0292983" lon="11.0860299"><ele>526.0</ele><time>2026-05-02T16:16:38.629Z</time></trkpt><trkpt lat="43.029291" lon="11.0859367"><ele>526.0</ele><time>2026-05-02T16:16:39.631Z</time></trkpt><trkpt lat="43.0292684" lon="11.0858544"><ele>526.0</ele><time>2026-05-02T16:16:40.622Z</time></trkpt><trkpt lat="43.0292133" lon="11.085775"><ele>526.0</ele><time>2026-05-02T16:16:41.639Z</time></trkpt><trkpt lat="43.0291409" lon="11.0856984"><ele>526.0</ele><time>2026-05-02T16:16:42.629Z</time></trkpt><trkpt lat="43.0290638" lon="11.0856305"><ele>526.0</ele><time>2026-05-02T16:16:43.62Z</time></trkpt><trkpt lat="43.0289981" lon="11.0855791"><ele>526.0</ele><time>2026-05-02T16:16:44.628Z</time></trkpt><trkpt lat="43.0289267" lon="11.0855689"><ele>525.0</ele><time>2026-05-02T16:16:45.636Z</time></trkpt><trkpt lat="43.0288621" lon="11.0856021"><ele>524.0</ele><time>2026-05-02T16:16:46.635Z</time></trkpt><trkpt lat="43.0288079" lon="11.0856722"><ele>523.0</ele><time>2026-05-02T16:16:47.614Z</time></trkpt><trkpt lat="43.0287544" lon="11.0857608"><ele>522.0</ele><time>2026-05-02T16:16:48.632Z</time></trkpt><trkpt lat="43.0287031" lon="11.0858634"><ele>521.0</ele><time>2026-05-02T16:16:49.622Z</time></trkpt><trkpt lat="43.0286577" lon="11.0859501"><ele>520.0</ele><time>2026-05-02T16:16:50.629Z</time></trkpt><trkpt lat="43.0285696" lon="11.0860081"><ele>520.0</ele><time>2026-05-02T16:16:52.631Z</time></trkpt><trkpt lat="43.0285507" lon="11.0858783"><ele>520.0</ele><time>2026-05-02T16:16:54.629Z</time></trkpt><trkpt lat="43.0285421" lon="11.0857735"><ele>520.0</ele><time>2026-05-02T16:16:56.617Z</time></trkpt><trkpt lat="43.028528" lon="11.0856756"><ele>520.0</ele><time>2026-05-02T16:17:01.631Z</time></trkpt><trkpt lat="43.0285753" lon="11.0855572"><ele>520.0</ele><time>2026-05-02T16:17:03.632Z</time></trkpt><trkpt lat="43.028614" lon="11.0854513"><ele>520.0</ele><time>2026-05-02T16:17:04.625Z</time></trkpt><trkpt lat="43.0286608" lon="11.0853491"><ele>516.4</ele><time>2026-05-02T16:17:05.648Z</time></trkpt><trkpt lat="43.0287216" lon="11.0852387"><ele>512.8</ele><time>2026-05-02T16:17:06.633Z</time></trkpt><trkpt lat="43.0288032" lon="11.0851367"><ele>509.20000000000005</ele><time>2026-05-02T16:17:07.628Z</time></trkpt><trkpt lat="43.0289145" lon="11.0850752"><ele>505.6</ele><time>2026-05-02T16:17:08.632Z</time></trkpt><trkpt lat="43.0290311" lon="11.0850799"><ele>502.0</ele><time>2026-05-02T16:17:09.619Z</time></trkpt><trkpt lat="43.0291403" lon="11.0851146"><ele>503.83333333333337</ele><time>2026-05-02T16:17:10.632Z</time></trkpt><trkpt lat="43.029244" lon="11.0851548"><ele>505.6666666666667</ele><time>2026-05-02T16:17:11.624Z</time></trkpt><trkpt lat="43.0293249" lon="11.0851835"><ele>507.5</ele><time>2026-05-02T16:17:12.626Z</time></trkpt><trkpt lat="43.0293966" lon="11.0851954"><ele>509.33333333333337</ele><time>2026-05-02T16:17:13.633Z</time></trkpt><trkpt lat="43.0294589" lon="11.0851564"><ele>511.1666666666667</ele><time>2026-05-02T16:17:14.627Z</time></trkpt><trkpt lat="43.0295061" lon="11.0850967"><ele>513.0</ele><time>2026-05-02T16:17:15.629Z</time></trkpt><trkpt lat="43.0295353" lon="11.0850038"><ele>511.75</ele><time>2026-05-02T16:17:16.616Z</time></trkpt><trkpt lat="43.0295376" lon="11.0848639"><ele>510.5</ele><time>2026-05-02T16:17:17.633Z</time></trkpt><trkpt lat="43.0295267" lon="11.0847026"><ele>509.25</ele><time>2026-05-02T16:17:18.627Z</time></trkpt><trkpt lat="43.0294907" lon="11.084541"><ele>508.0</ele><time>2026-05-02T16:17:19.64Z</time></trkpt><trkpt lat="43.0294497" lon="11.0843899"><ele>508.0</ele><time>2026-05-02T16:17:20.633Z</time></trkpt><trkpt lat="43.0294042" lon="11.0842403"><ele>507.99999999999994</ele><time>2026-05-02T16:17:21.621Z</time></trkpt><trkpt lat="43.029345" lon="11.0841007"><ele>507.99999999999994</ele><time>2026-05-02T16:17:22.627Z</time></trkpt><trkpt lat="43.0292857" lon="11.0839843"><ele>508.0</ele><time>2026-05-02T16:17:23.64Z</time></trkpt><trkpt lat="43.0292251" lon="11.0838755"><ele>508.0</ele><time>2026-05-02T16:17:24.624Z</time></trkpt><trkpt lat="43.0291657" lon="11.0837712"><ele>507.79999999999995</ele><time>2026-05-02T16:17:25.645Z</time></trkpt><trkpt lat="43.029102" lon="11.0836677"><ele>507.59999999999997</ele><time>2026-05-02T16:17:26.633Z</time></trkpt><trkpt lat="43.0290391" lon="11.0835725"><ele>507.40000000000003</ele><time>2026-05-02T16:17:27.637Z</time></trkpt><trkpt lat="43.0289785" lon="11.0834741"><ele>507.20000000000005</ele><time>2026-05-02T16:17:28.634Z</time></trkpt><trkpt lat="43.028922" lon="11.0833772"><ele>507.0</ele><time>2026-05-02T16:17:29.629Z</time></trkpt><trkpt lat="43.0288635" lon="11.0832824"><ele>508.0</ele><time>2026-05-02T16:17:30.636Z</time></trkpt><trkpt lat="43.0288006" lon="11.083182"><ele>509.00000000000006</ele><time>2026-05-02T16:17:31.64Z</time></trkpt><trkpt lat="43.0287386" lon="11.0830747"><ele>510.00000000000006</ele><time>2026-05-02T16:17:32.639Z</time></trkpt><trkpt lat="43.0286751" lon="11.0829628"><ele>511.0</ele><time>2026-05-02T16:17:33.635Z</time></trkpt><trkpt lat="43.0286116" lon="11.0828496"><ele>512.0</ele><time>2026-05-02T16:17:34.635Z</time></trkpt><trkpt lat="43.0285534" lon="11.0827269"><ele>512.0</ele><time>2026-05-02T16:17:35.637Z</time></trkpt><trkpt lat="43.0284952" lon="11.0826053"><ele>512.0</ele><time>2026-05-02T16:17:36.633Z</time></trkpt><trkpt lat="43.0284357" lon="11.0824795"><ele>512.0</ele><time>2026-05-02T16:17:37.637Z</time></trkpt><trkpt lat="43.0283802" lon="11.082356"><ele>512.0</ele><time>2026-05-02T16:17:38.637Z</time></trkpt><trkpt lat="43.0283275" lon="11.0822531"><ele>512.0</ele><time>2026-05-02T16:17:39.636Z</time></trkpt><trkpt lat="43.0282754" lon="11.0821503"><ele>512.3333333333333</ele><time>2026-05-02T16:17:40.628Z</time></trkpt><trkpt lat="43.0282233" lon="11.0820394"><ele>512.6666666666666</ele><time>2026-05-02T16:17:41.635Z</time></trkpt><trkpt lat="43.0281821" lon="11.0819305"><ele>513.0</ele><time>2026-05-02T16:17:42.643Z</time></trkpt><trkpt lat="43.0281388" lon="11.0818353"><ele>513.3333333333334</ele><time>2026-05-02T16:17:43.633Z</time></trkpt><trkpt lat="43.0280953" lon="11.0817387"><ele>513.6666666666667</ele><time>2026-05-02T16:17:44.626Z</time></trkpt><trkpt lat="43.0280556" lon="11.0816518"><ele>514.0</ele><time>2026-05-02T16:17:45.644Z</time></trkpt><trkpt lat="43.02802" lon="11.0815745"><ele>514.0</ele><time>2026-05-02T16:17:46.63Z</time></trkpt><trkpt lat="43.0279815" lon="11.081496"><ele>514.0</ele><time>2026-05-02T16:17:47.628Z</time></trkpt><trkpt lat="43.0279422" lon="11.0814098"><ele>514.0</ele><time>2026-05-02T16:17:48.64Z</time></trkpt><trkpt lat="43.0278998" lon="11.0813161"><ele>514.0</ele><time>2026-05-02T16:17:49.64Z</time></trkpt><trkpt lat="43.027861" lon="11.0812151"><ele>514.0</ele><time>2026-05-02T16:17:50.637Z</time></trkpt><trkpt lat="43.0278243" lon="11.0811096"><ele>514.0</ele><time>2026-05-02T16:17:51.631Z</time></trkpt><trkpt lat="43.0277921" lon="11.081004"><ele>514.0</ele><time>2026-05-02T16:17:52.641Z</time></trkpt><trkpt lat="43.0277595" lon="11.0808973"><ele>514.0</ele><time>2026-05-02T16:17:53.646Z</time></trkpt><trkpt lat="43.0277316" lon="11.080798"><ele>514.0</ele><time>2026-05-02T16:17:54.631Z</time></trkpt><trkpt lat="43.0277086" lon="11.0807089"><ele>514.0</ele><time>2026-05-02T16:17:55.641Z</time></trkpt><trkpt lat="43.0276611" lon="11.0805597"><ele>514.0</ele><time>2026-05-02T16:17:57.635Z</time></trkpt><trkpt lat="43.0276114" lon="11.0804028"><ele>515.0</ele><time>2026-05-02T16:17:59.635Z</time></trkpt><trkpt lat="43.027568" lon="11.0802598"><ele>516.0</ele><time>2026-05-02T16:18:01.625Z</time></trkpt><trkpt lat="43.0275365" lon="11.0801241"><ele>517.0</ele><time>2026-05-02T16:18:03.625Z</time></trkpt><trkpt lat="43.0275415" lon="11.079958"><ele>518.0</ele><time>2026-05-02T16:18:05.638Z</time></trkpt><trkpt lat="43.0276071" lon="11.079813"><ele>516.4285714285714</ele><time>2026-05-02T16:18:07.636Z</time></trkpt><trkpt lat="43.0276652" lon="11.0797521"><ele>514.8571428571429</ele><time>2026-05-02T16:18:09.619Z</time></trkpt><trkpt lat="43.0277166" lon="11.0796746"><ele>513.2857142857142</ele><time>2026-05-02T16:18:13.631Z</time></trkpt><trkpt lat="43.0277909" lon="11.0796679"><ele>511.7142857142857</ele><time>2026-05-02T16:18:17.622Z</time></trkpt><trkpt lat="43.0278205" lon="11.079749"><ele>510.14285714285717</ele><time>2026-05-02T16:18:22.629Z</time></trkpt><trkpt lat="43.0278899" lon="11.0798245"><ele>508.57142857142856</ele><time>2026-05-02T16:19:09.626Z</time></trkpt><trkpt lat="43.0279497" lon="11.0798675"><ele>507.0</ele><time>2026-05-02T16:19:10.634Z</time></trkpt><trkpt lat="43.0280132" lon="11.0799238"><ele>507.6666666666667</ele><time>2026-05-02T16:19:11.628Z</time></trkpt><trkpt lat="43.0280815" lon="11.0800031"><ele>508.33333333333337</ele><time>2026-05-02T16:19:12.642Z</time></trkpt><trkpt lat="43.0281574" lon="11.0800857"><ele>509.0</ele><time>2026-05-02T16:19:13.624Z</time></trkpt><trkpt lat="43.0282305" lon="11.0801636"><ele>509.6666666666667</ele><time>2026-05-02T16:19:14.633Z</time></trkpt><trkpt lat="43.0282981" lon="11.080234"><ele>510.33333333333337</ele><time>2026-05-02T16:19:15.623Z</time></trkpt><trkpt lat="43.0283593" lon="11.0803042"><ele>511.0</ele><time>2026-05-02T16:19:16.627Z</time></trkpt><trkpt lat="43.0284188" lon="11.0803737"><ele>511.0</ele><time>2026-05-02T16:19:17.627Z</time></trkpt><trkpt lat="43.028477" lon="11.0804455"><ele>511.0</ele><time>2026-05-02T16:19:18.633Z</time></trkpt><trkpt lat="43.028538" lon="11.080521"><ele>511.0</ele><time>2026-05-02T16:19:19.625Z</time></trkpt><trkpt lat="43.0286055" lon="11.0806052"><ele>511.0</ele><time>2026-05-02T16:19:20.634Z</time></trkpt><trkpt lat="43.0286773" lon="11.0806923"><ele>511.0</ele><time>2026-05-02T16:19:21.623Z</time></trkpt><trkpt lat="43.0287568" lon="11.0807855"><ele>512.6</ele><time>2026-05-02T16:19:22.633Z</time></trkpt><trkpt lat="43.0288449" lon="11.080885"><ele>514.2</ele><time>2026-05-02T16:19:23.631Z</time></trkpt><trkpt lat="43.0289287" lon="11.0809782"><ele>515.8</ele><time>2026-05-02T16:19:24.646Z</time></trkpt><trkpt lat="43.0290052" lon="11.0810611"><ele>517.4</ele><time>2026-05-02T16:19:25.634Z</time></trkpt><trkpt lat="43.0290707" lon="11.0811353"><ele>519.0</ele><time>2026-05-02T16:19:26.63Z</time></trkpt><trkpt lat="43.0291312" lon="11.081178"><ele>516.8</ele><time>2026-05-02T16:19:27.625Z</time></trkpt><trkpt lat="43.0292085" lon="11.0811756"><ele>514.5999999999999</ele><time>2026-05-02T16:19:29.633Z</time></trkpt><trkpt lat="43.0292996" lon="11.0811422"><ele>512.4</ele><time>2026-05-02T16:19:31.628Z</time></trkpt><trkpt lat="43.0294237" lon="11.0810875"><ele>510.2</ele><time>2026-05-02T16:19:33.628Z</time></trkpt><trkpt lat="43.0295068" lon="11.0810359"><ele>508.0</ele><time>2026-05-02T16:19:34.636Z</time></trkpt><trkpt lat="43.0296042" lon="11.0809658"><ele>508.0</ele><time>2026-05-02T16:19:35.632Z</time></trkpt><trkpt lat="43.0296998" lon="11.080895"><ele>507.99999999999994</ele><time>2026-05-02T16:19:36.636Z</time></trkpt><trkpt lat="43.0297903" lon="11.0808363"><ele>507.99999999999994</ele><time>2026-05-02T16:19:37.625Z</time></trkpt><trkpt lat="43.0298739" lon="11.0807835"><ele>508.0</ele><time>2026-05-02T16:19:38.624Z</time></trkpt><trkpt lat="43.0299519" lon="11.0807519"><ele>508.0</ele><time>2026-05-02T16:19:39.625Z</time></trkpt><trkpt lat="43.0300281" lon="11.0807412"><ele>509.0</ele><time>2026-05-02T16:19:40.63Z</time></trkpt><trkpt lat="43.0301111" lon="11.0807422"><ele>510.0</ele><time>2026-05-02T16:19:41.628Z</time></trkpt><trkpt lat="43.0302149" lon="11.0807681"><ele>511.0</ele><time>2026-05-02T16:19:42.64Z</time></trkpt><trkpt lat="43.0303358" lon="11.0808094"><ele>512.0</ele><time>2026-05-02T16:19:43.634Z</time></trkpt><trkpt lat="43.0304732" lon="11.0808568"><ele>512.0</ele><time>2026-05-02T16:19:44.625Z</time></trkpt><trkpt lat="43.0306191" lon="11.0808974"><ele>512.0</ele><time>2026-05-02T16:19:45.627Z</time></trkpt><trkpt lat="43.0307656" lon="11.0809378"><ele>512.0</ele><time>2026-05-02T16:19:46.633Z</time></trkpt><trkpt lat="43.0309133" lon="11.0809685"><ele>512.0</ele><time>2026-05-02T16:19:47.633Z</time></trkpt><trkpt lat="43.0310693" lon="11.0809724"><ele>510.75</ele><time>2026-05-02T16:19:48.633Z</time></trkpt><trkpt lat="43.0312142" lon="11.0809306"><ele>509.5</ele><time>2026-05-02T16:19:49.627Z</time></trkpt><trkpt lat="43.0313409" lon="11.0808571"><ele>508.25</ele><time>2026-05-02T16:19:50.638Z</time></trkpt><trkpt lat="43.031438" lon="11.0807341"><ele>507.0</ele><time>2026-05-02T16:19:51.625Z</time></trkpt><trkpt lat="43.0314927" lon="11.0805742"><ele>503.5</ele><time>2026-05-02T16:19:52.638Z</time></trkpt><trkpt lat="43.0315251" lon="11.08038"><ele>500.0</ele><time>2026-05-02T16:19:53.64Z</time></trkpt><trkpt lat="43.03151" lon="11.0801737"><ele>496.5</ele><time>2026-05-02T16:19:54.624Z</time></trkpt><trkpt lat="43.0315468" lon="11.0799784"><ele>493.0</ele><time>2026-05-02T16:19:55.629Z</time></trkpt><trkpt lat="43.0316248" lon="11.0798025"><ele>492.6666666666667</ele><time>2026-05-02T16:19:56.634Z</time></trkpt><trkpt lat="43.031731" lon="11.0796466"><ele>492.33333333333337</ele><time>2026-05-02T16:19:57.615Z</time></trkpt><trkpt lat="43.0318531" lon="11.0795157"><ele>492.0</ele><time>2026-05-02T16:19:58.644Z</time></trkpt><trkpt lat="43.0319894" lon="11.0793903"><ele>492.0</ele><time>2026-05-02T16:19:59.637Z</time></trkpt><trkpt lat="43.0321315" lon="11.0792753"><ele>492.0</ele><time>2026-05-02T16:20:00.621Z</time></trkpt><trkpt lat="43.0322654" lon="11.0791391"><ele>492.0</ele><time>2026-05-02T16:20:01.631Z</time></trkpt><trkpt lat="43.0323664" lon="11.078974"><ele>494.33333333333337</ele><time>2026-05-02T16:20:02.618Z</time></trkpt><trkpt lat="43.0324403" lon="11.0787964"><ele>496.6666666666667</ele><time>2026-05-02T16:20:03.632Z</time></trkpt><trkpt lat="43.0324784" lon="11.0785773"><ele>499.0</ele><time>2026-05-02T16:20:04.636Z</time></trkpt><trkpt lat="43.0324795" lon="11.0783218"><ele>490.0</ele><time>2026-05-02T16:20:05.638Z</time></trkpt><trkpt lat="43.0324609" lon="11.0780687"><ele>481.0</ele><time>2026-05-02T16:20:06.629Z</time></trkpt><trkpt lat="43.0324455" lon="11.0778365"><ele>472.0</ele><time>2026-05-02T16:20:07.625Z</time></trkpt><trkpt lat="43.0324464" lon="11.0776126"><ele>470.0</ele><time>2026-05-02T16:20:08.628Z</time></trkpt><trkpt lat="43.0324639" lon="11.0773996"><ele>468.0</ele><time>2026-05-02T16:20:09.632Z</time></trkpt><trkpt lat="43.0325009" lon="11.0772091"><ele>466.0</ele><time>2026-05-02T16:20:10.62Z</time></trkpt><trkpt lat="43.0325726" lon="11.0770594"><ele>464.0</ele><time>2026-05-02T16:20:11.63Z</time></trkpt><trkpt lat="43.0326714" lon="11.0769621"><ele>468.75</ele><time>2026-05-02T16:20:12.629Z</time></trkpt><trkpt lat="43.0327871" lon="11.0769136"><ele>473.5</ele><time>2026-05-02T16:20:13.642Z</time></trkpt><trkpt lat="43.0329274" lon="11.0768973"><ele>478.25</ele><time>2026-05-02T16:20:14.636Z</time></trkpt><trkpt lat="43.0330838" lon="11.0768804"><ele>483.0</ele><time>2026-05-02T16:20:15.638Z</time></trkpt><trkpt lat="43.0332418" lon="11.076832"><ele>484.0</ele><time>2026-05-02T16:20:16.627Z</time></trkpt><trkpt lat="43.0333874" lon="11.0767474"><ele>485.0</ele><time>2026-05-02T16:20:17.635Z</time></trkpt><trkpt lat="43.0335043" lon="11.0766477"><ele>486.0</ele><time>2026-05-02T16:20:18.62Z</time></trkpt><trkpt lat="43.0335766" lon="11.0765049"><ele>487.0</ele><time>2026-05-02T16:20:19.625Z</time></trkpt><trkpt lat="43.033611" lon="11.0763254"><ele>487.0</ele><time>2026-05-02T16:20:20.635Z</time></trkpt><trkpt lat="43.0336053" lon="11.076123"><ele>487.0</ele><time>2026-05-02T16:20:21.631Z</time></trkpt><trkpt lat="43.0335636" lon="11.0759005"><ele>487.0</ele><time>2026-05-02T16:20:22.628Z</time></trkpt><trkpt lat="43.0334949" lon="11.075692"><ele>487.25</ele><time>2026-05-02T16:20:23.635Z</time></trkpt><trkpt lat="43.033419" lon="11.0755048"><ele>487.5</ele><time>2026-05-02T16:20:24.637Z</time></trkpt><trkpt lat="43.0333668" lon="11.0753344"><ele>487.75</ele><time>2026-05-02T16:20:25.633Z</time></trkpt><trkpt lat="43.0333514" lon="11.0751745"><ele>488.0</ele><time>2026-05-02T16:20:26.631Z</time></trkpt><trkpt lat="43.0333707" lon="11.0749766"><ele>487.0</ele><time>2026-05-02T16:20:27.632Z</time></trkpt><trkpt lat="43.0334099" lon="11.0747546"><ele>486.0</ele><time>2026-05-02T16:20:28.626Z</time></trkpt><trkpt lat="43.033467" lon="11.0745295"><ele>485.0</ele><time>2026-05-02T16:20:29.635Z</time></trkpt><trkpt lat="43.0335309" lon="11.0743064"><ele>481.0</ele><time>2026-05-02T16:20:30.637Z</time></trkpt><trkpt lat="43.0336148" lon="11.0740902"><ele>477.0</ele><time>2026-05-02T16:20:31.636Z</time></trkpt><trkpt lat="43.0337043" lon="11.0738752"><ele>473.0</ele><time>2026-05-02T16:20:32.638Z</time></trkpt><trkpt lat="43.0337967" lon="11.0736655"><ele>473.0</ele><time>2026-05-02T16:20:33.629Z</time></trkpt><trkpt lat="43.0338955" lon="11.0734565"><ele>473.0</ele><time>2026-05-02T16:20:34.637Z</time></trkpt><trkpt lat="43.0340001" lon="11.0732562"><ele>473.0</ele><time>2026-05-02T16:20:35.618Z</time></trkpt><trkpt lat="43.0340998" lon="11.0730563"><ele>477.0</ele><time>2026-05-02T16:20:36.628Z</time></trkpt><trkpt lat="43.0341989" lon="11.0728591"><ele>481.0</ele><time>2026-05-02T16:20:37.609Z</time></trkpt><trkpt lat="43.0342967" lon="11.0726629"><ele>485.0</ele><time>2026-05-02T16:20:38.629Z</time></trkpt><trkpt lat="43.034386" lon="11.0724794"><ele>480.3333333333333</ele><time>2026-05-02T16:20:39.627Z</time></trkpt><trkpt lat="43.0344688" lon="11.0723156"><ele>475.66666666666663</ele><time>2026-05-02T16:20:40.646Z</time></trkpt><trkpt lat="43.0345704" lon="11.0721675"><ele>471.0</ele><time>2026-05-02T16:20:41.647Z</time></trkpt><trkpt lat="43.0347" lon="11.0720373"><ele>471.0</ele><time>2026-05-02T16:20:42.631Z</time></trkpt><trkpt lat="43.0348353" lon="11.0719138"><ele>471.0</ele><time>2026-05-02T16:20:43.627Z</time></trkpt><trkpt lat="43.0349585" lon="11.0717862"><ele>471.0</ele><time>2026-05-02T16:20:44.641Z</time></trkpt><trkpt lat="43.0350605" lon="11.0716295"><ele>473.0</ele><time>2026-05-02T16:20:45.621Z</time></trkpt><trkpt lat="43.0351356" lon="11.0714252"><ele>475.0</ele><time>2026-05-02T16:20:46.638Z</time></trkpt><trkpt lat="43.0351796" lon="11.0711953"><ele>477.0</ele><time>2026-05-02T16:20:47.627Z</time></trkpt><trkpt lat="43.0352099" lon="11.0709527"><ele>477.0</ele><time>2026-05-02T16:20:48.639Z</time></trkpt><trkpt lat="43.0352207" lon="11.0707004"><ele>477.0</ele><time>2026-05-02T16:20:49.637Z</time></trkpt><trkpt lat="43.035206" lon="11.0704517"><ele>477.0</ele><time>2026-05-02T16:20:50.631Z</time></trkpt><trkpt lat="43.0351841" lon="11.0701887"><ele>478.0</ele><time>2026-05-02T16:20:51.633Z</time></trkpt><trkpt lat="43.0351611" lon="11.0699358"><ele>479.0</ele><time>2026-05-02T16:20:52.631Z</time></trkpt><trkpt lat="43.0351409" lon="11.0696971"><ele>480.0</ele><time>2026-05-02T16:20:53.628Z</time></trkpt><trkpt lat="43.0351155" lon="11.0694785"><ele>480.0</ele><time>2026-05-02T16:20:54.633Z</time></trkpt><trkpt lat="43.035069" lon="11.0692883"><ele>480.0</ele><time>2026-05-02T16:20:55.636Z</time></trkpt><trkpt lat="43.0349962" lon="11.0691083"><ele>480.0</ele><time>2026-05-02T16:20:56.632Z</time></trkpt><trkpt lat="43.0348866" lon="11.068956"><ele>476.75</ele><time>2026-05-02T16:20:57.631Z</time></trkpt><trkpt lat="43.0347575" lon="11.0688386"><ele>473.5</ele><time>2026-05-02T16:20:58.637Z</time></trkpt><trkpt lat="43.0346288" lon="11.0687449"><ele>470.25</ele><time>2026-05-02T16:20:59.631Z</time></trkpt><trkpt lat="43.0345167" lon="11.0686252"><ele>467.0</ele><time>2026-05-02T16:21:00.639Z</time></trkpt><trkpt lat="43.0344219" lon="11.0684886"><ele>467.0</ele><time>2026-05-02T16:21:01.635Z</time></trkpt><trkpt lat="43.034362" lon="11.0683292"><ele>467.0</ele><time>2026-05-02T16:21:02.629Z</time></trkpt><trkpt lat="43.0343432" lon="11.0681642"><ele>467.0</ele><time>2026-05-02T16:21:03.624Z</time></trkpt><trkpt lat="43.0343652" lon="11.0680112"><ele>467.0</ele><time>2026-05-02T16:21:04.633Z</time></trkpt><trkpt lat="43.0344232" lon="11.0678843"><ele>466.25</ele><time>2026-05-02T16:21:05.62Z</time></trkpt><trkpt lat="43.0345181" lon="11.0678007"><ele>465.5</ele><time>2026-05-02T16:21:06.635Z</time></trkpt><trkpt lat="43.034623" lon="11.0677408"><ele>464.75</ele><time>2026-05-02T16:21:07.626Z</time></trkpt><trkpt lat="43.0347155" lon="11.0676208"><ele>464.0</ele><time>2026-05-02T16:21:08.632Z</time></trkpt><trkpt lat="43.034782" lon="11.067454"><ele>464.25</ele><time>2026-05-02T16:21:09.628Z</time></trkpt><trkpt lat="43.0348219" lon="11.0672712"><ele>464.5</ele><time>2026-05-02T16:21:10.619Z</time></trkpt><trkpt lat="43.0348223" lon="11.067069"><ele>464.75</ele><time>2026-05-02T16:21:11.626Z</time></trkpt><trkpt lat="43.0347767" lon="11.0668875"><ele>465.0</ele><time>2026-05-02T16:21:12.631Z</time></trkpt><trkpt lat="43.0346871" lon="11.0667178"><ele>468.66666666666663</ele><time>2026-05-02T16:21:13.624Z</time></trkpt><trkpt lat="43.034568" lon="11.0665693"><ele>472.3333333333333</ele><time>2026-05-02T16:21:14.627Z</time></trkpt><trkpt lat="43.0344428" lon="11.0664128"><ele>476.0</ele><time>2026-05-02T16:21:15.628Z</time></trkpt><trkpt lat="43.0343108" lon="11.066256"><ele>476.0</ele><time>2026-05-02T16:21:16.639Z</time></trkpt><trkpt lat="43.0341803" lon="11.0660996"><ele>476.0</ele><time>2026-05-02T16:21:17.625Z</time></trkpt><trkpt lat="43.03405" lon="11.0659498"><ele>476.0</ele><time>2026-05-02T16:21:18.629Z</time></trkpt><trkpt lat="43.0339185" lon="11.0658221"><ele>473.75</ele><time>2026-05-02T16:21:19.639Z</time></trkpt><trkpt lat="43.0337927" lon="11.0657105"><ele>471.5</ele><time>2026-05-02T16:21:20.641Z</time></trkpt><trkpt lat="43.0336755" lon="11.0656017"><ele>469.25</ele><time>2026-05-02T16:21:21.629Z</time></trkpt><trkpt lat="43.0335806" lon="11.0654827"><ele>467.0</ele><time>2026-05-02T16:21:22.631Z</time></trkpt><trkpt lat="43.0335018" lon="11.0653658"><ele>466.99999999999994</ele><time>2026-05-02T16:21:23.631Z</time></trkpt><trkpt lat="43.0334432" lon="11.0652711"><ele>467.0</ele><time>2026-05-02T16:21:24.624Z</time></trkpt><trkpt lat="43.0333935" lon="11.0651946"><ele>467.0</ele><time>2026-05-02T16:21:25.629Z</time></trkpt><trkpt lat="43.0333507" lon="11.0651158"><ele>467.0</ele><time>2026-05-02T16:21:26.63Z</time></trkpt><trkpt lat="43.0333125" lon="11.0650272"><ele>466.99999999999994</ele><time>2026-05-02T16:21:27.638Z</time></trkpt><trkpt lat="43.0332816" lon="11.064922"><ele>467.0</ele><time>2026-05-02T16:21:28.63Z</time></trkpt><trkpt lat="43.0332455" lon="11.0647938"><ele>467.75</ele><time>2026-05-02T16:21:29.627Z</time></trkpt><trkpt lat="43.0331926" lon="11.0646493"><ele>468.5</ele><time>2026-05-02T16:21:30.639Z</time></trkpt><trkpt lat="43.0331233" lon="11.0645011"><ele>469.25</ele><time>2026-05-02T16:21:31.624Z</time></trkpt><trkpt lat="43.0330329" lon="11.0643552"><ele>470.0</ele><time>2026-05-02T16:21:32.64Z</time></trkpt><trkpt lat="43.0329202" lon="11.0642105"><ele>468.0</ele><time>2026-05-02T16:21:33.627Z</time></trkpt><trkpt lat="43.0327948" lon="11.0640844"><ele>466.0</ele><time>2026-05-02T16:21:34.64Z</time></trkpt><trkpt lat="43.0326508" lon="11.0639719"><ele>464.0</ele><time>2026-05-02T16:21:35.625Z</time></trkpt><trkpt lat="43.0325041" lon="11.0638599"><ele>464.3333333333333</ele><time>2026-05-02T16:21:36.647Z</time></trkpt><trkpt lat="43.032377" lon="11.0637399"><ele>464.66666666666663</ele><time>2026-05-02T16:21:37.642Z</time></trkpt><trkpt lat="43.0322676" lon="11.063604"><ele>465.0</ele><time>2026-05-02T16:21:38.626Z</time></trkpt><trkpt lat="43.0321712" lon="11.0634377"><ele>466.66666666666663</ele><time>2026-05-02T16:21:39.642Z</time></trkpt><trkpt lat="43.0320786" lon="11.0632521"><ele>468.3333333333333</ele><time>2026-05-02T16:21:40.64Z</time></trkpt><trkpt lat="43.0319818" lon="11.063052"><ele>470.0</ele><time>2026-05-02T16:21:41.63Z</time></trkpt><trkpt lat="43.0318968" lon="11.0628417"><ele>470.0</ele><time>2026-05-02T16:21:42.636Z</time></trkpt><trkpt lat="43.0318208" lon="11.062619"><ele>470.0</ele><time>2026-05-02T16:21:43.629Z</time></trkpt><trkpt lat="43.0317453" lon="11.0623877"><ele>470.0</ele><time>2026-05-02T16:21:44.636Z</time></trkpt><trkpt lat="43.0316703" lon="11.0621607"><ele>472.0</ele><time>2026-05-02T16:21:45.621Z</time></trkpt><trkpt lat="43.0315947" lon="11.0619629"><ele>474.0</ele><time>2026-05-02T16:21:46.636Z</time></trkpt><trkpt lat="43.0315064" lon="11.0617981"><ele>476.0</ele><time>2026-05-02T16:21:47.629Z</time></trkpt><trkpt lat="43.0313917" lon="11.0616773"><ele>480.66666666666663</ele><time>2026-05-02T16:21:48.628Z</time></trkpt><trkpt lat="43.0312581" lon="11.0616001"><ele>485.33333333333337</ele><time>2026-05-02T16:21:49.63Z</time></trkpt><trkpt lat="43.031112" lon="11.0615397"><ele>490.0</ele><time>2026-05-02T16:21:50.629Z</time></trkpt><trkpt lat="43.0309486" lon="11.0614783"><ele>490.33333333333337</ele><time>2026-05-02T16:21:51.639Z</time></trkpt><trkpt lat="43.0307942" lon="11.0614239"><ele>490.66666666666663</ele><time>2026-05-02T16:21:52.643Z</time></trkpt><trkpt lat="43.0306417" lon="11.0613751"><ele>491.0</ele><time>2026-05-02T16:21:53.634Z</time></trkpt><trkpt lat="43.0304995" lon="11.0613806"><ele>491.0</ele><time>2026-05-02T16:21:54.637Z</time></trkpt><trkpt lat="43.0303666" lon="11.0614464"><ele>491.0</ele><time>2026-05-02T16:21:55.628Z</time></trkpt><trkpt lat="43.0302201" lon="11.0615614"><ele>491.0</ele><time>2026-05-02T16:21:56.632Z</time></trkpt><trkpt lat="43.0300659" lon="11.0616693"><ele>488.3333333333333</ele><time>2026-05-02T16:21:57.637Z</time></trkpt><trkpt lat="43.0299049" lon="11.061747"><ele>485.66666666666663</ele><time>2026-05-02T16:21:58.629Z</time></trkpt><trkpt lat="43.0297481" lon="11.0617575"><ele>483.0</ele><time>2026-05-02T16:21:59.623Z</time></trkpt><trkpt lat="43.0295987" lon="11.0617367"><ele>483.0</ele><time>2026-05-02T16:22:00.628Z</time></trkpt><trkpt lat="43.0294534" lon="11.0616757"><ele>483.0</ele><time>2026-05-02T16:22:01.625Z</time></trkpt><trkpt lat="43.0293478" lon="11.0615781"><ele>483.0</ele><time>2026-05-02T16:22:02.631Z</time></trkpt><trkpt lat="43.0292621" lon="11.0614343"><ele>483.0</ele><time>2026-05-02T16:22:03.632Z</time></trkpt><trkpt lat="43.029174" lon="11.061246"><ele>483.0</ele><time>2026-05-02T16:22:04.637Z</time></trkpt><trkpt lat="43.0290653" lon="11.061027"><ele>483.0</ele><time>2026-05-02T16:22:05.63Z</time></trkpt><trkpt lat="43.0289508" lon="11.0608277"><ele>483.0</ele><time>2026-05-02T16:22:06.64Z</time></trkpt><trkpt lat="43.0288238" lon="11.0606625"><ele>483.0</ele><time>2026-05-02T16:22:07.637Z</time></trkpt><trkpt lat="43.0286875" lon="11.0605176"><ele>483.0</ele><time>2026-05-02T16:22:08.638Z</time></trkpt><trkpt lat="43.0285404" lon="11.0603775"><ele>483.0</ele><time>2026-05-02T16:22:09.624Z</time></trkpt><trkpt lat="43.0283914" lon="11.0602329"><ele>481.33333333333337</ele><time>2026-05-02T16:22:10.634Z</time></trkpt><trkpt lat="43.0282347" lon="11.0600783"><ele>479.6666666666667</ele><time>2026-05-02T16:22:11.626Z</time></trkpt><trkpt lat="43.0280743" lon="11.0599111"><ele>478.0</ele><time>2026-05-02T16:22:12.639Z</time></trkpt><trkpt lat="43.0279084" lon="11.0597412"><ele>478.0</ele><time>2026-05-02T16:22:13.626Z</time></trkpt><trkpt lat="43.0277414" lon="11.059562"><ele>478.0</ele><time>2026-05-02T16:22:14.636Z</time></trkpt><trkpt lat="43.0275717" lon="11.0593808"><ele>478.0</ele><time>2026-05-02T16:22:15.639Z</time></trkpt><trkpt lat="43.0274096" lon="11.0591928"><ele>478.33333333333337</ele><time>2026-05-02T16:22:16.629Z</time></trkpt><trkpt lat="43.0272431" lon="11.0590193"><ele>478.66666666666663</ele><time>2026-05-02T16:22:17.638Z</time></trkpt><trkpt lat="43.027098" lon="11.0588701"><ele>479.0</ele><time>2026-05-02T16:22:18.634Z</time></trkpt><trkpt lat="43.0269812" lon="11.0587217"><ele>479.0</ele><time>2026-05-02T16:22:19.64Z</time></trkpt><trkpt lat="43.0269088" lon="11.0585525"><ele>479.0</ele><time>2026-05-02T16:22:20.642Z</time></trkpt><trkpt lat="43.0268791" lon="11.0583687"><ele>479.0</ele><time>2026-05-02T16:22:21.627Z</time></trkpt><trkpt lat="43.0268685" lon="11.0581613"><ele>479.0</ele><time>2026-05-02T16:22:22.643Z</time></trkpt><trkpt lat="43.0268441" lon="11.057955"><ele>477.3333333333333</ele><time>2026-05-02T16:22:23.636Z</time></trkpt><trkpt lat="43.0267816" lon="11.05776"><ele>475.66666666666663</ele><time>2026-05-02T16:22:24.644Z</time></trkpt><trkpt lat="43.0266756" lon="11.0575984"><ele>474.0</ele><time>2026-05-02T16:22:25.628Z</time></trkpt><trkpt lat="43.026538" lon="11.057468"><ele>476.66666666666663</ele><time>2026-05-02T16:22:26.629Z</time></trkpt><trkpt lat="43.0263861" lon="11.0573984"><ele>479.3333333333333</ele><time>2026-05-02T16:22:27.631Z</time></trkpt><trkpt lat="43.0262257" lon="11.0573792"><ele>482.0</ele><time>2026-05-02T16:22:28.616Z</time></trkpt><trkpt lat="43.0260897" lon="11.0573029"><ele>482.0</ele><time>2026-05-02T16:22:29.628Z</time></trkpt><trkpt lat="43.0259722" lon="11.057132"><ele>482.0</ele><time>2026-05-02T16:22:30.626Z</time></trkpt><trkpt lat="43.0258562" lon="11.0569353"><ele>482.0</ele><time>2026-05-02T16:22:31.639Z</time></trkpt><trkpt lat="43.0257532" lon="11.0567491"><ele>479.25</ele><time>2026-05-02T16:22:32.651Z</time></trkpt><trkpt lat="43.0256893" lon="11.0565743"><ele>476.5</ele><time>2026-05-02T16:22:33.63Z</time></trkpt><trkpt lat="43.0256619" lon="11.0563891"><ele>473.75</ele><time>2026-05-02T16:22:34.621Z</time></trkpt><trkpt lat="43.0256738" lon="11.0562101"><ele>471.0</ele><time>2026-05-02T16:22:35.628Z</time></trkpt><trkpt lat="43.0257233" lon="11.0560585"><ele>471.0</ele><time>2026-05-02T16:22:36.632Z</time></trkpt><trkpt lat="43.0258095" lon="11.0559172"><ele>471.0</ele><time>2026-05-02T16:22:37.633Z</time></trkpt><trkpt lat="43.0259048" lon="11.0557871"><ele>471.0</ele><time>2026-05-02T16:22:38.625Z</time></trkpt><trkpt lat="43.025946" lon="11.0556597"><ele>471.0</ele><time>2026-05-02T16:22:39.624Z</time></trkpt><trkpt lat="43.0259326" lon="11.0555395"><ele>474.25</ele><time>2026-05-02T16:22:40.628Z</time></trkpt><trkpt lat="43.0258933" lon="11.0554192"><ele>477.5</ele><time>2026-05-02T16:22:41.632Z</time></trkpt><trkpt lat="43.0258379" lon="11.0552995"><ele>480.75</ele><time>2026-05-02T16:22:42.623Z</time></trkpt><trkpt lat="43.0257377" lon="11.0551588"><ele>484.0</ele><time>2026-05-02T16:22:43.627Z</time></trkpt><trkpt lat="43.0256108" lon="11.0550047"><ele>489.33333333333337</ele><time>2026-05-02T16:22:44.636Z</time></trkpt><trkpt lat="43.0254562" lon="11.0548829"><ele>494.66666666666663</ele><time>2026-05-02T16:22:45.625Z</time></trkpt><trkpt lat="43.0252656" lon="11.054796"><ele>500.0</ele><time>2026-05-02T16:22:46.638Z</time></trkpt><trkpt lat="43.025065" lon="11.0547349"><ele>499.66666666666663</ele><time>2026-05-02T16:22:47.644Z</time></trkpt><trkpt lat="43.0248664" lon="11.0546888"><ele>499.33333333333337</ele><time>2026-05-02T16:22:48.646Z</time></trkpt><trkpt lat="43.0246722" lon="11.0546558"><ele>499.0</ele><time>2026-05-02T16:22:49.641Z</time></trkpt><trkpt lat="43.0244832" lon="11.0546638"><ele>499.0</ele><time>2026-05-02T16:22:50.648Z</time></trkpt><trkpt lat="43.0243014" lon="11.0547245"><ele>499.0</ele><time>2026-05-02T16:22:51.642Z</time></trkpt><trkpt lat="43.0241349" lon="11.0547951"><ele>499.0</ele><time>2026-05-02T16:22:52.634Z</time></trkpt><trkpt lat="43.0239798" lon="11.0548138"><ele>496.5</ele><time>2026-05-02T16:22:53.631Z</time></trkpt><trkpt lat="43.0238377" lon="11.054796"><ele>494.0</ele><time>2026-05-02T16:22:54.64Z</time></trkpt><trkpt lat="43.0237047" lon="11.0547515"><ele>491.5</ele><time>2026-05-02T16:22:55.63Z</time></trkpt><trkpt lat="43.0235938" lon="11.0546845"><ele>489.0</ele><time>2026-05-02T16:22:56.626Z</time></trkpt><trkpt lat="43.0235058" lon="11.0545628"><ele>489.0</ele><time>2026-05-02T16:22:57.625Z</time></trkpt><trkpt lat="43.0234392" lon="11.0544072"><ele>489.0</ele><time>2026-05-02T16:22:58.645Z</time></trkpt><trkpt lat="43.0233748" lon="11.0542367"><ele>489.0</ele><time>2026-05-02T16:22:59.636Z</time></trkpt><trkpt lat="43.0233087" lon="11.0540358"><ele>489.0</ele><time>2026-05-02T16:23:00.631Z</time></trkpt><trkpt lat="43.0232541" lon="11.0538131"><ele>483.0</ele><time>2026-05-02T16:23:01.636Z</time></trkpt><trkpt lat="43.0232046" lon="11.0535771"><ele>477.0</ele><time>2026-05-02T16:23:02.626Z</time></trkpt><trkpt lat="43.0231631" lon="11.0533409"><ele>471.0</ele><time>2026-05-02T16:23:03.649Z</time></trkpt><trkpt lat="43.0231268" lon="11.0531013"><ele>469.66666666666663</ele><time>2026-05-02T16:23:04.63Z</time></trkpt><trkpt lat="43.0230965" lon="11.0528671"><ele>468.3333333333333</ele><time>2026-05-02T16:23:05.625Z</time></trkpt><trkpt lat="43.023085" lon="11.0526535"><ele>467.0</ele><time>2026-05-02T16:23:06.643Z</time></trkpt><trkpt lat="43.0230911" lon="11.0524644"><ele>465.25</ele><time>2026-05-02T16:23:07.634Z</time></trkpt><trkpt lat="43.023117" lon="11.0522904"><ele>463.5</ele><time>2026-05-02T16:23:08.638Z</time></trkpt><trkpt lat="43.0231683" lon="11.0521236"><ele>461.75</ele><time>2026-05-02T16:23:09.633Z</time></trkpt><trkpt lat="43.0232544" lon="11.0519644"><ele>460.0</ele><time>2026-05-02T16:23:10.628Z</time></trkpt><trkpt lat="43.0233612" lon="11.0518"><ele>460.6666666666667</ele><time>2026-05-02T16:23:11.626Z</time></trkpt><trkpt lat="43.0234754" lon="11.0516408"><ele>461.33333333333337</ele><time>2026-05-02T16:23:12.626Z</time></trkpt><trkpt lat="43.0235785" lon="11.0514899"><ele>462.0</ele><time>2026-05-02T16:23:13.627Z</time></trkpt><trkpt lat="43.0236882" lon="11.0513733"><ele>462.0</ele><time>2026-05-02T16:23:14.638Z</time></trkpt><trkpt lat="43.0238162" lon="11.0512963"><ele>462.0</ele><time>2026-05-02T16:23:15.628Z</time></trkpt><trkpt lat="43.0239582" lon="11.0512598"><ele>462.0</ele><time>2026-05-02T16:23:16.637Z</time></trkpt><trkpt lat="43.0240999" lon="11.0512499"><ele>462.0</ele><time>2026-05-02T16:23:17.62Z</time></trkpt><trkpt lat="43.0242189" lon="11.051184"><ele>463.5</ele><time>2026-05-02T16:23:18.644Z</time></trkpt><trkpt lat="43.0242903" lon="11.0510447"><ele>465.0</ele><time>2026-05-02T16:23:19.638Z</time></trkpt><trkpt lat="43.0243218" lon="11.0508644"><ele>466.5</ele><time>2026-05-02T16:23:20.639Z</time></trkpt><trkpt lat="43.0243338" lon="11.0506764"><ele>468.0</ele><time>2026-05-02T16:23:21.617Z</time></trkpt><trkpt lat="43.0243568" lon="11.0504948"><ele>468.0</ele><time>2026-05-02T16:23:22.633Z</time></trkpt><trkpt lat="43.024427" lon="11.0503424"><ele>468.0</ele><time>2026-05-02T16:23:23.634Z</time></trkpt><trkpt lat="43.0245513" lon="11.0502126"><ele>468.0</ele><time>2026-05-02T16:23:24.65Z</time></trkpt><trkpt lat="43.0246885" lon="11.0500848"><ele>471.0</ele><time>2026-05-02T16:23:25.632Z</time></trkpt><trkpt lat="43.0248176" lon="11.0499417"><ele>474.0</ele><time>2026-05-02T16:23:26.635Z</time></trkpt><trkpt lat="43.0249235" lon="11.0497657"><ele>477.0</ele><time>2026-05-02T16:23:27.648Z</time></trkpt><trkpt lat="43.0250191" lon="11.0495703"><ele>477.0</ele><time>2026-05-02T16:23:28.631Z</time></trkpt><trkpt lat="43.0251058" lon="11.0493717"><ele>477.0</ele><time>2026-05-02T16:23:29.625Z</time></trkpt><trkpt lat="43.0251739" lon="11.0491749"><ele>477.0</ele><time>2026-05-02T16:23:30.637Z</time></trkpt><trkpt lat="43.025232" lon="11.0489829"><ele>475.66666666666663</ele><time>2026-05-02T16:23:31.642Z</time></trkpt><trkpt lat="43.0252398" lon="11.0487922"><ele>474.3333333333333</ele><time>2026-05-02T16:23:32.639Z</time></trkpt><trkpt lat="43.0252139" lon="11.0485933"><ele>473.0</ele><time>2026-05-02T16:23:33.62Z</time></trkpt><trkpt lat="43.0251592" lon="11.0483739"><ele>472.66666666666663</ele><time>2026-05-02T16:23:34.637Z</time></trkpt><trkpt lat="43.0251034" lon="11.0481427"><ele>472.33333333333337</ele><time>2026-05-02T16:23:35.628Z</time></trkpt><trkpt lat="43.0250595" lon="11.0479043"><ele>472.0</ele><time>2026-05-02T16:23:36.638Z</time></trkpt><trkpt lat="43.0250337" lon="11.0476402"><ele>472.33333333333337</ele><time>2026-05-02T16:23:37.636Z</time></trkpt><trkpt lat="43.0250223" lon="11.0473654"><ele>472.66666666666663</ele><time>2026-05-02T16:23:38.634Z</time></trkpt><trkpt lat="43.0249973" lon="11.0470931"><ele>473.0</ele><time>2026-05-02T16:23:39.615Z</time></trkpt><trkpt lat="43.0249639" lon="11.0468284"><ele>467.0</ele><time>2026-05-02T16:23:40.628Z</time></trkpt><trkpt lat="43.0249288" lon="11.0465798"><ele>461.0</ele><time>2026-05-02T16:23:41.615Z</time></trkpt><trkpt lat="43.0249039" lon="11.0463394"><ele>455.0</ele><time>2026-05-02T16:23:42.63Z</time></trkpt><trkpt lat="43.0248843" lon="11.0461253"><ele>455.0</ele><time>2026-05-02T16:23:43.63Z</time></trkpt><trkpt lat="43.0248683" lon="11.0459307"><ele>455.0</ele><time>2026-05-02T16:23:44.632Z</time></trkpt><trkpt lat="43.0248686" lon="11.0457705"><ele>455.0</ele><time>2026-05-02T16:23:45.617Z</time></trkpt><trkpt lat="43.0248886" lon="11.0456533"><ele>455.0</ele><time>2026-05-02T16:23:46.641Z</time></trkpt><trkpt lat="43.0249514" lon="11.0455873"><ele>455.0</ele><time>2026-05-02T16:23:47.628Z</time></trkpt><trkpt lat="43.0250364" lon="11.0455691"><ele>455.25</ele><time>2026-05-02T16:23:48.621Z</time></trkpt><trkpt lat="43.0251423" lon="11.0455997"><ele>455.5</ele><time>2026-05-02T16:23:49.64Z</time></trkpt><trkpt lat="43.0252553" lon="11.0456749"><ele>455.75</ele><time>2026-05-02T16:23:50.626Z</time></trkpt><trkpt lat="43.025385" lon="11.0457581"><ele>456.0</ele><time>2026-05-02T16:23:51.626Z</time></trkpt><trkpt lat="43.0255254" lon="11.0457891"><ele>456.0</ele><time>2026-05-02T16:23:52.63Z</time></trkpt><trkpt lat="43.0256764" lon="11.0457434"><ele>456.0</ele><time>2026-05-02T16:23:53.628Z</time></trkpt><trkpt lat="43.0258269" lon="11.0456609"><ele>456.0</ele><time>2026-05-02T16:23:54.62Z</time></trkpt><trkpt lat="43.0259714" lon="11.0455656"><ele>456.66666666666663</ele><time>2026-05-02T16:23:55.627Z</time></trkpt><trkpt lat="43.0261084" lon="11.0454323"><ele>457.3333333333333</ele><time>2026-05-02T16:23:56.63Z</time></trkpt><trkpt lat="43.0262218" lon="11.0452841"><ele>458.0</ele><time>2026-05-02T16:23:57.627Z</time></trkpt><trkpt lat="43.026334" lon="11.0451257"><ele>458.0</ele><time>2026-05-02T16:23:58.631Z</time></trkpt><trkpt lat="43.0264562" lon="11.0449935"><ele>458.0</ele><time>2026-05-02T16:23:59.633Z</time></trkpt><trkpt lat="43.0265899" lon="11.0449158"><ele>458.0</ele><time>2026-05-02T16:24:00.633Z</time></trkpt><trkpt lat="43.0267201" lon="11.0448673"><ele>458.0</ele><time>2026-05-02T16:24:01.617Z</time></trkpt><trkpt lat="43.026871" lon="11.0448356"><ele>454.75</ele><time>2026-05-02T16:24:02.612Z</time></trkpt><trkpt lat="43.0270301" lon="11.0448181"><ele>451.5</ele><time>2026-05-02T16:24:03.633Z</time></trkpt><trkpt lat="43.0271716" lon="11.0448232"><ele>448.25</ele><time>2026-05-02T16:24:04.63Z</time></trkpt><trkpt lat="43.0272962" lon="11.0448352"><ele>445.0</ele><time>2026-05-02T16:24:05.626Z</time></trkpt><trkpt lat="43.0274149" lon="11.0447789"><ele>448.0</ele><time>2026-05-02T16:24:06.624Z</time></trkpt><trkpt lat="43.0275133" lon="11.0446387"><ele>451.0</ele><time>2026-05-02T16:24:07.616Z</time></trkpt><trkpt lat="43.0276165" lon="11.0444875"><ele>454.0</ele><time>2026-05-02T16:24:08.616Z</time></trkpt><trkpt lat="43.0277185" lon="11.044328"><ele>457.0</ele><time>2026-05-02T16:24:09.631Z</time></trkpt><trkpt lat="43.0278255" lon="11.0441633"><ele>452.5</ele><time>2026-05-02T16:24:10.619Z</time></trkpt><trkpt lat="43.0278979" lon="11.0439785"><ele>448.0</ele><time>2026-05-02T16:24:11.628Z</time></trkpt><trkpt lat="43.0279557" lon="11.0437953"><ele>443.5</ele><time>2026-05-02T16:24:12.623Z</time></trkpt><trkpt lat="43.0280249" lon="11.0436646"><ele>439.0</ele><time>2026-05-02T16:24:13.628Z</time></trkpt><trkpt lat="43.0281137" lon="11.0436186"><ele>439.0</ele><time>2026-05-02T16:24:14.622Z</time></trkpt><trkpt lat="43.0282315" lon="11.0436268"><ele>439.0</ele><time>2026-05-02T16:24:15.615Z</time></trkpt><trkpt lat="43.0283731" lon="11.0436583"><ele>439.0</ele><time>2026-05-02T16:24:16.612Z</time></trkpt><trkpt lat="43.0285029" lon="11.0436979"><ele>439.0</ele><time>2026-05-02T16:24:17.628Z</time></trkpt><trkpt lat="43.0286147" lon="11.0437137"><ele>437.25</ele><time>2026-05-02T16:24:18.632Z</time></trkpt><trkpt lat="43.028702" lon="11.0436608"><ele>435.5</ele><time>2026-05-02T16:24:19.622Z</time></trkpt><trkpt lat="43.0287827" lon="11.043537"><ele>433.75</ele><time>2026-05-02T16:24:20.626Z</time></trkpt><trkpt lat="43.0288771" lon="11.0433852"><ele>432.0</ele><time>2026-05-02T16:24:21.632Z</time></trkpt><trkpt lat="43.0289956" lon="11.0432666"><ele>432.0</ele><time>2026-05-02T16:24:22.627Z</time></trkpt><trkpt lat="43.0291098" lon="11.0431533"><ele>432.0</ele><time>2026-05-02T16:24:23.636Z</time></trkpt><trkpt lat="43.0291965" lon="11.0430092"><ele>432.0</ele><time>2026-05-02T16:24:24.635Z</time></trkpt><trkpt lat="43.0292575" lon="11.0428641"><ele>432.0</ele><time>2026-05-02T16:24:25.621Z</time></trkpt><trkpt lat="43.0293294" lon="11.0427556"><ele>437.0</ele><time>2026-05-02T16:24:26.622Z</time></trkpt><trkpt lat="43.0294385" lon="11.0427041"><ele>442.0</ele><time>2026-05-02T16:24:27.619Z</time></trkpt><trkpt lat="43.029581" lon="11.0426717"><ele>447.0</ele><time>2026-05-02T16:24:28.638Z</time></trkpt><trkpt lat="43.0297315" lon="11.0426528"><ele>452.0</ele><time>2026-05-02T16:24:29.635Z</time></trkpt><trkpt lat="43.0298885" lon="11.0426079"><ele>453.5</ele><time>2026-05-02T16:24:30.64Z</time></trkpt><trkpt lat="43.0300435" lon="11.0425384"><ele>455.0</ele><time>2026-05-02T16:24:31.631Z</time></trkpt><trkpt lat="43.0301808" lon="11.0424939"><ele>456.5</ele><time>2026-05-02T16:24:32.637Z</time></trkpt><trkpt lat="43.0303147" lon="11.0424985"><ele>458.0</ele><time>2026-05-02T16:24:33.632Z</time></trkpt><trkpt lat="43.0304637" lon="11.0425419"><ele>458.0</ele><time>2026-05-02T16:24:34.632Z</time></trkpt><trkpt lat="43.0305885" lon="11.0426024"><ele>457.99999999999994</ele><time>2026-05-02T16:24:35.635Z</time></trkpt><trkpt lat="43.0306768" lon="11.042646"><ele>457.99999999999994</ele><time>2026-05-02T16:24:36.621Z</time></trkpt><trkpt lat="43.0307433" lon="11.0426328"><ele>458.0</ele><time>2026-05-02T16:24:37.634Z</time></trkpt><trkpt lat="43.0307879" lon="11.0425557"><ele>458.0</ele><time>2026-05-02T16:24:38.629Z</time></trkpt><trkpt lat="43.030804" lon="11.0424225"><ele>457.0</ele><time>2026-05-02T16:24:39.635Z</time></trkpt><trkpt lat="43.0308115" lon="11.0422485"><ele>456.0</ele><time>2026-05-02T16:24:40.618Z</time></trkpt><trkpt lat="43.030838" lon="11.0420773"><ele>455.0</ele><time>2026-05-02T16:24:41.629Z</time></trkpt><trkpt lat="43.0309083" lon="11.0419069"><ele>454.0</ele><time>2026-05-02T16:24:42.634Z</time></trkpt><trkpt lat="43.0310069" lon="11.041756"><ele>454.0</ele><time>2026-05-02T16:24:43.633Z</time></trkpt><trkpt lat="43.0311108" lon="11.0416426"><ele>454.0</ele><time>2026-05-02T16:24:44.629Z</time></trkpt><trkpt lat="43.0312107" lon="11.0415706"><ele>454.0</ele><time>2026-05-02T16:24:45.636Z</time></trkpt><trkpt lat="43.0313105" lon="11.0415633"><ele>454.0</ele><time>2026-05-02T16:24:46.616Z</time></trkpt><trkpt lat="43.0314052" lon="11.0416003"><ele>454.0</ele><time>2026-05-02T16:24:47.626Z</time></trkpt><trkpt lat="43.0314875" lon="11.041608"><ele>454.4</ele><time>2026-05-02T16:24:48.641Z</time></trkpt><trkpt lat="43.031543" lon="11.0415501"><ele>454.79999999999995</ele><time>2026-05-02T16:24:49.63Z</time></trkpt><trkpt lat="43.0315641" lon="11.0414256"><ele>455.20000000000005</ele><time>2026-05-02T16:24:50.631Z</time></trkpt><trkpt lat="43.0315657" lon="11.041264"><ele>455.6</ele><time>2026-05-02T16:24:51.638Z</time></trkpt><trkpt lat="43.0315843" lon="11.0411058"><ele>456.0</ele><time>2026-05-02T16:24:52.632Z</time></trkpt><trkpt lat="43.0316548" lon="11.0409442"><ele>452.66666666666663</ele><time>2026-05-02T16:24:53.625Z</time></trkpt><trkpt lat="43.0317604" lon="11.0407883"><ele>449.3333333333333</ele><time>2026-05-02T16:24:54.627Z</time></trkpt><trkpt lat="43.0318813" lon="11.040661"><ele>446.0</ele><time>2026-05-02T16:24:55.623Z</time></trkpt><trkpt lat="43.0320173" lon="11.0405155"><ele>446.0</ele><time>2026-05-02T16:24:56.624Z</time></trkpt><trkpt lat="43.0321474" lon="11.0403568"><ele>446.0</ele><time>2026-05-02T16:24:57.627Z</time></trkpt><trkpt lat="43.032272" lon="11.0401986"><ele>446.0</ele><time>2026-05-02T16:24:58.631Z</time></trkpt><trkpt lat="43.0323856" lon="11.0400586"><ele>446.20000000000005</ele><time>2026-05-02T16:24:59.62Z</time></trkpt><trkpt lat="43.0324699" lon="11.0399304"><ele>446.40000000000003</ele><time>2026-05-02T16:25:00.627Z</time></trkpt><trkpt lat="43.0325281" lon="11.0398026"><ele>446.6</ele><time>2026-05-02T16:25:01.628Z</time></trkpt><trkpt lat="43.0325478" lon="11.0396629"><ele>446.8</ele><time>2026-05-02T16:25:02.626Z</time></trkpt><trkpt lat="43.0325125" lon="11.0395417"><ele>447.0</ele><time>2026-05-02T16:25:03.631Z</time></trkpt><trkpt lat="43.0324287" lon="11.0394414"><ele>447.0</ele><time>2026-05-02T16:25:04.626Z</time></trkpt><trkpt lat="43.0323074" lon="11.039381"><ele>447.0</ele><time>2026-05-02T16:25:05.623Z</time></trkpt><trkpt lat="43.0321774" lon="11.0393256"><ele>447.0</ele><time>2026-05-02T16:25:06.622Z</time></trkpt><trkpt lat="43.0320561" lon="11.0392536"><ele>447.0</ele><time>2026-05-02T16:25:07.628Z</time></trkpt><trkpt lat="43.0319663" lon="11.0391295"><ele>446.20000000000005</ele><time>2026-05-02T16:25:08.625Z</time></trkpt><trkpt lat="43.0319159" lon="11.0389882"><ele>445.40000000000003</ele><time>2026-05-02T16:25:09.627Z</time></trkpt><trkpt lat="43.0319101" lon="11.038852"><ele>444.59999999999997</ele><time>2026-05-02T16:25:10.634Z</time></trkpt><trkpt lat="43.0319476" lon="11.0387351"><ele>443.79999999999995</ele><time>2026-05-02T16:25:11.637Z</time></trkpt><trkpt lat="43.0320139" lon="11.0386631"><ele>443.0</ele><time>2026-05-02T16:25:12.628Z</time></trkpt><trkpt lat="43.0321087" lon="11.0386381"><ele>443.0</ele><time>2026-05-02T16:25:13.634Z</time></trkpt><trkpt lat="43.0322111" lon="11.0386255"><ele>442.99999999999994</ele><time>2026-05-02T16:25:14.627Z</time></trkpt><trkpt lat="43.0323114" lon="11.0386145"><ele>442.99999999999994</ele><time>2026-05-02T16:25:15.639Z</time></trkpt><trkpt lat="43.0324021" lon="11.0386075"><ele>443.0</ele><time>2026-05-02T16:25:16.627Z</time></trkpt><trkpt lat="43.0324761" lon="11.0386002"><ele>443.0</ele><time>2026-05-02T16:25:17.613Z</time></trkpt><trkpt lat="43.032589" lon="11.0385864"><ele>442.99999999999994</ele><time>2026-05-02T16:25:19.627Z</time></trkpt><trkpt lat="43.0326737" lon="11.0385738"><ele>443.0</ele><time>2026-05-02T16:25:21.628Z</time></trkpt><trkpt lat="43.0327304" lon="11.0385276"><ele>443.0</ele><time>2026-05-02T16:25:23.621Z</time></trkpt><trkpt lat="43.0326332" lon="11.0385287"><ele>443.0</ele><time>2026-05-02T16:25:28.63Z</time></trkpt><trkpt lat="43.032559" lon="11.038549"><ele>442.99999999999994</ele><time>2026-05-02T16:25:29.621Z</time></trkpt><trkpt lat="43.0324722" lon="11.0385467"><ele>443.0</ele><time>2026-05-02T16:25:30.613Z</time></trkpt><trkpt lat="43.0323731" lon="11.0385452"><ele>443.0</ele><time>2026-05-02T16:25:31.633Z</time></trkpt><trkpt lat="43.0322549" lon="11.0385578"><ele>443.0</ele><time>2026-05-02T16:25:32.617Z</time></trkpt><trkpt lat="43.0321244" lon="11.0385828"><ele>443.0</ele><time>2026-05-02T16:25:33.618Z</time></trkpt><trkpt lat="43.0320101" lon="11.0386203"><ele>443.0</ele><time>2026-05-02T16:25:34.62Z</time></trkpt><trkpt lat="43.0319285" lon="11.0386827"><ele>443.0</ele><time>2026-05-02T16:25:35.629Z</time></trkpt><trkpt lat="43.0318835" lon="11.0387864"><ele>442.99999999999994</ele><time>2026-05-02T16:25:36.619Z</time></trkpt><trkpt lat="43.0318775" lon="11.0389171"><ele>442.99999999999994</ele><time>2026-05-02T16:25:37.627Z</time></trkpt><trkpt lat="43.0319285" lon="11.0390559"><ele>443.0</ele><time>2026-05-02T16:25:38.627Z</time></trkpt><trkpt lat="43.0320108" lon="11.0391873"><ele>443.0</ele><time>2026-05-02T16:25:39.63Z</time></trkpt><trkpt lat="43.0321223" lon="11.0392986"><ele>444.0</ele><time>2026-05-02T16:25:40.625Z</time></trkpt><trkpt lat="43.0322541" lon="11.0393754"><ele>445.0</ele><time>2026-05-02T16:25:41.629Z</time></trkpt><trkpt lat="43.0323861" lon="11.0394532"><ele>446.0</ele><time>2026-05-02T16:25:42.633Z</time></trkpt><trkpt lat="43.0324885" lon="11.0395305"><ele>447.0</ele><time>2026-05-02T16:25:43.623Z</time></trkpt><trkpt lat="43.0325558" lon="11.0396157"><ele>446.75</ele><time>2026-05-02T16:25:44.626Z</time></trkpt><trkpt lat="43.032562" lon="11.0397263"><ele>446.5</ele><time>2026-05-02T16:25:45.629Z</time></trkpt><trkpt lat="43.0325105" lon="11.0398589"><ele>446.25</ele><time>2026-05-02T16:25:46.624Z</time></trkpt><trkpt lat="43.0324336" lon="11.0399827"><ele>446.0</ele><time>2026-05-02T16:25:47.627Z</time></trkpt><trkpt lat="43.0323225" lon="11.0401218"><ele>446.0</ele><time>2026-05-02T16:25:48.627Z</time></trkpt><trkpt lat="43.032204" lon="11.0402765"><ele>446.0</ele><time>2026-05-02T16:25:49.616Z</time></trkpt><trkpt lat="43.032084" lon="11.0404259"><ele>446.0</ele><time>2026-05-02T16:25:50.626Z</time></trkpt><trkpt lat="43.0319581" lon="11.0405654"><ele>446.0</ele><time>2026-05-02T16:25:51.622Z</time></trkpt><trkpt lat="43.0318366" lon="11.0407033"><ele>446.0</ele><time>2026-05-02T16:25:52.622Z</time></trkpt><trkpt lat="43.0317257" lon="11.0408334"><ele>446.0</ele><time>2026-05-02T16:25:53.63Z</time></trkpt><trkpt lat="43.0316369" lon="11.0409622"><ele>446.0</ele><time>2026-05-02T16:25:54.623Z</time></trkpt><trkpt lat="43.0315705" lon="11.0410847"><ele>444.20000000000005</ele><time>2026-05-02T16:25:55.621Z</time></trkpt><trkpt lat="43.0315361" lon="11.0412194"><ele>442.40000000000003</ele><time>2026-05-02T16:25:56.622Z</time></trkpt><trkpt lat="43.0315377" lon="11.0413645"><ele>440.6</ele><time>2026-05-02T16:25:57.625Z</time></trkpt><trkpt lat="43.0315347" lon="11.0414961"><ele>438.8</ele><time>2026-05-02T16:25:58.612Z</time></trkpt><trkpt lat="43.0314401" lon="11.0415845"><ele>437.0</ele><time>2026-05-02T16:26:00.617Z</time></trkpt><trkpt lat="43.0313494" lon="11.0415648"><ele>437.0</ele><time>2026-05-02T16:26:01.615Z</time></trkpt><trkpt lat="43.0312613" lon="11.0415152"><ele>437.00000000000006</ele><time>2026-05-02T16:26:02.627Z</time></trkpt><trkpt lat="43.0311581" lon="11.0415302"><ele>437.00000000000006</ele><time>2026-05-02T16:26:03.622Z</time></trkpt><trkpt lat="43.0310582" lon="11.0416015"><ele>437.0</ele><time>2026-05-02T16:26:04.623Z</time></trkpt><trkpt lat="43.0309648" lon="11.041713"><ele>437.0</ele><time>2026-05-02T16:26:05.622Z</time></trkpt><trkpt lat="43.0308741" lon="11.0418479"><ele>436.75</ele><time>2026-05-02T16:26:06.624Z</time></trkpt><trkpt lat="43.030807" lon="11.0420047"><ele>436.5</ele><time>2026-05-02T16:26:07.617Z</time></trkpt><trkpt lat="43.0307677" lon="11.0421764"><ele>436.25</ele><time>2026-05-02T16:26:08.628Z</time></trkpt><trkpt lat="43.030756" lon="11.042332"><ele>436.0</ele><time>2026-05-02T16:26:09.622Z</time></trkpt><trkpt lat="43.0307514" lon="11.0424592"><ele>436.00000000000006</ele><time>2026-05-02T16:26:10.617Z</time></trkpt><trkpt lat="43.0307281" lon="11.0425684"><ele>436.0</ele><time>2026-05-02T16:26:11.618Z</time></trkpt><trkpt lat="43.0306649" lon="11.0426174"><ele>436.0</ele><time>2026-05-02T16:26:12.629Z</time></trkpt><trkpt lat="43.0305774" lon="11.0425932"><ele>436.0</ele><time>2026-05-02T16:26:13.62Z</time></trkpt><trkpt lat="43.03049" lon="11.042529"><ele>436.00000000000006</ele><time>2026-05-02T16:26:14.624Z</time></trkpt><trkpt lat="43.0303968" lon="11.0424645"><ele>436.0</ele><time>2026-05-02T16:26:15.616Z</time></trkpt><trkpt lat="43.0302915" lon="11.0424289"><ele>436.0</ele><time>2026-05-02T16:26:16.624Z</time></trkpt><trkpt lat="43.0301759" lon="11.0424333"><ele>436.0</ele><time>2026-05-02T16:26:17.62Z</time></trkpt><trkpt lat="43.0300663" lon="11.0424581"><ele>436.0</ele><time>2026-05-02T16:26:18.626Z</time></trkpt><trkpt lat="43.029958" lon="11.0425073"><ele>436.0</ele><time>2026-05-02T16:26:19.623Z</time></trkpt><trkpt lat="43.0298463" lon="11.0425581"><ele>440.0</ele><time>2026-05-02T16:26:20.621Z</time></trkpt><trkpt lat="43.029728" lon="11.0426006"><ele>444.0</ele><time>2026-05-02T16:26:21.627Z</time></trkpt><trkpt lat="43.0296006" lon="11.0426317"><ele>448.0</ele><time>2026-05-02T16:26:22.624Z</time></trkpt><trkpt lat="43.02947" lon="11.0426519"><ele>452.0</ele><time>2026-05-02T16:26:23.629Z</time></trkpt><trkpt lat="43.0293475" lon="11.0426748"><ele>451.99999999999994</ele><time>2026-05-02T16:26:24.641Z</time></trkpt><trkpt lat="43.0292586" lon="11.0427078"><ele>452.0</ele><time>2026-05-02T16:26:25.631Z</time></trkpt><trkpt lat="43.0291983" lon="11.0427483"><ele>452.0</ele><time>2026-05-02T16:26:26.629Z</time></trkpt><trkpt lat="43.0291261" lon="11.0428174"><ele>452.0</ele><time>2026-05-02T16:26:28.628Z</time></trkpt><trkpt lat="43.0292081" lon="11.0428276"><ele>451.99999999999994</ele><time>2026-05-02T16:26:32.629Z</time></trkpt><trkpt lat="43.0292651" lon="11.0427605"><ele>452.0</ele><time>2026-05-02T16:26:33.651Z</time></trkpt><trkpt lat="43.0293608" lon="11.0426958"><ele>452.0</ele><time>2026-05-02T16:26:34.635Z</time></trkpt><trkpt lat="43.0294929" lon="11.0426565"><ele>452.0</ele><time>2026-05-02T16:26:35.627Z</time></trkpt><trkpt lat="43.0296409" lon="11.0426393"><ele>452.0</ele><time>2026-05-02T16:26:36.63Z</time></trkpt><trkpt lat="43.0297937" lon="11.0426016"><ele>452.0</ele><time>2026-05-02T16:26:37.62Z</time></trkpt><trkpt lat="43.0299385" lon="11.0425454"><ele>453.5</ele><time>2026-05-02T16:26:38.634Z</time></trkpt><trkpt lat="43.0300691" lon="11.0424949"><ele>455.0</ele><time>2026-05-02T16:26:39.624Z</time></trkpt><trkpt lat="43.0301986" lon="11.0424684"><ele>456.5</ele><time>2026-05-02T16:26:40.616Z</time></trkpt><trkpt lat="43.0303376" lon="11.0424666"><ele>458.0</ele><time>2026-05-02T16:26:41.629Z</time></trkpt><trkpt lat="43.0304753" lon="11.0425162"><ele>458.0</ele><time>2026-05-02T16:26:42.623Z</time></trkpt><trkpt lat="43.030598" lon="11.0425775"><ele>457.99999999999994</ele><time>2026-05-02T16:26:43.629Z</time></trkpt><trkpt lat="43.0306931" lon="11.0426242"><ele>457.99999999999994</ele><time>2026-05-02T16:26:44.622Z</time></trkpt><trkpt lat="43.0307552" lon="11.0425925"><ele>458.0</ele><time>2026-05-02T16:26:45.625Z</time></trkpt><trkpt lat="43.0307861" lon="11.0424654"><ele>458.0</ele><time>2026-05-02T16:26:46.628Z</time></trkpt><trkpt lat="43.0307957" lon="11.0422977"><ele>457.0</ele><time>2026-05-02T16:26:47.619Z</time></trkpt><trkpt lat="43.030811" lon="11.0421122"><ele>456.0</ele><time>2026-05-02T16:26:48.619Z</time></trkpt><trkpt lat="43.0308745" lon="11.0419268"><ele>455.0</ele><time>2026-05-02T16:26:49.633Z</time></trkpt><trkpt lat="43.0309703" lon="11.0417526"><ele>454.0</ele><time>2026-05-02T16:26:50.631Z</time></trkpt><trkpt lat="43.0310698" lon="11.0416202"><ele>450.6</ele><time>2026-05-02T16:26:51.621Z</time></trkpt><trkpt lat="43.031167" lon="11.0415406"><ele>447.2</ele><time>2026-05-02T16:26:52.627Z</time></trkpt><trkpt lat="43.0312662" lon="11.0415021"><ele>443.80000000000007</ele><time>2026-05-02T16:26:53.62Z</time></trkpt><trkpt lat="43.0313584" lon="11.0415221"><ele>440.40000000000003</ele><time>2026-05-02T16:26:54.625Z</time></trkpt><trkpt lat="43.0314406" lon="11.041556"><ele>437.0</ele><time>2026-05-02T16:26:55.623Z</time></trkpt><trkpt lat="43.0315097" lon="11.0415313"><ele>436.99999999999994</ele><time>2026-05-02T16:26:56.62Z</time></trkpt><trkpt lat="43.0315402" lon="11.0414551"><ele>437.0</ele><time>2026-05-02T16:26:57.631Z</time></trkpt><trkpt lat="43.0315435" lon="11.0413386"><ele>437.0</ele><time>2026-05-02T16:26:58.625Z</time></trkpt><trkpt lat="43.0315367" lon="11.041222"><ele>437.0</ele><time>2026-05-02T16:26:59.629Z</time></trkpt><trkpt lat="43.0315417" lon="11.0411175"><ele>436.99999999999994</ele><time>2026-05-02T16:27:00.619Z</time></trkpt><trkpt lat="43.0315793" lon="11.0410298"><ele>437.0</ele><time>2026-05-02T16:27:01.632Z</time></trkpt><trkpt lat="43.0316324" lon="11.0409321"><ele>438.8</ele><time>2026-05-02T16:27:02.613Z</time></trkpt><trkpt lat="43.031698" lon="11.0408269"><ele>440.6</ele><time>2026-05-02T16:27:03.628Z</time></trkpt><trkpt lat="43.0317684" lon="11.0407239"><ele>442.40000000000003</ele><time>2026-05-02T16:27:04.618Z</time></trkpt><trkpt lat="43.0318529" lon="11.040631"><ele>444.20000000000005</ele><time>2026-05-02T16:27:05.617Z</time></trkpt><trkpt lat="43.0319493" lon="11.0405374"><ele>446.0</ele><time>2026-05-02T16:27:06.628Z</time></trkpt><trkpt lat="43.0320469" lon="11.0404328"><ele>446.0</ele><time>2026-05-02T16:27:07.626Z</time></trkpt><trkpt lat="43.0321436" lon="11.0403148"><ele>446.0</ele><time>2026-05-02T16:27:08.622Z</time></trkpt><trkpt lat="43.0322414" lon="11.0401911"><ele>446.0</ele><time>2026-05-02T16:27:09.625Z</time></trkpt><trkpt lat="43.0323463" lon="11.0400683"><ele>446.0</ele><time>2026-05-02T16:27:10.623Z</time></trkpt><trkpt lat="43.0324421" lon="11.0399565"><ele>446.20000000000005</ele><time>2026-05-02T16:27:11.628Z</time></trkpt><trkpt lat="43.0325234" lon="11.0398415"><ele>446.40000000000003</ele><time>2026-05-02T16:27:12.632Z</time></trkpt><trkpt lat="43.0325597" lon="11.0397203"><ele>446.6</ele><time>2026-05-02T16:27:13.622Z</time></trkpt><trkpt lat="43.0325446" lon="11.0396002"><ele>446.8</ele><time>2026-05-02T16:27:14.624Z</time></trkpt><trkpt lat="43.0324802" lon="11.0394919"><ele>447.0</ele><time>2026-05-02T16:27:15.625Z</time></trkpt><trkpt lat="43.032381" lon="11.0393987"><ele>447.0</ele><time>2026-05-02T16:27:16.628Z</time></trkpt><trkpt lat="43.0322712" lon="11.0393375"><ele>447.0</ele><time>2026-05-02T16:27:17.624Z</time></trkpt><trkpt lat="43.0321638" lon="11.0392802"><ele>447.0</ele><time>2026-05-02T16:27:18.624Z</time></trkpt><trkpt lat="43.0320678" lon="11.0392104"><ele>447.0</ele><time>2026-05-02T16:27:19.644Z</time></trkpt><trkpt lat="43.0319843" lon="11.0391146"><ele>446.20000000000005</ele><time>2026-05-02T16:27:20.619Z</time></trkpt><trkpt lat="43.031926" lon="11.0390108"><ele>445.40000000000003</ele><time>2026-05-02T16:27:21.629Z</time></trkpt><trkpt lat="43.0319063" lon="11.0388971"><ele>444.59999999999997</ele><time>2026-05-02T16:27:22.637Z</time></trkpt><trkpt lat="43.0319146" lon="11.0387976"><ele>443.79999999999995</ele><time>2026-05-02T16:27:23.626Z</time></trkpt><trkpt lat="43.0319951" lon="11.0386553"><ele>443.0</ele><time>2026-05-02T16:27:25.636Z</time></trkpt><trkpt lat="43.0320749" lon="11.0386088"><ele>443.0</ele><time>2026-05-02T16:27:26.628Z</time></trkpt><trkpt lat="43.0321783" lon="11.038579"><ele>442.99999999999994</ele><time>2026-05-02T16:27:27.627Z</time></trkpt><trkpt lat="43.0322881" lon="11.0385581"><ele>442.99999999999994</ele><time>2026-05-02T16:27:28.626Z</time></trkpt><trkpt lat="43.0324015" lon="11.0385387"><ele>443.0</ele><time>2026-05-02T16:27:29.622Z</time></trkpt><trkpt lat="43.032507" lon="11.0385423"><ele>443.0</ele><time>2026-05-02T16:27:30.628Z</time></trkpt><trkpt lat="43.0326024" lon="11.0385408"><ele>444.99999999999994</ele><time>2026-05-02T16:27:31.626Z</time></trkpt><trkpt lat="43.0326876" lon="11.0385196"><ele>447.0</ele><time>2026-05-02T16:27:32.627Z</time></trkpt><trkpt lat="43.03274" lon="11.0384459"><ele>449.0</ele><time>2026-05-02T16:27:33.627Z</time></trkpt><trkpt lat="43.0327627" lon="11.0383539"><ele>451.0</ele><time>2026-05-02T16:27:34.634Z</time></trkpt><trkpt lat="43.0327529" lon="11.0382298"><ele>452.99999999999994</ele><time>2026-05-02T16:27:35.621Z</time></trkpt><trkpt lat="43.032737" lon="11.0380723"><ele>455.0</ele><time>2026-05-02T16:27:36.627Z</time></trkpt><trkpt lat="43.0327161" lon="11.0379095"><ele>455.0</ele><time>2026-05-02T16:27:37.624Z</time></trkpt><trkpt lat="43.0326978" lon="11.0377377"><ele>455.0</ele><time>2026-05-02T16:27:38.623Z</time></trkpt><trkpt lat="43.0326696" lon="11.0375783"><ele>455.0</ele><time>2026-05-02T16:27:39.639Z</time></trkpt><trkpt lat="43.0326183" lon="11.0374236"><ele>455.0</ele><time>2026-05-02T16:27:40.636Z</time></trkpt><trkpt lat="43.0325382" lon="11.0372911"><ele>454.25</ele><time>2026-05-02T16:27:41.641Z</time></trkpt><trkpt lat="43.0324331" lon="11.0371834"><ele>453.5</ele><time>2026-05-02T16:27:42.63Z</time></trkpt><trkpt lat="43.0323081" lon="11.0371203"><ele>452.75</ele><time>2026-05-02T16:27:43.644Z</time></trkpt><trkpt lat="43.0321619" lon="11.0370748"><ele>452.0</ele><time>2026-05-02T16:27:44.634Z</time></trkpt><trkpt lat="43.0320095" lon="11.0370304"><ele>452.0</ele><time>2026-05-02T16:27:45.626Z</time></trkpt><trkpt lat="43.0318557" lon="11.036979"><ele>452.0</ele><time>2026-05-02T16:27:46.634Z</time></trkpt><trkpt lat="43.0317136" lon="11.0369162"><ele>452.0</ele><time>2026-05-02T16:27:47.626Z</time></trkpt><trkpt lat="43.0315767" lon="11.0368425"><ele>447.5</ele><time>2026-05-02T16:27:48.65Z</time></trkpt><trkpt lat="43.031459" lon="11.036764"><ele>443.0</ele><time>2026-05-02T16:27:49.631Z</time></trkpt><trkpt lat="43.031366" lon="11.0366782"><ele>438.5</ele><time>2026-05-02T16:27:50.645Z</time></trkpt><trkpt lat="43.0312939" lon="11.0365765"><ele>434.0</ele><time>2026-05-02T16:27:51.647Z</time></trkpt><trkpt lat="43.0312505" lon="11.0364476"><ele>433.5</ele><time>2026-05-02T16:27:52.635Z</time></trkpt><trkpt lat="43.0312262" lon="11.0362976"><ele>433.0</ele><time>2026-05-02T16:27:53.621Z</time></trkpt><trkpt lat="43.0312386" lon="11.036135"><ele>432.5</ele><time>2026-05-02T16:27:54.634Z</time></trkpt><trkpt lat="43.0312785" lon="11.035999"><ele>432.0</ele><time>2026-05-02T16:27:55.642Z</time></trkpt><trkpt lat="43.0313505" lon="11.0358791"><ele>431.5</ele><time>2026-05-02T16:27:56.634Z</time></trkpt><trkpt lat="43.031452" lon="11.0357863"><ele>431.0</ele><time>2026-05-02T16:27:57.629Z</time></trkpt><trkpt lat="43.0315627" lon="11.035707"><ele>430.5</ele><time>2026-05-02T16:27:58.626Z</time></trkpt><trkpt lat="43.0316765" lon="11.0356246"><ele>430.0</ele><time>2026-05-02T16:27:59.635Z</time></trkpt><trkpt lat="43.0317926" lon="11.0355375"><ele>434.0</ele><time>2026-05-02T16:28:00.63Z</time></trkpt><trkpt lat="43.0319088" lon="11.0354615"><ele>438.0</ele><time>2026-05-02T16:28:01.626Z</time></trkpt><trkpt lat="43.0320263" lon="11.0354048"><ele>442.0</ele><time>2026-05-02T16:28:02.631Z</time></trkpt><trkpt lat="43.0321308" lon="11.0353472"><ele>446.0</ele><time>2026-05-02T16:28:03.618Z</time></trkpt><trkpt lat="43.0322067" lon="11.035251"><ele>446.0</ele><time>2026-05-02T16:28:04.626Z</time></trkpt><trkpt lat="43.0322424" lon="11.0351272"><ele>446.0</ele><time>2026-05-02T16:28:05.63Z</time></trkpt><trkpt lat="43.0322479" lon="11.0349929"><ele>446.0</ele><time>2026-05-02T16:28:06.637Z</time></trkpt><trkpt lat="43.0322382" lon="11.0348479"><ele>446.0</ele><time>2026-05-02T16:28:07.619Z</time></trkpt><trkpt lat="43.0322191" lon="11.0347256"><ele>446.0</ele><time>2026-05-02T16:28:08.623Z</time></trkpt><trkpt lat="43.0321767" lon="11.0346319"><ele>455.0</ele><time>2026-05-02T16:28:09.622Z</time></trkpt><trkpt lat="43.0326696" lon="11.0375783"><ele>454.25</ele><time>2026-05-02T16:27:39.639Z</time></trkpt><trkpt lat="43.0326183" lon="11.0374236"><ele>453.5</ele><time>2026-05-02T16:27:40.636Z</time></trkpt><trkpt lat="43.0325382" lon="11.0372911"><ele>452.75</ele><time>2026-05-02T16:27:41.641Z</time></trkpt><trkpt lat="43.0324331" lon="11.0371834"><ele>452.0</ele><time>2026-05-02T16:27:42.63Z</time></trkpt><trkpt lat="43.0323081" lon="11.0371203"><ele>452.0</ele><time>2026-05-02T16:27:43.644Z</time></trkpt><trkpt lat="43.0321619" lon="11.0370748"><ele>452.0</ele><time>2026-05-02T16:27:44.634Z</time></trkpt><trkpt lat="43.0320095" lon="11.0370304"><ele>452.0</ele><time>2026-05-02T16:27:45.626Z</time></trkpt><trkpt lat="43.0318557" lon="11.036979"><ele>452.0</ele><time>2026-05-02T16:27:46.634Z</time></trkpt><trkpt lat="43.0317136" lon="11.0369162"><ele>452.0</ele><time>2026-05-02T16:27:47.626Z</time></trkpt><trkpt lat="43.0315767" lon="11.0368425"><ele>452.0</ele><time>2026-05-02T16:27:48.65Z</time></trkpt><trkpt lat="43.031459" lon="11.036764"><ele>452.0</ele><time>2026-05-02T16:27:49.631Z</time></trkpt><trkpt lat="43.031366" lon="11.0366782"><ele>448.0</ele><time>2026-05-02T16:27:50.645Z</time></trkpt><trkpt lat="43.0312939" lon="11.0365765"><ele>444.00000000000006</ele><time>2026-05-02T16:27:51.647Z</time></trkpt><trkpt lat="43.0312505" lon="11.0364476"><ele>440.00000000000006</ele><time>2026-05-02T16:27:52.635Z</time></trkpt><trkpt lat="43.0312262" lon="11.0362976"><ele>436.0</ele><time>2026-05-02T16:27:53.621Z</time></trkpt><trkpt lat="43.0312386" lon="11.036135"><ele>432.0</ele><time>2026-05-02T16:27:54.634Z</time></trkpt><trkpt lat="43.0312785" lon="11.035999"><ele>432.0</ele><time>2026-05-02T16:27:55.642Z</time></trkpt><trkpt lat="43.0313505" lon="11.0358791"><ele>432.0</ele><time>2026-05-02T16:27:56.634Z</time></trkpt><trkpt lat="43.031452" lon="11.0357863"><ele>432.0</ele><time>2026-05-02T16:27:57.629Z</time></trkpt><trkpt lat="43.0315627" lon="11.035707"><ele>432.0</ele><time>2026-05-02T16:27:58.626Z</time></trkpt><trkpt lat="43.0316765" lon="11.0356246"><ele>435.5</ele><time>2026-05-02T16:27:59.635Z</time></trkpt><trkpt lat="43.0317926" lon="11.0355375"><ele>439.0</ele><time>2026-05-02T16:28:00.63Z</time></trkpt><trkpt lat="43.0319088" lon="11.0354615"><ele>442.5</ele><time>2026-05-02T16:28:01.626Z</time></trkpt><trkpt lat="43.0320263" lon="11.0354048"><ele>446.0</ele><time>2026-05-02T16:28:02.631Z</time></trkpt><trkpt lat="43.0321308" lon="11.0353472"><ele>446.0</ele><time>2026-05-02T16:28:03.618Z</time></trkpt><trkpt lat="43.0322067" lon="11.035251"><ele>446.0</ele><time>2026-05-02T16:28:04.626Z</time></trkpt><trkpt lat="43.0322424" lon="11.0351272"><ele>446.0</ele><time>2026-05-02T16:28:05.63Z</time></trkpt><trkpt lat="43.0322479" lon="11.0349929"><ele>446.0</ele><time>2026-05-02T16:28:06.637Z</time></trkpt><trkpt lat="43.0322382" lon="11.0348479"><ele>446.0</ele><time>2026-05-02T16:28:07.619Z</time></trkpt><trkpt lat="43.0322191" lon="11.0347256"><ele>447.20000000000005</ele><time>2026-05-02T16:28:08.623Z</time></trkpt><trkpt lat="43.0321767" lon="11.0346319"><ele>448.40000000000003</ele><time>2026-05-02T16:28:09.622Z</time></trkpt><trkpt lat="43.0321107" lon="11.0345616"><ele>449.6</ele><time>2026-05-02T16:28:10.621Z</time></trkpt><trkpt lat="43.0320219" lon="11.0345655"><ele>450.8</ele><time>2026-05-02T16:28:11.628Z</time></trkpt><trkpt lat="43.0319264" lon="11.0346376"><ele>452.0</ele><time>2026-05-02T16:28:12.625Z</time></trkpt><trkpt lat="43.0318361" lon="11.0347606"><ele>452.0</ele><time>2026-05-02T16:28:13.629Z</time></trkpt><trkpt lat="43.0317213" lon="11.034881"><ele>452.0</ele><time>2026-05-02T16:28:14.627Z</time></trkpt><trkpt lat="43.0315939" lon="11.0349686"><ele>452.0</ele><time>2026-05-02T16:28:15.616Z</time></trkpt><trkpt lat="43.0314659" lon="11.0350262"><ele>452.0</ele><time>2026-05-02T16:28:16.621Z</time></trkpt><trkpt lat="43.0313375" lon="11.0350251"><ele>448.0</ele><time>2026-05-02T16:28:17.621Z</time></trkpt><trkpt lat="43.0312232" lon="11.0349737"><ele>444.00000000000006</ele><time>2026-05-02T16:28:18.63Z</time></trkpt><trkpt lat="43.0311273" lon="11.0348979"><ele>440.00000000000006</ele><time>2026-05-02T16:28:19.627Z</time></trkpt><trkpt lat="43.0310695" lon="11.0347745"><ele>436.0</ele><time>2026-05-02T16:28:20.634Z</time></trkpt><trkpt lat="43.0310481" lon="11.0346445"><ele>432.0</ele><time>2026-05-02T16:28:21.634Z</time></trkpt><trkpt lat="43.0310391" lon="11.0345012"><ele>432.0</ele><time>2026-05-02T16:28:22.627Z</time></trkpt><trkpt lat="43.0310604" lon="11.0343457"><ele>432.0</ele><time>2026-05-02T16:28:23.624Z</time></trkpt><trkpt lat="43.0310995" lon="11.0341929"><ele>432.0</ele><time>2026-05-02T16:28:24.635Z</time></trkpt><trkpt lat="43.0311421" lon="11.034047"><ele>432.0</ele><time>2026-05-02T16:28:25.624Z</time></trkpt><trkpt lat="43.0311956" lon="11.0338916"><ele>432.5</ele><time>2026-05-02T16:28:26.632Z</time></trkpt><trkpt lat="43.0312487" lon="11.0337336"><ele>433.0</ele><time>2026-05-02T16:28:27.625Z</time></trkpt><trkpt lat="43.0313181" lon="11.0335701"><ele>433.5</ele><time>2026-05-02T16:28:28.617Z</time></trkpt><trkpt lat="43.031402" lon="11.0334004"><ele>434.0</ele><time>2026-05-02T16:28:29.63Z</time></trkpt><trkpt lat="43.0314879" lon="11.0332214"><ele>434.0</ele><time>2026-05-02T16:28:30.646Z</time></trkpt><trkpt lat="43.031566" lon="11.0330356"><ele>434.0</ele><time>2026-05-02T16:28:31.636Z</time></trkpt><trkpt lat="43.0316174" lon="11.0328617"><ele>434.0</ele><time>2026-05-02T16:28:32.621Z</time></trkpt><trkpt lat="43.0316285" lon="11.0327106"><ele>434.0</ele><time>2026-05-02T16:28:33.632Z</time></trkpt><trkpt lat="43.0315856" lon="11.0325852"><ele>434.0</ele><time>2026-05-02T16:28:34.622Z</time></trkpt><trkpt lat="43.0315088" lon="11.0325087"><ele>434.0</ele><time>2026-05-02T16:28:35.634Z</time></trkpt><trkpt lat="43.0314022" lon="11.0324935"><ele>434.0</ele><time>2026-05-02T16:28:36.634Z</time></trkpt><trkpt lat="43.0312987" lon="11.0325422"><ele>434.0</ele><time>2026-05-02T16:28:37.622Z</time></trkpt><trkpt lat="43.0311709" lon="11.0326057"><ele>434.0</ele><time>2026-05-02T16:28:38.62Z</time></trkpt><trkpt lat="43.0310465" lon="11.0326687"><ele>434.0</ele><time>2026-05-02T16:28:39.633Z</time></trkpt><trkpt lat="43.0309195" lon="11.0327091"><ele>434.0</ele><time>2026-05-02T16:28:40.63Z</time></trkpt><trkpt lat="43.0307905" lon="11.032707"><ele>434.0</ele><time>2026-05-02T16:28:41.627Z</time></trkpt><trkpt lat="43.0306644" lon="11.0326645"><ele>434.0</ele><time>2026-05-02T16:28:42.627Z</time></trkpt><trkpt lat="43.0305407" lon="11.0325853"><ele>432.5</ele><time>2026-05-02T16:28:43.634Z</time></trkpt><trkpt lat="43.0304204" lon="11.0324946"><ele>431.0</ele><time>2026-05-02T16:28:44.628Z</time></trkpt><trkpt lat="43.0302977" lon="11.0324019"><ele>429.5</ele><time>2026-05-02T16:28:45.623Z</time></trkpt><trkpt lat="43.0301729" lon="11.0323213"><ele>428.0</ele><time>2026-05-02T16:28:46.622Z</time></trkpt><trkpt lat="43.0300475" lon="11.0322492"><ele>433.5</ele><time>2026-05-02T16:28:47.634Z</time></trkpt><trkpt lat="43.029922" lon="11.0322009"><ele>439.0</ele><time>2026-05-02T16:28:48.64Z</time></trkpt><trkpt lat="43.029798" lon="11.0321729"><ele>444.5</ele><time>2026-05-02T16:28:49.619Z</time></trkpt><trkpt lat="43.0296791" lon="11.0321864"><ele>450.0</ele><time>2026-05-02T16:28:50.632Z</time></trkpt><trkpt lat="43.0295623" lon="11.0322124"><ele>450.0</ele><time>2026-05-02T16:28:51.638Z</time></trkpt><trkpt lat="43.029462" lon="11.0322436"><ele>450.0</ele><time>2026-05-02T16:28:52.621Z</time></trkpt><trkpt lat="43.0293727" lon="11.0322608"><ele>450.0</ele><time>2026-05-02T16:28:53.628Z</time></trkpt><trkpt lat="43.0292887" lon="11.0322542"><ele>450.0</ele><time>2026-05-02T16:28:54.637Z</time></trkpt><trkpt lat="43.0292004" lon="11.0322225"><ele>450.0</ele><time>2026-05-02T16:28:55.643Z</time></trkpt><trkpt lat="43.0291119" lon="11.0321631"><ele>448.6</ele><time>2026-05-02T16:28:56.623Z</time></trkpt><trkpt lat="43.0290286" lon="11.032094"><ele>447.2</ele><time>2026-05-02T16:28:57.636Z</time></trkpt><trkpt lat="43.0289448" lon="11.0320222"><ele>445.79999999999995</ele><time>2026-05-02T16:28:58.636Z</time></trkpt><trkpt lat="43.028858" lon="11.0319568"><ele>444.4</ele><time>2026-05-02T16:28:59.626Z</time></trkpt><trkpt lat="43.0287603" lon="11.0319181"><ele>443.0</ele><time>2026-05-02T16:29:00.637Z</time></trkpt><trkpt lat="43.0286477" lon="11.0319004"><ele>443.0</ele><time>2026-05-02T16:29:01.638Z</time></trkpt><trkpt lat="43.0285284" lon="11.0318988"><ele>443.0</ele><time>2026-05-02T16:29:02.629Z</time></trkpt><trkpt lat="43.028412" lon="11.0318561"><ele>443.0</ele><time>2026-05-02T16:29:03.635Z</time></trkpt><trkpt lat="43.0282973" lon="11.0317971"><ele>443.0</ele><time>2026-05-02T16:29:04.632Z</time></trkpt><trkpt lat="43.0281922" lon="11.0317195"><ele>442.5</ele><time>2026-05-02T16:29:05.64Z</time></trkpt><trkpt lat="43.0280979" lon="11.0316252"><ele>442.0</ele><time>2026-05-02T16:29:06.63Z</time></trkpt><trkpt lat="43.0280074" lon="11.0315213"><ele>441.5</ele><time>2026-05-02T16:29:07.633Z</time></trkpt><trkpt lat="43.0279182" lon="11.0314156"><ele>441.0</ele><time>2026-05-02T16:29:08.643Z</time></trkpt><trkpt lat="43.0278288" lon="11.0313067"><ele>441.0</ele><time>2026-05-02T16:29:09.635Z</time></trkpt><trkpt lat="43.0277409" lon="11.0312052"><ele>441.0</ele><time>2026-05-02T16:29:10.63Z</time></trkpt><trkpt lat="43.0276539" lon="11.0310991"><ele>441.0</ele><time>2026-05-02T16:29:11.642Z</time></trkpt><trkpt lat="43.0275625" lon="11.0309768"><ele>441.0</ele><time>2026-05-02T16:29:12.638Z</time></trkpt><trkpt lat="43.0274625" lon="11.0308449"><ele>437.75</ele><time>2026-05-02T16:29:13.637Z</time></trkpt><trkpt lat="43.0273623" lon="11.030711"><ele>434.5</ele><time>2026-05-02T16:29:14.652Z</time></trkpt><trkpt lat="43.0272587" lon="11.0305737"><ele>431.25</ele><time>2026-05-02T16:29:15.628Z</time></trkpt><trkpt lat="43.0271575" lon="11.0304273"><ele>428.0</ele><time>2026-05-02T16:29:16.632Z</time></trkpt><trkpt lat="43.0270665" lon="11.030296"><ele>428.0</ele><time>2026-05-02T16:29:17.641Z</time></trkpt><trkpt lat="43.0269779" lon="11.0301663"><ele>428.0</ele><time>2026-05-02T16:29:18.617Z</time></trkpt><trkpt lat="43.0268798" lon="11.0300615"><ele>428.0</ele><time>2026-05-02T16:29:19.637Z</time></trkpt><trkpt lat="43.0267622" lon="11.0299906"><ele>428.0</ele><time>2026-05-02T16:29:20.633Z</time></trkpt><trkpt lat="43.0266182" lon="11.0299795"><ele>427.75</ele><time>2026-05-02T16:29:21.646Z</time></trkpt><trkpt lat="43.0264771" lon="11.0299991"><ele>427.5</ele><time>2026-05-02T16:29:22.635Z</time></trkpt><trkpt lat="43.0263322" lon="11.0300449"><ele>427.25</ele><time>2026-05-02T16:29:23.633Z</time></trkpt><trkpt lat="43.0261957" lon="11.0301141"><ele>427.0</ele><time>2026-05-02T16:29:24.634Z</time></trkpt><trkpt lat="43.0260552" lon="11.0301709"><ele>427.0</ele><time>2026-05-02T16:29:25.65Z</time></trkpt><trkpt lat="43.0259097" lon="11.0302117"><ele>427.0</ele><time>2026-05-02T16:29:26.634Z</time></trkpt><trkpt lat="43.025765" lon="11.0302346"><ele>427.0</ele><time>2026-05-02T16:29:27.634Z</time></trkpt><trkpt lat="43.0256206" lon="11.0302582"><ele>427.0</ele><time>2026-05-02T16:29:28.64Z</time></trkpt><trkpt lat="43.0254895" lon="11.0302786"><ele>424.6</ele><time>2026-05-02T16:29:29.634Z</time></trkpt><trkpt lat="43.025367" lon="11.0303009"><ele>422.20000000000005</ele><time>2026-05-02T16:29:30.635Z</time></trkpt><trkpt lat="43.0252583" lon="11.0303014"><ele>419.8</ele><time>2026-05-02T16:29:31.633Z</time></trkpt><trkpt lat="43.0251699" lon="11.0302668"><ele>417.4</ele><time>2026-05-02T16:29:32.628Z</time></trkpt><trkpt lat="43.0251028" lon="11.0301954"><ele>415.0</ele><time>2026-05-02T16:29:33.64Z</time></trkpt><trkpt lat="43.0250629" lon="11.0300983"><ele>415.0</ele><time>2026-05-02T16:29:34.632Z</time></trkpt><trkpt lat="43.0250459" lon="11.0299778"><ele>415.0</ele><time>2026-05-02T16:29:35.633Z</time></trkpt><trkpt lat="43.0250487" lon="11.0298391"><ele>415.0</ele><time>2026-05-02T16:29:36.645Z</time></trkpt><trkpt lat="43.0250623" lon="11.0296957"><ele>415.0</ele><time>2026-05-02T16:29:37.637Z</time></trkpt><trkpt lat="43.0250772" lon="11.0295548"><ele>415.0</ele><time>2026-05-02T16:29:38.625Z</time></trkpt><trkpt lat="43.0250798" lon="11.0294223"><ele>414.33333333333337</ele><time>2026-05-02T16:29:39.633Z</time></trkpt><trkpt lat="43.0250569" lon="11.0293068"><ele>413.6666666666667</ele><time>2026-05-02T16:29:40.634Z</time></trkpt><trkpt lat="43.0250047" lon="11.0292271"><ele>413.0</ele><time>2026-05-02T16:29:41.629Z</time></trkpt><trkpt lat="43.0249442" lon="11.0291657"><ele>412.33333333333337</ele><time>2026-05-02T16:29:42.641Z</time></trkpt><trkpt lat="43.0248727" lon="11.0291194"><ele>411.6666666666667</ele><time>2026-05-02T16:29:43.638Z</time></trkpt><trkpt lat="43.0247877" lon="11.0290765"><ele>411.0</ele><time>2026-05-02T16:29:44.628Z</time></trkpt><trkpt lat="43.0247042" lon="11.0290431"><ele>413.5</ele><time>2026-05-02T16:29:45.628Z</time></trkpt><trkpt lat="43.0246183" lon="11.0290245"><ele>416.0</ele><time>2026-05-02T16:29:46.634Z</time></trkpt><trkpt lat="43.0245382" lon="11.0290112"><ele>418.5</ele><time>2026-05-02T16:29:47.631Z</time></trkpt><trkpt lat="43.0244648" lon="11.0290079"><ele>421.0</ele><time>2026-05-02T16:29:48.645Z</time></trkpt><trkpt lat="43.0243935" lon="11.0290137"><ele>423.5</ele><time>2026-05-02T16:29:49.632Z</time></trkpt><trkpt lat="43.024319" lon="11.0290162"><ele>426.0</ele><time>2026-05-02T16:29:50.627Z</time></trkpt><trkpt lat="43.0242396" lon="11.0290105"><ele>426.0</ele><time>2026-05-02T16:29:51.635Z</time></trkpt><trkpt lat="43.0241608" lon="11.0289947"><ele>426.0</ele><time>2026-05-02T16:29:52.629Z</time></trkpt><trkpt lat="43.0240866" lon="11.0289653"><ele>426.0</ele><time>2026-05-02T16:29:53.635Z</time></trkpt><trkpt lat="43.0240194" lon="11.0289271"><ele>426.0</ele><time>2026-05-02T16:29:54.636Z</time></trkpt><trkpt lat="43.0239563" lon="11.0288676"><ele>426.0</ele><time>2026-05-02T16:29:55.627Z</time></trkpt><trkpt lat="43.0238898" lon="11.0287949"><ele>426.0</ele><time>2026-05-02T16:29:56.638Z</time></trkpt><trkpt lat="43.0238167" lon="11.0287125"><ele>424.6666666666667</ele><time>2026-05-02T16:29:57.64Z</time></trkpt><trkpt lat="43.023744" lon="11.028636"><ele>423.33333333333337</ele><time>2026-05-02T16:29:58.628Z</time></trkpt><trkpt lat="43.0236753" lon="11.028566"><ele>422.0</ele><time>2026-05-02T16:29:59.629Z</time></trkpt><trkpt lat="43.0236093" lon="11.0285004"><ele>420.6666666666667</ele><time>2026-05-02T16:30:00.631Z</time></trkpt><trkpt lat="43.0235411" lon="11.0284407"><ele>419.33333333333337</ele><time>2026-05-02T16:30:01.631Z</time></trkpt><trkpt lat="43.0234728" lon="11.0283609"><ele>418.0</ele><time>2026-05-02T16:30:02.636Z</time></trkpt><trkpt lat="43.0233968" lon="11.0282809"><ele>418.00000000000006</ele><time>2026-05-02T16:30:03.631Z</time></trkpt><trkpt lat="43.0233184" lon="11.0281982"><ele>418.0</ele><time>2026-05-02T16:30:04.638Z</time></trkpt><trkpt lat="43.0232441" lon="11.0281322"><ele>418.0</ele><time>2026-05-02T16:30:05.644Z</time></trkpt><trkpt lat="43.023176" lon="11.0280748"><ele>418.0</ele><time>2026-05-02T16:30:06.641Z</time></trkpt><trkpt lat="43.02311" lon="11.0280352"><ele>418.00000000000006</ele><time>2026-05-02T16:30:07.63Z</time></trkpt><trkpt lat="43.0230267" lon="11.0279776"><ele>418.0</ele><time>2026-05-02T16:30:09.636Z</time></trkpt><trkpt lat="43.022963" lon="11.0279397"><ele>416.59999999999997</ele><time>2026-05-02T16:30:12.628Z</time></trkpt><trkpt lat="43.0229033" lon="11.0279826"><ele>415.2</ele><time>2026-05-02T16:30:15.627Z</time></trkpt><trkpt lat="43.0228569" lon="11.0281296"><ele>413.8</ele><time>2026-05-02T16:30:17.625Z</time></trkpt><trkpt lat="43.0228433" lon="11.0282324"><ele>412.4</ele><time>2026-05-02T16:30:18.629Z</time></trkpt><trkpt lat="43.0228217" lon="11.0283539"><ele>411.0</ele><time>2026-05-02T16:30:19.625Z</time></trkpt><trkpt lat="43.0227904" lon="11.0284824"><ele>410.3333333333333</ele><time>2026-05-02T16:30:20.617Z</time></trkpt><trkpt lat="43.0227596" lon="11.0286042"><ele>409.66666666666663</ele><time>2026-05-02T16:30:21.637Z</time></trkpt><trkpt lat="43.0227291" lon="11.0287034"><ele>409.0</ele><time>2026-05-02T16:30:22.639Z</time></trkpt><trkpt lat="43.0226872" lon="11.0287848"><ele>408.3333333333333</ele><time>2026-05-02T16:30:23.635Z</time></trkpt><trkpt lat="43.0226272" lon="11.0288286"><ele>407.66666666666663</ele><time>2026-05-02T16:30:24.649Z</time></trkpt><trkpt lat="43.0225448" lon="11.0287715"><ele>407.0</ele><time>2026-05-02T16:30:26.625Z</time></trkpt><trkpt lat="43.0225348" lon="11.0286573"><ele>406.99999999999994</ele><time>2026-05-02T16:30:28.623Z</time></trkpt><trkpt lat="43.0225317" lon="11.0285479"><ele>407.0</ele><time>2026-05-02T16:30:31.63Z</time></trkpt><trkpt lat="43.022524" lon="11.0284553"><ele>407.0</ele><time>2026-05-02T16:30:34.624Z</time></trkpt><trkpt lat="43.02251" lon="11.0283541"><ele>407.0</ele><time>2026-05-02T16:30:39.628Z</time></trkpt><trkpt lat="43.0225367" lon="11.028231"><ele>406.99999999999994</ele><time>2026-05-02T16:30:50.636Z</time></trkpt><trkpt lat="43.0225357" lon="11.028394"><ele>407.0</ele><time>2026-05-02T16:30:57.623Z</time></trkpt><trkpt lat="43.0225295" lon="11.0285032"><ele>406.99999999999994</ele><time>2026-05-02T16:30:58.623Z</time></trkpt><trkpt lat="43.0225215" lon="11.0286152"><ele>407.0</ele><time>2026-05-02T16:30:59.636Z</time></trkpt><trkpt lat="43.0225221" lon="11.0287199"><ele>407.0</ele><time>2026-05-02T16:31:00.637Z</time></trkpt><trkpt lat="43.0225364" lon="11.0288141"><ele>407.0</ele><time>2026-05-02T16:31:01.633Z</time></trkpt><trkpt lat="43.0225984" lon="11.0289036"><ele>406.99999999999994</ele><time>2026-05-02T16:31:03.627Z</time></trkpt><trkpt lat="43.0226775" lon="11.0288781"><ele>407.0</ele><time>2026-05-02T16:31:05.629Z</time></trkpt><trkpt lat="43.0227393" lon="11.0287909"><ele>406.99999999999994</ele><time>2026-05-02T16:31:07.64Z</time></trkpt><trkpt lat="43.0227023" lon="11.0287043"><ele>407.0</ele><time>2026-05-02T16:31:10.626Z</time></trkpt><trkpt lat="43.0226673" lon="11.0287824"><ele>407.0</ele><time>2026-05-02T16:31:12.621Z</time></trkpt><trkpt lat="43.0225859" lon="11.0287965"><ele>407.0</ele><time>2026-05-02T16:31:14.633Z</time></trkpt><trkpt lat="43.0225365" lon="11.0286952"><ele>406.99999999999994</ele><time>2026-05-02T16:31:16.623Z</time></trkpt><trkpt lat="43.0225432" lon="11.0286045"><ele>407.0</ele><time>2026-05-02T16:31:19.626Z</time></trkpt><trkpt lat="43.0225042" lon="11.0285014"><ele>406.99999999999994</ele><time>2026-05-02T16:58:20.621Z</time></trkpt><trkpt lat="43.0224983" lon="11.0283889"><ele>407.0</ele><time>2026-05-02T16:58:23.624Z</time></trkpt><trkpt lat="43.0225329" lon="11.0283002"><ele>407.0</ele><time>2026-05-02T16:58:51.618Z</time></trkpt><trkpt lat="43.0225048" lon="11.0281718"><ele>407.0</ele><time>2026-05-02T16:58:53.628Z</time></trkpt><trkpt lat="43.0224258" lon="11.0280537"><ele>406.99999999999994</ele><time>2026-05-02T16:58:55.62Z</time></trkpt><trkpt lat="43.0223779" lon="11.0279967"><ele>407.0</ele><time>2026-05-02T16:58:56.616Z</time></trkpt><trkpt lat="43.0223281" lon="11.0279366"><ele>404.66666666666663</ele><time>2026-05-02T16:58:57.631Z</time></trkpt><trkpt lat="43.0222817" lon="11.0278745"><ele>402.3333333333333</ele><time>2026-05-02T16:58:58.619Z</time></trkpt><trkpt lat="43.0222001" lon="11.0277806"><ele>400.0</ele><time>2026-05-02T16:59:00.619Z</time></trkpt><trkpt lat="43.0221441" lon="11.0277039"><ele>397.66666666666663</ele><time>2026-05-02T16:59:02.619Z</time></trkpt><trkpt lat="43.0220988" lon="11.027635"><ele>395.3333333333333</ele><time>2026-05-02T16:59:04.624Z</time></trkpt><trkpt lat="43.0220504" lon="11.0275429"><ele>393.0</ele><time>2026-05-02T16:59:06.628Z</time></trkpt><trkpt lat="43.022007" lon="11.0274464"><ele>391.79999999999995</ele><time>2026-05-02T16:59:08.615Z</time></trkpt><trkpt lat="43.0219847" lon="11.0273186"><ele>390.6</ele><time>2026-05-02T16:59:10.62Z</time></trkpt><trkpt lat="43.0219786" lon="11.0271736"><ele>389.4</ele><time>2026-05-02T16:59:12.624Z</time></trkpt><trkpt lat="43.0220092" lon="11.0270084"><ele>388.20000000000005</ele><time>2026-05-02T16:59:14.623Z</time></trkpt><trkpt lat="43.0220356" lon="11.0269245"><ele>387.0</ele><time>2026-05-02T16:59:15.622Z</time></trkpt><trkpt lat="43.0220725" lon="11.0268414"><ele>387.0</ele><time>2026-05-02T16:59:16.611Z</time></trkpt><trkpt lat="43.0221116" lon="11.0267592"><ele>387.0</ele><time>2026-05-02T16:59:17.613Z</time></trkpt><trkpt lat="43.0221454" lon="11.0266837"><ele>387.0</ele><time>2026-05-02T16:59:18.624Z</time></trkpt><trkpt lat="43.0222147" lon="11.0265689"><ele>387.0</ele><time>2026-05-02T16:59:20.614Z</time></trkpt><trkpt lat="43.0222843" lon="11.0264826"><ele>387.0</ele><time>2026-05-02T16:59:22.613Z</time></trkpt><trkpt lat="43.0223558" lon="11.0264037"><ele>387.0</ele><time>2026-05-02T16:59:24.608Z</time></trkpt><trkpt lat="43.0223319" lon="11.0262789"><ele>383.8</ele><time>2026-05-02T16:59:26.614Z</time></trkpt><trkpt lat="43.0222133" lon="11.0262537"><ele>380.6</ele><time>2026-05-02T16:59:28.611Z</time></trkpt><trkpt lat="43.0221406" lon="11.0263013"><ele>377.40000000000003</ele><time>2026-05-02T16:59:29.612Z</time></trkpt><trkpt lat="43.022064" lon="11.0263609"><ele>374.20000000000005</ele><time>2026-05-02T16:59:30.615Z</time></trkpt><trkpt lat="43.0219716" lon="11.0264186"><ele>371.0</ele><time>2026-05-02T16:59:31.617Z</time></trkpt><trkpt lat="43.0218865" lon="11.0264753"><ele>371.0</ele><time>2026-05-02T16:59:32.618Z</time></trkpt><trkpt lat="43.0217988" lon="11.0265437"><ele>371.0</ele><time>2026-05-02T16:59:33.618Z</time></trkpt><trkpt lat="43.0217256" lon="11.0266159"><ele>371.0</ele><time>2026-05-02T16:59:34.617Z</time></trkpt><trkpt lat="43.0216549" lon="11.026695"><ele>371.0</ele><time>2026-05-02T16:59:35.626Z</time></trkpt><trkpt lat="43.0215922" lon="11.0267692"><ele>371.0</ele><time>2026-05-02T16:59:36.629Z</time></trkpt><trkpt lat="43.021535" lon="11.0268462"><ele>371.0</ele><time>2026-05-02T16:59:37.619Z</time></trkpt><trkpt lat="43.0214776" lon="11.0269184"><ele>371.0</ele><time>2026-05-02T16:59:38.619Z</time></trkpt><trkpt lat="43.021429" lon="11.0270106"><ele>371.0</ele><time>2026-05-02T16:59:39.611Z</time></trkpt><trkpt lat="43.0213796" lon="11.0271137"><ele>371.0</ele><time>2026-05-02T16:59:40.62Z</time></trkpt><trkpt lat="43.0213298" lon="11.0272156"><ele>371.0</ele><time>2026-05-02T16:59:41.615Z</time></trkpt><trkpt lat="43.0212876" lon="11.0273108"><ele>371.0</ele><time>2026-05-02T16:59:42.619Z</time></trkpt><trkpt lat="43.0212297" lon="11.0273914"><ele>371.0</ele><time>2026-05-02T16:59:43.619Z</time></trkpt><trkpt lat="43.0211582" lon="11.0274437"><ele>371.0</ele><time>2026-05-02T16:59:44.609Z</time></trkpt><trkpt lat="43.0210841" lon="11.0274661"><ele>371.0</ele><time>2026-05-02T16:59:45.609Z</time></trkpt><trkpt lat="43.0210058" lon="11.0274785"><ele>371.0</ele><time>2026-05-02T16:59:46.616Z</time></trkpt><trkpt lat="43.0209187" lon="11.0274937"><ele>371.0</ele><time>2026-05-02T16:59:47.624Z</time></trkpt><trkpt lat="43.0208224" lon="11.0275077"><ele>371.0</ele><time>2026-05-02T16:59:48.611Z</time></trkpt><trkpt lat="43.0207129" lon="11.0275103"><ele>371.0</ele><time>2026-05-02T16:59:49.62Z</time></trkpt><trkpt lat="43.0205989" lon="11.0274963"><ele>370.0</ele><time>2026-05-02T16:59:50.617Z</time></trkpt><trkpt lat="43.0204837" lon="11.0274637"><ele>369.0</ele><time>2026-05-02T16:59:51.612Z</time></trkpt><trkpt lat="43.0203672" lon="11.0274263"><ele>368.0</ele><time>2026-05-02T16:59:52.627Z</time></trkpt><trkpt lat="43.0202502" lon="11.0273859"><ele>367.0</ele><time>2026-05-02T16:59:53.612Z</time></trkpt><trkpt lat="43.0201321" lon="11.0273469"><ele>367.0</ele><time>2026-05-02T16:59:54.622Z</time></trkpt><trkpt lat="43.0200186" lon="11.0273146"><ele>367.0</ele><time>2026-05-02T16:59:55.618Z</time></trkpt><trkpt lat="43.0199045" lon="11.0272848"><ele>367.0</ele><time>2026-05-02T16:59:56.625Z</time></trkpt><trkpt lat="43.0197871" lon="11.0272615"><ele>367.0</ele><time>2026-05-02T16:59:57.617Z</time></trkpt><trkpt lat="43.0196651" lon="11.0272392"><ele>366.5</ele><time>2026-05-02T16:59:58.629Z</time></trkpt><trkpt lat="43.0195404" lon="11.0272076"><ele>366.0</ele><time>2026-05-02T16:59:59.62Z</time></trkpt><trkpt lat="43.0194163" lon="11.0271811"><ele>365.5</ele><time>2026-05-02T17:00:00.632Z</time></trkpt><trkpt lat="43.019292" lon="11.0271478"><ele>365.0</ele><time>2026-05-02T17:00:01.62Z</time></trkpt><trkpt lat="43.0191706" lon="11.0271227"><ele>363.8</ele><time>2026-05-02T17:00:02.62Z</time></trkpt><trkpt lat="43.01906" lon="11.0270983"><ele>362.6</ele><time>2026-05-02T17:00:03.628Z</time></trkpt><trkpt lat="43.0189545" lon="11.0270698"><ele>361.4</ele><time>2026-05-02T17:00:04.622Z</time></trkpt><trkpt lat="43.0188538" lon="11.0270374"><ele>360.2</ele><time>2026-05-02T17:00:05.629Z</time></trkpt><trkpt lat="43.0187579" lon="11.0269995"><ele>359.0</ele><time>2026-05-02T17:00:06.619Z</time></trkpt><trkpt lat="43.0186574" lon="11.0269516"><ele>359.0</ele><time>2026-05-02T17:00:07.621Z</time></trkpt><trkpt lat="43.0185559" lon="11.0268843"><ele>359.0</ele><time>2026-05-02T17:00:08.618Z</time></trkpt><trkpt lat="43.0184659" lon="11.0267918"><ele>359.0</ele><time>2026-05-02T17:00:09.627Z</time></trkpt><trkpt lat="43.0183939" lon="11.0266617"><ele>359.0</ele><time>2026-05-02T17:00:10.631Z</time></trkpt><trkpt lat="43.0183367" lon="11.0265168"><ele>358.5</ele><time>2026-05-02T17:00:11.625Z</time></trkpt><trkpt lat="43.0182786" lon="11.026368"><ele>358.0</ele><time>2026-05-02T17:00:12.627Z</time></trkpt><trkpt lat="43.0182153" lon="11.0262208"><ele>357.5</ele><time>2026-05-02T17:00:13.615Z</time></trkpt><trkpt lat="43.018142" lon="11.0260822"><ele>357.0</ele><time>2026-05-02T17:00:14.628Z</time></trkpt><trkpt lat="43.0180578" lon="11.0259542"><ele>357.0</ele><time>2026-05-02T17:00:15.627Z</time></trkpt><trkpt lat="43.0179635" lon="11.0258424"><ele>357.0</ele><time>2026-05-02T17:00:16.632Z</time></trkpt><trkpt lat="43.0178609" lon="11.0257444"><ele>357.0</ele><time>2026-05-02T17:00:17.625Z</time></trkpt><trkpt lat="43.0177584" lon="11.0256638"><ele>357.0</ele><time>2026-05-02T17:00:18.635Z</time></trkpt><trkpt lat="43.0176581" lon="11.0255834"><ele>355.25</ele><time>2026-05-02T17:00:19.616Z</time></trkpt><trkpt lat="43.0175573" lon="11.0255002"><ele>353.5</ele><time>2026-05-02T17:00:20.621Z</time></trkpt><trkpt lat="43.017459" lon="11.0253958"><ele>351.75</ele><time>2026-05-02T17:00:21.622Z</time></trkpt><trkpt lat="43.0173647" lon="11.0252798"><ele>350.0</ele><time>2026-05-02T17:00:22.624Z</time></trkpt><trkpt lat="43.0172729" lon="11.0251564"><ele>350.0</ele><time>2026-05-02T17:00:23.627Z</time></trkpt><trkpt lat="43.0171869" lon="11.0250254"><ele>350.0</ele><time>2026-05-02T17:00:24.625Z</time></trkpt><trkpt lat="43.0171127" lon="11.0248824"><ele>350.0</ele><time>2026-05-02T17:00:25.618Z</time></trkpt><trkpt lat="43.017052" lon="11.0247313"><ele>350.0</ele><time>2026-05-02T17:00:26.632Z</time></trkpt><trkpt lat="43.0170034" lon="11.0245847"><ele>349.5</ele><time>2026-05-02T17:00:27.628Z</time></trkpt><trkpt lat="43.0169671" lon="11.0244318"><ele>349.0</ele><time>2026-05-02T17:00:28.631Z</time></trkpt><trkpt lat="43.0169488" lon="11.0242655"><ele>348.5</ele><time>2026-05-02T17:00:29.629Z</time></trkpt><trkpt lat="43.0169445" lon="11.0240914"><ele>348.0</ele><time>2026-05-02T17:00:30.626Z</time></trkpt><trkpt lat="43.0169333" lon="11.0239123"><ele>347.75</ele><time>2026-05-02T17:00:31.634Z</time></trkpt><trkpt lat="43.0169113" lon="11.0237276"><ele>347.5</ele><time>2026-05-02T17:00:32.618Z</time></trkpt><trkpt lat="43.0168765" lon="11.0235401"><ele>347.25</ele><time>2026-05-02T17:00:33.626Z</time></trkpt><trkpt lat="43.0168385" lon="11.023363"><ele>347.0</ele><time>2026-05-02T17:00:34.628Z</time></trkpt><trkpt lat="43.0167954" lon="11.0231905"><ele>346.0</ele><time>2026-05-02T17:00:35.633Z</time></trkpt><trkpt lat="43.016751" lon="11.023029"><ele>345.0</ele><time>2026-05-02T17:00:36.621Z</time></trkpt><trkpt lat="43.0166872" lon="11.0228708"><ele>344.0</ele><time>2026-05-02T17:00:37.621Z</time></trkpt><trkpt lat="43.0166024" lon="11.0227308"><ele>343.0</ele><time>2026-05-02T17:00:38.616Z</time></trkpt><trkpt lat="43.0164915" lon="11.0226047"><ele>343.0</ele><time>2026-05-02T17:00:39.622Z</time></trkpt><trkpt lat="43.0163756" lon="11.0224861"><ele>343.0</ele><time>2026-05-02T17:00:40.622Z</time></trkpt><trkpt lat="43.0162724" lon="11.0223619"><ele>343.0</ele><time>2026-05-02T17:00:41.636Z</time></trkpt><trkpt lat="43.016183" lon="11.02225"><ele>343.0</ele><time>2026-05-02T17:00:42.626Z</time></trkpt><trkpt lat="43.0160986" lon="11.0221607"><ele>341.2</ele><time>2026-05-02T17:00:43.621Z</time></trkpt><trkpt lat="43.0160031" lon="11.0221002"><ele>339.4</ele><time>2026-05-02T17:00:44.624Z</time></trkpt><trkpt lat="43.0158999" lon="11.0220782"><ele>337.59999999999997</ele><time>2026-05-02T17:00:45.641Z</time></trkpt><trkpt lat="43.0157819" lon="11.0220858"><ele>335.79999999999995</ele><time>2026-05-02T17:00:46.615Z</time></trkpt><trkpt lat="43.015667" lon="11.0220946"><ele>334.0</ele><time>2026-05-02T17:00:47.617Z</time></trkpt><trkpt lat="43.0155568" lon="11.0220812"><ele>334.0</ele><time>2026-05-02T17:00:48.625Z</time></trkpt><trkpt lat="43.0154725" lon="11.0220018"><ele>334.0</ele><time>2026-05-02T17:00:49.622Z</time></trkpt><trkpt lat="43.0154302" lon="11.0218884"><ele>334.0</ele><time>2026-05-02T17:00:50.624Z</time></trkpt><trkpt lat="43.015419" lon="11.0217591"><ele>334.0</ele><time>2026-05-02T17:00:51.611Z</time></trkpt><trkpt lat="43.0153983" lon="11.0216054"><ele>334.0</ele><time>2026-05-02T17:00:52.628Z</time></trkpt><trkpt lat="43.0153527" lon="11.0214498"><ele>333.5</ele><time>2026-05-02T17:00:53.624Z</time></trkpt><trkpt lat="43.015281" lon="11.0213135"><ele>333.0</ele><time>2026-05-02T17:00:54.628Z</time></trkpt><trkpt lat="43.0151726" lon="11.0212014"><ele>332.5</ele><time>2026-05-02T17:00:55.624Z</time></trkpt><trkpt lat="43.0150517" lon="11.021096"><ele>332.0</ele><time>2026-05-02T17:00:56.627Z</time></trkpt><trkpt lat="43.0149348" lon="11.0209847"><ele>332.0</ele><time>2026-05-02T17:00:57.616Z</time></trkpt><trkpt lat="43.0148319" lon="11.0208723"><ele>332.0</ele><time>2026-05-02T17:00:58.625Z</time></trkpt><trkpt lat="43.0147351" lon="11.0207871"><ele>332.0</ele><time>2026-05-02T17:00:59.625Z</time></trkpt><trkpt lat="43.0146295" lon="11.0207525"><ele>332.0</ele><time>2026-05-02T17:01:00.627Z</time></trkpt><trkpt lat="43.0145355" lon="11.0207196"><ele>329.8</ele><time>2026-05-02T17:01:01.618Z</time></trkpt><trkpt lat="43.014453" lon="11.0206539"><ele>327.6</ele><time>2026-05-02T17:01:02.627Z</time></trkpt><trkpt lat="43.0144081" lon="11.0205404"><ele>325.40000000000003</ele><time>2026-05-02T17:01:03.62Z</time></trkpt><trkpt lat="43.0143833" lon="11.0203836"><ele>323.20000000000005</ele><time>2026-05-02T17:01:04.628Z</time></trkpt><trkpt lat="43.0143569" lon="11.0202183"><ele>321.0</ele><time>2026-05-02T17:01:05.619Z</time></trkpt><trkpt lat="43.0143182" lon="11.0200562"><ele>316.5</ele><time>2026-05-02T17:01:06.619Z</time></trkpt><trkpt lat="43.0142728" lon="11.0199003"><ele>312.0</ele><time>2026-05-02T17:01:07.617Z</time></trkpt><trkpt lat="43.0142025" lon="11.0197749"><ele>307.5</ele><time>2026-05-02T17:01:08.617Z</time></trkpt><trkpt lat="43.0141241" lon="11.0196785"><ele>303.0</ele><time>2026-05-02T17:01:09.622Z</time></trkpt><trkpt lat="43.0140194" lon="11.0196398"><ele>302.5</ele><time>2026-05-02T17:01:10.626Z</time></trkpt><trkpt lat="43.0138966" lon="11.0196571"><ele>302.0</ele><time>2026-05-02T17:01:11.615Z</time></trkpt><trkpt lat="43.0137701" lon="11.0197109"><ele>301.5</ele><time>2026-05-02T17:01:12.626Z</time></trkpt><trkpt lat="43.0136532" lon="11.0197861"><ele>301.0</ele><time>2026-05-02T17:01:13.622Z</time></trkpt><trkpt lat="43.0135433" lon="11.0198478"><ele>301.0</ele><time>2026-05-02T17:01:14.624Z</time></trkpt><trkpt lat="43.0134401" lon="11.019873"><ele>301.0</ele><time>2026-05-02T17:01:15.624Z</time></trkpt><trkpt lat="43.0133361" lon="11.019855"><ele>301.0</ele><time>2026-05-02T17:01:16.612Z</time></trkpt><trkpt lat="43.0132208" lon="11.0198002"><ele>301.0</ele><time>2026-05-02T17:01:17.621Z</time></trkpt><trkpt lat="43.0131153" lon="11.0197254"><ele>300.0</ele><time>2026-05-02T17:01:18.621Z</time></trkpt><trkpt lat="43.0130224" lon="11.0196544"><ele>299.0</ele><time>2026-05-02T17:01:19.613Z</time></trkpt><trkpt lat="43.0129297" lon="11.0196066"><ele>298.0</ele><time>2026-05-02T17:01:20.621Z</time></trkpt><trkpt lat="43.0128308" lon="11.0196153"><ele>297.0</ele><time>2026-05-02T17:01:21.619Z</time></trkpt><trkpt lat="43.0127223" lon="11.0196422"><ele>296.0</ele><time>2026-05-02T17:01:22.631Z</time></trkpt><trkpt lat="43.0125991" lon="11.0196722"><ele>298.75</ele><time>2026-05-02T17:01:23.611Z</time></trkpt><trkpt lat="43.0124713" lon="11.0197003"><ele>301.5</ele><time>2026-05-02T17:01:24.625Z</time></trkpt><trkpt lat="43.0123484" lon="11.0197249"><ele>304.25</ele><time>2026-05-02T17:01:25.618Z</time></trkpt><trkpt lat="43.0122354" lon="11.0197247"><ele>307.0</ele><time>2026-05-02T17:01:26.623Z</time></trkpt><trkpt lat="43.0121313" lon="11.0196744"><ele>307.0</ele><time>2026-05-02T17:01:27.608Z</time></trkpt><trkpt lat="43.0120282" lon="11.0195954"><ele>307.0</ele><time>2026-05-02T17:01:28.617Z</time></trkpt><trkpt lat="43.0119313" lon="11.0194778"><ele>307.0</ele><time>2026-05-02T17:01:29.617Z</time></trkpt><trkpt lat="43.0118437" lon="11.0193532"><ele>307.0</ele><time>2026-05-02T17:01:30.624Z</time></trkpt><trkpt lat="43.011758" lon="11.0192088"><ele>304.75</ele><time>2026-05-02T17:01:31.621Z</time></trkpt><trkpt lat="43.0116867" lon="11.0190361"><ele>302.5</ele><time>2026-05-02T17:01:32.618Z</time></trkpt><trkpt lat="43.0116116" lon="11.0188557"><ele>300.25</ele><time>2026-05-02T17:01:33.612Z</time></trkpt><trkpt lat="43.0115421" lon="11.0186785"><ele>298.0</ele><time>2026-05-02T17:01:34.613Z</time></trkpt><trkpt lat="43.0114698" lon="11.0185403"><ele>298.0</ele><time>2026-05-02T17:01:35.615Z</time></trkpt><trkpt lat="43.0113842" lon="11.0184215"><ele>298.0</ele><time>2026-05-02T17:01:36.62Z</time></trkpt><trkpt lat="43.0112767" lon="11.0183216"><ele>298.0</ele><time>2026-05-02T17:01:37.614Z</time></trkpt><trkpt lat="43.0111513" lon="11.018251"><ele>298.0</ele><time>2026-05-02T17:01:38.631Z</time></trkpt><trkpt lat="43.0110198" lon="11.0181833"><ele>294.25</ele><time>2026-05-02T17:01:39.607Z</time></trkpt><trkpt lat="43.010891" lon="11.0181316"><ele>290.5</ele><time>2026-05-02T17:01:40.622Z</time></trkpt><trkpt lat="43.0107635" lon="11.0181041"><ele>286.75</ele><time>2026-05-02T17:01:41.619Z</time></trkpt><trkpt lat="43.0106399" lon="11.0180825"><ele>283.0</ele><time>2026-05-02T17:01:42.622Z</time></trkpt><trkpt lat="43.0105175" lon="11.0180409"><ele>283.0</ele><time>2026-05-02T17:01:43.631Z</time></trkpt><trkpt lat="43.0104007" lon="11.0179733"><ele>283.0</ele><time>2026-05-02T17:01:44.62Z</time></trkpt><trkpt lat="43.0102765" lon="11.0179107"><ele>283.0</ele><time>2026-05-02T17:01:45.636Z</time></trkpt><trkpt lat="43.0101495" lon="11.0178843"><ele>283.0</ele><time>2026-05-02T17:01:46.619Z</time></trkpt><trkpt lat="43.0100144" lon="11.0179045"><ele>282.0</ele><time>2026-05-02T17:01:47.606Z</time></trkpt><trkpt lat="43.0098849" lon="11.0179613"><ele>281.0</ele><time>2026-05-02T17:01:48.625Z</time></trkpt><trkpt lat="43.009762" lon="11.0179988"><ele>280.0</ele><time>2026-05-02T17:01:49.629Z</time></trkpt><trkpt lat="43.0096479" lon="11.0180266"><ele>279.0</ele><time>2026-05-02T17:01:50.621Z</time></trkpt><trkpt lat="43.0095508" lon="11.0180436"><ele>279.0</ele><time>2026-05-02T17:01:51.617Z</time></trkpt><trkpt lat="43.0094605" lon="11.0180447"><ele>279.0</ele><time>2026-05-02T17:01:52.617Z</time></trkpt><trkpt lat="43.0093693" lon="11.01803"><ele>279.0</ele><time>2026-05-02T17:01:53.623Z</time></trkpt><trkpt lat="43.009284" lon="11.0179739"><ele>279.0</ele><time>2026-05-02T17:01:54.625Z</time></trkpt><trkpt lat="43.0092106" lon="11.0178809"><ele>279.0</ele><time>2026-05-02T17:01:55.617Z</time></trkpt><trkpt lat="43.0091493" lon="11.0177634"><ele>277.5</ele><time>2026-05-02T17:01:56.609Z</time></trkpt><trkpt lat="43.0090958" lon="11.017625"><ele>276.0</ele><time>2026-05-02T17:01:57.615Z</time></trkpt><trkpt lat="43.0090383" lon="11.0174808"><ele>274.5</ele><time>2026-05-02T17:01:58.618Z</time></trkpt><trkpt lat="43.0089851" lon="11.0173277"><ele>273.0</ele><time>2026-05-02T17:01:59.612Z</time></trkpt><trkpt lat="43.0089234" lon="11.0171659"><ele>273.0</ele><time>2026-05-02T17:02:00.617Z</time></trkpt><trkpt lat="43.008861" lon="11.0169947"><ele>273.0</ele><time>2026-05-02T17:02:01.62Z</time></trkpt><trkpt lat="43.0087893" lon="11.0168239"><ele>273.0</ele><time>2026-05-02T17:02:02.621Z</time></trkpt><trkpt lat="43.008719" lon="11.0166471"><ele>273.0</ele><time>2026-05-02T17:02:03.631Z</time></trkpt><trkpt lat="43.0086368" lon="11.0164962"><ele>273.5</ele><time>2026-05-02T17:02:04.617Z</time></trkpt><trkpt lat="43.0085386" lon="11.0163733"><ele>274.0</ele><time>2026-05-02T17:02:05.625Z</time></trkpt><trkpt lat="43.0084164" lon="11.016294"><ele>274.5</ele><time>2026-05-02T17:02:06.632Z</time></trkpt><trkpt lat="43.0082851" lon="11.0162324"><ele>275.0</ele><time>2026-05-02T17:02:07.615Z</time></trkpt><trkpt lat="43.0081503" lon="11.0161643"><ele>274.0</ele><time>2026-05-02T17:02:08.634Z</time></trkpt><trkpt lat="43.0080177" lon="11.0160747"><ele>273.0</ele><time>2026-05-02T17:02:09.624Z</time></trkpt><trkpt lat="43.0079006" lon="11.0159669"><ele>272.0</ele><time>2026-05-02T17:02:10.626Z</time></trkpt><trkpt lat="43.007793" lon="11.015836"><ele>271.0</ele><time>2026-05-02T17:02:11.625Z</time></trkpt><trkpt lat="43.0076842" lon="11.0156985"><ele>273.25</ele><time>2026-05-02T17:02:12.629Z</time></trkpt><trkpt lat="43.0075748" lon="11.0155541"><ele>275.5</ele><time>2026-05-02T17:02:13.619Z</time></trkpt><trkpt lat="43.0074671" lon="11.0154165"><ele>277.75</ele><time>2026-05-02T17:02:14.621Z</time></trkpt><trkpt lat="43.0073602" lon="11.0152738"><ele>280.0</ele><time>2026-05-02T17:02:15.615Z</time></trkpt><trkpt lat="43.0072538" lon="11.015133"><ele>278.0</ele><time>2026-05-02T17:02:16.623Z</time></trkpt><trkpt lat="43.0071497" lon="11.0149864"><ele>276.0</ele><time>2026-05-02T17:02:17.616Z</time></trkpt><trkpt lat="43.007044" lon="11.0148324"><ele>274.0</ele><time>2026-05-02T17:02:18.626Z</time></trkpt><trkpt lat="43.0069404" lon="11.0146802"><ele>274.0</ele><time>2026-05-02T17:02:19.625Z</time></trkpt><trkpt lat="43.006839" lon="11.0145297"><ele>274.0</ele><time>2026-05-02T17:02:20.624Z</time></trkpt><trkpt lat="43.0067402" lon="11.014382"><ele>274.0</ele><time>2026-05-02T17:02:21.621Z</time></trkpt><trkpt lat="43.0066397" lon="11.0142373"><ele>274.0</ele><time>2026-05-02T17:02:22.629Z</time></trkpt><trkpt lat="43.0065317" lon="11.0141047"><ele>275.0</ele><time>2026-05-02T17:02:23.618Z</time></trkpt><trkpt lat="43.006409" lon="11.0140063"><ele>276.0</ele><time>2026-05-02T17:02:24.617Z</time></trkpt><trkpt lat="43.0062691" lon="11.0139528"><ele>277.0</ele><time>2026-05-02T17:02:25.628Z</time></trkpt><trkpt lat="43.0061189" lon="11.0139436"><ele>278.0</ele><time>2026-05-02T17:02:26.623Z</time></trkpt><trkpt lat="43.00596" lon="11.013985"><ele>276.33333333333337</ele><time>2026-05-02T17:02:27.62Z</time></trkpt><trkpt lat="43.0057999" lon="11.0140475"><ele>274.6666666666667</ele><time>2026-05-02T17:02:28.628Z</time></trkpt><trkpt lat="43.0056406" lon="11.0140931"><ele>273.0</ele><time>2026-05-02T17:02:29.617Z</time></trkpt><trkpt lat="43.0054753" lon="11.0141223"><ele>273.0</ele><time>2026-05-02T17:02:30.636Z</time></trkpt><trkpt lat="43.0053195" lon="11.0141506"><ele>273.0</ele><time>2026-05-02T17:02:31.627Z</time></trkpt><trkpt lat="43.0051711" lon="11.0142078"><ele>273.0</ele><time>2026-05-02T17:02:32.617Z</time></trkpt><trkpt lat="43.0050321" lon="11.0143117"><ele>273.6666666666667</ele><time>2026-05-02T17:02:33.617Z</time></trkpt><trkpt lat="43.0048972" lon="11.0144326"><ele>274.33333333333337</ele><time>2026-05-02T17:02:34.641Z</time></trkpt><trkpt lat="43.0047889" lon="11.0145727"><ele>275.0</ele><time>2026-05-02T17:02:35.617Z</time></trkpt><trkpt lat="43.0046979" lon="11.0147248"><ele>275.0</ele><time>2026-05-02T17:02:36.624Z</time></trkpt><trkpt lat="43.0046111" lon="11.0148776"><ele>275.0</ele><time>2026-05-02T17:02:37.619Z</time></trkpt><trkpt lat="43.0045238" lon="11.0150003"><ele>275.0</ele><time>2026-05-02T17:02:38.614Z</time></trkpt><trkpt lat="43.0044267" lon="11.0150817"><ele>275.0</ele><time>2026-05-02T17:02:39.623Z</time></trkpt><trkpt lat="43.0043137" lon="11.0151389"><ele>273.0</ele><time>2026-05-02T17:02:40.619Z</time></trkpt><trkpt lat="43.004198" lon="11.0152109"><ele>271.0</ele><time>2026-05-02T17:02:41.616Z</time></trkpt><trkpt lat="43.0041038" lon="11.0153388"><ele>269.0</ele><time>2026-05-02T17:02:42.628Z</time></trkpt><trkpt lat="43.0040198" lon="11.0154911"><ele>267.0</ele><time>2026-05-02T17:02:43.62Z</time></trkpt><trkpt lat="43.0039381" lon="11.0156287"><ele>266.8</ele><time>2026-05-02T17:02:44.619Z</time></trkpt><trkpt lat="43.0038597" lon="11.0157541"><ele>266.6</ele><time>2026-05-02T17:02:45.616Z</time></trkpt><trkpt lat="43.0037725" lon="11.0158432"><ele>266.40000000000003</ele><time>2026-05-02T17:02:46.615Z</time></trkpt><trkpt lat="43.0036805" lon="11.0158857"><ele>266.2</ele><time>2026-05-02T17:02:47.622Z</time></trkpt><trkpt lat="43.0035832" lon="11.0158698"><ele>266.0</ele><time>2026-05-02T17:02:48.624Z</time></trkpt><trkpt lat="43.0034913" lon="11.0157959"><ele>266.0</ele><time>2026-05-02T17:02:49.614Z</time></trkpt><trkpt lat="43.0033898" lon="11.0156981"><ele>266.0</ele><time>2026-05-02T17:02:50.628Z</time></trkpt><trkpt lat="43.00328" lon="11.0156205"><ele>266.0</ele><time>2026-05-02T17:02:51.615Z</time></trkpt><trkpt lat="43.0031618" lon="11.0155661"><ele>266.0</ele><time>2026-05-02T17:02:52.611Z</time></trkpt><trkpt lat="43.0030376" lon="11.0155222"><ele>265.5</ele><time>2026-05-02T17:02:53.619Z</time></trkpt><trkpt lat="43.0028998" lon="11.0155184"><ele>265.0</ele><time>2026-05-02T17:02:54.619Z</time></trkpt><trkpt lat="43.0027621" lon="11.015535"><ele>264.5</ele><time>2026-05-02T17:02:55.614Z</time></trkpt><trkpt lat="43.0026431" lon="11.0155747"><ele>264.0</ele><time>2026-05-02T17:02:56.623Z</time></trkpt><trkpt lat="43.0025429" lon="11.0156445"><ele>264.5</ele><time>2026-05-02T17:02:57.622Z</time></trkpt><trkpt lat="43.0024563" lon="11.0157692"><ele>265.0</ele><time>2026-05-02T17:02:58.619Z</time></trkpt><trkpt lat="43.0023832" lon="11.0159468"><ele>265.5</ele><time>2026-05-02T17:02:59.614Z</time></trkpt><trkpt lat="43.0023081" lon="11.0161382"><ele>266.0</ele><time>2026-05-02T17:03:00.62Z</time></trkpt><trkpt lat="43.0022644" lon="11.0163202"><ele>264.5</ele><time>2026-05-02T17:03:01.616Z</time></trkpt><trkpt lat="43.0022333" lon="11.0164943"><ele>263.0</ele><time>2026-05-02T17:03:02.627Z</time></trkpt><trkpt lat="43.0022131" lon="11.0166564"><ele>261.5</ele><time>2026-05-02T17:03:03.612Z</time></trkpt><trkpt lat="43.002176" lon="11.0168061"><ele>260.0</ele><time>2026-05-02T17:03:04.612Z</time></trkpt><trkpt lat="43.0021142" lon="11.016942"><ele>257.5</ele><time>2026-05-02T17:03:05.623Z</time></trkpt><trkpt lat="43.0020256" lon="11.0170322"><ele>255.0</ele><time>2026-05-02T17:03:06.621Z</time></trkpt><trkpt lat="43.0018998" lon="11.0170821"><ele>252.5</ele><time>2026-05-02T17:03:07.615Z</time></trkpt><trkpt lat="43.0017569" lon="11.017102"><ele>250.0</ele><time>2026-05-02T17:03:08.617Z</time></trkpt><trkpt lat="43.0016133" lon="11.0171184"><ele>247.25</ele><time>2026-05-02T17:03:09.621Z</time></trkpt><trkpt lat="43.0014656" lon="11.0171499"><ele>244.5</ele><time>2026-05-02T17:03:10.619Z</time></trkpt><trkpt lat="43.0013224" lon="11.0171784"><ele>241.75</ele><time>2026-05-02T17:03:11.615Z</time></trkpt><trkpt lat="43.0011841" lon="11.0171879"><ele>239.0</ele><time>2026-05-02T17:03:12.618Z</time></trkpt><trkpt lat="43.0010766" lon="11.0171551"><ele>239.0</ele><time>2026-05-02T17:03:13.617Z</time></trkpt><trkpt lat="43.0010021" lon="11.0170802"><ele>238.99999999999997</ele><time>2026-05-02T17:03:14.616Z</time></trkpt><trkpt lat="43.0009413" lon="11.0169646"><ele>238.99999999999997</ele><time>2026-05-02T17:03:15.605Z</time></trkpt><trkpt lat="43.0009" lon="11.0168181"><ele>239.0</ele><time>2026-05-02T17:03:16.596Z</time></trkpt><trkpt lat="43.000858" lon="11.0166611"><ele>239.0</ele><time>2026-05-02T17:03:17.605Z</time></trkpt><trkpt lat="43.0008105" lon="11.0165168"><ele>238.5</ele><time>2026-05-02T17:03:18.61Z</time></trkpt><trkpt lat="43.0007411" lon="11.0163888"><ele>238.0</ele><time>2026-05-02T17:03:19.605Z</time></trkpt><trkpt lat="43.0006594" lon="11.0162784"><ele>237.5</ele><time>2026-05-02T17:03:20.613Z</time></trkpt><trkpt lat="43.0005635" lon="11.0161688"><ele>237.0</ele><time>2026-05-02T17:03:21.608Z</time></trkpt><trkpt lat="43.0004351" lon="11.016068"><ele>237.0</ele><time>2026-05-02T17:03:22.608Z</time></trkpt><trkpt lat="43.0003005" lon="11.0159673"><ele>237.0</ele><time>2026-05-02T17:03:23.612Z</time></trkpt><trkpt lat="43.0001674" lon="11.0158901"><ele>237.0</ele><time>2026-05-02T17:03:24.628Z</time></trkpt><trkpt lat="43.0000252" lon="11.0158727"><ele>237.0</ele><time>2026-05-02T17:03:25.614Z</time></trkpt><trkpt lat="42.9998723" lon="11.0158866"><ele>237.0</ele><time>2026-05-02T17:03:26.616Z</time></trkpt><trkpt lat="42.9997254" lon="11.0158953"><ele>237.0</ele><time>2026-05-02T17:03:27.631Z</time></trkpt><trkpt lat="42.9995752" lon="11.0158681"><ele>237.0</ele><time>2026-05-02T17:03:28.61Z</time></trkpt><trkpt lat="42.9994321" lon="11.015789"><ele>237.0</ele><time>2026-05-02T17:03:29.608Z</time></trkpt><trkpt lat="42.9992995" lon="11.0156682"><ele>237.0</ele><time>2026-05-02T17:03:30.615Z</time></trkpt><trkpt lat="42.999176" lon="11.0155387"><ele>237.0</ele><time>2026-05-02T17:03:31.607Z</time></trkpt><trkpt lat="42.9990576" lon="11.0154357"><ele>237.0</ele><time>2026-05-02T17:03:32.621Z</time></trkpt><trkpt lat="42.9989393" lon="11.0153668"><ele>237.0</ele><time>2026-05-02T17:03:33.625Z</time></trkpt><trkpt lat="42.9988177" lon="11.0153023"><ele>237.0</ele><time>2026-05-02T17:03:34.612Z</time></trkpt><trkpt lat="42.9986974" lon="11.01522"><ele>237.0</ele><time>2026-05-02T17:03:35.612Z</time></trkpt><trkpt lat="42.9985818" lon="11.0150983"><ele>236.0</ele><time>2026-05-02T17:03:36.623Z</time></trkpt><trkpt lat="42.9984674" lon="11.0149577"><ele>235.0</ele><time>2026-05-02T17:03:37.613Z</time></trkpt><trkpt lat="42.9983539" lon="11.0148136"><ele>234.0</ele><time>2026-05-02T17:03:38.615Z</time></trkpt><trkpt lat="42.9982453" lon="11.0146828"><ele>234.0</ele><time>2026-05-02T17:03:39.624Z</time></trkpt><trkpt lat="42.9981446" lon="11.014572"><ele>234.0</ele><time>2026-05-02T17:03:40.623Z</time></trkpt><trkpt lat="42.9980504" lon="11.0144849"><ele>234.0</ele><time>2026-05-02T17:03:41.626Z</time></trkpt><trkpt lat="42.9979396" lon="11.0144417"><ele>234.0</ele><time>2026-05-02T17:03:42.624Z</time></trkpt><trkpt lat="42.9978124" lon="11.0144765"><ele>234.0</ele><time>2026-05-02T17:03:43.617Z</time></trkpt><trkpt lat="42.9976788" lon="11.014535"><ele>234.0</ele><time>2026-05-02T17:03:44.625Z</time></trkpt><trkpt lat="42.9975638" lon="11.0145974"><ele>234.0</ele><time>2026-05-02T17:03:45.613Z</time></trkpt><trkpt lat="42.9974565" lon="11.0146365"><ele>234.0</ele><time>2026-05-02T17:03:46.624Z</time></trkpt><trkpt lat="42.9973474" lon="11.0146238"><ele>231.75</ele><time>2026-05-02T17:03:47.625Z</time></trkpt><trkpt lat="42.9972334" lon="11.0145533"><ele>229.5</ele><time>2026-05-02T17:03:48.594Z</time></trkpt><trkpt lat="42.9971224" lon="11.014485"><ele>227.25</ele><time>2026-05-02T17:03:49.604Z</time></trkpt><trkpt lat="42.9970095" lon="11.0144314"><ele>225.0</ele><time>2026-05-02T17:03:50.618Z</time></trkpt><trkpt lat="42.996887" lon="11.0144454"><ele>225.0</ele><time>2026-05-02T17:03:51.623Z</time></trkpt><trkpt lat="42.9967851" lon="11.014529"><ele>225.0</ele><time>2026-05-02T17:03:52.628Z</time></trkpt><trkpt lat="42.9966917" lon="11.0146608"><ele>225.0</ele><time>2026-05-02T17:03:53.623Z</time></trkpt><trkpt lat="42.9966017" lon="11.0147712"><ele>225.0</ele><time>2026-05-02T17:03:54.621Z</time></trkpt><trkpt lat="42.9964995" lon="11.0148222"><ele>223.5</ele><time>2026-05-02T17:03:55.623Z</time></trkpt><trkpt lat="42.9963755" lon="11.0148217"><ele>222.0</ele><time>2026-05-02T17:03:56.629Z</time></trkpt><trkpt lat="42.9962476" lon="11.0147709"><ele>220.5</ele><time>2026-05-02T17:03:57.619Z</time></trkpt><trkpt lat="42.9961325" lon="11.0147061"><ele>219.0</ele><time>2026-05-02T17:03:58.64Z</time></trkpt><trkpt lat="42.9960298" lon="11.0146462"><ele>219.0</ele><time>2026-05-02T17:03:59.62Z</time></trkpt><trkpt lat="42.9959209" lon="11.0146081"><ele>218.99999999999997</ele><time>2026-05-02T17:04:00.62Z</time></trkpt><trkpt lat="42.9958102" lon="11.0146108"><ele>218.99999999999997</ele><time>2026-05-02T17:04:01.614Z</time></trkpt><trkpt lat="42.9957242" lon="11.0146802"><ele>219.0</ele><time>2026-05-02T17:04:02.615Z</time></trkpt><trkpt lat="42.9956642" lon="11.0148176"><ele>219.0</ele><time>2026-05-02T17:04:03.61Z</time></trkpt><trkpt lat="42.9956288" lon="11.0149744"><ele>216.25</ele><time>2026-05-02T17:04:04.618Z</time></trkpt><trkpt lat="42.995577" lon="11.0151047"><ele>213.5</ele><time>2026-05-02T17:04:05.618Z</time></trkpt><trkpt lat="42.9954971" lon="11.0152143"><ele>210.75</ele><time>2026-05-02T17:04:06.63Z</time></trkpt><trkpt lat="42.9953956" lon="11.0153112"><ele>208.0</ele><time>2026-05-02T17:04:07.618Z</time></trkpt><trkpt lat="42.9952933" lon="11.0154107"><ele>208.0</ele><time>2026-05-02T17:04:08.625Z</time></trkpt><trkpt lat="42.9952029" lon="11.0155353"><ele>208.0</ele><time>2026-05-02T17:04:09.626Z</time></trkpt><trkpt lat="42.9951257" lon="11.0156681"><ele>208.0</ele><time>2026-05-02T17:04:10.627Z</time></trkpt><trkpt lat="42.9950589" lon="11.0158183"><ele>208.0</ele><time>2026-05-02T17:04:11.62Z</time></trkpt><trkpt lat="42.9950107" lon="11.0159779"><ele>207.5</ele><time>2026-05-02T17:04:12.621Z</time></trkpt><trkpt lat="42.9949588" lon="11.0161426"><ele>207.0</ele><time>2026-05-02T17:04:13.633Z</time></trkpt><trkpt lat="42.9949055" lon="11.0163024"><ele>206.5</ele><time>2026-05-02T17:04:14.631Z</time></trkpt><trkpt lat="42.9948381" lon="11.0164574"><ele>206.0</ele><time>2026-05-02T17:04:15.619Z</time></trkpt><trkpt lat="42.994764" lon="11.0166217"><ele>203.0</ele><time>2026-05-02T17:04:16.62Z</time></trkpt><trkpt lat="42.9947145" lon="11.0168073"><ele>200.0</ele><time>2026-05-02T17:04:17.613Z</time></trkpt><trkpt lat="42.9946807" lon="11.0170289"><ele>197.0</ele><time>2026-05-02T17:04:18.62Z</time></trkpt><trkpt lat="42.9946556" lon="11.0172608"><ele>194.66666666666669</ele><time>2026-05-02T17:04:19.62Z</time></trkpt><trkpt lat="42.9946569" lon="11.0174855"><ele>192.33333333333334</ele><time>2026-05-02T17:04:20.628Z</time></trkpt><trkpt lat="42.9946906" lon="11.0176835"><ele>190.0</ele><time>2026-05-02T17:04:21.625Z</time></trkpt><trkpt lat="42.9947278" lon="11.0178639"><ele>190.0</ele><time>2026-05-02T17:04:22.622Z</time></trkpt><trkpt lat="42.994751" lon="11.0180305"><ele>190.0</ele><time>2026-05-02T17:04:23.628Z</time></trkpt><trkpt lat="42.9947576" lon="11.0181787"><ele>190.0</ele><time>2026-05-02T17:04:24.63Z</time></trkpt><trkpt lat="42.9947329" lon="11.0183193"><ele>190.0</ele><time>2026-05-02T17:04:25.631Z</time></trkpt><trkpt lat="42.9946866" lon="11.0184648"><ele>189.4</ele><time>2026-05-02T17:04:26.621Z</time></trkpt><trkpt lat="42.9946238" lon="11.018599"><ele>188.8</ele><time>2026-05-02T17:04:27.627Z</time></trkpt><trkpt lat="42.9945467" lon="11.0186953"><ele>188.2</ele><time>2026-05-02T17:04:28.62Z</time></trkpt><trkpt lat="42.9944565" lon="11.0187352"><ele>187.6</ele><time>2026-05-02T17:04:29.617Z</time></trkpt><trkpt lat="42.9943679" lon="11.0187223"><ele>187.0</ele><time>2026-05-02T17:04:30.626Z</time></trkpt><trkpt lat="42.9942733" lon="11.0186649"><ele>190.75</ele><time>2026-05-02T17:04:31.62Z</time></trkpt><trkpt lat="42.9941647" lon="11.0185841"><ele>194.5</ele><time>2026-05-02T17:04:32.611Z</time></trkpt><trkpt lat="42.9940408" lon="11.0184791"><ele>198.25</ele><time>2026-05-02T17:04:33.624Z</time></trkpt><trkpt lat="42.9939237" lon="11.0183559"><ele>202.0</ele><time>2026-05-02T17:04:34.615Z</time></trkpt><trkpt lat="42.9938124" lon="11.0182113"><ele>202.5</ele><time>2026-05-02T17:04:35.62Z</time></trkpt><trkpt lat="42.9937035" lon="11.0180739"><ele>203.0</ele><time>2026-05-02T17:04:36.626Z</time></trkpt><trkpt lat="42.9935915" lon="11.0179592"><ele>203.5</ele><time>2026-05-02T17:04:37.615Z</time></trkpt><trkpt lat="42.9934577" lon="11.0178839"><ele>204.0</ele><time>2026-05-02T17:04:38.609Z</time></trkpt><trkpt lat="42.9933063" lon="11.0178398"><ele>204.0</ele><time>2026-05-02T17:04:39.612Z</time></trkpt><trkpt lat="42.9931506" lon="11.0178352"><ele>204.0</ele><time>2026-05-02T17:04:40.626Z</time></trkpt><trkpt lat="42.9930041" lon="11.0178762"><ele>204.0</ele><time>2026-05-02T17:04:41.606Z</time></trkpt><trkpt lat="42.9928593" lon="11.0179303"><ele>204.0</ele><time>2026-05-02T17:04:42.619Z</time></trkpt><trkpt lat="42.9927286" lon="11.0179349"><ele>204.0</ele><time>2026-05-02T17:04:43.619Z</time></trkpt><trkpt lat="42.9925983" lon="11.0179221"><ele>204.0</ele><time>2026-05-02T17:04:44.608Z</time></trkpt><trkpt lat="42.9924536" lon="11.0178859"><ele>204.0</ele><time>2026-05-02T17:04:45.61Z</time></trkpt><trkpt lat="42.9922991" lon="11.0178631"><ele>203.5</ele><time>2026-05-02T17:04:46.62Z</time></trkpt><trkpt lat="42.9921422" lon="11.0178683"><ele>203.0</ele><time>2026-05-02T17:04:47.602Z</time></trkpt><trkpt lat="42.9920125" lon="11.0179017"><ele>202.5</ele><time>2026-05-02T17:04:48.615Z</time></trkpt><trkpt lat="42.9919187" lon="11.0179937"><ele>202.0</ele><time>2026-05-02T17:04:49.615Z</time></trkpt><trkpt lat="42.9918564" lon="11.0181291"><ele>202.0</ele><time>2026-05-02T17:04:50.616Z</time></trkpt><trkpt lat="42.9917993" lon="11.0182674"><ele>202.0</ele><time>2026-05-02T17:04:51.612Z</time></trkpt><trkpt lat="42.9917232" lon="11.01838"><ele>202.0</ele><time>2026-05-02T17:04:52.618Z</time></trkpt><trkpt lat="42.9916272" lon="11.0184721"><ele>202.0</ele><time>2026-05-02T17:04:53.613Z</time></trkpt><trkpt lat="42.9915212" lon="11.0185717"><ele>199.5</ele><time>2026-05-02T17:04:54.622Z</time></trkpt><trkpt lat="42.9914116" lon="11.0186742"><ele>197.0</ele><time>2026-05-02T17:04:55.612Z</time></trkpt><trkpt lat="42.9912935" lon="11.0187709"><ele>194.5</ele><time>2026-05-02T17:04:56.629Z</time></trkpt><trkpt lat="42.9911831" lon="11.0188498"><ele>192.0</ele><time>2026-05-02T17:04:57.62Z</time></trkpt><trkpt lat="42.9910626" lon="11.0189038"><ele>192.0</ele><time>2026-05-02T17:04:58.609Z</time></trkpt><trkpt lat="42.9909177" lon="11.0188895"><ele>192.0</ele><time>2026-05-02T17:04:59.616Z</time></trkpt><trkpt lat="42.9907729" lon="11.0188541"><ele>192.0</ele><time>2026-05-02T17:05:00.614Z</time></trkpt><trkpt lat="42.9906091" lon="11.0188308"><ele>192.5</ele><time>2026-05-02T17:05:01.617Z</time></trkpt><trkpt lat="42.9904619" lon="11.0188434"><ele>193.0</ele><time>2026-05-02T17:05:02.618Z</time></trkpt><trkpt lat="42.9903305" lon="11.0188643"><ele>193.5</ele><time>2026-05-02T17:05:03.607Z</time></trkpt><trkpt lat="42.9902221" lon="11.0188758"><ele>194.0</ele><time>2026-05-02T17:05:04.606Z</time></trkpt><trkpt lat="42.990129" lon="11.0188717"><ele>194.0</ele><time>2026-05-02T17:05:05.617Z</time></trkpt><trkpt lat="42.990044" lon="11.0188349"><ele>194.0</ele><time>2026-05-02T17:05:06.624Z</time></trkpt><trkpt lat="42.9899828" lon="11.0187507"><ele>194.0</ele><time>2026-05-02T17:05:07.619Z</time></trkpt><trkpt lat="42.9899519" lon="11.0186308"><ele>194.0</ele><time>2026-05-02T17:05:08.623Z</time></trkpt><trkpt lat="42.9899633" lon="11.0184872"><ele>194.0</ele><time>2026-05-02T17:05:09.615Z</time></trkpt><trkpt lat="42.9900019" lon="11.0183303"><ele>195.5</ele><time>2026-05-02T17:05:10.624Z</time></trkpt><trkpt lat="42.9900505" lon="11.0181607"><ele>197.0</ele><time>2026-05-02T17:05:11.613Z</time></trkpt><trkpt lat="42.9901025" lon="11.0179835"><ele>198.5</ele><time>2026-05-02T17:05:12.621Z</time></trkpt><trkpt lat="42.9901557" lon="11.0178007"><ele>200.0</ele><time>2026-05-02T17:05:13.616Z</time></trkpt><trkpt lat="42.9901951" lon="11.0176261"><ele>198.25</ele><time>2026-05-02T17:05:14.631Z</time></trkpt><trkpt lat="42.9902041" lon="11.0174496"><ele>196.5</ele><time>2026-05-02T17:05:15.621Z</time></trkpt><trkpt lat="42.9901669" lon="11.0172809"><ele>194.75</ele><time>2026-05-02T17:05:16.621Z</time></trkpt><trkpt lat="42.9900893" lon="11.0171317"><ele>193.0</ele><time>2026-05-02T17:05:17.625Z</time></trkpt><trkpt lat="42.9899827" lon="11.0170243"><ele>187.75</ele><time>2026-05-02T17:05:18.628Z</time></trkpt><trkpt lat="42.9898774" lon="11.0169406"><ele>182.5</ele><time>2026-05-02T17:05:19.623Z</time></trkpt><trkpt lat="42.9898047" lon="11.0168352"><ele>177.25</ele><time>2026-05-02T17:05:20.627Z</time></trkpt><trkpt lat="42.9897663" lon="11.0166953"><ele>172.0</ele><time>2026-05-02T17:05:21.624Z</time></trkpt><trkpt lat="42.9897608" lon="11.0165337"><ele>170.8</ele><time>2026-05-02T17:05:22.624Z</time></trkpt><trkpt lat="42.9897769" lon="11.0163787"><ele>169.6</ele><time>2026-05-02T17:05:23.621Z</time></trkpt><trkpt lat="42.9898016" lon="11.0162351"><ele>168.4</ele><time>2026-05-02T17:05:24.625Z</time></trkpt><trkpt lat="42.9898378" lon="11.0160953"><ele>167.20000000000002</ele><time>2026-05-02T17:05:25.619Z</time></trkpt><trkpt lat="42.9898922" lon="11.015962"><ele>166.0</ele><time>2026-05-02T17:05:26.627Z</time></trkpt><trkpt lat="42.989966" lon="11.0158375"><ele>166.0</ele><time>2026-05-02T17:05:27.615Z</time></trkpt><trkpt lat="42.9900623" lon="11.0157246"><ele>166.0</ele><time>2026-05-02T17:05:28.62Z</time></trkpt><trkpt lat="42.9901682" lon="11.015622"><ele>166.0</ele><time>2026-05-02T17:05:29.617Z</time></trkpt><trkpt lat="42.9902761" lon="11.0155223"><ele>166.0</ele><time>2026-05-02T17:05:30.618Z</time></trkpt><trkpt lat="42.9903852" lon="11.0154223"><ele>166.0</ele><time>2026-05-02T17:05:31.619Z</time></trkpt><trkpt lat="42.9904988" lon="11.0153189"><ele>166.0</ele><time>2026-05-02T17:05:32.623Z</time></trkpt><trkpt lat="42.9906095" lon="11.0152261"><ele>166.0</ele><time>2026-05-02T17:05:33.612Z</time></trkpt><trkpt lat="42.9907162" lon="11.0151519"><ele>166.0</ele><time>2026-05-02T17:05:34.62Z</time></trkpt><trkpt lat="42.9908143" lon="11.0150975"><ele>168.20000000000002</ele><time>2026-05-02T17:05:35.611Z</time></trkpt><trkpt lat="42.9909082" lon="11.0150543"><ele>170.4</ele><time>2026-05-02T17:05:36.62Z</time></trkpt><trkpt lat="42.9909957" lon="11.0150079"><ele>172.6</ele><time>2026-05-02T17:05:37.612Z</time></trkpt><trkpt lat="42.9910574" lon="11.0149449"><ele>174.8</ele><time>2026-05-02T17:05:38.621Z</time></trkpt><trkpt lat="42.9911" lon="11.0147919"><ele>177.0</ele><time>2026-05-02T17:05:40.625Z</time></trkpt><trkpt lat="42.9910729" lon="11.0146442"><ele>177.6</ele><time>2026-05-02T17:05:42.614Z</time></trkpt><trkpt lat="42.9910451" lon="11.0145373"><ele>178.2</ele><time>2026-05-02T17:05:44.614Z</time></trkpt><trkpt lat="42.990976" lon="11.0144315"><ele>178.8</ele><time>2026-05-02T17:05:46.619Z</time></trkpt><trkpt lat="42.9908744" lon="11.0143342"><ele>179.4</ele><time>2026-05-02T17:05:48.625Z</time></trkpt><trkpt lat="42.9907879" lon="11.0142403"><ele>180.0</ele><time>2026-05-02T17:05:50.616Z</time></trkpt><trkpt lat="42.9907261" lon="11.0141156"><ele>180.0</ele><time>2026-05-02T17:05:52.621Z</time></trkpt><trkpt lat="42.990693" lon="11.0140389"><ele>180.0</ele><time>2026-05-02T17:05:53.615Z</time></trkpt><trkpt lat="42.9906428" lon="11.0139689"><ele>180.0</ele><time>2026-05-02T17:05:54.621Z</time></trkpt><trkpt lat="42.9905795" lon="11.0138983"><ele>180.0</ele><time>2026-05-02T17:05:55.615Z</time></trkpt><trkpt lat="42.9905136" lon="11.0138222"><ele>180.0</ele><time>2026-05-02T17:05:56.615Z</time></trkpt><trkpt lat="42.9904518" lon="11.0137379"><ele>180.0</ele><time>2026-05-02T17:05:57.618Z</time></trkpt><trkpt lat="42.9903885" lon="11.0136684"><ele>180.0</ele><time>2026-05-02T17:05:58.618Z</time></trkpt><trkpt lat="42.990317" lon="11.013599"><ele>180.0</ele><time>2026-05-02T17:05:59.607Z</time></trkpt><trkpt lat="42.9902451" lon="11.0135395"><ele>180.0</ele><time>2026-05-02T17:06:00.614Z</time></trkpt><trkpt lat="42.9901728" lon="11.0135044"><ele>180.0</ele><time>2026-05-02T17:06:01.625Z</time></trkpt><trkpt lat="42.9901013" lon="11.0134751"><ele>180.0</ele><time>2026-05-02T17:06:02.621Z</time></trkpt><trkpt lat="42.9900369" lon="11.0134398"><ele>180.0</ele><time>2026-05-02T17:06:03.612Z</time></trkpt><trkpt lat="42.9899666" lon="11.0134098"><ele>179.14285714285714</ele><time>2026-05-02T17:06:04.615Z</time></trkpt><trkpt lat="42.9899052" lon="11.0133649"><ele>178.2857142857143</ele><time>2026-05-02T17:06:05.616Z</time></trkpt><trkpt lat="42.9898477" lon="11.0133194"><ele>177.42857142857144</ele><time>2026-05-02T17:06:06.611Z</time></trkpt><trkpt lat="42.9897616" lon="11.0132506"><ele>176.57142857142856</ele><time>2026-05-02T17:06:08.616Z</time></trkpt><trkpt lat="42.989703" lon="11.0132012"><ele>175.71428571428572</ele><time>2026-05-02T17:06:10.609Z</time></trkpt><trkpt lat="42.9896374" lon="11.0131958"><ele>174.85714285714286</ele><time>2026-05-02T17:06:12.617Z</time></trkpt><trkpt lat="42.9895741" lon="11.0132313"><ele>174.0</ele><time>2026-05-02T17:06:14.619Z</time></trkpt><trkpt lat="42.989499" lon="11.0132715"><ele>174.0</ele><time>2026-05-02T17:06:16.61Z</time></trkpt><trkpt lat="42.9893953" lon="11.0132997"><ele>174.0</ele><time>2026-05-02T17:06:18.626Z</time></trkpt><trkpt lat="42.989328" lon="11.0133167"><ele>174.0</ele><time>2026-05-02T17:06:19.616Z</time></trkpt><trkpt lat="42.9892483" lon="11.0133287"><ele>174.0</ele><time>2026-05-02T17:06:20.618Z</time></trkpt><trkpt lat="42.9891672" lon="11.0133382"><ele>174.0</ele><time>2026-05-02T17:06:21.626Z</time></trkpt><trkpt lat="42.9890775" lon="11.0133573"><ele>174.0</ele><time>2026-05-02T17:06:22.614Z</time></trkpt><trkpt lat="42.9889925" lon="11.0133853"><ele>173.66666666666666</ele><time>2026-05-02T17:06:23.625Z</time></trkpt><trkpt lat="42.9889153" lon="11.0134112"><ele>173.33333333333334</ele><time>2026-05-02T17:06:24.616Z</time></trkpt><trkpt lat="42.988845" lon="11.013442"><ele>173.0</ele><time>2026-05-02T17:06:25.618Z</time></trkpt><trkpt lat="42.988772" lon="11.0134644"><ele>172.66666666666669</ele><time>2026-05-02T17:06:26.611Z</time></trkpt><trkpt lat="42.9886741" lon="11.0134715"><ele>172.33333333333334</ele><time>2026-05-02T17:06:28.619Z</time></trkpt><trkpt lat="42.9886166" lon="11.013508"><ele>172.0</ele><time>2026-05-02T17:06:30.624Z</time></trkpt><trkpt lat="42.9885416" lon="11.0135853"><ele>172.0</ele><time>2026-05-02T17:06:32.626Z</time></trkpt><trkpt lat="42.9884442" lon="11.0136675"><ele>172.0</ele><time>2026-05-02T17:06:34.635Z</time></trkpt><trkpt lat="42.9883378" lon="11.0137561"><ele>172.0</ele><time>2026-05-02T17:06:36.613Z</time></trkpt><trkpt lat="42.9882411" lon="11.0138516"><ele>172.0</ele><time>2026-05-02T17:06:38.637Z</time></trkpt><trkpt lat="42.9881735" lon="11.0139035"><ele>172.0</ele><time>2026-05-02T17:06:39.618Z</time></trkpt><trkpt lat="42.9881008" lon="11.0139501"><ele>172.0</ele><time>2026-05-02T17:06:40.618Z</time></trkpt><trkpt lat="42.9880294" lon="11.0139957"><ele>172.0</ele><time>2026-05-02T17:06:41.614Z</time></trkpt><trkpt lat="42.9879534" lon="11.0140389"><ele>172.0</ele><time>2026-05-02T17:06:42.639Z</time></trkpt><trkpt lat="42.9878861" lon="11.0140831"><ele>172.0</ele><time>2026-05-02T17:06:43.612Z</time></trkpt><trkpt lat="42.9878221" lon="11.0141204"><ele>172.0</ele><time>2026-05-02T17:06:44.621Z</time></trkpt><trkpt lat="42.9877156" lon="11.0141924"><ele>172.0</ele><time>2026-05-02T17:06:46.625Z</time></trkpt><trkpt lat="42.9876116" lon="11.0142578"><ele>171.2</ele><time>2026-05-02T17:06:48.62Z</time></trkpt><trkpt lat="42.9875024" lon="11.014318"><ele>170.39999999999998</ele><time>2026-05-02T17:06:50.612Z</time></trkpt><trkpt lat="42.98744" lon="11.014334"><ele>169.60000000000002</ele><time>2026-05-02T17:06:51.623Z</time></trkpt><trkpt lat="42.9873198" lon="11.0143632"><ele>168.8</ele><time>2026-05-02T17:06:53.619Z</time></trkpt><trkpt lat="42.9872548" lon="11.0143746"><ele>168.0</ele><time>2026-05-02T17:06:54.614Z</time></trkpt><trkpt lat="42.9871388" lon="11.0143855"><ele>168.0</ele><time>2026-05-02T17:06:56.628Z</time></trkpt><trkpt lat="42.9870303" lon="11.0143787"><ele>168.0</ele><time>2026-05-02T17:06:58.623Z</time></trkpt><trkpt lat="42.9869048" lon="11.0143691"><ele>168.0</ele><time>2026-05-02T17:07:00.639Z</time></trkpt><trkpt lat="42.9868031" lon="11.0143542"><ele>168.0</ele><time>2026-05-02T17:07:02.631Z</time></trkpt><trkpt lat="42.986693" lon="11.0143314"><ele>168.0</ele><time>2026-05-02T17:07:04.621Z</time></trkpt><trkpt lat="42.986566" lon="11.0143047"><ele>166.66666666666666</ele><time>2026-05-02T17:07:06.619Z</time></trkpt><trkpt lat="42.9865027" lon="11.0142938"><ele>165.33333333333334</ele><time>2026-05-02T17:07:07.617Z</time></trkpt><trkpt lat="42.9864395" lon="11.0142922"><ele>164.0</ele><time>2026-05-02T17:07:08.612Z</time></trkpt><trkpt lat="42.9863158" lon="11.0142871"><ele>162.66666666666669</ele><time>2026-05-02T17:07:10.611Z</time></trkpt><trkpt lat="42.9862509" lon="11.0142819"><ele>161.33333333333334</ele><time>2026-05-02T17:07:11.626Z</time></trkpt><trkpt lat="42.9861814" lon="11.0142782"><ele>160.0</ele><time>2026-05-02T17:07:12.631Z</time></trkpt><trkpt lat="42.9861171" lon="11.0142739"><ele>160.0</ele><time>2026-05-02T17:07:13.604Z</time></trkpt><trkpt lat="42.9860516" lon="11.0142668"><ele>160.0</ele><time>2026-05-02T17:07:14.614Z</time></trkpt><trkpt lat="42.9859875" lon="11.0142634"><ele>160.0</ele><time>2026-05-02T17:07:15.623Z</time></trkpt><trkpt lat="42.9859192" lon="11.0142539"><ele>160.0</ele><time>2026-05-02T17:07:16.613Z</time></trkpt><trkpt lat="42.9858519" lon="11.0142259"><ele>160.0</ele><time>2026-05-02T17:07:17.619Z</time></trkpt><trkpt lat="42.98579" lon="11.014191"><ele>160.0</ele><time>2026-05-02T17:07:18.621Z</time></trkpt><trkpt lat="42.985727" lon="11.0141508"><ele>160.0</ele><time>2026-05-02T17:07:19.624Z</time></trkpt><trkpt lat="42.985664" lon="11.0141105"><ele>157.33333333333334</ele><time>2026-05-02T17:07:20.615Z</time></trkpt><trkpt lat="42.9855944" lon="11.0140796"><ele>154.66666666666669</ele><time>2026-05-02T17:07:21.621Z</time></trkpt><trkpt lat="42.9855256" lon="11.0140511"><ele>152.0</ele><time>2026-05-02T17:07:22.614Z</time></trkpt><trkpt lat="42.9854555" lon="11.0140331"><ele>149.33333333333334</ele><time>2026-05-02T17:07:23.622Z</time></trkpt><trkpt lat="42.9853885" lon="11.0140223"><ele>146.66666666666666</ele><time>2026-05-02T17:07:24.626Z</time></trkpt><trkpt lat="42.985324" lon="11.0140255"><ele>144.0</ele><time>2026-05-02T17:07:25.625Z</time></trkpt><trkpt lat="42.9852097" lon="11.0140561"><ele>144.00000000000003</ele><time>2026-05-02T17:07:27.621Z</time></trkpt><trkpt lat="42.9851424" lon="11.0140765"><ele>144.0</ele><time>2026-05-02T17:07:28.629Z</time></trkpt><trkpt lat="42.9850694" lon="11.0140929"><ele>144.0</ele><time>2026-05-02T17:07:29.616Z</time></trkpt><trkpt lat="42.9849997" lon="11.0140984"><ele>144.0</ele><time>2026-05-02T17:07:30.637Z</time></trkpt><trkpt lat="42.9849285" lon="11.0141065"><ele>144.0</ele><time>2026-05-02T17:07:31.617Z</time></trkpt><trkpt lat="42.98485" lon="11.0141172"><ele>144.00000000000003</ele><time>2026-05-02T17:07:32.629Z</time></trkpt><trkpt lat="42.9847646" lon="11.0141223"><ele>144.0</ele><time>2026-05-02T17:07:33.621Z</time></trkpt><trkpt lat="42.9846825" lon="11.014128"><ele>141.8</ele><time>2026-05-02T17:07:34.626Z</time></trkpt><trkpt lat="42.984604" lon="11.0141268"><ele>139.60000000000002</ele><time>2026-05-02T17:07:35.628Z</time></trkpt><trkpt lat="42.9845366" lon="11.0141252"><ele>137.4</ele><time>2026-05-02T17:07:36.62Z</time></trkpt><trkpt lat="42.9844267" lon="11.0141292"><ele>135.20000000000002</ele><time>2026-05-02T17:07:38.616Z</time></trkpt><trkpt lat="42.9843268" lon="11.0141503"><ele>133.0</ele><time>2026-05-02T17:07:40.613Z</time></trkpt><trkpt lat="42.9842183" lon="11.0141804"><ele>132.6</ele><time>2026-05-02T17:07:42.62Z</time></trkpt><trkpt lat="42.9841106" lon="11.0142301"><ele>132.20000000000002</ele><time>2026-05-02T17:07:44.625Z</time></trkpt><trkpt lat="42.9839947" lon="11.0142637"><ele>131.8</ele><time>2026-05-02T17:07:46.623Z</time></trkpt><trkpt lat="42.9839286" lon="11.0142629"><ele>131.4</ele><time>2026-05-02T17:07:47.621Z</time></trkpt><trkpt lat="42.9838498" lon="11.0142647"><ele>131.0</ele><time>2026-05-02T17:07:48.627Z</time></trkpt><trkpt lat="42.9837635" lon="11.0142621"><ele>131.0</ele><time>2026-05-02T17:07:49.624Z</time></trkpt><trkpt lat="42.9836789" lon="11.0142606"><ele>131.0</ele><time>2026-05-02T17:07:50.619Z</time></trkpt><trkpt lat="42.9836081" lon="11.0142567"><ele>131.0</ele><time>2026-05-02T17:07:51.629Z</time></trkpt><trkpt lat="42.9834956" lon="11.0142161"><ele>131.0</ele><time>2026-05-02T17:07:53.62Z</time></trkpt><trkpt lat="42.9833989" lon="11.0141791"><ele>131.0</ele><time>2026-05-02T17:07:55.624Z</time></trkpt><trkpt lat="42.9832882" lon="11.0141596"><ele>130.42857142857144</ele><time>2026-05-02T17:07:57.628Z</time></trkpt><trkpt lat="42.9832229" lon="11.0141576"><ele>129.85714285714286</ele><time>2026-05-02T17:07:58.632Z</time></trkpt><trkpt lat="42.9831524" lon="11.0141595"><ele>129.28571428571428</ele><time>2026-05-02T17:07:59.625Z</time></trkpt><trkpt lat="42.9830854" lon="11.0141638"><ele>128.71428571428572</ele><time>2026-05-02T17:08:00.623Z</time></trkpt><trkpt lat="42.9830217" lon="11.0141607"><ele>128.14285714285714</ele><time>2026-05-02T17:08:01.622Z</time></trkpt><trkpt lat="42.9829534" lon="11.0141569"><ele>127.57142857142858</ele><time>2026-05-02T17:08:02.628Z</time></trkpt><trkpt lat="42.9828777" lon="11.0141601"><ele>127.0</ele><time>2026-05-02T17:08:03.628Z</time></trkpt><trkpt lat="42.9827971" lon="11.0141726"><ele>127.00000000000001</ele><time>2026-05-02T17:08:04.624Z</time></trkpt><trkpt lat="42.9827138" lon="11.014182"><ele>127.0</ele><time>2026-05-02T17:08:05.622Z</time></trkpt><trkpt lat="42.9826389" lon="11.0141903"><ele>127.0</ele><time>2026-05-02T17:08:06.626Z</time></trkpt><trkpt lat="42.9825758" lon="11.0142016"><ele>127.0</ele><time>2026-05-02T17:08:07.625Z</time></trkpt><trkpt lat="42.9824475" lon="11.0142278"><ele>127.00000000000001</ele><time>2026-05-02T17:08:09.615Z</time></trkpt><trkpt lat="42.9823763" lon="11.0142502"><ele>127.0</ele><time>2026-05-02T17:08:10.62Z</time></trkpt><trkpt lat="42.9823067" lon="11.0142672"><ele>126.16666666666667</ele><time>2026-05-02T17:08:11.623Z</time></trkpt><trkpt lat="42.9822413" lon="11.0142888"><ele>125.33333333333334</ele><time>2026-05-02T17:08:12.63Z</time></trkpt><trkpt lat="42.9821164" lon="11.0143306"><ele>124.5</ele><time>2026-05-02T17:08:14.628Z</time></trkpt><trkpt lat="42.982044" lon="11.0143448"><ele>123.66666666666666</ele><time>2026-05-02T17:08:15.622Z</time></trkpt><trkpt lat="42.9819733" lon="11.0143534"><ele>122.83333333333333</ele><time>2026-05-02T17:08:16.63Z</time></trkpt><trkpt lat="42.9819023" lon="11.014362"><ele>122.0</ele><time>2026-05-02T17:08:17.629Z</time></trkpt><trkpt lat="42.9818251" lon="11.0143709"><ele>121.99999999999999</ele><time>2026-05-02T17:08:18.627Z</time></trkpt><trkpt lat="42.9817435" lon="11.0143767"><ele>122.0</ele><time>2026-05-02T17:08:19.625Z</time></trkpt><trkpt lat="42.981661" lon="11.0143863"><ele>122.0</ele><time>2026-05-02T17:08:20.625Z</time></trkpt><trkpt lat="42.9815818" lon="11.0143841"><ele>122.0</ele><time>2026-05-02T17:08:21.623Z</time></trkpt><trkpt lat="42.9815059" lon="11.0143841"><ele>121.99999999999999</ele><time>2026-05-02T17:08:22.634Z</time></trkpt><trkpt lat="42.981427" lon="11.0143854"><ele>122.0</ele><time>2026-05-02T17:08:23.625Z</time></trkpt><trkpt lat="42.981336" lon="11.0143896"><ele>120.6</ele><time>2026-05-02T17:08:24.628Z</time></trkpt><trkpt lat="42.9812322" lon="11.0143953"><ele>119.19999999999999</ele><time>2026-05-02T17:08:25.63Z</time></trkpt><trkpt lat="42.9811271" lon="11.0144044"><ele>117.8</ele><time>2026-05-02T17:08:26.629Z</time></trkpt><trkpt lat="42.981032" lon="11.0144093"><ele>116.4</ele><time>2026-05-02T17:08:27.624Z</time></trkpt><trkpt lat="42.9809457" lon="11.0144129"><ele>115.0</ele><time>2026-05-02T17:08:28.637Z</time></trkpt><trkpt lat="42.9808613" lon="11.014409"><ele>113.42857142857142</ele><time>2026-05-02T17:08:29.617Z</time></trkpt><trkpt lat="42.9807778" lon="11.0144034"><ele>111.85714285714286</ele><time>2026-05-02T17:08:30.624Z</time></trkpt><trkpt lat="42.9806979" lon="11.0143955"><ele>110.28571428571428</ele><time>2026-05-02T17:08:31.617Z</time></trkpt><trkpt lat="42.9806253" lon="11.0143911"><ele>108.71428571428571</ele><time>2026-05-02T17:08:32.615Z</time></trkpt><trkpt lat="42.9805601" lon="11.0143879"><ele>107.14285714285714</ele><time>2026-05-02T17:08:33.617Z</time></trkpt><trkpt lat="42.9804911" lon="11.0143864"><ele>105.57142857142857</ele><time>2026-05-02T17:08:34.626Z</time></trkpt><trkpt lat="42.9804152" lon="11.014378"><ele>104.0</ele><time>2026-05-02T17:08:35.628Z</time></trkpt><trkpt lat="42.9803361" lon="11.0143748"><ele>103.99999999999999</ele><time>2026-05-02T17:08:36.623Z</time></trkpt><trkpt lat="42.9802554" lon="11.0143762"><ele>104.0</ele><time>2026-05-02T17:08:37.609Z</time></trkpt><trkpt lat="42.9801786" lon="11.0143743"><ele>104.0</ele><time>2026-05-02T17:08:38.63Z</time></trkpt><trkpt lat="42.9801044" lon="11.0143747"><ele>104.0</ele><time>2026-05-02T17:08:39.619Z</time></trkpt><trkpt lat="42.9800351" lon="11.0143762"><ele>103.99999999999999</ele><time>2026-05-02T17:08:40.62Z</time></trkpt><trkpt lat="42.9799189" lon="11.0143859"><ele>104.0</ele><time>2026-05-02T17:08:42.633Z</time></trkpt><trkpt lat="42.9797926" lon="11.0144096"><ele>103.16666666666666</ele><time>2026-05-02T17:08:44.62Z</time></trkpt><trkpt lat="42.9797221" lon="11.0144212"><ele>102.33333333333333</ele><time>2026-05-02T17:08:45.619Z</time></trkpt><trkpt lat="42.9796449" lon="11.0144415"><ele>101.5</ele><time>2026-05-02T17:08:46.633Z</time></trkpt><trkpt lat="42.9795684" lon="11.0144796"><ele>100.66666666666666</ele><time>2026-05-02T17:08:47.626Z</time></trkpt><trkpt lat="42.9794998" lon="11.0145321"><ele>99.83333333333333</ele><time>2026-05-02T17:08:48.604Z</time></trkpt><trkpt lat="42.9794418" lon="11.0145821"><ele>99.0</ele><time>2026-05-02T17:08:49.615Z</time></trkpt><trkpt lat="42.9793508" lon="11.0146641"><ele>99.0</ele><time>2026-05-02T17:08:51.615Z</time></trkpt><trkpt lat="42.9793178" lon="11.0147655"><ele>99.0</ele><time>2026-05-02T17:08:53.618Z</time></trkpt><trkpt lat="42.9793437" lon="11.0148566"><ele>99.0</ele><time>2026-05-02T17:08:55.624Z</time></trkpt><trkpt lat="42.979435" lon="11.0148705"><ele>99.0</ele><time>2026-05-02T17:08:57.619Z</time></trkpt><trkpt lat="42.9795387" lon="11.0148555"><ele>99.0</ele><time>2026-05-02T17:08:59.621Z</time></trkpt><trkpt lat="42.9795987" lon="11.0148843"><ele>99.0</ele><time>2026-05-02T17:09:01.612Z</time></trkpt><trkpt lat="42.9795562" lon="11.0149499"><ele>99.0</ele><time>2026-05-02T17:09:04.622Z</time></trkpt><trkpt lat="42.9794009" lon="11.0149569"><ele>99.0</ele><time>2026-05-02T17:09:06.621Z</time></trkpt><trkpt lat="42.9792863" lon="11.0149712"><ele>99.0</ele><time>2026-05-02T17:09:07.623Z</time></trkpt><trkpt lat="42.9791748" lon="11.0149869"><ele>99.0</ele><time>2026-05-02T17:09:08.624Z</time></trkpt><trkpt lat="42.9790641" lon="11.014977"><ele>96.6</ele><time>2026-05-02T17:09:09.617Z</time></trkpt><trkpt lat="42.9789629" lon="11.0149327"><ele>94.2</ele><time>2026-05-02T17:09:10.612Z</time></trkpt><trkpt lat="42.9788859" lon="11.0148657"><ele>91.8</ele><time>2026-05-02T17:09:11.602Z</time></trkpt><trkpt lat="42.978836" lon="11.0147811"><ele>89.39999999999999</ele><time>2026-05-02T17:09:12.623Z</time></trkpt><trkpt lat="42.9788251" lon="11.0146471"><ele>87.0</ele><time>2026-05-02T17:09:14.6Z</time></trkpt><trkpt lat="42.9788575" lon="11.0145117"><ele>87.0</ele><time>2026-05-02T17:09:17.616Z</time></trkpt><trkpt lat="42.9788967" lon="11.0144217"><ele>87.0</ele><time>2026-05-02T17:09:18.622Z</time></trkpt><trkpt lat="42.978946" lon="11.0143238"><ele>87.0</ele><time>2026-05-02T17:09:19.611Z</time></trkpt><trkpt lat="42.9789961" lon="11.0142141"><ele>87.0</ele><time>2026-05-02T17:09:20.626Z</time></trkpt><trkpt lat="42.9790503" lon="11.0141006"><ele>87.0</ele><time>2026-05-02T17:09:21.614Z</time></trkpt><trkpt lat="42.9791174" lon="11.01395"><ele>87.0</ele><time>2026-05-02T17:09:22.615Z</time></trkpt><trkpt lat="42.9792084" lon="11.0137428"><ele>87.0</ele><time>2026-05-02T17:09:23.611Z</time></trkpt><trkpt lat="42.9793197" lon="11.0135116"><ele>87.0</ele><time>2026-05-02T17:09:24.612Z</time></trkpt><trkpt lat="42.9794541" lon="11.0132692"><ele>80.0</ele><time>2026-05-02T17:09:25.623Z</time></trkpt><trkpt lat="42.9795889" lon="11.0130082"><ele>73.0</ele><time>2026-05-02T17:09:26.602Z</time></trkpt><trkpt lat="42.9797162" lon="11.0127524"><ele>73.0</ele><time>2026-05-02T17:09:27.618Z</time></trkpt><trkpt lat="42.9798342" lon="11.0125073"><ele>73.0</ele><time>2026-05-02T17:09:28.626Z</time></trkpt><trkpt lat="42.9799456" lon="11.0122753"><ele>73.0</ele><time>2026-05-02T17:09:29.623Z</time></trkpt><trkpt lat="42.980055" lon="11.012043"><ele>74.0</ele><time>2026-05-02T17:09:30.611Z</time></trkpt><trkpt lat="42.980161" lon="11.0118331"><ele>75.0</ele><time>2026-05-02T17:09:31.635Z</time></trkpt><trkpt lat="42.9802697" lon="11.011621"><ele>76.0</ele><time>2026-05-02T17:09:32.616Z</time></trkpt><trkpt lat="42.9803735" lon="11.0114052"><ele>73.66666666666666</ele><time>2026-05-02T17:09:33.623Z</time></trkpt><trkpt lat="42.9804741" lon="11.011184"><ele>71.33333333333333</ele><time>2026-05-02T17:09:34.623Z</time></trkpt><trkpt lat="42.9805592" lon="11.0109577"><ele>69.0</ele><time>2026-05-02T17:09:35.632Z</time></trkpt><trkpt lat="42.9806248" lon="11.0107202"><ele>68.0</ele><time>2026-05-02T17:09:36.622Z</time></trkpt><trkpt lat="42.9806759" lon="11.0104706"><ele>67.0</ele><time>2026-05-02T17:09:37.611Z</time></trkpt><trkpt lat="42.9807191" lon="11.0102228"><ele>66.0</ele><time>2026-05-02T17:09:38.621Z</time></trkpt><trkpt lat="42.9807521" lon="11.0099851"><ele>66.0</ele><time>2026-05-02T17:09:39.614Z</time></trkpt><trkpt lat="42.9807805" lon="11.0097604"><ele>66.0</ele><time>2026-05-02T17:09:40.621Z</time></trkpt><trkpt lat="42.9808086" lon="11.0095428"><ele>66.0</ele><time>2026-05-02T17:09:41.627Z</time></trkpt><trkpt lat="42.9808373" lon="11.0093196"><ele>66.33333333333333</ele><time>2026-05-02T17:09:42.614Z</time></trkpt><trkpt lat="42.980868" lon="11.0090925"><ele>66.66666666666666</ele><time>2026-05-02T17:09:43.62Z</time></trkpt><trkpt lat="42.9809003" lon="11.0088574"><ele>67.0</ele><time>2026-05-02T17:09:44.628Z</time></trkpt><trkpt lat="42.9809305" lon="11.0086093"><ele>67.0</ele><time>2026-05-02T17:09:45.622Z</time></trkpt><trkpt lat="42.980961" lon="11.0083587"><ele>67.0</ele><time>2026-05-02T17:09:46.624Z</time></trkpt><trkpt lat="42.9809891" lon="11.0080988"><ele>67.0</ele><time>2026-05-02T17:09:47.622Z</time></trkpt><trkpt lat="42.9810198" lon="11.0078389"><ele>66.66666666666666</ele><time>2026-05-02T17:09:48.632Z</time></trkpt><trkpt lat="42.981052" lon="11.0075744"><ele>66.33333333333333</ele><time>2026-05-02T17:09:49.622Z</time></trkpt><trkpt lat="42.9810852" lon="11.0073077"><ele>66.0</ele><time>2026-05-02T17:09:50.618Z</time></trkpt><trkpt lat="42.9811193" lon="11.0070342"><ele>66.0</ele><time>2026-05-02T17:09:51.62Z</time></trkpt><trkpt lat="42.9811515" lon="11.0067658"><ele>66.0</ele><time>2026-05-02T17:09:52.63Z</time></trkpt><trkpt lat="42.9811873" lon="11.0064993"><ele>66.0</ele><time>2026-05-02T17:09:53.619Z</time></trkpt><trkpt lat="42.9812226" lon="11.006234"><ele>65.33333333333333</ele><time>2026-05-02T17:09:54.628Z</time></trkpt><trkpt lat="42.9812575" lon="11.0059698"><ele>64.66666666666666</ele><time>2026-05-02T17:09:55.629Z</time></trkpt><trkpt lat="42.9812907" lon="11.005713"><ele>64.0</ele><time>2026-05-02T17:09:56.628Z</time></trkpt><trkpt lat="42.981321" lon="11.0054578"><ele>63.33333333333333</ele><time>2026-05-02T17:09:57.617Z</time></trkpt><trkpt lat="42.9813416" lon="11.0052071"><ele>62.66666666666667</ele><time>2026-05-02T17:09:58.631Z</time></trkpt><trkpt lat="42.9813531" lon="11.0049601"><ele>62.0</ele><time>2026-05-02T17:09:59.632Z</time></trkpt><trkpt lat="42.9813529" lon="11.0047191"><ele>62.0</ele><time>2026-05-02T17:10:00.626Z</time></trkpt><trkpt lat="42.9813412" lon="11.0044795"><ele>62.0</ele><time>2026-05-02T17:10:01.618Z</time></trkpt><trkpt lat="42.9813125" lon="11.0042438"><ele>62.0</ele><time>2026-05-02T17:10:02.628Z</time></trkpt><trkpt lat="42.9812723" lon="11.004019"><ele>61.0</ele><time>2026-05-02T17:10:03.621Z</time></trkpt><trkpt lat="42.9812203" lon="11.003802"><ele>60.0</ele><time>2026-05-02T17:10:04.628Z</time></trkpt><trkpt lat="42.9811641" lon="11.0035888"><ele>59.0</ele><time>2026-05-02T17:10:05.623Z</time></trkpt><trkpt lat="42.9811098" lon="11.0033789"><ele>58.66666666666667</ele><time>2026-05-02T17:10:06.626Z</time></trkpt><trkpt lat="42.9810571" lon="11.0031762"><ele>58.33333333333333</ele><time>2026-05-02T17:10:07.62Z</time></trkpt><trkpt lat="42.9810064" lon="11.0029754"><ele>58.0</ele><time>2026-05-02T17:10:08.614Z</time></trkpt><trkpt lat="42.9809547" lon="11.0027726"><ele>58.0</ele><time>2026-05-02T17:10:09.617Z</time></trkpt><trkpt lat="42.9809055" lon="11.0025733"><ele>58.0</ele><time>2026-05-02T17:10:10.621Z</time></trkpt><trkpt lat="42.9808479" lon="11.0023675"><ele>58.0</ele><time>2026-05-02T17:10:11.628Z</time></trkpt><trkpt lat="42.9807811" lon="11.002154"><ele>58.0</ele><time>2026-05-02T17:10:12.615Z</time></trkpt><trkpt lat="42.9807027" lon="11.0019398"><ele>58.0</ele><time>2026-05-02T17:10:13.636Z</time></trkpt><trkpt lat="42.9806183" lon="11.0017316"><ele>58.0</ele><time>2026-05-02T17:10:14.637Z</time></trkpt><trkpt lat="42.9805236" lon="11.0015251"><ele>59.33333333333333</ele><time>2026-05-02T17:10:15.628Z</time></trkpt><trkpt lat="42.9804193" lon="11.0013256"><ele>60.66666666666667</ele><time>2026-05-02T17:10:16.631Z</time></trkpt><trkpt lat="42.9803095" lon="11.0011213"><ele>62.0</ele><time>2026-05-02T17:10:17.62Z</time></trkpt><trkpt lat="42.9801991" lon="11.0009333"><ele>61.333333333333336</ele><time>2026-05-02T17:10:18.624Z</time></trkpt><trkpt lat="42.9800911" lon="11.0007445"><ele>60.66666666666667</ele><time>2026-05-02T17:10:19.618Z</time></trkpt><trkpt lat="42.9799927" lon="11.0005572"><ele>60.0</ele><time>2026-05-02T17:10:20.618Z</time></trkpt><trkpt lat="42.97991" lon="11.0003708"><ele>60.0</ele><time>2026-05-02T17:10:21.621Z</time></trkpt><trkpt lat="42.9798323" lon="11.0001848"><ele>60.0</ele><time>2026-05-02T17:10:22.612Z</time></trkpt><trkpt lat="42.9797633" lon="10.99999"><ele>60.0</ele><time>2026-05-02T17:10:23.61Z</time></trkpt><trkpt lat="42.979706" lon="10.9997982"><ele>60.0</ele><time>2026-05-02T17:10:24.614Z</time></trkpt><trkpt lat="42.9796597" lon="10.999603"><ele>60.0</ele><time>2026-05-02T17:10:25.615Z</time></trkpt><trkpt lat="42.9796189" lon="10.9994043"><ele>60.0</ele><time>2026-05-02T17:10:26.627Z</time></trkpt><trkpt lat="42.9795897" lon="10.9991938"><ele>60.0</ele><time>2026-05-02T17:10:27.629Z</time></trkpt><trkpt lat="42.9795663" lon="10.9989761"><ele>60.0</ele><time>2026-05-02T17:10:28.607Z</time></trkpt><trkpt lat="42.9795507" lon="10.9987487"><ele>60.0</ele><time>2026-05-02T17:10:29.627Z</time></trkpt><trkpt lat="42.9795488" lon="10.9985121"><ele>58.66666666666667</ele><time>2026-05-02T17:10:30.631Z</time></trkpt><trkpt lat="42.979554" lon="10.9982754"><ele>57.333333333333336</ele><time>2026-05-02T17:10:31.617Z</time></trkpt><trkpt lat="42.9795695" lon="10.9980408"><ele>56.0</ele><time>2026-05-02T17:10:32.76Z</time></trkpt><trkpt lat="42.9796438" lon="10.9975928"><ele>55.0</ele><time>2026-05-02T17:10:34.632Z</time></trkpt><trkpt lat="42.9796905" lon="10.9973632"><ele>54.0</ele><time>2026-05-02T17:10:35.628Z</time></trkpt><trkpt lat="42.9797376" lon="10.9971328"><ele>53.0</ele><time>2026-05-02T17:10:36.623Z</time></trkpt><trkpt lat="42.9797877" lon="10.9969021"><ele>52.66666666666667</ele><time>2026-05-02T17:10:37.62Z</time></trkpt><trkpt lat="42.9798361" lon="10.9966689"><ele>52.33333333333333</ele><time>2026-05-02T17:10:38.616Z</time></trkpt><trkpt lat="42.9798873" lon="10.9964382"><ele>52.0</ele><time>2026-05-02T17:10:39.619Z</time></trkpt><trkpt lat="42.9799351" lon="10.9962098"><ele>52.0</ele><time>2026-05-02T17:10:40.623Z</time></trkpt><trkpt lat="42.9799882" lon="10.9959932"><ele>52.0</ele><time>2026-05-02T17:10:41.626Z</time></trkpt><trkpt lat="42.9800411" lon="10.9957708"><ele>52.0</ele><time>2026-05-02T17:10:42.618Z</time></trkpt><trkpt lat="42.9800913" lon="10.9955439"><ele>52.33333333333333</ele><time>2026-05-02T17:10:43.62Z</time></trkpt><trkpt lat="42.980143" lon="10.9953175"><ele>52.66666666666667</ele><time>2026-05-02T17:10:44.636Z</time></trkpt><trkpt lat="42.9801937" lon="10.9950927"><ele>53.0</ele><time>2026-05-02T17:10:45.627Z</time></trkpt><trkpt lat="42.9802412" lon="10.994866"><ele>53.333333333333336</ele><time>2026-05-02T17:10:46.628Z</time></trkpt><trkpt lat="42.9802887" lon="10.9946535"><ele>53.66666666666667</ele><time>2026-05-02T17:10:47.626Z</time></trkpt><trkpt lat="42.9803308" lon="10.9944566"><ele>54.0</ele><time>2026-05-02T17:10:48.618Z</time></trkpt><trkpt lat="42.9803646" lon="10.9942704"><ele>54.75</ele><time>2026-05-02T17:10:49.621Z</time></trkpt><trkpt lat="42.980403" lon="10.994092"><ele>55.5</ele><time>2026-05-02T17:10:50.621Z</time></trkpt><trkpt lat="42.9804405" lon="10.9939112"><ele>56.25</ele><time>2026-05-02T17:10:51.62Z</time></trkpt><trkpt lat="42.9804729" lon="10.9937304"><ele>57.0</ele><time>2026-05-02T17:10:52.615Z</time></trkpt><trkpt lat="42.9804961" lon="10.9935861"><ele>57.0</ele><time>2026-05-02T17:10:53.618Z</time></trkpt><trkpt lat="42.9805106" lon="10.9934956"><ele>56.99999999999999</ele><time>2026-05-02T17:10:54.63Z</time></trkpt><trkpt lat="42.9805352" lon="10.9933917"><ele>57.0</ele><time>2026-05-02T17:10:56.616Z</time></trkpt><trkpt lat="42.9804999" lon="10.9932854"><ele>57.0</ele><time>2026-05-02T17:10:58.62Z</time></trkpt><trkpt lat="42.9804366" lon="10.9932629"><ele>56.99999999999999</ele><time>2026-05-02T17:10:59.624Z</time></trkpt><trkpt lat="42.98036" lon="10.9932786"><ele>57.0</ele><time>2026-05-02T17:11:00.623Z</time></trkpt><trkpt lat="42.9803002" lon="10.9933228"><ele>57.0</ele><time>2026-05-02T17:11:01.619Z</time></trkpt><trkpt lat="42.9802265" lon="10.9933647"><ele>57.0</ele><time>2026-05-02T17:11:02.618Z</time></trkpt><trkpt lat="42.9801231" lon="10.9933754"><ele>57.0</ele><time>2026-05-02T17:11:03.625Z</time></trkpt><trkpt lat="42.980008" lon="10.9933765"><ele>57.0</ele><time>2026-05-02T17:11:04.627Z</time></trkpt><trkpt lat="42.9798915" lon="10.9933706"><ele>57.0</ele><time>2026-05-02T17:11:05.626Z</time></trkpt><trkpt lat="42.9797738" lon="10.993356"><ele>57.75</ele><time>2026-05-02T17:11:06.623Z</time></trkpt><trkpt lat="42.9796596" lon="10.9933373"><ele>58.5</ele><time>2026-05-02T17:11:07.615Z</time></trkpt><trkpt lat="42.979546" lon="10.9933285"><ele>59.25</ele><time>2026-05-02T17:11:08.637Z</time></trkpt><trkpt lat="42.9794329" lon="10.9933204"><ele>60.0</ele><time>2026-05-02T17:11:09.633Z</time></trkpt><trkpt lat="42.9793166" lon="10.9933154"><ele>60.0</ele><time>2026-05-02T17:11:10.62Z</time></trkpt><trkpt lat="42.9791983" lon="10.9933093"><ele>60.0</ele><time>2026-05-02T17:11:11.625Z</time></trkpt><trkpt lat="42.9790868" lon="10.9933117"><ele>60.0</ele><time>2026-05-02T17:11:12.637Z</time></trkpt><trkpt lat="42.9789957" lon="10.9933056"><ele>60.0</ele><time>2026-05-02T17:11:13.626Z</time></trkpt><trkpt lat="42.9789187" lon="10.9932944"><ele>60.0</ele><time>2026-05-02T17:11:14.618Z</time></trkpt><trkpt lat="42.9788555" lon="10.9932907"><ele>60.8</ele><time>2026-05-02T17:11:15.611Z</time></trkpt><trkpt lat="42.9787266" lon="10.9932828"><ele>61.6</ele><time>2026-05-02T17:11:17.626Z</time></trkpt><trkpt lat="42.9786528" lon="10.9932737"><ele>62.400000000000006</ele><time>2026-05-02T17:11:18.63Z</time></trkpt><trkpt lat="42.9785735" lon="10.9932777"><ele>63.2</ele><time>2026-05-02T17:11:19.657Z</time></trkpt><trkpt lat="42.9784904" lon="10.9932707"><ele>64.0</ele><time>2026-05-02T17:11:20.616Z</time></trkpt><trkpt lat="42.9784013" lon="10.9932494"><ele>64.4</ele><time>2026-05-02T17:11:21.632Z</time></trkpt><trkpt lat="42.9783079" lon="10.9932427"><ele>64.80000000000001</ele><time>2026-05-02T17:11:22.621Z</time></trkpt><trkpt lat="42.9782114" lon="10.9932397"><ele>65.19999999999999</ele><time>2026-05-02T17:11:23.627Z</time></trkpt><trkpt lat="42.9781144" lon="10.9932441"><ele>65.6</ele><time>2026-05-02T17:11:24.62Z</time></trkpt><trkpt lat="42.9780154" lon="10.9932503"><ele>66.0</ele><time>2026-05-02T17:11:25.624Z</time></trkpt><trkpt lat="42.9779146" lon="10.9932458"><ele>66.0</ele><time>2026-05-02T17:11:26.615Z</time></trkpt><trkpt lat="42.9778162" lon="10.9932449"><ele>66.0</ele><time>2026-05-02T17:11:27.612Z</time></trkpt><trkpt lat="42.9777181" lon="10.9932414"><ele>66.0</ele><time>2026-05-02T17:11:28.625Z</time></trkpt><trkpt lat="42.9776248" lon="10.993238"><ele>66.0</ele><time>2026-05-02T17:11:29.617Z</time></trkpt><trkpt lat="42.977541" lon="10.9932398"><ele>66.0</ele><time>2026-05-02T17:11:30.626Z</time></trkpt><trkpt lat="42.9774606" lon="10.9932435"><ele>66.33333333333333</ele><time>2026-05-02T17:11:31.621Z</time></trkpt><trkpt lat="42.9773821" lon="10.9932507"><ele>66.66666666666667</ele><time>2026-05-02T17:11:32.621Z</time></trkpt><trkpt lat="42.9772995" lon="10.9932556"><ele>67.0</ele><time>2026-05-02T17:11:33.622Z</time></trkpt><trkpt lat="42.9772202" lon="10.9932571"><ele>67.33333333333334</ele><time>2026-05-02T17:11:34.618Z</time></trkpt><trkpt lat="42.9771447" lon="10.9932606"><ele>67.66666666666667</ele><time>2026-05-02T17:11:35.613Z</time></trkpt><trkpt lat="42.9770697" lon="10.9932542"><ele>68.0</ele><time>2026-05-02T17:11:36.626Z</time></trkpt><trkpt lat="42.9769916" lon="10.9932531"><ele>68.0</ele><time>2026-05-02T17:11:37.611Z</time></trkpt><trkpt lat="42.9769052" lon="10.9932533"><ele>68.0</ele><time>2026-05-02T17:11:38.617Z</time></trkpt><trkpt lat="42.9768092" lon="10.9932561"><ele>68.0</ele><time>2026-05-02T17:11:39.619Z</time></trkpt><trkpt lat="42.9767097" lon="10.9932612"><ele>68.0</ele><time>2026-05-02T17:11:40.619Z</time></trkpt><trkpt lat="42.9766048" lon="10.9932615"><ele>68.0</ele><time>2026-05-02T17:11:41.614Z</time></trkpt><trkpt lat="42.9764945" lon="10.9932661"><ele>67.25</ele><time>2026-05-02T17:11:42.617Z</time></trkpt><trkpt lat="42.9763841" lon="10.9932679"><ele>66.5</ele><time>2026-05-02T17:11:43.623Z</time></trkpt><trkpt lat="42.9762691" lon="10.9932688"><ele>65.75</ele><time>2026-05-02T17:11:44.623Z</time></trkpt><trkpt lat="42.9761517" lon="10.9932683"><ele>65.0</ele><time>2026-05-02T17:11:45.612Z</time></trkpt><trkpt lat="42.976035" lon="10.9932681"><ele>65.0</ele><time>2026-05-02T17:11:46.62Z</time></trkpt><trkpt lat="42.975918" lon="10.993273"><ele>65.0</ele><time>2026-05-02T17:11:47.627Z</time></trkpt><trkpt lat="42.9757951" lon="10.9932763"><ele>65.0</ele><time>2026-05-02T17:11:48.607Z</time></trkpt><trkpt lat="42.9756754" lon="10.9932812"><ele>65.0</ele><time>2026-05-02T17:11:49.621Z</time></trkpt><trkpt lat="42.9755613" lon="10.9932777"><ele>63.8</ele><time>2026-05-02T17:11:50.611Z</time></trkpt><trkpt lat="42.9754533" lon="10.9932758"><ele>62.6</ele><time>2026-05-02T17:11:51.602Z</time></trkpt><trkpt lat="42.9753534" lon="10.9932779"><ele>61.400000000000006</ele><time>2026-05-02T17:11:52.612Z</time></trkpt><trkpt lat="42.9752556" lon="10.9932744"><ele>60.2</ele><time>2026-05-02T17:11:53.613Z</time></trkpt><trkpt lat="42.9751688" lon="10.9932728"><ele>59.0</ele><time>2026-05-02T17:11:54.622Z</time></trkpt><trkpt lat="42.9751009" lon="10.9932707"><ele>59.00000000000001</ele><time>2026-05-02T17:11:55.631Z</time></trkpt><trkpt lat="42.975035" lon="10.9932554"><ele>59.0</ele><time>2026-05-02T17:11:57.615Z</time></trkpt><trkpt lat="42.9751026" lon="10.9933144"><ele>59.0</ele><time>2026-05-02T17:12:21.624Z</time></trkpt><trkpt lat="42.9751984" lon="10.9932534"><ele>59.0</ele><time>2026-05-02T17:12:23.613Z</time></trkpt><trkpt lat="42.9753165" lon="10.9932445"><ele>59.00000000000001</ele><time>2026-05-02T17:12:25.617Z</time></trkpt><trkpt lat="42.9753839" lon="10.9932469"><ele>59.0</ele><time>2026-05-02T17:12:26.614Z</time></trkpt><trkpt lat="42.9754557" lon="10.9932484"><ele>59.0</ele><time>2026-05-02T17:12:27.609Z</time></trkpt><trkpt lat="42.9755316" lon="10.993258"><ele>59.0</ele><time>2026-05-02T17:12:28.623Z</time></trkpt><trkpt lat="42.975611" lon="10.9932692"><ele>59.0</ele><time>2026-05-02T17:12:29.624Z</time></trkpt><trkpt lat="42.9756882" lon="10.9932688"><ele>59.0</ele><time>2026-05-02T17:12:30.612Z</time></trkpt><trkpt lat="42.9757599" lon="10.9932654"><ele>59.0</ele><time>2026-05-02T17:12:31.618Z</time></trkpt><trkpt lat="42.9758312" lon="10.9932704"><ele>59.0</ele><time>2026-05-02T17:12:32.624Z</time></trkpt><trkpt lat="42.9758995" lon="10.9932713"><ele>59.0</ele><time>2026-05-02T17:12:33.615Z</time></trkpt><trkpt lat="42.9759696" lon="10.99327"><ele>60.5</ele><time>2026-05-02T17:12:34.621Z</time></trkpt><trkpt lat="42.9760768" lon="10.9932656"><ele>62.0</ele><time>2026-05-02T17:12:36.64Z</time></trkpt><trkpt lat="42.976183" lon="10.9932585"><ele>63.5</ele><time>2026-05-02T17:12:38.617Z</time></trkpt><trkpt lat="42.9763042" lon="10.9932579"><ele>65.0</ele><time>2026-05-02T17:12:40.621Z</time></trkpt><trkpt lat="42.9764292" lon="10.9932521"><ele>65.00000000000001</ele><time>2026-05-02T17:12:42.628Z</time></trkpt><trkpt lat="42.976498" lon="10.9932564"><ele>65.0</ele><time>2026-05-02T17:12:43.62Z</time></trkpt><trkpt lat="42.9765686" lon="10.9932544"><ele>65.0</ele><time>2026-05-02T17:12:44.629Z</time></trkpt><trkpt lat="42.9766431" lon="10.9932534"><ele>65.0</ele><time>2026-05-02T17:12:45.618Z</time></trkpt><trkpt lat="42.9767191" lon="10.9932527"><ele>65.0</ele><time>2026-05-02T17:12:46.627Z</time></trkpt><trkpt lat="42.9767933" lon="10.9932533"><ele>65.00000000000001</ele><time>2026-05-02T17:12:47.614Z</time></trkpt><trkpt lat="42.9768674" lon="10.99325"><ele>65.0</ele><time>2026-05-02T17:12:48.628Z</time></trkpt><trkpt lat="42.9769403" lon="10.9932442"><ele>65.42857142857143</ele><time>2026-05-02T17:12:49.621Z</time></trkpt><trkpt lat="42.9770126" lon="10.9932388"><ele>65.85714285714286</ele><time>2026-05-02T17:12:50.626Z</time></trkpt><trkpt lat="42.977083" lon="10.993235"><ele>66.28571428571428</ele><time>2026-05-02T17:12:51.617Z</time></trkpt><trkpt lat="42.977155" lon="10.9932333"><ele>66.71428571428572</ele><time>2026-05-02T17:12:52.607Z</time></trkpt><trkpt lat="42.9772241" lon="10.9932337"><ele>67.14285714285714</ele><time>2026-05-02T17:12:53.614Z</time></trkpt><trkpt lat="42.9772922" lon="10.9932371"><ele>67.57142857142857</ele><time>2026-05-02T17:12:54.615Z</time></trkpt><trkpt lat="42.9773619" lon="10.9932394"><ele>68.0</ele><time>2026-05-02T17:12:55.618Z</time></trkpt><trkpt lat="42.9774355" lon="10.9932398"><ele>68.0</ele><time>2026-05-02T17:12:56.631Z</time></trkpt><trkpt lat="42.9775111" lon="10.9932378"><ele>68.0</ele><time>2026-05-02T17:12:57.623Z</time></trkpt><trkpt lat="42.9775914" lon="10.9932294"><ele>68.0</ele><time>2026-05-02T17:12:58.62Z</time></trkpt><trkpt lat="42.9776768" lon="10.9932247"><ele>68.0</ele><time>2026-05-02T17:12:59.617Z</time></trkpt><trkpt lat="42.9777677" lon="10.9932224"><ele>68.0</ele><time>2026-05-02T17:13:00.608Z</time></trkpt><trkpt lat="42.9778593" lon="10.9932206"><ele>68.0</ele><time>2026-05-02T17:13:01.621Z</time></trkpt><trkpt lat="42.9779533" lon="10.9932149"><ele>67.6</ele><time>2026-05-02T17:13:02.619Z</time></trkpt><trkpt lat="42.9780515" lon="10.9932087"><ele>67.19999999999999</ele><time>2026-05-02T17:13:03.626Z</time></trkpt><trkpt lat="42.9781504" lon="10.9932072"><ele>66.8</ele><time>2026-05-02T17:13:04.616Z</time></trkpt><trkpt lat="42.9782516" lon="10.9932108"><ele>66.39999999999999</ele><time>2026-05-02T17:13:05.622Z</time></trkpt><trkpt lat="42.9783505" lon="10.9932135"><ele>66.0</ele><time>2026-05-02T17:13:06.621Z</time></trkpt><trkpt lat="42.9784435" lon="10.9932139"><ele>65.66666666666667</ele><time>2026-05-02T17:13:07.612Z</time></trkpt><trkpt lat="42.9785274" lon="10.9932176"><ele>65.33333333333333</ele><time>2026-05-02T17:13:08.615Z</time></trkpt><trkpt lat="42.9786038" lon="10.9932175"><ele>65.0</ele><time>2026-05-02T17:13:09.622Z</time></trkpt><trkpt lat="42.9786766" lon="10.9932198"><ele>64.66666666666666</ele><time>2026-05-02T17:13:10.625Z</time></trkpt><trkpt lat="42.9787497" lon="10.9932288"><ele>64.33333333333333</ele><time>2026-05-02T17:13:11.626Z</time></trkpt><trkpt lat="42.978831" lon="10.9932341"><ele>64.0</ele><time>2026-05-02T17:13:12.623Z</time></trkpt><trkpt lat="42.9789211" lon="10.9932407"><ele>64.0</ele><time>2026-05-02T17:13:13.632Z</time></trkpt><trkpt lat="42.9790216" lon="10.9932523"><ele>64.0</ele><time>2026-05-02T17:13:14.629Z</time></trkpt><trkpt lat="42.979134" lon="10.9932513"><ele>64.0</ele><time>2026-05-02T17:13:15.617Z</time></trkpt><trkpt lat="42.9792511" lon="10.9932457"><ele>64.0</ele><time>2026-05-02T17:13:16.618Z</time></trkpt><trkpt lat="42.9793687" lon="10.9932465"><ele>64.0</ele><time>2026-05-02T17:13:17.618Z</time></trkpt><trkpt lat="42.9794918" lon="10.9932491"><ele>63.0</ele><time>2026-05-02T17:13:18.632Z</time></trkpt><trkpt lat="42.9796197" lon="10.993254"><ele>62.0</ele><time>2026-05-02T17:13:19.626Z</time></trkpt><trkpt lat="42.9797465" lon="10.9932569"><ele>61.0</ele><time>2026-05-02T17:13:20.627Z</time></trkpt><trkpt lat="42.9798647" lon="10.9932643"><ele>60.0</ele><time>2026-05-02T17:13:21.612Z</time></trkpt><trkpt lat="42.9799741" lon="10.9932674"><ele>60.0</ele><time>2026-05-02T17:13:22.635Z</time></trkpt><trkpt lat="42.9800695" lon="10.9932647"><ele>60.0</ele><time>2026-05-02T17:13:23.623Z</time></trkpt><trkpt lat="42.9801637" lon="10.9932652"><ele>60.0</ele><time>2026-05-02T17:13:24.624Z</time></trkpt><trkpt lat="42.9802518" lon="10.9932701"><ele>60.0</ele><time>2026-05-02T17:13:25.616Z</time></trkpt><trkpt lat="42.9803281" lon="10.9932732"><ele>60.0</ele><time>2026-05-02T17:13:26.62Z</time></trkpt><trkpt lat="42.9804142" lon="10.9932829"><ele>60.0</ele><time>2026-05-02T17:13:28.62Z</time></trkpt><trkpt lat="42.980506" lon="10.9932403"><ele>60.0</ele><time>2026-05-02T17:14:27.617Z</time></trkpt><trkpt lat="42.9805645" lon="10.9931738"><ele>60.0</ele><time>2026-05-02T17:14:30.619Z</time></trkpt><trkpt lat="42.9806266" lon="10.9929883"><ele>60.0</ele><time>2026-05-02T17:14:32.619Z</time></trkpt><trkpt lat="42.9806643" lon="10.9928327"><ele>60.0</ele><time>2026-05-02T17:14:33.623Z</time></trkpt><trkpt lat="42.9807075" lon="10.9926119"><ele>59.66666666666667</ele><time>2026-05-02T17:14:34.64Z</time></trkpt><trkpt lat="42.9807573" lon="10.9923526"><ele>59.333333333333336</ele><time>2026-05-02T17:14:35.62Z</time></trkpt><trkpt lat="42.9808116" lon="10.9920696"><ele>59.0</ele><time>2026-05-02T17:14:36.618Z</time></trkpt><trkpt lat="42.980862" lon="10.9917819"><ele>59.0</ele><time>2026-05-02T17:14:37.623Z</time></trkpt><trkpt lat="42.9809139" lon="10.991492"><ele>59.0</ele><time>2026-05-02T17:14:38.625Z</time></trkpt><trkpt lat="42.9809719" lon="10.9911939"><ele>59.0</ele><time>2026-05-02T17:14:39.628Z</time></trkpt><trkpt lat="42.981027" lon="10.9908932"><ele>59.5</ele><time>2026-05-02T17:14:40.626Z</time></trkpt><trkpt lat="42.9810836" lon="10.990588"><ele>60.0</ele><time>2026-05-02T17:14:41.624Z</time></trkpt><trkpt lat="42.9811403" lon="10.9902869"><ele>59.5</ele><time>2026-05-02T17:14:42.619Z</time></trkpt><trkpt lat="42.9811939" lon="10.9899833"><ele>59.0</ele><time>2026-05-02T17:14:43.619Z</time></trkpt><trkpt lat="42.9812537" lon="10.989672"><ele>59.0</ele><time>2026-05-02T17:14:44.62Z</time></trkpt><trkpt lat="42.9813126" lon="10.98936"><ele>59.0</ele><time>2026-05-02T17:14:45.64Z</time></trkpt><trkpt lat="42.9813762" lon="10.9890438"><ele>58.5</ele><time>2026-05-02T17:14:46.619Z</time></trkpt><trkpt lat="42.9814377" lon="10.9887331"><ele>58.0</ele><time>2026-05-02T17:14:47.623Z</time></trkpt><trkpt lat="42.9814979" lon="10.9884283"><ele>58.0</ele><time>2026-05-02T17:14:48.615Z</time></trkpt><trkpt lat="42.9815613" lon="10.9881214"><ele>58.0</ele><time>2026-05-02T17:14:49.625Z</time></trkpt><trkpt lat="42.9816187" lon="10.9878046"><ele>58.0</ele><time>2026-05-02T17:14:50.608Z</time></trkpt><trkpt lat="42.9816757" lon="10.9874927"><ele>58.0</ele><time>2026-05-02T17:14:51.62Z</time></trkpt><trkpt lat="42.9817324" lon="10.9871936"><ele>58.0</ele><time>2026-05-02T17:14:52.62Z</time></trkpt><trkpt lat="42.9817863" lon="10.9869055"><ele>58.0</ele><time>2026-05-02T17:14:53.623Z</time></trkpt><trkpt lat="42.981836" lon="10.9866267"><ele>58.0</ele><time>2026-05-02T17:14:54.604Z</time></trkpt><trkpt lat="42.9818869" lon="10.9863646"><ele>58.0</ele><time>2026-05-02T17:14:55.623Z</time></trkpt><trkpt lat="42.9819368" lon="10.9861158"><ele>58.0</ele><time>2026-05-02T17:14:56.627Z</time></trkpt><trkpt lat="42.9819841" lon="10.9858857"><ele>58.0</ele><time>2026-05-02T17:14:57.626Z</time></trkpt><trkpt lat="42.9820239" lon="10.9856567"><ele>58.0</ele><time>2026-05-02T17:14:58.703Z</time></trkpt><trkpt lat="42.9820603" lon="10.9854289"><ele>58.0</ele><time>2026-05-02T17:14:59.613Z</time></trkpt><trkpt lat="42.9820906" lon="10.9851988"><ele>58.0</ele><time>2026-05-02T17:15:00.633Z</time></trkpt><trkpt lat="42.9821102" lon="10.9849629"><ele>59.0</ele><time>2026-05-02T17:15:01.624Z</time></trkpt><trkpt lat="42.9821159" lon="10.984724"><ele>60.0</ele><time>2026-05-02T17:15:02.62Z</time></trkpt><trkpt lat="42.9821146" lon="10.9844756"><ele>61.0</ele><time>2026-05-02T17:15:03.624Z</time></trkpt><trkpt lat="42.982099" lon="10.9842135"><ele>61.0</ele><time>2026-05-02T17:15:04.627Z</time></trkpt><trkpt lat="42.982067" lon="10.9839296"><ele>61.0</ele><time>2026-05-02T17:15:05.636Z</time></trkpt><trkpt lat="42.9820247" lon="10.983638"><ele>61.0</ele><time>2026-05-02T17:15:06.63Z</time></trkpt><trkpt lat="42.9819583" lon="10.9833172"><ele>60.0</ele><time>2026-05-02T17:15:07.626Z</time></trkpt><trkpt lat="42.9818828" lon="10.9829774"><ele>59.0</ele><time>2026-05-02T17:15:08.622Z</time></trkpt><trkpt lat="42.9817993" lon="10.9826262"><ele>58.5</ele><time>2026-05-02T17:15:09.628Z</time></trkpt><trkpt lat="42.9817092" lon="10.9822607"><ele>58.0</ele><time>2026-05-02T17:15:10.63Z</time></trkpt><trkpt lat="42.9816159" lon="10.9818897"><ele>58.5</ele><time>2026-05-02T17:15:11.63Z</time></trkpt><trkpt lat="42.9815257" lon="10.9815211"><ele>59.0</ele><time>2026-05-02T17:15:12.633Z</time></trkpt><trkpt lat="42.9814395" lon="10.981163"><ele>59.0</ele><time>2026-05-02T17:15:13.628Z</time></trkpt><trkpt lat="42.9813552" lon="10.9808267"><ele>59.0</ele><time>2026-05-02T17:15:14.615Z</time></trkpt><trkpt lat="42.9812759" lon="10.9804985"><ele>59.0</ele><time>2026-05-02T17:15:15.623Z</time></trkpt><trkpt lat="42.9812052" lon="10.9801598"><ele>59.0</ele><time>2026-05-02T17:15:16.632Z</time></trkpt><trkpt lat="42.9811548" lon="10.9798058"><ele>58.5</ele><time>2026-05-02T17:15:17.624Z</time></trkpt><trkpt lat="42.9811217" lon="10.9794609"><ele>58.0</ele><time>2026-05-02T17:15:18.627Z</time></trkpt><trkpt lat="42.9810996" lon="10.979113"><ele>58.0</ele><time>2026-05-02T17:15:19.614Z</time></trkpt><trkpt lat="42.9810827" lon="10.9787687"><ele>58.0</ele><time>2026-05-02T17:15:20.623Z</time></trkpt><trkpt lat="42.9810636" lon="10.978411"><ele>57.5</ele><time>2026-05-02T17:15:21.615Z</time></trkpt><trkpt lat="42.9810451" lon="10.978043"><ele>57.0</ele><time>2026-05-02T17:15:22.618Z</time></trkpt><trkpt lat="42.9810266" lon="10.9776847"><ele>56.5</ele><time>2026-05-02T17:15:23.614Z</time></trkpt><trkpt lat="42.9810062" lon="10.9773342"><ele>56.0</ele><time>2026-05-02T17:15:24.627Z</time></trkpt><trkpt lat="42.9809892" lon="10.977005"><ele>56.0</ele><time>2026-05-02T17:15:25.619Z</time></trkpt><trkpt lat="42.9809728" lon="10.9766865"><ele>56.0</ele><time>2026-05-02T17:15:26.626Z</time></trkpt><trkpt lat="42.9809571" lon="10.9763806"><ele>55.66666666666667</ele><time>2026-05-02T17:15:27.619Z</time></trkpt><trkpt lat="42.9809391" lon="10.9760872"><ele>55.33333333333333</ele><time>2026-05-02T17:15:28.624Z</time></trkpt><trkpt lat="42.9809249" lon="10.9758073"><ele>55.0</ele><time>2026-05-02T17:15:29.615Z</time></trkpt><trkpt lat="42.9809088" lon="10.9755318"><ele>54.666666666666664</ele><time>2026-05-02T17:15:30.624Z</time></trkpt><trkpt lat="42.9808952" lon="10.9752771"><ele>54.33333333333333</ele><time>2026-05-02T17:15:31.632Z</time></trkpt><trkpt lat="42.9808734" lon="10.9750532"><ele>54.0</ele><time>2026-05-02T17:15:32.628Z</time></trkpt><trkpt lat="42.9808334" lon="10.974854"><ele>54.0</ele><time>2026-05-02T17:15:33.62Z</time></trkpt><trkpt lat="42.9807606" lon="10.9746599"><ele>54.0</ele><time>2026-05-02T17:15:34.626Z</time></trkpt><trkpt lat="42.9806482" lon="10.9744785"><ele>54.0</ele><time>2026-05-02T17:15:35.626Z</time></trkpt><trkpt lat="42.9805119" lon="10.974314"><ele>54.0</ele><time>2026-05-02T17:15:36.624Z</time></trkpt><trkpt lat="42.9803588" lon="10.9741664"><ele>54.0</ele><time>2026-05-02T17:15:37.62Z</time></trkpt><trkpt lat="42.9801903" lon="10.974023"><ele>54.0</ele><time>2026-05-02T17:15:38.628Z</time></trkpt><trkpt lat="42.9800177" lon="10.9738791"><ele>54.0</ele><time>2026-05-02T17:15:39.627Z</time></trkpt><trkpt lat="42.9798459" lon="10.9737352"><ele>54.0</ele><time>2026-05-02T17:15:40.624Z</time></trkpt><trkpt lat="42.9796711" lon="10.9735875"><ele>54.0</ele><time>2026-05-02T17:15:41.632Z</time></trkpt><trkpt lat="42.9794879" lon="10.9734319"><ele>54.0</ele><time>2026-05-02T17:15:42.627Z</time></trkpt><trkpt lat="42.9792953" lon="10.9732758"><ele>54.0</ele><time>2026-05-02T17:15:43.616Z</time></trkpt><trkpt lat="42.9790946" lon="10.9731135"><ele>53.0</ele><time>2026-05-02T17:15:44.623Z</time></trkpt><trkpt lat="42.9788861" lon="10.9729385"><ele>52.0</ele><time>2026-05-02T17:15:45.629Z</time></trkpt><trkpt lat="42.9786752" lon="10.9727586"><ele>52.0</ele><time>2026-05-02T17:15:46.62Z</time></trkpt><trkpt lat="42.9784561" lon="10.9725782"><ele>52.0</ele><time>2026-05-02T17:15:47.628Z</time></trkpt><trkpt lat="42.9782329" lon="10.9723971"><ele>52.5</ele><time>2026-05-02T17:15:48.621Z</time></trkpt><trkpt lat="42.9780085" lon="10.9722206"><ele>53.0</ele><time>2026-05-02T17:15:49.625Z</time></trkpt><trkpt lat="42.9777835" lon="10.9720373"><ele>53.0</ele><time>2026-05-02T17:15:50.625Z</time></trkpt><trkpt lat="42.977559" lon="10.9718511"><ele>53.0</ele><time>2026-05-02T17:15:51.614Z</time></trkpt><trkpt lat="42.9773344" lon="10.9716657"><ele>53.0</ele><time>2026-05-02T17:15:52.623Z</time></trkpt><trkpt lat="42.9771104" lon="10.9714856"><ele>53.0</ele><time>2026-05-02T17:15:53.628Z</time></trkpt><trkpt lat="42.976891" lon="10.9713036"><ele>53.0</ele><time>2026-05-02T17:15:54.611Z</time></trkpt><trkpt lat="42.9766792" lon="10.9711233"><ele>53.0</ele><time>2026-05-02T17:15:55.616Z</time></trkpt><trkpt lat="42.976472" lon="10.970948"><ele>54.0</ele><time>2026-05-02T17:15:56.614Z</time></trkpt><trkpt lat="42.9762725" lon="10.9707842"><ele>55.0</ele><time>2026-05-02T17:15:57.623Z</time></trkpt><trkpt lat="42.976083" lon="10.9706305"><ele>55.0</ele><time>2026-05-02T17:15:58.614Z</time></trkpt><trkpt lat="42.9759052" lon="10.9704852"><ele>55.0</ele><time>2026-05-02T17:15:59.618Z</time></trkpt><trkpt lat="42.9757318" lon="10.970343"><ele>55.0</ele><time>2026-05-02T17:16:00.609Z</time></trkpt><trkpt lat="42.9755603" lon="10.9702001"><ele>55.0</ele><time>2026-05-02T17:16:01.618Z</time></trkpt><trkpt lat="42.9753912" lon="10.9700583"><ele>55.0</ele><time>2026-05-02T17:16:02.609Z</time></trkpt><trkpt lat="42.975223" lon="10.9699186"><ele>55.0</ele><time>2026-05-02T17:16:03.624Z</time></trkpt><trkpt lat="42.9750551" lon="10.9697793"><ele>54.0</ele><time>2026-05-02T17:16:04.606Z</time></trkpt><trkpt lat="42.9748859" lon="10.9696347"><ele>53.0</ele><time>2026-05-02T17:16:05.618Z</time></trkpt><trkpt lat="42.9747186" lon="10.969485"><ele>52.0</ele><time>2026-05-02T17:16:06.612Z</time></trkpt><trkpt lat="42.9745551" lon="10.969327"><ele>52.0</ele><time>2026-05-02T17:16:07.61Z</time></trkpt><trkpt lat="42.9744001" lon="10.9691543"><ele>52.0</ele><time>2026-05-02T17:16:08.615Z</time></trkpt><trkpt lat="42.9742533" lon="10.9689668"><ele>52.0</ele><time>2026-05-02T17:16:09.622Z</time></trkpt><trkpt lat="42.9741166" lon="10.9687604"><ele>52.0</ele><time>2026-05-02T17:16:10.607Z</time></trkpt><trkpt lat="42.9739828" lon="10.9685464"><ele>52.0</ele><time>2026-05-02T17:16:11.616Z</time></trkpt><trkpt lat="42.9738529" lon="10.9683257"><ele>52.0</ele><time>2026-05-02T17:16:12.614Z</time></trkpt><trkpt lat="42.9737264" lon="10.9680967"><ele>52.33333333333333</ele><time>2026-05-02T17:16:13.615Z</time></trkpt><trkpt lat="42.9735991" lon="10.9678677"><ele>52.66666666666667</ele><time>2026-05-02T17:16:14.617Z</time></trkpt><trkpt lat="42.9734739" lon="10.9676388"><ele>53.0</ele><time>2026-05-02T17:16:15.61Z</time></trkpt><trkpt lat="42.9733526" lon="10.9674059"><ele>53.0</ele><time>2026-05-02T17:16:16.618Z</time></trkpt><trkpt lat="42.9732283" lon="10.9671808"><ele>53.0</ele><time>2026-05-02T17:16:17.617Z</time></trkpt><trkpt lat="42.9731089" lon="10.9669603"><ele>53.0</ele><time>2026-05-02T17:16:18.625Z</time></trkpt><trkpt lat="42.972992" lon="10.9667413"><ele>53.333333333333336</ele><time>2026-05-02T17:16:19.627Z</time></trkpt><trkpt lat="42.9728744" lon="10.9665217"><ele>53.66666666666667</ele><time>2026-05-02T17:16:20.63Z</time></trkpt><trkpt lat="42.972751" lon="10.9663069"><ele>54.0</ele><time>2026-05-02T17:16:21.632Z</time></trkpt><trkpt lat="42.9726344" lon="10.966087"><ele>54.0</ele><time>2026-05-02T17:16:22.622Z</time></trkpt><trkpt lat="42.9725299" lon="10.9658901"><ele>54.0</ele><time>2026-05-02T17:16:23.621Z</time></trkpt><trkpt lat="42.9724274" lon="10.9657057"><ele>54.0</ele><time>2026-05-02T17:16:24.618Z</time></trkpt><trkpt lat="42.9723338" lon="10.9655351"><ele>54.33333333333333</ele><time>2026-05-02T17:16:25.615Z</time></trkpt><trkpt lat="42.9722428" lon="10.9653719"><ele>54.666666666666664</ele><time>2026-05-02T17:16:26.626Z</time></trkpt><trkpt lat="42.972151" lon="10.9652052"><ele>55.0</ele><time>2026-05-02T17:16:27.629Z</time></trkpt><trkpt lat="42.9720575" lon="10.9650394"><ele>55.0</ele><time>2026-05-02T17:16:28.617Z</time></trkpt><trkpt lat="42.9719616" lon="10.9648637"><ele>55.0</ele><time>2026-05-02T17:16:29.614Z</time></trkpt><trkpt lat="42.9718626" lon="10.9646761"><ele>55.0</ele><time>2026-05-02T17:16:30.626Z</time></trkpt><trkpt lat="42.9717632" lon="10.9644899"><ele>56.666666666666664</ele><time>2026-05-02T17:16:31.621Z</time></trkpt><trkpt lat="42.9716542" lon="10.9643012"><ele>58.33333333333333</ele><time>2026-05-02T17:16:32.622Z</time></trkpt><trkpt lat="42.9715431" lon="10.9641075"><ele>60.0</ele><time>2026-05-02T17:16:33.622Z</time></trkpt><trkpt lat="42.9714321" lon="10.9639137"><ele>60.0</ele><time>2026-05-02T17:16:34.626Z</time></trkpt><trkpt lat="42.9713266" lon="10.9637091"><ele>60.0</ele><time>2026-05-02T17:16:35.617Z</time></trkpt><trkpt lat="42.9712234" lon="10.9634945"><ele>60.0</ele><time>2026-05-02T17:16:36.617Z</time></trkpt><trkpt lat="42.9711146" lon="10.9632751"><ele>58.66666666666667</ele><time>2026-05-02T17:16:37.608Z</time></trkpt><trkpt lat="42.9710106" lon="10.9630517"><ele>57.333333333333336</ele><time>2026-05-02T17:16:38.626Z</time></trkpt><trkpt lat="42.9709121" lon="10.9628238"><ele>56.0</ele><time>2026-05-02T17:16:39.613Z</time></trkpt><trkpt lat="42.9708181" lon="10.9625916"><ele>59.66666666666667</ele><time>2026-05-02T17:16:40.618Z</time></trkpt><trkpt lat="42.970725" lon="10.9623607"><ele>63.33333333333333</ele><time>2026-05-02T17:16:41.623Z</time></trkpt><trkpt lat="42.9706299" lon="10.962127"><ele>67.0</ele><time>2026-05-02T17:16:42.617Z</time></trkpt><trkpt lat="42.9705367" lon="10.9618947"><ele>64.33333333333333</ele><time>2026-05-02T17:16:43.612Z</time></trkpt><trkpt lat="42.970441" lon="10.9616644"><ele>61.66666666666667</ele><time>2026-05-02T17:16:44.624Z</time></trkpt><trkpt lat="42.9703457" lon="10.961438"><ele>59.0</ele><time>2026-05-02T17:16:45.612Z</time></trkpt><trkpt lat="42.970254" lon="10.9612141"><ele>59.0</ele><time>2026-05-02T17:16:46.621Z</time></trkpt><trkpt lat="42.9701662" lon="10.9610025"><ele>59.0</ele><time>2026-05-02T17:16:47.618Z</time></trkpt><trkpt lat="42.9700881" lon="10.9608036"><ele>59.0</ele><time>2026-05-02T17:16:48.626Z</time></trkpt><trkpt lat="42.9700156" lon="10.9606273"><ele>59.75</ele><time>2026-05-02T17:16:49.614Z</time></trkpt><trkpt lat="42.9699476" lon="10.9604661"><ele>60.5</ele><time>2026-05-02T17:16:50.624Z</time></trkpt><trkpt lat="42.969881" lon="10.9603027"><ele>61.25</ele><time>2026-05-02T17:16:51.622Z</time></trkpt><trkpt lat="42.9698234" lon="10.9601301"><ele>62.0</ele><time>2026-05-02T17:16:52.614Z</time></trkpt><trkpt lat="42.9697764" lon="10.9599437"><ele>62.0</ele><time>2026-05-02T17:16:53.616Z</time></trkpt><trkpt lat="42.9697518" lon="10.9597403"><ele>62.0</ele><time>2026-05-02T17:16:54.611Z</time></trkpt><trkpt lat="42.9697449" lon="10.9595277"><ele>62.0</ele><time>2026-05-02T17:16:55.617Z</time></trkpt><trkpt lat="42.9697454" lon="10.9593054"><ele>62.0</ele><time>2026-05-02T17:16:56.614Z</time></trkpt><trkpt lat="42.969744" lon="10.9590803"><ele>62.0</ele><time>2026-05-02T17:16:57.617Z</time></trkpt><trkpt lat="42.9697328" lon="10.9588542"><ele>62.0</ele><time>2026-05-02T17:16:58.612Z</time></trkpt><trkpt lat="42.9697213" lon="10.9586333"><ele>62.0</ele><time>2026-05-02T17:16:59.618Z</time></trkpt><trkpt lat="42.969708" lon="10.9584162"><ele>62.0</ele><time>2026-05-02T17:17:00.621Z</time></trkpt><trkpt lat="42.9718626" lon="10.9646761"><ele>62.0</ele><time>2026-05-02T17:16:30.626Z</time></trkpt><trkpt lat="42.9717632" lon="10.9644899"><ele>62.0</ele><time>2026-05-02T17:16:31.621Z</time></trkpt><trkpt lat="42.9716542" lon="10.9643012"><ele>62.0</ele><time>2026-05-02T17:16:32.622Z</time></trkpt><trkpt lat="42.9715431" lon="10.9641075"><ele>61.333333333333336</ele><time>2026-05-02T17:16:33.622Z</time></trkpt><trkpt lat="42.9714321" lon="10.9639137"><ele>60.66666666666667</ele><time>2026-05-02T17:16:34.626Z</time></trkpt><trkpt lat="42.9713266" lon="10.9637091"><ele>60.0</ele><time>2026-05-02T17:16:35.617Z</time></trkpt><trkpt lat="42.9712234" lon="10.9634945"><ele>58.66666666666667</ele><time>2026-05-02T17:16:36.617Z</time></trkpt><trkpt lat="42.9711146" lon="10.9632751"><ele>57.333333333333336</ele><time>2026-05-02T17:16:37.608Z</time></trkpt><trkpt lat="42.9710106" lon="10.9630517"><ele>56.0</ele><time>2026-05-02T17:16:38.626Z</time></trkpt><trkpt lat="42.9709121" lon="10.9628238"><ele>59.66666666666667</ele><time>2026-05-02T17:16:39.613Z</time></trkpt><trkpt lat="42.9708181" lon="10.9625916"><ele>63.33333333333333</ele><time>2026-05-02T17:16:40.618Z</time></trkpt><trkpt lat="42.970725" lon="10.9623607"><ele>67.0</ele><time>2026-05-02T17:16:41.623Z</time></trkpt><trkpt lat="42.9706299" lon="10.962127"><ele>67.0</ele><time>2026-05-02T17:16:42.617Z</time></trkpt><trkpt lat="42.9705367" lon="10.9618947"><ele>67.0</ele><time>2026-05-02T17:16:43.612Z</time></trkpt><trkpt lat="42.970441" lon="10.9616644"><ele>67.0</ele><time>2026-05-02T17:16:44.624Z</time></trkpt><trkpt lat="42.9703457" lon="10.961438"><ele>64.33333333333333</ele><time>2026-05-02T17:16:45.612Z</time></trkpt><trkpt lat="42.970254" lon="10.9612141"><ele>61.66666666666667</ele><time>2026-05-02T17:16:46.621Z</time></trkpt><trkpt lat="42.9701662" lon="10.9610025"><ele>59.0</ele><time>2026-05-02T17:16:47.618Z</time></trkpt><trkpt lat="42.9700881" lon="10.9608036"><ele>62.75</ele><time>2026-05-02T17:16:48.626Z</time></trkpt><trkpt lat="42.9700156" lon="10.9606273"><ele>66.5</ele><time>2026-05-02T17:16:49.614Z</time></trkpt><trkpt lat="42.9699476" lon="10.9604661"><ele>70.25</ele><time>2026-05-02T17:16:50.624Z</time></trkpt><trkpt lat="42.969881" lon="10.9603027"><ele>74.0</ele><time>2026-05-02T17:16:51.622Z</time></trkpt><trkpt lat="42.9698234" lon="10.9601301"><ele>70.0</ele><time>2026-05-02T17:16:52.614Z</time></trkpt><trkpt lat="42.9697764" lon="10.9599437"><ele>66.0</ele><time>2026-05-02T17:16:53.616Z</time></trkpt><trkpt lat="42.9697518" lon="10.9597403"><ele>62.0</ele><time>2026-05-02T17:16:54.611Z</time></trkpt><trkpt lat="42.9697449" lon="10.9595277"><ele>62.0</ele><time>2026-05-02T17:16:55.617Z</time></trkpt><trkpt lat="42.9697454" lon="10.9593054"><ele>62.0</ele><time>2026-05-02T17:16:56.614Z</time></trkpt><trkpt lat="42.969744" lon="10.9590803"><ele>62.0</ele><time>2026-05-02T17:16:57.617Z</time></trkpt><trkpt lat="42.9697328" lon="10.9588542"><ele>62.0</ele><time>2026-05-02T17:16:58.612Z</time></trkpt><trkpt lat="42.9697213" lon="10.9586333"><ele>62.0</ele><time>2026-05-02T17:16:59.618Z</time></trkpt><trkpt lat="42.969708" lon="10.9584162"><ele>62.0</ele><time>2026-05-02T17:17:00.621Z</time></trkpt><trkpt lat="42.9696909" lon="10.9581999"><ele>61.66666666666667</ele><time>2026-05-02T17:17:01.616Z</time></trkpt><trkpt lat="42.9696687" lon="10.957982"><ele>61.33333333333333</ele><time>2026-05-02T17:17:02.629Z</time></trkpt><trkpt lat="42.9696464" lon="10.9577637"><ele>61.0</ele><time>2026-05-02T17:17:03.615Z</time></trkpt><trkpt lat="42.9696233" lon="10.9575445"><ele>61.666666666666664</ele><time>2026-05-02T17:17:04.617Z</time></trkpt><trkpt lat="42.9696003" lon="10.9573219"><ele>62.33333333333333</ele><time>2026-05-02T17:17:05.612Z</time></trkpt><trkpt lat="42.9695828" lon="10.9570998"><ele>63.0</ele><time>2026-05-02T17:17:06.614Z</time></trkpt><trkpt lat="42.9695619" lon="10.9568719"><ele>62.66666666666667</ele><time>2026-05-02T17:17:07.625Z</time></trkpt><trkpt lat="42.9695392" lon="10.9566465"><ele>62.333333333333336</ele><time>2026-05-02T17:17:08.622Z</time></trkpt><trkpt lat="42.969521" lon="10.956414"><ele>62.0</ele><time>2026-05-02T17:17:09.62Z</time></trkpt><trkpt lat="42.9695081" lon="10.9561774"><ele>62.0</ele><time>2026-05-02T17:17:10.617Z</time></trkpt><trkpt lat="42.9695004" lon="10.9559283"><ele>62.0</ele><time>2026-05-02T17:17:11.625Z</time></trkpt><trkpt lat="42.9695073" lon="10.9556727"><ele>62.0</ele><time>2026-05-02T17:17:12.617Z</time></trkpt><trkpt lat="42.9695298" lon="10.9554086"><ele>62.0</ele><time>2026-05-02T17:17:13.621Z</time></trkpt><trkpt lat="42.9695618" lon="10.9551413"><ele>62.0</ele><time>2026-05-02T17:17:14.615Z</time></trkpt><trkpt lat="42.9695959" lon="10.9548702"><ele>62.0</ele><time>2026-05-02T17:17:15.607Z</time></trkpt><trkpt lat="42.9696338" lon="10.9545977"><ele>62.0</ele><time>2026-05-02T17:17:16.626Z</time></trkpt><trkpt lat="42.9696719" lon="10.9543218"><ele>62.0</ele><time>2026-05-02T17:17:17.613Z</time></trkpt><trkpt lat="42.9697064" lon="10.9540494"><ele>62.0</ele><time>2026-05-02T17:17:18.616Z</time></trkpt><trkpt lat="42.9697389" lon="10.95379"><ele>62.66666666666667</ele><time>2026-05-02T17:17:19.616Z</time></trkpt><trkpt lat="42.9697658" lon="10.953545"><ele>63.33333333333333</ele><time>2026-05-02T17:17:20.615Z</time></trkpt><trkpt lat="42.9697949" lon="10.9532981"><ele>64.0</ele><time>2026-05-02T17:17:21.62Z</time></trkpt><trkpt lat="42.9698102" lon="10.9530491"><ele>64.33333333333333</ele><time>2026-05-02T17:17:22.624Z</time></trkpt><trkpt lat="42.9698154" lon="10.9527972"><ele>64.66666666666667</ele><time>2026-05-02T17:17:23.626Z</time></trkpt><trkpt lat="42.9698158" lon="10.9525439"><ele>65.0</ele><time>2026-05-02T17:17:24.616Z</time></trkpt><trkpt lat="42.969809" lon="10.9522883"><ele>65.0</ele><time>2026-05-02T17:17:25.616Z</time></trkpt><trkpt lat="42.9698003" lon="10.9520352"><ele>65.0</ele><time>2026-05-02T17:17:26.619Z</time></trkpt><trkpt lat="42.9697836" lon="10.9517813"><ele>65.0</ele><time>2026-05-02T17:17:27.611Z</time></trkpt><trkpt lat="42.9697686" lon="10.9515409"><ele>65.0</ele><time>2026-05-02T17:17:28.621Z</time></trkpt><trkpt lat="42.9697606" lon="10.9513395"><ele>65.0</ele><time>2026-05-02T17:17:29.612Z</time></trkpt><trkpt lat="42.9697625" lon="10.9511816"><ele>65.0</ele><time>2026-05-02T17:17:30.615Z</time></trkpt><trkpt lat="42.9697626" lon="10.9510607"><ele>65.0</ele><time>2026-05-02T17:17:31.623Z</time></trkpt><trkpt lat="42.9697534" lon="10.9509629"><ele>65.0</ele><time>2026-05-02T17:17:32.615Z</time></trkpt><trkpt lat="42.9697548" lon="10.9508741"><ele>65.0</ele><time>2026-05-02T17:17:33.611Z</time></trkpt><trkpt lat="42.9697891" lon="10.9507522"><ele>65.0</ele><time>2026-05-02T17:17:35.615Z</time></trkpt><trkpt lat="42.9699211" lon="10.9507571"><ele>65.0</ele><time>2026-05-02T17:17:37.621Z</time></trkpt><trkpt lat="42.969987" lon="10.9508158"><ele>65.0</ele><time>2026-05-02T17:17:38.624Z</time></trkpt><trkpt lat="42.9700717" lon="10.9508566"><ele>65.0</ele><time>2026-05-02T17:17:39.611Z</time></trkpt><trkpt lat="42.9701725" lon="10.9509255"><ele>63.75</ele><time>2026-05-02T17:17:40.625Z</time></trkpt><trkpt lat="42.9702691" lon="10.9510319"><ele>62.5</ele><time>2026-05-02T17:17:41.613Z</time></trkpt><trkpt lat="42.9703641" lon="10.9511608"><ele>61.25</ele><time>2026-05-02T17:17:42.618Z</time></trkpt><trkpt lat="42.9704613" lon="10.9512768"><ele>60.0</ele><time>2026-05-02T17:17:43.613Z</time></trkpt><trkpt lat="42.9705618" lon="10.9514037"><ele>60.0</ele><time>2026-05-02T17:17:44.624Z</time></trkpt><trkpt lat="42.9706613" lon="10.9515333"><ele>60.0</ele><time>2026-05-02T17:17:45.61Z</time></trkpt><trkpt lat="42.9707609" lon="10.9516594"><ele>60.0</ele><time>2026-05-02T17:17:46.617Z</time></trkpt><trkpt lat="42.9708531" lon="10.9517855"><ele>60.0</ele><time>2026-05-02T17:17:47.616Z</time></trkpt><trkpt lat="42.9709412" lon="10.9518915"><ele>60.5</ele><time>2026-05-02T17:17:48.612Z</time></trkpt><trkpt lat="42.9710303" lon="10.9519802"><ele>61.0</ele><time>2026-05-02T17:17:49.619Z</time></trkpt><trkpt lat="42.9711273" lon="10.9520579"><ele>61.5</ele><time>2026-05-02T17:17:50.614Z</time></trkpt><trkpt lat="42.9712323" lon="10.9521248"><ele>62.0</ele><time>2026-05-02T17:17:51.61Z</time></trkpt><trkpt lat="42.9713341" lon="10.9521935"><ele>62.0</ele><time>2026-05-02T17:17:52.616Z</time></trkpt><trkpt lat="42.9714259" lon="10.9522655"><ele>62.0</ele><time>2026-05-02T17:17:53.619Z</time></trkpt><trkpt lat="42.9715239" lon="10.952316"><ele>62.0</ele><time>2026-05-02T17:17:54.624Z</time></trkpt><trkpt lat="42.9716311" lon="10.9523197"><ele>62.0</ele><time>2026-05-02T17:17:55.618Z</time></trkpt><trkpt lat="42.9717366" lon="10.952273"><ele>62.0</ele><time>2026-05-02T17:17:56.607Z</time></trkpt><trkpt lat="42.9718223" lon="10.9521759"><ele>62.25</ele><time>2026-05-02T17:17:57.614Z</time></trkpt><trkpt lat="42.9719155" lon="10.9520492"><ele>62.5</ele><time>2026-05-02T17:17:58.621Z</time></trkpt><trkpt lat="42.9720175" lon="10.9519276"><ele>62.75</ele><time>2026-05-02T17:17:59.618Z</time></trkpt><trkpt lat="42.9721215" lon="10.9517928"><ele>63.0</ele><time>2026-05-02T17:18:00.617Z</time></trkpt><trkpt lat="42.9722284" lon="10.9516536"><ele>63.0</ele><time>2026-05-02T17:18:01.612Z</time></trkpt><trkpt lat="42.9723421" lon="10.9515177"><ele>63.0</ele><time>2026-05-02T17:18:02.612Z</time></trkpt><trkpt lat="42.9724547" lon="10.9513739"><ele>63.0</ele><time>2026-05-02T17:18:03.62Z</time></trkpt><trkpt lat="42.9725728" lon="10.9512271"><ele>63.66666666666667</ele><time>2026-05-02T17:18:04.623Z</time></trkpt><trkpt lat="42.9726913" lon="10.9510713"><ele>64.33333333333334</ele><time>2026-05-02T17:18:05.614Z</time></trkpt><trkpt lat="42.9728122" lon="10.9509143"><ele>65.0</ele><time>2026-05-02T17:18:06.62Z</time></trkpt><trkpt lat="42.9729393" lon="10.9507566"><ele>65.0</ele><time>2026-05-02T17:18:07.617Z</time></trkpt><trkpt lat="42.9730636" lon="10.9505931"><ele>65.0</ele><time>2026-05-02T17:18:08.621Z</time></trkpt><trkpt lat="42.9731872" lon="10.9504298"><ele>65.0</ele><time>2026-05-02T17:18:09.617Z</time></trkpt><trkpt lat="42.9733107" lon="10.9502673"><ele>65.0</ele><time>2026-05-02T17:18:10.62Z</time></trkpt><trkpt lat="42.9734354" lon="10.9501094"><ele>65.0</ele><time>2026-05-02T17:18:11.608Z</time></trkpt><trkpt lat="42.9735628" lon="10.9499546"><ele>65.0</ele><time>2026-05-02T17:18:12.619Z</time></trkpt><trkpt lat="42.9736961" lon="10.9497943"><ele>65.33333333333334</ele><time>2026-05-02T17:18:13.616Z</time></trkpt><trkpt lat="42.9738381" lon="10.9496303"><ele>65.66666666666667</ele><time>2026-05-02T17:18:14.606Z</time></trkpt><trkpt lat="42.9740098" lon="10.9494764"><ele>66.0</ele><time>2026-05-02T17:18:15.605Z</time></trkpt><trkpt lat="42.9742032" lon="10.9493273"><ele>66.0</ele><time>2026-05-02T17:18:16.608Z</time></trkpt><trkpt lat="42.9744147" lon="10.9491727"><ele>66.0</ele><time>2026-05-02T17:18:17.608Z</time></trkpt><trkpt lat="42.9746321" lon="10.9490172"><ele>66.0</ele><time>2026-05-02T17:18:18.627Z</time></trkpt><trkpt lat="42.9748501" lon="10.9488597"><ele>66.0</ele><time>2026-05-02T17:18:19.615Z</time></trkpt><trkpt lat="42.9750663" lon="10.9487028"><ele>66.0</ele><time>2026-05-02T17:18:20.611Z</time></trkpt><trkpt lat="42.9752726" lon="10.9485429"><ele>66.0</ele><time>2026-05-02T17:18:21.614Z</time></trkpt><trkpt lat="42.9754731" lon="10.94839"><ele>67.0</ele><time>2026-05-02T17:18:22.62Z</time></trkpt><trkpt lat="42.9756752" lon="10.9482347"><ele>68.0</ele><time>2026-05-02T17:18:23.611Z</time></trkpt><trkpt lat="42.9758814" lon="10.9480663"><ele>69.0</ele><time>2026-05-02T17:18:24.618Z</time></trkpt><trkpt lat="42.976086" lon="10.9479093"><ele>70.0</ele><time>2026-05-02T17:18:25.623Z</time></trkpt><trkpt lat="42.9762777" lon="10.9477676"><ele>70.0</ele><time>2026-05-02T17:18:26.622Z</time></trkpt><trkpt lat="42.9764529" lon="10.9476357"><ele>70.0</ele><time>2026-05-02T17:18:27.614Z</time></trkpt><trkpt lat="42.9766171" lon="10.9475077"><ele>70.0</ele><time>2026-05-02T17:18:28.617Z</time></trkpt><trkpt lat="42.9767726" lon="10.9473939"><ele>70.5</ele><time>2026-05-02T17:18:29.622Z</time></trkpt><trkpt lat="42.9769073" lon="10.9472944"><ele>71.0</ele><time>2026-05-02T17:18:30.63Z</time></trkpt><trkpt lat="42.9770178" lon="10.9472317"><ele>71.5</ele><time>2026-05-02T17:18:31.625Z</time></trkpt><trkpt lat="42.9770888" lon="10.9471806"><ele>72.0</ele><time>2026-05-02T17:18:32.617Z</time></trkpt><trkpt lat="42.9771823" lon="10.9471097"><ele>72.0</ele><time>2026-05-02T17:18:34.613Z</time></trkpt><trkpt lat="42.9772516" lon="10.9470424"><ele>72.0</ele><time>2026-05-02T17:18:36.609Z</time></trkpt><trkpt lat="42.9773044" lon="10.9469949"><ele>72.0</ele><time>2026-05-02T17:18:37.621Z</time></trkpt><trkpt lat="42.9773785" lon="10.9469354"><ele>72.0</ele><time>2026-05-02T17:18:38.625Z</time></trkpt><trkpt lat="42.9774736" lon="10.9468683"><ele>72.0</ele><time>2026-05-02T17:18:39.617Z</time></trkpt><trkpt lat="42.9775931" lon="10.9467919"><ele>71.33333333333333</ele><time>2026-05-02T17:18:40.629Z</time></trkpt><trkpt lat="42.9777351" lon="10.9467036"><ele>70.66666666666666</ele><time>2026-05-02T17:18:41.622Z</time></trkpt><trkpt lat="42.9778975" lon="10.9466312"><ele>70.0</ele><time>2026-05-02T17:18:42.622Z</time></trkpt><trkpt lat="42.9780749" lon="10.9465489"><ele>70.0</ele><time>2026-05-02T17:18:43.623Z</time></trkpt><trkpt lat="42.9782736" lon="10.9464481"><ele>70.0</ele><time>2026-05-02T17:18:44.614Z</time></trkpt><trkpt lat="42.9784907" lon="10.9463361"><ele>70.0</ele><time>2026-05-02T17:18:45.625Z</time></trkpt><trkpt lat="42.978711" lon="10.9462198"><ele>69.66666666666666</ele><time>2026-05-02T17:18:46.621Z</time></trkpt><trkpt lat="42.9789164" lon="10.9461113"><ele>69.33333333333333</ele><time>2026-05-02T17:18:47.62Z</time></trkpt><trkpt lat="42.9791065" lon="10.946012"><ele>69.0</ele><time>2026-05-02T17:18:48.622Z</time></trkpt><trkpt lat="42.9792885" lon="10.945916"><ele>69.66666666666667</ele><time>2026-05-02T17:18:49.624Z</time></trkpt><trkpt lat="42.9794753" lon="10.9458221"><ele>70.33333333333334</ele><time>2026-05-02T17:18:50.624Z</time></trkpt><trkpt lat="42.9796691" lon="10.9457222"><ele>71.0</ele><time>2026-05-02T17:18:51.623Z</time></trkpt><trkpt lat="42.9798717" lon="10.9456155"><ele>71.5</ele><time>2026-05-02T17:18:52.621Z</time></trkpt><trkpt lat="42.9800794" lon="10.9454948"><ele>72.0</ele><time>2026-05-02T17:18:53.619Z</time></trkpt><trkpt lat="42.9802974" lon="10.9453718"><ele>72.0</ele><time>2026-05-02T17:18:54.62Z</time></trkpt><trkpt lat="42.9805228" lon="10.9452405"><ele>72.0</ele><time>2026-05-02T17:18:55.615Z</time></trkpt><trkpt lat="42.9807541" lon="10.9451073"><ele>73.5</ele><time>2026-05-02T17:18:56.612Z</time></trkpt><trkpt lat="42.9809855" lon="10.9449638"><ele>75.0</ele><time>2026-05-02T17:18:57.617Z</time></trkpt><trkpt lat="42.9812172" lon="10.9448174"><ele>75.0</ele><time>2026-05-02T17:18:58.618Z</time></trkpt><trkpt lat="42.9814495" lon="10.9446751"><ele>75.0</ele><time>2026-05-02T17:18:59.622Z</time></trkpt><trkpt lat="42.9816786" lon="10.944543"><ele>75.5</ele><time>2026-05-02T17:19:00.62Z</time></trkpt><trkpt lat="42.9819008" lon="10.9444092"><ele>76.0</ele><time>2026-05-02T17:19:01.616Z</time></trkpt><trkpt lat="42.982112" lon="10.9442821"><ele>76.33333333333333</ele><time>2026-05-02T17:19:02.617Z</time></trkpt><trkpt lat="42.9823084" lon="10.944166"><ele>76.66666666666667</ele><time>2026-05-02T17:19:03.63Z</time></trkpt><trkpt lat="42.9824836" lon="10.9440652"><ele>77.0</ele><time>2026-05-02T17:19:04.613Z</time></trkpt><trkpt lat="42.9826458" lon="10.9439783"><ele>77.25</ele><time>2026-05-02T17:19:05.617Z</time></trkpt><trkpt lat="42.9827926" lon="10.9438979"><ele>77.5</ele><time>2026-05-02T17:19:06.612Z</time></trkpt><trkpt lat="42.9829241" lon="10.9438209"><ele>77.75</ele><time>2026-05-02T17:19:07.618Z</time></trkpt><trkpt lat="42.9830436" lon="10.9437492"><ele>78.0</ele><time>2026-05-02T17:19:08.628Z</time></trkpt><trkpt lat="42.983157" lon="10.9436779"><ele>78.0</ele><time>2026-05-02T17:19:09.618Z</time></trkpt><trkpt lat="42.9832604" lon="10.9436163"><ele>78.0</ele><time>2026-05-02T17:19:10.604Z</time></trkpt><trkpt lat="42.9833571" lon="10.9435633"><ele>78.0</ele><time>2026-05-02T17:19:11.614Z</time></trkpt><trkpt lat="42.983439" lon="10.9435168"><ele>78.0</ele><time>2026-05-02T17:19:12.617Z</time></trkpt><trkpt lat="42.9835124" lon="10.9434736"><ele>78.0</ele><time>2026-05-02T17:19:13.62Z</time></trkpt><trkpt lat="42.9835753" lon="10.9434334"><ele>78.6</ele><time>2026-05-02T17:19:14.622Z</time></trkpt><trkpt lat="42.9836721" lon="10.9433726"><ele>79.19999999999999</ele><time>2026-05-02T17:19:16.627Z</time></trkpt><trkpt lat="42.9837129" lon="10.9433042"><ele>79.8</ele><time>2026-05-02T17:19:18.628Z</time></trkpt><trkpt lat="42.9836741" lon="10.943165"><ele>80.39999999999999</ele><time>2026-05-02T17:19:20.616Z</time></trkpt><trkpt lat="42.9836247" lon="10.9430542"><ele>81.0</ele><time>2026-05-02T17:19:21.627Z</time></trkpt><trkpt lat="42.9835664" lon="10.9429223"><ele>81.0</ele><time>2026-05-02T17:19:22.62Z</time></trkpt><trkpt lat="42.9835071" lon="10.9427727"><ele>81.0</ele><time>2026-05-02T17:19:23.617Z</time></trkpt><trkpt lat="42.9834483" lon="10.9426117"><ele>81.0</ele><time>2026-05-02T17:19:24.617Z</time></trkpt><trkpt lat="42.9833893" lon="10.9424643"><ele>81.0</ele><time>2026-05-02T17:19:25.622Z</time></trkpt><trkpt lat="42.9833392" lon="10.942342"><ele>81.5</ele><time>2026-05-02T17:19:26.625Z</time></trkpt><trkpt lat="42.9832977" lon="10.9422431"><ele>82.0</ele><time>2026-05-02T17:19:27.617Z</time></trkpt><trkpt lat="42.9832492" lon="10.9421156"><ele>82.5</ele><time>2026-05-02T17:19:29.627Z</time></trkpt><trkpt lat="42.9832152" lon="10.9420384"><ele>83.0</ele><time>2026-05-02T17:19:31.614Z</time></trkpt><trkpt lat="42.9831823" lon="10.941945"><ele>83.5</ele><time>2026-05-02T17:19:34.621Z</time></trkpt><trkpt lat="42.9831619" lon="10.9418616"><ele>84.0</ele><time>2026-05-02T17:19:37.621Z</time></trkpt><trkpt lat="42.9831015" lon="10.9417318"><ele>84.0</ele><time>2026-05-02T17:19:56.641Z</time></trkpt><trkpt lat="42.9830566" lon="10.9416352"><ele>84.0</ele><time>2026-05-02T17:19:57.631Z</time></trkpt><trkpt lat="42.9830053" lon="10.9415157"><ele>84.0</ele><time>2026-05-02T17:19:58.623Z</time></trkpt><trkpt lat="42.9829543" lon="10.9413726"><ele>84.0</ele><time>2026-05-02T17:19:59.627Z</time></trkpt><trkpt lat="42.9828967" lon="10.9412157"><ele>84.0</ele><time>2026-05-02T17:20:00.63Z</time></trkpt><trkpt lat="42.9828301" lon="10.9410504"><ele>83.25</ele><time>2026-05-02T17:20:01.616Z</time></trkpt><trkpt lat="42.9827621" lon="10.9408722"><ele>82.5</ele><time>2026-05-02T17:20:02.631Z</time></trkpt><trkpt lat="42.9826905" lon="10.9406931"><ele>81.75</ele><time>2026-05-02T17:20:03.624Z</time></trkpt><trkpt lat="42.9826174" lon="10.9405151"><ele>81.0</ele><time>2026-05-02T17:20:04.616Z</time></trkpt><trkpt lat="42.9825464" lon="10.9403352"><ele>80.25</ele><time>2026-05-02T17:20:05.625Z</time></trkpt><trkpt lat="42.9824785" lon="10.9401557"><ele>79.5</ele><time>2026-05-02T17:20:06.629Z</time></trkpt><trkpt lat="42.9824165" lon="10.9399889"><ele>78.75</ele><time>2026-05-02T17:20:07.622Z</time></trkpt><trkpt lat="42.9823592" lon="10.9398381"><ele>78.0</ele><time>2026-05-02T17:20:08.621Z</time></trkpt><trkpt lat="42.982305" lon="10.9397117"><ele>78.0</ele><time>2026-05-02T17:20:09.621Z</time></trkpt><trkpt lat="42.9822488" lon="10.9396153"><ele>78.0</ele><time>2026-05-02T17:20:10.619Z</time></trkpt><trkpt lat="42.9821765" lon="10.9395479"><ele>78.0</ele><time>2026-05-02T17:20:11.625Z</time></trkpt><trkpt lat="42.9820997" lon="10.9395144"><ele>78.0</ele><time>2026-05-02T17:20:12.617Z</time></trkpt><trkpt lat="42.9820184" lon="10.9395146"><ele>78.0</ele><time>2026-05-02T17:20:13.624Z</time></trkpt><trkpt lat="42.98193" lon="10.9395497"><ele>78.0</ele><time>2026-05-02T17:20:14.625Z</time></trkpt><trkpt lat="42.9818394" lon="10.9395952"><ele>78.0</ele><time>2026-05-02T17:20:15.627Z</time></trkpt><trkpt lat="42.9817408" lon="10.9396558"><ele>78.0</ele><time>2026-05-02T17:20:16.619Z</time></trkpt><trkpt lat="42.981627" lon="10.9397166"><ele>78.0</ele><time>2026-05-02T17:20:17.612Z</time></trkpt><trkpt lat="42.9815075" lon="10.9397803"><ele>78.0</ele><time>2026-05-02T17:20:18.624Z</time></trkpt><trkpt lat="42.9813907" lon="10.9398398"><ele>78.2</ele><time>2026-05-02T17:20:19.621Z</time></trkpt><trkpt lat="42.9812812" lon="10.9398943"><ele>78.4</ele><time>2026-05-02T17:20:20.616Z</time></trkpt><trkpt lat="42.9811792" lon="10.9399267"><ele>78.60000000000001</ele><time>2026-05-02T17:20:21.62Z</time></trkpt><trkpt lat="42.9810807" lon="10.9399473"><ele>78.8</ele><time>2026-05-02T17:20:22.618Z</time></trkpt><trkpt lat="42.9809709" lon="10.9399422"><ele>79.0</ele><time>2026-05-02T17:20:23.622Z</time></trkpt><trkpt lat="42.9808644" lon="10.9398893"><ele>78.5</ele><time>2026-05-02T17:20:24.623Z</time></trkpt><trkpt lat="42.9807613" lon="10.9398055"><ele>78.0</ele><time>2026-05-02T17:20:25.617Z</time></trkpt><trkpt lat="42.9806518" lon="10.9396939"><ele>77.5</ele><time>2026-05-02T17:20:26.619Z</time></trkpt><trkpt lat="42.9805329" lon="10.9395794"><ele>77.0</ele><time>2026-05-02T17:20:27.625Z</time></trkpt><trkpt lat="42.980407" lon="10.9394554"><ele>77.0</ele><time>2026-05-02T17:20:28.615Z</time></trkpt><trkpt lat="42.9802774" lon="10.9393338"><ele>77.0</ele><time>2026-05-02T17:20:29.625Z</time></trkpt><trkpt lat="42.9801445" lon="10.9392144"><ele>77.0</ele><time>2026-05-02T17:20:30.621Z</time></trkpt><trkpt lat="42.9800112" lon="10.9390926"><ele>76.66666666666667</ele><time>2026-05-02T17:20:31.621Z</time></trkpt><trkpt lat="42.9798768" lon="10.9389637"><ele>76.33333333333333</ele><time>2026-05-02T17:20:32.624Z</time></trkpt><trkpt lat="42.9797489" lon="10.9388422"><ele>76.0</ele><time>2026-05-02T17:20:33.612Z</time></trkpt><trkpt lat="42.9796217" lon="10.9387212"><ele>76.0</ele><time>2026-05-02T17:20:34.623Z</time></trkpt><trkpt lat="42.9794975" lon="10.9386026"><ele>76.0</ele><time>2026-05-02T17:20:35.621Z</time></trkpt><trkpt lat="42.9793788" lon="10.938492"><ele>76.0</ele><time>2026-05-02T17:20:36.623Z</time></trkpt><trkpt lat="42.9792722" lon="10.9383879"><ele>76.0</ele><time>2026-05-02T17:20:37.605Z</time></trkpt><trkpt lat="42.9791883" lon="10.9382789"><ele>76.75</ele><time>2026-05-02T17:20:38.618Z</time></trkpt><trkpt lat="42.9791196" lon="10.9381542"><ele>77.5</ele><time>2026-05-02T17:20:39.606Z</time></trkpt><trkpt lat="42.9790664" lon="10.9380131"><ele>78.25</ele><time>2026-05-02T17:20:40.613Z</time></trkpt><trkpt lat="42.9790275" lon="10.9378601"><ele>79.0</ele><time>2026-05-02T17:20:41.613Z</time></trkpt><trkpt lat="42.9790019" lon="10.9377095"><ele>79.0</ele><time>2026-05-02T17:20:42.619Z</time></trkpt><trkpt lat="42.9789724" lon="10.9375642"><ele>79.0</ele><time>2026-05-02T17:20:43.621Z</time></trkpt><trkpt lat="42.978931" lon="10.9374399"><ele>79.0</ele><time>2026-05-02T17:20:44.626Z</time></trkpt><trkpt lat="42.9788763" lon="10.9373354"><ele>79.0</ele><time>2026-05-02T17:20:45.61Z</time></trkpt><trkpt lat="42.9788084" lon="10.9372434"><ele>79.0</ele><time>2026-05-02T17:20:46.613Z</time></trkpt><trkpt lat="42.9787378" lon="10.9371491"><ele>79.2</ele><time>2026-05-02T17:20:47.601Z</time></trkpt><trkpt lat="42.9786684" lon="10.9370454"><ele>79.4</ele><time>2026-05-02T17:20:48.617Z</time></trkpt><trkpt lat="42.9786017" lon="10.936929"><ele>79.6</ele><time>2026-05-02T17:20:49.614Z</time></trkpt><trkpt lat="42.9785306" lon="10.9368129"><ele>79.8</ele><time>2026-05-02T17:20:50.607Z</time></trkpt><trkpt lat="42.9784583" lon="10.9366961"><ele>80.0</ele><time>2026-05-02T17:20:51.609Z</time></trkpt><trkpt lat="42.9783821" lon="10.9365819"><ele>81.2</ele><time>2026-05-02T17:20:52.62Z</time></trkpt><trkpt lat="42.9783028" lon="10.9364693"><ele>82.4</ele><time>2026-05-02T17:20:53.616Z</time></trkpt><trkpt lat="42.978219" lon="10.9363743"><ele>83.6</ele><time>2026-05-02T17:20:54.623Z</time></trkpt><trkpt lat="42.9781372" lon="10.9363126"><ele>84.8</ele><time>2026-05-02T17:20:55.613Z</time></trkpt><trkpt lat="42.9780537" lon="10.9362751"><ele>86.0</ele><time>2026-05-02T17:20:56.608Z</time></trkpt><trkpt lat="42.977969" lon="10.9362561"><ele>86.0</ele><time>2026-05-02T17:20:57.61Z</time></trkpt><trkpt lat="42.9778901" lon="10.9362479"><ele>86.0</ele><time>2026-05-02T17:20:58.617Z</time></trkpt><trkpt lat="42.9778035" lon="10.9362514"><ele>86.0</ele><time>2026-05-02T17:21:00.616Z</time></trkpt><trkpt lat="42.9777398" lon="10.9362437"><ele>86.0</ele><time>2026-05-02T17:21:03.611Z</time></trkpt><trkpt lat="42.9776709" lon="10.9362215"><ele>86.0</ele><time>2026-05-02T17:23:08.624Z</time></trkpt><trkpt lat="42.9775991" lon="10.9362406"><ele>86.0</ele><time>2026-05-02T17:23:10.611Z</time></trkpt><trkpt lat="42.9774993" lon="10.9362509"><ele>85.8</ele><time>2026-05-02T17:23:12.626Z</time></trkpt><trkpt lat="42.9773996" lon="10.9362104"><ele>85.6</ele><time>2026-05-02T17:23:14.614Z</time></trkpt><trkpt lat="42.9773091" lon="10.936122"><ele>85.4</ele><time>2026-05-02T17:23:16.62Z</time></trkpt><trkpt lat="42.9772361" lon="10.9360119"><ele>85.2</ele><time>2026-05-02T17:23:18.623Z</time></trkpt><trkpt lat="42.9771785" lon="10.9359127"><ele>85.0</ele><time>2026-05-02T17:23:20.619Z</time></trkpt><trkpt lat="42.9771295" lon="10.9358252"><ele>84.71428571428572</ele><time>2026-05-02T17:23:23.605Z</time></trkpt><trkpt lat="42.977081" lon="10.9357565"><ele>84.42857142857142</ele><time>2026-05-02T17:23:28.616Z</time></trkpt><trkpt lat="42.9770287" lon="10.9356729"><ele>84.14285714285714</ele><time>2026-05-02T17:23:32.616Z</time></trkpt><trkpt lat="42.9769837" lon="10.9355936"><ele>83.85714285714286</ele><time>2026-05-02T17:23:36.62Z</time></trkpt><trkpt lat="42.9769542" lon="10.9355169"><ele>83.57142857142858</ele><time>2026-05-02T17:23:41.619Z</time></trkpt><trkpt lat="42.9769105" lon="10.9354291"><ele>83.28571428571428</ele><time>2026-05-02T17:23:45.612Z</time></trkpt><trkpt lat="42.9768616" lon="10.9353382"><ele>83.0</ele><time>2026-05-02T17:23:48.628Z</time></trkpt><trkpt lat="42.9768028" lon="10.9352553"><ele>83.0</ele><time>2026-05-02T17:23:50.619Z</time></trkpt><trkpt lat="42.9767526" lon="10.9351919"><ele>83.0</ele><time>2026-05-02T17:23:51.622Z</time></trkpt><trkpt lat="42.9767034" lon="10.9351175"><ele>83.0</ele><time>2026-05-02T17:23:52.619Z</time></trkpt><trkpt lat="42.9766455" lon="10.9350356"><ele>83.0</ele><time>2026-05-02T17:23:53.63Z</time></trkpt><trkpt lat="42.9765858" lon="10.9349533"><ele>83.0</ele><time>2026-05-02T17:23:54.614Z</time></trkpt><trkpt lat="42.9765293" lon="10.9348699"><ele>83.0</ele><time>2026-05-02T17:23:55.619Z</time></trkpt><trkpt lat="42.9764663" lon="10.9347865"><ele>82.4</ele><time>2026-05-02T17:23:56.63Z</time></trkpt><trkpt lat="42.9763867" lon="10.934736"><ele>81.80000000000001</ele><time>2026-05-02T17:23:57.607Z</time></trkpt><trkpt lat="42.9762975" lon="10.9346966"><ele>81.2</ele><time>2026-05-02T17:23:58.621Z</time></trkpt><trkpt lat="42.9762081" lon="10.934673"><ele>80.6</ele><time>2026-05-02T17:23:59.623Z</time></trkpt><trkpt lat="42.9761128" lon="10.9346542"><ele>80.0</ele><time>2026-05-02T17:24:00.619Z</time></trkpt><trkpt lat="42.9760164" lon="10.9346451"><ele>80.0</ele><time>2026-05-02T17:24:01.621Z</time></trkpt><trkpt lat="42.9759113" lon="10.9346364"><ele>80.0</ele><time>2026-05-02T17:24:02.626Z</time></trkpt><trkpt lat="42.9757993" lon="10.9346346"><ele>80.0</ele><time>2026-05-02T17:24:03.617Z</time></trkpt><trkpt lat="42.9756955" lon="10.9346394"><ele>80.0</ele><time>2026-05-02T17:24:04.617Z</time></trkpt><trkpt lat="42.9755928" lon="10.9346388"><ele>80.0</ele><time>2026-05-02T17:24:05.621Z</time></trkpt><trkpt lat="42.9754966" lon="10.9346263"><ele>80.0</ele><time>2026-05-02T17:24:06.611Z</time></trkpt><trkpt lat="42.9753963" lon="10.9346057"><ele>80.0</ele><time>2026-05-02T17:24:07.612Z</time></trkpt><trkpt lat="42.9752892" lon="10.934574"><ele>80.0</ele><time>2026-05-02T17:24:08.618Z</time></trkpt><trkpt lat="42.9751786" lon="10.9345312"><ele>80.0</ele><time>2026-05-02T17:24:09.616Z</time></trkpt><trkpt lat="42.9750664" lon="10.9344959"><ele>80.0</ele><time>2026-05-02T17:24:10.604Z</time></trkpt><trkpt lat="42.9749541" lon="10.9344531"><ele>80.0</ele><time>2026-05-02T17:24:11.605Z</time></trkpt><trkpt lat="42.9748501" lon="10.9344109"><ele>80.0</ele><time>2026-05-02T17:24:12.605Z</time></trkpt><trkpt lat="42.9747644" lon="10.9343745"><ele>80.0</ele><time>2026-05-02T17:24:13.61Z</time></trkpt><trkpt lat="42.9747015" lon="10.9343296"><ele>80.0</ele><time>2026-05-02T17:24:14.608Z</time></trkpt><trkpt lat="42.9746594" lon="10.934264"><ele>80.0</ele><time>2026-05-02T17:24:15.617Z</time></trkpt><trkpt lat="42.9746332" lon="10.9341807"><ele>80.0</ele><time>2026-05-02T17:24:16.62Z</time></trkpt><trkpt lat="42.9746237" lon="10.9340804"><ele>80.4</ele><time>2026-05-02T17:24:17.629Z</time></trkpt><trkpt lat="42.9746281" lon="10.9339698"><ele>80.8</ele><time>2026-05-02T17:24:18.608Z</time></trkpt><trkpt lat="42.9746351" lon="10.9338489"><ele>81.19999999999999</ele><time>2026-05-02T17:24:19.614Z</time></trkpt><trkpt lat="42.9746449" lon="10.9337243"><ele>81.6</ele><time>2026-05-02T17:24:20.61Z</time></trkpt><trkpt lat="42.9746535" lon="10.9335913"><ele>82.0</ele><time>2026-05-02T17:24:21.62Z</time></trkpt><trkpt lat="42.9746587" lon="10.9334534"><ele>82.39999999999999</ele><time>2026-05-02T17:24:22.631Z</time></trkpt><trkpt lat="42.9746597" lon="10.9333142"><ele>82.8</ele><time>2026-05-02T17:24:23.617Z</time></trkpt><trkpt lat="42.9746587" lon="10.9331707"><ele>83.2</ele><time>2026-05-02T17:24:24.616Z</time></trkpt><trkpt lat="42.9746599" lon="10.9330233"><ele>83.6</ele><time>2026-05-02T17:24:25.616Z</time></trkpt><trkpt lat="42.974662" lon="10.9328759"><ele>84.0</ele><time>2026-05-02T17:24:26.603Z</time></trkpt><trkpt lat="42.9746671" lon="10.9327311"><ele>84.0</ele><time>2026-05-02T17:24:27.612Z</time></trkpt><trkpt lat="42.9746773" lon="10.9325876"><ele>84.0</ele><time>2026-05-02T17:24:28.615Z</time></trkpt><trkpt lat="42.9746957" lon="10.932453"><ele>84.0</ele><time>2026-05-02T17:24:29.62Z</time></trkpt><trkpt lat="42.9747278" lon="10.9323216"><ele>84.0</ele><time>2026-05-02T17:24:30.617Z</time></trkpt><trkpt lat="42.9747685" lon="10.9321849"><ele>84.0</ele><time>2026-05-02T17:24:31.619Z</time></trkpt><trkpt lat="42.9748126" lon="10.9320436"><ele>84.0</ele><time>2026-05-02T17:24:32.621Z</time></trkpt><trkpt lat="42.9748613" lon="10.9319045"><ele>84.0</ele><time>2026-05-02T17:24:33.631Z</time></trkpt><trkpt lat="42.9749197" lon="10.9317665"><ele>84.0</ele><time>2026-05-02T17:24:34.621Z</time></trkpt><trkpt lat="42.974989" lon="10.9316363"><ele>84.0</ele><time>2026-05-02T17:24:35.623Z</time></trkpt><trkpt lat="42.9750618" lon="10.9315022"><ele>84.5</ele><time>2026-05-02T17:24:36.623Z</time></trkpt><trkpt lat="42.9751384" lon="10.931371"><ele>85.0</ele><time>2026-05-02T17:24:37.623Z</time></trkpt><trkpt lat="42.975217" lon="10.9312403"><ele>85.5</ele><time>2026-05-02T17:24:38.622Z</time></trkpt><trkpt lat="42.9752945" lon="10.931105"><ele>86.0</ele><time>2026-05-02T17:24:39.619Z</time></trkpt><trkpt lat="42.9753705" lon="10.9309667"><ele>86.25</ele><time>2026-05-02T17:24:40.619Z</time></trkpt><trkpt lat="42.9754493" lon="10.9308284"><ele>86.5</ele><time>2026-05-02T17:24:41.625Z</time></trkpt><trkpt lat="42.9755302" lon="10.9306926"><ele>86.75</ele><time>2026-05-02T17:24:42.614Z</time></trkpt><trkpt lat="42.9756124" lon="10.9305578"><ele>87.0</ele><time>2026-05-02T17:24:43.623Z</time></trkpt><trkpt lat="42.9756939" lon="10.9304168"><ele>87.0</ele><time>2026-05-02T17:24:44.629Z</time></trkpt><trkpt lat="42.9757775" lon="10.9302736"><ele>87.0</ele><time>2026-05-02T17:24:45.623Z</time></trkpt><trkpt lat="42.975863" lon="10.9301296"><ele>87.0</ele><time>2026-05-02T17:24:46.622Z</time></trkpt><trkpt lat="42.975949" lon="10.9299825"><ele>87.0</ele><time>2026-05-02T17:24:47.627Z</time></trkpt><trkpt lat="42.9760369" lon="10.9298343"><ele>86.75</ele><time>2026-05-02T17:24:48.619Z</time></trkpt><trkpt lat="42.9761246" lon="10.9296914"><ele>86.5</ele><time>2026-05-02T17:24:49.627Z</time></trkpt><trkpt lat="42.9762089" lon="10.9295662"><ele>86.25</ele><time>2026-05-02T17:24:50.623Z</time></trkpt><trkpt lat="42.9762873" lon="10.9294559"><ele>86.0</ele><time>2026-05-02T17:24:51.615Z</time></trkpt><trkpt lat="42.9763723" lon="10.9293681"><ele>86.0</ele><time>2026-05-02T17:24:52.618Z</time></trkpt><trkpt lat="42.976463" lon="10.9292739"><ele>86.0</ele><time>2026-05-02T17:24:53.618Z</time></trkpt><trkpt lat="42.9765538" lon="10.9291727"><ele>86.0</ele><time>2026-05-02T17:24:54.617Z</time></trkpt><trkpt lat="42.97664" lon="10.9290664"><ele>86.0</ele><time>2026-05-02T17:24:55.616Z</time></trkpt><trkpt lat="42.9767186" lon="10.9289494"><ele>86.0</ele><time>2026-05-02T17:24:56.609Z</time></trkpt><trkpt lat="42.9767837" lon="10.9288218"><ele>86.0</ele><time>2026-05-02T17:24:57.614Z</time></trkpt><trkpt lat="42.9768311" lon="10.9286814"><ele>86.0</ele><time>2026-05-02T17:24:58.621Z</time></trkpt><trkpt lat="42.9768657" lon="10.9285349"><ele>86.0</ele><time>2026-05-02T17:24:59.62Z</time></trkpt><trkpt lat="42.9768882" lon="10.9283857"><ele>86.0</ele><time>2026-05-02T17:25:00.617Z</time></trkpt><trkpt lat="42.976909" lon="10.9282362"><ele>86.0</ele><time>2026-05-02T17:25:01.619Z</time></trkpt><trkpt lat="42.9769273" lon="10.9280906"><ele>86.0</ele><time>2026-05-02T17:25:02.628Z</time></trkpt><trkpt lat="42.9769428" lon="10.9279449"><ele>86.0</ele><time>2026-05-02T17:25:03.622Z</time></trkpt><trkpt lat="42.9769582" lon="10.9278035"><ele>86.0</ele><time>2026-05-02T17:25:04.616Z</time></trkpt><trkpt lat="42.9769719" lon="10.9276628"><ele>86.6</ele><time>2026-05-02T17:25:05.615Z</time></trkpt><trkpt lat="42.9769878" lon="10.9275223"><ele>87.19999999999999</ele><time>2026-05-02T17:25:06.616Z</time></trkpt><trkpt lat="42.9770019" lon="10.9273843"><ele>87.80000000000001</ele><time>2026-05-02T17:25:07.622Z</time></trkpt><trkpt lat="42.977014" lon="10.9272435"><ele>88.4</ele><time>2026-05-02T17:25:08.619Z</time></trkpt><trkpt lat="42.9770174" lon="10.9271041"><ele>89.0</ele><time>2026-05-02T17:25:09.617Z</time></trkpt><trkpt lat="42.9770142" lon="10.9269769"><ele>89.0</ele><time>2026-05-02T17:25:10.615Z</time></trkpt><trkpt lat="42.9770089" lon="10.9268567"><ele>89.0</ele><time>2026-05-02T17:25:11.621Z</time></trkpt><trkpt lat="42.9770151" lon="10.926737"><ele>89.0</ele><time>2026-05-02T17:25:12.615Z</time></trkpt><trkpt lat="42.9770372" lon="10.9266248"><ele>89.0</ele><time>2026-05-02T17:25:13.618Z</time></trkpt><trkpt lat="42.9770825" lon="10.9265132"><ele>89.0</ele><time>2026-05-02T17:25:14.616Z</time></trkpt><trkpt lat="42.9771466" lon="10.926381"><ele>89.0</ele><time>2026-05-02T17:25:15.616Z</time></trkpt><trkpt lat="42.9772311" lon="10.9262165"><ele>89.0</ele><time>2026-05-02T17:25:16.621Z</time></trkpt><trkpt lat="42.977328" lon="10.9260238"><ele>89.0</ele><time>2026-05-02T17:25:17.618Z</time></trkpt><trkpt lat="42.9774333" lon="10.9258028"><ele>90.33333333333334</ele><time>2026-05-02T17:25:18.623Z</time></trkpt><trkpt lat="42.9775515" lon="10.9255671"><ele>91.66666666666667</ele><time>2026-05-02T17:25:19.621Z</time></trkpt><trkpt lat="42.9776795" lon="10.9253184"><ele>93.0</ele><time>2026-05-02T17:25:20.615Z</time></trkpt><trkpt lat="42.9778067" lon="10.9250626"><ele>94.0</ele><time>2026-05-02T17:25:21.614Z</time></trkpt><trkpt lat="42.9779363" lon="10.9247998"><ele>95.0</ele><time>2026-05-02T17:25:22.622Z</time></trkpt><trkpt lat="42.9780665" lon="10.9245318"><ele>95.0</ele><time>2026-05-02T17:25:23.607Z</time></trkpt><trkpt lat="42.978193" lon="10.9242631"><ele>95.0</ele><time>2026-05-02T17:25:24.627Z</time></trkpt><trkpt lat="42.9783192" lon="10.924001"><ele>99.0</ele><time>2026-05-02T17:25:25.621Z</time></trkpt><trkpt lat="42.9784474" lon="10.9237403"><ele>103.0</ele><time>2026-05-02T17:25:26.623Z</time></trkpt><trkpt lat="42.9785802" lon="10.9234872"><ele>104.33333333333334</ele><time>2026-05-02T17:25:27.624Z</time></trkpt><trkpt lat="42.9787058" lon="10.9232306"><ele>105.66666666666666</ele><time>2026-05-02T17:25:28.618Z</time></trkpt><trkpt lat="42.9788315" lon="10.9229786"><ele>107.0</ele><time>2026-05-02T17:25:29.616Z</time></trkpt><trkpt lat="42.9789578" lon="10.9227583"><ele>107.0</ele><time>2026-05-02T17:25:30.622Z</time></trkpt><trkpt lat="42.9790869" lon="10.9225687"><ele>107.0</ele><time>2026-05-02T17:25:31.622Z</time></trkpt><trkpt lat="42.9792307" lon="10.9223921"><ele>107.0</ele><time>2026-05-02T17:25:32.611Z</time></trkpt><trkpt lat="42.9793983" lon="10.9222258"><ele>109.0</ele><time>2026-05-02T17:25:33.617Z</time></trkpt><trkpt lat="42.9795983" lon="10.9220682"><ele>111.0</ele><time>2026-05-02T17:25:34.615Z</time></trkpt><trkpt lat="42.9798177" lon="10.9219072"><ele>111.5</ele><time>2026-05-02T17:25:35.615Z</time></trkpt><trkpt lat="42.9800533" lon="10.9217342"><ele>112.0</ele><time>2026-05-02T17:25:36.617Z</time></trkpt><trkpt lat="42.9802972" lon="10.9215524"><ele>112.0</ele><time>2026-05-02T17:25:37.613Z</time></trkpt><trkpt lat="42.9805295" lon="10.9213853"><ele>112.0</ele><time>2026-05-02T17:25:38.618Z</time></trkpt><trkpt lat="42.980741" lon="10.9212285"><ele>116.5</ele><time>2026-05-02T17:25:39.616Z</time></trkpt><trkpt lat="42.9809427" lon="10.9210758"><ele>121.0</ele><time>2026-05-02T17:25:40.617Z</time></trkpt><trkpt lat="42.9811339" lon="10.9209171"><ele>121.5</ele><time>2026-05-02T17:25:41.612Z</time></trkpt><trkpt lat="42.9813143" lon="10.9207386"><ele>122.0</ele><time>2026-05-02T17:25:42.613Z</time></trkpt><trkpt lat="42.9814799" lon="10.920524"><ele>122.0</ele><time>2026-05-02T17:25:43.617Z</time></trkpt><trkpt lat="42.9816471" lon="10.9202766"><ele>122.0</ele><time>2026-05-02T17:25:44.614Z</time></trkpt><trkpt lat="42.9818122" lon="10.9200051"><ele>123.5</ele><time>2026-05-02T17:25:45.619Z</time></trkpt><trkpt lat="42.9819867" lon="10.9197218"><ele>125.0</ele><time>2026-05-02T17:25:46.612Z</time></trkpt><trkpt lat="42.9821679" lon="10.9194267"><ele>123.5</ele><time>2026-05-02T17:25:47.607Z</time></trkpt><trkpt lat="42.9823493" lon="10.9191256"><ele>122.0</ele><time>2026-05-02T17:25:48.625Z</time></trkpt><trkpt lat="42.9825256" lon="10.9188231"><ele>125.5</ele><time>2026-05-02T17:25:49.611Z</time></trkpt><trkpt lat="42.9826962" lon="10.9185247"><ele>129.0</ele><time>2026-05-02T17:25:50.618Z</time></trkpt><trkpt lat="42.9828585" lon="10.9182416"><ele>129.5</ele><time>2026-05-02T17:25:51.613Z</time></trkpt><trkpt lat="42.9830177" lon="10.9179796"><ele>130.0</ele><time>2026-05-02T17:25:52.623Z</time></trkpt><trkpt lat="42.9831686" lon="10.9177276"><ele>130.5</ele><time>2026-05-02T17:25:53.616Z</time></trkpt><trkpt lat="42.983319" lon="10.9174796"><ele>131.0</ele><time>2026-05-02T17:25:54.623Z</time></trkpt><trkpt lat="42.9834708" lon="10.9172286"><ele>133.5</ele><time>2026-05-02T17:25:55.623Z</time></trkpt><trkpt lat="42.9836223" lon="10.9169784"><ele>136.0</ele><time>2026-05-02T17:25:56.611Z</time></trkpt><trkpt lat="42.9837741" lon="10.9167405"><ele>137.5</ele><time>2026-05-02T17:25:57.614Z</time></trkpt><trkpt lat="42.983945" lon="10.9165358"><ele>139.0</ele><time>2026-05-02T17:25:58.624Z</time></trkpt><trkpt lat="42.9841331" lon="10.9163532"><ele>141.5</ele><time>2026-05-02T17:25:59.611Z</time></trkpt><trkpt lat="42.9843387" lon="10.9161839"><ele>144.0</ele><time>2026-05-02T17:26:00.625Z</time></trkpt><trkpt lat="42.984565" lon="10.9160249"><ele>145.0</ele><time>2026-05-02T17:26:01.608Z</time></trkpt><trkpt lat="42.9848076" lon="10.9158646"><ele>146.0</ele><time>2026-05-02T17:26:02.629Z</time></trkpt><trkpt lat="42.9850573" lon="10.9156957"><ele>146.0</ele><time>2026-05-02T17:26:03.614Z</time></trkpt><trkpt lat="42.9852909" lon="10.9155358"><ele>146.0</ele><time>2026-05-02T17:26:04.626Z</time></trkpt><trkpt lat="42.9855075" lon="10.9153891"><ele>146.0</ele><time>2026-05-02T17:26:05.611Z</time></trkpt><trkpt lat="42.985711" lon="10.9152434"><ele>146.0</ele><time>2026-05-02T17:26:06.618Z</time></trkpt><trkpt lat="42.9858999" lon="10.9150766"><ele>147.5</ele><time>2026-05-02T17:26:07.613Z</time></trkpt><trkpt lat="42.9860746" lon="10.9148625"><ele>149.0</ele><time>2026-05-02T17:26:08.626Z</time></trkpt><trkpt lat="42.9862353" lon="10.9145977"><ele>149.0</ele><time>2026-05-02T17:26:09.617Z</time></trkpt><trkpt lat="42.9864078" lon="10.9142799"><ele>149.0</ele><time>2026-05-02T17:26:10.621Z</time></trkpt><trkpt lat="42.9865827" lon="10.9139517"><ele>152.0</ele><time>2026-05-02T17:26:11.614Z</time></trkpt><trkpt lat="42.9867602" lon="10.9136259"><ele>155.0</ele><time>2026-05-02T17:26:12.624Z</time></trkpt><trkpt lat="42.9869227" lon="10.9133257"><ele>155.0</ele><time>2026-05-02T17:26:13.621Z</time></trkpt><trkpt lat="42.9870715" lon="10.9130456"><ele>155.0</ele><time>2026-05-02T17:26:14.624Z</time></trkpt><trkpt lat="42.9872163" lon="10.912783"><ele>155.0</ele><time>2026-05-02T17:26:15.612Z</time></trkpt><trkpt lat="42.9873635" lon="10.9125498"><ele>155.0</ele><time>2026-05-02T17:26:16.62Z</time></trkpt><trkpt lat="42.9875291" lon="10.9123427"><ele>155.0</ele><time>2026-05-02T17:26:17.61Z</time></trkpt><trkpt lat="42.9877189" lon="10.912162"><ele>155.0</ele><time>2026-05-02T17:26:18.631Z</time></trkpt><trkpt lat="42.9879287" lon="10.9119858"><ele>155.0</ele><time>2026-05-02T17:26:19.614Z</time></trkpt><trkpt lat="42.9881428" lon="10.9118142"><ele>155.0</ele><time>2026-05-02T17:26:20.621Z</time></trkpt><trkpt lat="42.988351" lon="10.9116411"><ele>154.5</ele><time>2026-05-02T17:26:21.62Z</time></trkpt><trkpt lat="42.9885727" lon="10.9114771"><ele>154.0</ele><time>2026-05-02T17:26:22.631Z</time></trkpt><trkpt lat="42.9888154" lon="10.9113261"><ele>154.0</ele><time>2026-05-02T17:26:23.611Z</time></trkpt><trkpt lat="42.9890586" lon="10.9111911"><ele>154.0</ele><time>2026-05-02T17:26:24.616Z</time></trkpt><trkpt lat="42.9892818" lon="10.911067"><ele>152.0</ele><time>2026-05-02T17:26:25.61Z</time></trkpt><trkpt lat="42.9894924" lon="10.9109249"><ele>150.0</ele><time>2026-05-02T17:26:26.625Z</time></trkpt><trkpt lat="42.9897125" lon="10.9107477"><ele>150.0</ele><time>2026-05-02T17:26:27.609Z</time></trkpt><trkpt lat="42.9899443" lon="10.9105333"><ele>150.0</ele><time>2026-05-02T17:26:28.618Z</time></trkpt><trkpt lat="42.9901795" lon="10.910292"><ele>153.5</ele><time>2026-05-02T17:26:29.61Z</time></trkpt><trkpt lat="42.9904023" lon="10.9100567"><ele>157.0</ele><time>2026-05-02T17:26:30.625Z</time></trkpt><trkpt lat="42.9906143" lon="10.9098568"><ele>157.0</ele><time>2026-05-02T17:26:31.613Z</time></trkpt><trkpt lat="42.9908157" lon="10.9096511"><ele>157.0</ele><time>2026-05-02T17:26:32.623Z</time></trkpt><trkpt lat="42.9910011" lon="10.9094209"><ele>158.5</ele><time>2026-05-02T17:26:33.613Z</time></trkpt><trkpt lat="42.9911833" lon="10.9091534"><ele>160.0</ele><time>2026-05-02T17:26:34.614Z</time></trkpt><trkpt lat="42.9913438" lon="10.9088509"><ele>160.0</ele><time>2026-05-02T17:26:35.613Z</time></trkpt><trkpt lat="42.9914905" lon="10.9085478"><ele>160.0</ele><time>2026-05-02T17:26:36.62Z</time></trkpt><trkpt lat="42.9916155" lon="10.9082649"><ele>160.66666666666669</ele><time>2026-05-02T17:26:37.616Z</time></trkpt><trkpt lat="42.9917225" lon="10.9079999"><ele>161.33333333333334</ele><time>2026-05-02T17:26:38.627Z</time></trkpt><trkpt lat="42.9918054" lon="10.907749"><ele>162.0</ele><time>2026-05-02T17:26:39.618Z</time></trkpt><trkpt lat="42.9918487" lon="10.9074913"><ele>162.0</ele><time>2026-05-02T17:26:40.623Z</time></trkpt><trkpt lat="42.991864" lon="10.9072461"><ele>162.0</ele><time>2026-05-02T17:26:41.62Z</time></trkpt><trkpt lat="42.9918597" lon="10.9070025"><ele>162.0</ele><time>2026-05-02T17:26:42.62Z</time></trkpt><trkpt lat="42.9918468" lon="10.9067536"><ele>160.66666666666666</ele><time>2026-05-02T17:26:43.624Z</time></trkpt><trkpt lat="42.991823" lon="10.9065148"><ele>159.33333333333331</ele><time>2026-05-02T17:26:44.618Z</time></trkpt><trkpt lat="42.9917822" lon="10.9062935"><ele>158.0</ele><time>2026-05-02T17:26:45.612Z</time></trkpt><trkpt lat="42.9917327" lon="10.9060829"><ele>157.66666666666666</ele><time>2026-05-02T17:26:46.625Z</time></trkpt><trkpt lat="42.99169" lon="10.9058722"><ele>157.33333333333334</ele><time>2026-05-02T17:26:47.623Z</time></trkpt><trkpt lat="42.9916533" lon="10.9056657"><ele>157.0</ele><time>2026-05-02T17:26:48.623Z</time></trkpt><trkpt lat="42.9916143" lon="10.9054716"><ele>157.0</ele><time>2026-05-02T17:26:49.62Z</time></trkpt><trkpt lat="42.9915805" lon="10.905287"><ele>157.0</ele><time>2026-05-02T17:26:50.622Z</time></trkpt><trkpt lat="42.9915512" lon="10.9051189"><ele>157.0</ele><time>2026-05-02T17:26:51.62Z</time></trkpt><trkpt lat="42.9915276" lon="10.9049533"><ele>157.0</ele><time>2026-05-02T17:26:52.621Z</time></trkpt><trkpt lat="42.9915141" lon="10.9047801"><ele>157.5</ele><time>2026-05-02T17:26:53.622Z</time></trkpt><trkpt lat="42.9915169" lon="10.904602"><ele>158.0</ele><time>2026-05-02T17:26:54.616Z</time></trkpt><trkpt lat="42.9915297" lon="10.9044192"><ele>158.5</ele><time>2026-05-02T17:26:55.602Z</time></trkpt><trkpt lat="42.991551" lon="10.9042418"><ele>159.0</ele><time>2026-05-02T17:26:56.618Z</time></trkpt><trkpt lat="42.9915691" lon="10.9040723"><ele>159.5</ele><time>2026-05-02T17:26:57.619Z</time></trkpt><trkpt lat="42.9915885" lon="10.903918"><ele>160.0</ele><time>2026-05-02T17:26:58.618Z</time></trkpt><trkpt lat="42.9916086" lon="10.9037606"><ele>160.5</ele><time>2026-05-02T17:26:59.619Z</time></trkpt><trkpt lat="42.9916289" lon="10.9036017"><ele>161.0</ele><time>2026-05-02T17:27:00.627Z</time></trkpt><trkpt lat="42.9916521" lon="10.9034437"><ele>161.5</ele><time>2026-05-02T17:27:01.619Z</time></trkpt><trkpt lat="42.9916736" lon="10.9032923"><ele>162.0</ele><time>2026-05-02T17:27:02.628Z</time></trkpt><trkpt lat="42.9916921" lon="10.9031397"><ele>162.5</ele><time>2026-05-02T17:27:03.617Z</time></trkpt><trkpt lat="42.9917093" lon="10.9029766"><ele>163.0</ele><time>2026-05-02T17:27:04.628Z</time></trkpt><trkpt lat="42.9917289" lon="10.9028212"><ele>163.60000000000002</ele><time>2026-05-02T17:27:05.621Z</time></trkpt><trkpt lat="42.9917525" lon="10.9026725"><ele>164.20000000000002</ele><time>2026-05-02T17:27:06.623Z</time></trkpt><trkpt lat="42.9917747" lon="10.9025238"><ele>164.8</ele><time>2026-05-02T17:27:07.621Z</time></trkpt><trkpt lat="42.9917918" lon="10.902383"><ele>165.4</ele><time>2026-05-02T17:27:08.62Z</time></trkpt><trkpt lat="42.9918057" lon="10.9022705"><ele>166.0</ele><time>2026-05-02T17:27:09.623Z</time></trkpt><trkpt lat="42.9918203" lon="10.9021638"><ele>166.60000000000002</ele><time>2026-05-02T17:27:10.622Z</time></trkpt><trkpt lat="42.9918285" lon="10.9020521"><ele>167.2</ele><time>2026-05-02T17:27:11.618Z</time></trkpt><trkpt lat="42.9918447" lon="10.9019296"><ele>167.8</ele><time>2026-05-02T17:27:12.621Z</time></trkpt><trkpt lat="42.9918616" lon="10.9017936"><ele>168.39999999999998</ele><time>2026-05-02T17:27:13.628Z</time></trkpt><trkpt lat="42.9918804" lon="10.9016453"><ele>169.0</ele><time>2026-05-02T17:27:14.628Z</time></trkpt><trkpt lat="42.9919011" lon="10.9014764"><ele>169.39999999999998</ele><time>2026-05-02T17:27:15.615Z</time></trkpt><trkpt lat="42.9919246" lon="10.9013027"><ele>169.8</ele><time>2026-05-02T17:27:16.618Z</time></trkpt><trkpt lat="42.9919442" lon="10.9011583"><ele>170.2</ele><time>2026-05-02T17:27:17.618Z</time></trkpt><trkpt lat="42.9919769" lon="10.9010382"><ele>170.60000000000002</ele><time>2026-05-02T17:27:19.622Z</time></trkpt><trkpt lat="42.9919279" lon="10.9011629"><ele>171.0</ele><time>2026-05-02T17:27:29.62Z</time></trkpt><trkpt lat="42.9919132" lon="10.9013045"><ele>171.0</ele><time>2026-05-02T17:27:30.611Z</time></trkpt><trkpt lat="42.9918872" lon="10.9014671"><ele>171.0</ele><time>2026-05-02T17:27:31.614Z</time></trkpt><trkpt lat="42.9918614" lon="10.9016562"><ele>171.0</ele><time>2026-05-02T17:27:32.619Z</time></trkpt><trkpt lat="42.9918294" lon="10.9018671"><ele>171.0</ele><time>2026-05-02T17:27:33.615Z</time></trkpt><trkpt lat="42.9917995" lon="10.9020939"><ele>170.33333333333334</ele><time>2026-05-02T17:27:34.615Z</time></trkpt><trkpt lat="42.9917664" lon="10.9023379"><ele>169.66666666666669</ele><time>2026-05-02T17:27:35.619Z</time></trkpt><trkpt lat="42.9917297" lon="10.902599"><ele>169.0</ele><time>2026-05-02T17:27:36.631Z</time></trkpt><trkpt lat="42.9916927" lon="10.9028656"><ele>167.0</ele><time>2026-05-02T17:27:37.605Z</time></trkpt><trkpt lat="42.9916542" lon="10.9031419"><ele>165.0</ele><time>2026-05-02T17:27:38.623Z</time></trkpt><trkpt lat="42.9916188" lon="10.9034148"><ele>163.0</ele><time>2026-05-02T17:27:39.615Z</time></trkpt><trkpt lat="42.9915813" lon="10.9036682"><ele>162.33333333333334</ele><time>2026-05-02T17:27:40.625Z</time></trkpt><trkpt lat="42.9915483" lon="10.9039077"><ele>161.66666666666666</ele><time>2026-05-02T17:27:41.619Z</time></trkpt><trkpt lat="42.9915186" lon="10.9041218"><ele>161.0</ele><time>2026-05-02T17:27:42.626Z</time></trkpt><trkpt lat="42.9914879" lon="10.9043089"><ele>160.66666666666666</ele><time>2026-05-02T17:27:43.615Z</time></trkpt><trkpt lat="42.991465" lon="10.904463"><ele>160.33333333333331</ele><time>2026-05-02T17:27:44.627Z</time></trkpt><trkpt lat="42.991461" lon="10.9045917"><ele>160.0</ele><time>2026-05-02T17:27:45.61Z</time></trkpt><trkpt lat="42.9914559" lon="10.9047045"><ele>159.66666666666666</ele><time>2026-05-02T17:27:47.62Z</time></trkpt><trkpt lat="42.9914082" lon="10.904619"><ele>159.33333333333334</ele><time>2026-05-02T17:27:51.62Z</time></trkpt><trkpt lat="42.9913892" lon="10.9045321"><ele>159.0</ele><time>2026-05-02T17:27:52.616Z</time></trkpt><trkpt lat="42.9913579" lon="10.9044297"><ele>159.0</ele><time>2026-05-02T17:27:53.617Z</time></trkpt><trkpt lat="42.9913168" lon="10.9043153"><ele>159.0</ele><time>2026-05-02T17:27:54.61Z</time></trkpt><trkpt lat="42.9912782" lon="10.9041965"><ele>159.0</ele><time>2026-05-02T17:27:55.611Z</time></trkpt><trkpt lat="42.9912384" lon="10.9040886"><ele>159.0</ele><time>2026-05-02T17:27:56.619Z</time></trkpt><trkpt lat="42.9911986" lon="10.9039995"><ele>159.0</ele><time>2026-05-02T17:27:57.609Z</time></trkpt><trkpt lat="42.99115" lon="10.903905"><ele>159.0</ele><time>2026-05-02T17:27:59.618Z</time></trkpt><trkpt lat="42.9911098" lon="10.9038112"><ele>159.28571428571428</ele><time>2026-05-02T17:28:03.625Z</time></trkpt><trkpt lat="42.9910634" lon="10.9037455"><ele>159.57142857142858</ele><time>2026-05-02T17:28:06.626Z</time></trkpt><trkpt lat="42.9910109" lon="10.9036619"><ele>159.85714285714286</ele><time>2026-05-02T17:28:09.629Z</time></trkpt><trkpt lat="42.9909722" lon="10.903593"><ele>160.14285714285714</ele><time>2026-05-02T17:28:11.607Z</time></trkpt><trkpt lat="42.9909191" lon="10.9034867"><ele>160.42857142857144</ele><time>2026-05-02T17:28:14.62Z</time></trkpt><trkpt lat="42.9908759" lon="10.903418"><ele>160.71428571428572</ele><time>2026-05-02T17:28:16.615Z</time></trkpt><trkpt lat="42.9908322" lon="10.9033473"><ele>161.0</ele><time>2026-05-02T17:28:18.618Z</time></trkpt><trkpt lat="42.9907791" lon="10.9032563"><ele>161.16666666666666</ele><time>2026-05-02T17:28:20.611Z</time></trkpt><trkpt lat="42.9907077" lon="10.9031523"><ele>161.33333333333331</ele><time>2026-05-02T17:28:22.61Z</time></trkpt><trkpt lat="42.9906628" lon="10.9030916"><ele>161.5</ele><time>2026-05-02T17:28:23.616Z</time></trkpt><trkpt lat="42.9906122" lon="10.9030273"><ele>161.66666666666666</ele><time>2026-05-02T17:28:24.623Z</time></trkpt><trkpt lat="42.9905596" lon="10.9029516"><ele>161.83333333333334</ele><time>2026-05-02T17:28:25.617Z</time></trkpt><trkpt lat="42.9905208" lon="10.9028733"><ele>162.0</ele><time>2026-05-02T17:28:26.612Z</time></trkpt><trkpt lat="42.9904849" lon="10.9027818"><ele>162.0</ele><time>2026-05-02T17:28:27.617Z</time></trkpt><trkpt lat="42.9904447" lon="10.9026698"><ele>162.0</ele><time>2026-05-02T17:28:28.61Z</time></trkpt><trkpt lat="42.9904115" lon="10.9025285"><ele>162.0</ele><time>2026-05-02T17:28:29.627Z</time></trkpt><trkpt lat="42.9903792" lon="10.9023635"><ele>162.0</ele><time>2026-05-02T17:28:30.615Z</time></trkpt><trkpt lat="42.9903507" lon="10.9021957"><ele>162.25</ele><time>2026-05-02T17:28:31.62Z</time></trkpt><trkpt lat="42.990318" lon="10.9020295"><ele>162.5</ele><time>2026-05-02T17:28:32.625Z</time></trkpt><trkpt lat="42.9902864" lon="10.9018641"><ele>162.75</ele><time>2026-05-02T17:28:33.619Z</time></trkpt><trkpt lat="42.9902592" lon="10.9017085"><ele>163.0</ele><time>2026-05-02T17:28:34.608Z</time></trkpt><trkpt lat="42.9902344" lon="10.9015579"><ele>163.60000000000002</ele><time>2026-05-02T17:28:35.623Z</time></trkpt><trkpt lat="42.9902125" lon="10.9014095"><ele>164.20000000000002</ele><time>2026-05-02T17:28:36.618Z</time></trkpt><trkpt lat="42.990187" lon="10.9012661"><ele>164.8</ele><time>2026-05-02T17:28:37.617Z</time></trkpt><trkpt lat="42.9901619" lon="10.9011386"><ele>165.4</ele><time>2026-05-02T17:28:38.627Z</time></trkpt><trkpt lat="42.9901399" lon="10.9010151"><ele>166.0</ele><time>2026-05-02T17:28:39.627Z</time></trkpt><trkpt lat="42.9901168" lon="10.9008931"><ele>166.16666666666669</ele><time>2026-05-02T17:28:40.62Z</time></trkpt><trkpt lat="42.9900887" lon="10.9007802"><ele>166.33333333333334</ele><time>2026-05-02T17:28:41.62Z</time></trkpt><trkpt lat="42.9900581" lon="10.900684"><ele>166.5</ele><time>2026-05-02T17:28:42.62Z</time></trkpt><trkpt lat="42.9900183" lon="10.9005984"><ele>166.66666666666666</ele><time>2026-05-02T17:28:43.614Z</time></trkpt><trkpt lat="42.9899656" lon="10.9005306"><ele>166.83333333333331</ele><time>2026-05-02T17:28:44.615Z</time></trkpt><trkpt lat="42.9898884" lon="10.9004769"><ele>167.0</ele><time>2026-05-02T17:28:45.609Z</time></trkpt><trkpt lat="42.9897984" lon="10.9004529"><ele>165.2</ele><time>2026-05-02T17:28:46.627Z</time></trkpt><trkpt lat="42.9896998" lon="10.9004597"><ele>163.39999999999998</ele><time>2026-05-02T17:28:47.614Z</time></trkpt><trkpt lat="42.9896009" lon="10.9004795"><ele>161.60000000000002</ele><time>2026-05-02T17:28:48.618Z</time></trkpt><trkpt lat="42.9895068" lon="10.9005013"><ele>159.8</ele><time>2026-05-02T17:28:49.629Z</time></trkpt><trkpt lat="42.9894234" lon="10.9005176"><ele>158.0</ele><time>2026-05-02T17:28:50.616Z</time></trkpt><trkpt lat="42.9893525" lon="10.900529"><ele>158.0</ele><time>2026-05-02T17:28:51.617Z</time></trkpt><trkpt lat="42.9892618" lon="10.9005481"><ele>158.0</ele><time>2026-05-02T17:28:53.616Z</time></trkpt><trkpt lat="42.989201" lon="10.9005031"><ele>158.0</ele><time>2026-05-02T17:28:57.613Z</time></trkpt><trkpt lat="42.9892787" lon="10.9004712"><ele>158.0</ele><time>2026-05-02T17:32:14.629Z</time></trkpt><trkpt lat="42.9893589" lon="10.9005263"><ele>158.0</ele><time>2026-05-02T17:32:16.609Z</time></trkpt><trkpt lat="42.9894792" lon="10.9005341"><ele>158.0</ele><time>2026-05-02T17:32:18.625Z</time></trkpt><trkpt lat="42.9895624" lon="10.9005422"><ele>158.0</ele><time>2026-05-02T17:32:19.616Z</time></trkpt><trkpt lat="42.9896651" lon="10.9005606"><ele>158.0</ele><time>2026-05-02T17:32:20.627Z</time></trkpt><trkpt lat="42.9897706" lon="10.9006007"><ele>158.0</ele><time>2026-05-02T17:32:21.623Z</time></trkpt><trkpt lat="42.9898607" lon="10.9006495"><ele>158.0</ele><time>2026-05-02T17:32:22.61Z</time></trkpt><trkpt lat="42.9899333" lon="10.9007092"><ele>158.0</ele><time>2026-05-02T17:32:23.617Z</time></trkpt><trkpt lat="42.9899875" lon="10.9007733"><ele>158.0</ele><time>2026-05-02T17:32:24.612Z</time></trkpt><trkpt lat="42.9900383" lon="10.9008512"><ele>158.0</ele><time>2026-05-02T17:32:25.624Z</time></trkpt><trkpt lat="42.9900731" lon="10.9009499"><ele>158.0</ele><time>2026-05-02T17:32:26.627Z</time></trkpt><trkpt lat="42.9901029" lon="10.9010608"><ele>158.0</ele><time>2026-05-02T17:32:27.615Z</time></trkpt><trkpt lat="42.990125" lon="10.9011813"><ele>158.0</ele><time>2026-05-02T17:32:28.62Z</time></trkpt><trkpt lat="42.9901466" lon="10.9013045"><ele>159.0</ele><time>2026-05-02T17:32:29.607Z</time></trkpt><trkpt lat="42.9901678" lon="10.9014299"><ele>160.0</ele><time>2026-05-02T17:32:30.623Z</time></trkpt><trkpt lat="42.9901834" lon="10.9015651"><ele>161.0</ele><time>2026-05-02T17:32:31.613Z</time></trkpt><trkpt lat="42.9902031" lon="10.9017003"><ele>162.0</ele><time>2026-05-02T17:32:32.617Z</time></trkpt><trkpt lat="42.9902221" lon="10.9018339"><ele>163.0</ele><time>2026-05-02T17:32:33.617Z</time></trkpt><trkpt lat="42.9902414" lon="10.9019708"><ele>163.0</ele><time>2026-05-02T17:32:34.611Z</time></trkpt><trkpt lat="42.9902613" lon="10.9020966"><ele>163.0</ele><time>2026-05-02T17:32:35.617Z</time></trkpt><trkpt lat="42.9902859" lon="10.9022222"><ele>163.0</ele><time>2026-05-02T17:32:36.61Z</time></trkpt><trkpt lat="42.9903131" lon="10.9023482"><ele>163.0</ele><time>2026-05-02T17:32:37.623Z</time></trkpt><trkpt lat="42.990348" lon="10.9024719"><ele>163.0</ele><time>2026-05-02T17:32:38.616Z</time></trkpt><trkpt lat="42.9903839" lon="10.9025919"><ele>162.8</ele><time>2026-05-02T17:32:39.615Z</time></trkpt><trkpt lat="42.9904237" lon="10.9027072"><ele>162.60000000000002</ele><time>2026-05-02T17:32:40.622Z</time></trkpt><trkpt lat="42.9904673" lon="10.9028113"><ele>162.39999999999998</ele><time>2026-05-02T17:32:41.615Z</time></trkpt><trkpt lat="42.9905235" lon="10.9029086"><ele>162.2</ele><time>2026-05-02T17:32:42.613Z</time></trkpt><trkpt lat="42.9905901" lon="10.9030074"><ele>162.0</ele><time>2026-05-02T17:32:43.608Z</time></trkpt><trkpt lat="42.9906605" lon="10.9031082"><ele>162.0</ele><time>2026-05-02T17:32:44.616Z</time></trkpt><trkpt lat="42.9907339" lon="10.9032111"><ele>162.0</ele><time>2026-05-02T17:32:45.612Z</time></trkpt><trkpt lat="42.9908055" lon="10.9033195"><ele>162.0</ele><time>2026-05-02T17:32:46.61Z</time></trkpt><trkpt lat="42.9908724" lon="10.9034288"><ele>162.0</ele><time>2026-05-02T17:32:47.606Z</time></trkpt><trkpt lat="42.9909346" lon="10.9035316"><ele>162.0</ele><time>2026-05-02T17:32:48.618Z</time></trkpt><trkpt lat="42.9910003" lon="10.9036365"><ele>161.8</ele><time>2026-05-02T17:32:49.616Z</time></trkpt><trkpt lat="42.9910642" lon="10.9037599"><ele>161.6</ele><time>2026-05-02T17:32:50.621Z</time></trkpt><trkpt lat="42.9911314" lon="10.9038821"><ele>161.4</ele><time>2026-05-02T17:32:51.612Z</time></trkpt><trkpt lat="42.991191" lon="10.9040071"><ele>161.20000000000002</ele><time>2026-05-02T17:32:52.613Z</time></trkpt><trkpt lat="42.9912407" lon="10.9041198"><ele>161.0</ele><time>2026-05-02T17:32:53.62Z</time></trkpt><trkpt lat="42.991292" lon="10.9042239"><ele>160.71428571428572</ele><time>2026-05-02T17:32:54.62Z</time></trkpt><trkpt lat="42.9913448" lon="10.9043125"><ele>160.42857142857144</ele><time>2026-05-02T17:32:55.625Z</time></trkpt><trkpt lat="42.9913743" lon="10.9043913"><ele>160.14285714285714</ele><time>2026-05-02T17:32:56.629Z</time></trkpt><trkpt lat="42.9914002" lon="10.9044746"><ele>159.85714285714286</ele><time>2026-05-02T17:32:57.616Z</time></trkpt><trkpt lat="42.9914232" lon="10.9045585"><ele>159.57142857142858</ele><time>2026-05-02T17:32:58.622Z</time></trkpt><trkpt lat="42.9914377" lon="10.904671"><ele>159.28571428571428</ele><time>2026-05-02T17:33:00.627Z</time></trkpt><trkpt lat="42.9915009" lon="10.9047162"><ele>159.0</ele><time>2026-05-02T17:33:03.613Z</time></trkpt><trkpt lat="42.9915204" lon="10.9046039"><ele>159.0</ele><time>2026-05-02T17:33:05.617Z</time></trkpt><trkpt lat="42.991514" lon="10.9044885"><ele>159.0</ele><time>2026-05-02T17:33:06.615Z</time></trkpt><trkpt lat="42.9915179" lon="10.904342"><ele>159.0</ele><time>2026-05-02T17:33:07.636Z</time></trkpt><trkpt lat="42.9915344" lon="10.9041573"><ele>159.0</ele><time>2026-05-02T17:33:08.616Z</time></trkpt><trkpt lat="42.991557" lon="10.9039623"><ele>159.66666666666666</ele><time>2026-05-02T17:33:09.616Z</time></trkpt><trkpt lat="42.9915877" lon="10.903749"><ele>160.33333333333331</ele><time>2026-05-02T17:33:10.613Z</time></trkpt><trkpt lat="42.991618" lon="10.9035239"><ele>161.0</ele><time>2026-05-02T17:33:11.613Z</time></trkpt><trkpt lat="42.9916512" lon="10.903286"><ele>162.66666666666666</ele><time>2026-05-02T17:33:12.608Z</time></trkpt><trkpt lat="42.9916929" lon="10.9030354"><ele>164.33333333333334</ele><time>2026-05-02T17:33:13.609Z</time></trkpt><trkpt lat="42.9917256" lon="10.9027891"><ele>166.0</ele><time>2026-05-02T17:33:14.621Z</time></trkpt><trkpt lat="42.9917589" lon="10.9025449"><ele>167.0</ele><time>2026-05-02T17:33:15.623Z</time></trkpt><trkpt lat="42.9917928" lon="10.9023068"><ele>168.0</ele><time>2026-05-02T17:33:16.61Z</time></trkpt><trkpt lat="42.9918234" lon="10.9020712"><ele>169.0</ele><time>2026-05-02T17:33:17.627Z</time></trkpt><trkpt lat="42.9918539" lon="10.9018445"><ele>169.66666666666669</ele><time>2026-05-02T17:33:18.622Z</time></trkpt><trkpt lat="42.9918813" lon="10.90162"><ele>170.33333333333334</ele><time>2026-05-02T17:33:19.617Z</time></trkpt><trkpt lat="42.99191" lon="10.9013948"><ele>171.0</ele><time>2026-05-02T17:33:20.617Z</time></trkpt><trkpt lat="42.9919392" lon="10.9011697"><ele>171.0</ele><time>2026-05-02T17:33:21.621Z</time></trkpt><trkpt lat="42.991971" lon="10.9009319"><ele>171.0</ele><time>2026-05-02T17:33:22.614Z</time></trkpt><trkpt lat="42.9920058" lon="10.9006826"><ele>171.0</ele><time>2026-05-02T17:33:23.62Z</time></trkpt><trkpt lat="42.9920398" lon="10.9004248"><ele>171.33333333333334</ele><time>2026-05-02T17:33:24.607Z</time></trkpt><trkpt lat="42.992074" lon="10.9001589"><ele>171.66666666666669</ele><time>2026-05-02T17:33:25.611Z</time></trkpt><trkpt lat="42.9921117" lon="10.8998851"><ele>172.0</ele><time>2026-05-02T17:33:26.632Z</time></trkpt><trkpt lat="42.9921456" lon="10.8996034"><ele>172.33333333333334</ele><time>2026-05-02T17:33:27.617Z</time></trkpt><trkpt lat="42.9921842" lon="10.899312"><ele>172.66666666666666</ele><time>2026-05-02T17:33:28.619Z</time></trkpt><trkpt lat="42.9922239" lon="10.8990133"><ele>173.0</ele><time>2026-05-02T17:33:29.619Z</time></trkpt><trkpt lat="42.992264" lon="10.8987061"><ele>171.5</ele><time>2026-05-02T17:33:30.622Z</time></trkpt><trkpt lat="42.9923046" lon="10.8983953"><ele>170.0</ele><time>2026-05-02T17:33:31.62Z</time></trkpt><trkpt lat="42.9923466" lon="10.898077"><ele>170.0</ele><time>2026-05-02T17:33:32.625Z</time></trkpt><trkpt lat="42.992389" lon="10.8977542"><ele>170.0</ele><time>2026-05-02T17:33:33.615Z</time></trkpt><trkpt lat="42.9924341" lon="10.8974247"><ele>171.0</ele><time>2026-05-02T17:33:34.622Z</time></trkpt><trkpt lat="42.9924789" lon="10.8970825"><ele>172.0</ele><time>2026-05-02T17:33:35.616Z</time></trkpt><trkpt lat="42.9925282" lon="10.8967105"><ele>172.0</ele><time>2026-05-02T17:33:36.626Z</time></trkpt><trkpt lat="42.992581" lon="10.8963036"><ele>172.0</ele><time>2026-05-02T17:33:37.611Z</time></trkpt><trkpt lat="42.9926365" lon="10.8958821"><ele>170.5</ele><time>2026-05-02T17:33:38.624Z</time></trkpt><trkpt lat="42.9926897" lon="10.8954521"><ele>169.0</ele><time>2026-05-02T17:33:39.626Z</time></trkpt><trkpt lat="42.9927488" lon="10.8950395"><ele>168.0</ele><time>2026-05-02T17:33:40.626Z</time></trkpt><trkpt lat="42.9928034" lon="10.894643"><ele>167.0</ele><time>2026-05-02T17:33:41.624Z</time></trkpt><trkpt lat="42.9928535" lon="10.8942717"><ele>166.0</ele><time>2026-05-02T17:33:42.625Z</time></trkpt><trkpt lat="42.9929063" lon="10.8938991"><ele>165.0</ele><time>2026-05-02T17:33:43.617Z</time></trkpt><trkpt lat="42.9929579" lon="10.8935125"><ele>164.0</ele><time>2026-05-02T17:33:44.631Z</time></trkpt><trkpt lat="42.9930053" lon="10.8931199"><ele>163.0</ele><time>2026-05-02T17:33:45.621Z</time></trkpt><trkpt lat="42.9930527" lon="10.8927249"><ele>161.5</ele><time>2026-05-02T17:33:46.63Z</time></trkpt><trkpt lat="42.993104" lon="10.8923272"><ele>160.0</ele><time>2026-05-02T17:33:47.617Z</time></trkpt><trkpt lat="42.9931574" lon="10.8919157"><ele>160.0</ele><time>2026-05-02T17:33:48.63Z</time></trkpt><trkpt lat="42.9932146" lon="10.8914952"><ele>160.0</ele><time>2026-05-02T17:33:49.612Z</time></trkpt><trkpt lat="42.9932669" lon="10.8910923"><ele>160.5</ele><time>2026-05-02T17:33:50.63Z</time></trkpt><trkpt lat="42.9933184" lon="10.8907285"><ele>161.0</ele><time>2026-05-02T17:33:51.62Z</time></trkpt><trkpt lat="42.9933639" lon="10.890379"><ele>165.5</ele><time>2026-05-02T17:33:52.622Z</time></trkpt><trkpt lat="42.9934042" lon="10.8900523"><ele>170.0</ele><time>2026-05-02T17:33:53.617Z</time></trkpt><trkpt lat="42.9934452" lon="10.8897411"><ele>170.0</ele><time>2026-05-02T17:33:54.629Z</time></trkpt><trkpt lat="42.9934886" lon="10.8894387"><ele>170.0</ele><time>2026-05-02T17:33:55.607Z</time></trkpt><trkpt lat="42.9935311" lon="10.8891496"><ele>170.0</ele><time>2026-05-02T17:33:56.61Z</time></trkpt><trkpt lat="42.993569" lon="10.8888784"><ele>173.66666666666666</ele><time>2026-05-02T17:33:57.612Z</time></trkpt><trkpt lat="42.9936067" lon="10.8886307"><ele>177.33333333333334</ele><time>2026-05-02T17:33:58.617Z</time></trkpt><trkpt lat="42.9936438" lon="10.8884143"><ele>181.0</ele><time>2026-05-02T17:33:59.609Z</time></trkpt><trkpt lat="42.9936823" lon="10.8882242"><ele>182.5</ele><time>2026-05-02T17:34:00.616Z</time></trkpt><trkpt lat="42.9937278" lon="10.8880435"><ele>184.0</ele><time>2026-05-02T17:34:01.697Z</time></trkpt><trkpt lat="42.9937696" lon="10.8878837"><ele>185.5</ele><time>2026-05-02T17:34:02.614Z</time></trkpt><trkpt lat="42.9938138" lon="10.8877393"><ele>187.0</ele><time>2026-05-02T17:34:03.613Z</time></trkpt><trkpt lat="42.993861" lon="10.8875974"><ele>186.75</ele><time>2026-05-02T17:34:04.622Z</time></trkpt><trkpt lat="42.9939132" lon="10.8874521"><ele>186.5</ele><time>2026-05-02T17:34:05.623Z</time></trkpt><trkpt lat="42.9939692" lon="10.8873013"><ele>186.25</ele><time>2026-05-02T17:34:06.615Z</time></trkpt><trkpt lat="42.9940304" lon="10.8871427"><ele>186.0</ele><time>2026-05-02T17:34:07.614Z</time></trkpt><trkpt lat="42.994101" lon="10.8869732"><ele>190.33333333333331</ele><time>2026-05-02T17:34:08.598Z</time></trkpt><trkpt lat="42.9941815" lon="10.8867968"><ele>194.66666666666666</ele><time>2026-05-02T17:34:09.606Z</time></trkpt><trkpt lat="42.994271" lon="10.8866207"><ele>199.0</ele><time>2026-05-02T17:34:10.616Z</time></trkpt><trkpt lat="42.9943552" lon="10.8864577"><ele>199.0</ele><time>2026-05-02T17:34:11.616Z</time></trkpt><trkpt lat="42.9944342" lon="10.8863081"><ele>199.0</ele><time>2026-05-02T17:34:12.604Z</time></trkpt><trkpt lat="42.9945087" lon="10.8861617"><ele>199.0</ele><time>2026-05-02T17:34:13.603Z</time></trkpt><trkpt lat="42.9945855" lon="10.8860092"><ele>199.0</ele><time>2026-05-02T17:34:14.61Z</time></trkpt><trkpt lat="42.9946567" lon="10.8858564"><ele>197.2</ele><time>2026-05-02T17:34:15.614Z</time></trkpt><trkpt lat="42.994724" lon="10.8857175"><ele>195.39999999999998</ele><time>2026-05-02T17:34:16.611Z</time></trkpt><trkpt lat="42.9947882" lon="10.8855977"><ele>193.6</ele><time>2026-05-02T17:34:17.611Z</time></trkpt><trkpt lat="42.9948465" lon="10.885489"><ele>191.8</ele><time>2026-05-02T17:34:18.618Z</time></trkpt><trkpt lat="42.9949038" lon="10.8853735"><ele>190.0</ele><time>2026-05-02T17:34:19.611Z</time></trkpt><trkpt lat="42.9949651" lon="10.8852508"><ele>193.5</ele><time>2026-05-02T17:34:20.615Z</time></trkpt><trkpt lat="42.9950279" lon="10.8851193"><ele>197.0</ele><time>2026-05-02T17:34:21.608Z</time></trkpt><trkpt lat="42.9950981" lon="10.8849814"><ele>200.5</ele><time>2026-05-02T17:34:22.618Z</time></trkpt><trkpt lat="42.9951693" lon="10.8848335"><ele>204.0</ele><time>2026-05-02T17:34:23.621Z</time></trkpt><trkpt lat="42.9952485" lon="10.8846828"><ele>204.0</ele><time>2026-05-02T17:34:24.613Z</time></trkpt><trkpt lat="42.9953339" lon="10.8845301"><ele>204.0</ele><time>2026-05-02T17:34:25.612Z</time></trkpt><trkpt lat="42.9954182" lon="10.8843801"><ele>204.0</ele><time>2026-05-02T17:34:26.611Z</time></trkpt><trkpt lat="42.9954979" lon="10.8842354"><ele>204.0</ele><time>2026-05-02T17:34:27.612Z</time></trkpt><trkpt lat="42.9955828" lon="10.884094"><ele>202.0</ele><time>2026-05-02T17:34:28.615Z</time></trkpt><trkpt lat="42.9956707" lon="10.8839461"><ele>200.0</ele><time>2026-05-02T17:34:29.612Z</time></trkpt><trkpt lat="42.9957655" lon="10.8837931"><ele>198.0</ele><time>2026-05-02T17:34:30.616Z</time></trkpt><trkpt lat="42.9958592" lon="10.8836363"><ele>196.0</ele><time>2026-05-02T17:34:31.607Z</time></trkpt><trkpt lat="42.9959509" lon="10.8834856"><ele>198.5</ele><time>2026-05-02T17:34:32.622Z</time></trkpt><trkpt lat="42.9960357" lon="10.8833451"><ele>201.0</ele><time>2026-05-02T17:34:33.614Z</time></trkpt><trkpt lat="42.9961114" lon="10.8832186"><ele>203.5</ele><time>2026-05-02T17:34:34.617Z</time></trkpt><trkpt lat="42.9961848" lon="10.883097"><ele>206.0</ele><time>2026-05-02T17:34:35.611Z</time></trkpt><trkpt lat="42.9962634" lon="10.8829698"><ele>206.0</ele><time>2026-05-02T17:34:36.613Z</time></trkpt><trkpt lat="42.9963455" lon="10.8828322"><ele>206.0</ele><time>2026-05-02T17:34:37.605Z</time></trkpt><trkpt lat="42.9964299" lon="10.8826896"><ele>206.0</ele><time>2026-05-02T17:34:38.615Z</time></trkpt><trkpt lat="42.996516" lon="10.8825464"><ele>206.0</ele><time>2026-05-02T17:34:39.605Z</time></trkpt><trkpt lat="42.9966013" lon="10.8823975"><ele>208.0</ele><time>2026-05-02T17:34:40.612Z</time></trkpt><trkpt lat="42.9966876" lon="10.8822487"><ele>210.0</ele><time>2026-05-02T17:34:41.606Z</time></trkpt><trkpt lat="42.9967778" lon="10.8821051"><ele>212.0</ele><time>2026-05-02T17:34:42.616Z</time></trkpt><trkpt lat="42.9968694" lon="10.8819648"><ele>214.0</ele><time>2026-05-02T17:34:43.612Z</time></trkpt><trkpt lat="42.9969714" lon="10.8818346"><ele>211.75</ele><time>2026-05-02T17:34:44.612Z</time></trkpt><trkpt lat="42.9970845" lon="10.8817138"><ele>209.5</ele><time>2026-05-02T17:34:45.611Z</time></trkpt><trkpt lat="42.9972066" lon="10.8816076"><ele>207.25</ele><time>2026-05-02T17:34:46.631Z</time></trkpt><trkpt lat="42.9973334" lon="10.8815162"><ele>205.0</ele><time>2026-05-02T17:34:47.61Z</time></trkpt><trkpt lat="42.9974684" lon="10.8814455"><ele>206.75</ele><time>2026-05-02T17:34:48.618Z</time></trkpt><trkpt lat="42.997608" lon="10.8813932"><ele>208.5</ele><time>2026-05-02T17:34:49.617Z</time></trkpt><trkpt lat="42.9977498" lon="10.8813551"><ele>210.25</ele><time>2026-05-02T17:34:50.612Z</time></trkpt><trkpt lat="42.9978871" lon="10.8813182"><ele>212.0</ele><time>2026-05-02T17:34:51.61Z</time></trkpt><trkpt lat="42.9980142" lon="10.8812813"><ele>212.0</ele><time>2026-05-02T17:34:52.614Z</time></trkpt><trkpt lat="42.9981353" lon="10.8812461"><ele>212.0</ele><time>2026-05-02T17:34:53.615Z</time></trkpt><trkpt lat="42.9982549" lon="10.8812106"><ele>212.0</ele><time>2026-05-02T17:34:54.617Z</time></trkpt><trkpt lat="42.9983753" lon="10.8811734"><ele>212.0</ele><time>2026-05-02T17:34:55.621Z</time></trkpt><trkpt lat="42.9984923" lon="10.8811393"><ele>213.75</ele><time>2026-05-02T17:34:56.629Z</time></trkpt><trkpt lat="42.9986081" lon="10.8811038"><ele>215.5</ele><time>2026-05-02T17:34:57.608Z</time></trkpt><trkpt lat="42.9987233" lon="10.8810706"><ele>217.25</ele><time>2026-05-02T17:34:58.626Z</time></trkpt><trkpt lat="42.9988365" lon="10.8810427"><ele>219.0</ele><time>2026-05-02T17:34:59.616Z</time></trkpt><trkpt lat="42.9989568" lon="10.8810116"><ele>219.0</ele><time>2026-05-02T17:35:00.617Z</time></trkpt><trkpt lat="42.9990803" lon="10.8809818"><ele>219.0</ele><time>2026-05-02T17:35:01.614Z</time></trkpt><trkpt lat="42.9992025" lon="10.880947"><ele>219.0</ele><time>2026-05-02T17:35:02.614Z</time></trkpt><trkpt lat="42.9993222" lon="10.8809112"><ele>219.0</ele><time>2026-05-02T17:35:03.622Z</time></trkpt><trkpt lat="42.9994304" lon="10.8808871"><ele>216.6</ele><time>2026-05-02T17:35:04.623Z</time></trkpt><trkpt lat="42.9995277" lon="10.8808694"><ele>214.2</ele><time>2026-05-02T17:35:05.615Z</time></trkpt><trkpt lat="42.9996198" lon="10.8808608"><ele>211.79999999999998</ele><time>2026-05-02T17:35:06.614Z</time></trkpt><trkpt lat="42.9997101" lon="10.8808602"><ele>209.39999999999998</ele><time>2026-05-02T17:35:07.616Z</time></trkpt><trkpt lat="42.9998039" lon="10.8808686"><ele>207.0</ele><time>2026-05-02T17:35:08.62Z</time></trkpt><trkpt lat="42.9999014" lon="10.8808767"><ele>207.0</ele><time>2026-05-02T17:35:09.612Z</time></trkpt><trkpt lat="43.0000053" lon="10.8808704"><ele>207.0</ele><time>2026-05-02T17:35:10.62Z</time></trkpt><trkpt lat="43.0000989" lon="10.8808508"><ele>207.0</ele><time>2026-05-02T17:35:11.612Z</time></trkpt><trkpt lat="43.0001679" lon="10.8808197"><ele>207.0</ele><time>2026-05-02T17:35:12.608Z</time></trkpt><trkpt lat="43.000277" lon="10.8807009"><ele>207.0</ele><time>2026-05-02T17:35:14.615Z</time></trkpt><trkpt lat="43.0003155" lon="10.8805826"><ele>207.0</ele><time>2026-05-02T17:35:15.611Z</time></trkpt><trkpt lat="43.0003327" lon="10.8804478"><ele>207.0</ele><time>2026-05-02T17:35:16.617Z</time></trkpt><trkpt lat="43.0003236" lon="10.8803014"><ele>207.0</ele><time>2026-05-02T17:35:17.616Z</time></trkpt><trkpt lat="43.0002822" lon="10.8801562"><ele>207.0</ele><time>2026-05-02T17:35:18.621Z</time></trkpt><trkpt lat="43.0002095" lon="10.8800168"><ele>207.0</ele><time>2026-05-02T17:35:19.619Z</time></trkpt><trkpt lat="43.0001066" lon="10.8798909"><ele>203.33333333333331</ele><time>2026-05-02T17:35:20.621Z</time></trkpt><trkpt lat="42.9999746" lon="10.8797811"><ele>199.66666666666666</ele><time>2026-05-02T17:35:21.62Z</time></trkpt><trkpt lat="42.9998345" lon="10.879673"><ele>196.0</ele><time>2026-05-02T17:35:22.616Z</time></trkpt><trkpt lat="42.9997066" lon="10.8795357"><ele>196.0</ele><time>2026-05-02T17:35:23.618Z</time></trkpt><trkpt lat="42.9995933" lon="10.8793517"><ele>196.0</ele><time>2026-05-02T17:35:24.619Z</time></trkpt><trkpt lat="42.9994921" lon="10.879113"><ele>196.0</ele><time>2026-05-02T17:35:25.615Z</time></trkpt><trkpt lat="42.9994077" lon="10.8788531"><ele>192.0</ele><time>2026-05-02T17:35:26.623Z</time></trkpt><trkpt lat="42.9993366" lon="10.8785842"><ele>188.0</ele><time>2026-05-02T17:35:27.616Z</time></trkpt><trkpt lat="42.9992758" lon="10.8783222"><ele>184.0</ele><time>2026-05-02T17:35:28.619Z</time></trkpt><trkpt lat="42.999234" lon="10.8780577"><ele>179.33333333333334</ele><time>2026-05-02T17:35:29.61Z</time></trkpt><trkpt lat="42.9992252" lon="10.8777715"><ele>174.66666666666666</ele><time>2026-05-02T17:35:30.607Z</time></trkpt><trkpt lat="42.9992453" lon="10.8774607"><ele>170.0</ele><time>2026-05-02T17:35:31.613Z</time></trkpt><trkpt lat="42.999286" lon="10.877129"><ele>168.5</ele><time>2026-05-02T17:35:32.63Z</time></trkpt><trkpt lat="42.9993324" lon="10.8767759"><ele>167.0</ele><time>2026-05-02T17:35:33.615Z</time></trkpt><trkpt lat="42.9993769" lon="10.8764335"><ele>167.0</ele><time>2026-05-02T17:35:34.614Z</time></trkpt><trkpt lat="42.9994152" lon="10.876113"><ele>167.0</ele><time>2026-05-02T17:35:35.622Z</time></trkpt><trkpt lat="42.9994484" lon="10.8758127"><ele>167.0</ele><time>2026-05-02T17:35:36.619Z</time></trkpt><trkpt lat="42.9994778" lon="10.8755407"><ele>167.0</ele><time>2026-05-02T17:35:37.608Z</time></trkpt><trkpt lat="42.9995156" lon="10.8752885"><ele>167.0</ele><time>2026-05-02T17:35:38.632Z</time></trkpt><trkpt lat="42.9995651" lon="10.8750525"><ele>167.0</ele><time>2026-05-02T17:35:39.619Z</time></trkpt><trkpt lat="42.9996312" lon="10.8748257"><ele>167.0</ele><time>2026-05-02T17:35:40.621Z</time></trkpt><trkpt lat="42.9997112" lon="10.8745934"><ele>167.0</ele><time>2026-05-02T17:35:41.613Z</time></trkpt><trkpt lat="42.9998009" lon="10.8743574"><ele>168.0</ele><time>2026-05-02T17:35:42.63Z</time></trkpt><trkpt lat="42.9998866" lon="10.8741186"><ele>169.0</ele><time>2026-05-02T17:35:43.619Z</time></trkpt><trkpt lat="42.9999749" lon="10.8738819"><ele>170.0</ele><time>2026-05-02T17:35:44.616Z</time></trkpt><trkpt lat="43.000057" lon="10.8736652"><ele>170.0</ele><time>2026-05-02T17:35:45.624Z</time></trkpt><trkpt lat="43.0001458" lon="10.8734585"><ele>170.0</ele><time>2026-05-02T17:35:46.614Z</time></trkpt><trkpt lat="43.0002501" lon="10.8732618"><ele>170.0</ele><time>2026-05-02T17:35:47.615Z</time></trkpt><trkpt lat="43.0003753" lon="10.8730712"><ele>169.33333333333331</ele><time>2026-05-02T17:35:48.628Z</time></trkpt><trkpt lat="43.0005257" lon="10.872886"><ele>168.66666666666666</ele><time>2026-05-02T17:35:49.612Z</time></trkpt><trkpt lat="43.0006817" lon="10.8726973"><ele>168.0</ele><time>2026-05-02T17:35:50.632Z</time></trkpt><trkpt lat="43.0008373" lon="10.8725053"><ele>168.0</ele><time>2026-05-02T17:35:51.615Z</time></trkpt><trkpt lat="43.0009904" lon="10.872314"><ele>168.0</ele><time>2026-05-02T17:35:52.624Z</time></trkpt><trkpt lat="43.001144" lon="10.8721238"><ele>168.0</ele><time>2026-05-02T17:35:53.618Z</time></trkpt><trkpt lat="43.0012964" lon="10.8719325"><ele>167.66666666666666</ele><time>2026-05-02T17:35:54.628Z</time></trkpt><trkpt lat="43.0014411" lon="10.8717313"><ele>167.33333333333331</ele><time>2026-05-02T17:35:55.615Z</time></trkpt><trkpt lat="43.0015656" lon="10.87151"><ele>167.0</ele><time>2026-05-02T17:35:56.641Z</time></trkpt><trkpt lat="43.0016754" lon="10.8712768"><ele>167.0</ele><time>2026-05-02T17:35:57.608Z</time></trkpt><trkpt lat="43.0017692" lon="10.8710286"><ele>167.0</ele><time>2026-05-02T17:35:58.63Z</time></trkpt><trkpt lat="43.0018421" lon="10.8707799"><ele>167.0</ele><time>2026-05-02T17:35:59.62Z</time></trkpt><trkpt lat="43.0019011" lon="10.8705428"><ele>168.33333333333331</ele><time>2026-05-02T17:36:00.629Z</time></trkpt><trkpt lat="43.0019503" lon="10.8703186"><ele>169.66666666666666</ele><time>2026-05-02T17:36:01.613Z</time></trkpt><trkpt lat="43.0019891" lon="10.8701042"><ele>171.0</ele><time>2026-05-02T17:36:02.65Z</time></trkpt><trkpt lat="43.0020108" lon="10.8698853"><ele>171.0</ele><time>2026-05-02T17:36:03.622Z</time></trkpt><trkpt lat="43.0020049" lon="10.8696621"><ele>171.0</ele><time>2026-05-02T17:36:04.63Z</time></trkpt><trkpt lat="43.0019783" lon="10.8694334"><ele>171.0</ele><time>2026-05-02T17:36:05.617Z</time></trkpt><trkpt lat="43.0019351" lon="10.8691998"><ele>171.0</ele><time>2026-05-02T17:36:06.64Z</time></trkpt><trkpt lat="43.0018911" lon="10.86897"><ele>171.0</ele><time>2026-05-02T17:36:07.622Z</time></trkpt><trkpt lat="43.0018474" lon="10.8687386"><ele>171.0</ele><time>2026-05-02T17:36:08.627Z</time></trkpt><trkpt lat="43.0018104" lon="10.8685078"><ele>170.5</ele><time>2026-05-02T17:36:09.623Z</time></trkpt><trkpt lat="43.0017913" lon="10.8682895"><ele>170.0</ele><time>2026-05-02T17:36:10.635Z</time></trkpt><trkpt lat="43.0017747" lon="10.868089"><ele>169.5</ele><time>2026-05-02T17:36:11.619Z</time></trkpt><trkpt lat="43.0017619" lon="10.8678975"><ele>169.0</ele><time>2026-05-02T17:36:12.628Z</time></trkpt><trkpt lat="43.0017527" lon="10.8677048"><ele>169.0</ele><time>2026-05-02T17:36:13.619Z</time></trkpt><trkpt lat="43.0017427" lon="10.8674944"><ele>169.0</ele><time>2026-05-02T17:36:14.62Z</time></trkpt><trkpt lat="43.0017313" lon="10.8672753"><ele>169.0</ele><time>2026-05-02T17:36:15.615Z</time></trkpt><trkpt lat="43.0017225" lon="10.8670536"><ele>169.0</ele><time>2026-05-02T17:36:16.621Z</time></trkpt><trkpt lat="43.0017095" lon="10.8668276"><ele>169.0</ele><time>2026-05-02T17:36:17.624Z</time></trkpt><trkpt lat="43.0016934" lon="10.8665973"><ele>169.0</ele><time>2026-05-02T17:36:18.643Z</time></trkpt><trkpt lat="43.0016796" lon="10.8663613"><ele>168.0</ele><time>2026-05-02T17:36:19.609Z</time></trkpt><trkpt lat="43.0016689" lon="10.8661216"><ele>167.0</ele><time>2026-05-02T17:36:20.629Z</time></trkpt><trkpt lat="43.0016602" lon="10.8658771"><ele>166.0</ele><time>2026-05-02T17:36:21.622Z</time></trkpt><trkpt lat="43.001655" lon="10.8656311"><ele>169.33333333333334</ele><time>2026-05-02T17:36:22.636Z</time></trkpt><trkpt lat="43.0016486" lon="10.8653816"><ele>172.66666666666666</ele><time>2026-05-02T17:36:23.628Z</time></trkpt><trkpt lat="43.0016439" lon="10.8651326"><ele>176.0</ele><time>2026-05-02T17:36:24.641Z</time></trkpt><trkpt lat="43.001643" lon="10.8648803"><ele>175.33333333333331</ele><time>2026-05-02T17:36:25.62Z</time></trkpt><trkpt lat="43.0016442" lon="10.8646252"><ele>174.66666666666666</ele><time>2026-05-02T17:36:26.642Z</time></trkpt><trkpt lat="43.0016439" lon="10.8643677"><ele>174.0</ele><time>2026-05-02T17:36:27.603Z</time></trkpt><trkpt lat="43.0016397" lon="10.8641055"><ele>174.0</ele><time>2026-05-02T17:36:28.641Z</time></trkpt><trkpt lat="43.0016388" lon="10.8638428"><ele>174.0</ele><time>2026-05-02T17:36:29.623Z</time></trkpt><trkpt lat="43.0016411" lon="10.863584"><ele>174.0</ele><time>2026-05-02T17:36:30.61Z</time></trkpt><trkpt lat="43.0016631" lon="10.8633244"><ele>170.0</ele><time>2026-05-02T17:36:31.617Z</time></trkpt><trkpt lat="43.0017081" lon="10.8630695"><ele>166.0</ele><time>2026-05-02T17:36:32.617Z</time></trkpt><trkpt lat="43.0017718" lon="10.862821"><ele>162.0</ele><time>2026-05-02T17:36:33.613Z</time></trkpt><trkpt lat="43.001854" lon="10.8625847"><ele>160.66666666666666</ele><time>2026-05-02T17:36:34.621Z</time></trkpt><trkpt lat="43.0019585" lon="10.8623662"><ele>159.33333333333331</ele><time>2026-05-02T17:36:35.614Z</time></trkpt><trkpt lat="43.002086" lon="10.862166"><ele>158.0</ele><time>2026-05-02T17:36:36.623Z</time></trkpt><trkpt lat="43.0022344" lon="10.8619892"><ele>158.0</ele><time>2026-05-02T17:36:37.635Z</time></trkpt><trkpt lat="43.0023921" lon="10.8618374"><ele>158.0</ele><time>2026-05-02T17:36:38.634Z</time></trkpt><trkpt lat="43.002562" lon="10.86171"><ele>158.0</ele><time>2026-05-02T17:36:39.624Z</time></trkpt><trkpt lat="43.0027274" lon="10.8615828"><ele>158.0</ele><time>2026-05-02T17:36:40.615Z</time></trkpt><trkpt lat="43.0028723" lon="10.8614348"><ele>158.0</ele><time>2026-05-02T17:36:41.609Z</time></trkpt><trkpt lat="43.0030029" lon="10.8612555"><ele>158.0</ele><time>2026-05-02T17:36:42.617Z</time></trkpt><trkpt lat="43.0031274" lon="10.8610523"><ele>158.0</ele><time>2026-05-02T17:36:43.62Z</time></trkpt><trkpt lat="43.0032468" lon="10.8608371"><ele>158.0</ele><time>2026-05-02T17:36:44.62Z</time></trkpt><trkpt lat="43.0033581" lon="10.8606035"><ele>158.0</ele><time>2026-05-02T17:36:45.617Z</time></trkpt><trkpt lat="43.0034667" lon="10.8603661"><ele>157.66666666666666</ele><time>2026-05-02T17:36:46.616Z</time></trkpt><trkpt lat="43.0035835" lon="10.8601251"><ele>157.33333333333334</ele><time>2026-05-02T17:36:47.614Z</time></trkpt><trkpt lat="43.0037051" lon="10.8598839"><ele>157.0</ele><time>2026-05-02T17:36:48.605Z</time></trkpt><trkpt lat="43.0038274" lon="10.859644"><ele>156.33333333333334</ele><time>2026-05-02T17:36:49.608Z</time></trkpt><trkpt lat="43.0039508" lon="10.8594047"><ele>155.66666666666666</ele><time>2026-05-02T17:36:50.617Z</time></trkpt><trkpt lat="43.0040758" lon="10.8591617"><ele>155.0</ele><time>2026-05-02T17:36:51.63Z</time></trkpt><trkpt lat="43.0041989" lon="10.858913"><ele>154.66666666666666</ele><time>2026-05-02T17:36:52.619Z</time></trkpt><trkpt lat="43.0043222" lon="10.8586627"><ele>154.33333333333334</ele><time>2026-05-02T17:36:53.617Z</time></trkpt><trkpt lat="43.0044449" lon="10.8584108"><ele>154.0</ele><time>2026-05-02T17:36:54.617Z</time></trkpt><trkpt lat="43.0045676" lon="10.8581604"><ele>154.0</ele><time>2026-05-02T17:36:55.613Z</time></trkpt><trkpt lat="43.0046857" lon="10.8579084"><ele>154.0</ele><time>2026-05-02T17:36:56.627Z</time></trkpt><trkpt lat="43.0048099" lon="10.857669"><ele>154.0</ele><time>2026-05-02T17:36:57.619Z</time></trkpt><trkpt lat="43.0049268" lon="10.8574264"><ele>153.66666666666669</ele><time>2026-05-02T17:36:58.617Z</time></trkpt><trkpt lat="43.0050355" lon="10.8571824"><ele>153.33333333333334</ele><time>2026-05-02T17:36:59.621Z</time></trkpt><trkpt lat="43.0051211" lon="10.8569273"><ele>153.0</ele><time>2026-05-02T17:37:00.611Z</time></trkpt><trkpt lat="43.0051842" lon="10.8566616"><ele>153.0</ele><time>2026-05-02T17:37:01.619Z</time></trkpt><trkpt lat="43.005231" lon="10.8564004"><ele>153.0</ele><time>2026-05-02T17:37:02.61Z</time></trkpt><trkpt lat="43.0052569" lon="10.8561324"><ele>153.0</ele><time>2026-05-02T17:37:03.633Z</time></trkpt><trkpt lat="43.0052657" lon="10.8558578"><ele>152.33333333333334</ele><time>2026-05-02T17:37:04.625Z</time></trkpt><trkpt lat="43.0052616" lon="10.8555867"><ele>151.66666666666669</ele><time>2026-05-02T17:37:05.619Z</time></trkpt><trkpt lat="43.0052475" lon="10.8553191"><ele>151.0</ele><time>2026-05-02T17:37:06.624Z</time></trkpt><trkpt lat="43.0052214" lon="10.8550499"><ele>151.0</ele><time>2026-05-02T17:37:07.613Z</time></trkpt><trkpt lat="43.005178" lon="10.8548022"><ele>151.0</ele><time>2026-05-02T17:37:08.618Z</time></trkpt><trkpt lat="43.005128" lon="10.8545778"><ele>151.0</ele><time>2026-05-02T17:37:09.617Z</time></trkpt><trkpt lat="43.0050773" lon="10.8543735"><ele>150.75</ele><time>2026-05-02T17:37:10.618Z</time></trkpt><trkpt lat="43.0050316" lon="10.8541905"><ele>150.5</ele><time>2026-05-02T17:37:11.615Z</time></trkpt><trkpt lat="43.0049858" lon="10.8540263"><ele>150.25</ele><time>2026-05-02T17:37:12.619Z</time></trkpt><trkpt lat="43.0049394" lon="10.8538603"><ele>150.0</ele><time>2026-05-02T17:37:13.611Z</time></trkpt><trkpt lat="43.0048939" lon="10.853697"><ele>150.0</ele><time>2026-05-02T17:37:14.616Z</time></trkpt><trkpt lat="43.0048498" lon="10.8535345"><ele>150.0</ele><time>2026-05-02T17:37:15.614Z</time></trkpt><trkpt lat="43.0048065" lon="10.8533647"><ele>150.0</ele><time>2026-05-02T17:37:16.611Z</time></trkpt><trkpt lat="43.0047626" lon="10.8531857"><ele>150.0</ele><time>2026-05-02T17:37:17.616Z</time></trkpt><trkpt lat="43.0047126" lon="10.8530032"><ele>150.0</ele><time>2026-05-02T17:37:18.622Z</time></trkpt><trkpt lat="43.0046621" lon="10.852827"><ele>150.0</ele><time>2026-05-02T17:37:19.612Z</time></trkpt><trkpt lat="43.0046169" lon="10.8526599"><ele>150.0</ele><time>2026-05-02T17:37:20.623Z</time></trkpt><trkpt lat="43.0045798" lon="10.8525048"><ele>150.0</ele><time>2026-05-02T17:37:21.634Z</time></trkpt><trkpt lat="43.0045467" lon="10.8523645"><ele>149.8</ele><time>2026-05-02T17:37:22.615Z</time></trkpt><trkpt lat="43.0045158" lon="10.8522313"><ele>149.6</ele><time>2026-05-02T17:37:23.621Z</time></trkpt><trkpt lat="43.0044955" lon="10.8521025"><ele>149.4</ele><time>2026-05-02T17:37:24.607Z</time></trkpt><trkpt lat="43.0044844" lon="10.8519722"><ele>149.2</ele><time>2026-05-02T17:37:25.612Z</time></trkpt><trkpt lat="43.0044901" lon="10.8518394"><ele>149.0</ele><time>2026-05-02T17:37:26.623Z</time></trkpt><trkpt lat="43.0045072" lon="10.8517008"><ele>148.66666666666666</ele><time>2026-05-02T17:37:27.626Z</time></trkpt><trkpt lat="43.0045315" lon="10.8515651"><ele>148.33333333333331</ele><time>2026-05-02T17:37:28.617Z</time></trkpt><trkpt lat="43.0045552" lon="10.8514412"><ele>148.0</ele><time>2026-05-02T17:37:29.616Z</time></trkpt><trkpt lat="43.0045758" lon="10.8513361"><ele>147.66666666666666</ele><time>2026-05-02T17:37:30.625Z</time></trkpt><trkpt lat="43.0046021" lon="10.8512413"><ele>147.33333333333334</ele><time>2026-05-02T17:37:31.622Z</time></trkpt><trkpt lat="43.0046413" lon="10.851163"><ele>147.0</ele><time>2026-05-02T17:37:32.618Z</time></trkpt><trkpt lat="43.0047287" lon="10.8510768"><ele>147.0</ele><time>2026-05-02T17:37:34.617Z</time></trkpt><trkpt lat="43.004811" lon="10.8510293"><ele>147.0</ele><time>2026-05-02T17:37:37.612Z</time></trkpt><trkpt lat="43.0048158" lon="10.8509036"><ele>147.0</ele><time>2026-05-02T17:37:40.625Z</time></trkpt><trkpt lat="43.0047722" lon="10.8508262"><ele>147.0</ele><time>2026-05-02T17:37:41.611Z</time></trkpt><trkpt lat="43.0047162" lon="10.8507418"><ele>147.0</ele><time>2026-05-02T17:37:42.621Z</time></trkpt><trkpt lat="43.0046425" lon="10.8506337"><ele>147.0</ele><time>2026-05-02T17:37:43.605Z</time></trkpt><trkpt lat="43.0045584" lon="10.8505101"><ele>146.75</ele><time>2026-05-02T17:37:44.627Z</time></trkpt><trkpt lat="43.0044725" lon="10.8503724"><ele>146.5</ele><time>2026-05-02T17:37:45.606Z</time></trkpt><trkpt lat="43.004382" lon="10.8502304"><ele>146.25</ele><time>2026-05-02T17:37:46.622Z</time></trkpt><trkpt lat="43.004295" lon="10.8500763"><ele>146.0</ele><time>2026-05-02T17:37:47.609Z</time></trkpt><trkpt lat="43.0042092" lon="10.8499167"><ele>145.0</ele><time>2026-05-02T17:37:48.622Z</time></trkpt><trkpt lat="43.0041222" lon="10.8497541"><ele>144.0</ele><time>2026-05-02T17:37:49.601Z</time></trkpt><trkpt lat="43.0040319" lon="10.8495982"><ele>143.0</ele><time>2026-05-02T17:37:50.62Z</time></trkpt><trkpt lat="43.0039428" lon="10.8494407"><ele>142.0</ele><time>2026-05-02T17:37:51.616Z</time></trkpt><trkpt lat="43.0038491" lon="10.8492806"><ele>141.33333333333334</ele><time>2026-05-02T17:37:52.621Z</time></trkpt><trkpt lat="43.0037472" lon="10.8491305"><ele>140.66666666666666</ele><time>2026-05-02T17:37:53.621Z</time></trkpt><trkpt lat="43.0036313" lon="10.848989"><ele>140.0</ele><time>2026-05-02T17:37:54.628Z</time></trkpt><trkpt lat="43.0035006" lon="10.8488677"><ele>140.0</ele><time>2026-05-02T17:37:55.617Z</time></trkpt><trkpt lat="43.0033549" lon="10.8487637"><ele>140.0</ele><time>2026-05-02T17:37:56.62Z</time></trkpt><trkpt lat="43.0031913" lon="10.8486694"><ele>140.0</ele><time>2026-05-02T17:37:57.624Z</time></trkpt><trkpt lat="43.0030317" lon="10.8485759"><ele>140.0</ele><time>2026-05-02T17:37:58.626Z</time></trkpt><trkpt lat="43.0028776" lon="10.8484781"><ele>140.0</ele><time>2026-05-02T17:37:59.61Z</time></trkpt><trkpt lat="43.0027228" lon="10.8483783"><ele>140.0</ele><time>2026-05-02T17:38:00.631Z</time></trkpt><trkpt lat="43.0025639" lon="10.8482765"><ele>139.33333333333331</ele><time>2026-05-02T17:38:01.61Z</time></trkpt><trkpt lat="43.0024001" lon="10.8481758"><ele>138.66666666666666</ele><time>2026-05-02T17:38:02.618Z</time></trkpt><trkpt lat="43.002235" lon="10.8480727"><ele>138.0</ele><time>2026-05-02T17:38:03.616Z</time></trkpt><trkpt lat="43.002068" lon="10.8479613"><ele>138.0</ele><time>2026-05-02T17:38:04.614Z</time></trkpt><trkpt lat="43.0018998" lon="10.8478542"><ele>138.0</ele><time>2026-05-02T17:38:05.608Z</time></trkpt><trkpt lat="43.0017304" lon="10.8477475"><ele>138.0</ele><time>2026-05-02T17:38:06.626Z</time></trkpt><trkpt lat="43.001559" lon="10.8476443"><ele>136.0</ele><time>2026-05-02T17:38:07.607Z</time></trkpt><trkpt lat="43.0013868" lon="10.847535"><ele>134.0</ele><time>2026-05-02T17:38:08.636Z</time></trkpt><trkpt lat="43.0012195" lon="10.8474254"><ele>132.0</ele><time>2026-05-02T17:38:09.612Z</time></trkpt><trkpt lat="43.0010645" lon="10.8473"><ele>132.0</ele><time>2026-05-02T17:38:10.616Z</time></trkpt><trkpt lat="43.0009155" lon="10.8471479"><ele>132.0</ele><time>2026-05-02T17:38:11.613Z</time></trkpt><trkpt lat="43.0007712" lon="10.8469887"><ele>132.0</ele><time>2026-05-02T17:38:12.624Z</time></trkpt><trkpt lat="43.0006255" lon="10.8468238"><ele>128.0</ele><time>2026-05-02T17:38:13.621Z</time></trkpt><trkpt lat="43.0004813" lon="10.8466683"><ele>124.0</ele><time>2026-05-02T17:38:14.619Z</time></trkpt><trkpt lat="43.0003377" lon="10.8465184"><ele>120.0</ele><time>2026-05-02T17:38:15.613Z</time></trkpt><trkpt lat="43.0002123" lon="10.846386"><ele>120.0</ele><time>2026-05-02T17:38:16.615Z</time></trkpt><trkpt lat="43.0001092" lon="10.8462743"><ele>120.0</ele><time>2026-05-02T17:38:17.625Z</time></trkpt><trkpt lat="43.000016" lon="10.8461786"><ele>120.0</ele><time>2026-05-02T17:38:18.605Z</time></trkpt><trkpt lat="42.9999303" lon="10.8460866"><ele>120.0</ele><time>2026-05-02T17:38:19.624Z</time></trkpt><trkpt lat="42.9998583" lon="10.845984"><ele>119.2</ele><time>2026-05-02T17:38:20.616Z</time></trkpt><trkpt lat="42.9998092" lon="10.8458612"><ele>118.4</ele><time>2026-05-02T17:38:21.612Z</time></trkpt><trkpt lat="42.9997841" lon="10.8457441"><ele>117.6</ele><time>2026-05-02T17:38:22.611Z</time></trkpt><trkpt lat="42.9997734" lon="10.8456112"><ele>116.8</ele><time>2026-05-02T17:38:24.612Z</time></trkpt><trkpt lat="42.9997415" lon="10.8454761"><ele>116.0</ele><time>2026-05-02T17:38:31.618Z</time></trkpt><trkpt lat="42.9996801" lon="10.8454165"><ele>116.0</ele><time>2026-05-02T17:38:32.616Z</time></trkpt><trkpt lat="42.9995935" lon="10.8453492"><ele>116.0</ele><time>2026-05-02T17:38:33.629Z</time></trkpt><trkpt lat="42.9994901" lon="10.8452785"><ele>116.0</ele><time>2026-05-02T17:38:34.625Z</time></trkpt><trkpt lat="42.9993684" lon="10.8451976"><ele>116.0</ele><time>2026-05-02T17:38:35.62Z</time></trkpt><trkpt lat="42.9992388" lon="10.8451025"><ele>114.0</ele><time>2026-05-02T17:38:36.638Z</time></trkpt><trkpt lat="42.9990994" lon="10.8449956"><ele>112.0</ele><time>2026-05-02T17:38:37.623Z</time></trkpt><trkpt lat="42.9989476" lon="10.8448771"><ele>110.0</ele><time>2026-05-02T17:38:38.635Z</time></trkpt><trkpt lat="42.9987845" lon="10.8447417"><ele>110.0</ele><time>2026-05-02T17:38:39.603Z</time></trkpt><trkpt lat="42.9986205" lon="10.8445904"><ele>110.0</ele><time>2026-05-02T17:38:40.622Z</time></trkpt><trkpt lat="42.9984545" lon="10.8444274"><ele>110.0</ele><time>2026-05-02T17:38:41.619Z</time></trkpt><trkpt lat="42.9982843" lon="10.8442507"><ele>108.0</ele><time>2026-05-02T17:38:42.622Z</time></trkpt><trkpt lat="42.9981118" lon="10.8440682"><ele>106.0</ele><time>2026-05-02T17:38:43.611Z</time></trkpt><trkpt lat="42.9979376" lon="10.8438856"><ele>104.0</ele><time>2026-05-02T17:38:44.614Z</time></trkpt><trkpt lat="42.9977621" lon="10.8437024"><ele>104.0</ele><time>2026-05-02T17:38:45.616Z</time></trkpt><trkpt lat="42.997589" lon="10.8435118"><ele>104.0</ele><time>2026-05-02T17:38:46.614Z</time></trkpt><trkpt lat="42.997416" lon="10.8433185"><ele>104.0</ele><time>2026-05-02T17:38:47.609Z</time></trkpt><trkpt lat="42.9972436" lon="10.843128"><ele>103.33333333333333</ele><time>2026-05-02T17:38:48.617Z</time></trkpt><trkpt lat="42.9970725" lon="10.8429406"><ele>102.66666666666666</ele><time>2026-05-02T17:38:49.625Z</time></trkpt><trkpt lat="42.9969063" lon="10.842759"><ele>102.0</ele><time>2026-05-02T17:38:50.608Z</time></trkpt><trkpt lat="42.9967401" lon="10.842575"><ele>100.66666666666666</ele><time>2026-05-02T17:38:51.618Z</time></trkpt><trkpt lat="42.9965718" lon="10.8423915"><ele>99.33333333333333</ele><time>2026-05-02T17:38:52.63Z</time></trkpt><trkpt lat="42.9964043" lon="10.8422123"><ele>98.0</ele><time>2026-05-02T17:38:53.615Z</time></trkpt><trkpt lat="42.9962402" lon="10.8420291"><ele>98.0</ele><time>2026-05-02T17:38:54.624Z</time></trkpt><trkpt lat="42.9960759" lon="10.8418452"><ele>98.0</ele><time>2026-05-02T17:38:55.615Z</time></trkpt><trkpt lat="42.9959053" lon="10.841669"><ele>98.0</ele><time>2026-05-02T17:38:56.612Z</time></trkpt><trkpt lat="42.9957372" lon="10.8414907"><ele>97.0</ele><time>2026-05-02T17:38:57.617Z</time></trkpt><trkpt lat="42.9955715" lon="10.8413137"><ele>96.0</ele><time>2026-05-02T17:38:58.619Z</time></trkpt><trkpt lat="42.9954067" lon="10.8411336"><ele>95.0</ele><time>2026-05-02T17:38:59.618Z</time></trkpt><trkpt lat="42.9952435" lon="10.8409547"><ele>94.33333333333334</ele><time>2026-05-02T17:39:00.618Z</time></trkpt><trkpt lat="42.9950801" lon="10.8407735"><ele>93.66666666666667</ele><time>2026-05-02T17:39:01.619Z</time></trkpt><trkpt lat="42.9949188" lon="10.8405944"><ele>93.0</ele><time>2026-05-02T17:39:02.613Z</time></trkpt><trkpt lat="42.9947558" lon="10.8404163"><ele>92.33333333333333</ele><time>2026-05-02T17:39:03.625Z</time></trkpt><trkpt lat="42.9945943" lon="10.8402388"><ele>91.66666666666666</ele><time>2026-05-02T17:39:04.621Z</time></trkpt><trkpt lat="42.994431" lon="10.8400623"><ele>91.0</ele><time>2026-05-02T17:39:05.623Z</time></trkpt><trkpt lat="42.994266" lon="10.8398825"><ele>90.0</ele><time>2026-05-02T17:39:06.631Z</time></trkpt><trkpt lat="42.994101" lon="10.839699"><ele>89.0</ele><time>2026-05-02T17:39:07.627Z</time></trkpt><trkpt lat="42.9939346" lon="10.8395166"><ele>88.0</ele><time>2026-05-02T17:39:08.629Z</time></trkpt><trkpt lat="42.9937699" lon="10.8393328"><ele>87.66666666666666</ele><time>2026-05-02T17:39:09.609Z</time></trkpt><trkpt lat="42.9936088" lon="10.8391463"><ele>87.33333333333333</ele><time>2026-05-02T17:39:10.599Z</time></trkpt><trkpt lat="42.9934491" lon="10.8389561"><ele>87.0</ele><time>2026-05-02T17:39:11.619Z</time></trkpt><trkpt lat="42.9932922" lon="10.8387663"><ele>87.0</ele><time>2026-05-02T17:39:12.638Z</time></trkpt><trkpt lat="42.9931436" lon="10.8385702"><ele>87.0</ele><time>2026-05-02T17:39:13.622Z</time></trkpt><trkpt lat="42.9929984" lon="10.8383734"><ele>87.0</ele><time>2026-05-02T17:39:14.65Z</time></trkpt><trkpt lat="42.9928581" lon="10.8381668"><ele>86.66666666666667</ele><time>2026-05-02T17:39:15.629Z</time></trkpt><trkpt lat="42.9927248" lon="10.8379435"><ele>86.33333333333334</ele><time>2026-05-02T17:39:16.639Z</time></trkpt><trkpt lat="42.992598" lon="10.8377072"><ele>86.0</ele><time>2026-05-02T17:39:17.624Z</time></trkpt><trkpt lat="42.9924759" lon="10.8374611"><ele>84.66666666666667</ele><time>2026-05-02T17:39:18.628Z</time></trkpt><trkpt lat="42.9923592" lon="10.8372194"><ele>83.33333333333333</ele><time>2026-05-02T17:39:19.619Z</time></trkpt><trkpt lat="42.992242" lon="10.8369811"><ele>82.0</ele><time>2026-05-02T17:39:20.633Z</time></trkpt><trkpt lat="42.9921271" lon="10.8367408"><ele>81.0</ele><time>2026-05-02T17:39:21.631Z</time></trkpt><trkpt lat="42.9920117" lon="10.8365008"><ele>80.0</ele><time>2026-05-02T17:39:22.647Z</time></trkpt><trkpt lat="42.991894" lon="10.8362564"><ele>79.0</ele><time>2026-05-02T17:39:23.629Z</time></trkpt><trkpt lat="42.9917699" lon="10.8360118"><ele>78.0</ele><time>2026-05-02T17:39:24.629Z</time></trkpt><trkpt lat="42.9916427" lon="10.8357691"><ele>77.0</ele><time>2026-05-02T17:39:25.624Z</time></trkpt><trkpt lat="42.9915112" lon="10.8355293"><ele>76.0</ele><time>2026-05-02T17:39:26.626Z</time></trkpt><trkpt lat="42.9913799" lon="10.8352963"><ele>75.66666666666666</ele><time>2026-05-02T17:39:27.609Z</time></trkpt><trkpt lat="42.9912431" lon="10.8350645"><ele>75.33333333333333</ele><time>2026-05-02T17:39:28.628Z</time></trkpt><trkpt lat="42.9911079" lon="10.8348441"><ele>75.0</ele><time>2026-05-02T17:39:29.615Z</time></trkpt><trkpt lat="42.9909709" lon="10.8346252"><ele>75.0</ele><time>2026-05-02T17:39:30.64Z</time></trkpt><trkpt lat="42.9908275" lon="10.8344193"><ele>75.0</ele><time>2026-05-02T17:39:31.614Z</time></trkpt><trkpt lat="42.9906785" lon="10.8342224"><ele>75.0</ele><time>2026-05-02T17:39:32.625Z</time></trkpt><trkpt lat="42.9905231" lon="10.834034"><ele>74.66666666666667</ele><time>2026-05-02T17:39:33.627Z</time></trkpt><trkpt lat="42.9903608" lon="10.8338533"><ele>74.33333333333334</ele><time>2026-05-02T17:39:34.628Z</time></trkpt><trkpt lat="42.9901953" lon="10.833676"><ele>74.0</ele><time>2026-05-02T17:39:35.63Z</time></trkpt><trkpt lat="42.9900326" lon="10.8335022"><ele>73.0</ele><time>2026-05-02T17:39:36.648Z</time></trkpt><trkpt lat="42.9898725" lon="10.8333279"><ele>72.0</ele><time>2026-05-02T17:39:37.634Z</time></trkpt><trkpt lat="42.989708" lon="10.8331493"><ele>71.0</ele><time>2026-05-02T17:39:38.624Z</time></trkpt><trkpt lat="42.989548" lon="10.832965"><ele>71.0</ele><time>2026-05-02T17:39:39.605Z</time></trkpt><trkpt lat="42.9893924" lon="10.8327736"><ele>71.0</ele><time>2026-05-02T17:39:40.627Z</time></trkpt><trkpt lat="42.9892361" lon="10.8325755"><ele>71.0</ele><time>2026-05-02T17:39:41.625Z</time></trkpt><trkpt lat="42.9890759" lon="10.8323767"><ele>70.66666666666667</ele><time>2026-05-02T17:39:42.625Z</time></trkpt><trkpt lat="42.9889141" lon="10.8321821"><ele>70.33333333333333</ele><time>2026-05-02T17:39:43.622Z</time></trkpt><trkpt lat="42.988755" lon="10.8319895"><ele>70.0</ele><time>2026-05-02T17:39:44.633Z</time></trkpt><trkpt lat="42.9885972" lon="10.8317989"><ele>70.0</ele><time>2026-05-02T17:39:45.627Z</time></trkpt><trkpt lat="42.9884409" lon="10.831608"><ele>70.0</ele><time>2026-05-02T17:39:46.621Z</time></trkpt><trkpt lat="42.9882848" lon="10.8314274"><ele>70.0</ele><time>2026-05-02T17:39:47.616Z</time></trkpt><trkpt lat="42.9881321" lon="10.8312513"><ele>69.0</ele><time>2026-05-02T17:39:48.621Z</time></trkpt><trkpt lat="42.9879874" lon="10.8310818"><ele>68.0</ele><time>2026-05-02T17:39:49.614Z</time></trkpt><trkpt lat="42.9878438" lon="10.8309088"><ele>67.0</ele><time>2026-05-02T17:39:50.623Z</time></trkpt><trkpt lat="42.9877021" lon="10.8307381"><ele>67.0</ele><time>2026-05-02T17:39:51.625Z</time></trkpt><trkpt lat="42.9875575" lon="10.8305646"><ele>67.0</ele><time>2026-05-02T17:39:52.631Z</time></trkpt><trkpt lat="42.9874087" lon="10.8303906"><ele>67.0</ele><time>2026-05-02T17:39:53.622Z</time></trkpt><trkpt lat="42.9872634" lon="10.8302164"><ele>66.0</ele><time>2026-05-02T17:39:54.62Z</time></trkpt><trkpt lat="42.9871218" lon="10.8300447"><ele>65.0</ele><time>2026-05-02T17:39:55.618Z</time></trkpt><trkpt lat="42.9869786" lon="10.8298741"><ele>64.0</ele><time>2026-05-02T17:39:56.621Z</time></trkpt><trkpt lat="42.9868372" lon="10.8297031"><ele>64.0</ele><time>2026-05-02T17:39:57.626Z</time></trkpt><trkpt lat="42.986695" lon="10.8295344"><ele>64.0</ele><time>2026-05-02T17:39:58.636Z</time></trkpt><trkpt lat="42.9865563" lon="10.8293683"><ele>64.0</ele><time>2026-05-02T17:39:59.629Z</time></trkpt><trkpt lat="42.9864213" lon="10.8292031"><ele>63.666666666666664</ele><time>2026-05-02T17:40:00.635Z</time></trkpt><trkpt lat="42.9862872" lon="10.8290382"><ele>63.33333333333333</ele><time>2026-05-02T17:40:01.629Z</time></trkpt><trkpt lat="42.9861526" lon="10.8288742"><ele>63.0</ele><time>2026-05-02T17:40:02.632Z</time></trkpt><trkpt lat="42.9860181" lon="10.8287127"><ele>63.0</ele><time>2026-05-02T17:40:03.616Z</time></trkpt><trkpt lat="42.9858846" lon="10.8285525"><ele>63.0</ele><time>2026-05-02T17:40:04.642Z</time></trkpt><trkpt lat="42.9857468" lon="10.8283888"><ele>63.0</ele><time>2026-05-02T17:40:05.634Z</time></trkpt><trkpt lat="42.9856068" lon="10.8282143"><ele>62.0</ele><time>2026-05-02T17:40:06.626Z</time></trkpt><trkpt lat="42.9854693" lon="10.828044"><ele>61.0</ele><time>2026-05-02T17:40:07.622Z</time></trkpt><trkpt lat="42.9853392" lon="10.8278858"><ele>60.0</ele><time>2026-05-02T17:40:08.638Z</time></trkpt><trkpt lat="42.9852154" lon="10.8277319"><ele>60.0</ele><time>2026-05-02T17:40:09.601Z</time></trkpt><trkpt lat="42.9850892" lon="10.8275822"><ele>60.0</ele><time>2026-05-02T17:40:10.627Z</time></trkpt><trkpt lat="42.9849607" lon="10.8274329"><ele>60.0</ele><time>2026-05-02T17:40:11.628Z</time></trkpt><trkpt lat="42.9848269" lon="10.8272761"><ele>60.0</ele><time>2026-05-02T17:40:12.637Z</time></trkpt><trkpt lat="42.9846882" lon="10.8271088"><ele>60.0</ele><time>2026-05-02T17:40:13.622Z</time></trkpt><trkpt lat="42.984544" lon="10.8269359"><ele>60.0</ele><time>2026-05-02T17:40:14.624Z</time></trkpt><trkpt lat="42.9843959" lon="10.8267596"><ele>60.0</ele><time>2026-05-02T17:40:15.617Z</time></trkpt><trkpt lat="42.984249" lon="10.8265793"><ele>60.0</ele><time>2026-05-02T17:40:16.637Z</time></trkpt><trkpt lat="42.984107" lon="10.8264015"><ele>60.0</ele><time>2026-05-02T17:40:17.613Z</time></trkpt><trkpt lat="42.9839666" lon="10.8262266"><ele>60.0</ele><time>2026-05-02T17:40:18.63Z</time></trkpt><trkpt lat="42.9838308" lon="10.8260588"><ele>60.0</ele><time>2026-05-02T17:40:19.618Z</time></trkpt><trkpt lat="42.9837019" lon="10.8259045"><ele>60.0</ele><time>2026-05-02T17:40:20.645Z</time></trkpt><trkpt lat="42.9835728" lon="10.8257506"><ele>59.66666666666667</ele><time>2026-05-02T17:40:21.615Z</time></trkpt><trkpt lat="42.9834439" lon="10.8255945"><ele>59.333333333333336</ele><time>2026-05-02T17:40:22.628Z</time></trkpt><trkpt lat="42.9833155" lon="10.8254389"><ele>59.0</ele><time>2026-05-02T17:40:23.618Z</time></trkpt><trkpt lat="42.9831909" lon="10.8252832"><ele>58.0</ele><time>2026-05-02T17:40:24.628Z</time></trkpt><trkpt lat="42.9830627" lon="10.8251222"><ele>57.0</ele><time>2026-05-02T17:40:25.618Z</time></trkpt><trkpt lat="42.9829258" lon="10.8249538"><ele>56.0</ele><time>2026-05-02T17:40:26.629Z</time></trkpt><trkpt lat="42.982785" lon="10.8247804"><ele>56.0</ele><time>2026-05-02T17:40:27.617Z</time></trkpt><trkpt lat="42.9826429" lon="10.8246055"><ele>56.0</ele><time>2026-05-02T17:40:28.635Z</time></trkpt><trkpt lat="42.9824993" lon="10.8244317"><ele>56.0</ele><time>2026-05-02T17:40:29.617Z</time></trkpt><trkpt lat="42.9823565" lon="10.8242537"><ele>55.333333333333336</ele><time>2026-05-02T17:40:30.628Z</time></trkpt><trkpt lat="42.9822097" lon="10.8240772"><ele>54.66666666666667</ele><time>2026-05-02T17:40:31.621Z</time></trkpt><trkpt lat="42.9820652" lon="10.8238966"><ele>54.0</ele><time>2026-05-02T17:40:32.625Z</time></trkpt><trkpt lat="42.9819252" lon="10.8237202"><ele>54.0</ele><time>2026-05-02T17:40:33.619Z</time></trkpt><trkpt lat="42.9817869" lon="10.8235476"><ele>54.0</ele><time>2026-05-02T17:40:34.634Z</time></trkpt><trkpt lat="42.9816533" lon="10.8233812"><ele>54.0</ele><time>2026-05-02T17:40:35.617Z</time></trkpt><trkpt lat="42.9815263" lon="10.823222"><ele>53.33333333333333</ele><time>2026-05-02T17:40:36.639Z</time></trkpt><trkpt lat="42.9814003" lon="10.8230686"><ele>52.666666666666664</ele><time>2026-05-02T17:40:37.613Z</time></trkpt><trkpt lat="42.9812726" lon="10.8229176"><ele>52.0</ele><time>2026-05-02T17:40:38.634Z</time></trkpt><trkpt lat="42.9811471" lon="10.8227648"><ele>51.666666666666664</ele><time>2026-05-02T17:40:39.619Z</time></trkpt><trkpt lat="42.9810183" lon="10.8226097"><ele>51.33333333333333</ele><time>2026-05-02T17:40:40.631Z</time></trkpt><trkpt lat="42.9808852" lon="10.8224494"><ele>51.0</ele><time>2026-05-02T17:40:41.625Z</time></trkpt><trkpt lat="42.9807508" lon="10.822282"><ele>51.0</ele><time>2026-05-02T17:40:42.627Z</time></trkpt><trkpt lat="42.9806178" lon="10.8221136"><ele>51.0</ele><time>2026-05-02T17:40:43.626Z</time></trkpt><trkpt lat="42.9804838" lon="10.8219452"><ele>51.0</ele><time>2026-05-02T17:40:44.633Z</time></trkpt><trkpt lat="42.9803461" lon="10.8217787"><ele>50.66666666666667</ele><time>2026-05-02T17:40:45.622Z</time></trkpt><trkpt lat="42.9802096" lon="10.8216167"><ele>50.333333333333336</ele><time>2026-05-02T17:40:46.621Z</time></trkpt><trkpt lat="42.9800773" lon="10.8214566"><ele>50.0</ele><time>2026-05-02T17:40:47.617Z</time></trkpt><trkpt lat="42.9799482" lon="10.821297"><ele>50.0</ele><time>2026-05-02T17:40:48.631Z</time></trkpt><trkpt lat="42.979821" lon="10.8211366"><ele>50.0</ele><time>2026-05-02T17:40:49.615Z</time></trkpt><trkpt lat="42.979696" lon="10.8209768"><ele>50.0</ele><time>2026-05-02T17:40:50.646Z</time></trkpt><trkpt lat="42.9795683" lon="10.820819"><ele>50.0</ele><time>2026-05-02T17:40:51.628Z</time></trkpt><trkpt lat="42.9794389" lon="10.8206623"><ele>50.0</ele><time>2026-05-02T17:40:52.626Z</time></trkpt><trkpt lat="42.9793042" lon="10.8205002"><ele>50.0</ele><time>2026-05-02T17:40:53.618Z</time></trkpt><trkpt lat="42.979167" lon="10.8203373"><ele>49.333333333333336</ele><time>2026-05-02T17:40:54.628Z</time></trkpt><trkpt lat="42.9790277" lon="10.8201689"><ele>48.66666666666667</ele><time>2026-05-02T17:40:55.618Z</time></trkpt><trkpt lat="42.9788915" lon="10.8199961"><ele>48.0</ele><time>2026-05-02T17:40:56.628Z</time></trkpt><trkpt lat="42.9787525" lon="10.8198261"><ele>47.666666666666664</ele><time>2026-05-02T17:40:57.615Z</time></trkpt><trkpt lat="42.9786143" lon="10.8196609"><ele>47.33333333333333</ele><time>2026-05-02T17:40:58.625Z</time></trkpt><trkpt lat="42.9784745" lon="10.8194951"><ele>47.0</ele><time>2026-05-02T17:40:59.618Z</time></trkpt><trkpt lat="42.9783376" lon="10.819334"><ele>46.666666666666664</ele><time>2026-05-02T17:41:00.629Z</time></trkpt><trkpt lat="42.9782077" lon="10.8191706"><ele>46.333333333333336</ele><time>2026-05-02T17:41:01.617Z</time></trkpt><trkpt lat="42.9780759" lon="10.8190097"><ele>46.0</ele><time>2026-05-02T17:41:02.636Z</time></trkpt><trkpt lat="42.9779447" lon="10.8188518"><ele>46.0</ele><time>2026-05-02T17:41:03.618Z</time></trkpt><trkpt lat="42.9778156" lon="10.8186932"><ele>46.0</ele><time>2026-05-02T17:41:04.62Z</time></trkpt><trkpt lat="42.9776901" lon="10.8185352"><ele>46.0</ele><time>2026-05-02T17:41:05.613Z</time></trkpt><trkpt lat="42.9775631" lon="10.8183853"><ele>45.0</ele><time>2026-05-02T17:41:06.623Z</time></trkpt><trkpt lat="42.9774407" lon="10.8182413"><ele>44.0</ele><time>2026-05-02T17:41:07.621Z</time></trkpt><trkpt lat="42.9773223" lon="10.8180965"><ele>43.0</ele><time>2026-05-02T17:41:08.62Z</time></trkpt><trkpt lat="42.9771996" lon="10.8179475"><ele>43.0</ele><time>2026-05-02T17:41:09.621Z</time></trkpt><trkpt lat="42.9770759" lon="10.817795"><ele>43.0</ele><time>2026-05-02T17:41:10.616Z</time></trkpt><trkpt lat="42.9769521" lon="10.8176431"><ele>43.0</ele><time>2026-05-02T17:41:11.614Z</time></trkpt><trkpt lat="42.9768254" lon="10.817495"><ele>43.333333333333336</ele><time>2026-05-02T17:41:12.633Z</time></trkpt><trkpt lat="42.9767044" lon="10.8173492"><ele>43.666666666666664</ele><time>2026-05-02T17:41:13.62Z</time></trkpt><trkpt lat="42.9765918" lon="10.8172121"><ele>44.0</ele><time>2026-05-02T17:41:14.623Z</time></trkpt><trkpt lat="42.9764839" lon="10.8170739"><ele>44.0</ele><time>2026-05-02T17:41:15.623Z</time></trkpt><trkpt lat="42.9763722" lon="10.8169429"><ele>44.0</ele><time>2026-05-02T17:41:16.618Z</time></trkpt><trkpt lat="42.976258" lon="10.816802"><ele>44.0</ele><time>2026-05-02T17:41:17.616Z</time></trkpt><trkpt lat="42.9761472" lon="10.8166631"><ele>43.75</ele><time>2026-05-02T17:41:18.62Z</time></trkpt><trkpt lat="42.9760371" lon="10.8165358"><ele>43.5</ele><time>2026-05-02T17:41:19.617Z</time></trkpt><trkpt lat="42.9759278" lon="10.8164105"><ele>43.25</ele><time>2026-05-02T17:41:20.622Z</time></trkpt><trkpt lat="42.9758209" lon="10.8162809"><ele>43.0</ele><time>2026-05-02T17:41:21.614Z</time></trkpt><trkpt lat="42.9757147" lon="10.8161508"><ele>43.0</ele><time>2026-05-02T17:41:22.621Z</time></trkpt><trkpt lat="42.975608" lon="10.8160177"><ele>43.0</ele><time>2026-05-02T17:41:23.604Z</time></trkpt><trkpt lat="42.9755074" lon="10.8158968"><ele>43.0</ele><time>2026-05-02T17:41:24.617Z</time></trkpt><trkpt lat="42.9754142" lon="10.8157829"><ele>43.0</ele><time>2026-05-02T17:41:25.619Z</time></trkpt><trkpt lat="42.9753252" lon="10.8156774"><ele>42.5</ele><time>2026-05-02T17:41:26.61Z</time></trkpt><trkpt lat="42.9752459" lon="10.8155774"><ele>42.0</ele><time>2026-05-02T17:41:27.622Z</time></trkpt><trkpt lat="42.9751844" lon="10.8154873"><ele>41.5</ele><time>2026-05-02T17:41:28.619Z</time></trkpt><trkpt lat="42.9751348" lon="10.8153989"><ele>41.0</ele><time>2026-05-02T17:41:29.622Z</time></trkpt><trkpt lat="42.9750993" lon="10.8153022"><ele>40.5</ele><time>2026-05-02T17:41:30.611Z</time></trkpt><trkpt lat="42.97508" lon="10.8152004"><ele>40.0</ele><time>2026-05-02T17:41:31.606Z</time></trkpt><trkpt lat="42.9750737" lon="10.8150952"><ele>39.833333333333336</ele><time>2026-05-02T17:41:32.61Z</time></trkpt><trkpt lat="42.9750557" lon="10.8149947"><ele>39.66666666666667</ele><time>2026-05-02T17:41:33.609Z</time></trkpt><trkpt lat="42.9750223" lon="10.814917"><ele>39.5</ele><time>2026-05-02T17:41:34.614Z</time></trkpt><trkpt lat="42.9749217" lon="10.8148405"><ele>39.333333333333336</ele><time>2026-05-02T17:41:36.634Z</time></trkpt><trkpt lat="42.9748477" lon="10.8148244"><ele>39.166666666666664</ele><time>2026-05-02T17:41:37.611Z</time></trkpt><trkpt lat="42.9747575" lon="10.8147978"><ele>39.0</ele><time>2026-05-02T17:41:38.623Z</time></trkpt><trkpt lat="42.9746611" lon="10.8147315"><ele>39.0</ele><time>2026-05-02T17:41:39.618Z</time></trkpt><trkpt lat="42.9745649" lon="10.8146245"><ele>39.0</ele><time>2026-05-02T17:41:40.634Z</time></trkpt><trkpt lat="42.974459" lon="10.8144999"><ele>39.0</ele><time>2026-05-02T17:41:41.612Z</time></trkpt><trkpt lat="42.9743396" lon="10.8143614"><ele>39.0</ele><time>2026-05-02T17:41:42.625Z</time></trkpt><trkpt lat="42.9742088" lon="10.8142064"><ele>37.666666666666664</ele><time>2026-05-02T17:41:43.613Z</time></trkpt><trkpt lat="42.9740665" lon="10.8140449"><ele>36.33333333333333</ele><time>2026-05-02T17:41:44.64Z</time></trkpt><trkpt lat="42.9739151" lon="10.8138735"><ele>35.0</ele><time>2026-05-02T17:41:45.625Z</time></trkpt><trkpt lat="42.9737607" lon="10.8136941"><ele>35.0</ele><time>2026-05-02T17:41:46.636Z</time></trkpt><trkpt lat="42.9735991" lon="10.8135065"><ele>35.0</ele><time>2026-05-02T17:41:47.619Z</time></trkpt><trkpt lat="42.9734304" lon="10.8133087"><ele>35.0</ele><time>2026-05-02T17:41:48.647Z</time></trkpt><trkpt lat="42.9732546" lon="10.8131117"><ele>32.5</ele><time>2026-05-02T17:41:49.61Z</time></trkpt><trkpt lat="42.9730763" lon="10.8129106"><ele>30.0</ele><time>2026-05-02T17:41:50.629Z</time></trkpt><trkpt lat="42.9728964" lon="10.8127051"><ele>30.0</ele><time>2026-05-02T17:41:51.616Z</time></trkpt><trkpt lat="42.9727161" lon="10.812495"><ele>30.0</ele><time>2026-05-02T17:41:52.631Z</time></trkpt><trkpt lat="42.972536" lon="10.8122873"><ele>29.5</ele><time>2026-05-02T17:41:53.631Z</time></trkpt><trkpt lat="42.9723573" lon="10.8120824"><ele>29.0</ele><time>2026-05-02T17:41:54.632Z</time></trkpt><trkpt lat="42.9721789" lon="10.8118797"><ele>29.0</ele><time>2026-05-02T17:41:55.626Z</time></trkpt><trkpt lat="42.9720042" lon="10.8116773"><ele>29.0</ele><time>2026-05-02T17:41:56.627Z</time></trkpt><trkpt lat="42.9718321" lon="10.81148"><ele>29.333333333333332</ele><time>2026-05-02T17:41:57.618Z</time></trkpt><trkpt lat="42.9716643" lon="10.8112889"><ele>29.666666666666664</ele><time>2026-05-02T17:41:58.637Z</time></trkpt><trkpt lat="42.9715003" lon="10.8110993"><ele>30.0</ele><time>2026-05-02T17:41:59.618Z</time></trkpt><trkpt lat="42.9713379" lon="10.8109168"><ele>29.0</ele><time>2026-05-02T17:42:00.623Z</time></trkpt><trkpt lat="42.971179" lon="10.8107363"><ele>28.0</ele><time>2026-05-02T17:42:01.631Z</time></trkpt><trkpt lat="42.9710205" lon="10.810552"><ele>27.0</ele><time>2026-05-02T17:42:02.631Z</time></trkpt><trkpt lat="42.9708605" lon="10.8103669"><ele>27.0</ele><time>2026-05-02T17:42:03.623Z</time></trkpt><trkpt lat="42.9706996" lon="10.8101836"><ele>27.0</ele><time>2026-05-02T17:42:04.623Z</time></trkpt><trkpt lat="42.970539" lon="10.8099979"><ele>27.0</ele><time>2026-05-02T17:42:05.62Z</time></trkpt><trkpt lat="42.9703703" lon="10.80981"><ele>27.0</ele><time>2026-05-02T17:42:06.635Z</time></trkpt><trkpt lat="42.9702009" lon="10.8096188"><ele>27.0</ele><time>2026-05-02T17:42:07.618Z</time></trkpt><trkpt lat="42.9700356" lon="10.8094249"><ele>27.0</ele><time>2026-05-02T17:42:08.616Z</time></trkpt><trkpt lat="42.9698769" lon="10.8092345"><ele>26.666666666666664</ele><time>2026-05-02T17:42:09.623Z</time></trkpt><trkpt lat="42.9697317" lon="10.8090426"><ele>26.333333333333332</ele><time>2026-05-02T17:42:10.627Z</time></trkpt><trkpt lat="42.9696052" lon="10.8088498"><ele>26.0</ele><time>2026-05-02T17:42:11.629Z</time></trkpt><trkpt lat="42.9694941" lon="10.8086447"><ele>24.666666666666664</ele><time>2026-05-02T17:42:12.612Z</time></trkpt><trkpt lat="42.9694106" lon="10.8084161"><ele>23.333333333333332</ele><time>2026-05-02T17:42:13.617Z</time></trkpt><trkpt lat="42.9693526" lon="10.8081704"><ele>22.0</ele><time>2026-05-02T17:42:14.611Z</time></trkpt><trkpt lat="42.9693177" lon="10.8079174"><ele>22.666666666666664</ele><time>2026-05-02T17:42:15.617Z</time></trkpt><trkpt lat="42.9693108" lon="10.8076594"><ele>23.333333333333332</ele><time>2026-05-02T17:42:16.632Z</time></trkpt><trkpt lat="42.96933" lon="10.8074142"><ele>24.0</ele><time>2026-05-02T17:42:17.619Z</time></trkpt><trkpt lat="42.9693645" lon="10.8071625"><ele>24.0</ele><time>2026-05-02T17:42:18.659Z</time></trkpt><trkpt lat="42.9694096" lon="10.806907"><ele>24.0</ele><time>2026-05-02T17:42:19.623Z</time></trkpt><trkpt lat="42.9694544" lon="10.8066477"><ele>24.0</ele><time>2026-05-02T17:42:20.64Z</time></trkpt><trkpt lat="42.9694933" lon="10.8064093"><ele>24.333333333333336</ele><time>2026-05-02T17:42:21.622Z</time></trkpt><trkpt lat="42.96953" lon="10.8061968"><ele>24.666666666666668</ele><time>2026-05-02T17:42:22.609Z</time></trkpt><trkpt lat="42.969556" lon="10.8060001"><ele>25.0</ele><time>2026-05-02T17:42:23.621Z</time></trkpt><trkpt lat="42.9695669" lon="10.8058015"><ele>25.0</ele><time>2026-05-02T17:42:24.618Z</time></trkpt><trkpt lat="42.9695601" lon="10.8055865"><ele>25.0</ele><time>2026-05-02T17:42:25.621Z</time></trkpt><trkpt lat="42.9695356" lon="10.8053556"><ele>25.0</ele><time>2026-05-02T17:42:26.618Z</time></trkpt><trkpt lat="42.9694979" lon="10.8051245"><ele>25.0</ele><time>2026-05-02T17:42:27.619Z</time></trkpt><trkpt lat="42.9694485" lon="10.8049191"><ele>25.0</ele><time>2026-05-02T17:42:28.628Z</time></trkpt><trkpt lat="42.9693963" lon="10.8047427"><ele>25.0</ele><time>2026-05-02T17:42:29.619Z</time></trkpt><trkpt lat="42.9693473" lon="10.8045773"><ele>25.0</ele><time>2026-05-02T17:42:30.62Z</time></trkpt><trkpt lat="42.9693091" lon="10.804423"><ele>25.0</ele><time>2026-05-02T17:42:31.625Z</time></trkpt><trkpt lat="42.9692782" lon="10.8042879"><ele>25.0</ele><time>2026-05-02T17:42:32.605Z</time></trkpt><trkpt lat="42.9692398" lon="10.8041761"><ele>25.0</ele><time>2026-05-02T17:42:33.611Z</time></trkpt><trkpt lat="42.9691763" lon="10.8040936"><ele>25.0</ele><time>2026-05-02T17:42:34.609Z</time></trkpt><trkpt lat="42.9690894" lon="10.8040579"><ele>25.0</ele><time>2026-05-02T17:42:35.615Z</time></trkpt><trkpt lat="42.9689862" lon="10.80407"><ele>24.75</ele><time>2026-05-02T17:42:36.602Z</time></trkpt><trkpt lat="42.9688761" lon="10.8041153"><ele>24.5</ele><time>2026-05-02T17:42:37.611Z</time></trkpt><trkpt lat="42.9687616" lon="10.804164"><ele>24.25</ele><time>2026-05-02T17:42:38.613Z</time></trkpt><trkpt lat="42.9686228" lon="10.8041465"><ele>24.0</ele><time>2026-05-02T17:42:39.617Z</time></trkpt><trkpt lat="42.9684691" lon="10.80411"><ele>23.333333333333332</ele><time>2026-05-02T17:42:40.618Z</time></trkpt><trkpt lat="42.9682963" lon="10.8040526"><ele>22.666666666666664</ele><time>2026-05-02T17:42:41.621Z</time></trkpt><trkpt lat="42.968116" lon="10.8039709"><ele>22.0</ele><time>2026-05-02T17:42:42.625Z</time></trkpt><trkpt lat="42.9679221" lon="10.8038619"><ele>22.0</ele><time>2026-05-02T17:42:43.613Z</time></trkpt><trkpt lat="42.9677132" lon="10.8037269"><ele>22.0</ele><time>2026-05-02T17:42:44.624Z</time></trkpt><trkpt lat="42.9674938" lon="10.8035689"><ele>22.0</ele><time>2026-05-02T17:42:45.611Z</time></trkpt><trkpt lat="42.9672574" lon="10.8033757"><ele>22.0</ele><time>2026-05-02T17:42:46.612Z</time></trkpt><trkpt lat="42.9670009" lon="10.8031514"><ele>22.0</ele><time>2026-05-02T17:42:47.62Z</time></trkpt><trkpt lat="42.9667261" lon="10.802902"><ele>22.0</ele><time>2026-05-02T17:42:48.619Z</time></trkpt><trkpt lat="42.9664334" lon="10.8026424"><ele>21.5</ele><time>2026-05-02T17:42:49.616Z</time></trkpt><trkpt lat="42.9661419" lon="10.8023832"><ele>21.0</ele><time>2026-05-02T17:42:50.618Z</time></trkpt><trkpt lat="42.9658691" lon="10.8021346"><ele>21.0</ele><time>2026-05-02T17:42:51.618Z</time></trkpt><trkpt lat="42.9656168" lon="10.8019059"><ele>21.0</ele><time>2026-05-02T17:42:52.619Z</time></trkpt><trkpt lat="42.9653876" lon="10.8016899"><ele>21.0</ele><time>2026-05-02T17:42:53.613Z</time></trkpt><trkpt lat="42.9651719" lon="10.8014825"><ele>21.0</ele><time>2026-05-02T17:42:54.611Z</time></trkpt><trkpt lat="42.9649644" lon="10.8012926"><ele>21.0</ele><time>2026-05-02T17:42:55.611Z</time></trkpt><trkpt lat="42.964766" lon="10.8011161"><ele>21.0</ele><time>2026-05-02T17:42:56.613Z</time></trkpt><trkpt lat="42.9645702" lon="10.8009436"><ele>21.0</ele><time>2026-05-02T17:42:57.617Z</time></trkpt><trkpt lat="42.9643723" lon="10.8007658"><ele>21.0</ele><time>2026-05-02T17:42:58.609Z</time></trkpt><trkpt lat="42.9641698" lon="10.8005775"><ele>21.0</ele><time>2026-05-02T17:42:59.62Z</time></trkpt><trkpt lat="42.9639605" lon="10.8003845"><ele>21.0</ele><time>2026-05-02T17:43:00.605Z</time></trkpt><trkpt lat="42.9637446" lon="10.8001897"><ele>21.0</ele><time>2026-05-02T17:43:01.617Z</time></trkpt><trkpt lat="42.963526" lon="10.7999939"><ele>21.0</ele><time>2026-05-02T17:43:02.617Z</time></trkpt><trkpt lat="42.9633105" lon="10.7997967"><ele>21.0</ele><time>2026-05-02T17:43:03.611Z</time></trkpt><trkpt lat="42.9630996" lon="10.7996069"><ele>21.0</ele><time>2026-05-02T17:43:04.614Z</time></trkpt><trkpt lat="42.9628934" lon="10.7994212"><ele>21.0</ele><time>2026-05-02T17:43:05.62Z</time></trkpt><trkpt lat="42.9626866" lon="10.7992362"><ele>21.0</ele><time>2026-05-02T17:43:06.627Z</time></trkpt><trkpt lat="42.962481" lon="10.7990499"><ele>20.5</ele><time>2026-05-02T17:43:07.611Z</time></trkpt><trkpt lat="42.9622782" lon="10.7988626"><ele>20.0</ele><time>2026-05-02T17:43:08.624Z</time></trkpt><trkpt lat="42.9620749" lon="10.7986768"><ele>21.0</ele><time>2026-05-02T17:43:09.617Z</time></trkpt><trkpt lat="42.9618693" lon="10.7984949"><ele>22.0</ele><time>2026-05-02T17:43:10.622Z</time></trkpt><trkpt lat="42.9616662" lon="10.7983123"><ele>22.0</ele><time>2026-05-02T17:43:11.623Z</time></trkpt><trkpt lat="42.9614644" lon="10.7981329"><ele>22.0</ele><time>2026-05-02T17:43:12.601Z</time></trkpt><trkpt lat="42.9612664" lon="10.7979532"><ele>22.0</ele><time>2026-05-02T17:43:13.625Z</time></trkpt><trkpt lat="42.9610719" lon="10.7977713"><ele>22.0</ele><time>2026-05-02T17:43:14.623Z</time></trkpt><trkpt lat="42.9608814" lon="10.7975926"><ele>23.0</ele><time>2026-05-02T17:43:15.622Z</time></trkpt><trkpt lat="42.9606922" lon="10.7974192"><ele>24.0</ele><time>2026-05-02T17:43:16.624Z</time></trkpt><trkpt lat="42.9605029" lon="10.7972479"><ele>24.0</ele><time>2026-05-02T17:43:17.619Z</time></trkpt><trkpt lat="42.9603196" lon="10.7970783"><ele>24.0</ele><time>2026-05-02T17:43:18.618Z</time></trkpt><trkpt lat="42.9601388" lon="10.7969151"><ele>24.0</ele><time>2026-05-02T17:43:19.613Z</time></trkpt><trkpt lat="42.9599636" lon="10.7967531"><ele>25.333333333333336</ele><time>2026-05-02T17:43:20.63Z</time></trkpt><trkpt lat="42.9597899" lon="10.796594"><ele>26.666666666666668</ele><time>2026-05-02T17:43:21.615Z</time></trkpt><trkpt lat="42.9596187" lon="10.7964343"><ele>28.0</ele><time>2026-05-02T17:43:22.631Z</time></trkpt><trkpt lat="42.9594466" lon="10.7962759"><ele>28.0</ele><time>2026-05-02T17:43:23.617Z</time></trkpt><trkpt lat="42.9592756" lon="10.7961158"><ele>28.0</ele><time>2026-05-02T17:43:24.63Z</time></trkpt><trkpt lat="42.9590992" lon="10.7959521"><ele>28.0</ele><time>2026-05-02T17:43:25.622Z</time></trkpt><trkpt lat="42.9589156" lon="10.7957841"><ele>29.5</ele><time>2026-05-02T17:43:26.634Z</time></trkpt><trkpt lat="42.9587262" lon="10.795611"><ele>31.0</ele><time>2026-05-02T17:43:27.612Z</time></trkpt><trkpt lat="42.9585379" lon="10.795436"><ele>30.666666666666668</ele><time>2026-05-02T17:43:28.623Z</time></trkpt><trkpt lat="42.9583539" lon="10.7952631"><ele>30.333333333333336</ele><time>2026-05-02T17:43:29.623Z</time></trkpt><trkpt lat="42.9581715" lon="10.7950907"><ele>30.0</ele><time>2026-05-02T17:43:30.637Z</time></trkpt><trkpt lat="42.9579945" lon="10.794921"><ele>30.333333333333336</ele><time>2026-05-02T17:43:31.616Z</time></trkpt><trkpt lat="42.9578213" lon="10.7947587"><ele>30.666666666666668</ele><time>2026-05-02T17:43:32.624Z</time></trkpt><trkpt lat="42.95765" lon="10.7946052"><ele>31.0</ele><time>2026-05-02T17:43:33.625Z</time></trkpt><trkpt lat="42.9574852" lon="10.7944509"><ele>31.333333333333336</ele><time>2026-05-02T17:43:34.638Z</time></trkpt><trkpt lat="42.9573198" lon="10.7942965"><ele>31.666666666666664</ele><time>2026-05-02T17:43:35.613Z</time></trkpt><trkpt lat="42.9571498" lon="10.7941369"><ele>32.0</ele><time>2026-05-02T17:43:36.618Z</time></trkpt><trkpt lat="42.9569751" lon="10.7939674"><ele>32.0</ele><time>2026-05-02T17:43:37.617Z</time></trkpt><trkpt lat="42.9567951" lon="10.793799"><ele>32.0</ele><time>2026-05-02T17:43:38.627Z</time></trkpt><trkpt lat="42.9566094" lon="10.7936245"><ele>32.0</ele><time>2026-05-02T17:43:39.616Z</time></trkpt><trkpt lat="42.9564227" lon="10.7934469"><ele>32.5</ele><time>2026-05-02T17:43:40.619Z</time></trkpt><trkpt lat="42.9562321" lon="10.7932705"><ele>33.0</ele><time>2026-05-02T17:43:41.612Z</time></trkpt><trkpt lat="42.9560485" lon="10.7930964"><ele>32.666666666666664</ele><time>2026-05-02T17:43:42.62Z</time></trkpt><trkpt lat="42.9558634" lon="10.7929227"><ele>32.33333333333333</ele><time>2026-05-02T17:43:43.611Z</time></trkpt><trkpt lat="42.9556775" lon="10.7927531"><ele>32.0</ele><time>2026-05-02T17:43:44.606Z</time></trkpt><trkpt lat="42.9554907" lon="10.7925855"><ele>32.0</ele><time>2026-05-02T17:43:45.625Z</time></trkpt><trkpt lat="42.9553053" lon="10.792419"><ele>32.0</ele><time>2026-05-02T17:43:46.598Z</time></trkpt><trkpt lat="42.9551141" lon="10.7922498"><ele>30.5</ele><time>2026-05-02T17:43:47.613Z</time></trkpt><trkpt lat="42.9549174" lon="10.7920715"><ele>29.0</ele><time>2026-05-02T17:43:48.631Z</time></trkpt><trkpt lat="42.9547216" lon="10.7918918"><ele>29.0</ele><time>2026-05-02T17:43:49.619Z</time></trkpt><trkpt lat="42.9545232" lon="10.7917127"><ele>29.0</ele><time>2026-05-02T17:43:50.62Z</time></trkpt><trkpt lat="42.9543258" lon="10.7915281"><ele>27.0</ele><time>2026-05-02T17:43:51.609Z</time></trkpt><trkpt lat="42.9541283" lon="10.7913429"><ele>25.0</ele><time>2026-05-02T17:43:52.628Z</time></trkpt><trkpt lat="42.9539324" lon="10.7911594"><ele>25.5</ele><time>2026-05-02T17:43:53.602Z</time></trkpt><trkpt lat="42.9537357" lon="10.7909764"><ele>26.0</ele><time>2026-05-02T17:43:54.619Z</time></trkpt><trkpt lat="42.9535377" lon="10.7907946"><ele>26.5</ele><time>2026-05-02T17:43:55.621Z</time></trkpt><trkpt lat="42.9533427" lon="10.7906154"><ele>27.0</ele><time>2026-05-02T17:43:56.614Z</time></trkpt><trkpt lat="42.9531491" lon="10.7904376"><ele>27.0</ele><time>2026-05-02T17:43:57.617Z</time></trkpt><trkpt lat="42.9529528" lon="10.7902631"><ele>27.0</ele><time>2026-05-02T17:43:58.616Z</time></trkpt><trkpt lat="42.9527621" lon="10.7900843"><ele>27.0</ele><time>2026-05-02T17:43:59.615Z</time></trkpt><trkpt lat="42.952573" lon="10.7899079"><ele>27.0</ele><time>2026-05-02T17:44:00.632Z</time></trkpt><trkpt lat="42.9523844" lon="10.7897263"><ele>27.0</ele><time>2026-05-02T17:44:01.626Z</time></trkpt><trkpt lat="42.952193" lon="10.7895383"><ele>27.0</ele><time>2026-05-02T17:44:02.622Z</time></trkpt><trkpt lat="42.9520053" lon="10.7893392"><ele>27.0</ele><time>2026-05-02T17:44:03.613Z</time></trkpt><trkpt lat="42.9518239" lon="10.7891222"><ele>27.0</ele><time>2026-05-02T17:44:04.615Z</time></trkpt><trkpt lat="42.9516499" lon="10.7888897"><ele>26.0</ele><time>2026-05-02T17:44:05.62Z</time></trkpt><trkpt lat="42.9514911" lon="10.7886338"><ele>25.0</ele><time>2026-05-02T17:44:06.626Z</time></trkpt><trkpt lat="42.9513384" lon="10.7883621"><ele>24.0</ele><time>2026-05-02T17:44:07.623Z</time></trkpt><trkpt lat="42.9512019" lon="10.7880745"><ele>23.0</ele><time>2026-05-02T17:44:08.624Z</time></trkpt><trkpt lat="42.9510795" lon="10.7877708"><ele>23.0</ele><time>2026-05-02T17:44:09.623Z</time></trkpt><trkpt lat="42.9509696" lon="10.7874507"><ele>23.0</ele><time>2026-05-02T17:44:10.609Z</time></trkpt><trkpt lat="42.9508717" lon="10.7871143"><ele>24.0</ele><time>2026-05-02T17:44:11.619Z</time></trkpt><trkpt lat="42.9507793" lon="10.7867758"><ele>25.0</ele><time>2026-05-02T17:44:12.64Z</time></trkpt><trkpt lat="42.9506901" lon="10.7864456"><ele>25.0</ele><time>2026-05-02T17:44:13.626Z</time></trkpt><trkpt lat="42.9506057" lon="10.7861244"><ele>25.0</ele><time>2026-05-02T17:44:14.624Z</time></trkpt><trkpt lat="42.950526" lon="10.7858162"><ele>25.5</ele><time>2026-05-02T17:44:15.622Z</time></trkpt><trkpt lat="42.9504484" lon="10.7855157"><ele>26.0</ele><time>2026-05-02T17:44:16.617Z</time></trkpt><trkpt lat="42.9503702" lon="10.785216"><ele>26.0</ele><time>2026-05-02T17:44:17.623Z</time></trkpt><trkpt lat="42.9502887" lon="10.7849148"><ele>26.0</ele><time>2026-05-02T17:44:18.612Z</time></trkpt><trkpt lat="42.9502047" lon="10.7846023"><ele>26.5</ele><time>2026-05-02T17:44:19.63Z</time></trkpt><trkpt lat="42.9501064" lon="10.7842587"><ele>27.0</ele><time>2026-05-02T17:44:20.628Z</time></trkpt><trkpt lat="42.950006" lon="10.7838912"><ele>27.5</ele><time>2026-05-02T17:44:21.609Z</time></trkpt><trkpt lat="42.9499097" lon="10.7835238"><ele>28.0</ele><time>2026-05-02T17:44:22.649Z</time></trkpt><trkpt lat="42.9498203" lon="10.7831795"><ele>28.0</ele><time>2026-05-02T17:44:23.622Z</time></trkpt><trkpt lat="42.9497337" lon="10.7828583"><ele>28.0</ele><time>2026-05-02T17:44:24.644Z</time></trkpt><trkpt lat="42.9496313" lon="10.7825461"><ele>29.5</ele><time>2026-05-02T17:44:25.623Z</time></trkpt><trkpt lat="42.9495133" lon="10.7822413"><ele>31.0</ele><time>2026-05-02T17:44:26.624Z</time></trkpt><trkpt lat="42.949374" lon="10.7819617"><ele>32.0</ele><time>2026-05-02T17:44:27.61Z</time></trkpt><trkpt lat="42.9492087" lon="10.7817063"><ele>33.0</ele><time>2026-05-02T17:44:28.626Z</time></trkpt><trkpt lat="42.9490172" lon="10.7814724"><ele>33.0</ele><time>2026-05-02T17:44:29.616Z</time></trkpt><trkpt lat="42.9488125" lon="10.7812663"><ele>33.0</ele><time>2026-05-02T17:44:30.624Z</time></trkpt><trkpt lat="42.9485867" lon="10.7810896"><ele>32.0</ele><time>2026-05-02T17:44:31.618Z</time></trkpt><trkpt lat="42.9483378" lon="10.7809409"><ele>31.0</ele><time>2026-05-02T17:44:32.635Z</time></trkpt><trkpt lat="42.9480712" lon="10.7808314"><ele>31.0</ele><time>2026-05-02T17:44:33.62Z</time></trkpt><trkpt lat="42.9477972" lon="10.7807508"><ele>31.0</ele><time>2026-05-02T17:44:34.621Z</time></trkpt><trkpt lat="42.9475184" lon="10.7806835"><ele>30.5</ele><time>2026-05-02T17:44:35.615Z</time></trkpt><trkpt lat="42.9472547" lon="10.7806217"><ele>30.0</ele><time>2026-05-02T17:44:36.632Z</time></trkpt><trkpt lat="42.9470101" lon="10.7805691"><ele>30.0</ele><time>2026-05-02T17:44:37.618Z</time></trkpt><trkpt lat="42.9467781" lon="10.780518"><ele>30.0</ele><time>2026-05-02T17:44:38.62Z</time></trkpt><trkpt lat="42.9465465" lon="10.7804636"><ele>30.5</ele><time>2026-05-02T17:44:39.62Z</time></trkpt><trkpt lat="42.9463047" lon="10.7804066"><ele>31.0</ele><time>2026-05-02T17:44:40.635Z</time></trkpt><trkpt lat="42.9460557" lon="10.7803491"><ele>30.5</ele><time>2026-05-02T17:44:41.611Z</time></trkpt><trkpt lat="42.9458091" lon="10.7802913"><ele>30.0</ele><time>2026-05-02T17:44:42.603Z</time></trkpt><trkpt lat="42.9455636" lon="10.780235"><ele>30.0</ele><time>2026-05-02T17:44:43.615Z</time></trkpt><trkpt lat="42.9453166" lon="10.7801774"><ele>30.0</ele><time>2026-05-02T17:44:44.631Z</time></trkpt><trkpt lat="42.9450736" lon="10.7801224"><ele>30.0</ele><time>2026-05-02T17:44:45.62Z</time></trkpt><trkpt lat="42.9448342" lon="10.7800665"><ele>30.0</ele><time>2026-05-02T17:44:46.633Z</time></trkpt><trkpt lat="42.9445991" lon="10.7800092"><ele>30.0</ele><time>2026-05-02T17:44:47.613Z</time></trkpt><trkpt lat="42.9443617" lon="10.7799567"><ele>30.0</ele><time>2026-05-02T17:44:48.624Z</time></trkpt><trkpt lat="42.9441196" lon="10.7799028"><ele>29.5</ele><time>2026-05-02T17:44:49.626Z</time></trkpt><trkpt lat="42.9438788" lon="10.7798482"><ele>29.0</ele><time>2026-05-02T17:44:50.64Z</time></trkpt><trkpt lat="42.9436371" lon="10.7797973"><ele>29.0</ele><time>2026-05-02T17:44:51.62Z</time></trkpt><trkpt lat="42.9433987" lon="10.7797538"><ele>29.0</ele><time>2026-05-02T17:44:52.62Z</time></trkpt><trkpt lat="42.9431641" lon="10.7797271"><ele>29.0</ele><time>2026-05-02T17:44:53.625Z</time></trkpt><trkpt lat="42.9429342" lon="10.7797191"><ele>29.0</ele><time>2026-05-02T17:44:54.633Z</time></trkpt><trkpt lat="42.9427092" lon="10.7797276"><ele>29.333333333333332</ele><time>2026-05-02T17:44:55.61Z</time></trkpt><trkpt lat="42.9424864" lon="10.779747"><ele>29.666666666666664</ele><time>2026-05-02T17:44:56.615Z</time></trkpt><trkpt lat="42.9422662" lon="10.7797587"><ele>30.0</ele><time>2026-05-02T17:44:57.609Z</time></trkpt><trkpt lat="42.9420426" lon="10.7797741"><ele>30.0</ele><time>2026-05-02T17:44:58.635Z</time></trkpt><trkpt lat="42.9418157" lon="10.7797886"><ele>30.0</ele><time>2026-05-02T17:44:59.616Z</time></trkpt><trkpt lat="42.9415863" lon="10.7798042"><ele>29.0</ele><time>2026-05-02T17:45:00.618Z</time></trkpt><trkpt lat="42.9413568" lon="10.7798221"><ele>28.0</ele><time>2026-05-02T17:45:01.612Z</time></trkpt><trkpt lat="42.9411235" lon="10.7798459"><ele>28.0</ele><time>2026-05-02T17:45:02.621Z</time></trkpt><trkpt lat="42.9408938" lon="10.7798676"><ele>28.0</ele><time>2026-05-02T17:45:03.612Z</time></trkpt><trkpt lat="42.9406625" lon="10.7798923"><ele>29.0</ele><time>2026-05-02T17:45:04.624Z</time></trkpt><trkpt lat="42.9404276" lon="10.7799059"><ele>30.0</ele><time>2026-05-02T17:45:05.599Z</time></trkpt><trkpt lat="42.9401854" lon="10.7799076"><ele>30.0</ele><time>2026-05-02T17:45:06.623Z</time></trkpt><trkpt lat="42.9399305" lon="10.7798903"><ele>30.0</ele><time>2026-05-02T17:45:07.614Z</time></trkpt><trkpt lat="42.9396676" lon="10.7798583"><ele>30.0</ele><time>2026-05-02T17:45:08.632Z</time></trkpt><trkpt lat="42.9394026" lon="10.7797965"><ele>30.0</ele><time>2026-05-02T17:45:09.62Z</time></trkpt><trkpt lat="42.9391468" lon="10.7797173"><ele>29.5</ele><time>2026-05-02T17:45:10.617Z</time></trkpt><trkpt lat="42.9389144" lon="10.77962"><ele>29.0</ele><time>2026-05-02T17:45:11.616Z</time></trkpt><trkpt lat="42.9387071" lon="10.7795121"><ele>29.0</ele><time>2026-05-02T17:45:12.619Z</time></trkpt><trkpt lat="42.9385058" lon="10.7793861"><ele>29.0</ele><time>2026-05-02T17:45:13.618Z</time></trkpt><trkpt lat="42.9383091" lon="10.7792407"><ele>29.0</ele><time>2026-05-02T17:45:14.626Z</time></trkpt><trkpt lat="42.938127" lon="10.7790857"><ele>28.333333333333332</ele><time>2026-05-02T17:45:15.623Z</time></trkpt><trkpt lat="42.9379666" lon="10.7789389"><ele>27.666666666666664</ele><time>2026-05-02T17:45:16.629Z</time></trkpt><trkpt lat="42.9378252" lon="10.7787973"><ele>27.0</ele><time>2026-05-02T17:45:17.621Z</time></trkpt><trkpt lat="42.9377015" lon="10.7786605"><ele>27.0</ele><time>2026-05-02T17:45:18.638Z</time></trkpt><trkpt lat="42.9375879" lon="10.7785252"><ele>27.0</ele><time>2026-05-02T17:45:19.614Z</time></trkpt><trkpt lat="42.9374852" lon="10.77839"><ele>27.0</ele><time>2026-05-02T17:45:20.61Z</time></trkpt><trkpt lat="42.9373816" lon="10.7782454"><ele>27.0</ele><time>2026-05-02T17:45:21.627Z</time></trkpt><trkpt lat="42.9372669" lon="10.7780925"><ele>26.666666666666664</ele><time>2026-05-02T17:45:22.618Z</time></trkpt><trkpt lat="42.9371483" lon="10.7779373"><ele>26.333333333333332</ele><time>2026-05-02T17:45:23.613Z</time></trkpt><trkpt lat="42.9370332" lon="10.7777811"><ele>26.0</ele><time>2026-05-02T17:45:24.61Z</time></trkpt><trkpt lat="42.9369289" lon="10.7776478"><ele>26.0</ele><time>2026-05-02T17:45:25.612Z</time></trkpt><trkpt lat="42.936833" lon="10.7775193"><ele>26.0</ele><time>2026-05-02T17:45:26.614Z</time></trkpt><trkpt lat="42.9367408" lon="10.7774007"><ele>26.0</ele><time>2026-05-02T17:45:27.602Z</time></trkpt><trkpt lat="42.9366503" lon="10.777282"><ele>26.0</ele><time>2026-05-02T17:45:28.616Z</time></trkpt><trkpt lat="42.9365669" lon="10.7771775"><ele>26.0</ele><time>2026-05-02T17:45:29.615Z</time></trkpt><trkpt lat="42.9364979" lon="10.7770829"><ele>26.0</ele><time>2026-05-02T17:45:30.605Z</time></trkpt><trkpt lat="42.9364381" lon="10.7769946"><ele>26.0</ele><time>2026-05-02T17:45:31.612Z</time></trkpt><trkpt lat="42.9363842" lon="10.7768844"><ele>26.0</ele><time>2026-05-02T17:45:32.621Z</time></trkpt><trkpt lat="42.93633" lon="10.7767459"><ele>26.0</ele><time>2026-05-02T17:45:33.618Z</time></trkpt><trkpt lat="42.9362751" lon="10.776599"><ele>25.999999999999996</ele><time>2026-05-02T17:45:34.608Z</time></trkpt><trkpt lat="42.9362167" lon="10.7764735"><ele>26.0</ele><time>2026-05-02T17:45:35.614Z</time></trkpt><trkpt lat="42.9361576" lon="10.7763762"><ele>26.0</ele><time>2026-05-02T17:45:36.613Z</time></trkpt><trkpt lat="42.9360961" lon="10.7763189"><ele>26.0</ele><time>2026-05-02T17:45:37.605Z</time></trkpt><trkpt lat="42.936022" lon="10.7762999"><ele>25.999999999999996</ele><time>2026-05-02T17:45:38.616Z</time></trkpt><trkpt lat="42.9359473" lon="10.7763178"><ele>26.0</ele><time>2026-05-02T17:45:39.604Z</time></trkpt><trkpt lat="42.9358691" lon="10.7763608"><ele>26.0</ele><time>2026-05-02T17:45:40.63Z</time></trkpt><trkpt lat="42.9357749" lon="10.7764068"><ele>26.0</ele><time>2026-05-02T17:45:41.611Z</time></trkpt><trkpt lat="42.9356786" lon="10.7764448"><ele>26.0</ele><time>2026-05-02T17:45:42.603Z</time></trkpt><trkpt lat="42.9355606" lon="10.7764079"><ele>26.0</ele><time>2026-05-02T17:45:43.606Z</time></trkpt><trkpt lat="42.9354507" lon="10.7763302"><ele>26.0</ele><time>2026-05-02T17:45:44.623Z</time></trkpt><trkpt lat="42.9353526" lon="10.7762332"><ele>26.0</ele><time>2026-05-02T17:45:45.606Z</time></trkpt><trkpt lat="42.9352573" lon="10.7761309"><ele>26.0</ele><time>2026-05-02T17:45:46.622Z</time></trkpt><trkpt lat="42.9351745" lon="10.7760394"><ele>26.0</ele><time>2026-05-02T17:45:47.612Z</time></trkpt><trkpt lat="42.9350935" lon="10.7759476"><ele>26.0</ele><time>2026-05-02T17:45:48.596Z</time></trkpt><trkpt lat="42.9350093" lon="10.775854"><ele>26.0</ele><time>2026-05-02T17:45:49.611Z</time></trkpt><trkpt lat="42.9349187" lon="10.7757549"><ele>26.0</ele><time>2026-05-02T17:45:50.614Z</time></trkpt><trkpt lat="42.9348253" lon="10.7756578"><ele>26.0</ele><time>2026-05-02T17:45:51.607Z</time></trkpt><trkpt lat="42.9347372" lon="10.7755661"><ele>26.0</ele><time>2026-05-02T17:45:52.613Z</time></trkpt><trkpt lat="42.9346551" lon="10.775474"><ele>26.0</ele><time>2026-05-02T17:45:53.612Z</time></trkpt><trkpt lat="42.9345748" lon="10.7753793"><ele>26.0</ele><time>2026-05-02T17:45:54.618Z</time></trkpt><trkpt lat="42.9344919" lon="10.7752947"><ele>25.999999999999996</ele><time>2026-05-02T17:45:55.608Z</time></trkpt><trkpt lat="42.9344079" lon="10.7752043"><ele>26.0</ele><time>2026-05-02T17:45:56.615Z</time></trkpt><trkpt lat="42.9343303" lon="10.7751219"><ele>26.0</ele><time>2026-05-02T17:45:57.62Z</time></trkpt><trkpt lat="42.9342688" lon="10.7750593"><ele>26.0</ele><time>2026-05-02T17:45:58.625Z</time></trkpt><trkpt lat="42.9342192" lon="10.7750001"><ele>25.999999999999996</ele><time>2026-05-02T17:45:59.601Z</time></trkpt><trkpt lat="42.934172" lon="10.7749364"><ele>26.0</ele><time>2026-05-02T17:46:00.617Z</time></trkpt><trkpt lat="42.9341279" lon="10.7748622"><ele>25.499999999999996</ele><time>2026-05-02T17:46:01.612Z</time></trkpt><trkpt lat="42.934084" lon="10.7747953"><ele>25.0</ele><time>2026-05-02T17:46:02.609Z</time></trkpt><trkpt lat="42.9339741" lon="10.7747122"><ele>24.5</ele><time>2026-05-02T17:46:04.608Z</time></trkpt><trkpt lat="42.9339099" lon="10.7746687"><ele>24.0</ele><time>2026-05-02T17:46:05.616Z</time></trkpt><trkpt lat="42.9338437" lon="10.7746127"><ele>23.5</ele><time>2026-05-02T17:46:06.607Z</time></trkpt><trkpt lat="42.9337867" lon="10.7745491"><ele>23.0</ele><time>2026-05-02T17:46:07.606Z</time></trkpt><trkpt lat="42.9337247" lon="10.7744803"><ele>23.0</ele><time>2026-05-02T17:46:08.605Z</time></trkpt><trkpt lat="42.9336594" lon="10.7744135"><ele>23.0</ele><time>2026-05-02T17:46:09.616Z</time></trkpt><trkpt lat="42.9335931" lon="10.774348"><ele>23.0</ele><time>2026-05-02T17:46:10.615Z</time></trkpt><trkpt lat="42.9335234" lon="10.7742736"><ele>23.0</ele><time>2026-05-02T17:46:11.615Z</time></trkpt><trkpt lat="42.9334487" lon="10.7741983"><ele>23.0</ele><time>2026-05-02T17:46:12.626Z</time></trkpt><trkpt lat="42.9333726" lon="10.7741123"><ele>23.0</ele><time>2026-05-02T17:46:13.624Z</time></trkpt><trkpt lat="42.933289" lon="10.7740231"><ele>22.5</ele><time>2026-05-02T17:46:14.627Z</time></trkpt><trkpt lat="42.9332002" lon="10.7739248"><ele>22.0</ele><time>2026-05-02T17:46:15.616Z</time></trkpt><trkpt lat="42.9331065" lon="10.7738212"><ele>21.5</ele><time>2026-05-02T17:46:16.643Z</time></trkpt><trkpt lat="42.9330109" lon="10.7737186"><ele>21.0</ele><time>2026-05-02T17:46:17.604Z</time></trkpt><trkpt lat="42.9329132" lon="10.7736155"><ele>21.0</ele><time>2026-05-02T17:46:18.619Z</time></trkpt><trkpt lat="42.9328178" lon="10.773511"><ele>21.0</ele><time>2026-05-02T17:46:19.616Z</time></trkpt><trkpt lat="42.9327212" lon="10.7734134"><ele>21.0</ele><time>2026-05-02T17:46:20.618Z</time></trkpt><trkpt lat="42.9326244" lon="10.773319"><ele>21.0</ele><time>2026-05-02T17:46:21.622Z</time></trkpt><trkpt lat="42.9325315" lon="10.7732192"><ele>20.6</ele><time>2026-05-02T17:46:22.633Z</time></trkpt><trkpt lat="42.9324402" lon="10.7731232"><ele>20.200000000000003</ele><time>2026-05-02T17:46:23.619Z</time></trkpt><trkpt lat="42.9323538" lon="10.7730313"><ele>19.799999999999997</ele><time>2026-05-02T17:46:24.636Z</time></trkpt><trkpt lat="42.9322703" lon="10.7729381"><ele>19.4</ele><time>2026-05-02T17:46:25.607Z</time></trkpt><trkpt lat="42.9321844" lon="10.7728452"><ele>19.0</ele><time>2026-05-02T17:46:26.622Z</time></trkpt><trkpt lat="42.9320966" lon="10.7727487"><ele>19.5</ele><time>2026-05-02T17:46:27.619Z</time></trkpt><trkpt lat="42.9320088" lon="10.7726558"><ele>20.0</ele><time>2026-05-02T17:46:28.604Z</time></trkpt><trkpt lat="42.9319226" lon="10.7725617"><ele>20.5</ele><time>2026-05-02T17:46:29.615Z</time></trkpt><trkpt lat="42.931837" lon="10.7724619"><ele>21.0</ele><time>2026-05-02T17:46:30.613Z</time></trkpt><trkpt lat="42.9317443" lon="10.7723626"><ele>20.75</ele><time>2026-05-02T17:46:31.605Z</time></trkpt><trkpt lat="42.9316524" lon="10.7722627"><ele>20.5</ele><time>2026-05-02T17:46:32.61Z</time></trkpt><trkpt lat="42.9315617" lon="10.7721663"><ele>20.25</ele><time>2026-05-02T17:46:33.616Z</time></trkpt><trkpt lat="42.9314733" lon="10.7720697"><ele>20.0</ele><time>2026-05-02T17:46:34.612Z</time></trkpt><trkpt lat="42.9313877" lon="10.7719687"><ele>20.0</ele><time>2026-05-02T17:46:35.613Z</time></trkpt><trkpt lat="42.9313025" lon="10.7718762"><ele>20.0</ele><time>2026-05-02T17:46:36.611Z</time></trkpt><trkpt lat="42.9312273" lon="10.7717934"><ele>20.0</ele><time>2026-05-02T17:46:37.614Z</time></trkpt><trkpt lat="42.9311587" lon="10.7717215"><ele>20.0</ele><time>2026-05-02T17:46:38.622Z</time></trkpt><trkpt lat="42.9310944" lon="10.7716504"><ele>20.0</ele><time>2026-05-02T17:46:39.622Z</time></trkpt><trkpt lat="42.9310339" lon="10.7715859"><ele>19.857142857142858</ele><time>2026-05-02T17:46:40.611Z</time></trkpt><trkpt lat="42.9309796" lon="10.7715198"><ele>19.714285714285715</ele><time>2026-05-02T17:46:41.624Z</time></trkpt><trkpt lat="42.9309334" lon="10.771442"><ele>19.57142857142857</ele><time>2026-05-02T17:46:42.608Z</time></trkpt><trkpt lat="42.9308947" lon="10.771354"><ele>19.42857142857143</ele><time>2026-05-02T17:46:43.621Z</time></trkpt><trkpt lat="42.9308587" lon="10.7712679"><ele>19.28571428571429</ele><time>2026-05-02T17:46:44.612Z</time></trkpt><trkpt lat="42.9308131" lon="10.7711977"><ele>19.142857142857142</ele><time>2026-05-02T17:46:45.619Z</time></trkpt><trkpt lat="42.9307481" lon="10.7711578"><ele>19.0</ele><time>2026-05-02T17:46:46.614Z</time></trkpt><trkpt lat="42.9306639" lon="10.7711335"><ele>19.0</ele><time>2026-05-02T17:46:47.612Z</time></trkpt><trkpt lat="42.9305727" lon="10.7710963"><ele>19.0</ele><time>2026-05-02T17:46:48.614Z</time></trkpt><trkpt lat="42.9304813" lon="10.7710249"><ele>19.0</ele><time>2026-05-02T17:46:49.612Z</time></trkpt><trkpt lat="42.9303866" lon="10.7709304"><ele>19.0</ele><time>2026-05-02T17:46:50.612Z</time></trkpt><trkpt lat="42.9302885" lon="10.770825"><ele>19.0</ele><time>2026-05-02T17:46:51.626Z</time></trkpt><trkpt lat="42.930188" lon="10.7707151"><ele>19.0</ele><time>2026-05-02T17:46:52.605Z</time></trkpt><trkpt lat="42.930092" lon="10.7706091"><ele>19.0</ele><time>2026-05-02T17:46:53.616Z</time></trkpt><trkpt lat="42.9299955" lon="10.7704995"><ele>19.0</ele><time>2026-05-02T17:46:54.61Z</time></trkpt><trkpt lat="42.9298957" lon="10.7703884"><ele>19.0</ele><time>2026-05-02T17:46:55.614Z</time></trkpt><trkpt lat="42.9298005" lon="10.7702837"><ele>18.5</ele><time>2026-05-02T17:46:56.613Z</time></trkpt><trkpt lat="42.9297088" lon="10.7701847"><ele>18.0</ele><time>2026-05-02T17:46:57.61Z</time></trkpt><trkpt lat="42.9296234" lon="10.7700832"><ele>17.5</ele><time>2026-05-02T17:46:58.608Z</time></trkpt><trkpt lat="42.929534" lon="10.7699875"><ele>17.0</ele><time>2026-05-02T17:46:59.607Z</time></trkpt><trkpt lat="42.9294487" lon="10.7698915"><ele>17.0</ele><time>2026-05-02T17:47:00.615Z</time></trkpt><trkpt lat="42.9293574" lon="10.7697962"><ele>17.0</ele><time>2026-05-02T17:47:01.606Z</time></trkpt><trkpt lat="42.9292599" lon="10.769703"><ele>17.0</ele><time>2026-05-02T17:47:02.62Z</time></trkpt><trkpt lat="42.929154" lon="10.7695875"><ele>17.0</ele><time>2026-05-02T17:47:03.627Z</time></trkpt><trkpt lat="42.9290432" lon="10.7694734"><ele>16.25</ele><time>2026-05-02T17:47:04.611Z</time></trkpt><trkpt lat="42.9289314" lon="10.7693533"><ele>15.5</ele><time>2026-05-02T17:47:05.612Z</time></trkpt><trkpt lat="42.9288214" lon="10.7692307"><ele>14.75</ele><time>2026-05-02T17:47:06.631Z</time></trkpt><trkpt lat="42.9287208" lon="10.7691183"><ele>14.0</ele><time>2026-05-02T17:47:07.604Z</time></trkpt><trkpt lat="42.9286273" lon="10.7690149"><ele>14.0</ele><time>2026-05-02T17:47:08.615Z</time></trkpt><trkpt lat="42.9285321" lon="10.768909"><ele>14.0</ele><time>2026-05-02T17:47:09.61Z</time></trkpt><trkpt lat="42.9284338" lon="10.7688008"><ele>14.0</ele><time>2026-05-02T17:47:10.615Z</time></trkpt><trkpt lat="42.9283337" lon="10.7686919"><ele>14.0</ele><time>2026-05-02T17:47:11.609Z</time></trkpt><trkpt lat="42.9282401" lon="10.7685897"><ele>13.799999999999999</ele><time>2026-05-02T17:47:12.623Z</time></trkpt><trkpt lat="42.9281545" lon="10.7684919"><ele>13.599999999999998</ele><time>2026-05-02T17:47:13.617Z</time></trkpt><trkpt lat="42.9280819" lon="10.7683866"><ele>13.4</ele><time>2026-05-02T17:47:14.624Z</time></trkpt><trkpt lat="42.9280295" lon="10.7682651"><ele>13.2</ele><time>2026-05-02T17:47:15.601Z</time></trkpt><trkpt lat="42.9279919" lon="10.7681406"><ele>13.0</ele><time>2026-05-02T17:47:16.603Z</time></trkpt><trkpt lat="42.9279593" lon="10.7680115"><ele>13.0</ele><time>2026-05-02T17:47:17.619Z</time></trkpt><trkpt lat="42.9279194" lon="10.7678932"><ele>13.0</ele><time>2026-05-02T17:47:18.628Z</time></trkpt><trkpt lat="42.9278534" lon="10.7677824"><ele>13.0</ele><time>2026-05-02T17:47:19.609Z</time></trkpt><trkpt lat="42.9277623" lon="10.7676912"><ele>13.0</ele><time>2026-05-02T17:47:20.616Z</time></trkpt><trkpt lat="42.927656" lon="10.7676293"><ele>13.0</ele><time>2026-05-02T17:47:21.618Z</time></trkpt><trkpt lat="42.9275372" lon="10.7675866"><ele>12.5</ele><time>2026-05-02T17:47:22.621Z</time></trkpt><trkpt lat="42.927407" lon="10.7675593"><ele>12.0</ele><time>2026-05-02T17:47:23.607Z</time></trkpt><trkpt lat="42.927294" lon="10.7675019"><ele>11.5</ele><time>2026-05-02T17:47:24.608Z</time></trkpt><trkpt lat="42.9271995" lon="10.7674306"><ele>11.0</ele><time>2026-05-02T17:47:25.61Z</time></trkpt><trkpt lat="42.9271123" lon="10.7673478"><ele>11.0</ele><time>2026-05-02T17:47:26.618Z</time></trkpt><trkpt lat="42.927027" lon="10.7672605"><ele>11.0</ele><time>2026-05-02T17:47:27.609Z</time></trkpt><trkpt lat="42.9269438" lon="10.7671778"><ele>11.0</ele><time>2026-05-02T17:47:28.612Z</time></trkpt><trkpt lat="42.9268755" lon="10.7671057"><ele>11.0</ele><time>2026-05-02T17:47:29.614Z</time></trkpt><trkpt lat="42.9268258" lon="10.7670432"><ele>11.0</ele><time>2026-05-02T17:47:30.614Z</time></trkpt><trkpt lat="42.9267426" lon="10.7669372"><ele>11.0</ele><time>2026-05-02T17:47:32.609Z</time></trkpt><trkpt lat="42.9266882" lon="10.7668903"><ele>11.0</ele><time>2026-05-02T17:47:33.609Z</time></trkpt><trkpt lat="42.9266166" lon="10.7668467"><ele>11.0</ele><time>2026-05-02T17:47:34.61Z</time></trkpt><trkpt lat="42.9265275" lon="10.7667944"><ele>11.0</ele><time>2026-05-02T17:47:35.612Z</time></trkpt><trkpt lat="42.9264288" lon="10.7667251"><ele>11.0</ele><time>2026-05-02T17:47:36.619Z</time></trkpt><trkpt lat="42.9263302" lon="10.7666402"><ele>11.25</ele><time>2026-05-02T17:47:37.605Z</time></trkpt><trkpt lat="42.9262312" lon="10.7665411"><ele>11.5</ele><time>2026-05-02T17:47:38.613Z</time></trkpt><trkpt lat="42.9261388" lon="10.7664394"><ele>11.75</ele><time>2026-05-02T17:47:39.622Z</time></trkpt><trkpt lat="42.9260522" lon="10.7663336"><ele>12.0</ele><time>2026-05-02T17:47:40.603Z</time></trkpt><trkpt lat="42.9259768" lon="10.7662357"><ele>12.0</ele><time>2026-05-02T17:47:41.617Z</time></trkpt><trkpt lat="42.9259134" lon="10.7661356"><ele>12.0</ele><time>2026-05-02T17:47:42.618Z</time></trkpt><trkpt lat="42.9258559" lon="10.7660369"><ele>12.0</ele><time>2026-05-02T17:47:43.617Z</time></trkpt><trkpt lat="42.9257965" lon="10.7659329"><ele>12.0</ele><time>2026-05-02T17:47:44.615Z</time></trkpt><trkpt lat="42.9257399" lon="10.7658237"><ele>12.0</ele><time>2026-05-02T17:47:45.612Z</time></trkpt><trkpt lat="42.9256811" lon="10.7657074"><ele>11.8</ele><time>2026-05-02T17:47:46.617Z</time></trkpt><trkpt lat="42.925622" lon="10.7655827"><ele>11.6</ele><time>2026-05-02T17:47:47.604Z</time></trkpt><trkpt lat="42.9255587" lon="10.7654542"><ele>11.4</ele><time>2026-05-02T17:47:48.617Z</time></trkpt><trkpt lat="42.925496" lon="10.7653273"><ele>11.200000000000001</ele><time>2026-05-02T17:47:49.606Z</time></trkpt><trkpt lat="42.9254402" lon="10.7652118"><ele>11.0</ele><time>2026-05-02T17:47:50.62Z</time></trkpt><trkpt lat="42.9253901" lon="10.7651082"><ele>10.833333333333332</ele><time>2026-05-02T17:47:51.616Z</time></trkpt><trkpt lat="42.9253532" lon="10.7650274"><ele>10.666666666666666</ele><time>2026-05-02T17:47:52.609Z</time></trkpt><trkpt lat="42.9253039" lon="10.7649093"><ele>10.5</ele><time>2026-05-02T17:47:54.621Z</time></trkpt><trkpt lat="42.9252633" lon="10.7648197"><ele>10.333333333333334</ele><time>2026-05-02T17:47:56.615Z</time></trkpt><trkpt lat="42.9252312" lon="10.7647261"><ele>10.166666666666668</ele><time>2026-05-02T17:47:58.62Z</time></trkpt><trkpt lat="42.9252048" lon="10.7646082"><ele>10.0</ele><time>2026-05-02T17:48:00.608Z</time></trkpt><trkpt lat="42.9251564" lon="10.7644809"><ele>10.0</ele><time>2026-05-02T17:48:02.612Z</time></trkpt><trkpt lat="42.9250608" lon="10.7643794"><ele>10.0</ele><time>2026-05-02T17:48:04.606Z</time></trkpt><trkpt lat="42.9250025" lon="10.7643243"><ele>10.0</ele><time>2026-05-02T17:48:05.607Z</time></trkpt><trkpt lat="42.9249452" lon="10.7642654"><ele>10.0</ele><time>2026-05-02T17:48:06.614Z</time></trkpt><trkpt lat="42.9248659" lon="10.7641473"><ele>10.0</ele><time>2026-05-02T17:48:08.606Z</time></trkpt><trkpt lat="42.9248173" lon="10.7639941"><ele>10.0</ele><time>2026-05-02T17:48:10.612Z</time></trkpt><trkpt lat="42.9247979" lon="10.7639068"><ele>10.0</ele><time>2026-05-02T17:48:11.615Z</time></trkpt><trkpt lat="42.9247822" lon="10.7638153"><ele>10.0</ele><time>2026-05-02T17:48:12.613Z</time></trkpt><trkpt lat="42.9247595" lon="10.7637184"><ele>10.0</ele><time>2026-05-02T17:48:13.61Z</time></trkpt><trkpt lat="42.9247322" lon="10.7636224"><ele>10.0</ele><time>2026-05-02T17:48:14.623Z</time></trkpt><trkpt lat="42.9246992" lon="10.7635248"><ele>10.0</ele><time>2026-05-02T17:48:15.602Z</time></trkpt><trkpt lat="42.9246579" lon="10.7634285"><ele>10.0</ele><time>2026-05-02T17:48:16.611Z</time></trkpt><trkpt lat="42.9246116" lon="10.7633331"><ele>9.666666666666668</ele><time>2026-05-02T17:48:17.61Z</time></trkpt><trkpt lat="42.9245683" lon="10.7632389"><ele>9.333333333333334</ele><time>2026-05-02T17:48:18.617Z</time></trkpt><trkpt lat="42.9245247" lon="10.7631432"><ele>9.0</ele><time>2026-05-02T17:48:19.616Z</time></trkpt><trkpt lat="42.924478" lon="10.7630504"><ele>8.666666666666666</ele><time>2026-05-02T17:48:20.611Z</time></trkpt><trkpt lat="42.924435" lon="10.7629671"><ele>8.333333333333332</ele><time>2026-05-02T17:48:21.618Z</time></trkpt><trkpt lat="42.9243967" lon="10.7628949"><ele>8.0</ele><time>2026-05-02T17:48:22.611Z</time></trkpt><trkpt lat="42.9243593" lon="10.7628196"><ele>8.0</ele><time>2026-05-02T17:48:23.621Z</time></trkpt><trkpt lat="42.9243267" lon="10.7627447"><ele>8.0</ele><time>2026-05-02T17:48:24.617Z</time></trkpt><trkpt lat="42.9242695" lon="10.7626072"><ele>8.0</ele><time>2026-05-02T17:48:26.612Z</time></trkpt><trkpt lat="42.9242503" lon="10.7624682"><ele>8.0</ele><time>2026-05-02T17:48:28.607Z</time></trkpt><trkpt lat="42.9241905" lon="10.7623556"><ele>8.0</ele><time>2026-05-02T17:48:30.624Z</time></trkpt><trkpt lat="42.9241016" lon="10.7622643"><ele>8.166666666666666</ele><time>2026-05-02T17:48:32.613Z</time></trkpt><trkpt lat="42.9240447" lon="10.7622043"><ele>8.333333333333332</ele><time>2026-05-02T17:48:33.604Z</time></trkpt><trkpt lat="42.9239937" lon="10.76212"><ele>8.5</ele><time>2026-05-02T17:48:34.615Z</time></trkpt><trkpt lat="42.9239442" lon="10.7620099"><ele>8.666666666666666</ele><time>2026-05-02T17:48:35.613Z</time></trkpt><trkpt lat="42.9238933" lon="10.7619095"><ele>8.833333333333334</ele><time>2026-05-02T17:48:36.622Z</time></trkpt><trkpt lat="42.9238489" lon="10.7618219"><ele>9.0</ele><time>2026-05-02T17:48:37.6Z</time></trkpt><trkpt lat="42.9238095" lon="10.7617458"><ele>9.0</ele><time>2026-05-02T17:48:38.612Z</time></trkpt><trkpt lat="42.9237733" lon="10.7616657"><ele>9.0</ele><time>2026-05-02T17:48:39.609Z</time></trkpt><trkpt lat="42.923738" lon="10.7615775"><ele>9.0</ele><time>2026-05-02T17:48:40.604Z</time></trkpt><trkpt lat="42.9236952" lon="10.7614864"><ele>9.0</ele><time>2026-05-02T17:48:41.616Z</time></trkpt><trkpt lat="42.9236488" lon="10.7613961"><ele>9.0</ele><time>2026-05-02T17:48:42.614Z</time></trkpt><trkpt lat="42.9236043" lon="10.7613037"><ele>9.0</ele><time>2026-05-02T17:48:43.606Z</time></trkpt><trkpt lat="42.9235693" lon="10.7612214"><ele>9.0</ele><time>2026-05-02T17:48:44.615Z</time></trkpt><trkpt lat="42.9235223" lon="10.7610925"><ele>9.0</ele><time>2026-05-02T17:48:46.612Z</time></trkpt><trkpt lat="42.9234764" lon="10.7609925"><ele>9.0</ele><time>2026-05-02T17:48:49.606Z</time></trkpt><trkpt lat="42.9234254" lon="10.7608916"><ele>9.0</ele><time>2026-05-02T17:48:51.608Z</time></trkpt><trkpt lat="42.9233894" lon="10.7608043"><ele>9.0</ele><time>2026-05-02T17:48:53.615Z</time></trkpt><trkpt lat="42.9233306" lon="10.7606826"><ele>9.0</ele><time>2026-05-02T17:48:55.606Z</time></trkpt><trkpt lat="42.9232791" lon="10.7605977"><ele>9.0</ele><time>2026-05-02T17:48:56.61Z</time></trkpt><trkpt lat="42.9232216" lon="10.7604999"><ele>9.0</ele><time>2026-05-02T17:48:57.616Z</time></trkpt><trkpt lat="42.9231583" lon="10.7603891"><ele>9.0</ele><time>2026-05-02T17:48:58.606Z</time></trkpt><trkpt lat="42.9230954" lon="10.7602719"><ele>9.0</ele><time>2026-05-02T17:48:59.607Z</time></trkpt><trkpt lat="42.9230322" lon="10.7601518"><ele>9.0</ele><time>2026-05-02T17:49:00.605Z</time></trkpt><trkpt lat="42.9229737" lon="10.7600415"><ele>9.0</ele><time>2026-05-02T17:49:01.604Z</time></trkpt><trkpt lat="42.9229187" lon="10.7599478"><ele>9.0</ele><time>2026-05-02T17:49:02.611Z</time></trkpt><trkpt lat="42.9228777" lon="10.7598579"><ele>9.0</ele><time>2026-05-02T17:49:03.61Z</time></trkpt><trkpt lat="42.9228424" lon="10.7597718"><ele>9.0</ele><time>2026-05-02T17:49:04.606Z</time></trkpt><trkpt lat="42.9228074" lon="10.7596988"><ele>9.0</ele><time>2026-05-02T17:49:05.607Z</time></trkpt><trkpt lat="42.9227666" lon="10.759583"><ele>9.0</ele><time>2026-05-02T17:49:07.601Z</time></trkpt><trkpt lat="42.922725" lon="10.7594941"><ele>9.0</ele><time>2026-05-02T17:49:09.611Z</time></trkpt><trkpt lat="42.922645" lon="10.7594469"><ele>9.0</ele><time>2026-05-02T17:49:11.612Z</time></trkpt><trkpt lat="42.9225222" lon="10.7594936"><ele>9.0</ele><time>2026-05-02T17:49:13.602Z</time></trkpt><trkpt lat="42.9224019" lon="10.7595553"><ele>9.0</ele><time>2026-05-02T17:49:15.61Z</time></trkpt><trkpt lat="42.9223304" lon="10.7595956"><ele>9.333333333333334</ele><time>2026-05-02T17:49:16.6Z</time></trkpt><trkpt lat="42.9222497" lon="10.7596339"><ele>9.666666666666666</ele><time>2026-05-02T17:49:17.611Z</time></trkpt><trkpt lat="42.9221678" lon="10.7596726"><ele>10.0</ele><time>2026-05-02T17:49:18.604Z</time></trkpt><trkpt lat="42.922082" lon="10.7597073"><ele>10.333333333333332</ele><time>2026-05-02T17:49:19.609Z</time></trkpt><trkpt lat="42.9219978" lon="10.7597403"><ele>10.666666666666666</ele><time>2026-05-02T17:49:20.599Z</time></trkpt><trkpt lat="42.9219207" lon="10.7597772"><ele>11.0</ele><time>2026-05-02T17:49:21.604Z</time></trkpt><trkpt lat="42.9218531" lon="10.7598136"><ele>11.0</ele><time>2026-05-02T17:49:22.604Z</time></trkpt><trkpt lat="42.9217856" lon="10.7598467"><ele>11.0</ele><time>2026-05-02T17:49:23.601Z</time></trkpt><trkpt lat="42.9216823" lon="10.75982"><ele>11.0</ele><time>2026-05-02T17:49:25.602Z</time></trkpt><trkpt lat="42.921639" lon="10.7596888"><ele>11.0</ele><time>2026-05-02T17:49:27.601Z</time></trkpt><trkpt lat="42.9216192" lon="10.7595981"><ele>11.0</ele><time>2026-05-02T17:49:28.613Z</time></trkpt><trkpt lat="42.9216007" lon="10.7594988"><ele>11.0</ele><time>2026-05-02T17:49:29.602Z</time></trkpt><trkpt lat="42.9215781" lon="10.7593926"><ele>11.5</ele><time>2026-05-02T17:49:30.594Z</time></trkpt><trkpt lat="42.9215521" lon="10.7592814"><ele>12.0</ele><time>2026-05-02T17:49:31.603Z</time></trkpt><trkpt lat="42.9215243" lon="10.7591718"><ele>12.5</ele><time>2026-05-02T17:49:32.595Z</time></trkpt><trkpt lat="42.9214987" lon="10.7590718"><ele>13.0</ele><time>2026-05-02T17:49:33.611Z</time></trkpt><trkpt lat="42.9214795" lon="10.758976"><ele>13.500000000000002</ele><time>2026-05-02T17:49:34.602Z</time></trkpt><trkpt lat="42.921439" lon="10.7588194"><ele>14.0</ele><time>2026-05-02T17:49:36.62Z</time></trkpt><trkpt lat="42.9214093" lon="10.7587366"><ele>14.000000000000002</ele><time>2026-05-02T17:49:37.603Z</time></trkpt><trkpt lat="42.9213783" lon="10.7586512"><ele>14.0</ele><time>2026-05-02T17:49:38.614Z</time></trkpt><trkpt lat="42.9213511" lon="10.7585534"><ele>14.0</ele><time>2026-05-02T17:49:39.62Z</time></trkpt><trkpt lat="42.9213223" lon="10.7584561"><ele>14.0</ele><time>2026-05-02T17:49:40.612Z</time></trkpt><trkpt lat="42.9212906" lon="10.7583619"><ele>14.000000000000002</ele><time>2026-05-02T17:49:41.607Z</time></trkpt><trkpt lat="42.9212644" lon="10.7582613"><ele>14.0</ele><time>2026-05-02T17:49:42.694Z</time></trkpt><trkpt lat="42.9212353" lon="10.7581679"><ele>13.500000000000002</ele><time>2026-05-02T17:49:43.613Z</time></trkpt><trkpt lat="42.9212088" lon="10.7580878"><ele>13.0</ele><time>2026-05-02T17:49:44.605Z</time></trkpt><trkpt lat="42.9211633" lon="10.7579487"><ele>12.5</ele><time>2026-05-02T17:49:46.617Z</time></trkpt><trkpt lat="42.9211277" lon="10.7578166"><ele>12.0</ele><time>2026-05-02T17:49:48.617Z</time></trkpt><trkpt lat="42.921106" lon="10.7577325"><ele>11.5</ele><time>2026-05-02T17:49:50.613Z</time></trkpt><trkpt lat="42.9210858" lon="10.7576451"><ele>11.0</ele><time>2026-05-02T17:49:53.614Z</time></trkpt><trkpt lat="42.921046" lon="10.7575644"><ele>10.8</ele><time>2026-05-02T17:49:57.605Z</time></trkpt><trkpt lat="42.9210005" lon="10.7574488"><ele>10.600000000000001</ele><time>2026-05-02T17:49:59.611Z</time></trkpt><trkpt lat="42.9209672" lon="10.757301"><ele>10.4</ele><time>2026-05-02T17:50:01.608Z</time></trkpt><trkpt lat="42.9209282" lon="10.7571495"><ele>10.2</ele><time>2026-05-02T17:50:03.605Z</time></trkpt><trkpt lat="42.9208919" lon="10.7570058"><ele>10.0</ele><time>2026-05-02T17:50:05.606Z</time></trkpt><trkpt lat="42.9208633" lon="10.7568965"><ele>8.0</ele><time>2026-05-02T17:50:07.609Z</time></trkpt><trkpt lat="42.9208226" lon="10.7568091"><ele>6.0</ele><time>2026-05-02T17:50:09.61Z</time></trkpt><trkpt lat="42.9207743" lon="10.7567428"><ele>6.0</ele><time>2026-05-02T17:50:11.606Z</time></trkpt><trkpt lat="42.9207042" lon="10.7566869"><ele>6.0</ele><time>2026-05-02T17:50:14.615Z</time></trkpt><trkpt lat="42.9206285" lon="10.756648"><ele>6.0</ele><time>2026-05-02T17:50:18.618Z</time></trkpt></trkseg></trk></gpx>